//0
//<Encoding>UTF-8</Encoding>
//File updated on 11/18/2025 11:30
//WMO ID: 4902663
//MBARI ID: ODV4902663
//Data source: 4902663_Sprof.nc
//DAC: meds
//Float type: ARVOR
//
//PLEASE READ:
//Data for this file has been extracted from the Synthetic profiles (*SProf.nc)
//Only RAW data parameters were used
//No missing float profiles
//
//Missing data value = -1e10
//Argo to ODV QF conversion: Argo 0|99 => ODV 1, Argo 1|2|8 => ODV 0, Argo 3|5 => ODV 4, Argo 4 => ODV 8
//Data quality flags: 0=Good, 4=Questionable, 8=Bad, 1=Missing or not inspected 
Cruise	Station	Type	mon/day/yr	hh:mm	Lon [°E]	Lat [°N]	QF	Pressure[dbar]	QF	Temperature[°C]	QF	Salinity[pss]	QF	Sigma_theta[kg/m^3]	QF	Depth[m]	QF	Oxygen[µmol/kg]	QF	OxygenSat[%]	QF	Nitrate[µmol/kg]	QF	Chl_a[mg/m^3]	QF	b_bp700[1/m]	QF	CDOM[ppb]	QF	pHinsitu[Total]	QF	CP660[1/m]	QF
4902663	1	C	08/14/2023	06:18	-128.708	48.840	0	0.00	0	18.1150	0	31.9640	0	22.922	0	0.000	0	-1e10	1	-1e10	1	-1E+10	1	-1E+10	1	-1E+10	1	-1E+10	1	-1E+10	1	-1E+10	1
4902663	1	C	08/14/2023	06:18	-128.708	48.840	0	0.10	0	18.1240	0	31.8950	0	22.867	0	0.099	0	235.1	4	98.6	4	-1E+10	1	-1E+10	1	-1E+10	1	-1E+10	1	-1E+10	1	-1E+10	1
4902663	1	C	08/14/2023	06:18	-128.708	48.840	0	1.10	0	18.1270	0	31.9870	0	22.936	0	1.091	0	234.9	4	98.6	4	-1E+10	1	-1E+10	1	-1E+10	1	-1E+10	1	-1E+10	1	-1E+10	1
4902663	1	C	08/14/2023	06:18	-128.708	48.840	0	2.10	0	18.1300	0	31.9640	0	22.918	0	2.082	0	234.9	4	98.6	4	-1E+10	1	-1E+10	1	-1E+10	1	-1E+10	1	-1E+10	1	-1E+10	1
4902663	1	C	08/14/2023	06:18	-128.708	48.840	0	3.00	0	18.1310	0	31.9940	0	22.941	0	2.975	0	234.9	4	98.6	4	-1E+10	1	-1E+10	1	-1E+10	1	-1E+10	1	-1E+10	1	-1E+10	1
4902663	1	C	08/14/2023	06:18	-128.708	48.840	0	3.90	0	18.1310	0	31.9950	0	22.942	0	3.867	0	235.0	4	98.6	4	-1E+10	1	-1E+10	1	-1E+10	1	-1E+10	1	-1E+10	1	-1E+10	1
4902663	1	C	08/14/2023	06:18	-128.708	48.840	0	4.90	0	18.1310	0	31.9980	0	22.944	0	4.858	0	235.0	4	98.7	4	-1E+10	1	-1E+10	1	-1E+10	1	-1E+10	1	-1E+10	1	-1E+10	1
4902663	1	C	08/14/2023	06:18	-128.708	48.840	0	5.70	0	18.1310	0	31.9990	0	22.945	0	5.652	0	235.2	4	98.7	4	-1E+10	1	-1E+10	1	-1E+10	1	-1E+10	1	-1E+10	1	-1E+10	1
4902663	1	C	08/14/2023	06:18	-128.708	48.840	0	7.00	0	18.1310	0	31.9980	0	22.944	0	6.941	0	235.3	4	98.8	4	-1E+10	1	-1E+10	1	-1E+10	1	-1E+10	1	-1E+10	1	-1E+10	1
4902663	1	C	08/14/2023	06:18	-128.708	48.840	0	8.30	0	18.1320	0	31.9990	0	22.945	0	8.230	0	235.7	4	99.0	4	-1E+10	1	-1E+10	1	-1E+10	1	-1E+10	1	-1E+10	1	-1E+10	1
4902663	1	C	08/14/2023	06:18	-128.708	48.840	0	9.00	0	18.1320	0	31.9990	0	22.945	0	8.924	0	235.9	4	99.1	4	-1E+10	1	-1E+10	1	-1E+10	1	-1E+10	1	-1E+10	1	-1E+10	1
4902663	1	C	08/14/2023	06:18	-128.708	48.840	0	9.80	0	18.1300	0	31.9990	0	22.945	0	9.717	0	236.3	4	99.2	4	-1E+10	1	-1E+10	1	-1E+10	1	-1E+10	1	-1E+10	1	-1E+10	1
4902663	1	C	08/14/2023	06:18	-128.708	48.840	0	15.50	0	17.6400	0	32.0070	0	23.069	0	15.368	0	249.6	4	103.8	4	-1E+10	1	-1E+10	1	-1E+10	1	-1E+10	1	-1E+10	1	-1E+10	1
4902663	1	C	08/14/2023	06:18	-128.708	48.840	0	25.80	0	13.7690	0	32.1470	0	24.032	0	25.580	0	274.2	4	105.9	4	-1E+10	1	-1E+10	1	-1E+10	1	-1E+10	1	-1E+10	1	-1E+10	1
4902663	1	C	08/14/2023	06:18	-128.708	48.840	0	35.00	0	10.4760	0	32.3000	0	24.765	0	34.701	0	255.4	4	92.1	4	-1E+10	1	-1E+10	1	-1E+10	1	-1E+10	1	-1E+10	1	-1E+10	1
4902663	1	C	08/14/2023	06:18	-128.708	48.840	0	45.80	0	9.0420	0	32.3860	0	25.066	0	45.407	0	240.2	4	84.1	4	-1E+10	1	-1E+10	1	-1E+10	1	-1E+10	1	-1E+10	1	-1E+10	1
4902663	1	C	08/14/2023	06:18	-128.708	48.840	0	55.70	0	8.4220	0	32.4630	0	25.221	0	55.221	0	232.5	4	80.3	4	-1E+10	1	-1E+10	1	-1E+10	1	-1E+10	1	-1E+10	1	-1E+10	1
4902663	1	C	08/14/2023	06:18	-128.708	48.840	0	65.90	0	8.1160	0	32.5490	0	25.334	0	65.332	0	223.1	4	76.6	4	-1E+10	1	-1E+10	1	-1E+10	1	-1E+10	1	-1E+10	1	-1E+10	1
4902663	1	C	08/14/2023	06:18	-128.708	48.840	0	75.30	0	7.8400	0	32.7030	0	25.495	0	74.649	0	201.8	4	68.9	4	-1E+10	1	-1E+10	1	-1E+10	1	-1E+10	1	-1E+10	1	-1E+10	1
4902663	1	C	08/14/2023	06:18	-128.708	48.840	0	85.50	0	7.7580	0	32.9880	0	25.730	0	84.758	0	179.6	4	61.3	4	-1E+10	1	-1E+10	1	-1E+10	1	-1E+10	1	-1E+10	1	-1E+10	1
4902663	1	C	08/14/2023	06:18	-128.708	48.840	0	95.60	0	7.6270	0	33.2390	0	25.946	0	94.769	0	158.3	4	54.0	4	-1E+10	1	-1E+10	1	-1E+10	1	-1E+10	1	-1E+10	1	-1E+10	1
4902663	1	C	08/14/2023	06:18	-128.708	48.840	0	105.70	0	7.5840	0	33.4550	0	26.122	0	104.778	0	141.9	4	48.4	4	-1E+10	1	-1E+10	1	-1E+10	1	-1E+10	1	-1E+10	1	-1E+10	1
4902663	1	C	08/14/2023	06:18	-128.708	48.840	0	115.30	0	7.5300	0	33.5900	0	26.236	0	114.292	0	131.7	4	44.9	4	-1E+10	1	-1E+10	1	-1E+10	1	-1E+10	1	-1E+10	1	-1E+10	1
4902663	1	C	08/14/2023	06:18	-128.708	48.840	0	125.60	0	7.4740	0	33.7150	0	26.343	0	124.499	0	118.0	4	40.3	4	-1E+10	1	-1E+10	1	-1E+10	1	-1E+10	1	-1E+10	1	-1E+10	1
4902663	1	C	08/14/2023	06:18	-128.708	48.840	0	135.50	0	7.4180	0	33.7790	0	26.401	0	134.309	0	112.6	4	38.4	4	-1E+10	1	-1E+10	1	-1E+10	1	-1E+10	1	-1E+10	1	-1E+10	1
4902663	1	C	08/14/2023	06:18	-128.708	48.840	0	145.60	0	7.3300	0	33.8080	0	26.436	0	144.316	0	109.7	4	37.3	4	-1E+10	1	-1E+10	1	-1E+10	1	-1E+10	1	-1E+10	1	-1E+10	1
4902663	1	C	08/14/2023	06:18	-128.708	48.840	0	155.30	0	7.2440	0	33.8350	0	26.470	0	153.927	0	102.7	4	34.9	4	-1E+10	1	-1E+10	1	-1E+10	1	-1E+10	1	-1E+10	1	-1E+10	1
4902663	1	C	08/14/2023	06:18	-128.708	48.840	0	165.00	0	7.2390	0	33.8680	0	26.496	0	163.537	0	95.1	4	32.3	4	-1E+10	1	-1E+10	1	-1E+10	1	-1E+10	1	-1E+10	1	-1E+10	1
4902663	1	C	08/14/2023	06:18	-128.708	48.840	0	175.10	0	7.1760	0	33.8880	0	26.521	0	173.544	0	91.2	4	31.0	4	-1E+10	1	-1E+10	1	-1E+10	1	-1E+10	1	-1E+10	1	-1E+10	1
4902663	1	C	08/14/2023	06:18	-128.708	48.840	0	185.40	0	7.0720	0	33.9010	0	26.546	0	183.748	0	88.4	4	29.9	4	-1E+10	1	-1E+10	1	-1E+10	1	-1E+10	1	-1E+10	1	-1E+10	1
4902663	1	C	08/14/2023	06:18	-128.708	48.840	0	195.50	0	6.9810	0	33.9130	0	26.568	0	193.753	0	84.2	4	28.4	4	-1E+10	1	-1E+10	1	-1E+10	1	-1E+10	1	-1E+10	1	-1E+10	1
4902663	1	C	08/14/2023	06:18	-128.708	48.840	0	212.60	0	6.8380	0	33.9250	0	26.597	0	210.691	0	80.4	4	27.1	4	-1E+10	1	-1E+10	1	-1E+10	1	-1E+10	1	-1E+10	1	-1E+10	1
4902663	1	C	08/14/2023	06:18	-128.708	48.840	0	238.00	0	6.5970	0	33.9350	0	26.637	0	235.849	0	77.2	4	25.9	4	-1E+10	1	-1E+10	1	-1E+10	1	-1E+10	1	-1E+10	1	-1E+10	1
4902663	1	C	08/14/2023	06:18	-128.708	48.840	0	263.10	0	6.3330	0	33.9370	0	26.673	0	260.706	0	77.3	4	25.7	4	-1E+10	1	-1E+10	1	-1E+10	1	-1E+10	1	-1E+10	1	-1E+10	1
4902663	1	C	08/14/2023	06:18	-128.708	48.840	0	288.70	0	6.0760	0	33.9380	0	26.707	0	286.055	0	75.7	4	25.1	4	-1E+10	1	-1E+10	1	-1E+10	1	-1E+10	1	-1E+10	1	-1E+10	1
4902663	1	C	08/14/2023	06:18	-128.708	48.840	0	312.40	0	5.7870	0	33.9380	0	26.743	0	309.521	0	70.6	4	23.2	4	-1E+10	1	-1E+10	1	-1E+10	1	-1E+10	1	-1E+10	1	-1E+10	1
4902663	1	C	08/14/2023	06:18	-128.708	48.840	0	337.50	0	5.6140	0	33.9610	0	26.783	0	334.369	0	62.0	4	20.3	4	-1E+10	1	-1E+10	1	-1E+10	1	-1E+10	1	-1E+10	1	-1E+10	1
4902663	1	C	08/14/2023	06:18	-128.708	48.840	0	362.80	0	5.4150	0	33.9720	0	26.816	0	359.412	0	56.7	4	18.5	4	-1E+10	1	-1E+10	1	-1E+10	1	-1E+10	1	-1E+10	1	-1E+10	1
4902663	1	C	08/14/2023	06:18	-128.708	48.840	0	388.10	0	5.2540	0	33.9940	0	26.852	0	384.453	0	49.5	4	16.1	4	-1E+10	1	-1E+10	1	-1E+10	1	-1E+10	1	-1E+10	1	-1E+10	1
4902663	1	C	08/14/2023	06:18	-128.708	48.840	0	413.10	0	5.0550	0	34.0070	0	26.886	0	409.193	0	45.3	4	14.6	4	-1E+10	1	-1E+10	1	-1E+10	1	-1E+10	1	-1E+10	1	-1E+10	1
4902663	1	C	08/14/2023	06:18	-128.708	48.840	0	438.10	0	4.8350	0	34.0110	0	26.914	0	433.931	0	42.2	4	13.6	4	-1E+10	1	-1E+10	1	-1E+10	1	-1E+10	1	-1E+10	1	-1E+10	1
4902663	1	C	08/14/2023	06:18	-128.708	48.840	0	462.80	0	4.7650	0	34.0300	0	26.937	0	458.368	0	37.3	4	12.0	4	-1E+10	1	-1E+10	1	-1E+10	1	-1E+10	1	-1E+10	1	-1E+10	1
4902663	1	C	08/14/2023	06:18	-128.708	48.840	0	487.40	0	4.7780	0	34.0630	0	26.962	0	482.704	0	31.9	4	10.3	4	-1E+10	1	-1E+10	1	-1E+10	1	-1E+10	1	-1E+10	1	-1E+10	1
4902663	1	C	08/14/2023	06:18	-128.708	48.840	0	512.50	0	4.5970	0	34.0720	0	26.989	0	507.532	0	29.4	4	9.4	4	-1E+10	1	-1E+10	1	-1E+10	1	-1E+10	1	-1E+10	1	-1E+10	1
4902663	1	C	08/14/2023	06:18	-128.708	48.840	0	537.90	0	4.4820	0	34.0910	0	27.017	0	532.653	0	25.6	4	8.2	4	-1E+10	1	-1E+10	1	-1E+10	1	-1E+10	1	-1E+10	1	-1E+10	1
4902663	1	C	08/14/2023	06:18	-128.708	48.840	0	563.70	0	4.3950	0	34.1120	0	27.043	0	558.167	0	22.5	4	7.2	4	-1E+10	1	-1E+10	1	-1E+10	1	-1E+10	1	-1E+10	1	-1E+10	1
4902663	1	C	08/14/2023	06:18	-128.708	48.840	0	587.40	0	4.3500	0	34.1310	0	27.063	0	581.601	0	19.7	4	6.3	4	-1E+10	1	-1E+10	1	-1E+10	1	-1E+10	1	-1E+10	1	-1E+10	1
4902663	1	C	08/14/2023	06:18	-128.708	48.840	0	612.70	0	4.3050	0	34.1500	0	27.083	0	606.614	0	17.3	4	5.5	4	-1E+10	1	-1E+10	1	-1E+10	1	-1E+10	1	-1E+10	1	-1E+10	1
4902663	1	C	08/14/2023	06:18	-128.708	48.840	0	637.80	0	4.2480	0	34.1710	0	27.106	0	631.427	0	15.0	4	4.8	4	-1E+10	1	-1E+10	1	-1E+10	1	-1E+10	1	-1E+10	1	-1E+10	1
4902663	1	C	08/14/2023	06:18	-128.708	48.840	0	662.70	0	4.1720	0	34.1850	0	27.125	0	656.039	0	13.7	4	4.3	4	-1E+10	1	-1E+10	1	-1E+10	1	-1E+10	1	-1E+10	1	-1E+10	1
4902663	1	C	08/14/2023	06:18	-128.708	48.840	0	687.90	0	4.1440	0	34.2000	0	27.140	0	680.944	0	12.6	4	4.0	4	-1E+10	1	-1E+10	1	-1E+10	1	-1E+10	1	-1E+10	1	-1E+10	1
4902663	1	C	08/14/2023	06:18	-128.708	48.840	0	712.80	0	4.0640	0	34.2090	0	27.156	0	705.551	0	11.8	4	3.7	4	-1E+10	1	-1E+10	1	-1E+10	1	-1E+10	1	-1E+10	1	-1E+10	1
4902663	1	C	08/14/2023	06:18	-128.708	48.840	0	737.70	0	4.0490	0	34.2330	0	27.177	0	730.154	0	10.3	4	3.3	4	-1E+10	1	-1E+10	1	-1E+10	1	-1E+10	1	-1E+10	1	-1E+10	1
4902663	1	C	08/14/2023	06:18	-128.708	48.840	0	762.50	0	3.9780	0	34.2530	0	27.200	0	754.655	0	9.6	4	3.0	4	-1E+10	1	-1E+10	1	-1E+10	1	-1E+10	1	-1E+10	1	-1E+10	1
4902663	1	C	08/14/2023	06:18	-128.708	48.840	0	787.60	0	3.8960	0	34.2670	0	27.220	0	779.450	0	9.2	4	2.9	4	-1E+10	1	-1E+10	1	-1E+10	1	-1E+10	1	-1E+10	1	-1E+10	1
4902663	1	C	08/14/2023	06:18	-128.708	48.840	0	813.00	0	3.8020	0	34.2810	0	27.240	0	804.538	0	8.9	4	2.8	4	-1E+10	1	-1E+10	1	-1E+10	1	-1E+10	1	-1E+10	1	-1E+10	1
4902663	1	C	08/14/2023	06:18	-128.708	48.840	0	838.10	0	3.7620	0	34.2930	0	27.254	0	829.327	0	8.4	4	2.6	4	-1E+10	1	-1E+10	1	-1E+10	1	-1E+10	1	-1E+10	1	-1E+10	1
4902663	1	C	08/14/2023	06:18	-128.708	48.840	0	863.10	0	3.7430	0	34.3080	0	27.268	0	854.015	0	7.9	4	2.5	4	-1E+10	1	-1E+10	1	-1E+10	1	-1E+10	1	-1E+10	1	-1E+10	1
4902663	1	C	08/14/2023	06:18	-128.708	48.840	0	888.10	0	3.7270	0	34.3240	0	27.283	0	878.699	0	7.5	4	2.3	4	-1E+10	1	-1E+10	1	-1E+10	1	-1E+10	1	-1E+10	1	-1E+10	1
4902663	1	C	08/14/2023	06:18	-128.708	48.840	0	913.10	0	3.6790	0	34.3370	0	27.298	0	903.380	0	7.5	4	2.3	4	-1E+10	1	-1E+10	1	-1E+10	1	-1E+10	1	-1E+10	1	-1E+10	1
4902663	1	C	08/14/2023	06:18	-128.708	48.840	0	938.00	0	3.6190	0	34.3460	0	27.311	0	927.960	0	7.6	4	2.4	4	-1E+10	1	-1E+10	1	-1E+10	1	-1E+10	1	-1E+10	1	-1E+10	1
4902663	1	C	08/14/2023	06:18	-128.708	48.840	0	963.10	0	3.5670	0	34.3560	0	27.324	0	952.734	0	7.8	4	2.4	4	-1E+10	1	-1E+10	1	-1E+10	1	-1E+10	1	-1E+10	1	-1E+10	1
4902663	1	C	08/14/2023	06:18	-128.708	48.840	0	987.60	0	3.5250	0	34.3710	0	27.340	0	976.914	0	8.0	4	2.5	4	-1E+10	1	-1E+10	1	-1E+10	1	-1E+10	1	-1E+10	1	-1E+10	1
4902663	1	C	08/14/2023	06:18	-128.708	48.840	0	1012.80	0	3.4760	0	34.3790	0	27.352	0	1001.781	0	8.2	4	2.6	4	-1E+10	1	-1E+10	1	-1E+10	1	-1E+10	1	-1E+10	1	-1E+10	1
4902663	1	C	08/14/2023	06:18	-128.708	48.840	0	1038.90	0	3.3940	0	34.3890	0	27.368	0	1027.533	0	8.7	4	2.7	4	-1E+10	1	-1E+10	1	-1E+10	1	-1E+10	1	-1E+10	1	-1E+10	1
4902663	1	C	08/14/2023	06:18	-128.708	48.840	0	1062.80	0	3.3490	0	34.3970	0	27.378	0	1051.112	0	9.0	4	2.8	4	-1E+10	1	-1E+10	1	-1E+10	1	-1E+10	1	-1E+10	1	-1E+10	1
4902663	1	C	08/14/2023	06:18	-128.708	48.840	0	1087.80	0	3.2970	0	34.4060	0	27.391	0	1075.773	0	9.5	4	3.0	4	-1E+10	1	-1E+10	1	-1E+10	1	-1E+10	1	-1E+10	1	-1E+10	1
4902663	1	C	08/14/2023	06:18	-128.708	48.840	0	1112.80	0	3.2440	0	34.4130	0	27.401	0	1100.431	0	10.0	4	3.1	4	-1E+10	1	-1E+10	1	-1E+10	1	-1E+10	1	-1E+10	1	-1E+10	1
4902663	1	C	08/14/2023	06:18	-128.708	48.840	0	1138.00	0	3.1760	0	34.4220	0	27.415	0	1125.283	0	10.7	4	3.3	4	-1E+10	1	-1E+10	1	-1E+10	1	-1E+10	1	-1E+10	1	-1E+10	1
4902663	1	C	08/14/2023	06:18	-128.708	48.840	0	1163.00	0	3.1020	0	34.4310	0	27.429	0	1149.935	0	11.4	4	3.5	4	-1E+10	1	-1E+10	1	-1E+10	1	-1E+10	1	-1E+10	1	-1E+10	1
4902663	1	C	08/14/2023	06:18	-128.708	48.840	0	1187.80	0	3.0200	0	34.4370	0	27.441	0	1174.388	0	12.0	4	3.7	4	-1E+10	1	-1E+10	1	-1E+10	1	-1E+10	1	-1E+10	1	-1E+10	1
4902663	1	C	08/14/2023	06:18	-128.708	48.840	0	1212.90	0	2.9760	0	34.4420	0	27.449	0	1199.133	0	12.8	4	3.9	4	-1E+10	1	-1E+10	1	-1E+10	1	-1E+10	1	-1E+10	1	-1E+10	1
4902663	1	C	08/14/2023	06:18	-128.708	48.840	0	1237.90	0	2.9160	0	34.4530	0	27.464	0	1223.776	0	13.9	4	4.3	4	-1E+10	1	-1E+10	1	-1E+10	1	-1E+10	1	-1E+10	1	-1E+10	1
4902663	1	C	08/14/2023	06:18	-128.708	48.840	0	1262.60	0	2.8560	0	34.4610	0	27.476	0	1248.121	0	14.9	4	4.6	4	-1E+10	1	-1E+10	1	-1E+10	1	-1E+10	1	-1E+10	1	-1E+10	1
4902663	1	C	08/14/2023	06:18	-128.708	48.840	0	1288.20	0	2.8000	0	34.4660	0	27.485	0	1273.350	0	15.7	4	4.8	4	-1E+10	1	-1E+10	1	-1E+10	1	-1E+10	1	-1E+10	1	-1E+10	1
4902663	1	C	08/14/2023	06:18	-128.708	48.840	0	1312.80	0	2.7240	0	34.4700	0	27.495	0	1297.591	0	16.6	4	5.1	4	-1E+10	1	-1E+10	1	-1E+10	1	-1E+10	1	-1E+10	1	-1E+10	1
4902663	1	C	08/14/2023	06:18	-128.708	48.840	0	1338.20	0	2.6920	0	34.4800	0	27.505	0	1322.617	0	18.1	4	5.6	4	-1E+10	1	-1E+10	1	-1E+10	1	-1E+10	1	-1E+10	1	-1E+10	1
4902663	1	C	08/14/2023	06:18	-128.708	48.840	0	1363.10	0	2.6460	0	34.4840	0	27.513	0	1347.147	0	19.0	4	5.8	4	-1E+10	1	-1E+10	1	-1E+10	1	-1E+10	1	-1E+10	1	-1E+10	1
4902663	1	C	08/14/2023	06:18	-128.708	48.840	0	1387.90	0	2.6080	0	34.4900	0	27.521	0	1371.577	0	20.2	4	6.2	4	-1E+10	1	-1E+10	1	-1E+10	1	-1E+10	1	-1E+10	1	-1E+10	1
4902663	1	C	08/14/2023	06:18	-128.708	48.840	0	1412.90	0	2.5850	0	34.4950	0	27.527	0	1396.200	0	21.2	4	6.5	4	-1E+10	1	-1E+10	1	-1E+10	1	-1E+10	1	-1E+10	1	-1E+10	1
4902663	1	C	08/14/2023	06:18	-128.708	48.840	0	1437.70	0	2.5410	0	34.5000	0	27.535	0	1420.623	0	22.6	4	6.9	4	-1E+10	1	-1E+10	1	-1E+10	1	-1E+10	1	-1E+10	1	-1E+10	1
4902663	1	C	08/14/2023	06:18	-128.708	48.840	0	1462.90	0	2.5020	0	34.5050	0	27.542	0	1445.438	0	23.9	4	7.3	4	-1E+10	1	-1E+10	1	-1E+10	1	-1E+10	1	-1E+10	1	-1E+10	1
4902663	1	C	08/14/2023	06:18	-128.708	48.840	0	1487.90	0	2.4660	0	34.5090	0	27.549	0	1470.052	0	24.8	4	7.6	4	-1E+10	1	-1E+10	1	-1E+10	1	-1E+10	1	-1E+10	1	-1E+10	1
4902663	1	C	08/14/2023	06:18	-128.708	48.840	0	1512.80	0	2.4300	0	34.5110	0	27.553	0	1494.566	0	25.6	4	7.8	4	-1E+10	1	-1E+10	1	-1E+10	1	-1E+10	1	-1E+10	1	-1E+10	1
4902663	1	C	08/14/2023	06:18	-128.708	48.840	0	1538.00	0	2.3920	0	34.5150	0	27.560	0	1519.371	0	27.1	4	8.2	4	-1E+10	1	-1E+10	1	-1E+10	1	-1E+10	1	-1E+10	1	-1E+10	1
4902663	1	C	08/14/2023	06:18	-128.708	48.840	0	1563.90	0	2.3500	0	34.5200	0	27.567	0	1544.863	0	28.6	4	8.7	4	-1E+10	1	-1E+10	1	-1E+10	1	-1E+10	1	-1E+10	1	-1E+10	1
4902663	1	C	08/14/2023	06:18	-128.708	48.840	0	1587.90	0	2.3220	0	34.5250	0	27.574	0	1568.482	0	30.0	4	9.1	4	-1E+10	1	-1E+10	1	-1E+10	1	-1E+10	1	-1E+10	1	-1E+10	1
4902663	1	C	08/14/2023	06:18	-128.708	48.840	0	1612.50	0	2.3000	0	34.5290	0	27.579	0	1592.689	0	31.3	4	9.5	4	-1E+10	1	-1E+10	1	-1E+10	1	-1E+10	1	-1E+10	1	-1E+10	1
4902663	1	C	08/14/2023	06:18	-128.708	48.840	0	1637.70	0	2.2760	0	34.5320	0	27.584	0	1617.483	0	32.5	4	9.9	4	-1E+10	1	-1E+10	1	-1E+10	1	-1E+10	1	-1E+10	1	-1E+10	1
4902663	1	C	08/14/2023	06:18	-128.708	48.840	0	1663.10	0	2.2460	0	34.5360	0	27.589	0	1642.471	0	33.9	4	10.3	4	-1E+10	1	-1E+10	1	-1E+10	1	-1E+10	1	-1E+10	1	-1E+10	1
4902663	1	C	08/14/2023	06:18	-128.708	48.840	0	1687.90	0	2.2200	0	34.5400	0	27.595	0	1666.866	0	35.3	4	10.7	4	-1E+10	1	-1E+10	1	-1E+10	1	-1E+10	1	-1E+10	1	-1E+10	1
4902663	1	C	08/14/2023	06:18	-128.708	48.840	0	1712.90	0	2.1920	0	34.5440	0	27.600	0	1691.455	0	36.9	4	11.2	4	-1E+10	1	-1E+10	1	-1E+10	1	-1E+10	1	-1E+10	1	-1E+10	1
4902663	1	C	08/14/2023	06:18	-128.708	48.840	0	1738.10	0	2.1650	0	34.5480	0	27.606	0	1716.238	0	38.3	4	11.6	4	-1E+10	1	-1E+10	1	-1E+10	1	-1E+10	1	-1E+10	1	-1E+10	1
4902663	1	C	08/14/2023	06:18	-128.708	48.840	0	1762.90	0	2.1510	0	34.5510	0	27.609	0	1740.624	0	39.4	4	11.9	4	-1E+10	1	-1E+10	1	-1E+10	1	-1E+10	1	-1E+10	1	-1E+10	1
4902663	1	C	08/14/2023	06:18	-128.708	48.840	0	1787.90	0	2.1330	0	34.5540	0	27.613	0	1765.204	0	40.5	4	12.3	4	-1E+10	1	-1E+10	1	-1E+10	1	-1E+10	1	-1E+10	1	-1E+10	1
4902663	1	C	08/14/2023	06:18	-128.708	48.840	0	1813.00	0	2.1180	0	34.5560	0	27.616	0	1789.880	0	41.6	4	12.6	4	-1E+10	1	-1E+10	1	-1E+10	1	-1E+10	1	-1E+10	1	-1E+10	1
4902663	1	C	08/14/2023	06:18	-128.708	48.840	0	1837.90	0	2.1050	0	34.5590	0	27.620	0	1814.356	0	42.6	4	12.9	4	-1E+10	1	-1E+10	1	-1E+10	1	-1E+10	1	-1E+10	1	-1E+10	1
4902663	1	C	08/14/2023	06:18	-128.708	48.840	0	1862.80	0	2.0830	0	34.5620	0	27.624	0	1838.830	0	44.1	4	13.3	4	-1E+10	1	-1E+10	1	-1E+10	1	-1E+10	1	-1E+10	1	-1E+10	1
4902663	1	C	08/14/2023	06:18	-128.708	48.840	0	1887.70	0	2.0660	0	34.5650	0	27.628	0	1863.300	0	45.5	4	13.7	4	-1E+10	1	-1E+10	1	-1E+10	1	-1E+10	1	-1E+10	1	-1E+10	1
4902663	1	C	08/14/2023	06:18	-128.708	48.840	0	1913.30	0	2.0340	0	34.5710	0	27.635	0	1888.456	0	47.7	4	14.4	4	-1E+10	1	-1E+10	1	-1E+10	1	-1E+10	1	-1E+10	1	-1E+10	1
4902663	1	C	08/14/2023	06:18	-128.708	48.840	0	1937.80	0	2.0170	0	34.5740	0	27.639	0	1912.528	0	49.1	4	14.8	4	-1E+10	1	-1E+10	1	-1E+10	1	-1E+10	1	-1E+10	1	-1E+10	1
4902663	1	C	08/14/2023	06:18	-128.708	48.840	0	1962.80	0	1.9970	0	34.5770	0	27.643	0	1937.088	0	50.6	4	15.2	4	-1E+10	1	-1E+10	1	-1E+10	1	-1E+10	1	-1E+10	1	-1E+10	1
4902663	1	C	08/14/2023	06:18	-128.708	48.840	0	1988.00	0	1.9800	0	34.5800	0	27.647	0	1961.842	0	51.9	4	15.6	4	-1E+10	1	-1E+10	1	-1E+10	1	-1E+10	1	-1E+10	1	-1E+10	1
4902663	1	C	08/14/2023	06:18	-128.708	48.840	0	2013.10	0	1.9640	0	34.5830	0	27.651	0	1986.495	0	52.8	4	15.9	4	-1E+10	1	-1E+10	1	-1E+10	1	-1E+10	1	-1E+10	1	-1E+10	1
4902663	1	C	08/14/2023	06:18	-128.708	48.840	0																										
4902663	2	C	08/24/2023	06:27	-128.342	48.930	0	0.00	0	17.0410	4	32.1520	0	23.321	0	0.000	0	236.9	4	97.5	4	-1E+10	1	-1E+10	1	-1E+10	1	-1E+10	1	-1E+10	1	-1E+10	1
4902663	2	C	08/24/2023	06:27	-128.342	48.930	0	0.90	0	17.0500	4	32.1370	0	23.307	0	0.892	0	237.1	4	97.6	4	-1E+10	1	-1E+10	1	-1E+10	1	-1E+10	1	-1E+10	1	-1E+10	1
4902663	2	C	08/24/2023	06:27	-128.342	48.930	0	2.00	0	17.0550	4	32.1300	0	23.301	0	1.983	0	237.1	4	97.6	4	-1E+10	1	-1E+10	1	-1E+10	1	-1E+10	1	-1E+10	1	-1E+10	1
4902663	2	C	08/24/2023	06:27	-128.342	48.930	0	2.80	0	17.0530	4	32.1290	0	23.301	0	2.776	0	237.2	4	97.7	4	-1E+10	1	-1E+10	1	-1E+10	1	-1E+10	1	-1E+10	1	-1E+10	1
4902663	2	C	08/24/2023	06:27	-128.342	48.930	0	4.00	0	17.0210	4	32.1550	0	23.328	0	3.966	0	237.4	4	97.7	4	-1E+10	1	-1E+10	1	-1E+10	1	-1E+10	1	-1E+10	1	-1E+10	1
4902663	2	C	08/24/2023	06:27	-128.342	48.930	0	5.20	0	16.9990	4	32.1650	0	23.341	0	5.156	0	237.4	4	97.7	4	-1E+10	1	-1E+10	1	-1E+10	1	-1E+10	1	-1E+10	1	-1E+10	1
4902663	2	C	08/24/2023	06:27	-128.342	48.930	0	6.10	0	16.9940	4	32.1650	0	23.342	0	6.048	0	237.4	4	97.7	4	-1E+10	1	-1E+10	1	-1E+10	1	-1E+10	1	-1E+10	1	-1E+10	1
4902663	2	C	08/24/2023	06:27	-128.342	48.930	0	7.00	0	16.9840	4	32.1640	0	23.344	0	6.941	0	237.4	4	97.7	4	-1E+10	1	-1E+10	1	-1E+10	1	-1E+10	1	-1E+10	1	-1E+10	1
4902663	2	C	08/24/2023	06:27	-128.342	48.930	0	7.90	0	16.9740	4	32.1640	0	23.346	0	7.833	0	237.5	4	97.7	4	-1E+10	1	-1E+10	1	-1E+10	1	-1E+10	1	-1E+10	1	-1E+10	1
4902663	2	C	08/24/2023	06:27	-128.342	48.930	0	8.90	0	16.9670	4	32.1630	0	23.347	0	8.824	0	237.5	4	97.7	4	-1E+10	1	-1E+10	1	-1E+10	1	-1E+10	1	-1E+10	1	-1E+10	1
4902663	2	C	08/24/2023	06:27	-128.342	48.930	0	9.90	0	16.9590	4	32.1640	0	23.350	0	9.816	0	237.6	4	97.7	4	-1E+10	1	-1E+10	1	-1E+10	1	-1E+10	1	-1E+10	1	-1E+10	1
4902663	2	C	08/24/2023	06:27	-128.342	48.930	0	15.50	0	16.9420	4	32.1630	0	23.353	0	15.368	0	238.8	4	98.1	4	-1E+10	1	-1E+10	1	-1E+10	1	-1E+10	1	-1E+10	1	-1E+10	1
4902663	2	C	08/24/2023	06:27	-128.342	48.930	0	25.50	0	16.3450	4	32.1690	0	23.495	0	25.282	0	252.9	4	102.8	4	-1E+10	1	-1E+10	1	-1E+10	1	-1E+10	1	-1E+10	1	-1E+10	1
4902663	2	C	08/24/2023	06:27	-128.342	48.930	0	35.00	0	11.4850	4	32.2410	0	24.543	0	34.700	0	276.5	4	101.9	4	-1E+10	1	-1E+10	1	-1E+10	1	-1E+10	1	-1E+10	1	-1E+10	1
4902663	2	C	08/24/2023	06:27	-128.342	48.930	0	45.20	0	9.8080	4	32.2890	0	24.868	0	44.812	0	275.8	4	98.1	4	-1E+10	1	-1E+10	1	-1E+10	1	-1E+10	1	-1E+10	1	-1E+10	1
4902663	2	C	08/24/2023	06:27	-128.342	48.930	0	55.30	0	8.4870	4	32.3370	0	25.113	0	54.824	0	274.9	4	95.0	4	-1E+10	1	-1E+10	1	-1E+10	1	-1E+10	1	-1E+10	1	-1E+10	1
4902663	2	C	08/24/2023	06:27	-128.342	48.930	0	66.00	0	7.8070	4	32.3940	0	25.257	0	65.430	0	250.8	4	85.4	4	-1E+10	1	-1E+10	1	-1E+10	1	-1E+10	1	-1E+10	1	-1E+10	1
4902663	2	C	08/24/2023	06:27	-128.342	48.930	0	75.00	0	7.8090	4	32.5470	0	25.376	0	74.351	0	222.1	4	75.7	4	-1E+10	1	-1E+10	1	-1E+10	1	-1E+10	1	-1E+10	1	-1E+10	1
4902663	2	C	08/24/2023	06:27	-128.342	48.930	0	85.20	0	7.8270	4	32.7870	0	25.563	0	84.460	0	181.8	4	62.1	4	-1E+10	1	-1E+10	1	-1E+10	1	-1E+10	1	-1E+10	1	-1E+10	1
4902663	2	C	08/24/2023	06:27	-128.342	48.930	0	95.90	0	8.3230	4	33.2730	0	25.872	0	95.065	0	141.5	4	49.1	4	-1E+10	1	-1E+10	1	-1E+10	1	-1E+10	1	-1E+10	1	-1E+10	1
4902663	2	C	08/24/2023	06:27	-128.342	48.930	0	105.30	0	8.3650	4	33.5240	0	26.062	0	104.381	0	129.2	4	44.9	4	-1E+10	1	-1E+10	1	-1E+10	1	-1E+10	1	-1E+10	1	-1E+10	1
4902663	2	C	08/24/2023	06:27	-128.342	48.930	0	115.40	0	8.2960	4	33.5980	0	26.131	0	114.390	0	124.9	4	43.4	4	-1E+10	1	-1E+10	1	-1E+10	1	-1E+10	1	-1E+10	1	-1E+10	1
4902663	2	C	08/24/2023	06:27	-128.342	48.930	0	125.50	0	8.1220	4	33.6870	0	26.227	0	124.398	0	120.7	4	41.8	4	-1E+10	1	-1E+10	1	-1E+10	1	-1E+10	1	-1E+10	1	-1E+10	1
4902663	2	C	08/24/2023	06:27	-128.342	48.930	0	135.30	0	7.9440	4	33.7690	0	26.318	0	134.109	0	115.0	4	39.7	4	-1E+10	1	-1E+10	1	-1E+10	1	-1E+10	1	-1E+10	1	-1E+10	1
4902663	2	C	08/24/2023	06:27	-128.342	48.930	0	145.40	0	7.7950	4	33.8170	0	26.377	0	144.117	0	112.1	4	38.6	4	-1E+10	1	-1E+10	1	-1E+10	1	-1E+10	1	-1E+10	1	-1E+10	1
4902663	2	C	08/24/2023	06:27	-128.342	48.930	0	155.30	0	7.6800	4	33.8440	0	26.415	0	153.926	0	109.9	4	37.7	4	-1E+10	1	-1E+10	1	-1E+10	1	-1E+10	1	-1E+10	1	-1E+10	1
4902663	2	C	08/24/2023	06:27	-128.342	48.930	0	165.60	0	7.5630	4	33.8640	0	26.448	0	164.131	0	107.6	4	36.8	4	-1E+10	1	-1E+10	1	-1E+10	1	-1E+10	1	-1E+10	1	-1E+10	1
4902663	2	C	08/24/2023	06:27	-128.342	48.930	0	175.50	0	7.3840	4	33.8800	0	26.486	0	173.939	0	105.5	4	36.0	4	-1E+10	1	-1E+10	1	-1E+10	1	-1E+10	1	-1E+10	1	-1E+10	1
4902663	2	C	08/24/2023	06:27	-128.342	48.930	0	185.10	0	7.1940	4	33.8920	0	26.522	0	183.449	0	97.7	4	33.2	4	-1E+10	1	-1E+10	1	-1E+10	1	-1E+10	1	-1E+10	1	-1E+10	1
4902663	2	C	08/24/2023	06:27	-128.342	48.930	0	195.70	0	7.1590	4	33.9260	0	26.554	0	193.949	0	87.6	4	29.7	4	-1E+10	1	-1E+10	1	-1E+10	1	-1E+10	1	-1E+10	1	-1E+10	1
4902663	2	C	08/24/2023	06:27	-128.342	48.930	0	213.00	0	7.0060	4	33.9440	0	26.589	0	211.086	0	82.8	4	28.0	4	-1E+10	1	-1E+10	1	-1E+10	1	-1E+10	1	-1E+10	1	-1E+10	1
4902663	2	C	08/24/2023	06:27	-128.342	48.930	0	238.20	0	6.8310	4	33.9730	0	26.636	0	236.045	0	73.7	4	24.8	4	-1E+10	1	-1E+10	1	-1E+10	1	-1E+10	1	-1E+10	1	-1E+10	1
4902663	2	C	08/24/2023	06:27	-128.342	48.930	0	263.00	0	6.6190	4	33.9920	0	26.679	0	260.605	0	67.1	4	22.5	4	-1E+10	1	-1E+10	1	-1E+10	1	-1E+10	1	-1E+10	1	-1E+10	1
4902663	2	C	08/24/2023	06:27	-128.342	48.930	0	287.70	0	6.3840	4	34.0090	0	26.724	0	285.063	0	59.5	4	19.9	4	-1E+10	1	-1E+10	1	-1E+10	1	-1E+10	1	-1E+10	1	-1E+10	1
4902663	2	C	08/24/2023	06:27	-128.342	48.930	0	312.80	0	6.1720	4	34.0210	0	26.761	0	309.914	0	54.9	4	18.2	4	-1E+10	1	-1E+10	1	-1E+10	1	-1E+10	1	-1E+10	1	-1E+10	1
4902663	2	C	08/24/2023	06:27	-128.342	48.930	0	338.00	0	5.9310	4	34.0200	0	26.791	0	334.861	0	51.4	4	17.0	4	-1E+10	1	-1E+10	1	-1E+10	1	-1E+10	1	-1E+10	1	-1E+10	1
4902663	2	C	08/24/2023	06:27	-128.342	48.930	0	362.90	0	5.7740	4	34.0310	0	26.819	0	359.508	0	46.8	4	15.4	4	-1E+10	1	-1E+10	1	-1E+10	1	-1E+10	1	-1E+10	1	-1E+10	1
4902663	2	C	08/24/2023	06:27	-128.342	48.930	0	388.30	0	5.6480	4	34.0400	0	26.842	0	384.647	0	43.4	4	14.2	4	-1E+10	1	-1E+10	1	-1E+10	1	-1E+10	1	-1E+10	1	-1E+10	1
4902663	2	C	08/24/2023	06:27	-128.342	48.930	0	413.00	0	5.4750	4	34.0490	0	26.870	0	409.091	0	39.9	4	13.0	4	-1E+10	1	-1E+10	1	-1E+10	1	-1E+10	1	-1E+10	1	-1E+10	1
4902663	2	C	08/24/2023	06:27	-128.342	48.930	0	437.70	0	5.3390	4	34.0650	0	26.899	0	433.531	0	35.5	4	11.5	4	-1E+10	1	-1E+10	1	-1E+10	1	-1E+10	1	-1E+10	1	-1E+10	1
4902663	2	C	08/24/2023	06:27	-128.342	48.930	0	462.60	0	5.1590	4	34.0740	0	26.927	0	458.167	0	31.9	4	10.4	4	-1E+10	1	-1E+10	1	-1E+10	1	-1E+10	1	-1E+10	1	-1E+10	1
4902663	2	C	08/24/2023	06:27	-128.342	48.930	0	488.50	0	5.0310	4	34.0960	0	26.960	0	483.788	0	26.7	4	8.6	4	-1E+10	1	-1E+10	1	-1E+10	1	-1E+10	1	-1E+10	1	-1E+10	1
4902663	2	C	08/24/2023	06:27	-128.342	48.930	0	512.80	0	4.9420	4	34.1200	0	26.989	0	507.824	0	22.5	4	7.3	4	-1E+10	1	-1E+10	1	-1E+10	1	-1E+10	1	-1E+10	1	-1E+10	1
4902663	2	C	08/24/2023	06:27	-128.342	48.930	0	537.70	0	4.8370	4	34.1420	0	27.018	0	532.451	0	19.2	4	6.2	4	-1E+10	1	-1E+10	1	-1E+10	1	-1E+10	1	-1E+10	1	-1E+10	1
4902663	2	C	08/24/2023	06:27	-128.342	48.930	0	562.60	0	4.6950	4	34.1540	0	27.044	0	557.074	0	17.4	4	5.6	4	-1E+10	1	-1E+10	1	-1E+10	1	-1E+10	1	-1E+10	1	-1E+10	1
4902663	2	C	08/24/2023	06:27	-128.342	48.930	0	587.80	0	4.5530	4	34.1620	0	27.066	0	581.992	0	15.9	4	5.1	4	-1E+10	1	-1E+10	1	-1E+10	1	-1E+10	1	-1E+10	1	-1E+10	1
4902663	2	C	08/24/2023	06:27	-128.342	48.930	0	612.70	0	4.4180	4	34.1690	0	27.086	0	606.609	0	14.3	4	4.6	4	-1E+10	1	-1E+10	1	-1E+10	1	-1E+10	1	-1E+10	1	-1E+10	1
4902663	2	C	08/24/2023	06:27	-128.342	48.930	0	637.50	0	4.3890	4	34.1910	0	27.107	0	631.125	0	12.2	4	3.9	4	-1E+10	1	-1E+10	1	-1E+10	1	-1E+10	1	-1E+10	1	-1E+10	1
4902663	2	C	08/24/2023	06:27	-128.342	48.930	0	663.50	0	4.3520	4	34.2090	0	27.125	0	656.824	0	11.0	4	3.5	4	-1E+10	1	-1E+10	1	-1E+10	1	-1E+10	1	-1E+10	1	-1E+10	1
4902663	2	C	08/24/2023	06:27	-128.342	48.930	0	687.60	0	4.2830	4	34.2210	0	27.142	0	680.642	0	10.4	4	3.3	4	-1E+10	1	-1E+10	1	-1E+10	1	-1E+10	1	-1E+10	1	-1E+10	1
4902663	2	C	08/24/2023	06:27	-128.342	48.930	0	712.70	0	4.2070	4	34.2310	0	27.159	0	705.446	0	10.1	4	3.2	4	-1E+10	1	-1E+10	1	-1E+10	1	-1E+10	1	-1E+10	1	-1E+10	1
4902663	2	C	08/24/2023	06:27	-128.342	48.930	0	738.00	0	4.0840	4	34.2430	0	27.181	0	730.444	0	9.8	4	3.1	4	-1E+10	1	-1E+10	1	-1E+10	1	-1E+10	1	-1E+10	1	-1E+10	1
4902663	2	C	08/24/2023	06:27	-128.342	48.930	0	763.30	0	3.9910	4	34.2580	0	27.203	0	755.439	0	9.4	4	3.0	4	-1E+10	1	-1E+10	1	-1E+10	1	-1E+10	1	-1E+10	1	-1E+10	1
4902663	2	C	08/24/2023	06:27	-128.342	48.930	0	787.90	0	3.9000	4	34.2660	0	27.218	0	779.740	0	9.3	4	2.9	4	-1E+10	1	-1E+10	1	-1E+10	1	-1E+10	1	-1E+10	1	-1E+10	1
4902663	2	C	08/24/2023	06:27	-128.342	48.930	0	812.80	0	3.8610	4	34.2840	0	27.237	0	804.334	0	8.4	4	2.6	4	-1E+10	1	-1E+10	1	-1E+10	1	-1E+10	1	-1E+10	1	-1E+10	1
4902663	2	C	08/24/2023	06:27	-128.342	48.930	0	837.80	0	3.8140	4	34.2990	0	27.254	0	829.024	0	8.1	4	2.6	4	-1E+10	1	-1E+10	1	-1E+10	1	-1E+10	1	-1E+10	1	-1E+10	1
4902663	2	C	08/24/2023	06:27	-128.342	48.930	0	862.90	0	3.7540	4	34.3100	0	27.269	0	853.810	0	7.8	4	2.5	4	-1E+10	1	-1E+10	1	-1E+10	1	-1E+10	1	-1E+10	1	-1E+10	1
4902663	2	C	08/24/2023	06:27	-128.342	48.930	0	888.30	0	3.7280	4	34.3200	0	27.279	0	878.889	0	7.6	4	2.4	4	-1E+10	1	-1E+10	1	-1E+10	1	-1E+10	1	-1E+10	1	-1E+10	1
4902663	2	C	08/24/2023	06:27	-128.342	48.930	0	913.10	0	3.6870	4	34.3370	0	27.297	0	903.373	0	7.5	4	2.3	4	-1E+10	1	-1E+10	1	-1E+10	1	-1E+10	1	-1E+10	1	-1E+10	1
4902663	2	C	08/24/2023	06:27	-128.342	48.930	0	937.90	0	3.6110	4	34.3480	0	27.313	0	927.854	0	7.6	4	2.4	4	-1E+10	1	-1E+10	1	-1E+10	1	-1E+10	1	-1E+10	1	-1E+10	1
4902663	2	C	08/24/2023	06:27	-128.342	48.930	0	962.90	0	3.5650	4	34.3580	0	27.326	0	952.529	0	7.7	4	2.4	4	-1E+10	1	-1E+10	1	-1E+10	1	-1E+10	1	-1E+10	1	-1E+10	1
4902663	2	C	08/24/2023	06:27	-128.342	48.930	0	988.00	0	3.5170	4	34.3700	0	27.340	0	977.300	0	7.9	4	2.5	4	-1E+10	1	-1E+10	1	-1E+10	1	-1E+10	1	-1E+10	1	-1E+10	1
4902663	2	C	08/24/2023	06:27	-128.342	48.930	0	1013.20	0	3.4630	4	34.3800	0	27.354	0	1002.167	0	8.2	4	2.6	4	-1E+10	1	-1E+10	1	-1E+10	1	-1E+10	1	-1E+10	1	-1E+10	1
4902663	2	C	08/24/2023	06:27	-128.342	48.930	0	1038.00	0	3.4120	4	34.3890	0	27.366	0	1026.636	0	8.6	4	2.7	4	-1E+10	1	-1E+10	1	-1E+10	1	-1E+10	1	-1E+10	1	-1E+10	1
4902663	2	C	08/24/2023	06:27	-128.342	48.930	0	1063.10	0	3.3420	4	34.4000	0	27.381	0	1051.399	0	9.1	4	2.8	4	-1E+10	1	-1E+10	1	-1E+10	1	-1E+10	1	-1E+10	1	-1E+10	1
4902663	2	C	08/24/2023	06:27	-128.342	48.930	0	1088.00	0	3.2640	4	34.4110	0	27.398	0	1075.961	0	9.7	4	3.0	4	-1E+10	1	-1E+10	1	-1E+10	1	-1E+10	1	-1E+10	1	-1E+10	1
4902663	2	C	08/24/2023	06:27	-128.342	48.930	0	1112.70	0	3.2070	4	34.4180	0	27.409	0	1100.323	0	10.2	4	3.2	4	-1E+10	1	-1E+10	1	-1E+10	1	-1E+10	1	-1E+10	1	-1E+10	1
4902663	2	C	08/24/2023	06:27	-128.342	48.930	0	1137.50	0	3.1580	4	34.4250	0	27.419	0	1124.781	0	10.8	4	3.3	4	-1E+10	1	-1E+10	1	-1E+10	1	-1E+10	1	-1E+10	1	-1E+10	1
4902663	2	C	08/24/2023	06:27	-128.342	48.930	0	1162.50	0	3.0950	4	34.4320	0	27.430	0	1149.433	0	11.3	4	3.5	4	-1E+10	1	-1E+10	1	-1E+10	1	-1E+10	1	-1E+10	1	-1E+10	1
4902663	2	C	08/24/2023	06:27	-128.342	48.930	0	1187.60	0	3.0460	4	34.4370	0	27.439	0	1174.181	0	11.8	4	3.7	4	-1E+10	1	-1E+10	1	-1E+10	1	-1E+10	1	-1E+10	1	-1E+10	1
4902663	2	C	08/24/2023	06:27	-128.342	48.930	0	1212.80	0	2.9850	4	34.4450	0	27.451	0	1199.024	0	12.7	4	3.9	4	-1E+10	1	-1E+10	1	-1E+10	1	-1E+10	1	-1E+10	1	-1E+10	1
4902663	2	C	08/24/2023	06:27	-128.342	48.930	0	1237.90	0	2.9250	4	34.4520	0	27.462	0	1223.766	0	13.4	4	4.1	4	-1E+10	1	-1E+10	1	-1E+10	1	-1E+10	1	-1E+10	1	-1E+10	1
4902663	2	C	08/24/2023	06:27	-128.342	48.930	0	1262.60	0	2.8820	4	34.4580	0	27.471	0	1248.111	0	14.2	4	4.4	4	-1E+10	1	-1E+10	1	-1E+10	1	-1E+10	1	-1E+10	1	-1E+10	1
4902663	2	C	08/24/2023	06:27	-128.342	48.930	0	1288.50	0	2.8350	4	34.4630	0	27.479	0	1273.635	0	14.9	4	4.6	4	-1E+10	1	-1E+10	1	-1E+10	1	-1E+10	1	-1E+10	1	-1E+10	1
4902663	2	C	08/24/2023	06:27	-128.342	48.930	0	1313.00	0	2.7920	4	34.4680	0	27.487	0	1297.777	0	15.5	4	4.8	4	-1E+10	1	-1E+10	1	-1E+10	1	-1E+10	1	-1E+10	1	-1E+10	1
4902663	2	C	08/24/2023	06:27	-128.342	48.930	0	1337.90	0	2.7450	4	34.4710	0	27.494	0	1322.310	0	16.3	4	5.0	4	-1E+10	1	-1E+10	1	-1E+10	1	-1E+10	1	-1E+10	1	-1E+10	1
4902663	2	C	08/24/2023	06:27	-128.342	48.930	0	1362.70	0	2.7260	4	34.4800	0	27.503	0	1346.742	0	17.7	4	5.4	4	-1E+10	1	-1E+10	1	-1E+10	1	-1E+10	1	-1E+10	1	-1E+10	1
4902663	2	C	08/24/2023	06:27	-128.342	48.930	0	1387.80	0	2.6840	4	34.4860	0	27.511	0	1371.467	0	18.8	4	5.8	4	-1E+10	1	-1E+10	1	-1E+10	1	-1E+10	1	-1E+10	1	-1E+10	1
4902663	2	C	08/24/2023	06:27	-128.342	48.930	0	1412.70	0	2.6390	4	34.4900	0	27.519	0	1395.991	0	19.8	4	6.1	4	-1E+10	1	-1E+10	1	-1E+10	1	-1E+10	1	-1E+10	1	-1E+10	1
4902663	2	C	08/24/2023	06:27	-128.342	48.930	0	1437.90	0	2.5980	4	34.4940	0	27.525	0	1420.808	0	20.6	4	6.3	4	-1E+10	1	-1E+10	1	-1E+10	1	-1E+10	1	-1E+10	1	-1E+10	1
4902663	2	C	08/24/2023	06:27	-128.342	48.930	0	1463.00	0	2.5580	4	34.4970	0	27.531	0	1445.524	0	21.5	4	6.6	4	-1E+10	1	-1E+10	1	-1E+10	1	-1E+10	1	-1E+10	1	-1E+10	1
4902663	2	C	08/24/2023	06:27	-128.342	48.930	0	1488.00	0	2.5220	4	34.5020	0	27.538	0	1470.139	0	22.6	4	6.9	4	-1E+10	1	-1E+10	1	-1E+10	1	-1E+10	1	-1E+10	1	-1E+10	1
4902663	2	C	08/24/2023	06:27	-128.342	48.930	0	1512.70	0	2.4790	4	34.5070	0	27.546	0	1494.455	0	23.8	4	7.3	4	-1E+10	1	-1E+10	1	-1E+10	1	-1E+10	1	-1E+10	1	-1E+10	1
4902663	2	C	08/24/2023	06:27	-128.342	48.930	0	1537.70	0	2.4440	4	34.5110	0	27.552	0	1519.064	0	25.1	4	7.6	4	-1E+10	1	-1E+10	1	-1E+10	1	-1E+10	1	-1E+10	1	-1E+10	1
4902663	2	C	08/24/2023	06:27	-128.342	48.930	0	1562.70	0	2.4010	4	34.5180	0	27.562	0	1543.669	0	27.1	4	8.2	4	-1E+10	1	-1E+10	1	-1E+10	1	-1E+10	1	-1E+10	1	-1E+10	1
4902663	2	C	08/24/2023	06:27	-128.342	48.930	0	1587.70	0	2.3670	4	34.5220	0	27.568	0	1568.272	0	28.3	4	8.6	4	-1E+10	1	-1E+10	1	-1E+10	1	-1E+10	1	-1E+10	1	-1E+10	1
4902663	2	C	08/24/2023	06:27	-128.342	48.930	0	1612.60	0	2.3400	4	34.5260	0	27.573	0	1592.774	0	29.5	4	9.0	4	-1E+10	1	-1E+10	1	-1E+10	1	-1E+10	1	-1E+10	1	-1E+10	1
4902663	2	C	08/24/2023	06:27	-128.342	48.930	0	1637.90	0	2.3080	4	34.5290	0	27.579	0	1617.667	0	30.8	4	9.3	4	-1E+10	1	-1E+10	1	-1E+10	1	-1E+10	1	-1E+10	1	-1E+10	1
4902663	2	C	08/24/2023	06:27	-128.342	48.930	0	1663.00	0	2.2850	4	34.5340	0	27.585	0	1642.359	0	32.1	4	9.8	4	-1E+10	1	-1E+10	1	-1E+10	1	-1E+10	1	-1E+10	1	-1E+10	1
4902663	2	C	08/24/2023	06:27	-128.342	48.930	0	1687.90	0	2.2600	4	34.5380	0	27.590	0	1666.852	0	33.5	4	10.2	4	-1E+10	1	-1E+10	1	-1E+10	1	-1E+10	1	-1E+10	1	-1E+10	1
4902663	2	C	08/24/2023	06:27	-128.342	48.930	0	1713.10	0	2.2280	4	34.5420	0	27.596	0	1691.638	0	35.0	4	10.6	4	-1E+10	1	-1E+10	1	-1E+10	1	-1E+10	1	-1E+10	1	-1E+10	1
4902663	2	C	08/24/2023	06:27	-128.342	48.930	0	1738.30	0	2.2060	4	34.5460	0	27.601	0	1716.420	0	36.5	4	11.1	4	-1E+10	1	-1E+10	1	-1E+10	1	-1E+10	1	-1E+10	1	-1E+10	1
4902663	2	C	08/24/2023	06:27	-128.342	48.930	0	1763.30	0	2.1770	4	34.5500	0	27.607	0	1741.003	0	38.0	4	11.5	4	-1E+10	1	-1E+10	1	-1E+10	1	-1E+10	1	-1E+10	1	-1E+10	1
4902663	2	C	08/24/2023	06:27	-128.342	48.930	0	1787.70	0	2.1550	4	34.5530	0	27.611	0	1764.993	0	39.5	4	11.9	4	-1E+10	1	-1E+10	1	-1E+10	1	-1E+10	1	-1E+10	1	-1E+10	1
4902663	2	C	08/24/2023	06:27	-128.342	48.930	0	1812.50	0	2.1300	4	34.5570	0	27.616	0	1789.374	0	40.9	4	12.4	4	-1E+10	1	-1E+10	1	-1E+10	1	-1E+10	1	-1E+10	1	-1E+10	1
4902663	2	C	08/24/2023	06:27	-128.342	48.930	0	1837.70	0	2.1040	4	34.5620	0	27.622	0	1814.145	0	42.7	4	12.9	4	-1E+10	1	-1E+10	1	-1E+10	1	-1E+10	1	-1E+10	1	-1E+10	1
4902663	2	C	08/24/2023	06:27	-128.342	48.930	0	1862.80	0	2.0770	4	34.5660	0	27.628	0	1838.814	0	44.5	4	13.4	4	-1E+10	1	-1E+10	1	-1E+10	1	-1E+10	1	-1E+10	1	-1E+10	1
4902663	2	C	08/24/2023	06:27	-128.342	48.930	0	1887.80	0	2.0470	4	34.5710	0	27.634	0	1863.383	0	46.6	4	14.1	4	-1E+10	1	-1E+10	1	-1E+10	1	-1E+10	1	-1E+10	1	-1E+10	1
4902663	2	C	08/24/2023	06:27	-128.342	48.930	0	1912.70	0	2.0150	4	34.5760	0	27.641	0	1887.850	0	48.8	4	14.7	4	-1E+10	1	-1E+10	1	-1E+10	1	-1E+10	1	-1E+10	1	-1E+10	1
4902663	2	C	08/24/2023	06:27	-128.342	48.930	0	1937.60	0	1.9930	4	34.5800	0	27.646	0	1912.315	0	50.5	4	15.2	4	-1E+10	1	-1E+10	1	-1E+10	1	-1E+10	1	-1E+10	1	-1E+10	1
4902663	2	C	08/24/2023	06:27	-128.342	48.930	0	1962.80	0	1.9720	4	34.5840	0	27.651	0	1937.072	0	52.1	4	15.7	4	-1E+10	1	-1E+10	1	-1E+10	1	-1E+10	1	-1E+10	1	-1E+10	1
4902663	2	C	08/24/2023	06:27	-128.342	48.930	0	1989.50	0	1.9520	4	34.5880	0	27.656	0	1963.299	0	53.6	4	16.1	4	-1E+10	1	-1E+10	1	-1E+10	1	-1E+10	1	-1E+10	1	-1E+10	1
4902663	2	C	08/24/2023	06:27	-128.342	48.930	0	2000.60	0	1.9440	4	34.5890	0	27.657	0	1974.201	0	54.2	4	16.3	4	-1E+10	1	-1E+10	1	-1E+10	1	-1E+10	1	-1E+10	1	-1E+10	1
4902663	2	C	08/24/2023	06:27	-128.342	48.930	0																										
4902663	3	C	09/03/2023	06:13	-128.138	48.992	0	0.10	0	16.0720	0	32.1840	0	23.567	0	0.099	0	247.1	4	99.9	4	-1E+10	1	-1E+10	1	-1E+10	1	-1E+10	1	-1E+10	1	-1E+10	1
4902663	3	C	09/03/2023	06:13	-128.138	48.992	0	0.20	0	16.0730	0	32.1820	0	23.566	0	0.198	0	252.9	4	102.2	4	-1E+10	1	-1E+10	1	-1E+10	1	-1E+10	1	-1E+10	1	-1E+10	1
4902663	3	C	09/03/2023	06:13	-128.138	48.992	0	0.40	0	16.0760	0	32.1880	0	23.570	0	0.397	0	-1e10	1	-1e10	1	-1E+10	1	-1E+10	1	-1E+10	1	-1E+10	1	-1E+10	1	-1E+10	1
4902663	3	C	09/03/2023	06:13	-128.138	48.992	0	0.50	0	16.0767	0	32.1884	0	23.570	0	0.496	0	246.9	4	99.8	4	-1E+10	1	-1E+10	1	-1E+10	1	-1E+10	1	-1E+10	1	-1E+10	1
4902663	3	C	09/03/2023	06:13	-128.138	48.992	0	1.10	0	16.0810	0	32.1910	0	23.571	0	1.091	0	-1e10	1	-1e10	1	-1E+10	1	-1E+10	1	-1E+10	1	-1E+10	1	-1E+10	1	-1E+10	1
4902663	3	C	09/03/2023	06:13	-128.138	48.992	0	1.40	0	16.0815	0	32.1915	0	23.571	0	1.388	0	246.9	4	99.8	4	-1E+10	1	-1E+10	1	-1E+10	1	-1E+10	1	-1E+10	1	-1E+10	1
4902663	3	C	09/03/2023	06:13	-128.138	48.992	0	2.30	0	16.0830	0	32.1930	0	23.572	0	2.280	0	246.9	4	99.8	4	-1E+10	1	-1E+10	1	-1E+10	1	-1E+10	1	-1E+10	1	-1E+10	1
4902663	3	C	09/03/2023	06:13	-128.138	48.992	0	3.20	0	16.0830	0	32.1920	0	23.571	0	3.173	0	247.0	4	99.8	4	-1E+10	1	-1E+10	1	-1E+10	1	-1E+10	1	-1E+10	1	-1E+10	1
4902663	3	C	09/03/2023	06:13	-128.138	48.992	0	4.20	0	16.0840	0	32.1950	0	23.573	0	4.164	0	246.9	4	99.8	4	-1E+10	1	-1E+10	1	-1E+10	1	-1E+10	1	-1E+10	1	-1E+10	1
4902663	3	C	09/03/2023	06:13	-128.138	48.992	0	5.00	0	16.0810	0	32.1960	0	23.575	0	4.958	0	247.0	4	99.9	4	-1E+10	1	-1E+10	1	-1E+10	1	-1E+10	1	-1E+10	1	-1E+10	1
4902663	3	C	09/03/2023	06:13	-128.138	48.992	0	6.00	0	16.0830	0	32.1950	0	23.574	0	5.949	0	247.0	4	99.9	4	-1E+10	1	-1E+10	1	-1E+10	1	-1E+10	1	-1E+10	1	-1E+10	1
4902663	3	C	09/03/2023	06:13	-128.138	48.992	0	7.00	0	16.0860	0	32.1940	0	23.572	0	6.941	0	247.0	4	99.9	4	-1E+10	1	-1E+10	1	-1E+10	1	-1E+10	1	-1E+10	1	-1E+10	1
4902663	3	C	09/03/2023	06:13	-128.138	48.992	0	8.10	0	16.0870	0	32.1950	0	23.573	0	8.031	0	247.0	4	99.9	4	-1E+10	1	-1E+10	1	-1E+10	1	-1E+10	1	-1E+10	1	-1E+10	1
4902663	3	C	09/03/2023	06:13	-128.138	48.992	0	9.20	0	16.0870	0	32.1950	0	23.573	0	9.122	0	247.1	4	99.9	4	-1E+10	1	-1E+10	1	-1E+10	1	-1E+10	1	-1E+10	1	-1E+10	1
4902663	3	C	09/03/2023	06:13	-128.138	48.992	0	10.30	0	16.0840	0	32.1950	0	23.573	0	10.212	0	247.0	4	99.9	4	-1E+10	1	-1E+10	1	-1E+10	1	-1E+10	1	-1E+10	1	-1E+10	1
4902663	3	C	09/03/2023	06:13	-128.138	48.992	0	15.40	0	16.0810	0	32.1940	0	23.574	0	15.269	0	247.8	4	100.2	4	-1E+10	1	-1E+10	1	-1E+10	1	-1E+10	1	-1E+10	1	-1E+10	1
4902663	3	C	09/03/2023	06:13	-128.138	48.992	0	26.30	0	16.0810	0	32.1930	0	23.573	0	26.075	0	253.0	4	102.3	4	-1E+10	1	-1E+10	1	-1E+10	1	-1E+10	1	-1E+10	1	-1E+10	1
4902663	3	C	09/03/2023	06:13	-128.138	48.992	0	35.00	0	13.7910	0	32.2430	0	24.102	0	34.700	0	283.8	4	109.7	4	-1E+10	1	-1E+10	1	-1E+10	1	-1E+10	1	-1E+10	1	-1E+10	1
4902663	3	C	09/03/2023	06:13	-128.138	48.992	0	45.90	0	10.6660	0	32.3140	0	24.744	0	45.506	0	286.9	4	104.0	4	-1E+10	1	-1E+10	1	-1E+10	1	-1E+10	1	-1E+10	1	-1E+10	1
4902663	3	C	09/03/2023	06:13	-128.138	48.992	0	55.20	0	9.1440	0	32.3530	0	25.025	0	54.724	0	280.1	4	98.2	4	-1E+10	1	-1E+10	1	-1E+10	1	-1E+10	1	-1E+10	1	-1E+10	1
4902663	3	C	09/03/2023	06:13	-128.138	48.992	0	65.20	0	8.2980	0	32.3760	0	25.171	0	64.637	0	267.4	4	92.1	4	-1E+10	1	-1E+10	1	-1E+10	1	-1E+10	1	-1E+10	1	-1E+10	1
4902663	3	C	09/03/2023	06:13	-128.138	48.992	0	75.30	0	8.1080	0	32.4240	0	25.237	0	74.648	0	246.9	4	84.7	4	-1E+10	1	-1E+10	1	-1E+10	1	-1E+10	1	-1E+10	1	-1E+10	1
4902663	3	C	09/03/2023	06:13	-128.138	48.992	0	85.40	0	8.0360	0	32.6590	0	25.432	0	84.658	0	206.6	4	70.9	4	-1E+10	1	-1E+10	1	-1E+10	1	-1E+10	1	-1E+10	1	-1E+10	1
4902663	3	C	09/03/2023	06:13	-128.138	48.992	0	95.60	0	7.9650	0	33.0110	0	25.719	0	94.767	0	177.6	4	60.9	4	-1E+10	1	-1E+10	1	-1E+10	1	-1E+10	1	-1E+10	1	-1E+10	1
4902663	3	C	09/03/2023	06:13	-128.138	48.992	0	105.50	0	7.7160	0	33.3300	0	26.005	0	104.578	0	157.0	4	53.7	4	-1E+10	1	-1E+10	1	-1E+10	1	-1E+10	1	-1E+10	1	-1E+10	1
4902663	3	C	09/03/2023	06:13	-128.138	48.992	0	115.30	0	7.4360	0	33.5270	0	26.200	0	114.290	0	145.8	4	49.6	4	-1E+10	1	-1E+10	1	-1E+10	1	-1E+10	1	-1E+10	1	-1E+10	1
4902663	3	C	09/03/2023	06:13	-128.138	48.992	0	125.20	0	7.2750	0	33.6430	0	26.314	0	124.100	0	141.3	4	48.0	4	-1E+10	1	-1E+10	1	-1E+10	1	-1E+10	1	-1E+10	1	-1E+10	1
4902663	3	C	09/03/2023	06:13	-128.138	48.992	0	135.10	0	7.2180	0	33.7140	0	26.378	0	133.910	0	131.6	4	44.6	4	-1E+10	1	-1E+10	1	-1E+10	1	-1E+10	1	-1E+10	1	-1E+10	1
4902663	3	C	09/03/2023	06:13	-128.138	48.992	0	145.10	0	7.3780	0	33.7970	0	26.421	0	143.819	0	118.9	4	40.5	4	-1E+10	1	-1E+10	1	-1E+10	1	-1E+10	1	-1E+10	1	-1E+10	1
4902663	3	C	09/03/2023	06:13	-128.138	48.992	0	155.50	0	7.3800	0	33.8460	0	26.459	0	154.123	0	114.8	4	39.1	4	-1E+10	1	-1E+10	1	-1E+10	1	-1E+10	1	-1E+10	1	-1E+10	1
4902663	3	C	09/03/2023	06:13	-128.138	48.992	0	165.50	0	7.1660	0	33.8490	0	26.492	0	164.031	0	104.2	4	35.3	4	-1E+10	1	-1E+10	1	-1E+10	1	-1E+10	1	-1E+10	1	-1E+10	1
4902663	3	C	09/03/2023	06:13	-128.138	48.992	0	175.20	0	7.2950	0	33.9120	0	26.523	0	173.640	0	91.4	4	31.1	4	-1E+10	1	-1E+10	1	-1E+10	1	-1E+10	1	-1E+10	1	-1E+10	1
4902663	3	C	09/03/2023	06:13	-128.138	48.992	0	185.30	0	7.1820	0	33.9300	0	26.553	0	183.646	0	85.7	4	29.1	4	-1E+10	1	-1E+10	1	-1E+10	1	-1E+10	1	-1E+10	1	-1E+10	1
4902663	3	C	09/03/2023	06:13	-128.138	48.992	0	195.60	0	7.0970	0	33.9470	0	26.579	0	193.849	0	82.1	4	27.8	4	-1E+10	1	-1E+10	1	-1E+10	1	-1E+10	1	-1E+10	1	-1E+10	1
4902663	3	C	09/03/2023	06:13	-128.138	48.992	0	212.90	0	6.9500	0	33.9600	0	26.609	0	210.985	0	80.7	4	27.3	4	-1E+10	1	-1E+10	1	-1E+10	1	-1E+10	1	-1E+10	1	-1E+10	1
4902663	3	C	09/03/2023	06:13	-128.138	48.992	0	238.30	0	6.4930	0	33.9470	0	26.660	0	236.143	0	78.7	4	26.3	4	-1E+10	1	-1E+10	1	-1E+10	1	-1E+10	1	-1E+10	1	-1E+10	1
4902663	3	C	09/03/2023	06:13	-128.138	48.992	0	262.90	0	6.4660	0	33.9870	0	26.696	0	260.504	0	66.3	4	22.1	4	-1E+10	1	-1E+10	1	-1E+10	1	-1E+10	1	-1E+10	1	-1E+10	1
4902663	3	C	09/03/2023	06:13	-128.138	48.992	0	288.10	0	6.2840	0	33.9990	0	26.729	0	285.457	0	60.8	4	20.2	4	-1E+10	1	-1E+10	1	-1E+10	1	-1E+10	1	-1E+10	1	-1E+10	1
4902663	3	C	09/03/2023	06:13	-128.138	48.992	0	312.90	0	6.1290	0	34.0180	0	26.764	0	310.011	0	53.9	4	17.9	4	-1E+10	1	-1E+10	1	-1E+10	1	-1E+10	1	-1E+10	1	-1E+10	1
4902663	3	C	09/03/2023	06:13	-128.138	48.992	0	338.10	0	5.9710	0	34.0340	0	26.797	0	334.958	0	48.9	4	16.2	4	-1E+10	1	-1E+10	1	-1E+10	1	-1E+10	1	-1E+10	1	-1E+10	1
4902663	3	C	09/03/2023	06:13	-128.138	48.992	0	363.10	0	5.8320	0	34.0430	0	26.821	0	359.704	0	44.8	4	14.8	4	-1E+10	1	-1E+10	1	-1E+10	1	-1E+10	1	-1E+10	1	-1E+10	1
4902663	3	C	09/03/2023	06:13	-128.138	48.992	0	388.00	0	5.6580	0	34.0580	0	26.855	0	384.348	0	40.0	4	13.1	4	-1E+10	1	-1E+10	1	-1E+10	1	-1E+10	1	-1E+10	1	-1E+10	1
4902663	3	C	09/03/2023	06:13	-128.138	48.992	0	413.10	0	5.5130	0	34.0710	0	26.883	0	409.187	0	36.3	4	11.9	4	-1E+10	1	-1E+10	1	-1E+10	1	-1E+10	1	-1E+10	1	-1E+10	1
4902663	3	C	09/03/2023	06:13	-128.138	48.992	0	438.10	0	5.4150	0	34.0820	0	26.903	0	433.925	0	33.2	4	10.8	4	-1E+10	1	-1E+10	1	-1E+10	1	-1E+10	1	-1E+10	1	-1E+10	1
4902663	3	C	09/03/2023	06:13	-128.138	48.992	0	462.90	0	5.2730	0	34.0960	0	26.931	0	458.461	0	29.6	4	9.6	4	-1E+10	1	-1E+10	1	-1E+10	1	-1E+10	1	-1E+10	1	-1E+10	1
4902663	3	C	09/03/2023	06:13	-128.138	48.992	0	488.00	0	5.1120	0	34.1050	0	26.957	0	483.291	0	26.3	4	8.5	4	-1E+10	1	-1E+10	1	-1E+10	1	-1E+10	1	-1E+10	1	-1E+10	1
4902663	3	C	09/03/2023	06:13	-128.138	48.992	0	513.00	0	4.9920	0	34.1220	0	26.985	0	508.019	0	22.8	4	7.4	4	-1E+10	1	-1E+10	1	-1E+10	1	-1E+10	1	-1E+10	1	-1E+10	1
4902663	3	C	09/03/2023	06:13	-128.138	48.992	0	538.30	0	4.8790	0	34.1430	0	27.014	0	533.041	0	19.5	4	6.3	4	-1E+10	1	-1E+10	1	-1E+10	1	-1E+10	1	-1E+10	1	-1E+10	1
4902663	3	C	09/03/2023	06:13	-128.138	48.992	0	562.70	0	4.7450	0	34.1530	0	27.038	0	557.170	0	17.4	4	5.6	4	-1E+10	1	-1E+10	1	-1E+10	1	-1E+10	1	-1E+10	1	-1E+10	1
4902663	3	C	09/03/2023	06:13	-128.138	48.992	0	587.70	0	4.6730	0	34.1710	0	27.060	0	581.889	0	15.2	4	4.9	4	-1E+10	1	-1E+10	1	-1E+10	1	-1E+10	1	-1E+10	1	-1E+10	1
4902663	3	C	09/03/2023	06:13	-128.138	48.992	0	612.80	0	4.5850	0	34.1850	0	27.081	0	606.705	0	13.7	4	4.4	4	-1E+10	1	-1E+10	1	-1E+10	1	-1E+10	1	-1E+10	1	-1E+10	1
4902663	3	C	09/03/2023	06:13	-128.138	48.992	0	637.60	0	4.4740	0	34.1950	0	27.101	0	631.220	0	12.3	4	3.9	4	-1E+10	1	-1E+10	1	-1E+10	1	-1E+10	1	-1E+10	1	-1E+10	1
4902663	3	C	09/03/2023	06:13	-128.138	48.992	0	662.90	0	4.4380	0	34.2110	0	27.118	0	656.227	0	11.1	4	3.5	4	-1E+10	1	-1E+10	1	-1E+10	1	-1E+10	1	-1E+10	1	-1E+10	1
4902663	3	C	09/03/2023	06:13	-128.138	48.992	0	687.80	0	4.3330	0	34.2210	0	27.137	0	680.836	0	10.1	4	3.2	4	-1E+10	1	-1E+10	1	-1E+10	1	-1E+10	1	-1E+10	1	-1E+10	1
4902663	3	C	09/03/2023	06:13	-128.138	48.992	0	712.60	0	4.2740	0	34.2370	0	27.156	0	705.343	0	9.3	4	2.9	4	-1E+10	1	-1E+10	1	-1E+10	1	-1E+10	1	-1E+10	1	-1E+10	1
4902663	3	C	09/03/2023	06:13	-128.138	48.992	0	737.70	0	4.2080	0	34.2530	0	27.176	0	730.144	0	8.4	4	2.7	4	-1E+10	1	-1E+10	1	-1E+10	1	-1E+10	1	-1E+10	1	-1E+10	1
4902663	3	C	09/03/2023	06:13	-128.138	48.992	0	762.40	0	4.1450	0	34.2730	0	27.199	0	754.546	0	7.7	4	2.5	4	-1E+10	1	-1E+10	1	-1E+10	1	-1E+10	1	-1E+10	1	-1E+10	1
4902663	3	C	09/03/2023	06:13	-128.138	48.992	0	788.40	0	4.0610	0	34.2830	0	27.216	0	780.230	0	7.6	4	2.4	4	-1E+10	1	-1E+10	1	-1E+10	1	-1E+10	1	-1E+10	1	-1E+10	1
4902663	3	C	09/03/2023	06:13	-128.138	48.992	0	812.70	0	3.9800	0	34.2920	0	27.231	0	804.231	0	7.4	4	2.4	4	-1E+10	1	-1E+10	1	-1E+10	1	-1E+10	1	-1E+10	1	-1E+10	1
4902663	3	C	09/03/2023	06:13	-128.138	48.992	0	838.00	0	3.8990	0	34.3060	0	27.251	0	829.217	0	7.5	4	2.4	4	-1E+10	1	-1E+10	1	-1E+10	1	-1E+10	1	-1E+10	1	-1E+10	1
4902663	3	C	09/03/2023	06:13	-128.138	48.992	0	862.90	0	3.7910	0	34.3130	0	27.267	0	853.805	0	7.7	4	2.4	4	-1E+10	1	-1E+10	1	-1E+10	1	-1E+10	1	-1E+10	1	-1E+10	1
4902663	3	C	09/03/2023	06:13	-128.138	48.992	0	887.70	0	3.6940	0	34.3240	0	27.286	0	878.292	0	7.7	4	2.4	4	-1E+10	1	-1E+10	1	-1E+10	1	-1E+10	1	-1E+10	1	-1E+10	1
4902663	3	C	09/03/2023	06:13	-128.138	48.992	0	912.90	0	3.6670	0	34.3370	0	27.299	0	903.170	0	7.5	4	2.4	4	-1E+10	1	-1E+10	1	-1E+10	1	-1E+10	1	-1E+10	1	-1E+10	1
4902663	3	C	09/03/2023	06:13	-128.138	48.992	0	937.90	0	3.6040	0	34.3470	0	27.313	0	927.849	0	7.7	4	2.4	4	-1E+10	1	-1E+10	1	-1E+10	1	-1E+10	1	-1E+10	1	-1E+10	1
4902663	3	C	09/03/2023	06:13	-128.138	48.992	0	962.50	0	3.5470	0	34.3560	0	27.326	0	952.129	0	7.8	4	2.4	4	-1E+10	1	-1E+10	1	-1E+10	1	-1E+10	1	-1E+10	1	-1E+10	1
4902663	3	C	09/03/2023	06:13	-128.138	48.992	0	987.70	0	3.5120	0	34.3710	0	27.342	0	976.999	0	8.0	4	2.5	4	-1E+10	1	-1E+10	1	-1E+10	1	-1E+10	1	-1E+10	1	-1E+10	1
4902663	3	C	09/03/2023	06:13	-128.138	48.992	0	1012.70	0	3.4430	0	34.3800	0	27.356	0	1001.668	0	8.3	4	2.6	4	-1E+10	1	-1E+10	1	-1E+10	1	-1E+10	1	-1E+10	1	-1E+10	1
4902663	3	C	09/03/2023	06:13	-128.138	48.992	0	1038.20	0	3.3990	0	34.3910	0	27.369	0	1026.828	0	8.6	4	2.7	4	-1E+10	1	-1E+10	1	-1E+10	1	-1E+10	1	-1E+10	1	-1E+10	1
4902663	3	C	09/03/2023	06:13	-128.138	48.992	0	1062.80	0	3.3520	0	34.3970	0	27.378	0	1051.097	0	9.0	4	2.8	4	-1E+10	1	-1E+10	1	-1E+10	1	-1E+10	1	-1E+10	1	-1E+10	1
4902663	3	C	09/03/2023	06:13	-128.138	48.992	0	1088.10	0	3.2970	0	34.4060	0	27.391	0	1076.054	0	9.4	4	2.9	4	-1E+10	1	-1E+10	1	-1E+10	1	-1E+10	1	-1E+10	1	-1E+10	1
4902663	3	C	09/03/2023	06:13	-128.138	48.992	0	1112.70	0	3.2420	0	34.4150	0	27.403	0	1100.317	0	9.9	4	3.1	4	-1E+10	1	-1E+10	1	-1E+10	1	-1E+10	1	-1E+10	1	-1E+10	1
4902663	3	C	09/03/2023	06:13	-128.138	48.992	0	1137.90	0	3.2010	0	34.4220	0	27.413	0	1125.169	0	10.4	4	3.2	4	-1E+10	1	-1E+10	1	-1E+10	1	-1E+10	1	-1E+10	1	-1E+10	1
4902663	3	C	09/03/2023	06:13	-128.138	48.992	0	1162.90	0	3.1400	0	34.4300	0	27.425	0	1149.821	0	11.0	4	3.4	4	-1E+10	1	-1E+10	1	-1E+10	1	-1E+10	1	-1E+10	1	-1E+10	1
4902663	3	C	09/03/2023	06:13	-128.138	48.992	0	1187.90	0	3.0900	0	34.4340	0	27.433	0	1174.470	0	11.4	4	3.5	4	-1E+10	1	-1E+10	1	-1E+10	1	-1E+10	1	-1E+10	1	-1E+10	1
4902663	3	C	09/03/2023	06:13	-128.138	48.992	0	1212.90	0	3.0540	0	34.4380	0	27.439	0	1199.116	0	11.8	4	3.7	4	-1E+10	1	-1E+10	1	-1E+10	1	-1E+10	1	-1E+10	1	-1E+10	1
4902663	3	C	09/03/2023	06:13	-128.138	48.992	0	1237.90	0	2.9940	0	34.4450	0	27.450	0	1223.759	0	12.5	4	3.9	4	-1E+10	1	-1E+10	1	-1E+10	1	-1E+10	1	-1E+10	1	-1E+10	1
4902663	3	C	09/03/2023	06:13	-128.138	48.992	0	1262.70	0	2.9280	0	34.4520	0	27.462	0	1248.202	0	13.3	4	4.1	4	-1E+10	1	-1E+10	1	-1E+10	1	-1E+10	1	-1E+10	1	-1E+10	1
4902663	3	C	09/03/2023	06:13	-128.138	48.992	0	1287.70	0	2.8920	0	34.4570	0	27.469	0	1272.840	0	14.0	4	4.3	4	-1E+10	1	-1E+10	1	-1E+10	1	-1E+10	1	-1E+10	1	-1E+10	1
4902663	3	C	09/03/2023	06:13	-128.138	48.992	0	1313.90	0	2.8370	0	34.4640	0	27.480	0	1298.657	0	15.2	4	4.7	4	-1E+10	1	-1E+10	1	-1E+10	1	-1E+10	1	-1E+10	1	-1E+10	1
4902663	3	C	09/03/2023	06:13	-128.138	48.992	0	1337.70	0	2.7640	0	34.4740	0	27.495	0	1322.106	0	16.6	4	5.1	4	-1E+10	1	-1E+10	1	-1E+10	1	-1E+10	1	-1E+10	1	-1E+10	1
4902663	3	C	09/03/2023	06:13	-128.138	48.992	0	1362.90	0	2.6950	0	34.4820	0	27.507	0	1346.932	0	18.0	4	5.5	4	-1E+10	1	-1E+10	1	-1E+10	1	-1E+10	1	-1E+10	1	-1E+10	1
4902663	3	C	09/03/2023	06:13	-128.138	48.992	0	1388.00	0	2.6530	0	34.4870	0	27.515	0	1371.656	0	18.8	4	5.8	4	-1E+10	1	-1E+10	1	-1E+10	1	-1E+10	1	-1E+10	1	-1E+10	1
4902663	3	C	09/03/2023	06:13	-128.138	48.992	0	1412.90	0	2.6100	0	34.4880	0	27.519	0	1396.180	0	19.2	4	5.9	4	-1E+10	1	-1E+10	1	-1E+10	1	-1E+10	1	-1E+10	1	-1E+10	1
4902663	3	C	09/03/2023	06:13	-128.138	48.992	0	1437.80	0	2.5740	0	34.4940	0	27.527	0	1420.702	0	20.6	4	6.3	4	-1E+10	1	-1E+10	1	-1E+10	1	-1E+10	1	-1E+10	1	-1E+10	1
4902663	3	C	09/03/2023	06:13	-128.138	48.992	0	1462.60	0	2.5490	0	34.5000	0	27.534	0	1445.122	0	22.0	4	6.7	4	-1E+10	1	-1E+10	1	-1E+10	1	-1E+10	1	-1E+10	1	-1E+10	1
4902663	3	C	09/03/2023	06:13	-128.138	48.992	0	1487.80	0	2.5080	0	34.5050	0	27.542	0	1469.934	0	23.1	4	7.0	4	-1E+10	1	-1E+10	1	-1E+10	1	-1E+10	1	-1E+10	1	-1E+10	1
4902663	3	C	09/03/2023	06:13	-128.138	48.992	0	1512.80	0	2.4740	0	34.5090	0	27.548	0	1494.545	0	24.3	4	7.4	4	-1E+10	1	-1E+10	1	-1E+10	1	-1E+10	1	-1E+10	1	-1E+10	1
4902663	3	C	09/03/2023	06:13	-128.138	48.992	0	1537.40	0	2.4320	0	34.5140	0	27.556	0	1518.760	0	25.7	4	7.8	4	-1E+10	1	-1E+10	1	-1E+10	1	-1E+10	1	-1E+10	1	-1E+10	1
4902663	3	C	09/03/2023	06:13	-128.138	48.992	0	1562.60	0	2.3860	0	34.5190	0	27.564	0	1543.562	0	27.2	4	8.3	4	-1E+10	1	-1E+10	1	-1E+10	1	-1E+10	1	-1E+10	1	-1E+10	1
4902663	3	C	09/03/2023	06:13	-128.138	48.992	0	1588.00	0	2.3490	0	34.5240	0	27.571	0	1568.559	0	28.8	4	8.8	4	-1E+10	1	-1E+10	1	-1E+10	1	-1E+10	1	-1E+10	1	-1E+10	1
4902663	3	C	09/03/2023	06:13	-128.138	48.992	0	1613.30	0	2.3200	0	34.5290	0	27.577	0	1593.454	0	30.3	4	9.2	4	-1E+10	1	-1E+10	1	-1E+10	1	-1E+10	1	-1E+10	1	-1E+10	1
4902663	3	C	09/03/2023	06:13	-128.138	48.992	0	1638.40	0	2.2910	0	34.5320	0	27.582	0	1618.149	0	31.7	4	9.6	4	-1E+10	1	-1E+10	1	-1E+10	1	-1E+10	1	-1E+10	1	-1E+10	1
4902663	3	C	09/03/2023	06:13	-128.138	48.992	0	1663.20	0	2.2620	0	34.5360	0	27.588	0	1642.547	0	33.0	4	10.0	4	-1E+10	1	-1E+10	1	-1E+10	1	-1E+10	1	-1E+10	1	-1E+10	1
4902663	3	C	09/03/2023	06:13	-128.138	48.992	0	1687.70	0	2.2360	0	34.5400	0	27.593	0	1666.646	0	34.3	4	10.4	4	-1E+10	1	-1E+10	1	-1E+10	1	-1E+10	1	-1E+10	1	-1E+10	1
4902663	3	C	09/03/2023	06:13	-128.138	48.992	0	1712.60	0	2.2120	0	34.5440	0	27.599	0	1691.136	0	35.5	4	10.7	4	-1E+10	1	-1E+10	1	-1E+10	1	-1E+10	1	-1E+10	1	-1E+10	1
4902663	3	C	09/03/2023	06:13	-128.138	48.992	0	1737.70	0	2.1890	0	34.5470	0	27.603	0	1715.820	0	36.9	4	11.2	4	-1E+10	1	-1E+10	1	-1E+10	1	-1E+10	1	-1E+10	1	-1E+10	1
4902663	3	C	09/03/2023	06:13	-128.138	48.992	0	1762.80	0	2.1630	0	34.5510	0	27.608	0	1740.502	0	38.4	4	11.6	4	-1E+10	1	-1E+10	1	-1E+10	1	-1E+10	1	-1E+10	1	-1E+10	1
4902663	3	C	09/03/2023	06:13	-128.138	48.992	0	1787.60	0	2.1420	0	34.5550	0	27.614	0	1764.885	0	39.8	4	12.0	4	-1E+10	1	-1E+10	1	-1E+10	1	-1E+10	1	-1E+10	1	-1E+10	1
4902663	3	C	09/03/2023	06:13	-128.138	48.992	0	1812.70	0	2.1190	0	34.5580	0	27.618	0	1789.560	0	41.3	4	12.5	4	-1E+10	1	-1E+10	1	-1E+10	1	-1E+10	1	-1E+10	1	-1E+10	1
4902663	3	C	09/03/2023	06:13	-128.138	48.992	0	1838.00	0	2.0960	0	34.5630	0	27.624	0	1814.429	0	42.8	4	12.9	4	-1E+10	1	-1E+10	1	-1E+10	1	-1E+10	1	-1E+10	1	-1E+10	1
4902663	3	C	09/03/2023	06:13	-128.138	48.992	0	1863.60	0	2.0780	0	34.5660	0	27.628	0	1839.590	0	44.2	4	13.3	4	-1E+10	1	-1E+10	1	-1E+10	1	-1E+10	1	-1E+10	1	-1E+10	1
4902663	3	C	09/03/2023	06:13	-128.138	48.992	0	1887.70	0	2.0580	0	34.5700	0	27.633	0	1863.274	0	45.6	4	13.8	4	-1E+10	1	-1E+10	1	-1E+10	1	-1E+10	1	-1E+10	1	-1E+10	1
4902663	3	C	09/03/2023	06:13	-128.138	48.992	0	1912.80	0	2.0350	0	34.5740	0	27.638	0	1887.938	0	47.3	4	14.3	4	-1E+10	1	-1E+10	1	-1E+10	1	-1E+10	1	-1E+10	1	-1E+10	1
4902663	3	C	09/03/2023	06:13	-128.138	48.992	0	1937.70	0	2.0160	0	34.5770	0	27.642	0	1912.403	0	48.8	4	14.7	4	-1E+10	1	-1E+10	1	-1E+10	1	-1E+10	1	-1E+10	1	-1E+10	1
4902663	3	C	09/03/2023	06:13	-128.138	48.992	0	1962.70	0	1.9990	0	34.5800	0	27.646	0	1936.963	0	50.1	4	15.1	4	-1E+10	1	-1E+10	1	-1E+10	1	-1E+10	1	-1E+10	1	-1E+10	1
4902663	3	C	09/03/2023	06:13	-128.138	48.992	0	1987.80	0	1.9840	0	34.5830	0	27.649	0	1961.618	0	51.2	4	15.4	4	-1E+10	1	-1E+10	1	-1E+10	1	-1E+10	1	-1E+10	1	-1E+10	1
4902663	3	C	09/03/2023	06:13	-128.138	48.992	0	2013.90	0	1.9670	0	34.5860	0	27.653	0	1987.253	0	51.9	4	15.6	4	-1E+10	1	-1E+10	1	-1E+10	1	-1E+10	1	-1E+10	1	-1E+10	1
4902663	3	C	09/03/2023	06:13	-128.138	48.992	0																										
4902663	4	C	09/13/2023	06:10	-127.988	48.978	0	0.00	0	17.1120	0	32.1260	0	23.284	0	0.000	0	236.6	4	97.5	4	-1E+10	1	-1E+10	1	-1E+10	1	-1E+10	1	-1E+10	1	-1E+10	1
4902663	4	C	09/13/2023	06:10	-127.988	48.978	0	0.10	0	17.1120	0	32.1258	0	23.284	0	0.099	0	236.6	4	97.5	4	-1E+10	1	-1E+10	1	-1E+10	1	-1E+10	1	-1E+10	1	-1E+10	1
4902663	4	C	09/13/2023	06:10	-127.988	48.978	0	0.90	0	17.1120	0	32.1240	0	23.283	0	0.892	0	236.7	4	97.6	4	-1E+10	1	-1E+10	1	-1E+10	1	-1E+10	1	-1E+10	1	-1E+10	1
4902663	4	C	09/13/2023	06:10	-127.988	48.978	0	2.00	0	17.1050	0	32.1280	0	23.288	0	1.983	0	236.8	4	97.6	4	-1E+10	1	-1E+10	1	-1E+10	1	-1E+10	1	-1E+10	1	-1E+10	1
4902663	4	C	09/13/2023	06:10	-127.988	48.978	0	2.80	0	17.0780	0	32.1390	0	23.302	0	2.776	0	236.9	4	97.6	4	-1E+10	1	-1E+10	1	-1E+10	1	-1E+10	1	-1E+10	1	-1E+10	1
4902663	4	C	09/13/2023	06:10	-127.988	48.978	0	4.00	0	17.0500	0	32.1710	0	23.334	0	3.966	0	237.1	4	97.6	4	-1E+10	1	-1E+10	1	-1E+10	1	-1E+10	1	-1E+10	1	-1E+10	1
4902663	4	C	09/13/2023	06:10	-127.988	48.978	0	5.30	0	17.0090	0	32.1880	0	23.356	0	5.255	0	237.3	4	97.7	4	-1E+10	1	-1E+10	1	-1E+10	1	-1E+10	1	-1E+10	1	-1E+10	1
4902663	4	C	09/13/2023	06:10	-127.988	48.978	0	6.10	0	16.9190	0	32.2020	0	23.388	0	6.048	0	237.5	4	97.6	4	-1E+10	1	-1E+10	1	-1E+10	1	-1E+10	1	-1E+10	1	-1E+10	1
4902663	4	C	09/13/2023	06:10	-127.988	48.978	0	7.10	0	16.8820	0	32.2050	0	23.399	0	7.040	0	237.7	4	97.6	4	-1E+10	1	-1E+10	1	-1E+10	1	-1E+10	1	-1E+10	1	-1E+10	1
4902663	4	C	09/13/2023	06:10	-127.988	48.978	0	7.90	0	16.8670	0	32.2060	0	23.403	0	7.833	0	237.8	4	97.6	4	-1E+10	1	-1E+10	1	-1E+10	1	-1E+10	1	-1E+10	1	-1E+10	1
4902663	4	C	09/13/2023	06:10	-127.988	48.978	0	8.90	0	16.8630	0	32.2050	0	23.403	0	8.824	0	237.9	4	97.6	4	-1E+10	1	-1E+10	1	-1E+10	1	-1E+10	1	-1E+10	1	-1E+10	1
4902663	4	C	09/13/2023	06:10	-127.988	48.978	0	9.80	0	16.8610	0	32.2060	0	23.405	0	9.717	0	237.9	4	97.7	4	-1E+10	1	-1E+10	1	-1E+10	1	-1E+10	1	-1E+10	1	-1E+10	1
4902663	4	C	09/13/2023	06:10	-127.988	48.978	0	15.20	0	16.8270	0	32.2090	0	23.415	0	15.071	0	239.2	4	98.1	4	-1E+10	1	-1E+10	1	-1E+10	1	-1E+10	1	-1E+10	1	-1E+10	1
4902663	4	C	09/13/2023	06:10	-127.988	48.978	0	25.50	0	15.6650	0	32.2370	0	23.700	0	25.282	0	256.9	4	103.0	4	-1E+10	1	-1E+10	1	-1E+10	1	-1E+10	1	-1E+10	1	-1E+10	1
4902663	4	C	09/13/2023	06:10	-127.988	48.978	0	35.30	0	11.1420	0	32.3650	0	24.700	0	34.998	0	263.9	4	96.6	4	-1E+10	1	-1E+10	1	-1E+10	1	-1E+10	1	-1E+10	1	-1E+10	1
4902663	4	C	09/13/2023	06:10	-127.988	48.978	0	45.60	0	10.2260	0	32.4510	0	24.926	0	45.208	0	247.7	4	89.0	4	-1E+10	1	-1E+10	1	-1E+10	1	-1E+10	1	-1E+10	1	-1E+10	1
4902663	4	C	09/13/2023	06:10	-127.988	48.978	0	55.60	0	9.2840	0	32.4420	0	25.072	0	55.121	0	250.3	4	88.1	4	-1E+10	1	-1E+10	1	-1E+10	1	-1E+10	1	-1E+10	1	-1E+10	1
4902663	4	C	09/13/2023	06:10	-127.988	48.978	0	65.80	0	8.5020	0	32.4970	0	25.236	0	65.232	0	231.1	4	80.0	4	-1E+10	1	-1E+10	1	-1E+10	1	-1E+10	1	-1E+10	1	-1E+10	1
4902663	4	C	09/13/2023	06:10	-127.988	48.978	0	75.20	0	8.3420	0	32.7500	0	25.458	0	74.549	0	200.2	4	69.2	4	-1E+10	1	-1E+10	1	-1E+10	1	-1E+10	1	-1E+10	1	-1E+10	1
4902663	4	C	09/13/2023	06:10	-127.988	48.978	0	85.10	0	8.1530	0	33.0210	0	25.699	0	84.361	0	181.2	4	62.5	4	-1E+10	1	-1E+10	1	-1E+10	1	-1E+10	1	-1E+10	1	-1E+10	1
4902663	4	C	09/13/2023	06:10	-127.988	48.978	0	95.00	0	7.8860	0	33.1730	0	25.857	0	94.173	0	167.1	4	57.3	4	-1E+10	1	-1E+10	1	-1E+10	1	-1E+10	1	-1E+10	1	-1E+10	1
4902663	4	C	09/13/2023	06:10	-127.988	48.978	0	105.10	0	7.8960	0	33.3770	0	26.016	0	104.182	0	155.2	4	53.3	4	-1E+10	1	-1E+10	1	-1E+10	1	-1E+10	1	-1E+10	1	-1E+10	1
4902663	4	C	09/13/2023	06:10	-127.988	48.978	0	115.40	0	7.8120	0	33.5340	0	26.152	0	114.389	0	146.6	4	50.3	4	-1E+10	1	-1E+10	1	-1E+10	1	-1E+10	1	-1E+10	1	-1E+10	1
4902663	4	C	09/13/2023	06:10	-127.988	48.978	0	125.00	0	7.6780	0	33.6410	0	26.255	0	123.902	0	140.6	4	48.2	4	-1E+10	1	-1E+10	1	-1E+10	1	-1E+10	1	-1E+10	1	-1E+10	1
4902663	4	C	09/13/2023	06:10	-127.988	48.978	0	135.10	0	7.6120	0	33.7210	0	26.328	0	133.910	0	135.9	4	46.5	4	-1E+10	1	-1E+10	1	-1E+10	1	-1E+10	1	-1E+10	1	-1E+10	1
4902663	4	C	09/13/2023	06:10	-127.988	48.978	0	145.50	0	7.5420	0	33.7770	0	26.382	0	144.215	0	131.7	4	45.0	4	-1E+10	1	-1E+10	1	-1E+10	1	-1E+10	1	-1E+10	1	-1E+10	1
4902663	4	C	09/13/2023	06:10	-127.988	48.978	0	155.60	0	7.4510	0	33.8180	0	26.427	0	154.222	0	127.7	4	43.6	4	-1E+10	1	-1E+10	1	-1E+10	1	-1E+10	1	-1E+10	1	-1E+10	1
4902663	4	C	09/13/2023	06:10	-127.988	48.978	0	165.70	0	7.3740	0	33.8470	0	26.461	0	164.229	0	123.7	4	42.2	4	-1E+10	1	-1E+10	1	-1E+10	1	-1E+10	1	-1E+10	1	-1E+10	1
4902663	4	C	09/13/2023	06:10	-127.988	48.978	0	175.10	0	7.2730	0	33.8580	0	26.484	0	173.541	0	120.6	4	41.0	4	-1E+10	1	-1E+10	1	-1E+10	1	-1E+10	1	-1E+10	1	-1E+10	1
4902663	4	C	09/13/2023	06:10	-127.988	48.978	0	185.20	0	7.1460	0	33.8700	0	26.511	0	183.547	0	115.1	4	39.0	4	-1E+10	1	-1E+10	1	-1E+10	1	-1E+10	1	-1E+10	1	-1E+10	1
4902663	4	C	09/13/2023	06:10	-127.988	48.978	0	195.30	0	7.0340	0	33.8870	0	26.540	0	193.552	0	109.9	4	37.2	4	-1E+10	1	-1E+10	1	-1E+10	1	-1E+10	1	-1E+10	1	-1E+10	1
4902663	4	C	09/13/2023	06:10	-127.988	48.978	0	213.20	0	6.9560	0	33.9160	0	26.574	0	211.283	0	97.5	4	32.9	4	-1E+10	1	-1E+10	1	-1E+10	1	-1E+10	1	-1E+10	1	-1E+10	1
4902663	4	C	09/13/2023	06:10	-127.988	48.978	0	238.10	0	6.6850	0	33.9310	0	26.622	0	235.945	0	93.6	4	31.4	4	-1E+10	1	-1E+10	1	-1E+10	1	-1E+10	1	-1E+10	1	-1E+10	1
4902663	4	C	09/13/2023	06:10	-127.988	48.978	0	262.80	0	6.4290	0	33.9330	0	26.658	0	260.406	0	88.1	4	29.4	4	-1E+10	1	-1E+10	1	-1E+10	1	-1E+10	1	-1E+10	1	-1E+10	1
4902663	4	C	09/13/2023	06:10	-127.988	48.978	0	287.80	0	6.1350	0	33.9390	0	26.701	0	285.161	0	78.7	4	26.1	4	-1E+10	1	-1E+10	1	-1E+10	1	-1E+10	1	-1E+10	1	-1E+10	1
4902663	4	C	09/13/2023	06:10	-127.988	48.978	0	312.90	0	6.0600	0	33.9720	0	26.736	0	310.012	0	66.5	4	22.0	4	-1E+10	1	-1E+10	1	-1E+10	1	-1E+10	1	-1E+10	1	-1E+10	1
4902663	4	C	09/13/2023	06:10	-127.988	48.978	0	337.70	0	5.9200	0	34.0000	0	26.776	0	334.563	0	56.7	4	18.7	4	-1E+10	1	-1E+10	1	-1E+10	1	-1E+10	1	-1E+10	1	-1E+10	1
4902663	4	C	09/13/2023	06:10	-127.988	48.978	0	362.90	0	5.8180	0	34.0270	0	26.810	0	359.507	0	48.7	4	16.0	4	-1E+10	1	-1E+10	1	-1E+10	1	-1E+10	1	-1E+10	1	-1E+10	1
4902663	4	C	09/13/2023	06:10	-127.988	48.978	0	388.40	0	5.6930	0	34.0440	0	26.839	0	384.745	0	43.9	4	14.4	4	-1E+10	1	-1E+10	1	-1E+10	1	-1E+10	1	-1E+10	1	-1E+10	1
4902663	4	C	09/13/2023	06:10	-127.988	48.978	0	413.00	0	5.5210	0	34.0520	0	26.867	0	409.089	0	40.2	4	13.1	4	-1E+10	1	-1E+10	1	-1E+10	1	-1E+10	1	-1E+10	1	-1E+10	1
4902663	4	C	09/13/2023	06:10	-127.988	48.978	0	437.70	0	5.3980	0	34.0650	0	26.892	0	433.529	0	36.1	4	11.8	4	-1E+10	1	-1E+10	1	-1E+10	1	-1E+10	1	-1E+10	1	-1E+10	1
4902663	4	C	09/13/2023	06:10	-127.988	48.978	0	462.60	0	5.1660	0	34.0720	0	26.925	0	458.165	0	33.1	4	10.7	4	-1E+10	1	-1E+10	1	-1E+10	1	-1E+10	1	-1E+10	1	-1E+10	1
4902663	4	C	09/13/2023	06:10	-127.988	48.978	0	488.30	0	5.0030	0	34.0790	0	26.949	0	483.588	0	29.8	4	9.6	4	-1E+10	1	-1E+10	1	-1E+10	1	-1E+10	1	-1E+10	1	-1E+10	1
4902663	4	C	09/13/2023	06:10	-127.988	48.978	0	513.10	0	4.8730	0	34.0920	0	26.974	0	508.119	0	26.9	4	8.7	4	-1E+10	1	-1E+10	1	-1E+10	1	-1E+10	1	-1E+10	1	-1E+10	1
4902663	4	C	09/13/2023	06:10	-127.988	48.978	0	537.80	0	4.8970	0	34.1290	0	27.001	0	532.547	0	21.2	4	6.8	4	-1E+10	1	-1E+10	1	-1E+10	1	-1E+10	1	-1E+10	1	-1E+10	1
4902663	4	C	09/13/2023	06:10	-127.988	48.978	0	562.60	0	4.7510	0	34.1340	0	27.022	0	557.072	0	20.2	4	6.5	4	-1E+10	1	-1E+10	1	-1E+10	1	-1E+10	1	-1E+10	1	-1E+10	1
4902663	4	C	09/13/2023	06:10	-127.988	48.978	0	587.80	0	4.6610	0	34.1460	0	27.041	0	581.989	0	17.2	4	5.5	4	-1E+10	1	-1E+10	1	-1E+10	1	-1E+10	1	-1E+10	1	-1E+10	1
4902663	4	C	09/13/2023	06:10	-127.988	48.978	0	612.90	0	4.6150	0	34.1770	0	27.071	0	606.804	0	14.1	4	4.5	4	-1E+10	1	-1E+10	1	-1E+10	1	-1E+10	1	-1E+10	1	-1E+10	1
4902663	4	C	09/13/2023	06:10	-127.988	48.978	0	637.80	0	4.5350	0	34.1970	0	27.096	0	631.419	0	12.2	4	3.9	4	-1E+10	1	-1E+10	1	-1E+10	1	-1E+10	1	-1E+10	1	-1E+10	1
4902663	4	C	09/13/2023	06:10	-127.988	48.978	0	662.90	0	4.4870	0	34.2170	0	27.117	0	656.228	0	10.8	4	3.5	4	-1E+10	1	-1E+10	1	-1E+10	1	-1E+10	1	-1E+10	1	-1E+10	1
4902663	4	C	09/13/2023	06:10	-127.988	48.978	0	688.30	0	4.4310	0	34.2300	0	27.134	0	681.331	0	9.9	4	3.2	4	-1E+10	1	-1E+10	1	-1E+10	1	-1E+10	1	-1E+10	1	-1E+10	1
4902663	4	C	09/13/2023	06:10	-127.988	48.978	0	712.90	0	4.3840	0	34.2490	0	27.154	0	705.640	0	9.0	4	2.9	4	-1E+10	1	-1E+10	1	-1E+10	1	-1E+10	1	-1E+10	1	-1E+10	1
4902663	4	C	09/13/2023	06:10	-127.988	48.978	0	738.70	0	4.3110	0	34.2640	0	27.174	0	731.133	0	8.3	4	2.7	4	-1E+10	1	-1E+10	1	-1E+10	1	-1E+10	1	-1E+10	1	-1E+10	1
4902663	4	C	09/13/2023	06:10	-127.988	48.978	0	762.80	0	4.1740	0	34.2740	0	27.197	0	754.942	0	7.7	4	2.5	4	-1E+10	1	-1E+10	1	-1E+10	1	-1E+10	1	-1E+10	1	-1E+10	1
4902663	4	C	09/13/2023	06:10	-127.988	48.978	0	787.40	0	4.1130	0	34.2870	0	27.213	0	779.243	0	7.4	4	2.3	4	-1E+10	1	-1E+10	1	-1E+10	1	-1E+10	1	-1E+10	1	-1E+10	1
4902663	4	C	09/13/2023	06:10	-127.988	48.978	0	812.80	0	4.0230	0	34.2970	0	27.231	0	804.331	0	7.2	4	2.3	4	-1E+10	1	-1E+10	1	-1E+10	1	-1E+10	1	-1E+10	1	-1E+10	1
4902663	4	C	09/13/2023	06:10	-127.988	48.978	0	838.20	0	3.9080	0	34.3050	0	27.249	0	829.416	0	7.4	4	2.3	4	-1E+10	1	-1E+10	1	-1E+10	1	-1E+10	1	-1E+10	1	-1E+10	1
4902663	4	C	09/13/2023	06:10	-127.988	48.978	0	863.10	0	3.8180	0	34.3120	0	27.264	0	854.004	0	7.5	4	2.4	4	-1E+10	1	-1E+10	1	-1E+10	1	-1E+10	1	-1E+10	1	-1E+10	1
4902663	4	C	09/13/2023	06:10	-127.988	48.978	0	888.00	0	3.7720	0	34.3230	0	27.277	0	878.589	0	7.4	4	2.3	4	-1E+10	1	-1E+10	1	-1E+10	1	-1E+10	1	-1E+10	1	-1E+10	1
4902663	4	C	09/13/2023	06:10	-127.988	48.978	0	912.80	0	3.7190	0	34.3340	0	27.292	0	903.073	0	7.4	4	2.3	4	-1E+10	1	-1E+10	1	-1E+10	1	-1E+10	1	-1E+10	1	-1E+10	1
4902663	4	C	09/13/2023	06:10	-127.988	48.978	0	937.80	0	3.6700	0	34.3380	0	27.300	0	927.751	0	7.5	4	2.4	4	-1E+10	1	-1E+10	1	-1E+10	1	-1E+10	1	-1E+10	1	-1E+10	1
4902663	4	C	09/13/2023	06:10	-127.988	48.978	0	962.90	0	3.6170	0	34.3480	0	27.313	0	952.525	0	7.6	4	2.4	4	-1E+10	1	-1E+10	1	-1E+10	1	-1E+10	1	-1E+10	1	-1E+10	1
4902663	4	C	09/13/2023	06:10	-127.988	48.978	0	987.80	0	3.5510	0	34.3600	0	27.329	0	977.099	0	7.8	4	2.4	4	-1E+10	1	-1E+10	1	-1E+10	1	-1E+10	1	-1E+10	1	-1E+10	1
4902663	4	C	09/13/2023	06:10	-127.988	48.978	0	1012.90	0	3.4930	0	34.3730	0	27.345	0	1001.867	0	8.0	4	2.5	4	-1E+10	1	-1E+10	1	-1E+10	1	-1E+10	1	-1E+10	1	-1E+10	1
4902663	4	C	09/13/2023	06:10	-127.988	48.978	0	1037.90	0	3.4330	0	34.3840	0	27.360	0	1026.533	0	8.4	4	2.6	4	-1E+10	1	-1E+10	1	-1E+10	1	-1E+10	1	-1E+10	1	-1E+10	1
4902663	4	C	09/13/2023	06:10	-127.988	48.978	0	1062.60	0	3.3670	0	34.3950	0	27.375	0	1050.901	0	8.8	4	2.8	4	-1E+10	1	-1E+10	1	-1E+10	1	-1E+10	1	-1E+10	1	-1E+10	1
4902663	4	C	09/13/2023	06:10	-127.988	48.978	0	1088.40	0	3.2950	0	34.4050	0	27.390	0	1076.351	0	9.4	4	2.9	4	-1E+10	1	-1E+10	1	-1E+10	1	-1E+10	1	-1E+10	1	-1E+10	1
4902663	4	C	09/13/2023	06:10	-127.988	48.978	0	1112.90	0	3.2420	0	34.4150	0	27.403	0	1100.515	0	9.9	4	3.1	4	-1E+10	1	-1E+10	1	-1E+10	1	-1E+10	1	-1E+10	1	-1E+10	1
4902663	4	C	09/13/2023	06:10	-127.988	48.978	0	1137.70	0	3.1810	0	34.4220	0	27.414	0	1124.973	0	10.4	4	3.2	4	-1E+10	1	-1E+10	1	-1E+10	1	-1E+10	1	-1E+10	1	-1E+10	1
4902663	4	C	09/13/2023	06:10	-127.988	48.978	0	1162.50	0	3.1240	0	34.4290	0	27.425	0	1149.428	0	10.9	4	3.4	4	-1E+10	1	-1E+10	1	-1E+10	1	-1E+10	1	-1E+10	1	-1E+10	1
4902663	4	C	09/13/2023	06:10	-127.988	48.978	0	1187.80	0	3.0610	0	34.4330	0	27.435	0	1174.373	0	11.3	4	3.5	4	-1E+10	1	-1E+10	1	-1E+10	1	-1E+10	1	-1E+10	1	-1E+10	1
4902663	4	C	09/13/2023	06:10	-127.988	48.978	0	1213.10	0	2.9780	0	34.4340	0	27.443	0	1199.315	0	11.7	4	3.6	4	-1E+10	1	-1E+10	1	-1E+10	1	-1E+10	1	-1E+10	1	-1E+10	1
4902663	4	C	09/13/2023	06:10	-127.988	48.978	0	1237.90	0	2.9400	0	34.4400	0	27.451	0	1223.761	0	12.5	4	3.8	4	-1E+10	1	-1E+10	1	-1E+10	1	-1E+10	1	-1E+10	1	-1E+10	1
4902663	4	C	09/13/2023	06:10	-127.988	48.978	0	1263.10	0	2.9110	0	34.4500	0	27.462	0	1248.598	0	13.5	4	4.1	4	-1E+10	1	-1E+10	1	-1E+10	1	-1E+10	1	-1E+10	1	-1E+10	1
4902663	4	C	09/13/2023	06:10	-127.988	48.978	0	1288.60	0	2.8710	0	34.4570	0	27.471	0	1273.728	0	14.2	4	4.4	4	-1E+10	1	-1E+10	1	-1E+10	1	-1E+10	1	-1E+10	1	-1E+10	1
4902663	4	C	09/13/2023	06:10	-127.988	48.978	0	1313.10	0	2.8000	0	34.4620	0	27.482	0	1297.870	0	14.8	4	4.5	4	-1E+10	1	-1E+10	1	-1E+10	1	-1E+10	1	-1E+10	1	-1E+10	1
4902663	4	C	09/13/2023	06:10	-127.988	48.978	0	1338.00	0	2.7520	0	34.4680	0	27.491	0	1322.403	0	15.7	4	4.8	4	-1E+10	1	-1E+10	1	-1E+10	1	-1E+10	1	-1E+10	1	-1E+10	1
4902663	4	C	09/13/2023	06:10	-127.988	48.978	0	1362.70	0	2.7130	0	34.4760	0	27.501	0	1346.736	0	17.0	4	5.2	4	-1E+10	1	-1E+10	1	-1E+10	1	-1E+10	1	-1E+10	1	-1E+10	1
4902663	4	C	09/13/2023	06:10	-127.988	48.978	0	1387.60	0	2.6710	0	34.4820	0	27.509	0	1371.264	0	18.1	4	5.5	4	-1E+10	1	-1E+10	1	-1E+10	1	-1E+10	1	-1E+10	1	-1E+10	1
4902663	4	C	09/13/2023	06:10	-127.988	48.978	0	1412.80	0	2.6330	0	34.4880	0	27.517	0	1396.084	0	19.2	4	5.9	4	-1E+10	1	-1E+10	1	-1E+10	1	-1E+10	1	-1E+10	1	-1E+10	1
4902663	4	C	09/13/2023	06:10	-127.988	48.978	0	1437.90	0	2.5900	0	34.4940	0	27.526	0	1420.802	0	20.3	4	6.2	4	-1E+10	1	-1E+10	1	-1E+10	1	-1E+10	1	-1E+10	1	-1E+10	1
4902663	4	C	09/13/2023	06:10	-127.988	48.978	0	1462.60	0	2.5420	0	34.4970	0	27.533	0	1445.124	0	21.1	4	6.5	4	-1E+10	1	-1E+10	1	-1E+10	1	-1E+10	1	-1E+10	1	-1E+10	1
4902663	4	C	09/13/2023	06:10	-127.988	48.978	0	1487.80	0	2.5040	0	34.5020	0	27.540	0	1469.935	0	22.5	4	6.9	4	-1E+10	1	-1E+10	1	-1E+10	1	-1E+10	1	-1E+10	1	-1E+10	1
4902663	4	C	09/13/2023	06:10	-127.988	48.978	0	1512.70	0	2.4690	0	34.5070	0	27.547	0	1494.448	0	23.7	4	7.2	4	-1E+10	1	-1E+10	1	-1E+10	1	-1E+10	1	-1E+10	1	-1E+10	1
4902663	4	C	09/13/2023	06:10	-127.988	48.978	0	1537.60	0	2.4350	0	34.5120	0	27.554	0	1518.959	0	25.4	4	7.7	4	-1E+10	1	-1E+10	1	-1E+10	1	-1E+10	1	-1E+10	1	-1E+10	1
4902663	4	C	09/13/2023	06:10	-127.988	48.978	0	1562.60	0	2.4040	0	34.5190	0	27.562	0	1543.564	0	26.9	4	8.2	4	-1E+10	1	-1E+10	1	-1E+10	1	-1E+10	1	-1E+10	1	-1E+10	1
4902663	4	C	09/13/2023	06:10	-127.988	48.978	0	1588.20	0	2.3770	0	34.5220	0	27.567	0	1568.758	0	28.0	4	8.5	4	-1E+10	1	-1E+10	1	-1E+10	1	-1E+10	1	-1E+10	1	-1E+10	1
4902663	4	C	09/13/2023	06:10	-127.988	48.978	0	1612.70	0	2.3430	0	34.5260	0	27.573	0	1592.866	0	29.4	4	8.9	4	-1E+10	1	-1E+10	1	-1E+10	1	-1E+10	1	-1E+10	1	-1E+10	1
4902663	4	C	09/13/2023	06:10	-127.988	48.978	0	1638.00	0	2.3060	0	34.5310	0	27.580	0	1617.758	0	31.0	4	9.4	4	-1E+10	1	-1E+10	1	-1E+10	1	-1E+10	1	-1E+10	1	-1E+10	1
4902663	4	C	09/13/2023	06:10	-127.988	48.978	0	1663.20	0	2.2720	0	34.5350	0	27.586	0	1642.549	0	32.6	4	9.9	4	-1E+10	1	-1E+10	1	-1E+10	1	-1E+10	1	-1E+10	1	-1E+10	1
4902663	4	C	09/13/2023	06:10	-127.988	48.978	0	1688.10	0	2.2400	0	34.5400	0	27.593	0	1667.042	0	34.1	4	10.3	4	-1E+10	1	-1E+10	1	-1E+10	1	-1E+10	1	-1E+10	1	-1E+10	1
4902663	4	C	09/13/2023	06:10	-127.988	48.978	0	1713.00	0	2.2120	0	34.5440	0	27.599	0	1691.532	0	35.6	4	10.8	4	-1E+10	1	-1E+10	1	-1E+10	1	-1E+10	1	-1E+10	1	-1E+10	1
4902663	4	C	09/13/2023	06:10	-127.988	48.978	0	1738.00	0	2.1840	0	34.5490	0	27.605	0	1716.118	0	37.1	4	11.2	4	-1E+10	1	-1E+10	1	-1E+10	1	-1E+10	1	-1E+10	1	-1E+10	1
4902663	4	C	09/13/2023	06:10	-127.988	48.978	0	1762.70	0	2.1590	0	34.5530	0	27.610	0	1740.405	0	38.6	4	11.7	4	-1E+10	1	-1E+10	1	-1E+10	1	-1E+10	1	-1E+10	1	-1E+10	1
4902663	4	C	09/13/2023	06:10	-127.988	48.978	0	1787.30	0	2.1400	0	34.5560	0	27.614	0	1764.592	0	39.8	4	12.0	4	-1E+10	1	-1E+10	1	-1E+10	1	-1E+10	1	-1E+10	1	-1E+10	1
4902663	4	C	09/13/2023	06:10	-127.988	48.978	0	1813.60	0	2.1220	0	34.5590	0	27.618	0	1790.447	0	41.0	4	12.4	4	-1E+10	1	-1E+10	1	-1E+10	1	-1E+10	1	-1E+10	1	-1E+10	1
4902663	4	C	09/13/2023	06:10	-127.988	48.978	0	1838.00	0	2.1040	0	34.5620	0	27.622	0	1814.432	0	42.2	4	12.7	4	-1E+10	1	-1E+10	1	-1E+10	1	-1E+10	1	-1E+10	1	-1E+10	1
4902663	4	C	09/13/2023	06:10	-127.988	48.978	0	1863.10	0	2.0870	0	34.5640	0	27.625	0	1839.101	0	43.4	4	13.1	4	-1E+10	1	-1E+10	1	-1E+10	1	-1E+10	1	-1E+10	1	-1E+10	1
4902663	4	C	09/13/2023	06:10	-127.988	48.978	0	1888.00	0	2.0700	0	34.5670	0	27.629	0	1863.571	0	44.6	4	13.5	4	-1E+10	1	-1E+10	1	-1E+10	1	-1E+10	1	-1E+10	1	-1E+10	1
4902663	4	C	09/13/2023	06:10	-127.988	48.978	0	1912.80	0	2.0510	0	34.5720	0	27.635	0	1887.941	0	46.2	4	13.9	4	-1E+10	1	-1E+10	1	-1E+10	1	-1E+10	1	-1E+10	1	-1E+10	1
4902663	4	C	09/13/2023	06:10	-127.988	48.978	0	1937.70	0	2.0310	0	34.5750	0	27.639	0	1912.405	0	47.5	4	14.3	4	-1E+10	1	-1E+10	1	-1E+10	1	-1E+10	1	-1E+10	1	-1E+10	1
4902663	4	C	09/13/2023	06:10	-127.988	48.978	0	1963.00	0	2.0140	0	34.5770	0	27.642	0	1937.260	0	48.7	4	14.7	4	-1E+10	1	-1E+10	1	-1E+10	1	-1E+10	1	-1E+10	1	-1E+10	1
4902663	4	C	09/13/2023	06:10	-127.988	48.978	0	1988.00	0	2.0010	0	34.5810	0	27.647	0	1961.817	0	49.9	4	15.0	4	-1E+10	1	-1E+10	1	-1E+10	1	-1E+10	1	-1E+10	1	-1E+10	1
4902663	4	C	09/13/2023	06:10	-127.988	48.978	0	2010.60	0	1.9840	0	34.5840	0	27.650	0	1984.014	0	50.9	4	15.3	4	-1E+10	1	-1E+10	1	-1E+10	1	-1E+10	1	-1E+10	1	-1E+10	1
4902663	4	C	09/13/2023	06:10	-127.988	48.978	0																										
4902663	5	C	09/23/2023	06:08	-127.970	48.981	0	0.00	0	16.3180	0	32.1380	0	23.476	0	0.000	0	239.3	4	97.2	4	-1E+10	1	-1E+10	1	-1E+10	1	-1E+10	1	-1E+10	1	-1E+10	1
4902663	5	C	09/23/2023	06:08	-127.970	48.981	0	0.10	0	16.3300	0	32.1620	0	23.492	0	0.099	0	238.9	4	97.0	4	-1E+10	1	-1E+10	1	-1E+10	1	-1E+10	1	-1E+10	1	-1E+10	1
4902663	5	C	09/23/2023	06:08	-127.970	48.981	0	0.80	0	16.3280	0	32.1570	0	23.489	0	0.793	0	238.9	4	97.0	4	-1E+10	1	-1E+10	1	-1E+10	1	-1E+10	1	-1E+10	1	-1E+10	1
4902663	5	C	09/23/2023	06:08	-127.970	48.981	0	1.80	0	16.3260	0	32.1650	0	23.495	0	1.785	0	239.0	4	97.1	4	-1E+10	1	-1E+10	1	-1E+10	1	-1E+10	1	-1E+10	1	-1E+10	1
4902663	5	C	09/23/2023	06:08	-127.970	48.981	0	3.00	0	16.3270	0	32.1670	0	23.497	0	2.975	0	239.0	4	97.1	4	-1E+10	1	-1E+10	1	-1E+10	1	-1E+10	1	-1E+10	1	-1E+10	1
4902663	5	C	09/23/2023	06:08	-127.970	48.981	0	3.80	0	16.3310	0	32.1640	0	23.494	0	3.768	0	239.0	4	97.1	4	-1E+10	1	-1E+10	1	-1E+10	1	-1E+10	1	-1E+10	1	-1E+10	1
4902663	5	C	09/23/2023	06:08	-127.970	48.981	0	4.90	0	16.3260	0	32.1690	0	23.499	0	4.858	0	238.9	4	97.0	4	-1E+10	1	-1E+10	1	-1E+10	1	-1E+10	1	-1E+10	1	-1E+10	1
4902663	5	C	09/23/2023	06:08	-127.970	48.981	0	6.20	0	16.3280	0	32.1710	0	23.500	0	6.147	0	238.9	4	97.0	4	-1E+10	1	-1E+10	1	-1E+10	1	-1E+10	1	-1E+10	1	-1E+10	1
4902663	5	C	09/23/2023	06:08	-127.970	48.981	0	7.10	0	16.3130	0	32.1660	0	23.499	0	7.040	0	238.9	4	97.0	4	-1E+10	1	-1E+10	1	-1E+10	1	-1E+10	1	-1E+10	1	-1E+10	1
4902663	5	C	09/23/2023	06:08	-127.970	48.981	0	8.00	0	16.3250	0	32.1700	0	23.500	0	7.932	0	238.9	4	97.0	4	-1E+10	1	-1E+10	1	-1E+10	1	-1E+10	1	-1E+10	1	-1E+10	1
4902663	5	C	09/23/2023	06:08	-127.970	48.981	0	9.00	0	16.3250	0	32.1710	0	23.501	0	8.923	0	238.9	4	97.0	4	-1E+10	1	-1E+10	1	-1E+10	1	-1E+10	1	-1E+10	1	-1E+10	1
4902663	5	C	09/23/2023	06:08	-127.970	48.981	0	9.90	0	16.3290	0	32.1690	0	23.498	0	9.816	0	238.9	4	97.0	4	-1E+10	1	-1E+10	1	-1E+10	1	-1E+10	1	-1E+10	1	-1E+10	1
4902663	5	C	09/23/2023	06:08	-127.970	48.981	0	15.20	0	16.2540	0	32.1570	0	23.506	0	15.071	0	239.5	4	97.1	4	-1E+10	1	-1E+10	1	-1E+10	1	-1E+10	1	-1E+10	1	-1E+10	1
4902663	5	C	09/23/2023	06:08	-127.970	48.981	0	25.70	0	16.1540	0	32.1440	0	23.519	0	25.480	0	242.5	4	98.1	4	-1E+10	1	-1E+10	1	-1E+10	1	-1E+10	1	-1E+10	1	-1E+10	1
4902663	5	C	09/23/2023	06:08	-127.970	48.981	0	35.30	0	14.4470	0	32.2270	0	23.954	0	34.998	0	262.6	4	102.8	4	-1E+10	1	-1E+10	1	-1E+10	1	-1E+10	1	-1E+10	1	-1E+10	1
4902663	5	C	09/23/2023	06:08	-127.970	48.981	0	45.10	0	10.4590	0	32.3540	0	24.811	0	44.713	0	270.1	4	97.5	4	-1E+10	1	-1E+10	1	-1E+10	1	-1E+10	1	-1E+10	1	-1E+10	1
4902663	5	C	09/23/2023	06:08	-127.970	48.981	0	55.40	0	8.8020	0	32.3690	0	25.090	0	54.923	0	273.2	4	95.1	4	-1E+10	1	-1E+10	1	-1E+10	1	-1E+10	1	-1E+10	1	-1E+10	1
4902663	5	C	09/23/2023	06:08	-127.970	48.981	0	65.80	0	7.9730	0	32.3770	0	25.219	0	65.232	0	264.3	4	90.3	4	-1E+10	1	-1E+10	1	-1E+10	1	-1E+10	1	-1E+10	1	-1E+10	1
4902663	5	C	09/23/2023	06:08	-127.970	48.981	0	75.50	0	7.7750	0	32.4540	0	25.308	0	74.846	0	242.2	4	82.4	4	-1E+10	1	-1E+10	1	-1E+10	1	-1E+10	1	-1E+10	1	-1E+10	1
4902663	5	C	09/23/2023	06:08	-127.970	48.981	0	85.50	0	7.6700	0	32.7210	0	25.533	0	84.757	0	210.2	4	71.5	4	-1E+10	1	-1E+10	1	-1E+10	1	-1E+10	1	-1E+10	1	-1E+10	1
4902663	5	C	09/23/2023	06:08	-127.970	48.981	0	95.40	0	7.5920	0	33.0360	0	25.792	0	94.569	0	185.0	4	63.0	4	-1E+10	1	-1E+10	1	-1E+10	1	-1E+10	1	-1E+10	1	-1E+10	1
4902663	5	C	09/23/2023	06:08	-127.970	48.981	0	105.70	0	7.5000	0	33.2200	0	25.949	0	104.777	0	168.8	4	57.4	4	-1E+10	1	-1E+10	1	-1E+10	1	-1E+10	1	-1E+10	1	-1E+10	1
4902663	5	C	09/23/2023	06:08	-127.970	48.981	0	115.70	0	7.4390	0	33.4110	0	26.108	0	114.687	0	151.4	4	51.5	4	-1E+10	1	-1E+10	1	-1E+10	1	-1E+10	1	-1E+10	1	-1E+10	1
4902663	5	C	09/23/2023	06:08	-127.970	48.981	0	125.40	0	7.3690	0	33.6150	0	26.279	0	124.299	0	139.1	4	47.3	4	-1E+10	1	-1E+10	1	-1E+10	1	-1E+10	1	-1E+10	1	-1E+10	1
4902663	5	C	09/23/2023	06:08	-127.970	48.981	0	135.10	0	7.2980	0	33.6870	0	26.345	0	133.910	0	135.0	4	45.9	4	-1E+10	1	-1E+10	1	-1E+10	1	-1E+10	1	-1E+10	1	-1E+10	1
4902663	5	C	09/23/2023	06:08	-127.970	48.981	0	145.10	0	7.2080	0	33.7470	0	26.405	0	143.819	0	129.6	4	44.0	4	-1E+10	1	-1E+10	1	-1E+10	1	-1E+10	1	-1E+10	1	-1E+10	1
4902663	5	C	09/23/2023	06:08	-127.970	48.981	0	155.10	0	7.1410	0	33.7910	0	26.449	0	153.727	0	123.0	4	41.7	4	-1E+10	1	-1E+10	1	-1E+10	1	-1E+10	1	-1E+10	1	-1E+10	1
4902663	5	C	09/23/2023	06:08	-127.970	48.981	0	165.20	0	7.0360	0	33.8270	0	26.492	0	163.733	0	117.9	4	39.9	4	-1E+10	1	-1E+10	1	-1E+10	1	-1E+10	1	-1E+10	1	-1E+10	1
4902663	5	C	09/23/2023	06:08	-127.970	48.981	0	175.10	0	6.9270	0	33.8460	0	26.522	0	173.541	0	114.3	4	38.6	4	-1E+10	1	-1E+10	1	-1E+10	1	-1E+10	1	-1E+10	1	-1E+10	1
4902663	5	C	09/23/2023	06:08	-127.970	48.981	0	185.30	0	6.8360	0	33.8590	0	26.545	0	183.646	0	110.4	4	37.2	4	-1E+10	1	-1E+10	1	-1E+10	1	-1E+10	1	-1E+10	1	-1E+10	1
4902663	5	C	09/23/2023	06:08	-127.970	48.981	0	195.30	0	6.7440	0	33.8700	0	26.566	0	193.552	0	106.9	4	35.9	4	-1E+10	1	-1E+10	1	-1E+10	1	-1E+10	1	-1E+10	1	-1E+10	1
4902663	5	C	09/23/2023	06:08	-127.970	48.981	0	212.60	0	6.5670	0	33.8830	0	26.600	0	210.689	0	99.9	4	33.4	4	-1E+10	1	-1E+10	1	-1E+10	1	-1E+10	1	-1E+10	1	-1E+10	1
4902663	5	C	09/23/2023	06:08	-127.970	48.981	0	237.60	0	6.3790	0	33.9090	0	26.645	0	235.450	0	87.6	4	29.2	4	-1E+10	1	-1E+10	1	-1E+10	1	-1E+10	1	-1E+10	1	-1E+10	1
4902663	5	C	09/23/2023	06:08	-127.970	48.981	0	262.30	0	6.2150	0	33.9420	0	26.692	0	259.910	0	75.8	4	25.2	4	-1E+10	1	-1E+10	1	-1E+10	1	-1E+10	1	-1E+10	1	-1E+10	1
4902663	5	C	09/23/2023	06:08	-127.970	48.981	0	287.70	0	6.0670	0	33.9720	0	26.735	0	285.062	0	67.4	4	22.3	4	-1E+10	1	-1E+10	1	-1E+10	1	-1E+10	1	-1E+10	1	-1E+10	1
4902663	5	C	09/23/2023	06:08	-127.970	48.981	0	313.60	0	5.7800	0	33.9760	0	26.774	0	310.705	0	62.7	4	20.6	4	-1E+10	1	-1E+10	1	-1E+10	1	-1E+10	1	-1E+10	1	-1E+10	1
4902663	5	C	09/23/2023	06:08	-127.970	48.981	0	337.70	0	5.5770	0	33.9880	0	26.809	0	334.563	0	55.1	4	18.0	4	-1E+10	1	-1E+10	1	-1E+10	1	-1E+10	1	-1E+10	1	-1E+10	1
4902663	5	C	09/23/2023	06:08	-127.970	48.981	0	363.00	0	5.4290	0	34.0120	0	26.846	0	359.606	0	48.5	4	15.8	4	-1E+10	1	-1E+10	1	-1E+10	1	-1E+10	1	-1E+10	1	-1E+10	1
4902663	5	C	09/23/2023	06:08	-127.970	48.981	0	387.90	0	5.4120	0	34.0340	0	26.865	0	384.250	0	43.7	4	14.2	4	-1E+10	1	-1E+10	1	-1E+10	1	-1E+10	1	-1E+10	1	-1E+10	1
4902663	5	C	09/23/2023	06:08	-127.970	48.981	0	412.60	0	5.2330	0	34.0420	0	26.893	0	408.693	0	39.8	4	12.9	4	-1E+10	1	-1E+10	1	-1E+10	1	-1E+10	1	-1E+10	1	-1E+10	1
4902663	5	C	09/23/2023	06:08	-127.970	48.981	0	437.60	0	5.1290	0	34.0630	0	26.922	0	433.430	0	34.6	4	11.2	4	-1E+10	1	-1E+10	1	-1E+10	1	-1E+10	1	-1E+10	1	-1E+10	1
4902663	5	C	09/23/2023	06:08	-127.970	48.981	0	463.20	0	5.1270	0	34.0920	0	26.945	0	458.758	0	28.9	4	9.4	4	-1E+10	1	-1E+10	1	-1E+10	1	-1E+10	1	-1E+10	1	-1E+10	1
4902663	5	C	09/23/2023	06:08	-127.970	48.981	0	488.00	0	5.0570	0	34.1220	0	26.977	0	483.291	0	23.6	4	7.6	4	-1E+10	1	-1E+10	1	-1E+10	1	-1E+10	1	-1E+10	1	-1E+10	1
4902663	5	C	09/23/2023	06:08	-127.970	48.981	0	512.60	0	4.9400	0	34.1420	0	27.007	0	507.624	0	20.1	4	6.5	4	-1E+10	1	-1E+10	1	-1E+10	1	-1E+10	1	-1E+10	1	-1E+10	1
4902663	5	C	09/23/2023	06:08	-127.970	48.981	0	538.50	0	4.8060	0	34.1560	0	27.033	0	533.239	0	17.6	4	5.7	4	-1E+10	1	-1E+10	1	-1E+10	1	-1E+10	1	-1E+10	1	-1E+10	1
4902663	5	C	09/23/2023	06:08	-127.970	48.981	0	562.40	0	4.7470	0	34.1710	0	27.052	0	556.874	0	15.6	4	5.0	4	-1E+10	1	-1E+10	1	-1E+10	1	-1E+10	1	-1E+10	1	-1E+10	1
4902663	5	C	09/23/2023	06:08	-127.970	48.981	0	587.50	0	4.6280	0	34.1880	0	27.078	0	581.692	0	13.4	4	4.3	4	-1E+10	1	-1E+10	1	-1E+10	1	-1E+10	1	-1E+10	1	-1E+10	1
4902663	5	C	09/23/2023	06:08	-127.970	48.981	0	612.60	0	4.5420	0	34.2010	0	27.098	0	606.507	0	12.2	4	3.9	4	-1E+10	1	-1E+10	1	-1E+10	1	-1E+10	1	-1E+10	1	-1E+10	1
4902663	5	C	09/23/2023	06:08	-127.970	48.981	0	637.70	0	4.4500	0	34.2120	0	27.117	0	631.320	0	10.8	4	3.4	4	-1E+10	1	-1E+10	1	-1E+10	1	-1E+10	1	-1E+10	1	-1E+10	1
4902663	5	C	09/23/2023	06:08	-127.970	48.981	0	662.80	0	4.3830	0	34.2360	0	27.144	0	656.129	0	9.6	4	3.1	4	-1E+10	1	-1E+10	1	-1E+10	1	-1E+10	1	-1E+10	1	-1E+10	1
4902663	5	C	09/23/2023	06:08	-127.970	48.981	0	687.90	0	4.2830	0	34.2400	0	27.158	0	680.936	0	9.2	4	2.9	4	-1E+10	1	-1E+10	1	-1E+10	1	-1E+10	1	-1E+10	1	-1E+10	1
4902663	5	C	09/23/2023	06:08	-127.970	48.981	0	712.90	0	4.2150	0	34.2480	0	27.171	0	705.640	0	8.6	4	2.7	4	-1E+10	1	-1E+10	1	-1E+10	1	-1E+10	1	-1E+10	1	-1E+10	1
4902663	5	C	09/23/2023	06:08	-127.970	48.981	0	738.00	0	4.1680	0	34.2640	0	27.189	0	730.441	0	7.9	4	2.5	4	-1E+10	1	-1E+10	1	-1E+10	1	-1E+10	1	-1E+10	1	-1E+10	1
4902663	5	C	09/23/2023	06:08	-127.970	48.981	0	762.70	0	4.1290	0	34.2800	0	27.206	0	754.843	0	7.4	4	2.4	4	-1E+10	1	-1E+10	1	-1E+10	1	-1E+10	1	-1E+10	1	-1E+10	1
4902663	5	C	09/23/2023	06:08	-127.970	48.981	0	787.70	0	4.0640	0	34.2940	0	27.224	0	779.539	0	7.1	4	2.3	4	-1E+10	1	-1E+10	1	-1E+10	1	-1E+10	1	-1E+10	1	-1E+10	1
4902663	5	C	09/23/2023	06:08	-127.970	48.981	0	813.80	0	3.9870	0	34.3070	0	27.242	0	805.318	0	7.0	4	2.2	4	-1E+10	1	-1E+10	1	-1E+10	1	-1E+10	1	-1E+10	1	-1E+10	1
4902663	5	C	09/23/2023	06:08	-127.970	48.981	0	838.00	0	3.8770	0	34.3160	0	27.261	0	829.218	0	7.2	4	2.3	4	-1E+10	1	-1E+10	1	-1E+10	1	-1E+10	1	-1E+10	1	-1E+10	1
4902663	5	C	09/23/2023	06:08	-127.970	48.981	0	863.10	0	3.7690	0	34.3220	0	27.277	0	854.004	0	7.5	4	2.3	4	-1E+10	1	-1E+10	1	-1E+10	1	-1E+10	1	-1E+10	1	-1E+10	1
4902663	5	C	09/23/2023	06:08	-127.970	48.981	0	888.20	0	3.6880	0	34.3330	0	27.294	0	878.786	0	7.5	4	2.4	4	-1E+10	1	-1E+10	1	-1E+10	1	-1E+10	1	-1E+10	1	-1E+10	1
4902663	5	C	09/23/2023	06:08	-127.970	48.981	0	912.90	0	3.6300	0	34.3470	0	27.311	0	903.171	0	7.5	4	2.4	4	-1E+10	1	-1E+10	1	-1E+10	1	-1E+10	1	-1E+10	1	-1E+10	1
4902663	5	C	09/23/2023	06:08	-127.970	48.981	0	937.90	0	3.5700	0	34.3580	0	27.325	0	927.850	0	7.7	4	2.4	4	-1E+10	1	-1E+10	1	-1E+10	1	-1E+10	1	-1E+10	1	-1E+10	1
4902663	5	C	09/23/2023	06:08	-127.970	48.981	0	963.20	0	3.5110	0	34.3690	0	27.340	0	952.821	0	7.9	4	2.5	4	-1E+10	1	-1E+10	1	-1E+10	1	-1E+10	1	-1E+10	1	-1E+10	1
4902663	5	C	09/23/2023	06:08	-127.970	48.981	0	988.30	0	3.4680	0	34.3770	0	27.351	0	977.592	0	8.1	4	2.5	4	-1E+10	1	-1E+10	1	-1E+10	1	-1E+10	1	-1E+10	1	-1E+10	1
4902663	5	C	09/23/2023	06:08	-127.970	48.981	0	1013.30	0	3.4140	0	34.3860	0	27.363	0	1002.261	0	8.5	4	2.6	4	-1E+10	1	-1E+10	1	-1E+10	1	-1E+10	1	-1E+10	1	-1E+10	1
4902663	5	C	09/23/2023	06:08	-127.970	48.981	0	1037.90	0	3.3590	0	34.3940	0	27.375	0	1026.533	0	8.8	4	2.8	4	-1E+10	1	-1E+10	1	-1E+10	1	-1E+10	1	-1E+10	1	-1E+10	1
4902663	5	C	09/23/2023	06:08	-127.970	48.981	0	1063.70	0	3.3020	0	34.4040	0	27.388	0	1051.986	0	9.3	4	2.9	4	-1E+10	1	-1E+10	1	-1E+10	1	-1E+10	1	-1E+10	1	-1E+10	1
4902663	5	C	09/23/2023	06:08	-127.970	48.981	0	1088.00	0	3.2470	0	34.4120	0	27.400	0	1075.956	0	9.8	4	3.0	4	-1E+10	1	-1E+10	1	-1E+10	1	-1E+10	1	-1E+10	1	-1E+10	1
4902663	5	C	09/23/2023	06:08	-127.970	48.981	0	1112.70	0	3.1880	0	34.4190	0	27.411	0	1100.318	0	10.2	4	3.2	4	-1E+10	1	-1E+10	1	-1E+10	1	-1E+10	1	-1E+10	1	-1E+10	1
4902663	5	C	09/23/2023	06:08	-127.970	48.981	0	1137.80	0	3.1290	0	34.4250	0	27.422	0	1125.071	0	10.7	4	3.3	4	-1E+10	1	-1E+10	1	-1E+10	1	-1E+10	1	-1E+10	1	-1E+10	1
4902663	5	C	09/23/2023	06:08	-127.970	48.981	0	1162.80	0	3.0580	0	34.4300	0	27.432	0	1149.723	0	11.3	4	3.5	4	-1E+10	1	-1E+10	1	-1E+10	1	-1E+10	1	-1E+10	1	-1E+10	1
4902663	5	C	09/23/2023	06:08	-127.970	48.981	0	1187.80	0	2.9970	0	34.4380	0	27.444	0	1174.372	0	12.0	4	3.7	4	-1E+10	1	-1E+10	1	-1E+10	1	-1E+10	1	-1E+10	1	-1E+10	1
4902663	5	C	09/23/2023	06:08	-127.970	48.981	0	1213.20	0	2.9550	0	34.4470	0	27.455	0	1199.413	0	13.0	4	4.0	4	-1E+10	1	-1E+10	1	-1E+10	1	-1E+10	1	-1E+10	1	-1E+10	1
4902663	5	C	09/23/2023	06:08	-127.970	48.981	0	1238.40	0	2.9310	0	34.4580	0	27.466	0	1224.253	0	14.1	4	4.4	4	-1E+10	1	-1E+10	1	-1E+10	1	-1E+10	1	-1E+10	1	-1E+10	1
4902663	5	C	09/23/2023	06:08	-127.970	48.981	0	1262.90	0	2.8660	0	34.4630	0	27.476	0	1248.401	0	15.1	4	4.6	4	-1E+10	1	-1E+10	1	-1E+10	1	-1E+10	1	-1E+10	1	-1E+10	1
4902663	5	C	09/23/2023	06:08	-127.970	48.981	0	1287.80	0	2.8670	0	34.4740	0	27.485	0	1272.939	0	16.5	4	5.1	4	-1E+10	1	-1E+10	1	-1E+10	1	-1E+10	1	-1E+10	1	-1E+10	1
4902663	5	C	09/23/2023	06:08	-127.970	48.981	0	1312.50	0	2.8240	0	34.4800	0	27.494	0	1297.278	0	17.7	4	5.5	4	-1E+10	1	-1E+10	1	-1E+10	1	-1E+10	1	-1E+10	1	-1E+10	1
4902663	5	C	09/23/2023	06:08	-127.970	48.981	0	1337.60	0	2.7920	0	34.4860	0	27.502	0	1322.009	0	18.6	4	5.7	4	-1E+10	1	-1E+10	1	-1E+10	1	-1E+10	1	-1E+10	1	-1E+10	1
4902663	5	C	09/23/2023	06:08	-127.970	48.981	0	1362.70	0	2.7430	0	34.4890	0	27.508	0	1346.736	0	19.4	4	6.0	4	-1E+10	1	-1E+10	1	-1E+10	1	-1E+10	1	-1E+10	1	-1E+10	1
4902663	5	C	09/23/2023	06:08	-127.970	48.981	0	1387.90	0	2.6800	0	34.4920	0	27.516	0	1371.559	0	20.4	4	6.2	4	-1E+10	1	-1E+10	1	-1E+10	1	-1E+10	1	-1E+10	1	-1E+10	1
4902663	5	C	09/23/2023	06:08	-127.970	48.981	0	1413.00	0	2.6400	0	34.4970	0	27.524	0	1396.280	0	21.5	4	6.6	4	-1E+10	1	-1E+10	1	-1E+10	1	-1E+10	1	-1E+10	1	-1E+10	1
4902663	5	C	09/23/2023	06:08	-127.970	48.981	0	1437.90	0	2.6040	0	34.5010	0	27.530	0	1420.802	0	22.6	4	6.9	4	-1E+10	1	-1E+10	1	-1E+10	1	-1E+10	1	-1E+10	1	-1E+10	1
4902663	5	C	09/23/2023	06:08	-127.970	48.981	0	1463.10	0	2.5690	0	34.5050	0	27.537	0	1445.616	0	23.6	4	7.2	4	-1E+10	1	-1E+10	1	-1E+10	1	-1E+10	1	-1E+10	1	-1E+10	1
4902663	5	C	09/23/2023	06:08	-127.970	48.981	0	1487.80	0	2.5280	0	34.5090	0	27.544	0	1469.935	0	24.8	4	7.6	4	-1E+10	1	-1E+10	1	-1E+10	1	-1E+10	1	-1E+10	1	-1E+10	1
4902663	5	C	09/23/2023	06:08	-127.970	48.981	0	1512.80	0	2.4870	0	34.5130	0	27.550	0	1494.546	0	25.9	4	7.9	4	-1E+10	1	-1E+10	1	-1E+10	1	-1E+10	1	-1E+10	1	-1E+10	1
4902663	5	C	09/23/2023	06:08	-127.970	48.981	0	1537.60	0	2.4500	0	34.5170	0	27.557	0	1518.958	0	27.0	4	8.2	4	-1E+10	1	-1E+10	1	-1E+10	1	-1E+10	1	-1E+10	1	-1E+10	1
4902663	5	C	09/23/2023	06:08	-127.970	48.981	0	1563.10	0	2.4220	0	34.5210	0	27.562	0	1544.056	0	28.1	4	8.6	4	-1E+10	1	-1E+10	1	-1E+10	1	-1E+10	1	-1E+10	1	-1E+10	1
4902663	5	C	09/23/2023	06:08	-127.970	48.981	0	1588.00	0	2.3790	0	34.5240	0	27.568	0	1568.560	0	29.1	4	8.9	4	-1E+10	1	-1E+10	1	-1E+10	1	-1E+10	1	-1E+10	1	-1E+10	1
4902663	5	C	09/23/2023	06:08	-127.970	48.981	0	1613.50	0	2.3390	0	34.5280	0	27.575	0	1593.652	0	30.5	4	9.3	4	-1E+10	1	-1E+10	1	-1E+10	1	-1E+10	1	-1E+10	1	-1E+10	1
4902663	5	C	09/23/2023	06:08	-127.970	48.981	0	1637.80	0	2.3050	0	34.5320	0	27.581	0	1617.561	0	31.8	4	9.7	4	-1E+10	1	-1E+10	1	-1E+10	1	-1E+10	1	-1E+10	1	-1E+10	1
4902663	5	C	09/23/2023	06:08	-127.970	48.981	0	1662.90	0	2.2760	0	34.5360	0	27.587	0	1642.253	0	33.2	4	10.1	4	-1E+10	1	-1E+10	1	-1E+10	1	-1E+10	1	-1E+10	1	-1E+10	1
4902663	5	C	09/23/2023	06:08	-127.970	48.981	0	1687.90	0	2.2480	0	34.5410	0	27.593	0	1666.845	0	34.8	4	10.5	4	-1E+10	1	-1E+10	1	-1E+10	1	-1E+10	1	-1E+10	1	-1E+10	1
4902663	5	C	09/23/2023	06:08	-127.970	48.981	0	1712.70	0	2.2220	0	34.5450	0	27.599	0	1691.236	0	36.1	4	10.9	4	-1E+10	1	-1E+10	1	-1E+10	1	-1E+10	1	-1E+10	1	-1E+10	1
4902663	5	C	09/23/2023	06:08	-127.970	48.981	0	1737.80	0	2.1960	0	34.5480	0	27.603	0	1715.920	0	37.4	4	11.3	4	-1E+10	1	-1E+10	1	-1E+10	1	-1E+10	1	-1E+10	1	-1E+10	1
4902663	5	C	09/23/2023	06:08	-127.970	48.981	0	1762.80	0	2.1730	0	34.5520	0	27.609	0	1740.503	0	38.5	4	11.7	4	-1E+10	1	-1E+10	1	-1E+10	1	-1E+10	1	-1E+10	1	-1E+10	1
4902663	5	C	09/23/2023	06:08	-127.970	48.981	0	1787.60	0	2.1520	0	34.5550	0	27.613	0	1764.886	0	39.5	4	12.0	4	-1E+10	1	-1E+10	1	-1E+10	1	-1E+10	1	-1E+10	1	-1E+10	1
4902663	5	C	09/23/2023	06:08	-127.970	48.981	0	1812.90	0	2.1300	0	34.5580	0	27.617	0	1789.758	0	41.1	4	12.4	4	-1E+10	1	-1E+10	1	-1E+10	1	-1E+10	1	-1E+10	1	-1E+10	1
4902663	5	C	09/23/2023	06:08	-127.970	48.981	0	1838.30	0	2.1050	0	34.5620	0	27.622	0	1814.726	0	42.5	4	12.8	4	-1E+10	1	-1E+10	1	-1E+10	1	-1E+10	1	-1E+10	1	-1E+10	1
4902663	5	C	09/23/2023	06:08	-127.970	48.981	0	1863.30	0	2.0860	0	34.5650	0	27.626	0	1839.297	0	43.7	4	13.2	4	-1E+10	1	-1E+10	1	-1E+10	1	-1E+10	1	-1E+10	1	-1E+10	1
4902663	5	C	09/23/2023	06:08	-127.970	48.981	0	1888.00	0	2.0630	0	34.5690	0	27.631	0	1863.571	0	45.2	4	13.7	4	-1E+10	1	-1E+10	1	-1E+10	1	-1E+10	1	-1E+10	1	-1E+10	1
4902663	5	C	09/23/2023	06:08	-127.970	48.981	0	1913.00	0	2.0420	0	34.5730	0	27.636	0	1888.136	0	46.7	4	14.1	4	-1E+10	1	-1E+10	1	-1E+10	1	-1E+10	1	-1E+10	1	-1E+10	1
4902663	5	C	09/23/2023	06:08	-127.970	48.981	0	1938.00	0	2.0230	0	34.5760	0	27.641	0	1912.699	0	48.1	4	14.5	4	-1E+10	1	-1E+10	1	-1E+10	1	-1E+10	1	-1E+10	1	-1E+10	1
4902663	5	C	09/23/2023	06:08	-127.970	48.981	0	1963.00	0	2.0030	0	34.5800	0	27.645	0	1937.259	0	49.6	4	15.0	4	-1E+10	1	-1E+10	1	-1E+10	1	-1E+10	1	-1E+10	1	-1E+10	1
4902663	5	C	09/23/2023	06:08	-127.970	48.981	0	1987.80	0	1.9830	0	34.5840	0	27.650	0	1961.620	0	51.0	4	15.4	4	-1E+10	1	-1E+10	1	-1E+10	1	-1E+10	1	-1E+10	1	-1E+10	1
4902663	5	C	09/23/2023	06:08	-127.970	48.981	0	2010.50	0	1.9660	0	34.5870	0	27.654	0	1983.915	0	51.7	4	15.6	4	-1E+10	1	-1E+10	1	-1E+10	1	-1E+10	1	-1E+10	1	-1E+10	1
4902663	5	C	09/23/2023	06:08	-127.970	48.981	0																										
4902663	6	C	10/03/2023	06:06	-127.943	48.934	0	0.30	0	14.6790	0	32.1080	0	23.813	0	0.297	0	250.0	4	98.3	4	-1E+10	1	-1E+10	1	-1E+10	1	-1E+10	1	-1E+10	1	-1E+10	1
4902663	6	C	10/03/2023	06:06	-127.943	48.934	0	0.40	0	14.6690	0	32.1020	0	23.810	0	0.397	0	243.6	4	95.7	4	-1E+10	1	-1E+10	1	-1E+10	1	-1E+10	1	-1E+10	1	-1E+10	1
4902663	6	C	10/03/2023	06:06	-127.943	48.934	0	1.00	0	14.6890	0	32.1340	0	23.830	0	0.992	0	243.4	4	95.7	4	-1E+10	1	-1E+10	1	-1E+10	1	-1E+10	1	-1E+10	1	-1E+10	1
4902663	6	C	10/03/2023	06:06	-127.943	48.934	0	2.30	0	14.6950	0	32.1310	0	23.827	0	2.280	0	243.4	4	95.7	4	-1E+10	1	-1E+10	1	-1E+10	1	-1E+10	1	-1E+10	1	-1E+10	1
4902663	6	C	10/03/2023	06:06	-127.943	48.934	0	3.40	0	14.6940	0	32.1320	0	23.828	0	3.371	0	243.3	4	95.7	4	-1E+10	1	-1E+10	1	-1E+10	1	-1E+10	1	-1E+10	1	-1E+10	1
4902663	6	C	10/03/2023	06:06	-127.943	48.934	0	4.50	0	14.6930	0	32.1330	0	23.829	0	4.462	0	243.3	4	95.7	4	-1E+10	1	-1E+10	1	-1E+10	1	-1E+10	1	-1E+10	1	-1E+10	1
4902663	6	C	10/03/2023	06:06	-127.943	48.934	0	5.70	0	14.6930	0	32.1330	0	23.829	0	5.652	0	243.1	4	95.6	4	-1E+10	1	-1E+10	1	-1E+10	1	-1E+10	1	-1E+10	1	-1E+10	1
4902663	6	C	10/03/2023	06:06	-127.943	48.934	0	6.70	0	14.6940	0	32.1330	0	23.829	0	6.643	0	243.1	4	95.6	4	-1E+10	1	-1E+10	1	-1E+10	1	-1E+10	1	-1E+10	1	-1E+10	1
4902663	6	C	10/03/2023	06:06	-127.943	48.934	0	7.70	0	14.6960	0	32.1330	0	23.828	0	7.635	0	243.1	4	95.6	4	-1E+10	1	-1E+10	1	-1E+10	1	-1E+10	1	-1E+10	1	-1E+10	1
4902663	6	C	10/03/2023	06:06	-127.943	48.934	0	8.90	0	14.6950	0	32.1330	0	23.829	0	8.824	0	243.0	4	95.6	4	-1E+10	1	-1E+10	1	-1E+10	1	-1E+10	1	-1E+10	1	-1E+10	1
4902663	6	C	10/03/2023	06:06	-127.943	48.934	0	10.10	0	14.6940	0	32.1340	0	23.830	0	10.014	0	242.9	4	95.5	4	-1E+10	1	-1E+10	1	-1E+10	1	-1E+10	1	-1E+10	1	-1E+10	1
4902663	6	C	10/03/2023	06:06	-127.943	48.934	0	15.30	0	14.6950	0	32.1330	0	23.829	0	15.170	0	242.6	4	95.4	4	-1E+10	1	-1E+10	1	-1E+10	1	-1E+10	1	-1E+10	1	-1E+10	1
4902663	6	C	10/03/2023	06:06	-127.943	48.934	0	25.60	0	14.6930	0	32.1380	0	23.833	0	25.381	0	241.8	4	95.1	4	-1E+10	1	-1E+10	1	-1E+10	1	-1E+10	1	-1E+10	1	-1E+10	1
4902663	6	C	10/03/2023	06:06	-127.943	48.934	0	35.60	0	13.9640	0	32.1860	0	24.022	0	35.295	0	247.6	4	96.0	4	-1E+10	1	-1E+10	1	-1E+10	1	-1E+10	1	-1E+10	1	-1E+10	1
4902663	6	C	10/03/2023	06:06	-127.943	48.934	0	45.60	0	9.7130	0	32.3640	0	24.943	0	45.208	0	261.2	4	92.7	4	-1E+10	1	-1E+10	1	-1E+10	1	-1E+10	1	-1E+10	1	-1E+10	1
4902663	6	C	10/03/2023	06:06	-127.943	48.934	0	55.30	0	8.7520	0	32.3760	0	25.103	0	54.824	0	254.8	4	88.6	4	-1E+10	1	-1E+10	1	-1E+10	1	-1E+10	1	-1E+10	1	-1E+10	1
4902663	6	C	10/03/2023	06:06	-127.943	48.934	0	65.40	0	8.1380	0	32.4300	0	25.237	0	64.835	0	242.0	4	83.0	4	-1E+10	1	-1E+10	1	-1E+10	1	-1E+10	1	-1E+10	1	-1E+10	1
4902663	6	C	10/03/2023	06:06	-127.943	48.934	0	74.90	0	7.8920	0	32.6570	0	25.451	0	74.252	0	201.2	4	68.8	4	-1E+10	1	-1E+10	1	-1E+10	1	-1E+10	1	-1E+10	1	-1E+10	1
4902663	6	C	10/03/2023	06:06	-127.943	48.934	0	85.50	0	7.7680	0	33.0380	0	25.768	0	84.758	0	167.0	4	57.1	4	-1E+10	1	-1E+10	1	-1E+10	1	-1E+10	1	-1E+10	1	-1E+10	1
4902663	6	C	10/03/2023	06:06	-127.943	48.934	0	95.50	0	7.6710	0	33.3380	0	26.018	0	94.669	0	144.7	4	49.5	4	-1E+10	1	-1E+10	1	-1E+10	1	-1E+10	1	-1E+10	1	-1E+10	1
4902663	6	C	10/03/2023	06:06	-127.943	48.934	0	105.70	0	7.6280	0	33.5200	0	26.167	0	104.777	0	130.1	4	44.5	4	-1E+10	1	-1E+10	1	-1E+10	1	-1E+10	1	-1E+10	1	-1E+10	1
4902663	6	C	10/03/2023	06:06	-127.943	48.934	0	115.70	0	7.5800	0	33.6430	0	26.271	0	114.687	0	125.1	4	42.8	4	-1E+10	1	-1E+10	1	-1E+10	1	-1E+10	1	-1E+10	1	-1E+10	1
4902663	6	C	10/03/2023	06:06	-127.943	48.934	0	125.70	0	7.4800	0	33.7150	0	26.342	0	124.597	0	123.8	4	42.3	4	-1E+10	1	-1E+10	1	-1E+10	1	-1E+10	1	-1E+10	1	-1E+10	1
4902663	6	C	10/03/2023	06:06	-127.943	48.934	0	135.30	0	7.3500	0	33.7580	0	26.394	0	134.109	0	126.2	4	42.9	4	-1E+10	1	-1E+10	1	-1E+10	1	-1E+10	1	-1E+10	1	-1E+10	1
4902663	6	C	10/03/2023	06:06	-127.943	48.934	0	145.20	0	7.1460	0	33.7840	0	26.443	0	143.919	0	124.2	4	42.1	4	-1E+10	1	-1E+10	1	-1E+10	1	-1E+10	1	-1E+10	1	-1E+10	1
4902663	6	C	10/03/2023	06:06	-127.943	48.934	0	155.50	0	7.0200	0	33.8150	0	26.485	0	154.124	0	119.6	4	40.4	4	-1E+10	1	-1E+10	1	-1E+10	1	-1E+10	1	-1E+10	1	-1E+10	1
4902663	6	C	10/03/2023	06:06	-127.943	48.934	0	165.60	0	6.9340	0	33.8400	0	26.516	0	164.130	0	116.7	4	39.4	4	-1E+10	1	-1E+10	1	-1E+10	1	-1E+10	1	-1E+10	1	-1E+10	1
4902663	6	C	10/03/2023	06:06	-127.943	48.934	0	175.50	0	6.8250	0	33.8450	0	26.535	0	173.938	0	115.0	4	38.7	4	-1E+10	1	-1E+10	1	-1E+10	1	-1E+10	1	-1E+10	1	-1E+10	1
4902663	6	C	10/03/2023	06:06	-127.943	48.934	0	185.50	0	6.6700	0	33.8530	0	26.562	0	183.845	0	113.8	4	38.2	4	-1E+10	1	-1E+10	1	-1E+10	1	-1E+10	1	-1E+10	1	-1E+10	1
4902663	6	C	10/03/2023	06:06	-127.943	48.934	0	195.70	0	6.5960	0	33.8600	0	26.578	0	193.949	0	107.2	4	35.9	4	-1E+10	1	-1E+10	1	-1E+10	1	-1E+10	1	-1E+10	1	-1E+10	1
4902663	6	C	10/03/2023	06:06	-127.943	48.934	0	213.20	0	6.4890	0	33.8840	0	26.611	0	211.284	0	98.4	4	32.9	4	-1E+10	1	-1E+10	1	-1E+10	1	-1E+10	1	-1E+10	1	-1E+10	1
4902663	6	C	10/03/2023	06:06	-127.943	48.934	0	238.00	0	6.2460	0	33.9050	0	26.659	0	235.847	0	88.3	4	29.4	4	-1E+10	1	-1E+10	1	-1E+10	1	-1E+10	1	-1E+10	1	-1E+10	1
4902663	6	C	10/03/2023	06:06	-127.943	48.934	0	263.80	0	6.0060	0	33.9180	0	26.700	0	261.397	0	80.9	4	26.7	4	-1E+10	1	-1E+10	1	-1E+10	1	-1E+10	1	-1E+10	1	-1E+10	1
4902663	6	C	10/03/2023	06:06	-127.943	48.934	0	287.90	0	5.7910	0	33.9330	0	26.739	0	285.261	0	73.4	4	24.1	4	-1E+10	1	-1E+10	1	-1E+10	1	-1E+10	1	-1E+10	1	-1E+10	1
4902663	6	C	10/03/2023	06:06	-127.943	48.934	0	312.40	0	5.6170	0	33.9600	0	26.781	0	309.518	0	62.0	4	20.3	4	-1E+10	1	-1E+10	1	-1E+10	1	-1E+10	1	-1E+10	1	-1E+10	1
4902663	6	C	10/03/2023	06:06	-127.943	48.934	0	337.90	0	5.6230	0	34.0050	0	26.817	0	334.762	0	51.7	4	16.9	4	-1E+10	1	-1E+10	1	-1E+10	1	-1E+10	1	-1E+10	1	-1E+10	1
4902663	6	C	10/03/2023	06:06	-127.943	48.934	0	363.10	0	5.4180	0	34.0130	0	26.848	0	359.706	0	47.7	4	15.6	4	-1E+10	1	-1E+10	1	-1E+10	1	-1E+10	1	-1E+10	1	-1E+10	1
4902663	6	C	10/03/2023	06:06	-127.943	48.934	0	387.90	0	5.1510	0	34.0120	0	26.878	0	384.251	0	44.8	4	14.5	4	-1E+10	1	-1E+10	1	-1E+10	1	-1E+10	1	-1E+10	1	-1E+10	1
4902663	6	C	10/03/2023	06:06	-127.943	48.934	0	413.10	0	5.1010	0	34.0300	0	26.899	0	409.190	0	39.5	4	12.8	4	-1E+10	1	-1E+10	1	-1E+10	1	-1E+10	1	-1E+10	1	-1E+10	1
4902663	6	C	10/03/2023	06:06	-127.943	48.934	0	437.70	0	5.1330	0	34.0670	0	26.924	0	433.531	0	33.1	4	10.7	4	-1E+10	1	-1E+10	1	-1E+10	1	-1E+10	1	-1E+10	1	-1E+10	1
4902663	6	C	10/03/2023	06:06	-127.943	48.934	0	463.60	0	5.0870	0	34.0930	0	26.951	0	459.156	0	28.7	4	9.3	4	-1E+10	1	-1E+10	1	-1E+10	1	-1E+10	1	-1E+10	1	-1E+10	1
4902663	6	C	10/03/2023	06:06	-127.943	48.934	0	487.90	0	5.0220	0	34.1220	0	26.981	0	483.195	0	23.4	4	7.6	4	-1E+10	1	-1E+10	1	-1E+10	1	-1E+10	1	-1E+10	1	-1E+10	1
4902663	6	C	10/03/2023	06:06	-127.943	48.934	0	513.00	0	4.9810	0	34.1550	0	27.012	0	508.022	0	19.4	4	6.3	4	-1E+10	1	-1E+10	1	-1E+10	1	-1E+10	1	-1E+10	1	-1E+10	1
4902663	6	C	10/03/2023	06:06	-127.943	48.934	0	537.70	0	4.8620	0	34.1630	0	27.032	0	532.451	0	17.4	4	5.6	4	-1E+10	1	-1E+10	1	-1E+10	1	-1E+10	1	-1E+10	1	-1E+10	1
4902663	6	C	10/03/2023	06:06	-127.943	48.934	0	562.70	0	4.7110	0	34.1690	0	27.054	0	557.173	0	15.6	4	5.0	4	-1E+10	1	-1E+10	1	-1E+10	1	-1E+10	1	-1E+10	1	-1E+10	1
4902663	6	C	10/03/2023	06:06	-127.943	48.934	0	587.80	0	4.5930	0	34.1770	0	27.073	0	581.991	0	14.0	4	4.5	4	-1E+10	1	-1E+10	1	-1E+10	1	-1E+10	1	-1E+10	1	-1E+10	1
4902663	6	C	10/03/2023	06:06	-127.943	48.934	0	613.00	0	4.5400	0	34.1980	0	27.096	0	606.906	0	12.1	4	3.9	4	-1E+10	1	-1E+10	1	-1E+10	1	-1E+10	1	-1E+10	1	-1E+10	1
4902663	6	C	10/03/2023	06:06	-127.943	48.934	0	638.00	0	4.4680	0	34.2180	0	27.120	0	631.619	0	10.6	4	3.4	4	-1E+10	1	-1E+10	1	-1E+10	1	-1E+10	1	-1E+10	1	-1E+10	1
4902663	6	C	10/03/2023	06:06	-127.943	48.934	0	662.80	0	4.4140	0	34.2350	0	27.139	0	656.132	0	9.6	4	3.1	4	-1E+10	1	-1E+10	1	-1E+10	1	-1E+10	1	-1E+10	1	-1E+10	1
4902663	6	C	10/03/2023	06:06	-127.943	48.934	0	687.90	0	4.3140	0	34.2450	0	27.158	0	680.939	0	9.0	4	2.9	4	-1E+10	1	-1E+10	1	-1E+10	1	-1E+10	1	-1E+10	1	-1E+10	1
4902663	6	C	10/03/2023	06:06	-127.943	48.934	0	713.70	0	4.2230	0	34.2520	0	27.174	0	706.434	0	8.5	4	2.7	4	-1E+10	1	-1E+10	1	-1E+10	1	-1E+10	1	-1E+10	1	-1E+10	1
4902663	6	C	10/03/2023	06:06	-127.943	48.934	0	737.80	0	4.1690	0	34.2670	0	27.191	0	730.246	0	7.8	4	2.5	4	-1E+10	1	-1E+10	1	-1E+10	1	-1E+10	1	-1E+10	1	-1E+10	1
4902663	6	C	10/03/2023	06:06	-127.943	48.934	0	762.70	0	4.1180	0	34.2800	0	27.207	0	754.846	0	7.4	4	2.4	4	-1E+10	1	-1E+10	1	-1E+10	1	-1E+10	1	-1E+10	1	-1E+10	1
4902663	6	C	10/03/2023	06:06	-127.943	48.934	0	787.60	0	4.0660	0	34.2900	0	27.221	0	779.443	0	7.2	4	2.3	4	-1E+10	1	-1E+10	1	-1E+10	1	-1E+10	1	-1E+10	1	-1E+10	1
4902663	6	C	10/03/2023	06:06	-127.943	48.934	0	812.60	0	3.9990	0	34.3030	0	27.238	0	804.136	0	7.0	4	2.2	4	-1E+10	1	-1E+10	1	-1E+10	1	-1E+10	1	-1E+10	1	-1E+10	1
4902663	6	C	10/03/2023	06:06	-127.943	48.934	0	837.70	0	3.8950	0	34.3150	0	27.258	0	828.925	0	7.0	4	2.2	4	-1E+10	1	-1E+10	1	-1E+10	1	-1E+10	1	-1E+10	1	-1E+10	1
4902663	6	C	10/03/2023	06:06	-127.943	48.934	0	862.60	0	3.8230	0	34.3220	0	27.271	0	853.514	0	7.2	4	2.3	4	-1E+10	1	-1E+10	1	-1E+10	1	-1E+10	1	-1E+10	1	-1E+10	1
4902663	6	C	10/03/2023	06:06	-127.943	48.934	0	887.70	0	3.7480	0	34.3270	0	27.283	0	878.297	0	7.4	4	2.3	4	-1E+10	1	-1E+10	1	-1E+10	1	-1E+10	1	-1E+10	1	-1E+10	1
4902663	6	C	10/03/2023	06:06	-127.943	48.934	0	912.90	0	3.6680	0	34.3400	0	27.301	0	903.175	0	7.5	4	2.3	4	-1E+10	1	-1E+10	1	-1E+10	1	-1E+10	1	-1E+10	1	-1E+10	1
4902663	6	C	10/03/2023	06:06	-127.943	48.934	0	937.80	0	3.6000	0	34.3520	0	27.318	0	927.755	0	7.6	4	2.4	4	-1E+10	1	-1E+10	1	-1E+10	1	-1E+10	1	-1E+10	1	-1E+10	1
4902663	6	C	10/03/2023	06:06	-127.943	48.934	0	962.60	0	3.5340	0	34.3640	0	27.334	0	952.233	0	7.8	4	2.5	4	-1E+10	1	-1E+10	1	-1E+10	1	-1E+10	1	-1E+10	1	-1E+10	1
4902663	6	C	10/03/2023	06:06	-127.943	48.934	0	987.60	0	3.4620	0	34.3770	0	27.351	0	976.905	0	8.2	4	2.5	4	-1E+10	1	-1E+10	1	-1E+10	1	-1E+10	1	-1E+10	1	-1E+10	1
4902663	6	C	10/03/2023	06:06	-127.943	48.934	0	1012.90	0	3.4040	0	34.3880	0	27.366	0	1001.871	0	8.5	4	2.7	4	-1E+10	1	-1E+10	1	-1E+10	1	-1E+10	1	-1E+10	1	-1E+10	1
4902663	6	C	10/03/2023	06:06	-127.943	48.934	0	1038.70	0	3.3470	0	34.3970	0	27.378	0	1027.327	0	8.9	4	2.8	4	-1E+10	1	-1E+10	1	-1E+10	1	-1E+10	1	-1E+10	1	-1E+10	1
4902663	6	C	10/03/2023	06:06	-127.943	48.934	0	1062.90	0	3.2920	0	34.4060	0	27.391	0	1051.201	0	9.3	4	2.9	4	-1E+10	1	-1E+10	1	-1E+10	1	-1E+10	1	-1E+10	1	-1E+10	1
4902663	6	C	10/03/2023	06:06	-127.943	48.934	0	1087.90	0	3.2350	0	34.4130	0	27.402	0	1075.862	0	9.8	4	3.0	4	-1E+10	1	-1E+10	1	-1E+10	1	-1E+10	1	-1E+10	1	-1E+10	1
4902663	6	C	10/03/2023	06:06	-127.943	48.934	0	1112.70	0	3.1890	0	34.4200	0	27.412	0	1100.323	0	10.2	4	3.2	4	-1E+10	1	-1E+10	1	-1E+10	1	-1E+10	1	-1E+10	1	-1E+10	1
4902663	6	C	10/03/2023	06:06	-127.943	48.934	0	1137.60	0	3.1430	0	34.4260	0	27.421	0	1124.879	0	10.7	4	3.3	4	-1E+10	1	-1E+10	1	-1E+10	1	-1E+10	1	-1E+10	1	-1E+10	1
4902663	6	C	10/03/2023	06:06	-127.943	48.934	0	1162.80	0	3.0920	0	34.4320	0	27.431	0	1149.728	0	11.2	4	3.5	4	-1E+10	1	-1E+10	1	-1E+10	1	-1E+10	1	-1E+10	1	-1E+10	1
4902663	6	C	10/03/2023	06:06	-127.943	48.934	0	1188.00	0	3.0370	0	34.4370	0	27.440	0	1174.575	0	11.6	4	3.6	4	-1E+10	1	-1E+10	1	-1E+10	1	-1E+10	1	-1E+10	1	-1E+10	1
4902663	6	C	10/03/2023	06:06	-127.943	48.934	0	1212.90	0	3.0010	0	34.4420	0	27.447	0	1199.122	0	12.2	4	3.8	4	-1E+10	1	-1E+10	1	-1E+10	1	-1E+10	1	-1E+10	1	-1E+10	1
4902663	6	C	10/03/2023	06:06	-127.943	48.934	0	1237.90	0	2.9610	0	34.4480	0	27.456	0	1223.766	0	12.8	4	3.9	4	-1E+10	1	-1E+10	1	-1E+10	1	-1E+10	1	-1E+10	1	-1E+10	1
4902663	6	C	10/03/2023	06:06	-127.943	48.934	0	1263.30	0	2.8990	0	34.4550	0	27.467	0	1248.800	0	13.7	4	4.2	4	-1E+10	1	-1E+10	1	-1E+10	1	-1E+10	1	-1E+10	1	-1E+10	1
4902663	6	C	10/03/2023	06:06	-127.943	48.934	0	1288.80	0	2.8460	0	34.4630	0	27.478	0	1273.930	0	14.6	4	4.5	4	-1E+10	1	-1E+10	1	-1E+10	1	-1E+10	1	-1E+10	1	-1E+10	1
4902663	6	C	10/03/2023	06:06	-127.943	48.934	0	1312.70	0	2.8000	0	34.4690	0	27.487	0	1297.481	0	15.6	4	4.8	4	-1E+10	1	-1E+10	1	-1E+10	1	-1E+10	1	-1E+10	1	-1E+10	1
4902663	6	C	10/03/2023	06:06	-127.943	48.934	0	1337.60	0	2.7520	0	34.4750	0	27.496	0	1322.014	0	16.5	4	5.1	4	-1E+10	1	-1E+10	1	-1E+10	1	-1E+10	1	-1E+10	1	-1E+10	1
4902663	6	C	10/03/2023	06:06	-127.943	48.934	0	1362.90	0	2.7170	0	34.4800	0	27.504	0	1346.939	0	17.7	4	5.4	4	-1E+10	1	-1E+10	1	-1E+10	1	-1E+10	1	-1E+10	1	-1E+10	1
4902663	6	C	10/03/2023	06:06	-127.943	48.934	0	1388.00	0	2.6700	0	34.4880	0	27.514	0	1371.663	0	19.2	4	5.9	4	-1E+10	1	-1E+10	1	-1E+10	1	-1E+10	1	-1E+10	1	-1E+10	1
4902663	6	C	10/03/2023	06:06	-127.943	48.934	0	1412.70	0	2.6190	0	34.4950	0	27.524	0	1395.991	0	20.8	4	6.4	4	-1E+10	1	-1E+10	1	-1E+10	1	-1E+10	1	-1E+10	1	-1E+10	1
4902663	6	C	10/03/2023	06:06	-127.943	48.934	0	1437.60	0	2.5820	0	34.5020	0	27.533	0	1420.513	0	22.6	4	6.9	4	-1E+10	1	-1E+10	1	-1E+10	1	-1E+10	1	-1E+10	1	-1E+10	1
4902663	6	C	10/03/2023	06:06	-127.943	48.934	0	1462.90	0	2.5570	0	34.5060	0	27.539	0	1445.425	0	23.5	4	7.2	4	-1E+10	1	-1E+10	1	-1E+10	1	-1E+10	1	-1E+10	1	-1E+10	1
4902663	6	C	10/03/2023	06:06	-127.943	48.934	0	1487.80	0	2.5240	0	34.5090	0	27.544	0	1469.941	0	24.3	4	7.4	4	-1E+10	1	-1E+10	1	-1E+10	1	-1E+10	1	-1E+10	1	-1E+10	1
4902663	6	C	10/03/2023	06:06	-127.943	48.934	0	1512.60	0	2.4860	0	34.5120	0	27.550	0	1494.356	0	25.5	4	7.8	4	-1E+10	1	-1E+10	1	-1E+10	1	-1E+10	1	-1E+10	1	-1E+10	1
4902663	6	C	10/03/2023	06:06	-127.943	48.934	0	1537.80	0	2.4460	0	34.5160	0	27.556	0	1519.162	0	26.6	4	8.1	4	-1E+10	1	-1E+10	1	-1E+10	1	-1E+10	1	-1E+10	1	-1E+10	1
4902663	6	C	10/03/2023	06:06	-127.943	48.934	0	1562.90	0	2.3970	0	34.5190	0	27.563	0	1543.866	0	27.7	4	8.4	4	-1E+10	1	-1E+10	1	-1E+10	1	-1E+10	1	-1E+10	1	-1E+10	1
4902663	6	C	10/03/2023	06:06	-127.943	48.934	0	1588.00	0	2.3730	0	34.5270	0	27.571	0	1568.567	0	29.9	4	9.1	4	-1E+10	1	-1E+10	1	-1E+10	1	-1E+10	1	-1E+10	1	-1E+10	1
4902663	6	C	10/03/2023	06:06	-127.943	48.934	0	1613.10	0	2.3360	0	34.5320	0	27.579	0	1593.266	0	31.4	4	9.5	4	-1E+10	1	-1E+10	1	-1E+10	1	-1E+10	1	-1E+10	1	-1E+10	1
4902663	6	C	10/03/2023	06:06	-127.943	48.934	0	1637.80	0	2.2950	0	34.5360	0	27.585	0	1617.568	0	33.0	4	10.0	4	-1E+10	1	-1E+10	1	-1E+10	1	-1E+10	1	-1E+10	1	-1E+10	1
4902663	6	C	10/03/2023	06:06	-127.943	48.934	0	1662.60	0	2.2510	0	34.5410	0	27.593	0	1641.965	0	34.7	4	10.5	4	-1E+10	1	-1E+10	1	-1E+10	1	-1E+10	1	-1E+10	1	-1E+10	1
4902663	6	C	10/03/2023	06:06	-127.943	48.934	0	1687.40	0	2.2140	0	34.5450	0	27.599	0	1666.360	0	35.9	4	10.9	4	-1E+10	1	-1E+10	1	-1E+10	1	-1E+10	1	-1E+10	1	-1E+10	1
4902663	6	C	10/03/2023	06:06	-127.943	48.934	0	1712.60	0	2.1850	0	34.5490	0	27.605	0	1691.145	0	37.2	4	11.3	4	-1E+10	1	-1E+10	1	-1E+10	1	-1E+10	1	-1E+10	1	-1E+10	1
4902663	6	C	10/03/2023	06:06	-127.943	48.934	0	1737.80	0	2.1610	0	34.5530	0	27.610	0	1715.928	0	39.0	4	11.8	4	-1E+10	1	-1E+10	1	-1E+10	1	-1E+10	1	-1E+10	1	-1E+10	1
4902663	6	C	10/03/2023	06:06	-127.943	48.934	0	1763.00	0	2.1320	0	34.5580	0	27.617	0	1740.707	0	40.4	4	12.2	4	-1E+10	1	-1E+10	1	-1E+10	1	-1E+10	1	-1E+10	1	-1E+10	1
4902663	6	C	10/03/2023	06:06	-127.943	48.934	0	1788.00	0	2.1080	0	34.5610	0	27.621	0	1765.287	0	41.8	4	12.6	4	-1E+10	1	-1E+10	1	-1E+10	1	-1E+10	1	-1E+10	1	-1E+10	1
4902663	6	C	10/03/2023	06:06	-127.943	48.934	0	1813.20	0	2.0880	0	34.5650	0	27.626	0	1790.061	0	43.1	4	13.0	4	-1E+10	1	-1E+10	1	-1E+10	1	-1E+10	1	-1E+10	1	-1E+10	1
4902663	6	C	10/03/2023	06:06	-127.943	48.934	0	1838.50	0	2.0710	0	34.5680	0	27.630	0	1814.930	0	44.4	4	13.4	4	-1E+10	1	-1E+10	1	-1E+10	1	-1E+10	1	-1E+10	1	-1E+10	1
4902663	6	C	10/03/2023	06:06	-127.943	48.934	0	1862.60	0	2.0540	0	34.5710	0	27.634	0	1838.617	0	45.5	4	13.7	4	-1E+10	1	-1E+10	1	-1E+10	1	-1E+10	1	-1E+10	1	-1E+10	1
4902663	6	C	10/03/2023	06:06	-127.943	48.934	0	1887.90	0	2.0390	0	34.5730	0	27.637	0	1863.481	0	46.8	4	14.1	4	-1E+10	1	-1E+10	1	-1E+10	1	-1E+10	1	-1E+10	1	-1E+10	1
4902663	6	C	10/03/2023	06:06	-127.943	48.934	0	1913.10	0	2.0280	0	34.5780	0	27.642	0	1888.243	0	48.0	4	14.5	4	-1E+10	1	-1E+10	1	-1E+10	1	-1E+10	1	-1E+10	1	-1E+10	1
4902663	6	C	10/03/2023	06:06	-127.943	48.934	0	1938.30	0	2.0110	0	34.5820	0	27.646	0	1913.002	0	49.7	4	15.0	4	-1E+10	1	-1E+10	1	-1E+10	1	-1E+10	1	-1E+10	1	-1E+10	1
4902663	6	C	10/03/2023	06:06	-127.943	48.934	0	1963.10	0	1.9780	0	34.5870	0	27.653	0	1937.366	0	51.6	4	15.6	4	-1E+10	1	-1E+10	1	-1E+10	1	-1E+10	1	-1E+10	1	-1E+10	1
4902663	6	C	10/03/2023	06:06	-127.943	48.934	0	1987.80	0	1.9560	0	34.5910	0	27.658	0	1961.629	0	52.7	4	15.9	4	-1E+10	1	-1E+10	1	-1E+10	1	-1E+10	1	-1E+10	1	-1E+10	1
4902663	6	C	10/03/2023	06:06	-127.943	48.934	0																										
4902663	7	C	10/13/2023	06:15	-127.905	48.842	0	0.10	0	14.4130	0	32.1050	0	23.866	0	0.099	0	245.7	4	96.0	4	-1E+10	1	-1E+10	1	-1E+10	1	-1E+10	1	-1E+10	1	-1E+10	1
4902663	7	C	10/13/2023	06:15	-127.905	48.842	0	0.20	0	14.4133	0	32.1049	0	23.866	0	0.198	0	245.7	4	96.0	4	-1E+10	1	-1E+10	1	-1E+10	1	-1E+10	1	-1E+10	1	-1E+10	1
4902663	7	C	10/13/2023	06:15	-127.905	48.842	0	1.10	0	14.4160	0	32.1040	0	23.865	0	1.091	0	245.6	4	96.0	4	-1E+10	1	-1E+10	1	-1E+10	1	-1E+10	1	-1E+10	1	-1E+10	1
4902663	7	C	10/13/2023	06:15	-127.905	48.842	0	1.90	0	14.4150	0	32.1070	0	23.867	0	1.884	0	245.5	4	96.0	4	-1E+10	1	-1E+10	1	-1E+10	1	-1E+10	1	-1E+10	1	-1E+10	1
4902663	7	C	10/13/2023	06:15	-127.905	48.842	0	2.70	0	14.4180	0	32.1050	0	23.865	0	2.677	0	245.4	4	96.0	4	-1E+10	1	-1E+10	1	-1E+10	1	-1E+10	1	-1E+10	1	-1E+10	1
4902663	7	C	10/13/2023	06:15	-127.905	48.842	0	3.90	0	14.4170	0	32.1060	0	23.866	0	3.867	0	245.3	4	95.9	4	-1E+10	1	-1E+10	1	-1E+10	1	-1E+10	1	-1E+10	1	-1E+10	1
4902663	7	C	10/13/2023	06:15	-127.905	48.842	0	5.30	0	14.4170	0	32.1070	0	23.867	0	5.255	0	245.1	4	95.9	4	-1E+10	1	-1E+10	1	-1E+10	1	-1E+10	1	-1E+10	1	-1E+10	1
4902663	7	C	10/13/2023	06:15	-127.905	48.842	0	6.20	0	14.4160	0	32.1070	0	23.867	0	6.147	0	245.1	4	95.8	4	-1E+10	1	-1E+10	1	-1E+10	1	-1E+10	1	-1E+10	1	-1E+10	1
4902663	7	C	10/13/2023	06:15	-127.905	48.842	0	7.10	0	14.4170	0	32.1070	0	23.867	0	7.040	0	245.0	4	95.8	4	-1E+10	1	-1E+10	1	-1E+10	1	-1E+10	1	-1E+10	1	-1E+10	1
4902663	7	C	10/13/2023	06:15	-127.905	48.842	0	7.90	0	14.4180	0	32.1070	0	23.867	0	7.833	0	244.9	4	95.7	4	-1E+10	1	-1E+10	1	-1E+10	1	-1E+10	1	-1E+10	1	-1E+10	1
4902663	7	C	10/13/2023	06:15	-127.905	48.842	0	8.80	0	14.4190	0	32.1070	0	23.867	0	8.725	0	244.8	4	95.7	4	-1E+10	1	-1E+10	1	-1E+10	1	-1E+10	1	-1E+10	1	-1E+10	1
4902663	7	C	10/13/2023	06:15	-127.905	48.842	0	9.60	0	14.4190	0	32.1070	0	23.867	0	9.518	0	244.8	4	95.7	4	-1E+10	1	-1E+10	1	-1E+10	1	-1E+10	1	-1E+10	1	-1E+10	1
4902663	7	C	10/13/2023	06:15	-127.905	48.842	0	15.30	0	14.4180	0	32.1060	0	23.866	0	15.170	0	244.1	4	95.5	4	-1E+10	1	-1E+10	1	-1E+10	1	-1E+10	1	-1E+10	1	-1E+10	1
4902663	7	C	10/13/2023	06:15	-127.905	48.842	0	25.80	0	14.4220	0	32.1060	0	23.866	0	25.580	0	242.2	4	94.7	4	-1E+10	1	-1E+10	1	-1E+10	1	-1E+10	1	-1E+10	1	-1E+10	1
4902663	7	C	10/13/2023	06:15	-127.905	48.842	0	36.00	0	14.1440	0	32.1240	0	23.938	0	35.692	0	237.3	4	92.3	4	-1E+10	1	-1E+10	1	-1E+10	1	-1E+10	1	-1E+10	1	-1E+10	1
4902663	7	C	10/13/2023	06:15	-127.905	48.842	0	45.40	0	12.8470	0	32.1950	0	24.252	0	45.011	0	226.3	4	85.8	4	-1E+10	1	-1E+10	1	-1E+10	1	-1E+10	1	-1E+10	1	-1E+10	1
4902663	7	C	10/13/2023	06:15	-127.905	48.842	0	55.30	0	10.4220	0	32.4540	0	24.895	0	54.824	0	196.1	4	70.8	4	-1E+10	1	-1E+10	1	-1E+10	1	-1E+10	1	-1E+10	1	-1E+10	1
4902663	7	C	10/13/2023	06:15	-127.905	48.842	0	64.90	0	8.9020	0	32.6880	0	25.325	0	64.340	0	189.4	4	66.2	4	-1E+10	1	-1E+10	1	-1E+10	1	-1E+10	1	-1E+10	1	-1E+10	1
4902663	7	C	10/13/2023	06:15	-127.905	48.842	0	75.20	0	7.9440	0	32.8400	0	25.587	0	74.550	0	178.7	4	61.2	4	-1E+10	1	-1E+10	1	-1E+10	1	-1E+10	1	-1E+10	1	-1E+10	1
4902663	7	C	10/13/2023	06:15	-127.905	48.842	0	85.10	0	7.9640	0	33.0690	0	25.764	0	84.362	0	160.3	4	55.1	4	-1E+10	1	-1E+10	1	-1E+10	1	-1E+10	1	-1E+10	1	-1E+10	1
4902663	7	C	10/13/2023	06:15	-127.905	48.842	0	95.40	0	7.8750	0	33.2570	0	25.925	0	94.570	0	154.5	4	53.0	4	-1E+10	1	-1E+10	1	-1E+10	1	-1E+10	1	-1E+10	1	-1E+10	1
4902663	7	C	10/13/2023	06:15	-127.905	48.842	0	105.50	0	7.8620	0	33.3960	0	26.036	0	104.580	0	149.4	4	51.3	4	-1E+10	1	-1E+10	1	-1E+10	1	-1E+10	1	-1E+10	1	-1E+10	1
4902663	7	C	10/13/2023	06:15	-127.905	48.842	0	115.40	0	7.6990	0	33.5460	0	26.178	0	114.391	0	145.3	4	49.8	4	-1E+10	1	-1E+10	1	-1E+10	1	-1E+10	1	-1E+10	1	-1E+10	1
4902663	7	C	10/13/2023	06:15	-127.905	48.842	0	125.60	0	7.5180	0	33.6300	0	26.270	0	124.499	0	138.5	4	47.3	4	-1E+10	1	-1E+10	1	-1E+10	1	-1E+10	1	-1E+10	1	-1E+10	1
4902663	7	C	10/13/2023	06:15	-127.905	48.842	0	135.50	0	7.5230	0	33.7350	0	26.352	0	134.308	0	127.6	4	43.6	4	-1E+10	1	-1E+10	1	-1E+10	1	-1E+10	1	-1E+10	1	-1E+10	1
4902663	7	C	10/13/2023	06:15	-127.905	48.842	0	145.40	0	7.5390	0	33.8030	0	26.403	0	144.118	0	122.4	4	41.8	4	-1E+10	1	-1E+10	1	-1E+10	1	-1E+10	1	-1E+10	1	-1E+10	1
4902663	7	C	10/13/2023	06:15	-127.905	48.842	0	155.40	0	7.4160	0	33.8250	0	26.438	0	154.026	0	119.3	4	40.7	4	-1E+10	1	-1E+10	1	-1E+10	1	-1E+10	1	-1E+10	1	-1E+10	1
4902663	7	C	10/13/2023	06:15	-127.905	48.842	0	165.60	0	7.2280	0	33.8360	0	26.473	0	164.132	0	114.9	4	39.0	4	-1E+10	1	-1E+10	1	-1E+10	1	-1E+10	1	-1E+10	1	-1E+10	1
4902663	7	C	10/13/2023	06:15	-127.905	48.842	0	175.60	0	7.0360	0	33.8550	0	26.514	0	174.039	0	108.5	4	36.7	4	-1E+10	1	-1E+10	1	-1E+10	1	-1E+10	1	-1E+10	1	-1E+10	1
4902663	7	C	10/13/2023	06:15	-127.905	48.842	0	185.70	0	6.9920	0	33.8850	0	26.544	0	184.045	0	102.2	4	34.6	4	-1E+10	1	-1E+10	1	-1E+10	1	-1E+10	1	-1E+10	1	-1E+10	1
4902663	7	C	10/13/2023	06:15	-127.905	48.842	0	195.70	0	6.9110	0	33.8950	0	26.563	0	193.951	0	98.9	4	33.4	4	-1E+10	1	-1E+10	1	-1E+10	1	-1E+10	1	-1E+10	1	-1E+10	1
4902663	7	C	10/13/2023	06:15	-127.905	48.842	0	213.80	0	6.7320	0	33.9120	0	26.601	0	211.880	0	94.2	4	31.7	4	-1E+10	1	-1E+10	1	-1E+10	1	-1E+10	1	-1E+10	1	-1E+10	1
4902663	7	C	10/13/2023	06:15	-127.905	48.842	0	238.10	0	6.3810	0	33.9100	0	26.646	0	235.948	0	90.2	4	30.1	4	-1E+10	1	-1E+10	1	-1E+10	1	-1E+10	1	-1E+10	1	-1E+10	1
4902663	7	C	10/13/2023	06:15	-127.905	48.842	0	262.80	0	6.1350	0	33.9210	0	26.686	0	260.409	0	82.1	4	27.2	4	-1E+10	1	-1E+10	1	-1E+10	1	-1E+10	1	-1E+10	1	-1E+10	1
4902663	7	C	10/13/2023	06:15	-127.905	48.842	0	287.60	0	5.9200	0	33.9310	0	26.721	0	284.966	0	75.1	4	24.8	4	-1E+10	1	-1E+10	1	-1E+10	1	-1E+10	1	-1E+10	1	-1E+10	1
4902663	7	C	10/13/2023	06:15	-127.905	48.842	0	312.70	0	5.7020	0	33.9410	0	26.756	0	309.818	0	68.0	4	22.3	4	-1E+10	1	-1E+10	1	-1E+10	1	-1E+10	1	-1E+10	1	-1E+10	1
4902663	7	C	10/13/2023	06:15	-127.905	48.842	0	337.80	0	5.6290	0	33.9770	0	26.794	0	334.666	0	55.9	4	18.3	4	-1E+10	1	-1E+10	1	-1E+10	1	-1E+10	1	-1E+10	1	-1E+10	1
4902663	7	C	10/13/2023	06:15	-127.905	48.842	0	362.40	0	5.6510	0	34.0200	0	26.825	0	359.016	0	47.0	4	15.4	4	-1E+10	1	-1E+10	1	-1E+10	1	-1E+10	1	-1E+10	1	-1E+10	1
4902663	7	C	10/13/2023	06:15	-127.905	48.842	0	387.90	0	5.5180	0	34.0420	0	26.859	0	384.255	0	42.1	4	13.8	4	-1E+10	1	-1E+10	1	-1E+10	1	-1E+10	1	-1E+10	1	-1E+10	1
4902663	7	C	10/13/2023	06:15	-127.905	48.842	0	413.20	0	5.2260	0	34.0340	0	26.887	0	409.292	0	40.3	4	13.1	4	-1E+10	1	-1E+10	1	-1E+10	1	-1E+10	1	-1E+10	1	-1E+10	1
4902663	7	C	10/13/2023	06:15	-127.905	48.842	0	438.00	0	5.1750	0	34.0640	0	26.917	0	433.832	0	33.3	4	10.8	4	-1E+10	1	-1E+10	1	-1E+10	1	-1E+10	1	-1E+10	1	-1E+10	1
4902663	7	C	10/13/2023	06:15	-127.905	48.842	0	463.00	0	5.1040	0	34.0960	0	26.951	0	458.566	0	28.2	4	9.1	4	-1E+10	1	-1E+10	1	-1E+10	1	-1E+10	1	-1E+10	1	-1E+10	1
4902663	7	C	10/13/2023	06:15	-127.905	48.842	0	488.80	0	5.0270	0	34.1210	0	26.980	0	484.089	0	23.7	4	7.7	4	-1E+10	1	-1E+10	1	-1E+10	1	-1E+10	1	-1E+10	1	-1E+10	1
4902663	7	C	10/13/2023	06:15	-127.905	48.842	0	513.00	0	4.9380	0	34.1380	0	27.004	0	508.026	0	20.6	4	6.7	4	-1E+10	1	-1E+10	1	-1E+10	1	-1E+10	1	-1E+10	1	-1E+10	1
4902663	7	C	10/13/2023	06:15	-127.905	48.842	0	537.90	0	4.8710	0	34.1590	0	27.028	0	532.653	0	17.7	4	5.7	4	-1E+10	1	-1E+10	1	-1E+10	1	-1E+10	1	-1E+10	1	-1E+10	1
4902663	7	C	10/13/2023	06:15	-127.905	48.842	0	562.70	0	4.7710	0	34.1720	0	27.050	0	557.178	0	15.7	4	5.0	4	-1E+10	1	-1E+10	1	-1E+10	1	-1E+10	1	-1E+10	1	-1E+10	1
4902663	7	C	10/13/2023	06:15	-127.905	48.842	0	587.40	0	4.6600	0	34.1820	0	27.070	0	581.601	0	13.9	4	4.5	4	-1E+10	1	-1E+10	1	-1E+10	1	-1E+10	1	-1E+10	1	-1E+10	1
4902663	7	C	10/13/2023	06:15	-127.905	48.842	0	612.60	0	4.5860	0	34.1990	0	27.092	0	606.515	0	12.3	4	3.9	4	-1E+10	1	-1E+10	1	-1E+10	1	-1E+10	1	-1E+10	1	-1E+10	1
4902663	7	C	10/13/2023	06:15	-127.905	48.842	0	637.70	0	4.4790	0	34.2120	0	27.114	0	631.328	0	11.1	4	3.5	4	-1E+10	1	-1E+10	1	-1E+10	1	-1E+10	1	-1E+10	1	-1E+10	1
4902663	7	C	10/13/2023	06:15	-127.905	48.842	0	663.00	0	4.4020	0	34.2240	0	27.132	0	656.335	0	10.1	4	3.2	4	-1E+10	1	-1E+10	1	-1E+10	1	-1E+10	1	-1E+10	1	-1E+10	1
4902663	7	C	10/13/2023	06:15	-127.905	48.842	0	688.00	0	4.3270	0	34.2350	0	27.149	0	681.043	0	9.4	4	3.0	4	-1E+10	1	-1E+10	1	-1E+10	1	-1E+10	1	-1E+10	1	-1E+10	1
4902663	7	C	10/13/2023	06:15	-127.905	48.842	0	712.90	0	4.2370	0	34.2470	0	27.168	0	705.649	0	8.7	4	2.8	4	-1E+10	1	-1E+10	1	-1E+10	1	-1E+10	1	-1E+10	1	-1E+10	1
4902663	7	C	10/13/2023	06:15	-127.905	48.842	0	737.60	0	4.1910	0	34.2620	0	27.185	0	730.055	0	8.1	4	2.6	4	-1E+10	1	-1E+10	1	-1E+10	1	-1E+10	1	-1E+10	1	-1E+10	1
4902663	7	C	10/13/2023	06:15	-127.905	48.842	0	763.50	0	4.1390	0	34.2770	0	27.203	0	755.643	0	7.5	4	2.4	4	-1E+10	1	-1E+10	1	-1E+10	1	-1E+10	1	-1E+10	1	-1E+10	1
4902663	7	C	10/13/2023	06:15	-127.905	48.842	0	787.70	0	4.0780	0	34.2900	0	27.219	0	779.549	0	7.2	4	2.3	4	-1E+10	1	-1E+10	1	-1E+10	1	-1E+10	1	-1E+10	1	-1E+10	1
4902663	7	C	10/13/2023	06:15	-127.905	48.842	0	812.90	0	3.9740	0	34.3010	0	27.239	0	804.440	0	7.4	4	2.3	4	-1E+10	1	-1E+10	1	-1E+10	1	-1E+10	1	-1E+10	1	-1E+10	1
4902663	7	C	10/13/2023	06:15	-127.905	48.842	0	837.90	0	3.8340	0	34.3040	0	27.256	0	829.130	0	7.7	4	2.4	4	-1E+10	1	-1E+10	1	-1E+10	1	-1E+10	1	-1E+10	1	-1E+10	1
4902663	7	C	10/13/2023	06:15	-127.905	48.842	0	862.50	0	3.7610	0	34.3160	0	27.273	0	853.422	0	7.6	4	2.4	4	-1E+10	1	-1E+10	1	-1E+10	1	-1E+10	1	-1E+10	1	-1E+10	1
4902663	7	C	10/13/2023	06:15	-127.905	48.842	0	887.60	0	3.6960	0	34.3300	0	27.290	0	878.205	0	7.5	4	2.4	4	-1E+10	1	-1E+10	1	-1E+10	1	-1E+10	1	-1E+10	1	-1E+10	1
4902663	7	C	10/13/2023	06:15	-127.905	48.842	0	912.70	0	3.6440	0	34.3420	0	27.305	0	902.985	0	7.5	4	2.4	4	-1E+10	1	-1E+10	1	-1E+10	1	-1E+10	1	-1E+10	1	-1E+10	1
4902663	7	C	10/13/2023	06:15	-127.905	48.842	0	937.90	0	3.5890	0	34.3530	0	27.320	0	927.861	0	7.6	4	2.4	4	-1E+10	1	-1E+10	1	-1E+10	1	-1E+10	1	-1E+10	1	-1E+10	1
4902663	7	C	10/13/2023	06:15	-127.905	48.842	0	963.60	0	3.5210	0	34.3680	0	27.338	0	953.228	0	7.8	4	2.5	4	-1E+10	1	-1E+10	1	-1E+10	1	-1E+10	1	-1E+10	1	-1E+10	1
4902663	7	C	10/13/2023	06:15	-127.905	48.842	0	987.80	0	3.4630	0	34.3780	0	27.352	0	977.111	0	8.1	4	2.5	4	-1E+10	1	-1E+10	1	-1E+10	1	-1E+10	1	-1E+10	1	-1E+10	1
4902663	7	C	10/13/2023	06:15	-127.905	48.842	0	1012.70	0	3.4210	0	34.3850	0	27.362	0	1001.682	0	8.4	4	2.6	4	-1E+10	1	-1E+10	1	-1E+10	1	-1E+10	1	-1E+10	1	-1E+10	1
4902663	7	C	10/13/2023	06:15	-127.905	48.842	0	1037.60	0	3.3720	0	34.3930	0	27.373	0	1026.250	0	8.7	4	2.7	4	-1E+10	1	-1E+10	1	-1E+10	1	-1E+10	1	-1E+10	1	-1E+10	1
4902663	7	C	10/13/2023	06:15	-127.905	48.842	0	1062.90	0	3.3160	0	34.4020	0	27.385	0	1051.210	0	9.1	4	2.8	4	-1E+10	1	-1E+10	1	-1E+10	1	-1E+10	1	-1E+10	1	-1E+10	1
4902663	7	C	10/13/2023	06:15	-127.905	48.842	0	1088.20	0	3.2460	0	34.4070	0	27.396	0	1076.167	0	9.6	4	3.0	4	-1E+10	1	-1E+10	1	-1E+10	1	-1E+10	1	-1E+10	1	-1E+10	1
4902663	7	C	10/13/2023	06:15	-127.905	48.842	0	1112.80	0	3.2080	0	34.4180	0	27.409	0	1100.430	0	10.1	4	3.1	4	-1E+10	1	-1E+10	1	-1E+10	1	-1E+10	1	-1E+10	1	-1E+10	1
4902663	7	C	10/13/2023	06:15	-127.905	48.842	0	1137.50	0	3.1590	0	34.4250	0	27.419	0	1124.790	0	10.5	4	3.3	4	-1E+10	1	-1E+10	1	-1E+10	1	-1E+10	1	-1E+10	1	-1E+10	1
4902663	7	C	10/13/2023	06:15	-127.905	48.842	0	1162.70	0	3.1140	0	34.4310	0	27.428	0	1149.639	0	11.0	4	3.4	4	-1E+10	1	-1E+10	1	-1E+10	1	-1E+10	1	-1E+10	1	-1E+10	1
4902663	7	C	10/13/2023	06:15	-127.905	48.842	0	1187.50	0	3.0460	0	34.4380	0	27.440	0	1174.091	0	11.8	4	3.6	4	-1E+10	1	-1E+10	1	-1E+10	1	-1E+10	1	-1E+10	1	-1E+10	1
4902663	7	C	10/13/2023	06:15	-127.905	48.842	0	1213.40	0	2.9890	0	34.4470	0	27.452	0	1199.625	0	12.5	4	3.9	4	-1E+10	1	-1E+10	1	-1E+10	1	-1E+10	1	-1E+10	1	-1E+10	1
4902663	7	C	10/13/2023	06:15	-127.905	48.842	0	1237.90	0	2.9370	0	34.4520	0	27.461	0	1223.776	0	13.1	4	4.0	4	-1E+10	1	-1E+10	1	-1E+10	1	-1E+10	1	-1E+10	1	-1E+10	1
4902663	7	C	10/13/2023	06:15	-127.905	48.842	0	1262.60	0	2.8980	0	34.4570	0	27.469	0	1248.121	0	13.8	4	4.3	4	-1E+10	1	-1E+10	1	-1E+10	1	-1E+10	1	-1E+10	1	-1E+10	1
4902663	7	C	10/13/2023	06:15	-127.905	48.842	0	1287.70	0	2.8650	0	34.4640	0	27.477	0	1272.857	0	14.6	4	4.5	4	-1E+10	1	-1E+10	1	-1E+10	1	-1E+10	1	-1E+10	1	-1E+10	1
4902663	7	C	10/13/2023	06:15	-127.905	48.842	0	1313.10	0	2.8270	0	34.4680	0	27.484	0	1297.886	0	15.3	4	4.7	4	-1E+10	1	-1E+10	1	-1E+10	1	-1E+10	1	-1E+10	1	-1E+10	1
4902663	7	C	10/13/2023	06:15	-127.905	48.842	0	1338.10	0	2.7750	0	34.4740	0	27.494	0	1322.518	0	16.2	4	5.0	4	-1E+10	1	-1E+10	1	-1E+10	1	-1E+10	1	-1E+10	1	-1E+10	1
4902663	7	C	10/13/2023	06:15	-127.905	48.842	0	1362.80	0	2.7260	0	34.4800	0	27.503	0	1346.852	0	17.4	4	5.3	4	-1E+10	1	-1E+10	1	-1E+10	1	-1E+10	1	-1E+10	1	-1E+10	1
4902663	7	C	10/13/2023	06:15	-127.905	48.842	0	1387.80	0	2.6770	0	34.4870	0	27.513	0	1371.478	0	18.7	4	5.7	4	-1E+10	1	-1E+10	1	-1E+10	1	-1E+10	1	-1E+10	1	-1E+10	1
4902663	7	C	10/13/2023	06:15	-127.905	48.842	0	1412.70	0	2.6360	0	34.4930	0	27.521	0	1396.003	0	19.9	4	6.1	4	-1E+10	1	-1E+10	1	-1E+10	1	-1E+10	1	-1E+10	1	-1E+10	1
4902663	7	C	10/13/2023	06:15	-127.905	48.842	0	1437.80	0	2.5810	0	34.4990	0	27.531	0	1420.722	0	21.3	4	6.5	4	-1E+10	1	-1E+10	1	-1E+10	1	-1E+10	1	-1E+10	1	-1E+10	1
4902663	7	C	10/13/2023	06:15	-127.905	48.842	0	1462.90	0	2.5410	0	34.5050	0	27.539	0	1445.437	0	22.7	4	6.9	4	-1E+10	1	-1E+10	1	-1E+10	1	-1E+10	1	-1E+10	1	-1E+10	1
4902663	7	C	10/13/2023	06:15	-127.905	48.842	0	1488.10	0	2.4970	0	34.5090	0	27.546	0	1470.249	0	24.1	4	7.4	4	-1E+10	1	-1E+10	1	-1E+10	1	-1E+10	1	-1E+10	1	-1E+10	1
4902663	7	C	10/13/2023	06:15	-127.905	48.842	0	1513.20	0	2.4530	0	34.5140	0	27.554	0	1494.959	0	25.5	4	7.8	4	-1E+10	1	-1E+10	1	-1E+10	1	-1E+10	1	-1E+10	1	-1E+10	1
4902663	7	C	10/13/2023	06:15	-127.905	48.842	0	1538.10	0	2.4160	0	34.5180	0	27.560	0	1519.470	0	26.8	4	8.2	4	-1E+10	1	-1E+10	1	-1E+10	1	-1E+10	1	-1E+10	1	-1E+10	1
4902663	7	C	10/13/2023	06:15	-127.905	48.842	0	1562.80	0	2.3880	0	34.5220	0	27.566	0	1543.780	0	28.2	4	8.6	4	-1E+10	1	-1E+10	1	-1E+10	1	-1E+10	1	-1E+10	1	-1E+10	1
4902663	7	C	10/13/2023	06:15	-127.905	48.842	0	1588.30	0	2.3530	0	34.5260	0	27.572	0	1568.876	0	29.3	4	8.9	4	-1E+10	1	-1E+10	1	-1E+10	1	-1E+10	1	-1E+10	1	-1E+10	1
4902663	7	C	10/13/2023	06:15	-127.905	48.842	0	1612.80	0	2.3200	0	34.5300	0	27.578	0	1592.984	0	30.6	4	9.3	4	-1E+10	1	-1E+10	1	-1E+10	1	-1E+10	1	-1E+10	1	-1E+10	1
4902663	7	C	10/13/2023	06:15	-127.905	48.842	0	1637.70	0	2.2850	0	34.5340	0	27.584	0	1617.483	0	32.1	4	9.8	4	-1E+10	1	-1E+10	1	-1E+10	1	-1E+10	1	-1E+10	1	-1E+10	1
4902663	7	C	10/13/2023	06:15	-127.905	48.842	0	1662.70	0	2.2500	0	34.5390	0	27.591	0	1642.077	0	33.6	4	10.2	4	-1E+10	1	-1E+10	1	-1E+10	1	-1E+10	1	-1E+10	1	-1E+10	1
4902663	7	C	10/13/2023	06:15	-127.905	48.842	0	1687.90	0	2.2210	0	34.5440	0	27.598	0	1666.866	0	35.0	4	10.6	4	-1E+10	1	-1E+10	1	-1E+10	1	-1E+10	1	-1E+10	1	-1E+10	1
4902663	7	C	10/13/2023	06:15	-127.905	48.842	0	1712.60	0	2.1910	0	34.5480	0	27.604	0	1691.160	0	36.7	4	11.1	4	-1E+10	1	-1E+10	1	-1E+10	1	-1E+10	1	-1E+10	1	-1E+10	1
4902663	7	C	10/13/2023	06:15	-127.905	48.842	0	1737.90	0	2.1600	0	34.5530	0	27.610	0	1716.041	0	38.4	4	11.6	4	-1E+10	1	-1E+10	1	-1E+10	1	-1E+10	1	-1E+10	1	-1E+10	1
4902663	7	C	10/13/2023	06:15	-127.905	48.842	0	1763.00	0	2.1350	0	34.5570	0	27.615	0	1740.722	0	40.0	4	12.1	4	-1E+10	1	-1E+10	1	-1E+10	1	-1E+10	1	-1E+10	1	-1E+10	1
4902663	7	C	10/13/2023	06:15	-127.905	48.842	0	1787.50	0	2.1090	0	34.5610	0	27.621	0	1764.811	0	41.6	4	12.6	4	-1E+10	1	-1E+10	1	-1E+10	1	-1E+10	1	-1E+10	1	-1E+10	1
4902663	7	C	10/13/2023	06:15	-127.905	48.842	0	1812.60	0	2.0930	0	34.5640	0	27.625	0	1789.486	0	42.8	4	12.9	4	-1E+10	1	-1E+10	1	-1E+10	1	-1E+10	1	-1E+10	1	-1E+10	1
4902663	7	C	10/13/2023	06:15	-127.905	48.842	0	1837.90	0	2.0690	0	34.5680	0	27.630	0	1814.356	0	44.5	4	13.5	4	-1E+10	1	-1E+10	1	-1E+10	1	-1E+10	1	-1E+10	1	-1E+10	1
4902663	7	C	10/13/2023	06:15	-127.905	48.842	0	1863.70	0	2.0440	0	34.5730	0	27.636	0	1839.714	0	46.3	4	14.0	4	-1E+10	1	-1E+10	1	-1E+10	1	-1E+10	1	-1E+10	1	-1E+10	1
4902663	7	C	10/13/2023	06:15	-127.905	48.842	0	1887.70	0	2.0250	0	34.5760	0	27.640	0	1863.300	0	47.5	4	14.3	4	-1E+10	1	-1E+10	1	-1E+10	1	-1E+10	1	-1E+10	1	-1E+10	1
4902663	7	C	10/13/2023	06:15	-127.905	48.842	0	1912.50	0	2.0110	0	34.5780	0	27.643	0	1887.669	0	48.7	4	14.7	4	-1E+10	1	-1E+10	1	-1E+10	1	-1E+10	1	-1E+10	1	-1E+10	1
4902663	7	C	10/13/2023	06:15	-127.905	48.842	0	1937.90	0	1.9920	0	34.5820	0	27.648	0	1912.625	0	50.1	4	15.1	4	-1E+10	1	-1E+10	1	-1E+10	1	-1E+10	1	-1E+10	1	-1E+10	1
4902663	7	C	10/13/2023	06:15	-127.905	48.842	0	1963.00	0	1.9740	0	34.5850	0	27.652	0	1937.284	0	51.3	4	15.5	4	-1E+10	1	-1E+10	1	-1E+10	1	-1E+10	1	-1E+10	1	-1E+10	1
4902663	7	C	10/13/2023	06:15	-127.905	48.842	0	1983.60	0	1.9620	0	34.5870	0	27.654	0	1957.520	0	51.5	4	15.5	4	-1E+10	1	-1E+10	1	-1E+10	1	-1E+10	1	-1E+10	1	-1E+10	1
4902663	7	C	10/13/2023	06:15	-127.905	48.842	0																										
4902663	8	C	10/23/2023	06:12	-127.726	48.685	0	0.10	0	13.6660	0	32.0910	0	24.009	0	0.099	0	243.4	4	93.7	4	-1E+10	1	-1E+10	1	-1E+10	1	-1E+10	1	-1E+10	1	-1E+10	1
4902663	8	C	10/23/2023	06:12	-127.726	48.685	0	0.20	0	13.6662	0	32.0912	0	24.009	0	0.198	0	-1e10	1	-1e10	1	-1E+10	1	-1E+10	1	-1E+10	1	-1E+10	1	-1E+10	1	-1E+10	1
4902663	8	C	10/23/2023	06:12	-127.726	48.685	0	0.30	0	13.6663	0	32.0913	0	24.009	0	0.297	0	-1e10	1	-1e10	1	-1E+10	1	-1E+10	1	-1E+10	1	-1E+10	1	-1E+10	1	-1E+10	1
4902663	8	C	10/23/2023	06:12	-127.726	48.685	0	0.70	0	13.6670	0	32.0920	0	24.009	0	0.694	0	243.3	4	93.7	4	-1E+10	1	-1E+10	1	-1E+10	1	-1E+10	1	-1E+10	1	-1E+10	1
4902663	8	C	10/23/2023	06:12	-127.726	48.685	0	1.50	0	13.6750	0	32.0860	0	24.003	0	1.487	0	243.2	4	93.7	4	-1E+10	1	-1E+10	1	-1E+10	1	-1E+10	1	-1E+10	1	-1E+10	1
4902663	8	C	10/23/2023	06:12	-127.726	48.685	0	2.50	0	13.6700	0	32.0910	0	24.008	0	2.479	0	243.1	4	93.6	4	-1E+10	1	-1E+10	1	-1E+10	1	-1E+10	1	-1E+10	1	-1E+10	1
4902663	8	C	10/23/2023	06:12	-127.726	48.685	0	3.50	0	13.6760	0	32.0870	0	24.004	0	3.470	0	243.0	4	93.6	4	-1E+10	1	-1E+10	1	-1E+10	1	-1E+10	1	-1E+10	1	-1E+10	1
4902663	8	C	10/23/2023	06:12	-127.726	48.685	0	4.60	0	13.6760	0	32.0880	0	24.004	0	4.561	0	242.9	4	93.6	4	-1E+10	1	-1E+10	1	-1E+10	1	-1E+10	1	-1E+10	1	-1E+10	1
4902663	8	C	10/23/2023	06:12	-127.726	48.685	0	5.80	0	13.6770	0	32.0880	0	24.004	0	5.751	0	242.8	4	93.5	4	-1E+10	1	-1E+10	1	-1E+10	1	-1E+10	1	-1E+10	1	-1E+10	1
4902663	8	C	10/23/2023	06:12	-127.726	48.685	0	6.80	0	13.6770	0	32.0880	0	24.004	0	6.742	0	242.8	4	93.5	4	-1E+10	1	-1E+10	1	-1E+10	1	-1E+10	1	-1E+10	1	-1E+10	1
4902663	8	C	10/23/2023	06:12	-127.726	48.685	0	8.00	0	13.6770	0	32.0880	0	24.004	0	7.932	0	242.7	4	93.5	4	-1E+10	1	-1E+10	1	-1E+10	1	-1E+10	1	-1E+10	1	-1E+10	1
4902663	8	C	10/23/2023	06:12	-127.726	48.685	0	9.10	0	13.6770	0	32.0880	0	24.004	0	9.023	0	242.7	4	93.5	4	-1E+10	1	-1E+10	1	-1E+10	1	-1E+10	1	-1E+10	1	-1E+10	1
4902663	8	C	10/23/2023	06:12	-127.726	48.685	0	10.20	0	13.6770	0	32.0880	0	24.004	0	10.114	0	242.6	4	93.4	4	-1E+10	1	-1E+10	1	-1E+10	1	-1E+10	1	-1E+10	1	-1E+10	1
4902663	8	C	10/23/2023	06:12	-127.726	48.685	0	15.60	0	13.6750	0	32.0880	0	24.005	0	15.468	0	242.3	4	93.3	4	-1E+10	1	-1E+10	1	-1E+10	1	-1E+10	1	-1E+10	1	-1E+10	1
4902663	8	C	10/23/2023	06:12	-127.726	48.685	0	25.90	0	13.6740	0	32.0880	0	24.005	0	25.679	0	241.5	4	93.0	4	-1E+10	1	-1E+10	1	-1E+10	1	-1E+10	1	-1E+10	1	-1E+10	1
4902663	8	C	10/23/2023	06:12	-127.726	48.685	0	35.80	0	12.8170	0	32.1400	0	24.215	0	35.494	0	238.4	4	90.3	4	-1E+10	1	-1E+10	1	-1E+10	1	-1E+10	1	-1E+10	1	-1E+10	1
4902663	8	C	10/23/2023	06:12	-127.726	48.685	0	45.30	0	8.5810	0	32.4240	0	25.167	0	44.912	0	235.6	4	81.7	4	-1E+10	1	-1E+10	1	-1E+10	1	-1E+10	1	-1E+10	1	-1E+10	1
4902663	8	C	10/23/2023	06:12	-127.726	48.685	0	55.40	0	8.1550	0	32.5480	0	25.327	0	54.924	0	218.5	4	75.1	4	-1E+10	1	-1E+10	1	-1E+10	1	-1E+10	1	-1E+10	1	-1E+10	1
4902663	8	C	10/23/2023	06:12	-127.726	48.685	0	65.40	0	7.9830	0	32.7490	0	25.510	0	64.837	0	192.5	4	66.0	4	-1E+10	1	-1E+10	1	-1E+10	1	-1E+10	1	-1E+10	1	-1E+10	1
4902663	8	C	10/23/2023	06:12	-127.726	48.685	0	75.30	0	7.8720	0	32.9890	0	25.715	0	74.650	0	171.5	4	58.7	4	-1E+10	1	-1E+10	1	-1E+10	1	-1E+10	1	-1E+10	1	-1E+10	1
4902663	8	C	10/23/2023	06:12	-127.726	48.685	0	85.10	0	7.7890	0	33.2010	0	25.893	0	84.363	0	154.6	4	52.9	4	-1E+10	1	-1E+10	1	-1E+10	1	-1E+10	1	-1E+10	1	-1E+10	1
4902663	8	C	10/23/2023	06:12	-127.726	48.685	0	95.40	0	7.7090	0	33.4040	0	26.064	0	94.572	0	141.7	4	48.5	4	-1E+10	1	-1E+10	1	-1E+10	1	-1E+10	1	-1E+10	1	-1E+10	1
4902663	8	C	10/23/2023	06:12	-127.726	48.685	0	105.50	0	7.6200	0	33.5540	0	26.195	0	104.581	0	136.5	4	46.7	4	-1E+10	1	-1E+10	1	-1E+10	1	-1E+10	1	-1E+10	1	-1E+10	1
4902663	8	C	10/23/2023	06:12	-127.726	48.685	0	115.50	0	7.4520	0	33.6420	0	26.288	0	114.492	0	135.7	4	46.3	4	-1E+10	1	-1E+10	1	-1E+10	1	-1E+10	1	-1E+10	1	-1E+10	1
4902663	8	C	10/23/2023	06:12	-127.726	48.685	0	125.80	0	7.3500	0	33.7010	0	26.349	0	124.699	0	133.7	4	45.5	4	-1E+10	1	-1E+10	1	-1E+10	1	-1E+10	1	-1E+10	1	-1E+10	1
4902663	8	C	10/23/2023	06:12	-127.726	48.685	0	135.40	0	7.2940	0	33.7510	0	26.396	0	134.211	0	127.4	4	43.3	4	-1E+10	1	-1E+10	1	-1E+10	1	-1E+10	1	-1E+10	1	-1E+10	1
4902663	8	C	10/23/2023	06:12	-127.726	48.685	0	145.30	0	7.2350	0	33.8150	0	26.455	0	144.021	0	120.0	4	40.8	4	-1E+10	1	-1E+10	1	-1E+10	1	-1E+10	1	-1E+10	1	-1E+10	1
4902663	8	C	10/23/2023	06:12	-127.726	48.685	0	155.50	0	7.1220	0	33.8480	0	26.497	0	154.127	0	114.8	4	38.9	4	-1E+10	1	-1E+10	1	-1E+10	1	-1E+10	1	-1E+10	1	-1E+10	1
4902663	8	C	10/23/2023	06:12	-127.726	48.685	0	165.40	0	7.0070	0	33.8620	0	26.524	0	163.936	0	110.6	4	37.4	4	-1E+10	1	-1E+10	1	-1E+10	1	-1E+10	1	-1E+10	1	-1E+10	1
4902663	8	C	10/23/2023	06:12	-127.726	48.685	0	175.60	0	6.9520	0	33.8710	0	26.538	0	174.041	0	106.0	4	35.8	4	-1E+10	1	-1E+10	1	-1E+10	1	-1E+10	1	-1E+10	1	-1E+10	1
4902663	8	C	10/23/2023	06:12	-127.726	48.685	0	185.50	0	6.9330	0	33.8930	0	26.558	0	183.849	0	100.7	4	34.0	4	-1E+10	1	-1E+10	1	-1E+10	1	-1E+10	1	-1E+10	1	-1E+10	1
4902663	8	C	10/23/2023	06:12	-127.726	48.685	0	195.20	0	6.8680	0	33.9010	0	26.574	0	193.458	0	98.2	4	33.1	4	-1E+10	1	-1E+10	1	-1E+10	1	-1E+10	1	-1E+10	1	-1E+10	1
4902663	8	C	10/23/2023	06:12	-127.726	48.685	0	212.70	0	6.7860	0	33.9140	0	26.595	0	210.793	0	91.8	4	30.9	4	-1E+10	1	-1E+10	1	-1E+10	1	-1E+10	1	-1E+10	1	-1E+10	1
4902663	8	C	10/23/2023	06:12	-127.726	48.685	0	238.00	0	6.6720	0	33.9500	0	26.639	0	235.852	0	78.8	4	26.4	4	-1E+10	1	-1E+10	1	-1E+10	1	-1E+10	1	-1E+10	1	-1E+10	1
4902663	8	C	10/23/2023	06:12	-127.726	48.685	0	263.10	0	6.4420	0	33.9650	0	26.681	0	260.710	0	74.2	4	24.8	4	-1E+10	1	-1E+10	1	-1E+10	1	-1E+10	1	-1E+10	1	-1E+10	1
4902663	8	C	10/23/2023	06:12	-127.726	48.685	0	288.50	0	5.9910	0	33.9510	0	26.728	0	285.861	0	70.0	4	23.1	4	-1E+10	1	-1E+10	1	-1E+10	1	-1E+10	1	-1E+10	1	-1E+10	1
4902663	8	C	10/23/2023	06:12	-127.726	48.685	0	313.20	0	5.7650	0	33.9680	0	26.770	0	310.317	0	63.0	4	20.7	4	-1E+10	1	-1E+10	1	-1E+10	1	-1E+10	1	-1E+10	1	-1E+10	1
4902663	8	C	10/23/2023	06:12	-127.726	48.685	0	338.00	0	5.5580	0	33.9820	0	26.806	0	334.869	0	55.1	4	18.0	4	-1E+10	1	-1E+10	1	-1E+10	1	-1E+10	1	-1E+10	1	-1E+10	1
4902663	8	C	10/23/2023	06:12	-127.726	48.685	0	362.80	0	5.5330	0	34.0180	0	26.838	0	359.417	0	47.0	4	15.4	4	-1E+10	1	-1E+10	1	-1E+10	1	-1E+10	1	-1E+10	1	-1E+10	1
4902663	8	C	10/23/2023	06:12	-127.726	48.685	0	387.70	0	5.4000	0	34.0370	0	26.869	0	384.062	0	41.9	4	13.7	4	-1E+10	1	-1E+10	1	-1E+10	1	-1E+10	1	-1E+10	1	-1E+10	1
4902663	8	C	10/23/2023	06:12	-127.726	48.685	0	413.00	0	5.2790	0	34.0570	0	26.899	0	409.100	0	36.9	4	12.0	4	-1E+10	1	-1E+10	1	-1E+10	1	-1E+10	1	-1E+10	1	-1E+10	1
4902663	8	C	10/23/2023	06:12	-127.726	48.685	0	438.10	0	5.1610	0	34.0730	0	26.926	0	433.937	0	32.2	4	10.4	4	-1E+10	1	-1E+10	1	-1E+10	1	-1E+10	1	-1E+10	1	-1E+10	1
4902663	8	C	10/23/2023	06:12	-127.726	48.685	0	463.60	0	5.1630	0	34.1050	0	26.951	0	459.166	0	27.5	4	8.9	4	-1E+10	1	-1E+10	1	-1E+10	1	-1E+10	1	-1E+10	1	-1E+10	1
4902663	8	C	10/23/2023	06:12	-127.726	48.685	0	487.90	0	5.0460	0	34.1170	0	26.974	0	483.206	0	24.5	4	7.9	4	-1E+10	1	-1E+10	1	-1E+10	1	-1E+10	1	-1E+10	1	-1E+10	1
4902663	8	C	10/23/2023	06:12	-127.726	48.685	0	512.70	0	4.9640	0	34.1440	0	27.005	0	507.737	0	20.5	4	6.6	4	-1E+10	1	-1E+10	1	-1E+10	1	-1E+10	1	-1E+10	1	-1E+10	1
4902663	8	C	10/23/2023	06:12	-127.726	48.685	0	537.40	0	4.8920	0	34.1640	0	27.030	0	532.166	0	17.8	4	5.7	4	-1E+10	1	-1E+10	1	-1E+10	1	-1E+10	1	-1E+10	1	-1E+10	1
4902663	8	C	10/23/2023	06:12	-127.726	48.685	0	562.60	0	4.7050	0	34.1630	0	27.050	0	557.087	0	16.2	4	5.2	4	-1E+10	1	-1E+10	1	-1E+10	1	-1E+10	1	-1E+10	1	-1E+10	1
4902663	8	C	10/23/2023	06:12	-127.726	48.685	0	587.80	0	4.6330	0	34.1810	0	27.072	0	582.005	0	13.8	4	4.4	4	-1E+10	1	-1E+10	1	-1E+10	1	-1E+10	1	-1E+10	1	-1E+10	1
4902663	8	C	10/23/2023	06:12	-127.726	48.685	0	612.70	0	4.5510	0	34.1980	0	27.095	0	606.623	0	12.1	4	3.9	4	-1E+10	1	-1E+10	1	-1E+10	1	-1E+10	1	-1E+10	1	-1E+10	1
4902663	8	C	10/23/2023	06:12	-127.726	48.685	0	637.70	0	4.4500	0	34.2160	0	27.120	0	631.337	0	10.6	4	3.4	4	-1E+10	1	-1E+10	1	-1E+10	1	-1E+10	1	-1E+10	1	-1E+10	1
4902663	8	C	10/23/2023	06:12	-127.726	48.685	0	662.70	0	4.3430	0	34.2300	0	27.143	0	656.048	0	9.7	4	3.1	4	-1E+10	1	-1E+10	1	-1E+10	1	-1E+10	1	-1E+10	1	-1E+10	1
4902663	8	C	10/23/2023	06:12	-127.726	48.685	0	687.70	0	4.2220	0	34.2400	0	27.164	0	680.756	0	9.0	4	2.9	4	-1E+10	1	-1E+10	1	-1E+10	1	-1E+10	1	-1E+10	1	-1E+10	1
4902663	8	C	10/23/2023	06:12	-127.726	48.685	0	712.70	0	4.1770	0	34.2590	0	27.184	0	705.462	0	8.3	4	2.6	4	-1E+10	1	-1E+10	1	-1E+10	1	-1E+10	1	-1E+10	1	-1E+10	1
4902663	8	C	10/23/2023	06:12	-127.726	48.685	0	738.10	0	4.0640	0	34.2660	0	27.201	0	730.559	0	8.6	4	2.7	4	-1E+10	1	-1E+10	1	-1E+10	1	-1E+10	1	-1E+10	1	-1E+10	1
4902663	8	C	10/23/2023	06:12	-127.726	48.685	0	763.40	0	3.9640	0	34.2760	0	27.220	0	755.555	0	8.3	4	2.6	4	-1E+10	1	-1E+10	1	-1E+10	1	-1E+10	1	-1E+10	1	-1E+10	1
4902663	8	C	10/23/2023	06:12	-127.726	48.685	0	787.90	0	3.9400	0	34.2920	0	27.235	0	779.758	0	7.8	4	2.4	4	-1E+10	1	-1E+10	1	-1E+10	1	-1E+10	1	-1E+10	1	-1E+10	1
4902663	8	C	10/23/2023	06:12	-127.726	48.685	0	812.80	0	3.8510	0	34.2950	0	27.247	0	804.352	0	7.9	4	2.5	4	-1E+10	1	-1E+10	1	-1E+10	1	-1E+10	1	-1E+10	1	-1E+10	1
4902663	8	C	10/23/2023	06:12	-127.726	48.685	0	837.90	0	3.8040	0	34.3090	0	27.263	0	829.142	0	7.7	4	2.4	4	-1E+10	1	-1E+10	1	-1E+10	1	-1E+10	1	-1E+10	1	-1E+10	1
4902663	8	C	10/23/2023	06:12	-127.726	48.685	0	862.80	0	3.7530	0	34.3180	0	27.275	0	853.731	0	7.6	4	2.4	4	-1E+10	1	-1E+10	1	-1E+10	1	-1E+10	1	-1E+10	1	-1E+10	1
4902663	8	C	10/23/2023	06:12	-127.726	48.685	0	887.80	0	3.6960	0	34.3300	0	27.290	0	878.415	0	7.5	4	2.4	4	-1E+10	1	-1E+10	1	-1E+10	1	-1E+10	1	-1E+10	1	-1E+10	1
4902663	8	C	10/23/2023	06:12	-127.726	48.685	0	912.70	0	3.6440	0	34.3440	0	27.307	0	902.998	0	7.5	4	2.3	4	-1E+10	1	-1E+10	1	-1E+10	1	-1E+10	1	-1E+10	1	-1E+10	1
4902663	8	C	10/23/2023	06:12	-127.726	48.685	0	937.50	0	3.5780	0	34.3560	0	27.323	0	927.480	0	7.6	4	2.4	4	-1E+10	1	-1E+10	1	-1E+10	1	-1E+10	1	-1E+10	1	-1E+10	1
4902663	8	C	10/23/2023	06:12	-127.726	48.685	0	962.70	0	3.5230	0	34.3670	0	27.337	0	952.353	0	7.8	4	2.4	4	-1E+10	1	-1E+10	1	-1E+10	1	-1E+10	1	-1E+10	1	-1E+10	1
4902663	8	C	10/23/2023	06:12	-127.726	48.685	0	988.40	0	3.4710	0	34.3770	0	27.350	0	977.717	0	8.1	4	2.5	4	-1E+10	1	-1E+10	1	-1E+10	1	-1E+10	1	-1E+10	1	-1E+10	1
4902663	8	C	10/23/2023	06:12	-127.726	48.685	0	1013.00	0	3.4080	0	34.3870	0	27.365	0	1001.992	0	8.4	4	2.6	4	-1E+10	1	-1E+10	1	-1E+10	1	-1E+10	1	-1E+10	1	-1E+10	1
4902663	8	C	10/23/2023	06:12	-127.726	48.685	0	1037.70	0	3.3510	0	34.3970	0	27.378	0	1026.363	0	8.8	4	2.8	4	-1E+10	1	-1E+10	1	-1E+10	1	-1E+10	1	-1E+10	1	-1E+10	1
4902663	8	C	10/23/2023	06:12	-127.726	48.685	0	1062.60	0	3.2970	0	34.4050	0	27.390	0	1050.929	0	9.2	4	2.9	4	-1E+10	1	-1E+10	1	-1E+10	1	-1E+10	1	-1E+10	1	-1E+10	1
4902663	8	C	10/23/2023	06:12	-127.726	48.685	0	1087.80	0	3.2480	0	34.4130	0	27.401	0	1075.788	0	9.7	4	3.0	4	-1E+10	1	-1E+10	1	-1E+10	1	-1E+10	1	-1E+10	1	-1E+10	1
4902663	8	C	10/23/2023	06:12	-127.726	48.685	0	1112.60	0	3.2090	0	34.4200	0	27.410	0	1100.249	0	10.1	4	3.1	4	-1E+10	1	-1E+10	1	-1E+10	1	-1E+10	1	-1E+10	1	-1E+10	1
4902663	8	C	10/23/2023	06:12	-127.726	48.685	0	1137.80	0	3.1500	0	34.4270	0	27.421	0	1125.102	0	10.7	4	3.3	4	-1E+10	1	-1E+10	1	-1E+10	1	-1E+10	1	-1E+10	1	-1E+10	1
4902663	8	C	10/23/2023	06:12	-127.726	48.685	0	1163.10	0	3.1100	0	34.4330	0	27.430	0	1150.050	0	11.2	4	3.5	4	-1E+10	1	-1E+10	1	-1E+10	1	-1E+10	1	-1E+10	1	-1E+10	1
4902663	8	C	10/23/2023	06:12	-127.726	48.685	0	1187.80	0	3.0510	0	34.4410	0	27.442	0	1174.404	0	11.9	4	3.7	4	-1E+10	1	-1E+10	1	-1E+10	1	-1E+10	1	-1E+10	1	-1E+10	1
4902663	8	C	10/23/2023	06:12	-127.726	48.685	0	1212.60	0	2.9870	0	34.4460	0	27.452	0	1198.854	0	12.4	4	3.8	4	-1E+10	1	-1E+10	1	-1E+10	1	-1E+10	1	-1E+10	1	-1E+10	1
4902663	8	C	10/23/2023	06:12	-127.726	48.685	0	1237.40	0	2.9350	0	34.4510	0	27.460	0	1223.301	0	13.0	4	4.0	4	-1E+10	1	-1E+10	1	-1E+10	1	-1E+10	1	-1E+10	1	-1E+10	1
4902663	8	C	10/23/2023	06:12	-127.726	48.685	0	1263.50	0	2.8920	0	34.4570	0	27.469	0	1249.026	0	13.8	4	4.2	4	-1E+10	1	-1E+10	1	-1E+10	1	-1E+10	1	-1E+10	1	-1E+10	1
4902663	8	C	10/23/2023	06:12	-127.726	48.685	0	1288.10	0	2.8420	0	34.4650	0	27.480	0	1273.270	0	14.7	4	4.5	4	-1E+10	1	-1E+10	1	-1E+10	1	-1E+10	1	-1E+10	1	-1E+10	1
4902663	8	C	10/23/2023	06:12	-127.726	48.685	0	1313.10	0	2.7930	0	34.4710	0	27.489	0	1297.905	0	15.7	4	4.8	4	-1E+10	1	-1E+10	1	-1E+10	1	-1E+10	1	-1E+10	1	-1E+10	1
4902663	8	C	10/23/2023	06:12	-127.726	48.685	0	1337.80	0	2.7420	0	34.4770	0	27.499	0	1322.241	0	16.8	4	5.2	4	-1E+10	1	-1E+10	1	-1E+10	1	-1E+10	1	-1E+10	1	-1E+10	1
4902663	8	C	10/23/2023	06:12	-127.726	48.685	0	1362.70	0	2.6870	0	34.4840	0	27.509	0	1346.772	0	18.1	4	5.6	4	-1E+10	1	-1E+10	1	-1E+10	1	-1E+10	1	-1E+10	1	-1E+10	1
4902663	8	C	10/23/2023	06:12	-127.726	48.685	0	1387.80	0	2.6420	0	34.4910	0	27.519	0	1371.497	0	19.6	4	6.0	4	-1E+10	1	-1E+10	1	-1E+10	1	-1E+10	1	-1E+10	1	-1E+10	1
4902663	8	C	10/23/2023	06:12	-127.726	48.685	0	1413.00	0	2.6060	0	34.5010	0	27.530	0	1396.318	0	21.7	4	6.6	4	-1E+10	1	-1E+10	1	-1E+10	1	-1E+10	1	-1E+10	1	-1E+10	1
4902663	8	C	10/23/2023	06:12	-127.726	48.685	0	1438.00	0	2.5460	0	34.5040	0	27.538	0	1420.939	0	22.3	4	6.8	4	-1E+10	1	-1E+10	1	-1E+10	1	-1E+10	1	-1E+10	1	-1E+10	1
4902663	8	C	10/23/2023	06:12	-127.726	48.685	0	1463.10	0	2.5070	0	34.5080	0	27.544	0	1445.655	0	23.5	4	7.2	4	-1E+10	1	-1E+10	1	-1E+10	1	-1E+10	1	-1E+10	1	-1E+10	1
4902663	8	C	10/23/2023	06:12	-127.726	48.685	0	1488.20	0	2.4720	0	34.5130	0	27.551	0	1470.368	0	25.1	4	7.6	4	-1E+10	1	-1E+10	1	-1E+10	1	-1E+10	1	-1E+10	1	-1E+10	1
4902663	8	C	10/23/2023	06:12	-127.726	48.685	0	1513.10	0	2.4360	0	34.5170	0	27.558	0	1494.882	0	26.5	4	8.1	4	-1E+10	1	-1E+10	1	-1E+10	1	-1E+10	1	-1E+10	1	-1E+10	1
4902663	8	C	10/23/2023	06:12	-127.726	48.685	0	1537.90	0	2.3990	0	34.5220	0	27.565	0	1519.295	0	28.0	4	8.5	4	-1E+10	1	-1E+10	1	-1E+10	1	-1E+10	1	-1E+10	1	-1E+10	1
4902663	8	C	10/23/2023	06:12	-127.726	48.685	0	1562.90	0	2.3630	0	34.5260	0	27.571	0	1543.901	0	29.1	4	8.9	4	-1E+10	1	-1E+10	1	-1E+10	1	-1E+10	1	-1E+10	1	-1E+10	1
4902663	8	C	10/23/2023	06:12	-127.726	48.685	0	1587.70	0	2.3260	0	34.5300	0	27.578	0	1568.308	0	30.5	4	9.3	4	-1E+10	1	-1E+10	1	-1E+10	1	-1E+10	1	-1E+10	1	-1E+10	1
4902663	8	C	10/23/2023	06:12	-127.726	48.685	0	1612.70	0	2.2960	0	34.5340	0	27.583	0	1592.908	0	31.7	4	9.6	4	-1E+10	1	-1E+10	1	-1E+10	1	-1E+10	1	-1E+10	1	-1E+10	1
4902663	8	C	10/23/2023	06:12	-127.726	48.685	0	1638.30	0	2.2640	0	34.5380	0	27.589	0	1618.096	0	33.0	4	10.0	4	-1E+10	1	-1E+10	1	-1E+10	1	-1E+10	1	-1E+10	1	-1E+10	1
4902663	8	C	10/23/2023	06:12	-127.726	48.685	0	1663.10	0	2.2390	0	34.5420	0	27.595	0	1642.494	0	34.2	4	10.4	4	-1E+10	1	-1E+10	1	-1E+10	1	-1E+10	1	-1E+10	1	-1E+10	1
4902663	8	C	10/23/2023	06:12	-127.726	48.685	0	1687.90	0	2.2140	0	34.5450	0	27.599	0	1666.890	0	35.4	4	10.7	4	-1E+10	1	-1E+10	1	-1E+10	1	-1E+10	1	-1E+10	1	-1E+10	1
4902663	8	C	10/23/2023	06:12	-127.726	48.685	0	1713.00	0	2.1870	0	34.5490	0	27.605	0	1691.577	0	36.9	4	11.2	4	-1E+10	1	-1E+10	1	-1E+10	1	-1E+10	1	-1E+10	1	-1E+10	1
4902663	8	C	10/23/2023	06:12	-127.726	48.685	0	1737.80	0	2.1650	0	34.5520	0	27.609	0	1715.967	0	38.1	4	11.5	4	-1E+10	1	-1E+10	1	-1E+10	1	-1E+10	1	-1E+10	1	-1E+10	1
4902663	8	C	10/23/2023	06:12	-127.726	48.685	0	1762.80	0	2.1430	0	34.5560	0	27.614	0	1740.550	0	39.5	4	12.0	4	-1E+10	1	-1E+10	1	-1E+10	1	-1E+10	1	-1E+10	1	-1E+10	1
4902663	8	C	10/23/2023	06:12	-127.726	48.685	0	1787.70	0	2.1160	0	34.5600	0	27.620	0	1765.032	0	41.2	4	12.5	4	-1E+10	1	-1E+10	1	-1E+10	1	-1E+10	1	-1E+10	1	-1E+10	1
4902663	8	C	10/23/2023	06:12	-127.726	48.685	0	1812.80	0	2.0960	0	34.5640	0	27.624	0	1789.709	0	42.5	4	12.9	4	-1E+10	1	-1E+10	1	-1E+10	1	-1E+10	1	-1E+10	1	-1E+10	1
4902663	8	C	10/23/2023	06:12	-127.726	48.685	0	1837.70	0	2.0760	0	34.5670	0	27.629	0	1814.185	0	43.9	4	13.3	4	-1E+10	1	-1E+10	1	-1E+10	1	-1E+10	1	-1E+10	1	-1E+10	1
4902663	8	C	10/23/2023	06:12	-127.726	48.685	0	1862.70	0	2.0570	0	34.5710	0	27.633	0	1838.757	0	45.4	4	13.7	4	-1E+10	1	-1E+10	1	-1E+10	1	-1E+10	1	-1E+10	1	-1E+10	1
4902663	8	C	10/23/2023	06:12	-127.726	48.685	0	1887.80	0	2.0350	0	34.5750	0	27.638	0	1863.425	0	46.9	4	14.2	4	-1E+10	1	-1E+10	1	-1E+10	1	-1E+10	1	-1E+10	1	-1E+10	1
4902663	8	C	10/23/2023	06:12	-127.726	48.685	0	1913.00	0	2.0170	0	34.5780	0	27.642	0	1888.188	0	48.2	4	14.5	4	-1E+10	1	-1E+10	1	-1E+10	1	-1E+10	1	-1E+10	1	-1E+10	1
4902663	8	C	10/23/2023	06:12	-127.726	48.685	0	1937.70	0	2.0010	0	34.5810	0	27.646	0	1912.456	0	49.4	4	14.9	4	-1E+10	1	-1E+10	1	-1E+10	1	-1E+10	1	-1E+10	1	-1E+10	1
4902663	8	C	10/23/2023	06:12	-127.726	48.685	0	1962.80	0	1.9850	0	34.5840	0	27.650	0	1937.115	0	50.7	4	15.3	4	-1E+10	1	-1E+10	1	-1E+10	1	-1E+10	1	-1E+10	1	-1E+10	1
4902663	8	C	10/23/2023	06:12	-127.726	48.685	0	1988.00	0	1.9660	0	34.5890	0	27.656	0	1961.870	0	52.1	4	15.7	4	-1E+10	1	-1E+10	1	-1E+10	1	-1E+10	1	-1E+10	1	-1E+10	1
4902663	8	C	10/23/2023	06:12	-127.726	48.685	0	2003.40	0	1.9520	0	34.5920	0	27.659	0	1976.996	0	52.0	4	15.7	4	-1E+10	1	-1E+10	1	-1E+10	1	-1E+10	1	-1E+10	1	-1E+10	1
4902663	8	C	10/23/2023	06:12	-127.726	48.685	0																										
4902663	9	C	11/02/2023	06:21	-127.638	48.550	0	0.10	0	12.9040	0	32.1040	0	24.170	0	0.099	0	-1e10	1	-1e10	1	-1E+10	1	-1E+10	1	-1E+10	1	-1E+10	1	-1E+10	1	-1E+10	1
4902663	9	C	11/02/2023	06:21	-127.638	48.550	0	0.40	0	12.8870	0	32.0660	0	24.144	0	0.397	0	251.8	4	95.4	4	-1E+10	1	-1E+10	1	-1E+10	1	-1E+10	1	-1E+10	1	-1E+10	1
4902663	9	C	11/02/2023	06:21	-127.638	48.550	0	1.00	0	12.8930	0	32.0640	0	24.141	0	0.992	0	-1e10	1	-1e10	1	-1E+10	1	-1E+10	1	-1E+10	1	-1E+10	1	-1E+10	1	-1E+10	1
4902663	9	C	11/02/2023	06:21	-127.638	48.550	0	1.10	0	12.8938	0	32.0656	0	24.142	0	1.091	0	251.7	4	95.4	4	-1E+10	1	-1E+10	1	-1E+10	1	-1E+10	1	-1E+10	1	-1E+10	1
4902663	9	C	11/02/2023	06:21	-127.638	48.550	0	2.00	0	12.9010	0	32.0800	0	24.152	0	1.983	0	251.5	4	95.3	4	-1E+10	1	-1E+10	1	-1E+10	1	-1E+10	1	-1E+10	1	-1E+10	1
4902663	9	C	11/02/2023	06:21	-127.638	48.550	0	2.50	0	12.9015	0	32.0977	0	24.165	0	2.479	0	251.4	4	95.3	4	-1E+10	1	-1E+10	1	-1E+10	1	-1E+10	1	-1E+10	1	-1E+10	1
4902663	9	C	11/02/2023	06:21	-127.638	48.550	0	3.10	0	12.9020	0	32.1190	0	24.182	0	3.074	0	251.3	4	95.3	4	-1E+10	1	-1E+10	1	-1E+10	1	-1E+10	1	-1E+10	1	-1E+10	1
4902663	9	C	11/02/2023	06:21	-127.638	48.550	0	4.00	0	12.9020	0	32.1220	0	24.184	0	3.966	0	251.2	4	95.3	4	-1E+10	1	-1E+10	1	-1E+10	1	-1E+10	1	-1E+10	1	-1E+10	1
4902663	9	C	11/02/2023	06:21	-127.638	48.550	0	4.90	0	12.9030	0	32.1150	0	24.178	0	4.859	0	251.1	4	95.2	4	-1E+10	1	-1E+10	1	-1E+10	1	-1E+10	1	-1E+10	1	-1E+10	1
4902663	9	C	11/02/2023	06:21	-127.638	48.550	0	5.90	0	12.9040	0	32.1150	0	24.178	0	5.850	0	251.1	4	95.2	4	-1E+10	1	-1E+10	1	-1E+10	1	-1E+10	1	-1E+10	1	-1E+10	1
4902663	9	C	11/02/2023	06:21	-127.638	48.550	0	6.80	0	12.9030	0	32.1150	0	24.178	0	6.742	0	251.0	4	95.2	4	-1E+10	1	-1E+10	1	-1E+10	1	-1E+10	1	-1E+10	1	-1E+10	1
4902663	9	C	11/02/2023	06:21	-127.638	48.550	0	7.80	0	12.9040	0	32.1150	0	24.178	0	7.734	0	251.0	4	95.2	4	-1E+10	1	-1E+10	1	-1E+10	1	-1E+10	1	-1E+10	1	-1E+10	1
4902663	9	C	11/02/2023	06:21	-127.638	48.550	0	8.90	0	12.9020	0	32.1160	0	24.180	0	8.825	0	251.0	4	95.2	4	-1E+10	1	-1E+10	1	-1E+10	1	-1E+10	1	-1E+10	1	-1E+10	1
4902663	9	C	11/02/2023	06:21	-127.638	48.550	0	10.10	0	12.9030	0	32.1160	0	24.179	0	10.014	0	250.9	4	95.2	4	-1E+10	1	-1E+10	1	-1E+10	1	-1E+10	1	-1E+10	1	-1E+10	1
4902663	9	C	11/02/2023	06:21	-127.638	48.550	0	15.70	0	12.9040	0	32.1150	0	24.179	0	15.567	0	250.7	4	95.1	4	-1E+10	1	-1E+10	1	-1E+10	1	-1E+10	1	-1E+10	1	-1E+10	1
4902663	9	C	11/02/2023	06:21	-127.638	48.550	0	25.80	0	12.9060	0	32.1160	0	24.179	0	25.581	0	250.3	4	94.9	4	-1E+10	1	-1E+10	1	-1E+10	1	-1E+10	1	-1E+10	1	-1E+10	1
4902663	9	C	11/02/2023	06:21	-127.638	48.550	0	35.80	0	12.8780	0	32.1210	0	24.189	0	35.495	0	248.5	4	94.2	4	-1E+10	1	-1E+10	1	-1E+10	1	-1E+10	1	-1E+10	1	-1E+10	1
4902663	9	C	11/02/2023	06:21	-127.638	48.550	0	45.50	0	11.5460	0	32.2040	0	24.503	0	45.111	0	252.3	4	93.1	4	-1E+10	1	-1E+10	1	-1E+10	1	-1E+10	1	-1E+10	1	-1E+10	1
4902663	9	C	11/02/2023	06:21	-127.638	48.550	0	55.40	0	8.5080	0	32.3380	0	25.110	0	54.925	0	271.4	4	93.8	4	-1E+10	1	-1E+10	1	-1E+10	1	-1E+10	1	-1E+10	1	-1E+10	1
4902663	9	C	11/02/2023	06:21	-127.638	48.550	0	65.40	0	7.6050	0	32.3430	0	25.245	0	64.838	0	265.5	4	89.9	4	-1E+10	1	-1E+10	1	-1E+10	1	-1E+10	1	-1E+10	1	-1E+10	1
4902663	9	C	11/02/2023	06:21	-127.638	48.550	0	75.20	0	7.5310	0	32.4320	0	25.325	0	74.552	0	238.4	4	80.7	4	-1E+10	1	-1E+10	1	-1E+10	1	-1E+10	1	-1E+10	1	-1E+10	1
4902663	9	C	11/02/2023	06:21	-127.638	48.550	0	85.00	0	7.6490	0	32.6680	0	25.494	0	84.265	0	199.8	4	67.9	4	-1E+10	1	-1E+10	1	-1E+10	1	-1E+10	1	-1E+10	1	-1E+10	1
4902663	9	C	11/02/2023	06:21	-127.638	48.550	0	94.90	0	7.7400	0	32.9640	0	25.714	0	94.077	0	171.8	4	58.6	4	-1E+10	1	-1E+10	1	-1E+10	1	-1E+10	1	-1E+10	1	-1E+10	1
4902663	9	C	11/02/2023	06:21	-127.638	48.550	0	105.00	0	7.6930	0	33.1690	0	25.882	0	104.087	0	157.8	4	53.9	4	-1E+10	1	-1E+10	1	-1E+10	1	-1E+10	1	-1E+10	1	-1E+10	1
4902663	9	C	11/02/2023	06:21	-127.638	48.550	0	115.20	0	7.6620	0	33.3030	0	25.992	0	114.196	0	145.3	4	49.6	4	-1E+10	1	-1E+10	1	-1E+10	1	-1E+10	1	-1E+10	1	-1E+10	1
4902663	9	C	11/02/2023	06:21	-127.638	48.550	0	125.40	0	7.7710	0	33.5140	0	26.142	0	124.304	0	128.3	4	44.0	4	-1E+10	1	-1E+10	1	-1E+10	1	-1E+10	1	-1E+10	1	-1E+10	1
4902663	9	C	11/02/2023	06:21	-127.638	48.550	0	135.60	0	7.7650	0	33.6480	0	26.249	0	134.411	0	121.9	4	41.8	4	-1E+10	1	-1E+10	1	-1E+10	1	-1E+10	1	-1E+10	1	-1E+10	1
4902663	9	C	11/02/2023	06:21	-127.638	48.550	0	145.20	0	7.6480	0	33.7090	0	26.313	0	143.924	0	118.4	4	40.6	4	-1E+10	1	-1E+10	1	-1E+10	1	-1E+10	1	-1E+10	1	-1E+10	1
4902663	9	C	11/02/2023	06:21	-127.638	48.550	0	155.10	0	7.5080	0	33.7420	0	26.359	0	153.733	0	115.8	4	39.6	4	-1E+10	1	-1E+10	1	-1E+10	1	-1E+10	1	-1E+10	1	-1E+10	1
4902663	9	C	11/02/2023	06:21	-127.638	48.550	0	165.20	0	7.3800	0	33.7750	0	26.404	0	163.740	0	111.7	4	38.1	4	-1E+10	1	-1E+10	1	-1E+10	1	-1E+10	1	-1E+10	1	-1E+10	1
4902663	9	C	11/02/2023	06:21	-127.638	48.550	0	175.30	0	7.2540	0	33.8180	0	26.455	0	173.746	0	107.0	4	36.4	4	-1E+10	1	-1E+10	1	-1E+10	1	-1E+10	1	-1E+10	1	-1E+10	1
4902663	9	C	11/02/2023	06:21	-127.638	48.550	0	185.10	0	7.1360	0	33.8610	0	26.505	0	183.455	0	103.5	4	35.1	4	-1E+10	1	-1E+10	1	-1E+10	1	-1E+10	1	-1E+10	1	-1E+10	1
4902663	9	C	11/02/2023	06:21	-127.638	48.550	0	195.30	0	6.9480	0	33.8720	0	26.540	0	193.560	0	100.6	4	33.9	4	-1E+10	1	-1E+10	1	-1E+10	1	-1E+10	1	-1E+10	1	-1E+10	1
4902663	9	C	11/02/2023	06:21	-127.638	48.550	0	212.80	0	6.6790	0	33.8740	0	26.578	0	210.895	0	95.1	4	31.9	4	-1E+10	1	-1E+10	1	-1E+10	1	-1E+10	1	-1E+10	1	-1E+10	1
4902663	9	C	11/02/2023	06:21	-127.638	48.550	0	238.30	0	6.3800	0	33.8910	0	26.631	0	236.152	0	87.0	4	29.0	4	-1E+10	1	-1E+10	1	-1E+10	1	-1E+10	1	-1E+10	1	-1E+10	1
4902663	9	C	11/02/2023	06:21	-127.638	48.550	0	262.70	0	6.1990	0	33.9080	0	26.668	0	260.317	0	80.9	4	26.8	4	-1E+10	1	-1E+10	1	-1E+10	1	-1E+10	1	-1E+10	1	-1E+10	1
4902663	9	C	11/02/2023	06:21	-127.638	48.550	0	287.70	0	6.0070	0	33.9150	0	26.698	0	285.073	0	76.4	4	25.2	4	-1E+10	1	-1E+10	1	-1E+10	1	-1E+10	1	-1E+10	1	-1E+10	1
4902663	9	C	11/02/2023	06:21	-127.638	48.550	0	312.80	0	5.8240	0	33.9250	0	26.729	0	309.925	0	70.6	4	23.2	4	-1E+10	1	-1E+10	1	-1E+10	1	-1E+10	1	-1E+10	1	-1E+10	1
4902663	9	C	11/02/2023	06:21	-127.638	48.550	0	337.90	0	5.6860	0	33.9400	0	26.757	0	334.774	0	63.6	4	20.9	4	-1E+10	1	-1E+10	1	-1E+10	1	-1E+10	1	-1E+10	1	-1E+10	1
4902663	9	C	11/02/2023	06:21	-127.638	48.550	0	362.60	0	5.5470	0	33.9600	0	26.790	0	359.224	0	57.2	4	18.7	4	-1E+10	1	-1E+10	1	-1E+10	1	-1E+10	1	-1E+10	1	-1E+10	1
4902663	9	C	11/02/2023	06:21	-127.638	48.550	0	387.80	0	5.4320	0	33.9790	0	26.819	0	384.166	0	50.1	4	16.3	4	-1E+10	1	-1E+10	1	-1E+10	1	-1E+10	1	-1E+10	1	-1E+10	1
4902663	9	C	11/02/2023	06:21	-127.638	48.550	0	413.00	0	5.3060	0	34.0000	0	26.851	0	409.105	0	43.9	4	14.3	4	-1E+10	1	-1E+10	1	-1E+10	1	-1E+10	1	-1E+10	1	-1E+10	1
4902663	9	C	11/02/2023	06:21	-127.638	48.550	0	437.70	0	5.1700	0	34.0120	0	26.877	0	433.546	0	39.1	4	12.7	4	-1E+10	1	-1E+10	1	-1E+10	1	-1E+10	1	-1E+10	1	-1E+10	1
4902663	9	C	11/02/2023	06:21	-127.638	48.550	0	463.60	0	5.0880	0	34.0460	0	26.913	0	459.172	0	32.0	4	10.4	4	-1E+10	1	-1E+10	1	-1E+10	1	-1E+10	1	-1E+10	1	-1E+10	1
4902663	9	C	11/02/2023	06:21	-127.638	48.550	0	487.90	0	4.9500	0	34.0690	0	26.947	0	483.212	0	27.5	4	8.9	4	-1E+10	1	-1E+10	1	-1E+10	1	-1E+10	1	-1E+10	1	-1E+10	1
4902663	9	C	11/02/2023	06:21	-127.638	48.550	0	512.90	0	4.8040	0	34.0880	0	26.979	0	507.941	0	23.6	4	7.6	4	-1E+10	1	-1E+10	1	-1E+10	1	-1E+10	1	-1E+10	1	-1E+10	1
4902663	9	C	11/02/2023	06:21	-127.638	48.550	0	538.20	0	4.7610	0	34.1170	0	27.007	0	532.964	0	19.6	4	6.3	4	-1E+10	1	-1E+10	1	-1E+10	1	-1E+10	1	-1E+10	1	-1E+10	1
4902663	9	C	11/02/2023	06:21	-127.638	48.550	0	563.00	0	4.6860	0	34.1390	0	27.033	0	557.489	0	16.6	4	5.3	4	-1E+10	1	-1E+10	1	-1E+10	1	-1E+10	1	-1E+10	1	-1E+10	1
4902663	9	C	11/02/2023	06:21	-127.638	48.550	0	587.70	0	4.5970	0	34.1610	0	27.060	0	581.913	0	14.1	4	4.5	4	-1E+10	1	-1E+10	1	-1E+10	1	-1E+10	1	-1E+10	1	-1E+10	1
4902663	9	C	11/02/2023	06:21	-127.638	48.550	0	612.90	0	4.5270	0	34.1800	0	27.083	0	606.828	0	12.5	4	4.0	4	-1E+10	1	-1E+10	1	-1E+10	1	-1E+10	1	-1E+10	1	-1E+10	1
4902663	9	C	11/02/2023	06:21	-127.638	48.550	0	637.70	0	4.4540	0	34.1980	0	27.106	0	631.345	0	11.0	4	3.5	4	-1E+10	1	-1E+10	1	-1E+10	1	-1E+10	1	-1E+10	1	-1E+10	1
4902663	9	C	11/02/2023	06:21	-127.638	48.550	0	662.90	0	4.3980	0	34.2160	0	27.126	0	656.254	0	9.8	4	3.1	4	-1E+10	1	-1E+10	1	-1E+10	1	-1E+10	1	-1E+10	1	-1E+10	1
4902663	9	C	11/02/2023	06:21	-127.638	48.550	0	688.30	0	4.3360	0	34.2300	0	27.144	0	681.358	0	9.1	4	2.9	4	-1E+10	1	-1E+10	1	-1E+10	1	-1E+10	1	-1E+10	1	-1E+10	1
4902663	9	C	11/02/2023	06:21	-127.638	48.550	0	713.30	0	4.3060	0	34.2440	0	27.159	0	706.063	0	8.5	4	2.7	4	-1E+10	1	-1E+10	1	-1E+10	1	-1E+10	1	-1E+10	1	-1E+10	1
4902663	9	C	11/02/2023	06:21	-127.638	48.550	0	738.10	0	4.2140	0	34.2550	0	27.177	0	730.568	0	8.0	4	2.5	4	-1E+10	1	-1E+10	1	-1E+10	1	-1E+10	1	-1E+10	1	-1E+10	1
4902663	9	C	11/02/2023	06:21	-127.638	48.550	0	763.20	0	4.1300	0	34.2660	0	27.195	0	755.367	0	7.6	4	2.4	4	-1E+10	1	-1E+10	1	-1E+10	1	-1E+10	1	-1E+10	1	-1E+10	1
4902663	9	C	11/02/2023	06:21	-127.638	48.550	0	787.80	0	4.0140	0	34.2760	0	27.215	0	779.668	0	8.0	4	2.5	4	-1E+10	1	-1E+10	1	-1E+10	1	-1E+10	1	-1E+10	1	-1E+10	1
4902663	9	C	11/02/2023	06:21	-127.638	48.550	0	812.70	0	3.9160	0	34.2830	0	27.231	0	804.264	0	7.9	4	2.5	4	-1E+10	1	-1E+10	1	-1E+10	1	-1E+10	1	-1E+10	1	-1E+10	1
4902663	9	C	11/02/2023	06:21	-127.638	48.550	0	837.90	0	3.8330	0	34.2950	0	27.249	0	829.152	0	7.8	4	2.5	4	-1E+10	1	-1E+10	1	-1E+10	1	-1E+10	1	-1E+10	1	-1E+10	1
4902663	9	C	11/02/2023	06:21	-127.638	48.550	0	863.00	0	3.7800	0	34.3060	0	27.263	0	853.939	0	7.6	4	2.4	4	-1E+10	1	-1E+10	1	-1E+10	1	-1E+10	1	-1E+10	1	-1E+10	1
4902663	9	C	11/02/2023	06:21	-127.638	48.550	0	888.00	0	3.7410	0	34.3170	0	27.276	0	878.624	0	7.5	4	2.4	4	-1E+10	1	-1E+10	1	-1E+10	1	-1E+10	1	-1E+10	1	-1E+10	1
4902663	9	C	11/02/2023	06:21	-127.638	48.550	0	913.20	0	3.6830	0	34.3270	0	27.289	0	903.503	0	7.5	4	2.3	4	-1E+10	1	-1E+10	1	-1E+10	1	-1E+10	1	-1E+10	1	-1E+10	1
4902663	9	C	11/02/2023	06:21	-127.638	48.550	0	937.90	0	3.6350	0	34.3380	0	27.303	0	927.886	0	7.5	4	2.3	4	-1E+10	1	-1E+10	1	-1E+10	1	-1E+10	1	-1E+10	1	-1E+10	1
4902663	9	C	11/02/2023	06:21	-127.638	48.550	0	962.50	0	3.5850	0	34.3480	0	27.316	0	952.168	0	7.6	4	2.4	4	-1E+10	1	-1E+10	1	-1E+10	1	-1E+10	1	-1E+10	1	-1E+10	1
4902663	9	C	11/02/2023	06:21	-127.638	48.550	0	987.90	0	3.5380	0	34.3620	0	27.332	0	977.236	0	7.8	4	2.4	4	-1E+10	1	-1E+10	1	-1E+10	1	-1E+10	1	-1E+10	1	-1E+10	1
4902663	9	C	11/02/2023	06:21	-127.638	48.550	0	1013.40	0	3.4920	0	34.3730	0	27.345	0	1002.399	0	8.0	4	2.5	4	-1E+10	1	-1E+10	1	-1E+10	1	-1E+10	1	-1E+10	1	-1E+10	1
4902663	9	C	11/02/2023	06:21	-127.638	48.550	0	1038.00	0	3.4370	0	34.3800	0	27.356	0	1026.672	0	8.3	4	2.6	4	-1E+10	1	-1E+10	1	-1E+10	1	-1E+10	1	-1E+10	1	-1E+10	1
4902663	9	C	11/02/2023	06:21	-127.638	48.550	0	1062.70	0	3.3870	0	34.3880	0	27.368	0	1051.041	0	8.6	4	2.7	4	-1E+10	1	-1E+10	1	-1E+10	1	-1E+10	1	-1E+10	1	-1E+10	1
4902663	9	C	11/02/2023	06:21	-127.638	48.550	0	1088.10	0	3.3150	0	34.3980	0	27.383	0	1076.097	0	9.1	4	2.8	4	-1E+10	1	-1E+10	1	-1E+10	1	-1E+10	1	-1E+10	1	-1E+10	1
4902663	9	C	11/02/2023	06:21	-127.638	48.550	0	1113.10	0	3.2490	0	34.4080	0	27.397	0	1100.756	0	9.7	4	3.0	4	-1E+10	1	-1E+10	1	-1E+10	1	-1E+10	1	-1E+10	1	-1E+10	1
4902663	9	C	11/02/2023	06:21	-127.638	48.550	0	1137.80	0	3.1990	0	34.4170	0	27.409	0	1125.116	0	10.2	4	3.2	4	-1E+10	1	-1E+10	1	-1E+10	1	-1E+10	1	-1E+10	1	-1E+10	1
4902663	9	C	11/02/2023	06:21	-127.638	48.550	0	1162.60	0	3.1330	0	34.4260	0	27.422	0	1149.571	0	10.8	4	3.4	4	-1E+10	1	-1E+10	1	-1E+10	1	-1E+10	1	-1E+10	1	-1E+10	1
4902663	9	C	11/02/2023	06:21	-127.638	48.550	0	1187.80	0	3.0800	0	34.4310	0	27.431	0	1174.419	0	11.3	4	3.5	4	-1E+10	1	-1E+10	1	-1E+10	1	-1E+10	1	-1E+10	1	-1E+10	1
4902663	9	C	11/02/2023	06:21	-127.638	48.550	0	1212.70	0	3.0300	0	34.4370	0	27.441	0	1198.967	0	12.0	4	3.7	4	-1E+10	1	-1E+10	1	-1E+10	1	-1E+10	1	-1E+10	1	-1E+10	1
4902663	9	C	11/02/2023	06:21	-127.638	48.550	0	1237.90	0	2.9920	0	34.4470	0	27.452	0	1223.809	0	13.0	4	4.0	4	-1E+10	1	-1E+10	1	-1E+10	1	-1E+10	1	-1E+10	1	-1E+10	1
4902663	9	C	11/02/2023	06:21	-127.638	48.550	0	1262.80	0	2.9580	0	34.4550	0	27.462	0	1248.351	0	14.0	4	4.3	4	-1E+10	1	-1E+10	1	-1E+10	1	-1E+10	1	-1E+10	1	-1E+10	1
4902663	9	C	11/02/2023	06:21	-127.638	48.550	0	1287.50	0	2.8930	0	34.4600	0	27.472	0	1272.694	0	14.5	4	4.5	4	-1E+10	1	-1E+10	1	-1E+10	1	-1E+10	1	-1E+10	1	-1E+10	1
4902663	9	C	11/02/2023	06:21	-127.638	48.550	0	1312.80	0	2.8160	0	34.4650	0	27.483	0	1297.625	0	15.5	4	4.8	4	-1E+10	1	-1E+10	1	-1E+10	1	-1E+10	1	-1E+10	1	-1E+10	1
4902663	9	C	11/02/2023	06:21	-127.638	48.550	0	1338.30	0	2.7610	0	34.4740	0	27.495	0	1322.751	0	16.7	4	5.1	4	-1E+10	1	-1E+10	1	-1E+10	1	-1E+10	1	-1E+10	1	-1E+10	1
4902663	9	C	11/02/2023	06:21	-127.638	48.550	0	1363.30	0	2.7190	0	34.4810	0	27.504	0	1347.380	0	18.6	4	5.7	4	-1E+10	1	-1E+10	1	-1E+10	1	-1E+10	1	-1E+10	1	-1E+10	1
4902663	9	C	11/02/2023	06:21	-127.638	48.550	0	1387.80	0	2.6830	0	34.4890	0	27.514	0	1371.514	0	20.1	4	6.2	4	-1E+10	1	-1E+10	1	-1E+10	1	-1E+10	1	-1E+10	1	-1E+10	1
4902663	9	C	11/02/2023	06:21	-127.638	48.550	0	1412.60	0	2.6280	0	34.4920	0	27.521	0	1395.941	0	21.0	4	6.4	4	-1E+10	1	-1E+10	1	-1E+10	1	-1E+10	1	-1E+10	1	-1E+10	1
4902663	9	C	11/02/2023	06:21	-127.638	48.550	0	1437.70	0	2.5800	0	34.4960	0	27.528	0	1420.661	0	22.2	4	6.8	4	-1E+10	1	-1E+10	1	-1E+10	1	-1E+10	1	-1E+10	1	-1E+10	1
4902663	9	C	11/02/2023	06:21	-127.638	48.550	0	1462.70	0	2.5370	0	34.5010	0	27.536	0	1445.279	0	23.4	4	7.1	4	-1E+10	1	-1E+10	1	-1E+10	1	-1E+10	1	-1E+10	1	-1E+10	1
4902663	9	C	11/02/2023	06:21	-127.638	48.550	0	1487.80	0	2.5020	0	34.5060	0	27.543	0	1469.993	0	24.6	4	7.5	4	-1E+10	1	-1E+10	1	-1E+10	1	-1E+10	1	-1E+10	1	-1E+10	1
4902663	9	C	11/02/2023	06:21	-127.638	48.550	0	1513.40	0	2.4610	0	34.5080	0	27.548	0	1495.196	0	25.6	4	7.8	4	-1E+10	1	-1E+10	1	-1E+10	1	-1E+10	1	-1E+10	1	-1E+10	1
4902663	9	C	11/02/2023	06:21	-127.638	48.550	0	1537.70	0	2.4320	0	34.5120	0	27.554	0	1519.116	0	26.7	4	8.1	4	-1E+10	1	-1E+10	1	-1E+10	1	-1E+10	1	-1E+10	1	-1E+10	1
4902663	9	C	11/02/2023	06:21	-127.638	48.550	0	1562.80	0	2.4050	0	34.5160	0	27.560	0	1543.822	0	27.9	4	8.5	4	-1E+10	1	-1E+10	1	-1E+10	1	-1E+10	1	-1E+10	1	-1E+10	1
4902663	9	C	11/02/2023	06:21	-127.638	48.550	0	1587.70	0	2.3760	0	34.5200	0	27.566	0	1568.327	0	29.1	4	8.9	4	-1E+10	1	-1E+10	1	-1E+10	1	-1E+10	1	-1E+10	1	-1E+10	1
4902663	9	C	11/02/2023	06:21	-127.638	48.550	0	1612.60	0	2.3460	0	34.5240	0	27.571	0	1592.830	0	30.1	4	9.1	4	-1E+10	1	-1E+10	1	-1E+10	1	-1E+10	1	-1E+10	1	-1E+10	1
4902663	9	C	11/02/2023	06:21	-127.638	48.550	0	1637.90	0	2.3210	0	34.5270	0	27.576	0	1617.723	0	31.4	4	9.5	4	-1E+10	1	-1E+10	1	-1E+10	1	-1E+10	1	-1E+10	1	-1E+10	1
4902663	9	C	11/02/2023	06:21	-127.638	48.550	0	1663.10	0	2.2940	0	34.5330	0	27.583	0	1642.515	0	33.2	4	10.1	4	-1E+10	1	-1E+10	1	-1E+10	1	-1E+10	1	-1E+10	1	-1E+10	1
4902663	9	C	11/02/2023	06:21	-127.638	48.550	0	1687.70	0	2.2550	0	34.5390	0	27.591	0	1666.714	0	35.1	4	10.7	4	-1E+10	1	-1E+10	1	-1E+10	1	-1E+10	1	-1E+10	1	-1E+10	1
4902663	9	C	11/02/2023	06:21	-127.638	48.550	0	1712.50	0	2.2130	0	34.5440	0	27.599	0	1691.106	0	37.2	4	11.3	4	-1E+10	1	-1E+10	1	-1E+10	1	-1E+10	1	-1E+10	1	-1E+10	1
4902663	9	C	11/02/2023	06:21	-127.638	48.550	0	1737.90	0	2.1870	0	34.5510	0	27.606	0	1716.086	0	38.7	4	11.7	4	-1E+10	1	-1E+10	1	-1E+10	1	-1E+10	1	-1E+10	1	-1E+10	1
4902663	9	C	11/02/2023	06:21	-127.638	48.550	0	1763.00	0	2.1630	0	34.5560	0	27.612	0	1740.769	0	39.9	4	12.1	4	-1E+10	1	-1E+10	1	-1E+10	1	-1E+10	1	-1E+10	1	-1E+10	1
4902663	9	C	11/02/2023	06:21	-127.638	48.550	0	1787.90	0	2.1400	0	34.5600	0	27.618	0	1765.251	0	41.4	4	12.5	4	-1E+10	1	-1E+10	1	-1E+10	1	-1E+10	1	-1E+10	1	-1E+10	1
4902663	9	C	11/02/2023	06:21	-127.638	48.550	0	1813.00	0	2.0960	0	34.5650	0	27.625	0	1789.927	0	43.4	4	13.1	4	-1E+10	1	-1E+10	1	-1E+10	1	-1E+10	1	-1E+10	1	-1E+10	1
4902663	9	C	11/02/2023	06:21	-127.638	48.550	0	1837.70	0	2.0660	0	34.5700	0	27.632	0	1814.208	0	45.3	4	13.7	4	-1E+10	1	-1E+10	1	-1E+10	1	-1E+10	1	-1E+10	1	-1E+10	1
4902663	9	C	11/02/2023	06:21	-127.638	48.550	0	1862.60	0	2.0370	0	34.5730	0	27.637	0	1838.682	0	47.0	4	14.2	4	-1E+10	1	-1E+10	1	-1E+10	1	-1E+10	1	-1E+10	1	-1E+10	1
4902663	9	C	11/02/2023	06:21	-127.638	48.550	0	1887.60	0	2.0160	0	34.5780	0	27.642	0	1863.251	0	48.5	4	14.6	4	-1E+10	1	-1E+10	1	-1E+10	1	-1E+10	1	-1E+10	1	-1E+10	1
4902663	9	C	11/02/2023	06:21	-127.638	48.550	0	1912.70	0	1.9960	0	34.5830	0	27.648	0	1887.916	0	50.2	4	15.1	4	-1E+10	1	-1E+10	1	-1E+10	1	-1E+10	1	-1E+10	1	-1E+10	1
4902663	9	C	11/02/2023	06:21	-127.638	48.550	0	1937.60	0	1.9740	0	34.5860	0	27.652	0	1912.382	0	51.6	4	15.6	4	-1E+10	1	-1E+10	1	-1E+10	1	-1E+10	1	-1E+10	1	-1E+10	1
4902663	9	C	11/02/2023	06:21	-127.638	48.550	0	1962.90	0	1.9530	0	34.5910	0	27.658	0	1937.238	0	53.3	4	16.1	4	-1E+10	1	-1E+10	1	-1E+10	1	-1E+10	1	-1E+10	1	-1E+10	1
4902663	9	C	11/02/2023	06:21	-127.638	48.550	0	1988.00	0	1.9310	0	34.5950	0	27.663	0	1961.894	0	54.8	4	16.5	4	-1E+10	1	-1E+10	1	-1E+10	1	-1E+10	1	-1E+10	1	-1E+10	1
4902663	9	C	11/02/2023	06:21	-127.638	48.550	0	2008.40	0	1.9160	0	34.5980	0	27.667	0	1981.931	0	55.3	4	16.6	4	-1E+10	1	-1E+10	1	-1E+10	1	-1E+10	1	-1E+10	1	-1E+10	1
4902663	9	C	11/02/2023	06:21	-127.638	48.550	0																										
4902663	10	C	11/12/2023	06:15	-127.599	48.628	0	0.30	0	12.5400	0	32.1750	0	24.295	0	0.297	0	249.1	4	93.8	4	-1E+10	1	-1E+10	1	-1E+10	1	-1E+10	1	-1E+10	1	-1E+10	1
4902663	10	C	11/12/2023	06:15	-127.599	48.628	0	0.40	0	12.5403	0	32.1752	0	24.295	0	0.397	0	249.1	4	93.8	4	-1E+10	1	-1E+10	1	-1E+10	1	-1E+10	1	-1E+10	1	-1E+10	1
4902663	10	C	11/12/2023	06:15	-127.599	48.628	0	0.90	0	12.5420	0	32.1760	0	24.295	0	0.892	0	249.1	4	93.8	4	-1E+10	1	-1E+10	1	-1E+10	1	-1E+10	1	-1E+10	1	-1E+10	1
4902663	10	C	11/12/2023	06:15	-127.599	48.628	0	1.80	0	12.5510	0	32.1690	0	24.288	0	1.785	0	249.0	4	93.8	4	-1E+10	1	-1E+10	1	-1E+10	1	-1E+10	1	-1E+10	1	-1E+10	1
4902663	10	C	11/12/2023	06:15	-127.599	48.628	0	3.00	0	12.5530	0	32.1680	0	24.287	0	2.975	0	248.9	4	93.8	4	-1E+10	1	-1E+10	1	-1E+10	1	-1E+10	1	-1E+10	1	-1E+10	1
4902663	10	C	11/12/2023	06:15	-127.599	48.628	0	3.60	0	12.5550	0	32.1680	0	24.287	0	3.570	0	248.8	4	93.7	4	-1E+10	1	-1E+10	1	-1E+10	1	-1E+10	1	-1E+10	1	-1E+10	1
4902663	10	C	11/12/2023	06:15	-127.599	48.628	0	4.90	0	12.5550	0	32.1680	0	24.287	0	4.859	0	248.8	4	93.7	4	-1E+10	1	-1E+10	1	-1E+10	1	-1E+10	1	-1E+10	1	-1E+10	1
4902663	10	C	11/12/2023	06:15	-127.599	48.628	0	6.30	0	12.5550	0	32.1680	0	24.287	0	6.247	0	248.7	4	93.7	4	-1E+10	1	-1E+10	1	-1E+10	1	-1E+10	1	-1E+10	1	-1E+10	1
4902663	10	C	11/12/2023	06:15	-127.599	48.628	0	7.00	0	12.5550	0	32.1680	0	24.287	0	6.941	0	248.7	4	93.7	4	-1E+10	1	-1E+10	1	-1E+10	1	-1E+10	1	-1E+10	1	-1E+10	1
4902663	10	C	11/12/2023	06:15	-127.599	48.628	0	7.90	0	12.5540	0	32.1680	0	24.287	0	7.833	0	248.6	4	93.6	4	-1E+10	1	-1E+10	1	-1E+10	1	-1E+10	1	-1E+10	1	-1E+10	1
4902663	10	C	11/12/2023	06:15	-127.599	48.628	0	8.70	0	12.5560	0	32.1680	0	24.286	0	8.626	0	248.5	4	93.6	4	-1E+10	1	-1E+10	1	-1E+10	1	-1E+10	1	-1E+10	1	-1E+10	1
4902663	10	C	11/12/2023	06:15	-127.599	48.628	0	9.90	0	12.5550	0	32.1680	0	24.287	0	9.816	0	248.5	4	93.6	4	-1E+10	1	-1E+10	1	-1E+10	1	-1E+10	1	-1E+10	1	-1E+10	1
4902663	10	C	11/12/2023	06:15	-127.599	48.628	0	15.70	0	12.5600	0	32.1680	0	24.286	0	15.567	0	248.1	4	93.4	4	-1E+10	1	-1E+10	1	-1E+10	1	-1E+10	1	-1E+10	1	-1E+10	1
4902663	10	C	11/12/2023	06:15	-127.599	48.628	0	25.60	0	12.5600	0	32.1680	0	24.286	0	25.382	0	247.5	4	93.2	4	-1E+10	1	-1E+10	1	-1E+10	1	-1E+10	1	-1E+10	1	-1E+10	1
4902663	10	C	11/12/2023	06:15	-127.599	48.628	0	35.90	0	12.5590	0	32.1670	0	24.286	0	35.594	0	246.1	4	92.7	4	-1E+10	1	-1E+10	1	-1E+10	1	-1E+10	1	-1E+10	1	-1E+10	1
4902663	10	C	11/12/2023	06:15	-127.599	48.628	0	45.00	0	10.5360	0	32.3060	0	24.760	0	44.615	0	247.2	4	89.3	4	-1E+10	1	-1E+10	1	-1E+10	1	-1E+10	1	-1E+10	1	-1E+10	1
4902663	10	C	11/12/2023	06:15	-127.599	48.628	0	55.80	0	8.1890	0	32.4160	0	25.219	0	55.321	0	241.7	4	83.0	4	-1E+10	1	-1E+10	1	-1E+10	1	-1E+10	1	-1E+10	1	-1E+10	1
4902663	10	C	11/12/2023	06:15	-127.599	48.628	0	66.10	0	8.1260	0	32.6310	0	25.397	0	65.531	0	207.7	4	71.3	4	-1E+10	1	-1E+10	1	-1E+10	1	-1E+10	1	-1E+10	1	-1E+10	1
4902663	10	C	11/12/2023	06:15	-127.599	48.628	0	75.40	0	7.9840	0	32.9170	0	25.642	0	74.749	0	180.3	4	61.9	4	-1E+10	1	-1E+10	1	-1E+10	1	-1E+10	1	-1E+10	1	-1E+10	1
4902663	10	C	11/12/2023	06:15	-127.599	48.628	0	85.50	0	8.1190	0	33.2140	0	25.855	0	84.760	0	154.9	4	53.4	4	-1E+10	1	-1E+10	1	-1E+10	1	-1E+10	1	-1E+10	1	-1E+10	1
4902663	10	C	11/12/2023	06:15	-127.599	48.628	0	95.30	0	8.0320	0	33.3960	0	26.011	0	94.473	0	141.6	4	48.8	4	-1E+10	1	-1E+10	1	-1E+10	1	-1E+10	1	-1E+10	1	-1E+10	1
4902663	10	C	11/12/2023	06:15	-127.599	48.628	0	105.50	0	8.1120	0	33.5710	0	26.137	0	104.582	0	132.4	4	45.8	4	-1E+10	1	-1E+10	1	-1E+10	1	-1E+10	1	-1E+10	1	-1E+10	1
4902663	10	C	11/12/2023	06:15	-127.599	48.628	0	115.50	0	8.0760	0	33.6700	0	26.220	0	114.492	0	128.5	4	44.4	4	-1E+10	1	-1E+10	1	-1E+10	1	-1E+10	1	-1E+10	1	-1E+10	1
4902663	10	C	11/12/2023	06:15	-127.599	48.628	0	125.30	0	7.7890	0	33.6990	0	26.285	0	124.204	0	126.1	4	43.3	4	-1E+10	1	-1E+10	1	-1E+10	1	-1E+10	1	-1E+10	1	-1E+10	1
4902663	10	C	11/12/2023	06:15	-127.599	48.628	0	135.70	0	7.7900	0	33.7510	0	26.326	0	134.509	0	119.0	4	40.9	4	-1E+10	1	-1E+10	1	-1E+10	1	-1E+10	1	-1E+10	1	-1E+10	1
4902663	10	C	11/12/2023	06:15	-127.599	48.628	0	145.40	0	7.8220	0	33.8230	0	26.378	0	144.121	0	113.4	4	39.0	4	-1E+10	1	-1E+10	1	-1E+10	1	-1E+10	1	-1E+10	1	-1E+10	1
4902663	10	C	11/12/2023	06:15	-127.599	48.628	0	155.20	0	7.6990	0	33.8470	0	26.415	0	153.831	0	112.2	4	38.5	4	-1E+10	1	-1E+10	1	-1E+10	1	-1E+10	1	-1E+10	1	-1E+10	1
4902663	10	C	11/12/2023	06:15	-127.599	48.628	0	165.50	0	7.6060	0	33.8640	0	26.442	0	164.036	0	110.2	4	37.8	4	-1E+10	1	-1E+10	1	-1E+10	1	-1E+10	1	-1E+10	1	-1E+10	1
4902663	10	C	11/12/2023	06:15	-127.599	48.628	0	175.20	0	7.4140	0	33.8830	0	26.484	0	173.646	0	107.6	4	36.7	4	-1E+10	1	-1E+10	1	-1E+10	1	-1E+10	1	-1E+10	1	-1E+10	1
4902663	10	C	11/12/2023	06:15	-127.599	48.628	0	185.30	0	7.1990	0	33.8870	0	26.517	0	183.652	0	105.0	4	35.7	4	-1E+10	1	-1E+10	1	-1E+10	1	-1E+10	1	-1E+10	1	-1E+10	1
4902663	10	C	11/12/2023	06:15	-127.599	48.628	0	195.70	0	7.1430	0	33.9030	0	26.538	0	193.955	0	96.1	4	32.6	4	-1E+10	1	-1E+10	1	-1E+10	1	-1E+10	1	-1E+10	1	-1E+10	1
4902663	10	C	11/12/2023	06:15	-127.599	48.628	0	213.10	0	7.0280	0	33.9350	0	26.579	0	211.191	0	88.4	4	29.9	4	-1E+10	1	-1E+10	1	-1E+10	1	-1E+10	1	-1E+10	1	-1E+10	1
4902663	10	C	11/12/2023	06:15	-127.599	48.628	0	237.80	0	6.7020	0	33.9400	0	26.627	0	235.655	0	86.2	4	28.9	4	-1E+10	1	-1E+10	1	-1E+10	1	-1E+10	1	-1E+10	1	-1E+10	1
4902663	10	C	11/12/2023	06:15	-127.599	48.628	0	262.50	0	6.4370	0	33.9570	0	26.676	0	260.117	0	77.5	4	25.9	4	-1E+10	1	-1E+10	1	-1E+10	1	-1E+10	1	-1E+10	1	-1E+10	1
4902663	10	C	11/12/2023	06:15	-127.599	48.628	0	287.40	0	6.2560	0	33.9760	0	26.714	0	284.774	0	69.0	4	23.0	4	-1E+10	1	-1E+10	1	-1E+10	1	-1E+10	1	-1E+10	1	-1E+10	1
4902663	10	C	11/12/2023	06:15	-127.599	48.628	0	313.00	0	6.0970	0	33.9940	0	26.749	0	310.121	0	61.1	4	20.3	4	-1E+10	1	-1E+10	1	-1E+10	1	-1E+10	1	-1E+10	1	-1E+10	1
4902663	10	C	11/12/2023	06:15	-127.599	48.628	0	337.90	0	5.9380	0	34.0140	0	26.785	0	334.772	0	54.2	4	17.9	4	-1E+10	1	-1E+10	1	-1E+10	1	-1E+10	1	-1E+10	1	-1E+10	1
4902663	10	C	11/12/2023	06:15	-127.599	48.628	0	362.60	0	5.7730	0	34.0280	0	26.817	0	359.221	0	48.1	4	15.8	4	-1E+10	1	-1E+10	1	-1E+10	1	-1E+10	1	-1E+10	1	-1E+10	1
4902663	10	C	11/12/2023	06:15	-127.599	48.628	0	387.50	0	5.5440	0	34.0370	0	26.852	0	383.866	0	44.2	4	14.5	4	-1E+10	1	-1E+10	1	-1E+10	1	-1E+10	1	-1E+10	1	-1E+10	1
4902663	10	C	11/12/2023	06:15	-127.599	48.628	0	412.40	0	5.5160	0	34.0620	0	26.875	0	408.508	0	38.0	4	12.4	4	-1E+10	1	-1E+10	1	-1E+10	1	-1E+10	1	-1E+10	1	-1E+10	1
4902663	10	C	11/12/2023	06:15	-127.599	48.628	0	438.20	0	5.3870	0	34.0810	0	26.906	0	434.038	0	33.6	4	10.9	4	-1E+10	1	-1E+10	1	-1E+10	1	-1E+10	1	-1E+10	1	-1E+10	1
4902663	10	C	11/12/2023	06:15	-127.599	48.628	0	462.50	0	5.2610	0	34.0940	0	26.931	0	458.080	0	30.7	4	10.0	4	-1E+10	1	-1E+10	1	-1E+10	1	-1E+10	1	-1E+10	1	-1E+10	1
4902663	10	C	11/12/2023	06:15	-127.599	48.628	0	487.70	0	4.9670	0	34.0750	0	26.950	0	483.010	0	30.6	4	9.9	4	-1E+10	1	-1E+10	1	-1E+10	1	-1E+10	1	-1E+10	1	-1E+10	1
4902663	10	C	11/12/2023	06:15	-127.599	48.628	0	512.90	0	4.7970	0	34.0860	0	26.978	0	507.937	0	26.8	4	8.6	4	-1E+10	1	-1E+10	1	-1E+10	1	-1E+10	1	-1E+10	1	-1E+10	1
4902663	10	C	11/12/2023	06:15	-127.599	48.628	0	537.90	0	4.6860	0	34.0990	0	27.001	0	532.663	0	24.2	4	7.8	4	-1E+10	1	-1E+10	1	-1E+10	1	-1E+10	1	-1E+10	1	-1E+10	1
4902663	10	C	11/12/2023	06:15	-127.599	48.628	0	562.50	0	4.5650	0	34.1160	0	27.028	0	556.991	0	21.2	4	6.8	4	-1E+10	1	-1E+10	1	-1E+10	1	-1E+10	1	-1E+10	1	-1E+10	1
4902663	10	C	11/12/2023	06:15	-127.599	48.628	0	587.60	0	4.4690	0	34.1380	0	27.056	0	581.810	0	17.7	4	5.7	4	-1E+10	1	-1E+10	1	-1E+10	1	-1E+10	1	-1E+10	1	-1E+10	1
4902663	10	C	11/12/2023	06:15	-127.599	48.628	0	612.50	0	4.4000	0	34.1630	0	27.083	0	606.428	0	14.8	4	4.7	4	-1E+10	1	-1E+10	1	-1E+10	1	-1E+10	1	-1E+10	1	-1E+10	1
4902663	10	C	11/12/2023	06:15	-127.599	48.628	0	637.70	0	4.3560	0	34.1850	0	27.106	0	631.340	0	12.5	4	4.0	4	-1E+10	1	-1E+10	1	-1E+10	1	-1E+10	1	-1E+10	1	-1E+10	1
4902663	10	C	11/12/2023	06:15	-127.599	48.628	0	663.10	0	4.3240	0	34.2010	0	27.122	0	656.447	0	11.3	4	3.6	4	-1E+10	1	-1E+10	1	-1E+10	1	-1E+10	1	-1E+10	1	-1E+10	1
4902663	10	C	11/12/2023	06:15	-127.599	48.628	0	688.00	0	4.2900	0	34.2190	0	27.140	0	681.056	0	9.9	4	3.2	4	-1E+10	1	-1E+10	1	-1E+10	1	-1E+10	1	-1E+10	1	-1E+10	1
4902663	10	C	11/12/2023	06:15	-127.599	48.628	0	713.00	0	4.3020	0	34.2460	0	27.161	0	705.762	0	8.8	4	2.8	4	-1E+10	1	-1E+10	1	-1E+10	1	-1E+10	1	-1E+10	1	-1E+10	1
4902663	10	C	11/12/2023	06:15	-127.599	48.628	0	738.50	0	4.2210	0	34.2520	0	27.174	0	730.958	0	8.5	4	2.7	4	-1E+10	1	-1E+10	1	-1E+10	1	-1E+10	1	-1E+10	1	-1E+10	1
4902663	10	C	11/12/2023	06:15	-127.599	48.628	0	762.80	0	4.1900	0	34.2660	0	27.189	0	754.966	0	7.8	4	2.5	4	-1E+10	1	-1E+10	1	-1E+10	1	-1E+10	1	-1E+10	1	-1E+10	1
4902663	10	C	11/12/2023	06:15	-127.599	48.628	0	788.10	0	4.1430	0	34.2790	0	27.204	0	779.959	0	7.4	4	2.4	4	-1E+10	1	-1E+10	1	-1E+10	1	-1E+10	1	-1E+10	1	-1E+10	1
4902663	10	C	11/12/2023	06:15	-127.599	48.628	0	813.10	0	4.0490	0	34.2900	0	27.223	0	804.653	0	7.3	4	2.3	4	-1E+10	1	-1E+10	1	-1E+10	1	-1E+10	1	-1E+10	1	-1E+10	1
4902663	10	C	11/12/2023	06:15	-127.599	48.628	0	838.10	0	3.9450	0	34.2980	0	27.240	0	829.343	0	7.4	4	2.3	4	-1E+10	1	-1E+10	1	-1E+10	1	-1E+10	1	-1E+10	1	-1E+10	1
4902663	10	C	11/12/2023	06:15	-127.599	48.628	0	863.00	0	3.8570	0	34.3080	0	27.257	0	853.932	0	7.4	4	2.3	4	-1E+10	1	-1E+10	1	-1E+10	1	-1E+10	1	-1E+10	1	-1E+10	1
4902663	10	C	11/12/2023	06:15	-127.599	48.628	0	887.70	0	3.7740	0	34.3150	0	27.271	0	878.321	0	7.6	4	2.4	4	-1E+10	1	-1E+10	1	-1E+10	1	-1E+10	1	-1E+10	1	-1E+10	1
4902663	10	C	11/12/2023	06:15	-127.599	48.628	0	912.90	0	3.7140	0	34.3270	0	27.286	0	903.201	0	7.5	4	2.3	4	-1E+10	1	-1E+10	1	-1E+10	1	-1E+10	1	-1E+10	1	-1E+10	1
4902663	10	C	11/12/2023	06:15	-127.599	48.628	0	938.20	0	3.6570	0	34.3410	0	27.303	0	928.176	0	7.4	4	2.3	4	-1E+10	1	-1E+10	1	-1E+10	1	-1E+10	1	-1E+10	1	-1E+10	1
4902663	10	C	11/12/2023	06:15	-127.599	48.628	0	963.10	0	3.5850	0	34.3540	0	27.321	0	952.753	0	7.6	4	2.4	4	-1E+10	1	-1E+10	1	-1E+10	1	-1E+10	1	-1E+10	1	-1E+10	1
4902663	10	C	11/12/2023	06:15	-127.599	48.628	0	987.90	0	3.5220	0	34.3660	0	27.337	0	977.229	0	7.8	4	2.4	4	-1E+10	1	-1E+10	1	-1E+10	1	-1E+10	1	-1E+10	1	-1E+10	1
4902663	10	C	11/12/2023	06:15	-127.599	48.628	0	1013.10	0	3.4790	0	34.3750	0	27.348	0	1002.096	0	8.0	4	2.5	4	-1E+10	1	-1E+10	1	-1E+10	1	-1E+10	1	-1E+10	1	-1E+10	1
4902663	10	C	11/12/2023	06:15	-127.599	48.628	0	1038.20	0	3.4270	0	34.3850	0	27.361	0	1026.862	0	8.3	4	2.6	4	-1E+10	1	-1E+10	1	-1E+10	1	-1E+10	1	-1E+10	1	-1E+10	1
4902663	10	C	11/12/2023	06:15	-127.599	48.628	0	1063.30	0	3.3530	0	34.3970	0	27.378	0	1051.625	0	8.9	4	2.8	4	-1E+10	1	-1E+10	1	-1E+10	1	-1E+10	1	-1E+10	1	-1E+10	1
4902663	10	C	11/12/2023	06:15	-127.599	48.628	0	1087.70	0	3.2780	0	34.4100	0	27.396	0	1075.695	0	9.5	4	3.0	4	-1E+10	1	-1E+10	1	-1E+10	1	-1E+10	1	-1E+10	1	-1E+10	1
4902663	10	C	11/12/2023	06:15	-127.599	48.628	0	1112.70	0	3.2230	0	34.4190	0	27.408	0	1100.353	0	10.0	4	3.1	4	-1E+10	1	-1E+10	1	-1E+10	1	-1E+10	1	-1E+10	1	-1E+10	1
4902663	10	C	11/12/2023	06:15	-127.599	48.628	0	1137.70	0	3.1760	0	34.4240	0	27.417	0	1125.009	0	10.4	4	3.2	4	-1E+10	1	-1E+10	1	-1E+10	1	-1E+10	1	-1E+10	1	-1E+10	1
4902663	10	C	11/12/2023	06:15	-127.599	48.628	0	1162.90	0	3.1330	0	34.4300	0	27.425	0	1149.859	0	11.0	4	3.4	4	-1E+10	1	-1E+10	1	-1E+10	1	-1E+10	1	-1E+10	1	-1E+10	1
4902663	10	C	11/12/2023	06:15	-127.599	48.628	0	1187.70	0	3.0990	0	34.4390	0	27.436	0	1174.312	0	11.8	4	3.7	4	-1E+10	1	-1E+10	1	-1E+10	1	-1E+10	1	-1E+10	1	-1E+10	1
4902663	10	C	11/12/2023	06:15	-127.599	48.628	0	1212.70	0	3.0570	0	34.4460	0	27.445	0	1198.959	0	12.5	4	3.9	4	-1E+10	1	-1E+10	1	-1E+10	1	-1E+10	1	-1E+10	1	-1E+10	1
4902663	10	C	11/12/2023	06:15	-127.599	48.628	0	1238.00	0	3.0100	0	34.4530	0	27.455	0	1223.898	0	13.3	4	4.1	4	-1E+10	1	-1E+10	1	-1E+10	1	-1E+10	1	-1E+10	1	-1E+10	1
4902663	10	C	11/12/2023	06:15	-127.599	48.628	0	1263.20	0	2.9610	0	34.4580	0	27.464	0	1248.737	0	14.3	4	4.4	4	-1E+10	1	-1E+10	1	-1E+10	1	-1E+10	1	-1E+10	1	-1E+10	1
4902663	10	C	11/12/2023	06:15	-127.599	48.628	0	1288.30	0	2.8990	0	34.4680	0	27.478	0	1273.473	0	15.6	4	4.8	4	-1E+10	1	-1E+10	1	-1E+10	1	-1E+10	1	-1E+10	1	-1E+10	1
4902663	10	C	11/12/2023	06:15	-127.599	48.628	0	1312.90	0	2.8270	0	34.4740	0	27.489	0	1297.714	0	16.5	4	5.1	4	-1E+10	1	-1E+10	1	-1E+10	1	-1E+10	1	-1E+10	1	-1E+10	1
4902663	10	C	11/12/2023	06:15	-127.599	48.628	0	1337.50	0	2.7870	0	34.4800	0	27.497	0	1321.953	0	17.7	4	5.4	4	-1E+10	1	-1E+10	1	-1E+10	1	-1E+10	1	-1E+10	1	-1E+10	1
4902663	10	C	11/12/2023	06:15	-127.599	48.628	0	1362.70	0	2.7300	0	34.4850	0	27.506	0	1346.779	0	18.8	4	5.8	4	-1E+10	1	-1E+10	1	-1E+10	1	-1E+10	1	-1E+10	1	-1E+10	1
4902663	10	C	11/12/2023	06:15	-127.599	48.628	0	1387.60	0	2.6780	0	34.4900	0	27.515	0	1371.308	0	19.8	4	6.1	4	-1E+10	1	-1E+10	1	-1E+10	1	-1E+10	1	-1E+10	1	-1E+10	1
4902663	10	C	11/12/2023	06:15	-127.599	48.628	0	1412.80	0	2.6190	0	34.4960	0	27.525	0	1396.128	0	21.1	4	6.4	4	-1E+10	1	-1E+10	1	-1E+10	1	-1E+10	1	-1E+10	1	-1E+10	1
4902663	10	C	11/12/2023	06:15	-127.599	48.628	0	1437.90	0	2.5650	0	34.5000	0	27.533	0	1420.848	0	22.3	4	6.8	4	-1E+10	1	-1E+10	1	-1E+10	1	-1E+10	1	-1E+10	1	-1E+10	1
4902663	10	C	11/12/2023	06:15	-127.599	48.628	0	1462.90	0	2.5150	0	34.5040	0	27.540	0	1445.466	0	23.6	4	7.2	4	-1E+10	1	-1E+10	1	-1E+10	1	-1E+10	1	-1E+10	1	-1E+10	1
4902663	10	C	11/12/2023	06:15	-127.599	48.628	0	1487.60	0	2.4820	0	34.5080	0	27.547	0	1469.786	0	24.6	4	7.5	4	-1E+10	1	-1E+10	1	-1E+10	1	-1E+10	1	-1E+10	1	-1E+10	1
4902663	10	C	11/12/2023	06:15	-127.599	48.628	0	1512.80	0	2.4440	0	34.5120	0	27.553	0	1494.595	0	25.8	4	7.9	4	-1E+10	1	-1E+10	1	-1E+10	1	-1E+10	1	-1E+10	1	-1E+10	1
4902663	10	C	11/12/2023	06:15	-127.599	48.628	0	1537.60	0	2.4070	0	34.5170	0	27.560	0	1519.007	0	27.1	4	8.2	4	-1E+10	1	-1E+10	1	-1E+10	1	-1E+10	1	-1E+10	1	-1E+10	1
4902663	10	C	11/12/2023	06:15	-127.599	48.628	0	1562.60	0	2.3700	0	34.5220	0	27.567	0	1543.614	0	28.6	4	8.7	4	-1E+10	1	-1E+10	1	-1E+10	1	-1E+10	1	-1E+10	1	-1E+10	1
4902663	10	C	11/12/2023	06:15	-127.599	48.628	0	1587.60	0	2.3300	0	34.5270	0	27.575	0	1568.217	0	30.1	4	9.1	4	-1E+10	1	-1E+10	1	-1E+10	1	-1E+10	1	-1E+10	1	-1E+10	1
4902663	10	C	11/12/2023	06:15	-127.599	48.628	0	1612.80	0	2.2940	0	34.5330	0	27.583	0	1593.015	0	32.2	4	9.8	4	-1E+10	1	-1E+10	1	-1E+10	1	-1E+10	1	-1E+10	1	-1E+10	1
4902663	10	C	11/12/2023	06:15	-127.599	48.628	0	1637.80	0	2.2580	0	34.5380	0	27.590	0	1617.613	0	33.6	4	10.2	4	-1E+10	1	-1E+10	1	-1E+10	1	-1E+10	1	-1E+10	1	-1E+10	1
4902663	10	C	11/12/2023	06:15	-127.599	48.628	0	1662.60	0	2.2280	0	34.5420	0	27.596	0	1642.011	0	35.2	4	10.7	4	-1E+10	1	-1E+10	1	-1E+10	1	-1E+10	1	-1E+10	1	-1E+10	1
4902663	10	C	11/12/2023	06:15	-127.599	48.628	0	1687.60	0	2.1890	0	34.5490	0	27.604	0	1666.603	0	37.3	4	11.3	4	-1E+10	1	-1E+10	1	-1E+10	1	-1E+10	1	-1E+10	1	-1E+10	1
4902663	10	C	11/12/2023	06:15	-127.599	48.628	0	1712.80	0	2.1540	0	34.5540	0	27.611	0	1691.389	0	39.2	4	11.8	4	-1E+10	1	-1E+10	1	-1E+10	1	-1E+10	1	-1E+10	1	-1E+10	1
4902663	10	C	11/12/2023	06:15	-127.599	48.628	0	1737.90	0	2.1310	0	34.5580	0	27.616	0	1716.074	0	40.4	4	12.2	4	-1E+10	1	-1E+10	1	-1E+10	1	-1E+10	1	-1E+10	1	-1E+10	1
4902663	10	C	11/12/2023	06:15	-127.599	48.628	0	1763.70	0	2.1150	0	34.5610	0	27.620	0	1741.444	0	41.8	4	12.6	4	-1E+10	1	-1E+10	1	-1E+10	1	-1E+10	1	-1E+10	1	-1E+10	1
4902663	10	C	11/12/2023	06:15	-127.599	48.628	0	1788.00	0	2.0870	0	34.5650	0	27.626	0	1765.337	0	43.4	4	13.1	4	-1E+10	1	-1E+10	1	-1E+10	1	-1E+10	1	-1E+10	1	-1E+10	1
4902663	10	C	11/12/2023	06:15	-127.599	48.628	0	1813.00	0	2.0600	0	34.5690	0	27.631	0	1789.915	0	44.9	4	13.6	4	-1E+10	1	-1E+10	1	-1E+10	1	-1E+10	1	-1E+10	1	-1E+10	1
4902663	10	C	11/12/2023	06:15	-127.599	48.628	0	1838.00	0	2.0430	0	34.5720	0	27.635	0	1814.490	0	46.2	4	13.9	4	-1E+10	1	-1E+10	1	-1E+10	1	-1E+10	1	-1E+10	1	-1E+10	1
4902663	10	C	11/12/2023	06:15	-127.599	48.628	0	1863.10	0	2.0290	0	34.5760	0	27.640	0	1839.160	0	47.6	4	14.4	4	-1E+10	1	-1E+10	1	-1E+10	1	-1E+10	1	-1E+10	1	-1E+10	1
4902663	10	C	11/12/2023	06:15	-127.599	48.628	0	1888.00	0	2.0030	0	34.5800	0	27.645	0	1863.631	0	49.3	4	14.9	4	-1E+10	1	-1E+10	1	-1E+10	1	-1E+10	1	-1E+10	1	-1E+10	1
4902663	10	C	11/12/2023	06:15	-127.599	48.628	0	1912.50	0	1.9850	0	34.5840	0	27.650	0	1887.706	0	51.1	4	15.4	4	-1E+10	1	-1E+10	1	-1E+10	1	-1E+10	1	-1E+10	1	-1E+10	1
4902663	10	C	11/12/2023	06:15	-127.599	48.628	0	1937.70	0	1.9630	0	34.5890	0	27.655	0	1912.466	0	52.8	4	15.9	4	-1E+10	1	-1E+10	1	-1E+10	1	-1E+10	1	-1E+10	1	-1E+10	1
4902663	10	C	11/12/2023	06:15	-127.599	48.628	0	1962.80	0	1.9360	0	34.5920	0	27.660	0	1937.125	0	54.2	4	16.3	4	-1E+10	1	-1E+10	1	-1E+10	1	-1E+10	1	-1E+10	1	-1E+10	1
4902663	10	C	11/12/2023	06:15	-127.599	48.628	0	1988.00	0	1.9270	0	34.5960	0	27.664	0	1961.880	0	54.9	4	16.5	4	-1E+10	1	-1E+10	1	-1E+10	1	-1E+10	1	-1E+10	1	-1E+10	1
4902663	10	C	11/12/2023	06:15	-127.599	48.628	0	2006.50	0	1.9200	0	34.5970	0	27.666	0	1980.051	0	55.2	4	16.6	4	-1E+10	1	-1E+10	1	-1E+10	1	-1E+10	1	-1E+10	1	-1E+10	1
4902663	10	C	11/12/2023	06:15	-127.599	48.628	0																										
4902663	11	C	11/22/2023	06:09	-127.818	48.573	0	0.40	0	11.3330	0	32.2000	0	24.537	0	0.397	0	255.5	4	93.8	4	-1E+10	1	-1E+10	1	-1E+10	1	-1E+10	1	-1E+10	1	-1E+10	1
4902663	11	C	11/22/2023	06:09	-127.818	48.573	0	1.20	0	11.3330	0	32.2000	0	24.537	0	1.190	0	255.4	4	93.8	4	-1E+10	1	-1E+10	1	-1E+10	1	-1E+10	1	-1E+10	1	-1E+10	1
4902663	11	C	11/22/2023	06:09	-127.818	48.573	0	2.00	0	11.3320	0	32.2020	0	24.539	0	1.983	0	255.3	4	93.8	4	-1E+10	1	-1E+10	1	-1E+10	1	-1E+10	1	-1E+10	1	-1E+10	1
4902663	11	C	11/22/2023	06:09	-127.818	48.573	0	2.90	0	11.3330	0	32.2030	0	24.540	0	2.875	0	255.1	4	93.7	4	-1E+10	1	-1E+10	1	-1E+10	1	-1E+10	1	-1E+10	1	-1E+10	1
4902663	11	C	11/22/2023	06:09	-127.818	48.573	0	3.80	0	11.3350	0	32.2000	0	24.537	0	3.768	0	255.1	4	93.7	4	-1E+10	1	-1E+10	1	-1E+10	1	-1E+10	1	-1E+10	1	-1E+10	1
4902663	11	C	11/22/2023	06:09	-127.818	48.573	0	4.90	0	11.3360	0	32.2020	0	24.538	0	4.859	0	255.0	4	93.7	4	-1E+10	1	-1E+10	1	-1E+10	1	-1E+10	1	-1E+10	1	-1E+10	1
4902663	11	C	11/22/2023	06:09	-127.818	48.573	0	5.90	0	11.3360	0	32.2020	0	24.538	0	5.850	0	254.9	4	93.6	4	-1E+10	1	-1E+10	1	-1E+10	1	-1E+10	1	-1E+10	1	-1E+10	1
4902663	11	C	11/22/2023	06:09	-127.818	48.573	0	6.90	0	11.3340	0	32.2020	0	24.539	0	6.842	0	254.9	4	93.6	4	-1E+10	1	-1E+10	1	-1E+10	1	-1E+10	1	-1E+10	1	-1E+10	1
4902663	11	C	11/22/2023	06:09	-127.818	48.573	0	7.90	0	11.3330	0	32.2020	0	24.539	0	7.833	0	254.8	4	93.6	4	-1E+10	1	-1E+10	1	-1E+10	1	-1E+10	1	-1E+10	1	-1E+10	1
4902663	11	C	11/22/2023	06:09	-127.818	48.573	0	8.90	0	11.3340	0	32.2000	0	24.537	0	8.825	0	254.7	4	93.5	4	-1E+10	1	-1E+10	1	-1E+10	1	-1E+10	1	-1E+10	1	-1E+10	1
4902663	11	C	11/22/2023	06:09	-127.818	48.573	0	9.90	0	11.3350	0	32.2010	0	24.538	0	9.816	0	254.5	4	93.5	4	-1E+10	1	-1E+10	1	-1E+10	1	-1E+10	1	-1E+10	1	-1E+10	1
4902663	11	C	11/22/2023	06:09	-127.818	48.573	0	15.00	0	11.3400	0	32.2060	0	24.541	0	14.873	0	254.2	4	93.4	4	-1E+10	1	-1E+10	1	-1E+10	1	-1E+10	1	-1E+10	1	-1E+10	1
4902663	11	C	11/22/2023	06:09	-127.818	48.573	0	25.60	0	11.3430	0	32.2070	0	24.542	0	25.382	0	253.3	4	93.1	4	-1E+10	1	-1E+10	1	-1E+10	1	-1E+10	1	-1E+10	1	-1E+10	1
4902663	11	C	11/22/2023	06:09	-127.818	48.573	0	35.80	0	11.3310	0	32.2130	0	24.549	0	35.495	0	251.4	4	92.3	4	-1E+10	1	-1E+10	1	-1E+10	1	-1E+10	1	-1E+10	1	-1E+10	1
4902663	11	C	11/22/2023	06:09	-127.818	48.573	0	45.50	0	10.4990	0	32.2600	0	24.731	0	45.111	0	247.6	4	89.4	4	-1E+10	1	-1E+10	1	-1E+10	1	-1E+10	1	-1E+10	1	-1E+10	1
4902663	11	C	11/22/2023	06:09	-127.818	48.573	0	55.00	0	8.2020	0	32.4260	0	25.225	0	54.528	0	245.4	4	84.3	4	-1E+10	1	-1E+10	1	-1E+10	1	-1E+10	1	-1E+10	1	-1E+10	1
4902663	11	C	11/22/2023	06:09	-127.818	48.573	0	65.20	0	7.7050	0	32.5890	0	25.424	0	64.639	0	224.6	4	76.4	4	-1E+10	1	-1E+10	1	-1E+10	1	-1E+10	1	-1E+10	1	-1E+10	1
4902663	11	C	11/22/2023	06:09	-127.818	48.573	0	75.10	0	7.7020	0	32.8130	0	25.601	0	74.452	0	206.7	4	70.4	4	-1E+10	1	-1E+10	1	-1E+10	1	-1E+10	1	-1E+10	1	-1E+10	1
4902663	11	C	11/22/2023	06:09	-127.818	48.573	0	85.10	0	7.6130	0	32.9160	0	25.694	0	84.364	0	190.5	4	64.8	4	-1E+10	1	-1E+10	1	-1E+10	1	-1E+10	1	-1E+10	1	-1E+10	1
4902663	11	C	11/22/2023	06:09	-127.818	48.573	0	95.40	0	7.6490	0	33.0990	0	25.833	0	94.573	0	168.0	4	57.3	4	-1E+10	1	-1E+10	1	-1E+10	1	-1E+10	1	-1E+10	1	-1E+10	1
4902663	11	C	11/22/2023	06:09	-127.818	48.573	0	105.30	0	7.5990	0	33.3540	0	26.041	0	104.384	0	149.1	4	50.9	4	-1E+10	1	-1E+10	1	-1E+10	1	-1E+10	1	-1E+10	1	-1E+10	1
4902663	11	C	11/22/2023	06:09	-127.818	48.573	0	115.50	0	7.5930	0	33.4880	0	26.147	0	114.493	0	135.3	4	46.2	4	-1E+10	1	-1E+10	1	-1E+10	1	-1E+10	1	-1E+10	1	-1E+10	1
4902663	11	C	11/22/2023	06:09	-127.818	48.573	0	125.40	0	7.5450	0	33.6460	0	26.278	0	124.303	0	127.4	4	43.5	4	-1E+10	1	-1E+10	1	-1E+10	1	-1E+10	1	-1E+10	1	-1E+10	1
4902663	11	C	11/22/2023	06:09	-127.818	48.573	0	135.20	0	7.4710	0	33.7040	0	26.335	0	134.015	0	124.6	4	42.5	4	-1E+10	1	-1E+10	1	-1E+10	1	-1E+10	1	-1E+10	1	-1E+10	1
4902663	11	C	11/22/2023	06:09	-127.818	48.573	0	145.40	0	7.3280	0	33.7700	0	26.407	0	144.122	0	128.1	4	43.6	4	-1E+10	1	-1E+10	1	-1E+10	1	-1E+10	1	-1E+10	1	-1E+10	1
4902663	11	C	11/22/2023	06:09	-127.818	48.573	0	155.60	0	7.1980	0	33.7920	0	26.442	0	154.228	0	130.2	4	44.2	4	-1E+10	1	-1E+10	1	-1E+10	1	-1E+10	1	-1E+10	1	-1E+10	1
4902663	11	C	11/22/2023	06:09	-127.818	48.573	0	165.60	0	7.0990	0	33.8030	0	26.465	0	164.136	0	129.2	4	43.8	4	-1E+10	1	-1E+10	1	-1E+10	1	-1E+10	1	-1E+10	1	-1E+10	1
4902663	11	C	11/22/2023	06:09	-127.818	48.573	0	175.40	0	6.9700	0	33.8170	0	26.493	0	173.845	0	125.1	4	42.2	4	-1E+10	1	-1E+10	1	-1E+10	1	-1E+10	1	-1E+10	1	-1E+10	1
4902663	11	C	11/22/2023	06:09	-127.818	48.573	0	185.70	0	6.8390	0	33.8350	0	26.525	0	184.049	0	119.9	4	40.4	4	-1E+10	1	-1E+10	1	-1E+10	1	-1E+10	1	-1E+10	1	-1E+10	1
4902663	11	C	11/22/2023	06:09	-127.818	48.573	0	195.70	0	6.7020	0	33.8470	0	26.553	0	193.956	0	115.1	4	38.6	4	-1E+10	1	-1E+10	1	-1E+10	1	-1E+10	1	-1E+10	1	-1E+10	1
4902663	11	C	11/22/2023	06:09	-127.818	48.573	0	212.90	0	6.5270	0	33.8610	0	26.588	0	210.994	0	109.7	4	36.7	4	-1E+10	1	-1E+10	1	-1E+10	1	-1E+10	1	-1E+10	1	-1E+10	1
4902663	11	C	11/22/2023	06:09	-127.818	48.573	0	237.70	0	6.3070	0	33.8750	0	26.627	0	235.557	0	100.1	4	33.3	4	-1E+10	1	-1E+10	1	-1E+10	1	-1E+10	1	-1E+10	1	-1E+10	1
4902663	11	C	11/22/2023	06:09	-127.818	48.573	0	262.60	0	6.0810	0	33.9020	0	26.678	0	260.217	0	86.8	4	28.7	4	-1E+10	1	-1E+10	1	-1E+10	1	-1E+10	1	-1E+10	1	-1E+10	1
4902663	11	C	11/22/2023	06:09	-127.818	48.573	0	287.50	0	5.8520	0	33.9200	0	26.721	0	284.874	0	77.6	4	25.6	4	-1E+10	1	-1E+10	1	-1E+10	1	-1E+10	1	-1E+10	1	-1E+10	1
4902663	11	C	11/22/2023	06:09	-127.818	48.573	0	312.40	0	5.6910	0	33.9310	0	26.749	0	309.528	0	70.8	4	23.2	4	-1E+10	1	-1E+10	1	-1E+10	1	-1E+10	1	-1E+10	1	-1E+10	1
4902663	11	C	11/22/2023	06:09	-127.818	48.573	0	337.60	0	5.7910	0	33.9850	0	26.780	0	334.476	0	56.1	4	18.5	4	-1E+10	1	-1E+10	1	-1E+10	1	-1E+10	1	-1E+10	1	-1E+10	1
4902663	11	C	11/22/2023	06:09	-127.818	48.573	0	362.80	0	5.8680	0	34.0350	0	26.811	0	359.421	0	46.8	4	15.4	4	-1E+10	1	-1E+10	1	-1E+10	1	-1E+10	1	-1E+10	1	-1E+10	1
4902663	11	C	11/22/2023	06:09	-127.818	48.573	0	387.90	0	5.7150	0	34.0510	0	26.842	0	384.264	0	41.8	4	13.7	4	-1E+10	1	-1E+10	1	-1E+10	1	-1E+10	1	-1E+10	1	-1E+10	1
4902663	11	C	11/22/2023	06:09	-127.818	48.573	0	412.70	0	5.5700	0	34.0650	0	26.871	0	408.807	0	37.9	4	12.4	4	-1E+10	1	-1E+10	1	-1E+10	1	-1E+10	1	-1E+10	1	-1E+10	1
4902663	11	C	11/22/2023	06:09	-127.818	48.573	0	437.30	0	5.4500	0	34.0750	0	26.894	0	433.150	0	34.8	4	11.4	4	-1E+10	1	-1E+10	1	-1E+10	1	-1E+10	1	-1E+10	1	-1E+10	1
4902663	11	C	11/22/2023	06:09	-127.818	48.573	0	462.50	0	5.3330	0	34.0850	0	26.916	0	458.083	0	31.8	4	10.4	4	-1E+10	1	-1E+10	1	-1E+10	1	-1E+10	1	-1E+10	1	-1E+10	1
4902663	11	C	11/22/2023	06:09	-127.818	48.573	0	487.80	0	5.1800	0	34.0960	0	26.942	0	483.112	0	28.9	4	9.4	4	-1E+10	1	-1E+10	1	-1E+10	1	-1E+10	1	-1E+10	1	-1E+10	1
4902663	11	C	11/22/2023	06:09	-127.818	48.573	0	513.10	0	4.9770	0	34.1050	0	26.973	0	508.137	0	24.9	4	8.1	4	-1E+10	1	-1E+10	1	-1E+10	1	-1E+10	1	-1E+10	1	-1E+10	1
4902663	11	C	11/22/2023	06:09	-127.818	48.573	0	538.20	0	4.9010	0	34.1210	0	26.995	0	532.963	0	22.0	4	7.1	4	-1E+10	1	-1E+10	1	-1E+10	1	-1E+10	1	-1E+10	1	-1E+10	1
4902663	11	C	11/22/2023	06:09	-127.818	48.573	0	563.00	0	4.7180	0	34.1280	0	27.021	0	557.488	0	20.8	4	6.7	4	-1E+10	1	-1E+10	1	-1E+10	1	-1E+10	1	-1E+10	1	-1E+10	1
4902663	11	C	11/22/2023	06:09	-127.818	48.573	0	587.80	0	4.5410	0	34.1290	0	27.041	0	582.011	0	19.3	4	6.2	4	-1E+10	1	-1E+10	1	-1E+10	1	-1E+10	1	-1E+10	1	-1E+10	1
4902663	11	C	11/22/2023	06:09	-127.818	48.573	0	612.70	0	4.5550	0	34.1640	0	27.068	0	606.629	0	15.2	4	4.9	4	-1E+10	1	-1E+10	1	-1E+10	1	-1E+10	1	-1E+10	1	-1E+10	1
4902663	11	C	11/22/2023	06:09	-127.818	48.573	0	637.50	0	4.6240	0	34.2050	0	27.093	0	631.146	0	12.7	4	4.1	4	-1E+10	1	-1E+10	1	-1E+10	1	-1E+10	1	-1E+10	1	-1E+10	1
4902663	11	C	11/22/2023	06:09	-127.818	48.573	0	662.60	0	4.5170	0	34.2180	0	27.115	0	655.956	0	11.3	4	3.6	4	-1E+10	1	-1E+10	1	-1E+10	1	-1E+10	1	-1E+10	1	-1E+10	1
4902663	11	C	11/22/2023	06:09	-127.818	48.573	0	688.00	0	4.4310	0	34.2340	0	27.137	0	681.060	0	10.0	4	3.2	4	-1E+10	1	-1E+10	1	-1E+10	1	-1E+10	1	-1E+10	1	-1E+10	1
4902663	11	C	11/22/2023	06:09	-127.818	48.573	0	713.20	0	4.3580	0	34.2490	0	27.157	0	705.963	0	9.2	4	2.9	4	-1E+10	1	-1E+10	1	-1E+10	1	-1E+10	1	-1E+10	1	-1E+10	1
4902663	11	C	11/22/2023	06:09	-127.818	48.573	0	738.00	0	4.2800	0	34.2640	0	27.177	0	730.468	0	8.5	4	2.7	4	-1E+10	1	-1E+10	1	-1E+10	1	-1E+10	1	-1E+10	1	-1E+10	1
4902663	11	C	11/22/2023	06:09	-127.818	48.573	0	762.90	0	4.1990	0	34.2780	0	27.197	0	755.069	0	8.0	4	2.5	4	-1E+10	1	-1E+10	1	-1E+10	1	-1E+10	1	-1E+10	1	-1E+10	1
4902663	11	C	11/22/2023	06:09	-127.818	48.573	0	788.20	0	4.1220	0	34.2910	0	27.216	0	780.062	0	7.6	4	2.4	4	-1E+10	1	-1E+10	1	-1E+10	1	-1E+10	1	-1E+10	1	-1E+10	1
4902663	11	C	11/22/2023	06:09	-127.818	48.573	0	813.10	0	4.0320	0	34.3030	0	27.235	0	804.657	0	7.4	4	2.4	4	-1E+10	1	-1E+10	1	-1E+10	1	-1E+10	1	-1E+10	1	-1E+10	1
4902663	11	C	11/22/2023	06:09	-127.818	48.573	0	838.30	0	3.9780	0	34.3170	0	27.252	0	829.545	0	7.2	4	2.3	4	-1E+10	1	-1E+10	1	-1E+10	1	-1E+10	1	-1E+10	1	-1E+10	1
4902663	11	C	11/22/2023	06:09	-127.818	48.573	0	863.40	0	3.8990	0	34.3260	0	27.267	0	854.332	0	7.1	4	2.2	4	-1E+10	1	-1E+10	1	-1E+10	1	-1E+10	1	-1E+10	1	-1E+10	1
4902663	11	C	11/22/2023	06:09	-127.818	48.573	0	887.90	0	3.8310	0	34.3340	0	27.280	0	878.523	0	7.1	4	2.2	4	-1E+10	1	-1E+10	1	-1E+10	1	-1E+10	1	-1E+10	1	-1E+10	1
4902663	11	C	11/22/2023	06:09	-127.818	48.573	0	912.70	0	3.7930	0	34.3480	0	27.295	0	903.008	0	7.0	4	2.2	4	-1E+10	1	-1E+10	1	-1E+10	1	-1E+10	1	-1E+10	1	-1E+10	1
4902663	11	C	11/22/2023	06:09	-127.818	48.573	0	937.80	0	3.7420	0	34.3600	0	27.310	0	927.785	0	7.2	4	2.3	4	-1E+10	1	-1E+10	1	-1E+10	1	-1E+10	1	-1E+10	1	-1E+10	1
4902663	11	C	11/22/2023	06:09	-127.818	48.573	0	963.00	0	3.6790	0	34.3700	0	27.325	0	952.659	0	7.5	4	2.3	4	-1E+10	1	-1E+10	1	-1E+10	1	-1E+10	1	-1E+10	1	-1E+10	1
4902663	11	C	11/22/2023	06:09	-127.818	48.573	0	988.00	0	3.5940	0	34.3790	0	27.340	0	977.332	0	7.8	4	2.4	4	-1E+10	1	-1E+10	1	-1E+10	1	-1E+10	1	-1E+10	1	-1E+10	1
4902663	11	C	11/22/2023	06:09	-127.818	48.573	0	1012.70	0	3.4790	0	34.3780	0	27.351	0	1001.707	0	8.0	4	2.5	4	-1E+10	1	-1E+10	1	-1E+10	1	-1E+10	1	-1E+10	1	-1E+10	1
4902663	11	C	11/22/2023	06:09	-127.818	48.573	0	1037.70	0	3.4150	0	34.3860	0	27.363	0	1026.374	0	8.4	4	2.6	4	-1E+10	1	-1E+10	1	-1E+10	1	-1E+10	1	-1E+10	1	-1E+10	1
4902663	11	C	11/22/2023	06:09	-127.818	48.573	0	1063.00	0	3.3820	0	34.3980	0	27.376	0	1051.335	0	8.9	4	2.8	4	-1E+10	1	-1E+10	1	-1E+10	1	-1E+10	1	-1E+10	1	-1E+10	1
4902663	11	C	11/22/2023	06:09	-127.818	48.573	0	1088.10	0	3.3320	0	34.4060	0	27.387	0	1076.095	0	9.4	4	2.9	4	-1E+10	1	-1E+10	1	-1E+10	1	-1E+10	1	-1E+10	1	-1E+10	1
4902663	11	C	11/22/2023	06:09	-127.818	48.573	0	1113.10	0	3.2650	0	34.4170	0	27.403	0	1100.753	0	10.1	4	3.1	4	-1E+10	1	-1E+10	1	-1E+10	1	-1E+10	1	-1E+10	1	-1E+10	1
4902663	11	C	11/22/2023	06:09	-127.818	48.573	0	1138.50	0	3.1970	0	34.4260	0	27.416	0	1125.804	0	10.7	4	3.3	4	-1E+10	1	-1E+10	1	-1E+10	1	-1E+10	1	-1E+10	1	-1E+10	1
4902663	11	C	11/22/2023	06:09	-127.818	48.573	0	1162.90	0	3.1410	0	34.4340	0	27.428	0	1149.865	0	11.4	4	3.5	4	-1E+10	1	-1E+10	1	-1E+10	1	-1E+10	1	-1E+10	1	-1E+10	1
4902663	11	C	11/22/2023	06:09	-127.818	48.573	0	1187.90	0	3.0830	0	34.4420	0	27.440	0	1174.515	0	12.1	4	3.8	4	-1E+10	1	-1E+10	1	-1E+10	1	-1E+10	1	-1E+10	1	-1E+10	1
4902663	11	C	11/22/2023	06:09	-127.818	48.573	0	1212.80	0	3.0280	0	34.4490	0	27.450	0	1199.063	0	13.0	4	4.0	4	-1E+10	1	-1E+10	1	-1E+10	1	-1E+10	1	-1E+10	1	-1E+10	1
4902663	11	C	11/22/2023	06:09	-127.818	48.573	0	1238.00	0	2.9700	0	34.4580	0	27.463	0	1223.904	0	14.0	4	4.3	4	-1E+10	1	-1E+10	1	-1E+10	1	-1E+10	1	-1E+10	1	-1E+10	1
4902663	11	C	11/22/2023	06:09	-127.818	48.573	0	1263.00	0	2.9360	0	34.4640	0	27.471	0	1248.546	0	14.8	4	4.6	4	-1E+10	1	-1E+10	1	-1E+10	1	-1E+10	1	-1E+10	1	-1E+10	1
4902663	11	C	11/22/2023	06:09	-127.818	48.573	0	1287.80	0	2.8860	0	34.4690	0	27.480	0	1272.987	0	15.7	4	4.8	4	-1E+10	1	-1E+10	1	-1E+10	1	-1E+10	1	-1E+10	1	-1E+10	1
4902663	11	C	11/22/2023	06:09	-127.818	48.573	0	1313.10	0	2.8410	0	34.4770	0	27.490	0	1297.918	0	16.9	4	5.2	4	-1E+10	1	-1E+10	1	-1E+10	1	-1E+10	1	-1E+10	1	-1E+10	1
4902663	11	C	11/22/2023	06:09	-127.818	48.573	0	1338.40	0	2.7970	0	34.4810	0	27.497	0	1322.846	0	17.7	4	5.4	4	-1E+10	1	-1E+10	1	-1E+10	1	-1E+10	1	-1E+10	1	-1E+10	1
4902663	11	C	11/22/2023	06:09	-127.818	48.573	0	1363.20	0	2.7120	0	34.4840	0	27.507	0	1347.279	0	18.7	4	5.7	4	-1E+10	1	-1E+10	1	-1E+10	1	-1E+10	1	-1E+10	1	-1E+10	1
4902663	11	C	11/22/2023	06:09	-127.818	48.573	0	1387.70	0	2.6460	0	34.4920	0	27.519	0	1371.413	0	20.2	4	6.2	4	-1E+10	1	-1E+10	1	-1E+10	1	-1E+10	1	-1E+10	1	-1E+10	1
4902663	11	C	11/22/2023	06:09	-127.818	48.573	0	1413.10	0	2.6050	0	34.4980	0	27.528	0	1396.431	0	21.6	4	6.6	4	-1E+10	1	-1E+10	1	-1E+10	1	-1E+10	1	-1E+10	1	-1E+10	1
4902663	11	C	11/22/2023	06:09	-127.818	48.573	0	1437.80	0	2.5710	0	34.5040	0	27.536	0	1420.756	0	22.8	4	7.0	4	-1E+10	1	-1E+10	1	-1E+10	1	-1E+10	1	-1E+10	1	-1E+10	1
4902663	11	C	11/22/2023	06:09	-127.818	48.573	0	1463.00	0	2.5190	0	34.5080	0	27.543	0	1445.571	0	24.0	4	7.3	4	-1E+10	1	-1E+10	1	-1E+10	1	-1E+10	1	-1E+10	1	-1E+10	1
4902663	11	C	11/22/2023	06:09	-127.818	48.573	0	1487.80	0	2.4700	0	34.5120	0	27.551	0	1469.990	0	25.2	4	7.7	4	-1E+10	1	-1E+10	1	-1E+10	1	-1E+10	1	-1E+10	1	-1E+10	1
4902663	11	C	11/22/2023	06:09	-127.818	48.573	0	1513.50	0	2.4360	0	34.5160	0	27.557	0	1495.291	0	26.3	4	8.0	4	-1E+10	1	-1E+10	1	-1E+10	1	-1E+10	1	-1E+10	1	-1E+10	1
4902663	11	C	11/22/2023	06:09	-127.818	48.573	0	1537.70	0	2.4090	0	34.5200	0	27.562	0	1519.113	0	27.4	4	8.3	4	-1E+10	1	-1E+10	1	-1E+10	1	-1E+10	1	-1E+10	1	-1E+10	1
4902663	11	C	11/22/2023	06:09	-127.818	48.573	0	1562.80	0	2.3820	0	34.5230	0	27.567	0	1543.818	0	28.5	4	8.7	4	-1E+10	1	-1E+10	1	-1E+10	1	-1E+10	1	-1E+10	1	-1E+10	1
4902663	11	C	11/22/2023	06:09	-127.818	48.573	0	1587.90	0	2.3420	0	34.5280	0	27.575	0	1568.521	0	29.8	4	9.1	4	-1E+10	1	-1E+10	1	-1E+10	1	-1E+10	1	-1E+10	1	-1E+10	1
4902663	11	C	11/22/2023	06:09	-127.818	48.573	0	1612.90	0	2.3090	0	34.5310	0	27.580	0	1593.121	0	31.0	4	9.4	4	-1E+10	1	-1E+10	1	-1E+10	1	-1E+10	1	-1E+10	1	-1E+10	1
4902663	11	C	11/22/2023	06:09	-127.818	48.573	0	1637.70	0	2.2760	0	34.5350	0	27.586	0	1617.523	0	32.4	4	9.8	4	-1E+10	1	-1E+10	1	-1E+10	1	-1E+10	1	-1E+10	1	-1E+10	1
4902663	11	C	11/22/2023	06:09	-127.818	48.573	0	1662.60	0	2.2500	0	34.5390	0	27.591	0	1642.019	0	33.6	4	10.2	4	-1E+10	1	-1E+10	1	-1E+10	1	-1E+10	1	-1E+10	1	-1E+10	1
4902663	11	C	11/22/2023	06:09	-127.818	48.573	0	1687.90	0	2.2220	0	34.5430	0	27.597	0	1666.907	0	35.0	4	10.6	4	-1E+10	1	-1E+10	1	-1E+10	1	-1E+10	1	-1E+10	1	-1E+10	1
4902663	11	C	11/22/2023	06:09	-127.818	48.573	0	1712.90	0	2.1910	0	34.5480	0	27.604	0	1691.496	0	36.7	4	11.1	4	-1E+10	1	-1E+10	1	-1E+10	1	-1E+10	1	-1E+10	1	-1E+10	1
4902663	11	C	11/22/2023	06:09	-127.818	48.573	0	1737.80	0	2.1710	0	34.5530	0	27.609	0	1715.984	0	38.5	4	11.6	4	-1E+10	1	-1E+10	1	-1E+10	1	-1E+10	1	-1E+10	1	-1E+10	1
4902663	11	C	11/22/2023	06:09	-127.818	48.573	0	1762.80	0	2.1490	0	34.5580	0	27.615	0	1740.568	0	40.6	4	12.3	4	-1E+10	1	-1E+10	1	-1E+10	1	-1E+10	1	-1E+10	1	-1E+10	1
4902663	11	C	11/22/2023	06:09	-127.818	48.573	0	1787.70	0	2.1240	0	34.5630	0	27.621	0	1765.051	0	42.1	4	12.7	4	-1E+10	1	-1E+10	1	-1E+10	1	-1E+10	1	-1E+10	1	-1E+10	1
4902663	11	C	11/22/2023	06:09	-127.818	48.573	0	1812.70	0	2.0890	0	34.5660	0	27.627	0	1789.629	0	43.5	4	13.1	4	-1E+10	1	-1E+10	1	-1E+10	1	-1E+10	1	-1E+10	1	-1E+10	1
4902663	11	C	11/22/2023	06:09	-127.818	48.573	0	1837.70	0	2.0590	0	34.5690	0	27.631	0	1814.204	0	45.1	4	13.6	4	-1E+10	1	-1E+10	1	-1E+10	1	-1E+10	1	-1E+10	1	-1E+10	1
4902663	11	C	11/22/2023	06:09	-127.818	48.573	0	1862.90	0	2.0340	0	34.5740	0	27.638	0	1838.973	0	46.8	4	14.1	4	-1E+10	1	-1E+10	1	-1E+10	1	-1E+10	1	-1E+10	1	-1E+10	1
4902663	11	C	11/22/2023	06:09	-127.818	48.573	0	1887.80	0	2.0170	0	34.5770	0	27.641	0	1863.444	0	48.1	4	14.5	4	-1E+10	1	-1E+10	1	-1E+10	1	-1E+10	1	-1E+10	1	-1E+10	1
4902663	11	C	11/22/2023	06:09	-127.818	48.573	0	1913.70	0	1.9980	0	34.5810	0	27.646	0	1888.895	0	49.6	4	14.9	4	-1E+10	1	-1E+10	1	-1E+10	1	-1E+10	1	-1E+10	1	-1E+10	1
4902663	11	C	11/22/2023	06:09	-127.818	48.573	0	1937.70	0	1.9820	0	34.5840	0	27.650	0	1912.476	0	50.8	4	15.3	4	-1E+10	1	-1E+10	1	-1E+10	1	-1E+10	1	-1E+10	1	-1E+10	1
4902663	11	C	11/22/2023	06:09	-127.818	48.573	0	1962.70	0	1.9640	0	34.5880	0	27.655	0	1937.037	0	52.5	4	15.8	4	-1E+10	1	-1E+10	1	-1E+10	1	-1E+10	1	-1E+10	1	-1E+10	1
4902663	11	C	11/22/2023	06:09	-127.818	48.573	0	1988.00	0	1.9320	0	34.5940	0	27.662	0	1961.890	0	54.9	4	16.5	4	-1E+10	1	-1E+10	1	-1E+10	1	-1E+10	1	-1E+10	1	-1E+10	1
4902663	11	C	11/22/2023	06:09	-127.818	48.573	0	2012.00	0	1.9100	0	34.5990	0	27.668	0	1985.463	0	55.7	4	16.8	4	-1E+10	1	-1E+10	1	-1E+10	1	-1E+10	1	-1E+10	1	-1E+10	1
4902663	11	C	11/22/2023	06:09	-127.818	48.573	0																										
4902663	12	C	12/02/2023	06:16	-127.975	48.387	0	0.00	0	10.4610	0	32.1950	0	24.686	0	0.000	0	259.2	4	93.4	4	-1E+10	1	-1E+10	1	-1E+10	1	-1E+10	1	-1E+10	1	-1E+10	1
4902663	12	C	12/02/2023	06:16	-127.975	48.387	0	0.10	0	10.4640	0	32.1940	0	24.684	0	0.099	0	-1e10	1	-1e10	1	-1E+10	1	-1E+10	1	-1E+10	1	-1E+10	1	-1E+10	1	-1E+10	1
4902663	12	C	12/02/2023	06:16	-127.975	48.387	0	0.40	0	10.4660	0	32.2040	0	24.692	0	0.397	0	258.6	4	93.2	4	-1E+10	1	-1E+10	1	-1E+10	1	-1E+10	1	-1E+10	1	-1E+10	1
4902663	12	C	12/02/2023	06:16	-127.975	48.387	0	1.10	0	10.4670	0	32.2040	0	24.692	0	1.091	0	258.6	4	93.2	4	-1E+10	1	-1E+10	1	-1E+10	1	-1E+10	1	-1E+10	1	-1E+10	1
4902663	12	C	12/02/2023	06:16	-127.975	48.387	0	1.80	0	10.4670	0	32.2040	0	24.692	0	1.785	0	258.5	4	93.2	4	-1E+10	1	-1E+10	1	-1E+10	1	-1E+10	1	-1E+10	1	-1E+10	1
4902663	12	C	12/02/2023	06:16	-127.975	48.387	0	2.90	0	10.4670	0	32.2040	0	24.692	0	2.876	0	258.4	4	93.2	4	-1E+10	1	-1E+10	1	-1E+10	1	-1E+10	1	-1E+10	1	-1E+10	1
4902663	12	C	12/02/2023	06:16	-127.975	48.387	0	4.10	0	10.4660	0	32.2060	0	24.693	0	4.065	0	258.3	4	93.1	4	-1E+10	1	-1E+10	1	-1E+10	1	-1E+10	1	-1E+10	1	-1E+10	1
4902663	12	C	12/02/2023	06:16	-127.975	48.387	0	4.80	0	10.4670	0	32.2060	0	24.693	0	4.759	0	258.2	4	93.1	4	-1E+10	1	-1E+10	1	-1E+10	1	-1E+10	1	-1E+10	1	-1E+10	1
4902663	12	C	12/02/2023	06:16	-127.975	48.387	0	5.70	0	10.4670	0	32.2060	0	24.693	0	5.652	0	258.2	4	93.1	4	-1E+10	1	-1E+10	1	-1E+10	1	-1E+10	1	-1E+10	1	-1E+10	1
4902663	12	C	12/02/2023	06:16	-127.975	48.387	0	6.80	0	10.4670	0	32.2060	0	24.693	0	6.743	0	258.1	4	93.1	4	-1E+10	1	-1E+10	1	-1E+10	1	-1E+10	1	-1E+10	1	-1E+10	1
4902663	12	C	12/02/2023	06:16	-127.975	48.387	0	8.30	0	10.4680	0	32.2060	0	24.693	0	8.230	0	258.0	4	93.0	4	-1E+10	1	-1E+10	1	-1E+10	1	-1E+10	1	-1E+10	1	-1E+10	1
4902663	12	C	12/02/2023	06:16	-127.975	48.387	0	9.20	0	10.4680	0	32.2060	0	24.693	0	9.122	0	257.9	4	93.0	4	-1E+10	1	-1E+10	1	-1E+10	1	-1E+10	1	-1E+10	1	-1E+10	1
4902663	12	C	12/02/2023	06:16	-127.975	48.387	0	10.20	0	10.4680	0	32.2060	0	24.693	0	10.114	0	257.9	4	93.0	4	-1E+10	1	-1E+10	1	-1E+10	1	-1E+10	1	-1E+10	1	-1E+10	1
4902663	12	C	12/02/2023	06:16	-127.975	48.387	0	15.70	0	10.4680	0	32.2050	0	24.692	0	15.567	0	257.7	4	92.9	4	-1E+10	1	-1E+10	1	-1E+10	1	-1E+10	1	-1E+10	1	-1E+10	1
4902663	12	C	12/02/2023	06:16	-127.975	48.387	0	25.50	0	10.4690	0	32.2050	0	24.692	0	25.284	0	256.9	4	92.6	4	-1E+10	1	-1E+10	1	-1E+10	1	-1E+10	1	-1E+10	1	-1E+10	1
4902663	12	C	12/02/2023	06:16	-127.975	48.387	0	35.80	0	10.4700	0	32.2060	0	24.693	0	35.495	0	255.4	4	92.1	4	-1E+10	1	-1E+10	1	-1E+10	1	-1E+10	1	-1E+10	1	-1E+10	1
4902663	12	C	12/02/2023	06:16	-127.975	48.387	0	45.80	0	10.4700	0	32.2060	0	24.693	0	45.409	0	249.7	4	90.0	4	-1E+10	1	-1E+10	1	-1E+10	1	-1E+10	1	-1E+10	1	-1E+10	1
4902663	12	C	12/02/2023	06:16	-127.975	48.387	0	56.20	0	10.1140	0	32.2880	0	24.817	0	55.719	0	233.7	4	83.7	4	-1E+10	1	-1E+10	1	-1E+10	1	-1E+10	1	-1E+10	1	-1E+10	1
4902663	12	C	12/02/2023	06:16	-127.975	48.387	0	65.80	0	8.5480	0	32.6210	0	25.326	0	65.235	0	207.4	4	71.9	4	-1E+10	1	-1E+10	1	-1E+10	1	-1E+10	1	-1E+10	1	-1E+10	1
4902663	12	C	12/02/2023	06:16	-127.975	48.387	0	75.40	0	8.0600	0	32.8450	0	25.574	0	74.751	0	185.7	4	63.8	4	-1E+10	1	-1E+10	1	-1E+10	1	-1E+10	1	-1E+10	1	-1E+10	1
4902663	12	C	12/02/2023	06:16	-127.975	48.387	0	85.60	0	7.8370	0	33.0540	0	25.771	0	84.861	0	171.7	4	58.8	4	-1E+10	1	-1E+10	1	-1E+10	1	-1E+10	1	-1E+10	1	-1E+10	1
4902663	12	C	12/02/2023	06:16	-127.975	48.387	0	95.80	0	7.6680	0	33.2770	0	25.970	0	94.971	0	157.0	4	53.6	4	-1E+10	1	-1E+10	1	-1E+10	1	-1E+10	1	-1E+10	1	-1E+10	1
4902663	12	C	12/02/2023	06:16	-127.975	48.387	0	105.50	0	7.6030	0	33.4750	0	26.135	0	104.584	0	145.4	4	49.7	4	-1E+10	1	-1E+10	1	-1E+10	1	-1E+10	1	-1E+10	1	-1E+10	1
4902663	12	C	12/02/2023	06:16	-127.975	48.387	0	115.60	0	7.5400	0	33.5860	0	26.232	0	114.594	0	139.1	4	47.5	4	-1E+10	1	-1E+10	1	-1E+10	1	-1E+10	1	-1E+10	1	-1E+10	1
4902663	12	C	12/02/2023	06:16	-127.975	48.387	0	125.50	0	7.4800	0	33.6620	0	26.300	0	124.405	0	130.8	4	44.6	4	-1E+10	1	-1E+10	1	-1E+10	1	-1E+10	1	-1E+10	1	-1E+10	1
4902663	12	C	12/02/2023	06:16	-127.975	48.387	0	135.20	0	7.3970	0	33.7240	0	26.361	0	134.017	0	123.9	4	42.2	4	-1E+10	1	-1E+10	1	-1E+10	1	-1E+10	1	-1E+10	1	-1E+10	1
4902663	12	C	12/02/2023	06:16	-127.975	48.387	0	145.10	0	7.2480	0	33.7820	0	26.427	0	143.827	0	118.2	4	40.2	4	-1E+10	1	-1E+10	1	-1E+10	1	-1E+10	1	-1E+10	1	-1E+10	1
4902663	12	C	12/02/2023	06:16	-127.975	48.387	0	155.40	0	7.1270	0	33.8080	0	26.465	0	154.032	0	111.2	4	37.7	4	-1E+10	1	-1E+10	1	-1E+10	1	-1E+10	1	-1E+10	1	-1E+10	1
4902663	12	C	12/02/2023	06:16	-127.975	48.387	0	165.30	0	7.0430	0	33.8440	0	26.505	0	163.841	0	104.7	4	35.4	4	-1E+10	1	-1E+10	1	-1E+10	1	-1E+10	1	-1E+10	1	-1E+10	1
4902663	12	C	12/02/2023	06:16	-127.975	48.387	0	175.40	0	6.9790	0	33.8680	0	26.532	0	173.848	0	100.4	4	33.9	4	-1E+10	1	-1E+10	1	-1E+10	1	-1E+10	1	-1E+10	1	-1E+10	1
4902663	12	C	12/02/2023	06:16	-127.975	48.387	0	185.50	0	6.8630	0	33.8810	0	26.558	0	183.854	0	98.3	4	33.1	4	-1E+10	1	-1E+10	1	-1E+10	1	-1E+10	1	-1E+10	1	-1E+10	1
4902663	12	C	12/02/2023	06:16	-127.975	48.387	0	195.50	0	6.7490	0	33.8900	0	26.581	0	193.761	0	95.3	4	32.0	4	-1E+10	1	-1E+10	1	-1E+10	1	-1E+10	1	-1E+10	1	-1E+10	1
4902663	12	C	12/02/2023	06:16	-127.975	48.387	0	213.10	0	6.6420	0	33.9060	0	26.608	0	211.195	0	89.7	4	30.1	4	-1E+10	1	-1E+10	1	-1E+10	1	-1E+10	1	-1E+10	1	-1E+10	1
4902663	12	C	12/02/2023	06:16	-127.975	48.387	0	238.60	0	6.4850	0	33.9420	0	26.657	0	236.453	0	77.6	4	25.9	4	-1E+10	1	-1E+10	1	-1E+10	1	-1E+10	1	-1E+10	1	-1E+10	1
4902663	12	C	12/02/2023	06:16	-127.975	48.387	0	262.40	0	6.2700	0	33.9510	0	26.693	0	260.024	0	74.0	4	24.6	4	-1E+10	1	-1E+10	1	-1E+10	1	-1E+10	1	-1E+10	1	-1E+10	1
4902663	12	C	12/02/2023	06:16	-127.975	48.387	0	287.80	0	5.8940	0	33.9360	0	26.728	0	285.176	0	70.6	4	23.3	4	-1E+10	1	-1E+10	1	-1E+10	1	-1E+10	1	-1E+10	1	-1E+10	1
4902663	12	C	12/02/2023	06:16	-127.975	48.387	0	313.10	0	5.7370	0	33.9570	0	26.764	0	310.227	0	62.7	4	20.6	4	-1E+10	1	-1E+10	1	-1E+10	1	-1E+10	1	-1E+10	1	-1E+10	1
4902663	12	C	12/02/2023	06:16	-127.975	48.387	0	338.10	0	5.4930	0	33.9710	0	26.805	0	334.977	0	56.5	4	18.5	4	-1E+10	1	-1E+10	1	-1E+10	1	-1E+10	1	-1E+10	1	-1E+10	1
4902663	12	C	12/02/2023	06:16	-127.975	48.387	0	363.10	0	5.2940	0	33.9790	0	26.835	0	359.724	0	52.7	4	17.1	4	-1E+10	1	-1E+10	1	-1E+10	1	-1E+10	1	-1E+10	1	-1E+10	1
4902663	12	C	12/02/2023	06:16	-127.975	48.387	0	387.70	0	5.1030	0	33.9870	0	26.864	0	384.073	0	48.6	4	15.7	4	-1E+10	1	-1E+10	1	-1E+10	1	-1E+10	1	-1E+10	1	-1E+10	1
4902663	12	C	12/02/2023	06:16	-127.975	48.387	0	412.90	0	4.9420	0	34.0010	0	26.894	0	409.012	0	43.2	4	13.9	4	-1E+10	1	-1E+10	1	-1E+10	1	-1E+10	1	-1E+10	1	-1E+10	1
4902663	12	C	12/02/2023	06:16	-127.975	48.387	0	438.00	0	4.9320	0	34.0320	0	26.920	0	433.850	0	37.3	4	12.0	4	-1E+10	1	-1E+10	1	-1E+10	1	-1E+10	1	-1E+10	1	-1E+10	1
4902663	12	C	12/02/2023	06:16	-127.975	48.387	0	463.30	0	4.8720	0	34.0510	0	26.942	0	458.882	0	33.5	4	10.8	4	-1E+10	1	-1E+10	1	-1E+10	1	-1E+10	1	-1E+10	1	-1E+10	1
4902663	12	C	12/02/2023	06:16	-127.975	48.387	0	487.80	0	4.7350	0	34.0640	0	26.967	0	483.120	0	29.8	4	9.6	4	-1E+10	1	-1E+10	1	-1E+10	1	-1E+10	1	-1E+10	1	-1E+10	1
4902663	12	C	12/02/2023	06:16	-127.975	48.387	0	512.70	0	4.7280	0	34.0950	0	26.993	0	507.751	0	24.8	4	8.0	4	-1E+10	1	-1E+10	1	-1E+10	1	-1E+10	1	-1E+10	1	-1E+10	1
4902663	12	C	12/02/2023	06:16	-127.975	48.387	0	538.00	0	4.6520	0	34.1090	0	27.013	0	532.774	0	22.4	4	7.2	4	-1E+10	1	-1E+10	1	-1E+10	1	-1E+10	1	-1E+10	1	-1E+10	1
4902663	12	C	12/02/2023	06:16	-127.975	48.387	0	563.10	0	4.5590	0	34.1290	0	27.039	0	557.596	0	19.6	4	6.3	4	-1E+10	1	-1E+10	1	-1E+10	1	-1E+10	1	-1E+10	1	-1E+10	1
4902663	12	C	12/02/2023	06:16	-127.975	48.387	0	587.80	0	4.4870	0	34.1450	0	27.060	0	582.020	0	17.5	4	5.6	4	-1E+10	1	-1E+10	1	-1E+10	1	-1E+10	1	-1E+10	1	-1E+10	1
4902663	12	C	12/02/2023	06:16	-127.975	48.387	0	612.80	0	4.4050	0	34.1640	0	27.084	0	606.738	0	15.3	4	4.9	4	-1E+10	1	-1E+10	1	-1E+10	1	-1E+10	1	-1E+10	1	-1E+10	1
4902663	12	C	12/02/2023	06:16	-127.975	48.387	0	638.00	0	4.3230	0	34.1830	0	27.108	0	631.651	0	13.6	4	4.3	4	-1E+10	1	-1E+10	1	-1E+10	1	-1E+10	1	-1E+10	1	-1E+10	1
4902663	12	C	12/02/2023	06:16	-127.975	48.387	0	662.80	0	4.2600	0	34.2000	0	27.128	0	656.165	0	12.1	4	3.9	4	-1E+10	1	-1E+10	1	-1E+10	1	-1E+10	1	-1E+10	1	-1E+10	1
4902663	12	C	12/02/2023	06:16	-127.975	48.387	0	687.90	0	4.2290	0	34.2190	0	27.147	0	680.973	0	10.8	4	3.4	4	-1E+10	1	-1E+10	1	-1E+10	1	-1E+10	1	-1E+10	1	-1E+10	1
4902663	12	C	12/02/2023	06:16	-127.975	48.387	0	712.90	0	4.1660	0	34.2330	0	27.164	0	705.679	0	9.9	4	3.1	4	-1E+10	1	-1E+10	1	-1E+10	1	-1E+10	1	-1E+10	1	-1E+10	1
4902663	12	C	12/02/2023	06:16	-127.975	48.387	0	738.00	0	4.1010	0	34.2530	0	27.187	0	730.480	0	9.0	4	2.8	4	-1E+10	1	-1E+10	1	-1E+10	1	-1E+10	1	-1E+10	1	-1E+10	1
4902663	12	C	12/02/2023	06:16	-127.975	48.387	0	762.90	0	4.0370	0	34.2660	0	27.204	0	755.082	0	8.6	4	2.7	4	-1E+10	1	-1E+10	1	-1E+10	1	-1E+10	1	-1E+10	1	-1E+10	1
4902663	12	C	12/02/2023	06:16	-127.975	48.387	0	788.70	0	3.9380	0	34.2730	0	27.220	0	780.569	0	8.6	4	2.7	4	-1E+10	1	-1E+10	1	-1E+10	1	-1E+10	1	-1E+10	1	-1E+10	1
4902663	12	C	12/02/2023	06:16	-127.975	48.387	0	812.90	0	3.9150	0	34.2880	0	27.235	0	804.473	0	7.8	4	2.5	4	-1E+10	1	-1E+10	1	-1E+10	1	-1E+10	1	-1E+10	1	-1E+10	1
4902663	12	C	12/02/2023	06:16	-127.975	48.387	0	837.80	0	3.8950	0	34.3060	0	27.251	0	829.066	0	7.3	4	2.3	4	-1E+10	1	-1E+10	1	-1E+10	1	-1E+10	1	-1E+10	1	-1E+10	1
4902663	12	C	12/02/2023	06:16	-127.975	48.387	0	862.90	0	3.8310	0	34.3150	0	27.265	0	853.853	0	7.3	4	2.3	4	-1E+10	1	-1E+10	1	-1E+10	1	-1E+10	1	-1E+10	1	-1E+10	1
4902663	12	C	12/02/2023	06:16	-127.975	48.387	0	888.10	0	3.7920	0	34.3280	0	27.279	0	878.735	0	7.1	4	2.2	4	-1E+10	1	-1E+10	1	-1E+10	1	-1E+10	1	-1E+10	1	-1E+10	1
4902663	12	C	12/02/2023	06:16	-127.975	48.387	0	913.10	0	3.7370	0	34.3410	0	27.295	0	903.418	0	7.1	4	2.2	4	-1E+10	1	-1E+10	1	-1E+10	1	-1E+10	1	-1E+10	1	-1E+10	1
4902663	12	C	12/02/2023	06:16	-127.975	48.387	0	937.80	0	3.6680	0	34.3510	0	27.310	0	927.801	0	7.3	4	2.3	4	-1E+10	1	-1E+10	1	-1E+10	1	-1E+10	1	-1E+10	1	-1E+10	1
4902663	12	C	12/02/2023	06:16	-127.975	48.387	0	962.60	0	3.5770	0	34.3580	0	27.325	0	952.280	0	7.6	4	2.4	4	-1E+10	1	-1E+10	1	-1E+10	1	-1E+10	1	-1E+10	1	-1E+10	1
4902663	12	C	12/02/2023	06:16	-127.975	48.387	0	987.80	0	3.5140	0	34.3690	0	27.340	0	977.152	0	7.8	4	2.5	4	-1E+10	1	-1E+10	1	-1E+10	1	-1E+10	1	-1E+10	1	-1E+10	1
4902663	12	C	12/02/2023	06:16	-127.975	48.387	0	1012.90	0	3.4550	0	34.3800	0	27.354	0	1001.921	0	8.1	4	2.5	4	-1E+10	1	-1E+10	1	-1E+10	1	-1E+10	1	-1E+10	1	-1E+10	1
4902663	12	C	12/02/2023	06:16	-127.975	48.387	0	1038.40	0	3.4090	0	34.3910	0	27.368	0	1027.082	0	8.5	4	2.6	4	-1E+10	1	-1E+10	1	-1E+10	1	-1E+10	1	-1E+10	1	-1E+10	1
4902663	12	C	12/02/2023	06:16	-127.975	48.387	0	1062.70	0	3.3750	0	34.4010	0	27.379	0	1051.056	0	8.9	4	2.8	4	-1E+10	1	-1E+10	1	-1E+10	1	-1E+10	1	-1E+10	1	-1E+10	1
4902663	12	C	12/02/2023	06:16	-127.975	48.387	0	1087.90	0	3.3080	0	34.4090	0	27.392	0	1075.916	0	9.5	4	3.0	4	-1E+10	1	-1E+10	1	-1E+10	1	-1E+10	1	-1E+10	1	-1E+10	1
4902663	12	C	12/02/2023	06:16	-127.975	48.387	0	1112.90	0	3.2500	0	34.4190	0	27.406	0	1100.575	0	10.2	4	3.2	4	-1E+10	1	-1E+10	1	-1E+10	1	-1E+10	1	-1E+10	1	-1E+10	1
4902663	12	C	12/02/2023	06:16	-127.975	48.387	0	1137.70	0	3.1850	0	34.4280	0	27.419	0	1125.034	0	10.9	4	3.4	4	-1E+10	1	-1E+10	1	-1E+10	1	-1E+10	1	-1E+10	1	-1E+10	1
4902663	12	C	12/02/2023	06:16	-127.975	48.387	0	1162.90	0	3.1220	0	34.4360	0	27.431	0	1149.884	0	11.7	4	3.6	4	-1E+10	1	-1E+10	1	-1E+10	1	-1E+10	1	-1E+10	1	-1E+10	1
4902663	12	C	12/02/2023	06:16	-127.975	48.387	0	1187.90	0	3.0610	0	34.4440	0	27.443	0	1174.535	0	12.5	4	3.9	4	-1E+10	1	-1E+10	1	-1E+10	1	-1E+10	1	-1E+10	1	-1E+10	1
4902663	12	C	12/02/2023	06:16	-127.975	48.387	0	1213.20	0	3.0000	0	34.4520	0	27.455	0	1199.478	0	13.4	4	4.1	4	-1E+10	1	-1E+10	1	-1E+10	1	-1E+10	1	-1E+10	1	-1E+10	1
4902663	12	C	12/02/2023	06:16	-127.975	48.387	0	1238.00	0	2.9560	0	34.4590	0	27.465	0	1223.925	0	14.2	4	4.4	4	-1E+10	1	-1E+10	1	-1E+10	1	-1E+10	1	-1E+10	1	-1E+10	1
4902663	12	C	12/02/2023	06:16	-127.975	48.387	0	1262.80	0	2.8960	0	34.4640	0	27.474	0	1248.370	0	15.0	4	4.6	4	-1E+10	1	-1E+10	1	-1E+10	1	-1E+10	1	-1E+10	1	-1E+10	1
4902663	12	C	12/02/2023	06:16	-127.975	48.387	0	1288.20	0	2.8650	0	34.4730	0	27.485	0	1273.403	0	16.1	4	4.9	4	-1E+10	1	-1E+10	1	-1E+10	1	-1E+10	1	-1E+10	1	-1E+10	1
4902663	12	C	12/02/2023	06:16	-127.975	48.387	0	1312.90	0	2.8130	0	34.4790	0	27.494	0	1297.743	0	17.0	4	5.2	4	-1E+10	1	-1E+10	1	-1E+10	1	-1E+10	1	-1E+10	1	-1E+10	1
4902663	12	C	12/02/2023	06:16	-127.975	48.387	0	1337.80	0	2.7650	0	34.4840	0	27.502	0	1322.278	0	18.1	4	5.5	4	-1E+10	1	-1E+10	1	-1E+10	1	-1E+10	1	-1E+10	1	-1E+10	1
4902663	12	C	12/02/2023	06:16	-127.975	48.387	0	1363.00	0	2.7360	0	34.4890	0	27.509	0	1347.105	0	19.5	4	6.0	4	-1E+10	1	-1E+10	1	-1E+10	1	-1E+10	1	-1E+10	1	-1E+10	1
4902663	12	C	12/02/2023	06:16	-127.975	48.387	0	1388.20	0	2.7040	0	34.4950	0	27.517	0	1371.929	0	20.6	4	6.3	4	-1E+10	1	-1E+10	1	-1E+10	1	-1E+10	1	-1E+10	1	-1E+10	1
4902663	12	C	12/02/2023	06:16	-127.975	48.387	0	1412.90	0	2.6750	0	34.5000	0	27.523	0	1396.258	0	21.7	4	6.6	4	-1E+10	1	-1E+10	1	-1E+10	1	-1E+10	1	-1E+10	1	-1E+10	1
4902663	12	C	12/02/2023	06:16	-127.975	48.387	0	1437.70	0	2.6440	0	34.5030	0	27.529	0	1420.682	0	22.6	4	6.9	4	-1E+10	1	-1E+10	1	-1E+10	1	-1E+10	1	-1E+10	1	-1E+10	1
4902663	12	C	12/02/2023	06:16	-127.975	48.387	0	1463.00	0	2.5940	0	34.5090	0	27.538	0	1445.596	0	24.1	4	7.4	4	-1E+10	1	-1E+10	1	-1E+10	1	-1E+10	1	-1E+10	1	-1E+10	1
4902663	12	C	12/02/2023	06:16	-127.975	48.387	0	1488.00	0	2.5420	0	34.5150	0	27.547	0	1470.212	0	25.8	4	7.9	4	-1E+10	1	-1E+10	1	-1E+10	1	-1E+10	1	-1E+10	1	-1E+10	1
4902663	12	C	12/02/2023	06:16	-127.975	48.387	0	1512.60	0	2.4980	0	34.5200	0	27.555	0	1494.431	0	27.0	4	8.2	4	-1E+10	1	-1E+10	1	-1E+10	1	-1E+10	1	-1E+10	1	-1E+10	1
4902663	12	C	12/02/2023	06:16	-127.975	48.387	0	1537.90	0	2.4470	0	34.5230	0	27.562	0	1519.336	0	28.1	4	8.6	4	-1E+10	1	-1E+10	1	-1E+10	1	-1E+10	1	-1E+10	1	-1E+10	1
4902663	12	C	12/02/2023	06:16	-127.975	48.387	0	1562.80	0	2.3950	0	34.5270	0	27.569	0	1543.845	0	29.5	4	9.0	4	-1E+10	1	-1E+10	1	-1E+10	1	-1E+10	1	-1E+10	1	-1E+10	1
4902663	12	C	12/02/2023	06:16	-127.975	48.387	0	1588.30	0	2.3590	0	34.5320	0	27.577	0	1568.941	0	30.9	4	9.4	4	-1E+10	1	-1E+10	1	-1E+10	1	-1E+10	1	-1E+10	1	-1E+10	1
4902663	12	C	12/02/2023	06:16	-127.975	48.387	0	1612.70	0	2.3160	0	34.5360	0	27.583	0	1592.952	0	32.6	4	9.9	4	-1E+10	1	-1E+10	1	-1E+10	1	-1E+10	1	-1E+10	1	-1E+10	1
4902663	12	C	12/02/2023	06:16	-127.975	48.387	0	1637.60	0	2.2830	0	34.5440	0	27.593	0	1617.452	0	34.8	4	10.5	4	-1E+10	1	-1E+10	1	-1E+10	1	-1E+10	1	-1E+10	1	-1E+10	1
4902663	12	C	12/02/2023	06:16	-127.975	48.387	0	1662.70	0	2.2520	0	34.5490	0	27.599	0	1642.146	0	36.2	4	11.0	4	-1E+10	1	-1E+10	1	-1E+10	1	-1E+10	1	-1E+10	1	-1E+10	1
4902663	12	C	12/02/2023	06:16	-127.975	48.387	0	1687.70	0	2.2170	0	34.5520	0	27.605	0	1666.738	0	37.6	4	11.4	4	-1E+10	1	-1E+10	1	-1E+10	1	-1E+10	1	-1E+10	1	-1E+10	1
4902663	12	C	12/02/2023	06:16	-127.975	48.387	0	1713.00	0	2.1800	0	34.5570	0	27.612	0	1691.623	0	39.1	4	11.8	4	-1E+10	1	-1E+10	1	-1E+10	1	-1E+10	1	-1E+10	1	-1E+10	1
4902663	12	C	12/02/2023	06:16	-127.975	48.387	0	1737.90	0	2.1570	0	34.5600	0	27.616	0	1716.112	0	40.3	4	12.2	4	-1E+10	1	-1E+10	1	-1E+10	1	-1E+10	1	-1E+10	1	-1E+10	1
4902663	12	C	12/02/2023	06:16	-127.975	48.387	0	1762.90	0	2.1310	0	34.5630	0	27.621	0	1740.696	0	41.6	4	12.6	4	-1E+10	1	-1E+10	1	-1E+10	1	-1E+10	1	-1E+10	1	-1E+10	1
4902663	12	C	12/02/2023	06:16	-127.975	48.387	0	1787.70	0	2.1100	0	34.5670	0	27.626	0	1765.081	0	43.1	4	13.0	4	-1E+10	1	-1E+10	1	-1E+10	1	-1E+10	1	-1E+10	1	-1E+10	1
4902663	12	C	12/02/2023	06:16	-127.975	48.387	0	1812.80	0	2.0850	0	34.5700	0	27.630	0	1789.758	0	44.6	4	13.5	4	-1E+10	1	-1E+10	1	-1E+10	1	-1E+10	1	-1E+10	1	-1E+10	1
4902663	12	C	12/02/2023	06:16	-127.975	48.387	0	1838.20	0	2.0560	0	34.5740	0	27.636	0	1814.726	0	46.1	4	13.9	4	-1E+10	1	-1E+10	1	-1E+10	1	-1E+10	1	-1E+10	1	-1E+10	1
4902663	12	C	12/02/2023	06:16	-127.975	48.387	0	1863.90	0	2.0280	0	34.5770	0	27.640	0	1839.987	0	47.6	4	14.4	4	-1E+10	1	-1E+10	1	-1E+10	1	-1E+10	1	-1E+10	1	-1E+10	1
4902663	12	C	12/02/2023	06:16	-127.975	48.387	0	1888.00	0	2.0120	0	34.5810	0	27.645	0	1863.672	0	49.0	4	14.8	4	-1E+10	1	-1E+10	1	-1E+10	1	-1E+10	1	-1E+10	1	-1E+10	1
4902663	12	C	12/02/2023	06:16	-127.975	48.387	0	1912.90	0	1.9950	0	34.5840	0	27.649	0	1888.141	0	50.2	4	15.1	4	-1E+10	1	-1E+10	1	-1E+10	1	-1E+10	1	-1E+10	1	-1E+10	1
4902663	12	C	12/02/2023	06:16	-127.975	48.387	0	1937.80	0	1.9710	0	34.5880	0	27.654	0	1912.607	0	51.7	4	15.6	4	-1E+10	1	-1E+10	1	-1E+10	1	-1E+10	1	-1E+10	1	-1E+10	1
4902663	12	C	12/02/2023	06:16	-127.975	48.387	0	1962.80	0	1.9560	0	34.5910	0	27.658	0	1937.168	0	52.9	4	15.9	4	-1E+10	1	-1E+10	1	-1E+10	1	-1E+10	1	-1E+10	1	-1E+10	1
4902663	12	C	12/02/2023	06:16	-127.975	48.387	0	1987.80	0	1.9400	0	34.5940	0	27.662	0	1961.727	0	54.0	4	16.3	4	-1E+10	1	-1E+10	1	-1E+10	1	-1E+10	1	-1E+10	1	-1E+10	1
4902663	12	C	12/02/2023	06:16	-127.975	48.387	0	2009.90	0	1.9310	0	34.5980	0	27.666	0	1983.434	0	54.0	4	16.3	4	-1E+10	1	-1E+10	1	-1E+10	1	-1E+10	1	-1E+10	1	-1E+10	1
4902663	12	C	12/02/2023	06:16	-127.975	48.387	0																										
4902663	13	C	12/12/2023	06:19	-127.736	48.319	0	0.40	0	10.8270	0	32.2370	0	24.655	0	0.397	0	257.4	4	93.6	4	-1E+10	1	-1E+10	1	-1E+10	1	-1E+10	1	-1E+10	1	-1E+10	1
4902663	13	C	12/12/2023	06:19	-127.736	48.319	0	0.50	0	10.8279	0	32.2361	0	24.655	0	0.496	0	257.4	4	93.6	4	-1E+10	1	-1E+10	1	-1E+10	1	-1E+10	1	-1E+10	1	-1E+10	1
4902663	13	C	12/12/2023	06:19	-127.736	48.319	0	1.10	0	10.8330	0	32.2310	0	24.650	0	1.091	0	257.3	4	93.5	4	-1E+10	1	-1E+10	1	-1E+10	1	-1E+10	1	-1E+10	1	-1E+10	1
4902663	13	C	12/12/2023	06:19	-127.736	48.319	0	1.90	0	10.8350	0	32.2290	0	24.648	0	1.884	0	257.3	4	93.5	4	-1E+10	1	-1E+10	1	-1E+10	1	-1E+10	1	-1E+10	1	-1E+10	1
4902663	13	C	12/12/2023	06:19	-127.736	48.319	0	2.80	0	10.8320	0	32.2300	0	24.649	0	2.776	0	257.4	4	93.5	4	-1E+10	1	-1E+10	1	-1E+10	1	-1E+10	1	-1E+10	1	-1E+10	1
4902663	13	C	12/12/2023	06:19	-127.736	48.319	0	3.60	0	10.8310	0	32.2330	0	24.652	0	3.570	0	257.3	4	93.5	4	-1E+10	1	-1E+10	1	-1E+10	1	-1E+10	1	-1E+10	1	-1E+10	1
4902663	13	C	12/12/2023	06:19	-127.736	48.319	0	4.60	0	10.8320	0	32.2370	0	24.655	0	4.561	0	257.2	4	93.5	4	-1E+10	1	-1E+10	1	-1E+10	1	-1E+10	1	-1E+10	1	-1E+10	1
4902663	13	C	12/12/2023	06:19	-127.736	48.319	0	5.90	0	10.8270	0	32.2380	0	24.656	0	5.850	0	257.2	4	93.5	4	-1E+10	1	-1E+10	1	-1E+10	1	-1E+10	1	-1E+10	1	-1E+10	1
4902663	13	C	12/12/2023	06:19	-127.736	48.319	0	7.30	0	10.8120	0	32.2380	0	24.659	0	7.238	0	257.2	4	93.5	4	-1E+10	1	-1E+10	1	-1E+10	1	-1E+10	1	-1E+10	1	-1E+10	1
4902663	13	C	12/12/2023	06:19	-127.736	48.319	0	8.20	0	10.7880	0	32.2350	0	24.661	0	8.131	0	257.4	4	93.5	4	-1E+10	1	-1E+10	1	-1E+10	1	-1E+10	1	-1E+10	1	-1E+10	1
4902663	13	C	12/12/2023	06:19	-127.736	48.319	0	9.10	0	10.7720	0	32.2380	0	24.666	0	9.023	0	257.3	4	93.4	4	-1E+10	1	-1E+10	1	-1E+10	1	-1E+10	1	-1E+10	1	-1E+10	1
4902663	13	C	12/12/2023	06:19	-127.736	48.319	0	10.10	0	10.7350	0	32.2380	0	24.672	0	10.015	0	257.4	4	93.4	4	-1E+10	1	-1E+10	1	-1E+10	1	-1E+10	1	-1E+10	1	-1E+10	1
4902663	13	C	12/12/2023	06:19	-127.736	48.319	0	15.40	0	10.6440	0	32.2370	0	24.687	0	15.270	0	257.4	4	93.2	4	-1E+10	1	-1E+10	1	-1E+10	1	-1E+10	1	-1E+10	1	-1E+10	1
4902663	13	C	12/12/2023	06:19	-127.736	48.319	0	25.30	0	10.5650	0	32.2450	0	24.707	0	25.085	0	257.0	4	92.9	4	-1E+10	1	-1E+10	1	-1E+10	1	-1E+10	1	-1E+10	1	-1E+10	1
4902663	13	C	12/12/2023	06:19	-127.736	48.319	0	35.00	0	10.5090	0	32.2480	0	24.719	0	34.702	0	256.3	4	92.5	4	-1E+10	1	-1E+10	1	-1E+10	1	-1E+10	1	-1E+10	1	-1E+10	1
4902663	13	C	12/12/2023	06:19	-127.736	48.319	0	45.40	0	10.4470	0	32.2450	0	24.728	0	45.013	0	255.1	4	92.0	4	-1E+10	1	-1E+10	1	-1E+10	1	-1E+10	1	-1E+10	1	-1E+10	1
4902663	13	C	12/12/2023	06:19	-127.736	48.319	0	55.60	0	10.4170	0	32.2410	0	24.730	0	55.124	0	256.1	4	92.3	4	-1E+10	1	-1E+10	1	-1E+10	1	-1E+10	1	-1E+10	1	-1E+10	1
4902663	13	C	12/12/2023	06:19	-127.736	48.319	0	65.50	0	8.8300	0	32.4400	0	25.142	0	64.938	0	235.9	4	82.2	4	-1E+10	1	-1E+10	1	-1E+10	1	-1E+10	1	-1E+10	1	-1E+10	1
4902663	13	C	12/12/2023	06:19	-127.736	48.319	0	75.50	0	8.0920	0	32.6720	0	25.434	0	74.851	0	213.7	4	73.4	4	-1E+10	1	-1E+10	1	-1E+10	1	-1E+10	1	-1E+10	1	-1E+10	1
4902663	13	C	12/12/2023	06:19	-127.736	48.319	0	85.70	0	7.9380	0	32.8720	0	25.613	0	84.961	0	194.6	4	66.7	4	-1E+10	1	-1E+10	1	-1E+10	1	-1E+10	1	-1E+10	1	-1E+10	1
4902663	13	C	12/12/2023	06:19	-127.736	48.319	0	95.80	0	7.7410	0	33.1660	0	25.873	0	94.971	0	173.6	4	59.3	4	-1E+10	1	-1E+10	1	-1E+10	1	-1E+10	1	-1E+10	1	-1E+10	1
4902663	13	C	12/12/2023	06:19	-127.736	48.319	0	105.20	0	7.9150	0	33.4020	0	26.033	0	104.288	0	155.0	4	53.3	4	-1E+10	1	-1E+10	1	-1E+10	1	-1E+10	1	-1E+10	1	-1E+10	1
4902663	13	C	12/12/2023	06:19	-127.736	48.319	0	115.30	0	7.8430	0	33.5940	0	26.195	0	114.297	0	146.9	4	50.5	4	-1E+10	1	-1E+10	1	-1E+10	1	-1E+10	1	-1E+10	1	-1E+10	1
4902663	13	C	12/12/2023	06:19	-127.736	48.319	0	125.70	0	7.5990	0	33.6720	0	26.291	0	124.604	0	143.1	4	49.0	4	-1E+10	1	-1E+10	1	-1E+10	1	-1E+10	1	-1E+10	1	-1E+10	1
4902663	13	C	12/12/2023	06:19	-127.736	48.319	0	135.70	0	7.6510	0	33.7460	0	26.342	0	134.513	0	135.2	4	46.3	4	-1E+10	1	-1E+10	1	-1E+10	1	-1E+10	1	-1E+10	1	-1E+10	1
4902663	13	C	12/12/2023	06:19	-127.736	48.319	0	145.40	0	7.5550	0	33.7730	0	26.377	0	144.125	0	133.5	4	45.6	4	-1E+10	1	-1E+10	1	-1E+10	1	-1E+10	1	-1E+10	1	-1E+10	1
4902663	13	C	12/12/2023	06:19	-127.736	48.319	0	155.30	0	7.4740	0	33.7950	0	26.406	0	153.934	0	125.1	4	42.7	4	-1E+10	1	-1E+10	1	-1E+10	1	-1E+10	1	-1E+10	1	-1E+10	1
4902663	13	C	12/12/2023	06:19	-127.736	48.319	0	165.30	0	7.3480	0	33.8210	0	26.444	0	163.842	0	114.2	4	38.9	4	-1E+10	1	-1E+10	1	-1E+10	1	-1E+10	1	-1E+10	1	-1E+10	1
4902663	13	C	12/12/2023	06:19	-127.736	48.319	0	175.20	0	7.2320	0	33.8450	0	26.479	0	173.651	0	110.5	4	37.5	4	-1E+10	1	-1E+10	1	-1E+10	1	-1E+10	1	-1E+10	1	-1E+10	1
4902663	13	C	12/12/2023	06:19	-127.736	48.319	0	185.30	0	7.0670	0	33.8670	0	26.520	0	183.657	0	103.2	4	34.9	4	-1E+10	1	-1E+10	1	-1E+10	1	-1E+10	1	-1E+10	1	-1E+10	1
4902663	13	C	12/12/2023	06:19	-127.736	48.319	0	195.70	0	6.9230	0	33.8770	0	26.547	0	193.960	0	99.1	4	33.4	4	-1E+10	1	-1E+10	1	-1E+10	1	-1E+10	1	-1E+10	1	-1E+10	1
4902663	13	C	12/12/2023	06:19	-127.736	48.319	0	212.50	0	6.7930	0	33.8900	0	26.575	0	210.602	0	94.3	4	31.7	4	-1E+10	1	-1E+10	1	-1E+10	1	-1E+10	1	-1E+10	1	-1E+10	1
4902663	13	C	12/12/2023	06:19	-127.736	48.319	0	237.90	0	6.5710	0	33.9050	0	26.617	0	235.761	0	89.1	4	29.8	4	-1E+10	1	-1E+10	1	-1E+10	1	-1E+10	1	-1E+10	1	-1E+10	1
4902663	13	C	12/12/2023	06:19	-127.736	48.319	0	262.90	0	6.3430	0	33.9200	0	26.659	0	260.520	0	82.3	4	27.4	4	-1E+10	1	-1E+10	1	-1E+10	1	-1E+10	1	-1E+10	1	-1E+10	1
4902663	13	C	12/12/2023	06:19	-127.736	48.319	0	288.00	0	6.1270	0	33.9340	0	26.698	0	285.376	0	76.2	4	25.3	4	-1E+10	1	-1E+10	1	-1E+10	1	-1E+10	1	-1E+10	1	-1E+10	1
4902663	13	C	12/12/2023	06:19	-127.736	48.319	0	312.80	0	5.8990	0	33.9460	0	26.736	0	309.931	0	68.7	4	22.6	4	-1E+10	1	-1E+10	1	-1E+10	1	-1E+10	1	-1E+10	1	-1E+10	1
4902663	13	C	12/12/2023	06:19	-127.736	48.319	0	337.80	0	5.6800	0	33.9590	0	26.773	0	334.682	0	62.0	4	20.3	4	-1E+10	1	-1E+10	1	-1E+10	1	-1E+10	1	-1E+10	1	-1E+10	1
4902663	13	C	12/12/2023	06:19	-127.736	48.319	0	363.00	0	5.4970	0	33.9720	0	26.806	0	359.628	0	56.2	4	18.4	4	-1E+10	1	-1E+10	1	-1E+10	1	-1E+10	1	-1E+10	1	-1E+10	1
4902663	13	C	12/12/2023	06:19	-127.736	48.319	0	387.90	0	5.3980	0	33.9870	0	26.830	0	384.273	0	51.7	4	16.9	4	-1E+10	1	-1E+10	1	-1E+10	1	-1E+10	1	-1E+10	1	-1E+10	1
4902663	13	C	12/12/2023	06:19	-127.736	48.319	0	413.20	0	5.2630	0	33.9990	0	26.855	0	409.312	0	47.3	4	15.4	4	-1E+10	1	-1E+10	1	-1E+10	1	-1E+10	1	-1E+10	1	-1E+10	1
4902663	13	C	12/12/2023	06:19	-127.736	48.319	0	438.40	0	5.1650	0	34.0190	0	26.883	0	434.248	0	41.7	4	13.5	4	-1E+10	1	-1E+10	1	-1E+10	1	-1E+10	1	-1E+10	1	-1E+10	1
4902663	13	C	12/12/2023	06:19	-127.736	48.319	0	463.10	0	5.0310	0	34.0390	0	26.914	0	458.687	0	36.8	4	11.9	4	-1E+10	1	-1E+10	1	-1E+10	1	-1E+10	1	-1E+10	1	-1E+10	1
4902663	13	C	12/12/2023	06:19	-127.736	48.319	0	488.60	0	4.8810	0	34.0520	0	26.942	0	483.914	0	33.7	4	10.9	4	-1E+10	1	-1E+10	1	-1E+10	1	-1E+10	1	-1E+10	1	-1E+10	1
4902663	13	C	12/12/2023	06:19	-127.736	48.319	0	512.50	0	4.7220	0	34.0590	0	26.965	0	507.556	0	31.6	4	10.1	4	-1E+10	1	-1E+10	1	-1E+10	1	-1E+10	1	-1E+10	1	-1E+10	1
4902663	13	C	12/12/2023	06:19	-127.736	48.319	0	537.80	0	4.5950	0	34.0710	0	26.989	0	532.579	0	28.7	4	9.2	4	-1E+10	1	-1E+10	1	-1E+10	1	-1E+10	1	-1E+10	1	-1E+10	1
4902663	13	C	12/12/2023	06:19	-127.736	48.319	0	562.70	0	4.5110	0	34.0920	0	27.015	0	557.204	0	25.3	4	8.1	4	-1E+10	1	-1E+10	1	-1E+10	1	-1E+10	1	-1E+10	1	-1E+10	1
4902663	13	C	12/12/2023	06:19	-127.736	48.319	0	587.80	0	4.4990	0	34.1140	0	27.034	0	582.024	0	21.6	4	6.9	4	-1E+10	1	-1E+10	1	-1E+10	1	-1E+10	1	-1E+10	1	-1E+10	1
4902663	13	C	12/12/2023	06:19	-127.736	48.319	0	613.00	0	4.4770	0	34.1340	0	27.052	0	606.940	0	18.8	4	6.0	4	-1E+10	1	-1E+10	1	-1E+10	1	-1E+10	1	-1E+10	1	-1E+10	1
4902663	13	C	12/12/2023	06:19	-127.736	48.319	0	638.00	0	4.4480	0	34.1580	0	27.074	0	631.655	0	15.7	4	5.0	4	-1E+10	1	-1E+10	1	-1E+10	1	-1E+10	1	-1E+10	1	-1E+10	1
4902663	13	C	12/12/2023	06:19	-127.736	48.319	0	663.10	0	4.3580	0	34.1820	0	27.103	0	656.466	0	13.4	4	4.3	4	-1E+10	1	-1E+10	1	-1E+10	1	-1E+10	1	-1E+10	1	-1E+10	1
4902663	13	C	12/12/2023	06:19	-127.736	48.319	0	687.70	0	4.2740	0	34.2040	0	27.130	0	680.779	0	11.8	4	3.7	4	-1E+10	1	-1E+10	1	-1E+10	1	-1E+10	1	-1E+10	1	-1E+10	1
4902663	13	C	12/12/2023	06:19	-127.736	48.319	0	713.10	0	4.1930	0	34.2200	0	27.151	0	705.881	0	10.9	4	3.4	4	-1E+10	1	-1E+10	1	-1E+10	1	-1E+10	1	-1E+10	1	-1E+10	1
4902663	13	C	12/12/2023	06:19	-127.736	48.319	0	737.90	0	4.1310	0	34.2320	0	27.167	0	730.386	0	10.2	4	3.2	4	-1E+10	1	-1E+10	1	-1E+10	1	-1E+10	1	-1E+10	1	-1E+10	1
4902663	13	C	12/12/2023	06:19	-127.736	48.319	0	763.00	0	4.0650	0	34.2440	0	27.184	0	755.185	0	9.7	4	3.1	4	-1E+10	1	-1E+10	1	-1E+10	1	-1E+10	1	-1E+10	1	-1E+10	1
4902663	13	C	12/12/2023	06:19	-127.736	48.319	0	787.90	0	4.0070	0	34.2560	0	27.200	0	779.784	0	9.1	4	2.9	4	-1E+10	1	-1E+10	1	-1E+10	1	-1E+10	1	-1E+10	1	-1E+10	1
4902663	13	C	12/12/2023	06:19	-127.736	48.319	0	812.80	0	3.9430	0	34.2710	0	27.218	0	804.379	0	8.6	4	2.7	4	-1E+10	1	-1E+10	1	-1E+10	1	-1E+10	1	-1E+10	1	-1E+10	1
4902663	13	C	12/12/2023	06:19	-127.736	48.319	0	837.90	0	3.8910	0	34.2880	0	27.237	0	829.169	0	8.0	4	2.5	4	-1E+10	1	-1E+10	1	-1E+10	1	-1E+10	1	-1E+10	1	-1E+10	1
4902663	13	C	12/12/2023	06:19	-127.736	48.319	0	862.90	0	3.8730	0	34.3040	0	27.252	0	853.858	0	7.5	4	2.4	4	-1E+10	1	-1E+10	1	-1E+10	1	-1E+10	1	-1E+10	1	-1E+10	1
4902663	13	C	12/12/2023	06:19	-127.736	48.319	0	887.70	0	3.8140	0	34.3190	0	27.270	0	878.346	0	7.2	4	2.3	4	-1E+10	1	-1E+10	1	-1E+10	1	-1E+10	1	-1E+10	1	-1E+10	1
4902663	13	C	12/12/2023	06:19	-127.736	48.319	0	912.60	0	3.7520	0	34.3360	0	27.290	0	902.930	0	7.1	4	2.2	4	-1E+10	1	-1E+10	1	-1E+10	1	-1E+10	1	-1E+10	1	-1E+10	1
4902663	13	C	12/12/2023	06:19	-127.736	48.319	0	937.70	0	3.7040	0	34.3480	0	27.304	0	927.708	0	7.2	4	2.3	4	-1E+10	1	-1E+10	1	-1E+10	1	-1E+10	1	-1E+10	1	-1E+10	1
4902663	13	C	12/12/2023	06:19	-127.736	48.319	0	962.80	0	3.6400	0	34.3570	0	27.318	0	952.484	0	7.4	4	2.3	4	-1E+10	1	-1E+10	1	-1E+10	1	-1E+10	1	-1E+10	1	-1E+10	1
4902663	13	C	12/12/2023	06:19	-127.736	48.319	0	988.10	0	3.6140	0	34.3680	0	27.329	0	977.454	0	7.6	4	2.4	4	-1E+10	1	-1E+10	1	-1E+10	1	-1E+10	1	-1E+10	1	-1E+10	1
4902663	13	C	12/12/2023	06:19	-127.736	48.319	0	1013.30	0	3.5910	0	34.3790	0	27.341	0	1002.322	0	7.9	4	2.5	4	-1E+10	1	-1E+10	1	-1E+10	1	-1E+10	1	-1E+10	1	-1E+10	1
4902663	13	C	12/12/2023	06:19	-127.736	48.319	0	1038.00	0	3.5100	0	34.3850	0	27.353	0	1026.694	0	8.1	4	2.5	4	-1E+10	1	-1E+10	1	-1E+10	1	-1E+10	1	-1E+10	1	-1E+10	1
4902663	13	C	12/12/2023	06:19	-127.736	48.319	0	1062.80	0	3.4290	0	34.3910	0	27.366	0	1051.162	0	8.4	4	2.6	4	-1E+10	1	-1E+10	1	-1E+10	1	-1E+10	1	-1E+10	1	-1E+10	1
4902663	13	C	12/12/2023	06:19	-127.736	48.319	0	1087.70	0	3.3730	0	34.3980	0	27.377	0	1075.725	0	8.8	4	2.7	4	-1E+10	1	-1E+10	1	-1E+10	1	-1E+10	1	-1E+10	1	-1E+10	1
4902663	13	C	12/12/2023	06:19	-127.736	48.319	0	1112.70	0	3.3270	0	34.4070	0	27.389	0	1100.384	0	9.2	4	2.9	4	-1E+10	1	-1E+10	1	-1E+10	1	-1E+10	1	-1E+10	1	-1E+10	1
4902663	13	C	12/12/2023	06:19	-127.736	48.319	0	1137.80	0	3.2620	0	34.4160	0	27.402	0	1125.140	0	10.0	4	3.1	4	-1E+10	1	-1E+10	1	-1E+10	1	-1E+10	1	-1E+10	1	-1E+10	1
4902663	13	C	12/12/2023	06:19	-127.736	48.319	0	1162.70	0	3.2270	0	34.4270	0	27.414	0	1149.694	0	10.7	4	3.3	4	-1E+10	1	-1E+10	1	-1E+10	1	-1E+10	1	-1E+10	1	-1E+10	1
4902663	13	C	12/12/2023	06:19	-127.736	48.319	0	1188.00	0	3.1690	0	34.4330	0	27.425	0	1174.641	0	11.2	4	3.5	4	-1E+10	1	-1E+10	1	-1E+10	1	-1E+10	1	-1E+10	1	-1E+10	1
4902663	13	C	12/12/2023	06:19	-127.736	48.319	0	1213.40	0	3.1240	0	34.4410	0	27.435	0	1199.683	0	12.0	4	3.7	4	-1E+10	1	-1E+10	1	-1E+10	1	-1E+10	1	-1E+10	1	-1E+10	1
4902663	13	C	12/12/2023	06:19	-127.736	48.319	0	1238.10	0	3.0710	0	34.4470	0	27.445	0	1224.032	0	12.7	4	3.9	4	-1E+10	1	-1E+10	1	-1E+10	1	-1E+10	1	-1E+10	1	-1E+10	1
4902663	13	C	12/12/2023	06:19	-127.736	48.319	0	1263.00	0	3.0100	0	34.4540	0	27.456	0	1248.575	0	13.4	4	4.2	4	-1E+10	1	-1E+10	1	-1E+10	1	-1E+10	1	-1E+10	1	-1E+10	1
4902663	13	C	12/12/2023	06:19	-127.736	48.319	0	1287.90	0	2.9510	0	34.4610	0	27.467	0	1273.115	0	14.5	4	4.5	4	-1E+10	1	-1E+10	1	-1E+10	1	-1E+10	1	-1E+10	1	-1E+10	1
4902663	13	C	12/12/2023	06:19	-127.736	48.319	0	1312.60	0	2.8980	0	34.4680	0	27.478	0	1297.456	0	15.5	4	4.8	4	-1E+10	1	-1E+10	1	-1E+10	1	-1E+10	1	-1E+10	1	-1E+10	1
4902663	13	C	12/12/2023	06:19	-127.736	48.319	0	1338.40	0	2.8450	0	34.4750	0	27.488	0	1322.877	0	16.7	4	5.1	4	-1E+10	1	-1E+10	1	-1E+10	1	-1E+10	1	-1E+10	1	-1E+10	1
4902663	13	C	12/12/2023	06:19	-127.736	48.319	0	1363.00	0	2.7980	0	34.4810	0	27.497	0	1347.113	0	17.7	4	5.4	4	-1E+10	1	-1E+10	1	-1E+10	1	-1E+10	1	-1E+10	1	-1E+10	1
4902663	13	C	12/12/2023	06:19	-127.736	48.319	0	1387.70	0	2.7550	0	34.4860	0	27.505	0	1371.445	0	18.8	4	5.8	4	-1E+10	1	-1E+10	1	-1E+10	1	-1E+10	1	-1E+10	1	-1E+10	1
4902663	13	C	12/12/2023	06:19	-127.736	48.319	0	1412.80	0	2.7030	0	34.4930	0	27.515	0	1396.168	0	20.2	4	6.2	4	-1E+10	1	-1E+10	1	-1E+10	1	-1E+10	1	-1E+10	1	-1E+10	1
4902663	13	C	12/12/2023	06:19	-127.736	48.319	0	1437.80	0	2.6650	0	34.4990	0	27.524	0	1420.790	0	21.6	4	6.6	4	-1E+10	1	-1E+10	1	-1E+10	1	-1E+10	1	-1E+10	1	-1E+10	1
4902663	13	C	12/12/2023	06:19	-127.736	48.319	0	1462.40	0	2.6180	0	34.5040	0	27.532	0	1445.014	0	23.0	4	7.0	4	-1E+10	1	-1E+10	1	-1E+10	1	-1E+10	1	-1E+10	1	-1E+10	1
4902663	13	C	12/12/2023	06:19	-127.736	48.319	0	1488.10	0	2.5690	0	34.5100	0	27.541	0	1470.319	0	24.6	4	7.5	4	-1E+10	1	-1E+10	1	-1E+10	1	-1E+10	1	-1E+10	1	-1E+10	1
4902663	13	C	12/12/2023	06:19	-127.736	48.319	0	1512.80	0	2.5240	0	34.5150	0	27.549	0	1494.637	0	26.0	4	8.0	4	-1E+10	1	-1E+10	1	-1E+10	1	-1E+10	1	-1E+10	1	-1E+10	1
4902663	13	C	12/12/2023	06:19	-127.736	48.319	0	1537.70	0	2.4780	0	34.5210	0	27.558	0	1519.149	0	27.7	4	8.5	4	-1E+10	1	-1E+10	1	-1E+10	1	-1E+10	1	-1E+10	1	-1E+10	1
4902663	13	C	12/12/2023	06:19	-127.736	48.319	0	1562.60	0	2.4240	0	34.5270	0	27.567	0	1543.657	0	29.6	4	9.0	4	-1E+10	1	-1E+10	1	-1E+10	1	-1E+10	1	-1E+10	1	-1E+10	1
4902663	13	C	12/12/2023	06:19	-127.736	48.319	0	1587.70	0	2.3740	0	34.5330	0	27.576	0	1568.360	0	31.6	4	9.6	4	-1E+10	1	-1E+10	1	-1E+10	1	-1E+10	1	-1E+10	1	-1E+10	1
4902663	13	C	12/12/2023	06:19	-127.736	48.319	0	1613.00	0	2.3180	0	34.5400	0	27.586	0	1593.257	0	33.8	4	10.3	4	-1E+10	1	-1E+10	1	-1E+10	1	-1E+10	1	-1E+10	1	-1E+10	1
4902663	13	C	12/12/2023	06:19	-127.736	48.319	0	1637.80	0	2.2650	0	34.5470	0	27.596	0	1617.659	0	36.1	4	10.9	4	-1E+10	1	-1E+10	1	-1E+10	1	-1E+10	1	-1E+10	1	-1E+10	1
4902663	13	C	12/12/2023	06:19	-127.736	48.319	0	1662.60	0	2.2140	0	34.5530	0	27.605	0	1642.058	0	38.2	4	11.6	4	-1E+10	1	-1E+10	1	-1E+10	1	-1E+10	1	-1E+10	1	-1E+10	1
4902663	13	C	12/12/2023	06:19	-127.736	48.319	0	1687.60	0	2.1810	0	34.5580	0	27.612	0	1666.650	0	39.7	4	12.0	4	-1E+10	1	-1E+10	1	-1E+10	1	-1E+10	1	-1E+10	1	-1E+10	1
4902663	13	C	12/12/2023	06:19	-127.736	48.319	0	1712.60	0	2.1550	0	34.5610	0	27.617	0	1691.240	0	41.0	4	12.4	4	-1E+10	1	-1E+10	1	-1E+10	1	-1E+10	1	-1E+10	1	-1E+10	1
4902663	13	C	12/12/2023	06:19	-127.736	48.319	0	1738.00	0	2.1290	0	34.5650	0	27.622	0	1716.221	0	42.6	4	12.9	4	-1E+10	1	-1E+10	1	-1E+10	1	-1E+10	1	-1E+10	1	-1E+10	1
4902663	13	C	12/12/2023	06:19	-127.736	48.319	0	1762.80	0	2.1040	0	34.5700	0	27.628	0	1740.609	0	44.2	4	13.4	4	-1E+10	1	-1E+10	1	-1E+10	1	-1E+10	1	-1E+10	1	-1E+10	1
4902663	13	C	12/12/2023	06:19	-127.736	48.319	0	1788.50	0	2.0670	0	34.5750	0	27.635	0	1765.878	0	46.4	4	14.0	4	-1E+10	1	-1E+10	1	-1E+10	1	-1E+10	1	-1E+10	1	-1E+10	1
4902663	13	C	12/12/2023	06:19	-127.736	48.319	0	1812.60	0	2.0310	0	34.5790	0	27.641	0	1789.572	0	48.1	4	14.5	4	-1E+10	1	-1E+10	1	-1E+10	1	-1E+10	1	-1E+10	1	-1E+10	1
4902663	13	C	12/12/2023	06:19	-127.736	48.319	0	1837.70	0	2.0100	0	34.5830	0	27.646	0	1814.246	0	49.4	4	14.9	4	-1E+10	1	-1E+10	1	-1E+10	1	-1E+10	1	-1E+10	1	-1E+10	1
4902663	13	C	12/12/2023	06:19	-127.736	48.319	0	1862.70	0	1.9860	0	34.5860	0	27.651	0	1838.819	0	50.8	4	15.3	4	-1E+10	1	-1E+10	1	-1E+10	1	-1E+10	1	-1E+10	1	-1E+10	1
4902663	13	C	12/12/2023	06:19	-127.736	48.319	0	1887.60	0	1.9660	0	34.5890	0	27.655	0	1863.291	0	52.1	4	15.7	4	-1E+10	1	-1E+10	1	-1E+10	1	-1E+10	1	-1E+10	1	-1E+10	1
4902663	13	C	12/12/2023	06:19	-127.736	48.319	0	1912.60	0	1.9530	0	34.5920	0	27.658	0	1887.858	0	53.2	4	16.0	4	-1E+10	1	-1E+10	1	-1E+10	1	-1E+10	1	-1E+10	1	-1E+10	1
4902663	13	C	12/12/2023	06:19	-127.736	48.319	0	1938.10	0	1.9330	0	34.5960	0	27.663	0	1912.913	0	54.8	4	16.5	4	-1E+10	1	-1E+10	1	-1E+10	1	-1E+10	1	-1E+10	1	-1E+10	1
4902663	13	C	12/12/2023	06:19	-127.736	48.319	0	1962.90	0	1.9120	0	34.5990	0	27.668	0	1937.279	0	55.9	4	16.8	4	-1E+10	1	-1E+10	1	-1E+10	1	-1E+10	1	-1E+10	1	-1E+10	1
4902663	13	C	12/12/2023	06:19	-127.736	48.319	0	1981.90	0	1.9040	0	34.6010	0	27.670	0	1955.943	0	55.4	4	16.7	4	-1E+10	1	-1E+10	1	-1E+10	1	-1E+10	1	-1E+10	1	-1E+10	1
4902663	13	C	12/12/2023	06:19	-127.736	48.319	0																										
4902663	14	C	12/22/2023	06:10	-128.068	48.484	0	0.20	0	10.1760	0	32.2160	0	24.750	0	0.198	0	267.0	4	95.7	4	-1E+10	1	-1E+10	1	-1E+10	1	-1E+10	1	-1E+10	1	-1E+10	1
4902663	14	C	12/22/2023	06:10	-128.068	48.484	0	0.30	0	10.1790	0	32.2170	0	24.750	0	0.297	0	260.2	4	93.2	4	-1E+10	1	-1E+10	1	-1E+10	1	-1E+10	1	-1E+10	1	-1E+10	1
4902663	14	C	12/22/2023	06:10	-128.068	48.484	0	1.00	0	10.1780	0	32.2160	0	24.750	0	0.992	0	260.0	4	93.2	4	-1E+10	1	-1E+10	1	-1E+10	1	-1E+10	1	-1E+10	1	-1E+10	1
4902663	14	C	12/22/2023	06:10	-128.068	48.484	0	1.90	0	10.1790	0	32.2190	0	24.752	0	1.884	0	260.0	4	93.2	4	-1E+10	1	-1E+10	1	-1E+10	1	-1E+10	1	-1E+10	1	-1E+10	1
4902663	14	C	12/22/2023	06:10	-128.068	48.484	0	2.70	0	10.1790	0	32.2190	0	24.752	0	2.677	0	259.9	4	93.1	4	-1E+10	1	-1E+10	1	-1E+10	1	-1E+10	1	-1E+10	1	-1E+10	1
4902663	14	C	12/22/2023	06:10	-128.068	48.484	0	3.80	0	10.1790	0	32.2190	0	24.752	0	3.768	0	259.9	4	93.2	4	-1E+10	1	-1E+10	1	-1E+10	1	-1E+10	1	-1E+10	1	-1E+10	1
4902663	14	C	12/22/2023	06:10	-128.068	48.484	0	5.10	0	10.1790	0	32.2200	0	24.753	0	5.057	0	259.8	4	93.1	4	-1E+10	1	-1E+10	1	-1E+10	1	-1E+10	1	-1E+10	1	-1E+10	1
4902663	14	C	12/22/2023	06:10	-128.068	48.484	0	5.80	0	10.1790	0	32.2200	0	24.753	0	5.751	0	259.7	4	93.1	4	-1E+10	1	-1E+10	1	-1E+10	1	-1E+10	1	-1E+10	1	-1E+10	1
4902663	14	C	12/22/2023	06:10	-128.068	48.484	0	6.90	0	10.1800	0	32.2210	0	24.753	0	6.842	0	259.5	4	93.0	4	-1E+10	1	-1E+10	1	-1E+10	1	-1E+10	1	-1E+10	1	-1E+10	1
4902663	14	C	12/22/2023	06:10	-128.068	48.484	0	8.20	0	10.1820	0	32.2200	0	24.752	0	8.131	0	259.4	4	93.0	4	-1E+10	1	-1E+10	1	-1E+10	1	-1E+10	1	-1E+10	1	-1E+10	1
4902663	14	C	12/22/2023	06:10	-128.068	48.484	0	9.10	0	10.1830	0	32.2200	0	24.752	0	9.023	0	259.3	4	92.9	4	-1E+10	1	-1E+10	1	-1E+10	1	-1E+10	1	-1E+10	1	-1E+10	1
4902663	14	C	12/22/2023	06:10	-128.068	48.484	0	10.10	0	10.1830	0	32.2210	0	24.753	0	10.015	0	259.3	4	92.9	4	-1E+10	1	-1E+10	1	-1E+10	1	-1E+10	1	-1E+10	1	-1E+10	1
4902663	14	C	12/22/2023	06:10	-128.068	48.484	0	15.80	0	10.1830	0	32.2210	0	24.753	0	15.666	0	258.9	4	92.8	4	-1E+10	1	-1E+10	1	-1E+10	1	-1E+10	1	-1E+10	1	-1E+10	1
4902663	14	C	12/22/2023	06:10	-128.068	48.484	0	25.70	0	10.1840	0	32.2310	0	24.761	0	25.482	0	258.0	4	92.5	4	-1E+10	1	-1E+10	1	-1E+10	1	-1E+10	1	-1E+10	1	-1E+10	1
4902663	14	C	12/22/2023	06:10	-128.068	48.484	0	35.50	0	10.1850	0	32.2520	0	24.777	0	35.198	0	257.1	4	92.1	4	-1E+10	1	-1E+10	1	-1E+10	1	-1E+10	1	-1E+10	1	-1E+10	1
4902663	14	C	12/22/2023	06:10	-128.068	48.484	0	45.50	0	10.1890	0	32.2730	0	24.793	0	45.111	0	254.7	4	91.3	4	-1E+10	1	-1E+10	1	-1E+10	1	-1E+10	1	-1E+10	1	-1E+10	1
4902663	14	C	12/22/2023	06:10	-128.068	48.484	0	56.30	0	10.1360	0	32.2790	0	24.807	0	55.817	0	248.8	4	89.1	4	-1E+10	1	-1E+10	1	-1E+10	1	-1E+10	1	-1E+10	1	-1E+10	1
4902663	14	C	12/22/2023	06:10	-128.068	48.484	0	65.80	0	9.0460	0	32.5330	0	25.181	0	65.235	0	218.6	4	76.6	4	-1E+10	1	-1E+10	1	-1E+10	1	-1E+10	1	-1E+10	1	-1E+10	1
4902663	14	C	12/22/2023	06:10	-128.068	48.484	0	75.20	0	8.3180	0	32.8280	0	25.523	0	74.552	0	189.1	4	65.3	4	-1E+10	1	-1E+10	1	-1E+10	1	-1E+10	1	-1E+10	1	-1E+10	1
4902663	14	C	12/22/2023	06:10	-128.068	48.484	0	85.20	0	8.3350	0	33.0570	0	25.700	0	84.464	0	174.0	4	60.2	4	-1E+10	1	-1E+10	1	-1E+10	1	-1E+10	1	-1E+10	1	-1E+10	1
4902663	14	C	12/22/2023	06:10	-128.068	48.484	0	95.30	0	7.8960	0	33.1420	0	25.832	0	94.474	0	164.1	4	56.3	4	-1E+10	1	-1E+10	1	-1E+10	1	-1E+10	1	-1E+10	1	-1E+10	1
4902663	14	C	12/22/2023	06:10	-128.068	48.484	0	105.30	0	7.6280	0	33.3500	0	26.034	0	104.385	0	150.2	4	51.3	4	-1E+10	1	-1E+10	1	-1E+10	1	-1E+10	1	-1E+10	1	-1E+10	1
4902663	14	C	12/22/2023	06:10	-128.068	48.484	0	115.70	0	7.5630	0	33.5030	0	26.163	0	114.692	0	141.4	4	48.3	4	-1E+10	1	-1E+10	1	-1E+10	1	-1E+10	1	-1E+10	1	-1E+10	1
4902663	14	C	12/22/2023	06:10	-128.068	48.484	0	125.10	0	7.5210	0	33.5940	0	26.241	0	124.007	0	132.1	4	45.1	4	-1E+10	1	-1E+10	1	-1E+10	1	-1E+10	1	-1E+10	1	-1E+10	1
4902663	14	C	12/22/2023	06:10	-128.068	48.484	0	135.00	0	7.4690	0	33.6750	0	26.312	0	133.817	0	123.9	4	42.3	4	-1E+10	1	-1E+10	1	-1E+10	1	-1E+10	1	-1E+10	1	-1E+10	1
4902663	14	C	12/22/2023	06:10	-128.068	48.484	0	145.00	0	7.4070	0	33.7400	0	26.372	0	143.726	0	119.5	4	40.7	4	-1E+10	1	-1E+10	1	-1E+10	1	-1E+10	1	-1E+10	1	-1E+10	1
4902663	14	C	12/22/2023	06:10	-128.068	48.484	0	155.00	0	7.3340	0	33.7790	0	26.413	0	153.635	0	118.1	4	40.2	4	-1E+10	1	-1E+10	1	-1E+10	1	-1E+10	1	-1E+10	1	-1E+10	1
4902663	14	C	12/22/2023	06:10	-128.068	48.484	0	165.30	0	7.1730	0	33.8060	0	26.457	0	163.840	0	120.8	4	41.0	4	-1E+10	1	-1E+10	1	-1E+10	1	-1E+10	1	-1E+10	1	-1E+10	1
4902663	14	C	12/22/2023	06:10	-128.068	48.484	0	175.20	0	6.8710	0	33.7940	0	26.489	0	173.648	0	125.0	4	42.1	4	-1E+10	1	-1E+10	1	-1E+10	1	-1E+10	1	-1E+10	1	-1E+10	1
4902663	14	C	12/22/2023	06:10	-128.068	48.484	0	185.20	0	6.6390	0	33.7990	0	26.524	0	183.555	0	123.0	4	41.2	4	-1E+10	1	-1E+10	1	-1E+10	1	-1E+10	1	-1E+10	1	-1E+10	1
4902663	14	C	12/22/2023	06:10	-128.068	48.484	0	195.40	0	6.4820	0	33.8120	0	26.555	0	193.660	0	117.7	4	39.3	4	-1E+10	1	-1E+10	1	-1E+10	1	-1E+10	1	-1E+10	1	-1E+10	1
4902663	14	C	12/22/2023	06:10	-128.068	48.484	0	212.90	0	6.3770	0	33.8480	0	26.597	0	210.995	0	104.8	4	34.9	4	-1E+10	1	-1E+10	1	-1E+10	1	-1E+10	1	-1E+10	1	-1E+10	1
4902663	14	C	12/22/2023	06:10	-128.068	48.484	0	238.00	0	6.2690	0	33.8890	0	26.643	0	235.856	0	90.2	4	30.0	4	-1E+10	1	-1E+10	1	-1E+10	1	-1E+10	1	-1E+10	1	-1E+10	1
4902663	14	C	12/22/2023	06:10	-128.068	48.484	0	262.80	0	6.1660	0	33.9180	0	26.680	0	260.417	0	81.5	4	27.0	4	-1E+10	1	-1E+10	1	-1E+10	1	-1E+10	1	-1E+10	1	-1E+10	1
4902663	14	C	12/22/2023	06:10	-128.068	48.484	0	287.60	0	5.9560	0	33.9230	0	26.710	0	284.976	0	77.1	4	25.5	4	-1E+10	1	-1E+10	1	-1E+10	1	-1E+10	1	-1E+10	1	-1E+10	1
4902663	14	C	12/22/2023	06:10	-128.068	48.484	0	312.50	0	5.7790	0	33.9310	0	26.739	0	309.630	0	70.6	4	23.2	4	-1E+10	1	-1E+10	1	-1E+10	1	-1E+10	1	-1E+10	1	-1E+10	1
4902663	14	C	12/22/2023	06:10	-128.068	48.484	0	337.80	0	5.7250	0	33.9590	0	26.768	0	334.677	0	61.5	4	20.2	4	-1E+10	1	-1E+10	1	-1E+10	1	-1E+10	1	-1E+10	1	-1E+10	1
4902663	14	C	12/22/2023	06:10	-128.068	48.484	0	363.30	0	5.7410	0	34.0000	0	26.799	0	359.919	0	52.5	4	17.2	4	-1E+10	1	-1E+10	1	-1E+10	1	-1E+10	1	-1E+10	1	-1E+10	1
4902663	14	C	12/22/2023	06:10	-128.068	48.484	0	388.00	0	5.5460	0	34.0170	0	26.836	0	384.366	0	47.1	4	15.4	4	-1E+10	1	-1E+10	1	-1E+10	1	-1E+10	1	-1E+10	1	-1E+10	1
4902663	14	C	12/22/2023	06:10	-128.068	48.484	0	412.60	0	5.3890	0	34.0280	0	26.863	0	408.712	0	42.8	4	14.0	4	-1E+10	1	-1E+10	1	-1E+10	1	-1E+10	1	-1E+10	1	-1E+10	1
4902663	14	C	12/22/2023	06:10	-128.068	48.484	0	437.70	0	5.1740	0	34.0340	0	26.894	0	433.549	0	39.3	4	12.8	4	-1E+10	1	-1E+10	1	-1E+10	1	-1E+10	1	-1E+10	1	-1E+10	1
4902663	14	C	12/22/2023	06:10	-128.068	48.484	0	462.70	0	4.9990	0	34.0460	0	26.923	0	458.284	0	35.1	4	11.3	4	-1E+10	1	-1E+10	1	-1E+10	1	-1E+10	1	-1E+10	1	-1E+10	1
4902663	14	C	12/22/2023	06:10	-128.068	48.484	0	488.30	0	4.8660	0	34.0640	0	26.953	0	483.610	0	31.0	4	10.0	4	-1E+10	1	-1E+10	1	-1E+10	1	-1E+10	1	-1E+10	1	-1E+10	1
4902663	14	C	12/22/2023	06:10	-128.068	48.484	0	512.70	0	4.7600	0	34.0790	0	26.977	0	507.746	0	27.6	4	8.9	4	-1E+10	1	-1E+10	1	-1E+10	1	-1E+10	1	-1E+10	1	-1E+10	1
4902663	14	C	12/22/2023	06:10	-128.068	48.484	0	538.20	0	4.6510	0	34.0990	0	27.005	0	532.967	0	23.7	4	7.6	4	-1E+10	1	-1E+10	1	-1E+10	1	-1E+10	1	-1E+10	1	-1E+10	1
4902663	14	C	12/22/2023	06:10	-128.068	48.484	0	563.30	0	4.5830	0	34.1190	0	27.028	0	557.789	0	20.5	4	6.6	4	-1E+10	1	-1E+10	1	-1E+10	1	-1E+10	1	-1E+10	1	-1E+10	1
4902663	14	C	12/22/2023	06:10	-128.068	48.484	0	588.20	0	4.5110	0	34.1460	0	27.058	0	582.411	0	17.0	4	5.4	4	-1E+10	1	-1E+10	1	-1E+10	1	-1E+10	1	-1E+10	1	-1E+10	1
4902663	14	C	12/22/2023	06:10	-128.068	48.484	0	613.00	0	4.4560	0	34.1610	0	27.076	0	606.931	0	15.8	4	5.0	4	-1E+10	1	-1E+10	1	-1E+10	1	-1E+10	1	-1E+10	1	-1E+10	1
4902663	14	C	12/22/2023	06:10	-128.068	48.484	0	638.10	0	4.3760	0	34.1720	0	27.093	0	631.744	0	14.5	4	4.6	4	-1E+10	1	-1E+10	1	-1E+10	1	-1E+10	1	-1E+10	1	-1E+10	1
4902663	14	C	12/22/2023	06:10	-128.068	48.484	0	663.30	0	4.3000	0	34.1870	0	27.113	0	656.653	0	13.2	4	4.2	4	-1E+10	1	-1E+10	1	-1E+10	1	-1E+10	1	-1E+10	1	-1E+10	1
4902663	14	C	12/22/2023	06:10	-128.068	48.484	0	688.00	0	4.2550	0	34.2000	0	27.129	0	681.065	0	12.1	4	3.9	4	-1E+10	1	-1E+10	1	-1E+10	1	-1E+10	1	-1E+10	1	-1E+10	1
4902663	14	C	12/22/2023	06:10	-128.068	48.484	0	712.90	0	4.2130	0	34.2160	0	27.146	0	705.672	0	10.8	4	3.4	4	-1E+10	1	-1E+10	1	-1E+10	1	-1E+10	1	-1E+10	1	-1E+10	1
4902663	14	C	12/22/2023	06:10	-128.068	48.484	0	738.00	0	4.1780	0	34.2410	0	27.170	0	730.474	0	9.1	4	2.9	4	-1E+10	1	-1E+10	1	-1E+10	1	-1E+10	1	-1E+10	1	-1E+10	1
4902663	14	C	12/22/2023	06:10	-128.068	48.484	0	763.70	0	4.1950	0	34.2780	0	27.198	0	755.865	0	7.9	4	2.5	4	-1E+10	1	-1E+10	1	-1E+10	1	-1E+10	1	-1E+10	1	-1E+10	1
4902663	14	C	12/22/2023	06:10	-128.068	48.484	0	787.90	0	4.1440	0	34.2910	0	27.213	0	779.772	0	7.5	4	2.4	4	-1E+10	1	-1E+10	1	-1E+10	1	-1E+10	1	-1E+10	1	-1E+10	1
4902663	14	C	12/22/2023	06:10	-128.068	48.484	0	813.10	0	4.0790	0	34.3030	0	27.230	0	804.663	0	7.2	4	2.3	4	-1E+10	1	-1E+10	1	-1E+10	1	-1E+10	1	-1E+10	1	-1E+10	1
4902663	14	C	12/22/2023	06:10	-128.068	48.484	0	838.00	0	4.0200	0	34.3130	0	27.244	0	829.256	0	7.1	4	2.2	4	-1E+10	1	-1E+10	1	-1E+10	1	-1E+10	1	-1E+10	1	-1E+10	1
4902663	14	C	12/22/2023	06:10	-128.068	48.484	0	863.00	0	3.9710	0	34.3230	0	27.257	0	853.944	0	7.0	4	2.2	4	-1E+10	1	-1E+10	1	-1E+10	1	-1E+10	1	-1E+10	1	-1E+10	1
4902663	14	C	12/22/2023	06:10	-128.068	48.484	0	887.90	0	3.9030	0	34.3340	0	27.273	0	878.530	0	7.0	4	2.2	4	-1E+10	1	-1E+10	1	-1E+10	1	-1E+10	1	-1E+10	1	-1E+10	1
4902663	14	C	12/22/2023	06:10	-128.068	48.484	0	912.70	0	3.8380	0	34.3420	0	27.286	0	903.015	0	7.0	4	2.2	4	-1E+10	1	-1E+10	1	-1E+10	1	-1E+10	1	-1E+10	1	-1E+10	1
4902663	14	C	12/22/2023	06:10	-128.068	48.484	0	937.70	0	3.7260	0	34.3480	0	27.302	0	927.694	0	7.2	4	2.3	4	-1E+10	1	-1E+10	1	-1E+10	1	-1E+10	1	-1E+10	1	-1E+10	1
4902663	14	C	12/22/2023	06:10	-128.068	48.484	0	962.70	0	3.6460	0	34.3570	0	27.317	0	952.371	0	7.4	4	2.3	4	-1E+10	1	-1E+10	1	-1E+10	1	-1E+10	1	-1E+10	1	-1E+10	1
4902663	14	C	12/22/2023	06:10	-128.068	48.484	0	987.80	0	3.5810	0	34.3640	0	27.329	0	977.143	0	7.5	4	2.4	4	-1E+10	1	-1E+10	1	-1E+10	1	-1E+10	1	-1E+10	1	-1E+10	1
4902663	14	C	12/22/2023	06:10	-128.068	48.484	0	1013.00	0	3.5080	0	34.3770	0	27.347	0	1002.011	0	7.9	4	2.5	4	-1E+10	1	-1E+10	1	-1E+10	1	-1E+10	1	-1E+10	1	-1E+10	1
4902663	14	C	12/22/2023	06:10	-128.068	48.484	0	1037.90	0	3.4260	0	34.3880	0	27.364	0	1026.580	0	8.3	4	2.6	4	-1E+10	1	-1E+10	1	-1E+10	1	-1E+10	1	-1E+10	1	-1E+10	1
4902663	14	C	12/22/2023	06:10	-128.068	48.484	0	1062.60	0	3.3680	0	34.3970	0	27.377	0	1050.949	0	8.7	4	2.7	4	-1E+10	1	-1E+10	1	-1E+10	1	-1E+10	1	-1E+10	1	-1E+10	1
4902663	14	C	12/22/2023	06:10	-128.068	48.484	0	1088.20	0	3.3040	0	34.4060	0	27.390	0	1076.202	0	9.2	4	2.9	4	-1E+10	1	-1E+10	1	-1E+10	1	-1E+10	1	-1E+10	1	-1E+10	1
4902663	14	C	12/22/2023	06:10	-128.068	48.484	0	1112.60	0	3.2430	0	34.4150	0	27.403	0	1100.269	0	9.8	4	3.0	4	-1E+10	1	-1E+10	1	-1E+10	1	-1E+10	1	-1E+10	1	-1E+10	1
4902663	14	C	12/22/2023	06:10	-128.068	48.484	0	1137.60	0	3.1800	0	34.4230	0	27.415	0	1124.925	0	10.5	4	3.2	4	-1E+10	1	-1E+10	1	-1E+10	1	-1E+10	1	-1E+10	1	-1E+10	1
4902663	14	C	12/22/2023	06:10	-128.068	48.484	0	1162.60	0	3.1290	0	34.4330	0	27.428	0	1149.578	0	11.2	4	3.5	4	-1E+10	1	-1E+10	1	-1E+10	1	-1E+10	1	-1E+10	1	-1E+10	1
4902663	14	C	12/22/2023	06:10	-128.068	48.484	0	1188.40	0	3.0880	0	34.4400	0	27.438	0	1175.017	0	11.8	4	3.7	4	-1E+10	1	-1E+10	1	-1E+10	1	-1E+10	1	-1E+10	1	-1E+10	1
4902663	14	C	12/22/2023	06:10	-128.068	48.484	0	1212.90	0	3.0350	0	34.4440	0	27.446	0	1199.172	0	12.3	4	3.8	4	-1E+10	1	-1E+10	1	-1E+10	1	-1E+10	1	-1E+10	1	-1E+10	1
4902663	14	C	12/22/2023	06:10	-128.068	48.484	0	1238.20	0	2.9830	0	34.4520	0	27.457	0	1224.112	0	13.2	4	4.1	4	-1E+10	1	-1E+10	1	-1E+10	1	-1E+10	1	-1E+10	1	-1E+10	1
4902663	14	C	12/22/2023	06:10	-128.068	48.484	0	1262.90	0	2.9280	0	34.4590	0	27.468	0	1248.457	0	14.2	4	4.4	4	-1E+10	1	-1E+10	1	-1E+10	1	-1E+10	1	-1E+10	1	-1E+10	1
4902663	14	C	12/22/2023	06:10	-128.068	48.484	0	1287.80	0	2.8830	0	34.4660	0	27.477	0	1272.997	0	15.1	4	4.6	4	-1E+10	1	-1E+10	1	-1E+10	1	-1E+10	1	-1E+10	1	-1E+10	1
4902663	14	C	12/22/2023	06:10	-128.068	48.484	0	1312.90	0	2.8370	0	34.4690	0	27.484	0	1297.732	0	15.7	4	4.8	4	-1E+10	1	-1E+10	1	-1E+10	1	-1E+10	1	-1E+10	1	-1E+10	1
4902663	14	C	12/22/2023	06:10	-128.068	48.484	0	1337.80	0	2.8100	0	34.4750	0	27.491	0	1322.266	0	16.5	4	5.1	4	-1E+10	1	-1E+10	1	-1E+10	1	-1E+10	1	-1E+10	1	-1E+10	1
4902663	14	C	12/22/2023	06:10	-128.068	48.484	0	1362.90	0	2.7740	0	34.4790	0	27.498	0	1346.994	0	17.4	4	5.3	4	-1E+10	1	-1E+10	1	-1E+10	1	-1E+10	1	-1E+10	1	-1E+10	1
4902663	14	C	12/22/2023	06:10	-128.068	48.484	0	1388.00	0	2.7550	0	34.4860	0	27.505	0	1371.720	0	18.6	4	5.7	4	-1E+10	1	-1E+10	1	-1E+10	1	-1E+10	1	-1E+10	1	-1E+10	1
4902663	14	C	12/22/2023	06:10	-128.068	48.484	0	1412.90	0	2.7040	0	34.4910	0	27.514	0	1396.245	0	19.8	4	6.1	4	-1E+10	1	-1E+10	1	-1E+10	1	-1E+10	1	-1E+10	1	-1E+10	1
4902663	14	C	12/22/2023	06:10	-128.068	48.484	0	1437.70	0	2.6530	0	34.4970	0	27.523	0	1420.670	0	21.3	4	6.5	4	-1E+10	1	-1E+10	1	-1E+10	1	-1E+10	1	-1E+10	1	-1E+10	1
4902663	14	C	12/22/2023	06:10	-128.068	48.484	0	1462.80	0	2.6120	0	34.5040	0	27.532	0	1445.386	0	22.8	4	7.0	4	-1E+10	1	-1E+10	1	-1E+10	1	-1E+10	1	-1E+10	1	-1E+10	1
4902663	14	C	12/22/2023	06:10	-128.068	48.484	0	1487.70	0	2.5640	0	34.5110	0	27.542	0	1469.903	0	24.7	4	7.5	4	-1E+10	1	-1E+10	1	-1E+10	1	-1E+10	1	-1E+10	1	-1E+10	1
4902663	14	C	12/22/2023	06:10	-128.068	48.484	0	1512.80	0	2.5040	0	34.5160	0	27.551	0	1494.615	0	25.9	4	7.9	4	-1E+10	1	-1E+10	1	-1E+10	1	-1E+10	1	-1E+10	1	-1E+10	1
4902663	14	C	12/22/2023	06:10	-128.068	48.484	0	1537.60	0	2.4230	0	34.5170	0	27.559	0	1519.027	0	27.0	4	8.2	4	-1E+10	1	-1E+10	1	-1E+10	1	-1E+10	1	-1E+10	1	-1E+10	1
4902663	14	C	12/22/2023	06:10	-128.068	48.484	0	1562.50	0	2.3860	0	34.5230	0	27.567	0	1543.536	0	28.6	4	8.7	4	-1E+10	1	-1E+10	1	-1E+10	1	-1E+10	1	-1E+10	1	-1E+10	1
4902663	14	C	12/22/2023	06:10	-128.068	48.484	0	1588.00	0	2.3560	0	34.5300	0	27.575	0	1568.632	0	30.6	4	9.3	4	-1E+10	1	-1E+10	1	-1E+10	1	-1E+10	1	-1E+10	1	-1E+10	1
4902663	14	C	12/22/2023	06:10	-128.068	48.484	0	1612.70	0	2.3150	0	34.5360	0	27.583	0	1592.938	0	32.4	4	9.8	4	-1E+10	1	-1E+10	1	-1E+10	1	-1E+10	1	-1E+10	1	-1E+10	1
4902663	14	C	12/22/2023	06:10	-128.068	48.484	0	1637.60	0	2.2820	0	34.5410	0	27.590	0	1617.437	0	33.9	4	10.3	4	-1E+10	1	-1E+10	1	-1E+10	1	-1E+10	1	-1E+10	1	-1E+10	1
4902663	14	C	12/22/2023	06:10	-128.068	48.484	0	1662.50	0	2.2490	0	34.5460	0	27.597	0	1641.935	0	35.5	4	10.8	4	-1E+10	1	-1E+10	1	-1E+10	1	-1E+10	1	-1E+10	1	-1E+10	1
4902663	14	C	12/22/2023	06:10	-128.068	48.484	0	1687.70	0	2.2290	0	34.5500	0	27.602	0	1666.724	0	36.8	4	11.2	4	-1E+10	1	-1E+10	1	-1E+10	1	-1E+10	1	-1E+10	1	-1E+10	1
4902663	14	C	12/22/2023	06:10	-128.068	48.484	0	1712.80	0	2.2060	0	34.5540	0	27.607	0	1691.412	0	38.3	4	11.6	4	-1E+10	1	-1E+10	1	-1E+10	1	-1E+10	1	-1E+10	1	-1E+10	1
4902663	14	C	12/22/2023	06:10	-128.068	48.484	0	1737.60	0	2.1710	0	34.5570	0	27.613	0	1715.802	0	39.7	4	12.0	4	-1E+10	1	-1E+10	1	-1E+10	1	-1E+10	1	-1E+10	1	-1E+10	1
4902663	14	C	12/22/2023	06:10	-128.068	48.484	0	1763.00	0	2.1340	0	34.5610	0	27.619	0	1740.779	0	41.3	4	12.5	4	-1E+10	1	-1E+10	1	-1E+10	1	-1E+10	1	-1E+10	1	-1E+10	1
4902663	14	C	12/22/2023	06:10	-128.068	48.484	0	1788.20	0	2.1040	0	34.5660	0	27.625	0	1765.557	0	43.2	4	13.1	4	-1E+10	1	-1E+10	1	-1E+10	1	-1E+10	1	-1E+10	1	-1E+10	1
4902663	14	C	12/22/2023	06:10	-128.068	48.484	0	1812.80	0	2.0700	0	34.5700	0	27.631	0	1789.742	0	45.1	4	13.6	4	-1E+10	1	-1E+10	1	-1E+10	1	-1E+10	1	-1E+10	1	-1E+10	1
4902663	14	C	12/22/2023	06:10	-128.068	48.484	0	1838.00	0	2.0420	0	34.5740	0	27.637	0	1814.514	0	46.5	4	14.0	4	-1E+10	1	-1E+10	1	-1E+10	1	-1E+10	1	-1E+10	1	-1E+10	1
4902663	14	C	12/22/2023	06:10	-128.068	48.484	0	1863.10	0	2.0210	0	34.5770	0	27.641	0	1839.184	0	47.9	4	14.5	4	-1E+10	1	-1E+10	1	-1E+10	1	-1E+10	1	-1E+10	1	-1E+10	1
4902663	14	C	12/22/2023	06:10	-128.068	48.484	0	1888.00	0	1.9990	0	34.5820	0	27.647	0	1863.656	0	49.6	4	14.9	4	-1E+10	1	-1E+10	1	-1E+10	1	-1E+10	1	-1E+10	1	-1E+10	1
4902663	14	C	12/22/2023	06:10	-128.068	48.484	0	1912.80	0	1.9810	0	34.5850	0	27.651	0	1888.026	0	50.8	4	15.3	4	-1E+10	1	-1E+10	1	-1E+10	1	-1E+10	1	-1E+10	1	-1E+10	1
4902663	14	C	12/22/2023	06:10	-128.068	48.484	0	1938.00	0	1.9640	0	34.5880	0	27.655	0	1912.786	0	52.2	4	15.7	4	-1E+10	1	-1E+10	1	-1E+10	1	-1E+10	1	-1E+10	1	-1E+10	1
4902663	14	C	12/22/2023	06:10	-128.068	48.484	0	1963.00	0	1.9440	0	34.5920	0	27.659	0	1937.348	0	53.6	4	16.1	4	-1E+10	1	-1E+10	1	-1E+10	1	-1E+10	1	-1E+10	1	-1E+10	1
4902663	14	C	12/22/2023	06:10	-128.068	48.484	0	1988.50	0	1.9290	0	34.5950	0	27.663	0	1962.397	0	54.4	4	16.4	4	-1E+10	1	-1E+10	1	-1E+10	1	-1E+10	1	-1E+10	1	-1E+10	1
4902663	14	C	12/22/2023	06:10	-128.068	48.484	0	2002.00	0	1.9220	0	34.5960	0	27.665	0	1975.657	0	54.0	4	16.3	4	-1E+10	1	-1E+10	1	-1E+10	1	-1E+10	1	-1E+10	1	-1E+10	1
4902663	14	C	12/22/2023	06:10	-128.068	48.484	0																										
4902663	15	C	01/01/2024	06:17	-128.495	48.477	0	0.40	0	9.5180	0	32.2920	0	24.917	0	0.397	0	263.9	4	93.3	4	-1E+10	1	-1E+10	1	-1E+10	1	-1E+10	1	-1E+10	1	-1E+10	1
4902663	15	C	01/01/2024	06:17	-128.495	48.477	0	1.10	0	9.5180	0	32.2910	0	24.916	0	1.091	0	263.9	4	93.3	4	-1E+10	1	-1E+10	1	-1E+10	1	-1E+10	1	-1E+10	1	-1E+10	1
4902663	15	C	01/01/2024	06:17	-128.495	48.477	0	2.10	0	9.5170	0	32.2930	0	24.918	0	2.082	0	263.8	4	93.2	4	-1E+10	1	-1E+10	1	-1E+10	1	-1E+10	1	-1E+10	1	-1E+10	1
4902663	15	C	01/01/2024	06:17	-128.495	48.477	0	2.90	0	9.5180	0	32.2920	0	24.917	0	2.876	0	263.7	4	93.2	4	-1E+10	1	-1E+10	1	-1E+10	1	-1E+10	1	-1E+10	1	-1E+10	1
4902663	15	C	01/01/2024	06:17	-128.495	48.477	0	3.80	0	9.5180	0	32.2920	0	24.917	0	3.768	0	263.7	4	93.2	4	-1E+10	1	-1E+10	1	-1E+10	1	-1E+10	1	-1E+10	1	-1E+10	1
4902663	15	C	01/01/2024	06:17	-128.495	48.477	0	4.80	0	9.5180	0	32.2930	0	24.918	0	4.759	0	263.6	4	93.2	4	-1E+10	1	-1E+10	1	-1E+10	1	-1E+10	1	-1E+10	1	-1E+10	1
4902663	15	C	01/01/2024	06:17	-128.495	48.477	0	5.90	0	9.5180	0	32.2930	0	24.918	0	5.850	0	263.6	4	93.1	4	-1E+10	1	-1E+10	1	-1E+10	1	-1E+10	1	-1E+10	1	-1E+10	1
4902663	15	C	01/01/2024	06:17	-128.495	48.477	0	7.00	0	9.5180	0	32.2930	0	24.918	0	6.941	0	263.5	4	93.1	4	-1E+10	1	-1E+10	1	-1E+10	1	-1E+10	1	-1E+10	1	-1E+10	1
4902663	15	C	01/01/2024	06:17	-128.495	48.477	0	7.80	0	9.5160	0	32.2930	0	24.918	0	7.734	0	263.5	4	93.1	4	-1E+10	1	-1E+10	1	-1E+10	1	-1E+10	1	-1E+10	1	-1E+10	1
4902663	15	C	01/01/2024	06:17	-128.495	48.477	0	9.00	0	9.5180	0	32.2930	0	24.918	0	8.924	0	263.4	4	93.1	4	-1E+10	1	-1E+10	1	-1E+10	1	-1E+10	1	-1E+10	1	-1E+10	1
4902663	15	C	01/01/2024	06:17	-128.495	48.477	0	10.20	0	9.5200	0	32.2940	0	24.918	0	10.114	0	263.4	4	93.1	4	-1E+10	1	-1E+10	1	-1E+10	1	-1E+10	1	-1E+10	1	-1E+10	1
4902663	15	C	01/01/2024	06:17	-128.495	48.477	0	15.20	0	9.5200	0	32.2930	0	24.918	0	15.071	0	263.2	4	93.0	4	-1E+10	1	-1E+10	1	-1E+10	1	-1E+10	1	-1E+10	1	-1E+10	1
4902663	15	C	01/01/2024	06:17	-128.495	48.477	0	25.40	0	9.5210	0	32.2930	0	24.918	0	25.184	0	262.6	4	92.8	4	-1E+10	1	-1E+10	1	-1E+10	1	-1E+10	1	-1E+10	1	-1E+10	1
4902663	15	C	01/01/2024	06:17	-128.495	48.477	0	35.10	0	9.5220	0	32.2930	0	24.918	0	34.801	0	261.8	4	92.5	4	-1E+10	1	-1E+10	1	-1E+10	1	-1E+10	1	-1E+10	1	-1E+10	1
4902663	15	C	01/01/2024	06:17	-128.495	48.477	0	45.50	0	9.5240	0	32.2930	0	24.918	0	45.111	0	260.5	4	92.1	4	-1E+10	1	-1E+10	1	-1E+10	1	-1E+10	1	-1E+10	1	-1E+10	1
4902663	15	C	01/01/2024	06:17	-128.495	48.477	0	55.40	0	9.5250	0	32.2930	0	24.918	0	54.925	0	263.2	4	93.0	4	-1E+10	1	-1E+10	1	-1E+10	1	-1E+10	1	-1E+10	1	-1E+10	1
4902663	15	C	01/01/2024	06:17	-128.495	48.477	0	65.30	0	9.5210	0	32.2920	0	24.918	0	64.739	0	246.4	4	87.1	4	-1E+10	1	-1E+10	1	-1E+10	1	-1E+10	1	-1E+10	1	-1E+10	1
4902663	15	C	01/01/2024	06:17	-128.495	48.477	0	75.40	0	8.5460	0	32.6450	0	25.345	0	74.750	0	195.7	4	67.9	4	-1E+10	1	-1E+10	1	-1E+10	1	-1E+10	1	-1E+10	1	-1E+10	1
4902663	15	C	01/01/2024	06:17	-128.495	48.477	0	85.60	0	7.7760	0	33.0980	0	25.814	0	84.860	0	168.1	4	57.5	4	-1E+10	1	-1E+10	1	-1E+10	1	-1E+10	1	-1E+10	1	-1E+10	1
4902663	15	C	01/01/2024	06:17	-128.495	48.477	0	95.90	0	7.6750	0	33.2860	0	25.976	0	95.069	0	156.4	4	53.4	4	-1E+10	1	-1E+10	1	-1E+10	1	-1E+10	1	-1E+10	1	-1E+10	1
4902663	15	C	01/01/2024	06:17	-128.495	48.477	0	105.50	0	7.5780	0	33.4120	0	26.089	0	104.583	0	148.9	4	50.8	4	-1E+10	1	-1E+10	1	-1E+10	1	-1E+10	1	-1E+10	1	-1E+10	1
4902663	15	C	01/01/2024	06:17	-128.495	48.477	0	115.60	0	7.4570	0	33.5420	0	26.209	0	114.593	0	142.0	4	48.4	4	-1E+10	1	-1E+10	1	-1E+10	1	-1E+10	1	-1E+10	1	-1E+10	1
4902663	15	C	01/01/2024	06:17	-128.495	48.477	0	125.50	0	7.4000	0	33.6290	0	26.285	0	124.404	0	136.7	4	46.5	4	-1E+10	1	-1E+10	1	-1E+10	1	-1E+10	1	-1E+10	1	-1E+10	1
4902663	15	C	01/01/2024	06:17	-128.495	48.477	0	135.40	0	7.3470	0	33.6930	0	26.343	0	134.214	0	130.3	4	44.3	4	-1E+10	1	-1E+10	1	-1E+10	1	-1E+10	1	-1E+10	1	-1E+10	1
4902663	15	C	01/01/2024	06:17	-128.495	48.477	0	145.40	0	7.2600	0	33.7550	0	26.404	0	144.123	0	123.1	4	41.8	4	-1E+10	1	-1E+10	1	-1E+10	1	-1E+10	1	-1E+10	1	-1E+10	1
4902663	15	C	01/01/2024	06:17	-128.495	48.477	0	155.30	0	7.1920	0	33.7970	0	26.447	0	153.932	0	114.9	4	39.0	4	-1E+10	1	-1E+10	1	-1E+10	1	-1E+10	1	-1E+10	1	-1E+10	1
4902663	15	C	01/01/2024	06:17	-128.495	48.477	0	165.40	0	7.1270	0	33.8330	0	26.484	0	163.939	0	107.8	4	36.5	4	-1E+10	1	-1E+10	1	-1E+10	1	-1E+10	1	-1E+10	1	-1E+10	1
4902663	15	C	01/01/2024	06:17	-128.495	48.477	0	175.70	0	7.0440	0	33.8540	0	26.512	0	174.144	0	104.6	4	35.4	4	-1E+10	1	-1E+10	1	-1E+10	1	-1E+10	1	-1E+10	1	-1E+10	1
4902663	15	C	01/01/2024	06:17	-128.495	48.477	0	185.40	0	6.9380	0	33.8690	0	26.539	0	183.754	0	102.7	4	34.7	4	-1E+10	1	-1E+10	1	-1E+10	1	-1E+10	1	-1E+10	1	-1E+10	1
4902663	15	C	01/01/2024	06:17	-128.495	48.477	0	195.00	0	6.8200	0	33.8720	0	26.557	0	193.264	0	100.1	4	33.7	4	-1E+10	1	-1E+10	1	-1E+10	1	-1E+10	1	-1E+10	1	-1E+10	1
4902663	15	C	01/01/2024	06:17	-128.495	48.477	0	212.90	0	6.6560	0	33.8980	0	26.600	0	210.995	0	92.0	4	30.8	4	-1E+10	1	-1E+10	1	-1E+10	1	-1E+10	1	-1E+10	1	-1E+10	1
4902663	15	C	01/01/2024	06:17	-128.495	48.477	0	238.20	0	6.3890	0	33.9090	0	26.644	0	236.055	0	86.5	4	28.8	4	-1E+10	1	-1E+10	1	-1E+10	1	-1E+10	1	-1E+10	1	-1E+10	1
4902663	15	C	01/01/2024	06:17	-128.495	48.477	0	262.90	0	6.1620	0	33.9130	0	26.676	0	260.517	0	82.5	4	27.4	4	-1E+10	1	-1E+10	1	-1E+10	1	-1E+10	1	-1E+10	1	-1E+10	1
4902663	15	C	01/01/2024	06:17	-128.495	48.477	0	288.20	0	5.9410	0	33.9240	0	26.713	0	285.570	0	76.1	4	25.1	4	-1E+10	1	-1E+10	1	-1E+10	1	-1E+10	1	-1E+10	1	-1E+10	1
4902663	15	C	01/01/2024	06:17	-128.495	48.477	0	312.80	0	5.7900	0	33.9410	0	26.745	0	309.927	0	68.7	4	22.6	4	-1E+10	1	-1E+10	1	-1E+10	1	-1E+10	1	-1E+10	1	-1E+10	1
4902663	15	C	01/01/2024	06:17	-128.495	48.477	0	338.10	0	5.5880	0	33.9510	0	26.778	0	334.974	0	62.3	4	20.4	4	-1E+10	1	-1E+10	1	-1E+10	1	-1E+10	1	-1E+10	1	-1E+10	1
4902663	15	C	01/01/2024	06:17	-128.495	48.477	0	362.70	0	5.4250	0	33.9650	0	26.809	0	359.325	0	56.7	4	18.5	4	-1E+10	1	-1E+10	1	-1E+10	1	-1E+10	1	-1E+10	1	-1E+10	1
4902663	15	C	01/01/2024	06:17	-128.495	48.477	0	388.00	0	5.2710	0	33.9800	0	26.839	0	384.367	0	50.9	4	16.6	4	-1E+10	1	-1E+10	1	-1E+10	1	-1E+10	1	-1E+10	1	-1E+10	1
4902663	15	C	01/01/2024	06:17	-128.495	48.477	0	412.80	0	5.0970	0	34.0000	0	26.875	0	408.910	0	45.2	4	14.6	4	-1E+10	1	-1E+10	1	-1E+10	1	-1E+10	1	-1E+10	1	-1E+10	1
4902663	15	C	01/01/2024	06:17	-128.495	48.477	0	437.90	0	5.0090	0	34.0200	0	26.901	0	433.747	0	40.0	4	12.9	4	-1E+10	1	-1E+10	1	-1E+10	1	-1E+10	1	-1E+10	1	-1E+10	1
4902663	15	C	01/01/2024	06:17	-128.495	48.477	0	462.50	0	4.9080	0	34.0410	0	26.930	0	458.087	0	35.0	4	11.3	4	-1E+10	1	-1E+10	1	-1E+10	1	-1E+10	1	-1E+10	1	-1E+10	1
4902663	15	C	01/01/2024	06:17	-128.495	48.477	0	488.20	0	4.7820	0	34.0610	0	26.960	0	483.512	0	30.7	4	9.9	4	-1E+10	1	-1E+10	1	-1E+10	1	-1E+10	1	-1E+10	1	-1E+10	1
4902663	15	C	01/01/2024	06:17	-128.495	48.477	0	512.50	0	4.7240	0	34.0880	0	26.988	0	507.549	0	25.7	4	8.3	4	-1E+10	1	-1E+10	1	-1E+10	1	-1E+10	1	-1E+10	1	-1E+10	1
4902663	15	C	01/01/2024	06:17	-128.495	48.477	0	537.80	0	4.6560	0	34.1080	0	27.011	0	532.572	0	22.7	4	7.3	4	-1E+10	1	-1E+10	1	-1E+10	1	-1E+10	1	-1E+10	1	-1E+10	1
4902663	15	C	01/01/2024	06:17	-128.495	48.477	0	562.80	0	4.6640	0	34.1340	0	27.031	0	557.295	0	18.6	4	6.0	4	-1E+10	1	-1E+10	1	-1E+10	1	-1E+10	1	-1E+10	1	-1E+10	1
4902663	15	C	01/01/2024	06:17	-128.495	48.477	0	587.70	0	4.7160	0	34.1730	0	27.057	0	581.917	0	15.5	4	5.0	4	-1E+10	1	-1E+10	1	-1E+10	1	-1E+10	1	-1E+10	1	-1E+10	1
4902663	15	C	01/01/2024	06:17	-128.495	48.477	0	612.50	0	4.5930	0	34.1870	0	27.082	0	606.437	0	13.5	4	4.3	4	-1E+10	1	-1E+10	1	-1E+10	1	-1E+10	1	-1E+10	1	-1E+10	1
4902663	15	C	01/01/2024	06:17	-128.495	48.477	0	637.60	0	4.5180	0	34.2080	0	27.107	0	631.250	0	11.9	4	3.8	4	-1E+10	1	-1E+10	1	-1E+10	1	-1E+10	1	-1E+10	1	-1E+10	1
4902663	15	C	01/01/2024	06:17	-128.495	48.477	0	663.00	0	4.4590	0	34.2230	0	27.125	0	656.357	0	10.9	4	3.5	4	-1E+10	1	-1E+10	1	-1E+10	1	-1E+10	1	-1E+10	1	-1E+10	1
4902663	15	C	01/01/2024	06:17	-128.495	48.477	0	688.00	0	4.3950	0	34.2370	0	27.143	0	681.066	0	9.9	4	3.2	4	-1E+10	1	-1E+10	1	-1E+10	1	-1E+10	1	-1E+10	1	-1E+10	1
4902663	15	C	01/01/2024	06:17	-128.495	48.477	0	713.00	0	4.2900	0	34.2500	0	27.165	0	705.772	0	9.0	4	2.9	4	-1E+10	1	-1E+10	1	-1E+10	1	-1E+10	1	-1E+10	1	-1E+10	1
4902663	15	C	01/01/2024	06:17	-128.495	48.477	0	738.90	0	4.2410	0	34.2660	0	27.183	0	731.364	0	8.5	4	2.7	4	-1E+10	1	-1E+10	1	-1E+10	1	-1E+10	1	-1E+10	1	-1E+10	1
4902663	15	C	01/01/2024	06:17	-128.495	48.477	0	762.50	0	4.1460	0	34.2760	0	27.201	0	754.680	0	8.0	4	2.5	4	-1E+10	1	-1E+10	1	-1E+10	1	-1E+10	1	-1E+10	1	-1E+10	1
4902663	15	C	01/01/2024	06:17	-128.495	48.477	0	787.80	0	4.0850	0	34.2870	0	27.216	0	779.674	0	7.7	4	2.4	4	-1E+10	1	-1E+10	1	-1E+10	1	-1E+10	1	-1E+10	1	-1E+10	1
4902663	15	C	01/01/2024	06:17	-128.495	48.477	0	813.30	0	4.0270	0	34.2980	0	27.231	0	804.861	0	7.3	4	2.3	4	-1E+10	1	-1E+10	1	-1E+10	1	-1E+10	1	-1E+10	1	-1E+10	1
4902663	15	C	01/01/2024	06:17	-128.495	48.477	0	838.10	0	3.9830	0	34.3080	0	27.244	0	829.355	0	7.2	4	2.3	4	-1E+10	1	-1E+10	1	-1E+10	1	-1E+10	1	-1E+10	1	-1E+10	1
4902663	15	C	01/01/2024	06:17	-128.495	48.477	0	863.20	0	3.8990	0	34.3200	0	27.262	0	854.142	0	7.1	4	2.2	4	-1E+10	1	-1E+10	1	-1E+10	1	-1E+10	1	-1E+10	1	-1E+10	1
4902663	15	C	01/01/2024	06:17	-128.495	48.477	0	887.90	0	3.8090	0	34.3380	0	27.286	0	878.531	0	7.1	4	2.2	4	-1E+10	1	-1E+10	1	-1E+10	1	-1E+10	1	-1E+10	1	-1E+10	1
4902663	15	C	01/01/2024	06:17	-128.495	48.477	0	912.50	0	3.6990	0	34.3540	0	27.309	0	902.818	0	7.3	4	2.3	4	-1E+10	1	-1E+10	1	-1E+10	1	-1E+10	1	-1E+10	1	-1E+10	1
4902663	15	C	01/01/2024	06:17	-128.495	48.477	0	937.40	0	3.6410	0	34.3690	0	27.327	0	927.399	0	7.5	4	2.4	4	-1E+10	1	-1E+10	1	-1E+10	1	-1E+10	1	-1E+10	1	-1E+10	1
4902663	15	C	01/01/2024	06:17	-128.495	48.477	0	962.70	0	3.5630	0	34.3740	0	27.339	0	952.371	0	7.8	4	2.4	4	-1E+10	1	-1E+10	1	-1E+10	1	-1E+10	1	-1E+10	1	-1E+10	1
4902663	15	C	01/01/2024	06:17	-128.495	48.477	0	988.10	0	3.4820	0	34.3820	0	27.353	0	977.440	0	8.1	4	2.5	4	-1E+10	1	-1E+10	1	-1E+10	1	-1E+10	1	-1E+10	1	-1E+10	1
4902663	15	C	01/01/2024	06:17	-128.495	48.477	0	1013.20	0	3.4340	0	34.3900	0	27.364	0	1002.209	0	8.4	4	2.6	4	-1E+10	1	-1E+10	1	-1E+10	1	-1E+10	1	-1E+10	1	-1E+10	1
4902663	15	C	01/01/2024	06:17	-128.495	48.477	0	1038.00	0	3.4090	0	34.3970	0	27.373	0	1026.679	0	8.7	4	2.7	4	-1E+10	1	-1E+10	1	-1E+10	1	-1E+10	1	-1E+10	1	-1E+10	1
4902663	15	C	01/01/2024	06:17	-128.495	48.477	0	1062.90	0	3.3630	0	34.4050	0	27.383	0	1051.245	0	9.1	4	2.8	4	-1E+10	1	-1E+10	1	-1E+10	1	-1E+10	1	-1E+10	1	-1E+10	1
4902663	15	C	01/01/2024	06:17	-128.495	48.477	0	1087.90	0	3.3170	0	34.4110	0	27.393	0	1075.907	0	9.6	4	3.0	4	-1E+10	1	-1E+10	1	-1E+10	1	-1E+10	1	-1E+10	1	-1E+10	1
4902663	15	C	01/01/2024	06:17	-128.495	48.477	0	1113.00	0	3.2760	0	34.4180	0	27.402	0	1100.665	0	10.1	4	3.1	4	-1E+10	1	-1E+10	1	-1E+10	1	-1E+10	1	-1E+10	1	-1E+10	1
4902663	15	C	01/01/2024	06:17	-128.495	48.477	0	1137.90	0	3.2030	0	34.4280	0	27.417	0	1125.222	0	10.9	4	3.4	4	-1E+10	1	-1E+10	1	-1E+10	1	-1E+10	1	-1E+10	1	-1E+10	1
4902663	15	C	01/01/2024	06:17	-128.495	48.477	0	1162.80	0	3.1330	0	34.4370	0	27.431	0	1149.776	0	11.6	4	3.6	4	-1E+10	1	-1E+10	1	-1E+10	1	-1E+10	1	-1E+10	1	-1E+10	1
4902663	15	C	01/01/2024	06:17	-128.495	48.477	0	1187.80	0	3.0870	0	34.4420	0	27.439	0	1174.427	0	12.1	4	3.8	4	-1E+10	1	-1E+10	1	-1E+10	1	-1E+10	1	-1E+10	1	-1E+10	1
4902663	15	C	01/01/2024	06:17	-128.495	48.477	0	1212.90	0	3.0330	0	34.4500	0	27.451	0	1199.172	0	13.1	4	4.0	4	-1E+10	1	-1E+10	1	-1E+10	1	-1E+10	1	-1E+10	1	-1E+10	1
4902663	15	C	01/01/2024	06:17	-128.495	48.477	0	1237.50	0	2.9800	0	34.4580	0	27.462	0	1223.422	0	14.1	4	4.4	4	-1E+10	1	-1E+10	1	-1E+10	1	-1E+10	1	-1E+10	1	-1E+10	1
4902663	15	C	01/01/2024	06:17	-128.495	48.477	0	1262.80	0	2.9130	0	34.4640	0	27.473	0	1248.360	0	14.9	4	4.6	4	-1E+10	1	-1E+10	1	-1E+10	1	-1E+10	1	-1E+10	1	-1E+10	1
4902663	15	C	01/01/2024	06:17	-128.495	48.477	0	1288.20	0	2.8320	0	34.4690	0	27.484	0	1273.392	0	15.8	4	4.9	4	-1E+10	1	-1E+10	1	-1E+10	1	-1E+10	1	-1E+10	1	-1E+10	1
4902663	15	C	01/01/2024	06:17	-128.495	48.477	0	1313.00	0	2.7740	0	34.4730	0	27.493	0	1297.831	0	16.5	4	5.1	4	-1E+10	1	-1E+10	1	-1E+10	1	-1E+10	1	-1E+10	1	-1E+10	1
4902663	15	C	01/01/2024	06:17	-128.495	48.477	0	1337.70	0	2.7200	0	34.4780	0	27.501	0	1322.168	0	17.5	4	5.4	4	-1E+10	1	-1E+10	1	-1E+10	1	-1E+10	1	-1E+10	1	-1E+10	1
4902663	15	C	01/01/2024	06:17	-128.495	48.477	0	1362.70	0	2.7210	0	34.4890	0	27.510	0	1346.798	0	19.2	4	5.9	4	-1E+10	1	-1E+10	1	-1E+10	1	-1E+10	1	-1E+10	1	-1E+10	1
4902663	15	C	01/01/2024	06:17	-128.495	48.477	0	1388.30	0	2.6780	0	34.4950	0	27.519	0	1372.016	0	20.7	4	6.3	4	-1E+10	1	-1E+10	1	-1E+10	1	-1E+10	1	-1E+10	1	-1E+10	1
4902663	15	C	01/01/2024	06:17	-128.495	48.477	0	1412.80	0	2.6260	0	34.5030	0	27.530	0	1396.148	0	22.3	4	6.8	4	-1E+10	1	-1E+10	1	-1E+10	1	-1E+10	1	-1E+10	1	-1E+10	1
4902663	15	C	01/01/2024	06:17	-128.495	48.477	0	1437.80	0	2.5840	0	34.5080	0	27.538	0	1420.769	0	23.6	4	7.2	4	-1E+10	1	-1E+10	1	-1E+10	1	-1E+10	1	-1E+10	1	-1E+10	1
4902663	15	C	01/01/2024	06:17	-128.495	48.477	0	1462.90	0	2.5270	0	34.5130	0	27.547	0	1445.486	0	25.0	4	7.6	4	-1E+10	1	-1E+10	1	-1E+10	1	-1E+10	1	-1E+10	1	-1E+10	1
4902663	15	C	01/01/2024	06:17	-128.495	48.477	0	1488.00	0	2.4670	0	34.5170	0	27.555	0	1470.200	0	26.0	4	7.9	4	-1E+10	1	-1E+10	1	-1E+10	1	-1E+10	1	-1E+10	1	-1E+10	1
4902663	15	C	01/01/2024	06:17	-128.495	48.477	0	1513.10	0	2.4070	0	34.5180	0	27.561	0	1494.911	0	27.0	4	8.2	4	-1E+10	1	-1E+10	1	-1E+10	1	-1E+10	1	-1E+10	1	-1E+10	1
4902663	15	C	01/01/2024	06:17	-128.495	48.477	0	1538.10	0	2.3870	0	34.5220	0	27.566	0	1519.520	0	28.1	4	8.6	4	-1E+10	1	-1E+10	1	-1E+10	1	-1E+10	1	-1E+10	1	-1E+10	1
4902663	15	C	01/01/2024	06:17	-128.495	48.477	0	1562.90	0	2.3550	0	34.5260	0	27.572	0	1543.930	0	29.5	4	9.0	4	-1E+10	1	-1E+10	1	-1E+10	1	-1E+10	1	-1E+10	1	-1E+10	1
4902663	15	C	01/01/2024	06:17	-128.495	48.477	0	1588.20	0	2.3220	0	34.5320	0	27.579	0	1568.830	0	31.0	4	9.4	4	-1E+10	1	-1E+10	1	-1E+10	1	-1E+10	1	-1E+10	1	-1E+10	1
4902663	15	C	01/01/2024	06:17	-128.495	48.477	0	1613.00	0	2.2910	0	34.5340	0	27.584	0	1593.234	0	32.1	4	9.7	4	-1E+10	1	-1E+10	1	-1E+10	1	-1E+10	1	-1E+10	1	-1E+10	1
4902663	15	C	01/01/2024	06:17	-128.495	48.477	0	1637.90	0	2.2620	0	34.5380	0	27.589	0	1617.734	0	33.2	4	10.1	4	-1E+10	1	-1E+10	1	-1E+10	1	-1E+10	1	-1E+10	1	-1E+10	1
4902663	15	C	01/01/2024	06:17	-128.495	48.477	0	1663.20	0	2.2330	0	34.5410	0	27.594	0	1642.624	0	34.7	4	10.5	4	-1E+10	1	-1E+10	1	-1E+10	1	-1E+10	1	-1E+10	1	-1E+10	1
4902663	15	C	01/01/2024	06:17	-128.495	48.477	0	1688.00	0	2.2130	0	34.5480	0	27.602	0	1667.020	0	37.1	4	11.2	4	-1E+10	1	-1E+10	1	-1E+10	1	-1E+10	1	-1E+10	1	-1E+10	1
4902663	15	C	01/01/2024	06:17	-128.495	48.477	0	1712.90	0	2.1820	0	34.5540	0	27.609	0	1691.511	0	39.0	4	11.8	4	-1E+10	1	-1E+10	1	-1E+10	1	-1E+10	1	-1E+10	1	-1E+10	1
4902663	15	C	01/01/2024	06:17	-128.495	48.477	0	1738.00	0	2.1530	0	34.5570	0	27.614	0	1716.196	0	40.0	4	12.1	4	-1E+10	1	-1E+10	1	-1E+10	1	-1E+10	1	-1E+10	1	-1E+10	1
4902663	15	C	01/01/2024	06:17	-128.495	48.477	0	1762.90	0	2.1260	0	34.5610	0	27.619	0	1740.682	0	41.5	4	12.5	4	-1E+10	1	-1E+10	1	-1E+10	1	-1E+10	1	-1E+10	1	-1E+10	1
4902663	15	C	01/01/2024	06:17	-128.495	48.477	0	1787.70	0	2.1000	0	34.5650	0	27.625	0	1765.066	0	43.0	4	13.0	4	-1E+10	1	-1E+10	1	-1E+10	1	-1E+10	1	-1E+10	1	-1E+10	1
4902663	15	C	01/01/2024	06:17	-128.495	48.477	0	1812.50	0	2.0750	0	34.5690	0	27.630	0	1789.448	0	44.6	4	13.5	4	-1E+10	1	-1E+10	1	-1E+10	1	-1E+10	1	-1E+10	1	-1E+10	1
4902663	15	C	01/01/2024	06:17	-128.495	48.477	0	1837.90	0	2.0550	0	34.5730	0	27.635	0	1814.416	0	45.8	4	13.8	4	-1E+10	1	-1E+10	1	-1E+10	1	-1E+10	1	-1E+10	1	-1E+10	1
4902663	15	C	01/01/2024	06:17	-128.495	48.477	0	1863.40	0	2.0370	0	34.5770	0	27.640	0	1839.480	0	47.2	4	14.3	4	-1E+10	1	-1E+10	1	-1E+10	1	-1E+10	1	-1E+10	1	-1E+10	1
4902663	15	C	01/01/2024	06:17	-128.495	48.477	0	1887.70	0	2.0170	0	34.5800	0	27.644	0	1863.362	0	48.6	4	14.7	4	-1E+10	1	-1E+10	1	-1E+10	1	-1E+10	1	-1E+10	1	-1E+10	1
4902663	15	C	01/01/2024	06:17	-128.495	48.477	0	1912.90	0	1.9930	0	34.5840	0	27.649	0	1888.125	0	50.3	4	15.2	4	-1E+10	1	-1E+10	1	-1E+10	1	-1E+10	1	-1E+10	1	-1E+10	1
4902663	15	C	01/01/2024	06:17	-128.495	48.477	0	1937.50	0	1.9700	0	34.5880	0	27.654	0	1912.296	0	52.0	4	15.7	4	-1E+10	1	-1E+10	1	-1E+10	1	-1E+10	1	-1E+10	1	-1E+10	1
4902663	15	C	01/01/2024	06:17	-128.495	48.477	0	1962.70	0	1.9500	0	34.5910	0	27.658	0	1937.054	0	53.3	4	16.1	4	-1E+10	1	-1E+10	1	-1E+10	1	-1E+10	1	-1E+10	1	-1E+10	1
4902663	15	C	01/01/2024	06:17	-128.495	48.477	0	1987.60	0	1.9320	0	34.5950	0	27.663	0	1961.514	0	54.7	4	16.5	4	-1E+10	1	-1E+10	1	-1E+10	1	-1E+10	1	-1E+10	1	-1E+10	1
4902663	15	C	01/01/2024	06:17	-128.495	48.477	0	2008.30	0	1.9120	0	34.5990	0	27.668	0	1981.846	0	55.7	4	16.7	4	-1E+10	1	-1E+10	1	-1E+10	1	-1E+10	1	-1E+10	1	-1E+10	1
4902663	15	C	01/01/2024	06:17	-128.495	48.477	0																										
4902663	16	C	01/11/2024	05:52	-128.773	48.199	0	0.20	0	9.0310	0	32.3250	0	25.020	0	0.198	0	265.3	4	92.8	4	-1E+10	1	-1E+10	1	-1E+10	1	-1E+10	1	-1E+10	1	-1E+10	1
4902663	16	C	01/11/2024	05:52	-128.773	48.199	0	0.30	0	9.0318	0	32.3248	0	25.019	0	0.297	0	-1e10	1	-1e10	1	-1E+10	1	-1E+10	1	-1E+10	1	-1E+10	1	-1E+10	1	-1E+10	1
4902663	16	C	01/11/2024	05:52	-128.773	48.199	0	0.50	0	9.0334	0	32.3244	0	25.019	0	0.496	0	-1e10	1	-1e10	1	-1E+10	1	-1E+10	1	-1E+10	1	-1E+10	1	-1E+10	1	-1E+10	1
4902663	16	C	01/11/2024	05:52	-128.773	48.199	0	0.70	0	9.0350	0	32.3240	0	25.018	0	0.694	0	265.3	4	92.8	4	-1E+10	1	-1E+10	1	-1E+10	1	-1E+10	1	-1E+10	1	-1E+10	1
4902663	16	C	01/11/2024	05:52	-128.773	48.199	0	1.80	0	9.0370	0	32.3240	0	25.018	0	1.785	0	265.2	4	92.8	4	-1E+10	1	-1E+10	1	-1E+10	1	-1E+10	1	-1E+10	1	-1E+10	1
4902663	16	C	01/11/2024	05:52	-128.773	48.199	0	2.70	0	9.0350	0	32.3270	0	25.021	0	2.677	0	265.2	4	92.8	4	-1E+10	1	-1E+10	1	-1E+10	1	-1E+10	1	-1E+10	1	-1E+10	1
4902663	16	C	01/11/2024	05:52	-128.773	48.199	0	3.80	0	9.0350	0	32.3280	0	25.021	0	3.768	0	265.2	4	92.8	4	-1E+10	1	-1E+10	1	-1E+10	1	-1E+10	1	-1E+10	1	-1E+10	1
4902663	16	C	01/11/2024	05:52	-128.773	48.199	0	5.10	0	9.0340	0	32.3280	0	25.022	0	5.057	0	265.1	4	92.7	4	-1E+10	1	-1E+10	1	-1E+10	1	-1E+10	1	-1E+10	1	-1E+10	1
4902663	16	C	01/11/2024	05:52	-128.773	48.199	0	6.10	0	9.0350	0	32.3280	0	25.021	0	6.049	0	265.0	4	92.7	4	-1E+10	1	-1E+10	1	-1E+10	1	-1E+10	1	-1E+10	1	-1E+10	1
4902663	16	C	01/11/2024	05:52	-128.773	48.199	0	7.00	0	9.0340	0	32.3280	0	25.022	0	6.941	0	265.1	4	92.7	4	-1E+10	1	-1E+10	1	-1E+10	1	-1E+10	1	-1E+10	1	-1E+10	1
4902663	16	C	01/11/2024	05:52	-128.773	48.199	0	7.90	0	9.0330	0	32.3290	0	25.023	0	7.833	0	265.0	4	92.7	4	-1E+10	1	-1E+10	1	-1E+10	1	-1E+10	1	-1E+10	1	-1E+10	1
4902663	16	C	01/11/2024	05:52	-128.773	48.199	0	8.80	0	9.0330	0	32.3280	0	25.022	0	8.726	0	264.9	4	92.7	4	-1E+10	1	-1E+10	1	-1E+10	1	-1E+10	1	-1E+10	1	-1E+10	1
4902663	16	C	01/11/2024	05:52	-128.773	48.199	0	9.80	0	9.0330	0	32.3280	0	25.022	0	9.717	0	264.9	4	92.6	4	-1E+10	1	-1E+10	1	-1E+10	1	-1E+10	1	-1E+10	1	-1E+10	1
4902663	16	C	01/11/2024	05:52	-128.773	48.199	0	15.10	0	9.0380	0	32.3280	0	25.021	0	14.972	0	264.5	4	92.5	4	-1E+10	1	-1E+10	1	-1E+10	1	-1E+10	1	-1E+10	1	-1E+10	1
4902663	16	C	01/11/2024	05:52	-128.773	48.199	0	25.10	0	9.0450	0	32.3270	0	25.019	0	24.887	0	264.1	4	92.4	4	-1E+10	1	-1E+10	1	-1E+10	1	-1E+10	1	-1E+10	1	-1E+10	1
4902663	16	C	01/11/2024	05:52	-128.773	48.199	0	35.60	0	9.0460	0	32.3270	0	25.019	0	35.298	0	263.6	4	92.2	4	-1E+10	1	-1E+10	1	-1E+10	1	-1E+10	1	-1E+10	1	-1E+10	1
4902663	16	C	01/11/2024	05:52	-128.773	48.199	0	45.90	0	9.0470	0	32.3280	0	25.020	0	45.509	0	262.7	4	91.9	4	-1E+10	1	-1E+10	1	-1E+10	1	-1E+10	1	-1E+10	1	-1E+10	1
4902663	16	C	01/11/2024	05:52	-128.773	48.199	0	55.50	0	9.0480	0	32.3280	0	25.020	0	55.026	0	267.4	4	93.6	4	-1E+10	1	-1E+10	1	-1E+10	1	-1E+10	1	-1E+10	1	-1E+10	1
4902663	16	C	01/11/2024	05:52	-128.773	48.199	0	65.60	0	9.0480	0	32.3280	0	25.020	0	65.038	0	254.7	4	89.1	4	-1E+10	1	-1E+10	1	-1E+10	1	-1E+10	1	-1E+10	1	-1E+10	1
4902663	16	C	01/11/2024	05:52	-128.773	48.199	0	75.20	0	7.8040	0	32.6880	0	25.488	0	74.554	0	222.8	4	76.0	4	-1E+10	1	-1E+10	1	-1E+10	1	-1E+10	1	-1E+10	1	-1E+10	1
4902663	16	C	01/11/2024	05:52	-128.773	48.199	0	85.50	0	7.3260	0	32.9440	0	25.756	0	84.763	0	201.8	4	68.3	4	-1E+10	1	-1E+10	1	-1E+10	1	-1E+10	1	-1E+10	1	-1E+10	1
4902663	16	C	01/11/2024	05:52	-128.773	48.199	0	95.50	0	7.5100	0	33.1560	0	25.898	0	94.675	0	173.2	4	58.9	4	-1E+10	1	-1E+10	1	-1E+10	1	-1E+10	1	-1E+10	1	-1E+10	1
4902663	16	C	01/11/2024	05:52	-128.773	48.199	0	105.20	0	7.5070	0	33.3180	0	26.025	0	104.289	0	163.0	4	55.5	4	-1E+10	1	-1E+10	1	-1E+10	1	-1E+10	1	-1E+10	1	-1E+10	1
4902663	16	C	01/11/2024	05:52	-128.773	48.199	0	115.40	0	7.4940	0	33.4670	0	26.145	0	114.398	0	143.9	4	49.0	4	-1E+10	1	-1E+10	1	-1E+10	1	-1E+10	1	-1E+10	1	-1E+10	1
4902663	16	C	01/11/2024	05:52	-128.773	48.199	0	125.20	0	7.5020	0	33.6000	0	26.248	0	124.109	0	132.9	4	45.3	4	-1E+10	1	-1E+10	1	-1E+10	1	-1E+10	1	-1E+10	1	-1E+10	1
4902663	16	C	01/11/2024	05:52	-128.773	48.199	0	135.40	0	7.3600	0	33.7100	0	26.355	0	134.217	0	124.6	4	42.4	4	-1E+10	1	-1E+10	1	-1E+10	1	-1E+10	1	-1E+10	1	-1E+10	1
4902663	16	C	01/11/2024	05:52	-128.773	48.199	0	145.40	0	7.2810	0	33.7710	0	26.414	0	144.126	0	116.9	4	39.7	4	-1E+10	1	-1E+10	1	-1E+10	1	-1E+10	1	-1E+10	1	-1E+10	1
4902663	16	C	01/11/2024	05:52	-128.773	48.199	0	155.50	0	7.2130	0	33.8120	0	26.456	0	154.134	0	109.9	4	37.3	4	-1E+10	1	-1E+10	1	-1E+10	1	-1E+10	1	-1E+10	1	-1E+10	1
4902663	16	C	01/11/2024	05:52	-128.773	48.199	0	165.30	0	7.0820	0	33.8440	0	26.499	0	163.844	0	105.8	4	35.8	4	-1E+10	1	-1E+10	1	-1E+10	1	-1E+10	1	-1E+10	1	-1E+10	1
4902663	16	C	01/11/2024	05:52	-128.773	48.199	0	175.10	0	6.9750	0	33.8620	0	26.528	0	173.554	0	102.8	4	34.7	4	-1E+10	1	-1E+10	1	-1E+10	1	-1E+10	1	-1E+10	1	-1E+10	1
4902663	16	C	01/11/2024	05:52	-128.773	48.199	0	185.50	0	6.8630	0	33.8760	0	26.554	0	183.857	0	100.6	4	33.9	4	-1E+10	1	-1E+10	1	-1E+10	1	-1E+10	1	-1E+10	1	-1E+10	1
4902663	16	C	01/11/2024	05:52	-128.773	48.199	0	195.60	0	6.7210	0	33.8790	0	26.576	0	193.863	0	98.8	4	33.2	4	-1E+10	1	-1E+10	1	-1E+10	1	-1E+10	1	-1E+10	1	-1E+10	1
4902663	16	C	01/11/2024	05:52	-128.773	48.199	0	212.80	0	6.6070	0	33.8920	0	26.602	0	210.902	0	93.2	4	31.2	4	-1E+10	1	-1E+10	1	-1E+10	1	-1E+10	1	-1E+10	1	-1E+10	1
4902663	16	C	01/11/2024	05:52	-128.773	48.199	0	237.50	0	6.3720	0	33.9060	0	26.644	0	235.367	0	85.5	4	28.5	4	-1E+10	1	-1E+10	1	-1E+10	1	-1E+10	1	-1E+10	1	-1E+10	1
4902663	16	C	01/11/2024	05:52	-128.773	48.199	0	262.50	0	6.2240	0	33.9310	0	26.683	0	260.127	0	76.7	4	25.5	4	-1E+10	1	-1E+10	1	-1E+10	1	-1E+10	1	-1E+10	1	-1E+10	1
4902663	16	C	01/11/2024	05:52	-128.773	48.199	0	287.50	0	5.9590	0	33.9380	0	26.722	0	284.884	0	70.1	4	23.2	4	-1E+10	1	-1E+10	1	-1E+10	1	-1E+10	1	-1E+10	1	-1E+10	1
4902663	16	C	01/11/2024	05:52	-128.773	48.199	0	312.50	0	5.7070	0	33.9630	0	26.773	0	309.638	0	61.0	4	20.0	4	-1E+10	1	-1E+10	1	-1E+10	1	-1E+10	1	-1E+10	1	-1E+10	1
4902663	16	C	01/11/2024	05:52	-128.773	48.199	0	337.60	0	5.5880	0	33.9810	0	26.802	0	334.488	0	55.0	4	18.0	4	-1E+10	1	-1E+10	1	-1E+10	1	-1E+10	1	-1E+10	1	-1E+10	1
4902663	16	C	01/11/2024	05:52	-128.773	48.199	0	362.70	0	5.3770	0	33.9920	0	26.836	0	359.335	0	50.4	4	16.4	4	-1E+10	1	-1E+10	1	-1E+10	1	-1E+10	1	-1E+10	1	-1E+10	1
4902663	16	C	01/11/2024	05:52	-128.773	48.199	0	388.00	0	5.1900	0	33.9990	0	26.863	0	384.376	0	46.0	4	14.9	4	-1E+10	1	-1E+10	1	-1E+10	1	-1E+10	1	-1E+10	1	-1E+10	1
4902663	16	C	01/11/2024	05:52	-128.773	48.199	0	413.10	0	5.0400	0	34.0160	0	26.894	0	409.217	0	41.6	4	13.4	4	-1E+10	1	-1E+10	1	-1E+10	1	-1E+10	1	-1E+10	1	-1E+10	1
4902663	16	C	01/11/2024	05:52	-128.773	48.199	0	438.10	0	4.8650	0	34.0230	0	26.920	0	433.956	0	38.4	4	12.4	4	-1E+10	1	-1E+10	1	-1E+10	1	-1E+10	1	-1E+10	1	-1E+10	1
4902663	16	C	01/11/2024	05:52	-128.773	48.199	0	463.00	0	4.7970	0	34.0470	0	26.947	0	458.593	0	33.1	4	10.6	4	-1E+10	1	-1E+10	1	-1E+10	1	-1E+10	1	-1E+10	1	-1E+10	1
4902663	16	C	01/11/2024	05:52	-128.773	48.199	0	488.00	0	4.7780	0	34.0720	0	26.969	0	483.326	0	28.6	4	9.2	4	-1E+10	1	-1E+10	1	-1E+10	1	-1E+10	1	-1E+10	1	-1E+10	1
4902663	16	C	01/11/2024	05:52	-128.773	48.199	0	513.10	0	4.7430	0	34.0960	0	26.992	0	508.155	0	24.4	4	7.8	4	-1E+10	1	-1E+10	1	-1E+10	1	-1E+10	1	-1E+10	1	-1E+10	1
4902663	16	C	01/11/2024	05:52	-128.773	48.199	0	538.30	0	4.7860	0	34.1360	0	27.019	0	533.080	0	19.4	4	6.2	4	-1E+10	1	-1E+10	1	-1E+10	1	-1E+10	1	-1E+10	1	-1E+10	1
4902663	16	C	01/11/2024	05:52	-128.773	48.199	0	563.40	0	4.7300	0	34.1640	0	27.048	0	557.903	0	16.6	4	5.3	4	-1E+10	1	-1E+10	1	-1E+10	1	-1E+10	1	-1E+10	1	-1E+10	1
4902663	16	C	01/11/2024	05:52	-128.773	48.199	0	587.40	0	4.6010	0	34.1780	0	27.073	0	581.635	0	14.5	4	4.6	4	-1E+10	1	-1E+10	1	-1E+10	1	-1E+10	1	-1E+10	1	-1E+10	1
4902663	16	C	01/11/2024	05:52	-128.773	48.199	0	612.90	0	4.4810	0	34.1880	0	27.095	0	606.848	0	13.1	4	4.2	4	-1E+10	1	-1E+10	1	-1E+10	1	-1E+10	1	-1E+10	1	-1E+10	1
4902663	16	C	01/11/2024	05:52	-128.773	48.199	0	638.10	0	4.4310	0	34.2050	0	27.114	0	631.760	0	11.6	4	3.7	4	-1E+10	1	-1E+10	1	-1E+10	1	-1E+10	1	-1E+10	1	-1E+10	1
4902663	16	C	01/11/2024	05:52	-128.773	48.199	0	663.00	0	4.3750	0	34.2220	0	27.133	0	656.374	0	10.4	4	3.3	4	-1E+10	1	-1E+10	1	-1E+10	1	-1E+10	1	-1E+10	1	-1E+10	1
4902663	16	C	01/11/2024	05:52	-128.773	48.199	0	688.30	0	4.3230	0	34.2350	0	27.149	0	681.380	0	9.6	4	3.0	4	-1E+10	1	-1E+10	1	-1E+10	1	-1E+10	1	-1E+10	1	-1E+10	1
4902663	16	C	01/11/2024	05:52	-128.773	48.199	0	713.20	0	4.2350	0	34.2510	0	27.172	0	705.987	0	8.8	4	2.8	4	-1E+10	1	-1E+10	1	-1E+10	1	-1E+10	1	-1E+10	1	-1E+10	1
4902663	16	C	01/11/2024	05:52	-128.773	48.199	0	737.70	0	4.1780	0	34.2670	0	27.190	0	730.197	0	8.3	4	2.6	4	-1E+10	1	-1E+10	1	-1E+10	1	-1E+10	1	-1E+10	1	-1E+10	1
4902663	16	C	01/11/2024	05:52	-128.773	48.199	0	762.80	0	4.1310	0	34.2800	0	27.206	0	754.996	0	7.8	4	2.5	4	-1E+10	1	-1E+10	1	-1E+10	1	-1E+10	1	-1E+10	1	-1E+10	1
4902663	16	C	01/11/2024	05:52	-128.773	48.199	0	787.90	0	4.0550	0	34.2950	0	27.226	0	779.792	0	7.4	4	2.3	4	-1E+10	1	-1E+10	1	-1E+10	1	-1E+10	1	-1E+10	1	-1E+10	1
4902663	16	C	01/11/2024	05:52	-128.773	48.199	0	813.30	0	3.9830	0	34.3070	0	27.243	0	804.882	0	7.1	4	2.2	4	-1E+10	1	-1E+10	1	-1E+10	1	-1E+10	1	-1E+10	1	-1E+10	1
4902663	16	C	01/11/2024	05:52	-128.773	48.199	0	837.80	0	3.9330	0	34.3210	0	27.259	0	829.080	0	6.9	4	2.2	4	-1E+10	1	-1E+10	1	-1E+10	1	-1E+10	1	-1E+10	1	-1E+10	1
4902663	16	C	01/11/2024	05:52	-128.773	48.199	0	862.70	0	3.8770	0	34.3350	0	27.276	0	853.670	0	7.0	4	2.2	4	-1E+10	1	-1E+10	1	-1E+10	1	-1E+10	1	-1E+10	1	-1E+10	1
4902663	16	C	01/11/2024	05:52	-128.773	48.199	0	887.60	0	3.7980	0	34.3450	0	27.292	0	878.257	0	7.1	4	2.2	4	-1E+10	1	-1E+10	1	-1E+10	1	-1E+10	1	-1E+10	1	-1E+10	1
4902663	16	C	01/11/2024	05:52	-128.773	48.199	0	913.10	0	3.7170	0	34.3510	0	27.305	0	903.433	0	7.3	4	2.3	4	-1E+10	1	-1E+10	1	-1E+10	1	-1E+10	1	-1E+10	1	-1E+10	1
4902663	16	C	01/11/2024	05:52	-128.773	48.199	0	937.80	0	3.6640	0	34.3610	0	27.319	0	927.817	0	7.4	4	2.3	4	-1E+10	1	-1E+10	1	-1E+10	1	-1E+10	1	-1E+10	1	-1E+10	1
4902663	16	C	01/11/2024	05:52	-128.773	48.199	0	962.70	0	3.6120	0	34.3700	0	27.331	0	952.396	0	7.6	4	2.4	4	-1E+10	1	-1E+10	1	-1E+10	1	-1E+10	1	-1E+10	1	-1E+10	1
4902663	16	C	01/11/2024	05:52	-128.773	48.199	0	988.10	0	3.5250	0	34.3780	0	27.346	0	977.464	0	7.9	4	2.5	4	-1E+10	1	-1E+10	1	-1E+10	1	-1E+10	1	-1E+10	1	-1E+10	1
4902663	16	C	01/11/2024	05:52	-128.773	48.199	0	1013.00	0	3.4450	0	34.3900	0	27.363	0	1002.037	0	8.4	4	2.6	4	-1E+10	1	-1E+10	1	-1E+10	1	-1E+10	1	-1E+10	1	-1E+10	1
4902663	16	C	01/11/2024	05:52	-128.773	48.199	0	1037.70	0	3.3850	0	34.4010	0	27.378	0	1026.409	0	8.9	4	2.8	4	-1E+10	1	-1E+10	1	-1E+10	1	-1E+10	1	-1E+10	1	-1E+10	1
4902663	16	C	01/11/2024	05:52	-128.773	48.199	0	1062.90	0	3.3420	0	34.4080	0	27.388	0	1051.272	0	9.3	4	2.9	4	-1E+10	1	-1E+10	1	-1E+10	1	-1E+10	1	-1E+10	1	-1E+10	1
4902663	16	C	01/11/2024	05:52	-128.773	48.199	0	1087.50	0	3.2890	0	34.4160	0	27.399	0	1075.540	0	9.8	4	3.1	4	-1E+10	1	-1E+10	1	-1E+10	1	-1E+10	1	-1E+10	1	-1E+10	1
4902663	16	C	01/11/2024	05:52	-128.773	48.199	0	1112.70	0	3.2500	0	34.4220	0	27.408	0	1100.397	0	10.3	4	3.2	4	-1E+10	1	-1E+10	1	-1E+10	1	-1E+10	1	-1E+10	1	-1E+10	1
4902663	16	C	01/11/2024	05:52	-128.773	48.199	0	1138.40	0	3.2060	0	34.4280	0	27.417	0	1125.744	0	10.8	4	3.3	4	-1E+10	1	-1E+10	1	-1E+10	1	-1E+10	1	-1E+10	1	-1E+10	1
4902663	16	C	01/11/2024	05:52	-128.773	48.199	0	1163.10	0	3.1620	0	34.4340	0	27.426	0	1150.101	0	11.3	4	3.5	4	-1E+10	1	-1E+10	1	-1E+10	1	-1E+10	1	-1E+10	1	-1E+10	1
4902663	16	C	01/11/2024	05:52	-128.773	48.199	0	1187.90	0	3.1040	0	34.4410	0	27.437	0	1174.555	0	11.9	4	3.7	4	-1E+10	1	-1E+10	1	-1E+10	1	-1E+10	1	-1E+10	1	-1E+10	1
4902663	16	C	01/11/2024	05:52	-128.773	48.199	0	1213.10	0	3.0590	0	34.4460	0	27.445	0	1199.400	0	12.5	4	3.9	4	-1E+10	1	-1E+10	1	-1E+10	1	-1E+10	1	-1E+10	1	-1E+10	1
4902663	16	C	01/11/2024	05:52	-128.773	48.199	0	1238.00	0	3.0200	0	34.4520	0	27.454	0	1223.946	0	13.3	4	4.1	4	-1E+10	1	-1E+10	1	-1E+10	1	-1E+10	1	-1E+10	1	-1E+10	1
4902663	16	C	01/11/2024	05:52	-128.773	48.199	0	1263.60	0	2.9490	0	34.4600	0	27.467	0	1249.180	0	14.3	4	4.4	4	-1E+10	1	-1E+10	1	-1E+10	1	-1E+10	1	-1E+10	1	-1E+10	1
4902663	16	C	01/11/2024	05:52	-128.773	48.199	0	1287.60	0	2.8870	0	34.4680	0	27.479	0	1272.833	0	15.4	4	4.7	4	-1E+10	1	-1E+10	1	-1E+10	1	-1E+10	1	-1E+10	1	-1E+10	1
4902663	16	C	01/11/2024	05:52	-128.773	48.199	0	1312.90	0	2.8470	0	34.4750	0	27.488	0	1297.765	0	16.5	4	5.1	4	-1E+10	1	-1E+10	1	-1E+10	1	-1E+10	1	-1E+10	1	-1E+10	1
4902663	16	C	01/11/2024	05:52	-128.773	48.199	0	1337.80	0	2.8100	0	34.4800	0	27.495	0	1322.300	0	17.5	4	5.4	4	-1E+10	1	-1E+10	1	-1E+10	1	-1E+10	1	-1E+10	1	-1E+10	1
4902663	16	C	01/11/2024	05:52	-128.773	48.199	0	1362.90	0	2.7670	0	34.4860	0	27.504	0	1347.029	0	18.6	4	5.7	4	-1E+10	1	-1E+10	1	-1E+10	1	-1E+10	1	-1E+10	1	-1E+10	1
4902663	16	C	01/11/2024	05:52	-128.773	48.199	0	1387.90	0	2.7220	0	34.4920	0	27.513	0	1371.657	0	19.9	4	6.1	4	-1E+10	1	-1E+10	1	-1E+10	1	-1E+10	1	-1E+10	1	-1E+10	1
4902663	16	C	01/11/2024	05:52	-128.773	48.199	0	1412.70	0	2.6710	0	34.4970	0	27.521	0	1396.085	0	20.9	4	6.4	4	-1E+10	1	-1E+10	1	-1E+10	1	-1E+10	1	-1E+10	1	-1E+10	1
4902663	16	C	01/11/2024	05:52	-128.773	48.199	0	1437.80	0	2.6410	0	34.5030	0	27.529	0	1420.805	0	22.1	4	6.8	4	-1E+10	1	-1E+10	1	-1E+10	1	-1E+10	1	-1E+10	1	-1E+10	1
4902663	16	C	01/11/2024	05:52	-128.773	48.199	0	1463.00	0	2.5940	0	34.5060	0	27.535	0	1445.621	0	23.2	4	7.1	4	-1E+10	1	-1E+10	1	-1E+10	1	-1E+10	1	-1E+10	1	-1E+10	1
4902663	16	C	01/11/2024	05:52	-128.773	48.199	0	1488.00	0	2.5500	0	34.5110	0	27.543	0	1470.237	0	24.5	4	7.5	4	-1E+10	1	-1E+10	1	-1E+10	1	-1E+10	1	-1E+10	1	-1E+10	1
4902663	16	C	01/11/2024	05:52	-128.773	48.199	0	1512.80	0	2.5230	0	34.5160	0	27.550	0	1494.653	0	25.7	4	7.8	4	-1E+10	1	-1E+10	1	-1E+10	1	-1E+10	1	-1E+10	1	-1E+10	1
4902663	16	C	01/11/2024	05:52	-128.773	48.199	0	1537.60	0	2.4810	0	34.5210	0	27.557	0	1519.067	0	27.2	4	8.3	4	-1E+10	1	-1E+10	1	-1E+10	1	-1E+10	1	-1E+10	1	-1E+10	1
4902663	16	C	01/11/2024	05:52	-128.773	48.199	0	1562.80	0	2.4280	0	34.5260	0	27.566	0	1543.871	0	28.8	4	8.8	4	-1E+10	1	-1E+10	1	-1E+10	1	-1E+10	1	-1E+10	1	-1E+10	1
4902663	16	C	01/11/2024	05:52	-128.773	48.199	0	1587.90	0	2.3740	0	34.5310	0	27.574	0	1568.574	0	30.4	4	9.2	4	-1E+10	1	-1E+10	1	-1E+10	1	-1E+10	1	-1E+10	1	-1E+10	1
4902663	16	C	01/11/2024	05:52	-128.773	48.199	0	1613.10	0	2.3260	0	34.5360	0	27.583	0	1593.373	0	32.2	4	9.8	4	-1E+10	1	-1E+10	1	-1E+10	1	-1E+10	1	-1E+10	1	-1E+10	1
4902663	16	C	01/11/2024	05:52	-128.773	48.199	0	1638.00	0	2.2770	0	34.5410	0	27.591	0	1617.873	0	34.0	4	10.3	4	-1E+10	1	-1E+10	1	-1E+10	1	-1E+10	1	-1E+10	1	-1E+10	1
4902663	16	C	01/11/2024	05:52	-128.773	48.199	0	1662.60	0	2.2430	0	34.5450	0	27.597	0	1642.076	0	35.3	4	10.7	4	-1E+10	1	-1E+10	1	-1E+10	1	-1E+10	1	-1E+10	1	-1E+10	1
4902663	16	C	01/11/2024	05:52	-128.773	48.199	0	1687.80	0	2.2100	0	34.5490	0	27.603	0	1666.866	0	36.9	4	11.2	4	-1E+10	1	-1E+10	1	-1E+10	1	-1E+10	1	-1E+10	1	-1E+10	1
4902663	16	C	01/11/2024	05:52	-128.773	48.199	0	1712.70	0	2.1830	0	34.5540	0	27.609	0	1691.357	0	38.2	4	11.6	4	-1E+10	1	-1E+10	1	-1E+10	1	-1E+10	1	-1E+10	1	-1E+10	1
4902663	16	C	01/11/2024	05:52	-128.773	48.199	0	1737.30	0	2.1590	0	34.5570	0	27.613	0	1715.552	0	39.6	4	12.0	4	-1E+10	1	-1E+10	1	-1E+10	1	-1E+10	1	-1E+10	1	-1E+10	1
4902663	16	C	01/11/2024	05:52	-128.773	48.199	0	1763.50	0	2.1300	0	34.5610	0	27.619	0	1741.316	0	41.3	4	12.5	4	-1E+10	1	-1E+10	1	-1E+10	1	-1E+10	1	-1E+10	1	-1E+10	1
4902663	16	C	01/11/2024	05:52	-128.773	48.199	0	1788.00	0	2.1030	0	34.5660	0	27.625	0	1765.406	0	42.9	4	13.0	4	-1E+10	1	-1E+10	1	-1E+10	1	-1E+10	1	-1E+10	1	-1E+10	1
4902663	16	C	01/11/2024	05:52	-128.773	48.199	0	1812.70	0	2.0830	0	34.5690	0	27.629	0	1789.690	0	44.1	4	13.3	4	-1E+10	1	-1E+10	1	-1E+10	1	-1E+10	1	-1E+10	1	-1E+10	1
4902663	16	C	01/11/2024	05:52	-128.773	48.199	0	1837.80	0	2.0640	0	34.5710	0	27.633	0	1814.364	0	45.2	4	13.7	4	-1E+10	1	-1E+10	1	-1E+10	1	-1E+10	1	-1E+10	1	-1E+10	1
4902663	16	C	01/11/2024	05:52	-128.773	48.199	0	1862.80	0	2.0440	0	34.5750	0	27.638	0	1838.938	0	46.7	4	14.1	4	-1E+10	1	-1E+10	1	-1E+10	1	-1E+10	1	-1E+10	1	-1E+10	1
4902663	16	C	01/11/2024	05:52	-128.773	48.199	0	1887.70	0	2.0240	0	34.5790	0	27.643	0	1863.409	0	48.0	4	14.5	4	-1E+10	1	-1E+10	1	-1E+10	1	-1E+10	1	-1E+10	1	-1E+10	1
4902663	16	C	01/11/2024	05:52	-128.773	48.199	0	1912.90	0	2.0030	0	34.5820	0	27.647	0	1888.173	0	49.6	4	14.9	4	-1E+10	1	-1E+10	1	-1E+10	1	-1E+10	1	-1E+10	1	-1E+10	1
4902663	16	C	01/11/2024	05:52	-128.773	48.199	0	1937.70	0	1.9770	0	34.5870	0	27.653	0	1912.542	0	51.3	4	15.5	4	-1E+10	1	-1E+10	1	-1E+10	1	-1E+10	1	-1E+10	1	-1E+10	1
4902663	16	C	01/11/2024	05:52	-128.773	48.199	0	1962.70	0	1.9560	0	34.5910	0	27.658	0	1937.103	0	52.7	4	15.9	4	-1E+10	1	-1E+10	1	-1E+10	1	-1E+10	1	-1E+10	1	-1E+10	1
4902663	16	C	01/11/2024	05:52	-128.773	48.199	0	1989.00	0	1.9410	0	34.5940	0	27.661	0	1962.939	0	53.4	4	16.1	4	-1E+10	1	-1E+10	1	-1E+10	1	-1E+10	1	-1E+10	1	-1E+10	1
4902663	16	C	01/11/2024	05:52	-128.773	48.199	0	2000.50	0	1.9350	0	34.5950	0	27.663	0	1974.235	0	52.8	4	15.9	4	-1E+10	1	-1E+10	1	-1E+10	1	-1E+10	1	-1E+10	1	-1E+10	1
4902663	16	C	01/11/2024	05:52	-128.773	48.199	0																										
4902663	17	C	01/21/2024	01:15	-128.824	48.022	0	0.00	0	9.5580	0	32.2840	0	24.904	0	0.000	0	263.3	4	93.1	4	-1E+10	1	-1E+10	1	-1E+10	1	-1E+10	1	-1E+10	1	-1E+10	1
4902663	17	C	01/21/2024	01:15	-128.824	48.022	0	0.10	0	9.5560	0	32.2860	0	24.906	0	0.099	0	263.2	4	93.1	4	-1E+10	1	-1E+10	1	-1E+10	1	-1E+10	1	-1E+10	1	-1E+10	1
4902663	17	C	01/21/2024	01:15	-128.824	48.022	0	0.70	0	9.5570	0	32.2850	0	24.905	0	0.694	0	263.2	4	93.1	4	-1E+10	1	-1E+10	1	-1E+10	1	-1E+10	1	-1E+10	1	-1E+10	1
4902663	17	C	01/21/2024	01:15	-128.824	48.022	0	2.00	0	9.5590	0	32.2850	0	24.905	0	1.983	0	263.1	4	93.1	4	-1E+10	1	-1E+10	1	-1E+10	1	-1E+10	1	-1E+10	1	-1E+10	1
4902663	17	C	01/21/2024	01:15	-128.824	48.022	0	3.10	0	9.5600	0	32.2860	0	24.906	0	3.074	0	263.0	4	93.0	4	-1E+10	1	-1E+10	1	-1E+10	1	-1E+10	1	-1E+10	1	-1E+10	1
4902663	17	C	01/21/2024	01:15	-128.824	48.022	0	3.80	0	9.5610	0	32.2850	0	24.905	0	3.768	0	263.0	4	93.0	4	-1E+10	1	-1E+10	1	-1E+10	1	-1E+10	1	-1E+10	1	-1E+10	1
4902663	17	C	01/21/2024	01:15	-128.824	48.022	0	4.70	0	9.5610	0	32.2850	0	24.905	0	4.660	0	262.9	4	93.0	4	-1E+10	1	-1E+10	1	-1E+10	1	-1E+10	1	-1E+10	1	-1E+10	1
4902663	17	C	01/21/2024	01:15	-128.824	48.022	0	5.90	0	9.5620	0	32.2850	0	24.905	0	5.850	0	262.8	4	93.0	4	-1E+10	1	-1E+10	1	-1E+10	1	-1E+10	1	-1E+10	1	-1E+10	1
4902663	17	C	01/21/2024	01:15	-128.824	48.022	0	7.10	0	9.5620	0	32.2850	0	24.905	0	7.040	0	262.9	4	93.0	4	-1E+10	1	-1E+10	1	-1E+10	1	-1E+10	1	-1E+10	1	-1E+10	1
4902663	17	C	01/21/2024	01:15	-128.824	48.022	0	8.00	0	9.5640	0	32.2850	0	24.904	0	7.933	0	262.7	4	92.9	4	-1E+10	1	-1E+10	1	-1E+10	1	-1E+10	1	-1E+10	1	-1E+10	1
4902663	17	C	01/21/2024	01:15	-128.824	48.022	0	8.90	0	9.5640	0	32.2850	0	24.904	0	8.825	0	262.7	4	92.9	4	-1E+10	1	-1E+10	1	-1E+10	1	-1E+10	1	-1E+10	1	-1E+10	1
4902663	17	C	01/21/2024	01:15	-128.824	48.022	0	9.90	0	9.5630	0	32.2850	0	24.904	0	9.817	0	262.7	4	92.9	4	-1E+10	1	-1E+10	1	-1E+10	1	-1E+10	1	-1E+10	1	-1E+10	1
4902663	17	C	01/21/2024	01:15	-128.824	48.022	0	10.80	0	9.5590	0	32.2860	0	24.906	0	10.709	0	262.7	4	92.9	4	-1E+10	1	-1E+10	1	-1E+10	1	-1E+10	1	-1E+10	1	-1E+10	1
4902663	17	C	01/21/2024	01:15	-128.824	48.022	0	11.70	0	9.5530	0	32.2860	0	24.907	0	11.601	0	262.6	4	92.9	4	-1E+10	1	-1E+10	1	-1E+10	1	-1E+10	1	-1E+10	1	-1E+10	1
4902663	17	C	01/21/2024	01:15	-128.824	48.022	0	12.70	0	9.5480	0	32.2870	0	24.908	0	12.593	0	262.7	4	92.9	4	-1E+10	1	-1E+10	1	-1E+10	1	-1E+10	1	-1E+10	1	-1E+10	1
4902663	17	C	01/21/2024	01:15	-128.824	48.022	0	13.60	0	9.5480	0	32.2850	0	24.907	0	13.485	0	262.6	4	92.9	4	-1E+10	1	-1E+10	1	-1E+10	1	-1E+10	1	-1E+10	1	-1E+10	1
4902663	17	C	01/21/2024	01:15	-128.824	48.022	0	14.70	0	9.5460	0	32.2840	0	24.906	0	14.576	0	262.6	4	92.9	4	-1E+10	1	-1E+10	1	-1E+10	1	-1E+10	1	-1E+10	1	-1E+10	1
4902663	17	C	01/21/2024	01:15	-128.824	48.022	0	15.70	0	9.5400	0	32.2850	0	24.908	0	15.568	0	262.7	4	92.9	4	-1E+10	1	-1E+10	1	-1E+10	1	-1E+10	1	-1E+10	1	-1E+10	1
4902663	17	C	01/21/2024	01:15	-128.824	48.022	0	16.60	0	9.5360	0	32.2850	0	24.909	0	16.460	0	262.5	4	92.8	4	-1E+10	1	-1E+10	1	-1E+10	1	-1E+10	1	-1E+10	1	-1E+10	1
4902663	17	C	01/21/2024	01:15	-128.824	48.022	0	17.60	0	9.5350	0	32.2840	0	24.908	0	17.452	0	262.2	4	92.7	4	-1E+10	1	-1E+10	1	-1E+10	1	-1E+10	1	-1E+10	1	-1E+10	1
4902663	17	C	01/21/2024	01:15	-128.824	48.022	0	19.00	0	9.5260	0	32.2840	0	24.910	0	18.840	0	262.5	4	92.8	4	-1E+10	1	-1E+10	1	-1E+10	1	-1E+10	1	-1E+10	1	-1E+10	1
4902663	17	C	01/21/2024	01:15	-128.824	48.022	0	20.10	0	9.5200	0	32.2850	0	24.912	0	19.930	0	262.5	4	92.8	4	-1E+10	1	-1E+10	1	-1E+10	1	-1E+10	1	-1E+10	1	-1E+10	1
4902663	17	C	01/21/2024	01:15	-128.824	48.022	0	20.90	0	9.5180	0	32.2830	0	24.910	0	20.724	0	262.4	4	92.7	4	-1E+10	1	-1E+10	1	-1E+10	1	-1E+10	1	-1E+10	1	-1E+10	1
4902663	17	C	01/21/2024	01:15	-128.824	48.022	0	21.70	0	9.5110	0	32.2850	0	24.913	0	21.517	0	262.4	4	92.7	4	-1E+10	1	-1E+10	1	-1E+10	1	-1E+10	1	-1E+10	1	-1E+10	1
4902663	17	C	01/21/2024	01:15	-128.824	48.022	0	22.80	0	9.5090	0	32.2840	0	24.913	0	22.607	0	262.4	4	92.7	4	-1E+10	1	-1E+10	1	-1E+10	1	-1E+10	1	-1E+10	1	-1E+10	1
4902663	17	C	01/21/2024	01:15	-128.824	48.022	0	24.00	0	9.4930	0	32.2850	0	24.916	0	23.797	0	262.4	4	92.7	4	-1E+10	1	-1E+10	1	-1E+10	1	-1E+10	1	-1E+10	1	-1E+10	1
4902663	17	C	01/21/2024	01:15	-128.824	48.022	0	24.80	0	9.4870	0	32.2850	0	24.917	0	24.590	0	262.3	4	92.6	4	-1E+10	1	-1E+10	1	-1E+10	1	-1E+10	1	-1E+10	1	-1E+10	1
4902663	17	C	01/21/2024	01:15	-128.824	48.022	0	26.00	0	9.4730	0	32.2860	0	24.920	0	25.780	0	262.3	4	92.6	4	-1E+10	1	-1E+10	1	-1E+10	1	-1E+10	1	-1E+10	1	-1E+10	1
4902663	17	C	01/21/2024	01:15	-128.824	48.022	0	27.20	0	9.4690	0	32.2860	0	24.921	0	26.970	0	262.2	4	92.6	4	-1E+10	1	-1E+10	1	-1E+10	1	-1E+10	1	-1E+10	1	-1E+10	1
4902663	17	C	01/21/2024	01:15	-128.824	48.022	0	28.00	0	9.4580	0	32.2890	0	24.925	0	27.763	0	262.2	4	92.5	4	-1E+10	1	-1E+10	1	-1E+10	1	-1E+10	1	-1E+10	1	-1E+10	1
4902663	17	C	01/21/2024	01:15	-128.824	48.022	0	28.80	0	9.4560	0	32.2870	0	24.923	0	28.556	0	262.0	4	92.5	4	-1E+10	1	-1E+10	1	-1E+10	1	-1E+10	1	-1E+10	1	-1E+10	1
4902663	17	C	01/21/2024	01:15	-128.824	48.022	0	30.00	0	9.4510	0	32.2870	0	24.924	0	29.746	0	261.9	4	92.4	4	-1E+10	1	-1E+10	1	-1E+10	1	-1E+10	1	-1E+10	1	-1E+10	1
4902663	17	C	01/21/2024	01:15	-128.824	48.022	0	31.20	0	9.4460	0	32.2880	0	24.926	0	30.936	0	261.8	4	92.4	4	-1E+10	1	-1E+10	1	-1E+10	1	-1E+10	1	-1E+10	1	-1E+10	1
4902663	17	C	01/21/2024	01:15	-128.824	48.022	0	32.00	0	9.4410	0	32.2880	0	24.927	0	31.729	0	261.7	4	92.3	4	-1E+10	1	-1E+10	1	-1E+10	1	-1E+10	1	-1E+10	1	-1E+10	1
4902663	17	C	01/21/2024	01:15	-128.824	48.022	0	32.90	0	9.4410	0	32.2880	0	24.927	0	32.621	0	261.6	4	92.3	4	-1E+10	1	-1E+10	1	-1E+10	1	-1E+10	1	-1E+10	1	-1E+10	1
4902663	17	C	01/21/2024	01:15	-128.824	48.022	0	33.70	0	9.4380	0	32.2880	0	24.927	0	33.414	0	261.4	4	92.2	4	-1E+10	1	-1E+10	1	-1E+10	1	-1E+10	1	-1E+10	1	-1E+10	1
4902663	17	C	01/21/2024	01:15	-128.824	48.022	0	34.90	0	9.4200	0	32.2900	0	24.932	0	34.604	0	261.2	4	92.1	4	-1E+10	1	-1E+10	1	-1E+10	1	-1E+10	1	-1E+10	1	-1E+10	1
4902663	17	C	01/21/2024	01:15	-128.824	48.022	0	36.20	0	9.4070	0	32.2920	0	24.935	0	35.893	0	261.1	4	92.1	4	-1E+10	1	-1E+10	1	-1E+10	1	-1E+10	1	-1E+10	1	-1E+10	1
4902663	17	C	01/21/2024	01:15	-128.824	48.022	0	37.00	0	9.4030	0	32.2920	0	24.936	0	36.686	0	260.9	4	92.0	4	-1E+10	1	-1E+10	1	-1E+10	1	-1E+10	1	-1E+10	1	-1E+10	1
4902663	17	C	01/21/2024	01:15	-128.824	48.022	0	37.80	0	9.3970	0	32.2920	0	24.937	0	37.479	0	260.9	4	92.0	4	-1E+10	1	-1E+10	1	-1E+10	1	-1E+10	1	-1E+10	1	-1E+10	1
4902663	17	C	01/21/2024	01:15	-128.824	48.022	0	39.00	0	9.3820	0	32.2950	0	24.942	0	38.669	0	260.7	4	91.9	4	-1E+10	1	-1E+10	1	-1E+10	1	-1E+10	1	-1E+10	1	-1E+10	1
4902663	17	C	01/21/2024	01:15	-128.824	48.022	0	40.20	0	9.3650	0	32.2970	0	24.946	0	39.859	0	260.6	4	91.8	4	-1E+10	1	-1E+10	1	-1E+10	1	-1E+10	1	-1E+10	1	-1E+10	1
4902663	17	C	01/21/2024	01:15	-128.824	48.022	0	41.10	0	9.3540	0	32.2980	0	24.948	0	40.751	0	260.5	4	91.8	4	-1E+10	1	-1E+10	1	-1E+10	1	-1E+10	1	-1E+10	1	-1E+10	1
4902663	17	C	01/21/2024	01:15	-128.824	48.022	0	41.90	0	9.3420	0	32.2990	0	24.951	0	41.544	0	260.5	4	91.7	4	-1E+10	1	-1E+10	1	-1E+10	1	-1E+10	1	-1E+10	1	-1E+10	1
4902663	17	C	01/21/2024	01:15	-128.824	48.022	0	42.70	0	9.3030	0	32.3070	0	24.964	0	42.337	0	260.4	4	91.6	4	-1E+10	1	-1E+10	1	-1E+10	1	-1E+10	1	-1E+10	1	-1E+10	1
4902663	17	C	01/21/2024	01:15	-128.824	48.022	0	43.90	0	9.2320	0	32.3160	0	24.982	0	43.527	0	260.5	4	91.5	4	-1E+10	1	-1E+10	1	-1E+10	1	-1E+10	1	-1E+10	1	-1E+10	1
4902663	17	C	01/21/2024	01:15	-128.824	48.022	0	45.20	0	9.2150	0	32.3180	0	24.986	0	44.816	0	260.5	4	91.5	4	-1E+10	1	-1E+10	1	-1E+10	1	-1E+10	1	-1E+10	1	-1E+10	1
4902663	17	C	01/21/2024	01:15	-128.824	48.022	0	46.10	0	9.2010	0	32.3180	0	24.988	0	45.708	0	260.4	4	91.4	4	-1E+10	1	-1E+10	1	-1E+10	1	-1E+10	1	-1E+10	1	-1E+10	1
4902663	17	C	01/21/2024	01:15	-128.824	48.022	0	46.90	0	9.1980	0	32.3170	0	24.988	0	46.501	0	260.4	4	91.4	4	-1E+10	1	-1E+10	1	-1E+10	1	-1E+10	1	-1E+10	1	-1E+10	1
4902663	17	C	01/21/2024	01:15	-128.824	48.022	0	47.70	0	9.1930	0	32.3180	0	24.990	0	47.294	0	260.3	4	91.4	4	-1E+10	1	-1E+10	1	-1E+10	1	-1E+10	1	-1E+10	1	-1E+10	1
4902663	17	C	01/21/2024	01:15	-128.824	48.022	0	48.60	0	9.1910	0	32.3160	0	24.988	0	48.186	0	260.2	4	91.3	4	-1E+10	1	-1E+10	1	-1E+10	1	-1E+10	1	-1E+10	1	-1E+10	1
4902663	17	C	01/21/2024	01:15	-128.824	48.022	0	49.90	0	9.1600	0	32.3170	0	24.994	0	49.475	0	260.0	4	91.2	4	-1E+10	1	-1E+10	1	-1E+10	1	-1E+10	1	-1E+10	1	-1E+10	1
4902663	17	C	01/21/2024	01:15	-128.824	48.022	0	51.20	0	9.1380	0	32.3200	0	25.000	0	50.764	0	259.7	4	91.1	4	-1E+10	1	-1E+10	1	-1E+10	1	-1E+10	1	-1E+10	1	-1E+10	1
4902663	17	C	01/21/2024	01:15	-128.824	48.022	0	52.10	0	9.1280	0	32.3190	0	25.001	0	51.656	0	259.5	4	91.0	4	-1E+10	1	-1E+10	1	-1E+10	1	-1E+10	1	-1E+10	1	-1E+10	1
4902663	17	C	01/21/2024	01:15	-128.824	48.022	0	52.90	0	9.1260	0	32.3190	0	25.001	0	52.449	0	259.3	4	90.9	4	-1E+10	1	-1E+10	1	-1E+10	1	-1E+10	1	-1E+10	1	-1E+10	1
4902663	17	C	01/21/2024	01:15	-128.824	48.022	0	53.80	0	9.1090	0	32.3210	0	25.005	0	53.341	0	259.0	4	90.7	4	-1E+10	1	-1E+10	1	-1E+10	1	-1E+10	1	-1E+10	1	-1E+10	1
4902663	17	C	01/21/2024	01:15	-128.824	48.022	0	54.70	0	9.1000	0	32.3230	0	25.008	0	54.234	0	258.8	4	90.6	4	-1E+10	1	-1E+10	1	-1E+10	1	-1E+10	1	-1E+10	1	-1E+10	1
4902663	17	C	01/21/2024	01:15	-128.824	48.022	0	55.60	0	9.0920	0	32.3240	0	25.010	0	55.126	0	258.6	4	90.6	4	-1E+10	1	-1E+10	1	-1E+10	1	-1E+10	1	-1E+10	1	-1E+10	1
4902663	17	C	01/21/2024	01:15	-128.824	48.022	0	56.90	0	9.0870	0	32.3240	0	25.011	0	56.415	0	258.2	4	90.4	4	-1E+10	1	-1E+10	1	-1E+10	1	-1E+10	1	-1E+10	1	-1E+10	1
4902663	17	C	01/21/2024	01:15	-128.824	48.022	0	58.30	0	9.0820	0	32.3250	0	25.013	0	57.802	0	257.9	4	90.3	4	-1E+10	1	-1E+10	1	-1E+10	1	-1E+10	1	-1E+10	1	-1E+10	1
4902663	17	C	01/21/2024	01:15	-128.824	48.022	0	59.20	0	9.0810	0	32.3260	0	25.014	0	58.695	0	257.6	4	90.2	4	-1E+10	1	-1E+10	1	-1E+10	1	-1E+10	1	-1E+10	1	-1E+10	1
4902663	17	C	01/21/2024	01:15	-128.824	48.022	0	60.10	0	9.0810	0	32.3260	0	25.014	0	59.587	0	257.2	4	90.1	4	-1E+10	1	-1E+10	1	-1E+10	1	-1E+10	1	-1E+10	1	-1E+10	1
4902663	17	C	01/21/2024	01:15	-128.824	48.022	0	61.10	0	9.0810	0	32.3260	0	25.014	0	60.578	0	256.8	4	89.9	4	-1E+10	1	-1E+10	1	-1E+10	1	-1E+10	1	-1E+10	1	-1E+10	1
4902663	17	C	01/21/2024	01:15	-128.824	48.022	0	62.00	0	9.0800	0	32.3260	0	25.014	0	61.470	0	256.4	4	89.8	4	-1E+10	1	-1E+10	1	-1E+10	1	-1E+10	1	-1E+10	1	-1E+10	1
4902663	17	C	01/21/2024	01:15	-128.824	48.022	0	62.90	0	9.0800	0	32.3260	0	25.014	0	62.363	0	255.9	4	89.6	4	-1E+10	1	-1E+10	1	-1E+10	1	-1E+10	1	-1E+10	1	-1E+10	1
4902663	17	C	01/21/2024	01:15	-128.824	48.022	0	63.80	0	9.0790	0	32.3270	0	25.015	0	63.255	0	255.4	4	89.4	4	-1E+10	1	-1E+10	1	-1E+10	1	-1E+10	1	-1E+10	1	-1E+10	1
4902663	17	C	01/21/2024	01:15	-128.824	48.022	0	64.80	0	9.0790	0	32.3270	0	25.015	0	64.246	0	254.9	4	89.2	4	-1E+10	1	-1E+10	1	-1E+10	1	-1E+10	1	-1E+10	1	-1E+10	1
4902663	17	C	01/21/2024	01:15	-128.824	48.022	0	65.70	0	9.0760	0	32.3270	0	25.015	0	65.138	0	254.2	4	89.0	4	-1E+10	1	-1E+10	1	-1E+10	1	-1E+10	1	-1E+10	1	-1E+10	1
4902663	17	C	01/21/2024	01:15	-128.824	48.022	0	66.60	0	9.0750	0	32.3270	0	25.015	0	66.030	0	253.3	4	88.7	4	-1E+10	1	-1E+10	1	-1E+10	1	-1E+10	1	-1E+10	1	-1E+10	1
4902663	17	C	01/21/2024	01:15	-128.824	48.022	0	67.60	0	9.0710	0	32.3280	0	25.017	0	67.022	0	252.4	4	88.3	4	-1E+10	1	-1E+10	1	-1E+10	1	-1E+10	1	-1E+10	1	-1E+10	1
4902663	17	C	01/21/2024	01:15	-128.824	48.022	0	68.90	0	9.0700	0	32.3270	0	25.016	0	68.310	0	250.8	4	87.8	4	-1E+10	1	-1E+10	1	-1E+10	1	-1E+10	1	-1E+10	1	-1E+10	1
4902663	17	C	01/21/2024	01:15	-128.824	48.022	0	70.30	0	9.0710	0	32.3290	0	25.018	0	69.698	0	249.1	4	87.2	4	-1E+10	1	-1E+10	1	-1E+10	1	-1E+10	1	-1E+10	1	-1E+10	1
4902663	17	C	01/21/2024	01:15	-128.824	48.022	0	71.20	0	9.0660	0	32.3310	0	25.020	0	70.590	0	247.7	4	86.7	4	-1E+10	1	-1E+10	1	-1E+10	1	-1E+10	1	-1E+10	1	-1E+10	1
4902663	17	C	01/21/2024	01:15	-128.824	48.022	0	72.10	0	9.0640	0	32.3320	0	25.021	0	71.482	0	246.0	4	86.1	4	-1E+10	1	-1E+10	1	-1E+10	1	-1E+10	1	-1E+10	1	-1E+10	1
4902663	17	C	01/21/2024	01:15	-128.824	48.022	0	73.00	0	9.0610	0	32.3320	0	25.022	0	72.374	0	244.2	4	85.5	4	-1E+10	1	-1E+10	1	-1E+10	1	-1E+10	1	-1E+10	1	-1E+10	1
4902663	17	C	01/21/2024	01:15	-128.824	48.022	0	73.80	0	9.0540	0	32.3330	0	25.023	0	73.167	0	242.1	4	84.7	4	-1E+10	1	-1E+10	1	-1E+10	1	-1E+10	1	-1E+10	1	-1E+10	1
4902663	17	C	01/21/2024	01:15	-128.824	48.022	0	74.70	0	9.0510	0	32.3330	0	25.024	0	74.060	0	239.4	4	83.8	4	-1E+10	1	-1E+10	1	-1E+10	1	-1E+10	1	-1E+10	1	-1E+10	1
4902663	17	C	01/21/2024	01:15	-128.824	48.022	0	75.90	0	9.0340	0	32.3430	0	25.034	0	75.249	0	233.9	4	81.8	4	-1E+10	1	-1E+10	1	-1E+10	1	-1E+10	1	-1E+10	1	-1E+10	1
4902663	17	C	01/21/2024	01:15	-128.824	48.022	0	77.10	0	9.0160	0	32.3540	0	25.046	0	76.439	0	227.2	4	79.5	4	-1E+10	1	-1E+10	1	-1E+10	1	-1E+10	1	-1E+10	1	-1E+10	1
4902663	17	C	01/21/2024	01:15	-128.824	48.022	0	77.80	0	8.9970	0	32.3600	0	25.053	0	77.132	0	222.4	4	77.8	4	-1E+10	1	-1E+10	1	-1E+10	1	-1E+10	1	-1E+10	1	-1E+10	1
4902663	17	C	01/21/2024	01:15	-128.824	48.022	0	78.80	0	8.9130	0	32.4100	0	25.106	0	78.124	0	214.6	4	74.9	4	-1E+10	1	-1E+10	1	-1E+10	1	-1E+10	1	-1E+10	1	-1E+10	1
4902663	17	C	01/21/2024	01:15	-128.824	48.022	0	79.90	0	8.7950	0	32.4860	0	25.183	0	79.214	0	205.6	4	71.6	4	-1E+10	1	-1E+10	1	-1E+10	1	-1E+10	1	-1E+10	1	-1E+10	1
4902663	17	C	01/21/2024	01:15	-128.824	48.022	0	81.00	0	8.6740	0	32.5560	0	25.256	0	80.304	0	197.0	4	68.5	4	-1E+10	1	-1E+10	1	-1E+10	1	-1E+10	1	-1E+10	1	-1E+10	1
4902663	17	C	01/21/2024	01:15	-128.824	48.022	0	81.90	0	8.5380	0	32.6380	0	25.341	0	81.196	0	190.3	4	66.0	4	-1E+10	1	-1E+10	1	-1E+10	1	-1E+10	1	-1E+10	1	-1E+10	1
4902663	17	C	01/21/2024	01:15	-128.824	48.022	0	82.80	0	8.3600	0	32.7600	0	25.464	0	82.089	0	184.9	4	63.9	4	-1E+10	1	-1E+10	1	-1E+10	1	-1E+10	1	-1E+10	1	-1E+10	1
4902663	17	C	01/21/2024	01:15	-128.824	48.022	0	84.00	0	8.2830	0	32.8080	0	25.513	0	83.278	0	183.3	4	63.3	4	-1E+10	1	-1E+10	1	-1E+10	1	-1E+10	1	-1E+10	1	-1E+10	1
4902663	17	C	01/21/2024	01:15	-128.824	48.022	0	85.00	0	8.2490	0	32.8250	0	25.531	0	84.269	0	177.7	4	61.3	4	-1E+10	1	-1E+10	1	-1E+10	1	-1E+10	1	-1E+10	1	-1E+10	1
4902663	17	C	01/21/2024	01:15	-128.824	48.022	0	85.80	0	8.1540	0	32.8890	0	25.595	0	85.062	0	174.4	4	60.1	4	-1E+10	1	-1E+10	1	-1E+10	1	-1E+10	1	-1E+10	1	-1E+10	1
4902663	17	C	01/21/2024	01:15	-128.824	48.022	0	87.00	0	7.9610	0	33.0290	0	25.733	0	86.252	0	170.7	4	58.6	4	-1E+10	1	-1E+10	1	-1E+10	1	-1E+10	1	-1E+10	1	-1E+10	1
4902663	17	C	01/21/2024	01:15	-128.824	48.022	0	88.30	0	7.8950	0	33.0810	0	25.784	0	87.540	0	168.3	4	57.7	4	-1E+10	1	-1E+10	1	-1E+10	1	-1E+10	1	-1E+10	1	-1E+10	1
4902663	17	C	01/21/2024	01:15	-128.824	48.022	0	89.10	0	7.8770	0	33.1010	0	25.802	0	88.333	0	166.7	4	57.2	4	-1E+10	1	-1E+10	1	-1E+10	1	-1E+10	1	-1E+10	1	-1E+10	1
4902663	17	C	01/21/2024	01:15	-128.824	48.022	0	90.00	0	7.8590	0	33.1250	0	25.823	0	89.225	0	165.2	4	56.6	4	-1E+10	1	-1E+10	1	-1E+10	1	-1E+10	1	-1E+10	1	-1E+10	1
4902663	17	C	01/21/2024	01:15	-128.824	48.022	0	90.90	0	7.8500	0	33.1410	0	25.837	0	90.117	0	163.6	4	56.1	4	-1E+10	1	-1E+10	1	-1E+10	1	-1E+10	1	-1E+10	1	-1E+10	1
4902663	17	C	01/21/2024	01:15	-128.824	48.022	0	91.90	0	7.8360	0	33.1670	0	25.860	0	91.108	0	162.3	4	55.6	4	-1E+10	1	-1E+10	1	-1E+10	1	-1E+10	1	-1E+10	1	-1E+10	1
4902663	17	C	01/21/2024	01:15	-128.824	48.022	0	92.80	0	7.8170	0	33.2000	0	25.888	0	92.000	0	161.2	4	55.2	4	-1E+10	1	-1E+10	1	-1E+10	1	-1E+10	1	-1E+10	1	-1E+10	1
4902663	17	C	01/21/2024	01:15	-128.824	48.022	0	93.80	0	7.8100	0	33.2140	0	25.900	0	92.992	0	160.1	4	54.8	4	-1E+10	1	-1E+10	1	-1E+10	1	-1E+10	1	-1E+10	1	-1E+10	1
4902663	17	C	01/21/2024	01:15	-128.824	48.022	0	94.70	0	7.8060	0	33.2220	0	25.907	0	93.884	0	158.9	4	54.4	4	-1E+10	1	-1E+10	1	-1E+10	1	-1E+10	1	-1E+10	1	-1E+10	1
4902663	17	C	01/21/2024	01:15	-128.824	48.022	0	95.70	0	7.7880	0	33.2690	0	25.947	0	94.875	0	158.1	4	54.1	4	-1E+10	1	-1E+10	1	-1E+10	1	-1E+10	1	-1E+10	1	-1E+10	1
4902663	17	C	01/21/2024	01:15	-128.824	48.022	0	96.90	0	7.7900	0	33.2810	0	25.956	0	96.064	0	157.3	4	53.9	4	-1E+10	1	-1E+10	1	-1E+10	1	-1E+10	1	-1E+10	1	-1E+10	1
4902663	17	C	01/21/2024	01:15	-128.824	48.022	0	97.70	0	7.7930	0	33.2880	0	25.961	0	96.857	0	156.6	4	53.7	4	-1E+10	1	-1E+10	1	-1E+10	1	-1E+10	1	-1E+10	1	-1E+10	1
4902663	17	C	01/21/2024	01:15	-128.824	48.022	0	98.60	0	7.7940	0	33.2900	0	25.963	0	97.749	0	155.8	4	53.4	4	-1E+10	1	-1E+10	1	-1E+10	1	-1E+10	1	-1E+10	1	-1E+10	1
4902663	17	C	01/21/2024	01:15	-128.824	48.022	0	99.50	0	7.7910	0	33.2920	0	25.965	0	98.641	0	154.9	4	53.1	4	-1E+10	1	-1E+10	1	-1E+10	1	-1E+10	1	-1E+10	1	-1E+10	1
4902663	17	C	01/21/2024	01:15	-128.824	48.022	0	100.90	0	7.7720	0	33.3010	0	25.974	0	100.029	0	153.5	4	52.6	4	-1E+10	1	-1E+10	1	-1E+10	1	-1E+10	1	-1E+10	1	-1E+10	1
4902663	17	C	01/21/2024	01:15	-128.824	48.022	0	102.40	0	7.7520	0	33.3110	0	25.985	0	101.515	0	152.2	4	52.1	4	-1E+10	1	-1E+10	1	-1E+10	1	-1E+10	1	-1E+10	1	-1E+10	1
4902663	17	C	01/21/2024	01:15	-128.824	48.022	0	103.30	0	7.7410	0	33.3200	0	25.994	0	102.407	0	151.2	4	51.8	4	-1E+10	1	-1E+10	1	-1E+10	1	-1E+10	1	-1E+10	1	-1E+10	1
4902663	17	C	01/21/2024	01:15	-128.824	48.022	0	104.30	0	7.7280	0	33.3400	0	26.011	0	103.398	0	150.3	4	51.4	4	-1E+10	1	-1E+10	1	-1E+10	1	-1E+10	1	-1E+10	1	-1E+10	1
4902663	17	C	01/21/2024	01:15	-128.824	48.022	0	105.20	0	7.7170	0	33.3540	0	26.024	0	104.290	0	149.6	4	51.2	4	-1E+10	1	-1E+10	1	-1E+10	1	-1E+10	1	-1E+10	1	-1E+10	1
4902663	17	C	01/21/2024	01:15	-128.824	48.022	0	106.20	0	7.7050	0	33.3720	0	26.040	0	105.282	0	149.0	4	51.0	4	-1E+10	1	-1E+10	1	-1E+10	1	-1E+10	1	-1E+10	1	-1E+10	1
4902663	17	C	01/21/2024	01:15	-128.824	48.022	0	107.10	0	7.6940	0	33.3840	0	26.051	0	106.173	0	148.4	4	50.8	4	-1E+10	1	-1E+10	1	-1E+10	1	-1E+10	1	-1E+10	1	-1E+10	1
4902663	17	C	01/21/2024	01:15	-128.824	48.022	0	108.00	0	7.6950	0	33.3860	0	26.052	0	107.065	0	147.6	4	50.5	4	-1E+10	1	-1E+10	1	-1E+10	1	-1E+10	1	-1E+10	1	-1E+10	1
4902663	17	C	01/21/2024	01:15	-128.824	48.022	0	108.90	0	7.6940	0	33.3960	0	26.060	0	107.957	0	146.7	4	50.2	4	-1E+10	1	-1E+10	1	-1E+10	1	-1E+10	1	-1E+10	1	-1E+10	1
4902663	17	C	01/21/2024	01:15	-128.824	48.022	0	109.90	0	7.6950	0	33.4060	0	26.068	0	108.949	0	145.7	4	49.8	4	-1E+10	1	-1E+10	1	-1E+10	1	-1E+10	1	-1E+10	1	-1E+10	1
4902663	17	C	01/21/2024	01:15	-128.824	48.022	0	111.10	0	7.7280	0	33.4330	0	26.085	0	110.138	0	143.8	4	49.3	4	-1E+10	1	-1E+10	1	-1E+10	1	-1E+10	1	-1E+10	1	-1E+10	1
4902663	17	C	01/21/2024	01:15	-128.824	48.022	0	112.10	0	7.7700	0	33.4520	0	26.093	0	111.129	0	142.1	4	48.7	4	-1E+10	1	-1E+10	1	-1E+10	1	-1E+10	1	-1E+10	1	-1E+10	1
4902663	17	C	01/21/2024	01:15	-128.824	48.022	0	112.80	0	7.7990	0	33.4790	0	26.111	0	111.823	0	140.9	4	48.4	4	-1E+10	1	-1E+10	1	-1E+10	1	-1E+10	1	-1E+10	1	-1E+10	1
4902663	17	C	01/21/2024	01:15	-128.824	48.022	0	113.80	0	7.8000	0	33.4950	0	26.123	0	112.814	0	139.4	4	47.9	4	-1E+10	1	-1E+10	1	-1E+10	1	-1E+10	1	-1E+10	1	-1E+10	1
4902663	17	C	01/21/2024	01:15	-128.824	48.022	0	114.90	0	7.8010	0	33.5020	0	26.128	0	113.904	0	137.9	4	47.3	4	-1E+10	1	-1E+10	1	-1E+10	1	-1E+10	1	-1E+10	1	-1E+10	1
4902663	17	C	01/21/2024	01:15	-128.824	48.022	0	115.90	0	7.7960	0	33.5110	0	26.136	0	114.895	0	136.0	4	46.7	4	-1E+10	1	-1E+10	1	-1E+10	1	-1E+10	1	-1E+10	1	-1E+10	1
4902663	17	C	01/21/2024	01:15	-128.824	48.022	0	117.10	0	7.7940	0	33.5230	0	26.146	0	116.084	0	134.0	4	46.0	4	-1E+10	1	-1E+10	1	-1E+10	1	-1E+10	1	-1E+10	1	-1E+10	1
4902663	17	C	01/21/2024	01:15	-128.824	48.022	0	117.80	0	7.7910	0	33.5310	0	26.153	0	116.778	0	132.5	4	45.5	4	-1E+10	1	-1E+10	1	-1E+10	1	-1E+10	1	-1E+10	1	-1E+10	1
4902663	17	C	01/21/2024	01:15	-128.824	48.022	0	119.00	0	7.7910	0	33.5660	0	26.180	0	117.967	0	130.4	4	44.8	4	-1E+10	1	-1E+10	1	-1E+10	1	-1E+10	1	-1E+10	1	-1E+10	1
4902663	17	C	01/21/2024	01:15	-128.824	48.022	0	120.20	0	7.8140	0	33.6030	0	26.206	0	119.156	0	128.8	4	44.3	4	-1E+10	1	-1E+10	1	-1E+10	1	-1E+10	1	-1E+10	1	-1E+10	1
4902663	17	C	01/21/2024	01:15	-128.824	48.022	0	121.00	0	7.8260	0	33.6550	0	26.245	0	119.949	0	128.2	4	44.1	4	-1E+10	1	-1E+10	1	-1E+10	1	-1E+10	1	-1E+10	1	-1E+10	1
4902663	17	C	01/21/2024	01:15	-128.824	48.022	0	121.90	0	7.8160	0	33.6620	0	26.252	0	120.841	0	128.0	4	44.0	4	-1E+10	1	-1E+10	1	-1E+10	1	-1E+10	1	-1E+10	1	-1E+10	1
4902663	17	C	01/21/2024	01:15	-128.824	48.022	0	122.80	0	7.8080	0	33.6630	0	26.254	0	121.733	0	127.7	4	43.9	4	-1E+10	1	-1E+10	1	-1E+10	1	-1E+10	1	-1E+10	1	-1E+10	1
4902663	17	C	01/21/2024	01:15	-128.824	48.022	0	123.70	0	7.8040	0	33.6630	0	26.255	0	122.625	0	127.3	4	43.8	4	-1E+10	1	-1E+10	1	-1E+10	1	-1E+10	1	-1E+10	1	-1E+10	1
4902663	17	C	01/21/2024	01:15	-128.824	48.022	0	125.00	0	7.7940	0	33.6790	0	26.269	0	123.913	0	126.8	4	43.6	4	-1E+10	1	-1E+10	1	-1E+10	1	-1E+10	1	-1E+10	1	-1E+10	1
4902663	17	C	01/21/2024	01:15	-128.824	48.022	0	126.30	0	7.7930	0	33.6850	0	26.273	0	125.202	0	126.5	4	43.5	4	-1E+10	1	-1E+10	1	-1E+10	1	-1E+10	1	-1E+10	1	-1E+10	1
4902663	17	C	01/21/2024	01:15	-128.824	48.022	0	127.20	0	7.7710	0	33.7050	0	26.292	0	126.093	0	126.4	4	43.4	4	-1E+10	1	-1E+10	1	-1E+10	1	-1E+10	1	-1E+10	1	-1E+10	1
4902663	17	C	01/21/2024	01:15	-128.824	48.022	0	128.10	0	7.7720	0	33.7130	0	26.298	0	126.985	0	126.4	4	43.4	4	-1E+10	1	-1E+10	1	-1E+10	1	-1E+10	1	-1E+10	1	-1E+10	1
4902663	17	C	01/21/2024	01:15	-128.824	48.022	0	129.00	0	7.7240	0	33.7330	0	26.321	0	127.877	0	126.5	4	43.4	4	-1E+10	1	-1E+10	1	-1E+10	1	-1E+10	1	-1E+10	1	-1E+10	1
4902663	17	C	01/21/2024	01:15	-128.824	48.022	0	130.00	0	7.7060	0	33.7360	0	26.326	0	128.868	0	126.4	4	43.4	4	-1E+10	1	-1E+10	1	-1E+10	1	-1E+10	1	-1E+10	1	-1E+10	1
4902663	17	C	01/21/2024	01:15	-128.824	48.022	0	130.90	0	7.7040	0	33.7360	0	26.326	0	129.760	0	126.2	4	43.3	4	-1E+10	1	-1E+10	1	-1E+10	1	-1E+10	1	-1E+10	1	-1E+10	1
4902663	17	C	01/21/2024	01:15	-128.824	48.022	0	131.90	0	7.7040	0	33.7360	0	26.326	0	130.751	0	126.1	4	43.2	4	-1E+10	1	-1E+10	1	-1E+10	1	-1E+10	1	-1E+10	1	-1E+10	1
4902663	17	C	01/21/2024	01:15	-128.824	48.022	0	132.80	0	7.7000	0	33.7370	0	26.328	0	131.643	0	125.8	4	43.1	4	-1E+10	1	-1E+10	1	-1E+10	1	-1E+10	1	-1E+10	1	-1E+10	1
4902663	17	C	01/21/2024	01:15	-128.824	48.022	0	133.80	0	7.6990	0	33.7380	0	26.329	0	132.634	0	125.5	4	43.0	4	-1E+10	1	-1E+10	1	-1E+10	1	-1E+10	1	-1E+10	1	-1E+10	1
4902663	17	C	01/21/2024	01:15	-128.824	48.022	0	134.80	0	7.6960	0	33.7410	0	26.332	0	133.625	0	125.1	4	42.9	4	-1E+10	1	-1E+10	1	-1E+10	1	-1E+10	1	-1E+10	1	-1E+10	1
4902663	17	C	01/21/2024	01:15	-128.824	48.022	0	135.70	0	7.6930	0	33.7440	0	26.334	0	134.517	0	124.8	4	42.8	4	-1E+10	1	-1E+10	1	-1E+10	1	-1E+10	1	-1E+10	1	-1E+10	1
4902663	17	C	01/21/2024	01:15	-128.824	48.022	0	136.70	0	7.6920	0	33.7450	0	26.335	0	135.508	0	124.4	4	42.7	4	-1E+10	1	-1E+10	1	-1E+10	1	-1E+10	1	-1E+10	1	-1E+10	1
4902663	17	C	01/21/2024	01:15	-128.824	48.022	0	137.60	0	7.6870	0	33.7480	0	26.338	0	136.400	0	124.0	4	42.5	4	-1E+10	1	-1E+10	1	-1E+10	1	-1E+10	1	-1E+10	1	-1E+10	1
4902663	17	C	01/21/2024	01:15	-128.824	48.022	0	138.60	0	7.6840	0	33.7510	0	26.341	0	137.391	0	123.6	4	42.4	4	-1E+10	1	-1E+10	1	-1E+10	1	-1E+10	1	-1E+10	1	-1E+10	1
4902663	17	C	01/21/2024	01:15	-128.824	48.022	0	139.50	0	7.6710	0	33.7610	0	26.351	0	138.282	0	123.1	4	42.2	4	-1E+10	1	-1E+10	1	-1E+10	1	-1E+10	1	-1E+10	1	-1E+10	1
4902663	17	C	01/21/2024	01:15	-128.824	48.022	0	140.90	0	7.6490	0	33.7750	0	26.365	0	139.670	0	122.6	4	42.0	4	-1E+10	1	-1E+10	1	-1E+10	1	-1E+10	1	-1E+10	1	-1E+10	1
4902663	17	C	01/21/2024	01:15	-128.824	48.022	0	142.40	0	7.6430	0	33.7780	0	26.368	0	141.156	0	122.1	4	41.8	4	-1E+10	1	-1E+10	1	-1E+10	1	-1E+10	1	-1E+10	1	-1E+10	1
4902663	17	C	01/21/2024	01:15	-128.824	48.022	0	143.30	0	7.6410	0	33.7800	0	26.370	0	142.048	0	121.8	4	41.7	4	-1E+10	1	-1E+10	1	-1E+10	1	-1E+10	1	-1E+10	1	-1E+10	1
4902663	17	C	01/21/2024	01:15	-128.824	48.022	0	144.30	0	7.6370	0	33.7830	0	26.373	0	143.039	0	121.8	4	41.7	4	-1E+10	1	-1E+10	1	-1E+10	1	-1E+10	1	-1E+10	1	-1E+10	1
4902663	17	C	01/21/2024	01:15	-128.824	48.022	0	145.30	0	7.6200	0	33.8000	0	26.389	0	144.030	0	121.7	4	41.7	4	-1E+10	1	-1E+10	1	-1E+10	1	-1E+10	1	-1E+10	1	-1E+10	1
4902663	17	C	01/21/2024	01:15	-128.824	48.022	0	146.20	0	7.5950	0	33.8030	0	26.395	0	144.922	0	121.8	4	41.7	4	-1E+10	1	-1E+10	1	-1E+10	1	-1E+10	1	-1E+10	1	-1E+10	1
4902663	17	C	01/21/2024	01:15	-128.824	48.022	0	147.20	0	7.5900	0	33.8030	0	26.396	0	145.912	0	121.7	4	41.7	4	-1E+10	1	-1E+10	1	-1E+10	1	-1E+10	1	-1E+10	1	-1E+10	1
4902663	17	C	01/21/2024	01:15	-128.824	48.022	0	148.10	0	7.5880	0	33.8030	0	26.396	0	146.804	0	121.7	4	41.7	4	-1E+10	1	-1E+10	1	-1E+10	1	-1E+10	1	-1E+10	1	-1E+10	1
4902663	17	C	01/21/2024	01:15	-128.824	48.022	0	149.10	0	7.5460	0	33.8100	0	26.407	0	147.795	0	121.5	4	41.6	4	-1E+10	1	-1E+10	1	-1E+10	1	-1E+10	1	-1E+10	1	-1E+10	1
4902663	17	C	01/21/2024	01:15	-128.824	48.022	0	150.00	0	7.5390	0	33.8090	0	26.408	0	148.687	0	121.3	4	41.5	4	-1E+10	1	-1E+10	1	-1E+10	1	-1E+10	1	-1E+10	1	-1E+10	1
4902663	17	C	01/21/2024	01:15	-128.824	48.022	0	151.00	0	7.5280	0	33.8120	0	26.412	0	149.678	0	120.9	4	41.4	4	-1E+10	1	-1E+10	1	-1E+10	1	-1E+10	1	-1E+10	1	-1E+10	1
4902663	17	C	01/21/2024	01:15	-128.824	48.022	0	151.90	0	7.5250	0	33.8140	0	26.414	0	150.570	0	120.7	4	41.3	4	-1E+10	1	-1E+10	1	-1E+10	1	-1E+10	1	-1E+10	1	-1E+10	1
4902663	17	C	01/21/2024	01:15	-128.824	48.022	0	152.90	0	7.5220	0	33.8140	0	26.414	0	151.560	0	120.3	4	41.1	4	-1E+10	1	-1E+10	1	-1E+10	1	-1E+10	1	-1E+10	1	-1E+10	1
4902663	17	C	01/21/2024	01:15	-128.824	48.022	0	153.90	0	7.5180	0	33.8150	0	26.415	0	152.551	0	119.8	4	41.0	4	-1E+10	1	-1E+10	1	-1E+10	1	-1E+10	1	-1E+10	1	-1E+10	1
4902663	17	C	01/21/2024	01:15	-128.824	48.022	0	154.90	0	7.5170	0	33.8160	0	26.416	0	153.542	0	119.4	4	40.8	4	-1E+10	1	-1E+10	1	-1E+10	1	-1E+10	1	-1E+10	1	-1E+10	1
4902663	17	C	01/21/2024	01:15	-128.824	48.022	0	155.90	0	7.5180	0	33.8150	0	26.415	0	154.533	0	118.9	4	40.6	4	-1E+10	1	-1E+10	1	-1E+10	1	-1E+10	1	-1E+10	1	-1E+10	1
4902663	17	C	01/21/2024	01:15	-128.824	48.022	0	156.80	0	7.5180	0	33.8160	0	26.416	0	155.425	0	118.3	4	40.5	4	-1E+10	1	-1E+10	1	-1E+10	1	-1E+10	1	-1E+10	1	-1E+10	1
4902663	17	C	01/21/2024	01:15	-128.824	48.022	0	157.80	0	7.5190	0	33.8160	0	26.416	0	156.416	0	117.7	4	40.2	4	-1E+10	1	-1E+10	1	-1E+10	1	-1E+10	1	-1E+10	1	-1E+10	1
4902663	17	C	01/21/2024	01:15	-128.824	48.022	0	158.80	0	7.5190	0	33.8160	0	26.416	0	157.407	0	116.9	4	40.0	4	-1E+10	1	-1E+10	1	-1E+10	1	-1E+10	1	-1E+10	1	-1E+10	1
4902663	17	C	01/21/2024	01:15	-128.824	48.022	0	159.80	0	7.5200	0	33.8140	0	26.414	0	158.397	0	116.1	4	39.7	4	-1E+10	1	-1E+10	1	-1E+10	1	-1E+10	1	-1E+10	1	-1E+10	1
4902663	17	C	01/21/2024	01:15	-128.824	48.022	0	160.70	0	7.5330	0	33.8130	0	26.412	0	159.289	0	115.3	4	39.4	4	-1E+10	1	-1E+10	1	-1E+10	1	-1E+10	1	-1E+10	1	-1E+10	1
4902663	17	C	01/21/2024	01:15	-128.824	48.022	0	161.70	0	7.5290	0	33.8290	0	26.425	0	160.280	0	114.7	4	39.2	4	-1E+10	1	-1E+10	1	-1E+10	1	-1E+10	1	-1E+10	1	-1E+10	1
4902663	17	C	01/21/2024	01:15	-128.824	48.022	0	162.70	0	7.5170	0	33.8390	0	26.435	0	161.271	0	114.4	4	39.1	4	-1E+10	1	-1E+10	1	-1E+10	1	-1E+10	1	-1E+10	1	-1E+10	1
4902663	17	C	01/21/2024	01:15	-128.824	48.022	0	163.70	0	7.5090	0	33.8390	0	26.436	0	162.262	0	114.1	4	39.0	4	-1E+10	1	-1E+10	1	-1E+10	1	-1E+10	1	-1E+10	1	-1E+10	1
4902663	17	C	01/21/2024	01:15	-128.824	48.022	0	164.70	0	7.5050	0	33.8400	0	26.437	0	163.252	0	113.7	4	38.9	4	-1E+10	1	-1E+10	1	-1E+10	1	-1E+10	1	-1E+10	1	-1E+10	1
4902663	17	C	01/21/2024	01:15	-128.824	48.022	0	165.70	0	7.5000	0	33.8410	0	26.439	0	164.243	0	113.3	4	38.7	4	-1E+10	1	-1E+10	1	-1E+10	1	-1E+10	1	-1E+10	1	-1E+10	1
4902663	17	C	01/21/2024	01:15	-128.824	48.022	0	166.70	0	7.4960	0	33.8410	0	26.439	0	165.234	0	112.8	4	38.6	4	-1E+10	1	-1E+10	1	-1E+10	1	-1E+10	1	-1E+10	1	-1E+10	1
4902663	17	C	01/21/2024	01:15	-128.824	48.022	0	167.60	0	7.4910	0	33.8420	0	26.441	0	166.126	0	112.2	4	38.3	4	-1E+10	1	-1E+10	1	-1E+10	1	-1E+10	1	-1E+10	1	-1E+10	1
4902663	17	C	01/21/2024	01:15	-128.824	48.022	0	168.60	0	7.4690	0	33.8500	0	26.450	0	167.117	0	111.8	4	38.2	4	-1E+10	1	-1E+10	1	-1E+10	1	-1E+10	1	-1E+10	1	-1E+10	1
4902663	17	C	01/21/2024	01:15	-128.824	48.022	0	169.60	0	7.4390	0	33.8560	0	26.459	0	168.107	0	111.4	4	38.0	4	-1E+10	1	-1E+10	1	-1E+10	1	-1E+10	1	-1E+10	1	-1E+10	1
4902663	17	C	01/21/2024	01:15	-128.824	48.022	0	170.60	0	7.4230	0	33.8600	0	26.464	0	169.098	0	111.1	4	37.9	4	-1E+10	1	-1E+10	1	-1E+10	1	-1E+10	1	-1E+10	1	-1E+10	1
4902663	17	C	01/21/2024	01:15	-128.824	48.022	0	171.50	0	7.4080	0	33.8610	0	26.467	0	169.990	0	110.8	4	37.8	4	-1E+10	1	-1E+10	1	-1E+10	1	-1E+10	1	-1E+10	1	-1E+10	1
4902663	17	C	01/21/2024	01:15	-128.824	48.022	0	172.50	0	7.3990	0	33.8630	0	26.470	0	170.981	0	110.4	4	37.7	4	-1E+10	1	-1E+10	1	-1E+10	1	-1E+10	1	-1E+10	1	-1E+10	1
4902663	17	C	01/21/2024	01:15	-128.824	48.022	0	173.90	0	7.3960	0	33.8630	0	26.471	0	172.368	0	109.8	4	37.4	4	-1E+10	1	-1E+10	1	-1E+10	1	-1E+10	1	-1E+10	1	-1E+10	1
4902663	17	C	01/21/2024	01:15	-128.824	48.022	0	175.60	0	7.3740	0	33.8650	0	26.475	0	174.052	0	109.1	4	37.2	4	-1E+10	1	-1E+10	1	-1E+10	1	-1E+10	1	-1E+10	1	-1E+10	1
4902663	17	C	01/21/2024	01:15	-128.824	48.022	0	176.90	0	7.3510	0	33.8700	0	26.483	0	175.340	0	108.5	4	37.0	4	-1E+10	1	-1E+10	1	-1E+10	1	-1E+10	1	-1E+10	1	-1E+10	1
4902663	17	C	01/21/2024	01:15	-128.824	48.022	0	178.20	0	7.3420	0	33.8740	0	26.487	0	176.628	0	108.1	4	36.8	4	-1E+10	1	-1E+10	1	-1E+10	1	-1E+10	1	-1E+10	1	-1E+10	1
4902663	17	C	01/21/2024	01:15	-128.824	48.022	0	179.20	0	7.3390	0	33.8740	0	26.487	0	177.619	0	107.7	4	36.7	4	-1E+10	1	-1E+10	1	-1E+10	1	-1E+10	1	-1E+10	1	-1E+10	1
4902663	17	C	01/21/2024	01:15	-128.824	48.022	0	180.10	0	7.3290	0	33.8750	0	26.490	0	178.510	0	107.5	4	36.6	4	-1E+10	1	-1E+10	1	-1E+10	1	-1E+10	1	-1E+10	1	-1E+10	1
4902663	17	C	01/21/2024	01:15	-128.824	48.022	0	181.00	0	7.3120	0	33.8790	0	26.495	0	179.402	0	107.3	4	36.5	4	-1E+10	1	-1E+10	1	-1E+10	1	-1E+10	1	-1E+10	1	-1E+10	1
4902663	17	C	01/21/2024	01:15	-128.824	48.022	0	182.00	0	7.2870	0	33.8850	0	26.503	0	180.393	0	107.1	4	36.4	4	-1E+10	1	-1E+10	1	-1E+10	1	-1E+10	1	-1E+10	1	-1E+10	1
4902663	17	C	01/21/2024	01:15	-128.824	48.022	0	182.90	0	7.2680	0	33.8800	0	26.502	0	181.285	0	106.9	4	36.3	4	-1E+10	1	-1E+10	1	-1E+10	1	-1E+10	1	-1E+10	1	-1E+10	1
4902663	17	C	01/21/2024	01:15	-128.824	48.022	0	183.90	0	7.2660	0	33.8810	0	26.503	0	182.275	0	106.6	4	36.3	4	-1E+10	1	-1E+10	1	-1E+10	1	-1E+10	1	-1E+10	1	-1E+10	1
4902663	17	C	01/21/2024	01:15	-128.824	48.022	0	184.80	0	7.2510	0	33.8820	0	26.506	0	183.167	0	106.3	4	36.1	4	-1E+10	1	-1E+10	1	-1E+10	1	-1E+10	1	-1E+10	1	-1E+10	1
4902663	17	C	01/21/2024	01:15	-128.824	48.022	0	185.80	0	7.2040	0	33.8800	0	26.511	0	184.158	0	105.7	4	35.9	4	-1E+10	1	-1E+10	1	-1E+10	1	-1E+10	1	-1E+10	1	-1E+10	1
4902663	17	C	01/21/2024	01:15	-128.824	48.022	0	186.70	0	7.2330	0	33.8880	0	26.513	0	185.049	0	105.5	4	35.8	4	-1E+10	1	-1E+10	1	-1E+10	1	-1E+10	1	-1E+10	1	-1E+10	1
4902663	17	C	01/21/2024	01:15	-128.824	48.022	0	187.60	0	7.2220	0	33.8880	0	26.515	0	185.941	0	105.3	4	35.8	4	-1E+10	1	-1E+10	1	-1E+10	1	-1E+10	1	-1E+10	1	-1E+10	1
4902663	17	C	01/21/2024	01:15	-128.824	48.022	0	188.60	0	7.2120	0	33.8910	0	26.519	0	186.932	0	105.1	4	35.7	4	-1E+10	1	-1E+10	1	-1E+10	1	-1E+10	1	-1E+10	1	-1E+10	1
4902663	17	C	01/21/2024	01:15	-128.824	48.022	0	189.50	0	7.2010	0	33.8910	0	26.520	0	187.823	0	104.8	4	35.6	4	-1E+10	1	-1E+10	1	-1E+10	1	-1E+10	1	-1E+10	1	-1E+10	1
4902663	17	C	01/21/2024	01:15	-128.824	48.022	0	190.60	0	7.1880	0	33.8910	0	26.522	0	188.913	0	104.8	4	35.6	4	-1E+10	1	-1E+10	1	-1E+10	1	-1E+10	1	-1E+10	1	-1E+10	1
4902663	17	C	01/21/2024	01:15	-128.824	48.022	0	191.90	0	7.1830	0	33.8910	0	26.523	0	190.201	0	104.6	4	35.5	4	-1E+10	1	-1E+10	1	-1E+10	1	-1E+10	1	-1E+10	1	-1E+10	1
4902663	17	C	01/21/2024	01:15	-128.824	48.022	0	193.20	0	7.1760	0	33.8920	0	26.524	0	191.489	0	104.4	4	35.4	4	-1E+10	1	-1E+10	1	-1E+10	1	-1E+10	1	-1E+10	1	-1E+10	1
4902663	17	C	01/21/2024	01:15	-128.824	48.022	0	194.20	0	7.1640	0	33.8980	0	26.531	0	192.479	0	104.4	4	35.4	4	-1E+10	1	-1E+10	1	-1E+10	1	-1E+10	1	-1E+10	1	-1E+10	1
4902663	17	C	01/21/2024	01:15	-128.824	48.022	0	195.10	0	7.1500	0	33.8940	0	26.530	0	193.371	0	104.4	4	35.4	4	-1E+10	1	-1E+10	1	-1E+10	1	-1E+10	1	-1E+10	1	-1E+10	1
4902663	17	C	01/21/2024	01:15	-128.824	48.022	0	196.10	0	7.1320	0	33.8950	0	26.533	0	194.362	0	104.4	4	35.4	4	-1E+10	1	-1E+10	1	-1E+10	1	-1E+10	1	-1E+10	1	-1E+10	1
4902663	17	C	01/21/2024	01:15	-128.824	48.022	0	197.00	0	7.1080	0	33.8960	0	26.537	0	195.253	0	104.2	4	35.3	4	-1E+10	1	-1E+10	1	-1E+10	1	-1E+10	1	-1E+10	1	-1E+10	1
4902663	17	C	01/21/2024	01:15	-128.824	48.022	0	198.00	0	7.0860	0	33.8950	0	26.539	0	196.244	0	104.1	4	35.3	4	-1E+10	1	-1E+10	1	-1E+10	1	-1E+10	1	-1E+10	1	-1E+10	1
4902663	17	C	01/21/2024	01:15	-128.824	48.022	0	199.10	0	7.0650	0	33.8980	0	26.545	0	197.334	0	104.3	4	35.3	4	-1E+10	1	-1E+10	1	-1E+10	1	-1E+10	1	-1E+10	1	-1E+10	1
4902663	17	C	01/21/2024	01:15	-128.824	48.022	0	199.90	0	7.0510	0	33.9000	0	26.548	0	198.126	0	104.5	4	35.4	4	-1E+10	1	-1E+10	1	-1E+10	1	-1E+10	1	-1E+10	1	-1E+10	1
4902663	17	C	01/21/2024	01:15	-128.824	48.022	0	200.80	0	7.0410	0	33.9000	0	26.549	0	199.018	0	104.6	4	35.4	4	-1E+10	1	-1E+10	1	-1E+10	1	-1E+10	1	-1E+10	1	-1E+10	1
4902663	17	C	01/21/2024	01:15	-128.824	48.022	0	202.00	0	7.0210	0	33.9020	0	26.554	0	200.207	0	105.1	4	35.5	4	-1E+10	1	-1E+10	1	-1E+10	1	-1E+10	1	-1E+10	1	-1E+10	1
4902663	17	C	01/21/2024	01:15	-128.824	48.022	0	202.90	0	7.0070	0	33.8990	0	26.553	0	201.098	0	105.4	4	35.6	4	-1E+10	1	-1E+10	1	-1E+10	1	-1E+10	1	-1E+10	1	-1E+10	1
4902663	17	C	01/21/2024	01:15	-128.824	48.022	0	203.70	0	7.0010	0	33.8990	0	26.554	0	201.891	0	105.6	4	35.7	4	-1E+10	1	-1E+10	1	-1E+10	1	-1E+10	1	-1E+10	1	-1E+10	1
4902663	17	C	01/21/2024	01:15	-128.824	48.022	0	204.90	0	6.9640	0	33.9030	0	26.562	0	203.079	0	106.3	4	35.9	4	-1E+10	1	-1E+10	1	-1E+10	1	-1E+10	1	-1E+10	1	-1E+10	1
4902663	17	C	01/21/2024	01:15	-128.824	48.022	0	205.80	0	6.9520	0	33.9010	0	26.562	0	203.971	0	106.8	4	36.0	4	-1E+10	1	-1E+10	1	-1E+10	1	-1E+10	1	-1E+10	1	-1E+10	1
4902663	17	C	01/21/2024	01:15	-128.824	48.022	0	206.80	0	6.9400	0	33.8960	0	26.560	0	204.962	0	107.2	4	36.2	4	-1E+10	1	-1E+10	1	-1E+10	1	-1E+10	1	-1E+10	1	-1E+10	1
4902663	17	C	01/21/2024	01:15	-128.824	48.022	0	207.70	0	6.9310	0	33.8890	0	26.556	0	205.853	0	107.6	4	36.3	4	-1E+10	1	-1E+10	1	-1E+10	1	-1E+10	1	-1E+10	1	-1E+10	1
4902663	17	C	01/21/2024	01:15	-128.824	48.022	0	208.70	0	6.9190	0	33.8900	0	26.558	0	206.844	0	108.1	4	36.5	4	-1E+10	1	-1E+10	1	-1E+10	1	-1E+10	1	-1E+10	1	-1E+10	1
4902663	17	C	01/21/2024	01:15	-128.824	48.022	0	209.70	0	6.9170	0	33.8900	0	26.559	0	207.834	0	108.6	4	36.7	4	-1E+10	1	-1E+10	1	-1E+10	1	-1E+10	1	-1E+10	1	-1E+10	1
4902663	17	C	01/21/2024	01:15	-128.824	48.022	0	210.60	0	6.9000	0	33.8880	0	26.559	0	208.726	0	109.2	4	36.8	4	-1E+10	1	-1E+10	1	-1E+10	1	-1E+10	1	-1E+10	1	-1E+10	1
4902663	17	C	01/21/2024	01:15	-128.824	48.022	0	211.60	0	6.8000	0	33.8810	0	26.567	0	209.716	0	109.4	4	36.8	4	-1E+10	1	-1E+10	1	-1E+10	1	-1E+10	1	-1E+10	1	-1E+10	1
4902663	17	C	01/21/2024	01:15	-128.824	48.022	0	212.60	0	6.7710	0	33.8890	0	26.577	0	210.707	0	109.5	4	36.8	4	-1E+10	1	-1E+10	1	-1E+10	1	-1E+10	1	-1E+10	1	-1E+10	1
4902663	17	C	01/21/2024	01:15	-128.824	48.022	0	213.50	0	6.6890	0	33.8820	0	26.583	0	211.599	0	109.1	4	36.6	4	-1E+10	1	-1E+10	1	-1E+10	1	-1E+10	1	-1E+10	1	-1E+10	1
4902663	17	C	01/21/2024	01:15	-128.824	48.022	0	214.90	0	6.6480	0	33.8690	0	26.578	0	212.985	0	108.5	4	36.4	4	-1E+10	1	-1E+10	1	-1E+10	1	-1E+10	1	-1E+10	1	-1E+10	1
4902663	17	C	01/21/2024	01:15	-128.824	48.022	0	216.40	0	6.6620	0	33.8710	0	26.578	0	214.471	0	108.1	4	36.2	4	-1E+10	1	-1E+10	1	-1E+10	1	-1E+10	1	-1E+10	1	-1E+10	1
4902663	17	C	01/21/2024	01:15	-128.824	48.022	0	217.40	0	6.6410	0	33.8670	0	26.577	0	215.462	0	108.0	4	36.2	4	-1E+10	1	-1E+10	1	-1E+10	1	-1E+10	1	-1E+10	1	-1E+10	1
4902663	17	C	01/21/2024	01:15	-128.824	48.022	0	218.10	0	6.6140	0	33.8720	0	26.585	0	216.155	0	107.5	4	36.0	4	-1E+10	1	-1E+10	1	-1E+10	1	-1E+10	1	-1E+10	1	-1E+10	1
4902663	17	C	01/21/2024	01:15	-128.824	48.022	0	219.20	0	6.6160	0	33.8730	0	26.585	0	217.245	0	107.2	4	35.9	4	-1E+10	1	-1E+10	1	-1E+10	1	-1E+10	1	-1E+10	1	-1E+10	1
4902663	17	C	01/21/2024	01:15	-128.824	48.022	0	219.90	0	6.6210	0	33.8760	0	26.587	0	217.938	0	106.9	4	35.8	4	-1E+10	1	-1E+10	1	-1E+10	1	-1E+10	1	-1E+10	1	-1E+10	1
4902663	17	C	01/21/2024	01:15	-128.824	48.022	0	220.90	0	6.6100	0	33.8770	0	26.589	0	218.929	0	106.4	4	35.7	4	-1E+10	1	-1E+10	1	-1E+10	1	-1E+10	1	-1E+10	1	-1E+10	1
4902663	17	C	01/21/2024	01:15	-128.824	48.022	0	222.00	0	6.5840	0	33.8770	0	26.593	0	220.018	0	105.8	4	35.4	4	-1E+10	1	-1E+10	1	-1E+10	1	-1E+10	1	-1E+10	1	-1E+10	1
4902663	17	C	01/21/2024	01:15	-128.824	48.022	0	222.80	0	6.5830	0	33.8760	0	26.592	0	220.811	0	105.3	4	35.3	4	-1E+10	1	-1E+10	1	-1E+10	1	-1E+10	1	-1E+10	1	-1E+10	1
4902663	17	C	01/21/2024	01:15	-128.824	48.022	0	223.90	0	6.5720	0	33.8760	0	26.594	0	221.900	0	104.4	4	34.9	4	-1E+10	1	-1E+10	1	-1E+10	1	-1E+10	1	-1E+10	1	-1E+10	1
4902663	17	C	01/21/2024	01:15	-128.824	48.022	0	225.00	0	6.5630	0	33.8760	0	26.595	0	222.990	0	103.2	4	34.5	4	-1E+10	1	-1E+10	1	-1E+10	1	-1E+10	1	-1E+10	1	-1E+10	1
4902663	17	C	01/21/2024	01:15	-128.824	48.022	0	225.80	0	6.5580	0	33.8760	0	26.596	0	223.782	0	102.3	4	34.2	4	-1E+10	1	-1E+10	1	-1E+10	1	-1E+10	1	-1E+10	1	-1E+10	1
4902663	17	C	01/21/2024	01:15	-128.824	48.022	0	226.90	0	6.5440	0	33.8760	0	26.597	0	224.872	0	100.6	4	33.6	4	-1E+10	1	-1E+10	1	-1E+10	1	-1E+10	1	-1E+10	1	-1E+10	1
4902663	17	C	01/21/2024	01:15	-128.824	48.022	0	228.00	0	6.5470	0	33.8760	0	26.597	0	225.962	0	98.7	4	33.0	4	-1E+10	1	-1E+10	1	-1E+10	1	-1E+10	1	-1E+10	1	-1E+10	1
4902663	17	C	01/21/2024	01:15	-128.824	48.022	0	228.80	0	6.5380	0	33.8800	0	26.601	0	226.754	0	97.3	4	32.5	4	-1E+10	1	-1E+10	1	-1E+10	1	-1E+10	1	-1E+10	1	-1E+10	1
4902663	17	C	01/21/2024	01:15	-128.824	48.022	0	230.00	0	6.5280	0	33.8830	0	26.605	0	227.943	0	94.9	4	31.7	4	-1E+10	1	-1E+10	1	-1E+10	1	-1E+10	1	-1E+10	1	-1E+10	1
4902663	17	C	01/21/2024	01:15	-128.824	48.022	0	231.10	0	6.5920	0	33.8900	0	26.602	0	229.032	0	93.1	4	31.2	4	-1E+10	1	-1E+10	1	-1E+10	1	-1E+10	1	-1E+10	1	-1E+10	1
4902663	17	C	01/21/2024	01:15	-128.824	48.022	0	231.90	0	6.6300	0	33.9130	0	26.615	0	229.824	0	92.5	4	31.0	4	-1E+10	1	-1E+10	1	-1E+10	1	-1E+10	1	-1E+10	1	-1E+10	1
4902663	17	C	01/21/2024	01:15	-128.824	48.022	0	232.70	0	6.6290	0	33.9130	0	26.615	0	230.617	0	92.1	4	30.9	4	-1E+10	1	-1E+10	1	-1E+10	1	-1E+10	1	-1E+10	1	-1E+10	1
4902663	17	C	01/21/2024	01:15	-128.824	48.022	0	233.90	0	6.6730	0	33.9220	0	26.617	0	231.805	0	92.2	4	30.9	4	-1E+10	1	-1E+10	1	-1E+10	1	-1E+10	1	-1E+10	1	-1E+10	1
4902663	17	C	01/21/2024	01:15	-128.824	48.022	0	235.10	0	6.6680	0	33.9250	0	26.620	0	232.994	0	92.5	4	31.0	4	-1E+10	1	-1E+10	1	-1E+10	1	-1E+10	1	-1E+10	1	-1E+10	1
4902663	17	C	01/21/2024	01:15	-128.824	48.022	0	235.90	0	6.6470	0	33.9290	0	26.626	0	233.786	0	92.7	4	31.1	4	-1E+10	1	-1E+10	1	-1E+10	1	-1E+10	1	-1E+10	1	-1E+10	1
4902663	17	C	01/21/2024	01:15	-128.824	48.022	0	236.70	0	6.6260	0	33.9230	0	26.624	0	234.579	0	92.9	4	31.1	4	-1E+10	1	-1E+10	1	-1E+10	1	-1E+10	1	-1E+10	1	-1E+10	1
4902663	17	C	01/21/2024	01:15	-128.824	48.022	0	237.90	0	6.6200	0	33.9240	0	26.625	0	235.767	0	93.4	4	31.3	4	-1E+10	1	-1E+10	1	-1E+10	1	-1E+10	1	-1E+10	1	-1E+10	1
4902663	17	C	01/21/2024	01:15	-128.824	48.022	0	239.10	0	6.6120	0	33.9230	0	26.626	0	236.956	0	94.4	4	31.6	4	-1E+10	1	-1E+10	1	-1E+10	1	-1E+10	1	-1E+10	1	-1E+10	1
4902663	17	C	01/21/2024	01:15	-128.824	48.022	0	240.00	0	6.6060	0	33.9280	0	26.630	0	237.847	0	95.4	4	32.0	4	-1E+10	1	-1E+10	1	-1E+10	1	-1E+10	1	-1E+10	1	-1E+10	1
4902663	17	C	01/21/2024	01:15	-128.824	48.022	0	240.80	0	6.5920	0	33.9250	0	26.630	0	238.640	0	96.3	4	32.3	4	-1E+10	1	-1E+10	1	-1E+10	1	-1E+10	1	-1E+10	1	-1E+10	1
4902663	17	C	01/21/2024	01:15	-128.824	48.022	0	241.60	0	6.5680	0	33.9240	0	26.632	0	239.432	0	97.3	4	32.6	4	-1E+10	1	-1E+10	1	-1E+10	1	-1E+10	1	-1E+10	1	-1E+10	1
4902663	17	C	01/21/2024	01:15	-128.824	48.022	0	242.90	0	6.4630	0	33.9180	0	26.641	0	240.720	0	98.1	4	32.8	4	-1E+10	1	-1E+10	1	-1E+10	1	-1E+10	1	-1E+10	1	-1E+10	1
4902663	17	C	01/21/2024	01:15	-128.824	48.022	0	244.10	0	6.3460	0	33.9080	0	26.649	0	241.908	0	98.3	4	32.7	4	-1E+10	1	-1E+10	1	-1E+10	1	-1E+10	1	-1E+10	1	-1E+10	1
4902663	17	C	01/21/2024	01:15	-128.824	48.022	0	245.00	0	6.3260	0	33.9010	0	26.646	0	242.800	0	98.2	4	32.7	4	-1E+10	1	-1E+10	1	-1E+10	1	-1E+10	1	-1E+10	1	-1E+10	1
4902663	17	C	01/21/2024	01:15	-128.824	48.022	0	245.80	0	6.3190	0	33.9010	0	26.647	0	243.592	0	98.2	4	32.7	4	-1E+10	1	-1E+10	1	-1E+10	1	-1E+10	1	-1E+10	1	-1E+10	1
4902663	17	C	01/21/2024	01:15	-128.824	48.022	0	246.60	0	6.3070	0	33.9020	0	26.649	0	244.384	0	98.0	4	32.6	4	-1E+10	1	-1E+10	1	-1E+10	1	-1E+10	1	-1E+10	1	-1E+10	1
4902663	17	C	01/21/2024	01:15	-128.824	48.022	0	247.90	0	6.2950	0	33.9010	0	26.650	0	245.672	0	97.9	4	32.5	4	-1E+10	1	-1E+10	1	-1E+10	1	-1E+10	1	-1E+10	1	-1E+10	1
4902663	17	C	01/21/2024	01:15	-128.824	48.022	0	249.20	0	6.2890	0	33.9020	0	26.651	0	246.959	0	97.8	4	32.5	4	-1E+10	1	-1E+10	1	-1E+10	1	-1E+10	1	-1E+10	1	-1E+10	1
4902663	17	C	01/21/2024	01:15	-128.824	48.022	0	250.00	0	6.2890	0	33.9020	0	26.651	0	247.752	0	97.8	4	32.5	4	-1E+10	1	-1E+10	1	-1E+10	1	-1E+10	1	-1E+10	1	-1E+10	1
4902663	17	C	01/21/2024	01:15	-128.824	48.022	0	250.90	0	6.2880	0	33.9010	0	26.651	0	248.643	0	97.9	4	32.5	4	-1E+10	1	-1E+10	1	-1E+10	1	-1E+10	1	-1E+10	1	-1E+10	1
4902663	17	C	01/21/2024	01:15	-128.824	48.022	0	251.70	0	6.2490	0	33.9020	0	26.656	0	249.435	0	97.8	4	32.5	4	-1E+10	1	-1E+10	1	-1E+10	1	-1E+10	1	-1E+10	1	-1E+10	1
4902663	17	C	01/21/2024	01:15	-128.824	48.022	0	253.00	0	6.2010	0	33.8970	0	26.659	0	250.723	0	97.3	4	32.3	4	-1E+10	1	-1E+10	1	-1E+10	1	-1E+10	1	-1E+10	1	-1E+10	1
4902663	17	C	01/21/2024	01:15	-128.824	48.022	0	254.30	0	6.1930	0	33.8980	0	26.660	0	252.010	0	96.6	4	32.1	4	-1E+10	1	-1E+10	1	-1E+10	1	-1E+10	1	-1E+10	1	-1E+10	1
4902663	17	C	01/21/2024	01:15	-128.824	48.022	0	255.20	0	6.1910	0	33.9000	0	26.662	0	252.902	0	96.3	4	31.9	4	-1E+10	1	-1E+10	1	-1E+10	1	-1E+10	1	-1E+10	1	-1E+10	1
4902663	17	C	01/21/2024	01:15	-128.824	48.022	0	256.00	0	6.1920	0	33.9010	0	26.663	0	253.694	0	95.9	4	31.8	4	-1E+10	1	-1E+10	1	-1E+10	1	-1E+10	1	-1E+10	1	-1E+10	1
4902663	17	C	01/21/2024	01:15	-128.824	48.022	0	256.90	0	6.1710	0	33.9010	0	26.666	0	254.585	0	95.6	4	31.7	4	-1E+10	1	-1E+10	1	-1E+10	1	-1E+10	1	-1E+10	1	-1E+10	1
4902663	17	C	01/21/2024	01:15	-128.824	48.022	0	257.80	0	6.1660	0	33.9000	0	26.665	0	255.477	0	95.2	4	31.6	4	-1E+10	1	-1E+10	1	-1E+10	1	-1E+10	1	-1E+10	1	-1E+10	1
4902663	17	C	01/21/2024	01:15	-128.824	48.022	0	258.60	0	6.1640	0	33.9000	0	26.666	0	256.269	0	94.8	4	31.4	4	-1E+10	1	-1E+10	1	-1E+10	1	-1E+10	1	-1E+10	1	-1E+10	1
4902663	17	C	01/21/2024	01:15	-128.824	48.022	0	259.90	0	6.1380	0	33.9040	0	26.672	0	257.556	0	94.1	4	31.2	4	-1E+10	1	-1E+10	1	-1E+10	1	-1E+10	1	-1E+10	1	-1E+10	1
4902663	17	C	01/21/2024	01:15	-128.824	48.022	0	261.20	0	6.1360	0	33.9070	0	26.675	0	258.844	0	93.5	4	31.0	4	-1E+10	1	-1E+10	1	-1E+10	1	-1E+10	1	-1E+10	1	-1E+10	1
4902663	17	C	01/21/2024	01:15	-128.824	48.022	0	262.10	0	6.0750	0	33.9010	0	26.678	0	259.735	0	93.0	4	30.8	4	-1E+10	1	-1E+10	1	-1E+10	1	-1E+10	1	-1E+10	1	-1E+10	1
4902663	17	C	01/21/2024	01:15	-128.824	48.022	0	263.00	0	6.0610	0	33.9010	0	26.680	0	260.627	0	92.4	4	30.6	4	-1E+10	1	-1E+10	1	-1E+10	1	-1E+10	1	-1E+10	1	-1E+10	1
4902663	17	C	01/21/2024	01:15	-128.824	48.022	0	263.90	0	6.1050	0	33.9110	0	26.682	0	261.518	0	92.1	4	30.5	4	-1E+10	1	-1E+10	1	-1E+10	1	-1E+10	1	-1E+10	1	-1E+10	1
4902663	17	C	01/21/2024	01:15	-128.824	48.022	0	264.80	0	6.1020	0	33.9120	0	26.683	0	262.409	0	91.9	4	30.4	4	-1E+10	1	-1E+10	1	-1E+10	1	-1E+10	1	-1E+10	1	-1E+10	1
4902663	17	C	01/21/2024	01:15	-128.824	48.022	0	265.60	0	6.1020	0	33.9110	0	26.682	0	263.201	0	91.8	4	30.4	4	-1E+10	1	-1E+10	1	-1E+10	1	-1E+10	1	-1E+10	1	-1E+10	1
4902663	17	C	01/21/2024	01:15	-128.824	48.022	0	266.90	0	6.1090	0	33.9120	0	26.682	0	264.489	0	91.6	4	30.3	4	-1E+10	1	-1E+10	1	-1E+10	1	-1E+10	1	-1E+10	1	-1E+10	1
4902663	17	C	01/21/2024	01:15	-128.824	48.022	0	268.30	0	6.0860	0	33.9100	0	26.684	0	265.875	0	91.3	4	30.2	4	-1E+10	1	-1E+10	1	-1E+10	1	-1E+10	1	-1E+10	1	-1E+10	1
4902663	17	C	01/21/2024	01:15	-128.824	48.022	0	269.20	0	6.0660	0	33.9060	0	26.683	0	266.767	0	90.9	4	30.1	4	-1E+10	1	-1E+10	1	-1E+10	1	-1E+10	1	-1E+10	1	-1E+10	1
4902663	17	C	01/21/2024	01:15	-128.824	48.022	0	270.00	0	6.0360	0	33.9080	0	26.688	0	267.559	0	90.3	4	29.9	4	-1E+10	1	-1E+10	1	-1E+10	1	-1E+10	1	-1E+10	1	-1E+10	1
4902663	17	C	01/21/2024	01:15	-128.824	48.022	0	270.90	0	6.0090	0	33.9080	0	26.692	0	268.450	0	89.5	4	29.6	4	-1E+10	1	-1E+10	1	-1E+10	1	-1E+10	1	-1E+10	1	-1E+10	1
4902663	17	C	01/21/2024	01:15	-128.824	48.022	0	271.80	0	5.9970	0	33.9060	0	26.692	0	269.341	0	88.7	4	29.3	4	-1E+10	1	-1E+10	1	-1E+10	1	-1E+10	1	-1E+10	1	-1E+10	1
4902663	17	C	01/21/2024	01:15	-128.824	48.022	0	272.70	0	5.9860	0	33.9070	0	26.694	0	270.233	0	87.8	4	29.0	4	-1E+10	1	-1E+10	1	-1E+10	1	-1E+10	1	-1E+10	1	-1E+10	1
4902663	17	C	01/21/2024	01:15	-128.824	48.022	0	273.60	0	5.9760	0	33.9090	0	26.697	0	271.124	0	86.8	4	28.7	4	-1E+10	1	-1E+10	1	-1E+10	1	-1E+10	1	-1E+10	1	-1E+10	1
4902663	17	C	01/21/2024	01:15	-128.824	48.022	0	274.90	0	5.9760	0	33.9120	0	26.699	0	272.411	0	85.6	4	28.3	4	-1E+10	1	-1E+10	1	-1E+10	1	-1E+10	1	-1E+10	1	-1E+10	1
4902663	17	C	01/21/2024	01:15	-128.824	48.022	0	276.30	0	5.9820	0	33.9150	0	26.701	0	273.798	0	84.5	4	27.9	4	-1E+10	1	-1E+10	1	-1E+10	1	-1E+10	1	-1E+10	1	-1E+10	1
4902663	17	C	01/21/2024	01:15	-128.824	48.022	0	277.20	0	5.9760	0	33.9150	0	26.701	0	274.689	0	83.6	4	27.6	4	-1E+10	1	-1E+10	1	-1E+10	1	-1E+10	1	-1E+10	1	-1E+10	1
4902663	17	C	01/21/2024	01:15	-128.824	48.022	0	278.00	0	5.9730	0	33.9150	0	26.702	0	275.481	0	82.7	4	27.3	4	-1E+10	1	-1E+10	1	-1E+10	1	-1E+10	1	-1E+10	1	-1E+10	1
4902663	17	C	01/21/2024	01:15	-128.824	48.022	0	278.90	0	5.9700	0	33.9170	0	26.704	0	276.372	0	81.9	4	27.0	4	-1E+10	1	-1E+10	1	-1E+10	1	-1E+10	1	-1E+10	1	-1E+10	1
4902663	17	C	01/21/2024	01:15	-128.824	48.022	0	279.80	0	6.0070	0	33.9230	0	26.704	0	277.264	0	81.5	4	26.9	4	-1E+10	1	-1E+10	1	-1E+10	1	-1E+10	1	-1E+10	1	-1E+10	1
4902663	17	C	01/21/2024	01:15	-128.824	48.022	0	280.70	0	6.0080	0	33.9240	0	26.705	0	278.155	0	81.6	4	27.0	4	-1E+10	1	-1E+10	1	-1E+10	1	-1E+10	1	-1E+10	1	-1E+10	1
4902663	17	C	01/21/2024	01:15	-128.824	48.022	0	281.60	0	6.0070	0	33.9220	0	26.703	0	279.046	0	81.5	4	26.9	4	-1E+10	1	-1E+10	1	-1E+10	1	-1E+10	1	-1E+10	1	-1E+10	1
4902663	17	C	01/21/2024	01:15	-128.824	48.022	0	282.90	0	5.9690	0	33.9230	0	26.709	0	280.334	0	81.1	4	26.8	4	-1E+10	1	-1E+10	1	-1E+10	1	-1E+10	1	-1E+10	1	-1E+10	1
4902663	17	C	01/21/2024	01:15	-128.824	48.022	0	284.30	0	5.9210	0	33.9240	0	26.715	0	281.720	0	80.4	4	26.5	4	-1E+10	1	-1E+10	1	-1E+10	1	-1E+10	1	-1E+10	1	-1E+10	1
4902663	17	C	01/21/2024	01:15	-128.824	48.022	0	285.20	0	5.9120	0	33.9230	0	26.716	0	282.611	0	80.0	4	26.4	4	-1E+10	1	-1E+10	1	-1E+10	1	-1E+10	1	-1E+10	1	-1E+10	1
4902663	17	C	01/21/2024	01:15	-128.824	48.022	0	286.10	0	5.9030	0	33.9210	0	26.715	0	283.502	0	79.6	4	26.2	4	-1E+10	1	-1E+10	1	-1E+10	1	-1E+10	1	-1E+10	1	-1E+10	1
4902663	17	C	01/21/2024	01:15	-128.824	48.022	0	287.00	0	5.8840	0	33.9210	0	26.718	0	284.394	0	79.3	4	26.1	4	-1E+10	1	-1E+10	1	-1E+10	1	-1E+10	1	-1E+10	1	-1E+10	1
4902663	17	C	01/21/2024	01:15	-128.824	48.022	0	287.80	0	5.8960	0	33.9240	0	26.719	0	285.186	0	79.1	4	26.1	4	-1E+10	1	-1E+10	1	-1E+10	1	-1E+10	1	-1E+10	1	-1E+10	1
4902663	17	C	01/21/2024	01:15	-128.824	48.022	0	288.70	0	5.8840	0	33.9240	0	26.720	0	286.077	0	78.9	4	26.0	4	-1E+10	1	-1E+10	1	-1E+10	1	-1E+10	1	-1E+10	1	-1E+10	1
4902663	17	C	01/21/2024	01:15	-128.824	48.022	0	289.60	0	5.8710	0	33.9230	0	26.721	0	286.968	0	78.4	4	25.8	4	-1E+10	1	-1E+10	1	-1E+10	1	-1E+10	1	-1E+10	1	-1E+10	1
4902663	17	C	01/21/2024	01:15	-128.824	48.022	0	290.90	0	5.8550	0	33.9210	0	26.721	0	288.255	0	77.2	4	25.4	4	-1E+10	1	-1E+10	1	-1E+10	1	-1E+10	1	-1E+10	1	-1E+10	1
4902663	17	C	01/21/2024	01:15	-128.824	48.022	0	292.30	0	5.8470	0	33.9240	0	26.725	0	289.642	0	75.8	4	25.0	4	-1E+10	1	-1E+10	1	-1E+10	1	-1E+10	1	-1E+10	1	-1E+10	1
4902663	17	C	01/21/2024	01:15	-128.824	48.022	0	293.20	0	5.8450	0	33.9230	0	26.724	0	290.533	0	75.0	4	24.7	4	-1E+10	1	-1E+10	1	-1E+10	1	-1E+10	1	-1E+10	1	-1E+10	1
4902663	17	C	01/21/2024	01:15	-128.824	48.022	0	294.10	0	5.8600	0	33.9300	0	26.728	0	291.424	0	74.4	4	24.5	4	-1E+10	1	-1E+10	1	-1E+10	1	-1E+10	1	-1E+10	1	-1E+10	1
4902663	17	C	01/21/2024	01:15	-128.824	48.022	0	295.00	0	5.8650	0	33.9300	0	26.727	0	292.315	0	74.1	4	24.4	4	-1E+10	1	-1E+10	1	-1E+10	1	-1E+10	1	-1E+10	1	-1E+10	1
4902663	17	C	01/21/2024	01:15	-128.824	48.022	0	295.90	0	5.8690	0	33.9330	0	26.729	0	293.206	0	74.0	4	24.4	4	-1E+10	1	-1E+10	1	-1E+10	1	-1E+10	1	-1E+10	1	-1E+10	1
4902663	17	C	01/21/2024	01:15	-128.824	48.022	0	296.80	0	5.8640	0	33.9340	0	26.731	0	294.098	0	74.0	4	24.4	4	-1E+10	1	-1E+10	1	-1E+10	1	-1E+10	1	-1E+10	1	-1E+10	1
4902663	17	C	01/21/2024	01:15	-128.824	48.022	0	297.70	0	5.8630	0	33.9340	0	26.731	0	294.989	0	73.8	4	24.3	4	-1E+10	1	-1E+10	1	-1E+10	1	-1E+10	1	-1E+10	1	-1E+10	1
4902663	17	C	01/21/2024	01:15	-128.824	48.022	0	298.60	0	5.8340	0	33.9320	0	26.733	0	295.880	0	73.4	4	24.2	4	-1E+10	1	-1E+10	1	-1E+10	1	-1E+10	1	-1E+10	1	-1E+10	1
4902663	17	C	01/21/2024	01:15	-128.824	48.022	0	299.50	0	5.8190	0	33.9310	0	26.734	0	296.771	0	72.6	4	23.9	4	-1E+10	1	-1E+10	1	-1E+10	1	-1E+10	1	-1E+10	1	-1E+10	1
4902663	17	C	01/21/2024	01:15	-128.824	48.022	0	300.90	0	5.8190	0	33.9310	0	26.734	0	298.157	0	71.3	4	23.5	4	-1E+10	1	-1E+10	1	-1E+10	1	-1E+10	1	-1E+10	1	-1E+10	1
4902663	17	C	01/21/2024	01:15	-128.824	48.022	0	302.20	0	5.8190	0	33.9290	0	26.732	0	299.444	0	70.1	4	23.1	4	-1E+10	1	-1E+10	1	-1E+10	1	-1E+10	1	-1E+10	1	-1E+10	1
4902663	17	C	01/21/2024	01:15	-128.824	48.022	0	303.10	0	5.8170	0	33.9330	0	26.736	0	300.336	0	69.6	4	22.9	4	-1E+10	1	-1E+10	1	-1E+10	1	-1E+10	1	-1E+10	1	-1E+10	1
4902663	17	C	01/21/2024	01:15	-128.824	48.022	0	304.00	0	5.8140	0	33.9360	0	26.738	0	301.227	0	69.2	4	22.8	4	-1E+10	1	-1E+10	1	-1E+10	1	-1E+10	1	-1E+10	1	-1E+10	1
4902663	17	C	01/21/2024	01:15	-128.824	48.022	0	304.90	0	5.8110	0	33.9370	0	26.740	0	302.118	0	68.9	4	22.7	4	-1E+10	1	-1E+10	1	-1E+10	1	-1E+10	1	-1E+10	1	-1E+10	1
4902663	17	C	01/21/2024	01:15	-128.824	48.022	0	305.80	0	5.8040	0	33.9380	0	26.741	0	303.009	0	68.5	4	22.5	4	-1E+10	1	-1E+10	1	-1E+10	1	-1E+10	1	-1E+10	1	-1E+10	1
4902663	17	C	01/21/2024	01:15	-128.824	48.022	0	306.70	0	5.7910	0	33.9390	0	26.744	0	303.900	0	68.2	4	22.4	4	-1E+10	1	-1E+10	1	-1E+10	1	-1E+10	1	-1E+10	1	-1E+10	1
4902663	17	C	01/21/2024	01:15	-128.824	48.022	0	307.60	0	5.7840	0	33.9390	0	26.744	0	304.791	0	67.8	4	22.3	4	-1E+10	1	-1E+10	1	-1E+10	1	-1E+10	1	-1E+10	1	-1E+10	1
4902663	17	C	01/21/2024	01:15	-128.824	48.022	0	308.90	0	5.7810	0	33.9390	0	26.745	0	306.078	0	67.2	4	22.1	4	-1E+10	1	-1E+10	1	-1E+10	1	-1E+10	1	-1E+10	1	-1E+10	1
4902663	17	C	01/21/2024	01:15	-128.824	48.022	0	310.30	0	5.7890	0	33.9420	0	26.746	0	307.465	0	66.7	4	21.9	4	-1E+10	1	-1E+10	1	-1E+10	1	-1E+10	1	-1E+10	1	-1E+10	1
4902663	17	C	01/21/2024	01:15	-128.824	48.022	0	311.10	0	5.7970	0	33.9450	0	26.748	0	308.257	0	66.4	4	21.8	4	-1E+10	1	-1E+10	1	-1E+10	1	-1E+10	1	-1E+10	1	-1E+10	1
4902663	17	C	01/21/2024	01:15	-128.824	48.022	0	312.00	0	5.8050	0	33.9470	0	26.748	0	309.148	0	66.1	4	21.7	4	-1E+10	1	-1E+10	1	-1E+10	1	-1E+10	1	-1E+10	1	-1E+10	1
4902663	17	C	01/21/2024	01:15	-128.824	48.022	0	312.90	0	5.8100	0	33.9490	0	26.749	0	310.039	0	65.8	4	21.7	4	-1E+10	1	-1E+10	1	-1E+10	1	-1E+10	1	-1E+10	1	-1E+10	1
4902663	17	C	01/21/2024	01:15	-128.824	48.022	0	313.80	0	5.8150	0	33.9500	0	26.749	0	310.930	0	65.6	4	21.6	4	-1E+10	1	-1E+10	1	-1E+10	1	-1E+10	1	-1E+10	1	-1E+10	1
4902663	17	C	01/21/2024	01:15	-128.824	48.022	0	314.70	0	5.8000	0	33.9520	0	26.753	0	311.821	0	65.5	4	21.5	4	-1E+10	1	-1E+10	1	-1E+10	1	-1E+10	1	-1E+10	1	-1E+10	1
4902663	17	C	01/21/2024	01:15	-128.824	48.022	0	316.00	0	5.7870	0	33.9530	0	26.755	0	313.108	0	65.4	4	21.5	4	-1E+10	1	-1E+10	1	-1E+10	1	-1E+10	1	-1E+10	1	-1E+10	1
4902663	17	C	01/21/2024	01:15	-128.824	48.022	0	317.30	0	5.7670	0	33.9520	0	26.757	0	314.395	0	65.3	4	21.5	4	-1E+10	1	-1E+10	1	-1E+10	1	-1E+10	1	-1E+10	1	-1E+10	1
4902663	17	C	01/21/2024	01:15	-128.824	48.022	0	318.20	0	5.7460	0	33.9540	0	26.761	0	315.286	0	65.3	4	21.4	4	-1E+10	1	-1E+10	1	-1E+10	1	-1E+10	1	-1E+10	1	-1E+10	1
4902663	17	C	01/21/2024	01:15	-128.824	48.022	0	319.10	0	5.7070	0	33.9500	0	26.763	0	316.177	0	65.2	4	21.4	4	-1E+10	1	-1E+10	1	-1E+10	1	-1E+10	1	-1E+10	1	-1E+10	1
4902663	17	C	01/21/2024	01:15	-128.824	48.022	0	320.00	0	5.6970	0	33.9510	0	26.765	0	317.069	0	65.0	4	21.3	4	-1E+10	1	-1E+10	1	-1E+10	1	-1E+10	1	-1E+10	1	-1E+10	1
4902663	17	C	01/21/2024	01:15	-128.824	48.022	0	320.80	0	5.6910	0	33.9490	0	26.764	0	317.861	0	64.9	4	21.3	4	-1E+10	1	-1E+10	1	-1E+10	1	-1E+10	1	-1E+10	1	-1E+10	1
4902663	17	C	01/21/2024	01:15	-128.824	48.022	0	321.70	0	5.6640	0	33.9460	0	26.765	0	318.752	0	64.8	4	21.3	4	-1E+10	1	-1E+10	1	-1E+10	1	-1E+10	1	-1E+10	1	-1E+10	1
4902663	17	C	01/21/2024	01:15	-128.824	48.022	0	322.60	0	5.6500	0	33.9470	0	26.767	0	319.643	0	64.7	4	21.2	4	-1E+10	1	-1E+10	1	-1E+10	1	-1E+10	1	-1E+10	1	-1E+10	1
4902663	17	C	01/21/2024	01:15	-128.824	48.022	0	323.90	0	5.6480	0	33.9460	0	26.767	0	320.930	0	64.4	4	21.1	4	-1E+10	1	-1E+10	1	-1E+10	1	-1E+10	1	-1E+10	1	-1E+10	1
4902663	17	C	01/21/2024	01:15	-128.824	48.022	0	325.30	0	5.6440	0	33.9460	0	26.767	0	322.316	0	64.0	4	21.0	4	-1E+10	1	-1E+10	1	-1E+10	1	-1E+10	1	-1E+10	1	-1E+10	1
4902663	17	C	01/21/2024	01:15	-128.824	48.022	0	326.10	0	5.6480	0	33.9440	0	26.765	0	323.108	0	63.8	4	20.9	4	-1E+10	1	-1E+10	1	-1E+10	1	-1E+10	1	-1E+10	1	-1E+10	1
4902663	17	C	01/21/2024	01:15	-128.824	48.022	0	327.00	0	5.6200	0	33.9500	0	26.773	0	323.999	0	63.7	4	20.9	4	-1E+10	1	-1E+10	1	-1E+10	1	-1E+10	1	-1E+10	1	-1E+10	1
4902663	17	C	01/21/2024	01:15	-128.824	48.022	0	327.90	0	5.6090	0	33.9490	0	26.774	0	324.890	0	63.5	4	20.8	4	-1E+10	1	-1E+10	1	-1E+10	1	-1E+10	1	-1E+10	1	-1E+10	1
4902663	17	C	01/21/2024	01:15	-128.824	48.022	0	328.70	0	5.6000	0	33.9490	0	26.775	0	325.682	0	63.4	4	20.7	4	-1E+10	1	-1E+10	1	-1E+10	1	-1E+10	1	-1E+10	1	-1E+10	1
4902663	17	C	01/21/2024	01:15	-128.824	48.022	0	329.60	0	5.5920	0	33.9480	0	26.775	0	326.573	0	63.2	4	20.7	4	-1E+10	1	-1E+10	1	-1E+10	1	-1E+10	1	-1E+10	1	-1E+10	1
4902663	17	C	01/21/2024	01:15	-128.824	48.022	0	330.90	0	5.5950	0	33.9480	0	26.775	0	327.860	0	62.9	4	20.6	4	-1E+10	1	-1E+10	1	-1E+10	1	-1E+10	1	-1E+10	1	-1E+10	1
4902663	17	C	01/21/2024	01:15	-128.824	48.022	0	332.20	0	5.5750	0	33.9470	0	26.776	0	329.147	0	62.5	4	20.5	4	-1E+10	1	-1E+10	1	-1E+10	1	-1E+10	1	-1E+10	1	-1E+10	1
4902663	17	C	01/21/2024	01:15	-128.824	48.022	0	333.10	0	5.5560	0	33.9490	0	26.780	0	330.038	0	62.4	4	20.4	4	-1E+10	1	-1E+10	1	-1E+10	1	-1E+10	1	-1E+10	1	-1E+10	1
4902663	17	C	01/21/2024	01:15	-128.824	48.022	0	334.00	0	5.5540	0	33.9490	0	26.780	0	330.929	0	62.2	4	20.3	4	-1E+10	1	-1E+10	1	-1E+10	1	-1E+10	1	-1E+10	1	-1E+10	1
4902663	17	C	01/21/2024	01:15	-128.824	48.022	0	334.80	0	5.5530	0	33.9490	0	26.781	0	331.721	0	62.0	4	20.3	4	-1E+10	1	-1E+10	1	-1E+10	1	-1E+10	1	-1E+10	1	-1E+10	1
4902663	17	C	01/21/2024	01:15	-128.824	48.022	0	335.70	0	5.5520	0	33.9490	0	26.781	0	332.612	0	61.8	4	20.2	4	-1E+10	1	-1E+10	1	-1E+10	1	-1E+10	1	-1E+10	1	-1E+10	1
4902663	17	C	01/21/2024	01:15	-128.824	48.022	0	336.60	0	5.5400	0	33.9510	0	26.784	0	333.503	0	61.5	4	20.1	4	-1E+10	1	-1E+10	1	-1E+10	1	-1E+10	1	-1E+10	1	-1E+10	1
4902663	17	C	01/21/2024	01:15	-128.824	48.022	0	337.90	0	5.5270	0	33.9500	0	26.785	0	334.790	0	61.2	4	20.0	4	-1E+10	1	-1E+10	1	-1E+10	1	-1E+10	1	-1E+10	1	-1E+10	1
4902663	17	C	01/21/2024	01:15	-128.824	48.022	0	339.20	0	5.5080	0	33.9500	0	26.787	0	336.077	0	60.8	4	19.9	4	-1E+10	1	-1E+10	1	-1E+10	1	-1E+10	1	-1E+10	1	-1E+10	1
4902663	17	C	01/21/2024	01:15	-128.824	48.022	0	340.10	0	5.4930	0	33.9510	0	26.789	0	336.968	0	60.5	4	19.8	4	-1E+10	1	-1E+10	1	-1E+10	1	-1E+10	1	-1E+10	1	-1E+10	1
4902663	17	C	01/21/2024	01:15	-128.824	48.022	0	340.90	0	5.4880	0	33.9510	0	26.790	0	337.760	0	60.2	4	19.7	4	-1E+10	1	-1E+10	1	-1E+10	1	-1E+10	1	-1E+10	1	-1E+10	1
4902663	17	C	01/21/2024	01:15	-128.824	48.022	0	341.80	0	5.4760	0	33.9520	0	26.792	0	338.651	0	59.9	4	19.5	4	-1E+10	1	-1E+10	1	-1E+10	1	-1E+10	1	-1E+10	1	-1E+10	1
4902663	17	C	01/21/2024	01:15	-128.824	48.022	0	342.70	0	5.4600	0	33.9540	0	26.796	0	339.542	0	59.6	4	19.4	4	-1E+10	1	-1E+10	1	-1E+10	1	-1E+10	1	-1E+10	1	-1E+10	1
4902663	17	C	01/21/2024	01:15	-128.824	48.022	0	343.90	0	5.4430	0	33.9540	0	26.798	0	340.730	0	59.1	4	19.3	4	-1E+10	1	-1E+10	1	-1E+10	1	-1E+10	1	-1E+10	1	-1E+10	1
4902663	17	C	01/21/2024	01:15	-128.824	48.022	0	345.30	0	5.4340	0	33.9540	0	26.799	0	342.116	0	58.6	4	19.1	4	-1E+10	1	-1E+10	1	-1E+10	1	-1E+10	1	-1E+10	1	-1E+10	1
4902663	17	C	01/21/2024	01:15	-128.824	48.022	0	346.10	0	5.4320	0	33.9550	0	26.800	0	342.908	0	58.3	4	19.0	4	-1E+10	1	-1E+10	1	-1E+10	1	-1E+10	1	-1E+10	1	-1E+10	1
4902663	17	C	01/21/2024	01:15	-128.824	48.022	0	347.00	0	5.4240	0	33.9570	0	26.802	0	343.799	0	58.1	4	18.9	4	-1E+10	1	-1E+10	1	-1E+10	1	-1E+10	1	-1E+10	1	-1E+10	1
4902663	17	C	01/21/2024	01:15	-128.824	48.022	0	347.80	0	5.4220	0	33.9580	0	26.803	0	344.591	0	57.9	4	18.9	4	-1E+10	1	-1E+10	1	-1E+10	1	-1E+10	1	-1E+10	1	-1E+10	1
4902663	17	C	01/21/2024	01:15	-128.824	48.022	0	348.70	0	5.4130	0	33.9610	0	26.807	0	345.482	0	57.7	4	18.8	4	-1E+10	1	-1E+10	1	-1E+10	1	-1E+10	1	-1E+10	1	-1E+10	1
4902663	17	C	01/21/2024	01:15	-128.824	48.022	0	349.60	0	5.4100	0	33.9600	0	26.806	0	346.373	0	57.3	4	18.7	4	-1E+10	1	-1E+10	1	-1E+10	1	-1E+10	1	-1E+10	1	-1E+10	1
4902663	17	C	01/21/2024	01:15	-128.824	48.022	0	352.60	0	5.4010	0	33.9610	0	26.808	0	349.342	0	56.1	4	18.3	4	-1E+10	1	-1E+10	1	-1E+10	1	-1E+10	1	-1E+10	1	-1E+10	1
4902663	17	C	01/21/2024	01:15	-128.824	48.022	0	357.80	0	5.3790	0	33.9690	0	26.817	0	354.490	0	54.3	4	17.7	4	-1E+10	1	-1E+10	1	-1E+10	1	-1E+10	1	-1E+10	1	-1E+10	1
4902663	17	C	01/21/2024	01:15	-128.824	48.022	0	363.10	0	5.3180	0	33.9740	0	26.829	0	359.736	0	52.9	4	17.2	4	-1E+10	1	-1E+10	1	-1E+10	1	-1E+10	1	-1E+10	1	-1E+10	1
4902663	17	C	01/21/2024	01:15	-128.824	48.022	0	368.00	0	5.2680	0	33.9780	0	26.838	0	364.587	0	51.8	4	16.8	4	-1E+10	1	-1E+10	1	-1E+10	1	-1E+10	1	-1E+10	1	-1E+10	1
4902663	17	C	01/21/2024	01:15	-128.824	48.022	0	372.90	0	5.2370	0	33.9810	0	26.844	0	369.437	0	51.0	4	16.6	4	-1E+10	1	-1E+10	1	-1E+10	1	-1E+10	1	-1E+10	1	-1E+10	1
4902663	17	C	01/21/2024	01:15	-128.824	48.022	0	378.00	0	5.2050	0	33.9820	0	26.848	0	374.485	0	50.1	4	16.3	4	-1E+10	1	-1E+10	1	-1E+10	1	-1E+10	1	-1E+10	1	-1E+10	1
4902663	17	C	01/21/2024	01:15	-128.824	48.022	0	383.00	0	5.1630	0	33.9840	0	26.855	0	379.434	0	49.3	4	16.0	4	-1E+10	1	-1E+10	1	-1E+10	1	-1E+10	1	-1E+10	1	-1E+10	1
4902663	17	C	01/21/2024	01:15	-128.824	48.022	0	388.10	0	5.1380	0	33.9860	0	26.859	0	384.482	0	48.4	4	15.7	4	-1E+10	1	-1E+10	1	-1E+10	1	-1E+10	1	-1E+10	1	-1E+10	1
4902663	17	C	01/21/2024	01:15	-128.824	48.022	0	392.90	0	5.1040	0	33.9880	0	26.865	0	389.232	0	47.4	4	15.3	4	-1E+10	1	-1E+10	1	-1E+10	1	-1E+10	1	-1E+10	1	-1E+10	1
4902663	17	C	01/21/2024	01:15	-128.824	48.022	0	397.60	0	5.0550	0	33.9910	0	26.873	0	393.884	0	46.5	4	15.0	4	-1E+10	1	-1E+10	1	-1E+10	1	-1E+10	1	-1E+10	1	-1E+10	1
4902663	17	C	01/21/2024	01:15	-128.824	48.022	0	402.90	0	5.0240	0	33.9930	0	26.878	0	399.129	0	45.6	4	14.7	4	-1E+10	1	-1E+10	1	-1E+10	1	-1E+10	1	-1E+10	1	-1E+10	1
4902663	17	C	01/21/2024	01:15	-128.824	48.022	0	408.40	0	4.9970	0	33.9950	0	26.883	0	404.573	0	44.5	4	14.4	4	-1E+10	1	-1E+10	1	-1E+10	1	-1E+10	1	-1E+10	1	-1E+10	1
4902663	17	C	01/21/2024	01:15	-128.824	48.022	0	412.90	0	4.9680	0	33.9980	0	26.888	0	409.026	0	43.2	4	13.9	4	-1E+10	1	-1E+10	1	-1E+10	1	-1E+10	1	-1E+10	1	-1E+10	1
4902663	17	C	01/21/2024	01:15	-128.824	48.022	0	417.50	0	4.9700	0	34.0030	0	26.892	0	413.578	0	41.5	4	13.4	4	-1E+10	1	-1E+10	1	-1E+10	1	-1E+10	1	-1E+10	1	-1E+10	1
4902663	17	C	01/21/2024	01:15	-128.824	48.022	0	422.70	0	4.9860	0	34.0150	0	26.900	0	418.724	0	39.4	4	12.7	4	-1E+10	1	-1E+10	1	-1E+10	1	-1E+10	1	-1E+10	1	-1E+10	1
4902663	17	C	01/21/2024	01:15	-128.824	48.022	0	427.90	0	5.0060	0	34.0270	0	26.907	0	423.870	0	37.7	4	12.2	4	-1E+10	1	-1E+10	1	-1E+10	1	-1E+10	1	-1E+10	1	-1E+10	1
4902663	17	C	01/21/2024	01:15	-128.824	48.022	0	432.80	0	5.0160	0	34.0400	0	26.916	0	428.719	0	36.6	4	11.8	4	-1E+10	1	-1E+10	1	-1E+10	1	-1E+10	1	-1E+10	1	-1E+10	1
4902663	17	C	01/21/2024	01:15	-128.824	48.022	0	437.60	0	4.9830	0	34.0410	0	26.921	0	433.468	0	35.7	4	11.5	4	-1E+10	1	-1E+10	1	-1E+10	1	-1E+10	1	-1E+10	1	-1E+10	1
4902663	17	C	01/21/2024	01:15	-128.824	48.022	0	443.10	0	4.9780	0	34.0450	0	26.925	0	438.911	0	34.4	4	11.1	4	-1E+10	1	-1E+10	1	-1E+10	1	-1E+10	1	-1E+10	1	-1E+10	1
4902663	17	C	01/21/2024	01:15	-128.824	48.022	0	448.00	0	4.9690	0	34.0530	0	26.932	0	443.759	0	33.0	4	10.6	4	-1E+10	1	-1E+10	1	-1E+10	1	-1E+10	1	-1E+10	1	-1E+10	1
4902663	17	C	01/21/2024	01:15	-128.824	48.022	0	452.90	0	4.9950	0	34.0600	0	26.935	0	448.607	0	31.5	4	10.2	4	-1E+10	1	-1E+10	1	-1E+10	1	-1E+10	1	-1E+10	1	-1E+10	1
4902663	17	C	01/21/2024	01:15	-128.824	48.022	0	457.80	0	5.0020	0	34.0710	0	26.943	0	453.456	0	30.0	4	9.7	4	-1E+10	1	-1E+10	1	-1E+10	1	-1E+10	1	-1E+10	1	-1E+10	1
4902663	17	C	01/21/2024	01:15	-128.824	48.022	0	462.80	0	5.0190	0	34.0840	0	26.951	0	458.403	0	29.1	4	9.4	4	-1E+10	1	-1E+10	1	-1E+10	1	-1E+10	1	-1E+10	1	-1E+10	1
4902663	17	C	01/21/2024	01:15	-128.824	48.022	0	468.20	0	4.9750	0	34.0840	0	26.956	0	463.745	0	28.8	4	9.3	4	-1E+10	1	-1E+10	1	-1E+10	1	-1E+10	1	-1E+10	1	-1E+10	1
4902663	17	C	01/21/2024	01:15	-128.824	48.022	0	473.00	0	4.9580	0	34.0830	0	26.957	0	468.494	0	28.0	4	9.0	4	-1E+10	1	-1E+10	1	-1E+10	1	-1E+10	1	-1E+10	1	-1E+10	1
4902663	17	C	01/21/2024	01:15	-128.824	48.022	0	477.80	0	4.9570	0	34.0890	0	26.962	0	473.243	0	26.9	4	8.7	4	-1E+10	1	-1E+10	1	-1E+10	1	-1E+10	1	-1E+10	1	-1E+10	1
4902663	17	C	01/21/2024	01:15	-128.824	48.022	0	483.20	0	4.9720	0	34.0970	0	26.967	0	478.585	0	25.5	4	8.2	4	-1E+10	1	-1E+10	1	-1E+10	1	-1E+10	1	-1E+10	1	-1E+10	1
4902663	17	C	01/21/2024	01:15	-128.824	48.022	0	488.10	0	4.9890	0	34.1100	0	26.975	0	483.433	0	24.7	4	8.0	4	-1E+10	1	-1E+10	1	-1E+10	1	-1E+10	1	-1E+10	1	-1E+10	1
4902663	17	C	01/21/2024	01:15	-128.824	48.022	0	492.90	0	4.9790	0	34.1110	0	26.977	0	488.181	0	23.9	4	7.7	4	-1E+10	1	-1E+10	1	-1E+10	1	-1E+10	1	-1E+10	1	-1E+10	1
4902663	17	C	01/21/2024	01:15	-128.824	48.022	0	498.20	0	4.9580	0	34.1190	0	26.986	0	493.424	0	22.9	4	7.4	4	-1E+10	1	-1E+10	1	-1E+10	1	-1E+10	1	-1E+10	1	-1E+10	1
4902663	17	C	01/21/2024	01:15	-128.824	48.022	0	503.00	0	4.9480	0	34.1250	0	26.992	0	498.172	0	22.2	4	7.2	4	-1E+10	1	-1E+10	1	-1E+10	1	-1E+10	1	-1E+10	1	-1E+10	1
4902663	17	C	01/21/2024	01:15	-128.824	48.022	0	507.70	0	4.9390	0	34.1310	0	26.998	0	502.822	0	21.4	4	6.9	4	-1E+10	1	-1E+10	1	-1E+10	1	-1E+10	1	-1E+10	1	-1E+10	1
4902663	17	C	01/21/2024	01:15	-128.824	48.022	0	512.90	0	4.9210	0	34.1350	0	27.003	0	507.965	0	20.7	4	6.7	4	-1E+10	1	-1E+10	1	-1E+10	1	-1E+10	1	-1E+10	1	-1E+10	1
4902663	17	C	01/21/2024	01:15	-128.824	48.022	0	518.10	0	4.8950	0	34.1380	0	27.009	0	513.109	0	20.2	4	6.5	4	-1E+10	1	-1E+10	1	-1E+10	1	-1E+10	1	-1E+10	1	-1E+10	1
4902663	17	C	01/21/2024	01:15	-128.824	48.022	0	522.90	0	4.8740	0	34.1430	0	27.015	0	517.857	0	19.8	4	6.4	4	-1E+10	1	-1E+10	1	-1E+10	1	-1E+10	1	-1E+10	1	-1E+10	1
4902663	17	C	01/21/2024	01:15	-128.824	48.022	0	527.80	0	4.8590	0	34.1430	0	27.017	0	522.703	0	19.3	4	6.2	4	-1E+10	1	-1E+10	1	-1E+10	1	-1E+10	1	-1E+10	1	-1E+10	1
4902663	17	C	01/21/2024	01:15	-128.824	48.022	0	532.80	0	4.8260	0	34.1460	0	27.023	0	527.649	0	18.9	4	6.1	4	-1E+10	1	-1E+10	1	-1E+10	1	-1E+10	1	-1E+10	1	-1E+10	1
4902663	17	C	01/21/2024	01:15	-128.824	48.022	0	537.80	0	4.8190	0	34.1480	0	27.025	0	532.594	0	18.3	4	5.9	4	-1E+10	1	-1E+10	1	-1E+10	1	-1E+10	1	-1E+10	1	-1E+10	1
4902663	17	C	01/21/2024	01:15	-128.824	48.022	0	542.90	0	4.8340	0	34.1570	0	27.031	0	537.638	0	17.8	4	5.7	4	-1E+10	1	-1E+10	1	-1E+10	1	-1E+10	1	-1E+10	1	-1E+10	1
4902663	17	C	01/21/2024	01:15	-128.824	48.022	0	548.00	0	4.8190	0	34.1600	0	27.035	0	542.682	0	17.4	4	5.6	4	-1E+10	1	-1E+10	1	-1E+10	1	-1E+10	1	-1E+10	1	-1E+10	1
4902663	17	C	01/21/2024	01:15	-128.824	48.022	0	553.10	0	4.7820	0	34.1610	0	27.040	0	547.726	0	16.9	4	5.4	4	-1E+10	1	-1E+10	1	-1E+10	1	-1E+10	1	-1E+10	1	-1E+10	1
4902663	17	C	01/21/2024	01:15	-128.824	48.022	0	558.00	0	4.7680	0	34.1650	0	27.044	0	552.572	0	16.4	4	5.3	4	-1E+10	1	-1E+10	1	-1E+10	1	-1E+10	1	-1E+10	1	-1E+10	1
4902663	17	C	01/21/2024	01:15	-128.824	48.022	0	562.90	0	4.7470	0	34.1690	0	27.050	0	557.417	0	15.9	4	5.1	4	-1E+10	1	-1E+10	1	-1E+10	1	-1E+10	1	-1E+10	1	-1E+10	1
4902663	17	C	01/21/2024	01:15	-128.824	48.022	0	567.80	0	4.7180	0	34.1730	0	27.056	0	562.263	0	15.4	4	5.0	4	-1E+10	1	-1E+10	1	-1E+10	1	-1E+10	1	-1E+10	1	-1E+10	1
4902663	17	C	01/21/2024	01:15	-128.824	48.022	0	572.80	0	4.6980	0	34.1780	0	27.063	0	567.207	0	15.0	4	4.8	4	-1E+10	1	-1E+10	1	-1E+10	1	-1E+10	1	-1E+10	1	-1E+10	1
4902663	17	C	01/21/2024	01:15	-128.824	48.022	0	577.80	0	4.6870	0	34.1820	0	27.067	0	572.152	0	14.7	4	4.7	4	-1E+10	1	-1E+10	1	-1E+10	1	-1E+10	1	-1E+10	1	-1E+10	1
4902663	17	C	01/21/2024	01:15	-128.824	48.022	0	582.90	0	4.6800	0	34.1830	0	27.069	0	577.195	0	14.4	4	4.6	4	-1E+10	1	-1E+10	1	-1E+10	1	-1E+10	1	-1E+10	1	-1E+10	1
4902663	17	C	01/21/2024	01:15	-128.824	48.022	0	588.00	0	4.6680	0	34.1850	0	27.072	0	582.238	0	13.8	4	4.4	4	-1E+10	1	-1E+10	1	-1E+10	1	-1E+10	1	-1E+10	1	-1E+10	1
4902663	17	C	01/21/2024	01:15	-128.824	48.022	0	592.80	0	4.6380	0	34.1910	0	27.080	0	586.984	0	13.3	4	4.3	4	-1E+10	1	-1E+10	1	-1E+10	1	-1E+10	1	-1E+10	1	-1E+10	1
4902663	17	C	01/21/2024	01:15	-128.824	48.022	0	597.70	0	4.5960	0	34.1960	0	27.088	0	591.829	0	13.0	4	4.2	4	-1E+10	1	-1E+10	1	-1E+10	1	-1E+10	1	-1E+10	1	-1E+10	1
4902663	17	C	01/21/2024	01:15	-128.824	48.022	0	602.60	0	4.5420	0	34.1940	0	27.093	0	596.674	0	12.7	4	4.1	4	-1E+10	1	-1E+10	1	-1E+10	1	-1E+10	1	-1E+10	1	-1E+10	1
4902663	17	C	01/21/2024	01:15	-128.824	48.022	0	607.50	0	4.5710	0	34.2020	0	27.096	0	601.518	0	12.4	4	4.0	4	-1E+10	1	-1E+10	1	-1E+10	1	-1E+10	1	-1E+10	1	-1E+10	1
4902663	17	C	01/21/2024	01:15	-128.824	48.022	0	612.50	0	4.5490	0	34.2030	0	27.099	0	606.462	0	12.3	4	3.9	4	-1E+10	1	-1E+10	1	-1E+10	1	-1E+10	1	-1E+10	1	-1E+10	1
4902663	17	C	01/21/2024	01:15	-128.824	48.022	0	617.50	0	4.5190	0	34.2020	0	27.102	0	611.405	0	12.2	4	3.9	4	-1E+10	1	-1E+10	1	-1E+10	1	-1E+10	1	-1E+10	1	-1E+10	1
4902663	17	C	01/21/2024	01:15	-128.824	48.022	0	622.50	0	4.5130	0	34.2040	0	27.104	0	616.349	0	11.9	4	3.8	4	-1E+10	1	-1E+10	1	-1E+10	1	-1E+10	1	-1E+10	1	-1E+10	1
4902663	17	C	01/21/2024	01:15	-128.824	48.022	0	627.60	0	4.5020	0	34.2080	0	27.108	0	621.391	0	11.8	4	3.8	4	-1E+10	1	-1E+10	1	-1E+10	1	-1E+10	1	-1E+10	1	-1E+10	1
4902663	17	C	01/21/2024	01:15	-128.824	48.022	0	632.70	0	4.4670	0	34.2080	0	27.112	0	626.432	0	11.8	4	3.8	4	-1E+10	1	-1E+10	1	-1E+10	1	-1E+10	1	-1E+10	1	-1E+10	1
4902663	17	C	01/21/2024	01:15	-128.824	48.022	0	637.80	0	4.4280	0	34.2040	0	27.113	0	631.474	0	11.6	4	3.7	4	-1E+10	1	-1E+10	1	-1E+10	1	-1E+10	1	-1E+10	1	-1E+10	1
4902663	17	C	01/21/2024	01:15	-128.824	48.022	0	642.90	0	4.4260	0	34.2090	0	27.117	0	636.516	0	11.3	4	3.6	4	-1E+10	1	-1E+10	1	-1E+10	1	-1E+10	1	-1E+10	1	-1E+10	1
4902663	17	C	01/21/2024	01:15	-128.824	48.022	0	648.00	0	4.3940	0	34.2100	0	27.122	0	641.557	0	11.1	4	3.5	4	-1E+10	1	-1E+10	1	-1E+10	1	-1E+10	1	-1E+10	1	-1E+10	1
4902663	17	C	01/21/2024	01:15	-128.824	48.022	0	653.10	0	4.3660	0	34.2120	0	27.126	0	646.599	0	10.9	4	3.5	4	-1E+10	1	-1E+10	1	-1E+10	1	-1E+10	1	-1E+10	1	-1E+10	1
4902663	17	C	01/21/2024	01:15	-128.824	48.022	0	658.30	0	4.3510	0	34.2160	0	27.131	0	651.739	0	10.8	4	3.4	4	-1E+10	1	-1E+10	1	-1E+10	1	-1E+10	1	-1E+10	1	-1E+10	1
4902663	17	C	01/21/2024	01:15	-128.824	48.022	0	663.40	0	4.3380	0	34.2180	0	27.134	0	656.780	0	10.6	4	3.4	4	-1E+10	1	-1E+10	1	-1E+10	1	-1E+10	1	-1E+10	1	-1E+10	1
4902663	17	C	01/21/2024	01:15	-128.824	48.022	0	668.00	0	4.3310	0	34.2210	0	27.137	0	661.327	0	10.5	4	3.3	4	-1E+10	1	-1E+10	1	-1E+10	1	-1E+10	1	-1E+10	1	-1E+10	1
4902663	17	C	01/21/2024	01:15	-128.824	48.022	0	672.60	0	4.3260	0	34.2210	0	27.138	0	665.873	0	10.4	4	3.3	4	-1E+10	1	-1E+10	1	-1E+10	1	-1E+10	1	-1E+10	1	-1E+10	1
4902663	17	C	01/21/2024	01:15	-128.824	48.022	0	677.60	0	4.3200	0	34.2220	0	27.139	0	670.815	0	10.2	4	3.3	4	-1E+10	1	-1E+10	1	-1E+10	1	-1E+10	1	-1E+10	1	-1E+10	1
4902663	17	C	01/21/2024	01:15	-128.824	48.022	0	683.00	0	4.3100	0	34.2240	0	27.142	0	676.153	0	10.0	4	3.2	4	-1E+10	1	-1E+10	1	-1E+10	1	-1E+10	1	-1E+10	1	-1E+10	1
4902663	17	C	01/21/2024	01:15	-128.824	48.022	0	688.30	0	4.3040	0	34.2280	0	27.146	0	681.391	0	9.9	4	3.1	4	-1E+10	1	-1E+10	1	-1E+10	1	-1E+10	1	-1E+10	1	-1E+10	1
4902663	17	C	01/21/2024	01:15	-128.824	48.022	0	693.10	0	4.3030	0	34.2310	0	27.148	0	686.135	0	9.7	4	3.1	4	-1E+10	1	-1E+10	1	-1E+10	1	-1E+10	1	-1E+10	1	-1E+10	1
4902663	17	C	01/21/2024	01:15	-128.824	48.022	0	697.90	0	4.2970	0	34.2350	0	27.152	0	690.879	0	9.4	4	3.0	4	-1E+10	1	-1E+10	1	-1E+10	1	-1E+10	1	-1E+10	1	-1E+10	1
4902663	17	C	01/21/2024	01:15	-128.824	48.022	0	702.80	0	4.2910	0	34.2390	0	27.156	0	695.721	0	9.3	4	2.9	4	-1E+10	1	-1E+10	1	-1E+10	1	-1E+10	1	-1E+10	1	-1E+10	1
4902663	17	C	01/21/2024	01:15	-128.824	48.022	0	707.70	0	4.2900	0	34.2430	0	27.159	0	700.564	0	9.1	4	2.9	4	-1E+10	1	-1E+10	1	-1E+10	1	-1E+10	1	-1E+10	1	-1E+10	1
4902663	17	C	01/21/2024	01:15	-128.824	48.022	0	712.70	0	4.2800	0	34.2470	0	27.164	0	705.505	0	9.1	4	2.9	4	-1E+10	1	-1E+10	1	-1E+10	1	-1E+10	1	-1E+10	1	-1E+10	1
4902663	17	C	01/21/2024	01:15	-128.824	48.022	0	717.60	0	4.2700	0	34.2490	0	27.166	0	710.347	0	9.0	4	2.9	4	-1E+10	1	-1E+10	1	-1E+10	1	-1E+10	1	-1E+10	1	-1E+10	1
4902663	17	C	01/21/2024	01:15	-128.824	48.022	0	722.50	0	4.2640	0	34.2490	0	27.167	0	715.189	0	9.0	4	2.9	4	-1E+10	1	-1E+10	1	-1E+10	1	-1E+10	1	-1E+10	1	-1E+10	1
4902663	17	C	01/21/2024	01:15	-128.824	48.022	0	727.80	0	4.2550	0	34.2500	0	27.169	0	720.426	0	9.0	4	2.9	4	-1E+10	1	-1E+10	1	-1E+10	1	-1E+10	1	-1E+10	1	-1E+10	1
4902663	17	C	01/21/2024	01:15	-128.824	48.022	0	733.00	0	4.2440	0	34.2500	0	27.170	0	725.564	0	9.0	4	2.9	4	-1E+10	1	-1E+10	1	-1E+10	1	-1E+10	1	-1E+10	1	-1E+10	1
4902663	17	C	01/21/2024	01:15	-128.824	48.022	0	737.60	0	4.1840	0	34.2530	0	27.179	0	730.110	0	8.9	4	2.8	4	-1E+10	1	-1E+10	1	-1E+10	1	-1E+10	1	-1E+10	1	-1E+10	1
4902663	17	C	01/21/2024	01:15	-128.824	48.022	0	742.80	0	4.1660	0	34.2550	0	27.182	0	735.248	0	8.9	4	2.8	4	-1E+10	1	-1E+10	1	-1E+10	1	-1E+10	1	-1E+10	1	-1E+10	1
4902663	17	C	01/21/2024	01:15	-128.824	48.022	0	747.90	0	4.1590	0	34.2560	0	27.184	0	740.287	0	8.8	4	2.8	4	-1E+10	1	-1E+10	1	-1E+10	1	-1E+10	1	-1E+10	1	-1E+10	1
4902663	17	C	01/21/2024	01:15	-128.824	48.022	0	753.00	0	4.1340	0	34.2580	0	27.188	0	745.326	0	8.9	4	2.8	4	-1E+10	1	-1E+10	1	-1E+10	1	-1E+10	1	-1E+10	1	-1E+10	1
4902663	17	C	01/21/2024	01:15	-128.824	48.022	0	758.20	0	4.0840	0	34.2570	0	27.192	0	750.463	0	8.7	4	2.8	4	-1E+10	1	-1E+10	1	-1E+10	1	-1E+10	1	-1E+10	1	-1E+10	1
4902663	17	C	01/21/2024	01:15	-128.824	48.022	0	762.90	0	4.0650	0	34.2620	0	27.198	0	755.107	0	8.2	4	2.6	4	-1E+10	1	-1E+10	1	-1E+10	1	-1E+10	1	-1E+10	1	-1E+10	1
4902663	17	C	01/21/2024	01:15	-128.824	48.022	0	767.70	0	4.0960	0	34.2750	0	27.205	0	759.849	0	8.0	4	2.5	4	-1E+10	1	-1E+10	1	-1E+10	1	-1E+10	1	-1E+10	1	-1E+10	1
4902663	17	C	01/21/2024	01:15	-128.824	48.022	0	772.50	0	4.0930	0	34.2810	0	27.211	0	764.591	0	7.8	4	2.5	4	-1E+10	1	-1E+10	1	-1E+10	1	-1E+10	1	-1E+10	1	-1E+10	1
4902663	17	C	01/21/2024	01:15	-128.824	48.022	0	777.50	0	4.1010	0	34.2850	0	27.213	0	769.531	0	7.7	4	2.5	4	-1E+10	1	-1E+10	1	-1E+10	1	-1E+10	1	-1E+10	1	-1E+10	1
4902663	17	C	01/21/2024	01:15	-128.824	48.022	0	782.90	0	4.0700	0	34.2860	0	27.217	0	774.866	0	7.8	4	2.5	4	-1E+10	1	-1E+10	1	-1E+10	1	-1E+10	1	-1E+10	1	-1E+10	1
4902663	17	C	01/21/2024	01:15	-128.824	48.022	0	788.30	0	4.0580	0	34.2870	0	27.219	0	780.200	0	7.8	4	2.5	4	-1E+10	1	-1E+10	1	-1E+10	1	-1E+10	1	-1E+10	1	-1E+10	1
4902663	17	C	01/21/2024	01:15	-128.824	48.022	0	793.40	0	4.0180	0	34.2880	0	27.224	0	785.238	0	7.9	4	2.5	4	-1E+10	1	-1E+10	1	-1E+10	1	-1E+10	1	-1E+10	1	-1E+10	1
4902663	17	C	01/21/2024	01:15	-128.824	48.022	0	798.40	0	3.9930	0	34.2880	0	27.227	0	790.177	0	8.0	4	2.5	4	-1E+10	1	-1E+10	1	-1E+10	1	-1E+10	1	-1E+10	1	-1E+10	1
4902663	17	C	01/21/2024	01:15	-128.824	48.022	0	803.00	0	3.9740	0	34.2870	0	27.228	0	794.721	0	8.0	4	2.5	4	-1E+10	1	-1E+10	1	-1E+10	1	-1E+10	1	-1E+10	1	-1E+10	1
4902663	17	C	01/21/2024	01:15	-128.824	48.022	0	807.60	0	3.9650	0	34.2880	0	27.230	0	799.265	0	8.0	4	2.5	4	-1E+10	1	-1E+10	1	-1E+10	1	-1E+10	1	-1E+10	1	-1E+10	1
4902663	17	C	01/21/2024	01:15	-128.824	48.022	0	813.00	0	3.9380	0	34.2900	0	27.234	0	804.599	0	8.0	4	2.5	4	-1E+10	1	-1E+10	1	-1E+10	1	-1E+10	1	-1E+10	1	-1E+10	1
4902663	17	C	01/21/2024	01:15	-128.824	48.022	0	818.00	0	3.9060	0	34.2920	0	27.239	0	809.537	0	8.1	4	2.6	4	-1E+10	1	-1E+10	1	-1E+10	1	-1E+10	1	-1E+10	1	-1E+10	1
4902663	17	C	01/21/2024	01:15	-128.824	48.022	0	822.70	0	3.8600	0	34.2920	0	27.243	0	814.180	0	8.1	4	2.5	4	-1E+10	1	-1E+10	1	-1E+10	1	-1E+10	1	-1E+10	1	-1E+10	1
4902663	17	C	01/21/2024	01:15	-128.824	48.022	0	827.80	0	3.8320	0	34.2950	0	27.249	0	819.217	0	8.0	4	2.5	4	-1E+10	1	-1E+10	1	-1E+10	1	-1E+10	1	-1E+10	1	-1E+10	1
4902663	17	C	01/21/2024	01:15	-128.824	48.022	0	833.00	0	3.8230	0	34.2980	0	27.252	0	824.353	0	8.0	4	2.5	4	-1E+10	1	-1E+10	1	-1E+10	1	-1E+10	1	-1E+10	1	-1E+10	1
4902663	17	C	01/21/2024	01:15	-128.824	48.022	0	838.00	0	3.8100	0	34.3010	0	27.256	0	829.291	0	8.0	4	2.5	4	-1E+10	1	-1E+10	1	-1E+10	1	-1E+10	1	-1E+10	1	-1E+10	1
4902663	17	C	01/21/2024	01:15	-128.824	48.022	0	843.00	0	3.7960	0	34.3020	0	27.258	0	834.229	0	7.9	4	2.5	4	-1E+10	1	-1E+10	1	-1E+10	1	-1E+10	1	-1E+10	1	-1E+10	1
4902663	17	C	01/21/2024	01:15	-128.824	48.022	0	848.20	0	3.7890	0	34.3050	0	27.261	0	839.364	0	7.8	4	2.5	4	-1E+10	1	-1E+10	1	-1E+10	1	-1E+10	1	-1E+10	1	-1E+10	1
4902663	17	C	01/21/2024	01:15	-128.824	48.022	0	853.00	0	3.7700	0	34.3080	0	27.265	0	844.105	0	7.7	4	2.4	4	-1E+10	1	-1E+10	1	-1E+10	1	-1E+10	1	-1E+10	1	-1E+10	1
4902663	17	C	01/21/2024	01:15	-128.824	48.022	0	857.90	0	3.7570	0	34.3130	0	27.271	0	848.944	0	7.6	4	2.4	4	-1E+10	1	-1E+10	1	-1E+10	1	-1E+10	1	-1E+10	1	-1E+10	1
4902663	17	C	01/21/2024	01:15	-128.824	48.022	0	862.80	0	3.7530	0	34.3190	0	27.276	0	853.782	0	7.5	4	2.4	4	-1E+10	1	-1E+10	1	-1E+10	1	-1E+10	1	-1E+10	1	-1E+10	1
4902663	17	C	01/21/2024	01:15	-128.824	48.022	0	867.80	0	3.7440	0	34.3220	0	27.279	0	858.720	0	7.4	4	2.3	4	-1E+10	1	-1E+10	1	-1E+10	1	-1E+10	1	-1E+10	1	-1E+10	1
4902663	17	C	01/21/2024	01:15	-128.824	48.022	0	872.80	0	3.7310	0	34.3250	0	27.283	0	863.657	0	7.4	4	2.3	4	-1E+10	1	-1E+10	1	-1E+10	1	-1E+10	1	-1E+10	1	-1E+10	1
4902663	17	C	01/21/2024	01:15	-128.824	48.022	0	877.80	0	3.7200	0	34.3280	0	27.286	0	868.595	0	7.4	4	2.3	4	-1E+10	1	-1E+10	1	-1E+10	1	-1E+10	1	-1E+10	1	-1E+10	1
4902663	17	C	01/21/2024	01:15	-128.824	48.022	0	882.90	0	3.7160	0	34.3290	0	27.288	0	873.630	0	7.4	4	2.3	4	-1E+10	1	-1E+10	1	-1E+10	1	-1E+10	1	-1E+10	1	-1E+10	1
4902663	17	C	01/21/2024	01:15	-128.824	48.022	0	887.60	0	3.7080	0	34.3320	0	27.291	0	878.271	0	7.4	4	2.3	4	-1E+10	1	-1E+10	1	-1E+10	1	-1E+10	1	-1E+10	1	-1E+10	1
4902663	17	C	01/21/2024	01:15	-128.824	48.022	0	892.80	0	3.7030	0	34.3330	0	27.292	0	883.406	0	7.4	4	2.3	4	-1E+10	1	-1E+10	1	-1E+10	1	-1E+10	1	-1E+10	1	-1E+10	1
4902663	17	C	01/21/2024	01:15	-128.824	48.022	0	898.00	0	3.6890	0	34.3350	0	27.295	0	888.540	0	7.4	4	2.3	4	-1E+10	1	-1E+10	1	-1E+10	1	-1E+10	1	-1E+10	1	-1E+10	1
4902663	17	C	01/21/2024	01:15	-128.824	48.022	0	902.80	0	3.6830	0	34.3390	0	27.299	0	893.279	0	7.3	4	2.3	4	-1E+10	1	-1E+10	1	-1E+10	1	-1E+10	1	-1E+10	1	-1E+10	1
4902663	17	C	01/21/2024	01:15	-128.824	48.022	0	907.70	0	3.6700	0	34.3420	0	27.303	0	898.117	0	7.3	4	2.3	4	-1E+10	1	-1E+10	1	-1E+10	1	-1E+10	1	-1E+10	1	-1E+10	1
4902663	17	C	01/21/2024	01:15	-128.824	48.022	0	912.60	0	3.6900	0	34.3480	0	27.306	0	902.955	0	7.3	4	2.3	4	-1E+10	1	-1E+10	1	-1E+10	1	-1E+10	1	-1E+10	1	-1E+10	1
4902663	17	C	01/21/2024	01:15	-128.824	48.022	0	917.50	0	3.6840	0	34.3540	0	27.311	0	907.792	0	7.4	4	2.3	4	-1E+10	1	-1E+10	1	-1E+10	1	-1E+10	1	-1E+10	1	-1E+10	1
4902663	17	C	01/21/2024	01:15	-128.824	48.022	0	922.50	0	3.6650	0	34.3550	0	27.314	0	912.728	0	7.4	4	2.3	4	-1E+10	1	-1E+10	1	-1E+10	1	-1E+10	1	-1E+10	1	-1E+10	1
4902663	17	C	01/21/2024	01:15	-128.824	48.022	0	927.40	0	3.6540	0	34.3570	0	27.316	0	917.566	0	7.4	4	2.3	4	-1E+10	1	-1E+10	1	-1E+10	1	-1E+10	1	-1E+10	1	-1E+10	1
4902663	17	C	01/21/2024	01:15	-128.824	48.022	0	932.50	0	3.6500	0	34.3630	0	27.322	0	922.600	0	7.5	4	2.3	4	-1E+10	1	-1E+10	1	-1E+10	1	-1E+10	1	-1E+10	1	-1E+10	1
4902663	17	C	01/21/2024	01:15	-128.824	48.022	0	937.50	0	3.6430	0	34.3650	0	27.324	0	927.536	0	7.5	4	2.4	4	-1E+10	1	-1E+10	1	-1E+10	1	-1E+10	1	-1E+10	1	-1E+10	1
4902663	17	C	01/21/2024	01:15	-128.824	48.022	0	942.50	0	3.6340	0	34.3660	0	27.326	0	932.472	0	7.5	4	2.4	4	-1E+10	1	-1E+10	1	-1E+10	1	-1E+10	1	-1E+10	1	-1E+10	1
4902663	17	C	01/21/2024	01:15	-128.824	48.022	0	947.60	0	3.6290	0	34.3670	0	27.327	0	937.506	0	7.6	4	2.4	4	-1E+10	1	-1E+10	1	-1E+10	1	-1E+10	1	-1E+10	1	-1E+10	1
4902663	17	C	01/21/2024	01:15	-128.824	48.022	0	952.60	0	3.6240	0	34.3690	0	27.329	0	942.442	0	7.6	4	2.4	4	-1E+10	1	-1E+10	1	-1E+10	1	-1E+10	1	-1E+10	1	-1E+10	1
4902663	17	C	01/21/2024	01:15	-128.824	48.022	0	957.60	0	3.6110	0	34.3700	0	27.331	0	947.377	0	7.7	4	2.4	4	-1E+10	1	-1E+10	1	-1E+10	1	-1E+10	1	-1E+10	1	-1E+10	1
4902663	17	C	01/21/2024	01:15	-128.824	48.022	0	962.60	0	3.5950	0	34.3720	0	27.334	0	952.312	0	7.8	4	2.4	4	-1E+10	1	-1E+10	1	-1E+10	1	-1E+10	1	-1E+10	1	-1E+10	1
4902663	17	C	01/21/2024	01:15	-128.824	48.022	0	967.60	0	3.5710	0	34.3760	0	27.340	0	957.248	0	7.8	4	2.4	4	-1E+10	1	-1E+10	1	-1E+10	1	-1E+10	1	-1E+10	1	-1E+10	1
4902663	17	C	01/21/2024	01:15	-128.824	48.022	0	972.70	0	3.5560	0	34.3780	0	27.343	0	962.281	0	7.9	4	2.5	4	-1E+10	1	-1E+10	1	-1E+10	1	-1E+10	1	-1E+10	1	-1E+10	1
4902663	17	C	01/21/2024	01:15	-128.824	48.022	0	977.70	0	3.5460	0	34.3790	0	27.345	0	967.216	0	7.9	4	2.5	4	-1E+10	1	-1E+10	1	-1E+10	1	-1E+10	1	-1E+10	1	-1E+10	1
4902663	17	C	01/21/2024	01:15	-128.824	48.022	0	982.70	0	3.5390	0	34.3800	0	27.346	0	972.151	0	8.0	4	2.5	4	-1E+10	1	-1E+10	1	-1E+10	1	-1E+10	1	-1E+10	1	-1E+10	1
4902663	17	C	01/21/2024	01:15	-128.824	48.022	0	987.80	0	3.5260	0	34.3820	0	27.349	0	977.184	0	8.1	4	2.5	4	-1E+10	1	-1E+10	1	-1E+10	1	-1E+10	1	-1E+10	1	-1E+10	1
4902663	17	C	01/21/2024	01:15	-128.824	48.022	0	993.00	0	3.5050	0	34.3840	0	27.353	0	982.316	0	8.1	4	2.5	4	-1E+10	1	-1E+10	1	-1E+10	1	-1E+10	1	-1E+10	1	-1E+10	1
4902663	17	C	01/21/2024	01:15	-128.824	48.022	0	998.20	0	3.4930	0	34.3850	0	27.355	0	987.448	0	8.2	4	2.6	4	-1E+10	1	-1E+10	1	-1E+10	1	-1E+10	1	-1E+10	1	-1E+10	1
4902663	17	C	01/21/2024	01:15	-128.824	48.022	0	1005.40	0	3.4620	0	34.3880	0	27.360	0	994.553	0	8.3	4	2.6	4	-1E+10	1	-1E+10	1	-1E+10	1	-1E+10	1	-1E+10	1	-1E+10	1
4902663	17	C	01/21/2024	01:15	-128.824	48.022	0	1015.40	0	3.4290	0	34.3930	0	27.367	0	1004.422	0	8.5	4	2.7	4	-1E+10	1	-1E+10	1	-1E+10	1	-1E+10	1	-1E+10	1	-1E+10	1
4902663	17	C	01/21/2024	01:15	-128.824	48.022	0	1025.20	0	3.4130	0	34.3970	0	27.372	0	1014.092	0	8.7	4	2.7	4	-1E+10	1	-1E+10	1	-1E+10	1	-1E+10	1	-1E+10	1	-1E+10	1
4902663	17	C	01/21/2024	01:15	-128.824	48.022	0	1035.20	0	3.3940	0	34.4010	0	27.377	0	1023.959	0	8.9	4	2.8	4	-1E+10	1	-1E+10	1	-1E+10	1	-1E+10	1	-1E+10	1	-1E+10	1
4902663	17	C	01/21/2024	01:15	-128.824	48.022	0	1045.20	0	3.3720	0	34.4040	0	27.382	0	1033.826	0	9.1	4	2.8	4	-1E+10	1	-1E+10	1	-1E+10	1	-1E+10	1	-1E+10	1	-1E+10	1
4902663	17	C	01/21/2024	01:15	-128.824	48.022	0	1055.30	0	3.3670	0	34.4070	0	27.385	0	1043.791	0	9.2	4	2.9	4	-1E+10	1	-1E+10	1	-1E+10	1	-1E+10	1	-1E+10	1	-1E+10	1
4902663	17	C	01/21/2024	01:15	-128.824	48.022	0	1065.40	0	3.3510	0	34.4110	0	27.389	0	1053.755	0	9.4	4	2.9	4	-1E+10	1	-1E+10	1	-1E+10	1	-1E+10	1	-1E+10	1	-1E+10	1
4902663	17	C	01/21/2024	01:15	-128.824	48.022	0	1075.60	0	3.3170	0	34.4140	0	27.395	0	1063.818	0	9.6	4	3.0	4	-1E+10	1	-1E+10	1	-1E+10	1	-1E+10	1	-1E+10	1	-1E+10	1
4902663	17	C	01/21/2024	01:15	-128.824	48.022	0	1085.80	0	3.2850	0	34.4160	0	27.400	0	1073.880	0	9.8	4	3.0	4	-1E+10	1	-1E+10	1	-1E+10	1	-1E+10	1	-1E+10	1	-1E+10	1
4902663	17	C	01/21/2024	01:15	-128.824	48.022	0	1095.20	0	3.2620	0	34.4180	0	27.404	0	1083.153	0	10.0	4	3.1	4	-1E+10	1	-1E+10	1	-1E+10	1	-1E+10	1	-1E+10	1	-1E+10	1
4902663	17	C	01/21/2024	01:15	-128.824	48.022	0	1105.20	0	3.2280	0	34.4220	0	27.410	0	1093.017	0	10.3	4	3.2	4	-1E+10	1	-1E+10	1	-1E+10	1	-1E+10	1	-1E+10	1	-1E+10	1
4902663	17	C	01/21/2024	01:15	-128.824	48.022	0	1115.30	0	3.2000	0	34.4270	0	27.417	0	1102.979	0	10.6	4	3.3	4	-1E+10	1	-1E+10	1	-1E+10	1	-1E+10	1	-1E+10	1	-1E+10	1
4902663	17	C	01/21/2024	01:15	-128.824	48.022	0	1125.40	0	3.1760	0	34.4290	0	27.420	0	1112.941	0	10.8	4	3.3	4	-1E+10	1	-1E+10	1	-1E+10	1	-1E+10	1	-1E+10	1	-1E+10	1
4902663	17	C	01/21/2024	01:15	-128.824	48.022	0	1135.60	0	3.1560	0	34.4310	0	27.424	0	1123.000	0	11.0	4	3.4	4	-1E+10	1	-1E+10	1	-1E+10	1	-1E+10	1	-1E+10	1	-1E+10	1
4902663	17	C	01/21/2024	01:15	-128.824	48.022	0	1145.50	0	3.1350	0	34.4340	0	27.428	0	1132.764	0	11.3	4	3.5	4	-1E+10	1	-1E+10	1	-1E+10	1	-1E+10	1	-1E+10	1	-1E+10	1
4902663	17	C	01/21/2024	01:15	-128.824	48.022	0	1155.50	0	3.1070	0	34.4380	0	27.434	0	1142.626	0	11.7	4	3.6	4	-1E+10	1	-1E+10	1	-1E+10	1	-1E+10	1	-1E+10	1	-1E+10	1
4902663	17	C	01/21/2024	01:15	-128.824	48.022	0	1165.60	0	3.0900	0	34.4420	0	27.439	0	1152.585	0	12.0	4	3.7	4	-1E+10	1	-1E+10	1	-1E+10	1	-1E+10	1	-1E+10	1	-1E+10	1
4902663	17	C	01/21/2024	01:15	-128.824	48.022	0	1175.30	0	3.0720	0	34.4440	0	27.442	0	1162.150	0	12.2	4	3.8	4	-1E+10	1	-1E+10	1	-1E+10	1	-1E+10	1	-1E+10	1	-1E+10	1
4902663	17	C	01/21/2024	01:15	-128.824	48.022	0	1185.10	0	3.0420	0	34.4470	0	27.447	0	1171.813	0	12.6	4	3.9	4	-1E+10	1	-1E+10	1	-1E+10	1	-1E+10	1	-1E+10	1	-1E+10	1
4902663	17	C	01/21/2024	01:15	-128.824	48.022	0	1195.20	0	3.0210	0	34.4500	0	27.452	0	1181.772	0	12.9	4	4.0	4	-1E+10	1	-1E+10	1	-1E+10	1	-1E+10	1	-1E+10	1	-1E+10	1
4902663	17	C	01/21/2024	01:15	-128.824	48.022	0	1205.50	0	3.0020	0	34.4530	0	27.456	0	1191.927	0	13.3	4	4.1	4	-1E+10	1	-1E+10	1	-1E+10	1	-1E+10	1	-1E+10	1	-1E+10	1
4902663	17	C	01/21/2024	01:15	-128.824	48.022	0	1215.60	0	2.9820	0	34.4560	0	27.460	0	1201.884	0	13.6	4	4.2	4	-1E+10	1	-1E+10	1	-1E+10	1	-1E+10	1	-1E+10	1	-1E+10	1
4902663	17	C	01/21/2024	01:15	-128.824	48.022	0	1225.30	0	2.9640	0	34.4580	0	27.463	0	1211.447	0	13.9	4	4.3	4	-1E+10	1	-1E+10	1	-1E+10	1	-1E+10	1	-1E+10	1	-1E+10	1
4902663	17	C	01/21/2024	01:15	-128.824	48.022	0	1235.20	0	2.9500	0	34.4610	0	27.467	0	1221.206	0	14.3	4	4.4	4	-1E+10	1	-1E+10	1	-1E+10	1	-1E+10	1	-1E+10	1	-1E+10	1
4902663	17	C	01/21/2024	01:15	-128.824	48.022	0	1245.30	0	2.9310	0	34.4630	0	27.470	0	1231.162	0	14.8	4	4.6	4	-1E+10	1	-1E+10	1	-1E+10	1	-1E+10	1	-1E+10	1	-1E+10	1
4902663	17	C	01/21/2024	01:15	-128.824	48.022	0	1255.20	0	2.9030	0	34.4670	0	27.476	0	1240.921	0	15.4	4	4.7	4	-1E+10	1	-1E+10	1	-1E+10	1	-1E+10	1	-1E+10	1	-1E+10	1
4902663	17	C	01/21/2024	01:15	-128.824	48.022	0	1265.20	0	2.8800	0	34.4710	0	27.482	0	1250.777	0	15.8	4	4.9	4	-1E+10	1	-1E+10	1	-1E+10	1	-1E+10	1	-1E+10	1	-1E+10	1
4902663	17	C	01/21/2024	01:15	-128.824	48.022	0	1275.20	0	2.8620	0	34.4730	0	27.485	0	1260.633	0	16.2	4	5.0	4	-1E+10	1	-1E+10	1	-1E+10	1	-1E+10	1	-1E+10	1	-1E+10	1
4902663	17	C	01/21/2024	01:15	-128.824	48.022	0	1285.10	0	2.8440	0	34.4760	0	27.489	0	1270.390	0	16.5	4	5.1	4	-1E+10	1	-1E+10	1	-1E+10	1	-1E+10	1	-1E+10	1	-1E+10	1
4902663	17	C	01/21/2024	01:15	-128.824	48.022	0	1295.60	0	2.8280	0	34.4780	0	27.492	0	1280.738	0	16.9	4	5.2	4	-1E+10	1	-1E+10	1	-1E+10	1	-1E+10	1	-1E+10	1	-1E+10	1
4902663	17	C	01/21/2024	01:15	-128.824	48.022	0	1305.40	0	2.8140	0	34.4790	0	27.494	0	1290.396	0	17.3	4	5.3	4	-1E+10	1	-1E+10	1	-1E+10	1	-1E+10	1	-1E+10	1	-1E+10	1
4902663	17	C	01/21/2024	01:15	-128.824	48.022	0	1315.10	0	2.7950	0	34.4820	0	27.498	0	1299.954	0	17.7	4	5.4	4	-1E+10	1	-1E+10	1	-1E+10	1	-1E+10	1	-1E+10	1	-1E+10	1
4902663	17	C	01/21/2024	01:15	-128.824	48.022	0	1325.40	0	2.7790	0	34.4840	0	27.501	0	1310.104	0	18.2	4	5.6	4	-1E+10	1	-1E+10	1	-1E+10	1	-1E+10	1	-1E+10	1	-1E+10	1
4902663	17	C	01/21/2024	01:15	-128.824	48.022	0	1335.20	0	2.7520	0	34.4870	0	27.506	0	1319.760	0	18.8	4	5.8	4	-1E+10	1	-1E+10	1	-1E+10	1	-1E+10	1	-1E+10	1	-1E+10	1
4902663	17	C	01/21/2024	01:15	-128.824	48.022	0	1345.00	0	2.7310	0	34.4900	0	27.510	0	1329.416	0	19.4	4	6.0	4	-1E+10	1	-1E+10	1	-1E+10	1	-1E+10	1	-1E+10	1	-1E+10	1
4902663	17	C	01/21/2024	01:15	-128.824	48.022	0	1355.30	0	2.7080	0	34.4930	0	27.515	0	1339.564	0	19.9	4	6.1	4	-1E+10	1	-1E+10	1	-1E+10	1	-1E+10	1	-1E+10	1	-1E+10	1
4902663	17	C	01/21/2024	01:15	-128.824	48.022	0	1365.60	0	2.6910	0	34.4950	0	27.518	0	1349.711	0	20.4	4	6.3	4	-1E+10	1	-1E+10	1	-1E+10	1	-1E+10	1	-1E+10	1	-1E+10	1
4902663	17	C	01/21/2024	01:15	-128.824	48.022	0	1375.50	0	2.6700	0	34.4970	0	27.521	0	1359.464	0	20.9	4	6.4	4	-1E+10	1	-1E+10	1	-1E+10	1	-1E+10	1	-1E+10	1	-1E+10	1
4902663	17	C	01/21/2024	01:15	-128.824	48.022	0	1385.50	0	2.6540	0	34.4990	0	27.524	0	1369.315	0	21.3	4	6.5	4	-1E+10	1	-1E+10	1	-1E+10	1	-1E+10	1	-1E+10	1	-1E+10	1
4902663	17	C	01/21/2024	01:15	-128.824	48.022	0	1395.70	0	2.6410	0	34.5010	0	27.527	0	1379.363	0	21.8	4	6.7	4	-1E+10	1	-1E+10	1	-1E+10	1	-1E+10	1	-1E+10	1	-1E+10	1
4902663	17	C	01/21/2024	01:15	-128.824	48.022	0	1405.30	0	2.6230	0	34.5040	0	27.531	0	1388.819	0	22.5	4	6.9	4	-1E+10	1	-1E+10	1	-1E+10	1	-1E+10	1	-1E+10	1	-1E+10	1
4902663	17	C	01/21/2024	01:15	-128.824	48.022	0	1415.50	0	2.6070	0	34.5060	0	27.534	0	1398.865	0	22.9	4	7.0	4	-1E+10	1	-1E+10	1	-1E+10	1	-1E+10	1	-1E+10	1	-1E+10	1
4902663	17	C	01/21/2024	01:15	-128.824	48.022	0	1425.30	0	2.5950	0	34.5070	0	27.536	0	1408.518	0	23.4	4	7.1	4	-1E+10	1	-1E+10	1	-1E+10	1	-1E+10	1	-1E+10	1	-1E+10	1
4902663	17	C	01/21/2024	01:15	-128.824	48.022	0	1435.20	0	2.5770	0	34.5100	0	27.540	0	1418.268	0	24.0	4	7.3	4	-1E+10	1	-1E+10	1	-1E+10	1	-1E+10	1	-1E+10	1	-1E+10	1
4902663	17	C	01/21/2024	01:15	-128.824	48.022	0	1445.30	0	2.5540	0	34.5110	0	27.543	0	1428.214	0	24.2	4	7.4	4	-1E+10	1	-1E+10	1	-1E+10	1	-1E+10	1	-1E+10	1	-1E+10	1
4902663	17	C	01/21/2024	01:15	-128.824	48.022	0	1455.20	0	2.5320	0	34.5120	0	27.545	0	1437.964	0	24.7	4	7.5	4	-1E+10	1	-1E+10	1	-1E+10	1	-1E+10	1	-1E+10	1	-1E+10	1
4902663	17	C	01/21/2024	01:15	-128.824	48.022	0	1465.30	0	2.5120	0	34.5130	0	27.548	0	1447.909	0	25.2	4	7.7	4	-1E+10	1	-1E+10	1	-1E+10	1	-1E+10	1	-1E+10	1	-1E+10	1
4902663	17	C	01/21/2024	01:15	-128.824	48.022	0	1475.50	0	2.4920	0	34.5140	0	27.550	0	1457.953	0	25.6	4	7.8	4	-1E+10	1	-1E+10	1	-1E+10	1	-1E+10	1	-1E+10	1	-1E+10	1
4902663	17	C	01/21/2024	01:15	-128.824	48.022	0	1485.30	0	2.4770	0	34.5160	0	27.553	0	1467.603	0	26.1	4	8.0	4	-1E+10	1	-1E+10	1	-1E+10	1	-1E+10	1	-1E+10	1	-1E+10	1
4902663	17	C	01/21/2024	01:15	-128.824	48.022	0	1495.20	0	2.4590	0	34.5170	0	27.556	0	1477.350	0	26.6	4	8.1	4	-1E+10	1	-1E+10	1	-1E+10	1	-1E+10	1	-1E+10	1	-1E+10	1
4902663	17	C	01/21/2024	01:15	-128.824	48.022	0	1505.30	0	2.4430	0	34.5190	0	27.559	0	1487.294	0	27.2	4	8.3	4	-1E+10	1	-1E+10	1	-1E+10	1	-1E+10	1	-1E+10	1	-1E+10	1
4902663	17	C	01/21/2024	01:15	-128.824	48.022	0	1515.20	0	2.4270	0	34.5210	0	27.562	0	1497.040	0	27.7	4	8.4	4	-1E+10	1	-1E+10	1	-1E+10	1	-1E+10	1	-1E+10	1	-1E+10	1
4902663	17	C	01/21/2024	01:15	-128.824	48.022	0	1525.30	0	2.4100	0	34.5230	0	27.565	0	1506.984	0	28.4	4	8.7	4	-1E+10	1	-1E+10	1	-1E+10	1	-1E+10	1	-1E+10	1	-1E+10	1
4902663	17	C	01/21/2024	01:15	-128.824	48.022	0	1535.60	0	2.3980	0	34.5260	0	27.568	0	1517.123	0	29.1	4	8.8	4	-1E+10	1	-1E+10	1	-1E+10	1	-1E+10	1	-1E+10	1	-1E+10	1
4902663	17	C	01/21/2024	01:15	-128.824	48.022	0	1545.90	0	2.3840	0	34.5280	0	27.571	0	1527.262	0	29.5	4	9.0	4	-1E+10	1	-1E+10	1	-1E+10	1	-1E+10	1	-1E+10	1	-1E+10	1
4902663	17	C	01/21/2024	01:15	-128.824	48.022	0	1555.30	0	2.3700	0	34.5290	0	27.573	0	1536.514	0	30.2	4	9.2	4	-1E+10	1	-1E+10	1	-1E+10	1	-1E+10	1	-1E+10	1	-1E+10	1
4902663	17	C	01/21/2024	01:15	-128.824	48.022	0	1565.20	0	2.3460	0	34.5320	0	27.577	0	1546.259	0	30.7	4	9.3	4	-1E+10	1	-1E+10	1	-1E+10	1	-1E+10	1	-1E+10	1	-1E+10	1
4902663	17	C	01/21/2024	01:15	-128.824	48.022	0	1575.30	0	2.3330	0	34.5320	0	27.579	0	1556.199	0	31.1	4	9.4	4	-1E+10	1	-1E+10	1	-1E+10	1	-1E+10	1	-1E+10	1	-1E+10	1
4902663	17	C	01/21/2024	01:15	-128.824	48.022	0	1585.60	0	2.3220	0	34.5340	0	27.581	0	1566.336	0	31.5	4	9.6	4	-1E+10	1	-1E+10	1	-1E+10	1	-1E+10	1	-1E+10	1	-1E+10	1
4902663	17	C	01/21/2024	01:15	-128.824	48.022	0	1595.50	0	2.3140	0	34.5350	0	27.583	0	1576.079	0	32.0	4	9.7	4	-1E+10	1	-1E+10	1	-1E+10	1	-1E+10	1	-1E+10	1	-1E+10	1
4902663	17	C	01/21/2024	01:15	-128.824	48.022	0	1605.60	0	2.3030	0	34.5370	0	27.585	0	1586.018	0	32.4	4	9.8	4	-1E+10	1	-1E+10	1	-1E+10	1	-1E+10	1	-1E+10	1	-1E+10	1
4902663	17	C	01/21/2024	01:15	-128.824	48.022	0	1615.50	0	2.2890	0	34.5380	0	27.587	0	1595.760	0	32.9	4	10.0	4	-1E+10	1	-1E+10	1	-1E+10	1	-1E+10	1	-1E+10	1	-1E+10	1
4902663	17	C	01/21/2024	01:15	-128.824	48.022	0	1625.40	0	2.2660	0	34.5390	0	27.590	0	1605.502	0	33.5	4	10.2	4	-1E+10	1	-1E+10	1	-1E+10	1	-1E+10	1	-1E+10	1	-1E+10	1
4902663	17	C	01/21/2024	01:15	-128.824	48.022	0	1635.50	0	2.2570	0	34.5410	0	27.592	0	1615.440	0	34.0	4	10.3	4	-1E+10	1	-1E+10	1	-1E+10	1	-1E+10	1	-1E+10	1	-1E+10	1
4902663	17	C	01/21/2024	01:15	-128.824	48.022	0	1645.50	0	2.2470	0	34.5420	0	27.594	0	1625.279	0	34.7	4	10.5	4	-1E+10	1	-1E+10	1	-1E+10	1	-1E+10	1	-1E+10	1	-1E+10	1
4902663	17	C	01/21/2024	01:15	-128.824	48.022	0	1655.40	0	2.2360	0	34.5450	0	27.597	0	1635.019	0	35.3	4	10.7	4	-1E+10	1	-1E+10	1	-1E+10	1	-1E+10	1	-1E+10	1	-1E+10	1
4902663	17	C	01/21/2024	01:15	-128.824	48.022	0	1665.30	0	2.2170	0	34.5470	0	27.600	0	1644.759	0	36.1	4	10.9	4	-1E+10	1	-1E+10	1	-1E+10	1	-1E+10	1	-1E+10	1	-1E+10	1
4902663	17	C	01/21/2024	01:15	-128.824	48.022	0	1675.30	0	2.2050	0	34.5480	0	27.602	0	1654.596	0	36.6	4	11.1	4	-1E+10	1	-1E+10	1	-1E+10	1	-1E+10	1	-1E+10	1	-1E+10	1
4902663	17	C	01/21/2024	01:15	-128.824	48.022	0	1685.30	0	2.1940	0	34.5490	0	27.604	0	1664.434	0	37.2	4	11.3	4	-1E+10	1	-1E+10	1	-1E+10	1	-1E+10	1	-1E+10	1	-1E+10	1
4902663	17	C	01/21/2024	01:15	-128.824	48.022	0	1695.30	0	2.1800	0	34.5510	0	27.607	0	1674.270	0	38.1	4	11.5	4	-1E+10	1	-1E+10	1	-1E+10	1	-1E+10	1	-1E+10	1	-1E+10	1
4902663	17	C	01/21/2024	01:15	-128.824	48.022	0	1705.60	0	2.1610	0	34.5550	0	27.611	0	1684.402	0	39.0	4	11.8	4	-1E+10	1	-1E+10	1	-1E+10	1	-1E+10	1	-1E+10	1	-1E+10	1
4902663	17	C	01/21/2024	01:15	-128.824	48.022	0	1715.60	0	2.1520	0	34.5560	0	27.613	0	1694.237	0	39.6	4	12.0	4	-1E+10	1	-1E+10	1	-1E+10	1	-1E+10	1	-1E+10	1	-1E+10	1
4902663	17	C	01/21/2024	01:15	-128.824	48.022	0	1725.40	0	2.1440	0	34.5580	0	27.615	0	1703.876	0	40.2	4	12.2	4	-1E+10	1	-1E+10	1	-1E+10	1	-1E+10	1	-1E+10	1	-1E+10	1
4902663	17	C	01/21/2024	01:15	-128.824	48.022	0	1735.20	0	2.1310	0	34.5600	0	27.618	0	1713.514	0	40.9	4	12.4	4	-1E+10	1	-1E+10	1	-1E+10	1	-1E+10	1	-1E+10	1	-1E+10	1
4902663	17	C	01/21/2024	01:15	-128.824	48.022	0	1745.10	0	2.1190	0	34.5620	0	27.621	0	1723.250	0	41.6	4	12.6	4	-1E+10	1	-1E+10	1	-1E+10	1	-1E+10	1	-1E+10	1	-1E+10	1
4902663	17	C	01/21/2024	01:15	-128.824	48.022	0	1755.00	0	2.1070	0	34.5640	0	27.623	0	1732.986	0	42.4	4	12.8	4	-1E+10	1	-1E+10	1	-1E+10	1	-1E+10	1	-1E+10	1	-1E+10	1
4902663	17	C	01/21/2024	01:15	-128.824	48.022	0	1765.00	0	2.0950	0	34.5660	0	27.626	0	1742.819	0	43.1	4	13.0	4	-1E+10	1	-1E+10	1	-1E+10	1	-1E+10	1	-1E+10	1	-1E+10	1
4902663	17	C	01/21/2024	01:15	-128.824	48.022	0	1775.20	0	2.0860	0	34.5670	0	27.627	0	1752.849	0	43.7	4	13.2	4	-1E+10	1	-1E+10	1	-1E+10	1	-1E+10	1	-1E+10	1	-1E+10	1
4902663	17	C	01/21/2024	01:15	-128.824	48.022	0	1785.40	0	2.0750	0	34.5690	0	27.630	0	1762.878	0	44.5	4	13.4	4	-1E+10	1	-1E+10	1	-1E+10	1	-1E+10	1	-1E+10	1	-1E+10	1
4902663	17	C	01/21/2024	01:15	-128.824	48.022	0	1795.30	0	2.0640	0	34.5710	0	27.632	0	1772.612	0	45.3	4	13.7	4	-1E+10	1	-1E+10	1	-1E+10	1	-1E+10	1	-1E+10	1	-1E+10	1
4902663	17	C	01/21/2024	01:15	-128.824	48.022	0	1805.40	0	2.0510	0	34.5740	0	27.636	0	1782.542	0	46.1	4	13.9	4	-1E+10	1	-1E+10	1	-1E+10	1	-1E+10	1	-1E+10	1	-1E+10	1
4902663	17	C	01/21/2024	01:15	-128.824	48.022	0	1815.80	0	2.0390	0	34.5760	0	27.638	0	1792.767	0	47.0	4	14.2	4	-1E+10	1	-1E+10	1	-1E+10	1	-1E+10	1	-1E+10	1	-1E+10	1
4902663	17	C	01/21/2024	01:15	-128.824	48.022	0	1825.80	0	2.0260	0	34.5780	0	27.641	0	1802.598	0	47.7	4	14.4	4	-1E+10	1	-1E+10	1	-1E+10	1	-1E+10	1	-1E+10	1	-1E+10	1
4902663	17	C	01/21/2024	01:15	-128.824	48.022	0	1835.40	0	2.0170	0	34.5790	0	27.643	0	1812.035	0	48.2	4	14.6	4	-1E+10	1	-1E+10	1	-1E+10	1	-1E+10	1	-1E+10	1	-1E+10	1
4902663	17	C	01/21/2024	01:15	-128.824	48.022	0	1845.60	0	2.0110	0	34.5810	0	27.645	0	1822.061	0	48.9	4	14.7	4	-1E+10	1	-1E+10	1	-1E+10	1	-1E+10	1	-1E+10	1	-1E+10	1
4902663	17	C	01/21/2024	01:15	-128.824	48.022	0	1855.30	0	1.9990	0	34.5830	0	27.647	0	1831.596	0	49.5	4	14.9	4	-1E+10	1	-1E+10	1	-1E+10	1	-1E+10	1	-1E+10	1	-1E+10	1
4902663	17	C	01/21/2024	01:15	-128.824	48.022	0	1865.50	0	1.9930	0	34.5840	0	27.649	0	1841.621	0	49.9	4	15.0	4	-1E+10	1	-1E+10	1	-1E+10	1	-1E+10	1	-1E+10	1	-1E+10	1
4902663	17	C	01/21/2024	01:15	-128.824	48.022	0	1875.60	0	1.9870	0	34.5850	0	27.650	0	1851.548	0	50.3	4	15.2	4	-1E+10	1	-1E+10	1	-1E+10	1	-1E+10	1	-1E+10	1	-1E+10	1
4902663	17	C	01/21/2024	01:15	-128.824	48.022	0	1885.60	0	1.9810	0	34.5860	0	27.651	0	1861.376	0	50.8	4	15.3	4	-1E+10	1	-1E+10	1	-1E+10	1	-1E+10	1	-1E+10	1	-1E+10	1
4902663	17	C	01/21/2024	01:15	-128.824	48.022	0	1895.40	0	1.9750	0	34.5870	0	27.653	0	1871.007	0	51.2	4	15.4	4	-1E+10	1	-1E+10	1	-1E+10	1	-1E+10	1	-1E+10	1	-1E+10	1
4902663	17	C	01/21/2024	01:15	-128.824	48.022	0	1905.40	0	1.9690	0	34.5880	0	27.654	0	1880.834	0	51.5	4	15.5	4	-1E+10	1	-1E+10	1	-1E+10	1	-1E+10	1	-1E+10	1	-1E+10	1
4902663	17	C	01/21/2024	01:15	-128.824	48.022	0	1915.70	0	1.9670	0	34.5880	0	27.654	0	1890.956	0	51.8	4	15.6	4	-1E+10	1	-1E+10	1	-1E+10	1	-1E+10	1	-1E+10	1	-1E+10	1
4902663	17	C	01/21/2024	01:15	-128.824	48.022	0	1925.40	0	1.9620	0	34.5890	0	27.655	0	1900.487	0	52.1	4	15.7	4	-1E+10	1	-1E+10	1	-1E+10	1	-1E+10	1	-1E+10	1	-1E+10	1
4902663	17	C	01/21/2024	01:15	-128.824	48.022	0	1935.20	0	1.9580	0	34.5890	0	27.656	0	1910.116	0	52.4	4	15.8	4	-1E+10	1	-1E+10	1	-1E+10	1	-1E+10	1	-1E+10	1	-1E+10	1
4902663	17	C	01/21/2024	01:15	-128.824	48.022	0	1945.10	0	1.9560	0	34.5900	0	27.657	0	1919.843	0	52.8	4	15.9	4	-1E+10	1	-1E+10	1	-1E+10	1	-1E+10	1	-1E+10	1	-1E+10	1
4902663	17	C	01/21/2024	01:15	-128.824	48.022	0	1955.20	0	1.9480	0	34.5910	0	27.658	0	1929.766	0	53.3	4	16.0	4	-1E+10	1	-1E+10	1	-1E+10	1	-1E+10	1	-1E+10	1	-1E+10	1
4902663	17	C	01/21/2024	01:15	-128.824	48.022	0	1965.60	0	1.9430	0	34.5920	0	27.660	0	1939.984	0	53.8	4	16.2	4	-1E+10	1	-1E+10	1	-1E+10	1	-1E+10	1	-1E+10	1	-1E+10	1
4902663	17	C	01/21/2024	01:15	-128.824	48.022	0	1975.60	0	1.9370	0	34.5940	0	27.662	0	1949.808	0	54.3	4	16.3	4	-1E+10	1	-1E+10	1	-1E+10	1	-1E+10	1	-1E+10	1	-1E+10	1
4902663	17	C	01/21/2024	01:15	-128.824	48.022	0	1985.50	0	1.9300	0	34.5960	0	27.664	0	1959.533	0	54.8	4	16.5	4	-1E+10	1	-1E+10	1	-1E+10	1	-1E+10	1	-1E+10	1	-1E+10	1
4902663	17	C	01/21/2024	01:15	-128.824	48.022	0	1995.60	0	1.9230	0	34.5970	0	27.665	0	1969.454	0	55.2	4	16.6	4	-1E+10	1	-1E+10	1	-1E+10	1	-1E+10	1	-1E+10	1	-1E+10	1
4902663	17	C	01/21/2024	01:15	-128.824	48.022	0	2005.30	0	1.9180	0	34.5980	0	27.667	0	1978.982	0	55.5	4	16.7	4	-1E+10	1	-1E+10	1	-1E+10	1	-1E+10	1	-1E+10	1	-1E+10	1
4902663	17	C	01/21/2024	01:15	-128.824	48.022	0	2015.60	0	1.9120	0	34.5990	0	27.668	0	1989.099	0	55.4	4	16.7	4	-1E+10	1	-1E+10	1	-1E+10	1	-1E+10	1	-1E+10	1	-1E+10	1
4902663	17	C	01/21/2024	01:15	-128.824	48.022	0	2022.60	0	1.9080	0	34.6000	0	27.669	0	1995.974	0	54.5	4	16.4	4	-1E+10	1	-1E+10	1	-1E+10	1	-1E+10	1	-1E+10	1	-1E+10	1
4902663	17	C	01/21/2024	01:15	-128.824	48.022	0																										
4902663	18	C	01/30/2024	20:12	-128.595	48.006	0	0.30	0	9.7960	0	32.2620	0	24.849	0	0.297	0	262.7	4	93.4	4	-1E+10	1	-1E+10	1	-1E+10	1	-1E+10	1	-1E+10	1	-1E+10	1
4902663	18	C	01/30/2024	20:12	-128.595	48.006	0	0.40	0	9.7950	0	32.2620	0	24.849	0	0.397	0	262.7	4	93.4	4	-1E+10	1	-1E+10	1	-1E+10	1	-1E+10	1	-1E+10	1	-1E+10	1
4902663	18	C	01/30/2024	20:12	-128.595	48.006	0	1.00	0	9.7890	0	32.2620	0	24.850	0	0.992	0	262.8	4	93.4	4	-1E+10	1	-1E+10	1	-1E+10	1	-1E+10	1	-1E+10	1	-1E+10	1
4902663	18	C	01/30/2024	20:12	-128.595	48.006	0	1.80	0	9.7920	0	32.2510	0	24.841	0	1.785	0	262.7	4	93.4	4	-1E+10	1	-1E+10	1	-1E+10	1	-1E+10	1	-1E+10	1	-1E+10	1
4902663	18	C	01/30/2024	20:12	-128.595	48.006	0	2.70	0	9.7950	0	32.2460	0	24.836	0	2.677	0	262.7	4	93.4	4	-1E+10	1	-1E+10	1	-1E+10	1	-1E+10	1	-1E+10	1	-1E+10	1
4902663	18	C	01/30/2024	20:12	-128.595	48.006	0	3.70	0	9.7690	0	32.2680	0	24.858	0	3.669	0	262.7	4	93.3	4	-1E+10	1	-1E+10	1	-1E+10	1	-1E+10	1	-1E+10	1	-1E+10	1
4902663	18	C	01/30/2024	20:12	-128.595	48.006	0	4.70	0	9.7540	0	32.2820	0	24.871	0	4.661	0	262.7	4	93.3	4	-1E+10	1	-1E+10	1	-1E+10	1	-1E+10	1	-1E+10	1	-1E+10	1
4902663	18	C	01/30/2024	20:12	-128.595	48.006	0	5.60	0	9.7520	0	32.2820	0	24.871	0	5.553	0	262.7	4	93.3	4	-1E+10	1	-1E+10	1	-1E+10	1	-1E+10	1	-1E+10	1	-1E+10	1
4902663	18	C	01/30/2024	20:12	-128.595	48.006	0	6.90	0	9.7610	0	32.2790	0	24.868	0	6.842	0	262.6	4	93.3	4	-1E+10	1	-1E+10	1	-1E+10	1	-1E+10	1	-1E+10	1	-1E+10	1
4902663	18	C	01/30/2024	20:12	-128.595	48.006	0	8.40	0	9.7550	0	32.2810	0	24.870	0	8.329	0	262.6	4	93.3	4	-1E+10	1	-1E+10	1	-1E+10	1	-1E+10	1	-1E+10	1	-1E+10	1
4902663	18	C	01/30/2024	20:12	-128.595	48.006	0	9.30	0	9.7540	0	32.2790	0	24.869	0	9.222	0	262.6	4	93.3	4	-1E+10	1	-1E+10	1	-1E+10	1	-1E+10	1	-1E+10	1	-1E+10	1
4902663	18	C	01/30/2024	20:12	-128.595	48.006	0	10.10	0	9.7560	0	32.2790	0	24.869	0	10.015	0	262.5	4	93.2	4	-1E+10	1	-1E+10	1	-1E+10	1	-1E+10	1	-1E+10	1	-1E+10	1
4902663	18	C	01/30/2024	20:12	-128.595	48.006	0	11.00	0	9.7510	0	32.2810	0	24.871	0	10.907	0	262.6	4	93.3	4	-1E+10	1	-1E+10	1	-1E+10	1	-1E+10	1	-1E+10	1	-1E+10	1
4902663	18	C	01/30/2024	20:12	-128.595	48.006	0	11.90	0	9.7500	0	32.2800	0	24.870	0	11.800	0	262.6	4	93.3	4	-1E+10	1	-1E+10	1	-1E+10	1	-1E+10	1	-1E+10	1	-1E+10	1
4902663	18	C	01/30/2024	20:12	-128.595	48.006	0	12.70	0	9.7540	0	32.2800	0	24.870	0	12.593	0	262.6	4	93.3	4	-1E+10	1	-1E+10	1	-1E+10	1	-1E+10	1	-1E+10	1	-1E+10	1
4902663	18	C	01/30/2024	20:12	-128.595	48.006	0	13.60	0	9.7490	0	32.2770	0	24.868	0	13.485	0	262.6	4	93.3	4	-1E+10	1	-1E+10	1	-1E+10	1	-1E+10	1	-1E+10	1	-1E+10	1
4902663	18	C	01/30/2024	20:12	-128.595	48.006	0	14.60	0	9.7070	0	32.2800	0	24.877	0	14.477	0	262.7	4	93.2	4	-1E+10	1	-1E+10	1	-1E+10	1	-1E+10	1	-1E+10	1	-1E+10	1
4902663	18	C	01/30/2024	20:12	-128.595	48.006	0	15.50	0	9.7020	0	32.2820	0	24.880	0	15.369	0	262.7	4	93.2	4	-1E+10	1	-1E+10	1	-1E+10	1	-1E+10	1	-1E+10	1	-1E+10	1
4902663	18	C	01/30/2024	20:12	-128.595	48.006	0	16.50	0	9.7080	0	32.2800	0	24.877	0	16.361	0	262.6	4	93.2	4	-1E+10	1	-1E+10	1	-1E+10	1	-1E+10	1	-1E+10	1	-1E+10	1
4902663	18	C	01/30/2024	20:12	-128.595	48.006	0	17.50	0	9.7010	0	32.2830	0	24.881	0	17.352	0	262.6	4	93.2	4	-1E+10	1	-1E+10	1	-1E+10	1	-1E+10	1	-1E+10	1	-1E+10	1
4902663	18	C	01/30/2024	20:12	-128.595	48.006	0	18.50	0	9.6940	0	32.2810	0	24.880	0	18.344	0	262.7	4	93.2	4	-1E+10	1	-1E+10	1	-1E+10	1	-1E+10	1	-1E+10	1	-1E+10	1
4902663	18	C	01/30/2024	20:12	-128.595	48.006	0	19.60	0	9.6940	0	32.2820	0	24.881	0	19.435	0	262.6	4	93.2	4	-1E+10	1	-1E+10	1	-1E+10	1	-1E+10	1	-1E+10	1	-1E+10	1
4902663	18	C	01/30/2024	20:12	-128.595	48.006	0	20.60	0	9.6720	0	32.2840	0	24.886	0	20.426	0	262.7	4	93.1	4	-1E+10	1	-1E+10	1	-1E+10	1	-1E+10	1	-1E+10	1	-1E+10	1
4902663	18	C	01/30/2024	20:12	-128.595	48.006	0	21.70	0	9.6550	0	32.2850	0	24.890	0	21.517	0	262.6	4	93.1	4	-1E+10	1	-1E+10	1	-1E+10	1	-1E+10	1	-1E+10	1	-1E+10	1
4902663	18	C	01/30/2024	20:12	-128.595	48.006	0	22.70	0	9.6560	0	32.2810	0	24.887	0	22.508	0	262.7	4	93.1	4	-1E+10	1	-1E+10	1	-1E+10	1	-1E+10	1	-1E+10	1	-1E+10	1
4902663	18	C	01/30/2024	20:12	-128.595	48.006	0	23.70	0	9.6630	0	32.2810	0	24.885	0	23.500	0	262.6	4	93.1	4	-1E+10	1	-1E+10	1	-1E+10	1	-1E+10	1	-1E+10	1	-1E+10	1
4902663	18	C	01/30/2024	20:12	-128.595	48.006	0	24.80	0	9.6650	0	32.2800	0	24.884	0	24.590	0	262.5	4	93.1	4	-1E+10	1	-1E+10	1	-1E+10	1	-1E+10	1	-1E+10	1	-1E+10	1
4902663	18	C	01/30/2024	20:12	-128.595	48.006	0	25.90	0	9.6660	0	32.2850	0	24.888	0	25.681	0	262.5	4	93.1	4	-1E+10	1	-1E+10	1	-1E+10	1	-1E+10	1	-1E+10	1	-1E+10	1
4902663	18	C	01/30/2024	20:12	-128.595	48.006	0	26.90	0	9.6360	0	32.2820	0	24.891	0	26.673	0	262.5	4	93.0	4	-1E+10	1	-1E+10	1	-1E+10	1	-1E+10	1	-1E+10	1	-1E+10	1
4902663	18	C	01/30/2024	20:12	-128.595	48.006	0	27.90	0	9.6210	0	32.2840	0	24.895	0	27.664	0	262.5	4	93.0	4	-1E+10	1	-1E+10	1	-1E+10	1	-1E+10	1	-1E+10	1	-1E+10	1
4902663	18	C	01/30/2024	20:12	-128.595	48.006	0	28.90	0	9.6260	0	32.2830	0	24.893	0	28.655	0	262.4	4	93.0	4	-1E+10	1	-1E+10	1	-1E+10	1	-1E+10	1	-1E+10	1	-1E+10	1
4902663	18	C	01/30/2024	20:12	-128.595	48.006	0	30.00	0	9.6330	0	32.2820	0	24.891	0	29.746	0	262.4	4	93.0	4	-1E+10	1	-1E+10	1	-1E+10	1	-1E+10	1	-1E+10	1	-1E+10	1
4902663	18	C	01/30/2024	20:12	-128.595	48.006	0	31.00	0	9.6110	0	32.2830	0	24.896	0	30.738	0	262.4	4	92.9	4	-1E+10	1	-1E+10	1	-1E+10	1	-1E+10	1	-1E+10	1	-1E+10	1
4902663	18	C	01/30/2024	20:12	-128.595	48.006	0	32.10	0	9.6100	0	32.2820	0	24.895	0	31.828	0	262.2	4	92.9	4	-1E+10	1	-1E+10	1	-1E+10	1	-1E+10	1	-1E+10	1	-1E+10	1
4902663	18	C	01/30/2024	20:12	-128.595	48.006	0	33.20	0	9.5970	0	32.2880	0	24.902	0	32.919	0	262.2	4	92.8	4	-1E+10	1	-1E+10	1	-1E+10	1	-1E+10	1	-1E+10	1	-1E+10	1
4902663	18	C	01/30/2024	20:12	-128.595	48.006	0	34.30	0	9.5980	0	32.2830	0	24.898	0	34.009	0	262.2	4	92.8	4	-1E+10	1	-1E+10	1	-1E+10	1	-1E+10	1	-1E+10	1	-1E+10	1
4902663	18	C	01/30/2024	20:12	-128.595	48.006	0	35.40	0	9.5960	0	32.2820	0	24.897	0	35.100	0	262.1	4	92.8	4	-1E+10	1	-1E+10	1	-1E+10	1	-1E+10	1	-1E+10	1	-1E+10	1
4902663	18	C	01/30/2024	20:12	-128.595	48.006	0	36.50	0	9.5850	0	32.2840	0	24.901	0	36.190	0	262.1	4	92.7	4	-1E+10	1	-1E+10	1	-1E+10	1	-1E+10	1	-1E+10	1	-1E+10	1
4902663	18	C	01/30/2024	20:12	-128.595	48.006	0	37.60	0	9.5840	0	32.2830	0	24.900	0	37.281	0	261.9	4	92.7	4	-1E+10	1	-1E+10	1	-1E+10	1	-1E+10	1	-1E+10	1	-1E+10	1
4902663	18	C	01/30/2024	20:12	-128.595	48.006	0	38.70	0	9.5840	0	32.2840	0	24.901	0	38.372	0	261.8	4	92.7	4	-1E+10	1	-1E+10	1	-1E+10	1	-1E+10	1	-1E+10	1	-1E+10	1
4902663	18	C	01/30/2024	20:12	-128.595	48.006	0	39.80	0	9.5850	0	32.2840	0	24.901	0	39.462	0	261.7	4	92.6	4	-1E+10	1	-1E+10	1	-1E+10	1	-1E+10	1	-1E+10	1	-1E+10	1
4902663	18	C	01/30/2024	20:12	-128.595	48.006	0	40.90	0	9.5860	0	32.2840	0	24.900	0	40.553	0	261.6	4	92.6	4	-1E+10	1	-1E+10	1	-1E+10	1	-1E+10	1	-1E+10	1	-1E+10	1
4902663	18	C	01/30/2024	20:12	-128.595	48.006	0	42.00	0	9.5840	0	32.2850	0	24.902	0	41.643	0	261.6	4	92.6	4	-1E+10	1	-1E+10	1	-1E+10	1	-1E+10	1	-1E+10	1	-1E+10	1
4902663	18	C	01/30/2024	20:12	-128.595	48.006	0	43.10	0	9.5820	0	32.2850	0	24.902	0	42.734	0	261.4	4	92.5	4	-1E+10	1	-1E+10	1	-1E+10	1	-1E+10	1	-1E+10	1	-1E+10	1
4902663	18	C	01/30/2024	20:12	-128.595	48.006	0	44.30	0	9.5800	0	32.2860	0	24.903	0	43.924	0	261.4	4	92.5	4	-1E+10	1	-1E+10	1	-1E+10	1	-1E+10	1	-1E+10	1	-1E+10	1
4902663	18	C	01/30/2024	20:12	-128.595	48.006	0	45.40	0	9.5790	0	32.2870	0	24.904	0	45.014	0	261.2	4	92.4	4	-1E+10	1	-1E+10	1	-1E+10	1	-1E+10	1	-1E+10	1	-1E+10	1
4902663	18	C	01/30/2024	20:12	-128.595	48.006	0	46.60	0	9.5770	0	32.2870	0	24.904	0	46.204	0	261.3	4	92.5	4	-1E+10	1	-1E+10	1	-1E+10	1	-1E+10	1	-1E+10	1	-1E+10	1
4902663	18	C	01/30/2024	20:12	-128.595	48.006	0	47.70	0	9.5750	0	32.2870	0	24.905	0	47.294	0	261.1	4	92.4	4	-1E+10	1	-1E+10	1	-1E+10	1	-1E+10	1	-1E+10	1	-1E+10	1
4902663	18	C	01/30/2024	20:12	-128.595	48.006	0	48.90	0	9.5740	0	32.2880	0	24.906	0	48.484	0	261.1	4	92.4	4	-1E+10	1	-1E+10	1	-1E+10	1	-1E+10	1	-1E+10	1	-1E+10	1
4902663	18	C	01/30/2024	20:12	-128.595	48.006	0	50.00	0	9.5690	0	32.2890	0	24.907	0	49.574	0	261.0	4	92.3	4	-1E+10	1	-1E+10	1	-1E+10	1	-1E+10	1	-1E+10	1	-1E+10	1
4902663	18	C	01/30/2024	20:12	-128.595	48.006	0	51.20	0	9.5670	0	32.2880	0	24.907	0	50.764	0	260.9	4	92.3	4	-1E+10	1	-1E+10	1	-1E+10	1	-1E+10	1	-1E+10	1	-1E+10	1
4902663	18	C	01/30/2024	20:12	-128.595	48.006	0	52.40	0	9.5640	0	32.2880	0	24.907	0	51.954	0	260.8	4	92.3	4	-1E+10	1	-1E+10	1	-1E+10	1	-1E+10	1	-1E+10	1	-1E+10	1
4902663	18	C	01/30/2024	20:12	-128.595	48.006	0	53.60	0	9.5630	0	32.2880	0	24.908	0	53.143	0	260.6	4	92.2	4	-1E+10	1	-1E+10	1	-1E+10	1	-1E+10	1	-1E+10	1	-1E+10	1
4902663	18	C	01/30/2024	20:12	-128.595	48.006	0	54.80	0	9.5590	0	32.2880	0	24.908	0	54.333	0	260.5	4	92.2	4	-1E+10	1	-1E+10	1	-1E+10	1	-1E+10	1	-1E+10	1	-1E+10	1
4902663	18	C	01/30/2024	20:12	-128.595	48.006	0	56.00	0	9.5550	0	32.2880	0	24.909	0	55.523	0	260.4	4	92.1	4	-1E+10	1	-1E+10	1	-1E+10	1	-1E+10	1	-1E+10	1	-1E+10	1
4902663	18	C	01/30/2024	20:12	-128.595	48.006	0	57.20	0	9.5410	0	32.2890	0	24.912	0	56.712	0	260.3	4	92.1	4	-1E+10	1	-1E+10	1	-1E+10	1	-1E+10	1	-1E+10	1	-1E+10	1
4902663	18	C	01/30/2024	20:12	-128.595	48.006	0	58.40	0	9.5310	0	32.2900	0	24.914	0	57.902	0	260.2	4	92.0	4	-1E+10	1	-1E+10	1	-1E+10	1	-1E+10	1	-1E+10	1	-1E+10	1
4902663	18	C	01/30/2024	20:12	-128.595	48.006	0	59.60	0	9.5160	0	32.2910	0	24.918	0	59.091	0	260.1	4	91.9	4	-1E+10	1	-1E+10	1	-1E+10	1	-1E+10	1	-1E+10	1	-1E+10	1
4902663	18	C	01/30/2024	20:12	-128.595	48.006	0	60.80	0	9.5060	0	32.2910	0	24.919	0	60.281	0	260.0	4	91.8	4	-1E+10	1	-1E+10	1	-1E+10	1	-1E+10	1	-1E+10	1	-1E+10	1
4902663	18	C	01/30/2024	20:12	-128.595	48.006	0	62.00	0	9.4910	0	32.2920	0	24.922	0	61.470	0	259.8	4	91.8	4	-1E+10	1	-1E+10	1	-1E+10	1	-1E+10	1	-1E+10	1	-1E+10	1
4902663	18	C	01/30/2024	20:12	-128.595	48.006	0	63.20	0	9.4720	0	32.2940	0	24.927	0	62.660	0	259.5	4	91.6	4	-1E+10	1	-1E+10	1	-1E+10	1	-1E+10	1	-1E+10	1	-1E+10	1
4902663	18	C	01/30/2024	20:12	-128.595	48.006	0	64.40	0	9.4460	0	32.2960	0	24.933	0	63.850	0	259.4	4	91.5	4	-1E+10	1	-1E+10	1	-1E+10	1	-1E+10	1	-1E+10	1	-1E+10	1
4902663	18	C	01/30/2024	20:12	-128.595	48.006	0	65.60	0	9.4280	0	32.2950	0	24.935	0	65.039	0	259.0	4	91.4	4	-1E+10	1	-1E+10	1	-1E+10	1	-1E+10	1	-1E+10	1	-1E+10	1
4902663	18	C	01/30/2024	20:12	-128.595	48.006	0	66.90	0	9.4150	0	32.2960	0	24.938	0	66.328	0	258.6	4	91.2	4	-1E+10	1	-1E+10	1	-1E+10	1	-1E+10	1	-1E+10	1	-1E+10	1
4902663	18	C	01/30/2024	20:12	-128.595	48.006	0	68.00	0	9.3910	0	32.2970	0	24.942	0	67.418	0	258.2	4	91.0	4	-1E+10	1	-1E+10	1	-1E+10	1	-1E+10	1	-1E+10	1	-1E+10	1
4902663	18	C	01/30/2024	20:12	-128.595	48.006	0	69.30	0	9.3870	0	32.2980	0	24.944	0	68.707	0	257.6	4	90.8	4	-1E+10	1	-1E+10	1	-1E+10	1	-1E+10	1	-1E+10	1	-1E+10	1
4902663	18	C	01/30/2024	20:12	-128.595	48.006	0	70.50	0	9.3850	0	32.2980	0	24.944	0	69.896	0	256.7	4	90.5	4	-1E+10	1	-1E+10	1	-1E+10	1	-1E+10	1	-1E+10	1	-1E+10	1
4902663	18	C	01/30/2024	20:12	-128.595	48.006	0	71.60	0	9.3860	0	32.2980	0	24.944	0	70.987	0	255.8	4	90.2	4	-1E+10	1	-1E+10	1	-1E+10	1	-1E+10	1	-1E+10	1	-1E+10	1
4902663	18	C	01/30/2024	20:12	-128.595	48.006	0	72.80	0	9.3840	0	32.2980	0	24.944	0	72.176	0	254.9	4	89.8	4	-1E+10	1	-1E+10	1	-1E+10	1	-1E+10	1	-1E+10	1	-1E+10	1
4902663	18	C	01/30/2024	20:12	-128.595	48.006	0	74.00	0	9.3810	0	32.3020	0	24.948	0	73.366	0	253.7	4	89.4	4	-1E+10	1	-1E+10	1	-1E+10	1	-1E+10	1	-1E+10	1	-1E+10	1
4902663	18	C	01/30/2024	20:12	-128.595	48.006	0	75.20	0	9.3770	0	32.3120	0	24.956	0	74.555	0	252.6	4	89.0	4	-1E+10	1	-1E+10	1	-1E+10	1	-1E+10	1	-1E+10	1	-1E+10	1
4902663	18	C	01/30/2024	20:12	-128.595	48.006	0	76.30	0	9.3770	0	32.3140	0	24.958	0	75.646	0	251.4	4	88.6	4	-1E+10	1	-1E+10	1	-1E+10	1	-1E+10	1	-1E+10	1	-1E+10	1
4902663	18	C	01/30/2024	20:12	-128.595	48.006	0	77.50	0	9.3750	0	32.3150	0	24.959	0	76.835	0	250.2	4	88.2	4	-1E+10	1	-1E+10	1	-1E+10	1	-1E+10	1	-1E+10	1	-1E+10	1
4902663	18	C	01/30/2024	20:12	-128.595	48.006	0	78.60	0	9.3590	0	32.3160	0	24.962	0	77.926	0	248.7	4	87.6	4	-1E+10	1	-1E+10	1	-1E+10	1	-1E+10	1	-1E+10	1	-1E+10	1
4902663	18	C	01/30/2024	20:12	-128.595	48.006	0	79.70	0	9.3320	0	32.3110	0	24.963	0	79.016	0	246.8	4	86.9	4	-1E+10	1	-1E+10	1	-1E+10	1	-1E+10	1	-1E+10	1	-1E+10	1
4902663	18	C	01/30/2024	20:12	-128.595	48.006	0	80.50	0	9.3390	0	32.3210	0	24.970	0	79.809	0	244.8	4	86.2	4	-1E+10	1	-1E+10	1	-1E+10	1	-1E+10	1	-1E+10	1	-1E+10	1
4902663	18	C	01/30/2024	20:12	-128.595	48.006	0	82.00	0	9.3240	0	32.3250	0	24.975	0	81.296	0	240.5	4	84.7	4	-1E+10	1	-1E+10	1	-1E+10	1	-1E+10	1	-1E+10	1	-1E+10	1
4902663	18	C	01/30/2024	20:12	-128.595	48.006	0	83.10	0	9.3420	0	32.3340	0	24.979	0	82.386	0	236.3	4	83.2	4	-1E+10	1	-1E+10	1	-1E+10	1	-1E+10	1	-1E+10	1	-1E+10	1
4902663	18	C	01/30/2024	20:12	-128.595	48.006	0	84.00	0	9.3380	0	32.3440	0	24.988	0	83.278	0	231.3	4	81.5	4	-1E+10	1	-1E+10	1	-1E+10	1	-1E+10	1	-1E+10	1	-1E+10	1
4902663	18	C	01/30/2024	20:12	-128.595	48.006	0	85.10	0	9.2820	0	32.3670	0	25.015	0	84.368	0	226.1	4	79.5	4	-1E+10	1	-1E+10	1	-1E+10	1	-1E+10	1	-1E+10	1	-1E+10	1
4902663	18	C	01/30/2024	20:12	-128.595	48.006	0	85.90	0	9.2240	0	32.3810	0	25.035	0	85.161	0	221.5	4	77.8	4	-1E+10	1	-1E+10	1	-1E+10	1	-1E+10	1	-1E+10	1	-1E+10	1
4902663	18	C	01/30/2024	20:12	-128.595	48.006	0	86.70	0	8.9300	0	32.5050	0	25.177	0	85.954	0	217.6	4	76.0	4	-1E+10	1	-1E+10	1	-1E+10	1	-1E+10	1	-1E+10	1	-1E+10	1
4902663	18	C	01/30/2024	20:12	-128.595	48.006	0	88.00	0	8.4630	0	32.5990	0	25.322	0	87.243	0	215.8	4	74.7	4	-1E+10	1	-1E+10	1	-1E+10	1	-1E+10	1	-1E+10	1	-1E+10	1
4902663	18	C	01/30/2024	20:12	-128.595	48.006	0	89.20	0	8.2880	0	32.6340	0	25.376	0	88.432	0	217.7	4	75.1	4	-1E+10	1	-1E+10	1	-1E+10	1	-1E+10	1	-1E+10	1	-1E+10	1
4902663	18	C	01/30/2024	20:12	-128.595	48.006	0	90.00	0	8.2260	0	32.6730	0	25.415	0	89.225	0	215.0	4	74.1	4	-1E+10	1	-1E+10	1	-1E+10	1	-1E+10	1	-1E+10	1	-1E+10	1
4902663	18	C	01/30/2024	20:12	-128.595	48.006	0	90.90	0	8.1110	0	32.7110	0	25.462	0	90.117	0	212.8	4	73.1	4	-1E+10	1	-1E+10	1	-1E+10	1	-1E+10	1	-1E+10	1	-1E+10	1
4902663	18	C	01/30/2024	20:12	-128.595	48.006	0	91.80	0	8.0880	0	32.7250	0	25.476	0	91.009	0	210.0	4	72.1	4	-1E+10	1	-1E+10	1	-1E+10	1	-1E+10	1	-1E+10	1	-1E+10	1
4902663	18	C	01/30/2024	20:12	-128.595	48.006	0	92.90	0	8.0680	0	32.7410	0	25.492	0	92.100	0	206.9	4	71.0	4	-1E+10	1	-1E+10	1	-1E+10	1	-1E+10	1	-1E+10	1	-1E+10	1
4902663	18	C	01/30/2024	20:12	-128.595	48.006	0	93.90	0	8.0160	0	32.7760	0	25.527	0	93.091	0	204.2	4	70.0	4	-1E+10	1	-1E+10	1	-1E+10	1	-1E+10	1	-1E+10	1	-1E+10	1
4902663	18	C	01/30/2024	20:12	-128.595	48.006	0	95.10	0	7.9990	0	32.8260	0	25.569	0	94.280	0	201.6	4	69.2	4	-1E+10	1	-1E+10	1	-1E+10	1	-1E+10	1	-1E+10	1	-1E+10	1
4902663	18	C	01/30/2024	20:12	-128.595	48.006	0	95.90	0	7.9970	0	32.8320	0	25.574	0	95.073	0	200.0	4	68.6	4	-1E+10	1	-1E+10	1	-1E+10	1	-1E+10	1	-1E+10	1	-1E+10	1
4902663	18	C	01/30/2024	20:12	-128.595	48.006	0	97.00	0	7.9960	0	32.8480	0	25.586	0	96.163	0	197.5	4	67.8	4	-1E+10	1	-1E+10	1	-1E+10	1	-1E+10	1	-1E+10	1	-1E+10	1
4902663	18	C	01/30/2024	20:12	-128.595	48.006	0	98.20	0	7.9940	0	32.8610	0	25.597	0	97.353	0	195.0	4	66.9	4	-1E+10	1	-1E+10	1	-1E+10	1	-1E+10	1	-1E+10	1	-1E+10	1
4902663	18	C	01/30/2024	20:12	-128.595	48.006	0	98.90	0	7.9900	0	32.8820	0	25.614	0	98.047	0	193.4	4	66.4	4	-1E+10	1	-1E+10	1	-1E+10	1	-1E+10	1	-1E+10	1	-1E+10	1
4902663	18	C	01/30/2024	20:12	-128.595	48.006	0	99.70	0	7.9800	0	32.9050	0	25.633	0	98.839	0	192.0	4	65.9	4	-1E+10	1	-1E+10	1	-1E+10	1	-1E+10	1	-1E+10	1	-1E+10	1
4902663	18	C	01/30/2024	20:12	-128.595	48.006	0	101.00	0	7.9730	0	32.9660	0	25.682	0	100.128	0	190.6	4	65.4	4	-1E+10	1	-1E+10	1	-1E+10	1	-1E+10	1	-1E+10	1	-1E+10	1
4902663	18	C	01/30/2024	20:12	-128.595	48.006	0	102.20	0	7.9440	0	33.0010	0	25.714	0	101.317	0	189.3	4	64.9	4	-1E+10	1	-1E+10	1	-1E+10	1	-1E+10	1	-1E+10	1	-1E+10	1
4902663	18	C	01/30/2024	20:12	-128.595	48.006	0	103.00	0	7.9750	0	33.0180	0	25.723	0	102.110	0	188.8	4	64.8	4	-1E+10	1	-1E+10	1	-1E+10	1	-1E+10	1	-1E+10	1	-1E+10	1
4902663	18	C	01/30/2024	20:12	-128.595	48.006	0	103.80	0	7.9680	0	33.0290	0	25.733	0	102.903	0	188.6	4	64.8	4	-1E+10	1	-1E+10	1	-1E+10	1	-1E+10	1	-1E+10	1	-1E+10	1
4902663	18	C	01/30/2024	20:12	-128.595	48.006	0	104.70	0	7.9030	0	33.0310	0	25.744	0	103.795	0	188.0	4	64.5	4	-1E+10	1	-1E+10	1	-1E+10	1	-1E+10	1	-1E+10	1	-1E+10	1
4902663	18	C	01/30/2024	20:12	-128.595	48.006	0	105.90	0	7.7820	0	33.0390	0	25.767	0	104.984	0	187.2	4	64.0	4	-1E+10	1	-1E+10	1	-1E+10	1	-1E+10	1	-1E+10	1	-1E+10	1
4902663	18	C	01/30/2024	20:12	-128.595	48.006	0	107.20	0	7.7380	0	33.0530	0	25.785	0	106.273	0	185.7	4	63.4	4	-1E+10	1	-1E+10	1	-1E+10	1	-1E+10	1	-1E+10	1	-1E+10	1
4902663	18	C	01/30/2024	20:12	-128.595	48.006	0	108.10	0	7.7330	0	33.0580	0	25.789	0	107.165	0	184.6	4	63.0	4	-1E+10	1	-1E+10	1	-1E+10	1	-1E+10	1	-1E+10	1	-1E+10	1
4902663	18	C	01/30/2024	20:12	-128.595	48.006	0	109.00	0	7.7020	0	33.0660	0	25.800	0	108.057	0	183.1	4	62.5	4	-1E+10	1	-1E+10	1	-1E+10	1	-1E+10	1	-1E+10	1	-1E+10	1
4902663	18	C	01/30/2024	20:12	-128.595	48.006	0	109.90	0	7.6580	0	33.0910	0	25.826	0	108.949	0	181.4	4	61.9	4	-1E+10	1	-1E+10	1	-1E+10	1	-1E+10	1	-1E+10	1	-1E+10	1
4902663	18	C	01/30/2024	20:12	-128.595	48.006	0	110.70	0	7.6340	0	33.1170	0	25.850	0	109.742	0	179.8	4	61.3	4	-1E+10	1	-1E+10	1	-1E+10	1	-1E+10	1	-1E+10	1	-1E+10	1
4902663	18	C	01/30/2024	20:12	-128.595	48.006	0	111.70	0	7.6240	0	33.1290	0	25.860	0	110.733	0	177.9	4	60.7	4	-1E+10	1	-1E+10	1	-1E+10	1	-1E+10	1	-1E+10	1	-1E+10	1
4902663	18	C	01/30/2024	20:12	-128.595	48.006	0	112.60	0	7.6070	0	33.1550	0	25.883	0	111.625	0	176.1	4	60.0	4	-1E+10	1	-1E+10	1	-1E+10	1	-1E+10	1	-1E+10	1	-1E+10	1
4902663	18	C	01/30/2024	20:12	-128.595	48.006	0	113.60	0	7.5960	0	33.1750	0	25.901	0	112.616	0	174.4	4	59.4	4	-1E+10	1	-1E+10	1	-1E+10	1	-1E+10	1	-1E+10	1	-1E+10	1
4902663	18	C	01/30/2024	20:12	-128.595	48.006	0	114.50	0	7.5950	0	33.1970	0	25.918	0	113.508	0	172.6	4	58.8	4	-1E+10	1	-1E+10	1	-1E+10	1	-1E+10	1	-1E+10	1	-1E+10	1
4902663	18	C	01/30/2024	20:12	-128.595	48.006	0	115.50	0	7.5940	0	33.2020	0	25.922	0	114.499	0	170.8	4	58.2	4	-1E+10	1	-1E+10	1	-1E+10	1	-1E+10	1	-1E+10	1	-1E+10	1
4902663	18	C	01/30/2024	20:12	-128.595	48.006	0	116.50	0	7.5930	0	33.2110	0	25.929	0	115.490	0	168.6	4	57.5	4	-1E+10	1	-1E+10	1	-1E+10	1	-1E+10	1	-1E+10	1	-1E+10	1
4902663	18	C	01/30/2024	20:12	-128.595	48.006	0	117.50	0	7.5620	0	33.2380	0	25.955	0	116.481	0	166.5	4	56.7	4	-1E+10	1	-1E+10	1	-1E+10	1	-1E+10	1	-1E+10	1	-1E+10	1
4902663	18	C	01/30/2024	20:12	-128.595	48.006	0	118.50	0	7.5340	0	33.2790	0	25.991	0	117.472	0	164.8	4	56.1	4	-1E+10	1	-1E+10	1	-1E+10	1	-1E+10	1	-1E+10	1	-1E+10	1
4902663	18	C	01/30/2024	20:12	-128.595	48.006	0	119.60	0	7.4940	0	33.3080	0	26.020	0	118.562	0	163.0	4	55.5	4	-1E+10	1	-1E+10	1	-1E+10	1	-1E+10	1	-1E+10	1	-1E+10	1
4902663	18	C	01/30/2024	20:12	-128.595	48.006	0	120.50	0	7.4950	0	33.3340	0	26.040	0	119.454	0	161.6	4	55.0	4	-1E+10	1	-1E+10	1	-1E+10	1	-1E+10	1	-1E+10	1	-1E+10	1
4902663	18	C	01/30/2024	20:12	-128.595	48.006	0	121.70	0	7.5020	0	33.3850	0	26.079	0	120.643	0	160.5	4	54.7	4	-1E+10	1	-1E+10	1	-1E+10	1	-1E+10	1	-1E+10	1	-1E+10	1
4902663	18	C	01/30/2024	20:12	-128.595	48.006	0	122.90	0	7.4890	0	33.4140	0	26.104	0	121.832	0	159.9	4	54.5	4	-1E+10	1	-1E+10	1	-1E+10	1	-1E+10	1	-1E+10	1	-1E+10	1
4902663	18	C	01/30/2024	20:12	-128.595	48.006	0	124.20	0	7.4600	0	33.4210	0	26.113	0	123.121	0	159.1	4	54.2	4	-1E+10	1	-1E+10	1	-1E+10	1	-1E+10	1	-1E+10	1	-1E+10	1
4902663	18	C	01/30/2024	20:12	-128.595	48.006	0	125.00	0	7.4430	0	33.4210	0	26.116	0	123.913	0	158.4	4	53.9	4	-1E+10	1	-1E+10	1	-1E+10	1	-1E+10	1	-1E+10	1	-1E+10	1
4902663	18	C	01/30/2024	20:12	-128.595	48.006	0	125.80	0	7.4160	0	33.4520	0	26.144	0	124.706	0	157.9	4	53.7	4	-1E+10	1	-1E+10	1	-1E+10	1	-1E+10	1	-1E+10	1	-1E+10	1
4902663	18	C	01/30/2024	20:12	-128.595	48.006	0	127.00	0	7.3560	0	33.4540	0	26.154	0	125.895	0	156.5	4	53.2	4	-1E+10	1	-1E+10	1	-1E+10	1	-1E+10	1	-1E+10	1	-1E+10	1
4902663	18	C	01/30/2024	20:12	-128.595	48.006	0	128.10	0	7.3220	0	33.4570	0	26.161	0	126.986	0	154.3	4	52.4	4	-1E+10	1	-1E+10	1	-1E+10	1	-1E+10	1	-1E+10	1	-1E+10	1
4902663	18	C	01/30/2024	20:12	-128.595	48.006	0	128.90	0	7.3280	0	33.4690	0	26.170	0	127.778	0	152.5	4	51.8	4	-1E+10	1	-1E+10	1	-1E+10	1	-1E+10	1	-1E+10	1	-1E+10	1
4902663	18	C	01/30/2024	20:12	-128.595	48.006	0	130.00	0	7.3470	0	33.4880	0	26.182	0	128.868	0	150.0	4	51.0	4	-1E+10	1	-1E+10	1	-1E+10	1	-1E+10	1	-1E+10	1	-1E+10	1
4902663	18	C	01/30/2024	20:12	-128.595	48.006	0	131.20	0	7.3710	0	33.5070	0	26.194	0	130.058	0	147.6	4	50.2	4	-1E+10	1	-1E+10	1	-1E+10	1	-1E+10	1	-1E+10	1	-1E+10	1
4902663	18	C	01/30/2024	20:12	-128.595	48.006	0	132.00	0	7.3820	0	33.5310	0	26.211	0	130.850	0	146.4	4	49.8	4	-1E+10	1	-1E+10	1	-1E+10	1	-1E+10	1	-1E+10	1	-1E+10	1
4902663	18	C	01/30/2024	20:12	-128.595	48.006	0	132.90	0	7.3820	0	33.5320	0	26.212	0	131.742	0	145.2	4	49.4	4	-1E+10	1	-1E+10	1	-1E+10	1	-1E+10	1	-1E+10	1	-1E+10	1
4902663	18	C	01/30/2024	20:12	-128.595	48.006	0	133.70	0	7.3880	0	33.5380	0	26.216	0	132.535	0	144.0	4	49.0	4	-1E+10	1	-1E+10	1	-1E+10	1	-1E+10	1	-1E+10	1	-1E+10	1
4902663	18	C	01/30/2024	20:12	-128.595	48.006	0	134.90	0	7.3730	0	33.5550	0	26.231	0	133.724	0	142.1	4	48.3	4	-1E+10	1	-1E+10	1	-1E+10	1	-1E+10	1	-1E+10	1	-1E+10	1
4902663	18	C	01/30/2024	20:12	-128.595	48.006	0	136.10	0	7.3940	0	33.5690	0	26.239	0	134.913	0	140.1	4	47.7	4	-1E+10	1	-1E+10	1	-1E+10	1	-1E+10	1	-1E+10	1	-1E+10	1
4902663	18	C	01/30/2024	20:12	-128.595	48.006	0	136.90	0	7.4260	0	33.5730	0	26.238	0	135.706	0	139.0	4	47.3	4	-1E+10	1	-1E+10	1	-1E+10	1	-1E+10	1	-1E+10	1	-1E+10	1
4902663	18	C	01/30/2024	20:12	-128.595	48.006	0	137.80	0	7.4500	0	33.5880	0	26.246	0	136.598	0	138.1	4	47.0	4	-1E+10	1	-1E+10	1	-1E+10	1	-1E+10	1	-1E+10	1	-1E+10	1
4902663	18	C	01/30/2024	20:12	-128.595	48.006	0	138.90	0	7.3540	0	33.6140	0	26.280	0	137.688	0	136.2	4	46.3	4	-1E+10	1	-1E+10	1	-1E+10	1	-1E+10	1	-1E+10	1	-1E+10	1
4902663	18	C	01/30/2024	20:12	-128.595	48.006	0	140.20	0	7.3480	0	33.6440	0	26.305	0	138.976	0	134.3	4	45.7	4	-1E+10	1	-1E+10	1	-1E+10	1	-1E+10	1	-1E+10	1	-1E+10	1
4902663	18	C	01/30/2024	20:12	-128.595	48.006	0	141.00	0	7.3590	0	33.6540	0	26.311	0	139.769	0	133.2	4	45.3	4	-1E+10	1	-1E+10	1	-1E+10	1	-1E+10	1	-1E+10	1	-1E+10	1
4902663	18	C	01/30/2024	20:12	-128.595	48.006	0	141.90	0	7.3640	0	33.6650	0	26.319	0	140.661	0	132.4	4	45.0	4	-1E+10	1	-1E+10	1	-1E+10	1	-1E+10	1	-1E+10	1	-1E+10	1
4902663	18	C	01/30/2024	20:12	-128.595	48.006	0	142.80	0	7.3680	0	33.6730	0	26.325	0	141.553	0	131.6	4	44.8	4	-1E+10	1	-1E+10	1	-1E+10	1	-1E+10	1	-1E+10	1	-1E+10	1
4902663	18	C	01/30/2024	20:12	-128.595	48.006	0	143.60	0	7.3720	0	33.6790	0	26.329	0	142.345	0	130.8	4	44.5	4	-1E+10	1	-1E+10	1	-1E+10	1	-1E+10	1	-1E+10	1	-1E+10	1
4902663	18	C	01/30/2024	20:12	-128.595	48.006	0	144.90	0	7.3850	0	33.6910	0	26.337	0	143.634	0	130.0	4	44.3	4	-1E+10	1	-1E+10	1	-1E+10	1	-1E+10	1	-1E+10	1	-1E+10	1
4902663	18	C	01/30/2024	20:12	-128.595	48.006	0	146.20	0	7.3900	0	33.6950	0	26.339	0	144.922	0	129.1	4	44.0	4	-1E+10	1	-1E+10	1	-1E+10	1	-1E+10	1	-1E+10	1	-1E+10	1
4902663	18	C	01/30/2024	20:12	-128.595	48.006	0	147.10	0	7.3910	0	33.6970	0	26.340	0	145.814	0	128.6	4	43.8	4	-1E+10	1	-1E+10	1	-1E+10	1	-1E+10	1	-1E+10	1	-1E+10	1
4902663	18	C	01/30/2024	20:12	-128.595	48.006	0	147.90	0	7.3930	0	33.7030	0	26.345	0	146.606	0	128.1	4	43.6	4	-1E+10	1	-1E+10	1	-1E+10	1	-1E+10	1	-1E+10	1	-1E+10	1
4902663	18	C	01/30/2024	20:12	-128.595	48.006	0	148.80	0	7.3890	0	33.7090	0	26.350	0	147.498	0	127.7	4	43.5	4	-1E+10	1	-1E+10	1	-1E+10	1	-1E+10	1	-1E+10	1	-1E+10	1
4902663	18	C	01/30/2024	20:12	-128.595	48.006	0	149.70	0	7.3730	0	33.7150	0	26.357	0	148.390	0	127.4	4	43.4	4	-1E+10	1	-1E+10	1	-1E+10	1	-1E+10	1	-1E+10	1	-1E+10	1
4902663	18	C	01/30/2024	20:12	-128.595	48.006	0	150.60	0	7.3740	0	33.7160	0	26.358	0	149.282	0	127.2	4	43.3	4	-1E+10	1	-1E+10	1	-1E+10	1	-1E+10	1	-1E+10	1	-1E+10	1
4902663	18	C	01/30/2024	20:12	-128.595	48.006	0	151.50	0	7.3480	0	33.7340	0	26.376	0	150.173	0	127.3	4	43.3	4	-1E+10	1	-1E+10	1	-1E+10	1	-1E+10	1	-1E+10	1	-1E+10	1
4902663	18	C	01/30/2024	20:12	-128.595	48.006	0	152.90	0	7.3390	0	33.7440	0	26.385	0	151.561	0	128.0	4	43.6	4	-1E+10	1	-1E+10	1	-1E+10	1	-1E+10	1	-1E+10	1	-1E+10	1
4902663	18	C	01/30/2024	20:12	-128.595	48.006	0	154.30	0	7.3300	0	33.7560	0	26.395	0	152.948	0	129.2	4	44.0	4	-1E+10	1	-1E+10	1	-1E+10	1	-1E+10	1	-1E+10	1	-1E+10	1
4902663	18	C	01/30/2024	20:12	-128.595	48.006	0	155.30	0	7.3540	0	33.7640	0	26.398	0	153.939	0	130.2	4	44.3	4	-1E+10	1	-1E+10	1	-1E+10	1	-1E+10	1	-1E+10	1	-1E+10	1
4902663	18	C	01/30/2024	20:12	-128.595	48.006	0	156.20	0	7.3560	0	33.7610	0	26.396	0	154.831	0	131.5	4	44.8	4	-1E+10	1	-1E+10	1	-1E+10	1	-1E+10	1	-1E+10	1	-1E+10	1
4902663	18	C	01/30/2024	20:12	-128.595	48.006	0	157.10	0	7.1950	0	33.7630	0	26.420	0	155.722	0	132.3	4	44.9	4	-1E+10	1	-1E+10	1	-1E+10	1	-1E+10	1	-1E+10	1	-1E+10	1
4902663	18	C	01/30/2024	20:12	-128.595	48.006	0	158.10	0	7.1230	0	33.7540	0	26.423	0	156.713	0	132.5	4	44.9	4	-1E+10	1	-1E+10	1	-1E+10	1	-1E+10	1	-1E+10	1	-1E+10	1
4902663	18	C	01/30/2024	20:12	-128.595	48.006	0	159.00	0	7.0910	0	33.7500	0	26.424	0	157.605	0	132.2	4	44.7	4	-1E+10	1	-1E+10	1	-1E+10	1	-1E+10	1	-1E+10	1	-1E+10	1
4902663	18	C	01/30/2024	20:12	-128.595	48.006	0	160.00	0	7.0750	0	33.7530	0	26.428	0	158.596	0	131.6	4	44.5	4	-1E+10	1	-1E+10	1	-1E+10	1	-1E+10	1	-1E+10	1	-1E+10	1
4902663	18	C	01/30/2024	20:12	-128.595	48.006	0	161.00	0	7.0640	0	33.7590	0	26.435	0	159.587	0	130.9	4	44.3	4	-1E+10	1	-1E+10	1	-1E+10	1	-1E+10	1	-1E+10	1	-1E+10	1
4902663	18	C	01/30/2024	20:12	-128.595	48.006	0	161.90	0	7.0400	0	33.7610	0	26.440	0	160.478	0	129.9	4	43.9	4	-1E+10	1	-1E+10	1	-1E+10	1	-1E+10	1	-1E+10	1	-1E+10	1
4902663	18	C	01/30/2024	20:12	-128.595	48.006	0	162.90	0	7.0340	0	33.7620	0	26.441	0	161.469	0	128.7	4	43.5	4	-1E+10	1	-1E+10	1	-1E+10	1	-1E+10	1	-1E+10	1	-1E+10	1
4902663	18	C	01/30/2024	20:12	-128.595	48.006	0	163.90	0	7.0580	0	33.7750	0	26.448	0	162.460	0	127.9	4	43.2	4	-1E+10	1	-1E+10	1	-1E+10	1	-1E+10	1	-1E+10	1	-1E+10	1
4902663	18	C	01/30/2024	20:12	-128.595	48.006	0	164.90	0	7.0740	0	33.7810	0	26.451	0	163.451	0	127.3	4	43.1	4	-1E+10	1	-1E+10	1	-1E+10	1	-1E+10	1	-1E+10	1	-1E+10	1
4902663	18	C	01/30/2024	20:12	-128.595	48.006	0	165.90	0	7.0810	0	33.7880	0	26.455	0	164.442	0	127.0	4	43.0	4	-1E+10	1	-1E+10	1	-1E+10	1	-1E+10	1	-1E+10	1	-1E+10	1
4902663	18	C	01/30/2024	20:12	-128.595	48.006	0	166.90	0	7.0790	0	33.7890	0	26.456	0	165.432	0	126.6	4	42.8	4	-1E+10	1	-1E+10	1	-1E+10	1	-1E+10	1	-1E+10	1	-1E+10	1
4902663	18	C	01/30/2024	20:12	-128.595	48.006	0	167.90	0	7.0790	0	33.7900	0	26.457	0	166.423	0	126.2	4	42.7	4	-1E+10	1	-1E+10	1	-1E+10	1	-1E+10	1	-1E+10	1	-1E+10	1
4902663	18	C	01/30/2024	20:12	-128.595	48.006	0	168.90	0	7.1030	0	33.7990	0	26.461	0	167.414	0	126.2	4	42.7	4	-1E+10	1	-1E+10	1	-1E+10	1	-1E+10	1	-1E+10	1	-1E+10	1
4902663	18	C	01/30/2024	20:12	-128.595	48.006	0	169.90	0	7.1050	0	33.8090	0	26.469	0	168.405	0	126.5	4	42.8	4	-1E+10	1	-1E+10	1	-1E+10	1	-1E+10	1	-1E+10	1	-1E+10	1
4902663	18	C	01/30/2024	20:12	-128.595	48.006	0	170.90	0	7.1020	0	33.8140	0	26.473	0	169.396	0	126.9	4	43.0	4	-1E+10	1	-1E+10	1	-1E+10	1	-1E+10	1	-1E+10	1	-1E+10	1
4902663	18	C	01/30/2024	20:12	-128.595	48.006	0	172.00	0	7.0890	0	33.8140	0	26.475	0	170.486	0	127.5	4	43.2	4	-1E+10	1	-1E+10	1	-1E+10	1	-1E+10	1	-1E+10	1	-1E+10	1
4902663	18	C	01/30/2024	20:12	-128.595	48.006	0	173.00	0	7.0550	0	33.8130	0	26.479	0	171.476	0	128.0	4	43.3	4	-1E+10	1	-1E+10	1	-1E+10	1	-1E+10	1	-1E+10	1	-1E+10	1
4902663	18	C	01/30/2024	20:12	-128.595	48.006	0	174.00	0	7.0480	0	33.8100	0	26.477	0	172.467	0	128.5	4	43.4	4	-1E+10	1	-1E+10	1	-1E+10	1	-1E+10	1	-1E+10	1	-1E+10	1
4902663	18	C	01/30/2024	20:12	-128.595	48.006	0	175.00	0	6.9790	0	33.8190	0	26.494	0	173.458	0	128.9	4	43.5	4	-1E+10	1	-1E+10	1	-1E+10	1	-1E+10	1	-1E+10	1	-1E+10	1
4902663	18	C	01/30/2024	20:12	-128.595	48.006	0	176.00	0	6.9060	0	33.8130	0	26.499	0	174.449	0	129.3	4	43.6	4	-1E+10	1	-1E+10	1	-1E+10	1	-1E+10	1	-1E+10	1	-1E+10	1
4902663	18	C	01/30/2024	20:12	-128.595	48.006	0	177.10	0	6.8730	0	33.8120	0	26.503	0	175.538	0	129.5	4	43.6	4	-1E+10	1	-1E+10	1	-1E+10	1	-1E+10	1	-1E+10	1	-1E+10	1
4902663	18	C	01/30/2024	20:12	-128.595	48.006	0	178.10	0	6.8480	0	33.8070	0	26.502	0	176.529	0	129.5	4	43.6	4	-1E+10	1	-1E+10	1	-1E+10	1	-1E+10	1	-1E+10	1	-1E+10	1
4902663	18	C	01/30/2024	20:12	-128.595	48.006	0	179.10	0	6.8400	0	33.8060	0	26.502	0	177.520	0	129.5	4	43.6	4	-1E+10	1	-1E+10	1	-1E+10	1	-1E+10	1	-1E+10	1	-1E+10	1
4902663	18	C	01/30/2024	20:12	-128.595	48.006	0	180.20	0	6.8290	0	33.8060	0	26.504	0	178.610	0	129.4	4	43.5	4	-1E+10	1	-1E+10	1	-1E+10	1	-1E+10	1	-1E+10	1	-1E+10	1
4902663	18	C	01/30/2024	20:12	-128.595	48.006	0	181.20	0	6.7740	0	33.8100	0	26.514	0	179.601	0	129.2	4	43.4	4	-1E+10	1	-1E+10	1	-1E+10	1	-1E+10	1	-1E+10	1	-1E+10	1
4902663	18	C	01/30/2024	20:12	-128.595	48.006	0	182.20	0	6.7690	0	33.8090	0	26.514	0	180.591	0	128.9	4	43.3	4	-1E+10	1	-1E+10	1	-1E+10	1	-1E+10	1	-1E+10	1	-1E+10	1
4902663	18	C	01/30/2024	20:12	-128.595	48.006	0	183.30	0	6.7410	0	33.8050	0	26.515	0	181.681	0	128.5	4	43.2	4	-1E+10	1	-1E+10	1	-1E+10	1	-1E+10	1	-1E+10	1	-1E+10	1
4902663	18	C	01/30/2024	20:12	-128.595	48.006	0	184.30	0	6.7240	0	33.8060	0	26.518	0	182.672	0	127.9	4	43.0	4	-1E+10	1	-1E+10	1	-1E+10	1	-1E+10	1	-1E+10	1	-1E+10	1
4902663	18	C	01/30/2024	20:12	-128.595	48.006	0	185.30	0	6.7050	0	33.8110	0	26.524	0	183.663	0	127.5	4	42.8	4	-1E+10	1	-1E+10	1	-1E+10	1	-1E+10	1	-1E+10	1	-1E+10	1
4902663	18	C	01/30/2024	20:12	-128.595	48.006	0	186.40	0	6.6830	0	33.8130	0	26.529	0	184.752	0	127.0	4	42.6	4	-1E+10	1	-1E+10	1	-1E+10	1	-1E+10	1	-1E+10	1	-1E+10	1
4902663	18	C	01/30/2024	20:12	-128.595	48.006	0	187.40	0	6.6730	0	33.8140	0	26.531	0	185.743	0	126.6	4	42.5	4	-1E+10	1	-1E+10	1	-1E+10	1	-1E+10	1	-1E+10	1	-1E+10	1
4902663	18	C	01/30/2024	20:12	-128.595	48.006	0	188.40	0	6.6700	0	33.8150	0	26.532	0	186.734	0	126.1	4	42.3	4	-1E+10	1	-1E+10	1	-1E+10	1	-1E+10	1	-1E+10	1	-1E+10	1
4902663	18	C	01/30/2024	20:12	-128.595	48.006	0	189.50	0	6.6670	0	33.8140	0	26.532	0	187.824	0	125.6	4	42.1	4	-1E+10	1	-1E+10	1	-1E+10	1	-1E+10	1	-1E+10	1	-1E+10	1
4902663	18	C	01/30/2024	20:12	-128.595	48.006	0	190.50	0	6.6570	0	33.8160	0	26.535	0	188.814	0	125.2	4	42.0	4	-1E+10	1	-1E+10	1	-1E+10	1	-1E+10	1	-1E+10	1	-1E+10	1
4902663	18	C	01/30/2024	20:12	-128.595	48.006	0	191.50	0	6.6470	0	33.8240	0	26.542	0	189.805	0	124.9	4	41.9	4	-1E+10	1	-1E+10	1	-1E+10	1	-1E+10	1	-1E+10	1	-1E+10	1
4902663	18	C	01/30/2024	20:12	-128.595	48.006	0	192.50	0	6.6390	0	33.8240	0	26.543	0	190.796	0	124.4	4	41.7	4	-1E+10	1	-1E+10	1	-1E+10	1	-1E+10	1	-1E+10	1	-1E+10	1
4902663	18	C	01/30/2024	20:12	-128.595	48.006	0	193.50	0	6.6320	0	33.8230	0	26.544	0	191.786	0	124.1	4	41.6	4	-1E+10	1	-1E+10	1	-1E+10	1	-1E+10	1	-1E+10	1	-1E+10	1
4902663	18	C	01/30/2024	20:12	-128.595	48.006	0	194.50	0	6.6090	0	33.8230	0	26.547	0	192.777	0	123.6	4	41.4	4	-1E+10	1	-1E+10	1	-1E+10	1	-1E+10	1	-1E+10	1	-1E+10	1
4902663	18	C	01/30/2024	20:12	-128.595	48.006	0	195.50	0	6.5890	0	33.8250	0	26.551	0	193.768	0	123.1	4	41.2	4	-1E+10	1	-1E+10	1	-1E+10	1	-1E+10	1	-1E+10	1	-1E+10	1
4902663	18	C	01/30/2024	20:12	-128.595	48.006	0	196.50	0	6.5750	0	33.8250	0	26.553	0	194.758	0	122.5	4	41.0	4	-1E+10	1	-1E+10	1	-1E+10	1	-1E+10	1	-1E+10	1	-1E+10	1
4902663	18	C	01/30/2024	20:12	-128.595	48.006	0	197.50	0	6.5690	0	33.8230	0	26.552	0	195.749	0	121.8	4	40.8	4	-1E+10	1	-1E+10	1	-1E+10	1	-1E+10	1	-1E+10	1	-1E+10	1
4902663	18	C	01/30/2024	20:12	-128.595	48.006	0	198.50	0	6.5640	0	33.8230	0	26.553	0	196.740	0	121.1	4	40.5	4	-1E+10	1	-1E+10	1	-1E+10	1	-1E+10	1	-1E+10	1	-1E+10	1
4902663	18	C	01/30/2024	20:12	-128.595	48.006	0	199.60	0	6.5440	0	33.8260	0	26.558	0	197.829	0	120.4	4	40.2	4	-1E+10	1	-1E+10	1	-1E+10	1	-1E+10	1	-1E+10	1	-1E+10	1
4902663	18	C	01/30/2024	20:12	-128.595	48.006	0	200.60	0	6.5040	0	33.8290	0	26.565	0	198.820	0	119.5	4	39.9	4	-1E+10	1	-1E+10	1	-1E+10	1	-1E+10	1	-1E+10	1	-1E+10	1
4902663	18	C	01/30/2024	20:12	-128.595	48.006	0	201.60	0	6.4920	0	33.8280	0	26.566	0	199.811	0	118.6	4	39.6	4	-1E+10	1	-1E+10	1	-1E+10	1	-1E+10	1	-1E+10	1	-1E+10	1
4902663	18	C	01/30/2024	20:12	-128.595	48.006	0	202.70	0	6.4730	0	33.8320	0	26.572	0	200.900	0	117.7	4	39.3	4	-1E+10	1	-1E+10	1	-1E+10	1	-1E+10	1	-1E+10	1	-1E+10	1
4902663	18	C	01/30/2024	20:12	-128.595	48.006	0	203.70	0	6.4680	0	33.8330	0	26.573	0	201.891	0	116.9	4	39.0	4	-1E+10	1	-1E+10	1	-1E+10	1	-1E+10	1	-1E+10	1	-1E+10	1
4902663	18	C	01/30/2024	20:12	-128.595	48.006	0	204.70	0	6.4570	0	33.8350	0	26.576	0	202.882	0	116.1	4	38.7	4	-1E+10	1	-1E+10	1	-1E+10	1	-1E+10	1	-1E+10	1	-1E+10	1
4902663	18	C	01/30/2024	20:12	-128.595	48.006	0	205.70	0	6.4440	0	33.8360	0	26.579	0	203.872	0	115.3	4	38.5	4	-1E+10	1	-1E+10	1	-1E+10	1	-1E+10	1	-1E+10	1	-1E+10	1
4902663	18	C	01/30/2024	20:12	-128.595	48.006	0	206.80	0	6.4230	0	33.8400	0	26.585	0	204.962	0	114.6	4	38.2	4	-1E+10	1	-1E+10	1	-1E+10	1	-1E+10	1	-1E+10	1	-1E+10	1
4902663	18	C	01/30/2024	20:12	-128.595	48.006	0	207.80	0	6.3890	0	33.8460	0	26.594	0	205.952	0	114.0	4	38.0	4	-1E+10	1	-1E+10	1	-1E+10	1	-1E+10	1	-1E+10	1	-1E+10	1
4902663	18	C	01/30/2024	20:12	-128.595	48.006	0	208.80	0	6.3700	0	33.8460	0	26.596	0	206.943	0	113.6	4	37.8	4	-1E+10	1	-1E+10	1	-1E+10	1	-1E+10	1	-1E+10	1	-1E+10	1
4902663	18	C	01/30/2024	20:12	-128.595	48.006	0	209.80	0	6.3560	0	33.8480	0	26.600	0	207.934	0	113.2	4	37.7	4	-1E+10	1	-1E+10	1	-1E+10	1	-1E+10	1	-1E+10	1	-1E+10	1
4902663	18	C	01/30/2024	20:12	-128.595	48.006	0	210.80	0	6.3510	0	33.8480	0	26.600	0	208.924	0	112.8	4	37.5	4	-1E+10	1	-1E+10	1	-1E+10	1	-1E+10	1	-1E+10	1	-1E+10	1
4902663	18	C	01/30/2024	20:12	-128.595	48.006	0	211.90	0	6.3430	0	33.8490	0	26.602	0	210.014	0	112.3	4	37.4	4	-1E+10	1	-1E+10	1	-1E+10	1	-1E+10	1	-1E+10	1	-1E+10	1
4902663	18	C	01/30/2024	20:12	-128.595	48.006	0	212.90	0	6.3390	0	33.8500	0	26.603	0	211.005	0	111.9	4	37.2	4	-1E+10	1	-1E+10	1	-1E+10	1	-1E+10	1	-1E+10	1	-1E+10	1
4902663	18	C	01/30/2024	20:12	-128.595	48.006	0	214.00	0	6.3380	0	33.8520	0	26.605	0	212.094	0	111.6	4	37.1	4	-1E+10	1	-1E+10	1	-1E+10	1	-1E+10	1	-1E+10	1	-1E+10	1
4902663	18	C	01/30/2024	20:12	-128.595	48.006	0	215.10	0	6.3380	0	33.8520	0	26.605	0	213.184	0	111.1	4	37.0	4	-1E+10	1	-1E+10	1	-1E+10	1	-1E+10	1	-1E+10	1	-1E+10	1
4902663	18	C	01/30/2024	20:12	-128.595	48.006	0	216.10	0	6.3380	0	33.8530	0	26.606	0	214.174	0	110.7	4	36.8	4	-1E+10	1	-1E+10	1	-1E+10	1	-1E+10	1	-1E+10	1	-1E+10	1
4902663	18	C	01/30/2024	20:12	-128.595	48.006	0	217.10	0	6.3370	0	33.8540	0	26.607	0	215.165	0	110.2	4	36.7	4	-1E+10	1	-1E+10	1	-1E+10	1	-1E+10	1	-1E+10	1	-1E+10	1
4902663	18	C	01/30/2024	20:12	-128.595	48.006	0	218.20	0	6.3360	0	33.8540	0	26.607	0	216.255	0	109.7	4	36.5	4	-1E+10	1	-1E+10	1	-1E+10	1	-1E+10	1	-1E+10	1	-1E+10	1
4902663	18	C	01/30/2024	20:12	-128.595	48.006	0	219.20	0	6.3350	0	33.8540	0	26.607	0	217.245	0	109.1	4	36.3	4	-1E+10	1	-1E+10	1	-1E+10	1	-1E+10	1	-1E+10	1	-1E+10	1
4902663	18	C	01/30/2024	20:12	-128.595	48.006	0	220.30	0	6.3350	0	33.8540	0	26.607	0	218.335	0	108.4	4	36.1	4	-1E+10	1	-1E+10	1	-1E+10	1	-1E+10	1	-1E+10	1	-1E+10	1
4902663	18	C	01/30/2024	20:12	-128.595	48.006	0	221.30	0	6.3350	0	33.8540	0	26.607	0	219.325	0	107.7	4	35.8	4	-1E+10	1	-1E+10	1	-1E+10	1	-1E+10	1	-1E+10	1	-1E+10	1
4902663	18	C	01/30/2024	20:12	-128.595	48.006	0	222.30	0	6.3280	0	33.8560	0	26.610	0	220.316	0	106.9	4	35.6	4	-1E+10	1	-1E+10	1	-1E+10	1	-1E+10	1	-1E+10	1	-1E+10	1
4902663	18	C	01/30/2024	20:12	-128.595	48.006	0	223.40	0	6.3190	0	33.8570	0	26.612	0	221.405	0	106.0	4	35.3	4	-1E+10	1	-1E+10	1	-1E+10	1	-1E+10	1	-1E+10	1	-1E+10	1
4902663	18	C	01/30/2024	20:12	-128.595	48.006	0	224.40	0	6.3200	0	33.8590	0	26.613	0	222.396	0	105.1	4	35.0	4	-1E+10	1	-1E+10	1	-1E+10	1	-1E+10	1	-1E+10	1	-1E+10	1
4902663	18	C	01/30/2024	20:12	-128.595	48.006	0	225.50	0	6.3260	0	33.8600	0	26.613	0	223.486	0	104.1	4	34.6	4	-1E+10	1	-1E+10	1	-1E+10	1	-1E+10	1	-1E+10	1	-1E+10	1
4902663	18	C	01/30/2024	20:12	-128.595	48.006	0	226.50	0	6.3370	0	33.8650	0	26.616	0	224.476	0	103.2	4	34.3	4	-1E+10	1	-1E+10	1	-1E+10	1	-1E+10	1	-1E+10	1	-1E+10	1
4902663	18	C	01/30/2024	20:12	-128.595	48.006	0	227.60	0	6.3360	0	33.8680	0	26.618	0	225.566	0	102.5	4	34.1	4	-1E+10	1	-1E+10	1	-1E+10	1	-1E+10	1	-1E+10	1	-1E+10	1
4902663	18	C	01/30/2024	20:12	-128.595	48.006	0	228.70	0	6.3320	0	33.8680	0	26.619	0	226.655	0	101.8	4	33.9	4	-1E+10	1	-1E+10	1	-1E+10	1	-1E+10	1	-1E+10	1	-1E+10	1
4902663	18	C	01/30/2024	20:12	-128.595	48.006	0	229.80	0	6.3200	0	33.8630	0	26.616	0	227.745	0	100.9	4	33.6	4	-1E+10	1	-1E+10	1	-1E+10	1	-1E+10	1	-1E+10	1	-1E+10	1
4902663	18	C	01/30/2024	20:12	-128.595	48.006	0	230.80	0	6.3040	0	33.8670	0	26.621	0	228.735	0	99.9	4	33.2	4	-1E+10	1	-1E+10	1	-1E+10	1	-1E+10	1	-1E+10	1	-1E+10	1
4902663	18	C	01/30/2024	20:12	-128.595	48.006	0	231.90	0	6.2900	0	33.8690	0	26.625	0	229.825	0	98.5	4	32.8	4	-1E+10	1	-1E+10	1	-1E+10	1	-1E+10	1	-1E+10	1	-1E+10	1
4902663	18	C	01/30/2024	20:12	-128.595	48.006	0	233.00	0	6.2520	0	33.8640	0	26.626	0	230.914	0	97.0	4	32.2	4	-1E+10	1	-1E+10	1	-1E+10	1	-1E+10	1	-1E+10	1	-1E+10	1
4902663	18	C	01/30/2024	20:12	-128.595	48.006	0	234.00	0	6.3030	0	33.8840	0	26.635	0	231.905	0	95.9	4	31.9	4	-1E+10	1	-1E+10	1	-1E+10	1	-1E+10	1	-1E+10	1	-1E+10	1
4902663	18	C	01/30/2024	20:12	-128.595	48.006	0	235.10	0	6.2610	0	33.8800	0	26.637	0	232.994	0	94.9	4	31.5	4	-1E+10	1	-1E+10	1	-1E+10	1	-1E+10	1	-1E+10	1	-1E+10	1
4902663	18	C	01/30/2024	20:12	-128.595	48.006	0	236.10	0	6.2520	0	33.8780	0	26.637	0	233.985	0	93.5	4	31.1	4	-1E+10	1	-1E+10	1	-1E+10	1	-1E+10	1	-1E+10	1	-1E+10	1
4902663	18	C	01/30/2024	20:12	-128.595	48.006	0	237.20	0	6.2350	0	33.8810	0	26.641	0	235.074	0	92.0	4	30.6	4	-1E+10	1	-1E+10	1	-1E+10	1	-1E+10	1	-1E+10	1	-1E+10	1
4902663	18	C	01/30/2024	20:12	-128.595	48.006	0	238.30	0	6.2010	0	33.8780	0	26.643	0	236.164	0	90.2	4	29.9	4	-1E+10	1	-1E+10	1	-1E+10	1	-1E+10	1	-1E+10	1	-1E+10	1
4902663	18	C	01/30/2024	20:12	-128.595	48.006	0	239.30	0	6.2220	0	33.8870	0	26.648	0	237.154	0	88.5	4	29.4	4	-1E+10	1	-1E+10	1	-1E+10	1	-1E+10	1	-1E+10	1	-1E+10	1
4902663	18	C	01/30/2024	20:12	-128.595	48.006	0	240.40	0	6.2440	0	33.8890	0	26.647	0	238.244	0	86.7	4	28.8	4	-1E+10	1	-1E+10	1	-1E+10	1	-1E+10	1	-1E+10	1	-1E+10	1
4902663	18	C	01/30/2024	20:12	-128.595	48.006	0	241.50	0	6.3300	0	33.9200	0	26.660	0	239.333	0	85.5	4	28.5	4	-1E+10	1	-1E+10	1	-1E+10	1	-1E+10	1	-1E+10	1	-1E+10	1
4902663	18	C	01/30/2024	20:12	-128.595	48.006	0	242.60	0	6.3350	0	33.9180	0	26.658	0	240.423	0	84.9	4	28.3	4	-1E+10	1	-1E+10	1	-1E+10	1	-1E+10	1	-1E+10	1	-1E+10	1
4902663	18	C	01/30/2024	20:12	-128.595	48.006	0	243.70	0	6.3480	0	33.9200	0	26.658	0	241.512	0	84.4	4	28.1	4	-1E+10	1	-1E+10	1	-1E+10	1	-1E+10	1	-1E+10	1	-1E+10	1
4902663	18	C	01/30/2024	20:12	-128.595	48.006	0	244.80	0	6.3450	0	33.9230	0	26.661	0	242.602	0	83.9	4	28.0	4	-1E+10	1	-1E+10	1	-1E+10	1	-1E+10	1	-1E+10	1	-1E+10	1
4902663	18	C	01/30/2024	20:12	-128.595	48.006	0	245.90	0	6.3110	0	33.9260	0	26.667	0	243.691	0	83.3	4	27.7	4	-1E+10	1	-1E+10	1	-1E+10	1	-1E+10	1	-1E+10	1	-1E+10	1
4902663	18	C	01/30/2024	20:12	-128.595	48.006	0	247.00	0	6.3400	0	33.9120	0	26.653	0	244.781	0	82.7	4	27.5	4	-1E+10	1	-1E+10	1	-1E+10	1	-1E+10	1	-1E+10	1	-1E+10	1
4902663	18	C	01/30/2024	20:12	-128.595	48.006	0	248.10	0	6.3400	0	33.9310	0	26.668	0	245.870	0	82.6	4	27.5	4	-1E+10	1	-1E+10	1	-1E+10	1	-1E+10	1	-1E+10	1	-1E+10	1
4902663	18	C	01/30/2024	20:12	-128.595	48.006	0	249.20	0	6.3370	0	33.9320	0	26.669	0	246.960	0	82.6	4	27.5	4	-1E+10	1	-1E+10	1	-1E+10	1	-1E+10	1	-1E+10	1	-1E+10	1
4902663	18	C	01/30/2024	20:12	-128.595	48.006	0	250.30	0	6.3300	0	33.9330	0	26.670	0	248.049	0	82.7	4	27.5	4	-1E+10	1	-1E+10	1	-1E+10	1	-1E+10	1	-1E+10	1	-1E+10	1
4902663	18	C	01/30/2024	20:12	-128.595	48.006	0	251.40	0	6.3130	0	33.9330	0	26.673	0	249.139	0	82.7	4	27.5	4	-1E+10	1	-1E+10	1	-1E+10	1	-1E+10	1	-1E+10	1	-1E+10	1
4902663	18	C	01/30/2024	20:12	-128.595	48.006	0	252.50	0	6.3010	0	33.9320	0	26.673	0	250.228	0	82.7	4	27.5	4	-1E+10	1	-1E+10	1	-1E+10	1	-1E+10	1	-1E+10	1	-1E+10	1
4902663	18	C	01/30/2024	20:12	-128.595	48.006	0	253.50	0	6.2980	0	33.9310	0	26.673	0	251.218	0	82.7	4	27.5	4	-1E+10	1	-1E+10	1	-1E+10	1	-1E+10	1	-1E+10	1	-1E+10	1
4902663	18	C	01/30/2024	20:12	-128.595	48.006	0	254.70	0	6.2770	0	33.9330	0	26.677	0	252.407	0	82.8	4	27.5	4	-1E+10	1	-1E+10	1	-1E+10	1	-1E+10	1	-1E+10	1	-1E+10	1
4902663	18	C	01/30/2024	20:12	-128.595	48.006	0	255.70	0	6.2460	0	33.9300	0	26.679	0	253.397	0	82.8	4	27.5	4	-1E+10	1	-1E+10	1	-1E+10	1	-1E+10	1	-1E+10	1	-1E+10	1
4902663	18	C	01/30/2024	20:12	-128.595	48.006	0	256.80	0	6.2370	0	33.9310	0	26.681	0	254.487	0	82.9	4	27.6	4	-1E+10	1	-1E+10	1	-1E+10	1	-1E+10	1	-1E+10	1	-1E+10	1
4902663	18	C	01/30/2024	20:12	-128.595	48.006	0	257.90	0	6.2170	0	33.9270	0	26.680	0	255.576	0	83.0	4	27.6	4	-1E+10	1	-1E+10	1	-1E+10	1	-1E+10	1	-1E+10	1	-1E+10	1
4902663	18	C	01/30/2024	20:12	-128.595	48.006	0	259.00	0	6.2100	0	33.9280	0	26.682	0	256.666	0	82.9	4	27.5	4	-1E+10	1	-1E+10	1	-1E+10	1	-1E+10	1	-1E+10	1	-1E+10	1
4902663	18	C	01/30/2024	20:12	-128.595	48.006	0	260.10	0	6.2000	0	33.9270	0	26.682	0	257.755	0	82.8	4	27.5	4	-1E+10	1	-1E+10	1	-1E+10	1	-1E+10	1	-1E+10	1	-1E+10	1
4902663	18	C	01/30/2024	20:12	-128.595	48.006	0	261.20	0	6.1880	0	33.9280	0	26.685	0	258.844	0	82.7	4	27.4	4	-1E+10	1	-1E+10	1	-1E+10	1	-1E+10	1	-1E+10	1	-1E+10	1
4902663	18	C	01/30/2024	20:12	-128.595	48.006	0	262.20	0	6.1930	0	33.9320	0	26.687	0	259.835	0	82.7	4	27.4	4	-1E+10	1	-1E+10	1	-1E+10	1	-1E+10	1	-1E+10	1	-1E+10	1
4902663	18	C	01/30/2024	20:12	-128.595	48.006	0	263.90	0	6.1510	0	33.9290	0	26.690	0	261.518	0	82.8	4	27.4	4	-1E+10	1	-1E+10	1	-1E+10	1	-1E+10	1	-1E+10	1	-1E+10	1
4902663	18	C	01/30/2024	20:12	-128.595	48.006	0	265.10	0	6.1420	0	33.9280	0	26.691	0	262.707	0	82.7	4	27.4	4	-1E+10	1	-1E+10	1	-1E+10	1	-1E+10	1	-1E+10	1	-1E+10	1
4902663	18	C	01/30/2024	20:12	-128.595	48.006	0	265.90	0	6.1190	0	33.9280	0	26.694	0	263.499	0	82.6	4	27.4	4	-1E+10	1	-1E+10	1	-1E+10	1	-1E+10	1	-1E+10	1	-1E+10	1
4902663	18	C	01/30/2024	20:12	-128.595	48.006	0	266.70	0	6.1050	0	33.9300	0	26.697	0	264.291	0	82.3	4	27.3	4	-1E+10	1	-1E+10	1	-1E+10	1	-1E+10	1	-1E+10	1	-1E+10	1
4902663	18	C	01/30/2024	20:12	-128.595	48.006	0	268.00	0	6.1030	0	33.9300	0	26.697	0	265.579	0	81.9	4	27.1	4	-1E+10	1	-1E+10	1	-1E+10	1	-1E+10	1	-1E+10	1	-1E+10	1
4902663	18	C	01/30/2024	20:12	-128.595	48.006	0	269.30	0	6.0890	0	33.9310	0	26.700	0	266.866	0	81.5	4	27.0	4	-1E+10	1	-1E+10	1	-1E+10	1	-1E+10	1	-1E+10	1	-1E+10	1
4902663	18	C	01/30/2024	20:12	-128.595	48.006	0	270.10	0	6.0880	0	33.9310	0	26.700	0	267.658	0	81.1	4	26.9	4	-1E+10	1	-1E+10	1	-1E+10	1	-1E+10	1	-1E+10	1	-1E+10	1
4902663	18	C	01/30/2024	20:12	-128.595	48.006	0	270.90	0	6.0870	0	33.9310	0	26.700	0	268.451	0	80.8	4	26.7	4	-1E+10	1	-1E+10	1	-1E+10	1	-1E+10	1	-1E+10	1	-1E+10	1
4902663	18	C	01/30/2024	20:12	-128.595	48.006	0	271.80	0	6.0840	0	33.9310	0	26.700	0	269.342	0	80.4	4	26.6	4	-1E+10	1	-1E+10	1	-1E+10	1	-1E+10	1	-1E+10	1	-1E+10	1
4902663	18	C	01/30/2024	20:12	-128.595	48.006	0	273.00	0	6.0730	0	33.9310	0	26.702	0	270.530	0	79.7	4	26.4	4	-1E+10	1	-1E+10	1	-1E+10	1	-1E+10	1	-1E+10	1	-1E+10	1
4902663	18	C	01/30/2024	20:12	-128.595	48.006	0	274.30	0	6.0670	0	33.9360	0	26.707	0	271.818	0	79.2	4	26.2	4	-1E+10	1	-1E+10	1	-1E+10	1	-1E+10	1	-1E+10	1	-1E+10	1
4902663	18	C	01/30/2024	20:12	-128.595	48.006	0	275.10	0	6.0630	0	33.9350	0	26.706	0	272.610	0	78.8	4	26.1	4	-1E+10	1	-1E+10	1	-1E+10	1	-1E+10	1	-1E+10	1	-1E+10	1
4902663	18	C	01/30/2024	20:12	-128.595	48.006	0	276.00	0	6.0560	0	33.9360	0	26.708	0	273.501	0	78.6	4	26.0	4	-1E+10	1	-1E+10	1	-1E+10	1	-1E+10	1	-1E+10	1	-1E+10	1
4902663	18	C	01/30/2024	20:12	-128.595	48.006	0	276.90	0	6.0550	0	33.9350	0	26.707	0	274.392	0	78.2	4	25.9	4	-1E+10	1	-1E+10	1	-1E+10	1	-1E+10	1	-1E+10	1	-1E+10	1
4902663	18	C	01/30/2024	20:12	-128.595	48.006	0	277.70	0	6.0530	0	33.9350	0	26.708	0	275.185	0	77.8	4	25.7	4	-1E+10	1	-1E+10	1	-1E+10	1	-1E+10	1	-1E+10	1	-1E+10	1
4902663	18	C	01/30/2024	20:12	-128.595	48.006	0	279.00	0	6.0350	0	33.9360	0	26.711	0	276.472	0	77.5	4	25.6	4	-1E+10	1	-1E+10	1	-1E+10	1	-1E+10	1	-1E+10	1	-1E+10	1
4902663	18	C	01/30/2024	20:12	-128.595	48.006	0	280.30	0	6.0200	0	33.9390	0	26.715	0	277.759	0	77.4	4	25.6	4	-1E+10	1	-1E+10	1	-1E+10	1	-1E+10	1	-1E+10	1	-1E+10	1
4902663	18	C	01/30/2024	20:12	-128.595	48.006	0	281.20	0	6.0150	0	33.9390	0	26.716	0	278.651	0	77.3	4	25.6	4	-1E+10	1	-1E+10	1	-1E+10	1	-1E+10	1	-1E+10	1	-1E+10	1
4902663	18	C	01/30/2024	20:12	-128.595	48.006	0	282.00	0	6.0060	0	33.9390	0	26.717	0	279.443	0	77.2	4	25.5	4	-1E+10	1	-1E+10	1	-1E+10	1	-1E+10	1	-1E+10	1	-1E+10	1
4902663	18	C	01/30/2024	20:12	-128.595	48.006	0	282.90	0	5.9890	0	33.9370	0	26.717	0	280.334	0	76.8	4	25.4	4	-1E+10	1	-1E+10	1	-1E+10	1	-1E+10	1	-1E+10	1	-1E+10	1
4902663	18	C	01/30/2024	20:12	-128.595	48.006	0	283.80	0	5.9850	0	33.9370	0	26.718	0	281.225	0	76.5	4	25.3	4	-1E+10	1	-1E+10	1	-1E+10	1	-1E+10	1	-1E+10	1	-1E+10	1
4902663	18	C	01/30/2024	20:12	-128.595	48.006	0	284.60	0	5.9780	0	33.9380	0	26.719	0	282.017	0	76.2	4	25.2	4	-1E+10	1	-1E+10	1	-1E+10	1	-1E+10	1	-1E+10	1	-1E+10	1
4902663	18	C	01/30/2024	20:12	-128.595	48.006	0	285.90	0	5.9660	0	33.9380	0	26.721	0	283.305	0	75.7	4	25.0	4	-1E+10	1	-1E+10	1	-1E+10	1	-1E+10	1	-1E+10	1	-1E+10	1
4902663	18	C	01/30/2024	20:12	-128.595	48.006	0	287.20	0	5.9620	0	33.9390	0	26.722	0	284.592	0	75.2	4	24.8	4	-1E+10	1	-1E+10	1	-1E+10	1	-1E+10	1	-1E+10	1	-1E+10	1
4902663	18	C	01/30/2024	20:12	-128.595	48.006	0	288.00	0	5.9620	0	33.9390	0	26.722	0	285.384	0	74.8	4	24.7	4	-1E+10	1	-1E+10	1	-1E+10	1	-1E+10	1	-1E+10	1	-1E+10	1
4902663	18	C	01/30/2024	20:12	-128.595	48.006	0	288.90	0	5.9540	0	33.9410	0	26.725	0	286.275	0	74.5	4	24.6	4	-1E+10	1	-1E+10	1	-1E+10	1	-1E+10	1	-1E+10	1	-1E+10	1
4902663	18	C	01/30/2024	20:12	-128.595	48.006	0	289.80	0	5.9500	0	33.9410	0	26.725	0	287.167	0	74.1	4	24.5	4	-1E+10	1	-1E+10	1	-1E+10	1	-1E+10	1	-1E+10	1	-1E+10	1
4902663	18	C	01/30/2024	20:12	-128.595	48.006	0	290.60	0	5.9370	0	33.9420	0	26.728	0	287.959	0	73.7	4	24.3	4	-1E+10	1	-1E+10	1	-1E+10	1	-1E+10	1	-1E+10	1	-1E+10	1
4902663	18	C	01/30/2024	20:12	-128.595	48.006	0	291.90	0	5.9200	0	33.9420	0	26.730	0	289.246	0	72.7	4	24.0	4	-1E+10	1	-1E+10	1	-1E+10	1	-1E+10	1	-1E+10	1	-1E+10	1
4902663	18	C	01/30/2024	20:12	-128.595	48.006	0	293.20	0	5.9210	0	33.9470	0	26.734	0	290.533	0	71.9	4	23.7	4	-1E+10	1	-1E+10	1	-1E+10	1	-1E+10	1	-1E+10	1	-1E+10	1
4902663	18	C	01/30/2024	20:12	-128.595	48.006	0	294.10	0	5.9250	0	33.9480	0	26.734	0	291.424	0	71.4	4	23.6	4	-1E+10	1	-1E+10	1	-1E+10	1	-1E+10	1	-1E+10	1	-1E+10	1
4902663	18	C	01/30/2024	20:12	-128.595	48.006	0	294.90	0	5.9370	0	33.9560	0	26.739	0	292.217	0	71.2	4	23.5	4	-1E+10	1	-1E+10	1	-1E+10	1	-1E+10	1	-1E+10	1	-1E+10	1
4902663	18	C	01/30/2024	20:12	-128.595	48.006	0	295.80	0	5.9350	0	33.9540	0	26.738	0	293.108	0	71.0	4	23.4	4	-1E+10	1	-1E+10	1	-1E+10	1	-1E+10	1	-1E+10	1	-1E+10	1
4902663	18	C	01/30/2024	20:12	-128.595	48.006	0	296.70	0	5.9240	0	33.9560	0	26.740	0	293.999	0	70.8	4	23.4	4	-1E+10	1	-1E+10	1	-1E+10	1	-1E+10	1	-1E+10	1	-1E+10	1
4902663	18	C	01/30/2024	20:12	-128.595	48.006	0	297.90	0	5.9250	0	33.9570	0	26.741	0	295.187	0	70.7	4	23.3	4	-1E+10	1	-1E+10	1	-1E+10	1	-1E+10	1	-1E+10	1	-1E+10	1
4902663	18	C	01/30/2024	20:12	-128.595	48.006	0	299.20	0	5.9270	0	33.9590	0	26.743	0	296.474	0	70.7	4	23.3	4	-1E+10	1	-1E+10	1	-1E+10	1	-1E+10	1	-1E+10	1	-1E+10	1
4902663	18	C	01/30/2024	20:12	-128.595	48.006	0	300.10	0	5.9130	0	33.9610	0	26.746	0	297.366	0	70.7	4	23.3	4	-1E+10	1	-1E+10	1	-1E+10	1	-1E+10	1	-1E+10	1	-1E+10	1
4902663	18	C	01/30/2024	20:12	-128.595	48.006	0	300.90	0	5.8700	0	33.9590	0	26.750	0	298.158	0	70.8	4	23.3	4	-1E+10	1	-1E+10	1	-1E+10	1	-1E+10	1	-1E+10	1	-1E+10	1
4902663	18	C	01/30/2024	20:12	-128.595	48.006	0	301.80	0	5.8670	0	33.9590	0	26.750	0	299.049	0	70.8	4	23.3	4	-1E+10	1	-1E+10	1	-1E+10	1	-1E+10	1	-1E+10	1	-1E+10	1
4902663	18	C	01/30/2024	20:12	-128.595	48.006	0	302.70	0	5.8590	0	33.9590	0	26.751	0	299.940	0	70.8	4	23.3	4	-1E+10	1	-1E+10	1	-1E+10	1	-1E+10	1	-1E+10	1	-1E+10	1
4902663	18	C	01/30/2024	20:12	-128.595	48.006	0	304.00	0	5.8420	0	33.9580	0	26.752	0	301.227	0	70.7	4	23.3	4	-1E+10	1	-1E+10	1	-1E+10	1	-1E+10	1	-1E+10	1	-1E+10	1
4902663	18	C	01/30/2024	20:12	-128.595	48.006	0	305.30	0	5.8170	0	33.9560	0	26.754	0	302.514	0	70.6	4	23.2	4	-1E+10	1	-1E+10	1	-1E+10	1	-1E+10	1	-1E+10	1	-1E+10	1
4902663	18	C	01/30/2024	20:12	-128.595	48.006	0	306.20	0	5.7980	0	33.9570	0	26.757	0	303.406	0	70.4	4	23.1	4	-1E+10	1	-1E+10	1	-1E+10	1	-1E+10	1	-1E+10	1	-1E+10	1
4902663	18	C	01/30/2024	20:12	-128.595	48.006	0	307.10	0	5.7680	0	33.9520	0	26.757	0	304.297	0	70.0	4	23.0	4	-1E+10	1	-1E+10	1	-1E+10	1	-1E+10	1	-1E+10	1	-1E+10	1
4902663	18	C	01/30/2024	20:12	-128.595	48.006	0	307.90	0	5.7610	0	33.9520	0	26.758	0	305.089	0	69.6	4	22.9	4	-1E+10	1	-1E+10	1	-1E+10	1	-1E+10	1	-1E+10	1	-1E+10	1
4902663	18	C	01/30/2024	20:12	-128.595	48.006	0	308.80	0	5.7600	0	33.9550	0	26.760	0	305.980	0	69.2	4	22.8	4	-1E+10	1	-1E+10	1	-1E+10	1	-1E+10	1	-1E+10	1	-1E+10	1
4902663	18	C	01/30/2024	20:12	-128.595	48.006	0	309.70	0	5.7570	0	33.9540	0	26.760	0	306.871	0	68.8	4	22.6	4	-1E+10	1	-1E+10	1	-1E+10	1	-1E+10	1	-1E+10	1	-1E+10	1
4902663	18	C	01/30/2024	20:12	-128.595	48.006	0	310.60	0	5.7470	0	33.9590	0	26.765	0	307.762	0	68.2	4	22.4	4	-1E+10	1	-1E+10	1	-1E+10	1	-1E+10	1	-1E+10	1	-1E+10	1
4902663	18	C	01/30/2024	20:12	-128.595	48.006	0	311.90	0	5.7460	0	33.9540	0	26.761	0	309.049	0	67.3	4	22.1	4	-1E+10	1	-1E+10	1	-1E+10	1	-1E+10	1	-1E+10	1	-1E+10	1
4902663	18	C	01/30/2024	20:12	-128.595	48.006	0	313.30	0	5.7500	0	33.9580	0	26.764	0	310.435	0	66.4	4	21.8	4	-1E+10	1	-1E+10	1	-1E+10	1	-1E+10	1	-1E+10	1	-1E+10	1
4902663	18	C	01/30/2024	20:12	-128.595	48.006	0	314.10	0	5.7550	0	33.9590	0	26.764	0	311.228	0	65.9	4	21.7	4	-1E+10	1	-1E+10	1	-1E+10	1	-1E+10	1	-1E+10	1	-1E+10	1
4902663	18	C	01/30/2024	20:12	-128.595	48.006	0	315.00	0	5.7690	0	33.9610	0	26.764	0	312.119	0	65.4	4	21.5	4	-1E+10	1	-1E+10	1	-1E+10	1	-1E+10	1	-1E+10	1	-1E+10	1
4902663	18	C	01/30/2024	20:12	-128.595	48.006	0	315.90	0	5.7840	0	33.9590	0	26.760	0	313.010	0	65.1	4	21.4	4	-1E+10	1	-1E+10	1	-1E+10	1	-1E+10	1	-1E+10	1	-1E+10	1
4902663	18	C	01/30/2024	20:12	-128.595	48.006	0	316.80	0	5.7820	0	33.9680	0	26.768	0	313.901	0	64.9	4	21.3	4	-1E+10	1	-1E+10	1	-1E+10	1	-1E+10	1	-1E+10	1	-1E+10	1
4902663	18	C	01/30/2024	20:12	-128.595	48.006	0	317.70	0	5.7740	0	33.9690	0	26.769	0	314.792	0	64.6	4	21.2	4	-1E+10	1	-1E+10	1	-1E+10	1	-1E+10	1	-1E+10	1	-1E+10	1
4902663	18	C	01/30/2024	20:12	-128.595	48.006	0	318.90	0	5.7630	0	33.9710	0	26.772	0	315.980	0	64.2	4	21.1	4	-1E+10	1	-1E+10	1	-1E+10	1	-1E+10	1	-1E+10	1	-1E+10	1
4902663	18	C	01/30/2024	20:12	-128.595	48.006	0	320.30	0	5.7580	0	33.9710	0	26.773	0	317.366	0	63.9	4	21.0	4	-1E+10	1	-1E+10	1	-1E+10	1	-1E+10	1	-1E+10	1	-1E+10	1
4902663	18	C	01/30/2024	20:12	-128.595	48.006	0	321.20	0	5.7440	0	33.9710	0	26.775	0	318.257	0	63.6	4	20.9	4	-1E+10	1	-1E+10	1	-1E+10	1	-1E+10	1	-1E+10	1	-1E+10	1
4902663	18	C	01/30/2024	20:12	-128.595	48.006	0	322.10	0	5.7350	0	33.9690	0	26.774	0	319.148	0	63.3	4	20.8	4	-1E+10	1	-1E+10	1	-1E+10	1	-1E+10	1	-1E+10	1	-1E+10	1
4902663	18	C	01/30/2024	20:12	-128.595	48.006	0	322.90	0	5.7290	0	33.9680	0	26.774	0	319.940	0	62.9	4	20.7	4	-1E+10	1	-1E+10	1	-1E+10	1	-1E+10	1	-1E+10	1	-1E+10	1
4902663	18	C	01/30/2024	20:12	-128.595	48.006	0	323.80	0	5.7200	0	33.9700	0	26.777	0	320.831	0	62.5	4	20.5	4	-1E+10	1	-1E+10	1	-1E+10	1	-1E+10	1	-1E+10	1	-1E+10	1
4902663	18	C	01/30/2024	20:12	-128.595	48.006	0	324.70	0	5.7220	0	33.9710	0	26.777	0	321.722	0	62.2	4	20.4	4	-1E+10	1	-1E+10	1	-1E+10	1	-1E+10	1	-1E+10	1	-1E+10	1
4902663	18	C	01/30/2024	20:12	-128.595	48.006	0	325.60	0	5.7240	0	33.9740	0	26.780	0	322.613	0	61.9	4	20.3	4	-1E+10	1	-1E+10	1	-1E+10	1	-1E+10	1	-1E+10	1	-1E+10	1
4902663	18	C	01/30/2024	20:12	-128.595	48.006	0	326.90	0	5.7130	0	33.9730	0	26.780	0	323.900	0	61.5	4	20.2	4	-1E+10	1	-1E+10	1	-1E+10	1	-1E+10	1	-1E+10	1	-1E+10	1
4902663	18	C	01/30/2024	20:12	-128.595	48.006	0	328.30	0	5.6880	0	33.9770	0	26.786	0	325.286	0	61.0	4	20.0	4	-1E+10	1	-1E+10	1	-1E+10	1	-1E+10	1	-1E+10	1	-1E+10	1
4902663	18	C	01/30/2024	20:12	-128.595	48.006	0	329.20	0	5.6860	0	33.9760	0	26.786	0	326.178	0	60.7	4	19.9	4	-1E+10	1	-1E+10	1	-1E+10	1	-1E+10	1	-1E+10	1	-1E+10	1
4902663	18	C	01/30/2024	20:12	-128.595	48.006	0	330.10	0	5.6850	0	33.9780	0	26.788	0	327.069	0	60.4	4	19.8	4	-1E+10	1	-1E+10	1	-1E+10	1	-1E+10	1	-1E+10	1	-1E+10	1
4902663	18	C	01/30/2024	20:12	-128.595	48.006	0	331.00	0	5.6850	0	33.9780	0	26.788	0	327.960	0	60.1	4	19.7	4	-1E+10	1	-1E+10	1	-1E+10	1	-1E+10	1	-1E+10	1	-1E+10	1
4902663	18	C	01/30/2024	20:12	-128.595	48.006	0	331.90	0	5.6750	0	33.9800	0	26.790	0	328.851	0	59.9	4	19.6	4	-1E+10	1	-1E+10	1	-1E+10	1	-1E+10	1	-1E+10	1	-1E+10	1
4902663	18	C	01/30/2024	20:12	-128.595	48.006	0	332.80	0	5.6630	0	33.9830	0	26.794	0	329.742	0	59.7	4	19.6	4	-1E+10	1	-1E+10	1	-1E+10	1	-1E+10	1	-1E+10	1	-1E+10	1
4902663	18	C	01/30/2024	20:12	-128.595	48.006	0	333.70	0	5.6580	0	33.9830	0	26.795	0	330.633	0	59.6	4	19.5	4	-1E+10	1	-1E+10	1	-1E+10	1	-1E+10	1	-1E+10	1	-1E+10	1
4902663	18	C	01/30/2024	20:12	-128.595	48.006	0	334.60	0	5.6350	0	33.9820	0	26.797	0	331.524	0	59.3	4	19.4	4	-1E+10	1	-1E+10	1	-1E+10	1	-1E+10	1	-1E+10	1	-1E+10	1
4902663	18	C	01/30/2024	20:12	-128.595	48.006	0	335.90	0	5.6220	0	33.9810	0	26.798	0	332.811	0	58.8	4	19.3	4	-1E+10	1	-1E+10	1	-1E+10	1	-1E+10	1	-1E+10	1	-1E+10	1
4902663	18	C	01/30/2024	20:12	-128.595	48.006	0	337.30	0	5.6310	0	33.9850	0	26.800	0	334.197	0	58.5	4	19.2	4	-1E+10	1	-1E+10	1	-1E+10	1	-1E+10	1	-1E+10	1	-1E+10	1
4902663	18	C	01/30/2024	20:12	-128.595	48.006	0	338.20	0	5.6340	0	33.9850	0	26.799	0	335.088	0	58.3	4	19.1	4	-1E+10	1	-1E+10	1	-1E+10	1	-1E+10	1	-1E+10	1	-1E+10	1
4902663	18	C	01/30/2024	20:12	-128.595	48.006	0	339.10	0	5.6360	0	33.9860	0	26.800	0	335.979	0	58.1	4	19.1	4	-1E+10	1	-1E+10	1	-1E+10	1	-1E+10	1	-1E+10	1	-1E+10	1
4902663	18	C	01/30/2024	20:12	-128.595	48.006	0	340.10	0	5.6350	0	33.9880	0	26.802	0	336.969	0	58.0	4	19.0	4	-1E+10	1	-1E+10	1	-1E+10	1	-1E+10	1	-1E+10	1	-1E+10	1
4902663	18	C	01/30/2024	20:12	-128.595	48.006	0	341.00	0	5.6310	0	33.9880	0	26.802	0	337.860	0	57.9	4	19.0	4	-1E+10	1	-1E+10	1	-1E+10	1	-1E+10	1	-1E+10	1	-1E+10	1
4902663	18	C	01/30/2024	20:12	-128.595	48.006	0	341.90	0	5.6380	0	33.9880	0	26.801	0	338.751	0	57.9	4	19.0	4	-1E+10	1	-1E+10	1	-1E+10	1	-1E+10	1	-1E+10	1	-1E+10	1
4902663	18	C	01/30/2024	20:12	-128.595	48.006	0	342.80	0	5.6330	0	33.9900	0	26.804	0	339.642	0	58.0	4	19.0	4	-1E+10	1	-1E+10	1	-1E+10	1	-1E+10	1	-1E+10	1	-1E+10	1
4902663	18	C	01/30/2024	20:12	-128.595	48.006	0	343.70	0	5.6290	0	33.9900	0	26.804	0	340.532	0	58.0	4	19.0	4	-1E+10	1	-1E+10	1	-1E+10	1	-1E+10	1	-1E+10	1	-1E+10	1
4902663	18	C	01/30/2024	20:12	-128.595	48.006	0	344.60	0	5.6180	0	33.9900	0	26.805	0	341.423	0	58.2	4	19.1	4	-1E+10	1	-1E+10	1	-1E+10	1	-1E+10	1	-1E+10	1	-1E+10	1
4902663	18	C	01/30/2024	20:12	-128.595	48.006	0	345.90	0	5.6100	0	33.9900	0	26.806	0	342.710	0	58.4	4	19.1	4	-1E+10	1	-1E+10	1	-1E+10	1	-1E+10	1	-1E+10	1	-1E+10	1
4902663	18	C	01/30/2024	20:12	-128.595	48.006	0	347.30	0	5.5860	0	33.9900	0	26.809	0	344.096	0	58.7	4	19.2	4	-1E+10	1	-1E+10	1	-1E+10	1	-1E+10	1	-1E+10	1	-1E+10	1
4902663	18	C	01/30/2024	20:12	-128.595	48.006	0	348.20	0	5.5380	0	33.9870	0	26.813	0	344.987	0	58.8	4	19.2	4	-1E+10	1	-1E+10	1	-1E+10	1	-1E+10	1	-1E+10	1	-1E+10	1
4902663	18	C	01/30/2024	20:12	-128.595	48.006	0	349.10	0	5.5260	0	33.9880	0	26.815	0	345.878	0	58.8	4	19.2	4	-1E+10	1	-1E+10	1	-1E+10	1	-1E+10	1	-1E+10	1	-1E+10	1
4902663	18	C	01/30/2024	20:12	-128.595	48.006	0	350.10	0	5.5230	0	33.9880	0	26.815	0	346.868	0	58.9	4	19.2	4	-1E+10	1	-1E+10	1	-1E+10	1	-1E+10	1	-1E+10	1	-1E+10	1
4902663	18	C	01/30/2024	20:12	-128.595	48.006	0	352.80	0	5.4920	0	33.9850	0	26.817	0	349.541	0	58.5	4	19.1	4	-1E+10	1	-1E+10	1	-1E+10	1	-1E+10	1	-1E+10	1	-1E+10	1
4902663	18	C	01/30/2024	20:12	-128.595	48.006	0	357.90	0	5.4760	0	33.9850	0	26.819	0	354.589	0	57.7	4	18.8	4	-1E+10	1	-1E+10	1	-1E+10	1	-1E+10	1	-1E+10	1	-1E+10	1
4902663	18	C	01/30/2024	20:12	-128.595	48.006	0	363.00	0	5.4640	0	33.9880	0	26.822	0	359.638	0	56.4	4	18.4	4	-1E+10	1	-1E+10	1	-1E+10	1	-1E+10	1	-1E+10	1	-1E+10	1
4902663	18	C	01/30/2024	20:12	-128.595	48.006	0	367.70	0	5.4370	0	33.9900	0	26.827	0	364.290	0	55.2	4	18.0	4	-1E+10	1	-1E+10	1	-1E+10	1	-1E+10	1	-1E+10	1	-1E+10	1
4902663	18	C	01/30/2024	20:12	-128.595	48.006	0	372.90	0	5.4230	0	33.9950	0	26.833	0	369.437	0	53.9	4	17.6	4	-1E+10	1	-1E+10	1	-1E+10	1	-1E+10	1	-1E+10	1	-1E+10	1
4902663	18	C	01/30/2024	20:12	-128.595	48.006	0	378.20	0	5.4030	0	33.9970	0	26.837	0	374.683	0	52.7	4	17.2	4	-1E+10	1	-1E+10	1	-1E+10	1	-1E+10	1	-1E+10	1	-1E+10	1
4902663	18	C	01/30/2024	20:12	-128.595	48.006	0	382.90	0	5.3930	0	34.0000	0	26.840	0	379.335	0	50.7	4	16.5	4	-1E+10	1	-1E+10	1	-1E+10	1	-1E+10	1	-1E+10	1	-1E+10	1
4902663	18	C	01/30/2024	20:12	-128.595	48.006	0	387.70	0	5.3630	0	34.0100	0	26.852	0	384.086	0	49.1	4	16.0	4	-1E+10	1	-1E+10	1	-1E+10	1	-1E+10	1	-1E+10	1	-1E+10	1
4902663	18	C	01/30/2024	20:12	-128.595	48.006	0	392.50	0	5.3370	0	34.0110	0	26.856	0	388.837	0	48.2	4	15.7	4	-1E+10	1	-1E+10	1	-1E+10	1	-1E+10	1	-1E+10	1	-1E+10	1
4902663	18	C	01/30/2024	20:12	-128.595	48.006	0	397.90	0	5.3030	0	34.0130	0	26.862	0	394.181	0	46.4	4	15.1	4	-1E+10	1	-1E+10	1	-1E+10	1	-1E+10	1	-1E+10	1	-1E+10	1
4902663	18	C	01/30/2024	20:12	-128.595	48.006	0	403.20	0	5.2980	0	34.0210	0	26.868	0	399.427	0	44.2	4	14.4	4	-1E+10	1	-1E+10	1	-1E+10	1	-1E+10	1	-1E+10	1	-1E+10	1
4902663	18	C	01/30/2024	20:12	-128.595	48.006	0	408.10	0	5.2960	0	34.0300	0	26.876	0	404.276	0	43.1	4	14.0	4	-1E+10	1	-1E+10	1	-1E+10	1	-1E+10	1	-1E+10	1	-1E+10	1
4902663	18	C	01/30/2024	20:12	-128.595	48.006	0	413.00	0	5.2670	0	34.0310	0	26.880	0	409.125	0	42.1	4	13.7	4	-1E+10	1	-1E+10	1	-1E+10	1	-1E+10	1	-1E+10	1	-1E+10	1
4902663	18	C	01/30/2024	20:12	-128.595	48.006	0	417.80	0	5.2350	0	34.0350	0	26.887	0	413.876	0	41.1	4	13.3	4	-1E+10	1	-1E+10	1	-1E+10	1	-1E+10	1	-1E+10	1	-1E+10	1
4902663	18	C	01/30/2024	20:12	-128.595	48.006	0	422.60	0	5.2070	0	34.0380	0	26.893	0	418.626	0	40.2	4	13.1	4	-1E+10	1	-1E+10	1	-1E+10	1	-1E+10	1	-1E+10	1	-1E+10	1
4902663	18	C	01/30/2024	20:12	-128.595	48.006	0	427.90	0	5.1820	0	34.0400	0	26.897	0	423.870	0	39.3	4	12.8	4	-1E+10	1	-1E+10	1	-1E+10	1	-1E+10	1	-1E+10	1	-1E+10	1
4902663	18	C	01/30/2024	20:12	-128.595	48.006	0	433.00	0	5.1540	0	34.0440	0	26.904	0	428.917	0	37.9	4	12.3	4	-1E+10	1	-1E+10	1	-1E+10	1	-1E+10	1	-1E+10	1	-1E+10	1
4902663	18	C	01/30/2024	20:12	-128.595	48.006	0	437.70	0	5.1450	0	34.0500	0	26.910	0	433.568	0	36.7	4	11.9	4	-1E+10	1	-1E+10	1	-1E+10	1	-1E+10	1	-1E+10	1	-1E+10	1
4902663	18	C	01/30/2024	20:12	-128.595	48.006	0	442.90	0	5.1340	0	34.0540	0	26.914	0	438.713	0	35.4	4	11.5	4	-1E+10	1	-1E+10	1	-1E+10	1	-1E+10	1	-1E+10	1	-1E+10	1
4902663	18	C	01/30/2024	20:12	-128.595	48.006	0	448.10	0	5.0910	0	34.0610	0	26.925	0	443.859	0	33.9	4	11.0	4	-1E+10	1	-1E+10	1	-1E+10	1	-1E+10	1	-1E+10	1	-1E+10	1
4902663	18	C	01/30/2024	20:12	-128.595	48.006	0	452.90	0	5.0720	0	34.0660	0	26.931	0	448.608	0	32.5	4	10.5	4	-1E+10	1	-1E+10	1	-1E+10	1	-1E+10	1	-1E+10	1	-1E+10	1
4902663	18	C	01/30/2024	20:12	-128.595	48.006	0	457.60	0	5.0430	0	34.0720	0	26.939	0	453.258	0	31.2	4	10.1	4	-1E+10	1	-1E+10	1	-1E+10	1	-1E+10	1	-1E+10	1	-1E+10	1
4902663	18	C	01/30/2024	20:12	-128.595	48.006	0	462.90	0	5.0160	0	34.0780	0	26.947	0	458.502	0	29.8	4	9.6	4	-1E+10	1	-1E+10	1	-1E+10	1	-1E+10	1	-1E+10	1	-1E+10	1
4902663	18	C	01/30/2024	20:12	-128.595	48.006	0	468.20	0	5.0060	0	34.0840	0	26.953	0	463.746	0	28.3	4	9.1	4	-1E+10	1	-1E+10	1	-1E+10	1	-1E+10	1	-1E+10	1	-1E+10	1
4902663	18	C	01/30/2024	20:12	-128.595	48.006	0	473.10	0	4.9880	0	34.0920	0	26.961	0	468.594	0	27.0	4	8.7	4	-1E+10	1	-1E+10	1	-1E+10	1	-1E+10	1	-1E+10	1	-1E+10	1
4902663	18	C	01/30/2024	20:12	-128.595	48.006	0	478.00	0	4.9850	0	34.0980	0	26.966	0	473.442	0	25.8	4	8.3	4	-1E+10	1	-1E+10	1	-1E+10	1	-1E+10	1	-1E+10	1	-1E+10	1
4902663	18	C	01/30/2024	20:12	-128.595	48.006	0	482.90	0	4.9940	0	34.1050	0	26.971	0	478.289	0	24.8	4	8.0	4	-1E+10	1	-1E+10	1	-1E+10	1	-1E+10	1	-1E+10	1	-1E+10	1
4902663	18	C	01/30/2024	20:12	-128.595	48.006	0	487.90	0	4.9620	0	34.1110	0	26.979	0	483.236	0	24.1	4	7.8	4	-1E+10	1	-1E+10	1	-1E+10	1	-1E+10	1	-1E+10	1	-1E+10	1
4902663	18	C	01/30/2024	20:12	-128.595	48.006	0	492.90	0	4.9390	0	34.1130	0	26.984	0	488.182	0	23.5	4	7.6	4	-1E+10	1	-1E+10	1	-1E+10	1	-1E+10	1	-1E+10	1	-1E+10	1
4902663	18	C	01/30/2024	20:12	-128.595	48.006	0	497.90	0	4.9040	0	34.1170	0	26.991	0	493.128	0	23.0	4	7.4	4	-1E+10	1	-1E+10	1	-1E+10	1	-1E+10	1	-1E+10	1	-1E+10	1
4902663	18	C	01/30/2024	20:12	-128.595	48.006	0	502.90	0	4.8640	0	34.1190	0	26.997	0	498.074	0	22.5	4	7.2	4	-1E+10	1	-1E+10	1	-1E+10	1	-1E+10	1	-1E+10	1	-1E+10	1
4902663	18	C	01/30/2024	20:12	-128.595	48.006	0	508.00	0	4.8360	0	34.1210	0	27.002	0	503.119	0	22.0	4	7.1	4	-1E+10	1	-1E+10	1	-1E+10	1	-1E+10	1	-1E+10	1	-1E+10	1
4902663	18	C	01/30/2024	20:12	-128.595	48.006	0	513.20	0	4.8190	0	34.1240	0	27.006	0	508.263	0	21.6	4	6.9	4	-1E+10	1	-1E+10	1	-1E+10	1	-1E+10	1	-1E+10	1	-1E+10	1
4902663	18	C	01/30/2024	20:12	-128.595	48.006	0	517.80	0	4.7920	0	34.1270	0	27.011	0	512.813	0	21.4	4	6.9	4	-1E+10	1	-1E+10	1	-1E+10	1	-1E+10	1	-1E+10	1	-1E+10	1
4902663	18	C	01/30/2024	20:12	-128.595	48.006	0	522.50	0	4.7610	0	34.1230	0	27.012	0	517.462	0	21.0	4	6.8	4	-1E+10	1	-1E+10	1	-1E+10	1	-1E+10	1	-1E+10	1	-1E+10	1
4902663	18	C	01/30/2024	20:12	-128.595	48.006	0	527.80	0	4.7160	0	34.1260	0	27.019	0	522.704	0	20.4	4	6.5	4	-1E+10	1	-1E+10	1	-1E+10	1	-1E+10	1	-1E+10	1	-1E+10	1
4902663	18	C	01/30/2024	20:12	-128.595	48.006	0	533.00	0	4.6990	0	34.1290	0	27.023	0	527.847	0	19.6	4	6.3	4	-1E+10	1	-1E+10	1	-1E+10	1	-1E+10	1	-1E+10	1	-1E+10	1
4902663	18	C	01/30/2024	20:12	-128.595	48.006	0	538.10	0	4.7030	0	34.1380	0	27.030	0	532.891	0	18.7	4	6.0	4	-1E+10	1	-1E+10	1	-1E+10	1	-1E+10	1	-1E+10	1	-1E+10	1
4902663	18	C	01/30/2024	20:12	-128.595	48.006	0	543.30	0	4.7060	0	34.1440	0	27.035	0	538.034	0	17.9	4	5.8	4	-1E+10	1	-1E+10	1	-1E+10	1	-1E+10	1	-1E+10	1	-1E+10	1
4902663	18	C	01/30/2024	20:12	-128.595	48.006	0	547.90	0	4.7090	0	34.1520	0	27.041	0	542.584	0	17.4	4	5.6	4	-1E+10	1	-1E+10	1	-1E+10	1	-1E+10	1	-1E+10	1	-1E+10	1
4902663	18	C	01/30/2024	20:12	-128.595	48.006	0	552.60	0	4.6690	0	34.1530	0	27.046	0	547.232	0	17.2	4	5.5	4	-1E+10	1	-1E+10	1	-1E+10	1	-1E+10	1	-1E+10	1	-1E+10	1
4902663	18	C	01/30/2024	20:12	-128.595	48.006	0	557.80	0	4.6330	0	34.1530	0	27.050	0	552.375	0	16.7	4	5.4	4	-1E+10	1	-1E+10	1	-1E+10	1	-1E+10	1	-1E+10	1	-1E+10	1
4902663	18	C	01/30/2024	20:12	-128.595	48.006	0	562.90	0	4.6230	0	34.1560	0	27.053	0	557.418	0	16.2	4	5.2	4	-1E+10	1	-1E+10	1	-1E+10	1	-1E+10	1	-1E+10	1	-1E+10	1
4902663	18	C	01/30/2024	20:12	-128.595	48.006	0	568.10	0	4.6100	0	34.1610	0	27.059	0	562.560	0	15.7	4	5.0	4	-1E+10	1	-1E+10	1	-1E+10	1	-1E+10	1	-1E+10	1	-1E+10	1
4902663	18	C	01/30/2024	20:12	-128.595	48.006	0	573.10	0	4.5960	0	34.1640	0	27.063	0	567.505	0	15.4	4	4.9	4	-1E+10	1	-1E+10	1	-1E+10	1	-1E+10	1	-1E+10	1	-1E+10	1
4902663	18	C	01/30/2024	20:12	-128.595	48.006	0	578.10	0	4.5690	0	34.1680	0	27.069	0	572.449	0	14.8	4	4.7	4	-1E+10	1	-1E+10	1	-1E+10	1	-1E+10	1	-1E+10	1	-1E+10	1
4902663	18	C	01/30/2024	20:12	-128.595	48.006	0	583.10	0	4.5570	0	34.1740	0	27.075	0	577.393	0	14.5	4	4.6	4	-1E+10	1	-1E+10	1	-1E+10	1	-1E+10	1	-1E+10	1	-1E+10	1
4902663	18	C	01/30/2024	20:12	-128.595	48.006	0	587.90	0	4.5570	0	34.1750	0	27.076	0	582.140	0	14.3	4	4.6	4	-1E+10	1	-1E+10	1	-1E+10	1	-1E+10	1	-1E+10	1	-1E+10	1
4902663	18	C	01/30/2024	20:12	-128.595	48.006	0	592.80	0	4.5520	0	34.1760	0	27.077	0	586.985	0	13.9	4	4.4	4	-1E+10	1	-1E+10	1	-1E+10	1	-1E+10	1	-1E+10	1	-1E+10	1
4902663	18	C	01/30/2024	20:12	-128.595	48.006	0	597.70	0	4.5570	0	34.1830	0	27.082	0	591.830	0	13.4	4	4.3	4	-1E+10	1	-1E+10	1	-1E+10	1	-1E+10	1	-1E+10	1	-1E+10	1
4902663	18	C	01/30/2024	20:12	-128.595	48.006	0	602.70	0	4.5250	0	34.1860	0	27.088	0	596.774	0	13.1	4	4.2	4	-1E+10	1	-1E+10	1	-1E+10	1	-1E+10	1	-1E+10	1	-1E+10	1
4902663	18	C	01/30/2024	20:12	-128.595	48.006	0	607.60	0	4.5250	0	34.1900	0	27.091	0	601.618	0	12.9	4	4.1	4	-1E+10	1	-1E+10	1	-1E+10	1	-1E+10	1	-1E+10	1	-1E+10	1
4902663	18	C	01/30/2024	20:12	-128.595	48.006	0	612.60	0	4.5130	0	34.1940	0	27.096	0	606.562	0	12.7	4	4.1	4	-1E+10	1	-1E+10	1	-1E+10	1	-1E+10	1	-1E+10	1	-1E+10	1
4902663	18	C	01/30/2024	20:12	-128.595	48.006	0	617.70	0	4.4940	0	34.1940	0	27.098	0	611.604	0	12.7	4	4.1	4	-1E+10	1	-1E+10	1	-1E+10	1	-1E+10	1	-1E+10	1	-1E+10	1
4902663	18	C	01/30/2024	20:12	-128.595	48.006	0	622.80	0	4.4660	0	34.1950	0	27.102	0	616.646	0	12.7	4	4.1	4	-1E+10	1	-1E+10	1	-1E+10	1	-1E+10	1	-1E+10	1	-1E+10	1
4902663	18	C	01/30/2024	20:12	-128.595	48.006	0	628.00	0	4.4260	0	34.1950	0	27.106	0	621.787	0	12.9	4	4.1	4	-1E+10	1	-1E+10	1	-1E+10	1	-1E+10	1	-1E+10	1	-1E+10	1
4902663	18	C	01/30/2024	20:12	-128.595	48.006	0	632.80	0	4.3700	0	34.1930	0	27.111	0	626.532	0	12.5	4	4.0	4	-1E+10	1	-1E+10	1	-1E+10	1	-1E+10	1	-1E+10	1	-1E+10	1
4902663	18	C	01/30/2024	20:12	-128.595	48.006	0	637.80	0	4.3950	0	34.2030	0	27.116	0	631.475	0	12.4	4	4.0	4	-1E+10	1	-1E+10	1	-1E+10	1	-1E+10	1	-1E+10	1	-1E+10	1
4902663	18	C	01/30/2024	20:12	-128.595	48.006	0	642.80	0	4.3190	0	34.2000	0	27.122	0	636.418	0	12.6	4	4.0	4	-1E+10	1	-1E+10	1	-1E+10	1	-1E+10	1	-1E+10	1	-1E+10	1
4902663	18	C	01/30/2024	20:12	-128.595	48.006	0	648.00	0	4.2790	0	34.2000	0	27.126	0	641.558	0	12.4	4	3.9	4	-1E+10	1	-1E+10	1	-1E+10	1	-1E+10	1	-1E+10	1	-1E+10	1
4902663	18	C	01/30/2024	20:12	-128.595	48.006	0	653.20	0	4.2780	0	34.2030	0	27.128	0	646.699	0	12.2	4	3.9	4	-1E+10	1	-1E+10	1	-1E+10	1	-1E+10	1	-1E+10	1	-1E+10	1
4902663	18	C	01/30/2024	20:12	-128.595	48.006	0	657.90	0	4.2740	0	34.2050	0	27.130	0	651.344	0	12.1	4	3.8	4	-1E+10	1	-1E+10	1	-1E+10	1	-1E+10	1	-1E+10	1	-1E+10	1
4902663	18	C	01/30/2024	20:12	-128.595	48.006	0	663.00	0	4.2470	0	34.2070	0	27.135	0	656.386	0	11.9	4	3.8	4	-1E+10	1	-1E+10	1	-1E+10	1	-1E+10	1	-1E+10	1	-1E+10	1
4902663	18	C	01/30/2024	20:12	-128.595	48.006	0	668.20	0	4.2400	0	34.2100	0	27.138	0	661.525	0	11.7	4	3.7	4	-1E+10	1	-1E+10	1	-1E+10	1	-1E+10	1	-1E+10	1	-1E+10	1
4902663	18	C	01/30/2024	20:12	-128.595	48.006	0	673.00	0	4.2170	0	34.2130	0	27.143	0	666.270	0	11.6	4	3.7	4	-1E+10	1	-1E+10	1	-1E+10	1	-1E+10	1	-1E+10	1	-1E+10	1
4902663	18	C	01/30/2024	20:12	-128.595	48.006	0	677.90	0	4.1910	0	34.2160	0	27.148	0	671.113	0	11.3	4	3.6	4	-1E+10	1	-1E+10	1	-1E+10	1	-1E+10	1	-1E+10	1	-1E+10	1
4902663	18	C	01/30/2024	20:12	-128.595	48.006	0	682.80	0	4.1910	0	34.2180	0	27.150	0	675.956	0	11.1	4	3.5	4	-1E+10	1	-1E+10	1	-1E+10	1	-1E+10	1	-1E+10	1	-1E+10	1
4902663	18	C	01/30/2024	20:12	-128.595	48.006	0	687.80	0	4.1960	0	34.2210	0	27.152	0	680.898	0	10.9	4	3.5	4	-1E+10	1	-1E+10	1	-1E+10	1	-1E+10	1	-1E+10	1	-1E+10	1
4902663	18	C	01/30/2024	20:12	-128.595	48.006	0	692.80	0	4.1760	0	34.2260	0	27.158	0	685.839	0	10.8	4	3.4	4	-1E+10	1	-1E+10	1	-1E+10	1	-1E+10	1	-1E+10	1	-1E+10	1
4902663	18	C	01/30/2024	20:12	-128.595	48.006	0	697.90	0	4.1420	0	34.2260	0	27.161	0	690.880	0	10.6	4	3.4	4	-1E+10	1	-1E+10	1	-1E+10	1	-1E+10	1	-1E+10	1	-1E+10	1
4902663	18	C	01/30/2024	20:12	-128.595	48.006	0	703.00	0	4.1390	0	34.2280	0	27.163	0	695.920	0	10.2	4	3.2	4	-1E+10	1	-1E+10	1	-1E+10	1	-1E+10	1	-1E+10	1	-1E+10	1
4902663	18	C	01/30/2024	20:12	-128.595	48.006	0	708.20	0	4.1610	0	34.2340	0	27.166	0	701.059	0	9.8	4	3.1	4	-1E+10	1	-1E+10	1	-1E+10	1	-1E+10	1	-1E+10	1	-1E+10	1
4902663	18	C	01/30/2024	20:12	-128.595	48.006	0	712.90	0	4.1710	0	34.2430	0	27.172	0	705.703	0	9.6	4	3.0	4	-1E+10	1	-1E+10	1	-1E+10	1	-1E+10	1	-1E+10	1	-1E+10	1
4902663	18	C	01/30/2024	20:12	-128.595	48.006	0	717.70	0	4.1690	0	34.2450	0	27.174	0	710.447	0	9.5	4	3.0	4	-1E+10	1	-1E+10	1	-1E+10	1	-1E+10	1	-1E+10	1	-1E+10	1
4902663	18	C	01/30/2024	20:12	-128.595	48.006	0	723.00	0	4.1540	0	34.2450	0	27.175	0	715.684	0	9.5	4	3.0	4	-1E+10	1	-1E+10	1	-1E+10	1	-1E+10	1	-1E+10	1	-1E+10	1
4902663	18	C	01/30/2024	20:12	-128.595	48.006	0	727.80	0	4.1450	0	34.2460	0	27.177	0	720.427	0	9.3	4	3.0	4	-1E+10	1	-1E+10	1	-1E+10	1	-1E+10	1	-1E+10	1	-1E+10	1
4902663	18	C	01/30/2024	20:12	-128.595	48.006	0	732.60	0	4.1420	0	34.2500	0	27.181	0	725.170	0	9.2	4	2.9	4	-1E+10	1	-1E+10	1	-1E+10	1	-1E+10	1	-1E+10	1	-1E+10	1
4902663	18	C	01/30/2024	20:12	-128.595	48.006	0	738.00	0	4.1290	0	34.2510	0	27.183	0	730.506	0	9.2	4	2.9	4	-1E+10	1	-1E+10	1	-1E+10	1	-1E+10	1	-1E+10	1	-1E+10	1
4902663	18	C	01/30/2024	20:12	-128.595	48.006	0	742.90	0	4.0930	0	34.2530	0	27.188	0	735.348	0	9.2	4	2.9	4	-1E+10	1	-1E+10	1	-1E+10	1	-1E+10	1	-1E+10	1	-1E+10	1
4902663	18	C	01/30/2024	20:12	-128.595	48.006	0	747.70	0	4.0660	0	34.2550	0	27.192	0	740.090	0	9.0	4	2.8	4	-1E+10	1	-1E+10	1	-1E+10	1	-1E+10	1	-1E+10	1	-1E+10	1
4902663	18	C	01/30/2024	20:12	-128.595	48.006	0	753.10	0	4.0410	0	34.2600	0	27.199	0	745.426	0	8.9	4	2.8	4	-1E+10	1	-1E+10	1	-1E+10	1	-1E+10	1	-1E+10	1	-1E+10	1
4902663	18	C	01/30/2024	20:12	-128.595	48.006	0	758.00	0	4.0230	0	34.2630	0	27.203	0	750.267	0	8.9	4	2.8	4	-1E+10	1	-1E+10	1	-1E+10	1	-1E+10	1	-1E+10	1	-1E+10	1
4902663	18	C	01/30/2024	20:12	-128.595	48.006	0	762.80	0	4.0100	0	34.2650	0	27.206	0	755.009	0	8.9	4	2.8	4	-1E+10	1	-1E+10	1	-1E+10	1	-1E+10	1	-1E+10	1	-1E+10	1
4902663	18	C	01/30/2024	20:12	-128.595	48.006	0	768.20	0	3.9910	0	34.2640	0	27.207	0	760.344	0	9.0	4	2.8	4	-1E+10	1	-1E+10	1	-1E+10	1	-1E+10	1	-1E+10	1	-1E+10	1
4902663	18	C	01/30/2024	20:12	-128.595	48.006	0	773.10	0	3.9490	0	34.2650	0	27.213	0	765.185	0	8.9	4	2.8	4	-1E+10	1	-1E+10	1	-1E+10	1	-1E+10	1	-1E+10	1	-1E+10	1
4902663	18	C	01/30/2024	20:12	-128.595	48.006	0	777.90	0	3.9550	0	34.2680	0	27.214	0	769.927	0	8.7	4	2.8	4	-1E+10	1	-1E+10	1	-1E+10	1	-1E+10	1	-1E+10	1	-1E+10	1
4902663	18	C	01/30/2024	20:12	-128.595	48.006	0	783.20	0	3.9520	0	34.2710	0	27.217	0	775.163	0	8.7	4	2.7	4	-1E+10	1	-1E+10	1	-1E+10	1	-1E+10	1	-1E+10	1	-1E+10	1
4902663	18	C	01/30/2024	20:12	-128.595	48.006	0	788.50	0	3.9450	0	34.2730	0	27.219	0	780.399	0	8.7	4	2.8	4	-1E+10	1	-1E+10	1	-1E+10	1	-1E+10	1	-1E+10	1	-1E+10	1
4902663	18	C	01/30/2024	20:12	-128.595	48.006	0	793.10	0	3.9290	0	34.2720	0	27.220	0	784.943	0	8.6	4	2.7	4	-1E+10	1	-1E+10	1	-1E+10	1	-1E+10	1	-1E+10	1	-1E+10	1
4902663	18	C	01/30/2024	20:12	-128.595	48.006	0	797.90	0	3.9280	0	34.2760	0	27.224	0	789.685	0	8.5	4	2.7	4	-1E+10	1	-1E+10	1	-1E+10	1	-1E+10	1	-1E+10	1	-1E+10	1
4902663	18	C	01/30/2024	20:12	-128.595	48.006	0	802.80	0	3.9110	0	34.2800	0	27.229	0	794.525	0	8.4	4	2.7	4	-1E+10	1	-1E+10	1	-1E+10	1	-1E+10	1	-1E+10	1	-1E+10	1
4902663	18	C	01/30/2024	20:12	-128.595	48.006	0	807.70	0	3.8940	0	34.2820	0	27.232	0	799.365	0	8.4	4	2.7	4	-1E+10	1	-1E+10	1	-1E+10	1	-1E+10	1	-1E+10	1	-1E+10	1
4902663	18	C	01/30/2024	20:12	-128.595	48.006	0	812.70	0	3.8790	0	34.2840	0	27.235	0	804.304	0	8.4	4	2.6	4	-1E+10	1	-1E+10	1	-1E+10	1	-1E+10	1	-1E+10	1	-1E+10	1
4902663	18	C	01/30/2024	20:12	-128.595	48.006	0	817.60	0	3.8590	0	34.2850	0	27.238	0	809.144	0	8.3	4	2.6	4	-1E+10	1	-1E+10	1	-1E+10	1	-1E+10	1	-1E+10	1	-1E+10	1
4902663	18	C	01/30/2024	20:12	-128.595	48.006	0	822.60	0	3.8510	0	34.2890	0	27.242	0	814.082	0	8.1	4	2.6	4	-1E+10	1	-1E+10	1	-1E+10	1	-1E+10	1	-1E+10	1	-1E+10	1
4902663	18	C	01/30/2024	20:12	-128.595	48.006	0	827.60	0	3.8470	0	34.2920	0	27.245	0	819.020	0	8.0	4	2.5	4	-1E+10	1	-1E+10	1	-1E+10	1	-1E+10	1	-1E+10	1	-1E+10	1
4902663	18	C	01/30/2024	20:12	-128.595	48.006	0	832.70	0	3.8420	0	34.2980	0	27.250	0	824.058	0	7.8	4	2.5	4	-1E+10	1	-1E+10	1	-1E+10	1	-1E+10	1	-1E+10	1	-1E+10	1
4902663	18	C	01/30/2024	20:12	-128.595	48.006	0	837.70	0	3.8500	0	34.3040	0	27.254	0	828.996	0	7.6	4	2.4	4	-1E+10	1	-1E+10	1	-1E+10	1	-1E+10	1	-1E+10	1	-1E+10	1
4902663	18	C	01/30/2024	20:12	-128.595	48.006	0	842.80	0	3.8530	0	34.3100	0	27.259	0	834.033	0	7.6	4	2.4	4	-1E+10	1	-1E+10	1	-1E+10	1	-1E+10	1	-1E+10	1	-1E+10	1
4902663	18	C	01/30/2024	20:12	-128.595	48.006	0	847.90	0	3.8320	0	34.3100	0	27.261	0	839.069	0	7.6	4	2.4	4	-1E+10	1	-1E+10	1	-1E+10	1	-1E+10	1	-1E+10	1	-1E+10	1
4902663	18	C	01/30/2024	20:12	-128.595	48.006	0	853.00	0	3.8190	0	34.3120	0	27.264	0	844.106	0	7.6	4	2.4	4	-1E+10	1	-1E+10	1	-1E+10	1	-1E+10	1	-1E+10	1	-1E+10	1
4902663	18	C	01/30/2024	20:12	-128.595	48.006	0	858.10	0	3.8050	0	34.3140	0	27.267	0	849.142	0	7.6	4	2.4	4	-1E+10	1	-1E+10	1	-1E+10	1	-1E+10	1	-1E+10	1	-1E+10	1
4902663	18	C	01/30/2024	20:12	-128.595	48.006	0	863.00	0	3.7900	0	34.3160	0	27.270	0	853.981	0	7.5	4	2.4	4	-1E+10	1	-1E+10	1	-1E+10	1	-1E+10	1	-1E+10	1	-1E+10	1
4902663	18	C	01/30/2024	20:12	-128.595	48.006	0	868.00	0	3.7710	0	34.3200	0	27.275	0	858.919	0	7.5	4	2.4	4	-1E+10	1	-1E+10	1	-1E+10	1	-1E+10	1	-1E+10	1	-1E+10	1
4902663	18	C	01/30/2024	20:12	-128.595	48.006	0	872.90	0	3.7570	0	34.3220	0	27.278	0	863.757	0	7.5	4	2.4	4	-1E+10	1	-1E+10	1	-1E+10	1	-1E+10	1	-1E+10	1	-1E+10	1
4902663	18	C	01/30/2024	20:12	-128.595	48.006	0	877.90	0	3.7270	0	34.3250	0	27.283	0	868.695	0	7.5	4	2.4	4	-1E+10	1	-1E+10	1	-1E+10	1	-1E+10	1	-1E+10	1	-1E+10	1
4902663	18	C	01/30/2024	20:12	-128.595	48.006	0	882.90	0	3.7200	0	34.3270	0	27.286	0	873.632	0	7.5	4	2.4	4	-1E+10	1	-1E+10	1	-1E+10	1	-1E+10	1	-1E+10	1	-1E+10	1
4902663	18	C	01/30/2024	20:12	-128.595	48.006	0	888.00	0	3.7110	0	34.3290	0	27.288	0	878.667	0	7.5	4	2.4	4	-1E+10	1	-1E+10	1	-1E+10	1	-1E+10	1	-1E+10	1	-1E+10	1
4902663	18	C	01/30/2024	20:12	-128.595	48.006	0	893.10	0	3.6960	0	34.3310	0	27.291	0	883.703	0	7.5	4	2.4	4	-1E+10	1	-1E+10	1	-1E+10	1	-1E+10	1	-1E+10	1	-1E+10	1
4902663	18	C	01/30/2024	20:12	-128.595	48.006	0	897.80	0	3.6860	0	34.3350	0	27.295	0	888.344	0	7.5	4	2.3	4	-1E+10	1	-1E+10	1	-1E+10	1	-1E+10	1	-1E+10	1	-1E+10	1
4902663	18	C	01/30/2024	20:12	-128.595	48.006	0	903.00	0	3.6760	0	34.3370	0	27.298	0	893.478	0	7.5	4	2.3	4	-1E+10	1	-1E+10	1	-1E+10	1	-1E+10	1	-1E+10	1	-1E+10	1
4902663	18	C	01/30/2024	20:12	-128.595	48.006	0	908.20	0	3.6710	0	34.3400	0	27.301	0	898.612	0	7.4	4	2.3	4	-1E+10	1	-1E+10	1	-1E+10	1	-1E+10	1	-1E+10	1	-1E+10	1
4902663	18	C	01/30/2024	20:12	-128.595	48.006	0	912.90	0	3.6680	0	34.3450	0	27.305	0	903.252	0	7.4	4	2.3	4	-1E+10	1	-1E+10	1	-1E+10	1	-1E+10	1	-1E+10	1	-1E+10	1
4902663	18	C	01/30/2024	20:12	-128.595	48.006	0	917.70	0	3.6640	0	34.3460	0	27.307	0	907.991	0	7.4	4	2.3	4	-1E+10	1	-1E+10	1	-1E+10	1	-1E+10	1	-1E+10	1	-1E+10	1
4902663	18	C	01/30/2024	20:12	-128.595	48.006	0	922.90	0	3.6540	0	34.3490	0	27.310	0	913.125	0	7.5	4	2.3	4	-1E+10	1	-1E+10	1	-1E+10	1	-1E+10	1	-1E+10	1	-1E+10	1
4902663	18	C	01/30/2024	20:12	-128.595	48.006	0	928.30	0	3.6430	0	34.3500	0	27.312	0	918.456	0	7.5	4	2.3	4	-1E+10	1	-1E+10	1	-1E+10	1	-1E+10	1	-1E+10	1	-1E+10	1
4902663	18	C	01/30/2024	20:12	-128.595	48.006	0	933.20	0	3.6280	0	34.3530	0	27.316	0	923.293	0	7.5	4	2.4	4	-1E+10	1	-1E+10	1	-1E+10	1	-1E+10	1	-1E+10	1	-1E+10	1
4902663	18	C	01/30/2024	20:12	-128.595	48.006	0	938.20	0	3.6130	0	34.3550	0	27.319	0	928.229	0	7.6	4	2.4	4	-1E+10	1	-1E+10	1	-1E+10	1	-1E+10	1	-1E+10	1	-1E+10	1
4902663	18	C	01/30/2024	20:12	-128.595	48.006	0	943.30	0	3.5940	0	34.3570	0	27.322	0	933.263	0	7.6	4	2.4	4	-1E+10	1	-1E+10	1	-1E+10	1	-1E+10	1	-1E+10	1	-1E+10	1
4902663	18	C	01/30/2024	20:12	-128.595	48.006	0	948.30	0	3.5730	0	34.3610	0	27.328	0	938.199	0	7.7	4	2.4	4	-1E+10	1	-1E+10	1	-1E+10	1	-1E+10	1	-1E+10	1	-1E+10	1
4902663	18	C	01/30/2024	20:12	-128.595	48.006	0	953.00	0	3.5620	0	34.3620	0	27.329	0	942.838	0	7.7	4	2.4	4	-1E+10	1	-1E+10	1	-1E+10	1	-1E+10	1	-1E+10	1	-1E+10	1
4902663	18	C	01/30/2024	20:12	-128.595	48.006	0	957.70	0	3.5610	0	34.3640	0	27.331	0	947.477	0	7.7	4	2.4	4	-1E+10	1	-1E+10	1	-1E+10	1	-1E+10	1	-1E+10	1	-1E+10	1
4902663	18	C	01/30/2024	20:12	-128.595	48.006	0	962.90	0	3.5580	0	34.3680	0	27.335	0	952.610	0	7.8	4	2.4	4	-1E+10	1	-1E+10	1	-1E+10	1	-1E+10	1	-1E+10	1	-1E+10	1
4902663	18	C	01/30/2024	20:12	-128.595	48.006	0	968.20	0	3.5500	0	34.3730	0	27.339	0	957.841	0	7.8	4	2.4	4	-1E+10	1	-1E+10	1	-1E+10	1	-1E+10	1	-1E+10	1	-1E+10	1
4902663	18	C	01/30/2024	20:12	-128.595	48.006	0	973.00	0	3.5450	0	34.3750	0	27.342	0	962.579	0	7.8	4	2.4	4	-1E+10	1	-1E+10	1	-1E+10	1	-1E+10	1	-1E+10	1	-1E+10	1
4902663	18	C	01/30/2024	20:12	-128.595	48.006	0	977.80	0	3.5240	0	34.3780	0	27.346	0	967.316	0	7.9	4	2.5	4	-1E+10	1	-1E+10	1	-1E+10	1	-1E+10	1	-1E+10	1	-1E+10	1
4902663	18	C	01/30/2024	20:12	-128.595	48.006	0	982.70	0	3.5150	0	34.3800	0	27.349	0	972.152	0	7.9	4	2.5	4	-1E+10	1	-1E+10	1	-1E+10	1	-1E+10	1	-1E+10	1	-1E+10	1
4902663	18	C	01/30/2024	20:12	-128.595	48.006	0	987.60	0	3.5110	0	34.3810	0	27.350	0	976.988	0	8.0	4	2.5	4	-1E+10	1	-1E+10	1	-1E+10	1	-1E+10	1	-1E+10	1	-1E+10	1
4902663	18	C	01/30/2024	20:12	-128.595	48.006	0	993.10	0	3.5000	0	34.3830	0	27.352	0	982.416	0	8.1	4	2.5	4	-1E+10	1	-1E+10	1	-1E+10	1	-1E+10	1	-1E+10	1	-1E+10	1
4902663	18	C	01/30/2024	20:12	-128.595	48.006	0	998.00	0	3.4870	0	34.3840	0	27.354	0	987.252	0	8.1	4	2.5	4	-1E+10	1	-1E+10	1	-1E+10	1	-1E+10	1	-1E+10	1	-1E+10	1
4902663	18	C	01/30/2024	20:12	-128.595	48.006	0	1005.00	0	3.4690	0	34.3870	0	27.359	0	994.160	0	8.2	4	2.6	4	-1E+10	1	-1E+10	1	-1E+10	1	-1E+10	1	-1E+10	1	-1E+10	1
4902663	18	C	01/30/2024	20:12	-128.595	48.006	0	1015.40	0	3.4450	0	34.3900	0	27.363	0	1004.423	0	8.4	4	2.6	4	-1E+10	1	-1E+10	1	-1E+10	1	-1E+10	1	-1E+10	1	-1E+10	1
4902663	18	C	01/30/2024	20:12	-128.595	48.006	0	1025.50	0	3.4230	0	34.3950	0	27.370	0	1014.389	0	8.6	4	2.7	4	-1E+10	1	-1E+10	1	-1E+10	1	-1E+10	1	-1E+10	1	-1E+10	1
4902663	18	C	01/30/2024	20:12	-128.595	48.006	0	1035.70	0	3.4040	0	34.3980	0	27.374	0	1024.454	0	8.7	4	2.7	4	-1E+10	1	-1E+10	1	-1E+10	1	-1E+10	1	-1E+10	1	-1E+10	1
4902663	18	C	01/30/2024	20:12	-128.595	48.006	0	1045.60	0	3.3750	0	34.4010	0	27.379	0	1034.222	0	8.9	4	2.8	4	-1E+10	1	-1E+10	1	-1E+10	1	-1E+10	1	-1E+10	1	-1E+10	1
4902663	18	C	01/30/2024	20:12	-128.595	48.006	0	1055.50	0	3.3610	0	34.4050	0	27.384	0	1043.990	0	9.1	4	2.8	4	-1E+10	1	-1E+10	1	-1E+10	1	-1E+10	1	-1E+10	1	-1E+10	1
4902663	18	C	01/30/2024	20:12	-128.595	48.006	0	1065.50	0	3.3370	0	34.4080	0	27.388	0	1053.856	0	9.3	4	2.9	4	-1E+10	1	-1E+10	1	-1E+10	1	-1E+10	1	-1E+10	1	-1E+10	1
4902663	18	C	01/30/2024	20:12	-128.595	48.006	0	1075.60	0	3.3180	0	34.4110	0	27.393	0	1063.820	0	9.4	4	2.9	4	-1E+10	1	-1E+10	1	-1E+10	1	-1E+10	1	-1E+10	1	-1E+10	1
4902663	18	C	01/30/2024	20:12	-128.595	48.006	0	1085.60	0	3.2910	0	34.4130	0	27.397	0	1073.685	0	9.5	4	3.0	4	-1E+10	1	-1E+10	1	-1E+10	1	-1E+10	1	-1E+10	1	-1E+10	1
4902663	18	C	01/30/2024	20:12	-128.595	48.006	0	1095.50	0	3.2610	0	34.4160	0	27.402	0	1083.450	0	9.7	4	3.0	4	-1E+10	1	-1E+10	1	-1E+10	1	-1E+10	1	-1E+10	1	-1E+10	1
4902663	18	C	01/30/2024	20:12	-128.595	48.006	0	1105.50	0	3.2450	0	34.4180	0	27.405	0	1093.314	0	9.8	4	3.0	4	-1E+10	1	-1E+10	1	-1E+10	1	-1E+10	1	-1E+10	1	-1E+10	1
4902663	18	C	01/30/2024	20:12	-128.595	48.006	0	1115.60	0	3.2260	0	34.4200	0	27.409	0	1103.277	0	10.0	4	3.1	4	-1E+10	1	-1E+10	1	-1E+10	1	-1E+10	1	-1E+10	1	-1E+10	1
4902663	18	C	01/30/2024	20:12	-128.595	48.006	0	1125.70	0	3.2080	0	34.4220	0	27.412	0	1113.238	0	10.2	4	3.2	4	-1E+10	1	-1E+10	1	-1E+10	1	-1E+10	1	-1E+10	1	-1E+10	1
4902663	18	C	01/30/2024	20:12	-128.595	48.006	0	1135.40	0	3.1890	0	34.4250	0	27.416	0	1122.805	0	10.5	4	3.3	4	-1E+10	1	-1E+10	1	-1E+10	1	-1E+10	1	-1E+10	1	-1E+10	1
4902663	18	C	01/30/2024	20:12	-128.595	48.006	0	1145.40	0	3.1680	0	34.4290	0	27.421	0	1132.667	0	10.8	4	3.3	4	-1E+10	1	-1E+10	1	-1E+10	1	-1E+10	1	-1E+10	1	-1E+10	1
4902663	18	C	01/30/2024	20:12	-128.595	48.006	0	1155.60	0	3.1420	0	34.4330	0	27.427	0	1142.726	0	11.1	4	3.4	4	-1E+10	1	-1E+10	1	-1E+10	1	-1E+10	1	-1E+10	1	-1E+10	1
4902663	18	C	01/30/2024	20:12	-128.595	48.006	0	1165.50	0	3.1230	0	34.4360	0	27.431	0	1152.488	0	11.4	4	3.5	4	-1E+10	1	-1E+10	1	-1E+10	1	-1E+10	1	-1E+10	1	-1E+10	1
4902663	18	C	01/30/2024	20:12	-128.595	48.006	0	1175.60	0	3.1000	0	34.4390	0	27.436	0	1162.448	0	11.8	4	3.7	4	-1E+10	1	-1E+10	1	-1E+10	1	-1E+10	1	-1E+10	1	-1E+10	1
4902663	18	C	01/30/2024	20:12	-128.595	48.006	0	1185.50	0	3.0630	0	34.4430	0	27.442	0	1172.209	0	12.2	4	3.8	4	-1E+10	1	-1E+10	1	-1E+10	1	-1E+10	1	-1E+10	1	-1E+10	1
4902663	18	C	01/30/2024	20:12	-128.595	48.006	0	1195.30	0	3.0420	0	34.4470	0	27.447	0	1181.872	0	12.5	4	3.9	4	-1E+10	1	-1E+10	1	-1E+10	1	-1E+10	1	-1E+10	1	-1E+10	1
4902663	18	C	01/30/2024	20:12	-128.595	48.006	0	1205.40	0	3.0220	0	34.4490	0	27.451	0	1191.830	0	12.8	4	4.0	4	-1E+10	1	-1E+10	1	-1E+10	1	-1E+10	1	-1E+10	1	-1E+10	1
4902663	18	C	01/30/2024	20:12	-128.595	48.006	0	1215.20	0	2.9980	0	34.4520	0	27.456	0	1201.492	0	13.1	4	4.1	4	-1E+10	1	-1E+10	1	-1E+10	1	-1E+10	1	-1E+10	1	-1E+10	1
4902663	18	C	01/30/2024	20:12	-128.595	48.006	0	1225.20	0	2.9880	0	34.4540	0	27.458	0	1211.350	0	13.5	4	4.2	4	-1E+10	1	-1E+10	1	-1E+10	1	-1E+10	1	-1E+10	1	-1E+10	1
4902663	18	C	01/30/2024	20:12	-128.595	48.006	0	1235.30	0	2.9660	0	34.4580	0	27.463	0	1221.307	0	13.9	4	4.3	4	-1E+10	1	-1E+10	1	-1E+10	1	-1E+10	1	-1E+10	1	-1E+10	1
4902663	18	C	01/30/2024	20:12	-128.595	48.006	0	1245.30	0	2.9420	0	34.4600	0	27.467	0	1231.164	0	14.1	4	4.3	4	-1E+10	1	-1E+10	1	-1E+10	1	-1E+10	1	-1E+10	1	-1E+10	1
4902663	18	C	01/30/2024	20:12	-128.595	48.006	0	1255.80	0	2.9250	0	34.4620	0	27.470	0	1241.514	0	14.4	4	4.4	4	-1E+10	1	-1E+10	1	-1E+10	1	-1E+10	1	-1E+10	1	-1E+10	1
4902663	18	C	01/30/2024	20:12	-128.595	48.006	0	1265.30	0	2.9120	0	34.4640	0	27.473	0	1250.878	0	14.7	4	4.5	4	-1E+10	1	-1E+10	1	-1E+10	1	-1E+10	1	-1E+10	1	-1E+10	1
4902663	18	C	01/30/2024	20:12	-128.595	48.006	0	1275.20	0	2.8950	0	34.4660	0	27.476	0	1260.635	0	15.1	4	4.6	4	-1E+10	1	-1E+10	1	-1E+10	1	-1E+10	1	-1E+10	1	-1E+10	1
4902663	18	C	01/30/2024	20:12	-128.595	48.006	0	1285.30	0	2.8790	0	34.4680	0	27.479	0	1270.589	0	15.5	4	4.8	4	-1E+10	1	-1E+10	1	-1E+10	1	-1E+10	1	-1E+10	1	-1E+10	1
4902663	18	C	01/30/2024	20:12	-128.595	48.006	0	1295.30	0	2.8640	0	34.4710	0	27.483	0	1280.445	0	16.0	4	4.9	4	-1E+10	1	-1E+10	1	-1E+10	1	-1E+10	1	-1E+10	1	-1E+10	1
4902663	18	C	01/30/2024	20:12	-128.595	48.006	0	1305.50	0	2.8450	0	34.4750	0	27.488	0	1290.496	0	16.4	4	5.1	4	-1E+10	1	-1E+10	1	-1E+10	1	-1E+10	1	-1E+10	1	-1E+10	1
4902663	18	C	01/30/2024	20:12	-128.595	48.006	0	1315.40	0	2.8300	0	34.4770	0	27.491	0	1300.252	0	16.8	4	5.2	4	-1E+10	1	-1E+10	1	-1E+10	1	-1E+10	1	-1E+10	1	-1E+10	1
4902663	18	C	01/30/2024	20:12	-128.595	48.006	0	1325.40	0	2.8110	0	34.4790	0	27.494	0	1310.106	0	17.2	4	5.3	4	-1E+10	1	-1E+10	1	-1E+10	1	-1E+10	1	-1E+10	1	-1E+10	1
4902663	18	C	01/30/2024	20:12	-128.595	48.006	0	1335.60	0	2.7940	0	34.4820	0	27.498	0	1320.156	0	17.7	4	5.4	4	-1E+10	1	-1E+10	1	-1E+10	1	-1E+10	1	-1E+10	1	-1E+10	1
4902663	18	C	01/30/2024	20:12	-128.595	48.006	0	1345.40	0	2.7730	0	34.4850	0	27.503	0	1329.812	0	18.2	4	5.6	4	-1E+10	1	-1E+10	1	-1E+10	1	-1E+10	1	-1E+10	1	-1E+10	1
4902663	18	C	01/30/2024	20:12	-128.595	48.006	0	1355.20	0	2.7570	0	34.4870	0	27.506	0	1339.467	0	18.7	4	5.7	4	-1E+10	1	-1E+10	1	-1E+10	1	-1E+10	1	-1E+10	1	-1E+10	1
4902663	18	C	01/30/2024	20:12	-128.595	48.006	0	1365.30	0	2.7330	0	34.4900	0	27.510	0	1349.418	0	19.3	4	5.9	4	-1E+10	1	-1E+10	1	-1E+10	1	-1E+10	1	-1E+10	1	-1E+10	1
4902663	18	C	01/30/2024	20:12	-128.595	48.006	0	1375.30	0	2.7180	0	34.4920	0	27.513	0	1359.269	0	19.7	4	6.0	4	-1E+10	1	-1E+10	1	-1E+10	1	-1E+10	1	-1E+10	1	-1E+10	1
4902663	18	C	01/30/2024	20:12	-128.595	48.006	0	1385.30	0	2.7020	0	34.4940	0	27.516	0	1369.120	0	20.0	4	6.1	4	-1E+10	1	-1E+10	1	-1E+10	1	-1E+10	1	-1E+10	1	-1E+10	1
4902663	18	C	01/30/2024	20:12	-128.595	48.006	0	1395.40	0	2.6870	0	34.4950	0	27.518	0	1379.069	0	20.5	4	6.3	4	-1E+10	1	-1E+10	1	-1E+10	1	-1E+10	1	-1E+10	1	-1E+10	1
4902663	18	C	01/30/2024	20:12	-128.595	48.006	0	1405.50	0	2.6730	0	34.4970	0	27.521	0	1389.018	0	21.1	4	6.5	4	-1E+10	1	-1E+10	1	-1E+10	1	-1E+10	1	-1E+10	1	-1E+10	1
4902663	18	C	01/30/2024	20:12	-128.595	48.006	0	1415.60	0	2.6500	0	34.5000	0	27.526	0	1398.966	0	21.7	4	6.7	4	-1E+10	1	-1E+10	1	-1E+10	1	-1E+10	1	-1E+10	1	-1E+10	1
4902663	18	C	01/30/2024	20:12	-128.595	48.006	0	1425.50	0	2.6230	0	34.5020	0	27.530	0	1408.717	0	22.1	4	6.8	4	-1E+10	1	-1E+10	1	-1E+10	1	-1E+10	1	-1E+10	1	-1E+10	1
4902663	18	C	01/30/2024	20:12	-128.595	48.006	0	1435.70	0	2.6080	0	34.5040	0	27.532	0	1418.762	0	22.5	4	6.9	4	-1E+10	1	-1E+10	1	-1E+10	1	-1E+10	1	-1E+10	1	-1E+10	1
4902663	18	C	01/30/2024	20:12	-128.595	48.006	0	1445.50	0	2.5950	0	34.5040	0	27.534	0	1428.413	0	22.9	4	7.0	4	-1E+10	1	-1E+10	1	-1E+10	1	-1E+10	1	-1E+10	1	-1E+10	1
4902663	18	C	01/30/2024	20:12	-128.595	48.006	0	1455.40	0	2.5750	0	34.5060	0	27.537	0	1438.163	0	23.5	4	7.2	4	-1E+10	1	-1E+10	1	-1E+10	1	-1E+10	1	-1E+10	1	-1E+10	1
4902663	18	C	01/30/2024	20:12	-128.595	48.006	0	1465.50	0	2.5540	0	34.5080	0	27.540	0	1448.109	0	24.0	4	7.3	4	-1E+10	1	-1E+10	1	-1E+10	1	-1E+10	1	-1E+10	1	-1E+10	1
4902663	18	C	01/30/2024	20:12	-128.595	48.006	0	1475.40	0	2.5380	0	34.5110	0	27.544	0	1457.857	0	24.5	4	7.5	4	-1E+10	1	-1E+10	1	-1E+10	1	-1E+10	1	-1E+10	1	-1E+10	1
4902663	18	C	01/30/2024	20:12	-128.595	48.006	0	1485.40	0	2.5230	0	34.5130	0	27.547	0	1467.703	0	25.0	4	7.6	4	-1E+10	1	-1E+10	1	-1E+10	1	-1E+10	1	-1E+10	1	-1E+10	1
4902663	18	C	01/30/2024	20:12	-128.595	48.006	0	1495.40	0	2.5040	0	34.5140	0	27.550	0	1477.549	0	25.5	4	7.8	4	-1E+10	1	-1E+10	1	-1E+10	1	-1E+10	1	-1E+10	1	-1E+10	1
4902663	18	C	01/30/2024	20:12	-128.595	48.006	0	1505.70	0	2.4890	0	34.5160	0	27.552	0	1487.690	0	26.0	4	7.9	4	-1E+10	1	-1E+10	1	-1E+10	1	-1E+10	1	-1E+10	1	-1E+10	1
4902663	18	C	01/30/2024	20:12	-128.595	48.006	0	1515.50	0	2.4690	0	34.5180	0	27.556	0	1497.338	0	26.5	4	8.1	4	-1E+10	1	-1E+10	1	-1E+10	1	-1E+10	1	-1E+10	1	-1E+10	1
4902663	18	C	01/30/2024	20:12	-128.595	48.006	0	1525.50	0	2.4530	0	34.5190	0	27.558	0	1507.183	0	26.9	4	8.2	4	-1E+10	1	-1E+10	1	-1E+10	1	-1E+10	1	-1E+10	1	-1E+10	1
4902663	18	C	01/30/2024	20:12	-128.595	48.006	0	1535.40	0	2.4400	0	34.5200	0	27.560	0	1516.928	0	27.3	4	8.3	4	-1E+10	1	-1E+10	1	-1E+10	1	-1E+10	1	-1E+10	1	-1E+10	1
4902663	18	C	01/30/2024	20:12	-128.595	48.006	0	1545.40	0	2.4250	0	34.5220	0	27.563	0	1526.772	0	27.7	4	8.4	4	-1E+10	1	-1E+10	1	-1E+10	1	-1E+10	1	-1E+10	1	-1E+10	1
4902663	18	C	01/30/2024	20:12	-128.595	48.006	0	1555.60	0	2.4150	0	34.5230	0	27.565	0	1536.812	0	28.2	4	8.6	4	-1E+10	1	-1E+10	1	-1E+10	1	-1E+10	1	-1E+10	1	-1E+10	1
4902663	18	C	01/30/2024	20:12	-128.595	48.006	0	1565.20	0	2.3990	0	34.5240	0	27.567	0	1546.261	0	28.7	4	8.7	4	-1E+10	1	-1E+10	1	-1E+10	1	-1E+10	1	-1E+10	1	-1E+10	1
4902663	18	C	01/30/2024	20:12	-128.595	48.006	0	1575.30	0	2.3870	0	34.5260	0	27.569	0	1556.202	0	29.3	4	8.9	4	-1E+10	1	-1E+10	1	-1E+10	1	-1E+10	1	-1E+10	1	-1E+10	1
4902663	18	C	01/30/2024	20:12	-128.595	48.006	0	1585.40	0	2.3720	0	34.5280	0	27.572	0	1566.142	0	29.8	4	9.1	4	-1E+10	1	-1E+10	1	-1E+10	1	-1E+10	1	-1E+10	1	-1E+10	1
4902663	18	C	01/30/2024	20:12	-128.595	48.006	0	1595.50	0	2.3420	0	34.5300	0	27.576	0	1576.082	0	30.5	4	9.3	4	-1E+10	1	-1E+10	1	-1E+10	1	-1E+10	1	-1E+10	1	-1E+10	1
4902663	18	C	01/30/2024	20:12	-128.595	48.006	0	1605.60	0	2.3290	0	34.5310	0	27.578	0	1586.021	0	31.0	4	9.4	4	-1E+10	1	-1E+10	1	-1E+10	1	-1E+10	1	-1E+10	1	-1E+10	1
4902663	18	C	01/30/2024	20:12	-128.595	48.006	0	1615.70	0	2.3110	0	34.5330	0	27.581	0	1595.960	0	31.5	4	9.6	4	-1E+10	1	-1E+10	1	-1E+10	1	-1E+10	1	-1E+10	1	-1E+10	1
4902663	18	C	01/30/2024	20:12	-128.595	48.006	0	1625.50	0	2.2930	0	34.5350	0	27.584	0	1605.603	0	32.2	4	9.8	4	-1E+10	1	-1E+10	1	-1E+10	1	-1E+10	1	-1E+10	1	-1E+10	1
4902663	18	C	01/30/2024	20:12	-128.595	48.006	0	1635.30	0	2.2760	0	34.5370	0	27.587	0	1615.245	0	32.8	4	10.0	4	-1E+10	1	-1E+10	1	-1E+10	1	-1E+10	1	-1E+10	1	-1E+10	1
4902663	18	C	01/30/2024	20:12	-128.595	48.006	0	1645.40	0	2.2590	0	34.5390	0	27.591	0	1625.183	0	33.5	4	10.2	4	-1E+10	1	-1E+10	1	-1E+10	1	-1E+10	1	-1E+10	1	-1E+10	1
4902663	18	C	01/30/2024	20:12	-128.595	48.006	0	1655.50	0	2.2460	0	34.5410	0	27.593	0	1635.120	0	34.0	4	10.3	4	-1E+10	1	-1E+10	1	-1E+10	1	-1E+10	1	-1E+10	1	-1E+10	1
4902663	18	C	01/30/2024	20:12	-128.595	48.006	0	1665.30	0	2.2330	0	34.5420	0	27.595	0	1644.761	0	34.6	4	10.5	4	-1E+10	1	-1E+10	1	-1E+10	1	-1E+10	1	-1E+10	1	-1E+10	1
4902663	18	C	01/30/2024	20:12	-128.595	48.006	0	1675.10	0	2.2220	0	34.5440	0	27.598	0	1654.402	0	35.3	4	10.7	4	-1E+10	1	-1E+10	1	-1E+10	1	-1E+10	1	-1E+10	1	-1E+10	1
4902663	18	C	01/30/2024	20:12	-128.595	48.006	0	1685.20	0	2.2070	0	34.5460	0	27.601	0	1664.338	0	36.0	4	10.9	4	-1E+10	1	-1E+10	1	-1E+10	1	-1E+10	1	-1E+10	1	-1E+10	1
4902663	18	C	01/30/2024	20:12	-128.595	48.006	0	1695.30	0	2.1950	0	34.5480	0	27.603	0	1674.273	0	36.7	4	11.1	4	-1E+10	1	-1E+10	1	-1E+10	1	-1E+10	1	-1E+10	1	-1E+10	1
4902663	18	C	01/30/2024	20:12	-128.595	48.006	0	1705.30	0	2.1860	0	34.5500	0	27.606	0	1684.109	0	37.6	4	11.4	4	-1E+10	1	-1E+10	1	-1E+10	1	-1E+10	1	-1E+10	1	-1E+10	1
4902663	18	C	01/30/2024	20:12	-128.595	48.006	0	1715.50	0	2.1760	0	34.5530	0	27.609	0	1694.142	0	38.4	4	11.6	4	-1E+10	1	-1E+10	1	-1E+10	1	-1E+10	1	-1E+10	1	-1E+10	1
4902663	18	C	01/30/2024	20:12	-128.595	48.006	0	1725.40	0	2.1670	0	34.5550	0	27.611	0	1703.879	0	39.0	4	11.8	4	-1E+10	1	-1E+10	1	-1E+10	1	-1E+10	1	-1E+10	1	-1E+10	1
4902663	18	C	01/30/2024	20:12	-128.595	48.006	0	1735.20	0	2.1560	0	34.5570	0	27.614	0	1713.517	0	39.6	4	12.0	4	-1E+10	1	-1E+10	1	-1E+10	1	-1E+10	1	-1E+10	1	-1E+10	1
4902663	18	C	01/30/2024	20:12	-128.595	48.006	0	1745.50	0	2.1450	0	34.5590	0	27.616	0	1723.646	0	40.2	4	12.2	4	-1E+10	1	-1E+10	1	-1E+10	1	-1E+10	1	-1E+10	1	-1E+10	1
4902663	18	C	01/30/2024	20:12	-128.595	48.006	0	1755.40	0	2.1350	0	34.5610	0	27.619	0	1733.382	0	40.9	4	12.4	4	-1E+10	1	-1E+10	1	-1E+10	1	-1E+10	1	-1E+10	1	-1E+10	1
4902663	18	C	01/30/2024	20:12	-128.595	48.006	0	1765.20	0	2.1240	0	34.5630	0	27.621	0	1743.019	0	41.5	4	12.5	4	-1E+10	1	-1E+10	1	-1E+10	1	-1E+10	1	-1E+10	1	-1E+10	1
4902663	18	C	01/30/2024	20:12	-128.595	48.006	0	1775.40	0	2.1140	0	34.5640	0	27.623	0	1753.049	0	42.1	4	12.7	4	-1E+10	1	-1E+10	1	-1E+10	1	-1E+10	1	-1E+10	1	-1E+10	1
4902663	18	C	01/30/2024	20:12	-128.595	48.006	0	1785.40	0	2.1050	0	34.5660	0	27.625	0	1762.881	0	42.7	4	12.9	4	-1E+10	1	-1E+10	1	-1E+10	1	-1E+10	1	-1E+10	1	-1E+10	1
4902663	18	C	01/30/2024	20:12	-128.595	48.006	0	1795.50	0	2.0960	0	34.5670	0	27.627	0	1772.812	0	43.4	4	13.1	4	-1E+10	1	-1E+10	1	-1E+10	1	-1E+10	1	-1E+10	1	-1E+10	1
4902663	18	C	01/30/2024	20:12	-128.595	48.006	0	1805.70	0	2.0790	0	34.5690	0	27.630	0	1782.840	0	44.3	4	13.4	4	-1E+10	1	-1E+10	1	-1E+10	1	-1E+10	1	-1E+10	1	-1E+10	1
4902663	18	C	01/30/2024	20:12	-128.595	48.006	0	1815.60	0	2.0680	0	34.5700	0	27.631	0	1792.573	0	44.8	4	13.5	4	-1E+10	1	-1E+10	1	-1E+10	1	-1E+10	1	-1E+10	1	-1E+10	1
4902663	18	C	01/30/2024	20:12	-128.595	48.006	0	1825.30	0	2.0580	0	34.5720	0	27.634	0	1802.109	0	45.5	4	13.7	4	-1E+10	1	-1E+10	1	-1E+10	1	-1E+10	1	-1E+10	1	-1E+10	1
4902663	18	C	01/30/2024	20:12	-128.595	48.006	0	1835.50	0	2.0490	0	34.5730	0	27.635	0	1812.136	0	46.1	4	13.9	4	-1E+10	1	-1E+10	1	-1E+10	1	-1E+10	1	-1E+10	1	-1E+10	1
4902663	18	C	01/30/2024	20:12	-128.595	48.006	0	1845.60	0	2.0400	0	34.5750	0	27.638	0	1822.064	0	46.7	4	14.1	4	-1E+10	1	-1E+10	1	-1E+10	1	-1E+10	1	-1E+10	1	-1E+10	1
4902663	18	C	01/30/2024	20:12	-128.595	48.006	0	1855.60	0	2.0300	0	34.5760	0	27.639	0	1831.893	0	47.4	4	14.3	4	-1E+10	1	-1E+10	1	-1E+10	1	-1E+10	1	-1E+10	1	-1E+10	1
4902663	18	C	01/30/2024	20:12	-128.595	48.006	0	1865.30	0	2.0220	0	34.5780	0	27.642	0	1841.427	0	48.0	4	14.5	4	-1E+10	1	-1E+10	1	-1E+10	1	-1E+10	1	-1E+10	1	-1E+10	1
4902663	18	C	01/30/2024	20:12	-128.595	48.006	0	1875.20	0	2.0150	0	34.5790	0	27.643	0	1851.158	0	48.5	4	14.6	4	-1E+10	1	-1E+10	1	-1E+10	1	-1E+10	1	-1E+10	1	-1E+10	1
4902663	18	C	01/30/2024	20:12	-128.595	48.006	0	1885.50	0	2.0080	0	34.5810	0	27.645	0	1861.280	0	49.2	4	14.8	4	-1E+10	1	-1E+10	1	-1E+10	1	-1E+10	1	-1E+10	1	-1E+10	1
4902663	18	C	01/30/2024	20:12	-128.595	48.006	0	1895.70	0	2.0000	0	34.5830	0	27.648	0	1871.305	0	49.8	4	15.0	4	-1E+10	1	-1E+10	1	-1E+10	1	-1E+10	1	-1E+10	1	-1E+10	1
4902663	18	C	01/30/2024	20:12	-128.595	48.006	0	1905.40	0	1.9890	0	34.5850	0	27.650	0	1880.837	0	50.6	4	15.2	4	-1E+10	1	-1E+10	1	-1E+10	1	-1E+10	1	-1E+10	1	-1E+10	1
4902663	18	C	01/30/2024	20:12	-128.595	48.006	0	1915.50	0	1.9810	0	34.5860	0	27.652	0	1890.762	0	51.1	4	15.4	4	-1E+10	1	-1E+10	1	-1E+10	1	-1E+10	1	-1E+10	1	-1E+10	1
4902663	18	C	01/30/2024	20:12	-128.595	48.006	0	1925.70	0	1.9740	0	34.5880	0	27.654	0	1900.785	0	51.6	4	15.5	4	-1E+10	1	-1E+10	1	-1E+10	1	-1E+10	1	-1E+10	1	-1E+10	1
4902663	18	C	01/30/2024	20:12	-128.595	48.006	0	1935.50	0	1.9670	0	34.5890	0	27.655	0	1910.414	0	52.0	4	15.7	4	-1E+10	1	-1E+10	1	-1E+10	1	-1E+10	1	-1E+10	1	-1E+10	1
4902663	18	C	01/30/2024	20:12	-128.595	48.006	0	1945.40	0	1.9620	0	34.5900	0	27.656	0	1920.141	0	52.5	4	15.8	4	-1E+10	1	-1E+10	1	-1E+10	1	-1E+10	1	-1E+10	1	-1E+10	1
4902663	18	C	01/30/2024	20:12	-128.595	48.006	0	1955.30	0	1.9520	0	34.5910	0	27.658	0	1929.868	0	53.2	4	16.0	4	-1E+10	1	-1E+10	1	-1E+10	1	-1E+10	1	-1E+10	1	-1E+10	1
4902663	18	C	01/30/2024	20:12	-128.595	48.006	0	1965.30	0	1.9450	0	34.5930	0	27.660	0	1939.692	0	53.6	4	16.1	4	-1E+10	1	-1E+10	1	-1E+10	1	-1E+10	1	-1E+10	1	-1E+10	1
4902663	18	C	01/30/2024	20:12	-128.595	48.006	0	1975.40	0	1.9400	0	34.5940	0	27.661	0	1949.614	0	53.9	4	16.2	4	-1E+10	1	-1E+10	1	-1E+10	1	-1E+10	1	-1E+10	1	-1E+10	1
4902663	18	C	01/30/2024	20:12	-128.595	48.006	0	1985.60	0	1.9370	0	34.5940	0	27.662	0	1959.634	0	54.2	4	16.3	4	-1E+10	1	-1E+10	1	-1E+10	1	-1E+10	1	-1E+10	1	-1E+10	1
4902663	18	C	01/30/2024	20:12	-128.595	48.006	0	1995.50	0	1.9300	0	34.5960	0	27.664	0	1969.359	0	54.7	4	16.5	4	-1E+10	1	-1E+10	1	-1E+10	1	-1E+10	1	-1E+10	1	-1E+10	1
4902663	18	C	01/30/2024	20:12	-128.595	48.006	0	2005.40	0	1.9250	0	34.5970	0	27.665	0	1979.083	0	54.9	4	16.5	4	-1E+10	1	-1E+10	1	-1E+10	1	-1E+10	1	-1E+10	1	-1E+10	1
4902663	18	C	01/30/2024	20:12	-128.595	48.006	0	2015.80	0	1.9190	0	34.5980	0	27.667	0	1989.299	0	55.0	4	16.6	4	-1E+10	1	-1E+10	1	-1E+10	1	-1E+10	1	-1E+10	1	-1E+10	1
4902663	18	C	01/30/2024	20:12	-128.595	48.006	0	2023.30	0	1.9140	0	34.5990	0	27.668	0	1996.665	0	54.3	4	16.3	4	-1E+10	1	-1E+10	1	-1E+10	1	-1E+10	1	-1E+10	1	-1E+10	1
4902663	18	C	01/30/2024	20:12	-128.595	48.006	0																										
4902663	19	C	02/09/2024	15:13	-128.014	48.098	0	0.40	0	9.0200	0	32.3100	0	25.010	0	0.397	0	266.7	4	93.3	4	-1E+10	1	-1E+10	1	-1E+10	1	-1E+10	1	-1E+10	1	-1E+10	1
4902663	19	C	02/09/2024	15:13	-128.014	48.098	0	0.50	0	9.0201	0	32.3097	0	25.009	0	0.496	0	266.7	4	93.2	4	-1E+10	1	-1E+10	1	-1E+10	1	-1E+10	1	-1E+10	1	-1E+10	1
4902663	19	C	02/09/2024	15:13	-128.014	48.098	0	1.10	0	9.0210	0	32.3080	0	25.008	0	1.091	0	266.6	4	93.2	4	-1E+10	1	-1E+10	1	-1E+10	1	-1E+10	1	-1E+10	1	-1E+10	1
4902663	19	C	02/09/2024	15:13	-128.014	48.098	0	2.30	0	9.0200	0	32.3090	0	25.009	0	2.281	0	266.6	4	93.2	4	-1E+10	1	-1E+10	1	-1E+10	1	-1E+10	1	-1E+10	1	-1E+10	1
4902663	19	C	02/09/2024	15:13	-128.014	48.098	0	3.00	0	9.0200	0	32.3100	0	25.010	0	2.975	0	266.5	4	93.2	4	-1E+10	1	-1E+10	1	-1E+10	1	-1E+10	1	-1E+10	1	-1E+10	1
4902663	19	C	02/09/2024	15:13	-128.014	48.098	0	4.10	0	9.0210	0	32.3110	0	25.010	0	4.066	0	266.5	4	93.2	4	-1E+10	1	-1E+10	1	-1E+10	1	-1E+10	1	-1E+10	1	-1E+10	1
4902663	19	C	02/09/2024	15:13	-128.014	48.098	0	4.90	0	9.0230	0	32.3100	0	25.009	0	4.859	0	266.3	4	93.1	4	-1E+10	1	-1E+10	1	-1E+10	1	-1E+10	1	-1E+10	1	-1E+10	1
4902663	19	C	02/09/2024	15:13	-128.014	48.098	0	5.80	0	9.0220	0	32.3090	0	25.009	0	5.751	0	266.3	4	93.1	4	-1E+10	1	-1E+10	1	-1E+10	1	-1E+10	1	-1E+10	1	-1E+10	1
4902663	19	C	02/09/2024	15:13	-128.014	48.098	0	6.90	0	9.0210	0	32.3100	0	25.010	0	6.842	0	266.2	4	93.1	4	-1E+10	1	-1E+10	1	-1E+10	1	-1E+10	1	-1E+10	1	-1E+10	1
4902663	19	C	02/09/2024	15:13	-128.014	48.098	0	7.90	0	9.0220	0	32.3090	0	25.009	0	7.833	0	266.2	4	93.1	4	-1E+10	1	-1E+10	1	-1E+10	1	-1E+10	1	-1E+10	1	-1E+10	1
4902663	19	C	02/09/2024	15:13	-128.014	48.098	0	9.00	0	9.0240	0	32.3100	0	25.009	0	8.924	0	266.1	4	93.1	4	-1E+10	1	-1E+10	1	-1E+10	1	-1E+10	1	-1E+10	1	-1E+10	1
4902663	19	C	02/09/2024	15:13	-128.014	48.098	0	9.80	0	9.0240	0	32.3100	0	25.009	0	9.717	0	266.2	4	93.1	4	-1E+10	1	-1E+10	1	-1E+10	1	-1E+10	1	-1E+10	1	-1E+10	1
4902663	19	C	02/09/2024	15:13	-128.014	48.098	0	10.90	0	9.0240	0	32.3090	0	25.008	0	10.808	0	266.1	4	93.1	4	-1E+10	1	-1E+10	1	-1E+10	1	-1E+10	1	-1E+10	1	-1E+10	1
4902663	19	C	02/09/2024	15:13	-128.014	48.098	0	12.10	0	9.0240	0	32.3100	0	25.009	0	11.998	0	266.0	4	93.0	4	-1E+10	1	-1E+10	1	-1E+10	1	-1E+10	1	-1E+10	1	-1E+10	1
4902663	19	C	02/09/2024	15:13	-128.014	48.098	0	12.90	0	9.0240	0	32.3090	0	25.008	0	12.791	0	266.0	4	93.0	4	-1E+10	1	-1E+10	1	-1E+10	1	-1E+10	1	-1E+10	1	-1E+10	1
4902663	19	C	02/09/2024	15:13	-128.014	48.098	0	13.70	0	9.0230	0	32.3100	0	25.009	0	13.584	0	266.0	4	93.0	4	-1E+10	1	-1E+10	1	-1E+10	1	-1E+10	1	-1E+10	1	-1E+10	1
4902663	19	C	02/09/2024	15:13	-128.014	48.098	0	14.90	0	9.0140	0	32.3120	0	25.012	0	14.774	0	266.0	4	93.0	4	-1E+10	1	-1E+10	1	-1E+10	1	-1E+10	1	-1E+10	1	-1E+10	1
4902663	19	C	02/09/2024	15:13	-128.014	48.098	0	16.20	0	9.0150	0	32.3110	0	25.011	0	16.063	0	266.0	4	93.0	4	-1E+10	1	-1E+10	1	-1E+10	1	-1E+10	1	-1E+10	1	-1E+10	1
4902663	19	C	02/09/2024	15:13	-128.014	48.098	0	17.10	0	9.0150	0	32.3090	0	25.010	0	16.956	0	265.9	4	93.0	4	-1E+10	1	-1E+10	1	-1E+10	1	-1E+10	1	-1E+10	1	-1E+10	1
4902663	19	C	02/09/2024	15:13	-128.014	48.098	0	17.90	0	9.0140	0	32.3110	0	25.012	0	17.749	0	265.9	4	93.0	4	-1E+10	1	-1E+10	1	-1E+10	1	-1E+10	1	-1E+10	1	-1E+10	1
4902663	19	C	02/09/2024	15:13	-128.014	48.098	0	18.80	0	9.0150	0	32.3110	0	25.011	0	18.641	0	265.9	4	93.0	4	-1E+10	1	-1E+10	1	-1E+10	1	-1E+10	1	-1E+10	1	-1E+10	1
4902663	19	C	02/09/2024	15:13	-128.014	48.098	0	19.70	0	9.0100	0	32.3110	0	25.012	0	19.534	0	265.8	4	92.9	4	-1E+10	1	-1E+10	1	-1E+10	1	-1E+10	1	-1E+10	1	-1E+10	1
4902663	19	C	02/09/2024	15:13	-128.014	48.098	0	20.90	0	9.0100	0	32.3110	0	25.012	0	20.723	0	265.7	4	92.9	4	-1E+10	1	-1E+10	1	-1E+10	1	-1E+10	1	-1E+10	1	-1E+10	1
4902663	19	C	02/09/2024	15:13	-128.014	48.098	0	22.20	0	9.0110	0	32.3110	0	25.012	0	22.012	0	265.7	4	92.9	4	-1E+10	1	-1E+10	1	-1E+10	1	-1E+10	1	-1E+10	1	-1E+10	1
4902663	19	C	02/09/2024	15:13	-128.014	48.098	0	23.10	0	9.0090	0	32.3120	0	25.013	0	22.905	0	265.7	4	92.9	4	-1E+10	1	-1E+10	1	-1E+10	1	-1E+10	1	-1E+10	1	-1E+10	1
4902663	19	C	02/09/2024	15:13	-128.014	48.098	0	24.00	0	9.0090	0	32.3120	0	25.013	0	23.797	0	265.6	4	92.8	4	-1E+10	1	-1E+10	1	-1E+10	1	-1E+10	1	-1E+10	1	-1E+10	1
4902663	19	C	02/09/2024	15:13	-128.014	48.098	0	24.80	0	9.0090	0	32.3120	0	25.013	0	24.590	0	265.6	4	92.8	4	-1E+10	1	-1E+10	1	-1E+10	1	-1E+10	1	-1E+10	1	-1E+10	1
4902663	19	C	02/09/2024	15:13	-128.014	48.098	0	25.70	0	9.0090	0	32.3120	0	25.013	0	25.483	0	265.5	4	92.8	4	-1E+10	1	-1E+10	1	-1E+10	1	-1E+10	1	-1E+10	1	-1E+10	1
4902663	19	C	02/09/2024	15:13	-128.014	48.098	0	26.90	0	9.0090	0	32.3120	0	25.013	0	26.672	0	265.4	4	92.8	4	-1E+10	1	-1E+10	1	-1E+10	1	-1E+10	1	-1E+10	1	-1E+10	1
4902663	19	C	02/09/2024	15:13	-128.014	48.098	0	28.20	0	9.0090	0	32.3120	0	25.013	0	27.961	0	265.3	4	92.7	4	-1E+10	1	-1E+10	1	-1E+10	1	-1E+10	1	-1E+10	1	-1E+10	1
4902663	19	C	02/09/2024	15:13	-128.014	48.098	0	29.10	0	9.0090	0	32.3120	0	25.013	0	28.854	0	265.3	4	92.7	4	-1E+10	1	-1E+10	1	-1E+10	1	-1E+10	1	-1E+10	1	-1E+10	1
4902663	19	C	02/09/2024	15:13	-128.014	48.098	0	30.00	0	9.0080	0	32.3130	0	25.014	0	29.746	0	265.2	4	92.7	4	-1E+10	1	-1E+10	1	-1E+10	1	-1E+10	1	-1E+10	1	-1E+10	1
4902663	19	C	02/09/2024	15:13	-128.014	48.098	0	30.80	0	9.0090	0	32.3120	0	25.013	0	30.539	0	265.1	4	92.7	4	-1E+10	1	-1E+10	1	-1E+10	1	-1E+10	1	-1E+10	1	-1E+10	1
4902663	19	C	02/09/2024	15:13	-128.014	48.098	0	31.60	0	9.0090	0	32.3120	0	25.013	0	31.332	0	265.1	4	92.7	4	-1E+10	1	-1E+10	1	-1E+10	1	-1E+10	1	-1E+10	1	-1E+10	1
4902663	19	C	02/09/2024	15:13	-128.014	48.098	0	32.90	0	9.0090	0	32.3120	0	25.013	0	32.621	0	264.9	4	92.6	4	-1E+10	1	-1E+10	1	-1E+10	1	-1E+10	1	-1E+10	1	-1E+10	1
4902663	19	C	02/09/2024	15:13	-128.014	48.098	0	34.10	0	9.0090	0	32.3120	0	25.013	0	33.811	0	264.8	4	92.6	4	-1E+10	1	-1E+10	1	-1E+10	1	-1E+10	1	-1E+10	1	-1E+10	1
4902663	19	C	02/09/2024	15:13	-128.014	48.098	0	35.00	0	9.0100	0	32.3130	0	25.014	0	34.703	0	264.7	4	92.5	4	-1E+10	1	-1E+10	1	-1E+10	1	-1E+10	1	-1E+10	1	-1E+10	1
4902663	19	C	02/09/2024	15:13	-128.014	48.098	0	35.80	0	9.0090	0	32.3130	0	25.014	0	35.496	0	264.6	4	92.5	4	-1E+10	1	-1E+10	1	-1E+10	1	-1E+10	1	-1E+10	1	-1E+10	1
4902663	19	C	02/09/2024	15:13	-128.014	48.098	0	36.70	0	9.0100	0	32.3130	0	25.014	0	36.388	0	264.5	4	92.4	4	-1E+10	1	-1E+10	1	-1E+10	1	-1E+10	1	-1E+10	1	-1E+10	1
4902663	19	C	02/09/2024	15:13	-128.014	48.098	0	37.90	0	9.0090	0	32.3120	0	25.013	0	37.578	0	264.4	4	92.4	4	-1E+10	1	-1E+10	1	-1E+10	1	-1E+10	1	-1E+10	1	-1E+10	1
4902663	19	C	02/09/2024	15:13	-128.014	48.098	0	39.30	0	9.0090	0	32.3140	0	25.015	0	38.966	0	264.2	4	92.3	4	-1E+10	1	-1E+10	1	-1E+10	1	-1E+10	1	-1E+10	1	-1E+10	1
4902663	19	C	02/09/2024	15:13	-128.014	48.098	0	40.20	0	9.0080	0	32.3140	0	25.015	0	39.858	0	264.0	4	92.3	4	-1E+10	1	-1E+10	1	-1E+10	1	-1E+10	1	-1E+10	1	-1E+10	1
4902663	19	C	02/09/2024	15:13	-128.014	48.098	0	41.10	0	9.0070	0	32.3140	0	25.015	0	40.751	0	263.9	4	92.2	4	-1E+10	1	-1E+10	1	-1E+10	1	-1E+10	1	-1E+10	1	-1E+10	1
4902663	19	C	02/09/2024	15:13	-128.014	48.098	0	41.90	0	9.0050	0	32.3150	0	25.016	0	41.544	0	263.8	4	92.2	4	-1E+10	1	-1E+10	1	-1E+10	1	-1E+10	1	-1E+10	1	-1E+10	1
4902663	19	C	02/09/2024	15:13	-128.014	48.098	0	42.80	0	9.0030	0	32.3160	0	25.018	0	42.436	0	263.6	4	92.1	4	-1E+10	1	-1E+10	1	-1E+10	1	-1E+10	1	-1E+10	1	-1E+10	1
4902663	19	C	02/09/2024	15:13	-128.014	48.098	0	43.70	0	8.9990	0	32.3180	0	25.020	0	43.328	0	263.4	4	92.1	4	-1E+10	1	-1E+10	1	-1E+10	1	-1E+10	1	-1E+10	1	-1E+10	1
4902663	19	C	02/09/2024	15:13	-128.014	48.098	0	44.60	0	8.9980	0	32.3180	0	25.020	0	44.221	0	263.4	4	92.0	4	-1E+10	1	-1E+10	1	-1E+10	1	-1E+10	1	-1E+10	1	-1E+10	1
4902663	19	C	02/09/2024	15:13	-128.014	48.098	0	45.90	0	8.9970	0	32.3180	0	25.020	0	45.509	0	263.1	4	91.9	4	-1E+10	1	-1E+10	1	-1E+10	1	-1E+10	1	-1E+10	1	-1E+10	1
4902663	19	C	02/09/2024	15:13	-128.014	48.098	0	47.20	0	8.9970	0	32.3180	0	25.020	0	46.798	0	263.0	4	91.9	4	-1E+10	1	-1E+10	1	-1E+10	1	-1E+10	1	-1E+10	1	-1E+10	1
4902663	19	C	02/09/2024	15:13	-128.014	48.098	0	48.10	0	8.9970	0	32.3180	0	25.020	0	47.690	0	262.7	4	91.8	4	-1E+10	1	-1E+10	1	-1E+10	1	-1E+10	1	-1E+10	1	-1E+10	1
4902663	19	C	02/09/2024	15:13	-128.014	48.098	0	49.00	0	8.9960	0	32.3180	0	25.020	0	48.583	0	262.5	4	91.7	4	-1E+10	1	-1E+10	1	-1E+10	1	-1E+10	1	-1E+10	1	-1E+10	1
4902663	19	C	02/09/2024	15:13	-128.014	48.098	0	50.00	0	8.9960	0	32.3190	0	25.021	0	49.574	0	262.4	4	91.7	4	-1E+10	1	-1E+10	1	-1E+10	1	-1E+10	1	-1E+10	1	-1E+10	1
4902663	19	C	02/09/2024	15:13	-128.014	48.098	0	50.90	0	8.9950	0	32.3190	0	25.021	0	50.466	0	262.1	4	91.6	4	-1E+10	1	-1E+10	1	-1E+10	1	-1E+10	1	-1E+10	1	-1E+10	1
4902663	19	C	02/09/2024	15:13	-128.014	48.098	0	51.80	0	8.9950	0	32.3190	0	25.021	0	51.358	0	261.8	4	91.5	4	-1E+10	1	-1E+10	1	-1E+10	1	-1E+10	1	-1E+10	1	-1E+10	1
4902663	19	C	02/09/2024	15:13	-128.014	48.098	0	52.70	0	8.9950	0	32.3190	0	25.021	0	52.251	0	261.6	4	91.4	4	-1E+10	1	-1E+10	1	-1E+10	1	-1E+10	1	-1E+10	1	-1E+10	1
4902663	19	C	02/09/2024	15:13	-128.014	48.098	0	53.60	0	8.9950	0	32.3190	0	25.021	0	53.143	0	261.3	4	91.3	4	-1E+10	1	-1E+10	1	-1E+10	1	-1E+10	1	-1E+10	1	-1E+10	1
4902663	19	C	02/09/2024	15:13	-128.014	48.098	0	54.90	0	8.9940	0	32.3190	0	25.022	0	54.432	0	260.8	4	91.2	4	-1E+10	1	-1E+10	1	-1E+10	1	-1E+10	1	-1E+10	1	-1E+10	1
4902663	19	C	02/09/2024	15:13	-128.014	48.098	0	56.40	0	8.9940	0	32.3190	0	25.022	0	55.919	0	260.2	4	90.9	4	-1E+10	1	-1E+10	1	-1E+10	1	-1E+10	1	-1E+10	1	-1E+10	1
4902663	19	C	02/09/2024	15:13	-128.014	48.098	0	57.30	0	8.9940	0	32.3190	0	25.022	0	56.811	0	259.8	4	90.8	4	-1E+10	1	-1E+10	1	-1E+10	1	-1E+10	1	-1E+10	1	-1E+10	1
4902663	19	C	02/09/2024	15:13	-128.014	48.098	0	58.20	0	8.9940	0	32.3190	0	25.022	0	57.703	0	259.2	4	90.6	4	-1E+10	1	-1E+10	1	-1E+10	1	-1E+10	1	-1E+10	1	-1E+10	1
4902663	19	C	02/09/2024	15:13	-128.014	48.098	0	59.20	0	8.9940	0	32.3190	0	25.022	0	58.694	0	258.6	4	90.4	4	-1E+10	1	-1E+10	1	-1E+10	1	-1E+10	1	-1E+10	1	-1E+10	1
4902663	19	C	02/09/2024	15:13	-128.014	48.098	0	60.10	0	8.9930	0	32.3200	0	25.023	0	59.586	0	257.9	4	90.1	4	-1E+10	1	-1E+10	1	-1E+10	1	-1E+10	1	-1E+10	1	-1E+10	1
4902663	19	C	02/09/2024	15:13	-128.014	48.098	0	61.00	0	8.9930	0	32.3200	0	25.023	0	60.479	0	257.2	4	89.9	4	-1E+10	1	-1E+10	1	-1E+10	1	-1E+10	1	-1E+10	1	-1E+10	1
4902663	19	C	02/09/2024	15:13	-128.014	48.098	0	62.00	0	8.9930	0	32.3200	0	25.023	0	61.470	0	256.5	4	89.6	4	-1E+10	1	-1E+10	1	-1E+10	1	-1E+10	1	-1E+10	1	-1E+10	1
4902663	19	C	02/09/2024	15:13	-128.014	48.098	0	62.90	0	8.9920	0	32.3210	0	25.024	0	62.362	0	255.5	4	89.3	4	-1E+10	1	-1E+10	1	-1E+10	1	-1E+10	1	-1E+10	1	-1E+10	1
4902663	19	C	02/09/2024	15:13	-128.014	48.098	0	63.80	0	8.9930	0	32.3220	0	25.024	0	63.254	0	254.5	4	88.9	4	-1E+10	1	-1E+10	1	-1E+10	1	-1E+10	1	-1E+10	1	-1E+10	1
4902663	19	C	02/09/2024	15:13	-128.014	48.098	0	64.80	0	8.9880	0	32.3240	0	25.027	0	64.246	0	253.4	4	88.5	4	-1E+10	1	-1E+10	1	-1E+10	1	-1E+10	1	-1E+10	1	-1E+10	1
4902663	19	C	02/09/2024	15:13	-128.014	48.098	0	65.70	0	8.9800	0	32.3270	0	25.030	0	65.138	0	252.0	4	88.0	4	-1E+10	1	-1E+10	1	-1E+10	1	-1E+10	1	-1E+10	1	-1E+10	1
4902663	19	C	02/09/2024	15:13	-128.014	48.098	0	66.60	0	8.9710	0	32.3280	0	25.032	0	66.030	0	250.4	4	87.5	4	-1E+10	1	-1E+10	1	-1E+10	1	-1E+10	1	-1E+10	1	-1E+10	1
4902663	19	C	02/09/2024	15:13	-128.014	48.098	0	67.90	0	8.9610	0	32.3320	0	25.037	0	67.319	0	248.0	4	86.6	4	-1E+10	1	-1E+10	1	-1E+10	1	-1E+10	1	-1E+10	1	-1E+10	1
4902663	19	C	02/09/2024	15:13	-128.014	48.098	0	69.30	0	8.9610	0	32.3410	0	25.044	0	68.706	0	245.6	4	85.8	4	-1E+10	1	-1E+10	1	-1E+10	1	-1E+10	1	-1E+10	1	-1E+10	1
4902663	19	C	02/09/2024	15:13	-128.014	48.098	0	70.20	0	8.9500	0	32.3550	0	25.057	0	69.598	0	243.8	4	85.1	4	-1E+10	1	-1E+10	1	-1E+10	1	-1E+10	1	-1E+10	1	-1E+10	1
4902663	19	C	02/09/2024	15:13	-128.014	48.098	0	71.10	0	8.9400	0	32.3600	0	25.062	0	70.491	0	241.5	4	84.3	4	-1E+10	1	-1E+10	1	-1E+10	1	-1E+10	1	-1E+10	1	-1E+10	1
4902663	19	C	02/09/2024	15:13	-128.014	48.098	0	72.00	0	8.9130	0	32.3760	0	25.079	0	71.383	0	239.0	4	83.4	4	-1E+10	1	-1E+10	1	-1E+10	1	-1E+10	1	-1E+10	1	-1E+10	1
4902663	19	C	02/09/2024	15:13	-128.014	48.098	0	72.90	0	8.8990	0	32.3800	0	25.084	0	72.275	0	236.1	4	82.4	4	-1E+10	1	-1E+10	1	-1E+10	1	-1E+10	1	-1E+10	1	-1E+10	1
4902663	19	C	02/09/2024	15:13	-128.014	48.098	0	73.80	0	8.8590	0	32.4010	0	25.107	0	73.167	0	233.1	4	81.3	4	-1E+10	1	-1E+10	1	-1E+10	1	-1E+10	1	-1E+10	1	-1E+10	1
4902663	19	C	02/09/2024	15:13	-128.014	48.098	0	74.70	0	8.8370	0	32.4110	0	25.118	0	74.059	0	230.0	4	80.1	4	-1E+10	1	-1E+10	1	-1E+10	1	-1E+10	1	-1E+10	1	-1E+10	1
4902663	19	C	02/09/2024	15:13	-128.014	48.098	0	75.90	0	8.8190	0	32.4170	0	25.125	0	75.249	0	225.3	4	78.5	4	-1E+10	1	-1E+10	1	-1E+10	1	-1E+10	1	-1E+10	1	-1E+10	1
4902663	19	C	02/09/2024	15:13	-128.014	48.098	0	77.30	0	8.7890	0	32.4450	0	25.152	0	76.636	0	220.2	4	76.7	4	-1E+10	1	-1E+10	1	-1E+10	1	-1E+10	1	-1E+10	1	-1E+10	1
4902663	19	C	02/09/2024	15:13	-128.014	48.098	0	78.10	0	8.6660	0	32.4980	0	25.212	0	77.429	0	217.3	4	75.5	4	-1E+10	1	-1E+10	1	-1E+10	1	-1E+10	1	-1E+10	1	-1E+10	1
4902663	19	C	02/09/2024	15:13	-128.014	48.098	0	79.10	0	8.5690	0	32.5750	0	25.287	0	78.420	0	215.1	4	74.6	4	-1E+10	1	-1E+10	1	-1E+10	1	-1E+10	1	-1E+10	1	-1E+10	1
4902663	19	C	02/09/2024	15:13	-128.014	48.098	0	80.00	0	8.3090	0	32.6620	0	25.394	0	79.313	0	213.6	4	73.7	4	-1E+10	1	-1E+10	1	-1E+10	1	-1E+10	1	-1E+10	1	-1E+10	1
4902663	19	C	02/09/2024	15:13	-128.014	48.098	0	81.00	0	8.2490	0	32.6870	0	25.423	0	80.304	0	211.8	4	73.0	4	-1E+10	1	-1E+10	1	-1E+10	1	-1E+10	1	-1E+10	1	-1E+10	1
4902663	19	C	02/09/2024	15:13	-128.014	48.098	0	82.00	0	8.2310	0	32.6920	0	25.429	0	81.295	0	210.1	4	72.4	4	-1E+10	1	-1E+10	1	-1E+10	1	-1E+10	1	-1E+10	1	-1E+10	1
4902663	19	C	02/09/2024	15:13	-128.014	48.098	0	82.90	0	8.1430	0	32.7010	0	25.449	0	82.187	0	213.6	4	73.5	4	-1E+10	1	-1E+10	1	-1E+10	1	-1E+10	1	-1E+10	1	-1E+10	1
4902663	19	C	02/09/2024	15:13	-128.014	48.098	0	83.90	0	8.0870	0	32.7130	0	25.467	0	83.178	0	211.5	4	72.7	4	-1E+10	1	-1E+10	1	-1E+10	1	-1E+10	1	-1E+10	1	-1E+10	1
4902663	19	C	02/09/2024	15:13	-128.014	48.098	0	84.80	0	8.0210	0	32.7200	0	25.482	0	84.070	0	208.7	4	71.6	4	-1E+10	1	-1E+10	1	-1E+10	1	-1E+10	1	-1E+10	1	-1E+10	1
4902663	19	C	02/09/2024	15:13	-128.014	48.098	0	85.80	0	7.9160	0	32.7620	0	25.530	0	85.062	0	205.6	4	70.4	4	-1E+10	1	-1E+10	1	-1E+10	1	-1E+10	1	-1E+10	1	-1E+10	1
4902663	19	C	02/09/2024	15:13	-128.014	48.098	0	86.70	0	7.8910	0	32.7920	0	25.557	0	85.954	0	202.9	4	69.4	4	-1E+10	1	-1E+10	1	-1E+10	1	-1E+10	1	-1E+10	1	-1E+10	1
4902663	19	C	02/09/2024	15:13	-128.014	48.098	0	87.70	0	7.8880	0	32.8140	0	25.575	0	86.945	0	200.2	4	68.5	4	-1E+10	1	-1E+10	1	-1E+10	1	-1E+10	1	-1E+10	1	-1E+10	1
4902663	19	C	02/09/2024	15:13	-128.014	48.098	0	88.60	0	7.8470	0	32.8560	0	25.614	0	87.837	0	197.7	4	67.6	4	-1E+10	1	-1E+10	1	-1E+10	1	-1E+10	1	-1E+10	1	-1E+10	1
4902663	19	C	02/09/2024	15:13	-128.014	48.098	0	89.50	0	7.8010	0	32.9120	0	25.664	0	88.729	0	194.9	4	66.6	4	-1E+10	1	-1E+10	1	-1E+10	1	-1E+10	1	-1E+10	1	-1E+10	1
4902663	19	C	02/09/2024	15:13	-128.014	48.098	0	90.90	0	7.7900	0	32.9670	0	25.709	0	90.117	0	191.1	4	65.3	4	-1E+10	1	-1E+10	1	-1E+10	1	-1E+10	1	-1E+10	1	-1E+10	1
4902663	19	C	02/09/2024	15:13	-128.014	48.098	0	92.40	0	7.7970	0	33.0210	0	25.751	0	91.603	0	188.2	4	64.4	4	-1E+10	1	-1E+10	1	-1E+10	1	-1E+10	1	-1E+10	1	-1E+10	1
4902663	19	C	02/09/2024	15:13	-128.014	48.098	0	93.90	0	7.7430	0	33.0620	0	25.791	0	93.090	0	186.4	4	63.7	4	-1E+10	1	-1E+10	1	-1E+10	1	-1E+10	1	-1E+10	1	-1E+10	1
4902663	19	C	02/09/2024	15:13	-128.014	48.098	0	95.00	0	7.7020	0	33.0810	0	25.811	0	94.180	0	184.6	4	63.0	4	-1E+10	1	-1E+10	1	-1E+10	1	-1E+10	1	-1E+10	1	-1E+10	1
4902663	19	C	02/09/2024	15:13	-128.014	48.098	0	95.70	0	7.6830	0	33.0860	0	25.818	0	94.874	0	183.1	4	62.5	4	-1E+10	1	-1E+10	1	-1E+10	1	-1E+10	1	-1E+10	1	-1E+10	1
4902663	19	C	02/09/2024	15:13	-128.014	48.098	0	96.90	0	7.6490	0	33.1160	0	25.847	0	96.063	0	180.7	4	61.6	4	-1E+10	1	-1E+10	1	-1E+10	1	-1E+10	1	-1E+10	1	-1E+10	1
4902663	19	C	02/09/2024	15:13	-128.014	48.098	0	98.00	0	7.6220	0	33.1430	0	25.872	0	97.154	0	178.3	4	60.8	4	-1E+10	1	-1E+10	1	-1E+10	1	-1E+10	1	-1E+10	1	-1E+10	1
4902663	19	C	02/09/2024	15:13	-128.014	48.098	0	98.80	0	7.6140	0	33.1540	0	25.881	0	97.947	0	176.5	4	60.2	4	-1E+10	1	-1E+10	1	-1E+10	1	-1E+10	1	-1E+10	1	-1E+10	1
4902663	19	C	02/09/2024	15:13	-128.014	48.098	0	99.70	0	7.6100	0	33.1600	0	25.887	0	98.839	0	174.7	4	59.6	4	-1E+10	1	-1E+10	1	-1E+10	1	-1E+10	1	-1E+10	1	-1E+10	1
4902663	19	C	02/09/2024	15:13	-128.014	48.098	0	100.80	0	7.5980	0	33.1800	0	25.904	0	99.929	0	171.9	4	58.6	4	-1E+10	1	-1E+10	1	-1E+10	1	-1E+10	1	-1E+10	1	-1E+10	1
4902663	19	C	02/09/2024	15:13	-128.014	48.098	0	102.00	0	7.5850	0	33.2060	0	25.926	0	101.118	0	168.7	4	57.5	4	-1E+10	1	-1E+10	1	-1E+10	1	-1E+10	1	-1E+10	1	-1E+10	1
4902663	19	C	02/09/2024	15:13	-128.014	48.098	0	102.90	0	7.5850	0	33.2160	0	25.934	0	102.010	0	164.6	4	56.1	4	-1E+10	1	-1E+10	1	-1E+10	1	-1E+10	1	-1E+10	1	-1E+10	1
4902663	19	C	02/09/2024	15:13	-128.014	48.098	0	104.10	0	7.5940	0	33.2560	0	25.964	0	103.199	0	159.5	4	54.4	4	-1E+10	1	-1E+10	1	-1E+10	1	-1E+10	1	-1E+10	1	-1E+10	1
4902663	19	C	02/09/2024	15:13	-128.014	48.098	0	105.10	0	7.6020	0	33.2800	0	25.982	0	104.191	0	155.9	4	53.2	4	-1E+10	1	-1E+10	1	-1E+10	1	-1E+10	1	-1E+10	1	-1E+10	1
4902663	19	C	02/09/2024	15:13	-128.014	48.098	0	105.80	0	7.6300	0	33.3320	0	26.019	0	104.884	0	154.2	4	52.7	4	-1E+10	1	-1E+10	1	-1E+10	1	-1E+10	1	-1E+10	1	-1E+10	1
4902663	19	C	02/09/2024	15:13	-128.014	48.098	0	106.90	0	7.6620	0	33.3850	0	26.056	0	105.975	0	153.0	4	52.3	4	-1E+10	1	-1E+10	1	-1E+10	1	-1E+10	1	-1E+10	1	-1E+10	1
4902663	19	C	02/09/2024	15:13	-128.014	48.098	0	108.00	0	7.6840	0	33.4100	0	26.073	0	107.065	0	152.2	4	52.1	4	-1E+10	1	-1E+10	1	-1E+10	1	-1E+10	1	-1E+10	1	-1E+10	1
4902663	19	C	02/09/2024	15:13	-128.014	48.098	0	109.00	0	7.6610	0	33.4150	0	26.080	0	108.056	0	151.2	4	51.7	4	-1E+10	1	-1E+10	1	-1E+10	1	-1E+10	1	-1E+10	1	-1E+10	1
4902663	19	C	02/09/2024	15:13	-128.014	48.098	0	110.20	0	7.6300	0	33.4270	0	26.094	0	109.245	0	150.0	4	51.3	4	-1E+10	1	-1E+10	1	-1E+10	1	-1E+10	1	-1E+10	1	-1E+10	1
4902663	19	C	02/09/2024	15:13	-128.014	48.098	0	110.90	0	7.6290	0	33.4330	0	26.099	0	109.939	0	149.3	4	51.0	4	-1E+10	1	-1E+10	1	-1E+10	1	-1E+10	1	-1E+10	1	-1E+10	1
4902663	19	C	02/09/2024	15:13	-128.014	48.098	0	111.70	0	7.6270	0	33.4400	0	26.105	0	110.732	0	148.4	4	50.7	4	-1E+10	1	-1E+10	1	-1E+10	1	-1E+10	1	-1E+10	1	-1E+10	1
4902663	19	C	02/09/2024	15:13	-128.014	48.098	0	112.80	0	7.6260	0	33.4560	0	26.117	0	111.822	0	147.2	4	50.3	4	-1E+10	1	-1E+10	1	-1E+10	1	-1E+10	1	-1E+10	1	-1E+10	1
4902663	19	C	02/09/2024	15:13	-128.014	48.098	0	114.00	0	7.6250	0	33.4700	0	26.128	0	113.011	0	145.7	4	49.8	4	-1E+10	1	-1E+10	1	-1E+10	1	-1E+10	1	-1E+10	1	-1E+10	1
4902663	19	C	02/09/2024	15:13	-128.014	48.098	0	114.80	0	7.6200	0	33.4800	0	26.137	0	113.804	0	144.7	4	49.4	4	-1E+10	1	-1E+10	1	-1E+10	1	-1E+10	1	-1E+10	1	-1E+10	1
4902663	19	C	02/09/2024	15:13	-128.014	48.098	0	116.00	0	7.6060	0	33.4940	0	26.150	0	114.993	0	143.1	4	48.9	4	-1E+10	1	-1E+10	1	-1E+10	1	-1E+10	1	-1E+10	1	-1E+10	1
4902663	19	C	02/09/2024	15:13	-128.014	48.098	0	117.20	0	7.5890	0	33.5240	0	26.176	0	116.182	0	141.5	4	48.3	4	-1E+10	1	-1E+10	1	-1E+10	1	-1E+10	1	-1E+10	1	-1E+10	1
4902663	19	C	02/09/2024	15:13	-128.014	48.098	0	118.00	0	7.5740	0	33.5430	0	26.193	0	116.975	0	140.4	4	47.9	4	-1E+10	1	-1E+10	1	-1E+10	1	-1E+10	1	-1E+10	1	-1E+10	1
4902663	19	C	02/09/2024	15:13	-128.014	48.098	0	118.80	0	7.5680	0	33.5480	0	26.198	0	117.768	0	139.1	4	47.5	4	-1E+10	1	-1E+10	1	-1E+10	1	-1E+10	1	-1E+10	1	-1E+10	1
4902663	19	C	02/09/2024	15:13	-128.014	48.098	0	119.70	0	7.5630	0	33.5500	0	26.200	0	118.660	0	137.6	4	47.0	4	-1E+10	1	-1E+10	1	-1E+10	1	-1E+10	1	-1E+10	1	-1E+10	1
4902663	19	C	02/09/2024	15:13	-128.014	48.098	0	120.90	0	7.5630	0	33.5600	0	26.208	0	119.849	0	134.9	4	46.1	4	-1E+10	1	-1E+10	1	-1E+10	1	-1E+10	1	-1E+10	1	-1E+10	1
4902663	19	C	02/09/2024	15:13	-128.014	48.098	0	122.10	0	7.5890	0	33.5920	0	26.230	0	121.038	0	132.1	4	45.2	4	-1E+10	1	-1E+10	1	-1E+10	1	-1E+10	1	-1E+10	1	-1E+10	1
4902663	19	C	02/09/2024	15:13	-128.014	48.098	0	123.00	0	7.6110	0	33.5990	0	26.232	0	121.930	0	130.6	4	44.7	4	-1E+10	1	-1E+10	1	-1E+10	1	-1E+10	1	-1E+10	1	-1E+10	1
4902663	19	C	02/09/2024	15:13	-128.014	48.098	0	123.80	0	7.6220	0	33.6240	0	26.250	0	122.723	0	129.3	4	44.2	4	-1E+10	1	-1E+10	1	-1E+10	1	-1E+10	1	-1E+10	1	-1E+10	1
4902663	19	C	02/09/2024	15:13	-128.014	48.098	0	124.70	0	7.6460	0	33.6410	0	26.260	0	123.615	0	128.1	4	43.9	4	-1E+10	1	-1E+10	1	-1E+10	1	-1E+10	1	-1E+10	1	-1E+10	1
4902663	19	C	02/09/2024	15:13	-128.014	48.098	0	125.90	0	7.6560	0	33.6670	0	26.279	0	124.804	0	126.6	4	43.4	4	-1E+10	1	-1E+10	1	-1E+10	1	-1E+10	1	-1E+10	1	-1E+10	1
4902663	19	C	02/09/2024	15:13	-128.014	48.098	0	127.20	0	7.6680	0	33.6930	0	26.298	0	126.093	0	125.4	4	43.0	4	-1E+10	1	-1E+10	1	-1E+10	1	-1E+10	1	-1E+10	1	-1E+10	1
4902663	19	C	02/09/2024	15:13	-128.014	48.098	0	128.10	0	7.6520	0	33.7130	0	26.316	0	126.984	0	125.0	4	42.8	4	-1E+10	1	-1E+10	1	-1E+10	1	-1E+10	1	-1E+10	1	-1E+10	1
4902663	19	C	02/09/2024	15:13	-128.014	48.098	0	129.00	0	7.6380	0	33.7160	0	26.320	0	127.876	0	124.4	4	42.6	4	-1E+10	1	-1E+10	1	-1E+10	1	-1E+10	1	-1E+10	1	-1E+10	1
4902663	19	C	02/09/2024	15:13	-128.014	48.098	0	129.90	0	7.6240	0	33.7230	0	26.328	0	128.768	0	123.9	4	42.4	4	-1E+10	1	-1E+10	1	-1E+10	1	-1E+10	1	-1E+10	1	-1E+10	1
4902663	19	C	02/09/2024	15:13	-128.014	48.098	0	130.80	0	7.6160	0	33.7320	0	26.336	0	129.660	0	123.4	4	42.3	4	-1E+10	1	-1E+10	1	-1E+10	1	-1E+10	1	-1E+10	1	-1E+10	1
4902663	19	C	02/09/2024	15:13	-128.014	48.098	0	131.70	0	7.6160	0	33.7360	0	26.339	0	130.552	0	123.0	4	42.1	4	-1E+10	1	-1E+10	1	-1E+10	1	-1E+10	1	-1E+10	1	-1E+10	1
4902663	19	C	02/09/2024	15:13	-128.014	48.098	0	132.60	0	7.6150	0	33.7370	0	26.340	0	131.444	0	122.6	4	42.0	4	-1E+10	1	-1E+10	1	-1E+10	1	-1E+10	1	-1E+10	1	-1E+10	1
4902663	19	C	02/09/2024	15:13	-128.014	48.098	0	133.90	0	7.6130	0	33.7410	0	26.343	0	132.732	0	122.0	4	41.8	4	-1E+10	1	-1E+10	1	-1E+10	1	-1E+10	1	-1E+10	1	-1E+10	1
4902663	19	C	02/09/2024	15:13	-128.014	48.098	0	135.20	0	7.6130	0	33.7450	0	26.347	0	134.020	0	121.1	4	41.5	4	-1E+10	1	-1E+10	1	-1E+10	1	-1E+10	1	-1E+10	1	-1E+10	1
4902663	19	C	02/09/2024	15:13	-128.014	48.098	0	136.10	0	7.6030	0	33.7500	0	26.352	0	134.912	0	120.6	4	41.3	4	-1E+10	1	-1E+10	1	-1E+10	1	-1E+10	1	-1E+10	1	-1E+10	1
4902663	19	C	02/09/2024	15:13	-128.014	48.098	0	137.00	0	7.5960	0	33.7520	0	26.355	0	135.804	0	119.9	4	41.0	4	-1E+10	1	-1E+10	1	-1E+10	1	-1E+10	1	-1E+10	1	-1E+10	1
4902663	19	C	02/09/2024	15:13	-128.014	48.098	0	137.90	0	7.6020	0	33.7620	0	26.362	0	136.696	0	119.3	4	40.8	4	-1E+10	1	-1E+10	1	-1E+10	1	-1E+10	1	-1E+10	1	-1E+10	1
4902663	19	C	02/09/2024	15:13	-128.014	48.098	0	138.90	0	7.6060	0	33.7670	0	26.365	0	137.687	0	118.8	4	40.7	4	-1E+10	1	-1E+10	1	-1E+10	1	-1E+10	1	-1E+10	1	-1E+10	1
4902663	19	C	02/09/2024	15:13	-128.014	48.098	0	139.80	0	7.6080	0	33.7710	0	26.368	0	138.579	0	118.3	4	40.5	4	-1E+10	1	-1E+10	1	-1E+10	1	-1E+10	1	-1E+10	1	-1E+10	1
4902663	19	C	02/09/2024	15:13	-128.014	48.098	0	140.70	0	7.5960	0	33.7750	0	26.373	0	139.471	0	117.7	4	40.3	4	-1E+10	1	-1E+10	1	-1E+10	1	-1E+10	1	-1E+10	1	-1E+10	1
4902663	19	C	02/09/2024	15:13	-128.014	48.098	0	141.60	0	7.5350	0	33.7960	0	26.398	0	140.362	0	117.2	4	40.1	4	-1E+10	1	-1E+10	1	-1E+10	1	-1E+10	1	-1E+10	1	-1E+10	1
4902663	19	C	02/09/2024	15:13	-128.014	48.098	0	142.60	0	7.4960	0	33.7960	0	26.403	0	141.353	0	116.7	4	39.9	4	-1E+10	1	-1E+10	1	-1E+10	1	-1E+10	1	-1E+10	1	-1E+10	1
4902663	19	C	02/09/2024	15:13	-128.014	48.098	0	143.50	0	7.5150	0	33.8030	0	26.406	0	142.245	0	116.4	4	39.8	4	-1E+10	1	-1E+10	1	-1E+10	1	-1E+10	1	-1E+10	1	-1E+10	1
4902663	19	C	02/09/2024	15:13	-128.014	48.098	0	144.90	0	7.5210	0	33.8140	0	26.414	0	143.632	0	116.0	4	39.7	4	-1E+10	1	-1E+10	1	-1E+10	1	-1E+10	1	-1E+10	1	-1E+10	1
4902663	19	C	02/09/2024	15:13	-128.014	48.098	0	146.40	0	7.5120	0	33.8220	0	26.422	0	145.119	0	115.8	4	39.6	4	-1E+10	1	-1E+10	1	-1E+10	1	-1E+10	1	-1E+10	1	-1E+10	1
4902663	19	C	02/09/2024	15:13	-128.014	48.098	0	147.30	0	7.4860	0	33.8200	0	26.424	0	146.011	0	115.6	4	39.5	4	-1E+10	1	-1E+10	1	-1E+10	1	-1E+10	1	-1E+10	1	-1E+10	1
4902663	19	C	02/09/2024	15:13	-128.014	48.098	0	148.30	0	7.5010	0	33.8230	0	26.424	0	147.001	0	115.4	4	39.4	4	-1E+10	1	-1E+10	1	-1E+10	1	-1E+10	1	-1E+10	1	-1E+10	1
4902663	19	C	02/09/2024	15:13	-128.014	48.098	0	149.30	0	7.4900	0	33.8210	0	26.424	0	147.992	0	115.3	4	39.4	4	-1E+10	1	-1E+10	1	-1E+10	1	-1E+10	1	-1E+10	1	-1E+10	1
4902663	19	C	02/09/2024	15:13	-128.014	48.098	0	150.20	0	7.4340	0	33.8400	0	26.447	0	148.884	0	115.2	4	39.3	4	-1E+10	1	-1E+10	1	-1E+10	1	-1E+10	1	-1E+10	1	-1E+10	1
4902663	19	C	02/09/2024	15:13	-128.014	48.098	0	151.20	0	7.4190	0	33.8330	0	26.444	0	149.875	0	115.2	4	39.3	4	-1E+10	1	-1E+10	1	-1E+10	1	-1E+10	1	-1E+10	1	-1E+10	1
4902663	19	C	02/09/2024	15:13	-128.014	48.098	0	152.20	0	7.4080	0	33.8360	0	26.447	0	150.866	0	115.1	4	39.3	4	-1E+10	1	-1E+10	1	-1E+10	1	-1E+10	1	-1E+10	1	-1E+10	1
4902663	19	C	02/09/2024	15:13	-128.014	48.098	0	153.20	0	7.3920	0	33.8370	0	26.451	0	151.857	0	115.2	4	39.3	4	-1E+10	1	-1E+10	1	-1E+10	1	-1E+10	1	-1E+10	1	-1E+10	1
4902663	19	C	02/09/2024	15:13	-128.014	48.098	0	154.20	0	7.4190	0	33.8470	0	26.455	0	152.848	0	115.4	4	39.4	4	-1E+10	1	-1E+10	1	-1E+10	1	-1E+10	1	-1E+10	1	-1E+10	1
4902663	19	C	02/09/2024	15:13	-128.014	48.098	0	155.20	0	7.3520	0	33.8440	0	26.462	0	153.838	0	115.7	4	39.4	4	-1E+10	1	-1E+10	1	-1E+10	1	-1E+10	1	-1E+10	1	-1E+10	1
4902663	19	C	02/09/2024	15:13	-128.014	48.098	0	156.20	0	7.3450	0	33.8430	0	26.462	0	154.829	0	115.9	4	39.5	4	-1E+10	1	-1E+10	1	-1E+10	1	-1E+10	1	-1E+10	1	-1E+10	1
4902663	19	C	02/09/2024	15:13	-128.014	48.098	0	157.20	0	7.3200	0	33.8430	0	26.465	0	155.820	0	116.1	4	39.5	4	-1E+10	1	-1E+10	1	-1E+10	1	-1E+10	1	-1E+10	1	-1E+10	1
4902663	19	C	02/09/2024	15:13	-128.014	48.098	0	158.20	0	7.3130	0	33.8400	0	26.464	0	156.811	0	116.2	4	39.5	4	-1E+10	1	-1E+10	1	-1E+10	1	-1E+10	1	-1E+10	1	-1E+10	1
4902663	19	C	02/09/2024	15:13	-128.014	48.098	0	159.20	0	7.2750	0	33.8410	0	26.470	0	157.802	0	116.3	4	39.5	4	-1E+10	1	-1E+10	1	-1E+10	1	-1E+10	1	-1E+10	1	-1E+10	1
4902663	19	C	02/09/2024	15:13	-128.014	48.098	0	160.20	0	7.1740	0	33.8330	0	26.478	0	158.793	0	116.2	4	39.4	4	-1E+10	1	-1E+10	1	-1E+10	1	-1E+10	1	-1E+10	1	-1E+10	1
4902663	19	C	02/09/2024	15:13	-128.014	48.098	0	161.30	0	7.2400	0	33.8510	0	26.483	0	159.883	0	116.3	4	39.5	4	-1E+10	1	-1E+10	1	-1E+10	1	-1E+10	1	-1E+10	1	-1E+10	1
4902663	19	C	02/09/2024	15:13	-128.014	48.098	0	162.30	0	7.2390	0	33.8500	0	26.482	0	160.873	0	116.6	4	39.6	4	-1E+10	1	-1E+10	1	-1E+10	1	-1E+10	1	-1E+10	1	-1E+10	1
4902663	19	C	02/09/2024	15:13	-128.014	48.098	0	163.30	0	7.2180	0	33.8490	0	26.484	0	161.864	0	116.9	4	39.7	4	-1E+10	1	-1E+10	1	-1E+10	1	-1E+10	1	-1E+10	1	-1E+10	1
4902663	19	C	02/09/2024	15:13	-128.014	48.098	0	164.30	0	7.1340	0	33.8400	0	26.489	0	162.855	0	117.1	4	39.7	4	-1E+10	1	-1E+10	1	-1E+10	1	-1E+10	1	-1E+10	1	-1E+10	1
4902663	19	C	02/09/2024	15:13	-128.014	48.098	0	165.30	0	7.1400	0	33.8410	0	26.489	0	163.846	0	117.2	4	39.7	4	-1E+10	1	-1E+10	1	-1E+10	1	-1E+10	1	-1E+10	1	-1E+10	1
4902663	19	C	02/09/2024	15:13	-128.014	48.098	0	166.30	0	7.0860	0	33.8390	0	26.495	0	164.837	0	117.3	4	39.7	4	-1E+10	1	-1E+10	1	-1E+10	1	-1E+10	1	-1E+10	1	-1E+10	1
4902663	19	C	02/09/2024	15:13	-128.014	48.098	0	167.30	0	6.9870	0	33.8280	0	26.500	0	165.827	0	117.2	4	39.6	4	-1E+10	1	-1E+10	1	-1E+10	1	-1E+10	1	-1E+10	1	-1E+10	1
4902663	19	C	02/09/2024	15:13	-128.014	48.098	0	168.30	0	6.9950	0	33.8290	0	26.499	0	166.818	0	117.2	4	39.6	4	-1E+10	1	-1E+10	1	-1E+10	1	-1E+10	1	-1E+10	1	-1E+10	1
4902663	19	C	02/09/2024	15:13	-128.014	48.098	0	169.20	0	7.0050	0	33.8320	0	26.500	0	167.710	0	117.3	4	39.6	4	-1E+10	1	-1E+10	1	-1E+10	1	-1E+10	1	-1E+10	1	-1E+10	1
4902663	19	C	02/09/2024	15:13	-128.014	48.098	0	170.20	0	6.9590	0	33.8340	0	26.508	0	168.701	0	117.4	4	39.6	4	-1E+10	1	-1E+10	1	-1E+10	1	-1E+10	1	-1E+10	1	-1E+10	1
4902663	19	C	02/09/2024	15:13	-128.014	48.098	0	171.30	0	6.8670	0	33.8320	0	26.519	0	169.791	0	116.9	4	39.4	4	-1E+10	1	-1E+10	1	-1E+10	1	-1E+10	1	-1E+10	1	-1E+10	1
4902663	19	C	02/09/2024	15:13	-128.014	48.098	0	172.30	0	6.8420	0	33.8350	0	26.525	0	170.781	0	115.9	4	39.0	4	-1E+10	1	-1E+10	1	-1E+10	1	-1E+10	1	-1E+10	1	-1E+10	1
4902663	19	C	02/09/2024	15:13	-128.014	48.098	0	173.30	0	6.8400	0	33.8300	0	26.521	0	171.772	0	115.1	4	38.7	4	-1E+10	1	-1E+10	1	-1E+10	1	-1E+10	1	-1E+10	1	-1E+10	1
4902663	19	C	02/09/2024	15:13	-128.014	48.098	0	174.40	0	6.8530	0	33.8310	0	26.520	0	172.862	0	114.2	4	38.5	4	-1E+10	1	-1E+10	1	-1E+10	1	-1E+10	1	-1E+10	1	-1E+10	1
4902663	19	C	02/09/2024	15:13	-128.014	48.098	0	175.40	0	6.8360	0	33.8350	0	26.526	0	173.853	0	113.3	4	38.1	4	-1E+10	1	-1E+10	1	-1E+10	1	-1E+10	1	-1E+10	1	-1E+10	1
4902663	19	C	02/09/2024	15:13	-128.014	48.098	0	176.40	0	6.8300	0	33.8370	0	26.528	0	174.843	0	112.2	4	37.8	4	-1E+10	1	-1E+10	1	-1E+10	1	-1E+10	1	-1E+10	1	-1E+10	1
4902663	19	C	02/09/2024	15:13	-128.014	48.098	0	177.40	0	6.8110	0	33.8360	0	26.530	0	175.834	0	111.1	4	37.4	4	-1E+10	1	-1E+10	1	-1E+10	1	-1E+10	1	-1E+10	1	-1E+10	1
4902663	19	C	02/09/2024	15:13	-128.014	48.098	0	178.40	0	6.8010	0	33.8410	0	26.535	0	176.825	0	110.0	4	37.0	4	-1E+10	1	-1E+10	1	-1E+10	1	-1E+10	1	-1E+10	1	-1E+10	1
4902663	19	C	02/09/2024	15:13	-128.014	48.098	0	179.40	0	6.8100	0	33.8470	0	26.539	0	177.816	0	109.2	4	36.7	4	-1E+10	1	-1E+10	1	-1E+10	1	-1E+10	1	-1E+10	1	-1E+10	1
4902663	19	C	02/09/2024	15:13	-128.014	48.098	0	180.50	0	6.8400	0	33.8610	0	26.546	0	178.906	0	108.9	4	36.7	4	-1E+10	1	-1E+10	1	-1E+10	1	-1E+10	1	-1E+10	1	-1E+10	1
4902663	19	C	02/09/2024	15:13	-128.014	48.098	0	181.50	0	6.8460	0	33.8630	0	26.546	0	179.896	0	109.0	4	36.7	4	-1E+10	1	-1E+10	1	-1E+10	1	-1E+10	1	-1E+10	1	-1E+10	1
4902663	19	C	02/09/2024	15:13	-128.014	48.098	0	182.50	0	6.8450	0	33.8650	0	26.548	0	180.887	0	109.0	4	36.7	4	-1E+10	1	-1E+10	1	-1E+10	1	-1E+10	1	-1E+10	1	-1E+10	1
4902663	19	C	02/09/2024	15:13	-128.014	48.098	0	183.50	0	6.8390	0	33.8660	0	26.550	0	181.878	0	109.3	4	36.8	4	-1E+10	1	-1E+10	1	-1E+10	1	-1E+10	1	-1E+10	1	-1E+10	1
4902663	19	C	02/09/2024	15:13	-128.014	48.098	0	184.60	0	6.8090	0	33.8670	0	26.555	0	182.967	0	109.4	4	36.8	4	-1E+10	1	-1E+10	1	-1E+10	1	-1E+10	1	-1E+10	1	-1E+10	1
4902663	19	C	02/09/2024	15:13	-128.014	48.098	0	185.60	0	6.7850	0	33.8650	0	26.556	0	183.958	0	109.5	4	36.8	4	-1E+10	1	-1E+10	1	-1E+10	1	-1E+10	1	-1E+10	1	-1E+10	1
4902663	19	C	02/09/2024	15:13	-128.014	48.098	0	186.60	0	6.7740	0	33.8670	0	26.559	0	184.949	0	109.7	4	36.9	4	-1E+10	1	-1E+10	1	-1E+10	1	-1E+10	1	-1E+10	1	-1E+10	1
4902663	19	C	02/09/2024	15:13	-128.014	48.098	0	187.70	0	6.7600	0	33.8660	0	26.560	0	186.039	0	109.9	4	36.9	4	-1E+10	1	-1E+10	1	-1E+10	1	-1E+10	1	-1E+10	1	-1E+10	1
4902663	19	C	02/09/2024	15:13	-128.014	48.098	0	188.70	0	6.7030	0	33.8670	0	26.569	0	187.029	0	110.1	4	36.9	4	-1E+10	1	-1E+10	1	-1E+10	1	-1E+10	1	-1E+10	1	-1E+10	1
4902663	19	C	02/09/2024	15:13	-128.014	48.098	0	189.70	0	6.6880	0	33.8630	0	26.568	0	188.020	0	110.0	4	36.9	4	-1E+10	1	-1E+10	1	-1E+10	1	-1E+10	1	-1E+10	1	-1E+10	1
4902663	19	C	02/09/2024	15:13	-128.014	48.098	0	190.70	0	6.6800	0	33.8630	0	26.569	0	189.011	0	109.9	4	36.9	4	-1E+10	1	-1E+10	1	-1E+10	1	-1E+10	1	-1E+10	1	-1E+10	1
4902663	19	C	02/09/2024	15:13	-128.014	48.098	0	191.70	0	6.6550	0	33.8640	0	26.573	0	190.001	0	109.7	4	36.8	4	-1E+10	1	-1E+10	1	-1E+10	1	-1E+10	1	-1E+10	1	-1E+10	1
4902663	19	C	02/09/2024	15:13	-128.014	48.098	0	192.80	0	6.6000	0	33.8620	0	26.579	0	191.091	0	109.4	4	36.6	4	-1E+10	1	-1E+10	1	-1E+10	1	-1E+10	1	-1E+10	1	-1E+10	1
4902663	19	C	02/09/2024	15:13	-128.014	48.098	0	193.80	0	6.5920	0	33.8590	0	26.577	0	192.082	0	109.0	4	36.5	4	-1E+10	1	-1E+10	1	-1E+10	1	-1E+10	1	-1E+10	1	-1E+10	1
4902663	19	C	02/09/2024	15:13	-128.014	48.098	0	194.80	0	6.5880	0	33.8590	0	26.578	0	193.073	0	108.4	4	36.3	4	-1E+10	1	-1E+10	1	-1E+10	1	-1E+10	1	-1E+10	1	-1E+10	1
4902663	19	C	02/09/2024	15:13	-128.014	48.098	0	195.90	0	6.5650	0	33.8620	0	26.583	0	194.162	0	107.8	4	36.1	4	-1E+10	1	-1E+10	1	-1E+10	1	-1E+10	1	-1E+10	1	-1E+10	1
4902663	19	C	02/09/2024	15:13	-128.014	48.098	0	196.90	0	6.5440	0	33.8580	0	26.583	0	195.153	0	107.0	4	35.8	4	-1E+10	1	-1E+10	1	-1E+10	1	-1E+10	1	-1E+10	1	-1E+10	1
4902663	19	C	02/09/2024	15:13	-128.014	48.098	0	198.00	0	6.5450	0	33.8610	0	26.585	0	196.243	0	106.1	4	35.5	4	-1E+10	1	-1E+10	1	-1E+10	1	-1E+10	1	-1E+10	1	-1E+10	1
4902663	19	C	02/09/2024	15:13	-128.014	48.098	0	199.00	0	6.5360	0	33.8640	0	26.589	0	197.233	0	105.2	4	35.2	4	-1E+10	1	-1E+10	1	-1E+10	1	-1E+10	1	-1E+10	1	-1E+10	1
4902663	19	C	02/09/2024	15:13	-128.014	48.098	0	200.00	0	6.5210	0	33.8630	0	26.590	0	198.224	0	104.0	4	34.8	4	-1E+10	1	-1E+10	1	-1E+10	1	-1E+10	1	-1E+10	1	-1E+10	1
4902663	19	C	02/09/2024	15:13	-128.014	48.098	0	201.10	0	6.5360	0	33.8600	0	26.586	0	199.314	0	102.7	4	34.3	4	-1E+10	1	-1E+10	1	-1E+10	1	-1E+10	1	-1E+10	1	-1E+10	1
4902663	19	C	02/09/2024	15:13	-128.014	48.098	0	202.10	0	6.5620	0	33.8700	0	26.590	0	200.304	0	101.7	4	34.0	4	-1E+10	1	-1E+10	1	-1E+10	1	-1E+10	1	-1E+10	1	-1E+10	1
4902663	19	C	02/09/2024	15:13	-128.014	48.098	0	203.10	0	6.6230	0	33.8870	0	26.595	0	201.295	0	101.4	4	34.0	4	-1E+10	1	-1E+10	1	-1E+10	1	-1E+10	1	-1E+10	1	-1E+10	1
4902663	19	C	02/09/2024	15:13	-128.014	48.098	0	204.10	0	6.6500	0	33.8940	0	26.597	0	202.285	0	101.7	4	34.1	4	-1E+10	1	-1E+10	1	-1E+10	1	-1E+10	1	-1E+10	1	-1E+10	1
4902663	19	C	02/09/2024	15:13	-128.014	48.098	0	205.10	0	6.6340	0	33.8940	0	26.599	0	203.276	0	102.1	4	34.2	4	-1E+10	1	-1E+10	1	-1E+10	1	-1E+10	1	-1E+10	1	-1E+10	1
4902663	19	C	02/09/2024	15:13	-128.014	48.098	0	206.10	0	6.5760	0	33.8820	0	26.598	0	204.267	0	102.3	4	34.3	4	-1E+10	1	-1E+10	1	-1E+10	1	-1E+10	1	-1E+10	1	-1E+10	1
4902663	19	C	02/09/2024	15:13	-128.014	48.098	0	207.10	0	6.5410	0	33.8820	0	26.602	0	205.257	0	102.3	4	34.2	4	-1E+10	1	-1E+10	1	-1E+10	1	-1E+10	1	-1E+10	1	-1E+10	1
4902663	19	C	02/09/2024	15:13	-128.014	48.098	0	208.10	0	6.5230	0	33.8810	0	26.604	0	206.248	0	102.0	4	34.1	4	-1E+10	1	-1E+10	1	-1E+10	1	-1E+10	1	-1E+10	1	-1E+10	1
4902663	19	C	02/09/2024	15:13	-128.014	48.098	0	209.10	0	6.4820	0	33.8860	0	26.613	0	207.239	0	101.5	4	33.9	4	-1E+10	1	-1E+10	1	-1E+10	1	-1E+10	1	-1E+10	1	-1E+10	1
4902663	19	C	02/09/2024	15:13	-128.014	48.098	0	210.10	0	6.3950	0	33.8820	0	26.621	0	208.229	0	100.5	4	33.5	4	-1E+10	1	-1E+10	1	-1E+10	1	-1E+10	1	-1E+10	1	-1E+10	1
4902663	19	C	02/09/2024	15:13	-128.014	48.098	0	211.10	0	6.3800	0	33.8680	0	26.612	0	209.220	0	99.3	4	33.1	4	-1E+10	1	-1E+10	1	-1E+10	1	-1E+10	1	-1E+10	1	-1E+10	1
4902663	19	C	02/09/2024	15:13	-128.014	48.098	0	212.10	0	6.3800	0	33.8720	0	26.615	0	210.210	0	98.0	4	32.7	4	-1E+10	1	-1E+10	1	-1E+10	1	-1E+10	1	-1E+10	1	-1E+10	1
4902663	19	C	02/09/2024	15:13	-128.014	48.098	0	213.10	0	6.4050	0	33.8800	0	26.619	0	211.201	0	96.9	4	32.3	4	-1E+10	1	-1E+10	1	-1E+10	1	-1E+10	1	-1E+10	1	-1E+10	1
4902663	19	C	02/09/2024	15:13	-128.014	48.098	0	214.10	0	6.4840	0	33.8940	0	26.619	0	212.191	0	96.4	4	32.2	4	-1E+10	1	-1E+10	1	-1E+10	1	-1E+10	1	-1E+10	1	-1E+10	1
4902663	19	C	02/09/2024	15:13	-128.014	48.098	0	215.10	0	6.5010	0	33.9050	0	26.626	0	213.182	0	96.6	4	32.3	4	-1E+10	1	-1E+10	1	-1E+10	1	-1E+10	1	-1E+10	1	-1E+10	1
4902663	19	C	02/09/2024	15:13	-128.014	48.098	0	216.10	0	6.4810	0	33.9040	0	26.628	0	214.173	0	96.9	4	32.4	4	-1E+10	1	-1E+10	1	-1E+10	1	-1E+10	1	-1E+10	1	-1E+10	1
4902663	19	C	02/09/2024	15:13	-128.014	48.098	0	217.10	0	6.4790	0	33.9030	0	26.627	0	215.163	0	97.3	4	32.5	4	-1E+10	1	-1E+10	1	-1E+10	1	-1E+10	1	-1E+10	1	-1E+10	1
4902663	19	C	02/09/2024	15:13	-128.014	48.098	0	218.10	0	6.4700	0	33.9020	0	26.627	0	216.154	0	97.7	4	32.6	4	-1E+10	1	-1E+10	1	-1E+10	1	-1E+10	1	-1E+10	1	-1E+10	1
4902663	19	C	02/09/2024	15:13	-128.014	48.098	0	219.10	0	6.3920	0	33.8970	0	26.634	0	217.144	0	97.9	4	32.6	4	-1E+10	1	-1E+10	1	-1E+10	1	-1E+10	1	-1E+10	1	-1E+10	1
4902663	19	C	02/09/2024	15:13	-128.014	48.098	0	220.10	0	6.2530	0	33.8840	0	26.641	0	218.135	0	97.4	4	32.4	4	-1E+10	1	-1E+10	1	-1E+10	1	-1E+10	1	-1E+10	1	-1E+10	1
4902663	19	C	02/09/2024	15:13	-128.014	48.098	0	221.00	0	6.2280	0	33.8790	0	26.641	0	219.026	0	96.6	4	32.1	4	-1E+10	1	-1E+10	1	-1E+10	1	-1E+10	1	-1E+10	1	-1E+10	1
4902663	19	C	02/09/2024	15:13	-128.014	48.098	0	222.10	0	6.2440	0	33.8780	0	26.638	0	220.116	0	95.8	4	31.8	4	-1E+10	1	-1E+10	1	-1E+10	1	-1E+10	1	-1E+10	1	-1E+10	1
4902663	19	C	02/09/2024	15:13	-128.014	48.098	0	223.10	0	6.2480	0	33.8850	0	26.643	0	221.106	0	95.0	4	31.6	4	-1E+10	1	-1E+10	1	-1E+10	1	-1E+10	1	-1E+10	1	-1E+10	1
4902663	19	C	02/09/2024	15:13	-128.014	48.098	0	224.10	0	6.2590	0	33.8890	0	26.645	0	222.097	0	94.2	4	31.3	4	-1E+10	1	-1E+10	1	-1E+10	1	-1E+10	1	-1E+10	1	-1E+10	1
4902663	19	C	02/09/2024	15:13	-128.014	48.098	0	225.10	0	6.2650	0	33.8880	0	26.643	0	223.087	0	93.3	4	31.0	4	-1E+10	1	-1E+10	1	-1E+10	1	-1E+10	1	-1E+10	1	-1E+10	1
4902663	19	C	02/09/2024	15:13	-128.014	48.098	0	226.10	0	6.2930	0	33.8790	0	26.632	0	224.078	0	92.4	4	30.7	4	-1E+10	1	-1E+10	1	-1E+10	1	-1E+10	1	-1E+10	1	-1E+10	1
4902663	19	C	02/09/2024	15:13	-128.014	48.098	0	227.10	0	6.3000	0	33.9010	0	26.649	0	225.068	0	91.8	4	30.5	4	-1E+10	1	-1E+10	1	-1E+10	1	-1E+10	1	-1E+10	1	-1E+10	1
4902663	19	C	02/09/2024	15:13	-128.014	48.098	0	228.20	0	6.2850	0	33.8990	0	26.649	0	226.158	0	91.2	4	30.3	4	-1E+10	1	-1E+10	1	-1E+10	1	-1E+10	1	-1E+10	1	-1E+10	1
4902663	19	C	02/09/2024	15:13	-128.014	48.098	0	229.20	0	6.2820	0	33.9010	0	26.651	0	227.149	0	90.6	4	30.1	4	-1E+10	1	-1E+10	1	-1E+10	1	-1E+10	1	-1E+10	1	-1E+10	1
4902663	19	C	02/09/2024	15:13	-128.014	48.098	0	230.20	0	6.2890	0	33.9030	0	26.652	0	228.139	0	90.1	4	30.0	4	-1E+10	1	-1E+10	1	-1E+10	1	-1E+10	1	-1E+10	1	-1E+10	1
4902663	19	C	02/09/2024	15:13	-128.014	48.098	0	231.20	0	6.3050	0	33.9070	0	26.653	0	229.130	0	89.8	4	29.9	4	-1E+10	1	-1E+10	1	-1E+10	1	-1E+10	1	-1E+10	1	-1E+10	1
4902663	19	C	02/09/2024	15:13	-128.014	48.098	0	232.20	0	6.3130	0	33.9090	0	26.653	0	230.120	0	89.5	4	29.8	4	-1E+10	1	-1E+10	1	-1E+10	1	-1E+10	1	-1E+10	1	-1E+10	1
4902663	19	C	02/09/2024	15:13	-128.014	48.098	0	233.20	0	6.3180	0	33.9110	0	26.654	0	231.111	0	89.4	4	29.8	4	-1E+10	1	-1E+10	1	-1E+10	1	-1E+10	1	-1E+10	1	-1E+10	1
4902663	19	C	02/09/2024	15:13	-128.014	48.098	0	234.20	0	6.3210	0	33.9150	0	26.657	0	232.101	0	89.4	4	29.8	4	-1E+10	1	-1E+10	1	-1E+10	1	-1E+10	1	-1E+10	1	-1E+10	1
4902663	19	C	02/09/2024	15:13	-128.014	48.098	0	235.30	0	6.3050	0	33.9120	0	26.657	0	233.191	0	89.4	4	29.8	4	-1E+10	1	-1E+10	1	-1E+10	1	-1E+10	1	-1E+10	1	-1E+10	1
4902663	19	C	02/09/2024	15:13	-128.014	48.098	0	236.20	0	6.2930	0	33.9170	0	26.662	0	234.082	0	89.5	4	29.8	4	-1E+10	1	-1E+10	1	-1E+10	1	-1E+10	1	-1E+10	1	-1E+10	1
4902663	19	C	02/09/2024	15:13	-128.014	48.098	0	237.30	0	6.2880	0	33.9140	0	26.661	0	235.171	0	89.6	4	29.8	4	-1E+10	1	-1E+10	1	-1E+10	1	-1E+10	1	-1E+10	1	-1E+10	1
4902663	19	C	02/09/2024	15:13	-128.014	48.098	0	238.30	0	6.2870	0	33.9150	0	26.662	0	236.162	0	89.7	4	29.8	4	-1E+10	1	-1E+10	1	-1E+10	1	-1E+10	1	-1E+10	1	-1E+10	1
4902663	19	C	02/09/2024	15:13	-128.014	48.098	0	239.30	0	6.2870	0	33.9150	0	26.662	0	237.152	0	89.7	4	29.8	4	-1E+10	1	-1E+10	1	-1E+10	1	-1E+10	1	-1E+10	1	-1E+10	1
4902663	19	C	02/09/2024	15:13	-128.014	48.098	0	240.30	0	6.2920	0	33.9140	0	26.660	0	238.143	0	89.8	4	29.9	4	-1E+10	1	-1E+10	1	-1E+10	1	-1E+10	1	-1E+10	1	-1E+10	1
4902663	19	C	02/09/2024	15:13	-128.014	48.098	0	241.30	0	6.2950	0	33.9160	0	26.661	0	239.133	0	90.0	4	29.9	4	-1E+10	1	-1E+10	1	-1E+10	1	-1E+10	1	-1E+10	1	-1E+10	1
4902663	19	C	02/09/2024	15:13	-128.014	48.098	0	242.40	0	6.2850	0	33.9150	0	26.662	0	240.223	0	90.1	4	30.0	4	-1E+10	1	-1E+10	1	-1E+10	1	-1E+10	1	-1E+10	1	-1E+10	1
4902663	19	C	02/09/2024	15:13	-128.014	48.098	0	243.40	0	6.2570	0	33.9140	0	26.665	0	241.213	0	90.2	4	30.0	4	-1E+10	1	-1E+10	1	-1E+10	1	-1E+10	1	-1E+10	1	-1E+10	1
4902663	19	C	02/09/2024	15:13	-128.014	48.098	0	244.40	0	6.1590	0	33.9090	0	26.673	0	242.204	0	90.2	4	29.9	4	-1E+10	1	-1E+10	1	-1E+10	1	-1E+10	1	-1E+10	1	-1E+10	1
4902663	19	C	02/09/2024	15:13	-128.014	48.098	0	245.40	0	6.1140	0	33.9040	0	26.675	0	243.194	0	89.9	4	29.8	4	-1E+10	1	-1E+10	1	-1E+10	1	-1E+10	1	-1E+10	1	-1E+10	1
4902663	19	C	02/09/2024	15:13	-128.014	48.098	0	246.40	0	6.0740	0	33.9090	0	26.684	0	244.184	0	89.4	4	29.6	4	-1E+10	1	-1E+10	1	-1E+10	1	-1E+10	1	-1E+10	1	-1E+10	1
4902663	19	C	02/09/2024	15:13	-128.014	48.098	0	247.40	0	6.0360	0	33.8980	0	26.680	0	245.175	0	88.7	4	29.3	4	-1E+10	1	-1E+10	1	-1E+10	1	-1E+10	1	-1E+10	1	-1E+10	1
4902663	19	C	02/09/2024	15:13	-128.014	48.098	0	248.40	0	6.0540	0	33.8980	0	26.678	0	246.165	0	87.9	4	29.1	4	-1E+10	1	-1E+10	1	-1E+10	1	-1E+10	1	-1E+10	1	-1E+10	1
4902663	19	C	02/09/2024	15:13	-128.014	48.098	0	249.40	0	6.0640	0	33.9050	0	26.682	0	247.156	0	87.1	4	28.8	4	-1E+10	1	-1E+10	1	-1E+10	1	-1E+10	1	-1E+10	1	-1E+10	1
4902663	19	C	02/09/2024	15:13	-128.014	48.098	0	250.80	0	6.1310	0	33.9130	0	26.680	0	248.542	0	86.7	4	28.7	4	-1E+10	1	-1E+10	1	-1E+10	1	-1E+10	1	-1E+10	1	-1E+10	1
4902663	19	C	02/09/2024	15:13	-128.014	48.098	0	251.90	0	6.1570	0	33.9200	0	26.682	0	249.632	0	86.4	4	28.7	4	-1E+10	1	-1E+10	1	-1E+10	1	-1E+10	1	-1E+10	1	-1E+10	1
4902663	19	C	02/09/2024	15:13	-128.014	48.098	0	253.00	0	6.1660	0	33.9210	0	26.682	0	250.721	0	86.4	4	28.6	4	-1E+10	1	-1E+10	1	-1E+10	1	-1E+10	1	-1E+10	1	-1E+10	1
4902663	19	C	02/09/2024	15:13	-128.014	48.098	0	254.10	0	6.1680	0	33.9210	0	26.682	0	251.811	0	86.3	4	28.6	4	-1E+10	1	-1E+10	1	-1E+10	1	-1E+10	1	-1E+10	1	-1E+10	1
4902663	19	C	02/09/2024	15:13	-128.014	48.098	0	254.90	0	6.1600	0	33.9220	0	26.684	0	252.603	0	86.2	4	28.6	4	-1E+10	1	-1E+10	1	-1E+10	1	-1E+10	1	-1E+10	1	-1E+10	1
4902663	19	C	02/09/2024	15:13	-128.014	48.098	0	256.00	0	6.1380	0	33.9240	0	26.688	0	253.692	0	86.1	4	28.5	4	-1E+10	1	-1E+10	1	-1E+10	1	-1E+10	1	-1E+10	1	-1E+10	1
4902663	19	C	02/09/2024	15:13	-128.014	48.098	0	257.10	0	6.1100	0	33.9190	0	26.688	0	254.782	0	85.8	4	28.4	4	-1E+10	1	-1E+10	1	-1E+10	1	-1E+10	1	-1E+10	1	-1E+10	1
4902663	19	C	02/09/2024	15:13	-128.014	48.098	0	257.90	0	6.1060	0	33.9190	0	26.688	0	255.574	0	85.4	4	28.3	4	-1E+10	1	-1E+10	1	-1E+10	1	-1E+10	1	-1E+10	1	-1E+10	1
4902663	19	C	02/09/2024	15:13	-128.014	48.098	0	259.00	0	6.1010	0	33.9230	0	26.692	0	256.663	0	84.9	4	28.1	4	-1E+10	1	-1E+10	1	-1E+10	1	-1E+10	1	-1E+10	1	-1E+10	1
4902663	19	C	02/09/2024	15:13	-128.014	48.098	0	260.20	0	6.0910	0	33.9260	0	26.695	0	257.852	0	84.3	4	27.9	4	-1E+10	1	-1E+10	1	-1E+10	1	-1E+10	1	-1E+10	1	-1E+10	1
4902663	19	C	02/09/2024	15:13	-128.014	48.098	0	261.00	0	6.0850	0	33.9260	0	26.696	0	258.644	0	83.9	4	27.8	4	-1E+10	1	-1E+10	1	-1E+10	1	-1E+10	1	-1E+10	1	-1E+10	1
4902663	19	C	02/09/2024	15:13	-128.014	48.098	0	261.80	0	6.0860	0	33.9270	0	26.697	0	259.436	0	83.6	4	27.7	4	-1E+10	1	-1E+10	1	-1E+10	1	-1E+10	1	-1E+10	1	-1E+10	1
4902663	19	C	02/09/2024	15:13	-128.014	48.098	0	262.90	0	6.0860	0	33.9280	0	26.698	0	260.526	0	83.1	4	27.5	4	-1E+10	1	-1E+10	1	-1E+10	1	-1E+10	1	-1E+10	1	-1E+10	1
4902663	19	C	02/09/2024	15:13	-128.014	48.098	0	264.10	0	6.0880	0	33.9280	0	26.697	0	261.714	0	82.4	4	27.3	4	-1E+10	1	-1E+10	1	-1E+10	1	-1E+10	1	-1E+10	1	-1E+10	1
4902663	19	C	02/09/2024	15:13	-128.014	48.098	0	264.90	0	6.0910	0	33.9260	0	26.696	0	262.506	0	82.0	4	27.1	4	-1E+10	1	-1E+10	1	-1E+10	1	-1E+10	1	-1E+10	1	-1E+10	1
4902663	19	C	02/09/2024	15:13	-128.014	48.098	0	265.70	0	6.0860	0	33.9320	0	26.701	0	263.299	0	81.8	4	27.1	4	-1E+10	1	-1E+10	1	-1E+10	1	-1E+10	1	-1E+10	1	-1E+10	1
4902663	19	C	02/09/2024	15:13	-128.014	48.098	0	266.90	0	6.0770	0	33.9330	0	26.703	0	264.487	0	81.9	4	27.1	4	-1E+10	1	-1E+10	1	-1E+10	1	-1E+10	1	-1E+10	1	-1E+10	1
4902663	19	C	02/09/2024	15:13	-128.014	48.098	0	268.10	0	6.0580	0	33.9350	0	26.707	0	265.675	0	82.0	4	27.1	4	-1E+10	1	-1E+10	1	-1E+10	1	-1E+10	1	-1E+10	1	-1E+10	1
4902663	19	C	02/09/2024	15:13	-128.014	48.098	0	268.90	0	6.0400	0	33.9330	0	26.708	0	266.468	0	82.2	4	27.2	4	-1E+10	1	-1E+10	1	-1E+10	1	-1E+10	1	-1E+10	1	-1E+10	1
4902663	19	C	02/09/2024	15:13	-128.014	48.098	0	270.00	0	6.0070	0	33.9320	0	26.711	0	267.557	0	82.4	4	27.2	4	-1E+10	1	-1E+10	1	-1E+10	1	-1E+10	1	-1E+10	1	-1E+10	1
4902663	19	C	02/09/2024	15:13	-128.014	48.098	0	271.30	0	5.9740	0	33.9270	0	26.711	0	268.844	0	82.3	4	27.2	4	-1E+10	1	-1E+10	1	-1E+10	1	-1E+10	1	-1E+10	1	-1E+10	1
4902663	19	C	02/09/2024	15:13	-128.014	48.098	0	272.10	0	5.9770	0	33.9290	0	26.712	0	269.637	0	82.3	4	27.2	4	-1E+10	1	-1E+10	1	-1E+10	1	-1E+10	1	-1E+10	1	-1E+10	1
4902663	19	C	02/09/2024	15:13	-128.014	48.098	0	272.90	0	5.9460	0	33.9260	0	26.714	0	270.429	0	82.1	4	27.1	4	-1E+10	1	-1E+10	1	-1E+10	1	-1E+10	1	-1E+10	1	-1E+10	1
4902663	19	C	02/09/2024	15:13	-128.014	48.098	0	273.70	0	5.9280	0	33.9250	0	26.715	0	271.221	0	81.7	4	26.9	4	-1E+10	1	-1E+10	1	-1E+10	1	-1E+10	1	-1E+10	1	-1E+10	1
4902663	19	C	02/09/2024	15:13	-128.014	48.098	0	274.90	0	5.9150	0	33.9250	0	26.717	0	272.409	0	80.9	4	26.7	4	-1E+10	1	-1E+10	1	-1E+10	1	-1E+10	1	-1E+10	1	-1E+10	1
4902663	19	C	02/09/2024	15:13	-128.014	48.098	0	276.20	0	5.9210	0	33.9290	0	26.719	0	273.697	0	80.3	4	26.5	4	-1E+10	1	-1E+10	1	-1E+10	1	-1E+10	1	-1E+10	1	-1E+10	1
4902663	19	C	02/09/2024	15:13	-128.014	48.098	0	277.10	0	5.9230	0	33.9300	0	26.720	0	274.588	0	79.9	4	26.3	4	-1E+10	1	-1E+10	1	-1E+10	1	-1E+10	1	-1E+10	1	-1E+10	1
4902663	19	C	02/09/2024	15:13	-128.014	48.098	0	277.90	0	5.9240	0	33.9300	0	26.720	0	275.380	0	79.4	4	26.2	4	-1E+10	1	-1E+10	1	-1E+10	1	-1E+10	1	-1E+10	1	-1E+10	1
4902663	19	C	02/09/2024	15:13	-128.014	48.098	0	278.70	0	5.9240	0	33.9310	0	26.721	0	276.172	0	78.9	4	26.0	4	-1E+10	1	-1E+10	1	-1E+10	1	-1E+10	1	-1E+10	1	-1E+10	1
4902663	19	C	02/09/2024	15:13	-128.014	48.098	0	280.00	0	5.9220	0	33.9320	0	26.722	0	277.460	0	78.0	4	25.7	4	-1E+10	1	-1E+10	1	-1E+10	1	-1E+10	1	-1E+10	1	-1E+10	1
4902663	19	C	02/09/2024	15:13	-128.014	48.098	0	281.30	0	5.9270	0	33.9340	0	26.723	0	278.747	0	77.3	4	25.5	4	-1E+10	1	-1E+10	1	-1E+10	1	-1E+10	1	-1E+10	1	-1E+10	1
4902663	19	C	02/09/2024	15:13	-128.014	48.098	0	282.10	0	5.9270	0	33.9340	0	26.723	0	279.539	0	76.7	4	25.3	4	-1E+10	1	-1E+10	1	-1E+10	1	-1E+10	1	-1E+10	1	-1E+10	1
4902663	19	C	02/09/2024	15:13	-128.014	48.098	0	282.90	0	5.9280	0	33.9350	0	26.723	0	280.332	0	76.2	4	25.1	4	-1E+10	1	-1E+10	1	-1E+10	1	-1E+10	1	-1E+10	1	-1E+10	1
4902663	19	C	02/09/2024	15:13	-128.014	48.098	0	283.80	0	5.9270	0	33.9370	0	26.725	0	281.223	0	75.7	4	25.0	4	-1E+10	1	-1E+10	1	-1E+10	1	-1E+10	1	-1E+10	1	-1E+10	1
4902663	19	C	02/09/2024	15:13	-128.014	48.098	0	284.60	0	5.9190	0	33.9370	0	26.726	0	282.015	0	75.2	4	24.8	4	-1E+10	1	-1E+10	1	-1E+10	1	-1E+10	1	-1E+10	1	-1E+10	1
4902663	19	C	02/09/2024	15:13	-128.014	48.098	0	285.90	0	5.9070	0	33.9410	0	26.731	0	283.302	0	74.5	4	24.6	4	-1E+10	1	-1E+10	1	-1E+10	1	-1E+10	1	-1E+10	1	-1E+10	1
4902663	19	C	02/09/2024	15:13	-128.014	48.098	0	287.20	0	5.8950	0	33.9420	0	26.733	0	284.590	0	73.9	4	24.4	4	-1E+10	1	-1E+10	1	-1E+10	1	-1E+10	1	-1E+10	1	-1E+10	1
4902663	19	C	02/09/2024	15:13	-128.014	48.098	0	288.00	0	5.8910	0	33.9430	0	26.734	0	285.382	0	73.6	4	24.3	4	-1E+10	1	-1E+10	1	-1E+10	1	-1E+10	1	-1E+10	1	-1E+10	1
4902663	19	C	02/09/2024	15:13	-128.014	48.098	0	288.90	0	5.8940	0	33.9450	0	26.735	0	286.273	0	73.3	4	24.2	4	-1E+10	1	-1E+10	1	-1E+10	1	-1E+10	1	-1E+10	1	-1E+10	1
4902663	19	C	02/09/2024	15:13	-128.014	48.098	0	289.80	0	5.8800	0	33.9460	0	26.738	0	287.164	0	73.0	4	24.1	4	-1E+10	1	-1E+10	1	-1E+10	1	-1E+10	1	-1E+10	1	-1E+10	1
4902663	19	C	02/09/2024	15:13	-128.014	48.098	0	290.60	0	5.8750	0	33.9460	0	26.739	0	287.956	0	72.8	4	24.0	4	-1E+10	1	-1E+10	1	-1E+10	1	-1E+10	1	-1E+10	1	-1E+10	1
4902663	19	C	02/09/2024	15:13	-128.014	48.098	0	291.90	0	5.8730	0	33.9480	0	26.740	0	289.244	0	72.4	4	23.9	4	-1E+10	1	-1E+10	1	-1E+10	1	-1E+10	1	-1E+10	1	-1E+10	1
4902663	19	C	02/09/2024	15:13	-128.014	48.098	0	293.20	0	5.8220	0	33.9500	0	26.748	0	290.531	0	72.0	4	23.7	4	-1E+10	1	-1E+10	1	-1E+10	1	-1E+10	1	-1E+10	1	-1E+10	1
4902663	19	C	02/09/2024	15:13	-128.014	48.098	0	294.10	0	5.8030	0	33.9470	0	26.748	0	291.422	0	71.7	4	23.6	4	-1E+10	1	-1E+10	1	-1E+10	1	-1E+10	1	-1E+10	1	-1E+10	1
4902663	19	C	02/09/2024	15:13	-128.014	48.098	0	295.00	0	5.7930	0	33.9480	0	26.750	0	292.313	0	71.4	4	23.5	4	-1E+10	1	-1E+10	1	-1E+10	1	-1E+10	1	-1E+10	1	-1E+10	1
4902663	19	C	02/09/2024	15:13	-128.014	48.098	0	295.80	0	5.7760	0	33.9500	0	26.754	0	293.105	0	71.1	4	23.4	4	-1E+10	1	-1E+10	1	-1E+10	1	-1E+10	1	-1E+10	1	-1E+10	1
4902663	19	C	02/09/2024	15:13	-128.014	48.098	0	296.70	0	5.7570	0	33.9470	0	26.754	0	293.996	0	70.8	4	23.3	4	-1E+10	1	-1E+10	1	-1E+10	1	-1E+10	1	-1E+10	1	-1E+10	1
4902663	19	C	02/09/2024	15:13	-128.014	48.098	0	297.60	0	5.7630	0	33.9520	0	26.757	0	294.888	0	70.6	4	23.2	4	-1E+10	1	-1E+10	1	-1E+10	1	-1E+10	1	-1E+10	1	-1E+10	1
4902663	19	C	02/09/2024	15:13	-128.014	48.098	0	298.90	0	5.7500	0	33.9500	0	26.757	0	296.175	0	70.1	4	23.0	4	-1E+10	1	-1E+10	1	-1E+10	1	-1E+10	1	-1E+10	1	-1E+10	1
4902663	19	C	02/09/2024	15:13	-128.014	48.098	0	300.20	0	5.7390	0	33.9510	0	26.759	0	297.462	0	69.6	4	22.9	4	-1E+10	1	-1E+10	1	-1E+10	1	-1E+10	1	-1E+10	1	-1E+10	1
4902663	19	C	02/09/2024	15:13	-128.014	48.098	0	301.10	0	5.7270	0	33.9540	0	26.763	0	298.353	0	69.2	4	22.7	4	-1E+10	1	-1E+10	1	-1E+10	1	-1E+10	1	-1E+10	1	-1E+10	1
4902663	19	C	02/09/2024	15:13	-128.014	48.098	0	302.00	0	5.6990	0	33.9500	0	26.763	0	299.244	0	68.7	4	22.5	4	-1E+10	1	-1E+10	1	-1E+10	1	-1E+10	1	-1E+10	1	-1E+10	1
4902663	19	C	02/09/2024	15:13	-128.014	48.098	0	302.90	0	5.7040	0	33.9520	0	26.764	0	300.135	0	68.2	4	22.4	4	-1E+10	1	-1E+10	1	-1E+10	1	-1E+10	1	-1E+10	1	-1E+10	1
4902663	19	C	02/09/2024	15:13	-128.014	48.098	0	303.80	0	5.7030	0	33.9530	0	26.765	0	301.027	0	67.8	4	22.3	4	-1E+10	1	-1E+10	1	-1E+10	1	-1E+10	1	-1E+10	1	-1E+10	1
4902663	19	C	02/09/2024	15:13	-128.014	48.098	0	304.70	0	5.6920	0	33.9550	0	26.768	0	301.918	0	67.3	4	22.1	4	-1E+10	1	-1E+10	1	-1E+10	1	-1E+10	1	-1E+10	1	-1E+10	1
4902663	19	C	02/09/2024	15:13	-128.014	48.098	0	305.60	0	5.6810	0	33.9540	0	26.769	0	302.809	0	66.7	4	21.9	4	-1E+10	1	-1E+10	1	-1E+10	1	-1E+10	1	-1E+10	1	-1E+10	1
4902663	19	C	02/09/2024	15:13	-128.014	48.098	0	306.90	0	5.6820	0	33.9570	0	26.771	0	304.096	0	65.7	4	21.6	4	-1E+10	1	-1E+10	1	-1E+10	1	-1E+10	1	-1E+10	1	-1E+10	1
4902663	19	C	02/09/2024	15:13	-128.014	48.098	0	308.30	0	5.6640	0	33.9570	0	26.773	0	305.482	0	64.6	4	21.2	4	-1E+10	1	-1E+10	1	-1E+10	1	-1E+10	1	-1E+10	1	-1E+10	1
4902663	19	C	02/09/2024	15:13	-128.014	48.098	0	309.10	0	5.6660	0	33.9570	0	26.773	0	306.274	0	63.8	4	20.9	4	-1E+10	1	-1E+10	1	-1E+10	1	-1E+10	1	-1E+10	1	-1E+10	1
4902663	19	C	02/09/2024	15:13	-128.014	48.098	0	310.00	0	5.6660	0	33.9590	0	26.775	0	307.165	0	62.9	4	20.6	4	-1E+10	1	-1E+10	1	-1E+10	1	-1E+10	1	-1E+10	1	-1E+10	1
4902663	19	C	02/09/2024	15:13	-128.014	48.098	0	310.90	0	5.7050	0	33.9660	0	26.775	0	308.057	0	62.3	4	20.4	4	-1E+10	1	-1E+10	1	-1E+10	1	-1E+10	1	-1E+10	1	-1E+10	1
4902663	19	C	02/09/2024	15:13	-128.014	48.098	0	311.90	0	5.7130	0	33.9720	0	26.779	0	309.047	0	61.8	4	20.3	4	-1E+10	1	-1E+10	1	-1E+10	1	-1E+10	1	-1E+10	1	-1E+10	1
4902663	19	C	02/09/2024	15:13	-128.014	48.098	0	312.80	0	5.7110	0	33.9730	0	26.780	0	309.938	0	61.4	4	20.2	4	-1E+10	1	-1E+10	1	-1E+10	1	-1E+10	1	-1E+10	1	-1E+10	1
4902663	19	C	02/09/2024	15:13	-128.014	48.098	0	313.70	0	5.7090	0	33.9730	0	26.781	0	310.829	0	61.0	4	20.0	4	-1E+10	1	-1E+10	1	-1E+10	1	-1E+10	1	-1E+10	1	-1E+10	1
4902663	19	C	02/09/2024	15:13	-128.014	48.098	0	314.60	0	5.7130	0	33.9750	0	26.782	0	311.720	0	60.6	4	19.9	4	-1E+10	1	-1E+10	1	-1E+10	1	-1E+10	1	-1E+10	1	-1E+10	1
4902663	19	C	02/09/2024	15:13	-128.014	48.098	0	315.90	0	5.7290	0	33.9780	0	26.782	0	313.007	0	60.1	4	19.7	4	-1E+10	1	-1E+10	1	-1E+10	1	-1E+10	1	-1E+10	1	-1E+10	1
4902663	19	C	02/09/2024	15:13	-128.014	48.098	0	317.30	0	5.7350	0	33.9880	0	26.789	0	314.393	0	59.9	4	19.7	4	-1E+10	1	-1E+10	1	-1E+10	1	-1E+10	1	-1E+10	1	-1E+10	1
4902663	19	C	02/09/2024	15:13	-128.014	48.098	0	318.30	0	5.7270	0	33.9860	0	26.789	0	315.383	0	59.9	4	19.7	4	-1E+10	1	-1E+10	1	-1E+10	1	-1E+10	1	-1E+10	1	-1E+10	1
4902663	19	C	02/09/2024	15:13	-128.014	48.098	0	319.20	0	5.7230	0	33.9860	0	26.789	0	316.274	0	59.9	4	19.7	4	-1E+10	1	-1E+10	1	-1E+10	1	-1E+10	1	-1E+10	1	-1E+10	1
4902663	19	C	02/09/2024	15:13	-128.014	48.098	0	320.10	0	5.7150	0	33.9870	0	26.791	0	317.165	0	60.0	4	19.7	4	-1E+10	1	-1E+10	1	-1E+10	1	-1E+10	1	-1E+10	1	-1E+10	1
4902663	19	C	02/09/2024	15:13	-128.014	48.098	0	321.00	0	5.7050	0	33.9850	0	26.791	0	318.056	0	60.1	4	19.7	4	-1E+10	1	-1E+10	1	-1E+10	1	-1E+10	1	-1E+10	1	-1E+10	1
4902663	19	C	02/09/2024	15:13	-128.014	48.098	0	322.00	0	5.6880	0	33.9910	0	26.797	0	319.046	0	60.2	4	19.7	4	-1E+10	1	-1E+10	1	-1E+10	1	-1E+10	1	-1E+10	1	-1E+10	1
4902663	19	C	02/09/2024	15:13	-128.014	48.098	0	322.90	0	5.6790	0	33.9820	0	26.791	0	319.938	0	60.2	4	19.8	4	-1E+10	1	-1E+10	1	-1E+10	1	-1E+10	1	-1E+10	1	-1E+10	1
4902663	19	C	02/09/2024	15:13	-128.014	48.098	0	323.80	0	5.6690	0	33.9850	0	26.795	0	320.829	0	60.2	4	19.8	4	-1E+10	1	-1E+10	1	-1E+10	1	-1E+10	1	-1E+10	1	-1E+10	1
4902663	19	C	02/09/2024	15:13	-128.014	48.098	0	324.80	0	5.6320	0	33.9850	0	26.799	0	321.819	0	60.1	4	19.7	4	-1E+10	1	-1E+10	1	-1E+10	1	-1E+10	1	-1E+10	1	-1E+10	1
4902663	19	C	02/09/2024	15:13	-128.014	48.098	0	325.70	0	5.6100	0	33.9780	0	26.797	0	322.710	0	59.8	4	19.6	4	-1E+10	1	-1E+10	1	-1E+10	1	-1E+10	1	-1E+10	1	-1E+10	1
4902663	19	C	02/09/2024	15:13	-128.014	48.098	0	326.60	0	5.6080	0	33.9790	0	26.798	0	323.601	0	59.5	4	19.5	4	-1E+10	1	-1E+10	1	-1E+10	1	-1E+10	1	-1E+10	1	-1E+10	1
4902663	19	C	02/09/2024	15:13	-128.014	48.098	0	327.50	0	5.6110	0	33.9810	0	26.799	0	324.492	0	59.2	4	19.4	4	-1E+10	1	-1E+10	1	-1E+10	1	-1E+10	1	-1E+10	1	-1E+10	1
4902663	19	C	02/09/2024	15:13	-128.014	48.098	0	328.90	0	5.6070	0	33.9820	0	26.800	0	325.878	0	58.8	4	19.3	4	-1E+10	1	-1E+10	1	-1E+10	1	-1E+10	1	-1E+10	1	-1E+10	1
4902663	19	C	02/09/2024	15:13	-128.014	48.098	0	330.40	0	5.6000	0	33.9830	0	26.802	0	327.363	0	58.4	4	19.1	4	-1E+10	1	-1E+10	1	-1E+10	1	-1E+10	1	-1E+10	1	-1E+10	1
4902663	19	C	02/09/2024	15:13	-128.014	48.098	0	331.30	0	5.6000	0	33.9830	0	26.802	0	328.254	0	58.2	4	19.1	4	-1E+10	1	-1E+10	1	-1E+10	1	-1E+10	1	-1E+10	1	-1E+10	1
4902663	19	C	02/09/2024	15:13	-128.014	48.098	0	332.30	0	5.6030	0	33.9830	0	26.801	0	329.244	0	58.0	4	19.0	4	-1E+10	1	-1E+10	1	-1E+10	1	-1E+10	1	-1E+10	1	-1E+10	1
4902663	19	C	02/09/2024	15:13	-128.014	48.098	0	333.30	0	5.5740	0	33.9830	0	26.805	0	330.234	0	57.6	4	18.9	4	-1E+10	1	-1E+10	1	-1E+10	1	-1E+10	1	-1E+10	1	-1E+10	1
4902663	19	C	02/09/2024	15:13	-128.014	48.098	0	334.20	0	5.5680	0	33.9820	0	26.805	0	331.125	0	57.2	4	18.7	4	-1E+10	1	-1E+10	1	-1E+10	1	-1E+10	1	-1E+10	1	-1E+10	1
4902663	19	C	02/09/2024	15:13	-128.014	48.098	0	335.20	0	5.5450	0	33.9840	0	26.809	0	332.115	0	56.9	4	18.6	4	-1E+10	1	-1E+10	1	-1E+10	1	-1E+10	1	-1E+10	1	-1E+10	1
4902663	19	C	02/09/2024	15:13	-128.014	48.098	0	336.20	0	5.5480	0	33.9880	0	26.812	0	333.105	0	56.7	4	18.5	4	-1E+10	1	-1E+10	1	-1E+10	1	-1E+10	1	-1E+10	1	-1E+10	1
4902663	19	C	02/09/2024	15:13	-128.014	48.098	0	337.10	0	5.5460	0	33.9880	0	26.812	0	333.996	0	56.5	4	18.5	4	-1E+10	1	-1E+10	1	-1E+10	1	-1E+10	1	-1E+10	1	-1E+10	1
4902663	19	C	02/09/2024	15:13	-128.014	48.098	0	338.10	0	5.5400	0	33.9900	0	26.815	0	334.986	0	56.4	4	18.4	4	-1E+10	1	-1E+10	1	-1E+10	1	-1E+10	1	-1E+10	1	-1E+10	1
4902663	19	C	02/09/2024	15:13	-128.014	48.098	0	339.10	0	5.5410	0	33.9880	0	26.813	0	335.976	0	56.3	4	18.4	4	-1E+10	1	-1E+10	1	-1E+10	1	-1E+10	1	-1E+10	1	-1E+10	1
4902663	19	C	02/09/2024	15:13	-128.014	48.098	0	340.10	0	5.5370	0	33.9880	0	26.813	0	336.966	0	56.2	4	18.4	4	-1E+10	1	-1E+10	1	-1E+10	1	-1E+10	1	-1E+10	1	-1E+10	1
4902663	19	C	02/09/2024	15:13	-128.014	48.098	0	341.10	0	5.5390	0	33.9890	0	26.814	0	337.956	0	56.1	4	18.3	4	-1E+10	1	-1E+10	1	-1E+10	1	-1E+10	1	-1E+10	1	-1E+10	1
4902663	19	C	02/09/2024	15:13	-128.014	48.098	0	342.10	0	5.5400	0	33.9890	0	26.814	0	338.946	0	56.0	4	18.3	4	-1E+10	1	-1E+10	1	-1E+10	1	-1E+10	1	-1E+10	1	-1E+10	1
4902663	19	C	02/09/2024	15:13	-128.014	48.098	0	343.10	0	5.5490	0	33.9910	0	26.814	0	339.936	0	55.9	4	18.3	4	-1E+10	1	-1E+10	1	-1E+10	1	-1E+10	1	-1E+10	1	-1E+10	1
4902663	19	C	02/09/2024	15:13	-128.014	48.098	0	344.00	0	5.5420	0	33.9930	0	26.817	0	340.827	0	55.8	4	18.3	4	-1E+10	1	-1E+10	1	-1E+10	1	-1E+10	1	-1E+10	1	-1E+10	1
4902663	19	C	02/09/2024	15:13	-128.014	48.098	0	345.00	0	5.5300	0	33.9910	0	26.817	0	341.817	0	55.7	4	18.2	4	-1E+10	1	-1E+10	1	-1E+10	1	-1E+10	1	-1E+10	1	-1E+10	1
4902663	19	C	02/09/2024	15:13	-128.014	48.098	0	346.00	0	5.5000	0	33.9910	0	26.820	0	342.806	0	55.5	4	18.1	4	-1E+10	1	-1E+10	1	-1E+10	1	-1E+10	1	-1E+10	1	-1E+10	1
4902663	19	C	02/09/2024	15:13	-128.014	48.098	0	347.00	0	5.5080	0	33.9950	0	26.823	0	343.796	0	55.4	4	18.1	4	-1E+10	1	-1E+10	1	-1E+10	1	-1E+10	1	-1E+10	1	-1E+10	1
4902663	19	C	02/09/2024	15:13	-128.014	48.098	0	348.00	0	5.4970	0	33.9920	0	26.821	0	344.786	0	55.2	4	18.0	4	-1E+10	1	-1E+10	1	-1E+10	1	-1E+10	1	-1E+10	1	-1E+10	1
4902663	19	C	02/09/2024	15:13	-128.014	48.098	0	349.00	0	5.4850	0	33.9930	0	26.824	0	345.776	0	55.0	4	18.0	4	-1E+10	1	-1E+10	1	-1E+10	1	-1E+10	1	-1E+10	1	-1E+10	1
4902663	19	C	02/09/2024	15:13	-128.014	48.098	0	350.00	0	5.4600	0	33.9910	0	26.825	0	346.766	0	54.8	4	17.9	4	-1E+10	1	-1E+10	1	-1E+10	1	-1E+10	1	-1E+10	1	-1E+10	1
4902663	19	C	02/09/2024	15:13	-128.014	48.098	0	353.00	0	5.4240	0	33.9910	0	26.829	0	349.736	0	53.5	4	17.4	4	-1E+10	1	-1E+10	1	-1E+10	1	-1E+10	1	-1E+10	1	-1E+10	1
4902663	19	C	02/09/2024	15:13	-128.014	48.098	0	358.00	0	5.4420	0	34.0000	0	26.834	0	354.685	0	51.4	4	16.8	4	-1E+10	1	-1E+10	1	-1E+10	1	-1E+10	1	-1E+10	1	-1E+10	1
4902663	19	C	02/09/2024	15:13	-128.014	48.098	0	363.00	0	5.4310	0	34.0050	0	26.840	0	359.635	0	50.6	4	16.5	4	-1E+10	1	-1E+10	1	-1E+10	1	-1E+10	1	-1E+10	1	-1E+10	1
4902663	19	C	02/09/2024	15:13	-128.014	48.098	0	368.00	0	5.4020	0	34.0050	0	26.843	0	364.584	0	49.8	4	16.2	4	-1E+10	1	-1E+10	1	-1E+10	1	-1E+10	1	-1E+10	1	-1E+10	1
4902663	19	C	02/09/2024	15:13	-128.014	48.098	0	373.00	0	5.3900	0	34.0070	0	26.846	0	369.533	0	48.9	4	15.9	4	-1E+10	1	-1E+10	1	-1E+10	1	-1E+10	1	-1E+10	1	-1E+10	1
4902663	19	C	02/09/2024	15:13	-128.014	48.098	0	377.90	0	5.3920	0	34.0120	0	26.850	0	374.383	0	47.8	4	15.6	4	-1E+10	1	-1E+10	1	-1E+10	1	-1E+10	1	-1E+10	1	-1E+10	1
4902663	19	C	02/09/2024	15:13	-128.014	48.098	0	382.80	0	5.3590	0	34.0160	0	26.857	0	379.233	0	46.4	4	15.1	4	-1E+10	1	-1E+10	1	-1E+10	1	-1E+10	1	-1E+10	1	-1E+10	1
4902663	19	C	02/09/2024	15:13	-128.014	48.098	0	387.70	0	5.3400	0	34.0220	0	26.864	0	384.083	0	45.0	4	14.7	4	-1E+10	1	-1E+10	1	-1E+10	1	-1E+10	1	-1E+10	1	-1E+10	1
4902663	19	C	02/09/2024	15:13	-128.014	48.098	0	392.90	0	5.3450	0	34.0260	0	26.867	0	389.230	0	44.0	4	14.3	4	-1E+10	1	-1E+10	1	-1E+10	1	-1E+10	1	-1E+10	1	-1E+10	1
4902663	19	C	02/09/2024	15:13	-128.014	48.098	0	398.30	0	5.3000	0	34.0290	0	26.875	0	394.574	0	42.9	4	14.0	4	-1E+10	1	-1E+10	1	-1E+10	1	-1E+10	1	-1E+10	1	-1E+10	1
4902663	19	C	02/09/2024	15:13	-128.014	48.098	0	403.20	0	5.2910	0	34.0330	0	26.879	0	399.423	0	41.7	4	13.6	4	-1E+10	1	-1E+10	1	-1E+10	1	-1E+10	1	-1E+10	1	-1E+10	1
4902663	19	C	02/09/2024	15:13	-128.014	48.098	0	407.90	0	5.2670	0	34.0360	0	26.884	0	404.075	0	40.4	4	13.1	4	-1E+10	1	-1E+10	1	-1E+10	1	-1E+10	1	-1E+10	1	-1E+10	1
4902663	19	C	02/09/2024	15:13	-128.014	48.098	0	412.70	0	5.2490	0	34.0420	0	26.891	0	408.825	0	39.2	4	12.7	4	-1E+10	1	-1E+10	1	-1E+10	1	-1E+10	1	-1E+10	1	-1E+10	1
4902663	19	C	02/09/2024	15:13	-128.014	48.098	0	417.70	0	5.2300	0	34.0470	0	26.897	0	413.773	0	38.2	4	12.4	4	-1E+10	1	-1E+10	1	-1E+10	1	-1E+10	1	-1E+10	1	-1E+10	1
4902663	19	C	02/09/2024	15:13	-128.014	48.098	0	422.80	0	5.2120	0	34.0500	0	26.902	0	418.820	0	37.2	4	12.1	4	-1E+10	1	-1E+10	1	-1E+10	1	-1E+10	1	-1E+10	1	-1E+10	1
4902663	19	C	02/09/2024	15:13	-128.014	48.098	0	427.80	0	5.1910	0	34.0540	0	26.907	0	423.768	0	36.2	4	11.7	4	-1E+10	1	-1E+10	1	-1E+10	1	-1E+10	1	-1E+10	1	-1E+10	1
4902663	19	C	02/09/2024	15:13	-128.014	48.098	0	432.80	0	5.1650	0	34.0590	0	26.914	0	428.716	0	35.4	4	11.5	4	-1E+10	1	-1E+10	1	-1E+10	1	-1E+10	1	-1E+10	1	-1E+10	1
4902663	19	C	02/09/2024	15:13	-128.014	48.098	0	437.90	0	5.1460	0	34.0620	0	26.919	0	433.762	0	34.6	4	11.2	4	-1E+10	1	-1E+10	1	-1E+10	1	-1E+10	1	-1E+10	1	-1E+10	1
4902663	19	C	02/09/2024	15:13	-128.014	48.098	0	442.90	0	5.1190	0	34.0650	0	26.924	0	438.710	0	33.7	4	10.9	4	-1E+10	1	-1E+10	1	-1E+10	1	-1E+10	1	-1E+10	1	-1E+10	1
4902663	19	C	02/09/2024	15:13	-128.014	48.098	0	447.80	0	5.0970	0	34.0690	0	26.930	0	443.558	0	32.9	4	10.6	4	-1E+10	1	-1E+10	1	-1E+10	1	-1E+10	1	-1E+10	1	-1E+10	1
4902663	19	C	02/09/2024	15:13	-128.014	48.098	0	452.80	0	5.0760	0	34.0710	0	26.934	0	448.505	0	32.0	4	10.4	4	-1E+10	1	-1E+10	1	-1E+10	1	-1E+10	1	-1E+10	1	-1E+10	1
4902663	19	C	02/09/2024	15:13	-128.014	48.098	0	457.80	0	5.0590	0	34.0750	0	26.939	0	453.452	0	31.0	4	10.0	4	-1E+10	1	-1E+10	1	-1E+10	1	-1E+10	1	-1E+10	1	-1E+10	1
4902663	19	C	02/09/2024	15:13	-128.014	48.098	0	462.70	0	5.0370	0	34.0780	0	26.944	0	458.300	0	29.9	4	9.7	4	-1E+10	1	-1E+10	1	-1E+10	1	-1E+10	1	-1E+10	1	-1E+10	1
4902663	19	C	02/09/2024	15:13	-128.014	48.098	0	467.70	0	4.9830	0	34.0820	0	26.954	0	463.247	0	28.7	4	9.3	4	-1E+10	1	-1E+10	1	-1E+10	1	-1E+10	1	-1E+10	1	-1E+10	1
4902663	19	C	02/09/2024	15:13	-128.014	48.098	0	472.70	0	4.9680	0	34.0900	0	26.962	0	468.194	0	27.3	4	8.8	4	-1E+10	1	-1E+10	1	-1E+10	1	-1E+10	1	-1E+10	1	-1E+10	1
4902663	19	C	02/09/2024	15:13	-128.014	48.098	0	477.80	0	4.9570	0	34.0980	0	26.969	0	473.240	0	26.3	4	8.5	4	-1E+10	1	-1E+10	1	-1E+10	1	-1E+10	1	-1E+10	1	-1E+10	1
4902663	19	C	02/09/2024	15:13	-128.014	48.098	0	483.00	0	4.9400	0	34.1010	0	26.974	0	478.384	0	25.5	4	8.2	4	-1E+10	1	-1E+10	1	-1E+10	1	-1E+10	1	-1E+10	1	-1E+10	1
4902663	19	C	02/09/2024	15:13	-128.014	48.098	0	487.80	0	4.9280	0	34.1040	0	26.978	0	483.133	0	24.7	4	8.0	4	-1E+10	1	-1E+10	1	-1E+10	1	-1E+10	1	-1E+10	1	-1E+10	1
4902663	19	C	02/09/2024	15:13	-128.014	48.098	0	492.80	0	4.9050	0	34.1090	0	26.984	0	488.079	0	23.8	4	7.7	4	-1E+10	1	-1E+10	1	-1E+10	1	-1E+10	1	-1E+10	1	-1E+10	1
4902663	19	C	02/09/2024	15:13	-128.014	48.098	0	497.80	0	4.8730	0	34.1130	0	26.991	0	493.025	0	22.9	4	7.4	4	-1E+10	1	-1E+10	1	-1E+10	1	-1E+10	1	-1E+10	1	-1E+10	1
4902663	19	C	02/09/2024	15:13	-128.014	48.098	0	503.10	0	4.8530	0	34.1180	0	26.997	0	498.268	0	21.9	4	7.0	4	-1E+10	1	-1E+10	1	-1E+10	1	-1E+10	1	-1E+10	1	-1E+10	1
4902663	19	C	02/09/2024	15:13	-128.014	48.098	0	508.00	0	4.8270	0	34.1250	0	27.006	0	503.115	0	20.9	4	6.7	4	-1E+10	1	-1E+10	1	-1E+10	1	-1E+10	1	-1E+10	1	-1E+10	1
4902663	19	C	02/09/2024	15:13	-128.014	48.098	0	512.80	0	4.7940	0	34.1310	0	27.014	0	507.863	0	20.3	4	6.5	4	-1E+10	1	-1E+10	1	-1E+10	1	-1E+10	1	-1E+10	1	-1E+10	1
4902663	19	C	02/09/2024	15:13	-128.014	48.098	0	517.70	0	4.7760	0	34.1340	0	27.019	0	512.710	0	20.0	4	6.4	4	-1E+10	1	-1E+10	1	-1E+10	1	-1E+10	1	-1E+10	1	-1E+10	1
4902663	19	C	02/09/2024	15:13	-128.014	48.098	0	522.90	0	4.7360	0	34.1350	0	27.024	0	517.853	0	19.8	4	6.4	4	-1E+10	1	-1E+10	1	-1E+10	1	-1E+10	1	-1E+10	1	-1E+10	1
4902663	19	C	02/09/2024	15:13	-128.014	48.098	0	527.80	0	4.7110	0	34.1360	0	27.027	0	522.700	0	19.4	4	6.2	4	-1E+10	1	-1E+10	1	-1E+10	1	-1E+10	1	-1E+10	1	-1E+10	1
4902663	19	C	02/09/2024	15:13	-128.014	48.098	0	532.80	0	4.7020	0	34.1390	0	27.031	0	527.645	0	19.0	4	6.1	4	-1E+10	1	-1E+10	1	-1E+10	1	-1E+10	1	-1E+10	1	-1E+10	1
4902663	19	C	02/09/2024	15:13	-128.014	48.098	0	537.90	0	4.6770	0	34.1420	0	27.036	0	532.689	0	18.5	4	5.9	4	-1E+10	1	-1E+10	1	-1E+10	1	-1E+10	1	-1E+10	1	-1E+10	1
4902663	19	C	02/09/2024	15:13	-128.014	48.098	0	542.60	0	4.6520	0	34.1430	0	27.040	0	537.337	0	18.1	4	5.8	4	-1E+10	1	-1E+10	1	-1E+10	1	-1E+10	1	-1E+10	1	-1E+10	1
4902663	19	C	02/09/2024	15:13	-128.014	48.098	0	547.80	0	4.6470	0	34.1470	0	27.043	0	542.480	0	17.5	4	5.6	4	-1E+10	1	-1E+10	1	-1E+10	1	-1E+10	1	-1E+10	1	-1E+10	1
4902663	19	C	02/09/2024	15:13	-128.014	48.098	0	553.00	0	4.6420	0	34.1550	0	27.050	0	547.623	0	16.9	4	5.4	4	-1E+10	1	-1E+10	1	-1E+10	1	-1E+10	1	-1E+10	1	-1E+10	1
4902663	19	C	02/09/2024	15:13	-128.014	48.098	0	557.70	0	4.6160	0	34.1580	0	27.056	0	552.271	0	16.5	4	5.3	4	-1E+10	1	-1E+10	1	-1E+10	1	-1E+10	1	-1E+10	1	-1E+10	1
4902663	19	C	02/09/2024	15:13	-128.014	48.098	0	562.60	0	4.5960	0	34.1620	0	27.061	0	557.117	0	16.2	4	5.2	4	-1E+10	1	-1E+10	1	-1E+10	1	-1E+10	1	-1E+10	1	-1E+10	1
4902663	19	C	02/09/2024	15:13	-128.014	48.098	0	567.90	0	4.5900	0	34.1650	0	27.064	0	562.358	0	15.9	4	5.1	4	-1E+10	1	-1E+10	1	-1E+10	1	-1E+10	1	-1E+10	1	-1E+10	1
4902663	19	C	02/09/2024	15:13	-128.014	48.098	0	573.30	0	4.5890	0	34.1670	0	27.066	0	567.698	0	15.7	4	5.0	4	-1E+10	1	-1E+10	1	-1E+10	1	-1E+10	1	-1E+10	1	-1E+10	1
4902663	19	C	02/09/2024	15:13	-128.014	48.098	0	578.20	0	4.5840	0	34.1670	0	27.066	0	572.543	0	15.3	4	4.9	4	-1E+10	1	-1E+10	1	-1E+10	1	-1E+10	1	-1E+10	1	-1E+10	1
4902663	19	C	02/09/2024	15:13	-128.014	48.098	0	583.00	0	4.5700	0	34.1720	0	27.072	0	577.290	0	15.0	4	4.8	4	-1E+10	1	-1E+10	1	-1E+10	1	-1E+10	1	-1E+10	1	-1E+10	1
4902663	19	C	02/09/2024	15:13	-128.014	48.098	0	587.70	0	4.5630	0	34.1750	0	27.075	0	581.937	0	14.7	4	4.7	4	-1E+10	1	-1E+10	1	-1E+10	1	-1E+10	1	-1E+10	1	-1E+10	1
4902663	19	C	02/09/2024	15:13	-128.014	48.098	0	593.00	0	4.5440	0	34.1780	0	27.080	0	587.178	0	14.4	4	4.6	4	-1E+10	1	-1E+10	1	-1E+10	1	-1E+10	1	-1E+10	1	-1E+10	1
4902663	19	C	02/09/2024	15:13	-128.014	48.098	0	598.20	0	4.5310	0	34.1790	0	27.082	0	592.319	0	14.2	4	4.5	4	-1E+10	1	-1E+10	1	-1E+10	1	-1E+10	1	-1E+10	1	-1E+10	1
4902663	19	C	02/09/2024	15:13	-128.014	48.098	0	602.90	0	4.5150	0	34.1800	0	27.084	0	596.966	0	13.8	4	4.4	4	-1E+10	1	-1E+10	1	-1E+10	1	-1E+10	1	-1E+10	1	-1E+10	1
4902663	19	C	02/09/2024	15:13	-128.014	48.098	0	607.60	0	4.4910	0	34.1840	0	27.090	0	601.613	0	13.5	4	4.3	4	-1E+10	1	-1E+10	1	-1E+10	1	-1E+10	1	-1E+10	1	-1E+10	1
4902663	19	C	02/09/2024	15:13	-128.014	48.098	0	612.80	0	4.4790	0	34.1880	0	27.095	0	606.754	0	13.1	4	4.2	4	-1E+10	1	-1E+10	1	-1E+10	1	-1E+10	1	-1E+10	1	-1E+10	1
4902663	19	C	02/09/2024	15:13	-128.014	48.098	0	617.80	0	4.4640	0	34.1930	0	27.100	0	611.698	0	12.8	4	4.1	4	-1E+10	1	-1E+10	1	-1E+10	1	-1E+10	1	-1E+10	1	-1E+10	1
4902663	19	C	02/09/2024	15:13	-128.014	48.098	0	622.90	0	4.4590	0	34.1960	0	27.103	0	616.740	0	12.6	4	4.0	4	-1E+10	1	-1E+10	1	-1E+10	1	-1E+10	1	-1E+10	1	-1E+10	1
4902663	19	C	02/09/2024	15:13	-128.014	48.098	0	627.90	0	4.4490	0	34.1970	0	27.105	0	621.683	0	12.5	4	4.0	4	-1E+10	1	-1E+10	1	-1E+10	1	-1E+10	1	-1E+10	1	-1E+10	1
4902663	19	C	02/09/2024	15:13	-128.014	48.098	0	632.80	0	4.4360	0	34.1990	0	27.108	0	626.527	0	12.3	4	3.9	4	-1E+10	1	-1E+10	1	-1E+10	1	-1E+10	1	-1E+10	1	-1E+10	1
4902663	19	C	02/09/2024	15:13	-128.014	48.098	0	637.80	0	4.4170	0	34.2020	0	27.113	0	631.470	0	12.1	4	3.9	4	-1E+10	1	-1E+10	1	-1E+10	1	-1E+10	1	-1E+10	1	-1E+10	1
4902663	19	C	02/09/2024	15:13	-128.014	48.098	0	642.90	0	4.4010	0	34.2030	0	27.115	0	636.511	0	11.9	4	3.8	4	-1E+10	1	-1E+10	1	-1E+10	1	-1E+10	1	-1E+10	1	-1E+10	1
4902663	19	C	02/09/2024	15:13	-128.014	48.098	0	647.90	0	4.3860	0	34.2060	0	27.119	0	641.454	0	11.6	4	3.7	4	-1E+10	1	-1E+10	1	-1E+10	1	-1E+10	1	-1E+10	1	-1E+10	1
4902663	19	C	02/09/2024	15:13	-128.014	48.098	0	652.80	0	4.3770	0	34.2120	0	27.125	0	646.298	0	11.4	4	3.6	4	-1E+10	1	-1E+10	1	-1E+10	1	-1E+10	1	-1E+10	1	-1E+10	1
4902663	19	C	02/09/2024	15:13	-128.014	48.098	0	657.90	0	4.3560	0	34.2150	0	27.130	0	651.339	0	11.3	4	3.6	4	-1E+10	1	-1E+10	1	-1E+10	1	-1E+10	1	-1E+10	1	-1E+10	1
4902663	19	C	02/09/2024	15:13	-128.014	48.098	0	662.90	0	4.3200	0	34.2160	0	27.134	0	656.281	0	11.5	4	3.7	4	-1E+10	1	-1E+10	1	-1E+10	1	-1E+10	1	-1E+10	1	-1E+10	1
4902663	19	C	02/09/2024	15:13	-128.014	48.098	0	667.90	0	4.2560	0	34.2130	0	27.139	0	661.223	0	11.5	4	3.7	4	-1E+10	1	-1E+10	1	-1E+10	1	-1E+10	1	-1E+10	1	-1E+10	1
4902663	19	C	02/09/2024	15:13	-128.014	48.098	0	673.00	0	4.2270	0	34.2130	0	27.142	0	666.264	0	11.3	4	3.6	4	-1E+10	1	-1E+10	1	-1E+10	1	-1E+10	1	-1E+10	1	-1E+10	1
4902663	19	C	02/09/2024	15:13	-128.014	48.098	0	678.00	0	4.2280	0	34.2190	0	27.147	0	671.206	0	11.0	4	3.5	4	-1E+10	1	-1E+10	1	-1E+10	1	-1E+10	1	-1E+10	1	-1E+10	1
4902663	19	C	02/09/2024	15:13	-128.014	48.098	0	682.60	0	4.2140	0	34.2230	0	27.151	0	675.753	0	10.8	4	3.4	4	-1E+10	1	-1E+10	1	-1E+10	1	-1E+10	1	-1E+10	1	-1E+10	1
4902663	19	C	02/09/2024	15:13	-128.014	48.098	0	687.80	0	4.2130	0	34.2250	0	27.153	0	680.892	0	10.6	4	3.4	4	-1E+10	1	-1E+10	1	-1E+10	1	-1E+10	1	-1E+10	1	-1E+10	1
4902663	19	C	02/09/2024	15:13	-128.014	48.098	0	693.10	0	4.2190	0	34.2270	0	27.154	0	686.130	0	10.4	4	3.3	4	-1E+10	1	-1E+10	1	-1E+10	1	-1E+10	1	-1E+10	1	-1E+10	1
4902663	19	C	02/09/2024	15:13	-128.014	48.098	0	697.90	0	4.1950	0	34.2300	0	27.159	0	690.874	0	10.4	4	3.3	4	-1E+10	1	-1E+10	1	-1E+10	1	-1E+10	1	-1E+10	1	-1E+10	1
4902663	19	C	02/09/2024	15:13	-128.014	48.098	0	702.80	0	4.1830	0	34.2320	0	27.162	0	695.716	0	10.3	4	3.3	4	-1E+10	1	-1E+10	1	-1E+10	1	-1E+10	1	-1E+10	1	-1E+10	1
4902663	19	C	02/09/2024	15:13	-128.014	48.098	0	707.60	0	4.1710	0	34.2350	0	27.165	0	700.460	0	10.1	4	3.2	4	-1E+10	1	-1E+10	1	-1E+10	1	-1E+10	1	-1E+10	1	-1E+10	1
4902663	19	C	02/09/2024	15:13	-128.014	48.098	0	712.90	0	4.1590	0	34.2360	0	27.168	0	705.697	0	10.0	4	3.2	4	-1E+10	1	-1E+10	1	-1E+10	1	-1E+10	1	-1E+10	1	-1E+10	1
4902663	19	C	02/09/2024	15:13	-128.014	48.098	0	718.30	0	4.1470	0	34.2410	0	27.173	0	711.034	0	9.8	4	3.1	4	-1E+10	1	-1E+10	1	-1E+10	1	-1E+10	1	-1E+10	1	-1E+10	1
4902663	19	C	02/09/2024	15:13	-128.014	48.098	0	723.10	0	4.1150	0	34.2450	0	27.179	0	715.777	0	9.7	4	3.1	4	-1E+10	1	-1E+10	1	-1E+10	1	-1E+10	1	-1E+10	1	-1E+10	1
4902663	19	C	02/09/2024	15:13	-128.014	48.098	0	727.90	0	4.0920	0	34.2450	0	27.182	0	720.520	0	9.6	4	3.0	4	-1E+10	1	-1E+10	1	-1E+10	1	-1E+10	1	-1E+10	1	-1E+10	1
4902663	19	C	02/09/2024	15:13	-128.014	48.098	0	732.80	0	4.0880	0	34.2480	0	27.185	0	725.362	0	9.4	4	3.0	4	-1E+10	1	-1E+10	1	-1E+10	1	-1E+10	1	-1E+10	1	-1E+10	1
4902663	19	C	02/09/2024	15:13	-128.014	48.098	0	737.70	0	4.0690	0	34.2510	0	27.189	0	730.203	0	9.3	4	2.9	4	-1E+10	1	-1E+10	1	-1E+10	1	-1E+10	1	-1E+10	1	-1E+10	1
4902663	19	C	02/09/2024	15:13	-128.014	48.098	0	742.60	0	4.0470	0	34.2540	0	27.194	0	735.045	0	9.2	4	2.9	4	-1E+10	1	-1E+10	1	-1E+10	1	-1E+10	1	-1E+10	1	-1E+10	1
4902663	19	C	02/09/2024	15:13	-128.014	48.098	0	747.50	0	4.0360	0	34.2570	0	27.197	0	739.886	0	9.0	4	2.8	4	-1E+10	1	-1E+10	1	-1E+10	1	-1E+10	1	-1E+10	1	-1E+10	1
4902663	19	C	02/09/2024	15:13	-128.014	48.098	0	752.60	0	4.0240	0	34.2610	0	27.202	0	744.925	0	8.7	4	2.8	4	-1E+10	1	-1E+10	1	-1E+10	1	-1E+10	1	-1E+10	1	-1E+10	1
4902663	19	C	02/09/2024	15:13	-128.014	48.098	0	757.60	0	4.0320	0	34.2680	0	27.206	0	749.865	0	8.5	4	2.7	4	-1E+10	1	-1E+10	1	-1E+10	1	-1E+10	1	-1E+10	1	-1E+10	1
4902663	19	C	02/09/2024	15:13	-128.014	48.098	0	762.80	0	4.0250	0	34.2750	0	27.213	0	755.003	0	8.4	4	2.7	4	-1E+10	1	-1E+10	1	-1E+10	1	-1E+10	1	-1E+10	1	-1E+10	1
4902663	19	C	02/09/2024	15:13	-128.014	48.098	0	767.90	0	4.0120	0	34.2770	0	27.216	0	760.042	0	8.5	4	2.7	4	-1E+10	1	-1E+10	1	-1E+10	1	-1E+10	1	-1E+10	1	-1E+10	1
4902663	19	C	02/09/2024	15:13	-128.014	48.098	0	773.10	0	3.9890	0	34.2780	0	27.219	0	765.179	0	8.6	4	2.7	4	-1E+10	1	-1E+10	1	-1E+10	1	-1E+10	1	-1E+10	1	-1E+10	1
4902663	19	C	02/09/2024	15:13	-128.014	48.098	0	778.00	0	3.9310	0	34.2740	0	27.222	0	770.020	0	8.7	4	2.7	4	-1E+10	1	-1E+10	1	-1E+10	1	-1E+10	1	-1E+10	1	-1E+10	1
4902663	19	C	02/09/2024	15:13	-128.014	48.098	0	783.00	0	3.8990	0	34.2760	0	27.226	0	774.959	0	8.6	4	2.7	4	-1E+10	1	-1E+10	1	-1E+10	1	-1E+10	1	-1E+10	1	-1E+10	1
4902663	19	C	02/09/2024	15:13	-128.014	48.098	0	788.10	0	3.8740	0	34.2810	0	27.233	0	779.997	0	8.5	4	2.7	4	-1E+10	1	-1E+10	1	-1E+10	1	-1E+10	1	-1E+10	1	-1E+10	1
4902663	19	C	02/09/2024	15:13	-128.014	48.098	0	793.20	0	3.8650	0	34.2840	0	27.236	0	785.035	0	8.4	4	2.6	4	-1E+10	1	-1E+10	1	-1E+10	1	-1E+10	1	-1E+10	1	-1E+10	1
4902663	19	C	02/09/2024	15:13	-128.014	48.098	0	797.90	0	3.8520	0	34.2870	0	27.240	0	789.678	0	8.2	4	2.6	4	-1E+10	1	-1E+10	1	-1E+10	1	-1E+10	1	-1E+10	1	-1E+10	1
4902663	19	C	02/09/2024	15:13	-128.014	48.098	0	802.70	0	3.8470	0	34.2920	0	27.245	0	794.419	0	8.1	4	2.5	4	-1E+10	1	-1E+10	1	-1E+10	1	-1E+10	1	-1E+10	1	-1E+10	1
4902663	19	C	02/09/2024	15:13	-128.014	48.098	0	807.90	0	3.8500	0	34.2970	0	27.248	0	799.556	0	8.1	4	2.5	4	-1E+10	1	-1E+10	1	-1E+10	1	-1E+10	1	-1E+10	1	-1E+10	1
4902663	19	C	02/09/2024	15:13	-128.014	48.098	0	813.20	0	3.8330	0	34.2980	0	27.251	0	804.791	0	8.2	4	2.6	4	-1E+10	1	-1E+10	1	-1E+10	1	-1E+10	1	-1E+10	1	-1E+10	1
4902663	19	C	02/09/2024	15:13	-128.014	48.098	0	818.10	0	3.7920	0	34.2990	0	27.256	0	809.630	0	8.2	4	2.6	4	-1E+10	1	-1E+10	1	-1E+10	1	-1E+10	1	-1E+10	1	-1E+10	1
4902663	19	C	02/09/2024	15:13	-128.014	48.098	0	823.10	0	3.7750	0	34.3000	0	27.258	0	814.569	0	8.2	4	2.6	4	-1E+10	1	-1E+10	1	-1E+10	1	-1E+10	1	-1E+10	1	-1E+10	1
4902663	19	C	02/09/2024	15:13	-128.014	48.098	0	828.10	0	3.7650	0	34.3020	0	27.261	0	819.507	0	8.1	4	2.5	4	-1E+10	1	-1E+10	1	-1E+10	1	-1E+10	1	-1E+10	1	-1E+10	1
4902663	19	C	02/09/2024	15:13	-128.014	48.098	0	833.10	0	3.7600	0	34.3040	0	27.263	0	824.446	0	8.0	4	2.5	4	-1E+10	1	-1E+10	1	-1E+10	1	-1E+10	1	-1E+10	1	-1E+10	1
4902663	19	C	02/09/2024	15:13	-128.014	48.098	0	838.10	0	3.7540	0	34.3080	0	27.267	0	829.384	0	8.0	4	2.5	4	-1E+10	1	-1E+10	1	-1E+10	1	-1E+10	1	-1E+10	1	-1E+10	1
4902663	19	C	02/09/2024	15:13	-128.014	48.098	0	843.00	0	3.7520	0	34.3090	0	27.268	0	834.223	0	7.9	4	2.5	4	-1E+10	1	-1E+10	1	-1E+10	1	-1E+10	1	-1E+10	1	-1E+10	1
4902663	19	C	02/09/2024	15:13	-128.014	48.098	0	848.00	0	3.7370	0	34.3120	0	27.272	0	839.161	0	7.9	4	2.5	4	-1E+10	1	-1E+10	1	-1E+10	1	-1E+10	1	-1E+10	1	-1E+10	1
4902663	19	C	02/09/2024	15:13	-128.014	48.098	0	853.00	0	3.7220	0	34.3150	0	27.276	0	844.099	0	7.8	4	2.5	4	-1E+10	1	-1E+10	1	-1E+10	1	-1E+10	1	-1E+10	1	-1E+10	1
4902663	19	C	02/09/2024	15:13	-128.014	48.098	0	858.00	0	3.7120	0	34.3170	0	27.278	0	849.036	0	7.8	4	2.5	4	-1E+10	1	-1E+10	1	-1E+10	1	-1E+10	1	-1E+10	1	-1E+10	1
4902663	19	C	02/09/2024	15:13	-128.014	48.098	0	863.10	0	3.7040	0	34.3200	0	27.281	0	854.073	0	7.8	4	2.4	4	-1E+10	1	-1E+10	1	-1E+10	1	-1E+10	1	-1E+10	1	-1E+10	1
4902663	19	C	02/09/2024	15:13	-128.014	48.098	0	868.20	0	3.6940	0	34.3220	0	27.284	0	859.109	0	7.7	4	2.4	4	-1E+10	1	-1E+10	1	-1E+10	1	-1E+10	1	-1E+10	1	-1E+10	1
4902663	19	C	02/09/2024	15:13	-128.014	48.098	0	872.80	0	3.6760	0	34.3260	0	27.289	0	863.651	0	7.7	4	2.4	4	-1E+10	1	-1E+10	1	-1E+10	1	-1E+10	1	-1E+10	1	-1E+10	1
4902663	19	C	02/09/2024	15:13	-128.014	48.098	0	877.90	0	3.6680	0	34.3290	0	27.292	0	868.687	0	7.7	4	2.4	4	-1E+10	1	-1E+10	1	-1E+10	1	-1E+10	1	-1E+10	1	-1E+10	1
4902663	19	C	02/09/2024	15:13	-128.014	48.098	0	883.00	0	3.6600	0	34.3310	0	27.295	0	873.723	0	7.6	4	2.4	4	-1E+10	1	-1E+10	1	-1E+10	1	-1E+10	1	-1E+10	1	-1E+10	1
4902663	19	C	02/09/2024	15:13	-128.014	48.098	0	887.70	0	3.6560	0	34.3340	0	27.298	0	878.364	0	7.6	4	2.4	4	-1E+10	1	-1E+10	1	-1E+10	1	-1E+10	1	-1E+10	1	-1E+10	1
4902663	19	C	02/09/2024	15:13	-128.014	48.098	0	893.00	0	3.6510	0	34.3370	0	27.300	0	883.597	0	7.5	4	2.4	4	-1E+10	1	-1E+10	1	-1E+10	1	-1E+10	1	-1E+10	1	-1E+10	1
4902663	19	C	02/09/2024	15:13	-128.014	48.098	0	898.20	0	3.6510	0	34.3390	0	27.302	0	888.731	0	7.5	4	2.3	4	-1E+10	1	-1E+10	1	-1E+10	1	-1E+10	1	-1E+10	1	-1E+10	1
4902663	19	C	02/09/2024	15:13	-128.014	48.098	0	903.00	0	3.6500	0	34.3410	0	27.304	0	893.470	0	7.5	4	2.3	4	-1E+10	1	-1E+10	1	-1E+10	1	-1E+10	1	-1E+10	1	-1E+10	1
4902663	19	C	02/09/2024	15:13	-128.014	48.098	0	907.90	0	3.6500	0	34.3470	0	27.309	0	898.308	0	7.4	4	2.3	4	-1E+10	1	-1E+10	1	-1E+10	1	-1E+10	1	-1E+10	1	-1E+10	1
4902663	19	C	02/09/2024	15:13	-128.014	48.098	0	912.70	0	3.6520	0	34.3510	0	27.312	0	903.047	0	7.4	4	2.3	4	-1E+10	1	-1E+10	1	-1E+10	1	-1E+10	1	-1E+10	1	-1E+10	1
4902663	19	C	02/09/2024	15:13	-128.014	48.098	0	917.60	0	3.6410	0	34.3520	0	27.314	0	907.884	0	7.5	4	2.3	4	-1E+10	1	-1E+10	1	-1E+10	1	-1E+10	1	-1E+10	1	-1E+10	1
4902663	19	C	02/09/2024	15:13	-128.014	48.098	0	922.90	0	3.6320	0	34.3520	0	27.314	0	913.117	0	7.5	4	2.3	4	-1E+10	1	-1E+10	1	-1E+10	1	-1E+10	1	-1E+10	1	-1E+10	1
4902663	19	C	02/09/2024	15:13	-128.014	48.098	0	928.30	0	3.6280	0	34.3550	0	27.317	0	918.448	0	7.5	4	2.4	4	-1E+10	1	-1E+10	1	-1E+10	1	-1E+10	1	-1E+10	1	-1E+10	1
4902663	19	C	02/09/2024	15:13	-128.014	48.098	0	933.10	0	3.6120	0	34.3570	0	27.320	0	923.186	0	7.5	4	2.4	4	-1E+10	1	-1E+10	1	-1E+10	1	-1E+10	1	-1E+10	1	-1E+10	1
4902663	19	C	02/09/2024	15:13	-128.014	48.098	0	938.10	0	3.6080	0	34.3620	0	27.325	0	928.122	0	7.6	4	2.4	4	-1E+10	1	-1E+10	1	-1E+10	1	-1E+10	1	-1E+10	1	-1E+10	1
4902663	19	C	02/09/2024	15:13	-128.014	48.098	0	943.10	0	3.5810	0	34.3660	0	27.331	0	933.058	0	7.6	4	2.4	4	-1E+10	1	-1E+10	1	-1E+10	1	-1E+10	1	-1E+10	1	-1E+10	1
4902663	19	C	02/09/2024	15:13	-128.014	48.098	0	948.10	0	3.5760	0	34.3710	0	27.335	0	937.993	0	7.7	4	2.4	4	-1E+10	1	-1E+10	1	-1E+10	1	-1E+10	1	-1E+10	1	-1E+10	1
4902663	19	C	02/09/2024	15:13	-128.014	48.098	0	953.20	0	3.5660	0	34.3740	0	27.339	0	943.027	0	7.7	4	2.4	4	-1E+10	1	-1E+10	1	-1E+10	1	-1E+10	1	-1E+10	1	-1E+10	1
4902663	19	C	02/09/2024	15:13	-128.014	48.098	0	957.80	0	3.5560	0	34.3760	0	27.341	0	947.568	0	7.8	4	2.4	4	-1E+10	1	-1E+10	1	-1E+10	1	-1E+10	1	-1E+10	1	-1E+10	1
4902663	19	C	02/09/2024	15:13	-128.014	48.098	0	962.50	0	3.5460	0	34.3770	0	27.343	0	952.207	0	7.8	4	2.4	4	-1E+10	1	-1E+10	1	-1E+10	1	-1E+10	1	-1E+10	1	-1E+10	1
4902663	19	C	02/09/2024	15:13	-128.014	48.098	0	967.50	0	3.5350	0	34.3780	0	27.345	0	957.142	0	7.9	4	2.5	4	-1E+10	1	-1E+10	1	-1E+10	1	-1E+10	1	-1E+10	1	-1E+10	1
4902663	19	C	02/09/2024	15:13	-128.014	48.098	0	972.80	0	3.5210	0	34.3790	0	27.347	0	962.373	0	7.9	4	2.5	4	-1E+10	1	-1E+10	1	-1E+10	1	-1E+10	1	-1E+10	1	-1E+10	1
4902663	19	C	02/09/2024	15:13	-128.014	48.098	0	977.90	0	3.5130	0	34.3810	0	27.349	0	967.407	0	8.0	4	2.5	4	-1E+10	1	-1E+10	1	-1E+10	1	-1E+10	1	-1E+10	1	-1E+10	1
4902663	19	C	02/09/2024	15:13	-128.014	48.098	0	983.10	0	3.5000	0	34.3830	0	27.352	0	972.539	0	8.0	4	2.5	4	-1E+10	1	-1E+10	1	-1E+10	1	-1E+10	1	-1E+10	1	-1E+10	1
4902663	19	C	02/09/2024	15:13	-128.014	48.098	0	988.20	0	3.4860	0	34.3850	0	27.355	0	977.572	0	8.1	4	2.5	4	-1E+10	1	-1E+10	1	-1E+10	1	-1E+10	1	-1E+10	1	-1E+10	1
4902663	19	C	02/09/2024	15:13	-128.014	48.098	0	992.90	0	3.4780	0	34.3860	0	27.357	0	982.211	0	8.2	4	2.5	4	-1E+10	1	-1E+10	1	-1E+10	1	-1E+10	1	-1E+10	1	-1E+10	1
4902663	19	C	02/09/2024	15:13	-128.014	48.098	0	997.60	0	3.4620	0	34.3870	0	27.359	0	986.849	0	8.2	4	2.6	4	-1E+10	1	-1E+10	1	-1E+10	1	-1E+10	1	-1E+10	1	-1E+10	1
4902663	19	C	02/09/2024	15:13	-128.014	48.098	0	1005.50	0	3.4510	0	34.3890	0	27.362	0	994.645	0	8.3	4	2.6	4	-1E+10	1	-1E+10	1	-1E+10	1	-1E+10	1	-1E+10	1	-1E+10	1
4902663	19	C	02/09/2024	15:13	-128.014	48.098	0	1015.60	0	3.4400	0	34.3920	0	27.365	0	1004.612	0	8.4	4	2.6	4	-1E+10	1	-1E+10	1	-1E+10	1	-1E+10	1	-1E+10	1	-1E+10	1
4902663	19	C	02/09/2024	15:13	-128.014	48.098	0	1025.20	0	3.4260	0	34.3940	0	27.368	0	1014.085	0	8.5	4	2.7	4	-1E+10	1	-1E+10	1	-1E+10	1	-1E+10	1	-1E+10	1	-1E+10	1
4902663	19	C	02/09/2024	15:13	-128.014	48.098	0	1035.20	0	3.4070	0	34.3970	0	27.373	0	1023.952	0	8.7	4	2.7	4	-1E+10	1	-1E+10	1	-1E+10	1	-1E+10	1	-1E+10	1	-1E+10	1
4902663	19	C	02/09/2024	15:13	-128.014	48.098	0	1045.00	0	3.3770	0	34.4020	0	27.380	0	1033.621	0	8.9	4	2.8	4	-1E+10	1	-1E+10	1	-1E+10	1	-1E+10	1	-1E+10	1	-1E+10	1
4902663	19	C	02/09/2024	15:13	-128.014	48.098	0	1055.20	0	3.3420	0	34.4040	0	27.385	0	1043.685	0	9.1	4	2.8	4	-1E+10	1	-1E+10	1	-1E+10	1	-1E+10	1	-1E+10	1	-1E+10	1
4902663	19	C	02/09/2024	15:13	-128.014	48.098	0	1065.70	0	3.3050	0	34.4040	0	27.388	0	1054.044	0	9.3	4	2.9	4	-1E+10	1	-1E+10	1	-1E+10	1	-1E+10	1	-1E+10	1	-1E+10	1
4902663	19	C	02/09/2024	15:13	-128.014	48.098	0	1075.60	0	3.2780	0	34.4070	0	27.393	0	1063.811	0	9.4	4	2.9	4	-1E+10	1	-1E+10	1	-1E+10	1	-1E+10	1	-1E+10	1	-1E+10	1
4902663	19	C	02/09/2024	15:13	-128.014	48.098	0	1085.40	0	3.2490	0	34.4100	0	27.398	0	1073.478	0	9.7	4	3.0	4	-1E+10	1	-1E+10	1	-1E+10	1	-1E+10	1	-1E+10	1	-1E+10	1
4902663	19	C	02/09/2024	15:13	-128.014	48.098	0	1095.80	0	3.2510	0	34.4180	0	27.405	0	1083.737	0	10.0	4	3.1	4	-1E+10	1	-1E+10	1	-1E+10	1	-1E+10	1	-1E+10	1	-1E+10	1
4902663	19	C	02/09/2024	15:13	-128.014	48.098	0	1105.40	0	3.2480	0	34.4220	0	27.408	0	1093.206	0	10.2	4	3.2	4	-1E+10	1	-1E+10	1	-1E+10	1	-1E+10	1	-1E+10	1	-1E+10	1
4902663	19	C	02/09/2024	15:13	-128.014	48.098	0	1115.20	0	3.2290	0	34.4250	0	27.412	0	1102.873	0	10.4	4	3.2	4	-1E+10	1	-1E+10	1	-1E+10	1	-1E+10	1	-1E+10	1	-1E+10	1
4902663	19	C	02/09/2024	15:13	-128.014	48.098	0	1125.20	0	3.2050	0	34.4280	0	27.417	0	1112.736	0	10.7	4	3.3	4	-1E+10	1	-1E+10	1	-1E+10	1	-1E+10	1	-1E+10	1	-1E+10	1
4902663	19	C	02/09/2024	15:13	-128.014	48.098	0	1135.20	0	3.1910	0	34.4290	0	27.419	0	1122.598	0	10.8	4	3.4	4	-1E+10	1	-1E+10	1	-1E+10	1	-1E+10	1	-1E+10	1	-1E+10	1
4902663	19	C	02/09/2024	15:13	-128.014	48.098	0	1145.30	0	3.1710	0	34.4310	0	27.423	0	1132.559	0	11.0	4	3.4	4	-1E+10	1	-1E+10	1	-1E+10	1	-1E+10	1	-1E+10	1	-1E+10	1
4902663	19	C	02/09/2024	15:13	-128.014	48.098	0	1155.40	0	3.1480	0	34.4330	0	27.426	0	1142.519	0	11.3	4	3.5	4	-1E+10	1	-1E+10	1	-1E+10	1	-1E+10	1	-1E+10	1	-1E+10	1
4902663	19	C	02/09/2024	15:13	-128.014	48.098	0	1165.20	0	3.1380	0	34.4370	0	27.431	0	1152.183	0	11.5	4	3.6	4	-1E+10	1	-1E+10	1	-1E+10	1	-1E+10	1	-1E+10	1	-1E+10	1
4902663	19	C	02/09/2024	15:13	-128.014	48.098	0	1175.30	0	3.1180	0	34.4400	0	27.435	0	1162.142	0	11.7	4	3.6	4	-1E+10	1	-1E+10	1	-1E+10	1	-1E+10	1	-1E+10	1	-1E+10	1
4902663	19	C	02/09/2024	15:13	-128.014	48.098	0	1185.50	0	3.0690	0	34.4400	0	27.439	0	1172.200	0	11.9	4	3.7	4	-1E+10	1	-1E+10	1	-1E+10	1	-1E+10	1	-1E+10	1	-1E+10	1
4902663	19	C	02/09/2024	15:13	-128.014	48.098	0	1195.20	0	3.0280	0	34.4420	0	27.445	0	1181.763	0	12.3	4	3.8	4	-1E+10	1	-1E+10	1	-1E+10	1	-1E+10	1	-1E+10	1	-1E+10	1
4902663	19	C	02/09/2024	15:13	-128.014	48.098	0	1205.30	0	3.0070	0	34.4480	0	27.451	0	1191.721	0	12.9	4	4.0	4	-1E+10	1	-1E+10	1	-1E+10	1	-1E+10	1	-1E+10	1	-1E+10	1
4902663	19	C	02/09/2024	15:13	-128.014	48.098	0	1215.70	0	2.9840	0	34.4530	0	27.458	0	1201.974	0	13.4	4	4.1	4	-1E+10	1	-1E+10	1	-1E+10	1	-1E+10	1	-1E+10	1	-1E+10	1
4902663	19	C	02/09/2024	15:13	-128.014	48.098	0	1225.40	0	2.9680	0	34.4570	0	27.462	0	1211.537	0	13.8	4	4.2	4	-1E+10	1	-1E+10	1	-1E+10	1	-1E+10	1	-1E+10	1	-1E+10	1
4902663	19	C	02/09/2024	15:13	-128.014	48.098	0	1235.30	0	2.9560	0	34.4590	0	27.465	0	1221.296	0	14.1	4	4.3	4	-1E+10	1	-1E+10	1	-1E+10	1	-1E+10	1	-1E+10	1	-1E+10	1
4902663	19	C	02/09/2024	15:13	-128.014	48.098	0	1245.40	0	2.9370	0	34.4620	0	27.469	0	1231.252	0	14.5	4	4.5	4	-1E+10	1	-1E+10	1	-1E+10	1	-1E+10	1	-1E+10	1	-1E+10	1
4902663	19	C	02/09/2024	15:13	-128.014	48.098	0	1255.10	0	2.9210	0	34.4640	0	27.472	0	1240.813	0	14.8	4	4.6	4	-1E+10	1	-1E+10	1	-1E+10	1	-1E+10	1	-1E+10	1	-1E+10	1
4902663	19	C	02/09/2024	15:13	-128.014	48.098	0	1265.40	0	2.8990	0	34.4670	0	27.477	0	1250.966	0	15.2	4	4.7	4	-1E+10	1	-1E+10	1	-1E+10	1	-1E+10	1	-1E+10	1	-1E+10	1
4902663	19	C	02/09/2024	15:13	-128.014	48.098	0	1275.70	0	2.8750	0	34.4700	0	27.481	0	1261.117	0	15.6	4	4.8	4	-1E+10	1	-1E+10	1	-1E+10	1	-1E+10	1	-1E+10	1	-1E+10	1
4902663	19	C	02/09/2024	15:13	-128.014	48.098	0	1285.50	0	2.8450	0	34.4720	0	27.486	0	1270.776	0	16.1	4	5.0	4	-1E+10	1	-1E+10	1	-1E+10	1	-1E+10	1	-1E+10	1	-1E+10	1
4902663	19	C	02/09/2024	15:13	-128.014	48.098	0	1295.60	0	2.8170	0	34.4750	0	27.490	0	1280.729	0	16.5	4	5.1	4	-1E+10	1	-1E+10	1	-1E+10	1	-1E+10	1	-1E+10	1	-1E+10	1
4902663	19	C	02/09/2024	15:13	-128.014	48.098	0	1305.70	0	2.7920	0	34.4770	0	27.494	0	1290.682	0	16.9	4	5.2	4	-1E+10	1	-1E+10	1	-1E+10	1	-1E+10	1	-1E+10	1	-1E+10	1
4902663	19	C	02/09/2024	15:13	-128.014	48.098	0	1315.20	0	2.7740	0	34.4790	0	27.497	0	1300.044	0	17.4	4	5.3	4	-1E+10	1	-1E+10	1	-1E+10	1	-1E+10	1	-1E+10	1	-1E+10	1
4902663	19	C	02/09/2024	15:13	-128.014	48.098	0	1325.30	0	2.7430	0	34.4820	0	27.503	0	1309.996	0	17.8	4	5.5	4	-1E+10	1	-1E+10	1	-1E+10	1	-1E+10	1	-1E+10	1	-1E+10	1
4902663	19	C	02/09/2024	15:13	-128.014	48.098	0	1335.50	0	2.7250	0	34.4840	0	27.506	0	1320.046	0	18.3	4	5.6	4	-1E+10	1	-1E+10	1	-1E+10	1	-1E+10	1	-1E+10	1	-1E+10	1
4902663	19	C	02/09/2024	15:13	-128.014	48.098	0	1345.40	0	2.7170	0	34.4870	0	27.509	0	1329.801	0	18.8	4	5.8	4	-1E+10	1	-1E+10	1	-1E+10	1	-1E+10	1	-1E+10	1	-1E+10	1
4902663	19	C	02/09/2024	15:13	-128.014	48.098	0	1355.40	0	2.6950	0	34.4900	0	27.513	0	1339.653	0	19.3	4	5.9	4	-1E+10	1	-1E+10	1	-1E+10	1	-1E+10	1	-1E+10	1	-1E+10	1
4902663	19	C	02/09/2024	15:13	-128.014	48.098	0	1365.30	0	2.6780	0	34.4920	0	27.516	0	1349.406	0	19.8	4	6.1	4	-1E+10	1	-1E+10	1	-1E+10	1	-1E+10	1	-1E+10	1	-1E+10	1
4902663	19	C	02/09/2024	15:13	-128.014	48.098	0	1375.40	0	2.6470	0	34.4940	0	27.521	0	1359.356	0	20.1	4	6.1	4	-1E+10	1	-1E+10	1	-1E+10	1	-1E+10	1	-1E+10	1	-1E+10	1
4902663	19	C	02/09/2024	15:13	-128.014	48.098	0	1385.80	0	2.6120	0	34.4940	0	27.524	0	1369.601	0	20.2	4	6.2	4	-1E+10	1	-1E+10	1	-1E+10	1	-1E+10	1	-1E+10	1	-1E+10	1
4902663	19	C	02/09/2024	15:13	-128.014	48.098	0	1395.50	0	2.5860	0	34.4930	0	27.525	0	1379.156	0	20.3	4	6.2	4	-1E+10	1	-1E+10	1	-1E+10	1	-1E+10	1	-1E+10	1	-1E+10	1
4902663	19	C	02/09/2024	15:13	-128.014	48.098	0	1405.20	0	2.5690	0	34.4960	0	27.529	0	1388.710	0	20.8	4	6.4	4	-1E+10	1	-1E+10	1	-1E+10	1	-1E+10	1	-1E+10	1	-1E+10	1
4902663	19	C	02/09/2024	15:13	-128.014	48.098	0	1415.50	0	2.5560	0	34.4970	0	27.531	0	1398.856	0	21.4	4	6.5	4	-1E+10	1	-1E+10	1	-1E+10	1	-1E+10	1	-1E+10	1	-1E+10	1
4902663	19	C	02/09/2024	15:13	-128.014	48.098	0	1425.60	0	2.5440	0	34.4990	0	27.534	0	1408.803	0	21.8	4	6.7	4	-1E+10	1	-1E+10	1	-1E+10	1	-1E+10	1	-1E+10	1	-1E+10	1
4902663	19	C	02/09/2024	15:13	-128.014	48.098	0	1435.30	0	2.5340	0	34.5010	0	27.536	0	1418.356	0	22.3	4	6.8	4	-1E+10	1	-1E+10	1	-1E+10	1	-1E+10	1	-1E+10	1	-1E+10	1
4902663	19	C	02/09/2024	15:13	-128.014	48.098	0	1445.20	0	2.5190	0	34.5040	0	27.540	0	1428.106	0	22.9	4	7.0	4	-1E+10	1	-1E+10	1	-1E+10	1	-1E+10	1	-1E+10	1	-1E+10	1
4902663	19	C	02/09/2024	15:13	-128.014	48.098	0	1455.50	0	2.5040	0	34.5060	0	27.543	0	1438.249	0	23.4	4	7.1	4	-1E+10	1	-1E+10	1	-1E+10	1	-1E+10	1	-1E+10	1	-1E+10	1
4902663	19	C	02/09/2024	15:13	-128.014	48.098	0	1465.50	0	2.4850	0	34.5080	0	27.546	0	1448.096	0	24.0	4	7.3	4	-1E+10	1	-1E+10	1	-1E+10	1	-1E+10	1	-1E+10	1	-1E+10	1
4902663	19	C	02/09/2024	15:13	-128.014	48.098	0	1475.20	0	2.4630	0	34.5100	0	27.550	0	1457.648	0	24.5	4	7.5	4	-1E+10	1	-1E+10	1	-1E+10	1	-1E+10	1	-1E+10	1	-1E+10	1
4902663	19	C	02/09/2024	15:13	-128.014	48.098	0	1485.40	0	2.4480	0	34.5120	0	27.553	0	1467.691	0	25.2	4	7.7	4	-1E+10	1	-1E+10	1	-1E+10	1	-1E+10	1	-1E+10	1	-1E+10	1
4902663	19	C	02/09/2024	15:13	-128.014	48.098	0	1495.50	0	2.4320	0	34.5150	0	27.556	0	1477.635	0	26.0	4	7.9	4	-1E+10	1	-1E+10	1	-1E+10	1	-1E+10	1	-1E+10	1	-1E+10	1
4902663	19	C	02/09/2024	15:13	-128.014	48.098	0	1505.10	0	2.4170	0	34.5160	0	27.558	0	1487.087	0	26.5	4	8.1	4	-1E+10	1	-1E+10	1	-1E+10	1	-1E+10	1	-1E+10	1	-1E+10	1
4902663	19	C	02/09/2024	15:13	-128.014	48.098	0	1515.60	0	2.4030	0	34.5190	0	27.562	0	1497.424	0	27.1	4	8.2	4	-1E+10	1	-1E+10	1	-1E+10	1	-1E+10	1	-1E+10	1	-1E+10	1
4902663	19	C	02/09/2024	15:13	-128.014	48.098	0	1525.50	0	2.3940	0	34.5200	0	27.564	0	1507.170	0	27.5	4	8.4	4	-1E+10	1	-1E+10	1	-1E+10	1	-1E+10	1	-1E+10	1	-1E+10	1
4902663	19	C	02/09/2024	15:13	-128.014	48.098	0	1535.10	0	2.3820	0	34.5220	0	27.566	0	1516.620	0	28.2	4	8.6	4	-1E+10	1	-1E+10	1	-1E+10	1	-1E+10	1	-1E+10	1	-1E+10	1
4902663	19	C	02/09/2024	15:13	-128.014	48.098	0	1545.20	0	2.3690	0	34.5240	0	27.569	0	1526.562	0	29.0	4	8.8	4	-1E+10	1	-1E+10	1	-1E+10	1	-1E+10	1	-1E+10	1	-1E+10	1
4902663	19	C	02/09/2024	15:13	-128.014	48.098	0	1555.30	0	2.3530	0	34.5270	0	27.573	0	1536.504	0	29.3	4	8.9	4	-1E+10	1	-1E+10	1	-1E+10	1	-1E+10	1	-1E+10	1	-1E+10	1
4902663	19	C	02/09/2024	15:13	-128.014	48.098	0	1565.40	0	2.3450	0	34.5280	0	27.574	0	1546.445	0	29.7	4	9.0	4	-1E+10	1	-1E+10	1	-1E+10	1	-1E+10	1	-1E+10	1	-1E+10	1
4902663	19	C	02/09/2024	15:13	-128.014	48.098	0	1575.80	0	2.3340	0	34.5290	0	27.576	0	1556.681	0	30.1	4	9.1	4	-1E+10	1	-1E+10	1	-1E+10	1	-1E+10	1	-1E+10	1	-1E+10	1
4902663	19	C	02/09/2024	15:13	-128.014	48.098	0	1585.80	0	2.3190	0	34.5300	0	27.578	0	1566.522	0	30.4	4	9.2	4	-1E+10	1	-1E+10	1	-1E+10	1	-1E+10	1	-1E+10	1	-1E+10	1
4902663	19	C	02/09/2024	15:13	-128.014	48.098	0	1595.30	0	2.3080	0	34.5310	0	27.580	0	1575.871	0	30.9	4	9.4	4	-1E+10	1	-1E+10	1	-1E+10	1	-1E+10	1	-1E+10	1	-1E+10	1
4902663	19	C	02/09/2024	15:13	-128.014	48.098	0	1605.30	0	2.2930	0	34.5330	0	27.583	0	1585.712	0	31.6	4	9.6	4	-1E+10	1	-1E+10	1	-1E+10	1	-1E+10	1	-1E+10	1	-1E+10	1
4902663	19	C	02/09/2024	15:13	-128.014	48.098	0	1615.30	0	2.2850	0	34.5350	0	27.585	0	1595.552	0	32.1	4	9.8	4	-1E+10	1	-1E+10	1	-1E+10	1	-1E+10	1	-1E+10	1	-1E+10	1
4902663	19	C	02/09/2024	15:13	-128.014	48.098	0	1625.30	0	2.2690	0	34.5370	0	27.588	0	1605.392	0	32.8	4	9.9	4	-1E+10	1	-1E+10	1	-1E+10	1	-1E+10	1	-1E+10	1	-1E+10	1
4902663	19	C	02/09/2024	15:13	-128.014	48.098	0	1635.40	0	2.2550	0	34.5390	0	27.591	0	1615.330	0	33.3	4	10.1	4	-1E+10	1	-1E+10	1	-1E+10	1	-1E+10	1	-1E+10	1	-1E+10	1
4902663	19	C	02/09/2024	15:13	-128.014	48.098	0	1645.40	0	2.2380	0	34.5410	0	27.594	0	1625.169	0	34.0	4	10.3	4	-1E+10	1	-1E+10	1	-1E+10	1	-1E+10	1	-1E+10	1	-1E+10	1
4902663	19	C	02/09/2024	15:13	-128.014	48.098	0	1655.40	0	2.2270	0	34.5430	0	27.596	0	1635.008	0	34.5	4	10.5	4	-1E+10	1	-1E+10	1	-1E+10	1	-1E+10	1	-1E+10	1	-1E+10	1
4902663	19	C	02/09/2024	15:13	-128.014	48.098	0	1665.40	0	2.2190	0	34.5440	0	27.598	0	1644.846	0	35.0	4	10.6	4	-1E+10	1	-1E+10	1	-1E+10	1	-1E+10	1	-1E+10	1	-1E+10	1
4902663	19	C	02/09/2024	15:13	-128.014	48.098	0	1675.50	0	2.2090	0	34.5450	0	27.599	0	1654.781	0	35.6	4	10.8	4	-1E+10	1	-1E+10	1	-1E+10	1	-1E+10	1	-1E+10	1	-1E+10	1
4902663	19	C	02/09/2024	15:13	-128.014	48.098	0	1685.30	0	2.1960	0	34.5470	0	27.602	0	1664.422	0	36.3	4	11.0	4	-1E+10	1	-1E+10	1	-1E+10	1	-1E+10	1	-1E+10	1	-1E+10	1
4902663	19	C	02/09/2024	15:13	-128.014	48.098	0	1695.30	0	2.1860	0	34.5490	0	27.605	0	1674.259	0	36.9	4	11.2	4	-1E+10	1	-1E+10	1	-1E+10	1	-1E+10	1	-1E+10	1	-1E+10	1
4902663	19	C	02/09/2024	15:13	-128.014	48.098	0	1705.60	0	2.1800	0	34.5500	0	27.606	0	1684.390	0	37.4	4	11.3	4	-1E+10	1	-1E+10	1	-1E+10	1	-1E+10	1	-1E+10	1	-1E+10	1
4902663	19	C	02/09/2024	15:13	-128.014	48.098	0	1715.50	0	2.1770	0	34.5520	0	27.608	0	1694.127	0	37.9	4	11.5	4	-1E+10	1	-1E+10	1	-1E+10	1	-1E+10	1	-1E+10	1	-1E+10	1
4902663	19	C	02/09/2024	15:13	-128.014	48.098	0	1725.70	0	2.1670	0	34.5540	0	27.610	0	1704.159	0	38.5	4	11.7	4	-1E+10	1	-1E+10	1	-1E+10	1	-1E+10	1	-1E+10	1	-1E+10	1
4902663	19	C	02/09/2024	15:13	-128.014	48.098	0	1735.50	0	2.1600	0	34.5560	0	27.613	0	1713.797	0	39.2	4	11.9	4	-1E+10	1	-1E+10	1	-1E+10	1	-1E+10	1	-1E+10	1	-1E+10	1
4902663	19	C	02/09/2024	15:13	-128.014	48.098	0	1745.40	0	2.1470	0	34.5570	0	27.614	0	1723.533	0	39.8	4	12.1	4	-1E+10	1	-1E+10	1	-1E+10	1	-1E+10	1	-1E+10	1	-1E+10	1
4902663	19	C	02/09/2024	15:13	-128.014	48.098	0	1755.50	0	2.1380	0	34.5590	0	27.617	0	1733.465	0	40.5	4	12.2	4	-1E+10	1	-1E+10	1	-1E+10	1	-1E+10	1	-1E+10	1	-1E+10	1
4902663	19	C	02/09/2024	15:13	-128.014	48.098	0	1765.20	0	2.1240	0	34.5610	0	27.620	0	1743.004	0	41.2	4	12.4	4	-1E+10	1	-1E+10	1	-1E+10	1	-1E+10	1	-1E+10	1	-1E+10	1
4902663	19	C	02/09/2024	15:13	-128.014	48.098	0	1775.10	0	2.1170	0	34.5620	0	27.621	0	1752.739	0	41.6	4	12.6	4	-1E+10	1	-1E+10	1	-1E+10	1	-1E+10	1	-1E+10	1	-1E+10	1
4902663	19	C	02/09/2024	15:13	-128.014	48.098	0	1785.40	0	2.1090	0	34.5630	0	27.622	0	1762.866	0	42.2	4	12.7	4	-1E+10	1	-1E+10	1	-1E+10	1	-1E+10	1	-1E+10	1	-1E+10	1
4902663	19	C	02/09/2024	15:13	-128.014	48.098	0	1795.70	0	2.1000	0	34.5650	0	27.625	0	1772.993	0	42.8	4	12.9	4	-1E+10	1	-1E+10	1	-1E+10	1	-1E+10	1	-1E+10	1	-1E+10	1
4902663	19	C	02/09/2024	15:13	-128.014	48.098	0	1805.50	0	2.0880	0	34.5660	0	27.627	0	1782.628	0	43.4	4	13.1	4	-1E+10	1	-1E+10	1	-1E+10	1	-1E+10	1	-1E+10	1	-1E+10	1
4902663	19	C	02/09/2024	15:13	-128.014	48.098	0	1815.20	0	2.0790	0	34.5680	0	27.629	0	1792.164	0	44.2	4	13.3	4	-1E+10	1	-1E+10	1	-1E+10	1	-1E+10	1	-1E+10	1	-1E+10	1
4902663	19	C	02/09/2024	15:13	-128.014	48.098	0	1825.10	0	2.0690	0	34.5700	0	27.631	0	1801.897	0	44.9	4	13.6	4	-1E+10	1	-1E+10	1	-1E+10	1	-1E+10	1	-1E+10	1	-1E+10	1
4902663	19	C	02/09/2024	15:13	-128.014	48.098	0	1835.50	0	2.0590	0	34.5720	0	27.634	0	1812.120	0	45.6	4	13.8	4	-1E+10	1	-1E+10	1	-1E+10	1	-1E+10	1	-1E+10	1	-1E+10	1
4902663	19	C	02/09/2024	15:13	-128.014	48.098	0	1845.70	0	2.0490	0	34.5730	0	27.636	0	1822.147	0	46.3	4	14.0	4	-1E+10	1	-1E+10	1	-1E+10	1	-1E+10	1	-1E+10	1	-1E+10	1
4902663	19	C	02/09/2024	15:13	-128.014	48.098	0	1855.50	0	2.0380	0	34.5750	0	27.638	0	1831.779	0	47.0	4	14.2	4	-1E+10	1	-1E+10	1	-1E+10	1	-1E+10	1	-1E+10	1	-1E+10	1
4902663	19	C	02/09/2024	15:13	-128.014	48.098	0	1865.50	0	2.0270	0	34.5770	0	27.641	0	1841.608	0	47.9	4	14.5	4	-1E+10	1	-1E+10	1	-1E+10	1	-1E+10	1	-1E+10	1	-1E+10	1
4902663	19	C	02/09/2024	15:13	-128.014	48.098	0	1875.60	0	2.0120	0	34.5790	0	27.643	0	1851.535	0	48.9	4	14.7	4	-1E+10	1	-1E+10	1	-1E+10	1	-1E+10	1	-1E+10	1	-1E+10	1
4902663	19	C	02/09/2024	15:13	-128.014	48.098	0	1885.30	0	2.0000	0	34.5810	0	27.646	0	1861.068	0	49.8	4	15.0	4	-1E+10	1	-1E+10	1	-1E+10	1	-1E+10	1	-1E+10	1	-1E+10	1
4902663	19	C	02/09/2024	15:13	-128.014	48.098	0	1895.30	0	1.9840	0	34.5840	0	27.650	0	1870.896	0	50.7	4	15.3	4	-1E+10	1	-1E+10	1	-1E+10	1	-1E+10	1	-1E+10	1	-1E+10	1
4902663	19	C	02/09/2024	15:13	-128.014	48.098	0	1905.50	0	1.9710	0	34.5860	0	27.652	0	1880.919	0	51.5	4	15.5	4	-1E+10	1	-1E+10	1	-1E+10	1	-1E+10	1	-1E+10	1	-1E+10	1
4902663	19	C	02/09/2024	15:13	-128.014	48.098	0	1915.70	0	1.9630	0	34.5870	0	27.654	0	1890.942	0	52.2	4	15.7	4	-1E+10	1	-1E+10	1	-1E+10	1	-1E+10	1	-1E+10	1	-1E+10	1
4902663	19	C	02/09/2024	15:13	-128.014	48.098	0	1925.50	0	1.9520	0	34.5890	0	27.656	0	1900.572	0	53.0	4	16.0	4	-1E+10	1	-1E+10	1	-1E+10	1	-1E+10	1	-1E+10	1	-1E+10	1
4902663	19	C	02/09/2024	15:13	-128.014	48.098	0	1935.50	0	1.9440	0	34.5910	0	27.659	0	1910.398	0	53.6	4	16.1	4	-1E+10	1	-1E+10	1	-1E+10	1	-1E+10	1	-1E+10	1	-1E+10	1
4902663	19	C	02/09/2024	15:13	-128.014	48.098	0	1945.30	0	1.9370	0	34.5920	0	27.660	0	1920.027	0	54.1	4	16.3	4	-1E+10	1	-1E+10	1	-1E+10	1	-1E+10	1	-1E+10	1	-1E+10	1
4902663	19	C	02/09/2024	15:13	-128.014	48.098	0	1955.00	0	1.9300	0	34.5940	0	27.662	0	1929.557	0	54.6	4	16.4	4	-1E+10	1	-1E+10	1	-1E+10	1	-1E+10	1	-1E+10	1	-1E+10	1
4902663	19	C	02/09/2024	15:13	-128.014	48.098	0	1965.00	0	1.9260	0	34.5950	0	27.663	0	1939.381	0	54.9	4	16.5	4	-1E+10	1	-1E+10	1	-1E+10	1	-1E+10	1	-1E+10	1	-1E+10	1
4902663	19	C	02/09/2024	15:13	-128.014	48.098	0	1975.00	0	1.9220	0	34.5960	0	27.664	0	1949.205	0	55.1	4	16.6	4	-1E+10	1	-1E+10	1	-1E+10	1	-1E+10	1	-1E+10	1	-1E+10	1
4902663	19	C	02/09/2024	15:13	-128.014	48.098	0	1985.00	0	1.9190	0	34.5960	0	27.665	0	1959.028	0	55.3	4	16.7	4	-1E+10	1	-1E+10	1	-1E+10	1	-1E+10	1	-1E+10	1	-1E+10	1
4902663	19	C	02/09/2024	15:13	-128.014	48.098	0	1995.10	0	1.9140	0	34.5970	0	27.666	0	1968.949	0	55.6	4	16.7	4	-1E+10	1	-1E+10	1	-1E+10	1	-1E+10	1	-1E+10	1	-1E+10	1
4902663	19	C	02/09/2024	15:13	-128.014	48.098	0	2005.40	0	1.9110	0	34.5980	0	27.667	0	1979.067	0	55.8	4	16.8	4	-1E+10	1	-1E+10	1	-1E+10	1	-1E+10	1	-1E+10	1	-1E+10	1
4902663	19	C	02/09/2024	15:13	-128.014	48.098	0	2015.00	0	1.9060	0	34.5990	0	27.668	0	1988.496	0	55.4	4	16.7	4	-1E+10	1	-1E+10	1	-1E+10	1	-1E+10	1	-1E+10	1	-1E+10	1
4902663	19	C	02/09/2024	15:13	-128.014	48.098	0																										
4902663	20	C	02/19/2024	10:12	-127.611	48.098	0	0.20	0	9.2650	0	32.2750	0	24.944	0	0.198	0	266.4	4	93.6	4	-1E+10	1	-1E+10	1	-1E+10	1	-1E+10	1	-1E+10	1	-1E+10	1
4902663	20	C	02/19/2024	10:12	-127.611	48.098	0	0.90	0	9.2670	0	32.2760	0	24.944	0	0.892	0	266.4	4	93.6	4	-1E+10	1	-1E+10	1	-1E+10	1	-1E+10	1	-1E+10	1	-1E+10	1
4902663	20	C	02/19/2024	10:12	-127.611	48.098	0	2.10	0	9.2670	0	32.2770	0	24.945	0	2.082	0	266.4	4	93.6	4	-1E+10	1	-1E+10	1	-1E+10	1	-1E+10	1	-1E+10	1	-1E+10	1
4902663	20	C	02/19/2024	10:12	-127.611	48.098	0	3.10	0	9.2670	0	32.2780	0	24.946	0	3.074	0	266.2	4	93.6	4	-1E+10	1	-1E+10	1	-1E+10	1	-1E+10	1	-1E+10	1	-1E+10	1
4902663	20	C	02/19/2024	10:12	-127.611	48.098	0	3.80	0	9.2680	0	32.2780	0	24.946	0	3.768	0	266.2	4	93.6	4	-1E+10	1	-1E+10	1	-1E+10	1	-1E+10	1	-1E+10	1	-1E+10	1
4902663	20	C	02/19/2024	10:12	-127.611	48.098	0	5.00	0	9.2680	0	32.2780	0	24.946	0	4.958	0	266.2	4	93.5	4	-1E+10	1	-1E+10	1	-1E+10	1	-1E+10	1	-1E+10	1	-1E+10	1
4902663	20	C	02/19/2024	10:12	-127.611	48.098	0	6.20	0	9.2680	0	32.2790	0	24.947	0	6.148	0	266.1	4	93.5	4	-1E+10	1	-1E+10	1	-1E+10	1	-1E+10	1	-1E+10	1	-1E+10	1
4902663	20	C	02/19/2024	10:12	-127.611	48.098	0	7.10	0	9.2680	0	32.2780	0	24.946	0	7.040	0	266.1	4	93.5	4	-1E+10	1	-1E+10	1	-1E+10	1	-1E+10	1	-1E+10	1	-1E+10	1
4902663	20	C	02/19/2024	10:12	-127.611	48.098	0	7.80	0	9.2680	0	32.2790	0	24.947	0	7.734	0	266.0	4	93.5	4	-1E+10	1	-1E+10	1	-1E+10	1	-1E+10	1	-1E+10	1	-1E+10	1
4902663	20	C	02/19/2024	10:12	-127.611	48.098	0	9.00	0	9.2690	0	32.2790	0	24.947	0	8.924	0	265.9	4	93.5	4	-1E+10	1	-1E+10	1	-1E+10	1	-1E+10	1	-1E+10	1	-1E+10	1
4902663	20	C	02/19/2024	10:12	-127.611	48.098	0	10.10	0	9.2710	0	32.2800	0	24.947	0	10.015	0	265.9	4	93.5	4	-1E+10	1	-1E+10	1	-1E+10	1	-1E+10	1	-1E+10	1	-1E+10	1
4902663	20	C	02/19/2024	10:12	-127.611	48.098	0	10.80	0	9.2710	0	32.2810	0	24.948	0	10.709	0	265.9	4	93.5	4	-1E+10	1	-1E+10	1	-1E+10	1	-1E+10	1	-1E+10	1	-1E+10	1
4902663	20	C	02/19/2024	10:12	-127.611	48.098	0	11.90	0	9.2710	0	32.2820	0	24.949	0	11.800	0	265.8	4	93.4	4	-1E+10	1	-1E+10	1	-1E+10	1	-1E+10	1	-1E+10	1	-1E+10	1
4902663	20	C	02/19/2024	10:12	-127.611	48.098	0	13.00	0	9.2720	0	32.2830	0	24.949	0	12.890	0	265.8	4	93.4	4	-1E+10	1	-1E+10	1	-1E+10	1	-1E+10	1	-1E+10	1	-1E+10	1
4902663	20	C	02/19/2024	10:12	-127.611	48.098	0	13.70	0	9.2720	0	32.2830	0	24.949	0	13.584	0	265.8	4	93.4	4	-1E+10	1	-1E+10	1	-1E+10	1	-1E+10	1	-1E+10	1	-1E+10	1
4902663	20	C	02/19/2024	10:12	-127.611	48.098	0	14.90	0	9.2720	0	32.2830	0	24.949	0	14.774	0	265.8	4	93.4	4	-1E+10	1	-1E+10	1	-1E+10	1	-1E+10	1	-1E+10	1	-1E+10	1
4902663	20	C	02/19/2024	10:12	-127.611	48.098	0	16.10	0	9.2720	0	32.2830	0	24.949	0	15.964	0	265.6	4	93.4	4	-1E+10	1	-1E+10	1	-1E+10	1	-1E+10	1	-1E+10	1	-1E+10	1
4902663	20	C	02/19/2024	10:12	-127.611	48.098	0	16.90	0	9.2720	0	32.2830	0	24.949	0	16.757	0	265.7	4	93.4	4	-1E+10	1	-1E+10	1	-1E+10	1	-1E+10	1	-1E+10	1	-1E+10	1
4902663	20	C	02/19/2024	10:12	-127.611	48.098	0	17.70	0	9.2720	0	32.2830	0	24.949	0	17.551	0	265.5	4	93.3	4	-1E+10	1	-1E+10	1	-1E+10	1	-1E+10	1	-1E+10	1	-1E+10	1
4902663	20	C	02/19/2024	10:12	-127.611	48.098	0	18.90	0	9.2720	0	32.2830	0	24.949	0	18.740	0	265.6	4	93.3	4	-1E+10	1	-1E+10	1	-1E+10	1	-1E+10	1	-1E+10	1	-1E+10	1
4902663	20	C	02/19/2024	10:12	-127.611	48.098	0	20.20	0	9.2720	0	32.2840	0	24.950	0	20.029	0	265.6	4	93.3	4	-1E+10	1	-1E+10	1	-1E+10	1	-1E+10	1	-1E+10	1	-1E+10	1
4902663	20	C	02/19/2024	10:12	-127.611	48.098	0	21.00	0	9.2720	0	32.2840	0	24.950	0	20.823	0	265.4	4	93.3	4	-1E+10	1	-1E+10	1	-1E+10	1	-1E+10	1	-1E+10	1	-1E+10	1
4902663	20	C	02/19/2024	10:12	-127.611	48.098	0	21.90	0	9.2730	0	32.2840	0	24.950	0	21.715	0	265.4	4	93.3	4	-1E+10	1	-1E+10	1	-1E+10	1	-1E+10	1	-1E+10	1	-1E+10	1
4902663	20	C	02/19/2024	10:12	-127.611	48.098	0	22.80	0	9.2730	0	32.2840	0	24.950	0	22.607	0	265.3	4	93.3	4	-1E+10	1	-1E+10	1	-1E+10	1	-1E+10	1	-1E+10	1	-1E+10	1
4902663	20	C	02/19/2024	10:12	-127.611	48.098	0	23.60	0	9.2730	0	32.2840	0	24.950	0	23.400	0	265.3	4	93.2	4	-1E+10	1	-1E+10	1	-1E+10	1	-1E+10	1	-1E+10	1	-1E+10	1
4902663	20	C	02/19/2024	10:12	-127.611	48.098	0	24.90	0	9.2730	0	32.2840	0	24.950	0	24.689	0	265.2	4	93.2	4	-1E+10	1	-1E+10	1	-1E+10	1	-1E+10	1	-1E+10	1	-1E+10	1
4902663	20	C	02/19/2024	10:12	-127.611	48.098	0	26.10	0	9.2730	0	32.2840	0	24.950	0	25.879	0	265.1	4	93.2	4	-1E+10	1	-1E+10	1	-1E+10	1	-1E+10	1	-1E+10	1	-1E+10	1
4902663	20	C	02/19/2024	10:12	-127.611	48.098	0	27.00	0	9.2740	0	32.2840	0	24.950	0	26.771	0	265.1	4	93.2	4	-1E+10	1	-1E+10	1	-1E+10	1	-1E+10	1	-1E+10	1	-1E+10	1
4902663	20	C	02/19/2024	10:12	-127.611	48.098	0	27.80	0	9.2730	0	32.2840	0	24.950	0	27.565	0	265.1	4	93.2	4	-1E+10	1	-1E+10	1	-1E+10	1	-1E+10	1	-1E+10	1	-1E+10	1
4902663	20	C	02/19/2024	10:12	-127.611	48.098	0	28.70	0	9.2730	0	32.2850	0	24.951	0	28.457	0	264.9	4	93.1	4	-1E+10	1	-1E+10	1	-1E+10	1	-1E+10	1	-1E+10	1	-1E+10	1
4902663	20	C	02/19/2024	10:12	-127.611	48.098	0	29.90	0	9.2700	0	32.2850	0	24.951	0	29.647	0	265.0	4	93.1	4	-1E+10	1	-1E+10	1	-1E+10	1	-1E+10	1	-1E+10	1	-1E+10	1
4902663	20	C	02/19/2024	10:12	-127.611	48.098	0	31.30	0	9.2700	0	32.2860	0	24.952	0	31.035	0	264.9	4	93.1	4	-1E+10	1	-1E+10	1	-1E+10	1	-1E+10	1	-1E+10	1	-1E+10	1
4902663	20	C	02/19/2024	10:12	-127.611	48.098	0	32.10	0	9.2700	0	32.2860	0	24.952	0	31.828	0	264.9	4	93.1	4	-1E+10	1	-1E+10	1	-1E+10	1	-1E+10	1	-1E+10	1	-1E+10	1
4902663	20	C	02/19/2024	10:12	-127.611	48.098	0	33.00	0	9.2690	0	32.2860	0	24.952	0	32.720	0	264.7	4	93.1	4	-1E+10	1	-1E+10	1	-1E+10	1	-1E+10	1	-1E+10	1	-1E+10	1
4902663	20	C	02/19/2024	10:12	-127.611	48.098	0	33.80	0	9.2690	0	32.2860	0	24.952	0	33.513	0	264.7	4	93.0	4	-1E+10	1	-1E+10	1	-1E+10	1	-1E+10	1	-1E+10	1	-1E+10	1
4902663	20	C	02/19/2024	10:12	-127.611	48.098	0	34.70	0	9.2690	0	32.2860	0	24.952	0	34.406	0	264.6	4	93.0	4	-1E+10	1	-1E+10	1	-1E+10	1	-1E+10	1	-1E+10	1	-1E+10	1
4902663	20	C	02/19/2024	10:12	-127.611	48.098	0	35.90	0	9.2670	0	32.2860	0	24.953	0	35.595	0	264.6	4	93.0	4	-1E+10	1	-1E+10	1	-1E+10	1	-1E+10	1	-1E+10	1	-1E+10	1
4902663	20	C	02/19/2024	10:12	-127.611	48.098	0	37.20	0	9.2660	0	32.2860	0	24.953	0	36.884	0	264.5	4	93.0	4	-1E+10	1	-1E+10	1	-1E+10	1	-1E+10	1	-1E+10	1	-1E+10	1
4902663	20	C	02/19/2024	10:12	-127.611	48.098	0	38.10	0	9.2640	0	32.2860	0	24.953	0	37.776	0	264.4	4	92.9	4	-1E+10	1	-1E+10	1	-1E+10	1	-1E+10	1	-1E+10	1	-1E+10	1
4902663	20	C	02/19/2024	10:12	-127.611	48.098	0	38.90	0	9.2600	0	32.2870	0	24.955	0	38.570	0	264.3	4	92.9	4	-1E+10	1	-1E+10	1	-1E+10	1	-1E+10	1	-1E+10	1	-1E+10	1
4902663	20	C	02/19/2024	10:12	-127.611	48.098	0	39.80	0	9.2580	0	32.2870	0	24.955	0	39.462	0	264.3	4	92.9	4	-1E+10	1	-1E+10	1	-1E+10	1	-1E+10	1	-1E+10	1	-1E+10	1
4902663	20	C	02/19/2024	10:12	-127.611	48.098	0	40.70	0	9.2570	0	32.2870	0	24.955	0	40.354	0	264.2	4	92.8	4	-1E+10	1	-1E+10	1	-1E+10	1	-1E+10	1	-1E+10	1	-1E+10	1
4902663	20	C	02/19/2024	10:12	-127.611	48.098	0	41.90	0	9.2580	0	32.2870	0	24.955	0	41.544	0	264.1	4	92.8	4	-1E+10	1	-1E+10	1	-1E+10	1	-1E+10	1	-1E+10	1	-1E+10	1
4902663	20	C	02/19/2024	10:12	-127.611	48.098	0	43.30	0	9.2580	0	32.2870	0	24.955	0	42.932	0	264.0	4	92.8	4	-1E+10	1	-1E+10	1	-1E+10	1	-1E+10	1	-1E+10	1	-1E+10	1
4902663	20	C	02/19/2024	10:12	-127.611	48.098	0	44.20	0	9.2580	0	32.2870	0	24.955	0	43.824	0	263.9	4	92.7	4	-1E+10	1	-1E+10	1	-1E+10	1	-1E+10	1	-1E+10	1	-1E+10	1
4902663	20	C	02/19/2024	10:12	-127.611	48.098	0	45.00	0	9.2580	0	32.2870	0	24.955	0	44.617	0	263.9	4	92.7	4	-1E+10	1	-1E+10	1	-1E+10	1	-1E+10	1	-1E+10	1	-1E+10	1
4902663	20	C	02/19/2024	10:12	-127.611	48.098	0	45.90	0	9.2580	0	32.2870	0	24.955	0	45.509	0	263.7	4	92.7	4	-1E+10	1	-1E+10	1	-1E+10	1	-1E+10	1	-1E+10	1	-1E+10	1
4902663	20	C	02/19/2024	10:12	-127.611	48.098	0	46.80	0	9.2580	0	32.2870	0	24.955	0	46.402	0	263.6	4	92.6	4	-1E+10	1	-1E+10	1	-1E+10	1	-1E+10	1	-1E+10	1	-1E+10	1
4902663	20	C	02/19/2024	10:12	-127.611	48.098	0	47.60	0	9.2580	0	32.2870	0	24.955	0	47.195	0	263.4	4	92.6	4	-1E+10	1	-1E+10	1	-1E+10	1	-1E+10	1	-1E+10	1	-1E+10	1
4902663	20	C	02/19/2024	10:12	-127.611	48.098	0	48.90	0	9.2580	0	32.2870	0	24.955	0	48.483	0	263.3	4	92.5	4	-1E+10	1	-1E+10	1	-1E+10	1	-1E+10	1	-1E+10	1	-1E+10	1
4902663	20	C	02/19/2024	10:12	-127.611	48.098	0	50.30	0	9.2580	0	32.2870	0	24.955	0	49.871	0	263.0	4	92.4	4	-1E+10	1	-1E+10	1	-1E+10	1	-1E+10	1	-1E+10	1	-1E+10	1
4902663	20	C	02/19/2024	10:12	-127.611	48.098	0	51.10	0	9.2560	0	32.2870	0	24.956	0	50.664	0	262.8	4	92.4	4	-1E+10	1	-1E+10	1	-1E+10	1	-1E+10	1	-1E+10	1	-1E+10	1
4902663	20	C	02/19/2024	10:12	-127.611	48.098	0	52.00	0	9.2560	0	32.2880	0	24.956	0	51.557	0	262.7	4	92.3	4	-1E+10	1	-1E+10	1	-1E+10	1	-1E+10	1	-1E+10	1	-1E+10	1
4902663	20	C	02/19/2024	10:12	-127.611	48.098	0	52.90	0	9.2560	0	32.2880	0	24.956	0	52.449	0	262.5	4	92.2	4	-1E+10	1	-1E+10	1	-1E+10	1	-1E+10	1	-1E+10	1	-1E+10	1
4902663	20	C	02/19/2024	10:12	-127.611	48.098	0	53.70	0	9.2560	0	32.2870	0	24.956	0	53.242	0	262.3	4	92.2	4	-1E+10	1	-1E+10	1	-1E+10	1	-1E+10	1	-1E+10	1	-1E+10	1
4902663	20	C	02/19/2024	10:12	-127.611	48.098	0	55.00	0	9.2560	0	32.2880	0	24.956	0	54.531	0	261.8	4	92.0	4	-1E+10	1	-1E+10	1	-1E+10	1	-1E+10	1	-1E+10	1	-1E+10	1
4902663	20	C	02/19/2024	10:12	-127.611	48.098	0	56.30	0	9.2560	0	32.2870	0	24.956	0	55.819	0	261.5	4	91.9	4	-1E+10	1	-1E+10	1	-1E+10	1	-1E+10	1	-1E+10	1	-1E+10	1
4902663	20	C	02/19/2024	10:12	-127.611	48.098	0	57.10	0	9.2560	0	32.2870	0	24.956	0	56.613	0	261.2	4	91.8	4	-1E+10	1	-1E+10	1	-1E+10	1	-1E+10	1	-1E+10	1	-1E+10	1
4902663	20	C	02/19/2024	10:12	-127.611	48.098	0	58.00	0	9.2560	0	32.2870	0	24.956	0	57.505	0	260.8	4	91.7	4	-1E+10	1	-1E+10	1	-1E+10	1	-1E+10	1	-1E+10	1	-1E+10	1
4902663	20	C	02/19/2024	10:12	-127.611	48.098	0	58.90	0	9.2560	0	32.2880	0	24.956	0	58.397	0	260.3	4	91.5	4	-1E+10	1	-1E+10	1	-1E+10	1	-1E+10	1	-1E+10	1	-1E+10	1
4902663	20	C	02/19/2024	10:12	-127.611	48.098	0	59.80	0	9.2550	0	32.2880	0	24.957	0	59.289	0	259.9	4	91.3	4	-1E+10	1	-1E+10	1	-1E+10	1	-1E+10	1	-1E+10	1	-1E+10	1
4902663	20	C	02/19/2024	10:12	-127.611	48.098	0	61.00	0	9.2540	0	32.2880	0	24.957	0	60.479	0	258.9	4	91.0	4	-1E+10	1	-1E+10	1	-1E+10	1	-1E+10	1	-1E+10	1	-1E+10	1
4902663	20	C	02/19/2024	10:12	-127.611	48.098	0	62.30	0	9.2520	0	32.2880	0	24.957	0	61.767	0	257.7	4	90.5	4	-1E+10	1	-1E+10	1	-1E+10	1	-1E+10	1	-1E+10	1	-1E+10	1
4902663	20	C	02/19/2024	10:12	-127.611	48.098	0	63.10	0	9.2510	0	32.2890	0	24.958	0	62.560	0	256.6	4	90.2	4	-1E+10	1	-1E+10	1	-1E+10	1	-1E+10	1	-1E+10	1	-1E+10	1
4902663	20	C	02/19/2024	10:12	-127.611	48.098	0	63.90	0	9.2490	0	32.2890	0	24.958	0	63.353	0	255.5	4	89.8	4	-1E+10	1	-1E+10	1	-1E+10	1	-1E+10	1	-1E+10	1	-1E+10	1
4902663	20	C	02/19/2024	10:12	-127.611	48.098	0	64.80	0	9.2400	0	32.2910	0	24.961	0	64.246	0	254.0	4	89.2	4	-1E+10	1	-1E+10	1	-1E+10	1	-1E+10	1	-1E+10	1	-1E+10	1
4902663	20	C	02/19/2024	10:12	-127.611	48.098	0	66.00	0	9.2200	0	32.2970	0	24.969	0	65.435	0	251.7	4	88.4	4	-1E+10	1	-1E+10	1	-1E+10	1	-1E+10	1	-1E+10	1	-1E+10	1
4902663	20	C	02/19/2024	10:12	-127.611	48.098	0	67.30	0	9.2030	0	32.3020	0	24.976	0	66.724	0	249.1	4	87.4	4	-1E+10	1	-1E+10	1	-1E+10	1	-1E+10	1	-1E+10	1	-1E+10	1
4902663	20	C	02/19/2024	10:12	-127.611	48.098	0	68.10	0	9.1800	0	32.3120	0	24.987	0	67.517	0	247.1	4	86.7	4	-1E+10	1	-1E+10	1	-1E+10	1	-1E+10	1	-1E+10	1	-1E+10	1
4902663	20	C	02/19/2024	10:12	-127.611	48.098	0	69.00	0	9.0640	0	32.3520	0	25.037	0	68.409	0	245.5	4	86.0	4	-1E+10	1	-1E+10	1	-1E+10	1	-1E+10	1	-1E+10	1	-1E+10	1
4902663	20	C	02/19/2024	10:12	-127.611	48.098	0	69.90	0	9.0290	0	32.3640	0	25.052	0	69.301	0	244.3	4	85.5	4	-1E+10	1	-1E+10	1	-1E+10	1	-1E+10	1	-1E+10	1	-1E+10	1
4902663	20	C	02/19/2024	10:12	-127.611	48.098	0	70.80	0	9.0210	0	32.3670	0	25.055	0	70.193	0	242.7	4	84.9	4	-1E+10	1	-1E+10	1	-1E+10	1	-1E+10	1	-1E+10	1	-1E+10	1
4902663	20	C	02/19/2024	10:12	-127.611	48.098	0	71.60	0	9.0180	0	32.3660	0	25.055	0	70.986	0	240.8	4	84.2	4	-1E+10	1	-1E+10	1	-1E+10	1	-1E+10	1	-1E+10	1	-1E+10	1
4902663	20	C	02/19/2024	10:12	-127.611	48.098	0	72.90	0	9.0160	0	32.3650	0	25.054	0	72.275	0	237.6	4	83.1	4	-1E+10	1	-1E+10	1	-1E+10	1	-1E+10	1	-1E+10	1	-1E+10	1
4902663	20	C	02/19/2024	10:12	-127.611	48.098	0	74.10	0	9.0060	0	32.3660	0	25.057	0	73.464	0	234.1	4	81.8	4	-1E+10	1	-1E+10	1	-1E+10	1	-1E+10	1	-1E+10	1	-1E+10	1
4902663	20	C	02/19/2024	10:12	-127.611	48.098	0	74.90	0	8.9400	0	32.3870	0	25.083	0	74.257	0	231.6	4	80.9	4	-1E+10	1	-1E+10	1	-1E+10	1	-1E+10	1	-1E+10	1	-1E+10	1
4902663	20	C	02/19/2024	10:12	-127.611	48.098	0	76.00	0	8.7260	0	32.4560	0	25.170	0	75.348	0	227.4	4	79.1	4	-1E+10	1	-1E+10	1	-1E+10	1	-1E+10	1	-1E+10	1	-1E+10	1
4902663	20	C	02/19/2024	10:12	-127.611	48.098	0	77.30	0	8.4340	0	32.5560	0	25.293	0	76.636	0	223.5	4	77.3	4	-1E+10	1	-1E+10	1	-1E+10	1	-1E+10	1	-1E+10	1	-1E+10	1
4902663	20	C	02/19/2024	10:12	-127.611	48.098	0	77.90	0	8.3570	0	32.5830	0	25.325	0	77.231	0	221.4	4	76.4	4	-1E+10	1	-1E+10	1	-1E+10	1	-1E+10	1	-1E+10	1	-1E+10	1
4902663	20	C	02/19/2024	10:12	-127.611	48.098	0	78.80	0	8.3030	0	32.5970	0	25.344	0	78.123	0	218.1	4	75.2	4	-1E+10	1	-1E+10	1	-1E+10	1	-1E+10	1	-1E+10	1	-1E+10	1
4902663	20	C	02/19/2024	10:12	-127.611	48.098	0	79.90	0	8.2010	0	32.6360	0	25.390	0	79.213	0	214.9	4	74.0	4	-1E+10	1	-1E+10	1	-1E+10	1	-1E+10	1	-1E+10	1	-1E+10	1
4902663	20	C	02/19/2024	10:12	-127.611	48.098	0	80.90	0	8.0990	0	32.6670	0	25.429	0	80.205	0	212.0	4	72.8	4	-1E+10	1	-1E+10	1	-1E+10	1	-1E+10	1	-1E+10	1	-1E+10	1
4902663	20	C	02/19/2024	10:12	-127.611	48.098	0	82.00	0	8.0130	0	32.6980	0	25.466	0	81.295	0	208.5	4	71.5	4	-1E+10	1	-1E+10	1	-1E+10	1	-1E+10	1	-1E+10	1	-1E+10	1
4902663	20	C	02/19/2024	10:12	-127.611	48.098	0	82.70	0	7.9710	0	32.7280	0	25.495	0	81.989	0	211.2	4	72.3	4	-1E+10	1	-1E+10	1	-1E+10	1	-1E+10	1	-1E+10	1	-1E+10	1
4902663	20	C	02/19/2024	10:12	-127.611	48.098	0	83.80	0	7.9190	0	32.7760	0	25.541	0	83.079	0	207.0	4	70.9	4	-1E+10	1	-1E+10	1	-1E+10	1	-1E+10	1	-1E+10	1	-1E+10	1
4902663	20	C	02/19/2024	10:12	-127.611	48.098	0	85.00	0	7.8910	0	32.8240	0	25.582	0	84.269	0	203.1	4	69.5	4	-1E+10	1	-1E+10	1	-1E+10	1	-1E+10	1	-1E+10	1	-1E+10	1
4902663	20	C	02/19/2024	10:12	-127.611	48.098	0	85.80	0	7.9110	0	32.8630	0	25.610	0	85.062	0	200.5	4	68.7	4	-1E+10	1	-1E+10	1	-1E+10	1	-1E+10	1	-1E+10	1	-1E+10	1
4902663	20	C	02/19/2024	10:12	-127.611	48.098	0	86.70	0	7.8380	0	32.9040	0	25.653	0	85.954	0	198.9	4	68.0	4	-1E+10	1	-1E+10	1	-1E+10	1	-1E+10	1	-1E+10	1	-1E+10	1
4902663	20	C	02/19/2024	10:12	-127.611	48.098	0	87.90	0	7.8290	0	32.9160	0	25.664	0	87.143	0	196.2	4	67.1	4	-1E+10	1	-1E+10	1	-1E+10	1	-1E+10	1	-1E+10	1	-1E+10	1
4902663	20	C	02/19/2024	10:12	-127.611	48.098	0	89.30	0	7.8300	0	32.9240	0	25.670	0	88.531	0	193.3	4	66.1	4	-1E+10	1	-1E+10	1	-1E+10	1	-1E+10	1	-1E+10	1	-1E+10	1
4902663	20	C	02/19/2024	10:12	-127.611	48.098	0	90.20	0	7.8050	0	32.9550	0	25.698	0	89.423	0	191.6	4	65.5	4	-1E+10	1	-1E+10	1	-1E+10	1	-1E+10	1	-1E+10	1	-1E+10	1
4902663	20	C	02/19/2024	10:12	-127.611	48.098	0	91.10	0	7.8190	0	32.9800	0	25.715	0	90.315	0	190.1	4	65.0	4	-1E+10	1	-1E+10	1	-1E+10	1	-1E+10	1	-1E+10	1	-1E+10	1
4902663	20	C	02/19/2024	10:12	-127.611	48.098	0	92.00	0	7.8180	0	32.9860	0	25.720	0	91.207	0	188.4	4	64.5	4	-1E+10	1	-1E+10	1	-1E+10	1	-1E+10	1	-1E+10	1	-1E+10	1
4902663	20	C	02/19/2024	10:12	-127.611	48.098	0	92.90	0	7.8150	0	32.9880	0	25.722	0	92.099	0	186.6	4	63.8	4	-1E+10	1	-1E+10	1	-1E+10	1	-1E+10	1	-1E+10	1	-1E+10	1
4902663	20	C	02/19/2024	10:12	-127.611	48.098	0	93.80	0	7.8150	0	32.9950	0	25.728	0	92.991	0	184.4	4	63.1	4	-1E+10	1	-1E+10	1	-1E+10	1	-1E+10	1	-1E+10	1	-1E+10	1
4902663	20	C	02/19/2024	10:12	-127.611	48.098	0	94.80	0	7.8160	0	33.0190	0	25.746	0	93.982	0	182.5	4	62.4	4	-1E+10	1	-1E+10	1	-1E+10	1	-1E+10	1	-1E+10	1	-1E+10	1
4902663	20	C	02/19/2024	10:12	-127.611	48.098	0	95.70	0	7.8240	0	33.0470	0	25.767	0	94.874	0	180.4	4	61.7	4	-1E+10	1	-1E+10	1	-1E+10	1	-1E+10	1	-1E+10	1	-1E+10	1
4902663	20	C	02/19/2024	10:12	-127.611	48.098	0	96.60	0	7.8000	0	33.0740	0	25.792	0	95.766	0	178.3	4	61.0	4	-1E+10	1	-1E+10	1	-1E+10	1	-1E+10	1	-1E+10	1	-1E+10	1
4902663	20	C	02/19/2024	10:12	-127.611	48.098	0	97.90	0	7.8200	0	33.0980	0	25.808	0	97.055	0	175.5	4	60.1	4	-1E+10	1	-1E+10	1	-1E+10	1	-1E+10	1	-1E+10	1	-1E+10	1
4902663	20	C	02/19/2024	10:12	-127.611	48.098	0	99.30	0	7.8760	0	33.1520	0	25.842	0	98.442	0	172.7	4	59.2	4	-1E+10	1	-1E+10	1	-1E+10	1	-1E+10	1	-1E+10	1	-1E+10	1
4902663	20	C	02/19/2024	10:12	-127.611	48.098	0	100.20	0	7.8850	0	33.1940	0	25.874	0	99.334	0	171.3	4	58.8	4	-1E+10	1	-1E+10	1	-1E+10	1	-1E+10	1	-1E+10	1	-1E+10	1
4902663	20	C	02/19/2024	10:12	-127.611	48.098	0	101.20	0	7.8630	0	33.2380	0	25.912	0	100.325	0	170.1	4	58.4	4	-1E+10	1	-1E+10	1	-1E+10	1	-1E+10	1	-1E+10	1	-1E+10	1
4902663	20	C	02/19/2024	10:12	-127.611	48.098	0	102.10	0	7.8560	0	33.2450	0	25.918	0	101.217	0	169.1	4	58.0	4	-1E+10	1	-1E+10	1	-1E+10	1	-1E+10	1	-1E+10	1	-1E+10	1
4902663	20	C	02/19/2024	10:12	-127.611	48.098	0	103.10	0	7.8450	0	33.2610	0	25.932	0	102.208	0	167.8	4	57.5	4	-1E+10	1	-1E+10	1	-1E+10	1	-1E+10	1	-1E+10	1	-1E+10	1
4902663	20	C	02/19/2024	10:12	-127.611	48.098	0	104.00	0	7.8360	0	33.2880	0	25.955	0	103.100	0	166.7	4	57.2	4	-1E+10	1	-1E+10	1	-1E+10	1	-1E+10	1	-1E+10	1	-1E+10	1
4902663	20	C	02/19/2024	10:12	-127.611	48.098	0	105.00	0	7.8310	0	33.2980	0	25.964	0	104.091	0	165.7	4	56.8	4	-1E+10	1	-1E+10	1	-1E+10	1	-1E+10	1	-1E+10	1	-1E+10	1
4902663	20	C	02/19/2024	10:12	-127.611	48.098	0	106.00	0	7.8300	0	33.3010	0	25.966	0	105.083	0	164.5	4	56.4	4	-1E+10	1	-1E+10	1	-1E+10	1	-1E+10	1	-1E+10	1	-1E+10	1
4902663	20	C	02/19/2024	10:12	-127.611	48.098	0	106.90	0	7.8230	0	33.3140	0	25.977	0	105.975	0	163.4	4	56.1	4	-1E+10	1	-1E+10	1	-1E+10	1	-1E+10	1	-1E+10	1	-1E+10	1
4902663	20	C	02/19/2024	10:12	-127.611	48.098	0	107.90	0	7.7940	0	33.3690	0	26.025	0	106.966	0	162.6	4	55.8	4	-1E+10	1	-1E+10	1	-1E+10	1	-1E+10	1	-1E+10	1	-1E+10	1
4902663	20	C	02/19/2024	10:12	-127.611	48.098	0	109.00	0	7.7840	0	33.3770	0	26.032	0	108.056	0	162.0	4	55.5	4	-1E+10	1	-1E+10	1	-1E+10	1	-1E+10	1	-1E+10	1	-1E+10	1
4902663	20	C	02/19/2024	10:12	-127.611	48.098	0	110.00	0	7.7820	0	33.3830	0	26.038	0	109.047	0	161.4	4	55.3	4	-1E+10	1	-1E+10	1	-1E+10	1	-1E+10	1	-1E+10	1	-1E+10	1
4902663	20	C	02/19/2024	10:12	-127.611	48.098	0	111.10	0	7.7820	0	33.3900	0	26.043	0	110.137	0	160.7	4	55.1	4	-1E+10	1	-1E+10	1	-1E+10	1	-1E+10	1	-1E+10	1	-1E+10	1
4902663	20	C	02/19/2024	10:12	-127.611	48.098	0	112.10	0	7.7770	0	33.4020	0	26.053	0	111.128	0	159.9	4	54.8	4	-1E+10	1	-1E+10	1	-1E+10	1	-1E+10	1	-1E+10	1	-1E+10	1
4902663	20	C	02/19/2024	10:12	-127.611	48.098	0	113.10	0	7.7530	0	33.4220	0	26.072	0	112.119	0	159.1	4	54.5	4	-1E+10	1	-1E+10	1	-1E+10	1	-1E+10	1	-1E+10	1	-1E+10	1
4902663	20	C	02/19/2024	10:12	-127.611	48.098	0	114.10	0	7.7320	0	33.4340	0	26.085	0	113.110	0	158.3	4	54.2	4	-1E+10	1	-1E+10	1	-1E+10	1	-1E+10	1	-1E+10	1	-1E+10	1
4902663	20	C	02/19/2024	10:12	-127.611	48.098	0	114.90	0	7.6930	0	33.4570	0	26.108	0	113.903	0	157.9	4	54.0	4	-1E+10	1	-1E+10	1	-1E+10	1	-1E+10	1	-1E+10	1	-1E+10	1
4902663	20	C	02/19/2024	10:12	-127.611	48.098	0	115.90	0	7.7050	0	33.4950	0	26.137	0	114.894	0	158.0	4	54.1	4	-1E+10	1	-1E+10	1	-1E+10	1	-1E+10	1	-1E+10	1	-1E+10	1
4902663	20	C	02/19/2024	10:12	-127.611	48.098	0	117.10	0	7.7080	0	33.5050	0	26.144	0	116.083	0	158.7	4	54.3	4	-1E+10	1	-1E+10	1	-1E+10	1	-1E+10	1	-1E+10	1	-1E+10	1
4902663	20	C	02/19/2024	10:12	-127.611	48.098	0	117.80	0	7.7080	0	33.5090	0	26.147	0	116.777	0	159.3	4	54.6	4	-1E+10	1	-1E+10	1	-1E+10	1	-1E+10	1	-1E+10	1	-1E+10	1
4902663	20	C	02/19/2024	10:12	-127.611	48.098	0	119.00	0	7.6580	0	33.5160	0	26.160	0	117.966	0	160.1	4	54.8	4	-1E+10	1	-1E+10	1	-1E+10	1	-1E+10	1	-1E+10	1	-1E+10	1
4902663	20	C	02/19/2024	10:12	-127.611	48.098	0	120.20	0	7.5430	0	33.5270	0	26.185	0	119.156	0	160.4	4	54.7	4	-1E+10	1	-1E+10	1	-1E+10	1	-1E+10	1	-1E+10	1	-1E+10	1
4902663	20	C	02/19/2024	10:12	-127.611	48.098	0	121.00	0	7.5320	0	33.5390	0	26.196	0	119.948	0	160.5	4	54.8	4	-1E+10	1	-1E+10	1	-1E+10	1	-1E+10	1	-1E+10	1	-1E+10	1
4902663	20	C	02/19/2024	10:12	-127.611	48.098	0	121.80	0	7.4910	0	33.5440	0	26.206	0	120.741	0	160.6	4	54.7	4	-1E+10	1	-1E+10	1	-1E+10	1	-1E+10	1	-1E+10	1	-1E+10	1
4902663	20	C	02/19/2024	10:12	-127.611	48.098	0	122.70	0	7.4650	0	33.5500	0	26.214	0	121.633	0	160.6	4	54.7	4	-1E+10	1	-1E+10	1	-1E+10	1	-1E+10	1	-1E+10	1	-1E+10	1
4902663	20	C	02/19/2024	10:12	-127.611	48.098	0	123.90	0	7.4260	0	33.5590	0	26.227	0	122.822	0	160.4	4	54.6	4	-1E+10	1	-1E+10	1	-1E+10	1	-1E+10	1	-1E+10	1	-1E+10	1
4902663	20	C	02/19/2024	10:12	-127.611	48.098	0	125.20	0	7.3890	0	33.5800	0	26.248	0	124.111	0	160.2	4	54.5	4	-1E+10	1	-1E+10	1	-1E+10	1	-1E+10	1	-1E+10	1	-1E+10	1
4902663	20	C	02/19/2024	10:12	-127.611	48.098	0	126.00	0	7.3830	0	33.5850	0	26.253	0	124.903	0	160.1	4	54.5	4	-1E+10	1	-1E+10	1	-1E+10	1	-1E+10	1	-1E+10	1	-1E+10	1
4902663	20	C	02/19/2024	10:12	-127.611	48.098	0	126.90	0	7.3770	0	33.5950	0	26.262	0	125.795	0	160.0	4	54.4	4	-1E+10	1	-1E+10	1	-1E+10	1	-1E+10	1	-1E+10	1	-1E+10	1
4902663	20	C	02/19/2024	10:12	-127.611	48.098	0	127.70	0	7.3800	0	33.5990	0	26.265	0	126.588	0	159.9	4	54.4	4	-1E+10	1	-1E+10	1	-1E+10	1	-1E+10	1	-1E+10	1	-1E+10	1
4902663	20	C	02/19/2024	10:12	-127.611	48.098	0	129.00	0	7.3780	0	33.6070	0	26.271	0	127.876	0	159.9	4	54.4	4	-1E+10	1	-1E+10	1	-1E+10	1	-1E+10	1	-1E+10	1	-1E+10	1
4902663	20	C	02/19/2024	10:12	-127.611	48.098	0	130.30	0	7.3420	0	33.6180	0	26.285	0	129.165	0	159.9	4	54.4	4	-1E+10	1	-1E+10	1	-1E+10	1	-1E+10	1	-1E+10	1	-1E+10	1
4902663	20	C	02/19/2024	10:12	-127.611	48.098	0	131.20	0	7.3360	0	33.6180	0	26.286	0	130.057	0	159.9	4	54.4	4	-1E+10	1	-1E+10	1	-1E+10	1	-1E+10	1	-1E+10	1	-1E+10	1
4902663	20	C	02/19/2024	10:12	-127.611	48.098	0	132.10	0	7.3250	0	33.6220	0	26.290	0	130.948	0	159.8	4	54.3	4	-1E+10	1	-1E+10	1	-1E+10	1	-1E+10	1	-1E+10	1	-1E+10	1
4902663	20	C	02/19/2024	10:12	-127.611	48.098	0	133.00	0	7.3140	0	33.6270	0	26.296	0	131.840	0	159.6	4	54.2	4	-1E+10	1	-1E+10	1	-1E+10	1	-1E+10	1	-1E+10	1	-1E+10	1
4902663	20	C	02/19/2024	10:12	-127.611	48.098	0	133.80	0	7.3120	0	33.6280	0	26.297	0	132.633	0	159.5	4	54.2	4	-1E+10	1	-1E+10	1	-1E+10	1	-1E+10	1	-1E+10	1	-1E+10	1
4902663	20	C	02/19/2024	10:12	-127.611	48.098	0	134.70	0	7.3170	0	33.6330	0	26.300	0	133.525	0	159.2	4	54.1	4	-1E+10	1	-1E+10	1	-1E+10	1	-1E+10	1	-1E+10	1	-1E+10	1
4902663	20	C	02/19/2024	10:12	-127.611	48.098	0	135.60	0	7.3250	0	33.6390	0	26.304	0	134.417	0	159.0	4	54.1	4	-1E+10	1	-1E+10	1	-1E+10	1	-1E+10	1	-1E+10	1	-1E+10	1
4902663	20	C	02/19/2024	10:12	-127.611	48.098	0	136.60	0	7.3190	0	33.6450	0	26.309	0	135.408	0	158.8	4	54.0	4	-1E+10	1	-1E+10	1	-1E+10	1	-1E+10	1	-1E+10	1	-1E+10	1
4902663	20	C	02/19/2024	10:12	-127.611	48.098	0	137.90	0	7.3330	0	33.6530	0	26.314	0	136.696	0	158.5	4	53.9	4	-1E+10	1	-1E+10	1	-1E+10	1	-1E+10	1	-1E+10	1	-1E+10	1
4902663	20	C	02/19/2024	10:12	-127.611	48.098	0	139.30	0	7.3330	0	33.6540	0	26.315	0	138.083	0	158.0	4	53.7	4	-1E+10	1	-1E+10	1	-1E+10	1	-1E+10	1	-1E+10	1	-1E+10	1
4902663	20	C	02/19/2024	10:12	-127.611	48.098	0	140.20	0	7.3120	0	33.6570	0	26.320	0	138.975	0	157.8	4	53.6	4	-1E+10	1	-1E+10	1	-1E+10	1	-1E+10	1	-1E+10	1	-1E+10	1
4902663	20	C	02/19/2024	10:12	-127.611	48.098	0	141.10	0	7.2820	0	33.6640	0	26.330	0	139.867	0	157.4	4	53.5	4	-1E+10	1	-1E+10	1	-1E+10	1	-1E+10	1	-1E+10	1	-1E+10	1
4902663	20	C	02/19/2024	10:12	-127.611	48.098	0	142.10	0	7.2620	0	33.6690	0	26.336	0	140.858	0	156.9	4	53.3	4	-1E+10	1	-1E+10	1	-1E+10	1	-1E+10	1	-1E+10	1	-1E+10	1
4902663	20	C	02/19/2024	10:12	-127.611	48.098	0	143.00	0	7.2580	0	33.6710	0	26.338	0	141.750	0	156.4	4	53.1	4	-1E+10	1	-1E+10	1	-1E+10	1	-1E+10	1	-1E+10	1	-1E+10	1
4902663	20	C	02/19/2024	10:12	-127.611	48.098	0	144.00	0	7.2560	0	33.6750	0	26.342	0	142.741	0	155.8	4	52.9	4	-1E+10	1	-1E+10	1	-1E+10	1	-1E+10	1	-1E+10	1	-1E+10	1
4902663	20	C	02/19/2024	10:12	-127.611	48.098	0	145.00	0	7.2140	0	33.7000	0	26.367	0	143.731	0	155.3	4	52.7	4	-1E+10	1	-1E+10	1	-1E+10	1	-1E+10	1	-1E+10	1	-1E+10	1
4902663	20	C	02/19/2024	10:12	-127.611	48.098	0	146.00	0	7.2010	0	33.7040	0	26.372	0	144.722	0	154.8	4	52.5	4	-1E+10	1	-1E+10	1	-1E+10	1	-1E+10	1	-1E+10	1	-1E+10	1
4902663	20	C	02/19/2024	10:12	-127.611	48.098	0	146.90	0	7.1900	0	33.7130	0	26.381	0	145.614	0	154.3	4	52.3	4	-1E+10	1	-1E+10	1	-1E+10	1	-1E+10	1	-1E+10	1	-1E+10	1
4902663	20	C	02/19/2024	10:12	-127.611	48.098	0	147.90	0	7.1890	0	33.7200	0	26.387	0	146.605	0	153.8	4	52.2	4	-1E+10	1	-1E+10	1	-1E+10	1	-1E+10	1	-1E+10	1	-1E+10	1
4902663	20	C	02/19/2024	10:12	-127.611	48.098	0	149.00	0	7.1830	0	33.7240	0	26.391	0	147.695	0	153.3	4	52.0	4	-1E+10	1	-1E+10	1	-1E+10	1	-1E+10	1	-1E+10	1	-1E+10	1
4902663	20	C	02/19/2024	10:12	-127.611	48.098	0	150.00	0	7.1770	0	33.7280	0	26.395	0	148.686	0	152.8	4	51.8	4	-1E+10	1	-1E+10	1	-1E+10	1	-1E+10	1	-1E+10	1	-1E+10	1
4902663	20	C	02/19/2024	10:12	-127.611	48.098	0	151.00	0	7.1680	0	33.7330	0	26.400	0	149.677	0	152.0	4	51.5	4	-1E+10	1	-1E+10	1	-1E+10	1	-1E+10	1	-1E+10	1	-1E+10	1
4902663	20	C	02/19/2024	10:12	-127.611	48.098	0	152.10	0	7.1680	0	33.7370	0	26.403	0	150.767	0	151.1	4	51.2	4	-1E+10	1	-1E+10	1	-1E+10	1	-1E+10	1	-1E+10	1	-1E+10	1
4902663	20	C	02/19/2024	10:12	-127.611	48.098	0	153.10	0	7.1540	0	33.7470	0	26.413	0	151.758	0	150.1	4	50.9	4	-1E+10	1	-1E+10	1	-1E+10	1	-1E+10	1	-1E+10	1	-1E+10	1
4902663	20	C	02/19/2024	10:12	-127.611	48.098	0	154.20	0	7.1350	0	33.7590	0	26.425	0	152.848	0	149.2	4	50.5	4	-1E+10	1	-1E+10	1	-1E+10	1	-1E+10	1	-1E+10	1	-1E+10	1
4902663	20	C	02/19/2024	10:12	-127.611	48.098	0	155.30	0	7.1500	0	33.7750	0	26.435	0	153.938	0	148.6	4	50.3	4	-1E+10	1	-1E+10	1	-1E+10	1	-1E+10	1	-1E+10	1	-1E+10	1
4902663	20	C	02/19/2024	10:12	-127.611	48.098	0	156.40	0	7.1410	0	33.7770	0	26.438	0	155.027	0	148.0	4	50.2	4	-1E+10	1	-1E+10	1	-1E+10	1	-1E+10	1	-1E+10	1	-1E+10	1
4902663	20	C	02/19/2024	10:12	-127.611	48.098	0	157.40	0	7.1360	0	33.7760	0	26.438	0	156.018	0	147.4	4	49.9	4	-1E+10	1	-1E+10	1	-1E+10	1	-1E+10	1	-1E+10	1	-1E+10	1
4902663	20	C	02/19/2024	10:12	-127.611	48.098	0	158.50	0	7.1280	0	33.7770	0	26.440	0	157.108	0	146.6	4	49.7	4	-1E+10	1	-1E+10	1	-1E+10	1	-1E+10	1	-1E+10	1	-1E+10	1
4902663	20	C	02/19/2024	10:12	-127.611	48.098	0	159.60	0	7.1240	0	33.7780	0	26.441	0	158.198	0	145.7	4	49.4	4	-1E+10	1	-1E+10	1	-1E+10	1	-1E+10	1	-1E+10	1	-1E+10	1
4902663	20	C	02/19/2024	10:12	-127.611	48.098	0	160.60	0	7.1190	0	33.7810	0	26.444	0	159.189	0	144.8	4	49.0	4	-1E+10	1	-1E+10	1	-1E+10	1	-1E+10	1	-1E+10	1	-1E+10	1
4902663	20	C	02/19/2024	10:12	-127.611	48.098	0	161.70	0	7.1100	0	33.7840	0	26.448	0	160.279	0	144.0	4	48.7	4	-1E+10	1	-1E+10	1	-1E+10	1	-1E+10	1	-1E+10	1	-1E+10	1
4902663	20	C	02/19/2024	10:12	-127.611	48.098	0	162.70	0	7.1000	0	33.7860	0	26.451	0	161.270	0	143.1	4	48.4	4	-1E+10	1	-1E+10	1	-1E+10	1	-1E+10	1	-1E+10	1	-1E+10	1
4902663	20	C	02/19/2024	10:12	-127.611	48.098	0	163.80	0	7.0540	0	33.8000	0	26.468	0	162.360	0	142.3	4	48.1	4	-1E+10	1	-1E+10	1	-1E+10	1	-1E+10	1	-1E+10	1	-1E+10	1
4902663	20	C	02/19/2024	10:12	-127.611	48.098	0	164.80	0	7.0390	0	33.7980	0	26.469	0	163.350	0	141.5	4	47.8	4	-1E+10	1	-1E+10	1	-1E+10	1	-1E+10	1	-1E+10	1	-1E+10	1
4902663	20	C	02/19/2024	10:12	-127.611	48.098	0	165.90	0	7.0340	0	33.8010	0	26.472	0	164.440	0	140.6	4	47.5	4	-1E+10	1	-1E+10	1	-1E+10	1	-1E+10	1	-1E+10	1	-1E+10	1
4902663	20	C	02/19/2024	10:12	-127.611	48.098	0	166.90	0	7.0100	0	33.8060	0	26.479	0	165.431	0	140.0	4	47.3	4	-1E+10	1	-1E+10	1	-1E+10	1	-1E+10	1	-1E+10	1	-1E+10	1
4902663	20	C	02/19/2024	10:12	-127.611	48.098	0	168.00	0	6.9790	0	33.8100	0	26.487	0	166.521	0	139.4	4	47.1	4	-1E+10	1	-1E+10	1	-1E+10	1	-1E+10	1	-1E+10	1	-1E+10	1
4902663	20	C	02/19/2024	10:12	-127.611	48.098	0	169.00	0	6.9750	0	33.8100	0	26.487	0	167.512	0	138.8	4	46.8	4	-1E+10	1	-1E+10	1	-1E+10	1	-1E+10	1	-1E+10	1	-1E+10	1
4902663	20	C	02/19/2024	10:12	-127.611	48.098	0	170.10	0	6.9550	0	33.8140	0	26.493	0	168.602	0	138.2	4	46.7	4	-1E+10	1	-1E+10	1	-1E+10	1	-1E+10	1	-1E+10	1	-1E+10	1
4902663	20	C	02/19/2024	10:12	-127.611	48.098	0	171.10	0	6.9410	0	33.8160	0	26.496	0	169.592	0	137.9	4	46.5	4	-1E+10	1	-1E+10	1	-1E+10	1	-1E+10	1	-1E+10	1	-1E+10	1
4902663	20	C	02/19/2024	10:12	-127.611	48.098	0	172.20	0	6.9240	0	33.8190	0	26.501	0	170.682	0	137.6	4	46.4	4	-1E+10	1	-1E+10	1	-1E+10	1	-1E+10	1	-1E+10	1	-1E+10	1
4902663	20	C	02/19/2024	10:12	-127.611	48.098	0	173.30	0	6.9190	0	33.8180	0	26.501	0	171.772	0	137.4	4	46.3	4	-1E+10	1	-1E+10	1	-1E+10	1	-1E+10	1	-1E+10	1	-1E+10	1
4902663	20	C	02/19/2024	10:12	-127.611	48.098	0	174.30	0	6.9050	0	33.8190	0	26.504	0	172.763	0	137.1	4	46.2	4	-1E+10	1	-1E+10	1	-1E+10	1	-1E+10	1	-1E+10	1	-1E+10	1
4902663	20	C	02/19/2024	10:12	-127.611	48.098	0	175.40	0	6.8960	0	33.8200	0	26.506	0	173.853	0	136.9	4	46.1	4	-1E+10	1	-1E+10	1	-1E+10	1	-1E+10	1	-1E+10	1	-1E+10	1
4902663	20	C	02/19/2024	10:12	-127.611	48.098	0	176.50	0	6.8820	0	33.8200	0	26.508	0	174.943	0	136.6	4	46.0	4	-1E+10	1	-1E+10	1	-1E+10	1	-1E+10	1	-1E+10	1	-1E+10	1
4902663	20	C	02/19/2024	10:12	-127.611	48.098	0	177.60	0	6.8820	0	33.8190	0	26.507	0	176.032	0	136.3	4	45.9	4	-1E+10	1	-1E+10	1	-1E+10	1	-1E+10	1	-1E+10	1	-1E+10	1
4902663	20	C	02/19/2024	10:12	-127.611	48.098	0	178.60	0	6.8760	0	33.8200	0	26.509	0	177.023	0	136.0	4	45.8	4	-1E+10	1	-1E+10	1	-1E+10	1	-1E+10	1	-1E+10	1	-1E+10	1
4902663	20	C	02/19/2024	10:12	-127.611	48.098	0	179.70	0	6.8590	0	33.8200	0	26.511	0	178.113	0	135.7	4	45.7	4	-1E+10	1	-1E+10	1	-1E+10	1	-1E+10	1	-1E+10	1	-1E+10	1
4902663	20	C	02/19/2024	10:12	-127.611	48.098	0	180.80	0	6.8150	0	33.8230	0	26.519	0	179.203	0	135.5	4	45.6	4	-1E+10	1	-1E+10	1	-1E+10	1	-1E+10	1	-1E+10	1	-1E+10	1
4902663	20	C	02/19/2024	10:12	-127.611	48.098	0	181.80	0	6.7720	0	33.8250	0	26.526	0	180.193	0	135.3	4	45.5	4	-1E+10	1	-1E+10	1	-1E+10	1	-1E+10	1	-1E+10	1	-1E+10	1
4902663	20	C	02/19/2024	10:12	-127.611	48.098	0	182.90	0	6.7650	0	33.8250	0	26.527	0	181.283	0	135.1	4	45.4	4	-1E+10	1	-1E+10	1	-1E+10	1	-1E+10	1	-1E+10	1	-1E+10	1
4902663	20	C	02/19/2024	10:12	-127.611	48.098	0	184.00	0	6.7450	0	33.8290	0	26.533	0	182.373	0	134.8	4	45.3	4	-1E+10	1	-1E+10	1	-1E+10	1	-1E+10	1	-1E+10	1	-1E+10	1
4902663	20	C	02/19/2024	10:12	-127.611	48.098	0	185.00	0	6.7240	0	33.8300	0	26.537	0	183.364	0	134.6	4	45.2	4	-1E+10	1	-1E+10	1	-1E+10	1	-1E+10	1	-1E+10	1	-1E+10	1
4902663	20	C	02/19/2024	10:12	-127.611	48.098	0	186.10	0	6.7240	0	33.8260	0	26.534	0	184.454	0	134.3	4	45.1	4	-1E+10	1	-1E+10	1	-1E+10	1	-1E+10	1	-1E+10	1	-1E+10	1
4902663	20	C	02/19/2024	10:12	-127.611	48.098	0	187.10	0	6.7210	0	33.8250	0	26.533	0	185.444	0	134.0	4	45.0	4	-1E+10	1	-1E+10	1	-1E+10	1	-1E+10	1	-1E+10	1	-1E+10	1
4902663	20	C	02/19/2024	10:12	-127.611	48.098	0	188.20	0	6.6990	0	33.8290	0	26.539	0	186.534	0	133.7	4	44.9	4	-1E+10	1	-1E+10	1	-1E+10	1	-1E+10	1	-1E+10	1	-1E+10	1
4902663	20	C	02/19/2024	10:12	-127.611	48.098	0	189.30	0	6.6880	0	33.8290	0	26.541	0	187.624	0	133.6	4	44.8	4	-1E+10	1	-1E+10	1	-1E+10	1	-1E+10	1	-1E+10	1	-1E+10	1
4902663	20	C	02/19/2024	10:12	-127.611	48.098	0	190.40	0	6.6590	0	33.8300	0	26.546	0	188.714	0	133.4	4	44.7	4	-1E+10	1	-1E+10	1	-1E+10	1	-1E+10	1	-1E+10	1	-1E+10	1
4902663	20	C	02/19/2024	10:12	-127.611	48.098	0	191.40	0	6.6440	0	33.8310	0	26.548	0	189.704	0	133.0	4	44.6	4	-1E+10	1	-1E+10	1	-1E+10	1	-1E+10	1	-1E+10	1	-1E+10	1
4902663	20	C	02/19/2024	10:12	-127.611	48.098	0	192.50	0	6.6370	0	33.8300	0	26.548	0	190.794	0	132.5	4	44.4	4	-1E+10	1	-1E+10	1	-1E+10	1	-1E+10	1	-1E+10	1	-1E+10	1
4902663	20	C	02/19/2024	10:12	-127.611	48.098	0	193.60	0	6.6260	0	33.8310	0	26.551	0	191.884	0	132.1	4	44.2	4	-1E+10	1	-1E+10	1	-1E+10	1	-1E+10	1	-1E+10	1	-1E+10	1
4902663	20	C	02/19/2024	10:12	-127.611	48.098	0	194.70	0	6.6130	0	33.8320	0	26.553	0	192.973	0	131.6	4	44.1	4	-1E+10	1	-1E+10	1	-1E+10	1	-1E+10	1	-1E+10	1	-1E+10	1
4902663	20	C	02/19/2024	10:12	-127.611	48.098	0	195.80	0	6.6010	0	33.8330	0	26.556	0	194.063	0	131.2	4	43.9	4	-1E+10	1	-1E+10	1	-1E+10	1	-1E+10	1	-1E+10	1	-1E+10	1
4902663	20	C	02/19/2024	10:12	-127.611	48.098	0	196.90	0	6.5950	0	33.8340	0	26.557	0	195.153	0	130.8	4	43.8	4	-1E+10	1	-1E+10	1	-1E+10	1	-1E+10	1	-1E+10	1	-1E+10	1
4902663	20	C	02/19/2024	10:12	-127.611	48.098	0	198.00	0	6.5840	0	33.8340	0	26.559	0	196.243	0	130.5	4	43.7	4	-1E+10	1	-1E+10	1	-1E+10	1	-1E+10	1	-1E+10	1	-1E+10	1
4902663	20	C	02/19/2024	10:12	-127.611	48.098	0	199.10	0	6.5800	0	33.8340	0	26.559	0	197.332	0	130.0	4	43.5	4	-1E+10	1	-1E+10	1	-1E+10	1	-1E+10	1	-1E+10	1	-1E+10	1
4902663	20	C	02/19/2024	10:12	-127.611	48.098	0	200.20	0	6.5720	0	33.8340	0	26.560	0	198.422	0	129.5	4	43.3	4	-1E+10	1	-1E+10	1	-1E+10	1	-1E+10	1	-1E+10	1	-1E+10	1
4902663	20	C	02/19/2024	10:12	-127.611	48.098	0	201.30	0	6.5590	0	33.8360	0	26.564	0	199.512	0	129.0	4	43.1	4	-1E+10	1	-1E+10	1	-1E+10	1	-1E+10	1	-1E+10	1	-1E+10	1
4902663	20	C	02/19/2024	10:12	-127.611	48.098	0	202.40	0	6.5490	0	33.8350	0	26.564	0	200.601	0	128.4	4	42.9	4	-1E+10	1	-1E+10	1	-1E+10	1	-1E+10	1	-1E+10	1	-1E+10	1
4902663	20	C	02/19/2024	10:12	-127.611	48.098	0	203.40	0	6.5390	0	33.8350	0	26.565	0	201.592	0	127.8	4	42.7	4	-1E+10	1	-1E+10	1	-1E+10	1	-1E+10	1	-1E+10	1	-1E+10	1
4902663	20	C	02/19/2024	10:12	-127.611	48.098	0	204.50	0	6.5290	0	33.8350	0	26.567	0	202.682	0	127.2	4	42.5	4	-1E+10	1	-1E+10	1	-1E+10	1	-1E+10	1	-1E+10	1	-1E+10	1
4902663	20	C	02/19/2024	10:12	-127.611	48.098	0	205.60	0	6.5170	0	33.8370	0	26.570	0	203.771	0	126.6	4	42.3	4	-1E+10	1	-1E+10	1	-1E+10	1	-1E+10	1	-1E+10	1	-1E+10	1
4902663	20	C	02/19/2024	10:12	-127.611	48.098	0	206.70	0	6.4980	0	33.8370	0	26.572	0	204.861	0	126.0	4	42.1	4	-1E+10	1	-1E+10	1	-1E+10	1	-1E+10	1	-1E+10	1	-1E+10	1
4902663	20	C	02/19/2024	10:12	-127.611	48.098	0	207.80	0	6.4850	0	33.8380	0	26.575	0	205.951	0	125.5	4	41.9	4	-1E+10	1	-1E+10	1	-1E+10	1	-1E+10	1	-1E+10	1	-1E+10	1
4902663	20	C	02/19/2024	10:12	-127.611	48.098	0	208.80	0	6.4700	0	33.8380	0	26.577	0	206.941	0	125.0	4	41.7	4	-1E+10	1	-1E+10	1	-1E+10	1	-1E+10	1	-1E+10	1	-1E+10	1
4902663	20	C	02/19/2024	10:12	-127.611	48.098	0	209.90	0	6.4550	0	33.8380	0	26.579	0	208.031	0	124.5	4	41.5	4	-1E+10	1	-1E+10	1	-1E+10	1	-1E+10	1	-1E+10	1	-1E+10	1
4902663	20	C	02/19/2024	10:12	-127.611	48.098	0	211.00	0	6.4250	0	33.8420	0	26.586	0	209.121	0	124.0	4	41.3	4	-1E+10	1	-1E+10	1	-1E+10	1	-1E+10	1	-1E+10	1	-1E+10	1
4902663	20	C	02/19/2024	10:12	-127.611	48.098	0	212.00	0	6.4140	0	33.8420	0	26.587	0	210.111	0	123.6	4	41.2	4	-1E+10	1	-1E+10	1	-1E+10	1	-1E+10	1	-1E+10	1	-1E+10	1
4902663	20	C	02/19/2024	10:12	-127.611	48.098	0	213.10	0	6.3950	0	33.8450	0	26.592	0	211.201	0	123.1	4	41.0	4	-1E+10	1	-1E+10	1	-1E+10	1	-1E+10	1	-1E+10	1	-1E+10	1
4902663	20	C	02/19/2024	10:12	-127.611	48.098	0	214.20	0	6.3880	0	33.8440	0	26.592	0	212.291	0	122.7	4	40.9	4	-1E+10	1	-1E+10	1	-1E+10	1	-1E+10	1	-1E+10	1	-1E+10	1
4902663	20	C	02/19/2024	10:12	-127.611	48.098	0	215.20	0	6.3770	0	33.8460	0	26.595	0	213.281	0	122.3	4	40.7	4	-1E+10	1	-1E+10	1	-1E+10	1	-1E+10	1	-1E+10	1	-1E+10	1
4902663	20	C	02/19/2024	10:12	-127.611	48.098	0	216.30	0	6.3680	0	33.8460	0	26.596	0	214.371	0	122.0	4	40.6	4	-1E+10	1	-1E+10	1	-1E+10	1	-1E+10	1	-1E+10	1	-1E+10	1
4902663	20	C	02/19/2024	10:12	-127.611	48.098	0	217.40	0	6.3660	0	33.8460	0	26.597	0	215.460	0	121.6	4	40.5	4	-1E+10	1	-1E+10	1	-1E+10	1	-1E+10	1	-1E+10	1	-1E+10	1
4902663	20	C	02/19/2024	10:12	-127.611	48.098	0	218.40	0	6.3620	0	33.8460	0	26.597	0	216.451	0	121.1	4	40.3	4	-1E+10	1	-1E+10	1	-1E+10	1	-1E+10	1	-1E+10	1	-1E+10	1
4902663	20	C	02/19/2024	10:12	-127.611	48.098	0	219.50	0	6.3540	0	33.8470	0	26.599	0	217.540	0	120.7	4	40.2	4	-1E+10	1	-1E+10	1	-1E+10	1	-1E+10	1	-1E+10	1	-1E+10	1
4902663	20	C	02/19/2024	10:12	-127.611	48.098	0	220.50	0	6.3430	0	33.8470	0	26.601	0	218.531	0	120.2	4	40.0	4	-1E+10	1	-1E+10	1	-1E+10	1	-1E+10	1	-1E+10	1	-1E+10	1
4902663	20	C	02/19/2024	10:12	-127.611	48.098	0	221.60	0	6.3200	0	33.8470	0	26.604	0	219.621	0	119.6	4	39.8	4	-1E+10	1	-1E+10	1	-1E+10	1	-1E+10	1	-1E+10	1	-1E+10	1
4902663	20	C	02/19/2024	10:12	-127.611	48.098	0	222.60	0	6.3120	0	33.8460	0	26.604	0	220.611	0	119.1	4	39.6	4	-1E+10	1	-1E+10	1	-1E+10	1	-1E+10	1	-1E+10	1	-1E+10	1
4902663	20	C	02/19/2024	10:12	-127.611	48.098	0	223.60	0	6.3070	0	33.8450	0	26.604	0	221.602	0	118.4	4	39.4	4	-1E+10	1	-1E+10	1	-1E+10	1	-1E+10	1	-1E+10	1	-1E+10	1
4902663	20	C	02/19/2024	10:12	-127.611	48.098	0	224.70	0	6.2950	0	33.8460	0	26.606	0	222.691	0	117.8	4	39.2	4	-1E+10	1	-1E+10	1	-1E+10	1	-1E+10	1	-1E+10	1	-1E+10	1
4902663	20	C	02/19/2024	10:12	-127.611	48.098	0	225.90	0	6.2790	0	33.8480	0	26.610	0	223.880	0	116.9	4	38.8	4	-1E+10	1	-1E+10	1	-1E+10	1	-1E+10	1	-1E+10	1	-1E+10	1
4902663	20	C	02/19/2024	10:12	-127.611	48.098	0	227.10	0	6.2700	0	33.8510	0	26.613	0	225.069	0	116.0	4	38.6	4	-1E+10	1	-1E+10	1	-1E+10	1	-1E+10	1	-1E+10	1	-1E+10	1
4902663	20	C	02/19/2024	10:12	-127.611	48.098	0	227.80	0	6.2680	0	33.8520	0	26.614	0	225.762	0	115.5	4	38.4	4	-1E+10	1	-1E+10	1	-1E+10	1	-1E+10	1	-1E+10	1	-1E+10	1
4902663	20	C	02/19/2024	10:12	-127.611	48.098	0	229.00	0	6.2670	0	33.8520	0	26.614	0	226.950	0	114.7	4	38.1	4	-1E+10	1	-1E+10	1	-1E+10	1	-1E+10	1	-1E+10	1	-1E+10	1
4902663	20	C	02/19/2024	10:12	-127.611	48.098	0	230.20	0	6.2650	0	33.8550	0	26.617	0	228.139	0	113.8	4	37.8	4	-1E+10	1	-1E+10	1	-1E+10	1	-1E+10	1	-1E+10	1	-1E+10	1
4902663	20	C	02/19/2024	10:12	-127.611	48.098	0	231.00	0	6.2730	0	33.8610	0	26.621	0	228.931	0	113.4	4	37.7	4	-1E+10	1	-1E+10	1	-1E+10	1	-1E+10	1	-1E+10	1	-1E+10	1
4902663	20	C	02/19/2024	10:12	-127.611	48.098	0	231.80	0	6.2510	0	33.8640	0	26.626	0	229.724	0	113.0	4	37.5	4	-1E+10	1	-1E+10	1	-1E+10	1	-1E+10	1	-1E+10	1	-1E+10	1
4902663	20	C	02/19/2024	10:12	-127.611	48.098	0	233.00	0	6.2250	0	33.8610	0	26.627	0	230.912	0	112.4	4	37.3	4	-1E+10	1	-1E+10	1	-1E+10	1	-1E+10	1	-1E+10	1	-1E+10	1
4902663	20	C	02/19/2024	10:12	-127.611	48.098	0	234.20	0	6.2100	0	33.8640	0	26.631	0	232.101	0	111.7	4	37.1	4	-1E+10	1	-1E+10	1	-1E+10	1	-1E+10	1	-1E+10	1	-1E+10	1
4902663	20	C	02/19/2024	10:12	-127.611	48.098	0	235.00	0	6.2040	0	33.8620	0	26.630	0	232.893	0	111.2	4	36.9	4	-1E+10	1	-1E+10	1	-1E+10	1	-1E+10	1	-1E+10	1	-1E+10	1
4902663	20	C	02/19/2024	10:12	-127.611	48.098	0	235.80	0	6.2000	0	33.8640	0	26.632	0	233.686	0	110.7	4	36.7	4	-1E+10	1	-1E+10	1	-1E+10	1	-1E+10	1	-1E+10	1	-1E+10	1
4902663	20	C	02/19/2024	10:12	-127.611	48.098	0	237.00	0	6.1900	0	33.8630	0	26.633	0	234.874	0	109.6	4	36.4	4	-1E+10	1	-1E+10	1	-1E+10	1	-1E+10	1	-1E+10	1	-1E+10	1
4902663	20	C	02/19/2024	10:12	-127.611	48.098	0	238.20	0	6.1900	0	33.8640	0	26.634	0	236.063	0	108.4	4	36.0	4	-1E+10	1	-1E+10	1	-1E+10	1	-1E+10	1	-1E+10	1	-1E+10	1
4902663	20	C	02/19/2024	10:12	-127.611	48.098	0	239.00	0	6.1940	0	33.8650	0	26.634	0	236.855	0	107.5	4	35.6	4	-1E+10	1	-1E+10	1	-1E+10	1	-1E+10	1	-1E+10	1	-1E+10	1
4902663	20	C	02/19/2024	10:12	-127.611	48.098	0	239.80	0	6.1990	0	33.8670	0	26.635	0	237.648	0	106.4	4	35.3	4	-1E+10	1	-1E+10	1	-1E+10	1	-1E+10	1	-1E+10	1	-1E+10	1
4902663	20	C	02/19/2024	10:12	-127.611	48.098	0	240.60	0	6.2790	0	33.8880	0	26.641	0	238.440	0	106.0	4	35.2	4	-1E+10	1	-1E+10	1	-1E+10	1	-1E+10	1	-1E+10	1	-1E+10	1
4902663	20	C	02/19/2024	10:12	-127.611	48.098	0	241.90	0	6.2820	0	33.8870	0	26.640	0	239.728	0	105.9	4	35.2	4	-1E+10	1	-1E+10	1	-1E+10	1	-1E+10	1	-1E+10	1	-1E+10	1
4902663	20	C	02/19/2024	10:12	-127.611	48.098	0	243.10	0	6.2610	0	33.8860	0	26.642	0	240.916	0	105.8	4	35.2	4	-1E+10	1	-1E+10	1	-1E+10	1	-1E+10	1	-1E+10	1	-1E+10	1
4902663	20	C	02/19/2024	10:12	-127.611	48.098	0	243.90	0	6.2290	0	33.8890	0	26.649	0	241.708	0	105.6	4	35.1	4	-1E+10	1	-1E+10	1	-1E+10	1	-1E+10	1	-1E+10	1	-1E+10	1
4902663	20	C	02/19/2024	10:12	-127.611	48.098	0	244.70	0	6.2080	0	33.8820	0	26.646	0	242.501	0	105.4	4	35.0	4	-1E+10	1	-1E+10	1	-1E+10	1	-1E+10	1	-1E+10	1	-1E+10	1
4902663	20	C	02/19/2024	10:12	-127.611	48.098	0	245.90	0	6.1840	0	33.8820	0	26.649	0	243.689	0	105.0	4	34.8	4	-1E+10	1	-1E+10	1	-1E+10	1	-1E+10	1	-1E+10	1	-1E+10	1
4902663	20	C	02/19/2024	10:12	-127.611	48.098	0	247.20	0	6.1610	0	33.8780	0	26.649	0	244.977	0	104.4	4	34.6	4	-1E+10	1	-1E+10	1	-1E+10	1	-1E+10	1	-1E+10	1	-1E+10	1
4902663	20	C	02/19/2024	10:12	-127.611	48.098	0	248.00	0	6.1390	0	33.8790	0	26.652	0	245.769	0	103.9	4	34.4	4	-1E+10	1	-1E+10	1	-1E+10	1	-1E+10	1	-1E+10	1	-1E+10	1
4902663	20	C	02/19/2024	10:12	-127.611	48.098	0	248.80	0	6.1310	0	33.8790	0	26.653	0	246.561	0	103.3	4	34.2	4	-1E+10	1	-1E+10	1	-1E+10	1	-1E+10	1	-1E+10	1	-1E+10	1
4902663	20	C	02/19/2024	10:12	-127.611	48.098	0	250.00	0	6.1220	0	33.8780	0	26.654	0	247.750	0	102.2	4	33.8	4	-1E+10	1	-1E+10	1	-1E+10	1	-1E+10	1	-1E+10	1	-1E+10	1
4902663	20	C	02/19/2024	10:12	-127.611	48.098	0	251.30	0	6.1210	0	33.8780	0	26.654	0	249.037	0	100.8	4	33.4	4	-1E+10	1	-1E+10	1	-1E+10	1	-1E+10	1	-1E+10	1	-1E+10	1
4902663	20	C	02/19/2024	10:12	-127.611	48.098	0	252.10	0	6.1220	0	33.8790	0	26.654	0	249.830	0	99.7	4	33.0	4	-1E+10	1	-1E+10	1	-1E+10	1	-1E+10	1	-1E+10	1	-1E+10	1
4902663	20	C	02/19/2024	10:12	-127.611	48.098	0	252.90	0	6.1250	0	33.8800	0	26.655	0	250.622	0	98.7	4	32.7	4	-1E+10	1	-1E+10	1	-1E+10	1	-1E+10	1	-1E+10	1	-1E+10	1
4902663	20	C	02/19/2024	10:12	-127.611	48.098	0	253.70	0	6.1310	0	33.8820	0	26.656	0	251.414	0	97.6	4	32.3	4	-1E+10	1	-1E+10	1	-1E+10	1	-1E+10	1	-1E+10	1	-1E+10	1
4902663	20	C	02/19/2024	10:12	-127.611	48.098	0	254.90	0	6.1400	0	33.8870	0	26.658	0	252.603	0	96.1	4	31.8	4	-1E+10	1	-1E+10	1	-1E+10	1	-1E+10	1	-1E+10	1	-1E+10	1
4902663	20	C	02/19/2024	10:12	-127.611	48.098	0	256.20	0	6.1500	0	33.8930	0	26.662	0	253.890	0	94.5	4	31.3	4	-1E+10	1	-1E+10	1	-1E+10	1	-1E+10	1	-1E+10	1	-1E+10	1
4902663	20	C	02/19/2024	10:12	-127.611	48.098	0	257.00	0	6.1530	0	33.8950	0	26.663	0	254.683	0	93.4	4	31.0	4	-1E+10	1	-1E+10	1	-1E+10	1	-1E+10	1	-1E+10	1	-1E+10	1
4902663	20	C	02/19/2024	10:12	-127.611	48.098	0	257.80	0	6.1570	0	33.9000	0	26.667	0	255.475	0	92.3	4	30.6	4	-1E+10	1	-1E+10	1	-1E+10	1	-1E+10	1	-1E+10	1	-1E+10	1
4902663	20	C	02/19/2024	10:12	-127.611	48.098	0	258.70	0	6.1730	0	33.9070	0	26.670	0	256.366	0	91.5	4	30.4	4	-1E+10	1	-1E+10	1	-1E+10	1	-1E+10	1	-1E+10	1	-1E+10	1
4902663	20	C	02/19/2024	10:12	-127.611	48.098	0	259.90	0	6.1850	0	33.9140	0	26.674	0	257.555	0	90.7	4	30.1	4	-1E+10	1	-1E+10	1	-1E+10	1	-1E+10	1	-1E+10	1	-1E+10	1
4902663	20	C	02/19/2024	10:12	-127.611	48.098	0	261.20	0	6.1890	0	33.9170	0	26.676	0	258.842	0	89.9	4	29.8	4	-1E+10	1	-1E+10	1	-1E+10	1	-1E+10	1	-1E+10	1	-1E+10	1
4902663	20	C	02/19/2024	10:12	-127.611	48.098	0	262.00	0	6.1900	0	33.9170	0	26.676	0	259.634	0	89.3	4	29.6	4	-1E+10	1	-1E+10	1	-1E+10	1	-1E+10	1	-1E+10	1	-1E+10	1
4902663	20	C	02/19/2024	10:12	-127.611	48.098	0	262.90	0	6.1910	0	33.9180	0	26.677	0	260.526	0	88.6	4	29.4	4	-1E+10	1	-1E+10	1	-1E+10	1	-1E+10	1	-1E+10	1	-1E+10	1
4902663	20	C	02/19/2024	10:12	-127.611	48.098	0	263.70	0	6.1920	0	33.9180	0	26.676	0	261.318	0	88.0	4	29.2	4	-1E+10	1	-1E+10	1	-1E+10	1	-1E+10	1	-1E+10	1	-1E+10	1
4902663	20	C	02/19/2024	10:12	-127.611	48.098	0	264.90	0	6.1880	0	33.9200	0	26.679	0	262.506	0	87.1	4	28.9	4	-1E+10	1	-1E+10	1	-1E+10	1	-1E+10	1	-1E+10	1	-1E+10	1
4902663	20	C	02/19/2024	10:12	-127.611	48.098	0	266.20	0	6.1750	0	33.9210	0	26.681	0	263.794	0	86.1	4	28.6	4	-1E+10	1	-1E+10	1	-1E+10	1	-1E+10	1	-1E+10	1	-1E+10	1
4902663	20	C	02/19/2024	10:12	-127.611	48.098	0	267.10	0	6.1660	0	33.9210	0	26.682	0	264.685	0	85.3	4	28.3	4	-1E+10	1	-1E+10	1	-1E+10	1	-1E+10	1	-1E+10	1	-1E+10	1
4902663	20	C	02/19/2024	10:12	-127.611	48.098	0	267.90	0	6.1660	0	33.9210	0	26.682	0	265.477	0	84.4	4	28.0	4	-1E+10	1	-1E+10	1	-1E+10	1	-1E+10	1	-1E+10	1	-1E+10	1
4902663	20	C	02/19/2024	10:12	-127.611	48.098	0	268.80	0	6.1590	0	33.9230	0	26.685	0	266.369	0	83.4	4	27.7	4	-1E+10	1	-1E+10	1	-1E+10	1	-1E+10	1	-1E+10	1	-1E+10	1
4902663	20	C	02/19/2024	10:12	-127.611	48.098	0	270.00	0	6.1660	0	33.9260	0	26.686	0	267.557	0	81.9	4	27.2	4	-1E+10	1	-1E+10	1	-1E+10	1	-1E+10	1	-1E+10	1	-1E+10	1
4902663	20	C	02/19/2024	10:12	-127.611	48.098	0	271.30	0	6.1790	0	33.9300	0	26.688	0	268.844	0	80.4	4	26.7	4	-1E+10	1	-1E+10	1	-1E+10	1	-1E+10	1	-1E+10	1	-1E+10	1
4902663	20	C	02/19/2024	10:12	-127.611	48.098	0	272.10	0	6.1870	0	33.9370	0	26.692	0	269.637	0	79.6	4	26.4	4	-1E+10	1	-1E+10	1	-1E+10	1	-1E+10	1	-1E+10	1	-1E+10	1
4902663	20	C	02/19/2024	10:12	-127.611	48.098	0	273.00	0	6.1590	0	33.9360	0	26.695	0	270.528	0	78.7	4	26.1	4	-1E+10	1	-1E+10	1	-1E+10	1	-1E+10	1	-1E+10	1	-1E+10	1
4902663	20	C	02/19/2024	10:12	-127.611	48.098	0	273.80	0	6.1620	0	33.9380	0	26.696	0	271.320	0	77.6	4	25.8	4	-1E+10	1	-1E+10	1	-1E+10	1	-1E+10	1	-1E+10	1	-1E+10	1
4902663	20	C	02/19/2024	10:12	-127.611	48.098	0	274.70	0	6.1720	0	33.9400	0	26.696	0	272.211	0	76.7	4	25.4	4	-1E+10	1	-1E+10	1	-1E+10	1	-1E+10	1	-1E+10	1	-1E+10	1
4902663	20	C	02/19/2024	10:12	-127.611	48.098	0	276.00	0	6.1800	0	33.9420	0	26.697	0	273.499	0	75.5	4	25.0	4	-1E+10	1	-1E+10	1	-1E+10	1	-1E+10	1	-1E+10	1	-1E+10	1
4902663	20	C	02/19/2024	10:12	-127.611	48.098	0	277.30	0	6.2050	0	33.9520	0	26.702	0	274.786	0	74.7	4	24.8	4	-1E+10	1	-1E+10	1	-1E+10	1	-1E+10	1	-1E+10	1	-1E+10	1
4902663	20	C	02/19/2024	10:12	-127.611	48.098	0	278.10	0	6.2190	0	33.9580	0	26.705	0	275.578	0	74.5	4	24.7	4	-1E+10	1	-1E+10	1	-1E+10	1	-1E+10	1	-1E+10	1	-1E+10	1
4902663	20	C	02/19/2024	10:12	-127.611	48.098	0	279.00	0	6.2190	0	33.9580	0	26.705	0	276.470	0	74.2	4	24.7	4	-1E+10	1	-1E+10	1	-1E+10	1	-1E+10	1	-1E+10	1	-1E+10	1
4902663	20	C	02/19/2024	10:12	-127.611	48.098	0	279.90	0	6.2190	0	33.9590	0	26.706	0	277.361	0	74.0	4	24.6	4	-1E+10	1	-1E+10	1	-1E+10	1	-1E+10	1	-1E+10	1	-1E+10	1
4902663	20	C	02/19/2024	10:12	-127.611	48.098	0	280.70	0	6.2210	0	33.9600	0	26.706	0	278.153	0	73.8	4	24.5	4	-1E+10	1	-1E+10	1	-1E+10	1	-1E+10	1	-1E+10	1	-1E+10	1
4902663	20	C	02/19/2024	10:12	-127.611	48.098	0	282.00	0	6.2170	0	33.9610	0	26.707	0	279.440	0	73.6	4	24.4	4	-1E+10	1	-1E+10	1	-1E+10	1	-1E+10	1	-1E+10	1	-1E+10	1
4902663	20	C	02/19/2024	10:12	-127.611	48.098	0	283.30	0	6.2030	0	33.9650	0	26.712	0	280.728	0	73.5	4	24.4	4	-1E+10	1	-1E+10	1	-1E+10	1	-1E+10	1	-1E+10	1	-1E+10	1
4902663	20	C	02/19/2024	10:12	-127.611	48.098	0	284.20	0	6.1890	0	33.9680	0	26.717	0	281.619	0	73.4	4	24.4	4	-1E+10	1	-1E+10	1	-1E+10	1	-1E+10	1	-1E+10	1	-1E+10	1
4902663	20	C	02/19/2024	10:12	-127.611	48.098	0	285.10	0	6.1850	0	33.9620	0	26.712	0	282.510	0	73.3	4	24.3	4	-1E+10	1	-1E+10	1	-1E+10	1	-1E+10	1	-1E+10	1	-1E+10	1
4902663	20	C	02/19/2024	10:12	-127.611	48.098	0	286.00	0	6.1830	0	33.9610	0	26.712	0	283.401	0	73.1	4	24.3	4	-1E+10	1	-1E+10	1	-1E+10	1	-1E+10	1	-1E+10	1	-1E+10	1
4902663	20	C	02/19/2024	10:12	-127.611	48.098	0	286.80	0	6.1840	0	33.9610	0	26.712	0	284.193	0	72.9	4	24.2	4	-1E+10	1	-1E+10	1	-1E+10	1	-1E+10	1	-1E+10	1	-1E+10	1
4902663	20	C	02/19/2024	10:12	-127.611	48.098	0	287.70	0	6.1720	0	33.9670	0	26.718	0	285.085	0	72.7	4	24.1	4	-1E+10	1	-1E+10	1	-1E+10	1	-1E+10	1	-1E+10	1	-1E+10	1
4902663	20	C	02/19/2024	10:12	-127.611	48.098	0	288.60	0	6.1710	0	33.9610	0	26.713	0	285.976	0	72.4	4	24.0	4	-1E+10	1	-1E+10	1	-1E+10	1	-1E+10	1	-1E+10	1	-1E+10	1
4902663	20	C	02/19/2024	10:12	-127.611	48.098	0	289.90	0	6.1730	0	33.9620	0	26.714	0	287.263	0	72.0	4	23.9	4	-1E+10	1	-1E+10	1	-1E+10	1	-1E+10	1	-1E+10	1	-1E+10	1
4902663	20	C	02/19/2024	10:12	-127.611	48.098	0	291.30	0	6.1770	0	33.9620	0	26.713	0	288.649	0	71.5	4	23.7	4	-1E+10	1	-1E+10	1	-1E+10	1	-1E+10	1	-1E+10	1	-1E+10	1
4902663	20	C	02/19/2024	10:12	-127.611	48.098	0	292.10	0	6.1770	0	33.9640	0	26.715	0	289.442	0	71.2	4	23.6	4	-1E+10	1	-1E+10	1	-1E+10	1	-1E+10	1	-1E+10	1	-1E+10	1
4902663	20	C	02/19/2024	10:12	-127.611	48.098	0	293.00	0	6.1790	0	33.9630	0	26.714	0	290.333	0	70.9	4	23.5	4	-1E+10	1	-1E+10	1	-1E+10	1	-1E+10	1	-1E+10	1	-1E+10	1
4902663	20	C	02/19/2024	10:12	-127.611	48.098	0	293.90	0	6.1790	0	33.9650	0	26.716	0	291.224	0	70.6	4	23.4	4	-1E+10	1	-1E+10	1	-1E+10	1	-1E+10	1	-1E+10	1	-1E+10	1
4902663	20	C	02/19/2024	10:12	-127.611	48.098	0	294.70	0	6.1760	0	33.9660	0	26.717	0	292.016	0	70.4	4	23.4	4	-1E+10	1	-1E+10	1	-1E+10	1	-1E+10	1	-1E+10	1	-1E+10	1
4902663	20	C	02/19/2024	10:12	-127.611	48.098	0	295.60	0	6.1720	0	33.9670	0	26.718	0	292.907	0	70.2	4	23.3	4	-1E+10	1	-1E+10	1	-1E+10	1	-1E+10	1	-1E+10	1	-1E+10	1
4902663	20	C	02/19/2024	10:12	-127.611	48.098	0	296.90	0	6.1470	0	33.9690	0	26.723	0	294.195	0	69.9	4	23.2	4	-1E+10	1	-1E+10	1	-1E+10	1	-1E+10	1	-1E+10	1	-1E+10	1
4902663	20	C	02/19/2024	10:12	-127.611	48.098	0	298.30	0	6.1440	0	33.9700	0	26.724	0	295.581	0	69.7	4	23.1	4	-1E+10	1	-1E+10	1	-1E+10	1	-1E+10	1	-1E+10	1	-1E+10	1
4902663	20	C	02/19/2024	10:12	-127.611	48.098	0	299.10	0	6.1380	0	33.9690	0	26.724	0	296.373	0	69.6	4	23.1	4	-1E+10	1	-1E+10	1	-1E+10	1	-1E+10	1	-1E+10	1	-1E+10	1
4902663	20	C	02/19/2024	10:12	-127.611	48.098	0	300.00	0	6.1350	0	33.9700	0	26.725	0	297.264	0	69.4	4	23.0	4	-1E+10	1	-1E+10	1	-1E+10	1	-1E+10	1	-1E+10	1	-1E+10	1
4902663	20	C	02/19/2024	10:12	-127.611	48.098	0	300.90	0	6.1250	0	33.9680	0	26.725	0	298.155	0	69.2	4	22.9	4	-1E+10	1	-1E+10	1	-1E+10	1	-1E+10	1	-1E+10	1	-1E+10	1
4902663	20	C	02/19/2024	10:12	-127.611	48.098	0	301.80	0	6.1170	0	33.9690	0	26.727	0	299.046	0	69.0	4	22.9	4	-1E+10	1	-1E+10	1	-1E+10	1	-1E+10	1	-1E+10	1	-1E+10	1
4902663	20	C	02/19/2024	10:12	-127.611	48.098	0	302.70	0	6.1090	0	33.9670	0	26.726	0	299.937	0	68.7	4	22.8	4	-1E+10	1	-1E+10	1	-1E+10	1	-1E+10	1	-1E+10	1	-1E+10	1
4902663	20	C	02/19/2024	10:12	-127.611	48.098	0	303.90	0	6.0800	0	33.9660	0	26.729	0	301.126	0	68.1	4	22.5	4	-1E+10	1	-1E+10	1	-1E+10	1	-1E+10	1	-1E+10	1	-1E+10	1
4902663	20	C	02/19/2024	10:12	-127.611	48.098	0	305.30	0	6.0700	0	33.9670	0	26.731	0	302.512	0	67.3	4	22.3	4	-1E+10	1	-1E+10	1	-1E+10	1	-1E+10	1	-1E+10	1	-1E+10	1
4902663	20	C	02/19/2024	10:12	-127.611	48.098	0	306.10	0	6.0770	0	33.9720	0	26.734	0	303.304	0	66.8	4	22.1	4	-1E+10	1	-1E+10	1	-1E+10	1	-1E+10	1	-1E+10	1	-1E+10	1
4902663	20	C	02/19/2024	10:12	-127.611	48.098	0	307.00	0	6.0680	0	33.9720	0	26.735	0	304.195	0	66.5	4	22.0	4	-1E+10	1	-1E+10	1	-1E+10	1	-1E+10	1	-1E+10	1	-1E+10	1
4902663	20	C	02/19/2024	10:12	-127.611	48.098	0	307.90	0	6.0540	0	33.9730	0	26.738	0	305.086	0	66.1	4	21.9	4	-1E+10	1	-1E+10	1	-1E+10	1	-1E+10	1	-1E+10	1	-1E+10	1
4902663	20	C	02/19/2024	10:12	-127.611	48.098	0	308.80	0	6.0360	0	33.9740	0	26.741	0	305.977	0	65.8	4	21.8	4	-1E+10	1	-1E+10	1	-1E+10	1	-1E+10	1	-1E+10	1	-1E+10	1
4902663	20	C	02/19/2024	10:12	-127.611	48.098	0	309.60	0	6.0330	0	33.9740	0	26.741	0	306.769	0	65.6	4	21.7	4	-1E+10	1	-1E+10	1	-1E+10	1	-1E+10	1	-1E+10	1	-1E+10	1
4902663	20	C	02/19/2024	10:12	-127.611	48.098	0	310.50	0	6.0100	0	33.9760	0	26.746	0	307.660	0	65.3	4	21.6	4	-1E+10	1	-1E+10	1	-1E+10	1	-1E+10	1	-1E+10	1	-1E+10	1
4902663	20	C	02/19/2024	10:12	-127.611	48.098	0	311.80	0	6.0030	0	33.9750	0	26.746	0	308.948	0	64.9	4	21.4	4	-1E+10	1	-1E+10	1	-1E+10	1	-1E+10	1	-1E+10	1	-1E+10	1
4902663	20	C	02/19/2024	10:12	-127.611	48.098	0	313.10	0	6.0030	0	33.9750	0	26.746	0	310.235	0	64.4	4	21.3	4	-1E+10	1	-1E+10	1	-1E+10	1	-1E+10	1	-1E+10	1	-1E+10	1
4902663	20	C	02/19/2024	10:12	-127.611	48.098	0	314.00	0	6.0000	0	33.9740	0	26.745	0	311.126	0	64.0	4	21.1	4	-1E+10	1	-1E+10	1	-1E+10	1	-1E+10	1	-1E+10	1	-1E+10	1
4902663	20	C	02/19/2024	10:12	-127.611	48.098	0	314.90	0	5.9950	0	33.9760	0	26.748	0	312.017	0	63.6	4	21.0	4	-1E+10	1	-1E+10	1	-1E+10	1	-1E+10	1	-1E+10	1	-1E+10	1
4902663	20	C	02/19/2024	10:12	-127.611	48.098	0	315.80	0	5.9910	0	33.9760	0	26.748	0	312.908	0	63.1	4	20.9	4	-1E+10	1	-1E+10	1	-1E+10	1	-1E+10	1	-1E+10	1	-1E+10	1
4902663	20	C	02/19/2024	10:12	-127.611	48.098	0	316.70	0	5.9860	0	33.9770	0	26.750	0	313.799	0	62.6	4	20.7	4	-1E+10	1	-1E+10	1	-1E+10	1	-1E+10	1	-1E+10	1	-1E+10	1
4902663	20	C	02/19/2024	10:12	-127.611	48.098	0	317.60	0	5.9780	0	33.9790	0	26.752	0	314.690	0	62.3	4	20.6	4	-1E+10	1	-1E+10	1	-1E+10	1	-1E+10	1	-1E+10	1	-1E+10	1
4902663	20	C	02/19/2024	10:12	-127.611	48.098	0	318.90	0	5.9600	0	33.9820	0	26.757	0	315.977	0	61.9	4	20.4	4	-1E+10	1	-1E+10	1	-1E+10	1	-1E+10	1	-1E+10	1	-1E+10	1
4902663	20	C	02/19/2024	10:12	-127.611	48.098	0	320.30	0	5.9490	0	33.9830	0	26.759	0	317.363	0	61.6	4	20.3	4	-1E+10	1	-1E+10	1	-1E+10	1	-1E+10	1	-1E+10	1	-1E+10	1
4902663	20	C	02/19/2024	10:12	-127.611	48.098	0	321.20	0	5.9450	0	33.9840	0	26.760	0	318.254	0	61.4	4	20.3	4	-1E+10	1	-1E+10	1	-1E+10	1	-1E+10	1	-1E+10	1	-1E+10	1
4902663	20	C	02/19/2024	10:12	-127.611	48.098	0	322.10	0	5.9440	0	33.9840	0	26.760	0	319.145	0	61.1	4	20.2	4	-1E+10	1	-1E+10	1	-1E+10	1	-1E+10	1	-1E+10	1	-1E+10	1
4902663	20	C	02/19/2024	10:12	-127.611	48.098	0	323.00	0	5.9370	0	33.9860	0	26.763	0	320.037	0	60.9	4	20.1	4	-1E+10	1	-1E+10	1	-1E+10	1	-1E+10	1	-1E+10	1	-1E+10	1
4902663	20	C	02/19/2024	10:12	-127.611	48.098	0	324.00	0	5.9250	0	33.9870	0	26.765	0	321.027	0	60.7	4	20.0	4	-1E+10	1	-1E+10	1	-1E+10	1	-1E+10	1	-1E+10	1	-1E+10	1
4902663	20	C	02/19/2024	10:12	-127.611	48.098	0	324.90	0	5.9170	0	33.9880	0	26.767	0	321.918	0	60.5	4	20.0	4	-1E+10	1	-1E+10	1	-1E+10	1	-1E+10	1	-1E+10	1	-1E+10	1
4902663	20	C	02/19/2024	10:12	-127.611	48.098	0	325.80	0	5.9160	0	33.9870	0	26.766	0	322.809	0	60.3	4	19.9	4	-1E+10	1	-1E+10	1	-1E+10	1	-1E+10	1	-1E+10	1	-1E+10	1
4902663	20	C	02/19/2024	10:12	-127.611	48.098	0	326.70	0	5.9140	0	33.9870	0	26.767	0	323.700	0	60.1	4	19.8	4	-1E+10	1	-1E+10	1	-1E+10	1	-1E+10	1	-1E+10	1	-1E+10	1
4902663	20	C	02/19/2024	10:12	-127.611	48.098	0	327.60	0	5.9120	0	33.9880	0	26.768	0	324.591	0	59.9	4	19.8	4	-1E+10	1	-1E+10	1	-1E+10	1	-1E+10	1	-1E+10	1	-1E+10	1
4902663	20	C	02/19/2024	10:12	-127.611	48.098	0	328.90	0	5.9100	0	33.9880	0	26.768	0	325.878	0	59.5	4	19.6	4	-1E+10	1	-1E+10	1	-1E+10	1	-1E+10	1	-1E+10	1	-1E+10	1
4902663	20	C	02/19/2024	10:12	-127.611	48.098	0	330.30	0	5.8990	0	33.9900	0	26.771	0	327.264	0	59.0	4	19.5	4	-1E+10	1	-1E+10	1	-1E+10	1	-1E+10	1	-1E+10	1	-1E+10	1
4902663	20	C	02/19/2024	10:12	-127.611	48.098	0	331.30	0	5.8950	0	33.9930	0	26.774	0	328.254	0	58.8	4	19.4	4	-1E+10	1	-1E+10	1	-1E+10	1	-1E+10	1	-1E+10	1	-1E+10	1
4902663	20	C	02/19/2024	10:12	-127.611	48.098	0	332.20	0	5.8900	0	33.9920	0	26.774	0	329.145	0	58.7	4	19.4	4	-1E+10	1	-1E+10	1	-1E+10	1	-1E+10	1	-1E+10	1	-1E+10	1
4902663	20	C	02/19/2024	10:12	-127.611	48.098	0	333.10	0	5.8870	0	33.9910	0	26.773	0	330.036	0	58.4	4	19.3	4	-1E+10	1	-1E+10	1	-1E+10	1	-1E+10	1	-1E+10	1	-1E+10	1
4902663	20	C	02/19/2024	10:12	-127.611	48.098	0	334.00	0	5.8790	0	33.9920	0	26.775	0	330.927	0	58.2	4	19.2	4	-1E+10	1	-1E+10	1	-1E+10	1	-1E+10	1	-1E+10	1	-1E+10	1
4902663	20	C	02/19/2024	10:12	-127.611	48.098	0	335.00	0	5.8740	0	33.9920	0	26.776	0	331.917	0	58.0	4	19.1	4	-1E+10	1	-1E+10	1	-1E+10	1	-1E+10	1	-1E+10	1	-1E+10	1
4902663	20	C	02/19/2024	10:12	-127.611	48.098	0	335.90	0	5.8730	0	33.9930	0	26.776	0	332.808	0	57.7	4	19.0	4	-1E+10	1	-1E+10	1	-1E+10	1	-1E+10	1	-1E+10	1	-1E+10	1
4902663	20	C	02/19/2024	10:12	-127.611	48.098	0	336.90	0	5.8730	0	33.9920	0	26.776	0	333.798	0	57.4	4	18.9	4	-1E+10	1	-1E+10	1	-1E+10	1	-1E+10	1	-1E+10	1	-1E+10	1
4902663	20	C	02/19/2024	10:12	-127.611	48.098	0	337.80	0	5.8730	0	33.9920	0	26.776	0	334.689	0	57.0	4	18.8	4	-1E+10	1	-1E+10	1	-1E+10	1	-1E+10	1	-1E+10	1	-1E+10	1
4902663	20	C	02/19/2024	10:12	-127.611	48.098	0	338.80	0	5.8720	0	33.9930	0	26.777	0	335.679	0	56.6	4	18.7	4	-1E+10	1	-1E+10	1	-1E+10	1	-1E+10	1	-1E+10	1	-1E+10	1
4902663	20	C	02/19/2024	10:12	-127.611	48.098	0	339.70	0	5.8690	0	33.9950	0	26.779	0	336.570	0	56.2	4	18.5	4	-1E+10	1	-1E+10	1	-1E+10	1	-1E+10	1	-1E+10	1	-1E+10	1
4902663	20	C	02/19/2024	10:12	-127.611	48.098	0	340.70	0	5.8660	0	33.9950	0	26.779	0	337.560	0	55.9	4	18.4	4	-1E+10	1	-1E+10	1	-1E+10	1	-1E+10	1	-1E+10	1	-1E+10	1
4902663	20	C	02/19/2024	10:12	-127.611	48.098	0	341.60	0	5.8600	0	33.9960	0	26.781	0	338.451	0	55.5	4	18.3	4	-1E+10	1	-1E+10	1	-1E+10	1	-1E+10	1	-1E+10	1	-1E+10	1
4902663	20	C	02/19/2024	10:12	-127.611	48.098	0	342.60	0	5.8550	0	33.9960	0	26.781	0	339.441	0	55.1	4	18.1	4	-1E+10	1	-1E+10	1	-1E+10	1	-1E+10	1	-1E+10	1	-1E+10	1
4902663	20	C	02/19/2024	10:12	-127.611	48.098	0	343.50	0	5.8390	0	33.9970	0	26.784	0	340.332	0	54.7	4	18.0	4	-1E+10	1	-1E+10	1	-1E+10	1	-1E+10	1	-1E+10	1	-1E+10	1
4902663	20	C	02/19/2024	10:12	-127.611	48.098	0	344.50	0	5.8200	0	34.0000	0	26.789	0	341.322	0	54.3	4	17.9	4	-1E+10	1	-1E+10	1	-1E+10	1	-1E+10	1	-1E+10	1	-1E+10	1
4902663	20	C	02/19/2024	10:12	-127.611	48.098	0	345.50	0	5.8100	0	34.0020	0	26.791	0	342.312	0	54.0	4	17.8	4	-1E+10	1	-1E+10	1	-1E+10	1	-1E+10	1	-1E+10	1	-1E+10	1
4902663	20	C	02/19/2024	10:12	-127.611	48.098	0	346.90	0	5.7940	0	34.0030	0	26.794	0	343.697	0	53.7	4	17.7	4	-1E+10	1	-1E+10	1	-1E+10	1	-1E+10	1	-1E+10	1	-1E+10	1
4902663	20	C	02/19/2024	10:12	-127.611	48.098	0	348.40	0	5.7870	0	34.0030	0	26.795	0	345.182	0	53.3	4	17.5	4	-1E+10	1	-1E+10	1	-1E+10	1	-1E+10	1	-1E+10	1	-1E+10	1
4902663	20	C	02/19/2024	10:12	-127.611	48.098	0	349.40	0	5.7750	0	34.0060	0	26.799	0	346.172	0	53.1	4	17.5	4	-1E+10	1	-1E+10	1	-1E+10	1	-1E+10	1	-1E+10	1	-1E+10	1
4902663	20	C	02/19/2024	10:12	-127.611	48.098	0	350.30	0	5.7620	0	34.0060	0	26.801	0	347.063	0	52.9	4	17.4	4	-1E+10	1	-1E+10	1	-1E+10	1	-1E+10	1	-1E+10	1	-1E+10	1
4902663	20	C	02/19/2024	10:12	-127.611	48.098	0	353.30	0	5.7430	0	34.0080	0	26.805	0	350.033	0	52.6	4	17.3	4	-1E+10	1	-1E+10	1	-1E+10	1	-1E+10	1	-1E+10	1	-1E+10	1
4902663	20	C	02/19/2024	10:12	-127.611	48.098	0	358.20	0	5.6890	0	34.0080	0	26.811	0	354.883	0	52.0	4	17.1	4	-1E+10	1	-1E+10	1	-1E+10	1	-1E+10	1	-1E+10	1	-1E+10	1
4902663	20	C	02/19/2024	10:12	-127.611	48.098	0	363.20	0	5.6560	0	34.0090	0	26.816	0	359.833	0	50.8	4	16.7	4	-1E+10	1	-1E+10	1	-1E+10	1	-1E+10	1	-1E+10	1	-1E+10	1
4902663	20	C	02/19/2024	10:12	-127.611	48.098	0	368.10	0	5.6310	0	34.0110	0	26.821	0	364.683	0	49.5	4	16.2	4	-1E+10	1	-1E+10	1	-1E+10	1	-1E+10	1	-1E+10	1	-1E+10	1
4902663	20	C	02/19/2024	10:12	-127.611	48.098	0	372.90	0	5.5880	0	34.0130	0	26.827	0	369.434	0	47.4	4	15.5	4	-1E+10	1	-1E+10	1	-1E+10	1	-1E+10	1	-1E+10	1	-1E+10	1
4902663	20	C	02/19/2024	10:12	-127.611	48.098	0	377.90	0	5.5750	0	34.0250	0	26.839	0	374.383	0	46.2	4	15.1	4	-1E+10	1	-1E+10	1	-1E+10	1	-1E+10	1	-1E+10	1	-1E+10	1
4902663	20	C	02/19/2024	10:12	-127.611	48.098	0	382.80	0	5.5450	0	34.0250	0	26.842	0	379.233	0	45.5	4	14.9	4	-1E+10	1	-1E+10	1	-1E+10	1	-1E+10	1	-1E+10	1	-1E+10	1
4902663	20	C	02/19/2024	10:12	-127.611	48.098	0	387.70	0	5.5320	0	34.0300	0	26.848	0	384.083	0	45.0	4	14.7	4	-1E+10	1	-1E+10	1	-1E+10	1	-1E+10	1	-1E+10	1	-1E+10	1
4902663	20	C	02/19/2024	10:12	-127.611	48.098	0	392.60	0	5.4680	0	34.0280	0	26.854	0	388.933	0	44.7	4	14.6	4	-1E+10	1	-1E+10	1	-1E+10	1	-1E+10	1	-1E+10	1	-1E+10	1
4902663	20	C	02/19/2024	10:12	-127.611	48.098	0	398.00	0	5.3950	0	34.0290	0	26.863	0	394.277	0	43.4	4	14.2	4	-1E+10	1	-1E+10	1	-1E+10	1	-1E+10	1	-1E+10	1	-1E+10	1
4902663	20	C	02/19/2024	10:12	-127.611	48.098	0	403.30	0	5.3510	0	34.0320	0	26.871	0	399.522	0	42.1	4	13.7	4	-1E+10	1	-1E+10	1	-1E+10	1	-1E+10	1	-1E+10	1	-1E+10	1
4902663	20	C	02/19/2024	10:12	-127.611	48.098	0	408.10	0	5.3460	0	34.0400	0	26.878	0	404.273	0	40.9	4	13.3	4	-1E+10	1	-1E+10	1	-1E+10	1	-1E+10	1	-1E+10	1	-1E+10	1
4902663	20	C	02/19/2024	10:12	-127.611	48.098	0	413.10	0	5.3320	0	34.0440	0	26.883	0	409.221	0	40.6	4	13.2	4	-1E+10	1	-1E+10	1	-1E+10	1	-1E+10	1	-1E+10	1	-1E+10	1
4902663	20	C	02/19/2024	10:12	-127.611	48.098	0	418.10	0	5.2430	0	34.0380	0	26.889	0	414.169	0	39.5	4	12.8	4	-1E+10	1	-1E+10	1	-1E+10	1	-1E+10	1	-1E+10	1	-1E+10	1
4902663	20	C	02/19/2024	10:12	-127.611	48.098	0	423.00	0	5.2370	0	34.0450	0	26.895	0	419.018	0	38.0	4	12.4	4	-1E+10	1	-1E+10	1	-1E+10	1	-1E+10	1	-1E+10	1	-1E+10	1
4902663	20	C	02/19/2024	10:12	-127.611	48.098	0	428.00	0	5.2710	0	34.0530	0	26.897	0	423.966	0	36.4	4	11.8	4	-1E+10	1	-1E+10	1	-1E+10	1	-1E+10	1	-1E+10	1	-1E+10	1
4902663	20	C	02/19/2024	10:12	-127.611	48.098	0	433.00	0	5.2760	0	34.0620	0	26.904	0	428.914	0	35.1	4	11.4	4	-1E+10	1	-1E+10	1	-1E+10	1	-1E+10	1	-1E+10	1	-1E+10	1
4902663	20	C	02/19/2024	10:12	-127.611	48.098	0	438.00	0	5.2660	0	34.0700	0	26.911	0	433.861	0	33.8	4	11.0	4	-1E+10	1	-1E+10	1	-1E+10	1	-1E+10	1	-1E+10	1	-1E+10	1
4902663	20	C	02/19/2024	10:12	-127.611	48.098	0	443.10	0	5.2520	0	34.0760	0	26.918	0	438.908	0	33.1	4	10.8	4	-1E+10	1	-1E+10	1	-1E+10	1	-1E+10	1	-1E+10	1	-1E+10	1
4902663	20	C	02/19/2024	10:12	-127.611	48.098	0	448.30	0	5.2420	0	34.0800	0	26.922	0	444.053	0	33.0	4	10.7	4	-1E+10	1	-1E+10	1	-1E+10	1	-1E+10	1	-1E+10	1	-1E+10	1
4902663	20	C	02/19/2024	10:12	-127.611	48.098	0	453.00	0	5.2290	0	34.0810	0	26.925	0	448.703	0	33.7	4	10.9	4	-1E+10	1	-1E+10	1	-1E+10	1	-1E+10	1	-1E+10	1	-1E+10	1
4902663	20	C	02/19/2024	10:12	-127.611	48.098	0	457.60	0	5.1790	0	34.0780	0	26.928	0	453.255	0	35.3	4	11.5	4	-1E+10	1	-1E+10	1	-1E+10	1	-1E+10	1	-1E+10	1	-1E+10	1
4902663	20	C	02/19/2024	10:12	-127.611	48.098	0	462.80	0	4.9890	0	34.0560	0	26.932	0	458.399	0	37.3	4	12.0	4	-1E+10	1	-1E+10	1	-1E+10	1	-1E+10	1	-1E+10	1	-1E+10	1
4902663	20	C	02/19/2024	10:12	-127.611	48.098	0	468.00	0	4.8550	0	34.0440	0	26.938	0	463.544	0	37.7	4	12.1	4	-1E+10	1	-1E+10	1	-1E+10	1	-1E+10	1	-1E+10	1	-1E+10	1
4902663	20	C	02/19/2024	10:12	-127.611	48.098	0	473.10	0	4.7850	0	34.0390	0	26.942	0	468.590	0	37.5	4	12.1	4	-1E+10	1	-1E+10	1	-1E+10	1	-1E+10	1	-1E+10	1	-1E+10	1
4902663	20	C	02/19/2024	10:12	-127.611	48.098	0	477.70	0	4.7470	0	34.0370	0	26.944	0	473.141	0	36.5	4	11.7	4	-1E+10	1	-1E+10	1	-1E+10	1	-1E+10	1	-1E+10	1	-1E+10	1
4902663	20	C	02/19/2024	10:12	-127.611	48.098	0	482.50	0	4.7380	0	34.0420	0	26.949	0	477.889	0	34.9	4	11.2	4	-1E+10	1	-1E+10	1	-1E+10	1	-1E+10	1	-1E+10	1	-1E+10	1
4902663	20	C	02/19/2024	10:12	-127.611	48.098	0	487.70	0	4.7670	0	34.0550	0	26.957	0	483.034	0	33.8	4	10.9	4	-1E+10	1	-1E+10	1	-1E+10	1	-1E+10	1	-1E+10	1	-1E+10	1
4902663	20	C	02/19/2024	10:12	-127.611	48.098	0	492.80	0	4.7560	0	34.0570	0	26.960	0	488.079	0	33.3	4	10.7	4	-1E+10	1	-1E+10	1	-1E+10	1	-1E+10	1	-1E+10	1	-1E+10	1
4902663	20	C	02/19/2024	10:12	-127.611	48.098	0	498.00	0	4.7400	0	34.0590	0	26.963	0	493.223	0	33.1	4	10.6	4	-1E+10	1	-1E+10	1	-1E+10	1	-1E+10	1	-1E+10	1	-1E+10	1
4902663	20	C	02/19/2024	10:12	-127.611	48.098	0	503.10	0	4.6620	0	34.0540	0	26.968	0	498.268	0	32.2	4	10.3	4	-1E+10	1	-1E+10	1	-1E+10	1	-1E+10	1	-1E+10	1	-1E+10	1
4902663	20	C	02/19/2024	10:12	-127.611	48.098	0	508.20	0	4.6460	0	34.0610	0	26.975	0	503.313	0	30.6	4	9.8	4	-1E+10	1	-1E+10	1	-1E+10	1	-1E+10	1	-1E+10	1	-1E+10	1
4902663	20	C	02/19/2024	10:12	-127.611	48.098	0	513.30	0	4.6490	0	34.0710	0	26.983	0	508.357	0	29.1	4	9.3	4	-1E+10	1	-1E+10	1	-1E+10	1	-1E+10	1	-1E+10	1	-1E+10	1
4902663	20	C	02/19/2024	10:12	-127.611	48.098	0	518.30	0	4.6180	0	34.0770	0	26.991	0	513.303	0	27.6	4	8.8	4	-1E+10	1	-1E+10	1	-1E+10	1	-1E+10	1	-1E+10	1	-1E+10	1
4902663	20	C	02/19/2024	10:12	-127.611	48.098	0	522.90	0	4.6140	0	34.0850	0	26.998	0	517.853	0	26.2	4	8.4	4	-1E+10	1	-1E+10	1	-1E+10	1	-1E+10	1	-1E+10	1	-1E+10	1
4902663	20	C	02/19/2024	10:12	-127.611	48.098	0	527.90	0	4.6240	0	34.0940	0	27.004	0	522.799	0	24.8	4	7.9	4	-1E+10	1	-1E+10	1	-1E+10	1	-1E+10	1	-1E+10	1	-1E+10	1
4902663	20	C	02/19/2024	10:12	-127.611	48.098	0	533.00	0	4.6410	0	34.1040	0	27.010	0	527.843	0	23.5	4	7.5	4	-1E+10	1	-1E+10	1	-1E+10	1	-1E+10	1	-1E+10	1	-1E+10	1
4902663	20	C	02/19/2024	10:12	-127.611	48.098	0	537.80	0	4.6670	0	34.1100	0	27.012	0	532.590	0	22.5	4	7.2	4	-1E+10	1	-1E+10	1	-1E+10	1	-1E+10	1	-1E+10	1	-1E+10	1
4902663	20	C	02/19/2024	10:12	-127.611	48.098	0	542.70	0	4.6760	0	34.1170	0	27.016	0	537.436	0	21.7	4	7.0	4	-1E+10	1	-1E+10	1	-1E+10	1	-1E+10	1	-1E+10	1	-1E+10	1
4902663	20	C	02/19/2024	10:12	-127.611	48.098	0	547.70	0	4.6460	0	34.1180	0	27.021	0	542.381	0	21.1	4	6.8	4	-1E+10	1	-1E+10	1	-1E+10	1	-1E+10	1	-1E+10	1	-1E+10	1
4902663	20	C	02/19/2024	10:12	-127.611	48.098	0	552.90	0	4.6620	0	34.1270	0	27.026	0	547.524	0	20.0	4	6.4	4	-1E+10	1	-1E+10	1	-1E+10	1	-1E+10	1	-1E+10	1	-1E+10	1
4902663	20	C	02/19/2024	10:12	-127.611	48.098	0	557.90	0	4.6550	0	34.1300	0	27.029	0	552.469	0	19.6	4	6.3	4	-1E+10	1	-1E+10	1	-1E+10	1	-1E+10	1	-1E+10	1	-1E+10	1
4902663	20	C	02/19/2024	10:12	-127.611	48.098	0	563.00	0	4.6320	0	34.1310	0	27.032	0	557.512	0	18.8	4	6.0	4	-1E+10	1	-1E+10	1	-1E+10	1	-1E+10	1	-1E+10	1	-1E+10	1
4902663	20	C	02/19/2024	10:12	-127.611	48.098	0	568.10	0	4.6430	0	34.1410	0	27.039	0	562.556	0	17.8	4	5.7	4	-1E+10	1	-1E+10	1	-1E+10	1	-1E+10	1	-1E+10	1	-1E+10	1
4902663	20	C	02/19/2024	10:12	-127.611	48.098	0	573.00	0	4.6510	0	34.1480	0	27.044	0	567.401	0	17.2	4	5.5	4	-1E+10	1	-1E+10	1	-1E+10	1	-1E+10	1	-1E+10	1	-1E+10	1
4902663	20	C	02/19/2024	10:12	-127.611	48.098	0	577.80	0	4.6370	0	34.1510	0	27.048	0	572.148	0	16.7	4	5.3	4	-1E+10	1	-1E+10	1	-1E+10	1	-1E+10	1	-1E+10	1	-1E+10	1
4902663	20	C	02/19/2024	10:12	-127.611	48.098	0	582.80	0	4.6350	0	34.1570	0	27.053	0	577.092	0	16.2	4	5.2	4	-1E+10	1	-1E+10	1	-1E+10	1	-1E+10	1	-1E+10	1	-1E+10	1
4902663	20	C	02/19/2024	10:12	-127.611	48.098	0	587.80	0	4.6280	0	34.1600	0	27.056	0	582.036	0	16.0	4	5.1	4	-1E+10	1	-1E+10	1	-1E+10	1	-1E+10	1	-1E+10	1	-1E+10	1
4902663	20	C	02/19/2024	10:12	-127.611	48.098	0	592.90	0	4.5930	0	34.1600	0	27.060	0	587.079	0	15.8	4	5.0	4	-1E+10	1	-1E+10	1	-1E+10	1	-1E+10	1	-1E+10	1	-1E+10	1
4902663	20	C	02/19/2024	10:12	-127.611	48.098	0	598.10	0	4.5720	0	34.1610	0	27.063	0	592.220	0	15.4	4	4.9	4	-1E+10	1	-1E+10	1	-1E+10	1	-1E+10	1	-1E+10	1	-1E+10	1
4902663	20	C	02/19/2024	10:12	-127.611	48.098	0	603.30	0	4.5510	0	34.1650	0	27.069	0	597.362	0	15.0	4	4.8	4	-1E+10	1	-1E+10	1	-1E+10	1	-1E+10	1	-1E+10	1	-1E+10	1
4902663	20	C	02/19/2024	10:12	-127.611	48.098	0	608.00	0	4.5250	0	34.1660	0	27.072	0	602.009	0	14.6	4	4.7	4	-1E+10	1	-1E+10	1	-1E+10	1	-1E+10	1	-1E+10	1	-1E+10	1
4902663	20	C	02/19/2024	10:12	-127.611	48.098	0	612.70	0	4.5200	0	34.1710	0	27.077	0	606.656	0	14.2	4	4.6	4	-1E+10	1	-1E+10	1	-1E+10	1	-1E+10	1	-1E+10	1	-1E+10	1
4902663	20	C	02/19/2024	10:12	-127.611	48.098	0	617.90	0	4.4940	0	34.1750	0	27.083	0	611.797	0	13.9	4	4.4	4	-1E+10	1	-1E+10	1	-1E+10	1	-1E+10	1	-1E+10	1	-1E+10	1
4902663	20	C	02/19/2024	10:12	-127.611	48.098	0	623.10	0	4.4730	0	34.1780	0	27.088	0	616.937	0	13.6	4	4.4	4	-1E+10	1	-1E+10	1	-1E+10	1	-1E+10	1	-1E+10	1	-1E+10	1
4902663	20	C	02/19/2024	10:12	-127.611	48.098	0	628.30	0	4.4640	0	34.1790	0	27.089	0	622.078	0	13.3	4	4.3	4	-1E+10	1	-1E+10	1	-1E+10	1	-1E+10	1	-1E+10	1	-1E+10	1
4902663	20	C	02/19/2024	10:12	-127.611	48.098	0	633.00	0	4.4520	0	34.1820	0	27.093	0	626.725	0	13.0	4	4.2	4	-1E+10	1	-1E+10	1	-1E+10	1	-1E+10	1	-1E+10	1	-1E+10	1
4902663	20	C	02/19/2024	10:12	-127.611	48.098	0	637.60	0	4.4470	0	34.1870	0	27.098	0	631.272	0	12.7	4	4.1	4	-1E+10	1	-1E+10	1	-1E+10	1	-1E+10	1	-1E+10	1	-1E+10	1
4902663	20	C	02/19/2024	10:12	-127.611	48.098	0	642.70	0	4.4440	0	34.1890	0	27.100	0	636.314	0	12.3	4	3.9	4	-1E+10	1	-1E+10	1	-1E+10	1	-1E+10	1	-1E+10	1	-1E+10	1
4902663	20	C	02/19/2024	10:12	-127.611	48.098	0	647.80	0	4.4510	0	34.1950	0	27.104	0	641.355	0	12.0	4	3.8	4	-1E+10	1	-1E+10	1	-1E+10	1	-1E+10	1	-1E+10	1	-1E+10	1
4902663	20	C	02/19/2024	10:12	-127.611	48.098	0	652.80	0	4.4420	0	34.1980	0	27.107	0	646.298	0	11.6	4	3.7	4	-1E+10	1	-1E+10	1	-1E+10	1	-1E+10	1	-1E+10	1	-1E+10	1
4902663	20	C	02/19/2024	10:12	-127.611	48.098	0	657.80	0	4.4470	0	34.2050	0	27.112	0	651.240	0	11.2	4	3.6	4	-1E+10	1	-1E+10	1	-1E+10	1	-1E+10	1	-1E+10	1	-1E+10	1
4902663	20	C	02/19/2024	10:12	-127.611	48.098	0	662.80	0	4.4360	0	34.2090	0	27.116	0	656.182	0	10.9	4	3.5	4	-1E+10	1	-1E+10	1	-1E+10	1	-1E+10	1	-1E+10	1	-1E+10	1
4902663	20	C	02/19/2024	10:12	-127.611	48.098	0	667.70	0	4.4280	0	34.2130	0	27.121	0	661.026	0	10.6	4	3.4	4	-1E+10	1	-1E+10	1	-1E+10	1	-1E+10	1	-1E+10	1	-1E+10	1
4902663	20	C	02/19/2024	10:12	-127.611	48.098	0	672.60	0	4.4160	0	34.2160	0	27.124	0	665.869	0	10.4	4	3.3	4	-1E+10	1	-1E+10	1	-1E+10	1	-1E+10	1	-1E+10	1	-1E+10	1
4902663	20	C	02/19/2024	10:12	-127.611	48.098	0	678.00	0	4.4000	0	34.2200	0	27.129	0	671.206	0	10.2	4	3.2	4	-1E+10	1	-1E+10	1	-1E+10	1	-1E+10	1	-1E+10	1	-1E+10	1
4902663	20	C	02/19/2024	10:12	-127.611	48.098	0	683.30	0	4.3810	0	34.2240	0	27.134	0	676.444	0	10.0	4	3.2	4	-1E+10	1	-1E+10	1	-1E+10	1	-1E+10	1	-1E+10	1	-1E+10	1
4902663	20	C	02/19/2024	10:12	-127.611	48.098	0	688.10	0	4.3650	0	34.2260	0	27.138	0	681.188	0	9.8	4	3.1	4	-1E+10	1	-1E+10	1	-1E+10	1	-1E+10	1	-1E+10	1	-1E+10	1
4902663	20	C	02/19/2024	10:12	-127.611	48.098	0	692.90	0	4.3480	0	34.2280	0	27.141	0	685.932	0	9.6	4	3.1	4	-1E+10	1	-1E+10	1	-1E+10	1	-1E+10	1	-1E+10	1	-1E+10	1
4902663	20	C	02/19/2024	10:12	-127.611	48.098	0	697.80	0	4.3240	0	34.2320	0	27.147	0	690.775	0	9.4	4	3.0	4	-1E+10	1	-1E+10	1	-1E+10	1	-1E+10	1	-1E+10	1	-1E+10	1
4902663	20	C	02/19/2024	10:12	-127.611	48.098	0	702.60	0	4.3050	0	34.2360	0	27.152	0	695.519	0	9.2	4	2.9	4	-1E+10	1	-1E+10	1	-1E+10	1	-1E+10	1	-1E+10	1	-1E+10	1
4902663	20	C	02/19/2024	10:12	-127.611	48.098	0	707.90	0	4.2920	0	34.2390	0	27.156	0	700.756	0	9.0	4	2.9	4	-1E+10	1	-1E+10	1	-1E+10	1	-1E+10	1	-1E+10	1	-1E+10	1
4902663	20	C	02/19/2024	10:12	-127.611	48.098	0	713.20	0	4.2770	0	34.2430	0	27.161	0	705.994	0	8.8	4	2.8	4	-1E+10	1	-1E+10	1	-1E+10	1	-1E+10	1	-1E+10	1	-1E+10	1
4902663	20	C	02/19/2024	10:12	-127.611	48.098	0	718.00	0	4.2630	0	34.2480	0	27.166	0	710.737	0	8.7	4	2.8	4	-1E+10	1	-1E+10	1	-1E+10	1	-1E+10	1	-1E+10	1	-1E+10	1
4902663	20	C	02/19/2024	10:12	-127.611	48.098	0	722.90	0	4.2570	0	34.2500	0	27.169	0	715.579	0	8.5	4	2.7	4	-1E+10	1	-1E+10	1	-1E+10	1	-1E+10	1	-1E+10	1	-1E+10	1
4902663	20	C	02/19/2024	10:12	-127.611	48.098	0	727.70	0	4.2480	0	34.2560	0	27.174	0	720.322	0	8.4	4	2.7	4	-1E+10	1	-1E+10	1	-1E+10	1	-1E+10	1	-1E+10	1	-1E+10	1
4902663	20	C	02/19/2024	10:12	-127.611	48.098	0	732.60	0	4.2400	0	34.2580	0	27.177	0	725.164	0	8.3	4	2.6	4	-1E+10	1	-1E+10	1	-1E+10	1	-1E+10	1	-1E+10	1	-1E+10	1
4902663	20	C	02/19/2024	10:12	-127.611	48.098	0	737.90	0	4.2350	0	34.2620	0	27.181	0	730.401	0	8.1	4	2.6	4	-1E+10	1	-1E+10	1	-1E+10	1	-1E+10	1	-1E+10	1	-1E+10	1
4902663	20	C	02/19/2024	10:12	-127.611	48.098	0	743.30	0	4.2300	0	34.2650	0	27.183	0	735.737	0	8.1	4	2.6	4	-1E+10	1	-1E+10	1	-1E+10	1	-1E+10	1	-1E+10	1	-1E+10	1
4902663	20	C	02/19/2024	10:12	-127.611	48.098	0	748.10	0	4.2240	0	34.2660	0	27.185	0	740.479	0	8.0	4	2.5	4	-1E+10	1	-1E+10	1	-1E+10	1	-1E+10	1	-1E+10	1	-1E+10	1
4902663	20	C	02/19/2024	10:12	-127.611	48.098	0	753.10	0	4.2130	0	34.2680	0	27.188	0	745.419	0	7.9	4	2.5	4	-1E+10	1	-1E+10	1	-1E+10	1	-1E+10	1	-1E+10	1	-1E+10	1
4902663	20	C	02/19/2024	10:12	-127.611	48.098	0	758.00	0	4.1940	0	34.2730	0	27.194	0	750.261	0	7.8	4	2.5	4	-1E+10	1	-1E+10	1	-1E+10	1	-1E+10	1	-1E+10	1	-1E+10	1
4902663	20	C	02/19/2024	10:12	-127.611	48.098	0	762.90	0	4.1860	0	34.2770	0	27.198	0	755.102	0	7.8	4	2.5	4	-1E+10	1	-1E+10	1	-1E+10	1	-1E+10	1	-1E+10	1	-1E+10	1
4902663	20	C	02/19/2024	10:12	-127.611	48.098	0	767.90	0	4.1520	0	34.2790	0	27.203	0	760.042	0	7.9	4	2.5	4	-1E+10	1	-1E+10	1	-1E+10	1	-1E+10	1	-1E+10	1	-1E+10	1
4902663	20	C	02/19/2024	10:12	-127.611	48.098	0	773.00	0	4.1060	0	34.2790	0	27.208	0	765.080	0	8.0	4	2.5	4	-1E+10	1	-1E+10	1	-1E+10	1	-1E+10	1	-1E+10	1	-1E+10	1
4902663	20	C	02/19/2024	10:12	-127.611	48.098	0	778.20	0	4.0780	0	34.2790	0	27.211	0	770.217	0	7.8	4	2.5	4	-1E+10	1	-1E+10	1	-1E+10	1	-1E+10	1	-1E+10	1	-1E+10	1
4902663	20	C	02/19/2024	10:12	-127.611	48.098	0	783.30	0	4.0860	0	34.2840	0	27.214	0	775.255	0	7.7	4	2.4	4	-1E+10	1	-1E+10	1	-1E+10	1	-1E+10	1	-1E+10	1	-1E+10	1
4902663	20	C	02/19/2024	10:12	-127.611	48.098	0	787.90	0	4.0750	0	34.2860	0	27.217	0	779.800	0	7.7	4	2.4	4	-1E+10	1	-1E+10	1	-1E+10	1	-1E+10	1	-1E+10	1	-1E+10	1
4902663	20	C	02/19/2024	10:12	-127.611	48.098	0	792.60	0	4.0800	0	34.2900	0	27.219	0	784.442	0	7.6	4	2.4	4	-1E+10	1	-1E+10	1	-1E+10	1	-1E+10	1	-1E+10	1	-1E+10	1
4902663	20	C	02/19/2024	10:12	-127.611	48.098	0	798.00	0	4.0610	0	34.2930	0	27.224	0	789.777	0	7.7	4	2.4	4	-1E+10	1	-1E+10	1	-1E+10	1	-1E+10	1	-1E+10	1	-1E+10	1
4902663	20	C	02/19/2024	10:12	-127.611	48.098	0	803.20	0	4.0110	0	34.2910	0	27.227	0	794.913	0	7.8	4	2.5	4	-1E+10	1	-1E+10	1	-1E+10	1	-1E+10	1	-1E+10	1	-1E+10	1
4902663	20	C	02/19/2024	10:12	-127.611	48.098	0	808.00	0	3.9850	0	34.2910	0	27.230	0	799.654	0	7.9	4	2.5	4	-1E+10	1	-1E+10	1	-1E+10	1	-1E+10	1	-1E+10	1	-1E+10	1
4902663	20	C	02/19/2024	10:12	-127.611	48.098	0	812.80	0	3.9730	0	34.2910	0	27.231	0	804.396	0	7.9	4	2.5	4	-1E+10	1	-1E+10	1	-1E+10	1	-1E+10	1	-1E+10	1	-1E+10	1
4902663	20	C	02/19/2024	10:12	-127.611	48.098	0	817.70	0	3.9400	0	34.2920	0	27.235	0	809.235	0	7.9	4	2.5	4	-1E+10	1	-1E+10	1	-1E+10	1	-1E+10	1	-1E+10	1	-1E+10	1
4902663	20	C	02/19/2024	10:12	-127.611	48.098	0	822.60	0	3.9160	0	34.2950	0	27.240	0	814.075	0	7.8	4	2.5	4	-1E+10	1	-1E+10	1	-1E+10	1	-1E+10	1	-1E+10	1	-1E+10	1
4902663	20	C	02/19/2024	10:12	-127.611	48.098	0	827.90	0	3.8960	0	34.2980	0	27.245	0	819.310	0	7.7	4	2.4	4	-1E+10	1	-1E+10	1	-1E+10	1	-1E+10	1	-1E+10	1	-1E+10	1
4902663	20	C	02/19/2024	10:12	-127.611	48.098	0	833.30	0	3.9370	0	34.3080	0	27.248	0	824.643	0	7.6	4	2.4	4	-1E+10	1	-1E+10	1	-1E+10	1	-1E+10	1	-1E+10	1	-1E+10	1
4902663	20	C	02/19/2024	10:12	-127.611	48.098	0	837.90	0	3.9160	0	34.3080	0	27.251	0	829.186	0	7.8	4	2.5	4	-1E+10	1	-1E+10	1	-1E+10	1	-1E+10	1	-1E+10	1	-1E+10	1
4902663	20	C	02/19/2024	10:12	-127.611	48.098	0	842.70	0	3.8270	0	34.3020	0	27.255	0	833.927	0	8.0	4	2.5	4	-1E+10	1	-1E+10	1	-1E+10	1	-1E+10	1	-1E+10	1	-1E+10	1
4902663	20	C	02/19/2024	10:12	-127.611	48.098	0	847.90	0	3.8060	0	34.3040	0	27.259	0	839.062	0	7.9	4	2.5	4	-1E+10	1	-1E+10	1	-1E+10	1	-1E+10	1	-1E+10	1	-1E+10	1
4902663	20	C	02/19/2024	10:12	-127.611	48.098	0	852.90	0	3.7930	0	34.3050	0	27.261	0	844.000	0	7.9	4	2.5	4	-1E+10	1	-1E+10	1	-1E+10	1	-1E+10	1	-1E+10	1	-1E+10	1
4902663	20	C	02/19/2024	10:12	-127.611	48.098	0	857.80	0	3.7800	0	34.3080	0	27.264	0	848.839	0	7.9	4	2.5	4	-1E+10	1	-1E+10	1	-1E+10	1	-1E+10	1	-1E+10	1	-1E+10	1
4902663	20	C	02/19/2024	10:12	-127.611	48.098	0	862.80	0	3.7810	0	34.3100	0	27.266	0	853.777	0	7.8	4	2.5	4	-1E+10	1	-1E+10	1	-1E+10	1	-1E+10	1	-1E+10	1	-1E+10	1
4902663	20	C	02/19/2024	10:12	-127.611	48.098	0	867.70	0	3.7770	0	34.3120	0	27.268	0	858.615	0	7.9	4	2.5	4	-1E+10	1	-1E+10	1	-1E+10	1	-1E+10	1	-1E+10	1	-1E+10	1
4902663	20	C	02/19/2024	10:12	-127.611	48.098	0	872.70	0	3.7530	0	34.3130	0	27.271	0	863.553	0	7.9	4	2.5	4	-1E+10	1	-1E+10	1	-1E+10	1	-1E+10	1	-1E+10	1	-1E+10	1
4902663	20	C	02/19/2024	10:12	-127.611	48.098	0	877.70	0	3.7250	0	34.3140	0	27.275	0	868.490	0	8.0	4	2.5	4	-1E+10	1	-1E+10	1	-1E+10	1	-1E+10	1	-1E+10	1	-1E+10	1
4902663	20	C	02/19/2024	10:12	-127.611	48.098	0	882.80	0	3.7040	0	34.3160	0	27.278	0	873.526	0	8.0	4	2.5	4	-1E+10	1	-1E+10	1	-1E+10	1	-1E+10	1	-1E+10	1	-1E+10	1
4902663	20	C	02/19/2024	10:12	-127.611	48.098	0	887.80	0	3.6950	0	34.3170	0	27.280	0	878.463	0	7.9	4	2.5	4	-1E+10	1	-1E+10	1	-1E+10	1	-1E+10	1	-1E+10	1	-1E+10	1
4902663	20	C	02/19/2024	10:12	-127.611	48.098	0	892.80	0	3.6920	0	34.3190	0	27.282	0	883.399	0	7.9	4	2.5	4	-1E+10	1	-1E+10	1	-1E+10	1	-1E+10	1	-1E+10	1	-1E+10	1
4902663	20	C	02/19/2024	10:12	-127.611	48.098	0	897.80	0	3.6740	0	34.3220	0	27.286	0	888.336	0	7.9	4	2.5	4	-1E+10	1	-1E+10	1	-1E+10	1	-1E+10	1	-1E+10	1	-1E+10	1
4902663	20	C	02/19/2024	10:12	-127.611	48.098	0	902.90	0	3.6590	0	34.3240	0	27.289	0	893.372	0	7.9	4	2.5	4	-1E+10	1	-1E+10	1	-1E+10	1	-1E+10	1	-1E+10	1	-1E+10	1
4902663	20	C	02/19/2024	10:12	-127.611	48.098	0	907.90	0	3.6540	0	34.3270	0	27.292	0	898.308	0	7.9	4	2.5	4	-1E+10	1	-1E+10	1	-1E+10	1	-1E+10	1	-1E+10	1	-1E+10	1
4902663	20	C	02/19/2024	10:12	-127.611	48.098	0	913.00	0	3.6510	0	34.3280	0	27.293	0	903.343	0	7.9	4	2.5	4	-1E+10	1	-1E+10	1	-1E+10	1	-1E+10	1	-1E+10	1	-1E+10	1
4902663	20	C	02/19/2024	10:12	-127.611	48.098	0	917.60	0	3.6400	0	34.3330	0	27.298	0	907.885	0	7.8	4	2.4	4	-1E+10	1	-1E+10	1	-1E+10	1	-1E+10	1	-1E+10	1	-1E+10	1
4902663	20	C	02/19/2024	10:12	-127.611	48.098	0	922.70	0	3.6310	0	34.3360	0	27.302	0	912.919	0	7.8	4	2.4	4	-1E+10	1	-1E+10	1	-1E+10	1	-1E+10	1	-1E+10	1	-1E+10	1
4902663	20	C	02/19/2024	10:12	-127.611	48.098	0	927.80	0	3.6220	0	34.3390	0	27.305	0	917.954	0	7.8	4	2.4	4	-1E+10	1	-1E+10	1	-1E+10	1	-1E+10	1	-1E+10	1	-1E+10	1
4902663	20	C	02/19/2024	10:12	-127.611	48.098	0	932.80	0	3.6130	0	34.3410	0	27.308	0	922.890	0	7.8	4	2.4	4	-1E+10	1	-1E+10	1	-1E+10	1	-1E+10	1	-1E+10	1	-1E+10	1
4902663	20	C	02/19/2024	10:12	-127.611	48.098	0	937.90	0	3.6130	0	34.3450	0	27.311	0	927.925	0	7.8	4	2.4	4	-1E+10	1	-1E+10	1	-1E+10	1	-1E+10	1	-1E+10	1	-1E+10	1
4902663	20	C	02/19/2024	10:12	-127.611	48.098	0	943.10	0	3.5920	0	34.3470	0	27.315	0	933.058	0	7.8	4	2.5	4	-1E+10	1	-1E+10	1	-1E+10	1	-1E+10	1	-1E+10	1	-1E+10	1
4902663	20	C	02/19/2024	10:12	-127.611	48.098	0	948.20	0	3.5700	0	34.3490	0	27.318	0	938.092	0	7.9	4	2.5	4	-1E+10	1	-1E+10	1	-1E+10	1	-1E+10	1	-1E+10	1	-1E+10	1
4902663	20	C	02/19/2024	10:12	-127.611	48.098	0	952.90	0	3.5490	0	34.3510	0	27.322	0	942.731	0	7.9	4	2.5	4	-1E+10	1	-1E+10	1	-1E+10	1	-1E+10	1	-1E+10	1	-1E+10	1
4902663	20	C	02/19/2024	10:12	-127.611	48.098	0	957.60	0	3.5470	0	34.3540	0	27.325	0	947.371	0	7.8	4	2.4	4	-1E+10	1	-1E+10	1	-1E+10	1	-1E+10	1	-1E+10	1	-1E+10	1
4902663	20	C	02/19/2024	10:12	-127.611	48.098	0	962.80	0	3.5760	0	34.3630	0	27.329	0	952.503	0	7.9	4	2.5	4	-1E+10	1	-1E+10	1	-1E+10	1	-1E+10	1	-1E+10	1	-1E+10	1
4902663	20	C	02/19/2024	10:12	-127.611	48.098	0	968.10	0	3.5380	0	34.3620	0	27.332	0	957.734	0	7.9	4	2.5	4	-1E+10	1	-1E+10	1	-1E+10	1	-1E+10	1	-1E+10	1	-1E+10	1
4902663	20	C	02/19/2024	10:12	-127.611	48.098	0	972.90	0	3.5280	0	34.3640	0	27.334	0	962.472	0	8.0	4	2.5	4	-1E+10	1	-1E+10	1	-1E+10	1	-1E+10	1	-1E+10	1	-1E+10	1
4902663	20	C	02/19/2024	10:12	-127.611	48.098	0	977.80	0	3.5010	0	34.3650	0	27.338	0	967.308	0	8.0	4	2.5	4	-1E+10	1	-1E+10	1	-1E+10	1	-1E+10	1	-1E+10	1	-1E+10	1
4902663	20	C	02/19/2024	10:12	-127.611	48.098	0	982.70	0	3.4950	0	34.3680	0	27.341	0	972.144	0	8.1	4	2.5	4	-1E+10	1	-1E+10	1	-1E+10	1	-1E+10	1	-1E+10	1	-1E+10	1
4902663	20	C	02/19/2024	10:12	-127.611	48.098	0	987.60	0	3.4810	0	34.3710	0	27.345	0	976.980	0	8.2	4	2.5	4	-1E+10	1	-1E+10	1	-1E+10	1	-1E+10	1	-1E+10	1	-1E+10	1
4902663	20	C	02/19/2024	10:12	-127.611	48.098	0	992.50	0	3.4610	0	34.3700	0	27.346	0	981.816	0	8.2	4	2.6	4	-1E+10	1	-1E+10	1	-1E+10	1	-1E+10	1	-1E+10	1	-1E+10	1
4902663	20	C	02/19/2024	10:12	-127.611	48.098	0	997.50	0	3.4460	0	34.3730	0	27.350	0	986.750	0	8.3	4	2.6	4	-1E+10	1	-1E+10	1	-1E+10	1	-1E+10	1	-1E+10	1	-1E+10	1
4902663	20	C	02/19/2024	10:12	-127.611	48.098	0	1005.00	0	3.4350	0	34.3780	0	27.355	0	994.152	0	8.3	4	2.6	4	-1E+10	1	-1E+10	1	-1E+10	1	-1E+10	1	-1E+10	1	-1E+10	1
4902663	20	C	02/19/2024	10:12	-127.611	48.098	0	1015.20	0	3.4170	0	34.3810	0	27.359	0	1004.217	0	8.5	4	2.6	4	-1E+10	1	-1E+10	1	-1E+10	1	-1E+10	1	-1E+10	1	-1E+10	1
4902663	20	C	02/19/2024	10:12	-127.611	48.098	0	1025.60	0	3.3990	0	34.3890	0	27.367	0	1014.480	0	8.6	4	2.7	4	-1E+10	1	-1E+10	1	-1E+10	1	-1E+10	1	-1E+10	1	-1E+10	1
4902663	20	C	02/19/2024	10:12	-127.611	48.098	0	1035.40	0	3.3770	0	34.3940	0	27.373	0	1024.149	0	8.7	4	2.7	4	-1E+10	1	-1E+10	1	-1E+10	1	-1E+10	1	-1E+10	1	-1E+10	1
4902663	20	C	02/19/2024	10:12	-127.611	48.098	0	1045.70	0	3.3430	0	34.3970	0	27.379	0	1034.312	0	8.9	4	2.8	4	-1E+10	1	-1E+10	1	-1E+10	1	-1E+10	1	-1E+10	1	-1E+10	1
4902663	20	C	02/19/2024	10:12	-127.611	48.098	0	1055.50	0	3.3170	0	34.4000	0	27.384	0	1043.981	0	9.1	4	2.8	4	-1E+10	1	-1E+10	1	-1E+10	1	-1E+10	1	-1E+10	1	-1E+10	1
4902663	20	C	02/19/2024	10:12	-127.611	48.098	0	1065.20	0	3.3090	0	34.4040	0	27.388	0	1053.551	0	9.3	4	2.9	4	-1E+10	1	-1E+10	1	-1E+10	1	-1E+10	1	-1E+10	1	-1E+10	1
4902663	20	C	02/19/2024	10:12	-127.611	48.098	0	1075.50	0	3.2990	0	34.4090	0	27.393	0	1063.712	0	9.4	4	2.9	4	-1E+10	1	-1E+10	1	-1E+10	1	-1E+10	1	-1E+10	1	-1E+10	1
4902663	20	C	02/19/2024	10:12	-127.611	48.098	0	1085.70	0	3.2920	0	34.4120	0	27.396	0	1073.774	0	9.5	4	3.0	4	-1E+10	1	-1E+10	1	-1E+10	1	-1E+10	1	-1E+10	1	-1E+10	1
4902663	20	C	02/19/2024	10:12	-127.611	48.098	0	1095.50	0	3.2800	0	34.4140	0	27.399	0	1083.441	0	9.6	4	3.0	4	-1E+10	1	-1E+10	1	-1E+10	1	-1E+10	1	-1E+10	1	-1E+10	1
4902663	20	C	02/19/2024	10:12	-127.611	48.098	0	1105.60	0	3.2680	0	34.4150	0	27.401	0	1093.404	0	9.8	4	3.0	4	-1E+10	1	-1E+10	1	-1E+10	1	-1E+10	1	-1E+10	1	-1E+10	1
4902663	20	C	02/19/2024	10:12	-127.611	48.098	0	1115.30	0	3.2280	0	34.4170	0	27.406	0	1102.971	0	10.0	4	3.1	4	-1E+10	1	-1E+10	1	-1E+10	1	-1E+10	1	-1E+10	1	-1E+10	1
4902663	20	C	02/19/2024	10:12	-127.611	48.098	0	1125.20	0	3.2110	0	34.4210	0	27.411	0	1112.736	0	10.2	4	3.2	4	-1E+10	1	-1E+10	1	-1E+10	1	-1E+10	1	-1E+10	1	-1E+10	1
4902663	20	C	02/19/2024	10:12	-127.611	48.098	0	1135.30	0	3.2090	0	34.4230	0	27.413	0	1122.697	0	10.3	4	3.2	4	-1E+10	1	-1E+10	1	-1E+10	1	-1E+10	1	-1E+10	1	-1E+10	1
4902663	20	C	02/19/2024	10:12	-127.611	48.098	0	1145.30	0	3.2020	0	34.4250	0	27.415	0	1132.559	0	10.4	4	3.2	4	-1E+10	1	-1E+10	1	-1E+10	1	-1E+10	1	-1E+10	1	-1E+10	1
4902663	20	C	02/19/2024	10:12	-127.611	48.098	0	1155.20	0	3.1980	0	34.4260	0	27.416	0	1142.322	0	10.6	4	3.3	4	-1E+10	1	-1E+10	1	-1E+10	1	-1E+10	1	-1E+10	1	-1E+10	1
4902663	20	C	02/19/2024	10:12	-127.611	48.098	0	1165.20	0	3.1850	0	34.4280	0	27.419	0	1152.183	0	10.8	4	3.3	4	-1E+10	1	-1E+10	1	-1E+10	1	-1E+10	1	-1E+10	1	-1E+10	1
4902663	20	C	02/19/2024	10:12	-127.611	48.098	0	1175.60	0	3.1400	0	34.4310	0	27.426	0	1162.438	0	11.1	4	3.5	4	-1E+10	1	-1E+10	1	-1E+10	1	-1E+10	1	-1E+10	1	-1E+10	1
4902663	20	C	02/19/2024	10:12	-127.611	48.098	0	1185.50	0	3.1130	0	34.4340	0	27.431	0	1172.200	0	11.5	4	3.5	4	-1E+10	1	-1E+10	1	-1E+10	1	-1E+10	1	-1E+10	1	-1E+10	1
4902663	20	C	02/19/2024	10:12	-127.611	48.098	0	1195.50	0	3.0740	0	34.4380	0	27.437	0	1182.059	0	11.8	4	3.6	4	-1E+10	1	-1E+10	1	-1E+10	1	-1E+10	1	-1E+10	1	-1E+10	1
4902663	20	C	02/19/2024	10:12	-127.611	48.098	0	1205.50	0	3.0600	0	34.4410	0	27.441	0	1191.919	0	12.1	4	3.8	4	-1E+10	1	-1E+10	1	-1E+10	1	-1E+10	1	-1E+10	1	-1E+10	1
4902663	20	C	02/19/2024	10:12	-127.611	48.098	0	1215.60	0	3.0250	0	34.4460	0	27.448	0	1201.876	0	12.6	4	3.9	4	-1E+10	1	-1E+10	1	-1E+10	1	-1E+10	1	-1E+10	1	-1E+10	1
4902663	20	C	02/19/2024	10:12	-127.611	48.098	0	1225.50	0	3.0080	0	34.4490	0	27.452	0	1211.636	0	12.9	4	4.0	4	-1E+10	1	-1E+10	1	-1E+10	1	-1E+10	1	-1E+10	1	-1E+10	1
4902663	20	C	02/19/2024	10:12	-127.611	48.098	0	1235.40	0	2.9990	0	34.4510	0	27.455	0	1221.395	0	13.1	4	4.0	4	-1E+10	1	-1E+10	1	-1E+10	1	-1E+10	1	-1E+10	1	-1E+10	1
4902663	20	C	02/19/2024	10:12	-127.611	48.098	0	1245.70	0	2.9840	0	34.4530	0	27.458	0	1231.548	0	13.4	4	4.1	4	-1E+10	1	-1E+10	1	-1E+10	1	-1E+10	1	-1E+10	1	-1E+10	1
4902663	20	C	02/19/2024	10:12	-127.611	48.098	0	1255.60	0	2.9620	0	34.4560	0	27.462	0	1241.306	0	13.8	4	4.3	4	-1E+10	1	-1E+10	1	-1E+10	1	-1E+10	1	-1E+10	1	-1E+10	1
4902663	20	C	02/19/2024	10:12	-127.611	48.098	0	1265.40	0	2.9360	0	34.4600	0	27.468	0	1250.966	0	14.2	4	4.4	4	-1E+10	1	-1E+10	1	-1E+10	1	-1E+10	1	-1E+10	1	-1E+10	1
4902663	20	C	02/19/2024	10:12	-127.611	48.098	0	1275.50	0	2.9030	0	34.4630	0	27.473	0	1260.920	0	14.6	4	4.5	4	-1E+10	1	-1E+10	1	-1E+10	1	-1E+10	1	-1E+10	1	-1E+10	1
4902663	20	C	02/19/2024	10:12	-127.611	48.098	0	1285.60	0	2.8900	0	34.4660	0	27.477	0	1270.874	0	14.9	4	4.6	4	-1E+10	1	-1E+10	1	-1E+10	1	-1E+10	1	-1E+10	1	-1E+10	1
4902663	20	C	02/19/2024	10:12	-127.611	48.098	0	1295.50	0	2.8760	0	34.4680	0	27.480	0	1280.631	0	15.1	4	4.7	4	-1E+10	1	-1E+10	1	-1E+10	1	-1E+10	1	-1E+10	1	-1E+10	1
4902663	20	C	02/19/2024	10:12	-127.611	48.098	0	1305.50	0	2.8680	0	34.4710	0	27.483	0	1290.485	0	15.5	4	4.8	4	-1E+10	1	-1E+10	1	-1E+10	1	-1E+10	1	-1E+10	1	-1E+10	1
4902663	20	C	02/19/2024	10:12	-127.611	48.098	0	1315.50	0	2.8500	0	34.4750	0	27.488	0	1300.340	0	16.0	4	4.9	4	-1E+10	1	-1E+10	1	-1E+10	1	-1E+10	1	-1E+10	1	-1E+10	1
4902663	20	C	02/19/2024	10:12	-127.611	48.098	0	1325.80	0	2.8310	0	34.4780	0	27.492	0	1310.489	0	16.4	4	5.0	4	-1E+10	1	-1E+10	1	-1E+10	1	-1E+10	1	-1E+10	1	-1E+10	1
4902663	20	C	02/19/2024	10:12	-127.611	48.098	0	1335.40	0	2.8100	0	34.4810	0	27.496	0	1319.948	0	16.8	4	5.2	4	-1E+10	1	-1E+10	1	-1E+10	1	-1E+10	1	-1E+10	1	-1E+10	1
4902663	20	C	02/19/2024	10:12	-127.611	48.098	0	1345.20	0	2.7920	0	34.4830	0	27.499	0	1329.604	0	17.3	4	5.3	4	-1E+10	1	-1E+10	1	-1E+10	1	-1E+10	1	-1E+10	1	-1E+10	1
4902663	20	C	02/19/2024	10:12	-127.611	48.098	0	1355.10	0	2.7580	0	34.4870	0	27.506	0	1339.357	0	18.0	4	5.5	4	-1E+10	1	-1E+10	1	-1E+10	1	-1E+10	1	-1E+10	1	-1E+10	1
4902663	20	C	02/19/2024	10:12	-127.611	48.098	0	1365.50	0	2.7290	0	34.4900	0	27.511	0	1349.603	0	18.5	4	5.7	4	-1E+10	1	-1E+10	1	-1E+10	1	-1E+10	1	-1E+10	1	-1E+10	1
4902663	20	C	02/19/2024	10:12	-127.611	48.098	0	1375.20	0	2.7140	0	34.4910	0	27.513	0	1359.159	0	18.9	4	5.8	4	-1E+10	1	-1E+10	1	-1E+10	1	-1E+10	1	-1E+10	1	-1E+10	1
4902663	20	C	02/19/2024	10:12	-127.611	48.098	0	1385.10	0	2.6910	0	34.4940	0	27.517	0	1368.912	0	19.5	4	6.0	4	-1E+10	1	-1E+10	1	-1E+10	1	-1E+10	1	-1E+10	1	-1E+10	1
4902663	20	C	02/19/2024	10:12	-127.611	48.098	0	1395.20	0	2.6730	0	34.4970	0	27.521	0	1378.861	0	20.2	4	6.2	4	-1E+10	1	-1E+10	1	-1E+10	1	-1E+10	1	-1E+10	1	-1E+10	1
4902663	20	C	02/19/2024	10:12	-127.611	48.098	0	1405.30	0	2.6450	0	34.5000	0	27.526	0	1388.809	0	20.8	4	6.4	4	-1E+10	1	-1E+10	1	-1E+10	1	-1E+10	1	-1E+10	1	-1E+10	1
4902663	20	C	02/19/2024	10:12	-127.611	48.098	0	1415.20	0	2.6360	0	34.5020	0	27.528	0	1398.560	0	21.2	4	6.5	4	-1E+10	1	-1E+10	1	-1E+10	1	-1E+10	1	-1E+10	1	-1E+10	1
4902663	20	C	02/19/2024	10:12	-127.611	48.098	0	1425.30	0	2.6210	0	34.5040	0	27.531	0	1408.508	0	21.6	4	6.6	4	-1E+10	1	-1E+10	1	-1E+10	1	-1E+10	1	-1E+10	1	-1E+10	1
4902663	20	C	02/19/2024	10:12	-127.611	48.098	0	1435.30	0	2.6080	0	34.5050	0	27.533	0	1418.356	0	22.2	4	6.8	4	-1E+10	1	-1E+10	1	-1E+10	1	-1E+10	1	-1E+10	1	-1E+10	1
4902663	20	C	02/19/2024	10:12	-127.611	48.098	0	1445.00	0	2.5860	0	34.5080	0	27.538	0	1427.909	0	22.9	4	7.0	4	-1E+10	1	-1E+10	1	-1E+10	1	-1E+10	1	-1E+10	1	-1E+10	1
4902663	20	C	02/19/2024	10:12	-127.611	48.098	0	1455.00	0	2.5660	0	34.5100	0	27.541	0	1437.757	0	23.5	4	7.2	4	-1E+10	1	-1E+10	1	-1E+10	1	-1E+10	1	-1E+10	1	-1E+10	1
4902663	20	C	02/19/2024	10:12	-127.611	48.098	0	1465.00	0	2.5490	0	34.5120	0	27.544	0	1447.604	0	24.1	4	7.4	4	-1E+10	1	-1E+10	1	-1E+10	1	-1E+10	1	-1E+10	1	-1E+10	1
4902663	20	C	02/19/2024	10:12	-127.611	48.098	0	1475.30	0	2.5280	0	34.5140	0	27.547	0	1457.746	0	24.8	4	7.6	4	-1E+10	1	-1E+10	1	-1E+10	1	-1E+10	1	-1E+10	1	-1E+10	1
4902663	20	C	02/19/2024	10:12	-127.611	48.098	0	1485.70	0	2.5010	0	34.5160	0	27.551	0	1467.986	0	25.3	4	7.7	4	-1E+10	1	-1E+10	1	-1E+10	1	-1E+10	1	-1E+10	1	-1E+10	1
4902663	20	C	02/19/2024	10:12	-127.611	48.098	0	1495.70	0	2.4890	0	34.5170	0	27.553	0	1477.832	0	25.6	4	7.8	4	-1E+10	1	-1E+10	1	-1E+10	1	-1E+10	1	-1E+10	1	-1E+10	1
4902663	20	C	02/19/2024	10:12	-127.611	48.098	0	1505.20	0	2.4800	0	34.5180	0	27.555	0	1487.185	0	26.0	4	7.9	4	-1E+10	1	-1E+10	1	-1E+10	1	-1E+10	1	-1E+10	1	-1E+10	1
4902663	20	C	02/19/2024	10:12	-127.611	48.098	0	1515.40	0	2.4600	0	34.5200	0	27.558	0	1497.227	0	26.6	4	8.1	4	-1E+10	1	-1E+10	1	-1E+10	1	-1E+10	1	-1E+10	1	-1E+10	1
4902663	20	C	02/19/2024	10:12	-127.611	48.098	0	1525.50	0	2.4440	0	34.5210	0	27.560	0	1507.170	0	27.0	4	8.2	4	-1E+10	1	-1E+10	1	-1E+10	1	-1E+10	1	-1E+10	1	-1E+10	1
4902663	20	C	02/19/2024	10:12	-127.611	48.098	0	1535.20	0	2.4270	0	34.5230	0	27.563	0	1516.719	0	27.5	4	8.4	4	-1E+10	1	-1E+10	1	-1E+10	1	-1E+10	1	-1E+10	1	-1E+10	1
4902663	20	C	02/19/2024	10:12	-127.611	48.098	0	1545.40	0	2.4150	0	34.5240	0	27.565	0	1526.759	0	28.0	4	8.5	4	-1E+10	1	-1E+10	1	-1E+10	1	-1E+10	1	-1E+10	1	-1E+10	1
4902663	20	C	02/19/2024	10:12	-127.611	48.098	0	1555.80	0	2.3980	0	34.5260	0	27.568	0	1536.996	0	28.5	4	8.7	4	-1E+10	1	-1E+10	1	-1E+10	1	-1E+10	1	-1E+10	1	-1E+10	1
4902663	20	C	02/19/2024	10:12	-127.611	48.098	0	1565.60	0	2.3800	0	34.5280	0	27.571	0	1546.642	0	29.0	4	8.8	4	-1E+10	1	-1E+10	1	-1E+10	1	-1E+10	1	-1E+10	1	-1E+10	1
4902663	20	C	02/19/2024	10:12	-127.611	48.098	0	1575.50	0	2.3720	0	34.5290	0	27.573	0	1556.385	0	29.4	4	8.9	4	-1E+10	1	-1E+10	1	-1E+10	1	-1E+10	1	-1E+10	1	-1E+10	1
4902663	20	C	02/19/2024	10:12	-127.611	48.098	0	1585.10	0	2.3560	0	34.5300	0	27.575	0	1565.833	0	29.9	4	9.1	4	-1E+10	1	-1E+10	1	-1E+10	1	-1E+10	1	-1E+10	1	-1E+10	1
4902663	20	C	02/19/2024	10:12	-127.611	48.098	0	1595.20	0	2.3410	0	34.5320	0	27.578	0	1575.773	0	30.4	4	9.2	4	-1E+10	1	-1E+10	1	-1E+10	1	-1E+10	1	-1E+10	1	-1E+10	1
4902663	20	C	02/19/2024	10:12	-127.611	48.098	0	1605.30	0	2.3320	0	34.5330	0	27.580	0	1585.712	0	30.9	4	9.4	4	-1E+10	1	-1E+10	1	-1E+10	1	-1E+10	1	-1E+10	1	-1E+10	1
4902663	20	C	02/19/2024	10:12	-127.611	48.098	0	1615.40	0	2.3250	0	34.5340	0	27.581	0	1595.651	0	31.4	4	9.5	4	-1E+10	1	-1E+10	1	-1E+10	1	-1E+10	1	-1E+10	1	-1E+10	1
4902663	20	C	02/19/2024	10:12	-127.611	48.098	0	1625.50	0	2.3100	0	34.5360	0	27.584	0	1605.589	0	32.1	4	9.8	4	-1E+10	1	-1E+10	1	-1E+10	1	-1E+10	1	-1E+10	1	-1E+10	1
4902663	20	C	02/19/2024	10:12	-127.611	48.098	0	1635.10	0	2.2860	0	34.5380	0	27.587	0	1615.035	0	32.7	4	9.9	4	-1E+10	1	-1E+10	1	-1E+10	1	-1E+10	1	-1E+10	1	-1E+10	1
4902663	20	C	02/19/2024	10:12	-127.611	48.098	0	1645.20	0	2.2660	0	34.5390	0	27.590	0	1624.972	0	33.4	4	10.1	4	-1E+10	1	-1E+10	1	-1E+10	1	-1E+10	1	-1E+10	1	-1E+10	1
4902663	20	C	02/19/2024	10:12	-127.611	48.098	0	1655.70	0	2.2480	0	34.5420	0	27.594	0	1635.303	0	34.1	4	10.3	4	-1E+10	1	-1E+10	1	-1E+10	1	-1E+10	1	-1E+10	1	-1E+10	1
4902663	20	C	02/19/2024	10:12	-127.611	48.098	0	1666.10	0	2.2420	0	34.5430	0	27.595	0	1645.534	0	34.7	4	10.5	4	-1E+10	1	-1E+10	1	-1E+10	1	-1E+10	1	-1E+10	1	-1E+10	1
4902663	20	C	02/19/2024	10:12	-127.611	48.098	0	1675.60	0	2.2180	0	34.5450	0	27.599	0	1654.880	0	35.3	4	10.7	4	-1E+10	1	-1E+10	1	-1E+10	1	-1E+10	1	-1E+10	1	-1E+10	1
4902663	20	C	02/19/2024	10:12	-127.611	48.098	0	1685.50	0	2.2070	0	34.5460	0	27.601	0	1664.619	0	35.9	4	10.9	4	-1E+10	1	-1E+10	1	-1E+10	1	-1E+10	1	-1E+10	1	-1E+10	1
4902663	20	C	02/19/2024	10:12	-127.611	48.098	0	1695.50	0	2.1980	0	34.5480	0	27.603	0	1674.455	0	36.5	4	11.1	4	-1E+10	1	-1E+10	1	-1E+10	1	-1E+10	1	-1E+10	1	-1E+10	1
4902663	20	C	02/19/2024	10:12	-127.611	48.098	0	1705.70	0	2.1860	0	34.5500	0	27.606	0	1684.488	0	37.1	4	11.2	4	-1E+10	1	-1E+10	1	-1E+10	1	-1E+10	1	-1E+10	1	-1E+10	1
4902663	20	C	02/19/2024	10:12	-127.611	48.098	0	1715.50	0	2.1750	0	34.5520	0	27.608	0	1694.127	0	37.9	4	11.5	4	-1E+10	1	-1E+10	1	-1E+10	1	-1E+10	1	-1E+10	1	-1E+10	1
4902663	20	C	02/19/2024	10:12	-127.611	48.098	0	1725.30	0	2.1630	0	34.5540	0	27.611	0	1703.766	0	38.5	4	11.7	4	-1E+10	1	-1E+10	1	-1E+10	1	-1E+10	1	-1E+10	1	-1E+10	1
4902663	20	C	02/19/2024	10:12	-127.611	48.098	0	1735.40	0	2.1530	0	34.5550	0	27.612	0	1713.699	0	39.1	4	11.8	4	-1E+10	1	-1E+10	1	-1E+10	1	-1E+10	1	-1E+10	1	-1E+10	1
4902663	20	C	02/19/2024	10:12	-127.611	48.098	0	1745.30	0	2.1530	0	34.5570	0	27.614	0	1723.435	0	39.6	4	12.0	4	-1E+10	1	-1E+10	1	-1E+10	1	-1E+10	1	-1E+10	1	-1E+10	1
4902663	20	C	02/19/2024	10:12	-127.611	48.098	0	1755.10	0	2.1430	0	34.5590	0	27.616	0	1733.072	0	40.1	4	12.1	4	-1E+10	1	-1E+10	1	-1E+10	1	-1E+10	1	-1E+10	1	-1E+10	1
4902663	20	C	02/19/2024	10:12	-127.611	48.098	0	1765.40	0	2.1350	0	34.5600	0	27.618	0	1743.201	0	40.7	4	12.3	4	-1E+10	1	-1E+10	1	-1E+10	1	-1E+10	1	-1E+10	1	-1E+10	1
4902663	20	C	02/19/2024	10:12	-127.611	48.098	0	1775.30	0	2.1290	0	34.5610	0	27.619	0	1752.935	0	41.1	4	12.4	4	-1E+10	1	-1E+10	1	-1E+10	1	-1E+10	1	-1E+10	1	-1E+10	1
4902663	20	C	02/19/2024	10:12	-127.611	48.098	0	1785.40	0	2.1220	0	34.5630	0	27.621	0	1762.866	0	41.6	4	12.6	4	-1E+10	1	-1E+10	1	-1E+10	1	-1E+10	1	-1E+10	1	-1E+10	1
4902663	20	C	02/19/2024	10:12	-127.611	48.098	0	1795.90	0	2.1140	0	34.5640	0	27.623	0	1773.190	0	42.1	4	12.7	4	-1E+10	1	-1E+10	1	-1E+10	1	-1E+10	1	-1E+10	1	-1E+10	1
4902663	20	C	02/19/2024	10:12	-127.611	48.098	0	1805.90	0	2.1070	0	34.5650	0	27.624	0	1783.022	0	42.8	4	12.9	4	-1E+10	1	-1E+10	1	-1E+10	1	-1E+10	1	-1E+10	1	-1E+10	1
4902663	20	C	02/19/2024	10:12	-127.611	48.098	0	1815.50	0	2.0960	0	34.5670	0	27.627	0	1792.459	0	43.4	4	13.1	4	-1E+10	1	-1E+10	1	-1E+10	1	-1E+10	1	-1E+10	1	-1E+10	1
4902663	20	C	02/19/2024	10:12	-127.611	48.098	0	1825.50	0	2.0860	0	34.5690	0	27.629	0	1802.290	0	44.0	4	13.3	4	-1E+10	1	-1E+10	1	-1E+10	1	-1E+10	1	-1E+10	1	-1E+10	1
4902663	20	C	02/19/2024	10:12	-127.611	48.098	0	1835.60	0	2.0800	0	34.5700	0	27.631	0	1812.219	0	44.4	4	13.4	4	-1E+10	1	-1E+10	1	-1E+10	1	-1E+10	1	-1E+10	1	-1E+10	1
4902663	20	C	02/19/2024	10:12	-127.611	48.098	0	1845.40	0	2.0720	0	34.5710	0	27.632	0	1821.852	0	44.9	4	13.6	4	-1E+10	1	-1E+10	1	-1E+10	1	-1E+10	1	-1E+10	1	-1E+10	1
4902663	20	C	02/19/2024	10:12	-127.611	48.098	0	1855.20	0	2.0620	0	34.5730	0	27.635	0	1831.485	0	45.6	4	13.8	4	-1E+10	1	-1E+10	1	-1E+10	1	-1E+10	1	-1E+10	1	-1E+10	1
4902663	20	C	02/19/2024	10:12	-127.611	48.098	0	1865.40	0	2.0530	0	34.5740	0	27.636	0	1841.510	0	46.2	4	13.9	4	-1E+10	1	-1E+10	1	-1E+10	1	-1E+10	1	-1E+10	1	-1E+10	1
4902663	20	C	02/19/2024	10:12	-127.611	48.098	0	1875.20	0	2.0440	0	34.5760	0	27.638	0	1851.142	0	46.7	4	14.1	4	-1E+10	1	-1E+10	1	-1E+10	1	-1E+10	1	-1E+10	1	-1E+10	1
4902663	20	C	02/19/2024	10:12	-127.611	48.098	0	1885.40	0	2.0380	0	34.5770	0	27.640	0	1861.167	0	47.3	4	14.3	4	-1E+10	1	-1E+10	1	-1E+10	1	-1E+10	1	-1E+10	1	-1E+10	1
4902663	20	C	02/19/2024	10:12	-127.611	48.098	0	1895.60	0	2.0250	0	34.5780	0	27.642	0	1871.191	0	48.0	4	14.5	4	-1E+10	1	-1E+10	1	-1E+10	1	-1E+10	1	-1E+10	1	-1E+10	1
4902663	20	C	02/19/2024	10:12	-127.611	48.098	0	1905.30	0	2.0160	0	34.5800	0	27.644	0	1880.723	0	48.4	4	14.6	4	-1E+10	1	-1E+10	1	-1E+10	1	-1E+10	1	-1E+10	1	-1E+10	1
4902663	20	C	02/19/2024	10:12	-127.611	48.098	0	1915.10	0	2.0130	0	34.5810	0	27.645	0	1890.353	0	48.8	4	14.7	4	-1E+10	1	-1E+10	1	-1E+10	1	-1E+10	1	-1E+10	1	-1E+10	1
4902663	20	C	02/19/2024	10:12	-127.611	48.098	0	1925.50	0	2.0050	0	34.5810	0	27.646	0	1900.572	0	49.5	4	14.9	4	-1E+10	1	-1E+10	1	-1E+10	1	-1E+10	1	-1E+10	1	-1E+10	1
4902663	20	C	02/19/2024	10:12	-127.611	48.098	0	1935.40	0	1.9930	0	34.5830	0	27.648	0	1910.300	0	50.2	4	15.1	4	-1E+10	1	-1E+10	1	-1E+10	1	-1E+10	1	-1E+10	1	-1E+10	1
4902663	20	C	02/19/2024	10:12	-127.611	48.098	0	1945.40	0	1.9820	0	34.5850	0	27.651	0	1920.125	0	50.9	4	15.4	4	-1E+10	1	-1E+10	1	-1E+10	1	-1E+10	1	-1E+10	1	-1E+10	1
4902663	20	C	02/19/2024	10:12	-127.611	48.098	0	1955.60	0	1.9710	0	34.5870	0	27.653	0	1930.146	0	51.7	4	15.6	4	-1E+10	1	-1E+10	1	-1E+10	1	-1E+10	1	-1E+10	1	-1E+10	1
4902663	20	C	02/19/2024	10:12	-127.611	48.098	0	1965.20	0	1.9640	0	34.5890	0	27.656	0	1939.577	0	52.1	4	15.7	4	-1E+10	1	-1E+10	1	-1E+10	1	-1E+10	1	-1E+10	1	-1E+10	1
4902663	20	C	02/19/2024	10:12	-127.611	48.098	0	1975.20	0	1.9560	0	34.5900	0	27.657	0	1949.401	0	52.6	4	15.8	4	-1E+10	1	-1E+10	1	-1E+10	1	-1E+10	1	-1E+10	1	-1E+10	1
4902663	20	C	02/19/2024	10:12	-127.611	48.098	0	1985.40	0	1.9500	0	34.5910	0	27.658	0	1959.421	0	53.0	4	16.0	4	-1E+10	1	-1E+10	1	-1E+10	1	-1E+10	1	-1E+10	1	-1E+10	1
4902663	20	C	02/19/2024	10:12	-127.611	48.098	0	1995.10	0	1.9440	0	34.5920	0	27.660	0	1968.949	0	53.3	4	16.0	4	-1E+10	1	-1E+10	1	-1E+10	1	-1E+10	1	-1E+10	1	-1E+10	1
4902663	20	C	02/19/2024	10:12	-127.611	48.098	0	2004.10	0	1.9380	0	34.5930	0	27.661	0	1977.790	0	53.0	4	15.9	4	-1E+10	1	-1E+10	1	-1E+10	1	-1E+10	1	-1E+10	1	-1E+10	1
4902663	20	C	02/19/2024	10:12	-127.611	48.098	0																										
4902663	21	C	02/29/2024	05:09	-127.544	48.303	0	0.10	0	9.7740	0	32.2260	0	24.824	0	0.099	0	-1e10	1	-1e10	1	-1E+10	1	-1E+10	1	-1E+10	1	-1E+10	1	-1E+10	1	-1E+10	1
4902663	21	C	02/29/2024	05:09	-127.544	48.303	0	0.20	0	9.7746	0	32.2254	0	24.823	0	0.198	0	265.6	4	94.4	4	-1E+10	1	-1E+10	1	-1E+10	1	-1E+10	1	-1E+10	1	-1E+10	1
4902663	21	C	02/29/2024	05:09	-127.544	48.303	0	0.90	0	9.7790	0	32.2210	0	24.819	0	0.892	0	265.4	4	94.3	4	-1E+10	1	-1E+10	1	-1E+10	1	-1E+10	1	-1E+10	1	-1E+10	1
4902663	21	C	02/29/2024	05:09	-127.544	48.303	0	2.00	0	9.7790	0	32.2220	0	24.820	0	1.983	0	265.4	4	94.3	4	-1E+10	1	-1E+10	1	-1E+10	1	-1E+10	1	-1E+10	1	-1E+10	1
4902663	21	C	02/29/2024	05:09	-127.544	48.303	0	2.80	0	9.7780	0	32.2230	0	24.821	0	2.776	0	265.3	4	94.3	4	-1E+10	1	-1E+10	1	-1E+10	1	-1E+10	1	-1E+10	1	-1E+10	1
4902663	21	C	02/29/2024	05:09	-127.544	48.303	0	4.00	0	9.7760	0	32.2250	0	24.823	0	3.966	0	265.3	4	94.2	4	-1E+10	1	-1E+10	1	-1E+10	1	-1E+10	1	-1E+10	1	-1E+10	1
4902663	21	C	02/29/2024	05:09	-127.544	48.303	0	5.30	0	9.7760	0	32.2260	0	24.824	0	5.255	0	265.2	4	94.2	4	-1E+10	1	-1E+10	1	-1E+10	1	-1E+10	1	-1E+10	1	-1E+10	1
4902663	21	C	02/29/2024	05:09	-127.544	48.303	0	6.10	0	9.7770	0	32.2260	0	24.824	0	6.049	0	265.2	4	94.2	4	-1E+10	1	-1E+10	1	-1E+10	1	-1E+10	1	-1E+10	1	-1E+10	1
4902663	21	C	02/29/2024	05:09	-127.544	48.303	0	7.10	0	9.7800	0	32.2260	0	24.823	0	7.040	0	265.2	4	94.2	4	-1E+10	1	-1E+10	1	-1E+10	1	-1E+10	1	-1E+10	1	-1E+10	1
4902663	21	C	02/29/2024	05:09	-127.544	48.303	0	8.00	0	9.7790	0	32.2270	0	24.824	0	7.932	0	265.1	4	94.2	4	-1E+10	1	-1E+10	1	-1E+10	1	-1E+10	1	-1E+10	1	-1E+10	1
4902663	21	C	02/29/2024	05:09	-127.544	48.303	0	8.90	0	9.7790	0	32.2270	0	24.824	0	8.825	0	265.0	4	94.2	4	-1E+10	1	-1E+10	1	-1E+10	1	-1E+10	1	-1E+10	1	-1E+10	1
4902663	21	C	02/29/2024	05:09	-127.544	48.303	0	10.00	0	9.7830	0	32.2260	0	24.823	0	9.916	0	265.0	4	94.2	4	-1E+10	1	-1E+10	1	-1E+10	1	-1E+10	1	-1E+10	1	-1E+10	1
4902663	21	C	02/29/2024	05:09	-127.544	48.303	0	10.90	0	9.7830	0	32.2260	0	24.823	0	10.808	0	265.0	4	94.2	4	-1E+10	1	-1E+10	1	-1E+10	1	-1E+10	1	-1E+10	1	-1E+10	1
4902663	21	C	02/29/2024	05:09	-127.544	48.303	0	11.90	0	9.7840	0	32.2260	0	24.823	0	11.799	0	264.9	4	94.1	4	-1E+10	1	-1E+10	1	-1E+10	1	-1E+10	1	-1E+10	1	-1E+10	1
4902663	21	C	02/29/2024	05:09	-127.544	48.303	0	13.00	0	9.7840	0	32.2260	0	24.823	0	12.890	0	264.9	4	94.1	4	-1E+10	1	-1E+10	1	-1E+10	1	-1E+10	1	-1E+10	1	-1E+10	1
4902663	21	C	02/29/2024	05:09	-127.544	48.303	0	13.90	0	9.7840	0	32.2260	0	24.823	0	13.783	0	264.8	4	94.1	4	-1E+10	1	-1E+10	1	-1E+10	1	-1E+10	1	-1E+10	1	-1E+10	1
4902663	21	C	02/29/2024	05:09	-127.544	48.303	0	14.90	0	9.7840	0	32.2260	0	24.823	0	14.774	0	264.8	4	94.1	4	-1E+10	1	-1E+10	1	-1E+10	1	-1E+10	1	-1E+10	1	-1E+10	1
4902663	21	C	02/29/2024	05:09	-127.544	48.303	0	16.00	0	9.7820	0	32.2260	0	24.823	0	15.865	0	264.7	4	94.1	4	-1E+10	1	-1E+10	1	-1E+10	1	-1E+10	1	-1E+10	1	-1E+10	1
4902663	21	C	02/29/2024	05:09	-127.544	48.303	0	17.20	0	9.7830	0	32.2260	0	24.823	0	17.054	0	264.6	4	94.0	4	-1E+10	1	-1E+10	1	-1E+10	1	-1E+10	1	-1E+10	1	-1E+10	1
4902663	21	C	02/29/2024	05:09	-127.544	48.303	0	18.20	0	9.7840	0	32.2260	0	24.823	0	18.046	0	264.6	4	94.0	4	-1E+10	1	-1E+10	1	-1E+10	1	-1E+10	1	-1E+10	1	-1E+10	1
4902663	21	C	02/29/2024	05:09	-127.544	48.303	0	19.30	0	9.7830	0	32.2250	0	24.822	0	19.137	0	264.6	4	94.0	4	-1E+10	1	-1E+10	1	-1E+10	1	-1E+10	1	-1E+10	1	-1E+10	1
4902663	21	C	02/29/2024	05:09	-127.544	48.303	0	20.30	0	9.7830	0	32.2250	0	24.822	0	20.128	0	264.5	4	94.0	4	-1E+10	1	-1E+10	1	-1E+10	1	-1E+10	1	-1E+10	1	-1E+10	1
4902663	21	C	02/29/2024	05:09	-127.544	48.303	0	21.40	0	9.7830	0	32.2260	0	24.823	0	21.219	0	264.5	4	94.0	4	-1E+10	1	-1E+10	1	-1E+10	1	-1E+10	1	-1E+10	1	-1E+10	1
4902663	21	C	02/29/2024	05:09	-127.544	48.303	0	22.50	0	9.7830	0	32.2260	0	24.823	0	22.309	0	264.3	4	93.9	4	-1E+10	1	-1E+10	1	-1E+10	1	-1E+10	1	-1E+10	1	-1E+10	1
4902663	21	C	02/29/2024	05:09	-127.544	48.303	0	23.60	0	9.7820	0	32.2260	0	24.823	0	23.400	0	264.3	4	93.9	4	-1E+10	1	-1E+10	1	-1E+10	1	-1E+10	1	-1E+10	1	-1E+10	1
4902663	21	C	02/29/2024	05:09	-127.544	48.303	0	24.70	0	9.7820	0	32.2260	0	24.823	0	24.491	0	264.2	4	93.9	4	-1E+10	1	-1E+10	1	-1E+10	1	-1E+10	1	-1E+10	1	-1E+10	1
4902663	21	C	02/29/2024	05:09	-127.544	48.303	0	25.80	0	9.7810	0	32.2260	0	24.823	0	25.581	0	264.1	4	93.8	4	-1E+10	1	-1E+10	1	-1E+10	1	-1E+10	1	-1E+10	1	-1E+10	1
4902663	21	C	02/29/2024	05:09	-127.544	48.303	0	26.80	0	9.7830	0	32.2260	0	24.823	0	26.573	0	264.0	4	93.8	4	-1E+10	1	-1E+10	1	-1E+10	1	-1E+10	1	-1E+10	1	-1E+10	1
4902663	21	C	02/29/2024	05:09	-127.544	48.303	0	27.90	0	9.7830	0	32.2260	0	24.823	0	27.663	0	263.8	4	93.7	4	-1E+10	1	-1E+10	1	-1E+10	1	-1E+10	1	-1E+10	1	-1E+10	1
4902663	21	C	02/29/2024	05:09	-127.544	48.303	0	29.00	0	9.7810	0	32.2260	0	24.823	0	28.754	0	263.7	4	93.7	4	-1E+10	1	-1E+10	1	-1E+10	1	-1E+10	1	-1E+10	1	-1E+10	1
4902663	21	C	02/29/2024	05:09	-127.544	48.303	0	30.10	0	9.7810	0	32.2260	0	24.823	0	29.844	0	263.5	4	93.6	4	-1E+10	1	-1E+10	1	-1E+10	1	-1E+10	1	-1E+10	1	-1E+10	1
4902663	21	C	02/29/2024	05:09	-127.544	48.303	0	31.20	0	9.7830	0	32.2270	0	24.824	0	30.935	0	263.3	4	93.5	4	-1E+10	1	-1E+10	1	-1E+10	1	-1E+10	1	-1E+10	1	-1E+10	1
4902663	21	C	02/29/2024	05:09	-127.544	48.303	0	32.30	0	9.7840	0	32.2260	0	24.823	0	32.026	0	263.1	4	93.5	4	-1E+10	1	-1E+10	1	-1E+10	1	-1E+10	1	-1E+10	1	-1E+10	1
4902663	21	C	02/29/2024	05:09	-127.544	48.303	0	33.40	0	9.7880	0	32.2300	0	24.825	0	33.116	0	262.9	4	93.4	4	-1E+10	1	-1E+10	1	-1E+10	1	-1E+10	1	-1E+10	1	-1E+10	1
4902663	21	C	02/29/2024	05:09	-127.544	48.303	0	34.40	0	9.7880	0	32.2280	0	24.824	0	34.108	0	262.8	4	93.4	4	-1E+10	1	-1E+10	1	-1E+10	1	-1E+10	1	-1E+10	1	-1E+10	1
4902663	21	C	02/29/2024	05:09	-127.544	48.303	0	35.50	0	9.7890	0	32.2290	0	24.825	0	35.198	0	262.5	4	93.3	4	-1E+10	1	-1E+10	1	-1E+10	1	-1E+10	1	-1E+10	1	-1E+10	1
4902663	21	C	02/29/2024	05:09	-127.544	48.303	0	36.60	0	9.7890	0	32.2290	0	24.825	0	36.289	0	262.2	4	93.2	4	-1E+10	1	-1E+10	1	-1E+10	1	-1E+10	1	-1E+10	1	-1E+10	1
4902663	21	C	02/29/2024	05:09	-127.544	48.303	0	37.70	0	9.7890	0	32.2290	0	24.825	0	37.379	0	261.9	4	93.1	4	-1E+10	1	-1E+10	1	-1E+10	1	-1E+10	1	-1E+10	1	-1E+10	1
4902663	21	C	02/29/2024	05:09	-127.544	48.303	0	38.80	0	9.7900	0	32.2290	0	24.824	0	38.470	0	261.5	4	92.9	4	-1E+10	1	-1E+10	1	-1E+10	1	-1E+10	1	-1E+10	1	-1E+10	1
4902663	21	C	02/29/2024	05:09	-127.544	48.303	0	40.00	0	9.7930	0	32.2320	0	24.826	0	39.659	0	261.2	4	92.8	4	-1E+10	1	-1E+10	1	-1E+10	1	-1E+10	1	-1E+10	1	-1E+10	1
4902663	21	C	02/29/2024	05:09	-127.544	48.303	0	41.10	0	9.7930	0	32.2320	0	24.826	0	40.750	0	260.7	4	92.7	4	-1E+10	1	-1E+10	1	-1E+10	1	-1E+10	1	-1E+10	1	-1E+10	1
4902663	21	C	02/29/2024	05:09	-127.544	48.303	0	42.20	0	9.7940	0	32.2330	0	24.827	0	41.840	0	260.3	4	92.5	4	-1E+10	1	-1E+10	1	-1E+10	1	-1E+10	1	-1E+10	1	-1E+10	1
4902663	21	C	02/29/2024	05:09	-127.544	48.303	0	43.40	0	9.7930	0	32.2330	0	24.827	0	43.030	0	259.7	4	92.3	4	-1E+10	1	-1E+10	1	-1E+10	1	-1E+10	1	-1E+10	1	-1E+10	1
4902663	21	C	02/29/2024	05:09	-127.544	48.303	0	44.50	0	9.7930	0	32.2340	0	24.828	0	44.121	0	259.1	4	92.1	4	-1E+10	1	-1E+10	1	-1E+10	1	-1E+10	1	-1E+10	1	-1E+10	1
4902663	21	C	02/29/2024	05:09	-127.544	48.303	0	45.60	0	9.7930	0	32.2370	0	24.830	0	45.211	0	258.2	4	91.8	4	-1E+10	1	-1E+10	1	-1E+10	1	-1E+10	1	-1E+10	1	-1E+10	1
4902663	21	C	02/29/2024	05:09	-127.544	48.303	0	46.70	0	9.7930	0	32.2380	0	24.831	0	46.302	0	257.4	4	91.5	4	-1E+10	1	-1E+10	1	-1E+10	1	-1E+10	1	-1E+10	1	-1E+10	1
4902663	21	C	02/29/2024	05:09	-127.544	48.303	0	47.80	0	9.7920	0	32.2390	0	24.832	0	47.392	0	256.3	4	91.1	4	-1E+10	1	-1E+10	1	-1E+10	1	-1E+10	1	-1E+10	1	-1E+10	1
4902663	21	C	02/29/2024	05:09	-127.544	48.303	0	48.80	0	9.7920	0	32.2410	0	24.834	0	48.383	0	255.2	4	90.7	4	-1E+10	1	-1E+10	1	-1E+10	1	-1E+10	1	-1E+10	1	-1E+10	1
4902663	21	C	02/29/2024	05:09	-127.544	48.303	0	49.90	0	9.7910	0	32.2430	0	24.835	0	49.474	0	253.7	4	90.2	4	-1E+10	1	-1E+10	1	-1E+10	1	-1E+10	1	-1E+10	1	-1E+10	1
4902663	21	C	02/29/2024	05:09	-127.544	48.303	0	51.00	0	9.7910	0	32.2450	0	24.837	0	50.564	0	252.0	4	89.6	4	-1E+10	1	-1E+10	1	-1E+10	1	-1E+10	1	-1E+10	1	-1E+10	1
4902663	21	C	02/29/2024	05:09	-127.544	48.303	0	52.00	0	9.7910	0	32.2470	0	24.839	0	51.556	0	249.8	4	88.8	4	-1E+10	1	-1E+10	1	-1E+10	1	-1E+10	1	-1E+10	1	-1E+10	1
4902663	21	C	02/29/2024	05:09	-127.544	48.303	0	53.00	0	9.8120	0	32.2640	0	24.848	0	52.547	0	247.6	4	88.1	4	-1E+10	1	-1E+10	1	-1E+10	1	-1E+10	1	-1E+10	1	-1E+10	1
4902663	21	C	02/29/2024	05:09	-127.544	48.303	0	54.10	0	9.8320	0	32.2800	0	24.858	0	53.637	0	245.3	4	87.3	4	-1E+10	1	-1E+10	1	-1E+10	1	-1E+10	1	-1E+10	1	-1E+10	1
4902663	21	C	02/29/2024	05:09	-127.544	48.303	0	55.10	0	9.8470	0	32.2880	0	24.862	0	54.629	0	243.1	4	86.5	4	-1E+10	1	-1E+10	1	-1E+10	1	-1E+10	1	-1E+10	1	-1E+10	1
4902663	21	C	02/29/2024	05:09	-127.544	48.303	0	56.20	0	9.8590	0	32.3030	0	24.871	0	55.719	0	241.0	4	85.8	4	-1E+10	1	-1E+10	1	-1E+10	1	-1E+10	1	-1E+10	1	-1E+10	1
4902663	21	C	02/29/2024	05:09	-127.544	48.303	0	57.20	0	9.8600	0	32.3060	0	24.873	0	56.711	0	238.8	4	85.0	4	-1E+10	1	-1E+10	1	-1E+10	1	-1E+10	1	-1E+10	1	-1E+10	1
4902663	21	C	02/29/2024	05:09	-127.544	48.303	0	58.30	0	9.8690	0	32.3120	0	24.877	0	57.801	0	236.3	4	84.2	4	-1E+10	1	-1E+10	1	-1E+10	1	-1E+10	1	-1E+10	1	-1E+10	1
4902663	21	C	02/29/2024	05:09	-127.544	48.303	0	59.30	0	9.8830	0	32.3330	0	24.891	0	58.792	0	233.9	4	83.4	4	-1E+10	1	-1E+10	1	-1E+10	1	-1E+10	1	-1E+10	1	-1E+10	1
4902663	21	C	02/29/2024	05:09	-127.544	48.303	0	60.40	0	9.9180	0	32.3710	0	24.915	0	59.883	0	232.2	4	82.8	4	-1E+10	1	-1E+10	1	-1E+10	1	-1E+10	1	-1E+10	1	-1E+10	1
4902663	21	C	02/29/2024	05:09	-127.544	48.303	0	61.50	0	9.9310	0	32.3900	0	24.927	0	60.973	0	231.1	4	82.5	4	-1E+10	1	-1E+10	1	-1E+10	1	-1E+10	1	-1E+10	1	-1E+10	1
4902663	21	C	02/29/2024	05:09	-127.544	48.303	0	62.60	0	9.9370	0	32.4000	0	24.934	0	62.064	0	230.1	4	82.1	4	-1E+10	1	-1E+10	1	-1E+10	1	-1E+10	1	-1E+10	1	-1E+10	1
4902663	21	C	02/29/2024	05:09	-127.544	48.303	0	63.70	0	9.9390	0	32.4110	0	24.943	0	63.154	0	229.2	4	81.8	4	-1E+10	1	-1E+10	1	-1E+10	1	-1E+10	1	-1E+10	1	-1E+10	1
4902663	21	C	02/29/2024	05:09	-127.544	48.303	0	64.80	0	9.9380	0	32.4170	0	24.947	0	64.244	0	228.5	4	81.6	4	-1E+10	1	-1E+10	1	-1E+10	1	-1E+10	1	-1E+10	1	-1E+10	1
4902663	21	C	02/29/2024	05:09	-127.544	48.303	0	65.90	0	9.9280	0	32.4190	0	24.951	0	65.335	0	227.6	4	81.2	4	-1E+10	1	-1E+10	1	-1E+10	1	-1E+10	1	-1E+10	1	-1E+10	1
4902663	21	C	02/29/2024	05:09	-127.544	48.303	0	67.00	0	9.8770	0	32.4160	0	24.957	0	66.425	0	226.4	4	80.7	4	-1E+10	1	-1E+10	1	-1E+10	1	-1E+10	1	-1E+10	1	-1E+10	1
4902663	21	C	02/29/2024	05:09	-127.544	48.303	0	68.00	0	9.8830	0	32.4250	0	24.963	0	67.416	0	224.6	4	80.1	4	-1E+10	1	-1E+10	1	-1E+10	1	-1E+10	1	-1E+10	1	-1E+10	1
4902663	21	C	02/29/2024	05:09	-127.544	48.303	0	68.90	0	9.8820	0	32.4260	0	24.964	0	68.309	0	222.5	4	79.3	4	-1E+10	1	-1E+10	1	-1E+10	1	-1E+10	1	-1E+10	1	-1E+10	1
4902663	21	C	02/29/2024	05:09	-127.544	48.303	0	69.80	0	9.9090	0	32.4400	0	24.970	0	69.201	0	220.3	4	78.6	4	-1E+10	1	-1E+10	1	-1E+10	1	-1E+10	1	-1E+10	1	-1E+10	1
4902663	21	C	02/29/2024	05:09	-127.544	48.303	0	70.70	0	9.9350	0	32.4620	0	24.983	0	70.093	0	218.2	4	77.9	4	-1E+10	1	-1E+10	1	-1E+10	1	-1E+10	1	-1E+10	1	-1E+10	1
4902663	21	C	02/29/2024	05:09	-127.544	48.303	0	71.70	0	9.9340	0	32.4630	0	24.984	0	71.084	0	216.2	4	77.2	4	-1E+10	1	-1E+10	1	-1E+10	1	-1E+10	1	-1E+10	1	-1E+10	1
4902663	21	C	02/29/2024	05:09	-127.544	48.303	0	72.60	0	9.9620	0	32.5090	0	25.015	0	71.976	0	214.0	4	76.5	4	-1E+10	1	-1E+10	1	-1E+10	1	-1E+10	1	-1E+10	1	-1E+10	1
4902663	21	C	02/29/2024	05:09	-127.544	48.303	0	73.70	0	9.9550	0	32.5490	0	25.048	0	73.066	0	213.5	4	76.3	4	-1E+10	1	-1E+10	1	-1E+10	1	-1E+10	1	-1E+10	1	-1E+10	1
4902663	21	C	02/29/2024	05:09	-127.544	48.303	0	74.80	0	9.9480	0	32.5520	0	25.051	0	74.157	0	213.0	4	76.1	4	-1E+10	1	-1E+10	1	-1E+10	1	-1E+10	1	-1E+10	1	-1E+10	1
4902663	21	C	02/29/2024	05:09	-127.544	48.303	0	75.90	0	9.9390	0	32.5540	0	25.054	0	75.247	0	212.5	4	75.9	4	-1E+10	1	-1E+10	1	-1E+10	1	-1E+10	1	-1E+10	1	-1E+10	1
4902663	21	C	02/29/2024	05:09	-127.544	48.303	0	76.90	0	9.9140	0	32.5570	0	25.061	0	76.238	0	212.0	4	75.7	4	-1E+10	1	-1E+10	1	-1E+10	1	-1E+10	1	-1E+10	1	-1E+10	1
4902663	21	C	02/29/2024	05:09	-127.544	48.303	0	78.00	0	9.8830	0	32.5650	0	25.072	0	77.329	0	211.4	4	75.5	4	-1E+10	1	-1E+10	1	-1E+10	1	-1E+10	1	-1E+10	1	-1E+10	1
4902663	21	C	02/29/2024	05:09	-127.544	48.303	0	78.70	0	9.8430	0	32.5700	0	25.083	0	78.023	0	211.1	4	75.3	4	-1E+10	1	-1E+10	1	-1E+10	1	-1E+10	1	-1E+10	1	-1E+10	1
4902663	21	C	02/29/2024	05:09	-127.544	48.303	0	79.80	0	9.5950	0	32.6110	0	25.155	0	79.113	0	209.5	4	74.3	4	-1E+10	1	-1E+10	1	-1E+10	1	-1E+10	1	-1E+10	1	-1E+10	1
4902663	21	C	02/29/2024	05:09	-127.544	48.303	0	80.90	0	9.3250	0	32.6440	0	25.224	0	80.203	0	206.4	4	72.8	4	-1E+10	1	-1E+10	1	-1E+10	1	-1E+10	1	-1E+10	1	-1E+10	1
4902663	21	C	02/29/2024	05:09	-127.544	48.303	0	81.80	0	9.1770	0	32.6640	0	25.263	0	81.095	0	202.1	4	71.1	4	-1E+10	1	-1E+10	1	-1E+10	1	-1E+10	1	-1E+10	1	-1E+10	1
4902663	21	C	02/29/2024	05:09	-127.544	48.303	0	82.90	0	8.9970	0	32.7350	0	25.347	0	82.186	0	197.3	4	69.2	4	-1E+10	1	-1E+10	1	-1E+10	1	-1E+10	1	-1E+10	1	-1E+10	1
4902663	21	C	02/29/2024	05:09	-127.544	48.303	0	83.90	0	8.9120	0	32.8080	0	25.417	0	83.177	0	193.0	4	67.6	4	-1E+10	1	-1E+10	1	-1E+10	1	-1E+10	1	-1E+10	1	-1E+10	1
4902663	21	C	02/29/2024	05:09	-127.544	48.303	0	85.10	0	8.8560	0	32.8800	0	25.482	0	84.366	0	189.7	4	66.3	4	-1E+10	1	-1E+10	1	-1E+10	1	-1E+10	1	-1E+10	1	-1E+10	1
4902663	21	C	02/29/2024	05:09	-127.544	48.303	0	86.10	0	8.7610	0	32.9150	0	25.524	0	85.357	0	193.4	4	67.5	4	-1E+10	1	-1E+10	1	-1E+10	1	-1E+10	1	-1E+10	1	-1E+10	1
4902663	21	C	02/29/2024	05:09	-127.544	48.303	0	86.80	0	8.7000	0	32.9660	0	25.574	0	86.051	0	193.4	4	67.5	4	-1E+10	1	-1E+10	1	-1E+10	1	-1E+10	1	-1E+10	1	-1E+10	1
4902663	21	C	02/29/2024	05:09	-127.544	48.303	0	87.90	0	8.2170	0	32.9460	0	25.631	0	87.141	0	193.1	4	66.6	4	-1E+10	1	-1E+10	1	-1E+10	1	-1E+10	1	-1E+10	1	-1E+10	1
4902663	21	C	02/29/2024	05:09	-127.544	48.303	0	89.10	0	8.0800	0	32.9670	0	25.667	0	88.331	0	191.8	4	66.0	4	-1E+10	1	-1E+10	1	-1E+10	1	-1E+10	1	-1E+10	1	-1E+10	1
4902663	21	C	02/29/2024	05:09	-127.544	48.303	0	90.00	0	7.9950	0	32.9750	0	25.686	0	89.223	0	191.2	4	65.7	4	-1E+10	1	-1E+10	1	-1E+10	1	-1E+10	1	-1E+10	1	-1E+10	1
4902663	21	C	02/29/2024	05:09	-127.544	48.303	0	90.80	0	7.9540	0	32.9730	0	25.690	0	90.016	0	190.3	4	65.3	4	-1E+10	1	-1E+10	1	-1E+10	1	-1E+10	1	-1E+10	1	-1E+10	1
4902663	21	C	02/29/2024	05:09	-127.544	48.303	0	91.60	0	7.8840	0	32.9700	0	25.698	0	90.809	0	189.2	4	64.8	4	-1E+10	1	-1E+10	1	-1E+10	1	-1E+10	1	-1E+10	1	-1E+10	1
4902663	21	C	02/29/2024	05:09	-127.544	48.303	0	92.90	0	7.9060	0	32.9980	0	25.717	0	92.097	0	187.3	4	64.2	4	-1E+10	1	-1E+10	1	-1E+10	1	-1E+10	1	-1E+10	1	-1E+10	1
4902663	21	C	02/29/2024	05:09	-127.544	48.303	0	94.20	0	8.0330	0	33.0430	0	25.734	0	93.386	0	185.4	4	63.8	4	-1E+10	1	-1E+10	1	-1E+10	1	-1E+10	1	-1E+10	1	-1E+10	1
4902663	21	C	02/29/2024	05:09	-127.544	48.303	0	95.20	0	7.9830	0	33.0540	0	25.750	0	94.377	0	184.3	4	63.3	4	-1E+10	1	-1E+10	1	-1E+10	1	-1E+10	1	-1E+10	1	-1E+10	1
4902663	21	C	02/29/2024	05:09	-127.544	48.303	0	96.10	0	7.9700	0	33.0470	0	25.746	0	95.269	0	183.1	4	62.9	4	-1E+10	1	-1E+10	1	-1E+10	1	-1E+10	1	-1E+10	1	-1E+10	1
4902663	21	C	02/29/2024	05:09	-127.544	48.303	0	97.00	0	7.9660	0	33.0690	0	25.764	0	96.161	0	181.7	4	62.4	4	-1E+10	1	-1E+10	1	-1E+10	1	-1E+10	1	-1E+10	1	-1E+10	1
4902663	21	C	02/29/2024	05:09	-127.544	48.303	0	97.90	0	7.9600	0	33.0750	0	25.770	0	97.053	0	180.3	4	61.9	4	-1E+10	1	-1E+10	1	-1E+10	1	-1E+10	1	-1E+10	1	-1E+10	1
4902663	21	C	02/29/2024	05:09	-127.544	48.303	0	98.80	0	7.9210	0	33.0800	0	25.779	0	97.945	0	179.1	4	61.4	4	-1E+10	1	-1E+10	1	-1E+10	1	-1E+10	1	-1E+10	1	-1E+10	1
4902663	21	C	02/29/2024	05:09	-127.544	48.303	0	99.70	0	7.9240	0	33.1180	0	25.809	0	98.837	0	177.9	4	61.1	4	-1E+10	1	-1E+10	1	-1E+10	1	-1E+10	1	-1E+10	1	-1E+10	1
4902663	21	C	02/29/2024	05:09	-127.544	48.303	0	100.70	0	7.8510	0	33.1160	0	25.818	0	99.828	0	176.7	4	60.6	4	-1E+10	1	-1E+10	1	-1E+10	1	-1E+10	1	-1E+10	1	-1E+10	1
4902663	21	C	02/29/2024	05:09	-127.544	48.303	0	101.60	0	7.8560	0	33.1280	0	25.826	0	100.720	0	175.4	4	60.1	4	-1E+10	1	-1E+10	1	-1E+10	1	-1E+10	1	-1E+10	1	-1E+10	1
4902663	21	C	02/29/2024	05:09	-127.544	48.303	0	102.50	0	7.8590	0	33.1360	0	25.832	0	101.612	0	174.1	4	59.7	4	-1E+10	1	-1E+10	1	-1E+10	1	-1E+10	1	-1E+10	1	-1E+10	1
4902663	21	C	02/29/2024	05:09	-127.544	48.303	0	103.90	0	7.8480	0	33.1550	0	25.849	0	102.999	0	171.8	4	58.9	4	-1E+10	1	-1E+10	1	-1E+10	1	-1E+10	1	-1E+10	1	-1E+10	1
4902663	21	C	02/29/2024	05:09	-127.544	48.303	0	105.30	0	7.7810	0	33.1610	0	25.863	0	104.387	0	168.8	4	57.8	4	-1E+10	1	-1E+10	1	-1E+10	1	-1E+10	1	-1E+10	1	-1E+10	1
4902663	21	C	02/29/2024	05:09	-127.544	48.303	0	106.30	0	7.8460	0	33.2020	0	25.886	0	105.378	0	166.8	4	57.2	4	-1E+10	1	-1E+10	1	-1E+10	1	-1E+10	1	-1E+10	1	-1E+10	1
4902663	21	C	02/29/2024	05:09	-127.544	48.303	0	107.20	0	7.8060	0	33.2310	0	25.915	0	106.270	0	165.2	4	56.6	4	-1E+10	1	-1E+10	1	-1E+10	1	-1E+10	1	-1E+10	1	-1E+10	1
4902663	21	C	02/29/2024	05:09	-127.544	48.303	0	108.20	0	7.8530	0	33.2490	0	25.922	0	107.261	0	163.5	4	56.1	4	-1E+10	1	-1E+10	1	-1E+10	1	-1E+10	1	-1E+10	1	-1E+10	1
4902663	21	C	02/29/2024	05:09	-127.544	48.303	0	109.10	0	7.8640	0	33.2840	0	25.948	0	108.153	0	162.1	4	55.6	4	-1E+10	1	-1E+10	1	-1E+10	1	-1E+10	1	-1E+10	1	-1E+10	1
4902663	21	C	02/29/2024	05:09	-127.544	48.303	0	110.00	0	7.8820	0	33.3050	0	25.962	0	109.045	0	160.7	4	55.2	4	-1E+10	1	-1E+10	1	-1E+10	1	-1E+10	1	-1E+10	1	-1E+10	1
4902663	21	C	02/29/2024	05:09	-127.544	48.303	0	110.90	0	7.8920	0	33.3140	0	25.967	0	109.937	0	159.2	4	54.7	4	-1E+10	1	-1E+10	1	-1E+10	1	-1E+10	1	-1E+10	1	-1E+10	1
4902663	21	C	02/29/2024	05:09	-127.544	48.303	0	111.90	0	7.9120	0	33.3190	0	25.968	0	110.928	0	157.6	4	54.2	4	-1E+10	1	-1E+10	1	-1E+10	1	-1E+10	1	-1E+10	1	-1E+10	1
4902663	21	C	02/29/2024	05:09	-127.544	48.303	0	112.90	0	7.9080	0	33.3530	0	25.996	0	111.919	0	155.9	4	53.6	4	-1E+10	1	-1E+10	1	-1E+10	1	-1E+10	1	-1E+10	1	-1E+10	1
4902663	21	C	02/29/2024	05:09	-127.544	48.303	0	113.90	0	7.9250	0	33.3900	0	26.022	0	112.910	0	155.0	4	53.3	4	-1E+10	1	-1E+10	1	-1E+10	1	-1E+10	1	-1E+10	1	-1E+10	1
4902663	21	C	02/29/2024	05:09	-127.544	48.303	0	114.90	0	7.9290	0	33.3970	0	26.027	0	113.901	0	154.3	4	53.1	4	-1E+10	1	-1E+10	1	-1E+10	1	-1E+10	1	-1E+10	1	-1E+10	1
4902663	21	C	02/29/2024	05:09	-127.544	48.303	0	115.90	0	7.9310	0	33.4090	0	26.036	0	114.892	0	153.7	4	52.9	4	-1E+10	1	-1E+10	1	-1E+10	1	-1E+10	1	-1E+10	1	-1E+10	1
4902663	21	C	02/29/2024	05:09	-127.544	48.303	0	116.90	0	7.9260	0	33.4190	0	26.045	0	115.883	0	153.2	4	52.7	4	-1E+10	1	-1E+10	1	-1E+10	1	-1E+10	1	-1E+10	1	-1E+10	1
4902663	21	C	02/29/2024	05:09	-127.544	48.303	0	117.90	0	7.9220	0	33.4220	0	26.048	0	116.874	0	152.7	4	52.5	4	-1E+10	1	-1E+10	1	-1E+10	1	-1E+10	1	-1E+10	1	-1E+10	1
4902663	21	C	02/29/2024	05:09	-127.544	48.303	0	118.90	0	7.9200	0	33.4260	0	26.051	0	117.865	0	152.1	4	52.3	4	-1E+10	1	-1E+10	1	-1E+10	1	-1E+10	1	-1E+10	1	-1E+10	1
4902663	21	C	02/29/2024	05:09	-127.544	48.303	0	119.90	0	7.9010	0	33.4400	0	26.065	0	118.856	0	151.4	4	52.1	4	-1E+10	1	-1E+10	1	-1E+10	1	-1E+10	1	-1E+10	1	-1E+10	1
4902663	21	C	02/29/2024	05:09	-127.544	48.303	0	120.90	0	7.9020	0	33.4580	0	26.079	0	119.847	0	150.7	4	51.8	4	-1E+10	1	-1E+10	1	-1E+10	1	-1E+10	1	-1E+10	1	-1E+10	1
4902663	21	C	02/29/2024	05:09	-127.544	48.303	0	121.70	0	7.9020	0	33.4590	0	26.080	0	120.640	0	149.9	4	51.6	4	-1E+10	1	-1E+10	1	-1E+10	1	-1E+10	1	-1E+10	1	-1E+10	1
4902663	21	C	02/29/2024	05:09	-127.544	48.303	0	122.50	0	7.9030	0	33.4680	0	26.087	0	121.433	0	149.3	4	51.3	4	-1E+10	1	-1E+10	1	-1E+10	1	-1E+10	1	-1E+10	1	-1E+10	1
4902663	21	C	02/29/2024	05:09	-127.544	48.303	0	123.90	0	7.8990	0	33.4780	0	26.095	0	122.820	0	148.5	4	51.1	4	-1E+10	1	-1E+10	1	-1E+10	1	-1E+10	1	-1E+10	1	-1E+10	1
4902663	21	C	02/29/2024	05:09	-127.544	48.303	0	125.00	0	7.8980	0	33.4900	0	26.105	0	123.910	0	148.0	4	50.9	4	-1E+10	1	-1E+10	1	-1E+10	1	-1E+10	1	-1E+10	1	-1E+10	1
4902663	21	C	02/29/2024	05:09	-127.544	48.303	0	125.80	0	7.9030	0	33.4980	0	26.111	0	124.703	0	147.6	4	50.8	4	-1E+10	1	-1E+10	1	-1E+10	1	-1E+10	1	-1E+10	1	-1E+10	1
4902663	21	C	02/29/2024	05:09	-127.544	48.303	0	126.90	0	7.9120	0	33.5070	0	26.116	0	125.793	0	147.0	4	50.6	4	-1E+10	1	-1E+10	1	-1E+10	1	-1E+10	1	-1E+10	1	-1E+10	1
4902663	21	C	02/29/2024	05:09	-127.544	48.303	0	128.00	0	7.9120	0	33.5130	0	26.121	0	126.883	0	146.3	4	50.3	4	-1E+10	1	-1E+10	1	-1E+10	1	-1E+10	1	-1E+10	1	-1E+10	1
4902663	21	C	02/29/2024	05:09	-127.544	48.303	0	128.80	0	7.9130	0	33.5170	0	26.124	0	127.676	0	145.8	4	50.2	4	-1E+10	1	-1E+10	1	-1E+10	1	-1E+10	1	-1E+10	1	-1E+10	1
4902663	21	C	02/29/2024	05:09	-127.544	48.303	0	130.00	0	7.9040	0	33.5280	0	26.134	0	128.865	0	144.9	4	49.9	4	-1E+10	1	-1E+10	1	-1E+10	1	-1E+10	1	-1E+10	1	-1E+10	1
4902663	21	C	02/29/2024	05:09	-127.544	48.303	0	131.20	0	7.9110	0	33.5340	0	26.138	0	130.054	0	144.0	4	49.6	4	-1E+10	1	-1E+10	1	-1E+10	1	-1E+10	1	-1E+10	1	-1E+10	1
4902663	21	C	02/29/2024	05:09	-127.544	48.303	0	131.90	0	7.9150	0	33.5470	0	26.147	0	130.748	0	143.6	4	49.4	4	-1E+10	1	-1E+10	1	-1E+10	1	-1E+10	1	-1E+10	1	-1E+10	1
4902663	21	C	02/29/2024	05:09	-127.544	48.303	0	132.70	0	7.9120	0	33.5550	0	26.154	0	131.540	0	143.3	4	49.3	4	-1E+10	1	-1E+10	1	-1E+10	1	-1E+10	1	-1E+10	1	-1E+10	1
4902663	21	C	02/29/2024	05:09	-127.544	48.303	0	133.90	0	7.9040	0	33.5700	0	26.167	0	132.730	0	143.0	4	49.2	4	-1E+10	1	-1E+10	1	-1E+10	1	-1E+10	1	-1E+10	1	-1E+10	1
4902663	21	C	02/29/2024	05:09	-127.544	48.303	0	135.10	0	7.8710	0	33.5770	0	26.177	0	133.919	0	142.7	4	49.1	4	-1E+10	1	-1E+10	1	-1E+10	1	-1E+10	1	-1E+10	1	-1E+10	1
4902663	21	C	02/29/2024	05:09	-127.544	48.303	0	135.90	0	7.8300	0	33.5870	0	26.191	0	134.711	0	142.3	4	48.9	4	-1E+10	1	-1E+10	1	-1E+10	1	-1E+10	1	-1E+10	1	-1E+10	1
4902663	21	C	02/29/2024	05:09	-127.544	48.303	0	136.70	0	7.7940	0	33.5940	0	26.202	0	135.504	0	142.1	4	48.8	4	-1E+10	1	-1E+10	1	-1E+10	1	-1E+10	1	-1E+10	1	-1E+10	1
4902663	21	C	02/29/2024	05:09	-127.544	48.303	0	138.00	0	7.8380	0	33.6280	0	26.222	0	136.792	0	142.2	4	48.9	4	-1E+10	1	-1E+10	1	-1E+10	1	-1E+10	1	-1E+10	1	-1E+10	1
4902663	21	C	02/29/2024	05:09	-127.544	48.303	0	139.20	0	7.8250	0	33.6420	0	26.235	0	137.982	0	142.9	4	49.1	4	-1E+10	1	-1E+10	1	-1E+10	1	-1E+10	1	-1E+10	1	-1E+10	1
4902663	21	C	02/29/2024	05:09	-127.544	48.303	0	140.10	0	7.7610	0	33.6390	0	26.242	0	138.873	0	143.3	4	49.2	4	-1E+10	1	-1E+10	1	-1E+10	1	-1E+10	1	-1E+10	1	-1E+10	1
4902663	21	C	02/29/2024	05:09	-127.544	48.303	0	140.90	0	7.7610	0	33.6440	0	26.246	0	139.666	0	143.6	4	49.3	4	-1E+10	1	-1E+10	1	-1E+10	1	-1E+10	1	-1E+10	1	-1E+10	1
4902663	21	C	02/29/2024	05:09	-127.544	48.303	0	141.80	0	7.6620	0	33.6390	0	26.256	0	140.558	0	143.7	4	49.2	4	-1E+10	1	-1E+10	1	-1E+10	1	-1E+10	1	-1E+10	1	-1E+10	1
4902663	21	C	02/29/2024	05:09	-127.544	48.303	0	142.70	0	7.5750	0	33.6540	0	26.281	0	141.450	0	143.3	4	49.0	4	-1E+10	1	-1E+10	1	-1E+10	1	-1E+10	1	-1E+10	1	-1E+10	1
4902663	21	C	02/29/2024	05:09	-127.544	48.303	0	143.90	0	7.5800	0	33.6560	0	26.281	0	142.639	0	142.3	4	48.6	4	-1E+10	1	-1E+10	1	-1E+10	1	-1E+10	1	-1E+10	1	-1E+10	1
4902663	21	C	02/29/2024	05:09	-127.544	48.303	0	145.40	0	7.5970	0	33.6660	0	26.287	0	144.125	0	141.2	4	48.3	4	-1E+10	1	-1E+10	1	-1E+10	1	-1E+10	1	-1E+10	1	-1E+10	1
4902663	21	C	02/29/2024	05:09	-127.544	48.303	0	146.30	0	7.5930	0	33.6730	0	26.293	0	145.017	0	140.5	4	48.1	4	-1E+10	1	-1E+10	1	-1E+10	1	-1E+10	1	-1E+10	1	-1E+10	1
4902663	21	C	02/29/2024	05:09	-127.544	48.303	0	147.20	0	7.5730	0	33.6840	0	26.304	0	145.909	0	139.9	4	47.8	4	-1E+10	1	-1E+10	1	-1E+10	1	-1E+10	1	-1E+10	1	-1E+10	1
4902663	21	C	02/29/2024	05:09	-127.544	48.303	0	148.20	0	7.5690	0	33.6910	0	26.311	0	146.900	0	139.1	4	47.6	4	-1E+10	1	-1E+10	1	-1E+10	1	-1E+10	1	-1E+10	1	-1E+10	1
4902663	21	C	02/29/2024	05:09	-127.544	48.303	0	149.10	0	7.5710	0	33.6940	0	26.313	0	147.791	0	138.4	4	47.3	4	-1E+10	1	-1E+10	1	-1E+10	1	-1E+10	1	-1E+10	1	-1E+10	1
4902663	21	C	02/29/2024	05:09	-127.544	48.303	0	150.10	0	7.5710	0	33.6960	0	26.314	0	148.782	0	137.6	4	47.1	4	-1E+10	1	-1E+10	1	-1E+10	1	-1E+10	1	-1E+10	1	-1E+10	1
4902663	21	C	02/29/2024	05:09	-127.544	48.303	0	151.00	0	7.5660	0	33.7080	0	26.324	0	149.674	0	136.8	4	46.8	4	-1E+10	1	-1E+10	1	-1E+10	1	-1E+10	1	-1E+10	1	-1E+10	1
4902663	21	C	02/29/2024	05:09	-127.544	48.303	0	152.00	0	7.5740	0	33.7140	0	26.328	0	150.665	0	135.9	4	46.5	4	-1E+10	1	-1E+10	1	-1E+10	1	-1E+10	1	-1E+10	1	-1E+10	1
4902663	21	C	02/29/2024	05:09	-127.544	48.303	0	153.00	0	7.5750	0	33.7200	0	26.333	0	151.656	0	135.0	4	46.2	4	-1E+10	1	-1E+10	1	-1E+10	1	-1E+10	1	-1E+10	1	-1E+10	1
4902663	21	C	02/29/2024	05:09	-127.544	48.303	0	154.00	0	7.6260	0	33.7360	0	26.338	0	152.647	0	134.6	4	46.1	4	-1E+10	1	-1E+10	1	-1E+10	1	-1E+10	1	-1E+10	1	-1E+10	1
4902663	21	C	02/29/2024	05:09	-127.544	48.303	0	154.90	0	7.6380	0	33.7480	0	26.346	0	153.538	0	134.8	4	46.2	4	-1E+10	1	-1E+10	1	-1E+10	1	-1E+10	1	-1E+10	1	-1E+10	1
4902663	21	C	02/29/2024	05:09	-127.544	48.303	0	155.90	0	7.6080	0	33.7590	0	26.359	0	154.529	0	134.9	4	46.2	4	-1E+10	1	-1E+10	1	-1E+10	1	-1E+10	1	-1E+10	1	-1E+10	1
4902663	21	C	02/29/2024	05:09	-127.544	48.303	0	156.90	0	7.5400	0	33.7570	0	26.367	0	155.520	0	134.8	4	46.1	4	-1E+10	1	-1E+10	1	-1E+10	1	-1E+10	1	-1E+10	1	-1E+10	1
4902663	21	C	02/29/2024	05:09	-127.544	48.303	0	157.90	0	7.5470	0	33.7640	0	26.371	0	156.511	0	134.5	4	46.0	4	-1E+10	1	-1E+10	1	-1E+10	1	-1E+10	1	-1E+10	1	-1E+10	1
4902663	21	C	02/29/2024	05:09	-127.544	48.303	0	159.00	0	7.5320	0	33.7670	0	26.376	0	157.601	0	134.3	4	45.9	4	-1E+10	1	-1E+10	1	-1E+10	1	-1E+10	1	-1E+10	1	-1E+10	1
4902663	21	C	02/29/2024	05:09	-127.544	48.303	0	160.00	0	7.5250	0	33.7740	0	26.382	0	158.591	0	134.3	4	45.9	4	-1E+10	1	-1E+10	1	-1E+10	1	-1E+10	1	-1E+10	1	-1E+10	1
4902663	21	C	02/29/2024	05:09	-127.544	48.303	0	161.00	0	7.4900	0	33.7850	0	26.396	0	159.582	0	134.2	4	45.8	4	-1E+10	1	-1E+10	1	-1E+10	1	-1E+10	1	-1E+10	1	-1E+10	1
4902663	21	C	02/29/2024	05:09	-127.544	48.303	0	162.10	0	7.4670	0	33.7850	0	26.399	0	160.672	0	134.0	4	45.8	4	-1E+10	1	-1E+10	1	-1E+10	1	-1E+10	1	-1E+10	1	-1E+10	1
4902663	21	C	02/29/2024	05:09	-127.544	48.303	0	163.10	0	7.4630	0	33.7820	0	26.397	0	161.663	0	133.8	4	45.7	4	-1E+10	1	-1E+10	1	-1E+10	1	-1E+10	1	-1E+10	1	-1E+10	1
4902663	21	C	02/29/2024	05:09	-127.544	48.303	0	164.10	0	7.4320	0	33.7820	0	26.402	0	162.654	0	133.4	4	45.5	4	-1E+10	1	-1E+10	1	-1E+10	1	-1E+10	1	-1E+10	1	-1E+10	1
4902663	21	C	02/29/2024	05:09	-127.544	48.303	0	165.10	0	7.4380	0	33.7880	0	26.406	0	163.645	0	133.0	4	45.4	4	-1E+10	1	-1E+10	1	-1E+10	1	-1E+10	1	-1E+10	1	-1E+10	1
4902663	21	C	02/29/2024	05:09	-127.544	48.303	0	166.10	0	7.4350	0	33.7890	0	26.407	0	164.635	0	132.7	4	45.3	4	-1E+10	1	-1E+10	1	-1E+10	1	-1E+10	1	-1E+10	1	-1E+10	1
4902663	21	C	02/29/2024	05:09	-127.544	48.303	0	167.10	0	7.4340	0	33.7910	0	26.409	0	165.626	0	132.4	4	45.2	4	-1E+10	1	-1E+10	1	-1E+10	1	-1E+10	1	-1E+10	1	-1E+10	1
4902663	21	C	02/29/2024	05:09	-127.544	48.303	0	168.10	0	7.4270	0	33.7880	0	26.407	0	166.617	0	132.1	4	45.1	4	-1E+10	1	-1E+10	1	-1E+10	1	-1E+10	1	-1E+10	1	-1E+10	1
4902663	21	C	02/29/2024	05:09	-127.544	48.303	0	169.10	0	7.4380	0	33.7950	0	26.411	0	167.608	0	131.8	4	45.0	4	-1E+10	1	-1E+10	1	-1E+10	1	-1E+10	1	-1E+10	1	-1E+10	1
4902663	21	C	02/29/2024	05:09	-127.544	48.303	0	170.10	0	7.4280	0	33.7980	0	26.415	0	168.598	0	131.5	4	44.9	4	-1E+10	1	-1E+10	1	-1E+10	1	-1E+10	1	-1E+10	1	-1E+10	1
4902663	21	C	02/29/2024	05:09	-127.544	48.303	0	171.10	0	7.4120	0	33.7970	0	26.416	0	169.589	0	131.2	4	44.7	4	-1E+10	1	-1E+10	1	-1E+10	1	-1E+10	1	-1E+10	1	-1E+10	1
4902663	21	C	02/29/2024	05:09	-127.544	48.303	0	172.10	0	7.4070	0	33.7980	0	26.418	0	170.580	0	130.6	4	44.5	4	-1E+10	1	-1E+10	1	-1E+10	1	-1E+10	1	-1E+10	1	-1E+10	1
4902663	21	C	02/29/2024	05:09	-127.544	48.303	0	173.10	0	7.4010	0	33.7960	0	26.417	0	171.571	0	130.0	4	44.3	4	-1E+10	1	-1E+10	1	-1E+10	1	-1E+10	1	-1E+10	1	-1E+10	1
4902663	21	C	02/29/2024	05:09	-127.544	48.303	0	174.10	0	7.3920	0	33.7960	0	26.419	0	172.561	0	129.3	4	44.1	4	-1E+10	1	-1E+10	1	-1E+10	1	-1E+10	1	-1E+10	1	-1E+10	1
4902663	21	C	02/29/2024	05:09	-127.544	48.303	0	175.00	0	7.3900	0	33.8030	0	26.424	0	173.453	0	128.7	4	43.9	4	-1E+10	1	-1E+10	1	-1E+10	1	-1E+10	1	-1E+10	1	-1E+10	1
4902663	21	C	02/29/2024	05:09	-127.544	48.303	0	176.00	0	7.3690	0	33.8060	0	26.430	0	174.444	0	128.1	4	43.6	4	-1E+10	1	-1E+10	1	-1E+10	1	-1E+10	1	-1E+10	1	-1E+10	1
4902663	21	C	02/29/2024	05:09	-127.544	48.303	0	177.00	0	7.3680	0	33.8070	0	26.431	0	175.435	0	127.5	4	43.4	4	-1E+10	1	-1E+10	1	-1E+10	1	-1E+10	1	-1E+10	1	-1E+10	1
4902663	21	C	02/29/2024	05:09	-127.544	48.303	0	178.00	0	7.3470	0	33.8130	0	26.438	0	176.425	0	126.8	4	43.2	4	-1E+10	1	-1E+10	1	-1E+10	1	-1E+10	1	-1E+10	1	-1E+10	1
4902663	21	C	02/29/2024	05:09	-127.544	48.303	0	179.00	0	7.3230	0	33.8120	0	26.441	0	177.416	0	125.8	4	42.8	4	-1E+10	1	-1E+10	1	-1E+10	1	-1E+10	1	-1E+10	1	-1E+10	1
4902663	21	C	02/29/2024	05:09	-127.544	48.303	0	180.00	0	7.3080	0	33.8160	0	26.446	0	178.407	0	124.8	4	42.5	4	-1E+10	1	-1E+10	1	-1E+10	1	-1E+10	1	-1E+10	1	-1E+10	1
4902663	21	C	02/29/2024	05:09	-127.544	48.303	0	181.00	0	7.2800	0	33.8170	0	26.451	0	179.397	0	123.3	4	41.9	4	-1E+10	1	-1E+10	1	-1E+10	1	-1E+10	1	-1E+10	1	-1E+10	1
4902663	21	C	02/29/2024	05:09	-127.544	48.303	0	182.00	0	7.2840	0	33.8190	0	26.452	0	180.388	0	121.6	4	41.4	4	-1E+10	1	-1E+10	1	-1E+10	1	-1E+10	1	-1E+10	1	-1E+10	1
4902663	21	C	02/29/2024	05:09	-127.544	48.303	0	183.00	0	7.2660	0	33.8260	0	26.460	0	181.379	0	119.8	4	40.7	4	-1E+10	1	-1E+10	1	-1E+10	1	-1E+10	1	-1E+10	1	-1E+10	1
4902663	21	C	02/29/2024	05:09	-127.544	48.303	0	184.00	0	7.2680	0	33.8280	0	26.461	0	182.370	0	118.0	4	40.1	4	-1E+10	1	-1E+10	1	-1E+10	1	-1E+10	1	-1E+10	1	-1E+10	1
4902663	21	C	02/29/2024	05:09	-127.544	48.303	0	185.00	0	7.2920	0	33.8390	0	26.467	0	183.360	0	116.4	4	39.6	4	-1E+10	1	-1E+10	1	-1E+10	1	-1E+10	1	-1E+10	1	-1E+10	1
4902663	21	C	02/29/2024	05:09	-127.544	48.303	0	186.10	0	7.2850	0	33.8440	0	26.471	0	184.450	0	114.8	4	39.0	4	-1E+10	1	-1E+10	1	-1E+10	1	-1E+10	1	-1E+10	1	-1E+10	1
4902663	21	C	02/29/2024	05:09	-127.544	48.303	0	187.10	0	7.2810	0	33.8440	0	26.472	0	185.441	0	112.8	4	38.4	4	-1E+10	1	-1E+10	1	-1E+10	1	-1E+10	1	-1E+10	1	-1E+10	1
4902663	21	C	02/29/2024	05:09	-127.544	48.303	0	188.10	0	7.3330	0	33.8590	0	26.477	0	186.431	0	111.6	4	38.0	4	-1E+10	1	-1E+10	1	-1E+10	1	-1E+10	1	-1E+10	1	-1E+10	1
4902663	21	C	02/29/2024	05:09	-127.544	48.303	0	189.20	0	7.3290	0	33.8700	0	26.486	0	187.521	0	110.6	4	37.7	4	-1E+10	1	-1E+10	1	-1E+10	1	-1E+10	1	-1E+10	1	-1E+10	1
4902663	21	C	02/29/2024	05:09	-127.544	48.303	0	190.20	0	7.2940	0	33.8710	0	26.491	0	188.512	0	109.5	4	37.3	4	-1E+10	1	-1E+10	1	-1E+10	1	-1E+10	1	-1E+10	1	-1E+10	1
4902663	21	C	02/29/2024	05:09	-127.544	48.303	0	191.20	0	7.2830	0	33.8740	0	26.495	0	189.503	0	108.5	4	36.9	4	-1E+10	1	-1E+10	1	-1E+10	1	-1E+10	1	-1E+10	1	-1E+10	1
4902663	21	C	02/29/2024	05:09	-127.544	48.303	0	192.20	0	7.3180	0	33.8880	0	26.502	0	190.493	0	107.9	4	36.7	4	-1E+10	1	-1E+10	1	-1E+10	1	-1E+10	1	-1E+10	1	-1E+10	1
4902663	21	C	02/29/2024	05:09	-127.544	48.303	0	193.20	0	7.2980	0	33.8900	0	26.506	0	191.484	0	107.4	4	36.6	4	-1E+10	1	-1E+10	1	-1E+10	1	-1E+10	1	-1E+10	1	-1E+10	1
4902663	21	C	02/29/2024	05:09	-127.544	48.303	0	194.30	0	7.2810	0	33.8860	0	26.505	0	192.574	0	106.8	4	36.3	4	-1E+10	1	-1E+10	1	-1E+10	1	-1E+10	1	-1E+10	1	-1E+10	1
4902663	21	C	02/29/2024	05:09	-127.544	48.303	0	195.30	0	7.2760	0	33.8880	0	26.507	0	193.564	0	106.1	4	36.1	4	-1E+10	1	-1E+10	1	-1E+10	1	-1E+10	1	-1E+10	1	-1E+10	1
4902663	21	C	02/29/2024	05:09	-127.544	48.303	0	196.30	0	7.2580	0	33.8890	0	26.511	0	194.555	0	105.4	4	35.8	4	-1E+10	1	-1E+10	1	-1E+10	1	-1E+10	1	-1E+10	1	-1E+10	1
4902663	21	C	02/29/2024	05:09	-127.544	48.303	0	197.30	0	7.2780	0	33.8930	0	26.511	0	195.545	0	104.8	4	35.6	4	-1E+10	1	-1E+10	1	-1E+10	1	-1E+10	1	-1E+10	1	-1E+10	1
4902663	21	C	02/29/2024	05:09	-127.544	48.303	0	198.30	0	7.2760	0	33.9000	0	26.517	0	196.536	0	104.3	4	35.5	4	-1E+10	1	-1E+10	1	-1E+10	1	-1E+10	1	-1E+10	1	-1E+10	1
4902663	21	C	02/29/2024	05:09	-127.544	48.303	0	199.30	0	7.2690	0	33.9010	0	26.519	0	197.527	0	104.0	4	35.4	4	-1E+10	1	-1E+10	1	-1E+10	1	-1E+10	1	-1E+10	1	-1E+10	1
4902663	21	C	02/29/2024	05:09	-127.544	48.303	0	200.30	0	7.2740	0	33.9090	0	26.524	0	198.517	0	104.1	4	35.4	4	-1E+10	1	-1E+10	1	-1E+10	1	-1E+10	1	-1E+10	1	-1E+10	1
4902663	21	C	02/29/2024	05:09	-127.544	48.303	0	201.30	0	7.2510	0	33.9090	0	26.528	0	199.508	0	104.3	4	35.5	4	-1E+10	1	-1E+10	1	-1E+10	1	-1E+10	1	-1E+10	1	-1E+10	1
4902663	21	C	02/29/2024	05:09	-127.544	48.303	0	202.30	0	7.2260	0	33.9150	0	26.536	0	200.499	0	104.7	4	35.6	4	-1E+10	1	-1E+10	1	-1E+10	1	-1E+10	1	-1E+10	1	-1E+10	1
4902663	21	C	02/29/2024	05:09	-127.544	48.303	0	203.40	0	7.2070	0	33.9130	0	26.537	0	201.588	0	105.2	4	35.7	4	-1E+10	1	-1E+10	1	-1E+10	1	-1E+10	1	-1E+10	1	-1E+10	1
4902663	21	C	02/29/2024	05:09	-127.544	48.303	0	204.40	0	7.1880	0	33.9080	0	26.536	0	202.579	0	105.7	4	35.9	4	-1E+10	1	-1E+10	1	-1E+10	1	-1E+10	1	-1E+10	1	-1E+10	1
4902663	21	C	02/29/2024	05:09	-127.544	48.303	0	205.40	0	7.1420	0	33.9060	0	26.540	0	203.569	0	106.3	4	36.0	4	-1E+10	1	-1E+10	1	-1E+10	1	-1E+10	1	-1E+10	1	-1E+10	1
4902663	21	C	02/29/2024	05:09	-127.544	48.303	0	206.40	0	7.0850	0	33.9060	0	26.548	0	204.560	0	106.8	4	36.2	4	-1E+10	1	-1E+10	1	-1E+10	1	-1E+10	1	-1E+10	1	-1E+10	1
4902663	21	C	02/29/2024	05:09	-127.544	48.303	0	207.40	0	7.0510	0	33.9140	0	26.559	0	205.551	0	107.2	4	36.3	4	-1E+10	1	-1E+10	1	-1E+10	1	-1E+10	1	-1E+10	1	-1E+10	1
4902663	21	C	02/29/2024	05:09	-127.544	48.303	0	208.40	0	6.9780	0	33.8980	0	26.557	0	206.541	0	107.4	4	36.3	4	-1E+10	1	-1E+10	1	-1E+10	1	-1E+10	1	-1E+10	1	-1E+10	1
4902663	21	C	02/29/2024	05:09	-127.544	48.303	0	209.50	0	6.9490	0	33.8900	0	26.554	0	207.631	0	107.2	4	36.2	4	-1E+10	1	-1E+10	1	-1E+10	1	-1E+10	1	-1E+10	1	-1E+10	1
4902663	21	C	02/29/2024	05:09	-127.544	48.303	0	210.50	0	6.9290	0	33.8920	0	26.558	0	208.621	0	107.0	4	36.1	4	-1E+10	1	-1E+10	1	-1E+10	1	-1E+10	1	-1E+10	1	-1E+10	1
4902663	21	C	02/29/2024	05:09	-127.544	48.303	0	211.50	0	6.9240	0	33.8920	0	26.559	0	209.612	0	106.9	4	36.1	4	-1E+10	1	-1E+10	1	-1E+10	1	-1E+10	1	-1E+10	1	-1E+10	1
4902663	21	C	02/29/2024	05:09	-127.544	48.303	0	212.60	0	6.9200	0	33.8940	0	26.561	0	210.702	0	106.7	4	36.0	4	-1E+10	1	-1E+10	1	-1E+10	1	-1E+10	1	-1E+10	1	-1E+10	1
4902663	21	C	02/29/2024	05:09	-127.544	48.303	0	213.60	0	6.9010	0	33.8920	0	26.562	0	211.692	0	106.7	4	36.0	4	-1E+10	1	-1E+10	1	-1E+10	1	-1E+10	1	-1E+10	1	-1E+10	1
4902663	21	C	02/29/2024	05:09	-127.544	48.303	0	214.70	0	6.8760	0	33.8940	0	26.567	0	212.782	0	106.5	4	35.9	4	-1E+10	1	-1E+10	1	-1E+10	1	-1E+10	1	-1E+10	1	-1E+10	1
4902663	21	C	02/29/2024	05:09	-127.544	48.303	0	215.70	0	6.8630	0	33.8880	0	26.564	0	213.772	0	106.0	4	35.7	4	-1E+10	1	-1E+10	1	-1E+10	1	-1E+10	1	-1E+10	1	-1E+10	1
4902663	21	C	02/29/2024	05:09	-127.544	48.303	0	216.80	0	6.8510	0	33.8880	0	26.566	0	214.862	0	105.4	4	35.5	4	-1E+10	1	-1E+10	1	-1E+10	1	-1E+10	1	-1E+10	1	-1E+10	1
4902663	21	C	02/29/2024	05:09	-127.544	48.303	0	217.80	0	6.8640	0	33.8920	0	26.567	0	215.852	0	104.8	4	35.3	4	-1E+10	1	-1E+10	1	-1E+10	1	-1E+10	1	-1E+10	1	-1E+10	1
4902663	21	C	02/29/2024	05:09	-127.544	48.303	0	218.80	0	6.8710	0	33.8940	0	26.568	0	216.843	0	104.4	4	35.2	4	-1E+10	1	-1E+10	1	-1E+10	1	-1E+10	1	-1E+10	1	-1E+10	1
4902663	21	C	02/29/2024	05:09	-127.544	48.303	0	219.90	0	6.8730	0	33.8940	0	26.568	0	217.933	0	104.0	4	35.0	4	-1E+10	1	-1E+10	1	-1E+10	1	-1E+10	1	-1E+10	1	-1E+10	1
4902663	21	C	02/29/2024	05:09	-127.544	48.303	0	220.90	0	6.8650	0	33.8950	0	26.570	0	218.923	0	103.6	4	34.9	4	-1E+10	1	-1E+10	1	-1E+10	1	-1E+10	1	-1E+10	1	-1E+10	1
4902663	21	C	02/29/2024	05:09	-127.544	48.303	0	221.90	0	6.8650	0	33.8960	0	26.570	0	219.914	0	103.2	4	34.8	4	-1E+10	1	-1E+10	1	-1E+10	1	-1E+10	1	-1E+10	1	-1E+10	1
4902663	21	C	02/29/2024	05:09	-127.544	48.303	0	223.00	0	6.8630	0	33.8970	0	26.571	0	221.003	0	102.9	4	34.7	4	-1E+10	1	-1E+10	1	-1E+10	1	-1E+10	1	-1E+10	1	-1E+10	1
4902663	21	C	02/29/2024	05:09	-127.544	48.303	0	224.00	0	6.7980	0	33.8950	0	26.579	0	221.994	0	102.5	4	34.5	4	-1E+10	1	-1E+10	1	-1E+10	1	-1E+10	1	-1E+10	1	-1E+10	1
4902663	21	C	02/29/2024	05:09	-127.544	48.303	0	225.00	0	6.7830	0	33.8930	0	26.579	0	222.984	0	101.8	4	34.2	4	-1E+10	1	-1E+10	1	-1E+10	1	-1E+10	1	-1E+10	1	-1E+10	1
4902663	21	C	02/29/2024	05:09	-127.544	48.303	0	226.10	0	6.7630	0	33.8960	0	26.584	0	224.074	0	101.2	4	34.0	4	-1E+10	1	-1E+10	1	-1E+10	1	-1E+10	1	-1E+10	1	-1E+10	1
4902663	21	C	02/29/2024	05:09	-127.544	48.303	0	227.10	0	6.7580	0	33.8970	0	26.586	0	225.064	0	100.6	4	33.8	4	-1E+10	1	-1E+10	1	-1E+10	1	-1E+10	1	-1E+10	1	-1E+10	1
4902663	21	C	02/29/2024	05:09	-127.544	48.303	0	228.20	0	6.7490	0	33.8990	0	26.588	0	226.154	0	100.2	4	33.7	4	-1E+10	1	-1E+10	1	-1E+10	1	-1E+10	1	-1E+10	1	-1E+10	1
4902663	21	C	02/29/2024	05:09	-127.544	48.303	0	229.20	0	6.7360	0	33.9010	0	26.592	0	227.144	0	99.7	4	33.5	4	-1E+10	1	-1E+10	1	-1E+10	1	-1E+10	1	-1E+10	1	-1E+10	1
4902663	21	C	02/29/2024	05:09	-127.544	48.303	0	230.30	0	6.7230	0	33.9020	0	26.594	0	228.234	0	99.2	4	33.3	4	-1E+10	1	-1E+10	1	-1E+10	1	-1E+10	1	-1E+10	1	-1E+10	1
4902663	21	C	02/29/2024	05:09	-127.544	48.303	0	231.30	0	6.7010	0	33.9010	0	26.596	0	229.224	0	98.5	4	33.1	4	-1E+10	1	-1E+10	1	-1E+10	1	-1E+10	1	-1E+10	1	-1E+10	1
4902663	21	C	02/29/2024	05:09	-127.544	48.303	0	232.40	0	6.6980	0	33.9020	0	26.598	0	230.314	0	97.8	4	32.8	4	-1E+10	1	-1E+10	1	-1E+10	1	-1E+10	1	-1E+10	1	-1E+10	1
4902663	21	C	02/29/2024	05:09	-127.544	48.303	0	233.50	0	6.7010	0	33.9050	0	26.600	0	231.403	0	97.0	4	32.6	4	-1E+10	1	-1E+10	1	-1E+10	1	-1E+10	1	-1E+10	1	-1E+10	1
4902663	21	C	02/29/2024	05:09	-127.544	48.303	0	234.50	0	6.7030	0	33.9050	0	26.599	0	232.394	0	96.2	4	32.3	4	-1E+10	1	-1E+10	1	-1E+10	1	-1E+10	1	-1E+10	1	-1E+10	1
4902663	21	C	02/29/2024	05:09	-127.544	48.303	0	235.60	0	6.7280	0	33.9090	0	26.599	0	233.483	0	95.6	4	32.1	4	-1E+10	1	-1E+10	1	-1E+10	1	-1E+10	1	-1E+10	1	-1E+10	1
4902663	21	C	02/29/2024	05:09	-127.544	48.303	0	236.70	0	6.6420	0	33.9130	0	26.614	0	234.573	0	94.7	4	31.8	4	-1E+10	1	-1E+10	1	-1E+10	1	-1E+10	1	-1E+10	1	-1E+10	1
4902663	21	C	02/29/2024	05:09	-127.544	48.303	0	237.80	0	6.6240	0	33.9010	0	26.607	0	235.662	0	93.4	4	31.3	4	-1E+10	1	-1E+10	1	-1E+10	1	-1E+10	1	-1E+10	1	-1E+10	1
4902663	21	C	02/29/2024	05:09	-127.544	48.303	0	238.90	0	6.6730	0	33.9170	0	26.613	0	236.752	0	92.3	4	31.0	4	-1E+10	1	-1E+10	1	-1E+10	1	-1E+10	1	-1E+10	1	-1E+10	1
4902663	21	C	02/29/2024	05:09	-127.544	48.303	0	239.90	0	6.7810	0	33.9350	0	26.613	0	237.742	0	92.1	4	31.0	4	-1E+10	1	-1E+10	1	-1E+10	1	-1E+10	1	-1E+10	1	-1E+10	1
4902663	21	C	02/29/2024	05:09	-127.544	48.303	0	241.00	0	6.7680	0	33.9360	0	26.615	0	238.832	0	92.3	4	31.0	4	-1E+10	1	-1E+10	1	-1E+10	1	-1E+10	1	-1E+10	1	-1E+10	1
4902663	21	C	02/29/2024	05:09	-127.544	48.303	0	242.00	0	6.7520	0	33.9340	0	26.616	0	239.822	0	92.5	4	31.1	4	-1E+10	1	-1E+10	1	-1E+10	1	-1E+10	1	-1E+10	1	-1E+10	1
4902663	21	C	02/29/2024	05:09	-127.544	48.303	0	243.10	0	6.7360	0	33.9350	0	26.619	0	240.912	0	92.8	4	31.2	4	-1E+10	1	-1E+10	1	-1E+10	1	-1E+10	1	-1E+10	1	-1E+10	1
4902663	21	C	02/29/2024	05:09	-127.544	48.303	0	244.20	0	6.7190	0	33.9320	0	26.619	0	242.001	0	93.0	4	31.2	4	-1E+10	1	-1E+10	1	-1E+10	1	-1E+10	1	-1E+10	1	-1E+10	1
4902663	21	C	02/29/2024	05:09	-127.544	48.303	0	245.20	0	6.6900	0	33.9310	0	26.622	0	242.991	0	93.2	4	31.3	4	-1E+10	1	-1E+10	1	-1E+10	1	-1E+10	1	-1E+10	1	-1E+10	1
4902663	21	C	02/29/2024	05:09	-127.544	48.303	0	246.30	0	6.6760	0	33.9270	0	26.620	0	244.081	0	93.4	4	31.3	4	-1E+10	1	-1E+10	1	-1E+10	1	-1E+10	1	-1E+10	1	-1E+10	1
4902663	21	C	02/29/2024	05:09	-127.544	48.303	0	247.40	0	6.6510	0	33.9240	0	26.621	0	245.170	0	93.4	4	31.3	4	-1E+10	1	-1E+10	1	-1E+10	1	-1E+10	1	-1E+10	1	-1E+10	1
4902663	21	C	02/29/2024	05:09	-127.544	48.303	0	248.40	0	6.6320	0	33.9280	0	26.627	0	246.161	0	93.4	4	31.3	4	-1E+10	1	-1E+10	1	-1E+10	1	-1E+10	1	-1E+10	1	-1E+10	1
4902663	21	C	02/29/2024	05:09	-127.544	48.303	0	249.50	0	6.5710	0	33.9170	0	26.626	0	247.250	0	93.3	4	31.2	4	-1E+10	1	-1E+10	1	-1E+10	1	-1E+10	1	-1E+10	1	-1E+10	1
4902663	21	C	02/29/2024	05:09	-127.544	48.303	0	250.60	0	6.5710	0	33.9180	0	26.627	0	248.340	0	93.1	4	31.2	4	-1E+10	1	-1E+10	1	-1E+10	1	-1E+10	1	-1E+10	1	-1E+10	1
4902663	21	C	02/29/2024	05:09	-127.544	48.303	0	251.70	0	6.5570	0	33.9180	0	26.629	0	249.429	0	92.9	4	31.1	4	-1E+10	1	-1E+10	1	-1E+10	1	-1E+10	1	-1E+10	1	-1E+10	1
4902663	21	C	02/29/2024	05:09	-127.544	48.303	0	252.70	0	6.5490	0	33.9170	0	26.629	0	250.419	0	92.6	4	31.0	4	-1E+10	1	-1E+10	1	-1E+10	1	-1E+10	1	-1E+10	1	-1E+10	1
4902663	21	C	02/29/2024	05:09	-127.544	48.303	0	253.80	0	6.5300	0	33.9170	0	26.632	0	251.509	0	92.3	4	30.9	4	-1E+10	1	-1E+10	1	-1E+10	1	-1E+10	1	-1E+10	1	-1E+10	1
4902663	21	C	02/29/2024	05:09	-127.544	48.303	0	254.90	0	6.5120	0	33.9150	0	26.633	0	252.598	0	91.8	4	30.7	4	-1E+10	1	-1E+10	1	-1E+10	1	-1E+10	1	-1E+10	1	-1E+10	1
4902663	21	C	02/29/2024	05:09	-127.544	48.303	0	255.90	0	6.5190	0	33.9160	0	26.633	0	253.588	0	91.4	4	30.6	4	-1E+10	1	-1E+10	1	-1E+10	1	-1E+10	1	-1E+10	1	-1E+10	1
4902663	21	C	02/29/2024	05:09	-127.544	48.303	0	257.00	0	6.5800	0	33.9310	0	26.636	0	254.678	0	91.6	4	30.7	4	-1E+10	1	-1E+10	1	-1E+10	1	-1E+10	1	-1E+10	1	-1E+10	1
4902663	21	C	02/29/2024	05:09	-127.544	48.303	0	258.00	0	6.5720	0	33.9360	0	26.641	0	255.668	0	92.2	4	30.9	4	-1E+10	1	-1E+10	1	-1E+10	1	-1E+10	1	-1E+10	1	-1E+10	1
4902663	21	C	02/29/2024	05:09	-127.544	48.303	0	259.10	0	6.4760	0	33.9310	0	26.650	0	256.758	0	92.7	4	31.0	4	-1E+10	1	-1E+10	1	-1E+10	1	-1E+10	1	-1E+10	1	-1E+10	1
4902663	21	C	02/29/2024	05:09	-127.544	48.303	0	260.20	0	6.4630	0	33.9200	0	26.643	0	257.847	0	93.0	4	31.1	4	-1E+10	1	-1E+10	1	-1E+10	1	-1E+10	1	-1E+10	1	-1E+10	1
4902663	21	C	02/29/2024	05:09	-127.544	48.303	0	261.20	0	6.4050	0	33.9190	0	26.650	0	258.837	0	93.3	4	31.1	4	-1E+10	1	-1E+10	1	-1E+10	1	-1E+10	1	-1E+10	1	-1E+10	1
4902663	21	C	02/29/2024	05:09	-127.544	48.303	0	262.30	0	6.3180	0	33.9120	0	26.656	0	259.927	0	93.3	4	31.1	4	-1E+10	1	-1E+10	1	-1E+10	1	-1E+10	1	-1E+10	1	-1E+10	1
4902663	21	C	02/29/2024	05:09	-127.544	48.303	0	263.40	0	6.2630	0	33.9070	0	26.659	0	261.016	0	93.0	4	30.9	4	-1E+10	1	-1E+10	1	-1E+10	1	-1E+10	1	-1E+10	1	-1E+10	1
4902663	21	C	02/29/2024	05:09	-127.544	48.303	0	264.50	0	6.2290	0	33.9000	0	26.658	0	262.105	0	92.3	4	30.6	4	-1E+10	1	-1E+10	1	-1E+10	1	-1E+10	1	-1E+10	1	-1E+10	1
4902663	21	C	02/29/2024	05:09	-127.544	48.303	0	265.60	0	6.2070	0	33.8990	0	26.660	0	263.195	0	91.2	4	30.3	4	-1E+10	1	-1E+10	1	-1E+10	1	-1E+10	1	-1E+10	1	-1E+10	1
4902663	21	C	02/29/2024	05:09	-127.544	48.303	0	266.70	0	6.1880	0	33.9000	0	26.663	0	264.284	0	89.8	4	29.8	4	-1E+10	1	-1E+10	1	-1E+10	1	-1E+10	1	-1E+10	1	-1E+10	1
4902663	21	C	02/29/2024	05:09	-127.544	48.303	0	267.80	0	6.1970	0	33.9060	0	26.666	0	265.373	0	88.7	4	29.4	4	-1E+10	1	-1E+10	1	-1E+10	1	-1E+10	1	-1E+10	1	-1E+10	1
4902663	21	C	02/29/2024	05:09	-127.544	48.303	0	268.90	0	6.2090	0	33.9110	0	26.669	0	266.463	0	87.6	4	29.1	4	-1E+10	1	-1E+10	1	-1E+10	1	-1E+10	1	-1E+10	1	-1E+10	1
4902663	21	C	02/29/2024	05:09	-127.544	48.303	0	270.00	0	6.2200	0	33.9110	0	26.667	0	267.552	0	86.7	4	28.8	4	-1E+10	1	-1E+10	1	-1E+10	1	-1E+10	1	-1E+10	1	-1E+10	1
4902663	21	C	02/29/2024	05:09	-127.544	48.303	0	271.10	0	6.2410	0	33.9180	0	26.670	0	268.641	0	85.9	4	28.5	4	-1E+10	1	-1E+10	1	-1E+10	1	-1E+10	1	-1E+10	1	-1E+10	1
4902663	21	C	02/29/2024	05:09	-127.544	48.303	0	272.20	0	6.2610	0	33.9230	0	26.672	0	269.731	0	85.3	4	28.4	4	-1E+10	1	-1E+10	1	-1E+10	1	-1E+10	1	-1E+10	1	-1E+10	1
4902663	21	C	02/29/2024	05:09	-127.544	48.303	0	273.20	0	6.2730	0	33.9250	0	26.672	0	270.721	0	84.9	4	28.2	4	-1E+10	1	-1E+10	1	-1E+10	1	-1E+10	1	-1E+10	1	-1E+10	1
4902663	21	C	02/29/2024	05:09	-127.544	48.303	0	274.30	0	6.2420	0	33.9310	0	26.680	0	271.810	0	84.6	4	28.1	4	-1E+10	1	-1E+10	1	-1E+10	1	-1E+10	1	-1E+10	1	-1E+10	1
4902663	21	C	02/29/2024	05:09	-127.544	48.303	0	275.40	0	6.2340	0	33.9290	0	26.680	0	272.899	0	84.4	4	28.0	4	-1E+10	1	-1E+10	1	-1E+10	1	-1E+10	1	-1E+10	1	-1E+10	1
4902663	21	C	02/29/2024	05:09	-127.544	48.303	0	276.50	0	6.2290	0	33.9300	0	26.681	0	273.989	0	84.2	4	28.0	4	-1E+10	1	-1E+10	1	-1E+10	1	-1E+10	1	-1E+10	1	-1E+10	1
4902663	21	C	02/29/2024	05:09	-127.544	48.303	0	277.60	0	6.2260	0	33.9300	0	26.682	0	275.078	0	83.9	4	27.9	4	-1E+10	1	-1E+10	1	-1E+10	1	-1E+10	1	-1E+10	1	-1E+10	1
4902663	21	C	02/29/2024	05:09	-127.544	48.303	0	278.70	0	6.2170	0	33.9310	0	26.684	0	276.167	0	83.6	4	27.8	4	-1E+10	1	-1E+10	1	-1E+10	1	-1E+10	1	-1E+10	1	-1E+10	1
4902663	21	C	02/29/2024	05:09	-127.544	48.303	0	279.80	0	6.2040	0	33.9300	0	26.685	0	277.257	0	83.2	4	27.6	4	-1E+10	1	-1E+10	1	-1E+10	1	-1E+10	1	-1E+10	1	-1E+10	1
4902663	21	C	02/29/2024	05:09	-127.544	48.303	0	280.90	0	6.1870	0	33.9290	0	26.686	0	278.346	0	82.9	4	27.5	4	-1E+10	1	-1E+10	1	-1E+10	1	-1E+10	1	-1E+10	1	-1E+10	1
4902663	21	C	02/29/2024	05:09	-127.544	48.303	0	282.00	0	6.1670	0	33.9300	0	26.689	0	279.435	0	82.4	4	27.3	4	-1E+10	1	-1E+10	1	-1E+10	1	-1E+10	1	-1E+10	1	-1E+10	1
4902663	21	C	02/29/2024	05:09	-127.544	48.303	0	283.10	0	6.1460	0	33.9280	0	26.690	0	280.524	0	81.9	4	27.2	4	-1E+10	1	-1E+10	1	-1E+10	1	-1E+10	1	-1E+10	1	-1E+10	1
4902663	21	C	02/29/2024	05:09	-127.544	48.303	0	284.10	0	6.1360	0	33.9270	0	26.691	0	281.515	0	81.3	4	27.0	4	-1E+10	1	-1E+10	1	-1E+10	1	-1E+10	1	-1E+10	1	-1E+10	1
4902663	21	C	02/29/2024	05:09	-127.544	48.303	0	285.20	0	6.1300	0	33.9310	0	26.695	0	282.604	0	80.7	4	26.8	4	-1E+10	1	-1E+10	1	-1E+10	1	-1E+10	1	-1E+10	1	-1E+10	1
4902663	21	C	02/29/2024	05:09	-127.544	48.303	0	286.30	0	6.1020	0	33.9340	0	26.701	0	283.693	0	80.3	4	26.6	4	-1E+10	1	-1E+10	1	-1E+10	1	-1E+10	1	-1E+10	1	-1E+10	1
4902663	21	C	02/29/2024	05:09	-127.544	48.303	0	287.40	0	6.1000	0	33.9340	0	26.701	0	284.782	0	79.8	4	26.4	4	-1E+10	1	-1E+10	1	-1E+10	1	-1E+10	1	-1E+10	1	-1E+10	1
4902663	21	C	02/29/2024	05:09	-127.544	48.303	0	288.50	0	6.0970	0	33.9340	0	26.701	0	285.871	0	79.3	4	26.3	4	-1E+10	1	-1E+10	1	-1E+10	1	-1E+10	1	-1E+10	1	-1E+10	1
4902663	21	C	02/29/2024	05:09	-127.544	48.303	0	289.90	0	6.0960	0	33.9350	0	26.702	0	287.258	0	78.5	4	26.0	4	-1E+10	1	-1E+10	1	-1E+10	1	-1E+10	1	-1E+10	1	-1E+10	1
4902663	21	C	02/29/2024	05:09	-127.544	48.303	0	291.90	0	6.0880	0	33.9370	0	26.705	0	289.238	0	77.3	4	25.6	4	-1E+10	1	-1E+10	1	-1E+10	1	-1E+10	1	-1E+10	1	-1E+10	1
4902663	21	C	02/29/2024	05:09	-127.544	48.303	0	293.00	0	6.0830	0	33.9400	0	26.708	0	290.327	0	76.5	4	25.3	4	-1E+10	1	-1E+10	1	-1E+10	1	-1E+10	1	-1E+10	1	-1E+10	1
4902663	21	C	02/29/2024	05:09	-127.544	48.303	0	293.80	0	6.0790	0	33.9420	0	26.710	0	291.119	0	76.0	4	25.2	4	-1E+10	1	-1E+10	1	-1E+10	1	-1E+10	1	-1E+10	1	-1E+10	1
4902663	21	C	02/29/2024	05:09	-127.544	48.303	0	295.00	0	6.0650	0	33.9460	0	26.715	0	292.308	0	75.5	4	25.0	4	-1E+10	1	-1E+10	1	-1E+10	1	-1E+10	1	-1E+10	1	-1E+10	1
4902663	21	C	02/29/2024	05:09	-127.544	48.303	0	296.20	0	6.0340	0	33.9440	0	26.717	0	293.496	0	74.8	4	24.7	4	-1E+10	1	-1E+10	1	-1E+10	1	-1E+10	1	-1E+10	1	-1E+10	1
4902663	21	C	02/29/2024	05:09	-127.544	48.303	0	297.00	0	6.0320	0	33.9440	0	26.718	0	294.288	0	74.3	4	24.6	4	-1E+10	1	-1E+10	1	-1E+10	1	-1E+10	1	-1E+10	1	-1E+10	1
4902663	21	C	02/29/2024	05:09	-127.544	48.303	0	297.80	0	6.0310	0	33.9440	0	26.718	0	295.080	0	73.7	4	24.4	4	-1E+10	1	-1E+10	1	-1E+10	1	-1E+10	1	-1E+10	1	-1E+10	1
4902663	21	C	02/29/2024	05:09	-127.544	48.303	0	299.00	0	6.0280	0	33.9460	0	26.720	0	296.268	0	72.9	4	24.1	4	-1E+10	1	-1E+10	1	-1E+10	1	-1E+10	1	-1E+10	1	-1E+10	1
4902663	21	C	02/29/2024	05:09	-127.544	48.303	0	300.10	0	6.0230	0	33.9510	0	26.724	0	297.357	0	72.2	4	23.9	4	-1E+10	1	-1E+10	1	-1E+10	1	-1E+10	1	-1E+10	1	-1E+10	1
4902663	21	C	02/29/2024	05:09	-127.544	48.303	0	300.90	0	6.0290	0	33.9520	0	26.724	0	298.150	0	71.7	4	23.7	4	-1E+10	1	-1E+10	1	-1E+10	1	-1E+10	1	-1E+10	1	-1E+10	1
4902663	21	C	02/29/2024	05:09	-127.544	48.303	0	301.70	0	6.0140	0	33.9550	0	26.729	0	298.942	0	71.3	4	23.6	4	-1E+10	1	-1E+10	1	-1E+10	1	-1E+10	1	-1E+10	1	-1E+10	1
4902663	21	C	02/29/2024	05:09	-127.544	48.303	0	302.90	0	6.0060	0	33.9540	0	26.729	0	300.130	0	70.6	4	23.3	4	-1E+10	1	-1E+10	1	-1E+10	1	-1E+10	1	-1E+10	1	-1E+10	1
4902663	21	C	02/29/2024	05:09	-127.544	48.303	0	304.10	0	6.0010	0	33.9580	0	26.733	0	301.318	0	70.0	4	23.1	4	-1E+10	1	-1E+10	1	-1E+10	1	-1E+10	1	-1E+10	1	-1E+10	1
4902663	21	C	02/29/2024	05:09	-127.544	48.303	0	304.90	0	5.9960	0	33.9590	0	26.734	0	302.110	0	69.5	4	23.0	4	-1E+10	1	-1E+10	1	-1E+10	1	-1E+10	1	-1E+10	1	-1E+10	1
4902663	21	C	02/29/2024	05:09	-127.544	48.303	0	305.70	0	5.9990	0	33.9600	0	26.734	0	302.902	0	69.0	4	22.8	4	-1E+10	1	-1E+10	1	-1E+10	1	-1E+10	1	-1E+10	1	-1E+10	1
4902663	21	C	02/29/2024	05:09	-127.544	48.303	0	306.90	0	6.0180	0	33.9650	0	26.736	0	304.090	0	68.5	4	22.6	4	-1E+10	1	-1E+10	1	-1E+10	1	-1E+10	1	-1E+10	1	-1E+10	1
4902663	21	C	02/29/2024	05:09	-127.544	48.303	0	308.10	0	6.0200	0	33.9660	0	26.737	0	305.278	0	67.9	4	22.4	4	-1E+10	1	-1E+10	1	-1E+10	1	-1E+10	1	-1E+10	1	-1E+10	1
4902663	21	C	02/29/2024	05:09	-127.544	48.303	0	309.00	0	6.0230	0	33.9670	0	26.737	0	306.170	0	67.4	4	22.3	4	-1E+10	1	-1E+10	1	-1E+10	1	-1E+10	1	-1E+10	1	-1E+10	1
4902663	21	C	02/29/2024	05:09	-127.544	48.303	0	309.80	0	6.0280	0	33.9710	0	26.740	0	306.962	0	67.0	4	22.2	4	-1E+10	1	-1E+10	1	-1E+10	1	-1E+10	1	-1E+10	1	-1E+10	1
4902663	21	C	02/29/2024	05:09	-127.544	48.303	0	311.00	0	6.0260	0	33.9710	0	26.740	0	308.150	0	66.5	4	22.0	4	-1E+10	1	-1E+10	1	-1E+10	1	-1E+10	1	-1E+10	1	-1E+10	1
4902663	21	C	02/29/2024	05:09	-127.544	48.303	0	312.30	0	6.0170	0	33.9710	0	26.741	0	309.437	0	65.9	4	21.8	4	-1E+10	1	-1E+10	1	-1E+10	1	-1E+10	1	-1E+10	1	-1E+10	1
4902663	21	C	02/29/2024	05:09	-127.544	48.303	0	313.10	0	6.0130	0	33.9740	0	26.744	0	310.229	0	65.6	4	21.7	4	-1E+10	1	-1E+10	1	-1E+10	1	-1E+10	1	-1E+10	1	-1E+10	1
4902663	21	C	02/29/2024	05:09	-127.544	48.303	0	313.90	0	6.0070	0	33.9720	0	26.743	0	311.021	0	65.2	4	21.6	4	-1E+10	1	-1E+10	1	-1E+10	1	-1E+10	1	-1E+10	1	-1E+10	1
4902663	21	C	02/29/2024	05:09	-127.544	48.303	0	314.70	0	5.9980	0	33.9740	0	26.746	0	311.813	0	64.8	4	21.4	4	-1E+10	1	-1E+10	1	-1E+10	1	-1E+10	1	-1E+10	1	-1E+10	1
4902663	21	C	02/29/2024	05:09	-127.544	48.303	0	315.90	0	5.9850	0	33.9760	0	26.749	0	313.001	0	64.3	4	21.2	4	-1E+10	1	-1E+10	1	-1E+10	1	-1E+10	1	-1E+10	1	-1E+10	1
4902663	21	C	02/29/2024	05:09	-127.544	48.303	0	317.30	0	5.9850	0	33.9760	0	26.749	0	314.387	0	63.7	4	21.0	4	-1E+10	1	-1E+10	1	-1E+10	1	-1E+10	1	-1E+10	1	-1E+10	1
4902663	21	C	02/29/2024	05:09	-127.544	48.303	0	318.10	0	5.9760	0	33.9780	0	26.752	0	315.179	0	63.4	4	20.9	4	-1E+10	1	-1E+10	1	-1E+10	1	-1E+10	1	-1E+10	1	-1E+10	1
4902663	21	C	02/29/2024	05:09	-127.544	48.303	0	319.00	0	5.9710	0	33.9810	0	26.755	0	316.070	0	63.2	4	20.9	4	-1E+10	1	-1E+10	1	-1E+10	1	-1E+10	1	-1E+10	1	-1E+10	1
4902663	21	C	02/29/2024	05:09	-127.544	48.303	0	319.80	0	5.9700	0	33.9810	0	26.755	0	316.862	0	62.9	4	20.8	4	-1E+10	1	-1E+10	1	-1E+10	1	-1E+10	1	-1E+10	1	-1E+10	1
4902663	21	C	02/29/2024	05:09	-127.544	48.303	0	320.70	0	5.9690	0	33.9810	0	26.755	0	317.753	0	62.6	4	20.7	4	-1E+10	1	-1E+10	1	-1E+10	1	-1E+10	1	-1E+10	1	-1E+10	1
4902663	21	C	02/29/2024	05:09	-127.544	48.303	0	321.90	0	5.9650	0	33.9820	0	26.756	0	318.941	0	62.3	4	20.6	4	-1E+10	1	-1E+10	1	-1E+10	1	-1E+10	1	-1E+10	1	-1E+10	1
4902663	21	C	02/29/2024	05:09	-127.544	48.303	0	323.20	0	5.9630	0	33.9830	0	26.757	0	320.229	0	61.9	4	20.4	4	-1E+10	1	-1E+10	1	-1E+10	1	-1E+10	1	-1E+10	1	-1E+10	1
4902663	21	C	02/29/2024	05:09	-127.544	48.303	0	324.10	0	5.9560	0	33.9850	0	26.760	0	321.120	0	61.6	4	20.4	4	-1E+10	1	-1E+10	1	-1E+10	1	-1E+10	1	-1E+10	1	-1E+10	1
4902663	21	C	02/29/2024	05:09	-127.544	48.303	0	324.90	0	5.9540	0	33.9850	0	26.760	0	321.912	0	61.4	4	20.3	4	-1E+10	1	-1E+10	1	-1E+10	1	-1E+10	1	-1E+10	1	-1E+10	1
4902663	21	C	02/29/2024	05:09	-127.544	48.303	0	325.70	0	5.9530	0	33.9850	0	26.760	0	322.704	0	61.2	4	20.2	4	-1E+10	1	-1E+10	1	-1E+10	1	-1E+10	1	-1E+10	1	-1E+10	1
4902663	21	C	02/29/2024	05:09	-127.544	48.303	0	327.00	0	5.9470	0	33.9860	0	26.762	0	323.991	0	60.9	4	20.1	4	-1E+10	1	-1E+10	1	-1E+10	1	-1E+10	1	-1E+10	1	-1E+10	1
4902663	21	C	02/29/2024	05:09	-127.544	48.303	0	328.30	0	5.9450	0	33.9860	0	26.762	0	325.278	0	60.6	4	20.0	4	-1E+10	1	-1E+10	1	-1E+10	1	-1E+10	1	-1E+10	1	-1E+10	1
4902663	21	C	02/29/2024	05:09	-127.544	48.303	0	329.20	0	5.9390	0	33.9860	0	26.763	0	326.169	0	60.4	4	20.0	4	-1E+10	1	-1E+10	1	-1E+10	1	-1E+10	1	-1E+10	1	-1E+10	1
4902663	21	C	02/29/2024	05:09	-127.544	48.303	0	330.10	0	5.9320	0	33.9880	0	26.765	0	327.060	0	60.3	4	19.9	4	-1E+10	1	-1E+10	1	-1E+10	1	-1E+10	1	-1E+10	1	-1E+10	1
4902663	21	C	02/29/2024	05:09	-127.544	48.303	0	331.00	0	5.9280	0	33.9890	0	26.766	0	327.951	0	60.1	4	19.8	4	-1E+10	1	-1E+10	1	-1E+10	1	-1E+10	1	-1E+10	1	-1E+10	1
4902663	21	C	02/29/2024	05:09	-127.544	48.303	0	331.80	0	5.9240	0	33.9900	0	26.768	0	328.743	0	59.9	4	19.8	4	-1E+10	1	-1E+10	1	-1E+10	1	-1E+10	1	-1E+10	1	-1E+10	1
4902663	21	C	02/29/2024	05:09	-127.544	48.303	0	332.70	0	5.9210	0	33.9900	0	26.768	0	329.634	0	59.7	4	19.7	4	-1E+10	1	-1E+10	1	-1E+10	1	-1E+10	1	-1E+10	1	-1E+10	1
4902663	21	C	02/29/2024	05:09	-127.544	48.303	0	333.60	0	5.9190	0	33.9900	0	26.768	0	330.525	0	59.5	4	19.6	4	-1E+10	1	-1E+10	1	-1E+10	1	-1E+10	1	-1E+10	1	-1E+10	1
4902663	21	C	02/29/2024	05:09	-127.544	48.303	0	334.90	0	5.9130	0	33.9900	0	26.769	0	331.812	0	59.3	4	19.5	4	-1E+10	1	-1E+10	1	-1E+10	1	-1E+10	1	-1E+10	1	-1E+10	1
4902663	21	C	02/29/2024	05:09	-127.544	48.303	0	336.20	0	5.9080	0	33.9910	0	26.771	0	333.099	0	59.0	4	19.4	4	-1E+10	1	-1E+10	1	-1E+10	1	-1E+10	1	-1E+10	1	-1E+10	1
4902663	21	C	02/29/2024	05:09	-127.544	48.303	0	337.10	0	5.9080	0	33.9900	0	26.770	0	333.990	0	58.7	4	19.4	4	-1E+10	1	-1E+10	1	-1E+10	1	-1E+10	1	-1E+10	1	-1E+10	1
4902663	21	C	02/29/2024	05:09	-127.544	48.303	0	337.90	0	5.8980	0	33.9880	0	26.769	0	334.781	0	58.5	4	19.3	4	-1E+10	1	-1E+10	1	-1E+10	1	-1E+10	1	-1E+10	1	-1E+10	1
4902663	21	C	02/29/2024	05:09	-127.544	48.303	0	338.80	0	5.8790	0	33.9930	0	26.776	0	335.672	0	58.4	4	19.2	4	-1E+10	1	-1E+10	1	-1E+10	1	-1E+10	1	-1E+10	1	-1E+10	1
4902663	21	C	02/29/2024	05:09	-127.544	48.303	0	339.70	0	5.8730	0	33.9930	0	26.777	0	336.563	0	58.2	4	19.2	4	-1E+10	1	-1E+10	1	-1E+10	1	-1E+10	1	-1E+10	1	-1E+10	1
4902663	21	C	02/29/2024	05:09	-127.544	48.303	0	340.60	0	5.8630	0	33.9930	0	26.778	0	337.454	0	58.0	4	19.1	4	-1E+10	1	-1E+10	1	-1E+10	1	-1E+10	1	-1E+10	1	-1E+10	1
4902663	21	C	02/29/2024	05:09	-127.544	48.303	0	341.90	0	5.8530	0	33.9950	0	26.781	0	338.741	0	57.8	4	19.0	4	-1E+10	1	-1E+10	1	-1E+10	1	-1E+10	1	-1E+10	1	-1E+10	1
4902663	21	C	02/29/2024	05:09	-127.544	48.303	0	343.30	0	5.8360	0	33.9950	0	26.783	0	340.127	0	57.6	4	19.0	4	-1E+10	1	-1E+10	1	-1E+10	1	-1E+10	1	-1E+10	1	-1E+10	1
4902663	21	C	02/29/2024	05:09	-127.544	48.303	0	344.20	0	5.8330	0	33.9950	0	26.783	0	341.018	0	57.4	4	18.9	4	-1E+10	1	-1E+10	1	-1E+10	1	-1E+10	1	-1E+10	1	-1E+10	1
4902663	21	C	02/29/2024	05:09	-127.544	48.303	0	345.20	0	5.8310	0	33.9960	0	26.784	0	342.008	0	57.2	4	18.8	4	-1E+10	1	-1E+10	1	-1E+10	1	-1E+10	1	-1E+10	1	-1E+10	1
4902663	21	C	02/29/2024	05:09	-127.544	48.303	0	346.10	0	5.8240	0	33.9970	0	26.786	0	342.899	0	57.0	4	18.8	4	-1E+10	1	-1E+10	1	-1E+10	1	-1E+10	1	-1E+10	1	-1E+10	1
4902663	21	C	02/29/2024	05:09	-127.544	48.303	0	347.00	0	5.8230	0	33.9960	0	26.785	0	343.790	0	56.8	4	18.7	4	-1E+10	1	-1E+10	1	-1E+10	1	-1E+10	1	-1E+10	1	-1E+10	1
4902663	21	C	02/29/2024	05:09	-127.544	48.303	0	348.00	0	5.8220	0	33.9960	0	26.785	0	344.780	0	56.6	4	18.6	4	-1E+10	1	-1E+10	1	-1E+10	1	-1E+10	1	-1E+10	1	-1E+10	1
4902663	21	C	02/29/2024	05:09	-127.544	48.303	0	348.90	0	5.8210	0	33.9970	0	26.786	0	345.671	0	56.4	4	18.6	4	-1E+10	1	-1E+10	1	-1E+10	1	-1E+10	1	-1E+10	1	-1E+10	1
4902663	21	C	02/29/2024	05:09	-127.544	48.303	0	349.90	0	5.8200	0	33.9970	0	26.786	0	346.661	0	56.1	4	18.5	4	-1E+10	1	-1E+10	1	-1E+10	1	-1E+10	1	-1E+10	1	-1E+10	1
4902663	21	C	02/29/2024	05:09	-127.544	48.303	0	352.60	0	5.8080	0	33.9980	0	26.789	0	349.333	0	55.2	4	18.2	4	-1E+10	1	-1E+10	1	-1E+10	1	-1E+10	1	-1E+10	1	-1E+10	1
4902663	21	C	02/29/2024	05:09	-127.544	48.303	0	357.90	0	5.7780	0	34.0030	0	26.796	0	354.580	0	53.4	4	17.6	4	-1E+10	1	-1E+10	1	-1E+10	1	-1E+10	1	-1E+10	1	-1E+10	1
4902663	21	C	02/29/2024	05:09	-127.544	48.303	0	363.20	0	5.7610	0	34.0050	0	26.800	0	359.826	0	51.6	4	17.0	4	-1E+10	1	-1E+10	1	-1E+10	1	-1E+10	1	-1E+10	1	-1E+10	1
4902663	21	C	02/29/2024	05:09	-127.544	48.303	0	368.00	0	5.7170	0	34.0120	0	26.811	0	364.577	0	49.6	4	16.3	4	-1E+10	1	-1E+10	1	-1E+10	1	-1E+10	1	-1E+10	1	-1E+10	1
4902663	21	C	02/29/2024	05:09	-127.544	48.303	0	373.00	0	5.6580	0	34.0190	0	26.824	0	369.526	0	48.3	4	15.9	4	-1E+10	1	-1E+10	1	-1E+10	1	-1E+10	1	-1E+10	1	-1E+10	1
4902663	21	C	02/29/2024	05:09	-127.544	48.303	0	378.00	0	5.6320	0	34.0220	0	26.829	0	374.475	0	47.7	4	15.6	4	-1E+10	1	-1E+10	1	-1E+10	1	-1E+10	1	-1E+10	1	-1E+10	1
4902663	21	C	02/29/2024	05:09	-127.544	48.303	0	383.10	0	5.6130	0	34.0230	0	26.832	0	379.523	0	47.1	4	15.4	4	-1E+10	1	-1E+10	1	-1E+10	1	-1E+10	1	-1E+10	1	-1E+10	1
4902663	21	C	02/29/2024	05:09	-127.544	48.303	0	388.10	0	5.5950	0	34.0250	0	26.836	0	384.472	0	46.2	4	15.1	4	-1E+10	1	-1E+10	1	-1E+10	1	-1E+10	1	-1E+10	1	-1E+10	1
4902663	21	C	02/29/2024	05:09	-127.544	48.303	0	393.20	0	5.5740	0	34.0270	0	26.840	0	389.519	0	45.4	4	14.9	4	-1E+10	1	-1E+10	1	-1E+10	1	-1E+10	1	-1E+10	1	-1E+10	1
4902663	21	C	02/29/2024	05:09	-127.544	48.303	0	398.20	0	5.5400	0	34.0320	0	26.849	0	394.468	0	44.4	4	14.5	4	-1E+10	1	-1E+10	1	-1E+10	1	-1E+10	1	-1E+10	1	-1E+10	1
4902663	21	C	02/29/2024	05:09	-127.544	48.303	0	403.20	0	5.5100	0	34.0340	0	26.854	0	399.416	0	44.1	4	14.4	4	-1E+10	1	-1E+10	1	-1E+10	1	-1E+10	1	-1E+10	1	-1E+10	1
4902663	21	C	02/29/2024	05:09	-127.544	48.303	0	408.00	0	5.4750	0	34.0350	0	26.859	0	404.166	0	44.2	4	14.4	4	-1E+10	1	-1E+10	1	-1E+10	1	-1E+10	1	-1E+10	1	-1E+10	1
4902663	21	C	02/29/2024	05:09	-127.544	48.303	0	412.90	0	5.3900	0	34.0320	0	26.866	0	409.015	0	45.1	4	14.7	4	-1E+10	1	-1E+10	1	-1E+10	1	-1E+10	1	-1E+10	1	-1E+10	1
4902663	21	C	02/29/2024	05:09	-127.544	48.303	0	417.80	0	5.2860	0	34.0220	0	26.871	0	413.864	0	45.3	4	14.7	4	-1E+10	1	-1E+10	1	-1E+10	1	-1E+10	1	-1E+10	1	-1E+10	1
4902663	21	C	02/29/2024	05:09	-127.544	48.303	0	422.60	0	5.2360	0	34.0220	0	26.877	0	418.614	0	44.7	4	14.5	4	-1E+10	1	-1E+10	1	-1E+10	1	-1E+10	1	-1E+10	1	-1E+10	1
4902663	21	C	02/29/2024	05:09	-127.544	48.303	0	427.90	0	5.2200	0	34.0230	0	26.879	0	423.859	0	43.9	4	14.3	4	-1E+10	1	-1E+10	1	-1E+10	1	-1E+10	1	-1E+10	1	-1E+10	1
4902663	21	C	02/29/2024	05:09	-127.544	48.303	0	433.30	0	5.1940	0	34.0260	0	26.885	0	429.202	0	42.6	4	13.8	4	-1E+10	1	-1E+10	1	-1E+10	1	-1E+10	1	-1E+10	1	-1E+10	1
4902663	21	C	02/29/2024	05:09	-127.544	48.303	0	438.10	0	5.1740	0	34.0310	0	26.891	0	433.952	0	41.3	4	13.4	4	-1E+10	1	-1E+10	1	-1E+10	1	-1E+10	1	-1E+10	1	-1E+10	1
4902663	21	C	02/29/2024	05:09	-127.544	48.303	0	443.00	0	5.1870	0	34.0390	0	26.896	0	438.800	0	40.5	4	13.1	4	-1E+10	1	-1E+10	1	-1E+10	1	-1E+10	1	-1E+10	1	-1E+10	1
4902663	21	C	02/29/2024	05:09	-127.544	48.303	0	447.90	0	5.1840	0	34.0430	0	26.900	0	443.649	0	40.6	4	13.2	4	-1E+10	1	-1E+10	1	-1E+10	1	-1E+10	1	-1E+10	1	-1E+10	1
4902663	21	C	02/29/2024	05:09	-127.544	48.303	0	452.80	0	5.1110	0	34.0360	0	26.903	0	448.497	0	40.9	4	13.2	4	-1E+10	1	-1E+10	1	-1E+10	1	-1E+10	1	-1E+10	1	-1E+10	1
4902663	21	C	02/29/2024	05:09	-127.544	48.303	0	457.60	0	5.0320	0	34.0320	0	26.908	0	453.246	0	40.0	4	12.9	4	-1E+10	1	-1E+10	1	-1E+10	1	-1E+10	1	-1E+10	1	-1E+10	1
4902663	21	C	02/29/2024	05:09	-127.544	48.303	0	462.80	0	5.0110	0	34.0380	0	26.916	0	458.391	0	38.8	4	12.5	4	-1E+10	1	-1E+10	1	-1E+10	1	-1E+10	1	-1E+10	1	-1E+10	1
4902663	21	C	02/29/2024	05:09	-127.544	48.303	0	468.00	0	4.9810	0	34.0400	0	26.921	0	463.535	0	37.8	4	12.2	4	-1E+10	1	-1E+10	1	-1E+10	1	-1E+10	1	-1E+10	1	-1E+10	1
4902663	21	C	02/29/2024	05:09	-127.544	48.303	0	472.80	0	4.9070	0	34.0420	0	26.931	0	468.284	0	37.1	4	12.0	4	-1E+10	1	-1E+10	1	-1E+10	1	-1E+10	1	-1E+10	1	-1E+10	1
4902663	21	C	02/29/2024	05:09	-127.544	48.303	0	477.50	0	4.8680	0	34.0440	0	26.937	0	472.934	0	36.5	4	11.7	4	-1E+10	1	-1E+10	1	-1E+10	1	-1E+10	1	-1E+10	1	-1E+10	1
4902663	21	C	02/29/2024	05:09	-127.544	48.303	0	482.80	0	4.8460	0	34.0440	0	26.939	0	478.177	0	35.4	4	11.4	4	-1E+10	1	-1E+10	1	-1E+10	1	-1E+10	1	-1E+10	1	-1E+10	1
4902663	21	C	02/29/2024	05:09	-127.544	48.303	0	488.10	0	4.8310	0	34.0520	0	26.947	0	483.420	0	33.8	4	10.9	4	-1E+10	1	-1E+10	1	-1E+10	1	-1E+10	1	-1E+10	1	-1E+10	1
4902663	21	C	02/29/2024	05:09	-127.544	48.303	0	493.00	0	4.7750	0	34.0570	0	26.957	0	488.268	0	32.5	4	10.5	4	-1E+10	1	-1E+10	1	-1E+10	1	-1E+10	1	-1E+10	1	-1E+10	1
4902663	21	C	02/29/2024	05:09	-127.544	48.303	0	497.90	0	4.7590	0	34.0610	0	26.962	0	493.115	0	31.3	4	10.1	4	-1E+10	1	-1E+10	1	-1E+10	1	-1E+10	1	-1E+10	1	-1E+10	1
4902663	21	C	02/29/2024	05:09	-127.544	48.303	0	502.90	0	4.7490	0	34.0680	0	26.969	0	498.061	0	30.0	4	9.6	4	-1E+10	1	-1E+10	1	-1E+10	1	-1E+10	1	-1E+10	1	-1E+10	1
4902663	21	C	02/29/2024	05:09	-127.544	48.303	0	507.90	0	4.7430	0	34.0740	0	26.975	0	503.007	0	28.5	4	9.2	4	-1E+10	1	-1E+10	1	-1E+10	1	-1E+10	1	-1E+10	1	-1E+10	1
4902663	21	C	02/29/2024	05:09	-127.544	48.303	0	513.00	0	4.7360	0	34.0840	0	26.983	0	508.051	0	27.3	4	8.8	4	-1E+10	1	-1E+10	1	-1E+10	1	-1E+10	1	-1E+10	1	-1E+10	1
4902663	21	C	02/29/2024	05:09	-127.544	48.303	0	518.20	0	4.7190	0	34.0890	0	26.989	0	513.195	0	26.5	4	8.5	4	-1E+10	1	-1E+10	1	-1E+10	1	-1E+10	1	-1E+10	1	-1E+10	1
4902663	21	C	02/29/2024	05:09	-127.544	48.303	0	522.90	0	4.7270	0	34.0940	0	26.992	0	517.843	0	25.7	4	8.2	4	-1E+10	1	-1E+10	1	-1E+10	1	-1E+10	1	-1E+10	1	-1E+10	1
4902663	21	C	02/29/2024	05:09	-127.544	48.303	0	527.70	0	4.7040	0	34.0960	0	26.997	0	522.591	0	25.1	4	8.0	4	-1E+10	1	-1E+10	1	-1E+10	1	-1E+10	1	-1E+10	1	-1E+10	1
4902663	21	C	02/29/2024	05:09	-127.544	48.303	0	532.90	0	4.6810	0	34.0990	0	27.001	0	527.734	0	23.9	4	7.7	4	-1E+10	1	-1E+10	1	-1E+10	1	-1E+10	1	-1E+10	1	-1E+10	1
4902663	21	C	02/29/2024	05:09	-127.544	48.303	0	538.20	0	4.6810	0	34.1090	0	27.009	0	532.976	0	23.0	4	7.4	4	-1E+10	1	-1E+10	1	-1E+10	1	-1E+10	1	-1E+10	1	-1E+10	1
4902663	21	C	02/29/2024	05:09	-127.544	48.303	0	543.00	0	4.6700	0	34.1100	0	27.011	0	537.723	0	22.4	4	7.2	4	-1E+10	1	-1E+10	1	-1E+10	1	-1E+10	1	-1E+10	1	-1E+10	1
4902663	21	C	02/29/2024	05:09	-127.544	48.303	0	547.80	0	4.6560	0	34.1150	0	27.017	0	542.470	0	21.6	4	6.9	4	-1E+10	1	-1E+10	1	-1E+10	1	-1E+10	1	-1E+10	1	-1E+10	1
4902663	21	C	02/29/2024	05:09	-127.544	48.303	0	553.20	0	4.6410	0	34.1210	0	27.023	0	547.810	0	20.8	4	6.7	4	-1E+10	1	-1E+10	1	-1E+10	1	-1E+10	1	-1E+10	1	-1E+10	1
4902663	21	C	02/29/2024	05:09	-127.544	48.303	0	558.10	0	4.6140	0	34.1220	0	27.027	0	552.656	0	20.0	4	6.4	4	-1E+10	1	-1E+10	1	-1E+10	1	-1E+10	1	-1E+10	1	-1E+10	1
4902663	21	C	02/29/2024	05:09	-127.544	48.303	0	562.90	0	4.6220	0	34.1330	0	27.035	0	557.403	0	18.9	4	6.1	4	-1E+10	1	-1E+10	1	-1E+10	1	-1E+10	1	-1E+10	1	-1E+10	1
4902663	21	C	02/29/2024	05:09	-127.544	48.303	0	567.80	0	4.6570	0	34.1390	0	27.036	0	562.248	0	18.6	4	6.0	4	-1E+10	1	-1E+10	1	-1E+10	1	-1E+10	1	-1E+10	1	-1E+10	1
4902663	21	C	02/29/2024	05:09	-127.544	48.303	0	572.80	0	4.6300	0	34.1410	0	27.041	0	567.193	0	18.4	4	5.9	4	-1E+10	1	-1E+10	1	-1E+10	1	-1E+10	1	-1E+10	1	-1E+10	1
4902663	21	C	02/29/2024	05:09	-127.544	48.303	0	578.20	0	4.5710	0	34.1390	0	27.046	0	572.533	0	17.8	4	5.7	4	-1E+10	1	-1E+10	1	-1E+10	1	-1E+10	1	-1E+10	1	-1E+10	1
4902663	21	C	02/29/2024	05:09	-127.544	48.303	0	583.10	0	4.5710	0	34.1470	0	27.052	0	577.378	0	17.2	4	5.5	4	-1E+10	1	-1E+10	1	-1E+10	1	-1E+10	1	-1E+10	1	-1E+10	1
4902663	21	C	02/29/2024	05:09	-127.544	48.303	0	587.70	0	4.5550	0	34.1500	0	27.056	0	581.926	0	16.8	4	5.4	4	-1E+10	1	-1E+10	1	-1E+10	1	-1E+10	1	-1E+10	1	-1E+10	1
4902663	21	C	02/29/2024	05:09	-127.544	48.303	0	592.70	0	4.5350	0	34.1550	0	27.062	0	586.870	0	16.7	4	5.3	4	-1E+10	1	-1E+10	1	-1E+10	1	-1E+10	1	-1E+10	1	-1E+10	1
4902663	21	C	02/29/2024	05:09	-127.544	48.303	0	597.80	0	4.4660	0	34.1520	0	27.067	0	591.913	0	16.7	4	5.3	4	-1E+10	1	-1E+10	1	-1E+10	1	-1E+10	1	-1E+10	1	-1E+10	1
4902663	21	C	02/29/2024	05:09	-127.544	48.303	0	602.80	0	4.4190	0	34.1550	0	27.075	0	596.856	0	16.0	4	5.1	4	-1E+10	1	-1E+10	1	-1E+10	1	-1E+10	1	-1E+10	1	-1E+10	1
4902663	21	C	02/29/2024	05:09	-127.544	48.303	0	607.90	0	4.4230	0	34.1610	0	27.079	0	601.898	0	15.1	4	4.8	4	-1E+10	1	-1E+10	1	-1E+10	1	-1E+10	1	-1E+10	1	-1E+10	1
4902663	21	C	02/29/2024	05:09	-127.544	48.303	0	613.10	0	4.4290	0	34.1700	0	27.086	0	607.040	0	14.6	4	4.6	4	-1E+10	1	-1E+10	1	-1E+10	1	-1E+10	1	-1E+10	1	-1E+10	1
4902663	21	C	02/29/2024	05:09	-127.544	48.303	0	618.20	0	4.3970	0	34.1730	0	27.092	0	612.082	0	14.3	4	4.6	4	-1E+10	1	-1E+10	1	-1E+10	1	-1E+10	1	-1E+10	1	-1E+10	1
4902663	21	C	02/29/2024	05:09	-127.544	48.303	0	623.00	0	4.3510	0	34.1750	0	27.098	0	616.827	0	14.0	4	4.5	4	-1E+10	1	-1E+10	1	-1E+10	1	-1E+10	1	-1E+10	1	-1E+10	1
4902663	21	C	02/29/2024	05:09	-127.544	48.303	0	627.90	0	4.3200	0	34.1770	0	27.103	0	621.671	0	13.6	4	4.3	4	-1E+10	1	-1E+10	1	-1E+10	1	-1E+10	1	-1E+10	1	-1E+10	1
4902663	21	C	02/29/2024	05:09	-127.544	48.303	0	632.80	0	4.3150	0	34.1800	0	27.106	0	626.515	0	13.1	4	4.2	4	-1E+10	1	-1E+10	1	-1E+10	1	-1E+10	1	-1E+10	1	-1E+10	1
4902663	21	C	02/29/2024	05:09	-127.544	48.303	0	637.80	0	4.3290	0	34.1880	0	27.111	0	631.458	0	12.6	4	4.0	4	-1E+10	1	-1E+10	1	-1E+10	1	-1E+10	1	-1E+10	1	-1E+10	1
4902663	21	C	02/29/2024	05:09	-127.544	48.303	0	642.90	0	4.3150	0	34.1920	0	27.116	0	636.499	0	12.2	4	3.9	4	-1E+10	1	-1E+10	1	-1E+10	1	-1E+10	1	-1E+10	1	-1E+10	1
4902663	21	C	02/29/2024	05:09	-127.544	48.303	0	647.60	0	4.3080	0	34.1960	0	27.120	0	641.145	0	11.9	4	3.8	4	-1E+10	1	-1E+10	1	-1E+10	1	-1E+10	1	-1E+10	1	-1E+10	1
4902663	21	C	02/29/2024	05:09	-127.544	48.303	0	652.90	0	4.3010	0	34.2000	0	27.124	0	646.384	0	11.6	4	3.7	4	-1E+10	1	-1E+10	1	-1E+10	1	-1E+10	1	-1E+10	1	-1E+10	1
4902663	21	C	02/29/2024	05:09	-127.544	48.303	0	658.10	0	4.2940	0	34.2040	0	27.128	0	651.524	0	11.2	4	3.6	4	-1E+10	1	-1E+10	1	-1E+10	1	-1E+10	1	-1E+10	1	-1E+10	1
4902663	21	C	02/29/2024	05:09	-127.544	48.303	0	662.90	0	4.2970	0	34.2090	0	27.131	0	656.269	0	10.9	4	3.5	4	-1E+10	1	-1E+10	1	-1E+10	1	-1E+10	1	-1E+10	1	-1E+10	1
4902663	21	C	02/29/2024	05:09	-127.544	48.303	0	667.70	0	4.3010	0	34.2130	0	27.134	0	661.013	0	10.7	4	3.4	4	-1E+10	1	-1E+10	1	-1E+10	1	-1E+10	1	-1E+10	1	-1E+10	1
4902663	21	C	02/29/2024	05:09	-127.544	48.303	0	672.60	0	4.2990	0	34.2140	0	27.135	0	665.856	0	10.5	4	3.3	4	-1E+10	1	-1E+10	1	-1E+10	1	-1E+10	1	-1E+10	1	-1E+10	1
4902663	21	C	02/29/2024	05:09	-127.544	48.303	0	677.90	0	4.3000	0	34.2190	0	27.139	0	671.095	0	10.1	4	3.2	4	-1E+10	1	-1E+10	1	-1E+10	1	-1E+10	1	-1E+10	1	-1E+10	1
4902663	21	C	02/29/2024	05:09	-127.544	48.303	0	683.20	0	4.2950	0	34.2240	0	27.144	0	676.333	0	9.9	4	3.2	4	-1E+10	1	-1E+10	1	-1E+10	1	-1E+10	1	-1E+10	1	-1E+10	1
4902663	21	C	02/29/2024	05:09	-127.544	48.303	0	688.10	0	4.2690	0	34.2260	0	27.148	0	681.176	0	9.6	4	3.1	4	-1E+10	1	-1E+10	1	-1E+10	1	-1E+10	1	-1E+10	1	-1E+10	1
4902663	21	C	02/29/2024	05:09	-127.544	48.303	0	692.90	0	4.2540	0	34.2320	0	27.154	0	685.919	0	9.3	4	3.0	4	-1E+10	1	-1E+10	1	-1E+10	1	-1E+10	1	-1E+10	1	-1E+10	1
4902663	21	C	02/29/2024	05:09	-127.544	48.303	0	697.90	0	4.2350	0	34.2370	0	27.160	0	690.861	0	9.2	4	2.9	4	-1E+10	1	-1E+10	1	-1E+10	1	-1E+10	1	-1E+10	1	-1E+10	1
4902663	21	C	02/29/2024	05:09	-127.544	48.303	0	702.90	0	4.2270	0	34.2410	0	27.164	0	695.802	0	9.0	4	2.9	4	-1E+10	1	-1E+10	1	-1E+10	1	-1E+10	1	-1E+10	1	-1E+10	1
4902663	21	C	02/29/2024	05:09	-127.544	48.303	0	707.90	0	4.2210	0	34.2440	0	27.167	0	700.743	0	8.9	4	2.8	4	-1E+10	1	-1E+10	1	-1E+10	1	-1E+10	1	-1E+10	1	-1E+10	1
4902663	21	C	02/29/2024	05:09	-127.544	48.303	0	713.00	0	4.2200	0	34.2450	0	27.168	0	705.783	0	8.9	4	2.8	4	-1E+10	1	-1E+10	1	-1E+10	1	-1E+10	1	-1E+10	1	-1E+10	1
4902663	21	C	02/29/2024	05:09	-127.544	48.303	0	718.00	0	4.2170	0	34.2460	0	27.169	0	710.724	0	8.7	4	2.8	4	-1E+10	1	-1E+10	1	-1E+10	1	-1E+10	1	-1E+10	1	-1E+10	1
4902663	21	C	02/29/2024	05:09	-127.544	48.303	0	723.10	0	4.2080	0	34.2500	0	27.174	0	715.763	0	8.6	4	2.7	4	-1E+10	1	-1E+10	1	-1E+10	1	-1E+10	1	-1E+10	1	-1E+10	1
4902663	21	C	02/29/2024	05:09	-127.544	48.303	0	728.10	0	4.2030	0	34.2530	0	27.177	0	720.704	0	8.5	4	2.7	4	-1E+10	1	-1E+10	1	-1E+10	1	-1E+10	1	-1E+10	1	-1E+10	1
4902663	21	C	02/29/2024	05:09	-127.544	48.303	0	733.10	0	4.2010	0	34.2540	0	27.178	0	725.644	0	8.3	4	2.6	4	-1E+10	1	-1E+10	1	-1E+10	1	-1E+10	1	-1E+10	1	-1E+10	1
4902663	21	C	02/29/2024	05:09	-127.544	48.303	0	738.10	0	4.1810	0	34.2590	0	27.184	0	730.585	0	8.2	4	2.6	4	-1E+10	1	-1E+10	1	-1E+10	1	-1E+10	1	-1E+10	1	-1E+10	1
4902663	21	C	02/29/2024	05:09	-127.544	48.303	0	743.10	0	4.1650	0	34.2620	0	27.188	0	735.525	0	8.0	4	2.6	4	-1E+10	1	-1E+10	1	-1E+10	1	-1E+10	1	-1E+10	1	-1E+10	1
4902663	21	C	02/29/2024	05:09	-127.544	48.303	0	748.10	0	4.1590	0	34.2660	0	27.192	0	740.465	0	7.9	4	2.5	4	-1E+10	1	-1E+10	1	-1E+10	1	-1E+10	1	-1E+10	1	-1E+10	1
4902663	21	C	02/29/2024	05:09	-127.544	48.303	0	753.00	0	4.1640	0	34.2680	0	27.193	0	745.307	0	7.8	4	2.5	4	-1E+10	1	-1E+10	1	-1E+10	1	-1E+10	1	-1E+10	1	-1E+10	1
4902663	21	C	02/29/2024	05:09	-127.544	48.303	0	757.90	0	4.1570	0	34.2700	0	27.195	0	750.148	0	7.7	4	2.4	4	-1E+10	1	-1E+10	1	-1E+10	1	-1E+10	1	-1E+10	1	-1E+10	1
4902663	21	C	02/29/2024	05:09	-127.544	48.303	0	762.90	0	4.1460	0	34.2750	0	27.200	0	755.088	0	7.5	4	2.4	4	-1E+10	1	-1E+10	1	-1E+10	1	-1E+10	1	-1E+10	1	-1E+10	1
4902663	21	C	02/29/2024	05:09	-127.544	48.303	0	767.90	0	4.1280	0	34.2810	0	27.207	0	760.027	0	7.4	4	2.4	4	-1E+10	1	-1E+10	1	-1E+10	1	-1E+10	1	-1E+10	1	-1E+10	1
4902663	21	C	02/29/2024	05:09	-127.544	48.303	0	772.90	0	4.1200	0	34.2830	0	27.209	0	764.967	0	7.4	4	2.3	4	-1E+10	1	-1E+10	1	-1E+10	1	-1E+10	1	-1E+10	1	-1E+10	1
4902663	21	C	02/29/2024	05:09	-127.544	48.303	0	778.00	0	4.1060	0	34.2860	0	27.213	0	770.005	0	7.3	4	2.3	4	-1E+10	1	-1E+10	1	-1E+10	1	-1E+10	1	-1E+10	1	-1E+10	1
4902663	21	C	02/29/2024	05:09	-127.544	48.303	0	783.20	0	4.0990	0	34.2880	0	27.216	0	775.142	0	7.2	4	2.3	4	-1E+10	1	-1E+10	1	-1E+10	1	-1E+10	1	-1E+10	1	-1E+10	1
4902663	21	C	02/29/2024	05:09	-127.544	48.303	0	787.80	0	4.0960	0	34.2900	0	27.218	0	779.686	0	7.2	4	2.3	4	-1E+10	1	-1E+10	1	-1E+10	1	-1E+10	1	-1E+10	1	-1E+10	1
4902663	21	C	02/29/2024	05:09	-127.544	48.303	0	792.50	0	4.0830	0	34.2960	0	27.224	0	784.329	0	7.0	4	2.2	4	-1E+10	1	-1E+10	1	-1E+10	1	-1E+10	1	-1E+10	1	-1E+10	1
4902663	21	C	02/29/2024	05:09	-127.544	48.303	0	798.10	0	4.0620	0	34.3040	0	27.232	0	789.860	0	7.0	4	2.2	4	-1E+10	1	-1E+10	1	-1E+10	1	-1E+10	1	-1E+10	1	-1E+10	1
4902663	21	C	02/29/2024	05:09	-127.544	48.303	0	803.00	0	4.0360	0	34.3070	0	27.237	0	794.701	0	6.9	4	2.2	4	-1E+10	1	-1E+10	1	-1E+10	1	-1E+10	1	-1E+10	1	-1E+10	1
4902663	21	C	02/29/2024	05:09	-127.544	48.303	0	807.80	0	4.0150	0	34.3110	0	27.243	0	799.442	0	6.9	4	2.2	4	-1E+10	1	-1E+10	1	-1E+10	1	-1E+10	1	-1E+10	1	-1E+10	1
4902663	21	C	02/29/2024	05:09	-127.544	48.303	0	812.60	0	4.0090	0	34.3120	0	27.244	0	804.183	0	7.0	4	2.2	4	-1E+10	1	-1E+10	1	-1E+10	1	-1E+10	1	-1E+10	1	-1E+10	1
4902663	21	C	02/29/2024	05:09	-127.544	48.303	0	817.90	0	4.0040	0	34.3150	0	27.247	0	809.418	0	7.1	4	2.2	4	-1E+10	1	-1E+10	1	-1E+10	1	-1E+10	1	-1E+10	1	-1E+10	1
4902663	21	C	02/29/2024	05:09	-127.544	48.303	0	822.90	0	3.9530	0	34.3110	0	27.249	0	814.356	0	7.3	4	2.3	4	-1E+10	1	-1E+10	1	-1E+10	1	-1E+10	1	-1E+10	1	-1E+10	1
4902663	21	C	02/29/2024	05:09	-127.544	48.303	0	827.60	0	3.9250	0	34.3090	0	27.250	0	818.998	0	7.3	4	2.3	4	-1E+10	1	-1E+10	1	-1E+10	1	-1E+10	1	-1E+10	1	-1E+10	1
4902663	21	C	02/29/2024	05:09	-127.544	48.303	0	832.80	0	3.9210	0	34.3130	0	27.254	0	824.134	0	7.4	4	2.3	4	-1E+10	1	-1E+10	1	-1E+10	1	-1E+10	1	-1E+10	1	-1E+10	1
4902663	21	C	02/29/2024	05:09	-127.544	48.303	0	838.10	0	3.8820	0	34.3100	0	27.256	0	829.368	0	7.4	4	2.3	4	-1E+10	1	-1E+10	1	-1E+10	1	-1E+10	1	-1E+10	1	-1E+10	1
4902663	21	C	02/29/2024	05:09	-127.544	48.303	0	843.10	0	3.8700	0	34.3120	0	27.258	0	834.306	0	7.3	4	2.3	4	-1E+10	1	-1E+10	1	-1E+10	1	-1E+10	1	-1E+10	1	-1E+10	1
4902663	21	C	02/29/2024	05:09	-127.544	48.303	0	847.80	0	3.8860	0	34.3180	0	27.262	0	838.948	0	7.2	4	2.3	4	-1E+10	1	-1E+10	1	-1E+10	1	-1E+10	1	-1E+10	1	-1E+10	1
4902663	21	C	02/29/2024	05:09	-127.544	48.303	0	852.50	0	3.8950	0	34.3220	0	27.264	0	843.589	0	7.3	4	2.3	4	-1E+10	1	-1E+10	1	-1E+10	1	-1E+10	1	-1E+10	1	-1E+10	1
4902663	21	C	02/29/2024	05:09	-127.544	48.303	0	857.90	0	3.8370	0	34.3200	0	27.268	0	848.922	0	7.4	4	2.3	4	-1E+10	1	-1E+10	1	-1E+10	1	-1E+10	1	-1E+10	1	-1E+10	1
4902663	21	C	02/29/2024	05:09	-127.544	48.303	0	863.40	0	3.8080	0	34.3220	0	27.273	0	854.353	0	7.4	4	2.3	4	-1E+10	1	-1E+10	1	-1E+10	1	-1E+10	1	-1E+10	1	-1E+10	1
4902663	21	C	02/29/2024	05:09	-127.544	48.303	0	868.40	0	3.8010	0	34.3250	0	27.276	0	859.290	0	7.4	4	2.3	4	-1E+10	1	-1E+10	1	-1E+10	1	-1E+10	1	-1E+10	1	-1E+10	1
4902663	21	C	02/29/2024	05:09	-127.544	48.303	0	873.00	0	3.7700	0	34.3260	0	27.280	0	863.833	0	7.3	4	2.3	4	-1E+10	1	-1E+10	1	-1E+10	1	-1E+10	1	-1E+10	1	-1E+10	1
4902663	21	C	02/29/2024	05:09	-127.544	48.303	0	877.60	0	3.7840	0	34.3310	0	27.282	0	868.375	0	7.3	4	2.3	4	-1E+10	1	-1E+10	1	-1E+10	1	-1E+10	1	-1E+10	1	-1E+10	1
4902663	21	C	02/29/2024	05:09	-127.544	48.303	0	882.80	0	3.7810	0	34.3340	0	27.285	0	873.509	0	7.3	4	2.3	4	-1E+10	1	-1E+10	1	-1E+10	1	-1E+10	1	-1E+10	1	-1E+10	1
4902663	21	C	02/29/2024	05:09	-127.544	48.303	0	888.00	0	3.7640	0	34.3340	0	27.287	0	878.644	0	7.5	4	2.3	4	-1E+10	1	-1E+10	1	-1E+10	1	-1E+10	1	-1E+10	1	-1E+10	1
4902663	21	C	02/29/2024	05:09	-127.544	48.303	0	892.80	0	3.7380	0	34.3320	0	27.288	0	883.383	0	7.6	4	2.4	4	-1E+10	1	-1E+10	1	-1E+10	1	-1E+10	1	-1E+10	1	-1E+10	1
4902663	21	C	02/29/2024	05:09	-127.544	48.303	0	897.60	0	3.7090	0	34.3300	0	27.289	0	888.122	0	7.6	4	2.4	4	-1E+10	1	-1E+10	1	-1E+10	1	-1E+10	1	-1E+10	1	-1E+10	1
4902663	21	C	02/29/2024	05:09	-127.544	48.303	0	902.80	0	3.6940	0	34.3310	0	27.292	0	893.256	0	7.6	4	2.4	4	-1E+10	1	-1E+10	1	-1E+10	1	-1E+10	1	-1E+10	1	-1E+10	1
4902663	21	C	02/29/2024	05:09	-127.544	48.303	0	908.10	0	3.6860	0	34.3330	0	27.294	0	898.489	0	7.7	4	2.4	4	-1E+10	1	-1E+10	1	-1E+10	1	-1E+10	1	-1E+10	1	-1E+10	1
4902663	21	C	02/29/2024	05:09	-127.544	48.303	0	912.90	0	3.6600	0	34.3320	0	27.296	0	903.227	0	7.7	4	2.4	4	-1E+10	1	-1E+10	1	-1E+10	1	-1E+10	1	-1E+10	1	-1E+10	1
4902663	21	C	02/29/2024	05:09	-127.544	48.303	0	917.60	0	3.6460	0	34.3340	0	27.299	0	907.867	0	7.7	4	2.4	4	-1E+10	1	-1E+10	1	-1E+10	1	-1E+10	1	-1E+10	1	-1E+10	1
4902663	21	C	02/29/2024	05:09	-127.544	48.303	0	922.90	0	3.6380	0	34.3360	0	27.301	0	913.100	0	7.6	4	2.4	4	-1E+10	1	-1E+10	1	-1E+10	1	-1E+10	1	-1E+10	1	-1E+10	1
4902663	21	C	02/29/2024	05:09	-127.544	48.303	0	928.20	0	3.6390	0	34.3390	0	27.303	0	918.332	0	7.6	4	2.4	4	-1E+10	1	-1E+10	1	-1E+10	1	-1E+10	1	-1E+10	1	-1E+10	1
4902663	21	C	02/29/2024	05:09	-127.544	48.303	0	932.90	0	3.6420	0	34.3430	0	27.306	0	922.971	0	7.6	4	2.4	4	-1E+10	1	-1E+10	1	-1E+10	1	-1E+10	1	-1E+10	1	-1E+10	1
4902663	21	C	02/29/2024	05:09	-127.544	48.303	0	937.70	0	3.6340	0	34.3430	0	27.307	0	927.710	0	7.6	4	2.4	4	-1E+10	1	-1E+10	1	-1E+10	1	-1E+10	1	-1E+10	1	-1E+10	1
4902663	21	C	02/29/2024	05:09	-127.544	48.303	0	943.00	0	3.6180	0	34.3440	0	27.310	0	932.941	0	7.6	4	2.4	4	-1E+10	1	-1E+10	1	-1E+10	1	-1E+10	1	-1E+10	1	-1E+10	1
4902663	21	C	02/29/2024	05:09	-127.544	48.303	0	948.30	0	3.6150	0	34.3470	0	27.312	0	938.173	0	7.6	4	2.4	4	-1E+10	1	-1E+10	1	-1E+10	1	-1E+10	1	-1E+10	1	-1E+10	1
4902663	21	C	02/29/2024	05:09	-127.544	48.303	0	953.00	0	3.6130	0	34.3480	0	27.313	0	942.812	0	7.6	4	2.4	4	-1E+10	1	-1E+10	1	-1E+10	1	-1E+10	1	-1E+10	1	-1E+10	1
4902663	21	C	02/29/2024	05:09	-127.544	48.303	0	957.70	0	3.5950	0	34.3500	0	27.317	0	947.451	0	7.7	4	2.4	4	-1E+10	1	-1E+10	1	-1E+10	1	-1E+10	1	-1E+10	1	-1E+10	1
4902663	21	C	02/29/2024	05:09	-127.544	48.303	0	962.90	0	3.5800	0	34.3530	0	27.321	0	952.584	0	7.7	4	2.4	4	-1E+10	1	-1E+10	1	-1E+10	1	-1E+10	1	-1E+10	1	-1E+10	1
4902663	21	C	02/29/2024	05:09	-127.544	48.303	0	968.10	0	3.5720	0	34.3550	0	27.323	0	957.716	0	7.7	4	2.4	4	-1E+10	1	-1E+10	1	-1E+10	1	-1E+10	1	-1E+10	1	-1E+10	1
4902663	21	C	02/29/2024	05:09	-127.544	48.303	0	973.20	0	3.5880	0	34.3600	0	27.325	0	962.750	0	7.6	4	2.4	4	-1E+10	1	-1E+10	1	-1E+10	1	-1E+10	1	-1E+10	1	-1E+10	1
4902663	21	C	02/29/2024	05:09	-127.544	48.303	0	977.80	0	3.5970	0	34.3630	0	27.327	0	967.290	0	7.7	4	2.4	4	-1E+10	1	-1E+10	1	-1E+10	1	-1E+10	1	-1E+10	1	-1E+10	1
4902663	21	C	02/29/2024	05:09	-127.544	48.303	0	982.60	0	3.5930	0	34.3650	0	27.329	0	972.027	0	7.7	4	2.4	4	-1E+10	1	-1E+10	1	-1E+10	1	-1E+10	1	-1E+10	1	-1E+10	1
4902663	21	C	02/29/2024	05:09	-127.544	48.303	0	987.70	0	3.5690	0	34.3630	0	27.330	0	977.060	0	7.8	4	2.4	4	-1E+10	1	-1E+10	1	-1E+10	1	-1E+10	1	-1E+10	1	-1E+10	1
4902663	21	C	02/29/2024	05:09	-127.544	48.303	0	992.80	0	3.5610	0	34.3650	0	27.332	0	982.094	0	7.8	4	2.5	4	-1E+10	1	-1E+10	1	-1E+10	1	-1E+10	1	-1E+10	1	-1E+10	1
4902663	21	C	02/29/2024	05:09	-127.544	48.303	0	997.90	0	3.5550	0	34.3690	0	27.336	0	987.127	0	7.9	4	2.5	4	-1E+10	1	-1E+10	1	-1E+10	1	-1E+10	1	-1E+10	1	-1E+10	1
4902663	21	C	02/29/2024	05:09	-127.544	48.303	0	1005.40	0	3.5140	0	34.3690	0	27.340	0	994.528	0	8.0	4	2.5	4	-1E+10	1	-1E+10	1	-1E+10	1	-1E+10	1	-1E+10	1	-1E+10	1
4902663	21	C	02/29/2024	05:09	-127.544	48.303	0	1015.60	0	3.4860	0	34.3750	0	27.348	0	1004.593	0	8.2	4	2.6	4	-1E+10	1	-1E+10	1	-1E+10	1	-1E+10	1	-1E+10	1	-1E+10	1
4902663	21	C	02/29/2024	05:09	-127.544	48.303	0	1025.70	0	3.4490	0	34.3790	0	27.354	0	1014.559	0	8.3	4	2.6	4	-1E+10	1	-1E+10	1	-1E+10	1	-1E+10	1	-1E+10	1	-1E+10	1
4902663	21	C	02/29/2024	05:09	-127.544	48.303	0	1035.30	0	3.4190	0	34.3830	0	27.360	0	1024.032	0	8.4	4	2.6	4	-1E+10	1	-1E+10	1	-1E+10	1	-1E+10	1	-1E+10	1	-1E+10	1
4902663	21	C	02/29/2024	05:09	-127.544	48.303	0	1045.00	0	3.4020	0	34.3860	0	27.365	0	1033.602	0	8.5	4	2.7	4	-1E+10	1	-1E+10	1	-1E+10	1	-1E+10	1	-1E+10	1	-1E+10	1
4902663	21	C	02/29/2024	05:09	-127.544	48.303	0	1055.00	0	3.3890	0	34.3920	0	27.371	0	1043.468	0	8.6	4	2.7	4	-1E+10	1	-1E+10	1	-1E+10	1	-1E+10	1	-1E+10	1	-1E+10	1
4902663	21	C	02/29/2024	05:09	-127.544	48.303	0	1065.20	0	3.3690	0	34.3960	0	27.376	0	1053.531	0	8.8	4	2.7	4	-1E+10	1	-1E+10	1	-1E+10	1	-1E+10	1	-1E+10	1	-1E+10	1
4902663	21	C	02/29/2024	05:09	-127.544	48.303	0	1075.30	0	3.3480	0	34.3990	0	27.380	0	1063.495	0	8.9	4	2.8	4	-1E+10	1	-1E+10	1	-1E+10	1	-1E+10	1	-1E+10	1	-1E+10	1
4902663	21	C	02/29/2024	05:09	-127.544	48.303	0	1085.60	0	3.3330	0	34.4010	0	27.383	0	1073.655	0	9.0	4	2.8	4	-1E+10	1	-1E+10	1	-1E+10	1	-1E+10	1	-1E+10	1	-1E+10	1
4902663	21	C	02/29/2024	05:09	-127.544	48.303	0	1095.40	0	3.3120	0	34.4040	0	27.388	0	1083.322	0	9.2	4	2.9	4	-1E+10	1	-1E+10	1	-1E+10	1	-1E+10	1	-1E+10	1	-1E+10	1
4902663	21	C	02/29/2024	05:09	-127.544	48.303	0	1105.20	0	3.3020	0	34.4090	0	27.393	0	1092.989	0	9.4	4	2.9	4	-1E+10	1	-1E+10	1	-1E+10	1	-1E+10	1	-1E+10	1	-1E+10	1
4902663	21	C	02/29/2024	05:09	-127.544	48.303	0	1115.20	0	3.2880	0	34.4120	0	27.396	0	1102.852	0	9.6	4	3.0	4	-1E+10	1	-1E+10	1	-1E+10	1	-1E+10	1	-1E+10	1	-1E+10	1
4902663	21	C	02/29/2024	05:09	-127.544	48.303	0	1125.10	0	3.2570	0	34.4150	0	27.402	0	1112.616	0	9.9	4	3.1	4	-1E+10	1	-1E+10	1	-1E+10	1	-1E+10	1	-1E+10	1	-1E+10	1
4902663	21	C	02/29/2024	05:09	-127.544	48.303	0	1135.00	0	3.2250	0	34.4210	0	27.410	0	1122.380	0	10.2	4	3.2	4	-1E+10	1	-1E+10	1	-1E+10	1	-1E+10	1	-1E+10	1	-1E+10	1
4902663	21	C	02/29/2024	05:09	-127.544	48.303	0	1145.20	0	3.2070	0	34.4250	0	27.415	0	1132.439	0	10.5	4	3.2	4	-1E+10	1	-1E+10	1	-1E+10	1	-1E+10	1	-1E+10	1	-1E+10	1
4902663	21	C	02/29/2024	05:09	-127.544	48.303	0	1155.30	0	3.1850	0	34.4280	0	27.419	0	1142.399	0	10.7	4	3.3	4	-1E+10	1	-1E+10	1	-1E+10	1	-1E+10	1	-1E+10	1	-1E+10	1
4902663	21	C	02/29/2024	05:09	-127.544	48.303	0	1165.50	0	3.1580	0	34.4300	0	27.423	0	1152.457	0	10.9	4	3.4	4	-1E+10	1	-1E+10	1	-1E+10	1	-1E+10	1	-1E+10	1	-1E+10	1
4902663	21	C	02/29/2024	05:09	-127.544	48.303	0	1175.70	0	3.1310	0	34.4330	0	27.428	0	1162.515	0	11.2	4	3.5	4	-1E+10	1	-1E+10	1	-1E+10	1	-1E+10	1	-1E+10	1	-1E+10	1
4902663	21	C	02/29/2024	05:09	-127.544	48.303	0	1185.60	0	3.1020	0	34.4360	0	27.433	0	1172.276	0	11.5	4	3.6	4	-1E+10	1	-1E+10	1	-1E+10	1	-1E+10	1	-1E+10	1	-1E+10	1
4902663	21	C	02/29/2024	05:09	-127.544	48.303	0	1195.30	0	3.0740	0	34.4390	0	27.438	0	1181.840	0	11.7	4	3.6	4	-1E+10	1	-1E+10	1	-1E+10	1	-1E+10	1	-1E+10	1	-1E+10	1
4902663	21	C	02/29/2024	05:09	-127.544	48.303	0	1205.20	0	3.0640	0	34.4400	0	27.440	0	1191.600	0	11.8	4	3.7	4	-1E+10	1	-1E+10	1	-1E+10	1	-1E+10	1	-1E+10	1	-1E+10	1
4902663	21	C	02/29/2024	05:09	-127.544	48.303	0	1215.30	0	3.0570	0	34.4410	0	27.441	0	1201.558	0	12.0	4	3.7	4	-1E+10	1	-1E+10	1	-1E+10	1	-1E+10	1	-1E+10	1	-1E+10	1
4902663	21	C	02/29/2024	05:09	-127.544	48.303	0	1225.40	0	3.0400	0	34.4440	0	27.445	0	1211.514	0	12.4	4	3.8	4	-1E+10	1	-1E+10	1	-1E+10	1	-1E+10	1	-1E+10	1	-1E+10	1
4902663	21	C	02/29/2024	05:09	-127.544	48.303	0	1235.70	0	3.0350	0	34.4500	0	27.451	0	1221.668	0	12.7	4	3.9	4	-1E+10	1	-1E+10	1	-1E+10	1	-1E+10	1	-1E+10	1	-1E+10	1
4902663	21	C	02/29/2024	05:09	-127.544	48.303	0	1245.60	0	3.0230	0	34.4550	0	27.456	0	1231.426	0	13.0	4	4.0	4	-1E+10	1	-1E+10	1	-1E+10	1	-1E+10	1	-1E+10	1	-1E+10	1
4902663	21	C	02/29/2024	05:09	-127.544	48.303	0	1255.40	0	2.9990	0	34.4580	0	27.461	0	1241.086	0	13.4	4	4.1	4	-1E+10	1	-1E+10	1	-1E+10	1	-1E+10	1	-1E+10	1	-1E+10	1
4902663	21	C	02/29/2024	05:09	-127.544	48.303	0	1265.20	0	2.9750	0	34.4610	0	27.465	0	1250.745	0	13.7	4	4.2	4	-1E+10	1	-1E+10	1	-1E+10	1	-1E+10	1	-1E+10	1	-1E+10	1
4902663	21	C	02/29/2024	05:09	-127.544	48.303	0	1275.40	0	2.9590	0	34.4640	0	27.469	0	1260.798	0	14.1	4	4.3	4	-1E+10	1	-1E+10	1	-1E+10	1	-1E+10	1	-1E+10	1	-1E+10	1
4902663	21	C	02/29/2024	05:09	-127.544	48.303	0	1285.70	0	2.9340	0	34.4660	0	27.473	0	1270.949	0	14.4	4	4.4	4	-1E+10	1	-1E+10	1	-1E+10	1	-1E+10	1	-1E+10	1	-1E+10	1
4902663	21	C	02/29/2024	05:09	-127.544	48.303	0	1295.50	0	2.9140	0	34.4680	0	27.476	0	1280.607	0	14.7	4	4.5	4	-1E+10	1	-1E+10	1	-1E+10	1	-1E+10	1	-1E+10	1	-1E+10	1
4902663	21	C	02/29/2024	05:09	-127.544	48.303	0	1305.50	0	2.8970	0	34.4700	0	27.480	0	1290.461	0	15.0	4	4.6	4	-1E+10	1	-1E+10	1	-1E+10	1	-1E+10	1	-1E+10	1	-1E+10	1
4902663	21	C	02/29/2024	05:09	-127.544	48.303	0	1315.70	0	2.8800	0	34.4720	0	27.483	0	1300.512	0	15.3	4	4.7	4	-1E+10	1	-1E+10	1	-1E+10	1	-1E+10	1	-1E+10	1	-1E+10	1
4902663	21	C	02/29/2024	05:09	-127.544	48.303	0	1325.60	0	2.8690	0	34.4740	0	27.485	0	1310.267	0	15.6	4	4.8	4	-1E+10	1	-1E+10	1	-1E+10	1	-1E+10	1	-1E+10	1	-1E+10	1
4902663	21	C	02/29/2024	05:09	-127.544	48.303	0	1335.40	0	2.8480	0	34.4740	0	27.487	0	1319.923	0	16.0	4	4.9	4	-1E+10	1	-1E+10	1	-1E+10	1	-1E+10	1	-1E+10	1	-1E+10	1
4902663	21	C	02/29/2024	05:09	-127.544	48.303	0	1345.50	0	2.8250	0	34.4780	0	27.492	0	1329.874	0	16.5	4	5.1	4	-1E+10	1	-1E+10	1	-1E+10	1	-1E+10	1	-1E+10	1	-1E+10	1
4902663	21	C	02/29/2024	05:09	-127.544	48.303	0	1355.80	0	2.8040	0	34.4810	0	27.497	0	1340.022	0	17.0	4	5.2	4	-1E+10	1	-1E+10	1	-1E+10	1	-1E+10	1	-1E+10	1	-1E+10	1
4902663	21	C	02/29/2024	05:09	-127.544	48.303	0	1365.40	0	2.7760	0	34.4830	0	27.501	0	1349.479	0	17.4	4	5.3	4	-1E+10	1	-1E+10	1	-1E+10	1	-1E+10	1	-1E+10	1	-1E+10	1
4902663	21	C	02/29/2024	05:09	-127.544	48.303	0	1375.30	0	2.7650	0	34.4860	0	27.504	0	1359.232	0	17.8	4	5.5	4	-1E+10	1	-1E+10	1	-1E+10	1	-1E+10	1	-1E+10	1	-1E+10	1
4902663	21	C	02/29/2024	05:09	-127.544	48.303	0	1385.30	0	2.7390	0	34.4890	0	27.509	0	1369.083	0	18.2	4	5.6	4	-1E+10	1	-1E+10	1	-1E+10	1	-1E+10	1	-1E+10	1	-1E+10	1
4902663	21	C	02/29/2024	05:09	-127.544	48.303	0	1395.10	0	2.7210	0	34.4910	0	27.512	0	1378.736	0	18.6	4	5.7	4	-1E+10	1	-1E+10	1	-1E+10	1	-1E+10	1	-1E+10	1	-1E+10	1
4902663	21	C	02/29/2024	05:09	-127.544	48.303	0	1405.30	0	2.7060	0	34.4930	0	27.515	0	1388.783	0	19.1	4	5.9	4	-1E+10	1	-1E+10	1	-1E+10	1	-1E+10	1	-1E+10	1	-1E+10	1
4902663	21	C	02/29/2024	05:09	-127.544	48.303	0	1415.60	0	2.6850	0	34.4960	0	27.519	0	1398.928	0	19.6	4	6.0	4	-1E+10	1	-1E+10	1	-1E+10	1	-1E+10	1	-1E+10	1	-1E+10	1
4902663	21	C	02/29/2024	05:09	-127.544	48.303	0	1425.40	0	2.6790	0	34.4970	0	27.521	0	1408.580	0	19.8	4	6.1	4	-1E+10	1	-1E+10	1	-1E+10	1	-1E+10	1	-1E+10	1	-1E+10	1
4902663	21	C	02/29/2024	05:09	-127.544	48.303	0	1435.20	0	2.6720	0	34.4970	0	27.521	0	1418.231	0	20.2	4	6.2	4	-1E+10	1	-1E+10	1	-1E+10	1	-1E+10	1	-1E+10	1	-1E+10	1
4902663	21	C	02/29/2024	05:09	-127.544	48.303	0	1445.20	0	2.6560	0	34.5000	0	27.525	0	1428.079	0	20.6	4	6.3	4	-1E+10	1	-1E+10	1	-1E+10	1	-1E+10	1	-1E+10	1	-1E+10	1
4902663	21	C	02/29/2024	05:09	-127.544	48.303	0	1455.40	0	2.6430	0	34.5010	0	27.527	0	1438.124	0	21.1	4	6.4	4	-1E+10	1	-1E+10	1	-1E+10	1	-1E+10	1	-1E+10	1	-1E+10	1
4902663	21	C	02/29/2024	05:09	-127.544	48.303	0	1465.40	0	2.6270	0	34.5030	0	27.530	0	1447.971	0	21.6	4	6.6	4	-1E+10	1	-1E+10	1	-1E+10	1	-1E+10	1	-1E+10	1	-1E+10	1
4902663	21	C	02/29/2024	05:09	-127.544	48.303	0	1475.10	0	2.6130	0	34.5050	0	27.533	0	1457.522	0	22.1	4	6.8	4	-1E+10	1	-1E+10	1	-1E+10	1	-1E+10	1	-1E+10	1	-1E+10	1
4902663	21	C	02/29/2024	05:09	-127.544	48.303	0	1485.50	0	2.5970	0	34.5080	0	27.537	0	1467.762	0	22.8	4	7.0	4	-1E+10	1	-1E+10	1	-1E+10	1	-1E+10	1	-1E+10	1	-1E+10	1
4902663	21	C	02/29/2024	05:09	-127.544	48.303	0	1495.70	0	2.5830	0	34.5100	0	27.540	0	1477.804	0	23.3	4	7.1	4	-1E+10	1	-1E+10	1	-1E+10	1	-1E+10	1	-1E+10	1	-1E+10	1
4902663	21	C	02/29/2024	05:09	-127.544	48.303	0	1505.80	0	2.5680	0	34.5120	0	27.543	0	1487.748	0	23.8	4	7.3	4	-1E+10	1	-1E+10	1	-1E+10	1	-1E+10	1	-1E+10	1	-1E+10	1
4902663	21	C	02/29/2024	05:09	-127.544	48.303	0	1515.50	0	2.5490	0	34.5130	0	27.545	0	1497.297	0	24.2	4	7.4	4	-1E+10	1	-1E+10	1	-1E+10	1	-1E+10	1	-1E+10	1	-1E+10	1
4902663	21	C	02/29/2024	05:09	-127.544	48.303	0	1525.40	0	2.5390	0	34.5140	0	27.547	0	1507.043	0	24.5	4	7.5	4	-1E+10	1	-1E+10	1	-1E+10	1	-1E+10	1	-1E+10	1	-1E+10	1
4902663	21	C	02/29/2024	05:09	-127.544	48.303	0	1535.80	0	2.5240	0	34.5160	0	27.550	0	1517.281	0	24.9	4	7.6	4	-1E+10	1	-1E+10	1	-1E+10	1	-1E+10	1	-1E+10	1	-1E+10	1
4902663	21	C	02/29/2024	05:09	-127.544	48.303	0	1545.30	0	2.4950	0	34.5160	0	27.552	0	1526.632	0	25.4	4	7.7	4	-1E+10	1	-1E+10	1	-1E+10	1	-1E+10	1	-1E+10	1	-1E+10	1
4902663	21	C	02/29/2024	05:09	-127.544	48.303	0	1555.10	0	2.4690	0	34.5170	0	27.555	0	1536.278	0	25.7	4	7.8	4	-1E+10	1	-1E+10	1	-1E+10	1	-1E+10	1	-1E+10	1	-1E+10	1
4902663	21	C	02/29/2024	05:09	-127.544	48.303	0	1565.10	0	2.4450	0	34.5180	0	27.558	0	1546.120	0	26.0	4	7.9	4	-1E+10	1	-1E+10	1	-1E+10	1	-1E+10	1	-1E+10	1	-1E+10	1
4902663	21	C	02/29/2024	05:09	-127.544	48.303	0	1575.40	0	2.4360	0	34.5180	0	27.559	0	1556.258	0	26.4	4	8.0	4	-1E+10	1	-1E+10	1	-1E+10	1	-1E+10	1	-1E+10	1	-1E+10	1
4902663	21	C	02/29/2024	05:09	-127.544	48.303	0	1585.40	0	2.4130	0	34.5200	0	27.562	0	1566.099	0	26.9	4	8.2	4	-1E+10	1	-1E+10	1	-1E+10	1	-1E+10	1	-1E+10	1	-1E+10	1
4902663	21	C	02/29/2024	05:09	-127.544	48.303	0	1595.10	0	2.4010	0	34.5210	0	27.564	0	1575.645	0	27.4	4	8.4	4	-1E+10	1	-1E+10	1	-1E+10	1	-1E+10	1	-1E+10	1	-1E+10	1
4902663	21	C	02/29/2024	05:09	-127.544	48.303	0	1605.40	0	2.3880	0	34.5230	0	27.567	0	1585.781	0	27.9	4	8.5	4	-1E+10	1	-1E+10	1	-1E+10	1	-1E+10	1	-1E+10	1	-1E+10	1
4902663	21	C	02/29/2024	05:09	-127.544	48.303	0	1615.80	0	2.3810	0	34.5240	0	27.568	0	1596.014	0	28.4	4	8.6	4	-1E+10	1	-1E+10	1	-1E+10	1	-1E+10	1	-1E+10	1	-1E+10	1
4902663	21	C	02/29/2024	05:09	-127.544	48.303	0	1625.80	0	2.3630	0	34.5260	0	27.572	0	1605.854	0	28.9	4	8.8	4	-1E+10	1	-1E+10	1	-1E+10	1	-1E+10	1	-1E+10	1	-1E+10	1
4902663	21	C	02/29/2024	05:09	-127.544	48.303	0	1635.40	0	2.3480	0	34.5270	0	27.574	0	1615.300	0	29.4	4	8.9	4	-1E+10	1	-1E+10	1	-1E+10	1	-1E+10	1	-1E+10	1	-1E+10	1
4902663	21	C	02/29/2024	05:09	-127.544	48.303	0	1645.40	0	2.3350	0	34.5290	0	27.576	0	1625.139	0	29.9	4	9.1	4	-1E+10	1	-1E+10	1	-1E+10	1	-1E+10	1	-1E+10	1	-1E+10	1
4902663	21	C	02/29/2024	05:09	-127.544	48.303	0	1655.80	0	2.3210	0	34.5300	0	27.578	0	1635.370	0	30.5	4	9.3	4	-1E+10	1	-1E+10	1	-1E+10	1	-1E+10	1	-1E+10	1	-1E+10	1
4902663	21	C	02/29/2024	05:09	-127.544	48.303	0	1665.50	0	2.3100	0	34.5320	0	27.581	0	1644.913	0	31.1	4	9.4	4	-1E+10	1	-1E+10	1	-1E+10	1	-1E+10	1	-1E+10	1	-1E+10	1
4902663	21	C	02/29/2024	05:09	-127.544	48.303	0	1675.50	0	2.2980	0	34.5340	0	27.584	0	1654.750	0	31.6	4	9.6	4	-1E+10	1	-1E+10	1	-1E+10	1	-1E+10	1	-1E+10	1	-1E+10	1
4902663	21	C	02/29/2024	05:09	-127.544	48.303	0	1685.60	0	2.2840	0	34.5360	0	27.586	0	1664.686	0	32.4	4	9.8	4	-1E+10	1	-1E+10	1	-1E+10	1	-1E+10	1	-1E+10	1	-1E+10	1
4902663	21	C	02/29/2024	05:09	-127.544	48.303	0	1695.30	0	2.2700	0	34.5380	0	27.589	0	1674.227	0	33.0	4	10.0	4	-1E+10	1	-1E+10	1	-1E+10	1	-1E+10	1	-1E+10	1	-1E+10	1
4902663	21	C	02/29/2024	05:09	-127.544	48.303	0	1705.40	0	2.2590	0	34.5400	0	27.592	0	1684.161	0	33.7	4	10.2	4	-1E+10	1	-1E+10	1	-1E+10	1	-1E+10	1	-1E+10	1	-1E+10	1
4902663	21	C	02/29/2024	05:09	-127.544	48.303	0	1715.60	0	2.2490	0	34.5410	0	27.593	0	1694.194	0	34.1	4	10.3	4	-1E+10	1	-1E+10	1	-1E+10	1	-1E+10	1	-1E+10	1	-1E+10	1
4902663	21	C	02/29/2024	05:09	-127.544	48.303	0	1725.40	0	2.2400	0	34.5430	0	27.596	0	1703.832	0	34.7	4	10.5	4	-1E+10	1	-1E+10	1	-1E+10	1	-1E+10	1	-1E+10	1	-1E+10	1
4902663	21	C	02/29/2024	05:09	-127.544	48.303	0	1735.10	0	2.2260	0	34.5450	0	27.599	0	1713.372	0	35.4	4	10.7	4	-1E+10	1	-1E+10	1	-1E+10	1	-1E+10	1	-1E+10	1	-1E+10	1
4902663	21	C	02/29/2024	05:09	-127.544	48.303	0	1745.30	0	2.2120	0	34.5470	0	27.601	0	1723.403	0	36.1	4	10.9	4	-1E+10	1	-1E+10	1	-1E+10	1	-1E+10	1	-1E+10	1	-1E+10	1
4902663	21	C	02/29/2024	05:09	-127.544	48.303	0	1755.50	0	2.2000	0	34.5490	0	27.604	0	1733.433	0	36.9	4	11.2	4	-1E+10	1	-1E+10	1	-1E+10	1	-1E+10	1	-1E+10	1	-1E+10	1
4902663	21	C	02/29/2024	05:09	-127.544	48.303	0	1765.20	0	2.1860	0	34.5510	0	27.607	0	1742.971	0	37.6	4	11.4	4	-1E+10	1	-1E+10	1	-1E+10	1	-1E+10	1	-1E+10	1	-1E+10	1
4902663	21	C	02/29/2024	05:09	-127.544	48.303	0	1775.30	0	2.1760	0	34.5530	0	27.609	0	1752.902	0	38.2	4	11.6	4	-1E+10	1	-1E+10	1	-1E+10	1	-1E+10	1	-1E+10	1	-1E+10	1
4902663	21	C	02/29/2024	05:09	-127.544	48.303	0	1785.30	0	2.1650	0	34.5550	0	27.612	0	1762.735	0	38.7	4	11.7	4	-1E+10	1	-1E+10	1	-1E+10	1	-1E+10	1	-1E+10	1	-1E+10	1
4902663	21	C	02/29/2024	05:09	-127.544	48.303	0	1795.20	0	2.1570	0	34.5560	0	27.613	0	1772.468	0	39.2	4	11.9	4	-1E+10	1	-1E+10	1	-1E+10	1	-1E+10	1	-1E+10	1	-1E+10	1
4902663	21	C	02/29/2024	05:09	-127.544	48.303	0	1805.20	0	2.1470	0	34.5570	0	27.615	0	1782.300	0	40.0	4	12.1	4	-1E+10	1	-1E+10	1	-1E+10	1	-1E+10	1	-1E+10	1	-1E+10	1
4902663	21	C	02/29/2024	05:09	-127.544	48.303	0	1815.30	0	2.1340	0	34.5600	0	27.618	0	1792.229	0	40.7	4	12.3	4	-1E+10	1	-1E+10	1	-1E+10	1	-1E+10	1	-1E+10	1	-1E+10	1
4902663	21	C	02/29/2024	05:09	-127.544	48.303	0	1825.60	0	2.1240	0	34.5610	0	27.620	0	1802.354	0	41.4	4	12.5	4	-1E+10	1	-1E+10	1	-1E+10	1	-1E+10	1	-1E+10	1	-1E+10	1
4902663	21	C	02/29/2024	05:09	-127.544	48.303	0	1835.40	0	2.1160	0	34.5630	0	27.622	0	1811.988	0	42.1	4	12.7	4	-1E+10	1	-1E+10	1	-1E+10	1	-1E+10	1	-1E+10	1	-1E+10	1
4902663	21	C	02/29/2024	05:09	-127.544	48.303	0	1845.20	0	2.1000	0	34.5650	0	27.625	0	1821.621	0	43.0	4	13.0	4	-1E+10	1	-1E+10	1	-1E+10	1	-1E+10	1	-1E+10	1	-1E+10	1
4902663	21	C	02/29/2024	05:09	-127.544	48.303	0	1855.10	0	2.0890	0	34.5670	0	27.628	0	1831.352	0	43.7	4	13.2	4	-1E+10	1	-1E+10	1	-1E+10	1	-1E+10	1	-1E+10	1	-1E+10	1
4902663	21	C	02/29/2024	05:09	-127.544	48.303	0	1865.00	0	2.0780	0	34.5700	0	27.631	0	1841.082	0	44.7	4	13.5	4	-1E+10	1	-1E+10	1	-1E+10	1	-1E+10	1	-1E+10	1	-1E+10	1
4902663	21	C	02/29/2024	05:09	-127.544	48.303	0	1875.40	0	2.0670	0	34.5720	0	27.634	0	1851.304	0	45.3	4	13.7	4	-1E+10	1	-1E+10	1	-1E+10	1	-1E+10	1	-1E+10	1	-1E+10	1
4902663	21	C	02/29/2024	05:09	-127.544	48.303	0	1885.80	0	2.0580	0	34.5730	0	27.635	0	1861.525	0	45.9	4	13.9	4	-1E+10	1	-1E+10	1	-1E+10	1	-1E+10	1	-1E+10	1	-1E+10	1
4902663	21	C	02/29/2024	05:09	-127.544	48.303	0	1895.40	0	2.0440	0	34.5750	0	27.638	0	1870.959	0	46.9	4	14.1	4	-1E+10	1	-1E+10	1	-1E+10	1	-1E+10	1	-1E+10	1	-1E+10	1
4902663	21	C	02/29/2024	05:09	-127.544	48.303	0	1905.40	0	2.0330	0	34.5770	0	27.640	0	1880.786	0	47.5	4	14.3	4	-1E+10	1	-1E+10	1	-1E+10	1	-1E+10	1	-1E+10	1	-1E+10	1
4902663	21	C	02/29/2024	05:09	-127.544	48.303	0	1915.60	0	2.0260	0	34.5790	0	27.643	0	1890.809	0	48.3	4	14.6	4	-1E+10	1	-1E+10	1	-1E+10	1	-1E+10	1	-1E+10	1	-1E+10	1
4902663	21	C	02/29/2024	05:09	-127.544	48.303	0	1925.40	0	2.0130	0	34.5810	0	27.645	0	1900.438	0	49.2	4	14.8	4	-1E+10	1	-1E+10	1	-1E+10	1	-1E+10	1	-1E+10	1	-1E+10	1
4902663	21	C	02/29/2024	05:09	-127.544	48.303	0	1935.10	0	1.9980	0	34.5840	0	27.649	0	1909.969	0	50.1	4	15.1	4	-1E+10	1	-1E+10	1	-1E+10	1	-1E+10	1	-1E+10	1	-1E+10	1
4902663	21	C	02/29/2024	05:09	-127.544	48.303	0	1945.00	0	1.9880	0	34.5850	0	27.650	0	1919.696	0	50.8	4	15.3	4	-1E+10	1	-1E+10	1	-1E+10	1	-1E+10	1	-1E+10	1	-1E+10	1
4902663	21	C	02/29/2024	05:09	-127.544	48.303	0	1955.00	0	1.9780	0	34.5870	0	27.653	0	1929.520	0	51.5	4	15.5	4	-1E+10	1	-1E+10	1	-1E+10	1	-1E+10	1	-1E+10	1	-1E+10	1
4902663	21	C	02/29/2024	05:09	-127.544	48.303	0	1965.00	0	1.9660	0	34.5890	0	27.655	0	1939.344	0	52.3	4	15.8	4	-1E+10	1	-1E+10	1	-1E+10	1	-1E+10	1	-1E+10	1	-1E+10	1
4902663	21	C	02/29/2024	05:09	-127.544	48.303	0	1975.40	0	1.9550	0	34.5910	0	27.658	0	1949.561	0	53.1	4	16.0	4	-1E+10	1	-1E+10	1	-1E+10	1	-1E+10	1	-1E+10	1	-1E+10	1
4902663	21	C	02/29/2024	05:09	-127.544	48.303	0	1985.60	0	1.9440	0	34.5930	0	27.660	0	1959.581	0	54.0	4	16.3	4	-1E+10	1	-1E+10	1	-1E+10	1	-1E+10	1	-1E+10	1	-1E+10	1
4902663	21	C	02/29/2024	05:09	-127.544	48.303	0	1995.40	0	1.9290	0	34.5950	0	27.663	0	1969.207	0	54.7	4	16.5	4	-1E+10	1	-1E+10	1	-1E+10	1	-1E+10	1	-1E+10	1	-1E+10	1
4902663	21	C	02/29/2024	05:09	-127.544	48.303	0	2005.40	0	1.9230	0	34.5970	0	27.665	0	1979.029	0	55.2	4	16.6	4	-1E+10	1	-1E+10	1	-1E+10	1	-1E+10	1	-1E+10	1	-1E+10	1
4902663	21	C	02/29/2024	05:09	-127.544	48.303	0	2015.70	0	1.9150	0	34.5980	0	27.667	0	1989.146	0	55.5	4	16.7	4	-1E+10	1	-1E+10	1	-1E+10	1	-1E+10	1	-1E+10	1	-1E+10	1
4902663	21	C	02/29/2024	05:09	-127.544	48.303	0	2023.90	0	1.9090	0	34.5990	0	27.668	0	1997.200	0	55.3	4	16.6	4	-1E+10	1	-1E+10	1	-1E+10	1	-1E+10	1	-1E+10	1	-1E+10	1
4902663	21	C	02/29/2024	05:09	-127.544	48.303	0																										
4902663	22	C	03/10/2024	00:13	-127.642	48.549	0	0.40	0	9.5170	0	32.1610	0	24.815	0	0.397	0	-1e10	1	-1e10	1	-1E+10	1	-1E+10	1	-1E+10	1	-1E+10	1	-1E+10	1	-1E+10	1
4902663	22	C	03/10/2024	00:13	-127.642	48.549	0	0.50	0	9.5169	0	32.1613	0	24.815	0	0.496	0	269.9	4	95.3	4	-1E+10	1	-1E+10	1	-1E+10	1	-1E+10	1	-1E+10	1	-1E+10	1
4902663	22	C	03/10/2024	00:13	-127.642	48.549	0	0.70	0	9.5166	0	32.1619	0	24.816	0	0.694	0	269.9	4	95.3	4	-1E+10	1	-1E+10	1	-1E+10	1	-1E+10	1	-1E+10	1	-1E+10	1
4902663	22	C	03/10/2024	00:13	-127.642	48.549	0	1.10	0	9.5160	0	32.1630	0	24.817	0	1.091	0	269.9	4	95.3	4	-1E+10	1	-1E+10	1	-1E+10	1	-1E+10	1	-1E+10	1	-1E+10	1
4902663	22	C	03/10/2024	00:13	-127.642	48.549	0	2.20	0	9.5180	0	32.1620	0	24.815	0	2.181	0	269.8	4	95.3	4	-1E+10	1	-1E+10	1	-1E+10	1	-1E+10	1	-1E+10	1	-1E+10	1
4902663	22	C	03/10/2024	00:13	-127.642	48.549	0	3.00	0	9.5180	0	32.1630	0	24.816	0	2.975	0	269.7	4	95.2	4	-1E+10	1	-1E+10	1	-1E+10	1	-1E+10	1	-1E+10	1	-1E+10	1
4902663	22	C	03/10/2024	00:13	-127.642	48.549	0	4.00	0	9.5180	0	32.1640	0	24.817	0	3.966	0	269.5	4	95.2	4	-1E+10	1	-1E+10	1	-1E+10	1	-1E+10	1	-1E+10	1	-1E+10	1
4902663	22	C	03/10/2024	00:13	-127.642	48.549	0	5.00	0	9.5180	0	32.1640	0	24.817	0	4.958	0	269.5	4	95.2	4	-1E+10	1	-1E+10	1	-1E+10	1	-1E+10	1	-1E+10	1	-1E+10	1
4902663	22	C	03/10/2024	00:13	-127.642	48.549	0	6.00	0	9.5180	0	32.1640	0	24.817	0	5.949	0	269.5	4	95.2	4	-1E+10	1	-1E+10	1	-1E+10	1	-1E+10	1	-1E+10	1	-1E+10	1
4902663	22	C	03/10/2024	00:13	-127.642	48.549	0	7.10	0	9.5180	0	32.1640	0	24.817	0	7.040	0	269.4	4	95.1	4	-1E+10	1	-1E+10	1	-1E+10	1	-1E+10	1	-1E+10	1	-1E+10	1
4902663	22	C	03/10/2024	00:13	-127.642	48.549	0	8.00	0	9.5180	0	32.1650	0	24.818	0	7.932	0	269.4	4	95.1	4	-1E+10	1	-1E+10	1	-1E+10	1	-1E+10	1	-1E+10	1	-1E+10	1
4902663	22	C	03/10/2024	00:13	-127.642	48.549	0	8.90	0	9.5180	0	32.1650	0	24.818	0	8.825	0	269.3	4	95.1	4	-1E+10	1	-1E+10	1	-1E+10	1	-1E+10	1	-1E+10	1	-1E+10	1
4902663	22	C	03/10/2024	00:13	-127.642	48.549	0	9.80	0	9.5200	0	32.1630	0	24.816	0	9.717	0	269.3	4	95.1	4	-1E+10	1	-1E+10	1	-1E+10	1	-1E+10	1	-1E+10	1	-1E+10	1
4902663	22	C	03/10/2024	00:13	-127.642	48.549	0	10.80	0	9.5190	0	32.1640	0	24.817	0	10.709	0	268.9	4	94.9	4	-1E+10	1	-1E+10	1	-1E+10	1	-1E+10	1	-1E+10	1	-1E+10	1
4902663	22	C	03/10/2024	00:13	-127.642	48.549	0	11.90	0	9.5200	0	32.1640	0	24.817	0	11.799	0	269.2	4	95.1	4	-1E+10	1	-1E+10	1	-1E+10	1	-1E+10	1	-1E+10	1	-1E+10	1
4902663	22	C	03/10/2024	00:13	-127.642	48.549	0	12.70	0	9.5200	0	32.1640	0	24.817	0	12.592	0	269.1	4	95.0	4	-1E+10	1	-1E+10	1	-1E+10	1	-1E+10	1	-1E+10	1	-1E+10	1
4902663	22	C	03/10/2024	00:13	-127.642	48.549	0	13.80	0	9.5200	0	32.1640	0	24.817	0	13.683	0	269.0	4	95.0	4	-1E+10	1	-1E+10	1	-1E+10	1	-1E+10	1	-1E+10	1	-1E+10	1
4902663	22	C	03/10/2024	00:13	-127.642	48.549	0	15.00	0	9.5220	0	32.1630	0	24.816	0	14.873	0	269.0	4	95.0	4	-1E+10	1	-1E+10	1	-1E+10	1	-1E+10	1	-1E+10	1	-1E+10	1
4902663	22	C	03/10/2024	00:13	-127.642	48.549	0	15.80	0	9.5200	0	32.1640	0	24.817	0	15.666	0	268.9	4	94.9	4	-1E+10	1	-1E+10	1	-1E+10	1	-1E+10	1	-1E+10	1	-1E+10	1
4902663	22	C	03/10/2024	00:13	-127.642	48.549	0	17.00	0	9.5200	0	32.1630	0	24.816	0	16.856	0	268.8	4	94.9	4	-1E+10	1	-1E+10	1	-1E+10	1	-1E+10	1	-1E+10	1	-1E+10	1
4902663	22	C	03/10/2024	00:13	-127.642	48.549	0	18.10	0	9.5190	0	32.1630	0	24.816	0	17.946	0	268.7	4	94.9	4	-1E+10	1	-1E+10	1	-1E+10	1	-1E+10	1	-1E+10	1	-1E+10	1
4902663	22	C	03/10/2024	00:13	-127.642	48.549	0	18.90	0	9.5190	0	32.1640	0	24.817	0	18.740	0	268.7	4	94.9	4	-1E+10	1	-1E+10	1	-1E+10	1	-1E+10	1	-1E+10	1	-1E+10	1
4902663	22	C	03/10/2024	00:13	-127.642	48.549	0	19.70	0	9.5200	0	32.1640	0	24.817	0	19.533	0	268.6	4	94.9	4	-1E+10	1	-1E+10	1	-1E+10	1	-1E+10	1	-1E+10	1	-1E+10	1
4902663	22	C	03/10/2024	00:13	-127.642	48.549	0	20.80	0	9.5190	0	32.1640	0	24.817	0	20.623	0	268.5	4	94.8	4	-1E+10	1	-1E+10	1	-1E+10	1	-1E+10	1	-1E+10	1	-1E+10	1
4902663	22	C	03/10/2024	00:13	-127.642	48.549	0	22.00	0	9.5200	0	32.1630	0	24.816	0	21.813	0	268.4	4	94.8	4	-1E+10	1	-1E+10	1	-1E+10	1	-1E+10	1	-1E+10	1	-1E+10	1
4902663	22	C	03/10/2024	00:13	-127.642	48.549	0	22.90	0	9.5200	0	32.1660	0	24.819	0	22.705	0	268.3	4	94.7	4	-1E+10	1	-1E+10	1	-1E+10	1	-1E+10	1	-1E+10	1	-1E+10	1
4902663	22	C	03/10/2024	00:13	-127.642	48.549	0	23.70	0	9.5190	0	32.1650	0	24.818	0	23.499	0	268.2	4	94.7	4	-1E+10	1	-1E+10	1	-1E+10	1	-1E+10	1	-1E+10	1	-1E+10	1
4902663	22	C	03/10/2024	00:13	-127.642	48.549	0	24.60	0	9.5200	0	32.1640	0	24.817	0	24.391	0	268.0	4	94.6	4	-1E+10	1	-1E+10	1	-1E+10	1	-1E+10	1	-1E+10	1	-1E+10	1
4902663	22	C	03/10/2024	00:13	-127.642	48.549	0	25.90	0	9.5190	0	32.1650	0	24.818	0	25.680	0	267.9	4	94.6	4	-1E+10	1	-1E+10	1	-1E+10	1	-1E+10	1	-1E+10	1	-1E+10	1
4902663	22	C	03/10/2024	00:13	-127.642	48.549	0	27.20	0	9.5190	0	32.1650	0	24.818	0	26.969	0	267.7	4	94.5	4	-1E+10	1	-1E+10	1	-1E+10	1	-1E+10	1	-1E+10	1	-1E+10	1
4902663	22	C	03/10/2024	00:13	-127.642	48.549	0	28.10	0	9.5190	0	32.1670	0	24.820	0	27.861	0	267.5	4	94.5	4	-1E+10	1	-1E+10	1	-1E+10	1	-1E+10	1	-1E+10	1	-1E+10	1
4902663	22	C	03/10/2024	00:13	-127.642	48.549	0	28.90	0	9.5190	0	32.1670	0	24.820	0	28.654	0	267.4	4	94.4	4	-1E+10	1	-1E+10	1	-1E+10	1	-1E+10	1	-1E+10	1	-1E+10	1
4902663	22	C	03/10/2024	00:13	-127.642	48.549	0	29.80	0	9.5190	0	32.1670	0	24.820	0	29.546	0	267.3	4	94.4	4	-1E+10	1	-1E+10	1	-1E+10	1	-1E+10	1	-1E+10	1	-1E+10	1
4902663	22	C	03/10/2024	00:13	-127.642	48.549	0	30.60	0	9.5160	0	32.1700	0	24.822	0	30.339	0	267.0	4	94.3	4	-1E+10	1	-1E+10	1	-1E+10	1	-1E+10	1	-1E+10	1	-1E+10	1
4902663	22	C	03/10/2024	00:13	-127.642	48.549	0	31.90	0	9.5160	0	32.1720	0	24.824	0	31.628	0	266.7	4	94.2	4	-1E+10	1	-1E+10	1	-1E+10	1	-1E+10	1	-1E+10	1	-1E+10	1
4902663	22	C	03/10/2024	00:13	-127.642	48.549	0	33.20	0	9.5160	0	32.1750	0	24.826	0	32.917	0	266.3	4	94.0	4	-1E+10	1	-1E+10	1	-1E+10	1	-1E+10	1	-1E+10	1	-1E+10	1
4902663	22	C	03/10/2024	00:13	-127.642	48.549	0	34.00	0	9.5160	0	32.1760	0	24.827	0	33.710	0	265.9	4	93.9	4	-1E+10	1	-1E+10	1	-1E+10	1	-1E+10	1	-1E+10	1	-1E+10	1
4902663	22	C	03/10/2024	00:13	-127.642	48.549	0	34.90	0	9.5120	0	32.1850	0	24.835	0	34.602	0	265.6	4	93.8	4	-1E+10	1	-1E+10	1	-1E+10	1	-1E+10	1	-1E+10	1	-1E+10	1
4902663	22	C	03/10/2024	00:13	-127.642	48.549	0	35.70	0	9.5110	0	32.1870	0	24.837	0	35.396	0	265.4	4	93.7	4	-1E+10	1	-1E+10	1	-1E+10	1	-1E+10	1	-1E+10	1	-1E+10	1
4902663	22	C	03/10/2024	00:13	-127.642	48.549	0	37.00	0	9.5100	0	32.1930	0	24.842	0	36.684	0	265.0	4	93.6	4	-1E+10	1	-1E+10	1	-1E+10	1	-1E+10	1	-1E+10	1	-1E+10	1
4902663	22	C	03/10/2024	00:13	-127.642	48.549	0	38.30	0	9.5120	0	32.1990	0	24.846	0	37.973	0	264.6	4	93.4	4	-1E+10	1	-1E+10	1	-1E+10	1	-1E+10	1	-1E+10	1	-1E+10	1
4902663	22	C	03/10/2024	00:13	-127.642	48.549	0	39.20	0	9.5280	0	32.2060	0	24.849	0	38.865	0	264.4	4	93.4	4	-1E+10	1	-1E+10	1	-1E+10	1	-1E+10	1	-1E+10	1	-1E+10	1
4902663	22	C	03/10/2024	00:13	-127.642	48.549	0	40.10	0	9.5470	0	32.2140	0	24.852	0	39.758	0	264.3	4	93.4	4	-1E+10	1	-1E+10	1	-1E+10	1	-1E+10	1	-1E+10	1	-1E+10	1
4902663	22	C	03/10/2024	00:13	-127.642	48.549	0	41.00	0	9.5360	0	32.2210	0	24.859	0	40.650	0	264.2	4	93.4	4	-1E+10	1	-1E+10	1	-1E+10	1	-1E+10	1	-1E+10	1	-1E+10	1
4902663	22	C	03/10/2024	00:13	-127.642	48.549	0	41.90	0	9.5370	0	32.2180	0	24.857	0	41.542	0	264.2	4	93.4	4	-1E+10	1	-1E+10	1	-1E+10	1	-1E+10	1	-1E+10	1	-1E+10	1
4902663	22	C	03/10/2024	00:13	-127.642	48.549	0	42.70	0	9.5270	0	32.2190	0	24.859	0	42.335	0	264.2	4	93.3	4	-1E+10	1	-1E+10	1	-1E+10	1	-1E+10	1	-1E+10	1	-1E+10	1
4902663	22	C	03/10/2024	00:13	-127.642	48.549	0	43.90	0	9.5100	0	32.2200	0	24.863	0	43.525	0	264.2	4	93.3	4	-1E+10	1	-1E+10	1	-1E+10	1	-1E+10	1	-1E+10	1	-1E+10	1
4902663	22	C	03/10/2024	00:13	-127.642	48.549	0	45.20	0	9.4580	0	32.2280	0	24.877	0	44.814	0	264.2	4	93.2	4	-1E+10	1	-1E+10	1	-1E+10	1	-1E+10	1	-1E+10	1	-1E+10	1
4902663	22	C	03/10/2024	00:13	-127.642	48.549	0	46.10	0	9.4310	0	32.2330	0	24.886	0	45.706	0	264.2	4	93.2	4	-1E+10	1	-1E+10	1	-1E+10	1	-1E+10	1	-1E+10	1	-1E+10	1
4902663	22	C	03/10/2024	00:13	-127.642	48.549	0	47.00	0	9.3320	0	32.2440	0	24.910	0	46.598	0	264.0	4	92.9	4	-1E+10	1	-1E+10	1	-1E+10	1	-1E+10	1	-1E+10	1	-1E+10	1
4902663	22	C	03/10/2024	00:13	-127.642	48.549	0	47.80	0	9.3150	0	32.2470	0	24.915	0	47.391	0	263.9	4	92.8	4	-1E+10	1	-1E+10	1	-1E+10	1	-1E+10	1	-1E+10	1	-1E+10	1
4902663	22	C	03/10/2024	00:13	-127.642	48.549	0	48.70	0	9.3090	0	32.2520	0	24.920	0	48.283	0	263.6	4	92.7	4	-1E+10	1	-1E+10	1	-1E+10	1	-1E+10	1	-1E+10	1	-1E+10	1
4902663	22	C	03/10/2024	00:13	-127.642	48.549	0	49.70	0	9.3070	0	32.2510	0	24.919	0	49.275	0	263.4	4	92.6	4	-1E+10	1	-1E+10	1	-1E+10	1	-1E+10	1	-1E+10	1	-1E+10	1
4902663	22	C	03/10/2024	00:13	-127.642	48.549	0	50.60	0	9.3050	0	32.2510	0	24.920	0	50.167	0	263.0	4	92.5	4	-1E+10	1	-1E+10	1	-1E+10	1	-1E+10	1	-1E+10	1	-1E+10	1
4902663	22	C	03/10/2024	00:13	-127.642	48.549	0	51.90	0	9.3020	0	32.2520	0	24.921	0	51.455	0	262.5	4	92.3	4	-1E+10	1	-1E+10	1	-1E+10	1	-1E+10	1	-1E+10	1	-1E+10	1
4902663	22	C	03/10/2024	00:13	-127.642	48.549	0	53.40	0	9.3010	0	32.2520	0	24.921	0	52.942	0	261.7	4	92.0	4	-1E+10	1	-1E+10	1	-1E+10	1	-1E+10	1	-1E+10	1	-1E+10	1
4902663	22	C	03/10/2024	00:13	-127.642	48.549	0	54.30	0	9.3010	0	32.2520	0	24.921	0	53.835	0	261.2	4	91.9	4	-1E+10	1	-1E+10	1	-1E+10	1	-1E+10	1	-1E+10	1	-1E+10	1
4902663	22	C	03/10/2024	00:13	-127.642	48.549	0	55.20	0	9.3000	0	32.2530	0	24.922	0	54.727	0	260.7	4	91.7	4	-1E+10	1	-1E+10	1	-1E+10	1	-1E+10	1	-1E+10	1	-1E+10	1
4902663	22	C	03/10/2024	00:13	-127.642	48.549	0	56.10	0	9.3000	0	32.2530	0	24.922	0	55.619	0	259.9	4	91.4	4	-1E+10	1	-1E+10	1	-1E+10	1	-1E+10	1	-1E+10	1	-1E+10	1
4902663	22	C	03/10/2024	00:13	-127.642	48.549	0	57.10	0	9.3040	0	32.2550	0	24.923	0	56.610	0	259.1	4	91.1	4	-1E+10	1	-1E+10	1	-1E+10	1	-1E+10	1	-1E+10	1	-1E+10	1
4902663	22	C	03/10/2024	00:13	-127.642	48.549	0	58.00	0	9.3060	0	32.2560	0	24.924	0	57.502	0	258.5	4	90.9	4	-1E+10	1	-1E+10	1	-1E+10	1	-1E+10	1	-1E+10	1	-1E+10	1
4902663	22	C	03/10/2024	00:13	-127.642	48.549	0	59.00	0	9.3060	0	32.2560	0	24.924	0	58.494	0	257.5	4	90.6	4	-1E+10	1	-1E+10	1	-1E+10	1	-1E+10	1	-1E+10	1	-1E+10	1
4902663	22	C	03/10/2024	00:13	-127.642	48.549	0	59.90	0	9.3060	0	32.2560	0	24.924	0	59.386	0	256.4	4	90.2	4	-1E+10	1	-1E+10	1	-1E+10	1	-1E+10	1	-1E+10	1	-1E+10	1
4902663	22	C	03/10/2024	00:13	-127.642	48.549	0	60.90	0	9.3070	0	32.2560	0	24.923	0	60.377	0	255.1	4	89.7	4	-1E+10	1	-1E+10	1	-1E+10	1	-1E+10	1	-1E+10	1	-1E+10	1
4902663	22	C	03/10/2024	00:13	-127.642	48.549	0	61.80	0	9.3070	0	32.2570	0	24.924	0	61.269	0	253.6	4	89.2	4	-1E+10	1	-1E+10	1	-1E+10	1	-1E+10	1	-1E+10	1	-1E+10	1
4902663	22	C	03/10/2024	00:13	-127.642	48.549	0	62.70	0	9.3080	0	32.2580	0	24.925	0	62.161	0	251.9	4	88.6	4	-1E+10	1	-1E+10	1	-1E+10	1	-1E+10	1	-1E+10	1	-1E+10	1
4902663	22	C	03/10/2024	00:13	-127.642	48.549	0	63.70	0	9.3080	0	32.2580	0	24.925	0	63.153	0	249.9	4	87.9	4	-1E+10	1	-1E+10	1	-1E+10	1	-1E+10	1	-1E+10	1	-1E+10	1
4902663	22	C	03/10/2024	00:13	-127.642	48.549	0	64.60	0	9.3090	0	32.2600	0	24.926	0	64.045	0	247.8	4	87.2	4	-1E+10	1	-1E+10	1	-1E+10	1	-1E+10	1	-1E+10	1	-1E+10	1
4902663	22	C	03/10/2024	00:13	-127.642	48.549	0	65.90	0	9.3100	0	32.2630	0	24.929	0	65.333	0	244.4	4	86.0	4	-1E+10	1	-1E+10	1	-1E+10	1	-1E+10	1	-1E+10	1	-1E+10	1
4902663	22	C	03/10/2024	00:13	-127.642	48.549	0	67.40	0	9.3120	0	32.2680	0	24.932	0	66.820	0	240.5	4	84.6	4	-1E+10	1	-1E+10	1	-1E+10	1	-1E+10	1	-1E+10	1	-1E+10	1
4902663	22	C	03/10/2024	00:13	-127.642	48.549	0	68.30	0	9.3090	0	32.2780	0	24.940	0	67.712	0	237.3	4	83.5	4	-1E+10	1	-1E+10	1	-1E+10	1	-1E+10	1	-1E+10	1	-1E+10	1
4902663	22	C	03/10/2024	00:13	-127.642	48.549	0	69.30	0	9.3090	0	32.2780	0	24.940	0	68.703	0	233.7	4	82.2	4	-1E+10	1	-1E+10	1	-1E+10	1	-1E+10	1	-1E+10	1	-1E+10	1
4902663	22	C	03/10/2024	00:13	-127.642	48.549	0	70.20	0	9.3060	0	32.2880	0	24.949	0	69.596	0	229.8	4	80.8	4	-1E+10	1	-1E+10	1	-1E+10	1	-1E+10	1	-1E+10	1	-1E+10	1
4902663	22	C	03/10/2024	00:13	-127.642	48.549	0	71.10	0	9.3040	0	32.2950	0	24.955	0	70.488	0	225.6	4	79.4	4	-1E+10	1	-1E+10	1	-1E+10	1	-1E+10	1	-1E+10	1	-1E+10	1
4902663	22	C	03/10/2024	00:13	-127.642	48.549	0	72.10	0	9.2940	0	32.3090	0	24.967	0	71.479	0	221.1	4	77.8	4	-1E+10	1	-1E+10	1	-1E+10	1	-1E+10	1	-1E+10	1	-1E+10	1
4902663	22	C	03/10/2024	00:13	-127.642	48.549	0	73.00	0	9.2480	0	32.3710	0	25.023	0	72.371	0	216.8	4	76.2	4	-1E+10	1	-1E+10	1	-1E+10	1	-1E+10	1	-1E+10	1	-1E+10	1
4902663	22	C	03/10/2024	00:13	-127.642	48.549	0	73.90	0	9.2040	0	32.4150	0	25.064	0	73.263	0	213.0	4	74.8	4	-1E+10	1	-1E+10	1	-1E+10	1	-1E+10	1	-1E+10	1	-1E+10	1
4902663	22	C	03/10/2024	00:13	-127.642	48.549	0	75.10	0	9.1960	0	32.4530	0	25.095	0	74.452	0	206.5	4	72.5	4	-1E+10	1	-1E+10	1	-1E+10	1	-1E+10	1	-1E+10	1	-1E+10	1
4902663	22	C	03/10/2024	00:13	-127.642	48.549	0	76.00	0	9.2970	0	32.5210	0	25.132	0	75.345	0	200.7	4	70.7	4	-1E+10	1	-1E+10	1	-1E+10	1	-1E+10	1	-1E+10	1	-1E+10	1
4902663	22	C	03/10/2024	00:13	-127.642	48.549	0	77.00	0	9.2140	0	32.5790	0	25.191	0	76.336	0	195.4	4	68.7	4	-1E+10	1	-1E+10	1	-1E+10	1	-1E+10	1	-1E+10	1	-1E+10	1
4902663	22	C	03/10/2024	00:13	-127.642	48.549	0	78.10	0	9.1520	0	32.6400	0	25.248	0	77.426	0	190.3	4	66.9	4	-1E+10	1	-1E+10	1	-1E+10	1	-1E+10	1	-1E+10	1	-1E+10	1
4902663	22	C	03/10/2024	00:13	-127.642	48.549	0	78.90	0	9.1120	0	32.6580	0	25.269	0	78.219	0	186.8	4	65.6	4	-1E+10	1	-1E+10	1	-1E+10	1	-1E+10	1	-1E+10	1	-1E+10	1
4902663	22	C	03/10/2024	00:13	-127.642	48.549	0	79.60	0	9.0440	0	32.6730	0	25.291	0	78.913	0	183.4	4	64.3	4	-1E+10	1	-1E+10	1	-1E+10	1	-1E+10	1	-1E+10	1	-1E+10	1
4902663	22	C	03/10/2024	00:13	-127.642	48.549	0	80.90	0	8.9380	0	32.7450	0	25.364	0	80.201	0	177.9	4	62.3	4	-1E+10	1	-1E+10	1	-1E+10	1	-1E+10	1	-1E+10	1	-1E+10	1
4902663	22	C	03/10/2024	00:13	-127.642	48.549	0	82.30	0	8.7210	0	32.9380	0	25.549	0	81.589	0	177.6	4	62.0	4	-1E+10	1	-1E+10	1	-1E+10	1	-1E+10	1	-1E+10	1	-1E+10	1
4902663	22	C	03/10/2024	00:13	-127.642	48.549	0	83.30	0	8.7010	0	32.9420	0	25.555	0	82.580	0	174.9	4	61.0	4	-1E+10	1	-1E+10	1	-1E+10	1	-1E+10	1	-1E+10	1	-1E+10	1
4902663	22	C	03/10/2024	00:13	-127.642	48.549	0	84.20	0	8.5750	0	33.0420	0	25.652	0	83.472	0	172.6	4	60.1	4	-1E+10	1	-1E+10	1	-1E+10	1	-1E+10	1	-1E+10	1	-1E+10	1
4902663	22	C	03/10/2024	00:13	-127.642	48.549	0	85.20	0	8.5400	0	33.0590	0	25.671	0	84.463	0	170.7	4	59.4	4	-1E+10	1	-1E+10	1	-1E+10	1	-1E+10	1	-1E+10	1	-1E+10	1
4902663	22	C	03/10/2024	00:13	-127.642	48.549	0	86.10	0	8.5260	0	33.0670	0	25.679	0	85.355	0	168.7	4	58.7	4	-1E+10	1	-1E+10	1	-1E+10	1	-1E+10	1	-1E+10	1	-1E+10	1
4902663	22	C	03/10/2024	00:13	-127.642	48.549	0	87.10	0	8.5370	0	33.1370	0	25.733	0	86.347	0	167.0	4	58.1	4	-1E+10	1	-1E+10	1	-1E+10	1	-1E+10	1	-1E+10	1	-1E+10	1
4902663	22	C	03/10/2024	00:13	-127.642	48.549	0	88.10	0	8.5310	0	33.1590	0	25.751	0	87.338	0	165.3	4	57.5	4	-1E+10	1	-1E+10	1	-1E+10	1	-1E+10	1	-1E+10	1	-1E+10	1
4902663	22	C	03/10/2024	00:13	-127.642	48.549	0	89.10	0	8.5240	0	33.1670	0	25.758	0	88.329	0	163.5	4	56.9	4	-1E+10	1	-1E+10	1	-1E+10	1	-1E+10	1	-1E+10	1	-1E+10	1
4902663	22	C	03/10/2024	00:13	-127.642	48.549	0	90.20	0	8.5210	0	33.1730	0	25.763	0	89.419	0	162.0	4	56.4	4	-1E+10	1	-1E+10	1	-1E+10	1	-1E+10	1	-1E+10	1	-1E+10	1
4902663	22	C	03/10/2024	00:13	-127.642	48.549	0	91.20	0	8.5560	0	33.2380	0	25.809	0	90.410	0	160.7	4	56.0	4	-1E+10	1	-1E+10	1	-1E+10	1	-1E+10	1	-1E+10	1	-1E+10	1
4902663	22	C	03/10/2024	00:13	-127.642	48.549	0	92.30	0	8.6210	0	33.2880	0	25.838	0	91.500	0	159.4	4	55.6	4	-1E+10	1	-1E+10	1	-1E+10	1	-1E+10	1	-1E+10	1	-1E+10	1
4902663	22	C	03/10/2024	00:13	-127.642	48.549	0	93.40	0	8.6010	0	33.2950	0	25.847	0	92.591	0	158.5	4	55.3	4	-1E+10	1	-1E+10	1	-1E+10	1	-1E+10	1	-1E+10	1	-1E+10	1
4902663	22	C	03/10/2024	00:13	-127.642	48.549	0	94.40	0	8.5640	0	33.3300	0	25.880	0	93.582	0	157.6	4	54.9	4	-1E+10	1	-1E+10	1	-1E+10	1	-1E+10	1	-1E+10	1	-1E+10	1
4902663	22	C	03/10/2024	00:13	-127.642	48.549	0	95.40	0	8.5500	0	33.3220	0	25.876	0	94.573	0	156.7	4	54.6	4	-1E+10	1	-1E+10	1	-1E+10	1	-1E+10	1	-1E+10	1	-1E+10	1
4902663	22	C	03/10/2024	00:13	-127.642	48.549	0	96.90	0	8.5250	0	33.3520	0	25.903	0	96.059	0	155.4	4	54.1	4	-1E+10	1	-1E+10	1	-1E+10	1	-1E+10	1	-1E+10	1	-1E+10	1
4902663	22	C	03/10/2024	00:13	-127.642	48.549	0	98.10	0	8.5080	0	33.3610	0	25.913	0	97.249	0	154.3	4	53.8	4	-1E+10	1	-1E+10	1	-1E+10	1	-1E+10	1	-1E+10	1	-1E+10	1
4902663	22	C	03/10/2024	00:13	-127.642	48.549	0	98.90	0	8.5110	0	33.3650	0	25.915	0	98.042	0	153.5	4	53.5	4	-1E+10	1	-1E+10	1	-1E+10	1	-1E+10	1	-1E+10	1	-1E+10	1
4902663	22	C	03/10/2024	00:13	-127.642	48.549	0	100.00	0	8.5070	0	33.3910	0	25.936	0	99.132	0	152.1	4	53.0	4	-1E+10	1	-1E+10	1	-1E+10	1	-1E+10	1	-1E+10	1	-1E+10	1
4902663	22	C	03/10/2024	00:13	-127.642	48.549	0	101.20	0	8.4800	0	33.4030	0	25.950	0	100.321	0	150.8	4	52.5	4	-1E+10	1	-1E+10	1	-1E+10	1	-1E+10	1	-1E+10	1	-1E+10	1
4902663	22	C	03/10/2024	00:13	-127.642	48.549	0	102.00	0	8.4650	0	33.4100	0	25.958	0	101.114	0	149.9	4	52.2	4	-1E+10	1	-1E+10	1	-1E+10	1	-1E+10	1	-1E+10	1	-1E+10	1
4902663	22	C	03/10/2024	00:13	-127.642	48.549	0	102.80	0	8.4440	0	33.4270	0	25.974	0	101.907	0	149.1	4	51.9	4	-1E+10	1	-1E+10	1	-1E+10	1	-1E+10	1	-1E+10	1	-1E+10	1
4902663	22	C	03/10/2024	00:13	-127.642	48.549	0	104.00	0	8.4570	0	33.4510	0	25.991	0	103.096	0	147.8	4	51.5	4	-1E+10	1	-1E+10	1	-1E+10	1	-1E+10	1	-1E+10	1	-1E+10	1
4902663	22	C	03/10/2024	00:13	-127.642	48.549	0	105.20	0	8.4640	0	33.4650	0	26.001	0	104.285	0	146.5	4	51.0	4	-1E+10	1	-1E+10	1	-1E+10	1	-1E+10	1	-1E+10	1	-1E+10	1
4902663	22	C	03/10/2024	00:13	-127.642	48.549	0	106.00	0	8.4670	0	33.4830	0	26.015	0	105.078	0	145.7	4	50.7	4	-1E+10	1	-1E+10	1	-1E+10	1	-1E+10	1	-1E+10	1	-1E+10	1
4902663	22	C	03/10/2024	00:13	-127.642	48.549	0	106.90	0	8.4540	0	33.4980	0	26.028	0	105.970	0	144.9	4	50.5	4	-1E+10	1	-1E+10	1	-1E+10	1	-1E+10	1	-1E+10	1	-1E+10	1
4902663	22	C	03/10/2024	00:13	-127.642	48.549	0	107.70	0	8.4210	0	33.5120	0	26.044	0	106.763	0	144.2	4	50.2	4	-1E+10	1	-1E+10	1	-1E+10	1	-1E+10	1	-1E+10	1	-1E+10	1
4902663	22	C	03/10/2024	00:13	-127.642	48.549	0	109.00	0	8.4190	0	33.5180	0	26.049	0	108.051	0	143.3	4	49.9	4	-1E+10	1	-1E+10	1	-1E+10	1	-1E+10	1	-1E+10	1	-1E+10	1
4902663	22	C	03/10/2024	00:13	-127.642	48.549	0	110.20	0	8.3910	0	33.5330	0	26.065	0	109.241	0	142.4	4	49.5	4	-1E+10	1	-1E+10	1	-1E+10	1	-1E+10	1	-1E+10	1	-1E+10	1
4902663	22	C	03/10/2024	00:13	-127.642	48.549	0	111.00	0	8.3870	0	33.5370	0	26.069	0	110.033	0	141.7	4	49.3	4	-1E+10	1	-1E+10	1	-1E+10	1	-1E+10	1	-1E+10	1	-1E+10	1
4902663	22	C	03/10/2024	00:13	-127.642	48.549	0	111.90	0	8.3780	0	33.5420	0	26.075	0	110.925	0	141.0	4	49.1	4	-1E+10	1	-1E+10	1	-1E+10	1	-1E+10	1	-1E+10	1	-1E+10	1
4902663	22	C	03/10/2024	00:13	-127.642	48.549	0	112.70	0	8.3740	0	33.5450	0	26.078	0	111.718	0	140.3	4	48.8	4	-1E+10	1	-1E+10	1	-1E+10	1	-1E+10	1	-1E+10	1	-1E+10	1
4902663	22	C	03/10/2024	00:13	-127.642	48.549	0	113.90	0	8.3700	0	33.5470	0	26.080	0	112.907	0	139.3	4	48.4	4	-1E+10	1	-1E+10	1	-1E+10	1	-1E+10	1	-1E+10	1	-1E+10	1
4902663	22	C	03/10/2024	00:13	-127.642	48.549	0	115.20	0	8.3280	0	33.5700	0	26.104	0	114.196	0	138.4	4	48.1	4	-1E+10	1	-1E+10	1	-1E+10	1	-1E+10	1	-1E+10	1	-1E+10	1
4902663	22	C	03/10/2024	00:13	-127.642	48.549	0	116.00	0	8.3040	0	33.5580	0	26.098	0	114.988	0	137.9	4	47.9	4	-1E+10	1	-1E+10	1	-1E+10	1	-1E+10	1	-1E+10	1	-1E+10	1
4902663	22	C	03/10/2024	00:13	-127.642	48.549	0	116.80	0	8.1840	0	33.5760	0	26.130	0	115.781	0	137.5	4	47.6	4	-1E+10	1	-1E+10	1	-1E+10	1	-1E+10	1	-1E+10	1	-1E+10	1
4902663	22	C	03/10/2024	00:13	-127.642	48.549	0	117.70	0	8.1580	0	33.5930	0	26.148	0	116.673	0	136.9	4	47.4	4	-1E+10	1	-1E+10	1	-1E+10	1	-1E+10	1	-1E+10	1	-1E+10	1
4902663	22	C	03/10/2024	00:13	-127.642	48.549	0	119.00	0	8.1680	0	33.6000	0	26.152	0	117.961	0	135.8	4	47.0	4	-1E+10	1	-1E+10	1	-1E+10	1	-1E+10	1	-1E+10	1	-1E+10	1
4902663	22	C	03/10/2024	00:13	-127.642	48.549	0	120.30	0	8.1480	0	33.6210	0	26.171	0	119.250	0	135.0	4	46.7	4	-1E+10	1	-1E+10	1	-1E+10	1	-1E+10	1	-1E+10	1	-1E+10	1
4902663	22	C	03/10/2024	00:13	-127.642	48.549	0	121.10	0	8.1260	0	33.6200	0	26.174	0	120.043	0	134.4	4	46.5	4	-1E+10	1	-1E+10	1	-1E+10	1	-1E+10	1	-1E+10	1	-1E+10	1
4902663	22	C	03/10/2024	00:13	-127.642	48.549	0	122.00	0	8.0370	0	33.6220	0	26.188	0	120.934	0	133.6	4	46.1	4	-1E+10	1	-1E+10	1	-1E+10	1	-1E+10	1	-1E+10	1	-1E+10	1
4902663	22	C	03/10/2024	00:13	-127.642	48.549	0	122.90	0	8.0190	0	33.6270	0	26.195	0	121.826	0	132.3	4	45.7	4	-1E+10	1	-1E+10	1	-1E+10	1	-1E+10	1	-1E+10	1	-1E+10	1
4902663	22	C	03/10/2024	00:13	-127.642	48.549	0	123.70	0	8.0090	0	33.6260	0	26.196	0	122.619	0	130.8	4	45.1	4	-1E+10	1	-1E+10	1	-1E+10	1	-1E+10	1	-1E+10	1	-1E+10	1
4902663	22	C	03/10/2024	00:13	-127.642	48.549	0	124.60	0	8.0660	0	33.6340	0	26.193	0	123.511	0	129.3	4	44.7	4	-1E+10	1	-1E+10	1	-1E+10	1	-1E+10	1	-1E+10	1	-1E+10	1
4902663	22	C	03/10/2024	00:13	-127.642	48.549	0	125.90	0	8.1000	0	33.6530	0	26.203	0	124.799	0	127.3	4	44.0	4	-1E+10	1	-1E+10	1	-1E+10	1	-1E+10	1	-1E+10	1	-1E+10	1
4902663	22	C	03/10/2024	00:13	-127.642	48.549	0	127.30	0	8.2190	0	33.6970	0	26.220	0	126.186	0	126.0	4	43.7	4	-1E+10	1	-1E+10	1	-1E+10	1	-1E+10	1	-1E+10	1	-1E+10	1
4902663	22	C	03/10/2024	00:13	-127.642	48.549	0	128.20	0	8.1180	0	33.6920	0	26.231	0	127.078	0	125.0	4	43.3	4	-1E+10	1	-1E+10	1	-1E+10	1	-1E+10	1	-1E+10	1	-1E+10	1
4902663	22	C	03/10/2024	00:13	-127.642	48.549	0	129.10	0	8.0900	0	33.6880	0	26.232	0	127.970	0	123.7	4	42.8	4	-1E+10	1	-1E+10	1	-1E+10	1	-1E+10	1	-1E+10	1	-1E+10	1
4902663	22	C	03/10/2024	00:13	-127.642	48.549	0	130.10	0	8.0960	8	33.6860	8	26.230	0	128.961	0	121.9	4	42.2	4	-1E+10	1	-1E+10	1	-1E+10	1	-1E+10	1	-1E+10	1	-1E+10	1
4902663	22	C	03/10/2024	00:13	-127.642	48.549	0	131.00	0	8.2180	8	33.6690	8	26.198	0	129.853	0	120.2	4	41.7	4	-1E+10	1	-1E+10	1	-1E+10	1	-1E+10	1	-1E+10	1	-1E+10	1
4902663	22	C	03/10/2024	00:13	-127.642	48.549	0	131.90	0	8.3020	0	33.7410	0	26.242	0	130.745	0	119.3	4	41.5	4	-1E+10	1	-1E+10	1	-1E+10	1	-1E+10	1	-1E+10	1	-1E+10	1
4902663	22	C	03/10/2024	00:13	-127.642	48.549	0	132.80	0	8.3450	0	33.7560	0	26.248	0	131.637	0	118.9	4	41.4	4	-1E+10	1	-1E+10	1	-1E+10	1	-1E+10	1	-1E+10	1	-1E+10	1
4902663	22	C	03/10/2024	00:13	-127.642	48.549	0	133.80	0	8.3760	0	33.7510	0	26.239	0	132.628	0	118.8	4	41.4	4	-1E+10	1	-1E+10	1	-1E+10	1	-1E+10	1	-1E+10	1	-1E+10	1
4902663	22	C	03/10/2024	00:13	-127.642	48.549	0	134.70	0	8.3750	0	33.7830	0	26.264	0	133.519	0	118.9	4	41.4	4	-1E+10	1	-1E+10	1	-1E+10	1	-1E+10	1	-1E+10	1	-1E+10	1
4902663	22	C	03/10/2024	00:13	-127.642	48.549	0	135.60	0	8.3500	0	33.7840	0	26.269	0	134.411	0	119.0	4	41.4	4	-1E+10	1	-1E+10	1	-1E+10	1	-1E+10	1	-1E+10	1	-1E+10	1
4902663	22	C	03/10/2024	00:13	-127.642	48.549	0	136.60	0	8.3260	0	33.7850	0	26.273	0	135.402	0	119.3	4	41.5	4	-1E+10	1	-1E+10	1	-1E+10	1	-1E+10	1	-1E+10	1	-1E+10	1
4902663	22	C	03/10/2024	00:13	-127.642	48.549	0	137.50	0	8.2910	0	33.7920	0	26.284	0	136.294	0	119.5	4	41.5	4	-1E+10	1	-1E+10	1	-1E+10	1	-1E+10	1	-1E+10	1	-1E+10	1
4902663	22	C	03/10/2024	00:13	-127.642	48.549	0	138.90	0	8.2300	0	33.7820	0	26.285	0	137.681	0	119.6	4	41.5	4	-1E+10	1	-1E+10	1	-1E+10	1	-1E+10	1	-1E+10	1	-1E+10	1
4902663	22	C	03/10/2024	00:13	-127.642	48.549	0	140.40	0	8.2220	0	33.7900	0	26.293	0	139.167	0	120.1	4	41.7	4	-1E+10	1	-1E+10	1	-1E+10	1	-1E+10	1	-1E+10	1	-1E+10	1
4902663	22	C	03/10/2024	00:13	-127.642	48.549	0	141.30	0	8.1410	0	33.7910	0	26.306	0	140.059	0	120.3	4	41.7	4	-1E+10	1	-1E+10	1	-1E+10	1	-1E+10	1	-1E+10	1	-1E+10	1
4902663	22	C	03/10/2024	00:13	-127.642	48.549	0	142.30	0	8.0700	0	33.7860	0	26.312	0	141.050	0	120.1	4	41.6	4	-1E+10	1	-1E+10	1	-1E+10	1	-1E+10	1	-1E+10	1	-1E+10	1
4902663	22	C	03/10/2024	00:13	-127.642	48.549	0	143.30	0	8.0320	0	33.7930	0	26.324	0	142.041	0	119.8	4	41.4	4	-1E+10	1	-1E+10	1	-1E+10	1	-1E+10	1	-1E+10	1	-1E+10	1
4902663	22	C	03/10/2024	00:13	-127.642	48.549	0	144.30	0	8.0140	0	33.7980	0	26.330	0	143.032	0	119.5	4	41.3	4	-1E+10	1	-1E+10	1	-1E+10	1	-1E+10	1	-1E+10	1	-1E+10	1
4902663	22	C	03/10/2024	00:13	-127.642	48.549	0	145.20	0	8.0060	0	33.7980	0	26.331	0	143.924	0	119.1	4	41.2	4	-1E+10	1	-1E+10	1	-1E+10	1	-1E+10	1	-1E+10	1	-1E+10	1
4902663	22	C	03/10/2024	00:13	-127.642	48.549	0	146.20	0	8.0030	0	33.7990	0	26.333	0	144.915	0	118.6	4	41.0	4	-1E+10	1	-1E+10	1	-1E+10	1	-1E+10	1	-1E+10	1	-1E+10	1
4902663	22	C	03/10/2024	00:13	-127.642	48.549	0	147.20	0	8.0020	0	33.7990	0	26.333	0	145.905	0	118.1	4	40.8	4	-1E+10	1	-1E+10	1	-1E+10	1	-1E+10	1	-1E+10	1	-1E+10	1
4902663	22	C	03/10/2024	00:13	-127.642	48.549	0	148.20	0	7.9830	0	33.8030	0	26.339	0	146.896	0	117.6	4	40.6	4	-1E+10	1	-1E+10	1	-1E+10	1	-1E+10	1	-1E+10	1	-1E+10	1
4902663	22	C	03/10/2024	00:13	-127.642	48.549	0	149.20	0	7.9690	0	33.8050	0	26.342	0	147.887	0	117.1	4	40.4	4	-1E+10	1	-1E+10	1	-1E+10	1	-1E+10	1	-1E+10	1	-1E+10	1
4902663	22	C	03/10/2024	00:13	-127.642	48.549	0	150.10	0	7.9520	0	33.8080	0	26.347	0	148.779	0	116.3	4	40.1	4	-1E+10	1	-1E+10	1	-1E+10	1	-1E+10	1	-1E+10	1	-1E+10	1
4902663	22	C	03/10/2024	00:13	-127.642	48.549	0	151.10	0	7.9280	0	33.8070	0	26.350	0	149.770	0	115.4	4	39.8	4	-1E+10	1	-1E+10	1	-1E+10	1	-1E+10	1	-1E+10	1	-1E+10	1
4902663	22	C	03/10/2024	00:13	-127.642	48.549	0	152.10	0	7.9460	0	33.8180	0	26.356	0	150.761	0	114.5	4	39.5	4	-1E+10	1	-1E+10	1	-1E+10	1	-1E+10	1	-1E+10	1	-1E+10	1
4902663	22	C	03/10/2024	00:13	-127.642	48.549	0	153.10	0	7.9270	0	33.8190	0	26.360	0	151.751	0	113.6	4	39.2	4	-1E+10	1	-1E+10	1	-1E+10	1	-1E+10	1	-1E+10	1	-1E+10	1
4902663	22	C	03/10/2024	00:13	-127.642	48.549	0	154.00	0	7.9170	0	33.8220	0	26.363	0	152.643	0	112.4	4	38.8	4	-1E+10	1	-1E+10	1	-1E+10	1	-1E+10	1	-1E+10	1	-1E+10	1
4902663	22	C	03/10/2024	00:13	-127.642	48.549	0	155.00	0	7.9130	0	33.8290	0	26.370	0	153.634	0	111.3	4	38.4	4	-1E+10	1	-1E+10	1	-1E+10	1	-1E+10	1	-1E+10	1	-1E+10	1
4902663	22	C	03/10/2024	00:13	-127.642	48.549	0	155.90	0	7.9050	0	33.8340	0	26.375	0	154.526	0	110.1	4	38.0	4	-1E+10	1	-1E+10	1	-1E+10	1	-1E+10	1	-1E+10	1	-1E+10	1
4902663	22	C	03/10/2024	00:13	-127.642	48.549	0	156.90	0	7.9010	0	33.8360	0	26.377	0	155.516	0	108.9	4	37.6	4	-1E+10	1	-1E+10	1	-1E+10	1	-1E+10	1	-1E+10	1	-1E+10	1
4902663	22	C	03/10/2024	00:13	-127.642	48.549	0	157.80	0	7.9360	0	33.8450	0	26.379	0	156.408	0	108.0	4	37.3	4	-1E+10	1	-1E+10	1	-1E+10	1	-1E+10	1	-1E+10	1	-1E+10	1
4902663	22	C	03/10/2024	00:13	-127.642	48.549	0	158.80	0	7.9600	0	33.8650	0	26.391	0	157.399	0	107.5	4	37.1	4	-1E+10	1	-1E+10	1	-1E+10	1	-1E+10	1	-1E+10	1	-1E+10	1
4902663	22	C	03/10/2024	00:13	-127.642	48.549	0	159.80	0	7.9630	0	33.8700	0	26.394	0	158.390	0	107.2	4	37.0	4	-1E+10	1	-1E+10	1	-1E+10	1	-1E+10	1	-1E+10	1	-1E+10	1
4902663	22	C	03/10/2024	00:13	-127.642	48.549	0	160.70	0	7.9610	0	33.8760	0	26.399	0	159.281	0	107.1	4	37.0	4	-1E+10	1	-1E+10	1	-1E+10	1	-1E+10	1	-1E+10	1	-1E+10	1
4902663	22	C	03/10/2024	00:13	-127.642	48.549	0	161.70	0	7.9540	0	33.8760	0	26.401	0	160.272	0	107.0	4	37.0	4	-1E+10	1	-1E+10	1	-1E+10	1	-1E+10	1	-1E+10	1	-1E+10	1
4902663	22	C	03/10/2024	00:13	-127.642	48.549	0	162.60	0	7.9530	0	33.8770	0	26.401	0	161.164	0	106.9	4	36.9	4	-1E+10	1	-1E+10	1	-1E+10	1	-1E+10	1	-1E+10	1	-1E+10	1
4902663	22	C	03/10/2024	00:13	-127.642	48.549	0	163.60	0	7.9480	0	33.8780	0	26.403	0	162.155	0	106.8	4	36.9	4	-1E+10	1	-1E+10	1	-1E+10	1	-1E+10	1	-1E+10	1	-1E+10	1
4902663	22	C	03/10/2024	00:13	-127.642	48.549	0	164.60	0	7.9450	0	33.8780	0	26.403	0	163.145	0	106.6	4	36.8	4	-1E+10	1	-1E+10	1	-1E+10	1	-1E+10	1	-1E+10	1	-1E+10	1
4902663	22	C	03/10/2024	00:13	-127.642	48.549	0	165.50	0	7.9370	0	33.8810	0	26.407	0	164.037	0	106.4	4	36.7	4	-1E+10	1	-1E+10	1	-1E+10	1	-1E+10	1	-1E+10	1	-1E+10	1
4902663	22	C	03/10/2024	00:13	-127.642	48.549	0	166.90	0	7.9150	0	33.8870	0	26.415	0	165.424	0	106.2	4	36.6	4	-1E+10	1	-1E+10	1	-1E+10	1	-1E+10	1	-1E+10	1	-1E+10	1
4902663	22	C	03/10/2024	00:13	-127.642	48.549	0	168.40	0	7.8920	0	33.8930	0	26.423	0	166.910	0	106.0	4	36.6	4	-1E+10	1	-1E+10	1	-1E+10	1	-1E+10	1	-1E+10	1	-1E+10	1
4902663	22	C	03/10/2024	00:13	-127.642	48.549	0	169.30	0	7.8780	0	33.8950	0	26.427	0	167.802	0	105.9	4	36.5	4	-1E+10	1	-1E+10	1	-1E+10	1	-1E+10	1	-1E+10	1	-1E+10	1
4902663	22	C	03/10/2024	00:13	-127.642	48.549	0	170.30	0	7.8390	0	33.9010	0	26.437	0	168.793	0	105.9	4	36.5	4	-1E+10	1	-1E+10	1	-1E+10	1	-1E+10	1	-1E+10	1	-1E+10	1
4902663	22	C	03/10/2024	00:13	-127.642	48.549	0	171.30	0	7.8220	0	33.9010	0	26.440	0	169.784	0	106.0	4	36.5	4	-1E+10	1	-1E+10	1	-1E+10	1	-1E+10	1	-1E+10	1	-1E+10	1
4902663	22	C	03/10/2024	00:13	-127.642	48.549	0	172.30	0	7.7790	0	33.9040	0	26.448	0	170.774	0	106.0	4	36.5	4	-1E+10	1	-1E+10	1	-1E+10	1	-1E+10	1	-1E+10	1	-1E+10	1
4902663	22	C	03/10/2024	00:13	-127.642	48.549	0	173.20	0	7.7030	0	33.8940	0	26.451	0	171.666	0	105.6	4	36.3	4	-1E+10	1	-1E+10	1	-1E+10	1	-1E+10	1	-1E+10	1	-1E+10	1
4902663	22	C	03/10/2024	00:13	-127.642	48.549	0	174.20	0	7.6520	0	33.8880	0	26.454	0	172.657	0	104.9	4	36.0	4	-1E+10	1	-1E+10	1	-1E+10	1	-1E+10	1	-1E+10	1	-1E+10	1
4902663	22	C	03/10/2024	00:13	-127.642	48.549	0	175.20	0	7.6900	0	33.8900	0	26.450	0	173.647	0	104.3	4	35.8	4	-1E+10	1	-1E+10	1	-1E+10	1	-1E+10	1	-1E+10	1	-1E+10	1
4902663	22	C	03/10/2024	00:13	-127.642	48.549	0	176.20	0	7.6950	0	33.9060	0	26.462	0	174.638	0	104.0	4	35.7	4	-1E+10	1	-1E+10	1	-1E+10	1	-1E+10	1	-1E+10	1	-1E+10	1
4902663	22	C	03/10/2024	00:13	-127.642	48.549	0	177.20	0	7.6840	0	33.9040	0	26.462	0	175.629	0	103.7	4	35.6	4	-1E+10	1	-1E+10	1	-1E+10	1	-1E+10	1	-1E+10	1	-1E+10	1
4902663	22	C	03/10/2024	00:13	-127.642	48.549	0	178.20	0	7.6800	0	33.9030	0	26.462	0	176.620	0	103.4	4	35.5	4	-1E+10	1	-1E+10	1	-1E+10	1	-1E+10	1	-1E+10	1	-1E+10	1
4902663	22	C	03/10/2024	00:13	-127.642	48.549	0	179.20	0	7.6850	0	33.9060	0	26.463	0	177.610	0	103.1	4	35.4	4	-1E+10	1	-1E+10	1	-1E+10	1	-1E+10	1	-1E+10	1	-1E+10	1
4902663	22	C	03/10/2024	00:13	-127.642	48.549	0	180.20	0	7.6370	0	33.9040	0	26.469	0	178.601	0	102.8	4	35.3	4	-1E+10	1	-1E+10	1	-1E+10	1	-1E+10	1	-1E+10	1	-1E+10	1
4902663	22	C	03/10/2024	00:13	-127.642	48.549	0	181.20	0	7.6310	0	33.9040	0	26.470	0	179.592	0	102.3	4	35.1	4	-1E+10	1	-1E+10	1	-1E+10	1	-1E+10	1	-1E+10	1	-1E+10	1
4902663	22	C	03/10/2024	00:13	-127.642	48.549	0	182.20	0	7.6560	0	33.8950	0	26.459	0	180.582	0	101.9	4	35.0	4	-1E+10	1	-1E+10	1	-1E+10	1	-1E+10	1	-1E+10	1	-1E+10	1
4902663	22	C	03/10/2024	00:13	-127.642	48.549	0	183.30	0	7.6740	0	33.9190	0	26.475	0	181.672	0	101.9	4	35.0	4	-1E+10	1	-1E+10	1	-1E+10	1	-1E+10	1	-1E+10	1	-1E+10	1
4902663	22	C	03/10/2024	00:13	-127.642	48.549	0	184.30	0	7.6790	0	33.9170	0	26.473	0	182.663	0	102.0	4	35.0	4	-1E+10	1	-1E+10	1	-1E+10	1	-1E+10	1	-1E+10	1	-1E+10	1
4902663	22	C	03/10/2024	00:13	-127.642	48.549	0	185.40	0	7.6320	0	33.9220	0	26.484	0	183.752	0	102.1	4	35.0	4	-1E+10	1	-1E+10	1	-1E+10	1	-1E+10	1	-1E+10	1	-1E+10	1
4902663	22	C	03/10/2024	00:13	-127.642	48.549	0	186.40	0	7.5980	0	33.9220	0	26.489	0	184.743	0	102.3	4	35.1	4	-1E+10	1	-1E+10	1	-1E+10	1	-1E+10	1	-1E+10	1	-1E+10	1
4902663	22	C	03/10/2024	00:13	-127.642	48.549	0	187.50	0	7.5900	0	33.9230	0	26.491	0	185.833	0	102.6	4	35.1	4	-1E+10	1	-1E+10	1	-1E+10	1	-1E+10	1	-1E+10	1	-1E+10	1
4902663	22	C	03/10/2024	00:13	-127.642	48.549	0	188.50	0	7.5770	0	33.9250	0	26.494	0	186.823	0	102.8	4	35.2	4	-1E+10	1	-1E+10	1	-1E+10	1	-1E+10	1	-1E+10	1	-1E+10	1
4902663	22	C	03/10/2024	00:13	-127.642	48.549	0	189.50	0	7.5640	0	33.9170	0	26.490	0	187.814	0	103.1	4	35.3	4	-1E+10	1	-1E+10	1	-1E+10	1	-1E+10	1	-1E+10	1	-1E+10	1
4902663	22	C	03/10/2024	00:13	-127.642	48.549	0	190.60	0	7.5230	0	33.9160	0	26.495	0	188.904	0	103.3	4	35.3	4	-1E+10	1	-1E+10	1	-1E+10	1	-1E+10	1	-1E+10	1	-1E+10	1
4902663	22	C	03/10/2024	00:13	-127.642	48.549	0	191.60	0	7.4790	0	33.9110	0	26.497	0	189.895	0	103.4	4	35.3	4	-1E+10	1	-1E+10	1	-1E+10	1	-1E+10	1	-1E+10	1	-1E+10	1
4902663	22	C	03/10/2024	00:13	-127.642	48.549	0	192.70	0	7.4630	0	33.9120	0	26.500	0	190.984	0	103.5	4	35.3	4	-1E+10	1	-1E+10	1	-1E+10	1	-1E+10	1	-1E+10	1	-1E+10	1
4902663	22	C	03/10/2024	00:13	-127.642	48.549	0	193.70	0	7.4400	0	33.9110	0	26.503	0	191.975	0	103.4	4	35.3	4	-1E+10	1	-1E+10	1	-1E+10	1	-1E+10	1	-1E+10	1	-1E+10	1
4902663	22	C	03/10/2024	00:13	-127.642	48.549	0	194.80	0	7.4240	0	33.9060	0	26.501	0	193.065	0	103.3	4	35.3	4	-1E+10	1	-1E+10	1	-1E+10	1	-1E+10	1	-1E+10	1	-1E+10	1
4902663	22	C	03/10/2024	00:13	-127.642	48.549	0	195.90	0	7.4250	0	33.9050	0	26.500	0	194.154	0	103.1	4	35.2	4	-1E+10	1	-1E+10	1	-1E+10	1	-1E+10	1	-1E+10	1	-1E+10	1
4902663	22	C	03/10/2024	00:13	-127.642	48.549	0	196.90	0	7.3770	0	33.9070	0	26.508	0	195.145	0	103.0	4	35.1	4	-1E+10	1	-1E+10	1	-1E+10	1	-1E+10	1	-1E+10	1	-1E+10	1
4902663	22	C	03/10/2024	00:13	-127.642	48.549	0	198.00	0	7.3680	0	33.9070	0	26.510	0	196.234	0	102.9	4	35.1	4	-1E+10	1	-1E+10	1	-1E+10	1	-1E+10	1	-1E+10	1	-1E+10	1
4902663	22	C	03/10/2024	00:13	-127.642	48.549	0	199.10	0	7.3610	0	33.9040	0	26.508	0	197.324	0	102.7	4	35.0	4	-1E+10	1	-1E+10	1	-1E+10	1	-1E+10	1	-1E+10	1	-1E+10	1
4902663	22	C	03/10/2024	00:13	-127.642	48.549	0	200.10	0	7.3100	0	33.9070	0	26.518	0	198.315	0	102.4	4	34.9	4	-1E+10	1	-1E+10	1	-1E+10	1	-1E+10	1	-1E+10	1	-1E+10	1
4902663	22	C	03/10/2024	00:13	-127.642	48.549	0	201.30	0	7.2390	0	33.8980	0	26.521	0	199.503	0	101.8	4	34.6	4	-1E+10	1	-1E+10	1	-1E+10	1	-1E+10	1	-1E+10	1	-1E+10	1
4902663	22	C	03/10/2024	00:13	-127.642	48.549	0	202.30	0	7.2330	0	33.8990	0	26.522	0	200.494	0	100.9	4	34.3	4	-1E+10	1	-1E+10	1	-1E+10	1	-1E+10	1	-1E+10	1	-1E+10	1
4902663	22	C	03/10/2024	00:13	-127.642	48.549	0	203.40	0	7.2200	0	33.9020	0	26.526	0	201.584	0	100.0	4	34.0	4	-1E+10	1	-1E+10	1	-1E+10	1	-1E+10	1	-1E+10	1	-1E+10	1
4902663	22	C	03/10/2024	00:13	-127.642	48.549	0	204.50	0	7.2170	0	33.9040	0	26.528	0	202.673	0	99.1	4	33.7	4	-1E+10	1	-1E+10	1	-1E+10	1	-1E+10	1	-1E+10	1	-1E+10	1
4902663	22	C	03/10/2024	00:13	-127.642	48.549	0	205.60	0	7.2080	0	33.9050	0	26.530	0	203.763	0	98.1	4	33.3	4	-1E+10	1	-1E+10	1	-1E+10	1	-1E+10	1	-1E+10	1	-1E+10	1
4902663	22	C	03/10/2024	00:13	-127.642	48.549	0	206.70	0	7.2060	0	33.9070	0	26.532	0	204.853	0	97.0	4	33.0	4	-1E+10	1	-1E+10	1	-1E+10	1	-1E+10	1	-1E+10	1	-1E+10	1
4902663	22	C	03/10/2024	00:13	-127.642	48.549	0	207.80	0	7.2330	0	33.9170	0	26.536	0	205.942	0	96.3	4	32.7	4	-1E+10	1	-1E+10	1	-1E+10	1	-1E+10	1	-1E+10	1	-1E+10	1
4902663	22	C	03/10/2024	00:13	-127.642	48.549	0	208.90	0	7.1940	0	33.9200	0	26.544	0	207.032	0	95.7	4	32.5	4	-1E+10	1	-1E+10	1	-1E+10	1	-1E+10	1	-1E+10	1	-1E+10	1
4902663	22	C	03/10/2024	00:13	-127.642	48.549	0	210.00	0	7.1840	0	33.9190	0	26.545	0	208.121	0	95.0	4	32.2	4	-1E+10	1	-1E+10	1	-1E+10	1	-1E+10	1	-1E+10	1	-1E+10	1
4902663	22	C	03/10/2024	00:13	-127.642	48.549	0	211.10	0	7.1850	0	33.9300	0	26.553	0	209.211	0	94.4	4	32.1	4	-1E+10	1	-1E+10	1	-1E+10	1	-1E+10	1	-1E+10	1	-1E+10	1
4902663	22	C	03/10/2024	00:13	-127.642	48.549	0	212.30	0	7.1830	0	33.9280	0	26.552	0	210.400	0	94.1	4	31.9	4	-1E+10	1	-1E+10	1	-1E+10	1	-1E+10	1	-1E+10	1	-1E+10	1
4902663	22	C	03/10/2024	00:13	-127.642	48.549	0	213.40	0	7.1680	0	33.9300	0	26.556	0	211.489	0	93.6	4	31.8	4	-1E+10	1	-1E+10	1	-1E+10	1	-1E+10	1	-1E+10	1	-1E+10	1
4902663	22	C	03/10/2024	00:13	-127.642	48.549	0	214.50	0	7.1740	0	33.9330	0	26.557	0	212.579	0	93.2	4	31.6	4	-1E+10	1	-1E+10	1	-1E+10	1	-1E+10	1	-1E+10	1	-1E+10	1
4902663	22	C	03/10/2024	00:13	-127.642	48.549	0	215.60	0	7.1760	0	33.9350	0	26.559	0	213.668	0	92.8	4	31.5	4	-1E+10	1	-1E+10	1	-1E+10	1	-1E+10	1	-1E+10	1	-1E+10	1
4902663	22	C	03/10/2024	00:13	-127.642	48.549	0	216.70	0	7.1520	0	33.9340	0	26.561	0	214.758	0	92.4	4	31.3	4	-1E+10	1	-1E+10	1	-1E+10	1	-1E+10	1	-1E+10	1	-1E+10	1
4902663	22	C	03/10/2024	00:13	-127.642	48.549	0	217.90	0	7.1510	0	33.9370	0	26.564	0	215.947	0	91.9	4	31.2	4	-1E+10	1	-1E+10	1	-1E+10	1	-1E+10	1	-1E+10	1	-1E+10	1
4902663	22	C	03/10/2024	00:13	-127.642	48.549	0	219.00	0	7.1540	0	33.9380	0	26.564	0	217.036	0	91.5	4	31.0	4	-1E+10	1	-1E+10	1	-1E+10	1	-1E+10	1	-1E+10	1	-1E+10	1
4902663	22	C	03/10/2024	00:13	-127.642	48.549	0	220.10	0	7.1520	0	33.9370	0	26.564	0	218.126	0	91.1	4	30.9	4	-1E+10	1	-1E+10	1	-1E+10	1	-1E+10	1	-1E+10	1	-1E+10	1
4902663	22	C	03/10/2024	00:13	-127.642	48.549	0	221.30	0	7.1460	0	33.9420	0	26.568	0	219.314	0	90.7	4	30.8	4	-1E+10	1	-1E+10	1	-1E+10	1	-1E+10	1	-1E+10	1	-1E+10	1
4902663	22	C	03/10/2024	00:13	-127.642	48.549	0	222.40	0	7.1360	0	33.9440	0	26.571	0	220.404	0	90.3	4	30.6	4	-1E+10	1	-1E+10	1	-1E+10	1	-1E+10	1	-1E+10	1	-1E+10	1
4902663	22	C	03/10/2024	00:13	-127.642	48.549	0	223.50	0	7.1310	0	33.9430	0	26.571	0	221.493	0	90.0	4	30.5	4	-1E+10	1	-1E+10	1	-1E+10	1	-1E+10	1	-1E+10	1	-1E+10	1
4902663	22	C	03/10/2024	00:13	-127.642	48.549	0	224.60	0	7.1160	0	33.9440	0	26.574	0	222.583	0	89.7	4	30.4	4	-1E+10	1	-1E+10	1	-1E+10	1	-1E+10	1	-1E+10	1	-1E+10	1
4902663	22	C	03/10/2024	00:13	-127.642	48.549	0	225.80	0	7.0890	0	33.9440	0	26.578	0	223.772	0	89.5	4	30.3	4	-1E+10	1	-1E+10	1	-1E+10	1	-1E+10	1	-1E+10	1	-1E+10	1
4902663	22	C	03/10/2024	00:13	-127.642	48.549	0	226.90	0	7.0670	0	33.9430	0	26.580	0	224.861	0	89.2	4	30.2	4	-1E+10	1	-1E+10	1	-1E+10	1	-1E+10	1	-1E+10	1	-1E+10	1
4902663	22	C	03/10/2024	00:13	-127.642	48.549	0	228.10	0	7.0590	0	33.9430	0	26.581	0	226.050	0	88.9	4	30.1	4	-1E+10	1	-1E+10	1	-1E+10	1	-1E+10	1	-1E+10	1	-1E+10	1
4902663	22	C	03/10/2024	00:13	-127.642	48.549	0	229.20	0	7.0490	0	33.9430	0	26.583	0	227.139	0	88.7	4	30.0	4	-1E+10	1	-1E+10	1	-1E+10	1	-1E+10	1	-1E+10	1	-1E+10	1
4902663	22	C	03/10/2024	00:13	-127.642	48.549	0	230.40	0	7.0320	0	33.9430	0	26.585	0	228.328	0	88.4	4	29.9	4	-1E+10	1	-1E+10	1	-1E+10	1	-1E+10	1	-1E+10	1	-1E+10	1
4902663	22	C	03/10/2024	00:13	-127.642	48.549	0	231.50	0	7.0070	0	33.9390	0	26.585	0	229.417	0	88.0	4	29.8	4	-1E+10	1	-1E+10	1	-1E+10	1	-1E+10	1	-1E+10	1	-1E+10	1
4902663	22	C	03/10/2024	00:13	-127.642	48.549	0	232.60	0	6.9950	0	33.9390	0	26.587	0	230.507	0	87.4	4	29.6	4	-1E+10	1	-1E+10	1	-1E+10	1	-1E+10	1	-1E+10	1	-1E+10	1
4902663	22	C	03/10/2024	00:13	-127.642	48.549	0	233.80	0	6.9930	0	33.9390	0	26.587	0	231.695	0	86.8	4	29.4	4	-1E+10	1	-1E+10	1	-1E+10	1	-1E+10	1	-1E+10	1	-1E+10	1
4902663	22	C	03/10/2024	00:13	-127.642	48.549	0	234.90	0	6.9890	0	33.9390	0	26.588	0	232.785	0	86.2	4	29.1	4	-1E+10	1	-1E+10	1	-1E+10	1	-1E+10	1	-1E+10	1	-1E+10	1
4902663	22	C	03/10/2024	00:13	-127.642	48.549	0	236.00	0	6.9850	0	33.9440	0	26.592	0	233.874	0	85.6	4	28.9	4	-1E+10	1	-1E+10	1	-1E+10	1	-1E+10	1	-1E+10	1	-1E+10	1
4902663	22	C	03/10/2024	00:13	-127.642	48.549	0	237.20	0	6.9880	0	33.9430	0	26.591	0	235.063	0	85.0	4	28.7	4	-1E+10	1	-1E+10	1	-1E+10	1	-1E+10	1	-1E+10	1	-1E+10	1
4902663	22	C	03/10/2024	00:13	-127.642	48.549	0	238.30	0	6.9710	0	33.9500	0	26.599	0	236.152	0	84.6	4	28.6	4	-1E+10	1	-1E+10	1	-1E+10	1	-1E+10	1	-1E+10	1	-1E+10	1
4902663	22	C	03/10/2024	00:13	-127.642	48.549	0	239.50	0	6.9700	0	33.9520	0	26.601	0	237.341	0	84.2	4	28.5	4	-1E+10	1	-1E+10	1	-1E+10	1	-1E+10	1	-1E+10	1	-1E+10	1
4902663	22	C	03/10/2024	00:13	-127.642	48.549	0	240.60	0	6.9540	0	33.9520	0	26.603	0	238.430	0	83.8	4	28.3	4	-1E+10	1	-1E+10	1	-1E+10	1	-1E+10	1	-1E+10	1	-1E+10	1
4902663	22	C	03/10/2024	00:13	-127.642	48.549	0	241.70	0	6.9650	0	33.9540	0	26.603	0	239.520	0	83.4	4	28.2	4	-1E+10	1	-1E+10	1	-1E+10	1	-1E+10	1	-1E+10	1	-1E+10	1
4902663	22	C	03/10/2024	00:13	-127.642	48.549	0	242.90	0	6.9640	0	33.9550	0	26.604	0	240.708	0	82.9	4	28.0	4	-1E+10	1	-1E+10	1	-1E+10	1	-1E+10	1	-1E+10	1	-1E+10	1
4902663	22	C	03/10/2024	00:13	-127.642	48.549	0	244.00	0	6.9630	0	33.9560	0	26.605	0	241.797	0	82.5	4	27.9	4	-1E+10	1	-1E+10	1	-1E+10	1	-1E+10	1	-1E+10	1	-1E+10	1
4902663	22	C	03/10/2024	00:13	-127.642	48.549	0	245.10	0	6.9420	0	33.9560	0	26.608	0	242.887	0	82.1	4	27.7	4	-1E+10	1	-1E+10	1	-1E+10	1	-1E+10	1	-1E+10	1	-1E+10	1
4902663	22	C	03/10/2024	00:13	-127.642	48.549	0	246.20	0	6.9240	0	33.9570	0	26.611	0	243.976	0	81.7	4	27.6	4	-1E+10	1	-1E+10	1	-1E+10	1	-1E+10	1	-1E+10	1	-1E+10	1
4902663	22	C	03/10/2024	00:13	-127.642	48.549	0	247.40	0	6.9140	0	33.9600	0	26.615	0	245.165	0	81.4	4	27.5	4	-1E+10	1	-1E+10	1	-1E+10	1	-1E+10	1	-1E+10	1	-1E+10	1
4902663	22	C	03/10/2024	00:13	-127.642	48.549	0	248.50	0	6.9030	0	33.9620	0	26.618	0	246.254	0	81.0	4	27.3	4	-1E+10	1	-1E+10	1	-1E+10	1	-1E+10	1	-1E+10	1	-1E+10	1
4902663	22	C	03/10/2024	00:13	-127.642	48.549	0	249.60	0	6.8900	0	33.9610	0	26.619	0	247.344	0	80.7	4	27.2	4	-1E+10	1	-1E+10	1	-1E+10	1	-1E+10	1	-1E+10	1	-1E+10	1
4902663	22	C	03/10/2024	00:13	-127.642	48.549	0	250.80	0	6.8710	0	33.9640	0	26.624	0	248.532	0	80.4	4	27.1	4	-1E+10	1	-1E+10	1	-1E+10	1	-1E+10	1	-1E+10	1	-1E+10	1
4902663	22	C	03/10/2024	00:13	-127.642	48.549	0	251.90	0	6.8570	0	33.9630	0	26.625	0	249.621	0	80.1	4	27.0	4	-1E+10	1	-1E+10	1	-1E+10	1	-1E+10	1	-1E+10	1	-1E+10	1
4902663	22	C	03/10/2024	00:13	-127.642	48.549	0	253.10	0	6.8400	0	33.9640	0	26.628	0	250.810	0	79.8	4	26.9	4	-1E+10	1	-1E+10	1	-1E+10	1	-1E+10	1	-1E+10	1	-1E+10	1
4902663	22	C	03/10/2024	00:13	-127.642	48.549	0	254.20	0	6.8370	0	33.9640	0	26.628	0	251.899	0	79.6	4	26.8	4	-1E+10	1	-1E+10	1	-1E+10	1	-1E+10	1	-1E+10	1	-1E+10	1
4902663	22	C	03/10/2024	00:13	-127.642	48.549	0	255.40	0	6.8230	0	33.9670	0	26.632	0	253.088	0	79.3	4	26.7	4	-1E+10	1	-1E+10	1	-1E+10	1	-1E+10	1	-1E+10	1	-1E+10	1
4902663	22	C	03/10/2024	00:13	-127.642	48.549	0	256.50	0	6.8150	0	33.9680	0	26.634	0	254.177	0	79.1	4	26.6	4	-1E+10	1	-1E+10	1	-1E+10	1	-1E+10	1	-1E+10	1	-1E+10	1
4902663	22	C	03/10/2024	00:13	-127.642	48.549	0	257.70	0	6.7930	0	33.9700	0	26.639	0	255.365	0	78.9	4	26.6	4	-1E+10	1	-1E+10	1	-1E+10	1	-1E+10	1	-1E+10	1	-1E+10	1
4902663	22	C	03/10/2024	00:13	-127.642	48.549	0	258.80	0	6.7890	0	33.9700	0	26.639	0	256.455	0	78.8	4	26.5	4	-1E+10	1	-1E+10	1	-1E+10	1	-1E+10	1	-1E+10	1	-1E+10	1
4902663	22	C	03/10/2024	00:13	-127.642	48.549	0	260.00	0	6.7880	0	33.9700	0	26.640	0	257.643	0	78.7	4	26.5	4	-1E+10	1	-1E+10	1	-1E+10	1	-1E+10	1	-1E+10	1	-1E+10	1
4902663	22	C	03/10/2024	00:13	-127.642	48.549	0	261.10	0	6.7870	0	33.9690	0	26.639	0	258.732	0	78.6	4	26.5	4	-1E+10	1	-1E+10	1	-1E+10	1	-1E+10	1	-1E+10	1	-1E+10	1
4902663	22	C	03/10/2024	00:13	-127.642	48.549	0	262.20	0	6.7840	0	33.9690	0	26.639	0	259.822	0	78.5	4	26.4	4	-1E+10	1	-1E+10	1	-1E+10	1	-1E+10	1	-1E+10	1	-1E+10	1
4902663	22	C	03/10/2024	00:13	-127.642	48.549	0	263.30	0	6.7820	0	33.9700	0	26.640	0	260.911	0	78.3	4	26.4	4	-1E+10	1	-1E+10	1	-1E+10	1	-1E+10	1	-1E+10	1	-1E+10	1
4902663	22	C	03/10/2024	00:13	-127.642	48.549	0	264.40	0	6.7600	0	33.9700	0	26.643	0	262.000	0	78.2	4	26.3	4	-1E+10	1	-1E+10	1	-1E+10	1	-1E+10	1	-1E+10	1	-1E+10	1
4902663	22	C	03/10/2024	00:13	-127.642	48.549	0	265.50	0	6.7440	0	33.9700	0	26.646	0	263.090	0	78.2	4	26.3	4	-1E+10	1	-1E+10	1	-1E+10	1	-1E+10	1	-1E+10	1	-1E+10	1
4902663	22	C	03/10/2024	00:13	-127.642	48.549	0	266.60	0	6.7360	0	33.9700	0	26.647	0	264.179	0	78.1	4	26.3	4	-1E+10	1	-1E+10	1	-1E+10	1	-1E+10	1	-1E+10	1	-1E+10	1
4902663	22	C	03/10/2024	00:13	-127.642	48.549	0	267.70	0	6.7160	0	33.9730	0	26.652	0	265.268	0	78.1	4	26.2	4	-1E+10	1	-1E+10	1	-1E+10	1	-1E+10	1	-1E+10	1	-1E+10	1
4902663	22	C	03/10/2024	00:13	-127.642	48.549	0	268.80	0	6.7030	0	33.9680	0	26.649	0	266.358	0	78.0	4	26.2	4	-1E+10	1	-1E+10	1	-1E+10	1	-1E+10	1	-1E+10	1	-1E+10	1
4902663	22	C	03/10/2024	00:13	-127.642	48.549	0	269.90	0	6.6820	0	33.9680	0	26.652	0	267.447	0	77.9	4	26.2	4	-1E+10	1	-1E+10	1	-1E+10	1	-1E+10	1	-1E+10	1	-1E+10	1
4902663	22	C	03/10/2024	00:13	-127.642	48.549	0	271.00	0	6.6750	0	33.9690	0	26.654	0	268.536	0	77.7	4	26.1	4	-1E+10	1	-1E+10	1	-1E+10	1	-1E+10	1	-1E+10	1	-1E+10	1
4902663	22	C	03/10/2024	00:13	-127.642	48.549	0	272.10	0	6.6640	0	33.9670	0	26.654	0	269.626	0	77.5	4	26.0	4	-1E+10	1	-1E+10	1	-1E+10	1	-1E+10	1	-1E+10	1	-1E+10	1
4902663	22	C	03/10/2024	00:13	-127.642	48.549	0	273.20	0	6.6600	0	33.9670	0	26.654	0	270.715	0	77.3	4	25.9	4	-1E+10	1	-1E+10	1	-1E+10	1	-1E+10	1	-1E+10	1	-1E+10	1
4902663	22	C	03/10/2024	00:13	-127.642	48.549	0	274.30	0	6.6500	0	33.9670	0	26.656	0	271.804	0	77.1	4	25.9	4	-1E+10	1	-1E+10	1	-1E+10	1	-1E+10	1	-1E+10	1	-1E+10	1
4902663	22	C	03/10/2024	00:13	-127.642	48.549	0	275.30	0	6.6340	0	33.9670	0	26.658	0	272.794	0	76.9	4	25.8	4	-1E+10	1	-1E+10	1	-1E+10	1	-1E+10	1	-1E+10	1	-1E+10	1
4902663	22	C	03/10/2024	00:13	-127.642	48.549	0	276.40	0	6.6280	0	33.9670	0	26.659	0	273.884	0	76.6	4	25.7	4	-1E+10	1	-1E+10	1	-1E+10	1	-1E+10	1	-1E+10	1	-1E+10	1
4902663	22	C	03/10/2024	00:13	-127.642	48.549	0	277.50	0	6.5880	0	33.9650	0	26.662	0	274.973	0	76.3	4	25.6	4	-1E+10	1	-1E+10	1	-1E+10	1	-1E+10	1	-1E+10	1	-1E+10	1
4902663	22	C	03/10/2024	00:13	-127.642	48.549	0	278.50	0	6.5630	0	33.9690	0	26.669	0	275.963	0	76.0	4	25.4	4	-1E+10	1	-1E+10	1	-1E+10	1	-1E+10	1	-1E+10	1	-1E+10	1
4902663	22	C	03/10/2024	00:13	-127.642	48.549	0	279.60	0	6.5620	0	33.9680	0	26.668	0	277.052	0	75.7	4	25.3	4	-1E+10	1	-1E+10	1	-1E+10	1	-1E+10	1	-1E+10	1	-1E+10	1
4902663	22	C	03/10/2024	00:13	-127.642	48.549	0	280.70	0	6.5550	0	33.9680	0	26.669	0	278.142	0	75.3	4	25.2	4	-1E+10	1	-1E+10	1	-1E+10	1	-1E+10	1	-1E+10	1	-1E+10	1
4902663	22	C	03/10/2024	00:13	-127.642	48.549	0	281.70	0	6.5290	0	33.9680	0	26.673	0	279.132	0	75.0	4	25.1	4	-1E+10	1	-1E+10	1	-1E+10	1	-1E+10	1	-1E+10	1	-1E+10	1
4902663	22	C	03/10/2024	00:13	-127.642	48.549	0	282.80	0	6.5280	0	33.9700	0	26.674	0	280.221	0	74.7	4	25.0	4	-1E+10	1	-1E+10	1	-1E+10	1	-1E+10	1	-1E+10	1	-1E+10	1
4902663	22	C	03/10/2024	00:13	-127.642	48.549	0	283.80	0	6.5260	0	33.9730	0	26.677	0	281.211	0	74.4	4	24.9	4	-1E+10	1	-1E+10	1	-1E+10	1	-1E+10	1	-1E+10	1	-1E+10	1
4902663	22	C	03/10/2024	00:13	-127.642	48.549	0	284.90	0	6.5270	0	33.9740	0	26.678	0	282.300	0	74.2	4	24.8	4	-1E+10	1	-1E+10	1	-1E+10	1	-1E+10	1	-1E+10	1	-1E+10	1
4902663	22	C	03/10/2024	00:13	-127.642	48.549	0	285.90	0	6.5210	0	33.9750	0	26.679	0	283.291	0	74.0	4	24.8	4	-1E+10	1	-1E+10	1	-1E+10	1	-1E+10	1	-1E+10	1	-1E+10	1
4902663	22	C	03/10/2024	00:13	-127.642	48.549	0	287.00	0	6.5180	0	33.9750	0	26.680	0	284.380	0	73.8	4	24.7	4	-1E+10	1	-1E+10	1	-1E+10	1	-1E+10	1	-1E+10	1	-1E+10	1
4902663	22	C	03/10/2024	00:13	-127.642	48.549	0	288.00	0	6.5080	0	33.9750	0	26.681	0	285.370	0	73.6	4	24.6	4	-1E+10	1	-1E+10	1	-1E+10	1	-1E+10	1	-1E+10	1	-1E+10	1
4902663	22	C	03/10/2024	00:13	-127.642	48.549	0	289.00	0	6.4960	0	33.9740	0	26.682	0	286.360	0	73.3	4	24.5	4	-1E+10	1	-1E+10	1	-1E+10	1	-1E+10	1	-1E+10	1	-1E+10	1
4902663	22	C	03/10/2024	00:13	-127.642	48.549	0	290.20	0	6.4900	0	33.9730	0	26.682	0	287.548	0	72.9	4	24.4	4	-1E+10	1	-1E+10	1	-1E+10	1	-1E+10	1	-1E+10	1	-1E+10	1
4902663	22	C	03/10/2024	00:13	-127.642	48.549	0	290.90	0	6.4870	0	33.9730	0	26.682	0	288.241	0	72.6	4	24.3	4	-1E+10	1	-1E+10	1	-1E+10	1	-1E+10	1	-1E+10	1	-1E+10	1
4902663	22	C	03/10/2024	00:13	-127.642	48.549	0	291.70	0	6.4850	0	33.9720	0	26.682	0	289.034	0	72.3	4	24.2	4	-1E+10	1	-1E+10	1	-1E+10	1	-1E+10	1	-1E+10	1	-1E+10	1
4902663	22	C	03/10/2024	00:13	-127.642	48.549	0	292.80	0	6.4150	0	33.9720	0	26.691	0	290.123	0	71.8	4	24.0	4	-1E+10	1	-1E+10	1	-1E+10	1	-1E+10	1	-1E+10	1	-1E+10	1
4902663	22	C	03/10/2024	00:13	-127.642	48.549	0	294.00	0	6.3840	0	33.9700	0	26.693	0	291.311	0	71.1	4	23.7	4	-1E+10	1	-1E+10	1	-1E+10	1	-1E+10	1	-1E+10	1	-1E+10	1
4902663	22	C	03/10/2024	00:13	-127.642	48.549	0	294.70	0	6.3980	0	33.9730	0	26.694	0	292.004	0	70.7	4	23.6	4	-1E+10	1	-1E+10	1	-1E+10	1	-1E+10	1	-1E+10	1	-1E+10	1
4902663	22	C	03/10/2024	00:13	-127.642	48.549	0	295.90	0	6.4200	0	33.9710	0	26.689	0	293.192	0	70.3	4	23.5	4	-1E+10	1	-1E+10	1	-1E+10	1	-1E+10	1	-1E+10	1	-1E+10	1
4902663	22	C	03/10/2024	00:13	-127.642	48.549	0	297.00	0	6.4330	0	33.9850	0	26.699	0	294.281	0	70.3	4	23.5	4	-1E+10	1	-1E+10	1	-1E+10	1	-1E+10	1	-1E+10	1	-1E+10	1
4902663	22	C	03/10/2024	00:13	-127.642	48.549	0	297.80	0	6.4240	0	33.9930	0	26.706	0	295.073	0	70.3	4	23.5	4	-1E+10	1	-1E+10	1	-1E+10	1	-1E+10	1	-1E+10	1	-1E+10	1
4902663	22	C	03/10/2024	00:13	-127.642	48.549	0	299.00	0	6.3720	0	33.9860	0	26.707	0	296.262	0	70.4	4	23.5	4	-1E+10	1	-1E+10	1	-1E+10	1	-1E+10	1	-1E+10	1	-1E+10	1
4902663	22	C	03/10/2024	00:13	-127.642	48.549	0	300.20	0	6.3110	0	33.9780	0	26.709	0	297.450	0	70.1	4	23.4	4	-1E+10	1	-1E+10	1	-1E+10	1	-1E+10	1	-1E+10	1	-1E+10	1
4902663	22	C	03/10/2024	00:13	-127.642	48.549	0	301.00	0	6.3250	0	33.9780	0	26.707	0	298.242	0	69.9	4	23.3	4	-1E+10	1	-1E+10	1	-1E+10	1	-1E+10	1	-1E+10	1	-1E+10	1
4902663	22	C	03/10/2024	00:13	-127.642	48.549	0	301.80	0	6.3160	0	33.9790	0	26.709	0	299.034	0	69.7	4	23.2	4	-1E+10	1	-1E+10	1	-1E+10	1	-1E+10	1	-1E+10	1	-1E+10	1
4902663	22	C	03/10/2024	00:13	-127.642	48.549	0	303.00	0	6.2950	0	33.9760	0	26.710	0	300.222	0	69.2	4	23.0	4	-1E+10	1	-1E+10	1	-1E+10	1	-1E+10	1	-1E+10	1	-1E+10	1
4902663	22	C	03/10/2024	00:13	-127.642	48.549	0	304.20	0	6.2820	0	33.9780	0	26.713	0	301.410	0	68.5	4	22.8	4	-1E+10	1	-1E+10	1	-1E+10	1	-1E+10	1	-1E+10	1	-1E+10	1
4902663	22	C	03/10/2024	00:13	-127.642	48.549	0	305.00	0	6.2720	0	33.9760	0	26.712	0	302.202	0	68.0	4	22.6	4	-1E+10	1	-1E+10	1	-1E+10	1	-1E+10	1	-1E+10	1	-1E+10	1
4902663	22	C	03/10/2024	00:13	-127.642	48.549	0	305.80	0	6.2640	0	33.9760	0	26.714	0	302.994	0	67.4	4	22.4	4	-1E+10	1	-1E+10	1	-1E+10	1	-1E+10	1	-1E+10	1	-1E+10	1
4902663	22	C	03/10/2024	00:13	-127.642	48.549	0	307.00	0	6.3160	0	33.9830	0	26.712	0	304.182	0	66.8	4	22.2	4	-1E+10	1	-1E+10	1	-1E+10	1	-1E+10	1	-1E+10	1	-1E+10	1
4902663	22	C	03/10/2024	00:13	-127.642	48.549	0	308.20	0	6.3170	0	33.9870	0	26.715	0	305.371	0	66.4	4	22.1	4	-1E+10	1	-1E+10	1	-1E+10	1	-1E+10	1	-1E+10	1	-1E+10	1
4902663	22	C	03/10/2024	00:13	-127.642	48.549	0	309.00	0	6.2770	0	33.9850	0	26.719	0	306.163	0	66.0	4	22.0	4	-1E+10	1	-1E+10	1	-1E+10	1	-1E+10	1	-1E+10	1	-1E+10	1
4902663	22	C	03/10/2024	00:13	-127.642	48.549	0	309.80	0	6.2760	0	33.9830	0	26.718	0	306.955	0	65.5	4	21.8	4	-1E+10	1	-1E+10	1	-1E+10	1	-1E+10	1	-1E+10	1	-1E+10	1
4902663	22	C	03/10/2024	00:13	-127.642	48.549	0	311.00	0	6.2660	0	33.9850	0	26.720	0	308.143	0	64.7	4	21.5	4	-1E+10	1	-1E+10	1	-1E+10	1	-1E+10	1	-1E+10	1	-1E+10	1
4902663	22	C	03/10/2024	00:13	-127.642	48.549	0	312.20	0	6.2710	0	33.9890	0	26.723	0	309.331	0	63.9	4	21.3	4	-1E+10	1	-1E+10	1	-1E+10	1	-1E+10	1	-1E+10	1	-1E+10	1
4902663	22	C	03/10/2024	00:13	-127.642	48.549	0	312.90	0	6.2680	0	33.9830	0	26.719	0	310.024	0	63.4	4	21.1	4	-1E+10	1	-1E+10	1	-1E+10	1	-1E+10	1	-1E+10	1	-1E+10	1
4902663	22	C	03/10/2024	00:13	-127.642	48.549	0	313.70	0	6.2830	0	33.9940	0	26.725	0	310.816	0	63.0	4	21.0	4	-1E+10	1	-1E+10	1	-1E+10	1	-1E+10	1	-1E+10	1	-1E+10	1
4902663	22	C	03/10/2024	00:13	-127.642	48.549	0	314.90	0	6.2690	0	33.9940	0	26.727	0	312.004	0	62.5	4	20.8	4	-1E+10	1	-1E+10	1	-1E+10	1	-1E+10	1	-1E+10	1	-1E+10	1
4902663	22	C	03/10/2024	00:13	-127.642	48.549	0	316.10	0	6.2590	0	33.9960	0	26.730	0	313.192	0	62.0	4	20.6	4	-1E+10	1	-1E+10	1	-1E+10	1	-1E+10	1	-1E+10	1	-1E+10	1
4902663	22	C	03/10/2024	00:13	-127.642	48.549	0	316.90	0	6.2450	0	33.9980	0	26.733	0	313.984	0	61.7	4	20.5	4	-1E+10	1	-1E+10	1	-1E+10	1	-1E+10	1	-1E+10	1	-1E+10	1
4902663	22	C	03/10/2024	00:13	-127.642	48.549	0	317.80	0	6.2430	0	33.9970	0	26.733	0	314.875	0	61.3	4	20.4	4	-1E+10	1	-1E+10	1	-1E+10	1	-1E+10	1	-1E+10	1	-1E+10	1
4902663	22	C	03/10/2024	00:13	-127.642	48.549	0	319.00	0	6.2340	0	34.0020	0	26.738	0	316.063	0	60.8	4	20.2	4	-1E+10	1	-1E+10	1	-1E+10	1	-1E+10	1	-1E+10	1	-1E+10	1
4902663	22	C	03/10/2024	00:13	-127.642	48.549	0	320.20	0	6.2100	0	34.0020	0	26.741	0	317.251	0	60.4	4	20.1	4	-1E+10	1	-1E+10	1	-1E+10	1	-1E+10	1	-1E+10	1	-1E+10	1
4902663	22	C	03/10/2024	00:13	-127.642	48.549	0	321.00	0	6.2050	0	34.0030	0	26.743	0	318.043	0	60.2	4	20.0	4	-1E+10	1	-1E+10	1	-1E+10	1	-1E+10	1	-1E+10	1	-1E+10	1
4902663	22	C	03/10/2024	00:13	-127.642	48.549	0	321.80	0	6.2030	0	34.0030	0	26.743	0	318.835	0	59.9	4	19.9	4	-1E+10	1	-1E+10	1	-1E+10	1	-1E+10	1	-1E+10	1	-1E+10	1
4902663	22	C	03/10/2024	00:13	-127.642	48.549	0	322.70	0	6.1930	0	34.0040	0	26.745	0	319.726	0	59.6	4	19.8	4	-1E+10	1	-1E+10	1	-1E+10	1	-1E+10	1	-1E+10	1	-1E+10	1
4902663	22	C	03/10/2024	00:13	-127.642	48.549	0	323.90	0	6.1630	0	34.0060	0	26.750	0	320.914	0	59.1	4	19.6	4	-1E+10	1	-1E+10	1	-1E+10	1	-1E+10	1	-1E+10	1	-1E+10	1
4902663	22	C	03/10/2024	00:13	-127.642	48.549	0	325.20	0	6.1530	0	34.0070	0	26.752	0	322.201	0	58.6	4	19.4	4	-1E+10	1	-1E+10	1	-1E+10	1	-1E+10	1	-1E+10	1	-1E+10	1
4902663	22	C	03/10/2024	00:13	-127.642	48.549	0	326.10	0	6.1400	0	34.0080	0	26.755	0	323.092	0	58.3	4	19.3	4	-1E+10	1	-1E+10	1	-1E+10	1	-1E+10	1	-1E+10	1	-1E+10	1
4902663	22	C	03/10/2024	00:13	-127.642	48.549	0	326.90	0	6.1330	0	34.0070	0	26.755	0	323.884	0	58.0	4	19.2	4	-1E+10	1	-1E+10	1	-1E+10	1	-1E+10	1	-1E+10	1	-1E+10	1
4902663	22	C	03/10/2024	00:13	-127.642	48.549	0	327.80	0	6.1470	0	34.0100	0	26.756	0	324.775	0	57.8	4	19.2	4	-1E+10	1	-1E+10	1	-1E+10	1	-1E+10	1	-1E+10	1	-1E+10	1
4902663	22	C	03/10/2024	00:13	-127.642	48.549	0	328.70	0	6.1460	0	34.0130	0	26.758	0	325.666	0	57.5	4	19.1	4	-1E+10	1	-1E+10	1	-1E+10	1	-1E+10	1	-1E+10	1	-1E+10	1
4902663	22	C	03/10/2024	00:13	-127.642	48.549	0	329.90	0	6.1420	0	34.0130	0	26.759	0	326.854	0	57.2	4	19.0	4	-1E+10	1	-1E+10	1	-1E+10	1	-1E+10	1	-1E+10	1	-1E+10	1
4902663	22	C	03/10/2024	00:13	-127.642	48.549	0	331.30	0	6.1360	0	34.0150	0	26.761	0	328.240	0	56.8	4	18.8	4	-1E+10	1	-1E+10	1	-1E+10	1	-1E+10	1	-1E+10	1	-1E+10	1
4902663	22	C	03/10/2024	00:13	-127.642	48.549	0	332.20	0	6.1340	0	34.0150	0	26.761	0	329.131	0	56.5	4	18.7	4	-1E+10	1	-1E+10	1	-1E+10	1	-1E+10	1	-1E+10	1	-1E+10	1
4902663	22	C	03/10/2024	00:13	-127.642	48.549	0	333.00	0	6.1240	0	34.0160	0	26.763	0	329.923	0	56.3	4	18.7	4	-1E+10	1	-1E+10	1	-1E+10	1	-1E+10	1	-1E+10	1	-1E+10	1
4902663	22	C	03/10/2024	00:13	-127.642	48.549	0	334.00	0	6.1200	0	34.0160	0	26.764	0	330.913	0	56.1	4	18.6	4	-1E+10	1	-1E+10	1	-1E+10	1	-1E+10	1	-1E+10	1	-1E+10	1
4902663	22	C	03/10/2024	00:13	-127.642	48.549	0	334.80	0	6.1180	0	34.0170	0	26.765	0	331.705	0	55.8	4	18.5	4	-1E+10	1	-1E+10	1	-1E+10	1	-1E+10	1	-1E+10	1	-1E+10	1
4902663	22	C	03/10/2024	00:13	-127.642	48.549	0	335.70	0	6.1170	0	34.0170	0	26.765	0	332.596	0	55.6	4	18.4	4	-1E+10	1	-1E+10	1	-1E+10	1	-1E+10	1	-1E+10	1	-1E+10	1
4902663	22	C	03/10/2024	00:13	-127.642	48.549	0	336.70	0	6.0940	0	34.0160	0	26.767	0	333.586	0	55.4	4	18.3	4	-1E+10	1	-1E+10	1	-1E+10	1	-1E+10	1	-1E+10	1	-1E+10	1
4902663	22	C	03/10/2024	00:13	-127.642	48.549	0	337.60	0	6.0700	0	34.0160	0	26.770	0	334.477	0	55.1	4	18.3	4	-1E+10	1	-1E+10	1	-1E+10	1	-1E+10	1	-1E+10	1	-1E+10	1
4902663	22	C	03/10/2024	00:13	-127.642	48.549	0	338.90	0	6.0700	0	34.0160	0	26.770	0	335.764	0	54.6	4	18.1	4	-1E+10	1	-1E+10	1	-1E+10	1	-1E+10	1	-1E+10	1	-1E+10	1
4902663	22	C	03/10/2024	00:13	-127.642	48.549	0	340.40	0	6.0850	0	34.0220	0	26.773	0	337.249	0	54.3	4	18.0	4	-1E+10	1	-1E+10	1	-1E+10	1	-1E+10	1	-1E+10	1	-1E+10	1
4902663	22	C	03/10/2024	00:13	-127.642	48.549	0	341.30	0	6.0770	0	34.0240	0	26.776	0	338.140	0	54.1	4	17.9	4	-1E+10	1	-1E+10	1	-1E+10	1	-1E+10	1	-1E+10	1	-1E+10	1
4902663	22	C	03/10/2024	00:13	-127.642	48.549	0	342.30	0	6.0730	0	34.0250	0	26.777	0	339.130	0	53.9	4	17.9	4	-1E+10	1	-1E+10	1	-1E+10	1	-1E+10	1	-1E+10	1	-1E+10	1
4902663	22	C	03/10/2024	00:13	-127.642	48.549	0	343.20	0	6.0670	0	34.0250	0	26.778	0	340.021	0	53.8	4	17.8	4	-1E+10	1	-1E+10	1	-1E+10	1	-1E+10	1	-1E+10	1	-1E+10	1
4902663	22	C	03/10/2024	00:13	-127.642	48.549	0	344.10	0	6.0650	0	34.0250	0	26.778	0	340.911	0	53.6	4	17.8	4	-1E+10	1	-1E+10	1	-1E+10	1	-1E+10	1	-1E+10	1	-1E+10	1
4902663	22	C	03/10/2024	00:13	-127.642	48.549	0	345.10	0	6.0580	0	34.0250	0	26.779	0	341.901	0	53.5	4	17.7	4	-1E+10	1	-1E+10	1	-1E+10	1	-1E+10	1	-1E+10	1	-1E+10	1
4902663	22	C	03/10/2024	00:13	-127.642	48.549	0	346.00	0	6.0530	0	34.0250	0	26.779	0	342.792	0	53.3	4	17.7	4	-1E+10	1	-1E+10	1	-1E+10	1	-1E+10	1	-1E+10	1	-1E+10	1
4902663	22	C	03/10/2024	00:13	-127.642	48.549	0	347.00	0	6.0540	0	34.0250	0	26.779	0	343.782	0	53.2	4	17.6	4	-1E+10	1	-1E+10	1	-1E+10	1	-1E+10	1	-1E+10	1	-1E+10	1
4902663	22	C	03/10/2024	00:13	-127.642	48.549	0	347.90	0	6.0530	0	34.0260	0	26.780	0	344.673	0	53.1	4	17.6	4	-1E+10	1	-1E+10	1	-1E+10	1	-1E+10	1	-1E+10	1	-1E+10	1
4902663	22	C	03/10/2024	00:13	-127.642	48.549	0	348.80	0	6.0470	0	34.0260	0	26.781	0	345.564	0	52.9	4	17.5	4	-1E+10	1	-1E+10	1	-1E+10	1	-1E+10	1	-1E+10	1	-1E+10	1
4902663	22	C	03/10/2024	00:13	-127.642	48.549	0	349.80	0	6.0230	0	34.0250	0	26.783	0	346.554	0	52.8	4	17.5	4	-1E+10	1	-1E+10	1	-1E+10	1	-1E+10	1	-1E+10	1	-1E+10	1
4902663	22	C	03/10/2024	00:13	-127.642	48.549	0	352.60	0	5.9810	0	34.0230	0	26.787	0	349.326	0	52.3	4	17.3	4	-1E+10	1	-1E+10	1	-1E+10	1	-1E+10	1	-1E+10	1	-1E+10	1
4902663	22	C	03/10/2024	00:13	-127.642	48.549	0	357.80	0	5.9470	0	34.0240	0	26.792	0	354.473	0	51.0	4	16.9	4	-1E+10	1	-1E+10	1	-1E+10	1	-1E+10	1	-1E+10	1	-1E+10	1
4902663	22	C	03/10/2024	00:13	-127.642	48.549	0	363.10	0	5.8670	0	34.0260	0	26.804	0	359.719	0	49.3	4	16.3	4	-1E+10	1	-1E+10	1	-1E+10	1	-1E+10	1	-1E+10	1	-1E+10	1
4902663	22	C	03/10/2024	00:13	-127.642	48.549	0	368.10	0	5.8270	0	34.0280	0	26.810	0	364.668	0	47.4	4	15.6	4	-1E+10	1	-1E+10	1	-1E+10	1	-1E+10	1	-1E+10	1	-1E+10	1
4902663	22	C	03/10/2024	00:13	-127.642	48.549	0	373.00	0	5.8760	0	34.0430	0	26.816	0	369.518	0	44.7	4	14.7	4	-1E+10	1	-1E+10	1	-1E+10	1	-1E+10	1	-1E+10	1	-1E+10	1
4902663	22	C	03/10/2024	00:13	-127.642	48.549	0	378.10	0	5.9430	0	34.0620	0	26.823	0	374.566	0	43.8	4	14.5	4	-1E+10	1	-1E+10	1	-1E+10	1	-1E+10	1	-1E+10	1	-1E+10	1
4902663	22	C	03/10/2024	00:13	-127.642	48.549	0	383.10	0	5.9380	0	34.0620	0	26.823	0	379.514	0	43.5	4	14.4	4	-1E+10	1	-1E+10	1	-1E+10	1	-1E+10	1	-1E+10	1	-1E+10	1
4902663	22	C	03/10/2024	00:13	-127.642	48.549	0	388.20	0	5.9030	0	34.0610	0	26.827	0	384.562	0	43.6	4	14.4	4	-1E+10	1	-1E+10	1	-1E+10	1	-1E+10	1	-1E+10	1	-1E+10	1
4902663	22	C	03/10/2024	00:13	-127.642	48.549	0	393.30	0	5.8450	0	34.0570	0	26.831	0	389.609	0	44.0	4	14.5	4	-1E+10	1	-1E+10	1	-1E+10	1	-1E+10	1	-1E+10	1	-1E+10	1
4902663	22	C	03/10/2024	00:13	-127.642	48.549	0	397.90	0	5.7780	0	34.0510	0	26.835	0	394.162	0	44.2	4	14.5	4	-1E+10	1	-1E+10	1	-1E+10	1	-1E+10	1	-1E+10	1	-1E+10	1
4902663	22	C	03/10/2024	00:13	-127.642	48.549	0	402.50	0	5.6710	0	34.0430	0	26.841	0	398.714	0	44.0	4	14.5	4	-1E+10	1	-1E+10	1	-1E+10	1	-1E+10	1	-1E+10	1	-1E+10	1
4902663	22	C	03/10/2024	00:13	-127.642	48.549	0	407.70	0	5.6020	0	34.0430	0	26.850	0	403.860	0	43.5	4	14.2	4	-1E+10	1	-1E+10	1	-1E+10	1	-1E+10	1	-1E+10	1	-1E+10	1
4902663	22	C	03/10/2024	00:13	-127.642	48.549	0	412.80	0	5.5320	0	34.0410	0	26.857	0	408.907	0	42.8	4	14.0	4	-1E+10	1	-1E+10	1	-1E+10	1	-1E+10	1	-1E+10	1	-1E+10	1
4902663	22	C	03/10/2024	00:13	-127.642	48.549	0	417.90	0	5.4620	0	34.0410	0	26.865	0	413.954	0	41.1	4	13.4	4	-1E+10	1	-1E+10	1	-1E+10	1	-1E+10	1	-1E+10	1	-1E+10	1
4902663	22	C	03/10/2024	00:13	-127.642	48.549	0	422.80	0	5.4780	0	34.0510	0	26.871	0	418.803	0	39.4	4	12.9	4	-1E+10	1	-1E+10	1	-1E+10	1	-1E+10	1	-1E+10	1	-1E+10	1
4902663	22	C	03/10/2024	00:13	-127.642	48.549	0	427.70	0	5.4440	0	34.0580	0	26.881	0	423.651	0	38.5	4	12.6	4	-1E+10	1	-1E+10	1	-1E+10	1	-1E+10	1	-1E+10	1	-1E+10	1
4902663	22	C	03/10/2024	00:13	-127.642	48.549	0	432.60	0	5.4370	0	34.0600	0	26.883	0	428.500	0	37.6	4	12.3	4	-1E+10	1	-1E+10	1	-1E+10	1	-1E+10	1	-1E+10	1	-1E+10	1
4902663	22	C	03/10/2024	00:13	-127.642	48.549	0	437.90	0	5.4160	0	34.0640	0	26.889	0	433.744	0	36.7	4	12.0	4	-1E+10	1	-1E+10	1	-1E+10	1	-1E+10	1	-1E+10	1	-1E+10	1
4902663	22	C	03/10/2024	00:13	-127.642	48.549	0	443.10	0	5.4000	0	34.0680	0	26.894	0	438.889	0	35.6	4	11.6	4	-1E+10	1	-1E+10	1	-1E+10	1	-1E+10	1	-1E+10	1	-1E+10	1
4902663	22	C	03/10/2024	00:13	-127.642	48.549	0	447.90	0	5.3570	0	34.0710	0	26.902	0	443.639	0	34.9	4	11.4	4	-1E+10	1	-1E+10	1	-1E+10	1	-1E+10	1	-1E+10	1	-1E+10	1
4902663	22	C	03/10/2024	00:13	-127.642	48.549	0	453.10	0	5.3320	0	34.0720	0	26.905	0	448.784	0	34.3	4	11.2	4	-1E+10	1	-1E+10	1	-1E+10	1	-1E+10	1	-1E+10	1	-1E+10	1
4902663	22	C	03/10/2024	00:13	-127.642	48.549	0	458.20	0	5.3130	0	34.0750	0	26.910	0	453.829	0	33.7	4	11.0	4	-1E+10	1	-1E+10	1	-1E+10	1	-1E+10	1	-1E+10	1	-1E+10	1
4902663	22	C	03/10/2024	00:13	-127.642	48.549	0	462.90	0	5.2830	0	34.0770	0	26.915	0	458.479	0	33.7	4	11.0	4	-1E+10	1	-1E+10	1	-1E+10	1	-1E+10	1	-1E+10	1	-1E+10	1
4902663	22	C	03/10/2024	00:13	-127.642	48.549	0	468.00	0	5.2330	0	34.0750	0	26.919	0	463.525	0	34.3	4	11.1	4	-1E+10	1	-1E+10	1	-1E+10	1	-1E+10	1	-1E+10	1	-1E+10	1
4902663	22	C	03/10/2024	00:13	-127.642	48.549	0	473.00	0	5.1530	0	34.0670	0	26.922	0	468.472	0	35.3	4	11.4	4	-1E+10	1	-1E+10	1	-1E+10	1	-1E+10	1	-1E+10	1	-1E+10	1
4902663	22	C	03/10/2024	00:13	-127.642	48.549	0	478.00	0	5.0440	0	34.0560	0	26.926	0	473.418	0	35.9	4	11.6	4	-1E+10	1	-1E+10	1	-1E+10	1	-1E+10	1	-1E+10	1	-1E+10	1
4902663	22	C	03/10/2024	00:13	-127.642	48.549	0	483.00	0	4.9510	0	34.0460	0	26.929	0	478.364	0	34.4	4	11.1	4	-1E+10	1	-1E+10	1	-1E+10	1	-1E+10	1	-1E+10	1	-1E+10	1
4902663	22	C	03/10/2024	00:13	-127.642	48.549	0	488.00	0	5.0280	0	34.0660	0	26.936	0	483.311	0	32.4	4	10.5	4	-1E+10	1	-1E+10	1	-1E+10	1	-1E+10	1	-1E+10	1	-1E+10	1
4902663	22	C	03/10/2024	00:13	-127.642	48.549	0	493.20	0	4.9780	0	34.0720	0	26.947	0	488.454	0	32.0	4	10.3	4	-1E+10	1	-1E+10	1	-1E+10	1	-1E+10	1	-1E+10	1	-1E+10	1
4902663	22	C	03/10/2024	00:13	-127.642	48.549	0	497.90	0	4.9120	0	34.0670	0	26.950	0	493.104	0	31.0	4	10.0	4	-1E+10	1	-1E+10	1	-1E+10	1	-1E+10	1	-1E+10	1	-1E+10	1
4902663	22	C	03/10/2024	00:13	-127.642	48.549	0	503.10	0	4.9170	0	34.0780	0	26.958	0	498.247	0	29.3	4	9.5	4	-1E+10	1	-1E+10	1	-1E+10	1	-1E+10	1	-1E+10	1	-1E+10	1
4902663	22	C	03/10/2024	00:13	-127.642	48.549	0	508.10	0	4.9200	0	34.0850	0	26.964	0	503.193	0	28.7	4	9.2	4	-1E+10	1	-1E+10	1	-1E+10	1	-1E+10	1	-1E+10	1	-1E+10	1
4902663	22	C	03/10/2024	00:13	-127.642	48.549	0	512.70	0	4.8600	0	34.0810	0	26.967	0	507.743	0	26.9	4	8.7	4	-1E+10	1	-1E+10	1	-1E+10	1	-1E+10	1	-1E+10	1	-1E+10	1
4902663	22	C	03/10/2024	00:13	-127.642	48.549	0	517.80	0	4.9490	0	34.1040	0	26.975	0	512.787	0	25.1	4	8.1	4	-1E+10	1	-1E+10	1	-1E+10	1	-1E+10	1	-1E+10	1	-1E+10	1
4902663	22	C	03/10/2024	00:13	-127.642	48.549	0	522.90	0	4.9490	0	34.1130	0	26.983	0	517.832	0	24.2	4	7.8	4	-1E+10	1	-1E+10	1	-1E+10	1	-1E+10	1	-1E+10	1	-1E+10	1
4902663	22	C	03/10/2024	00:13	-127.642	48.549	0	527.90	0	4.8940	0	34.1140	0	26.990	0	522.777	0	23.7	4	7.6	4	-1E+10	1	-1E+10	1	-1E+10	1	-1E+10	1	-1E+10	1	-1E+10	1
4902663	22	C	03/10/2024	00:13	-127.642	48.549	0	532.90	0	4.8220	0	34.1160	0	26.999	0	527.722	0	23.2	4	7.5	4	-1E+10	1	-1E+10	1	-1E+10	1	-1E+10	1	-1E+10	1	-1E+10	1
4902663	22	C	03/10/2024	00:13	-127.642	48.549	0	538.00	0	4.7650	0	34.1150	0	27.005	0	532.766	0	23.0	4	7.4	4	-1E+10	1	-1E+10	1	-1E+10	1	-1E+10	1	-1E+10	1	-1E+10	1
4902663	22	C	03/10/2024	00:13	-127.642	48.549	0	543.00	0	4.7340	0	34.1150	0	27.008	0	537.711	0	22.1	4	7.1	4	-1E+10	1	-1E+10	1	-1E+10	1	-1E+10	1	-1E+10	1	-1E+10	1
4902663	22	C	03/10/2024	00:13	-127.642	48.549	0	547.60	0	4.7090	0	34.1220	0	27.017	0	542.260	0	21.5	4	6.9	4	-1E+10	1	-1E+10	1	-1E+10	1	-1E+10	1	-1E+10	1	-1E+10	1
4902663	22	C	03/10/2024	00:13	-127.642	48.549	0	552.90	0	4.6800	0	34.1270	0	27.024	0	547.501	0	21.0	4	6.7	4	-1E+10	1	-1E+10	1	-1E+10	1	-1E+10	1	-1E+10	1	-1E+10	1
4902663	22	C	03/10/2024	00:13	-127.642	48.549	0	558.30	0	4.5900	0	34.1230	0	27.031	0	552.842	0	20.3	4	6.5	4	-1E+10	1	-1E+10	1	-1E+10	1	-1E+10	1	-1E+10	1	-1E+10	1
4902663	22	C	03/10/2024	00:13	-127.642	48.549	0	563.30	0	4.5830	0	34.1320	0	27.039	0	557.786	0	19.3	4	6.2	4	-1E+10	1	-1E+10	1	-1E+10	1	-1E+10	1	-1E+10	1	-1E+10	1
4902663	22	C	03/10/2024	00:13	-127.642	48.549	0	568.40	0	4.5710	0	34.1390	0	27.046	0	562.829	0	18.7	4	6.0	4	-1E+10	1	-1E+10	1	-1E+10	1	-1E+10	1	-1E+10	1	-1E+10	1
4902663	22	C	03/10/2024	00:13	-127.642	48.549	0	573.10	0	4.5500	0	34.1410	0	27.049	0	567.477	0	18.1	4	5.8	4	-1E+10	1	-1E+10	1	-1E+10	1	-1E+10	1	-1E+10	1	-1E+10	1
4902663	22	C	03/10/2024	00:13	-127.642	48.549	0	578.00	0	4.5480	0	34.1450	0	27.053	0	572.322	0	17.3	4	5.5	4	-1E+10	1	-1E+10	1	-1E+10	1	-1E+10	1	-1E+10	1	-1E+10	1
4902663	22	C	03/10/2024	00:13	-127.642	48.549	0	583.10	0	4.5380	0	34.1500	0	27.058	0	577.365	0	16.5	4	5.3	4	-1E+10	1	-1E+10	1	-1E+10	1	-1E+10	1	-1E+10	1	-1E+10	1
4902663	22	C	03/10/2024	00:13	-127.642	48.549	0	587.90	0	4.5270	0	34.1580	0	27.066	0	582.111	0	16.0	4	5.1	4	-1E+10	1	-1E+10	1	-1E+10	1	-1E+10	1	-1E+10	1	-1E+10	1
4902663	22	C	03/10/2024	00:13	-127.642	48.549	0	592.80	0	4.5070	0	34.1610	0	27.070	0	586.956	0	15.4	4	4.9	4	-1E+10	1	-1E+10	1	-1E+10	1	-1E+10	1	-1E+10	1	-1E+10	1
4902663	22	C	03/10/2024	00:13	-127.642	48.549	0	597.80	0	4.5220	0	34.1690	0	27.075	0	591.899	0	14.8	4	4.7	4	-1E+10	1	-1E+10	1	-1E+10	1	-1E+10	1	-1E+10	1	-1E+10	1
4902663	22	C	03/10/2024	00:13	-127.642	48.549	0	602.90	0	4.5210	0	34.1730	0	27.078	0	596.942	0	14.6	4	4.7	4	-1E+10	1	-1E+10	1	-1E+10	1	-1E+10	1	-1E+10	1	-1E+10	1
4902663	22	C	03/10/2024	00:13	-127.642	48.549	0	608.10	0	4.4780	0	34.1720	0	27.082	0	602.083	0	14.6	4	4.6	4	-1E+10	1	-1E+10	1	-1E+10	1	-1E+10	1	-1E+10	1	-1E+10	1
4902663	22	C	03/10/2024	00:13	-127.642	48.549	0	612.70	0	4.4420	0	34.1720	0	27.086	0	606.630	0	14.4	4	4.6	4	-1E+10	1	-1E+10	1	-1E+10	1	-1E+10	1	-1E+10	1	-1E+10	1
4902663	22	C	03/10/2024	00:13	-127.642	48.549	0	617.50	0	4.4230	0	34.1750	0	27.090	0	611.376	0	14.3	4	4.6	4	-1E+10	1	-1E+10	1	-1E+10	1	-1E+10	1	-1E+10	1	-1E+10	1
4902663	22	C	03/10/2024	00:13	-127.642	48.549	0	622.50	0	4.3860	0	34.1740	0	27.094	0	616.319	0	13.9	4	4.4	4	-1E+10	1	-1E+10	1	-1E+10	1	-1E+10	1	-1E+10	1	-1E+10	1
4902663	22	C	03/10/2024	00:13	-127.642	48.549	0	627.90	0	4.3640	0	34.1790	0	27.100	0	621.657	0	13.4	4	4.3	4	-1E+10	1	-1E+10	1	-1E+10	1	-1E+10	1	-1E+10	1	-1E+10	1
4902663	22	C	03/10/2024	00:13	-127.642	48.549	0	632.90	0	4.3550	0	34.1840	0	27.105	0	626.600	0	13.1	4	4.2	4	-1E+10	1	-1E+10	1	-1E+10	1	-1E+10	1	-1E+10	1	-1E+10	1
4902663	22	C	03/10/2024	00:13	-127.642	48.549	0	637.50	0	4.3500	0	34.1860	0	27.107	0	631.147	0	12.7	4	4.1	4	-1E+10	1	-1E+10	1	-1E+10	1	-1E+10	1	-1E+10	1	-1E+10	1
4902663	22	C	03/10/2024	00:13	-127.642	48.549	0	642.60	0	4.3460	0	34.1900	0	27.111	0	636.189	0	12.3	4	3.9	4	-1E+10	1	-1E+10	1	-1E+10	1	-1E+10	1	-1E+10	1	-1E+10	1
4902663	22	C	03/10/2024	00:13	-127.642	48.549	0	647.80	0	4.3390	0	34.1940	0	27.115	0	641.329	0	11.9	4	3.8	4	-1E+10	1	-1E+10	1	-1E+10	1	-1E+10	1	-1E+10	1	-1E+10	1
4902663	22	C	03/10/2024	00:13	-127.642	48.549	0	653.00	0	4.3310	0	34.2000	0	27.120	0	646.469	0	11.4	4	3.6	4	-1E+10	1	-1E+10	1	-1E+10	1	-1E+10	1	-1E+10	1	-1E+10	1
4902663	22	C	03/10/2024	00:13	-127.642	48.549	0	658.20	0	4.3480	0	34.2070	0	27.124	0	651.609	0	11.0	4	3.5	4	-1E+10	1	-1E+10	1	-1E+10	1	-1E+10	1	-1E+10	1	-1E+10	1
4902663	22	C	03/10/2024	00:13	-127.642	48.549	0	662.90	0	4.3710	0	34.2140	0	27.127	0	656.254	0	10.9	4	3.5	4	-1E+10	1	-1E+10	1	-1E+10	1	-1E+10	1	-1E+10	1	-1E+10	1
4902663	22	C	03/10/2024	00:13	-127.642	48.549	0	667.60	0	4.3040	0	34.2110	0	27.132	0	660.899	0	10.8	4	3.4	4	-1E+10	1	-1E+10	1	-1E+10	1	-1E+10	1	-1E+10	1	-1E+10	1
4902663	22	C	03/10/2024	00:13	-127.642	48.549	0	672.90	0	4.2960	0	34.2130	0	27.135	0	666.138	0	10.6	4	3.4	4	-1E+10	1	-1E+10	1	-1E+10	1	-1E+10	1	-1E+10	1	-1E+10	1
4902663	22	C	03/10/2024	00:13	-127.642	48.549	0	678.20	0	4.2830	0	34.2160	0	27.138	0	671.376	0	10.3	4	3.3	4	-1E+10	1	-1E+10	1	-1E+10	1	-1E+10	1	-1E+10	1	-1E+10	1
4902663	22	C	03/10/2024	00:13	-127.642	48.549	0	683.30	0	4.2790	0	34.2230	0	27.144	0	676.416	0	10.0	4	3.2	4	-1E+10	1	-1E+10	1	-1E+10	1	-1E+10	1	-1E+10	1	-1E+10	1
4902663	22	C	03/10/2024	00:13	-127.642	48.549	0	688.00	0	4.2720	0	34.2250	0	27.147	0	681.061	0	9.8	4	3.1	4	-1E+10	1	-1E+10	1	-1E+10	1	-1E+10	1	-1E+10	1	-1E+10	1
4902663	22	C	03/10/2024	00:13	-127.642	48.549	0	692.60	0	4.2600	0	34.2280	0	27.150	0	685.607	0	9.5	4	3.0	4	-1E+10	1	-1E+10	1	-1E+10	1	-1E+10	1	-1E+10	1	-1E+10	1
4902663	22	C	03/10/2024	00:13	-127.642	48.549	0	697.80	0	4.2610	0	34.2340	0	27.155	0	690.746	0	9.2	4	2.9	4	-1E+10	1	-1E+10	1	-1E+10	1	-1E+10	1	-1E+10	1	-1E+10	1
4902663	22	C	03/10/2024	00:13	-127.642	48.549	0	703.00	0	4.2670	0	34.2400	0	27.159	0	695.885	0	9.1	4	2.9	4	-1E+10	1	-1E+10	1	-1E+10	1	-1E+10	1	-1E+10	1	-1E+10	1
4902663	22	C	03/10/2024	00:13	-127.642	48.549	0	708.10	0	4.2470	0	34.2410	0	27.162	0	700.925	0	9.1	4	2.9	4	-1E+10	1	-1E+10	1	-1E+10	1	-1E+10	1	-1E+10	1	-1E+10	1
4902663	22	C	03/10/2024	00:13	-127.642	48.549	0	713.20	0	4.2270	0	34.2420	0	27.165	0	705.965	0	8.9	4	2.8	4	-1E+10	1	-1E+10	1	-1E+10	1	-1E+10	1	-1E+10	1	-1E+10	1
4902663	22	C	03/10/2024	00:13	-127.642	48.549	0	718.10	0	4.2140	0	34.2470	0	27.171	0	710.807	0	8.6	4	2.7	4	-1E+10	1	-1E+10	1	-1E+10	1	-1E+10	1	-1E+10	1	-1E+10	1
4902663	22	C	03/10/2024	00:13	-127.642	48.549	0	723.10	0	4.2170	0	34.2520	0	27.174	0	715.747	0	8.4	4	2.7	4	-1E+10	1	-1E+10	1	-1E+10	1	-1E+10	1	-1E+10	1	-1E+10	1
4902663	22	C	03/10/2024	00:13	-127.642	48.549	0	727.90	0	4.2350	0	34.2600	0	27.179	0	720.490	0	8.2	4	2.6	4	-1E+10	1	-1E+10	1	-1E+10	1	-1E+10	1	-1E+10	1	-1E+10	1
4902663	22	C	03/10/2024	00:13	-127.642	48.549	0	732.80	0	4.2320	0	34.2620	0	27.181	0	725.332	0	8.1	4	2.6	4	-1E+10	1	-1E+10	1	-1E+10	1	-1E+10	1	-1E+10	1	-1E+10	1
4902663	22	C	03/10/2024	00:13	-127.642	48.549	0	738.00	0	4.2140	0	34.2630	0	27.183	0	730.470	0	8.0	4	2.6	4	-1E+10	1	-1E+10	1	-1E+10	1	-1E+10	1	-1E+10	1	-1E+10	1
4902663	22	C	03/10/2024	00:13	-127.642	48.549	0	743.10	0	4.1950	0	34.2660	0	27.188	0	735.509	0	7.9	4	2.5	4	-1E+10	1	-1E+10	1	-1E+10	1	-1E+10	1	-1E+10	1	-1E+10	1
4902663	22	C	03/10/2024	00:13	-127.642	48.549	0	747.90	0	4.1870	0	34.2700	0	27.192	0	740.251	0	7.8	4	2.5	4	-1E+10	1	-1E+10	1	-1E+10	1	-1E+10	1	-1E+10	1	-1E+10	1
4902663	22	C	03/10/2024	00:13	-127.642	48.549	0	752.80	0	4.1780	0	34.2760	0	27.198	0	745.092	0	7.8	4	2.5	4	-1E+10	1	-1E+10	1	-1E+10	1	-1E+10	1	-1E+10	1	-1E+10	1
4902663	22	C	03/10/2024	00:13	-127.642	48.549	0	757.60	0	4.1610	0	34.2770	0	27.200	0	749.834	0	7.8	4	2.5	4	-1E+10	1	-1E+10	1	-1E+10	1	-1E+10	1	-1E+10	1	-1E+10	1
4902663	22	C	03/10/2024	00:13	-127.642	48.549	0	763.00	0	4.1410	0	34.2790	0	27.204	0	755.169	0	7.7	4	2.4	4	-1E+10	1	-1E+10	1	-1E+10	1	-1E+10	1	-1E+10	1	-1E+10	1
4902663	22	C	03/10/2024	00:13	-127.642	48.549	0	768.20	0	4.1230	0	34.2820	0	27.208	0	760.307	0	7.6	4	2.4	4	-1E+10	1	-1E+10	1	-1E+10	1	-1E+10	1	-1E+10	1	-1E+10	1
4902663	22	C	03/10/2024	00:13	-127.642	48.549	0	773.00	0	4.1150	0	34.2840	0	27.211	0	765.048	0	7.6	4	2.4	4	-1E+10	1	-1E+10	1	-1E+10	1	-1E+10	1	-1E+10	1	-1E+10	1
4902663	22	C	03/10/2024	00:13	-127.642	48.549	0	777.90	0	4.0930	0	34.2880	0	27.216	0	769.889	0	7.7	4	2.4	4	-1E+10	1	-1E+10	1	-1E+10	1	-1E+10	1	-1E+10	1	-1E+10	1
4902663	22	C	03/10/2024	00:13	-127.642	48.549	0	782.80	0	4.0530	0	34.2860	0	27.219	0	774.729	0	7.7	4	2.5	4	-1E+10	1	-1E+10	1	-1E+10	1	-1E+10	1	-1E+10	1	-1E+10	1
4902663	22	C	03/10/2024	00:13	-127.642	48.549	0	787.60	0	4.0100	0	34.2890	0	27.226	0	779.471	0	7.7	4	2.4	4	-1E+10	1	-1E+10	1	-1E+10	1	-1E+10	1	-1E+10	1	-1E+10	1
4902663	22	C	03/10/2024	00:13	-127.642	48.549	0	792.90	0	3.9850	0	34.2930	0	27.231	0	784.706	0	7.5	4	2.4	4	-1E+10	1	-1E+10	1	-1E+10	1	-1E+10	1	-1E+10	1	-1E+10	1
4902663	22	C	03/10/2024	00:13	-127.642	48.549	0	798.10	0	3.9940	0	34.2990	0	27.235	0	789.843	0	7.3	4	2.3	4	-1E+10	1	-1E+10	1	-1E+10	1	-1E+10	1	-1E+10	1	-1E+10	1
4902663	22	C	03/10/2024	00:13	-127.642	48.549	0	803.10	0	4.0110	0	34.3040	0	27.238	0	794.781	0	7.2	4	2.3	4	-1E+10	1	-1E+10	1	-1E+10	1	-1E+10	1	-1E+10	1	-1E+10	1
4902663	22	C	03/10/2024	00:13	-127.642	48.549	0	807.80	0	3.9970	0	34.3070	0	27.241	0	799.424	0	7.3	4	2.3	4	-1E+10	1	-1E+10	1	-1E+10	1	-1E+10	1	-1E+10	1	-1E+10	1
4902663	22	C	03/10/2024	00:13	-127.642	48.549	0	812.90	0	3.9490	0	34.3030	0	27.243	0	804.461	0	7.2	4	2.3	4	-1E+10	1	-1E+10	1	-1E+10	1	-1E+10	1	-1E+10	1	-1E+10	1
4902663	22	C	03/10/2024	00:13	-127.642	48.549	0	818.20	0	3.9850	0	34.3120	0	27.247	0	809.696	0	7.0	4	2.2	4	-1E+10	1	-1E+10	1	-1E+10	1	-1E+10	1	-1E+10	1	-1E+10	1
4902663	22	C	03/10/2024	00:13	-127.642	48.549	0	823.20	0	3.9830	0	34.3140	0	27.249	0	814.634	0	7.0	4	2.2	4	-1E+10	1	-1E+10	1	-1E+10	1	-1E+10	1	-1E+10	1	-1E+10	1
4902663	22	C	03/10/2024	00:13	-127.642	48.549	0	828.30	0	3.9760	0	34.3160	0	27.251	0	819.671	0	7.0	4	2.2	4	-1E+10	1	-1E+10	1	-1E+10	1	-1E+10	1	-1E+10	1	-1E+10	1
4902663	22	C	03/10/2024	00:13	-127.642	48.549	0	833.00	0	3.9660	0	34.3190	0	27.254	0	824.313	0	7.0	4	2.2	4	-1E+10	1	-1E+10	1	-1E+10	1	-1E+10	1	-1E+10	1	-1E+10	1
4902663	22	C	03/10/2024	00:13	-127.642	48.549	0	837.90	0	3.9430	0	34.3190	0	27.257	0	829.152	0	7.1	4	2.2	4	-1E+10	1	-1E+10	1	-1E+10	1	-1E+10	1	-1E+10	1	-1E+10	1
4902663	22	C	03/10/2024	00:13	-127.642	48.549	0	842.90	0	3.9320	0	34.3210	0	27.259	0	834.090	0	7.2	4	2.3	4	-1E+10	1	-1E+10	1	-1E+10	1	-1E+10	1	-1E+10	1	-1E+10	1
4902663	22	C	03/10/2024	00:13	-127.642	48.549	0	847.90	0	3.8740	0	34.3190	0	27.264	0	839.028	0	7.3	4	2.3	4	-1E+10	1	-1E+10	1	-1E+10	1	-1E+10	1	-1E+10	1	-1E+10	1
4902663	22	C	03/10/2024	00:13	-127.642	48.549	0	853.10	0	3.8540	0	34.3200	0	27.267	0	844.163	0	7.4	4	2.3	4	-1E+10	1	-1E+10	1	-1E+10	1	-1E+10	1	-1E+10	1	-1E+10	1
4902663	22	C	03/10/2024	00:13	-127.642	48.549	0	857.80	0	3.8270	0	34.3180	0	27.268	0	848.804	0	7.5	4	2.4	4	-1E+10	1	-1E+10	1	-1E+10	1	-1E+10	1	-1E+10	1	-1E+10	1
4902663	22	C	03/10/2024	00:13	-127.642	48.549	0	862.90	0	3.7840	0	34.3170	0	27.271	0	853.840	0	7.6	4	2.4	4	-1E+10	1	-1E+10	1	-1E+10	1	-1E+10	1	-1E+10	1	-1E+10	1
4902663	22	C	03/10/2024	00:13	-127.642	48.549	0	868.20	0	3.7640	0	34.3190	0	27.275	0	859.073	0	7.7	4	2.4	4	-1E+10	1	-1E+10	1	-1E+10	1	-1E+10	1	-1E+10	1	-1E+10	1
4902663	22	C	03/10/2024	00:13	-127.642	48.549	0	873.00	0	3.7420	0	34.3180	0	27.276	0	863.813	0	7.7	4	2.4	4	-1E+10	1	-1E+10	1	-1E+10	1	-1E+10	1	-1E+10	1	-1E+10	1
4902663	22	C	03/10/2024	00:13	-127.642	48.549	0	877.90	0	3.7170	0	34.3200	0	27.280	0	868.651	0	7.5	4	2.4	4	-1E+10	1	-1E+10	1	-1E+10	1	-1E+10	1	-1E+10	1	-1E+10	1
4902663	22	C	03/10/2024	00:13	-127.642	48.549	0	882.80	0	3.7240	0	34.3240	0	27.283	0	873.489	0	7.2	4	2.3	4	-1E+10	1	-1E+10	1	-1E+10	1	-1E+10	1	-1E+10	1	-1E+10	1
4902663	22	C	03/10/2024	00:13	-127.642	48.549	0	887.80	0	3.7820	0	34.3400	0	27.290	0	878.426	0	7.1	4	2.2	4	-1E+10	1	-1E+10	1	-1E+10	1	-1E+10	1	-1E+10	1	-1E+10	1
4902663	22	C	03/10/2024	00:13	-127.642	48.549	0	892.90	0	3.7850	0	34.3420	0	27.291	0	883.462	0	7.1	4	2.2	4	-1E+10	1	-1E+10	1	-1E+10	1	-1E+10	1	-1E+10	1	-1E+10	1
4902663	22	C	03/10/2024	00:13	-127.642	48.549	0	898.00	0	3.7630	0	34.3460	0	27.297	0	888.497	0	7.2	4	2.3	4	-1E+10	1	-1E+10	1	-1E+10	1	-1E+10	1	-1E+10	1	-1E+10	1
4902663	22	C	03/10/2024	00:13	-127.642	48.549	0	903.10	0	3.7420	0	34.3460	0	27.299	0	893.532	0	7.3	4	2.3	4	-1E+10	1	-1E+10	1	-1E+10	1	-1E+10	1	-1E+10	1	-1E+10	1
4902663	22	C	03/10/2024	00:13	-127.642	48.549	0	908.20	0	3.7060	0	34.3470	0	27.303	0	898.567	0	7.4	4	2.3	4	-1E+10	1	-1E+10	1	-1E+10	1	-1E+10	1	-1E+10	1	-1E+10	1
4902663	22	C	03/10/2024	00:13	-127.642	48.549	0	912.90	0	3.6720	0	34.3460	0	27.306	0	903.207	0	7.4	4	2.3	4	-1E+10	1	-1E+10	1	-1E+10	1	-1E+10	1	-1E+10	1	-1E+10	1
4902663	22	C	03/10/2024	00:13	-127.642	48.549	0	917.60	0	3.6580	0	34.3450	0	27.306	0	907.847	0	7.4	4	2.3	4	-1E+10	1	-1E+10	1	-1E+10	1	-1E+10	1	-1E+10	1	-1E+10	1
4902663	22	C	03/10/2024	00:13	-127.642	48.549	0	922.80	0	3.6680	0	34.3530	0	27.312	0	912.980	0	7.4	4	2.3	4	-1E+10	1	-1E+10	1	-1E+10	1	-1E+10	1	-1E+10	1	-1E+10	1
4902663	22	C	03/10/2024	00:13	-127.642	48.549	0	928.10	0	3.6720	0	34.3560	0	27.314	0	918.212	0	7.4	4	2.3	4	-1E+10	1	-1E+10	1	-1E+10	1	-1E+10	1	-1E+10	1	-1E+10	1
4902663	22	C	03/10/2024	00:13	-127.642	48.549	0	933.30	0	3.6560	0	34.3570	0	27.316	0	923.345	0	7.5	4	2.3	4	-1E+10	1	-1E+10	1	-1E+10	1	-1E+10	1	-1E+10	1	-1E+10	1
4902663	22	C	03/10/2024	00:13	-127.642	48.549	0	938.00	0	3.6270	0	34.3580	0	27.320	0	927.985	0	7.5	4	2.4	4	-1E+10	1	-1E+10	1	-1E+10	1	-1E+10	1	-1E+10	1	-1E+10	1
4902663	22	C	03/10/2024	00:13	-127.642	48.549	0	942.70	0	3.6160	0	34.3590	0	27.322	0	932.624	0	7.6	4	2.4	4	-1E+10	1	-1E+10	1	-1E+10	1	-1E+10	1	-1E+10	1	-1E+10	1
4902663	22	C	03/10/2024	00:13	-127.642	48.549	0	947.90	0	3.5840	0	34.3580	0	27.324	0	937.757	0	7.7	4	2.4	4	-1E+10	1	-1E+10	1	-1E+10	1	-1E+10	1	-1E+10	1	-1E+10	1
4902663	22	C	03/10/2024	00:13	-127.642	48.549	0	953.20	0	3.5600	0	34.3590	0	27.327	0	942.988	0	7.7	4	2.4	4	-1E+10	1	-1E+10	1	-1E+10	1	-1E+10	1	-1E+10	1	-1E+10	1
4902663	22	C	03/10/2024	00:13	-127.642	48.549	0	958.00	0	3.5470	0	34.3600	0	27.329	0	947.726	0	7.8	4	2.4	4	-1E+10	1	-1E+10	1	-1E+10	1	-1E+10	1	-1E+10	1	-1E+10	1
4902663	22	C	03/10/2024	00:13	-127.642	48.549	0	962.80	0	3.5420	0	34.3620	0	27.331	0	952.464	0	7.8	4	2.4	4	-1E+10	1	-1E+10	1	-1E+10	1	-1E+10	1	-1E+10	1	-1E+10	1
4902663	22	C	03/10/2024	00:13	-127.642	48.549	0	968.00	0	3.5390	0	34.3660	0	27.335	0	957.596	0	7.8	4	2.5	4	-1E+10	1	-1E+10	1	-1E+10	1	-1E+10	1	-1E+10	1	-1E+10	1
4902663	22	C	03/10/2024	00:13	-127.642	48.549	0	973.30	0	3.5210	0	34.3660	0	27.337	0	962.827	0	7.9	4	2.5	4	-1E+10	1	-1E+10	1	-1E+10	1	-1E+10	1	-1E+10	1	-1E+10	1
4902663	22	C	03/10/2024	00:13	-127.642	48.549	0	978.10	0	3.5080	0	34.3690	0	27.340	0	967.564	0	8.0	4	2.5	4	-1E+10	1	-1E+10	1	-1E+10	1	-1E+10	1	-1E+10	1	-1E+10	1
4902663	22	C	03/10/2024	00:13	-127.642	48.549	0	982.80	0	3.4950	0	34.3710	0	27.343	0	972.203	0	8.0	4	2.5	4	-1E+10	1	-1E+10	1	-1E+10	1	-1E+10	1	-1E+10	1	-1E+10	1
4902663	22	C	03/10/2024	00:13	-127.642	48.549	0	988.00	0	3.4920	0	34.3730	0	27.345	0	977.334	0	8.0	4	2.5	4	-1E+10	1	-1E+10	1	-1E+10	1	-1E+10	1	-1E+10	1	-1E+10	1
4902663	22	C	03/10/2024	00:13	-127.642	48.549	0	992.80	0	3.4850	0	34.3750	0	27.347	0	982.071	0	8.1	4	2.5	4	-1E+10	1	-1E+10	1	-1E+10	1	-1E+10	1	-1E+10	1	-1E+10	1
4902663	22	C	03/10/2024	00:13	-127.642	48.549	0	997.60	0	3.4800	0	34.3770	0	27.350	0	986.808	0	8.1	4	2.5	4	-1E+10	1	-1E+10	1	-1E+10	1	-1E+10	1	-1E+10	1	-1E+10	1
4902663	22	C	03/10/2024	00:13	-127.642	48.549	0	1005.60	0	3.4650	0	34.3840	0	27.357	0	994.703	0	8.2	4	2.6	4	-1E+10	1	-1E+10	1	-1E+10	1	-1E+10	1	-1E+10	1	-1E+10	1
4902663	22	C	03/10/2024	00:13	-127.642	48.549	0	1015.90	0	3.4400	0	34.3870	0	27.361	0	1004.866	0	8.3	4	2.6	4	-1E+10	1	-1E+10	1	-1E+10	1	-1E+10	1	-1E+10	1	-1E+10	1
4902663	22	C	03/10/2024	00:13	-127.642	48.549	0	1025.70	0	3.4330	0	34.3910	0	27.365	0	1014.536	0	8.5	4	2.6	4	-1E+10	1	-1E+10	1	-1E+10	1	-1E+10	1	-1E+10	1	-1E+10	1
4902663	22	C	03/10/2024	00:13	-127.642	48.549	0	1035.70	0	3.4250	0	34.3970	0	27.371	0	1024.403	0	8.7	4	2.7	4	-1E+10	1	-1E+10	1	-1E+10	1	-1E+10	1	-1E+10	1	-1E+10	1
4902663	22	C	03/10/2024	00:13	-127.642	48.549	0	1045.40	0	3.4010	0	34.4020	0	27.377	0	1033.973	0	8.9	4	2.8	4	-1E+10	1	-1E+10	1	-1E+10	1	-1E+10	1	-1E+10	1	-1E+10	1
4902663	22	C	03/10/2024	00:13	-127.642	48.549	0	1055.20	0	3.3740	0	34.4070	0	27.384	0	1043.642	0	9.2	4	2.9	4	-1E+10	1	-1E+10	1	-1E+10	1	-1E+10	1	-1E+10	1	-1E+10	1
4902663	22	C	03/10/2024	00:13	-127.642	48.549	0	1065.50	0	3.3220	0	34.4090	0	27.391	0	1053.803	0	9.4	4	2.9	4	-1E+10	1	-1E+10	1	-1E+10	1	-1E+10	1	-1E+10	1	-1E+10	1
4902663	22	C	03/10/2024	00:13	-127.642	48.549	0	1075.50	0	3.3040	0	34.4150	0	27.397	0	1063.668	0	9.6	4	3.0	4	-1E+10	1	-1E+10	1	-1E+10	1	-1E+10	1	-1E+10	1	-1E+10	1
4902663	22	C	03/10/2024	00:13	-127.642	48.549	0	1085.20	0	3.2950	0	34.4180	0	27.400	0	1073.237	0	9.8	4	3.1	4	-1E+10	1	-1E+10	1	-1E+10	1	-1E+10	1	-1E+10	1	-1E+10	1
4902663	22	C	03/10/2024	00:13	-127.642	48.549	0	1095.40	0	3.2780	0	34.4220	0	27.405	0	1083.298	0	10.1	4	3.1	4	-1E+10	1	-1E+10	1	-1E+10	1	-1E+10	1	-1E+10	1	-1E+10	1
4902663	22	C	03/10/2024	00:13	-127.642	48.549	0	1105.70	0	3.2780	0	34.4290	0	27.411	0	1093.457	0	10.5	4	3.3	4	-1E+10	1	-1E+10	1	-1E+10	1	-1E+10	1	-1E+10	1	-1E+10	1
4902663	22	C	03/10/2024	00:13	-127.642	48.549	0	1115.70	0	3.2610	0	34.4330	0	27.416	0	1103.320	0	10.7	4	3.3	4	-1E+10	1	-1E+10	1	-1E+10	1	-1E+10	1	-1E+10	1	-1E+10	1
4902663	22	C	03/10/2024	00:13	-127.642	48.549	0	1125.60	0	3.2300	0	34.4350	0	27.420	0	1113.084	0	10.8	4	3.3	4	-1E+10	1	-1E+10	1	-1E+10	1	-1E+10	1	-1E+10	1	-1E+10	1
4902663	22	C	03/10/2024	00:13	-127.642	48.549	0	1135.60	0	3.2050	0	34.4340	0	27.422	0	1122.946	0	10.9	4	3.4	4	-1E+10	1	-1E+10	1	-1E+10	1	-1E+10	1	-1E+10	1	-1E+10	1
4902663	22	C	03/10/2024	00:13	-127.642	48.549	0	1145.70	0	3.1680	0	34.4390	0	27.429	0	1132.906	0	11.4	4	3.5	4	-1E+10	1	-1E+10	1	-1E+10	1	-1E+10	1	-1E+10	1	-1E+10	1
4902663	22	C	03/10/2024	00:13	-127.642	48.549	0	1155.70	0	3.1570	0	34.4440	0	27.434	0	1142.768	0	11.7	4	3.6	4	-1E+10	1	-1E+10	1	-1E+10	1	-1E+10	1	-1E+10	1	-1E+10	1
4902663	22	C	03/10/2024	00:13	-127.642	48.549	0	1165.40	0	3.1430	0	34.4460	0	27.437	0	1152.333	0	12.0	4	3.7	4	-1E+10	1	-1E+10	1	-1E+10	1	-1E+10	1	-1E+10	1	-1E+10	1
4902663	22	C	03/10/2024	00:13	-127.642	48.549	0	1175.20	0	3.1330	0	34.4470	0	27.439	0	1161.995	0	12.1	4	3.8	4	-1E+10	1	-1E+10	1	-1E+10	1	-1E+10	1	-1E+10	1	-1E+10	1
4902663	22	C	03/10/2024	00:13	-127.642	48.549	0	1185.50	0	3.1230	0	34.4490	0	27.442	0	1172.151	0	12.3	4	3.8	4	-1E+10	1	-1E+10	1	-1E+10	1	-1E+10	1	-1E+10	1	-1E+10	1
4902663	22	C	03/10/2024	00:13	-127.642	48.549	0	1195.60	0	3.0960	0	34.4510	0	27.446	0	1182.109	0	12.6	4	3.9	4	-1E+10	1	-1E+10	1	-1E+10	1	-1E+10	1	-1E+10	1	-1E+10	1
4902663	22	C	03/10/2024	00:13	-127.642	48.549	0	1205.40	0	3.0750	0	34.4530	0	27.449	0	1191.771	0	12.9	4	4.0	4	-1E+10	1	-1E+10	1	-1E+10	1	-1E+10	1	-1E+10	1	-1E+10	1
4902663	22	C	03/10/2024	00:13	-127.642	48.549	0	1215.30	0	3.0610	0	34.4550	0	27.452	0	1201.531	0	13.1	4	4.1	4	-1E+10	1	-1E+10	1	-1E+10	1	-1E+10	1	-1E+10	1	-1E+10	1
4902663	22	C	03/10/2024	00:13	-127.642	48.549	0	1225.20	0	3.0340	0	34.4580	0	27.457	0	1211.290	0	13.4	4	4.1	4	-1E+10	1	-1E+10	1	-1E+10	1	-1E+10	1	-1E+10	1	-1E+10	1
4902663	22	C	03/10/2024	00:13	-127.642	48.549	0	1235.30	0	3.0170	0	34.4600	0	27.460	0	1221.246	0	13.7	4	4.2	4	-1E+10	1	-1E+10	1	-1E+10	1	-1E+10	1	-1E+10	1	-1E+10	1
4902663	22	C	03/10/2024	00:13	-127.642	48.549	0	1245.30	0	2.9890	0	34.4630	0	27.465	0	1231.103	0	13.9	4	4.3	4	-1E+10	1	-1E+10	1	-1E+10	1	-1E+10	1	-1E+10	1	-1E+10	1
4902663	22	C	03/10/2024	00:13	-127.642	48.549	0	1255.40	0	2.9610	0	34.4640	0	27.469	0	1241.058	0	14.1	4	4.4	4	-1E+10	1	-1E+10	1	-1E+10	1	-1E+10	1	-1E+10	1	-1E+10	1
4902663	22	C	03/10/2024	00:13	-127.642	48.549	0	1265.30	0	2.9410	0	34.4660	0	27.472	0	1250.815	0	14.4	4	4.4	4	-1E+10	1	-1E+10	1	-1E+10	1	-1E+10	1	-1E+10	1	-1E+10	1
4902663	22	C	03/10/2024	00:13	-127.642	48.549	0	1275.30	0	2.9240	0	34.4680	0	27.475	0	1260.671	0	14.7	4	4.5	4	-1E+10	1	-1E+10	1	-1E+10	1	-1E+10	1	-1E+10	1	-1E+10	1
4902663	22	C	03/10/2024	00:13	-127.642	48.549	0	1285.50	0	2.9130	0	34.4690	0	27.477	0	1270.723	0	14.9	4	4.6	4	-1E+10	1	-1E+10	1	-1E+10	1	-1E+10	1	-1E+10	1	-1E+10	1
4902663	22	C	03/10/2024	00:13	-127.642	48.549	0	1295.50	0	2.8910	0	34.4710	0	27.481	0	1280.578	0	15.3	4	4.7	4	-1E+10	1	-1E+10	1	-1E+10	1	-1E+10	1	-1E+10	1	-1E+10	1
4902663	22	C	03/10/2024	00:13	-127.642	48.549	0	1305.30	0	2.8770	0	34.4740	0	27.484	0	1290.235	0	15.7	4	4.8	4	-1E+10	1	-1E+10	1	-1E+10	1	-1E+10	1	-1E+10	1	-1E+10	1
4902663	22	C	03/10/2024	00:13	-127.642	48.549	0	1315.20	0	2.8630	0	34.4760	0	27.487	0	1299.990	0	15.9	4	4.9	4	-1E+10	1	-1E+10	1	-1E+10	1	-1E+10	1	-1E+10	1	-1E+10	1
4902663	22	C	03/10/2024	00:13	-127.642	48.549	0	1325.10	0	2.8500	0	34.4770	0	27.489	0	1309.745	0	16.3	4	5.0	4	-1E+10	1	-1E+10	1	-1E+10	1	-1E+10	1	-1E+10	1	-1E+10	1
4902663	22	C	03/10/2024	00:13	-127.642	48.549	0	1335.00	0	2.8350	0	34.4800	0	27.493	0	1319.499	0	16.7	4	5.1	4	-1E+10	1	-1E+10	1	-1E+10	1	-1E+10	1	-1E+10	1	-1E+10	1
4902663	22	C	03/10/2024	00:13	-127.642	48.549	0	1345.20	0	2.8040	0	34.4820	0	27.497	0	1329.549	0	17.0	4	5.2	4	-1E+10	1	-1E+10	1	-1E+10	1	-1E+10	1	-1E+10	1	-1E+10	1
4902663	22	C	03/10/2024	00:13	-127.642	48.549	0	1355.40	0	2.7890	0	34.4830	0	27.500	0	1339.598	0	17.3	4	5.3	4	-1E+10	1	-1E+10	1	-1E+10	1	-1E+10	1	-1E+10	1	-1E+10	1
4902663	22	C	03/10/2024	00:13	-127.642	48.549	0	1365.70	0	2.7740	0	34.4850	0	27.503	0	1349.745	0	17.5	4	5.4	4	-1E+10	1	-1E+10	1	-1E+10	1	-1E+10	1	-1E+10	1	-1E+10	1
4902663	22	C	03/10/2024	00:13	-127.642	48.549	0	1375.50	0	2.7630	0	34.4860	0	27.504	0	1359.399	0	18.0	4	5.5	4	-1E+10	1	-1E+10	1	-1E+10	1	-1E+10	1	-1E+10	1	-1E+10	1
4902663	22	C	03/10/2024	00:13	-127.642	48.549	0	1385.50	0	2.7390	0	34.4880	0	27.508	0	1369.249	0	18.4	4	5.7	4	-1E+10	1	-1E+10	1	-1E+10	1	-1E+10	1	-1E+10	1	-1E+10	1
4902663	22	C	03/10/2024	00:13	-127.642	48.549	0	1395.50	0	2.7190	0	34.4910	0	27.512	0	1379.099	0	19.0	4	5.8	4	-1E+10	1	-1E+10	1	-1E+10	1	-1E+10	1	-1E+10	1	-1E+10	1
4902663	22	C	03/10/2024	00:13	-127.642	48.549	0	1405.20	0	2.6930	0	34.4950	0	27.518	0	1388.653	0	19.6	4	6.0	4	-1E+10	1	-1E+10	1	-1E+10	1	-1E+10	1	-1E+10	1	-1E+10	1
4902663	22	C	03/10/2024	00:13	-127.642	48.549	0	1415.40	0	2.6780	0	34.4970	0	27.521	0	1398.699	0	19.9	4	6.1	4	-1E+10	1	-1E+10	1	-1E+10	1	-1E+10	1	-1E+10	1	-1E+10	1
4902663	22	C	03/10/2024	00:13	-127.642	48.549	0	1425.60	0	2.6680	0	34.4970	0	27.522	0	1408.745	0	20.1	4	6.2	4	-1E+10	1	-1E+10	1	-1E+10	1	-1E+10	1	-1E+10	1	-1E+10	1
4902663	22	C	03/10/2024	00:13	-127.642	48.549	0	1435.60	0	2.6510	0	34.4970	0	27.523	0	1418.593	0	20.3	4	6.2	4	-1E+10	1	-1E+10	1	-1E+10	1	-1E+10	1	-1E+10	1	-1E+10	1
4902663	22	C	03/10/2024	00:13	-127.642	48.549	0	1445.40	0	2.6440	0	34.4990	0	27.526	0	1428.244	0	20.8	4	6.4	4	-1E+10	1	-1E+10	1	-1E+10	1	-1E+10	1	-1E+10	1	-1E+10	1
4902663	22	C	03/10/2024	00:13	-127.642	48.549	0	1455.20	0	2.6320	0	34.5020	0	27.529	0	1437.894	0	21.5	4	6.6	4	-1E+10	1	-1E+10	1	-1E+10	1	-1E+10	1	-1E+10	1	-1E+10	1
4902663	22	C	03/10/2024	00:13	-127.642	48.549	0	1465.50	0	2.6070	0	34.5060	0	27.534	0	1448.036	0	22.2	4	6.8	4	-1E+10	1	-1E+10	1	-1E+10	1	-1E+10	1	-1E+10	1	-1E+10	1
4902663	22	C	03/10/2024	00:13	-127.642	48.549	0	1475.80	0	2.5880	0	34.5080	0	27.538	0	1458.178	0	22.7	4	6.9	4	-1E+10	1	-1E+10	1	-1E+10	1	-1E+10	1	-1E+10	1	-1E+10	1
4902663	22	C	03/10/2024	00:13	-127.642	48.549	0	1485.80	0	2.5690	0	34.5090	0	27.540	0	1468.024	0	23.2	4	7.1	4	-1E+10	1	-1E+10	1	-1E+10	1	-1E+10	1	-1E+10	1	-1E+10	1
4902663	22	C	03/10/2024	00:13	-127.642	48.549	0	1495.80	0	2.5460	0	34.5120	0	27.544	0	1477.869	0	23.9	4	7.3	4	-1E+10	1	-1E+10	1	-1E+10	1	-1E+10	1	-1E+10	1	-1E+10	1
4902663	22	C	03/10/2024	00:13	-127.642	48.549	0	1505.80	0	2.5260	0	34.5120	0	27.546	0	1487.714	0	24.3	4	7.4	4	-1E+10	1	-1E+10	1	-1E+10	1	-1E+10	1	-1E+10	1	-1E+10	1
4902663	22	C	03/10/2024	00:13	-127.642	48.549	0	1515.80	0	2.5060	0	34.5140	0	27.550	0	1497.559	0	24.8	4	7.6	4	-1E+10	1	-1E+10	1	-1E+10	1	-1E+10	1	-1E+10	1	-1E+10	1
4902663	22	C	03/10/2024	00:13	-127.642	48.549	0	1525.50	0	2.4820	0	34.5150	0	27.552	0	1507.108	0	25.5	4	7.8	4	-1E+10	1	-1E+10	1	-1E+10	1	-1E+10	1	-1E+10	1	-1E+10	1
4902663	22	C	03/10/2024	00:13	-127.642	48.549	0	1535.30	0	2.4620	0	34.5180	0	27.557	0	1516.754	0	26.1	4	7.9	4	-1E+10	1	-1E+10	1	-1E+10	1	-1E+10	1	-1E+10	1	-1E+10	1
4902663	22	C	03/10/2024	00:13	-127.642	48.549	0	1545.70	0	2.4440	0	34.5180	0	27.558	0	1526.991	0	26.6	4	8.1	4	-1E+10	1	-1E+10	1	-1E+10	1	-1E+10	1	-1E+10	1	-1E+10	1
4902663	22	C	03/10/2024	00:13	-127.642	48.549	0	1555.60	0	2.4140	0	34.5200	0	27.562	0	1536.735	0	27.2	4	8.3	4	-1E+10	1	-1E+10	1	-1E+10	1	-1E+10	1	-1E+10	1	-1E+10	1
4902663	22	C	03/10/2024	00:13	-127.642	48.549	0	1565.60	0	2.3970	0	34.5210	0	27.564	0	1546.578	0	27.7	4	8.4	4	-1E+10	1	-1E+10	1	-1E+10	1	-1E+10	1	-1E+10	1	-1E+10	1
4902663	22	C	03/10/2024	00:13	-127.642	48.549	0	1575.70	0	2.3840	0	34.5230	0	27.567	0	1556.518	0	28.3	4	8.6	4	-1E+10	1	-1E+10	1	-1E+10	1	-1E+10	1	-1E+10	1	-1E+10	1
4902663	22	C	03/10/2024	00:13	-127.642	48.549	0	1585.60	0	2.3780	0	34.5260	0	27.570	0	1566.261	0	28.8	4	8.8	4	-1E+10	1	-1E+10	1	-1E+10	1	-1E+10	1	-1E+10	1	-1E+10	1
4902663	22	C	03/10/2024	00:13	-127.642	48.549	0	1595.70	0	2.3590	0	34.5270	0	27.573	0	1576.200	0	29.3	4	8.9	4	-1E+10	1	-1E+10	1	-1E+10	1	-1E+10	1	-1E+10	1	-1E+10	1
4902663	22	C	03/10/2024	00:13	-127.642	48.549	0	1605.30	0	2.3490	0	34.5280	0	27.574	0	1585.647	0	29.8	4	9.1	4	-1E+10	1	-1E+10	1	-1E+10	1	-1E+10	1	-1E+10	1	-1E+10	1
4902663	22	C	03/10/2024	00:13	-127.642	48.549	0	1615.30	0	2.3350	0	34.5310	0	27.578	0	1595.487	0	30.5	4	9.3	4	-1E+10	1	-1E+10	1	-1E+10	1	-1E+10	1	-1E+10	1	-1E+10	1
4902663	22	C	03/10/2024	00:13	-127.642	48.549	0	1625.30	0	2.3260	0	34.5320	0	27.579	0	1605.326	0	31.0	4	9.4	4	-1E+10	1	-1E+10	1	-1E+10	1	-1E+10	1	-1E+10	1	-1E+10	1
4902663	22	C	03/10/2024	00:13	-127.642	48.549	0	1635.50	0	2.3100	0	34.5350	0	27.583	0	1615.362	0	31.7	4	9.6	4	-1E+10	1	-1E+10	1	-1E+10	1	-1E+10	1	-1E+10	1	-1E+10	1
4902663	22	C	03/10/2024	00:13	-127.642	48.549	0	1645.50	0	2.2970	0	34.5370	0	27.586	0	1625.200	0	32.4	4	9.8	4	-1E+10	1	-1E+10	1	-1E+10	1	-1E+10	1	-1E+10	1	-1E+10	1
4902663	22	C	03/10/2024	00:13	-127.642	48.549	0	1655.30	0	2.2790	0	34.5390	0	27.589	0	1634.842	0	33.2	4	10.1	4	-1E+10	1	-1E+10	1	-1E+10	1	-1E+10	1	-1E+10	1	-1E+10	1
4902663	22	C	03/10/2024	00:13	-127.642	48.549	0	1665.30	0	2.2630	0	34.5410	0	27.592	0	1644.679	0	34.0	4	10.3	4	-1E+10	1	-1E+10	1	-1E+10	1	-1E+10	1	-1E+10	1	-1E+10	1
4902663	22	C	03/10/2024	00:13	-127.642	48.549	0	1675.40	0	2.2470	0	34.5440	0	27.596	0	1654.615	0	34.8	4	10.5	4	-1E+10	1	-1E+10	1	-1E+10	1	-1E+10	1	-1E+10	1	-1E+10	1
4902663	22	C	03/10/2024	00:13	-127.642	48.549	0	1685.40	0	2.2380	0	34.5460	0	27.598	0	1664.451	0	35.5	4	10.8	4	-1E+10	1	-1E+10	1	-1E+10	1	-1E+10	1	-1E+10	1	-1E+10	1
4902663	22	C	03/10/2024	00:13	-127.642	48.549	0	1695.20	0	2.2290	0	34.5480	0	27.600	0	1674.091	0	36.0	4	10.9	4	-1E+10	1	-1E+10	1	-1E+10	1	-1E+10	1	-1E+10	1	-1E+10	1
4902663	22	C	03/10/2024	00:13	-127.642	48.549	0	1705.00	0	2.2160	0	34.5500	0	27.603	0	1683.730	0	36.7	4	11.1	4	-1E+10	1	-1E+10	1	-1E+10	1	-1E+10	1	-1E+10	1	-1E+10	1
4902663	22	C	03/10/2024	00:13	-127.642	48.549	0	1715.00	0	2.2050	0	34.5520	0	27.606	0	1693.565	0	37.3	4	11.3	4	-1E+10	1	-1E+10	1	-1E+10	1	-1E+10	1	-1E+10	1	-1E+10	1
4902663	22	C	03/10/2024	00:13	-127.642	48.549	0	1725.20	0	2.1960	0	34.5530	0	27.607	0	1703.597	0	38.0	4	11.5	4	-1E+10	1	-1E+10	1	-1E+10	1	-1E+10	1	-1E+10	1	-1E+10	1
4902663	22	C	03/10/2024	00:13	-127.642	48.549	0	1735.40	0	2.1900	0	34.5560	0	27.610	0	1713.628	0	38.7	4	11.7	4	-1E+10	1	-1E+10	1	-1E+10	1	-1E+10	1	-1E+10	1	-1E+10	1
4902663	22	C	03/10/2024	00:13	-127.642	48.549	0	1745.70	0	2.1780	0	34.5570	0	27.612	0	1723.757	0	39.4	4	11.9	4	-1E+10	1	-1E+10	1	-1E+10	1	-1E+10	1	-1E+10	1	-1E+10	1
4902663	22	C	03/10/2024	00:13	-127.642	48.549	0	1755.40	0	2.1800	0	34.5610	0	27.615	0	1733.296	0	40.4	4	12.2	4	-1E+10	1	-1E+10	1	-1E+10	1	-1E+10	1	-1E+10	1	-1E+10	1
4902663	22	C	03/10/2024	00:13	-127.642	48.549	0	1765.20	0	2.1740	0	34.5630	0	27.617	0	1742.932	0	41.1	4	12.4	4	-1E+10	1	-1E+10	1	-1E+10	1	-1E+10	1	-1E+10	1	-1E+10	1
4902663	22	C	03/10/2024	00:13	-127.642	48.549	0	1775.40	0	2.1650	0	34.5660	0	27.620	0	1752.961	0	41.8	4	12.6	4	-1E+10	1	-1E+10	1	-1E+10	1	-1E+10	1	-1E+10	1	-1E+10	1
4902663	22	C	03/10/2024	00:13	-127.642	48.549	0	1785.30	0	2.1450	0	34.5660	0	27.622	0	1762.695	0	41.8	4	12.6	4	-1E+10	1	-1E+10	1	-1E+10	1	-1E+10	1	-1E+10	1	-1E+10	1
4902663	22	C	03/10/2024	00:13	-127.642	48.549	0	1795.20	0	2.1140	0	34.5640	0	27.623	0	1772.428	0	42.1	4	12.7	4	-1E+10	1	-1E+10	1	-1E+10	1	-1E+10	1	-1E+10	1	-1E+10	1
4902663	22	C	03/10/2024	00:13	-127.642	48.549	0	1805.20	0	2.1060	0	34.5660	0	27.625	0	1782.260	0	42.6	4	12.9	4	-1E+10	1	-1E+10	1	-1E+10	1	-1E+10	1	-1E+10	1	-1E+10	1
4902663	22	C	03/10/2024	00:13	-127.642	48.549	0	1815.40	0	2.0980	0	34.5680	0	27.628	0	1792.287	0	43.3	4	13.1	4	-1E+10	1	-1E+10	1	-1E+10	1	-1E+10	1	-1E+10	1	-1E+10	1
4902663	22	C	03/10/2024	00:13	-127.642	48.549	0	1825.70	0	2.0900	0	34.5700	0	27.630	0	1802.412	0	44.0	4	13.3	4	-1E+10	1	-1E+10	1	-1E+10	1	-1E+10	1	-1E+10	1	-1E+10	1
4902663	22	C	03/10/2024	00:13	-127.642	48.549	0	1835.70	0	2.0780	0	34.5710	0	27.632	0	1812.242	0	44.7	4	13.5	4	-1E+10	1	-1E+10	1	-1E+10	1	-1E+10	1	-1E+10	1	-1E+10	1
4902663	22	C	03/10/2024	00:13	-127.642	48.549	0	1845.40	0	2.0720	0	34.5730	0	27.634	0	1821.777	0	45.4	4	13.7	4	-1E+10	1	-1E+10	1	-1E+10	1	-1E+10	1	-1E+10	1	-1E+10	1
4902663	22	C	03/10/2024	00:13	-127.642	48.549	0	1855.50	0	2.0750	0	34.5760	0	27.636	0	1831.704	0	46.3	4	14.0	4	-1E+10	1	-1E+10	1	-1E+10	1	-1E+10	1	-1E+10	1	-1E+10	1
4902663	22	C	03/10/2024	00:13	-127.642	48.549	0	1865.40	0	2.0680	0	34.5780	0	27.638	0	1841.434	0	47.0	4	14.2	4	-1E+10	1	-1E+10	1	-1E+10	1	-1E+10	1	-1E+10	1	-1E+10	1
4902663	22	C	03/10/2024	00:13	-127.642	48.549	0	1875.40	0	2.0530	0	34.5800	0	27.641	0	1851.262	0	47.7	4	14.4	4	-1E+10	1	-1E+10	1	-1E+10	1	-1E+10	1	-1E+10	1	-1E+10	1
4902663	22	C	03/10/2024	00:13	-127.642	48.549	0	1885.20	0	2.0450	0	34.5810	0	27.642	0	1860.893	0	48.1	4	14.5	4	-1E+10	1	-1E+10	1	-1E+10	1	-1E+10	1	-1E+10	1	-1E+10	1
4902663	22	C	03/10/2024	00:13	-127.642	48.549	0	1895.20	0	2.0340	0	34.5830	0	27.645	0	1870.720	0	48.8	4	14.7	4	-1E+10	1	-1E+10	1	-1E+10	1	-1E+10	1	-1E+10	1	-1E+10	1
4902663	22	C	03/10/2024	00:13	-127.642	48.549	0	1905.40	0	2.0210	0	34.5840	0	27.647	0	1880.743	0	49.4	4	14.9	4	-1E+10	1	-1E+10	1	-1E+10	1	-1E+10	1	-1E+10	1	-1E+10	1
4902663	22	C	03/10/2024	00:13	-127.642	48.549	0	1915.30	0	2.0120	0	34.5860	0	27.649	0	1890.471	0	49.9	4	15.0	4	-1E+10	1	-1E+10	1	-1E+10	1	-1E+10	1	-1E+10	1	-1E+10	1
4902663	22	C	03/10/2024	00:13	-127.642	48.549	0	1925.10	0	2.0020	0	34.5860	0	27.650	0	1900.100	0	50.3	4	15.2	4	-1E+10	1	-1E+10	1	-1E+10	1	-1E+10	1	-1E+10	1	-1E+10	1
4902663	22	C	03/10/2024	00:13	-127.642	48.549	0	1935.40	0	1.9920	0	34.5880	0	27.652	0	1910.221	0	50.9	4	15.3	4	-1E+10	1	-1E+10	1	-1E+10	1	-1E+10	1	-1E+10	1	-1E+10	1
4902663	22	C	03/10/2024	00:13	-127.642	48.549	0	1945.80	0	1.9850	0	34.5890	0	27.654	0	1920.438	0	51.2	4	15.4	4	-1E+10	1	-1E+10	1	-1E+10	1	-1E+10	1	-1E+10	1	-1E+10	1
4902663	22	C	03/10/2024	00:13	-127.642	48.549	0	1955.40	0	1.9840	0	34.5900	0	27.655	0	1929.870	0	51.4	4	15.5	4	-1E+10	1	-1E+10	1	-1E+10	1	-1E+10	1	-1E+10	1	-1E+10	1
4902663	22	C	03/10/2024	00:13	-127.642	48.549	0	1965.20	0	1.9700	0	34.5900	0	27.656	0	1939.497	0	51.7	4	15.6	4	-1E+10	1	-1E+10	1	-1E+10	1	-1E+10	1	-1E+10	1	-1E+10	1
4902663	22	C	03/10/2024	00:13	-127.642	48.549	0	1974.60	0	1.9580	0	34.5900	0	27.657	0	1948.731	0	51.5	4	15.5	4	-1E+10	1	-1E+10	1	-1E+10	1	-1E+10	1	-1E+10	1	-1E+10	1
4902663	22	C	03/10/2024	00:13	-127.642	48.549	0																										
4902663	23	C	03/19/2024	19:17	-127.602	48.645	0	0.50	0	9.3550	0	32.2780	0	24.932	0	0.496	0	272.9	4	96.1	4	-1E+10	1	-1E+10	1	-1E+10	1	-1E+10	1	-1E+10	1	-1E+10	1
4902663	23	C	03/19/2024	19:17	-127.602	48.645	0	0.70	0	9.3550	0	32.2660	0	24.923	0	0.694	0	-1e10	1	-1e10	1	-1E+10	1	-1E+10	1	-1E+10	1	-1E+10	1	-1E+10	1	-1E+10	1
4902663	23	C	03/19/2024	19:17	-127.602	48.645	0	1.00	0	9.3470	0	32.2530	0	24.914	0	0.992	0	272.8	4	96.0	4	-1E+10	1	-1E+10	1	-1E+10	1	-1E+10	1	-1E+10	1	-1E+10	1
4902663	23	C	03/19/2024	19:17	-127.602	48.645	0	1.90	0	9.3460	0	32.2490	0	24.911	0	1.884	0	272.6	4	96.0	4	-1E+10	1	-1E+10	1	-1E+10	1	-1E+10	1	-1E+10	1	-1E+10	1
4902663	23	C	03/19/2024	19:17	-127.602	48.645	0	3.10	0	9.3450	0	32.2490	0	24.911	0	3.074	0	272.5	4	95.9	4	-1E+10	1	-1E+10	1	-1E+10	1	-1E+10	1	-1E+10	1	-1E+10	1
4902663	23	C	03/19/2024	19:17	-127.602	48.645	0	4.20	0	9.3430	0	32.2520	0	24.914	0	4.164	0	272.4	4	95.9	4	-1E+10	1	-1E+10	1	-1E+10	1	-1E+10	1	-1E+10	1	-1E+10	1
4902663	23	C	03/19/2024	19:17	-127.602	48.645	0	5.00	0	9.3410	0	32.2520	0	24.914	0	4.958	0	272.4	4	95.9	4	-1E+10	1	-1E+10	1	-1E+10	1	-1E+10	1	-1E+10	1	-1E+10	1
4902663	23	C	03/19/2024	19:17	-127.602	48.645	0	6.10	0	9.3360	0	32.2550	0	24.917	0	6.048	0	272.2	4	95.8	4	-1E+10	1	-1E+10	1	-1E+10	1	-1E+10	1	-1E+10	1	-1E+10	1
4902663	23	C	03/19/2024	19:17	-127.602	48.645	0	7.10	0	9.3390	0	32.2510	0	24.914	0	7.040	0	272.2	4	95.8	4	-1E+10	1	-1E+10	1	-1E+10	1	-1E+10	1	-1E+10	1	-1E+10	1
4902663	23	C	03/19/2024	19:17	-127.602	48.645	0	7.80	0	9.3380	0	32.2540	0	24.916	0	7.734	0	272.0	4	95.7	4	-1E+10	1	-1E+10	1	-1E+10	1	-1E+10	1	-1E+10	1	-1E+10	1
4902663	23	C	03/19/2024	19:17	-127.602	48.645	0	9.10	0	9.3330	0	32.2530	0	24.916	0	9.023	0	271.9	4	95.7	4	-1E+10	1	-1E+10	1	-1E+10	1	-1E+10	1	-1E+10	1	-1E+10	1
4902663	23	C	03/19/2024	19:17	-127.602	48.645	0	10.00	0	9.3320	0	32.2540	0	24.917	0	9.915	0	271.7	4	95.6	4	-1E+10	1	-1E+10	1	-1E+10	1	-1E+10	1	-1E+10	1	-1E+10	1
4902663	23	C	03/19/2024	19:17	-127.602	48.645	0	10.70	0	9.3320	0	32.2530	0	24.916	0	10.609	0	271.6	4	95.6	4	-1E+10	1	-1E+10	1	-1E+10	1	-1E+10	1	-1E+10	1	-1E+10	1
4902663	23	C	03/19/2024	19:17	-127.602	48.645	0	11.90	0	9.3290	0	32.2540	0	24.918	0	11.799	0	271.5	4	95.5	4	-1E+10	1	-1E+10	1	-1E+10	1	-1E+10	1	-1E+10	1	-1E+10	1
4902663	23	C	03/19/2024	19:17	-127.602	48.645	0	13.20	0	9.3290	0	32.2540	0	24.918	0	13.088	0	271.4	4	95.5	4	-1E+10	1	-1E+10	1	-1E+10	1	-1E+10	1	-1E+10	1	-1E+10	1
4902663	23	C	03/19/2024	19:17	-127.602	48.645	0	14.10	0	9.3290	0	32.2540	0	24.918	0	13.980	0	271.4	4	95.5	4	-1E+10	1	-1E+10	1	-1E+10	1	-1E+10	1	-1E+10	1	-1E+10	1
4902663	23	C	03/19/2024	19:17	-127.602	48.645	0	15.00	0	9.3270	0	32.2530	0	24.917	0	14.873	0	271.3	4	95.5	4	-1E+10	1	-1E+10	1	-1E+10	1	-1E+10	1	-1E+10	1	-1E+10	1
4902663	23	C	03/19/2024	19:17	-127.602	48.645	0	15.90	0	9.3290	0	32.2540	0	24.918	0	15.765	0	271.2	4	95.4	4	-1E+10	1	-1E+10	1	-1E+10	1	-1E+10	1	-1E+10	1	-1E+10	1
4902663	23	C	03/19/2024	19:17	-127.602	48.645	0	16.90	0	9.3300	0	32.2530	0	24.917	0	16.757	0	271.2	4	95.4	4	-1E+10	1	-1E+10	1	-1E+10	1	-1E+10	1	-1E+10	1	-1E+10	1
4902663	23	C	03/19/2024	19:17	-127.602	48.645	0	17.80	0	9.3290	0	32.2540	0	24.918	0	17.649	0	271.0	4	95.4	4	-1E+10	1	-1E+10	1	-1E+10	1	-1E+10	1	-1E+10	1	-1E+10	1
4902663	23	C	03/19/2024	19:17	-127.602	48.645	0	18.70	0	9.3280	0	32.2530	0	24.917	0	18.541	0	271.1	4	95.4	4	-1E+10	1	-1E+10	1	-1E+10	1	-1E+10	1	-1E+10	1	-1E+10	1
4902663	23	C	03/19/2024	19:17	-127.602	48.645	0	19.60	0	9.3300	0	32.2540	0	24.918	0	19.433	0	271.0	4	95.4	4	-1E+10	1	-1E+10	1	-1E+10	1	-1E+10	1	-1E+10	1	-1E+10	1
4902663	23	C	03/19/2024	19:17	-127.602	48.645	0	20.90	0	9.3290	0	32.2530	0	24.917	0	20.722	0	270.8	4	95.3	4	-1E+10	1	-1E+10	1	-1E+10	1	-1E+10	1	-1E+10	1	-1E+10	1
4902663	23	C	03/19/2024	19:17	-127.602	48.645	0	22.30	0	9.3290	0	32.2530	0	24.917	0	22.110	0	270.7	4	95.2	4	-1E+10	1	-1E+10	1	-1E+10	1	-1E+10	1	-1E+10	1	-1E+10	1
4902663	23	C	03/19/2024	19:17	-127.602	48.645	0	23.30	0	9.3290	0	32.2530	0	24.917	0	23.102	0	270.6	4	95.2	4	-1E+10	1	-1E+10	1	-1E+10	1	-1E+10	1	-1E+10	1	-1E+10	1
4902663	23	C	03/19/2024	19:17	-127.602	48.645	0	24.20	0	9.3290	0	32.2540	0	24.918	0	23.994	0	270.5	4	95.2	4	-1E+10	1	-1E+10	1	-1E+10	1	-1E+10	1	-1E+10	1	-1E+10	1
4902663	23	C	03/19/2024	19:17	-127.602	48.645	0	25.20	0	9.3290	0	32.2540	0	24.918	0	24.986	0	270.4	4	95.1	4	-1E+10	1	-1E+10	1	-1E+10	1	-1E+10	1	-1E+10	1	-1E+10	1
4902663	23	C	03/19/2024	19:17	-127.602	48.645	0	26.10	0	9.3300	0	32.2540	0	24.918	0	25.878	0	270.2	4	95.1	4	-1E+10	1	-1E+10	1	-1E+10	1	-1E+10	1	-1E+10	1	-1E+10	1
4902663	23	C	03/19/2024	19:17	-127.602	48.645	0	27.10	0	9.3310	0	32.2540	0	24.917	0	26.869	0	270.1	4	95.1	4	-1E+10	1	-1E+10	1	-1E+10	1	-1E+10	1	-1E+10	1	-1E+10	1
4902663	23	C	03/19/2024	19:17	-127.602	48.645	0	28.10	0	9.3300	0	32.2530	0	24.917	0	27.861	0	270.0	4	95.0	4	-1E+10	1	-1E+10	1	-1E+10	1	-1E+10	1	-1E+10	1	-1E+10	1
4902663	23	C	03/19/2024	19:17	-127.602	48.645	0	29.20	0	9.3310	0	32.2540	0	24.918	0	28.951	0	269.8	4	95.0	4	-1E+10	1	-1E+10	1	-1E+10	1	-1E+10	1	-1E+10	1	-1E+10	1
4902663	23	C	03/19/2024	19:17	-127.602	48.645	0	30.20	0	9.3330	0	32.2530	0	24.916	0	29.943	0	269.7	4	94.9	4	-1E+10	1	-1E+10	1	-1E+10	1	-1E+10	1	-1E+10	1	-1E+10	1
4902663	23	C	03/19/2024	19:17	-127.602	48.645	0	31.30	0	9.3310	0	32.2530	0	24.917	0	31.033	0	269.5	4	94.8	4	-1E+10	1	-1E+10	1	-1E+10	1	-1E+10	1	-1E+10	1	-1E+10	1
4902663	23	C	03/19/2024	19:17	-127.602	48.645	0	32.30	0	9.3310	0	32.2530	0	24.917	0	32.025	0	269.3	4	94.8	4	-1E+10	1	-1E+10	1	-1E+10	1	-1E+10	1	-1E+10	1	-1E+10	1
4902663	23	C	03/19/2024	19:17	-127.602	48.645	0	33.20	0	9.3310	0	32.2540	0	24.918	0	32.917	0	269.2	4	94.7	4	-1E+10	1	-1E+10	1	-1E+10	1	-1E+10	1	-1E+10	1	-1E+10	1
4902663	23	C	03/19/2024	19:17	-127.602	48.645	0	34.20	0	9.3300	0	32.2540	0	24.918	0	33.908	0	269.0	4	94.7	4	-1E+10	1	-1E+10	1	-1E+10	1	-1E+10	1	-1E+10	1	-1E+10	1
4902663	23	C	03/19/2024	19:17	-127.602	48.645	0	35.10	0	9.3310	0	32.2530	0	24.917	0	34.800	0	268.9	4	94.6	4	-1E+10	1	-1E+10	1	-1E+10	1	-1E+10	1	-1E+10	1	-1E+10	1
4902663	23	C	03/19/2024	19:17	-127.602	48.645	0	36.00	0	9.3300	0	32.2530	0	24.917	0	35.693	0	268.5	4	94.5	4	-1E+10	1	-1E+10	1	-1E+10	1	-1E+10	1	-1E+10	1	-1E+10	1
4902663	23	C	03/19/2024	19:17	-127.602	48.645	0	36.90	0	9.3320	0	32.2530	0	24.917	0	36.585	0	268.1	4	94.3	4	-1E+10	1	-1E+10	1	-1E+10	1	-1E+10	1	-1E+10	1	-1E+10	1
4902663	23	C	03/19/2024	19:17	-127.602	48.645	0	37.90	0	9.3320	0	32.2540	0	24.918	0	37.576	0	267.7	4	94.2	4	-1E+10	1	-1E+10	1	-1E+10	1	-1E+10	1	-1E+10	1	-1E+10	1
4902663	23	C	03/19/2024	19:17	-127.602	48.645	0	38.90	0	9.3310	0	32.2530	0	24.917	0	38.568	0	267.3	4	94.1	4	-1E+10	1	-1E+10	1	-1E+10	1	-1E+10	1	-1E+10	1	-1E+10	1
4902663	23	C	03/19/2024	19:17	-127.602	48.645	0	39.90	0	9.3290	0	32.2540	0	24.918	0	39.559	0	267.0	4	94.0	4	-1E+10	1	-1E+10	1	-1E+10	1	-1E+10	1	-1E+10	1	-1E+10	1
4902663	23	C	03/19/2024	19:17	-127.602	48.645	0	40.90	0	9.3320	0	32.2530	0	24.917	0	40.550	0	266.5	4	93.8	4	-1E+10	1	-1E+10	1	-1E+10	1	-1E+10	1	-1E+10	1	-1E+10	1
4902663	23	C	03/19/2024	19:17	-127.602	48.645	0	41.80	0	9.3320	0	32.2530	0	24.917	0	41.443	0	265.9	4	93.6	4	-1E+10	1	-1E+10	1	-1E+10	1	-1E+10	1	-1E+10	1	-1E+10	1
4902663	23	C	03/19/2024	19:17	-127.602	48.645	0	42.80	0	9.3300	0	32.2540	0	24.918	0	42.434	0	265.3	4	93.3	4	-1E+10	1	-1E+10	1	-1E+10	1	-1E+10	1	-1E+10	1	-1E+10	1
4902663	23	C	03/19/2024	19:17	-127.602	48.645	0	43.70	0	9.3270	0	32.2540	0	24.918	0	43.326	0	264.5	4	93.1	4	-1E+10	1	-1E+10	1	-1E+10	1	-1E+10	1	-1E+10	1	-1E+10	1
4902663	23	C	03/19/2024	19:17	-127.602	48.645	0	44.70	0	9.3270	0	32.2540	0	24.918	0	44.317	0	263.7	4	92.8	4	-1E+10	1	-1E+10	1	-1E+10	1	-1E+10	1	-1E+10	1	-1E+10	1
4902663	23	C	03/19/2024	19:17	-127.602	48.645	0	45.70	0	9.3270	0	32.2550	0	24.919	0	45.309	0	263.0	4	92.5	4	-1E+10	1	-1E+10	1	-1E+10	1	-1E+10	1	-1E+10	1	-1E+10	1
4902663	23	C	03/19/2024	19:17	-127.602	48.645	0	46.80	0	9.3280	0	32.2530	0	24.918	0	46.399	0	261.8	4	92.1	4	-1E+10	1	-1E+10	1	-1E+10	1	-1E+10	1	-1E+10	1	-1E+10	1
4902663	23	C	03/19/2024	19:17	-127.602	48.645	0	47.80	0	9.3230	0	32.2540	0	24.919	0	47.391	0	260.7	4	91.7	4	-1E+10	1	-1E+10	1	-1E+10	1	-1E+10	1	-1E+10	1	-1E+10	1
4902663	23	C	03/19/2024	19:17	-127.602	48.645	0	48.90	0	9.2680	0	32.2620	0	24.934	0	48.481	0	259.8	4	91.3	4	-1E+10	1	-1E+10	1	-1E+10	1	-1E+10	1	-1E+10	1	-1E+10	1
4902663	23	C	03/19/2024	19:17	-127.602	48.645	0	49.90	0	9.2800	0	32.2680	0	24.937	0	49.472	0	258.7	4	90.9	4	-1E+10	1	-1E+10	1	-1E+10	1	-1E+10	1	-1E+10	1	-1E+10	1
4902663	23	C	03/19/2024	19:17	-127.602	48.645	0	50.90	0	9.2830	0	32.2590	0	24.929	0	50.464	0	257.8	4	90.6	4	-1E+10	1	-1E+10	1	-1E+10	1	-1E+10	1	-1E+10	1	-1E+10	1
4902663	23	C	03/19/2024	19:17	-127.602	48.645	0	51.90	0	9.2440	0	32.2610	0	24.937	0	51.455	0	256.9	4	90.2	4	-1E+10	1	-1E+10	1	-1E+10	1	-1E+10	1	-1E+10	1	-1E+10	1
4902663	23	C	03/19/2024	19:17	-127.602	48.645	0	53.00	0	9.2470	0	32.2610	0	24.937	0	52.545	0	255.9	4	89.9	4	-1E+10	1	-1E+10	1	-1E+10	1	-1E+10	1	-1E+10	1	-1E+10	1
4902663	23	C	03/19/2024	19:17	-127.602	48.645	0	54.00	0	9.2430	0	32.2620	0	24.938	0	53.537	0	255.0	4	89.6	4	-1E+10	1	-1E+10	1	-1E+10	1	-1E+10	1	-1E+10	1	-1E+10	1
4902663	23	C	03/19/2024	19:17	-127.602	48.645	0	54.90	0	9.2620	0	32.2610	0	24.934	0	54.429	0	253.3	4	89.0	4	-1E+10	1	-1E+10	1	-1E+10	1	-1E+10	1	-1E+10	1	-1E+10	1
4902663	23	C	03/19/2024	19:17	-127.602	48.645	0	55.90	0	9.2310	0	32.2630	0	24.941	0	55.420	0	251.1	4	88.2	4	-1E+10	1	-1E+10	1	-1E+10	1	-1E+10	1	-1E+10	1	-1E+10	1
4902663	23	C	03/19/2024	19:17	-127.602	48.645	0	57.00	0	9.2090	0	32.2660	0	24.947	0	56.511	0	248.8	4	87.3	4	-1E+10	1	-1E+10	1	-1E+10	1	-1E+10	1	-1E+10	1	-1E+10	1
4902663	23	C	03/19/2024	19:17	-127.602	48.645	0	58.00	0	9.2050	0	32.2660	0	24.947	0	57.502	0	246.3	4	86.4	4	-1E+10	1	-1E+10	1	-1E+10	1	-1E+10	1	-1E+10	1	-1E+10	1
4902663	23	C	03/19/2024	19:17	-127.602	48.645	0	59.30	0	9.1950	0	32.2780	0	24.958	0	58.790	0	242.7	4	85.2	4	-1E+10	1	-1E+10	1	-1E+10	1	-1E+10	1	-1E+10	1	-1E+10	1
4902663	23	C	03/19/2024	19:17	-127.602	48.645	0	60.70	0	9.2000	0	32.3290	0	24.997	0	60.178	0	238.0	4	83.6	4	-1E+10	1	-1E+10	1	-1E+10	1	-1E+10	1	-1E+10	1	-1E+10	1
4902663	23	C	03/19/2024	19:17	-127.602	48.645	0	61.80	0	9.2290	0	32.3760	0	25.030	0	61.269	0	234.2	4	82.3	4	-1E+10	1	-1E+10	1	-1E+10	1	-1E+10	1	-1E+10	1	-1E+10	1
4902663	23	C	03/19/2024	19:17	-127.602	48.645	0	63.00	0	9.2470	0	32.4040	0	25.049	0	62.458	0	230.7	4	81.1	4	-1E+10	1	-1E+10	1	-1E+10	1	-1E+10	1	-1E+10	1	-1E+10	1
4902663	23	C	03/19/2024	19:17	-127.602	48.645	0	64.00	0	9.2640	0	32.4280	0	25.065	0	63.449	0	226.6	4	79.7	4	-1E+10	1	-1E+10	1	-1E+10	1	-1E+10	1	-1E+10	1	-1E+10	1
4902663	23	C	03/19/2024	19:17	-127.602	48.645	0	65.10	0	9.2710	0	32.4410	0	25.074	0	64.540	0	220.0	4	77.4	4	-1E+10	1	-1E+10	1	-1E+10	1	-1E+10	1	-1E+10	1	-1E+10	1
4902663	23	C	03/19/2024	19:17	-127.602	48.645	0	65.70	0	9.2950	0	32.4870	0	25.106	0	65.134	0	216.4	4	76.2	4	-1E+10	1	-1E+10	1	-1E+10	1	-1E+10	1	-1E+10	1	-1E+10	1
4902663	23	C	03/19/2024	19:17	-127.602	48.645	0	66.80	0	9.3130	0	32.5290	0	25.136	0	66.225	0	212.2	4	74.8	4	-1E+10	1	-1E+10	1	-1E+10	1	-1E+10	1	-1E+10	1	-1E+10	1
4902663	23	C	03/19/2024	19:17	-127.602	48.645	0	67.80	0	9.3310	0	32.5890	0	25.180	0	67.216	0	208.1	4	73.4	4	-1E+10	1	-1E+10	1	-1E+10	1	-1E+10	1	-1E+10	1	-1E+10	1
4902663	23	C	03/19/2024	19:17	-127.602	48.645	0	69.00	0	9.3400	0	32.6460	0	25.223	0	68.405	0	204.9	4	72.3	4	-1E+10	1	-1E+10	1	-1E+10	1	-1E+10	1	-1E+10	1	-1E+10	1
4902663	23	C	03/19/2024	19:17	-127.602	48.645	0	70.10	0	9.3330	0	32.6520	0	25.229	0	69.496	0	202.7	4	71.5	4	-1E+10	1	-1E+10	1	-1E+10	1	-1E+10	1	-1E+10	1	-1E+10	1
4902663	23	C	03/19/2024	19:17	-127.602	48.645	0	71.00	0	9.3360	0	32.6570	0	25.232	0	70.388	0	200.3	4	70.7	4	-1E+10	1	-1E+10	1	-1E+10	1	-1E+10	1	-1E+10	1	-1E+10	1
4902663	23	C	03/19/2024	19:17	-127.602	48.645	0	71.80	0	9.3340	0	32.6580	0	25.234	0	71.181	0	197.7	4	69.8	4	-1E+10	1	-1E+10	1	-1E+10	1	-1E+10	1	-1E+10	1	-1E+10	1
4902663	23	C	03/19/2024	19:17	-127.602	48.645	0	72.60	0	9.3550	0	32.6780	0	25.246	0	71.974	0	195.1	4	68.9	4	-1E+10	1	-1E+10	1	-1E+10	1	-1E+10	1	-1E+10	1	-1E+10	1
4902663	23	C	03/19/2024	19:17	-127.602	48.645	0	73.60	0	9.3660	0	32.7380	0	25.291	0	72.965	0	192.1	4	67.9	4	-1E+10	1	-1E+10	1	-1E+10	1	-1E+10	1	-1E+10	1	-1E+10	1
4902663	23	C	03/19/2024	19:17	-127.602	48.645	0	74.80	0	9.3550	0	32.7750	0	25.322	0	74.154	0	188.8	4	66.7	4	-1E+10	1	-1E+10	1	-1E+10	1	-1E+10	1	-1E+10	1	-1E+10	1
4902663	23	C	03/19/2024	19:17	-127.602	48.645	0	76.10	0	9.3350	0	32.8080	0	25.351	0	75.443	0	185.0	4	65.4	4	-1E+10	1	-1E+10	1	-1E+10	1	-1E+10	1	-1E+10	1	-1E+10	1
4902663	23	C	03/19/2024	19:17	-127.602	48.645	0	76.90	0	9.3260	0	32.8230	0	25.364	0	76.236	0	181.6	4	64.2	4	-1E+10	1	-1E+10	1	-1E+10	1	-1E+10	1	-1E+10	1	-1E+10	1
4902663	23	C	03/19/2024	19:17	-127.602	48.645	0	77.70	0	9.2860	0	32.8770	0	25.413	0	77.029	0	178.3	4	63.0	4	-1E+10	1	-1E+10	1	-1E+10	1	-1E+10	1	-1E+10	1	-1E+10	1
4902663	23	C	03/19/2024	19:17	-127.602	48.645	0	78.50	0	9.2270	0	32.9260	0	25.460	0	77.822	0	175.6	4	61.9	4	-1E+10	1	-1E+10	1	-1E+10	1	-1E+10	1	-1E+10	1	-1E+10	1
4902663	23	C	03/19/2024	19:17	-127.602	48.645	0	79.50	0	9.1660	0	32.9630	0	25.499	0	78.813	0	173.4	4	61.1	4	-1E+10	1	-1E+10	1	-1E+10	1	-1E+10	1	-1E+10	1	-1E+10	1
4902663	23	C	03/19/2024	19:17	-127.602	48.645	0	80.60	0	9.1460	0	32.9770	0	25.513	0	79.903	0	171.3	4	60.4	4	-1E+10	1	-1E+10	1	-1E+10	1	-1E+10	1	-1E+10	1	-1E+10	1
4902663	23	C	03/19/2024	19:17	-127.602	48.645	0	81.80	0	9.1230	0	32.9880	0	25.525	0	81.093	0	168.0	4	59.2	4	-1E+10	1	-1E+10	1	-1E+10	1	-1E+10	1	-1E+10	1	-1E+10	1
4902663	23	C	03/19/2024	19:17	-127.602	48.645	0	83.00	0	9.0310	0	33.0330	0	25.575	0	82.282	0	164.6	4	57.9	4	-1E+10	1	-1E+10	1	-1E+10	1	-1E+10	1	-1E+10	1	-1E+10	1
4902663	23	C	03/19/2024	19:17	-127.602	48.645	0	84.00	0	9.0010	0	33.0660	0	25.605	0	83.273	0	161.0	4	56.6	4	-1E+10	1	-1E+10	1	-1E+10	1	-1E+10	1	-1E+10	1	-1E+10	1
4902663	23	C	03/19/2024	19:17	-127.602	48.645	0	85.20	0	8.9960	0	33.1040	0	25.636	0	84.463	0	160.9	4	56.6	4	-1E+10	1	-1E+10	1	-1E+10	1	-1E+10	1	-1E+10	1	-1E+10	1
4902663	23	C	03/19/2024	19:17	-127.602	48.645	0	86.20	0	8.9410	0	33.1680	0	25.695	0	85.454	0	158.2	4	55.5	4	-1E+10	1	-1E+10	1	-1E+10	1	-1E+10	1	-1E+10	1	-1E+10	1
4902663	23	C	03/19/2024	19:17	-127.602	48.645	0	86.90	0	8.8820	0	33.2060	0	25.734	0	86.148	0	156.0	4	54.7	4	-1E+10	1	-1E+10	1	-1E+10	1	-1E+10	1	-1E+10	1	-1E+10	1
4902663	23	C	03/19/2024	19:17	-127.602	48.645	0	87.70	0	8.6860	0	33.2860	0	25.827	0	86.940	0	154.4	4	53.9	4	-1E+10	1	-1E+10	1	-1E+10	1	-1E+10	1	-1E+10	1	-1E+10	1
4902663	23	C	03/19/2024	19:17	-127.602	48.645	0	88.50	0	8.5980	0	33.2900	0	25.843	0	87.733	0	152.8	4	53.3	4	-1E+10	1	-1E+10	1	-1E+10	1	-1E+10	1	-1E+10	1	-1E+10	1
4902663	23	C	03/19/2024	19:17	-127.602	48.645	0	89.60	0	8.5200	0	33.3200	0	25.879	0	88.824	0	151.0	4	52.6	4	-1E+10	1	-1E+10	1	-1E+10	1	-1E+10	1	-1E+10	1	-1E+10	1
4902663	23	C	03/19/2024	19:17	-127.602	48.645	0	90.90	0	8.4270	0	33.3670	0	25.930	0	90.112	0	148.7	4	51.7	4	-1E+10	1	-1E+10	1	-1E+10	1	-1E+10	1	-1E+10	1	-1E+10	1
4902663	23	C	03/19/2024	19:17	-127.602	48.645	0	92.20	0	8.3750	0	33.4120	0	25.973	0	91.400	0	146.9	4	51.0	4	-1E+10	1	-1E+10	1	-1E+10	1	-1E+10	1	-1E+10	1	-1E+10	1
4902663	23	C	03/19/2024	19:17	-127.602	48.645	0	93.40	0	8.3780	0	33.4160	0	25.975	0	92.590	0	145.2	4	50.4	4	-1E+10	1	-1E+10	1	-1E+10	1	-1E+10	1	-1E+10	1	-1E+10	1
4902663	23	C	03/19/2024	19:17	-127.602	48.645	0	94.60	0	8.3270	0	33.4530	0	26.012	0	93.779	0	143.4	4	49.8	4	-1E+10	1	-1E+10	1	-1E+10	1	-1E+10	1	-1E+10	1	-1E+10	1
4902663	23	C	03/19/2024	19:17	-127.602	48.645	0	95.60	0	8.2940	0	33.4660	0	26.027	0	94.770	0	142.2	4	49.3	4	-1E+10	1	-1E+10	1	-1E+10	1	-1E+10	1	-1E+10	1	-1E+10	1
4902663	23	C	03/19/2024	19:17	-127.602	48.645	0	96.90	0	8.2730	0	33.4950	0	26.053	0	96.059	0	140.6	4	48.8	4	-1E+10	1	-1E+10	1	-1E+10	1	-1E+10	1	-1E+10	1	-1E+10	1
4902663	23	C	03/19/2024	19:17	-127.602	48.645	0	98.40	0	8.1530	0	33.5140	0	26.086	0	97.545	0	139.3	4	48.2	4	-1E+10	1	-1E+10	1	-1E+10	1	-1E+10	1	-1E+10	1	-1E+10	1
4902663	23	C	03/19/2024	19:17	-127.602	48.645	0	99.40	0	8.2880	0	33.5530	0	26.096	0	98.536	0	137.9	4	47.9	4	-1E+10	1	-1E+10	1	-1E+10	1	-1E+10	1	-1E+10	1	-1E+10	1
4902663	23	C	03/19/2024	19:17	-127.602	48.645	0	100.40	0	8.3130	0	33.5680	0	26.105	0	99.527	0	136.7	4	47.5	4	-1E+10	1	-1E+10	1	-1E+10	1	-1E+10	1	-1E+10	1	-1E+10	1
4902663	23	C	03/19/2024	19:17	-127.602	48.645	0	101.80	0	8.3440	0	33.5940	0	26.120	0	100.915	0	135.3	4	47.0	4	-1E+10	1	-1E+10	1	-1E+10	1	-1E+10	1	-1E+10	1	-1E+10	1
4902663	23	C	03/19/2024	19:17	-127.602	48.645	0	103.00	0	8.3360	0	33.6060	0	26.131	0	102.104	0	134.2	4	46.7	4	-1E+10	1	-1E+10	1	-1E+10	1	-1E+10	1	-1E+10	1	-1E+10	1
4902663	23	C	03/19/2024	19:17	-127.602	48.645	0	103.80	0	8.3510	0	33.6170	0	26.137	0	102.897	0	133.6	4	46.5	4	-1E+10	1	-1E+10	1	-1E+10	1	-1E+10	1	-1E+10	1	-1E+10	1
4902663	23	C	03/19/2024	19:17	-127.602	48.645	0	105.00	0	8.3260	0	33.6200	0	26.143	0	104.086	0	132.5	4	46.1	4	-1E+10	1	-1E+10	1	-1E+10	1	-1E+10	1	-1E+10	1	-1E+10	1
4902663	23	C	03/19/2024	19:17	-127.602	48.645	0	106.20	0	8.3140	0	33.6230	0	26.148	0	105.275	0	131.0	4	45.5	4	-1E+10	1	-1E+10	1	-1E+10	1	-1E+10	1	-1E+10	1	-1E+10	1
4902663	23	C	03/19/2024	19:17	-127.602	48.645	0	107.00	0	8.2330	0	33.6220	0	26.159	0	106.068	0	129.9	4	45.1	4	-1E+10	1	-1E+10	1	-1E+10	1	-1E+10	1	-1E+10	1	-1E+10	1
4902663	23	C	03/19/2024	19:17	-127.602	48.645	0	107.80	0	8.1990	0	33.6250	0	26.166	0	106.861	0	128.5	4	44.5	4	-1E+10	1	-1E+10	1	-1E+10	1	-1E+10	1	-1E+10	1	-1E+10	1
4902663	23	C	03/19/2024	19:17	-127.602	48.645	0	108.90	0	8.1450	0	33.6400	0	26.186	0	107.951	0	126.3	4	43.7	4	-1E+10	1	-1E+10	1	-1E+10	1	-1E+10	1	-1E+10	1	-1E+10	1
4902663	23	C	03/19/2024	19:17	-127.602	48.645	0	110.10	0	8.1490	0	33.6530	0	26.196	0	109.141	0	124.1	4	43.0	4	-1E+10	1	-1E+10	1	-1E+10	1	-1E+10	1	-1E+10	1	-1E+10	1
4902663	23	C	03/19/2024	19:17	-127.602	48.645	0	110.90	0	8.1790	0	33.6650	0	26.201	0	109.933	0	122.4	4	42.4	4	-1E+10	1	-1E+10	1	-1E+10	1	-1E+10	1	-1E+10	1	-1E+10	1
4902663	23	C	03/19/2024	19:17	-127.602	48.645	0	112.00	0	8.2260	0	33.6930	0	26.216	0	111.023	0	120.3	4	41.7	4	-1E+10	1	-1E+10	1	-1E+10	1	-1E+10	1	-1E+10	1	-1E+10	1
4902663	23	C	03/19/2024	19:17	-127.602	48.645	0	113.20	0	8.2460	0	33.7060	0	26.223	0	112.213	0	117.9	4	40.9	4	-1E+10	1	-1E+10	1	-1E+10	1	-1E+10	1	-1E+10	1	-1E+10	1
4902663	23	C	03/19/2024	19:17	-127.602	48.645	0	114.00	0	8.2370	0	33.7170	0	26.233	0	113.005	0	116.4	4	40.4	4	-1E+10	1	-1E+10	1	-1E+10	1	-1E+10	1	-1E+10	1	-1E+10	1
4902663	23	C	03/19/2024	19:17	-127.602	48.645	0	114.80	0	8.2190	0	33.7490	0	26.261	0	113.798	0	115.0	4	39.9	4	-1E+10	1	-1E+10	1	-1E+10	1	-1E+10	1	-1E+10	1	-1E+10	1
4902663	23	C	03/19/2024	19:17	-127.602	48.645	0	115.70	0	8.2330	0	33.7520	0	26.261	0	114.690	0	113.8	4	39.5	4	-1E+10	1	-1E+10	1	-1E+10	1	-1E+10	1	-1E+10	1	-1E+10	1
4902663	23	C	03/19/2024	19:17	-127.602	48.645	0	116.90	0	8.3390	0	33.7860	0	26.272	0	115.879	0	113.2	4	39.4	4	-1E+10	1	-1E+10	1	-1E+10	1	-1E+10	1	-1E+10	1	-1E+10	1
4902663	23	C	03/19/2024	19:17	-127.602	48.645	0	118.30	0	8.3480	0	33.7940	0	26.277	0	117.267	0	113.1	4	39.4	4	-1E+10	1	-1E+10	1	-1E+10	1	-1E+10	1	-1E+10	1	-1E+10	1
4902663	23	C	03/19/2024	19:17	-127.602	48.645	0	119.10	0	8.3330	0	33.8000	0	26.284	0	118.060	0	113.6	4	39.6	4	-1E+10	1	-1E+10	1	-1E+10	1	-1E+10	1	-1E+10	1	-1E+10	1
4902663	23	C	03/19/2024	19:17	-127.602	48.645	0	120.10	0	8.3350	0	33.8040	0	26.287	0	119.050	0	114.5	4	39.9	4	-1E+10	1	-1E+10	1	-1E+10	1	-1E+10	1	-1E+10	1	-1E+10	1
4902663	23	C	03/19/2024	19:17	-127.602	48.645	0	121.00	0	8.2990	0	33.8130	0	26.299	0	119.942	0	115.6	4	40.2	4	-1E+10	1	-1E+10	1	-1E+10	1	-1E+10	1	-1E+10	1	-1E+10	1
4902663	23	C	03/19/2024	19:17	-127.602	48.645	0	121.80	0	8.2710	0	33.8040	0	26.296	0	120.735	0	116.6	4	40.5	4	-1E+10	1	-1E+10	1	-1E+10	1	-1E+10	1	-1E+10	1	-1E+10	1
4902663	23	C	03/19/2024	19:17	-127.602	48.645	0	122.70	0	8.2080	0	33.8120	0	26.312	0	121.627	0	116.9	4	40.6	4	-1E+10	1	-1E+10	1	-1E+10	1	-1E+10	1	-1E+10	1	-1E+10	1
4902663	23	C	03/19/2024	19:17	-127.602	48.645	0	123.70	0	8.1550	0	33.8210	0	26.327	0	122.618	0	117.4	4	40.7	4	-1E+10	1	-1E+10	1	-1E+10	1	-1E+10	1	-1E+10	1	-1E+10	1
4902663	23	C	03/19/2024	19:17	-127.602	48.645	0	124.50	0	8.1110	0	33.8190	0	26.332	0	123.411	0	117.8	4	40.8	4	-1E+10	1	-1E+10	1	-1E+10	1	-1E+10	1	-1E+10	1	-1E+10	1
4902663	23	C	03/19/2024	19:17	-127.602	48.645	0	125.90	0	8.1080	0	33.8230	0	26.336	0	124.798	0	118.6	4	41.1	4	-1E+10	1	-1E+10	1	-1E+10	1	-1E+10	1	-1E+10	1	-1E+10	1
4902663	23	C	03/19/2024	19:17	-127.602	48.645	0	127.30	0	8.0890	0	33.8280	0	26.342	0	126.185	0	119.9	4	41.5	4	-1E+10	1	-1E+10	1	-1E+10	1	-1E+10	1	-1E+10	1	-1E+10	1
4902663	23	C	03/19/2024	19:17	-127.602	48.645	0	128.20	0	8.0090	0	33.8310	0	26.357	0	127.077	0	121.2	4	41.9	4	-1E+10	1	-1E+10	1	-1E+10	1	-1E+10	1	-1E+10	1	-1E+10	1
4902663	23	C	03/19/2024	19:17	-127.602	48.645	0	129.10	0	7.9020	0	33.8090	0	26.355	0	127.969	0	122.3	4	42.2	4	-1E+10	1	-1E+10	1	-1E+10	1	-1E+10	1	-1E+10	1	-1E+10	1
4902663	23	C	03/19/2024	19:17	-127.602	48.645	0	130.10	0	7.9220	0	33.8290	0	26.368	0	128.960	0	123.6	4	42.6	4	-1E+10	1	-1E+10	1	-1E+10	1	-1E+10	1	-1E+10	1	-1E+10	1
4902663	23	C	03/19/2024	19:17	-127.602	48.645	0	131.00	0	7.8590	0	33.8260	0	26.375	0	129.852	0	124.7	4	43.0	4	-1E+10	1	-1E+10	1	-1E+10	1	-1E+10	1	-1E+10	1	-1E+10	1
4902663	23	C	03/19/2024	19:17	-127.602	48.645	0	131.90	0	7.7150	0	33.7990	0	26.374	0	130.744	0	125.2	4	43.0	4	-1E+10	1	-1E+10	1	-1E+10	1	-1E+10	1	-1E+10	1	-1E+10	1
4902663	23	C	03/19/2024	19:17	-127.602	48.645	0	132.80	0	7.6890	0	33.7970	0	26.377	0	131.635	0	125.3	4	43.0	4	-1E+10	1	-1E+10	1	-1E+10	1	-1E+10	1	-1E+10	1	-1E+10	1
4902663	23	C	03/19/2024	19:17	-127.602	48.645	0	133.70	0	7.6420	0	33.7960	0	26.383	0	132.527	0	125.2	4	42.9	4	-1E+10	1	-1E+10	1	-1E+10	1	-1E+10	1	-1E+10	1	-1E+10	1
4902663	23	C	03/19/2024	19:17	-127.602	48.645	0	134.70	0	7.5960	0	33.7950	0	26.388	0	133.518	0	125.2	4	42.8	4	-1E+10	1	-1E+10	1	-1E+10	1	-1E+10	1	-1E+10	1	-1E+10	1
4902663	23	C	03/19/2024	19:17	-127.602	48.645	0	135.70	0	7.6490	0	33.8110	0	26.393	0	134.509	0	125.5	4	43.0	4	-1E+10	1	-1E+10	1	-1E+10	1	-1E+10	1	-1E+10	1	-1E+10	1
4902663	23	C	03/19/2024	19:17	-127.602	48.645	0	136.60	0	7.6730	0	33.8240	0	26.400	0	135.401	0	126.4	4	43.4	4	-1E+10	1	-1E+10	1	-1E+10	1	-1E+10	1	-1E+10	1	-1E+10	1
4902663	23	C	03/19/2024	19:17	-127.602	48.645	0	137.60	0	7.6150	0	33.8220	0	26.407	0	136.392	0	127.1	4	43.6	4	-1E+10	1	-1E+10	1	-1E+10	1	-1E+10	1	-1E+10	1	-1E+10	1
4902663	23	C	03/19/2024	19:17	-127.602	48.645	0	138.50	0	7.5490	0	33.8170	0	26.412	0	137.284	0	127.7	4	43.7	4	-1E+10	1	-1E+10	1	-1E+10	1	-1E+10	1	-1E+10	1	-1E+10	1
4902663	23	C	03/19/2024	19:17	-127.602	48.645	0	139.50	0	7.5200	0	33.8130	0	26.413	0	138.274	0	127.9	4	43.7	4	-1E+10	1	-1E+10	1	-1E+10	1	-1E+10	1	-1E+10	1	-1E+10	1
4902663	23	C	03/19/2024	19:17	-127.602	48.645	0	140.50	0	7.4610	0	33.8050	0	26.415	0	139.265	0	127.9	4	43.7	4	-1E+10	1	-1E+10	1	-1E+10	1	-1E+10	1	-1E+10	1	-1E+10	1
4902663	23	C	03/19/2024	19:17	-127.602	48.645	0	141.50	0	7.5280	0	33.8020	0	26.404	0	140.256	0	128.4	4	43.9	4	-1E+10	1	-1E+10	1	-1E+10	1	-1E+10	1	-1E+10	1	-1E+10	1
4902663	23	C	03/19/2024	19:17	-127.602	48.645	0	142.50	0	7.5600	0	33.8330	0	26.423	0	141.247	0	129.6	4	44.3	4	-1E+10	1	-1E+10	1	-1E+10	1	-1E+10	1	-1E+10	1	-1E+10	1
4902663	23	C	03/19/2024	19:17	-127.602	48.645	0	143.50	0	7.4320	0	33.8160	0	26.428	0	142.238	0	130.5	4	44.5	4	-1E+10	1	-1E+10	1	-1E+10	1	-1E+10	1	-1E+10	1	-1E+10	1
4902663	23	C	03/19/2024	19:17	-127.602	48.645	0	144.50	0	7.4120	0	33.8130	0	26.429	0	143.229	0	130.9	4	44.6	4	-1E+10	1	-1E+10	1	-1E+10	1	-1E+10	1	-1E+10	1	-1E+10	1
4902663	23	C	03/19/2024	19:17	-127.602	48.645	0	145.50	0	7.3660	0	33.8110	0	26.434	0	144.220	0	131.0	4	44.6	4	-1E+10	1	-1E+10	1	-1E+10	1	-1E+10	1	-1E+10	1	-1E+10	1
4902663	23	C	03/19/2024	19:17	-127.602	48.645	0	146.90	0	7.3390	0	33.8080	0	26.435	0	145.607	0	130.7	4	44.5	4	-1E+10	1	-1E+10	1	-1E+10	1	-1E+10	1	-1E+10	1	-1E+10	1
4902663	23	C	03/19/2024	19:17	-127.602	48.645	0	148.40	0	7.3170	0	33.8120	0	26.441	0	147.093	0	130.3	4	44.3	4	-1E+10	1	-1E+10	1	-1E+10	1	-1E+10	1	-1E+10	1	-1E+10	1
4902663	23	C	03/19/2024	19:17	-127.602	48.645	0	149.40	0	7.3050	0	33.8130	0	26.444	0	148.084	0	130.0	4	44.2	4	-1E+10	1	-1E+10	1	-1E+10	1	-1E+10	1	-1E+10	1	-1E+10	1
4902663	23	C	03/19/2024	19:17	-127.602	48.645	0	150.40	0	7.2730	0	33.8190	0	26.453	0	149.075	0	129.8	4	44.1	4	-1E+10	1	-1E+10	1	-1E+10	1	-1E+10	1	-1E+10	1	-1E+10	1
4902663	23	C	03/19/2024	19:17	-127.602	48.645	0	151.40	0	7.2740	0	33.8220	0	26.455	0	150.066	0	129.7	4	44.1	4	-1E+10	1	-1E+10	1	-1E+10	1	-1E+10	1	-1E+10	1	-1E+10	1
4902663	23	C	03/19/2024	19:17	-127.602	48.645	0	152.40	0	7.2790	0	33.8250	0	26.457	0	151.056	0	129.7	4	44.1	4	-1E+10	1	-1E+10	1	-1E+10	1	-1E+10	1	-1E+10	1	-1E+10	1
4902663	23	C	03/19/2024	19:17	-127.602	48.645	0	153.40	0	7.2700	0	33.8290	0	26.461	0	152.047	0	129.8	4	44.1	4	-1E+10	1	-1E+10	1	-1E+10	1	-1E+10	1	-1E+10	1	-1E+10	1
4902663	23	C	03/19/2024	19:17	-127.602	48.645	0	154.40	0	7.2660	0	33.8270	0	26.460	0	153.038	0	130.0	4	44.2	4	-1E+10	1	-1E+10	1	-1E+10	1	-1E+10	1	-1E+10	1	-1E+10	1
4902663	23	C	03/19/2024	19:17	-127.602	48.645	0	155.40	0	7.2640	0	33.8270	0	26.461	0	154.029	0	130.2	4	44.3	4	-1E+10	1	-1E+10	1	-1E+10	1	-1E+10	1	-1E+10	1	-1E+10	1
4902663	23	C	03/19/2024	19:17	-127.602	48.645	0	156.30	0	7.2620	0	33.8270	0	26.461	0	154.921	0	130.5	4	44.4	4	-1E+10	1	-1E+10	1	-1E+10	1	-1E+10	1	-1E+10	1	-1E+10	1
4902663	23	C	03/19/2024	19:17	-127.602	48.645	0	157.30	0	7.2550	0	33.8280	0	26.463	0	155.911	0	130.8	4	44.4	4	-1E+10	1	-1E+10	1	-1E+10	1	-1E+10	1	-1E+10	1	-1E+10	1
4902663	23	C	03/19/2024	19:17	-127.602	48.645	0	158.30	0	7.2260	0	33.8280	0	26.467	0	156.902	0	131.1	4	44.5	4	-1E+10	1	-1E+10	1	-1E+10	1	-1E+10	1	-1E+10	1	-1E+10	1
4902663	23	C	03/19/2024	19:17	-127.602	48.645	0	159.30	0	7.2010	0	33.8300	0	26.472	0	157.893	0	131.4	4	44.6	4	-1E+10	1	-1E+10	1	-1E+10	1	-1E+10	1	-1E+10	1	-1E+10	1
4902663	23	C	03/19/2024	19:17	-127.602	48.645	0	160.30	0	7.1720	0	33.8240	0	26.471	0	158.884	0	131.5	4	44.6	4	-1E+10	1	-1E+10	1	-1E+10	1	-1E+10	1	-1E+10	1	-1E+10	1
4902663	23	C	03/19/2024	19:17	-127.602	48.645	0	161.40	0	7.1490	0	33.8240	0	26.474	0	159.974	0	131.7	4	44.6	4	-1E+10	1	-1E+10	1	-1E+10	1	-1E+10	1	-1E+10	1	-1E+10	1
4902663	23	C	03/19/2024	19:17	-127.602	48.645	0	162.40	0	7.1400	0	33.8280	0	26.479	0	160.964	0	131.8	4	44.7	4	-1E+10	1	-1E+10	1	-1E+10	1	-1E+10	1	-1E+10	1	-1E+10	1
4902663	23	C	03/19/2024	19:17	-127.602	48.645	0	163.40	0	7.1180	0	33.8290	0	26.482	0	161.955	0	132.0	4	44.7	4	-1E+10	1	-1E+10	1	-1E+10	1	-1E+10	1	-1E+10	1	-1E+10	1
4902663	23	C	03/19/2024	19:17	-127.602	48.645	0	164.40	0	7.1220	0	33.8310	0	26.483	0	162.946	0	132.3	4	44.8	4	-1E+10	1	-1E+10	1	-1E+10	1	-1E+10	1	-1E+10	1	-1E+10	1
4902663	23	C	03/19/2024	19:17	-127.602	48.645	0	165.50	0	7.1090	0	33.8290	0	26.484	0	164.036	0	132.5	4	44.9	4	-1E+10	1	-1E+10	1	-1E+10	1	-1E+10	1	-1E+10	1	-1E+10	1
4902663	23	C	03/19/2024	19:17	-127.602	48.645	0	166.50	0	7.0610	0	33.8270	0	26.489	0	165.026	0	132.6	4	44.9	4	-1E+10	1	-1E+10	1	-1E+10	1	-1E+10	1	-1E+10	1	-1E+10	1
4902663	23	C	03/19/2024	19:17	-127.602	48.645	0	167.50	0	7.0430	0	33.8250	0	26.490	0	166.017	0	132.5	4	44.8	4	-1E+10	1	-1E+10	1	-1E+10	1	-1E+10	1	-1E+10	1	-1E+10	1
4902663	23	C	03/19/2024	19:17	-127.602	48.645	0	168.50	0	7.0390	0	33.8240	0	26.489	0	167.008	0	132.3	4	44.7	4	-1E+10	1	-1E+10	1	-1E+10	1	-1E+10	1	-1E+10	1	-1E+10	1
4902663	23	C	03/19/2024	19:17	-127.602	48.645	0	169.60	0	7.0280	0	33.8240	0	26.491	0	168.098	0	132.0	4	44.6	4	-1E+10	1	-1E+10	1	-1E+10	1	-1E+10	1	-1E+10	1	-1E+10	1
4902663	23	C	03/19/2024	19:17	-127.602	48.645	0	170.60	0	6.9840	0	33.8240	0	26.497	0	169.089	0	131.6	4	44.4	4	-1E+10	1	-1E+10	1	-1E+10	1	-1E+10	1	-1E+10	1	-1E+10	1
4902663	23	C	03/19/2024	19:17	-127.602	48.645	0	171.60	0	6.9820	0	33.8270	0	26.500	0	170.079	0	131.2	4	44.3	4	-1E+10	1	-1E+10	1	-1E+10	1	-1E+10	1	-1E+10	1	-1E+10	1
4902663	23	C	03/19/2024	19:17	-127.602	48.645	0	172.50	0	6.9860	0	33.8270	0	26.499	0	170.971	0	130.9	4	44.2	4	-1E+10	1	-1E+10	1	-1E+10	1	-1E+10	1	-1E+10	1	-1E+10	1
4902663	23	C	03/19/2024	19:17	-127.602	48.645	0	173.50	0	6.9990	0	33.8320	0	26.501	0	171.962	0	130.8	4	44.2	4	-1E+10	1	-1E+10	1	-1E+10	1	-1E+10	1	-1E+10	1	-1E+10	1
4902663	23	C	03/19/2024	19:17	-127.602	48.645	0	174.50	0	6.9970	0	33.8340	0	26.503	0	172.952	0	131.1	4	44.3	4	-1E+10	1	-1E+10	1	-1E+10	1	-1E+10	1	-1E+10	1	-1E+10	1
4902663	23	C	03/19/2024	19:17	-127.602	48.645	0	175.50	0	6.9930	0	33.8360	0	26.505	0	173.943	0	131.7	4	44.5	4	-1E+10	1	-1E+10	1	-1E+10	1	-1E+10	1	-1E+10	1	-1E+10	1
4902663	23	C	03/19/2024	19:17	-127.602	48.645	0	176.50	0	6.8980	0	33.8270	0	26.511	0	174.934	0	131.9	4	44.5	4	-1E+10	1	-1E+10	1	-1E+10	1	-1E+10	1	-1E+10	1	-1E+10	1
4902663	23	C	03/19/2024	19:17	-127.602	48.645	0	177.60	0	6.8500	0	33.8250	0	26.516	0	176.024	0	131.6	4	44.3	4	-1E+10	1	-1E+10	1	-1E+10	1	-1E+10	1	-1E+10	1	-1E+10	1
4902663	23	C	03/19/2024	19:17	-127.602	48.645	0	178.60	0	6.8440	0	33.8260	0	26.518	0	177.014	0	131.3	4	44.2	4	-1E+10	1	-1E+10	1	-1E+10	1	-1E+10	1	-1E+10	1	-1E+10	1
4902663	23	C	03/19/2024	19:17	-127.602	48.645	0	179.60	0	6.8160	0	33.8310	0	26.525	0	178.005	0	131.0	4	44.1	4	-1E+10	1	-1E+10	1	-1E+10	1	-1E+10	1	-1E+10	1	-1E+10	1
4902663	23	C	03/19/2024	19:17	-127.602	48.645	0	180.60	0	6.8170	0	33.8310	0	26.525	0	178.996	0	130.8	4	44.0	4	-1E+10	1	-1E+10	1	-1E+10	1	-1E+10	1	-1E+10	1	-1E+10	1
4902663	23	C	03/19/2024	19:17	-127.602	48.645	0	181.60	0	6.8070	0	33.8320	0	26.527	0	179.986	0	130.5	4	43.9	4	-1E+10	1	-1E+10	1	-1E+10	1	-1E+10	1	-1E+10	1	-1E+10	1
4902663	23	C	03/19/2024	19:17	-127.602	48.645	0	182.60	0	6.7940	0	33.8310	0	26.528	0	180.977	0	130.1	4	43.8	4	-1E+10	1	-1E+10	1	-1E+10	1	-1E+10	1	-1E+10	1	-1E+10	1
4902663	23	C	03/19/2024	19:17	-127.602	48.645	0	183.70	0	6.7810	0	33.8310	0	26.530	0	182.067	0	129.6	4	43.6	4	-1E+10	1	-1E+10	1	-1E+10	1	-1E+10	1	-1E+10	1	-1E+10	1
4902663	23	C	03/19/2024	19:17	-127.602	48.645	0	184.70	0	6.7750	0	33.8320	0	26.532	0	183.057	0	128.9	4	43.3	4	-1E+10	1	-1E+10	1	-1E+10	1	-1E+10	1	-1E+10	1	-1E+10	1
4902663	23	C	03/19/2024	19:17	-127.602	48.645	0	185.80	0	6.7830	0	33.8320	0	26.531	0	184.147	0	128.4	4	43.2	4	-1E+10	1	-1E+10	1	-1E+10	1	-1E+10	1	-1E+10	1	-1E+10	1
4902663	23	C	03/19/2024	19:17	-127.602	48.645	0	186.80	0	6.7620	0	33.8370	0	26.537	0	185.138	0	127.9	4	43.0	4	-1E+10	1	-1E+10	1	-1E+10	1	-1E+10	1	-1E+10	1	-1E+10	1
4902663	23	C	03/19/2024	19:17	-127.602	48.645	0	187.80	0	6.7550	0	33.8360	0	26.537	0	186.128	0	127.4	4	42.8	4	-1E+10	1	-1E+10	1	-1E+10	1	-1E+10	1	-1E+10	1	-1E+10	1
4902663	23	C	03/19/2024	19:17	-127.602	48.645	0	188.90	0	6.7560	0	33.8360	0	26.537	0	187.218	0	126.8	4	42.6	4	-1E+10	1	-1E+10	1	-1E+10	1	-1E+10	1	-1E+10	1	-1E+10	1
4902663	23	C	03/19/2024	19:17	-127.602	48.645	0	189.90	0	6.7540	0	33.8370	0	26.538	0	188.209	0	126.0	4	42.3	4	-1E+10	1	-1E+10	1	-1E+10	1	-1E+10	1	-1E+10	1	-1E+10	1
4902663	23	C	03/19/2024	19:17	-127.602	48.645	0	190.90	0	6.7620	0	33.8350	0	26.536	0	189.199	0	125.3	4	42.1	4	-1E+10	1	-1E+10	1	-1E+10	1	-1E+10	1	-1E+10	1	-1E+10	1
4902663	23	C	03/19/2024	19:17	-127.602	48.645	0	191.90	0	6.7710	0	33.8410	0	26.539	0	190.190	0	124.9	4	42.0	4	-1E+10	1	-1E+10	1	-1E+10	1	-1E+10	1	-1E+10	1	-1E+10	1
4902663	23	C	03/19/2024	19:17	-127.602	48.645	0	192.90	0	6.7620	0	33.8430	0	26.542	0	191.181	0	124.3	4	41.8	4	-1E+10	1	-1E+10	1	-1E+10	1	-1E+10	1	-1E+10	1	-1E+10	1
4902663	23	C	03/19/2024	19:17	-127.602	48.645	0	193.90	0	6.7090	0	33.8410	0	26.548	0	192.171	0	123.4	4	41.4	4	-1E+10	1	-1E+10	1	-1E+10	1	-1E+10	1	-1E+10	1	-1E+10	1
4902663	23	C	03/19/2024	19:17	-127.602	48.645	0	195.00	0	6.7180	0	33.8450	0	26.550	0	193.261	0	122.7	4	41.2	4	-1E+10	1	-1E+10	1	-1E+10	1	-1E+10	1	-1E+10	1	-1E+10	1
4902663	23	C	03/19/2024	19:17	-127.602	48.645	0	196.00	0	6.7250	0	33.8510	0	26.553	0	194.252	0	122.4	4	41.1	4	-1E+10	1	-1E+10	1	-1E+10	1	-1E+10	1	-1E+10	1	-1E+10	1
4902663	23	C	03/19/2024	19:17	-127.602	48.645	0	197.00	0	6.7160	0	33.8510	0	26.555	0	195.242	0	122.3	4	41.1	4	-1E+10	1	-1E+10	1	-1E+10	1	-1E+10	1	-1E+10	1	-1E+10	1
4902663	23	C	03/19/2024	19:17	-127.602	48.645	0	198.00	0	6.7000	0	33.8530	0	26.558	0	196.233	0	122.1	4	41.0	4	-1E+10	1	-1E+10	1	-1E+10	1	-1E+10	1	-1E+10	1	-1E+10	1
4902663	23	C	03/19/2024	19:17	-127.602	48.645	0	199.00	0	6.6760	0	33.8530	0	26.562	0	197.223	0	122.0	4	40.9	4	-1E+10	1	-1E+10	1	-1E+10	1	-1E+10	1	-1E+10	1	-1E+10	1
4902663	23	C	03/19/2024	19:17	-127.602	48.645	0	200.00	0	6.6650	0	33.8530	0	26.563	0	198.214	0	121.7	4	40.8	4	-1E+10	1	-1E+10	1	-1E+10	1	-1E+10	1	-1E+10	1	-1E+10	1
4902663	23	C	03/19/2024	19:17	-127.602	48.645	0	200.90	0	6.6590	0	33.8530	0	26.564	0	199.105	0	121.5	4	40.7	4	-1E+10	1	-1E+10	1	-1E+10	1	-1E+10	1	-1E+10	1	-1E+10	1
4902663	23	C	03/19/2024	19:17	-127.602	48.645	0	201.90	0	6.6490	0	33.8540	0	26.566	0	200.096	0	121.1	4	40.6	4	-1E+10	1	-1E+10	1	-1E+10	1	-1E+10	1	-1E+10	1	-1E+10	1
4902663	23	C	03/19/2024	19:17	-127.602	48.645	0	202.80	0	6.6390	0	33.8550	0	26.568	0	200.988	0	120.6	4	40.4	4	-1E+10	1	-1E+10	1	-1E+10	1	-1E+10	1	-1E+10	1	-1E+10	1
4902663	23	C	03/19/2024	19:17	-127.602	48.645	0	203.80	0	6.6180	0	33.8440	0	26.562	0	201.978	0	119.8	4	40.1	4	-1E+10	1	-1E+10	1	-1E+10	1	-1E+10	1	-1E+10	1	-1E+10	1
4902663	23	C	03/19/2024	19:17	-127.602	48.645	0	204.80	0	6.5940	0	33.8500	0	26.570	0	202.969	0	118.8	4	39.8	4	-1E+10	1	-1E+10	1	-1E+10	1	-1E+10	1	-1E+10	1	-1E+10	1
4902663	23	C	03/19/2024	19:17	-127.602	48.645	0	205.80	0	6.6210	0	33.8560	0	26.571	0	203.959	0	118.0	4	39.5	4	-1E+10	1	-1E+10	1	-1E+10	1	-1E+10	1	-1E+10	1	-1E+10	1
4902663	23	C	03/19/2024	19:17	-127.602	48.645	0	206.80	0	6.6060	0	33.8550	0	26.572	0	204.950	0	117.4	4	39.3	4	-1E+10	1	-1E+10	1	-1E+10	1	-1E+10	1	-1E+10	1	-1E+10	1
4902663	23	C	03/19/2024	19:17	-127.602	48.645	0	207.80	0	6.5850	0	33.8530	0	26.574	0	205.940	0	116.7	4	39.0	4	-1E+10	1	-1E+10	1	-1E+10	1	-1E+10	1	-1E+10	1	-1E+10	1
4902663	23	C	03/19/2024	19:17	-127.602	48.645	0	208.80	0	6.5750	0	33.8570	0	26.578	0	206.931	0	115.8	4	38.7	4	-1E+10	1	-1E+10	1	-1E+10	1	-1E+10	1	-1E+10	1	-1E+10	1
4902663	23	C	03/19/2024	19:17	-127.602	48.645	0	209.80	0	6.5590	0	33.8550	0	26.579	0	207.922	0	114.7	4	38.4	4	-1E+10	1	-1E+10	1	-1E+10	1	-1E+10	1	-1E+10	1	-1E+10	1
4902663	23	C	03/19/2024	19:17	-127.602	48.645	0	210.80	0	6.5610	0	33.8580	0	26.581	0	208.912	0	113.5	4	38.0	4	-1E+10	1	-1E+10	1	-1E+10	1	-1E+10	1	-1E+10	1	-1E+10	1
4902663	23	C	03/19/2024	19:17	-127.602	48.645	0	211.80	0	6.5810	0	33.8610	0	26.581	0	209.903	0	112.4	4	37.6	4	-1E+10	1	-1E+10	1	-1E+10	1	-1E+10	1	-1E+10	1	-1E+10	1
4902663	23	C	03/19/2024	19:17	-127.602	48.645	0	212.80	0	6.6130	0	33.8750	0	26.587	0	210.893	0	111.9	4	37.5	4	-1E+10	1	-1E+10	1	-1E+10	1	-1E+10	1	-1E+10	1	-1E+10	1
4902663	23	C	03/19/2024	19:17	-127.602	48.645	0	213.80	0	6.6060	0	33.8770	0	26.590	0	211.884	0	111.6	4	37.4	4	-1E+10	1	-1E+10	1	-1E+10	1	-1E+10	1	-1E+10	1	-1E+10	1
4902663	23	C	03/19/2024	19:17	-127.602	48.645	0	214.80	0	6.5900	0	33.8750	0	26.590	0	212.874	0	111.3	4	37.3	4	-1E+10	1	-1E+10	1	-1E+10	1	-1E+10	1	-1E+10	1	-1E+10	1
4902663	23	C	03/19/2024	19:17	-127.602	48.645	0	215.80	0	6.5900	0	33.8740	0	26.590	0	213.865	0	110.8	4	37.1	4	-1E+10	1	-1E+10	1	-1E+10	1	-1E+10	1	-1E+10	1	-1E+10	1
4902663	23	C	03/19/2024	19:17	-127.602	48.645	0	216.70	0	6.5970	0	33.8740	0	26.589	0	214.756	0	110.4	4	37.0	4	-1E+10	1	-1E+10	1	-1E+10	1	-1E+10	1	-1E+10	1	-1E+10	1
4902663	23	C	03/19/2024	19:17	-127.602	48.645	0	217.70	0	6.5870	0	33.8760	0	26.592	0	215.747	0	110.1	4	36.9	4	-1E+10	1	-1E+10	1	-1E+10	1	-1E+10	1	-1E+10	1	-1E+10	1
4902663	23	C	03/19/2024	19:17	-127.602	48.645	0	218.80	0	6.5630	0	33.8780	0	26.596	0	216.836	0	109.8	4	36.8	4	-1E+10	1	-1E+10	1	-1E+10	1	-1E+10	1	-1E+10	1	-1E+10	1
4902663	23	C	03/19/2024	19:17	-127.602	48.645	0	219.80	0	6.5510	0	33.8740	0	26.595	0	217.827	0	109.3	4	36.6	4	-1E+10	1	-1E+10	1	-1E+10	1	-1E+10	1	-1E+10	1	-1E+10	1
4902663	23	C	03/19/2024	19:17	-127.602	48.645	0	220.80	0	6.5370	0	33.8730	0	26.596	0	218.817	0	108.7	4	36.4	4	-1E+10	1	-1E+10	1	-1E+10	1	-1E+10	1	-1E+10	1	-1E+10	1
4902663	23	C	03/19/2024	19:17	-127.602	48.645	0	221.80	0	6.5350	0	33.8760	0	26.599	0	219.808	0	107.9	4	36.1	4	-1E+10	1	-1E+10	1	-1E+10	1	-1E+10	1	-1E+10	1	-1E+10	1
4902663	23	C	03/19/2024	19:17	-127.602	48.645	0	222.80	0	6.4910	0	33.8700	0	26.600	0	220.798	0	107.1	4	35.8	4	-1E+10	1	-1E+10	1	-1E+10	1	-1E+10	1	-1E+10	1	-1E+10	1
4902663	23	C	03/19/2024	19:17	-127.602	48.645	0	223.80	0	6.4990	0	33.8760	0	26.603	0	221.789	0	106.3	4	35.5	4	-1E+10	1	-1E+10	1	-1E+10	1	-1E+10	1	-1E+10	1	-1E+10	1
4902663	23	C	03/19/2024	19:17	-127.602	48.645	0	224.80	0	6.5350	0	33.8770	0	26.599	0	222.779	0	105.9	4	35.4	4	-1E+10	1	-1E+10	1	-1E+10	1	-1E+10	1	-1E+10	1	-1E+10	1
4902663	23	C	03/19/2024	19:17	-127.602	48.645	0	225.80	0	6.5570	0	33.8900	0	26.607	0	223.770	0	105.8	4	35.4	4	-1E+10	1	-1E+10	1	-1E+10	1	-1E+10	1	-1E+10	1	-1E+10	1
4902663	23	C	03/19/2024	19:17	-127.602	48.645	0	226.70	0	6.5450	0	33.8920	0	26.610	0	224.661	0	105.8	4	35.4	4	-1E+10	1	-1E+10	1	-1E+10	1	-1E+10	1	-1E+10	1	-1E+10	1
4902663	23	C	03/19/2024	19:17	-127.602	48.645	0	227.80	0	6.5290	0	33.8910	0	26.611	0	225.751	0	106.3	4	35.5	4	-1E+10	1	-1E+10	1	-1E+10	1	-1E+10	1	-1E+10	1	-1E+10	1
4902663	23	C	03/19/2024	19:17	-127.602	48.645	0	228.90	0	6.5210	0	33.8910	0	26.612	0	226.840	0	106.7	4	35.7	4	-1E+10	1	-1E+10	1	-1E+10	1	-1E+10	1	-1E+10	1	-1E+10	1
4902663	23	C	03/19/2024	19:17	-127.602	48.645	0	230.00	0	6.4750	0	33.8900	0	26.617	0	227.930	0	106.8	4	35.7	4	-1E+10	1	-1E+10	1	-1E+10	1	-1E+10	1	-1E+10	1	-1E+10	1
4902663	23	C	03/19/2024	19:17	-127.602	48.645	0	230.80	0	6.4260	0	33.8810	0	26.617	0	228.722	0	106.5	4	35.5	4	-1E+10	1	-1E+10	1	-1E+10	1	-1E+10	1	-1E+10	1	-1E+10	1
4902663	23	C	03/19/2024	19:17	-127.602	48.645	0	231.90	0	6.3870	0	33.8780	0	26.619	0	229.811	0	105.7	4	35.2	4	-1E+10	1	-1E+10	1	-1E+10	1	-1E+10	1	-1E+10	1	-1E+10	1
4902663	23	C	03/19/2024	19:17	-127.602	48.645	0	233.00	0	6.3830	0	33.8780	0	26.620	0	230.901	0	104.7	4	34.9	4	-1E+10	1	-1E+10	1	-1E+10	1	-1E+10	1	-1E+10	1	-1E+10	1
4902663	23	C	03/19/2024	19:17	-127.602	48.645	0	233.80	0	6.3820	0	33.8780	0	26.620	0	231.693	0	103.8	4	34.6	4	-1E+10	1	-1E+10	1	-1E+10	1	-1E+10	1	-1E+10	1	-1E+10	1
4902663	23	C	03/19/2024	19:17	-127.602	48.645	0	234.90	0	6.3970	0	33.8820	0	26.621	0	232.783	0	102.8	4	34.3	4	-1E+10	1	-1E+10	1	-1E+10	1	-1E+10	1	-1E+10	1	-1E+10	1
4902663	23	C	03/19/2024	19:17	-127.602	48.645	0	236.10	0	6.4070	0	33.8840	0	26.622	0	233.971	0	101.8	4	34.0	4	-1E+10	1	-1E+10	1	-1E+10	1	-1E+10	1	-1E+10	1	-1E+10	1
4902663	23	C	03/19/2024	19:17	-127.602	48.645	0	236.80	0	6.4230	0	33.8910	0	26.625	0	234.664	0	101.4	4	33.8	4	-1E+10	1	-1E+10	1	-1E+10	1	-1E+10	1	-1E+10	1	-1E+10	1
4902663	23	C	03/19/2024	19:17	-127.602	48.645	0	238.00	0	6.4020	0	33.8930	0	26.629	0	235.853	0	101.0	4	33.7	4	-1E+10	1	-1E+10	1	-1E+10	1	-1E+10	1	-1E+10	1	-1E+10	1
4902663	23	C	03/19/2024	19:17	-127.602	48.645	0	239.10	0	6.3880	0	33.8960	0	26.634	0	236.942	0	100.8	4	33.6	4	-1E+10	1	-1E+10	1	-1E+10	1	-1E+10	1	-1E+10	1	-1E+10	1
4902663	23	C	03/19/2024	19:17	-127.602	48.645	0	240.00	0	6.3770	0	33.8960	0	26.635	0	237.834	0	100.6	4	33.5	4	-1E+10	1	-1E+10	1	-1E+10	1	-1E+10	1	-1E+10	1	-1E+10	1
4902663	23	C	03/19/2024	19:17	-127.602	48.645	0	240.80	0	6.3800	0	33.8990	0	26.637	0	238.626	0	100.5	4	33.5	4	-1E+10	1	-1E+10	1	-1E+10	1	-1E+10	1	-1E+10	1	-1E+10	1
4902663	23	C	03/19/2024	19:17	-127.602	48.645	0	242.00	0	6.3750	0	33.8970	0	26.636	0	239.815	0	100.4	4	33.5	4	-1E+10	1	-1E+10	1	-1E+10	1	-1E+10	1	-1E+10	1	-1E+10	1
4902663	23	C	03/19/2024	19:17	-127.602	48.645	0	243.20	0	6.3660	0	33.8960	0	26.637	0	241.003	0	100.2	4	33.4	4	-1E+10	1	-1E+10	1	-1E+10	1	-1E+10	1	-1E+10	1	-1E+10	1
4902663	23	C	03/19/2024	19:17	-127.602	48.645	0	244.10	0	6.3700	0	33.8940	0	26.634	0	241.894	0	100.1	4	33.4	4	-1E+10	1	-1E+10	1	-1E+10	1	-1E+10	1	-1E+10	1	-1E+10	1
4902663	23	C	03/19/2024	19:17	-127.602	48.645	0	244.90	0	6.3640	0	33.8990	0	26.639	0	242.687	0	100.2	4	33.4	4	-1E+10	1	-1E+10	1	-1E+10	1	-1E+10	1	-1E+10	1	-1E+10	1
4902663	23	C	03/19/2024	19:17	-127.602	48.645	0	245.70	0	6.3350	0	33.8990	0	26.643	0	243.479	0	100.2	4	33.4	4	-1E+10	1	-1E+10	1	-1E+10	1	-1E+10	1	-1E+10	1	-1E+10	1
4902663	23	C	03/19/2024	19:17	-127.602	48.645	0	246.60	0	6.3050	0	33.8980	0	26.646	0	244.370	0	100.4	4	33.4	4	-1E+10	1	-1E+10	1	-1E+10	1	-1E+10	1	-1E+10	1	-1E+10	1
4902663	23	C	03/19/2024	19:17	-127.602	48.645	0	247.90	0	6.2660	0	33.8960	0	26.649	0	245.658	0	100.4	4	33.4	4	-1E+10	1	-1E+10	1	-1E+10	1	-1E+10	1	-1E+10	1	-1E+10	1
4902663	23	C	03/19/2024	19:17	-127.602	48.645	0	249.20	0	6.2200	0	33.8960	0	26.655	0	246.945	0	100.3	4	33.3	4	-1E+10	1	-1E+10	1	-1E+10	1	-1E+10	1	-1E+10	1	-1E+10	1
4902663	23	C	03/19/2024	19:17	-127.602	48.645	0	250.10	0	6.2050	0	33.8950	0	26.656	0	247.837	0	100.1	4	33.2	4	-1E+10	1	-1E+10	1	-1E+10	1	-1E+10	1	-1E+10	1	-1E+10	1
4902663	23	C	03/19/2024	19:17	-127.602	48.645	0	251.00	0	6.1920	0	33.8910	0	26.655	0	248.728	0	99.9	4	33.1	4	-1E+10	1	-1E+10	1	-1E+10	1	-1E+10	1	-1E+10	1	-1E+10	1
4902663	23	C	03/19/2024	19:17	-127.602	48.645	0	251.90	0	6.1740	0	33.8890	0	26.656	0	249.619	0	99.6	4	33.0	4	-1E+10	1	-1E+10	1	-1E+10	1	-1E+10	1	-1E+10	1	-1E+10	1
4902663	23	C	03/19/2024	19:17	-127.602	48.645	0	252.90	0	6.1540	0	33.8910	0	26.660	0	250.609	0	99.3	4	32.9	4	-1E+10	1	-1E+10	1	-1E+10	1	-1E+10	1	-1E+10	1	-1E+10	1
4902663	23	C	03/19/2024	19:17	-127.602	48.645	0	253.80	0	6.1370	0	33.8910	0	26.662	0	251.501	0	98.9	4	32.8	4	-1E+10	1	-1E+10	1	-1E+10	1	-1E+10	1	-1E+10	1	-1E+10	1
4902663	23	C	03/19/2024	19:17	-127.602	48.645	0	254.70	0	6.1150	0	33.8880	0	26.662	0	252.392	0	98.4	4	32.6	4	-1E+10	1	-1E+10	1	-1E+10	1	-1E+10	1	-1E+10	1	-1E+10	1
4902663	23	C	03/19/2024	19:17	-127.602	48.645	0	255.70	0	6.1030	0	33.8870	0	26.663	0	253.382	0	97.8	4	32.4	4	-1E+10	1	-1E+10	1	-1E+10	1	-1E+10	1	-1E+10	1	-1E+10	1
4902663	23	C	03/19/2024	19:17	-127.602	48.645	0	256.60	0	6.0890	0	33.8880	0	26.666	0	254.274	0	96.9	4	32.1	4	-1E+10	1	-1E+10	1	-1E+10	1	-1E+10	1	-1E+10	1	-1E+10	1
4902663	23	C	03/19/2024	19:17	-127.602	48.645	0	257.60	0	6.1020	0	33.8950	0	26.670	0	255.264	0	96.3	4	31.9	4	-1E+10	1	-1E+10	1	-1E+10	1	-1E+10	1	-1E+10	1	-1E+10	1
4902663	23	C	03/19/2024	19:17	-127.602	48.645	0	258.50	0	6.1250	0	33.9000	0	26.671	0	256.155	0	95.8	4	31.7	4	-1E+10	1	-1E+10	1	-1E+10	1	-1E+10	1	-1E+10	1	-1E+10	1
4902663	23	C	03/19/2024	19:17	-127.602	48.645	0	259.90	0	6.1350	0	33.9000	0	26.669	0	257.542	0	95.2	4	31.6	4	-1E+10	1	-1E+10	1	-1E+10	1	-1E+10	1	-1E+10	1	-1E+10	1
4902663	23	C	03/19/2024	19:17	-127.602	48.645	0	261.40	0	6.1310	0	33.9020	0	26.671	0	259.027	0	94.7	4	31.4	4	-1E+10	1	-1E+10	1	-1E+10	1	-1E+10	1	-1E+10	1	-1E+10	1
4902663	23	C	03/19/2024	19:17	-127.602	48.645	0	262.40	0	6.1350	0	33.9020	0	26.671	0	260.017	0	94.4	4	31.3	4	-1E+10	1	-1E+10	1	-1E+10	1	-1E+10	1	-1E+10	1	-1E+10	1
4902663	23	C	03/19/2024	19:17	-127.602	48.645	0	263.30	0	6.1330	0	33.9030	0	26.672	0	260.909	0	94.1	4	31.2	4	-1E+10	1	-1E+10	1	-1E+10	1	-1E+10	1	-1E+10	1	-1E+10	1
4902663	23	C	03/19/2024	19:17	-127.602	48.645	0	264.30	0	6.1210	0	33.9040	0	26.674	0	261.899	0	93.7	4	31.1	4	-1E+10	1	-1E+10	1	-1E+10	1	-1E+10	1	-1E+10	1	-1E+10	1
4902663	23	C	03/19/2024	19:17	-127.602	48.645	0	265.30	0	6.1140	0	33.9040	0	26.675	0	262.889	0	93.5	4	31.0	4	-1E+10	1	-1E+10	1	-1E+10	1	-1E+10	1	-1E+10	1	-1E+10	1
4902663	23	C	03/19/2024	19:17	-127.602	48.645	0	266.30	0	6.1030	0	33.9040	0	26.677	0	263.880	0	93.2	4	30.9	4	-1E+10	1	-1E+10	1	-1E+10	1	-1E+10	1	-1E+10	1	-1E+10	1
4902663	23	C	03/19/2024	19:17	-127.602	48.645	0	267.20	0	6.0900	0	33.9030	0	26.678	0	264.771	0	92.8	4	30.7	4	-1E+10	1	-1E+10	1	-1E+10	1	-1E+10	1	-1E+10	1	-1E+10	1
4902663	23	C	03/19/2024	19:17	-127.602	48.645	0	268.20	0	6.0770	0	33.9020	0	26.678	0	265.761	0	92.4	4	30.6	4	-1E+10	1	-1E+10	1	-1E+10	1	-1E+10	1	-1E+10	1	-1E+10	1
4902663	23	C	03/19/2024	19:17	-127.602	48.645	0	269.20	0	6.0680	0	33.9040	0	26.681	0	266.751	0	91.9	4	30.4	4	-1E+10	1	-1E+10	1	-1E+10	1	-1E+10	1	-1E+10	1	-1E+10	1
4902663	23	C	03/19/2024	19:17	-127.602	48.645	0	270.20	0	6.0680	0	33.9040	0	26.681	0	267.742	0	91.5	4	30.3	4	-1E+10	1	-1E+10	1	-1E+10	1	-1E+10	1	-1E+10	1	-1E+10	1
4902663	23	C	03/19/2024	19:17	-127.602	48.645	0	271.20	0	6.0740	0	33.9110	0	26.686	0	268.732	0	91.2	4	30.2	4	-1E+10	1	-1E+10	1	-1E+10	1	-1E+10	1	-1E+10	1	-1E+10	1
4902663	23	C	03/19/2024	19:17	-127.602	48.645	0	272.20	0	6.0720	0	33.9110	0	26.686	0	269.722	0	91.0	4	30.1	4	-1E+10	1	-1E+10	1	-1E+10	1	-1E+10	1	-1E+10	1	-1E+10	1
4902663	23	C	03/19/2024	19:17	-127.602	48.645	0	273.20	0	6.0700	0	33.9120	0	26.687	0	270.712	0	90.9	4	30.1	4	-1E+10	1	-1E+10	1	-1E+10	1	-1E+10	1	-1E+10	1	-1E+10	1
4902663	23	C	03/19/2024	19:17	-127.602	48.645	0	274.20	0	6.0640	0	33.9130	0	26.689	0	271.703	0	90.7	4	30.0	4	-1E+10	1	-1E+10	1	-1E+10	1	-1E+10	1	-1E+10	1	-1E+10	1
4902663	23	C	03/19/2024	19:17	-127.602	48.645	0	275.10	0	6.0590	0	33.9130	0	26.689	0	272.594	0	90.6	4	30.0	4	-1E+10	1	-1E+10	1	-1E+10	1	-1E+10	1	-1E+10	1	-1E+10	1
4902663	23	C	03/19/2024	19:17	-127.602	48.645	0	276.10	0	6.0510	0	33.9120	0	26.690	0	273.584	0	90.5	4	29.9	4	-1E+10	1	-1E+10	1	-1E+10	1	-1E+10	1	-1E+10	1	-1E+10	1
4902663	23	C	03/19/2024	19:17	-127.602	48.645	0	277.00	0	6.0460	0	33.9130	0	26.691	0	274.475	0	90.3	4	29.9	4	-1E+10	1	-1E+10	1	-1E+10	1	-1E+10	1	-1E+10	1	-1E+10	1
4902663	23	C	03/19/2024	19:17	-127.602	48.645	0	277.90	0	6.0430	0	33.9130	0	26.691	0	275.366	0	90.2	4	29.8	4	-1E+10	1	-1E+10	1	-1E+10	1	-1E+10	1	-1E+10	1	-1E+10	1
4902663	23	C	03/19/2024	19:17	-127.602	48.645	0	278.90	0	6.0380	0	33.9120	0	26.691	0	276.357	0	90.1	4	29.8	4	-1E+10	1	-1E+10	1	-1E+10	1	-1E+10	1	-1E+10	1	-1E+10	1
4902663	23	C	03/19/2024	19:17	-127.602	48.645	0	279.80	0	6.0270	0	33.9150	0	26.695	0	277.248	0	90.1	4	29.8	4	-1E+10	1	-1E+10	1	-1E+10	1	-1E+10	1	-1E+10	1	-1E+10	1
4902663	23	C	03/19/2024	19:17	-127.602	48.645	0	280.70	0	6.0110	0	33.9160	0	26.698	0	278.139	0	90.1	4	29.8	4	-1E+10	1	-1E+10	1	-1E+10	1	-1E+10	1	-1E+10	1	-1E+10	1
4902663	23	C	03/19/2024	19:17	-127.602	48.645	0	281.70	0	5.9980	0	33.9210	0	26.703	0	279.129	0	90.1	4	29.8	4	-1E+10	1	-1E+10	1	-1E+10	1	-1E+10	1	-1E+10	1	-1E+10	1
4902663	23	C	03/19/2024	19:17	-127.602	48.645	0	282.60	0	5.9830	0	33.9120	0	26.698	0	280.020	0	90.1	4	29.8	4	-1E+10	1	-1E+10	1	-1E+10	1	-1E+10	1	-1E+10	1	-1E+10	1
4902663	23	C	03/19/2024	19:17	-127.602	48.645	0	283.60	0	5.9880	0	33.9130	0	26.698	0	281.011	0	90.1	4	29.8	4	-1E+10	1	-1E+10	1	-1E+10	1	-1E+10	1	-1E+10	1	-1E+10	1
4902663	23	C	03/19/2024	19:17	-127.602	48.645	0	284.60	0	5.9900	0	33.9110	0	26.697	0	282.001	0	90.0	4	29.7	4	-1E+10	1	-1E+10	1	-1E+10	1	-1E+10	1	-1E+10	1	-1E+10	1
4902663	23	C	03/19/2024	19:17	-127.602	48.645	0	285.50	0	5.9850	0	33.9120	0	26.698	0	282.892	0	90.1	4	29.7	4	-1E+10	1	-1E+10	1	-1E+10	1	-1E+10	1	-1E+10	1	-1E+10	1
4902663	23	C	03/19/2024	19:17	-127.602	48.645	0	286.90	0	5.9300	0	33.9100	0	26.703	0	284.278	0	89.9	4	29.6	4	-1E+10	1	-1E+10	1	-1E+10	1	-1E+10	1	-1E+10	1	-1E+10	1
4902663	23	C	03/19/2024	19:17	-127.602	48.645	0	288.40	0	5.9230	0	33.9080	0	26.703	0	285.763	0	89.5	4	29.5	4	-1E+10	1	-1E+10	1	-1E+10	1	-1E+10	1	-1E+10	1	-1E+10	1
4902663	23	C	03/19/2024	19:17	-127.602	48.645	0	289.30	0	5.9270	0	33.9100	0	26.704	0	286.655	0	89.3	4	29.5	4	-1E+10	1	-1E+10	1	-1E+10	1	-1E+10	1	-1E+10	1	-1E+10	1
4902663	23	C	03/19/2024	19:17	-127.602	48.645	0	290.30	0	5.9330	0	33.9110	0	26.704	0	287.645	0	89.2	4	29.4	4	-1E+10	1	-1E+10	1	-1E+10	1	-1E+10	1	-1E+10	1	-1E+10	1
4902663	23	C	03/19/2024	19:17	-127.602	48.645	0	291.20	0	5.9310	0	33.9120	0	26.705	0	288.536	0	89.1	4	29.4	4	-1E+10	1	-1E+10	1	-1E+10	1	-1E+10	1	-1E+10	1	-1E+10	1
4902663	23	C	03/19/2024	19:17	-127.602	48.645	0	292.20	0	5.9280	0	33.9110	0	26.704	0	289.526	0	88.9	4	29.3	4	-1E+10	1	-1E+10	1	-1E+10	1	-1E+10	1	-1E+10	1	-1E+10	1
4902663	23	C	03/19/2024	19:17	-127.602	48.645	0	293.10	0	5.9290	0	33.9140	0	26.707	0	290.417	0	88.8	4	29.3	4	-1E+10	1	-1E+10	1	-1E+10	1	-1E+10	1	-1E+10	1	-1E+10	1
4902663	23	C	03/19/2024	19:17	-127.602	48.645	0	294.10	0	5.9150	0	33.9110	0	26.706	0	291.407	0	88.6	4	29.2	4	-1E+10	1	-1E+10	1	-1E+10	1	-1E+10	1	-1E+10	1	-1E+10	1
4902663	23	C	03/19/2024	19:17	-127.602	48.645	0	295.00	0	5.9080	0	33.9120	0	26.708	0	292.298	0	88.5	4	29.2	4	-1E+10	1	-1E+10	1	-1E+10	1	-1E+10	1	-1E+10	1	-1E+10	1
4902663	23	C	03/19/2024	19:17	-127.602	48.645	0	296.00	0	5.8980	0	33.9110	0	26.708	0	293.289	0	88.3	4	29.1	4	-1E+10	1	-1E+10	1	-1E+10	1	-1E+10	1	-1E+10	1	-1E+10	1
4902663	23	C	03/19/2024	19:17	-127.602	48.645	0	296.90	0	5.8810	0	33.9100	0	26.709	0	294.180	0	88.1	4	29.0	4	-1E+10	1	-1E+10	1	-1E+10	1	-1E+10	1	-1E+10	1	-1E+10	1
4902663	23	C	03/19/2024	19:17	-127.602	48.645	0	297.80	0	5.8490	0	33.9090	0	26.713	0	295.071	0	87.7	4	28.9	4	-1E+10	1	-1E+10	1	-1E+10	1	-1E+10	1	-1E+10	1	-1E+10	1
4902663	23	C	03/19/2024	19:17	-127.602	48.645	0	298.80	0	5.8270	0	33.9060	0	26.713	0	296.061	0	87.4	4	28.8	4	-1E+10	1	-1E+10	1	-1E+10	1	-1E+10	1	-1E+10	1	-1E+10	1
4902663	23	C	03/19/2024	19:17	-127.602	48.645	0	299.70	0	5.8260	0	33.9060	0	26.713	0	296.952	0	87.1	4	28.6	4	-1E+10	1	-1E+10	1	-1E+10	1	-1E+10	1	-1E+10	1	-1E+10	1
4902663	23	C	03/19/2024	19:17	-127.602	48.645	0	300.60	0	5.8250	0	33.9070	0	26.714	0	297.843	0	86.7	4	28.5	4	-1E+10	1	-1E+10	1	-1E+10	1	-1E+10	1	-1E+10	1	-1E+10	1
4902663	23	C	03/19/2024	19:17	-127.602	48.645	0	301.50	0	5.8240	0	33.9070	0	26.714	0	298.734	0	86.4	4	28.4	4	-1E+10	1	-1E+10	1	-1E+10	1	-1E+10	1	-1E+10	1	-1E+10	1
4902663	23	C	03/19/2024	19:17	-127.602	48.645	0	302.90	0	5.8170	0	33.9080	0	26.716	0	300.120	0	85.9	4	28.2	4	-1E+10	1	-1E+10	1	-1E+10	1	-1E+10	1	-1E+10	1	-1E+10	1
4902663	23	C	03/19/2024	19:17	-127.602	48.645	0	304.40	0	5.8050	0	33.9080	0	26.717	0	301.606	0	85.2	4	28.0	4	-1E+10	1	-1E+10	1	-1E+10	1	-1E+10	1	-1E+10	1	-1E+10	1
4902663	23	C	03/19/2024	19:17	-127.602	48.645	0	305.30	0	5.7990	0	33.9080	0	26.718	0	302.497	0	84.6	4	27.8	4	-1E+10	1	-1E+10	1	-1E+10	1	-1E+10	1	-1E+10	1	-1E+10	1
4902663	23	C	03/19/2024	19:17	-127.602	48.645	0	306.20	0	5.7960	0	33.9090	0	26.719	0	303.388	0	84.0	4	27.6	4	-1E+10	1	-1E+10	1	-1E+10	1	-1E+10	1	-1E+10	1	-1E+10	1
4902663	23	C	03/19/2024	19:17	-127.602	48.645	0	307.20	0	5.7930	0	33.9090	0	26.720	0	304.378	0	83.4	4	27.4	4	-1E+10	1	-1E+10	1	-1E+10	1	-1E+10	1	-1E+10	1	-1E+10	1
4902663	23	C	03/19/2024	19:17	-127.602	48.645	0	308.10	0	5.7950	0	33.9150	0	26.724	0	305.269	0	82.9	4	27.3	4	-1E+10	1	-1E+10	1	-1E+10	1	-1E+10	1	-1E+10	1	-1E+10	1
4902663	23	C	03/19/2024	19:17	-127.602	48.645	0	309.00	0	5.7960	0	33.9170	0	26.726	0	306.160	0	82.7	4	27.2	4	-1E+10	1	-1E+10	1	-1E+10	1	-1E+10	1	-1E+10	1	-1E+10	1
4902663	23	C	03/19/2024	19:17	-127.602	48.645	0	310.00	0	5.7930	0	33.9180	0	26.727	0	307.150	0	82.5	4	27.1	4	-1E+10	1	-1E+10	1	-1E+10	1	-1E+10	1	-1E+10	1	-1E+10	1
4902663	23	C	03/19/2024	19:17	-127.602	48.645	0	310.90	0	5.7880	0	33.9180	0	26.727	0	308.041	0	82.3	4	27.1	4	-1E+10	1	-1E+10	1	-1E+10	1	-1E+10	1	-1E+10	1	-1E+10	1
4902663	23	C	03/19/2024	19:17	-127.602	48.645	0	311.80	0	5.7840	0	33.9170	0	26.727	0	308.932	0	82.1	4	27.0	4	-1E+10	1	-1E+10	1	-1E+10	1	-1E+10	1	-1E+10	1	-1E+10	1
4902663	23	C	03/19/2024	19:17	-127.602	48.645	0	312.80	0	5.7800	0	33.9170	0	26.728	0	309.922	0	82.0	4	26.9	4	-1E+10	1	-1E+10	1	-1E+10	1	-1E+10	1	-1E+10	1	-1E+10	1
4902663	23	C	03/19/2024	19:17	-127.602	48.645	0	313.70	0	5.7740	0	33.9180	0	26.729	0	310.813	0	81.8	4	26.9	4	-1E+10	1	-1E+10	1	-1E+10	1	-1E+10	1	-1E+10	1	-1E+10	1
4902663	23	C	03/19/2024	19:17	-127.602	48.645	0	314.70	0	5.7230	0	33.9160	0	26.734	0	311.803	0	81.4	4	26.7	4	-1E+10	1	-1E+10	1	-1E+10	1	-1E+10	1	-1E+10	1	-1E+10	1
4902663	23	C	03/19/2024	19:17	-127.602	48.645	0	315.60	0	5.7110	0	33.9140	0	26.734	0	312.694	0	80.9	4	26.6	4	-1E+10	1	-1E+10	1	-1E+10	1	-1E+10	1	-1E+10	1	-1E+10	1
4902663	23	C	03/19/2024	19:17	-127.602	48.645	0	316.50	0	5.6940	0	33.9120	0	26.734	0	313.585	0	80.3	4	26.3	4	-1E+10	1	-1E+10	1	-1E+10	1	-1E+10	1	-1E+10	1	-1E+10	1
4902663	23	C	03/19/2024	19:17	-127.602	48.645	0	317.90	0	5.6800	0	33.9160	0	26.739	0	314.971	0	79.5	4	26.1	4	-1E+10	1	-1E+10	1	-1E+10	1	-1E+10	1	-1E+10	1	-1E+10	1
4902663	23	C	03/19/2024	19:17	-127.602	48.645	0	319.40	0	5.6790	0	33.9170	0	26.740	0	316.456	0	78.7	4	25.8	4	-1E+10	1	-1E+10	1	-1E+10	1	-1E+10	1	-1E+10	1	-1E+10	1
4902663	23	C	03/19/2024	19:17	-127.602	48.645	0	320.30	0	5.6800	0	33.9170	0	26.740	0	317.347	0	78.1	4	25.6	4	-1E+10	1	-1E+10	1	-1E+10	1	-1E+10	1	-1E+10	1	-1E+10	1
4902663	23	C	03/19/2024	19:17	-127.602	48.645	0	321.30	0	5.6780	0	33.9200	0	26.742	0	318.337	0	77.6	4	25.5	4	-1E+10	1	-1E+10	1	-1E+10	1	-1E+10	1	-1E+10	1	-1E+10	1
4902663	23	C	03/19/2024	19:17	-127.602	48.645	0	322.20	0	5.6820	0	33.9210	0	26.743	0	319.228	0	77.2	4	25.3	4	-1E+10	1	-1E+10	1	-1E+10	1	-1E+10	1	-1E+10	1	-1E+10	1
4902663	23	C	03/19/2024	19:17	-127.602	48.645	0	323.10	0	5.6710	0	33.9230	0	26.746	0	320.119	0	76.9	4	25.2	4	-1E+10	1	-1E+10	1	-1E+10	1	-1E+10	1	-1E+10	1	-1E+10	1
4902663	23	C	03/19/2024	19:17	-127.602	48.645	0	324.10	0	5.6640	0	33.9240	0	26.747	0	321.109	0	76.6	4	25.1	4	-1E+10	1	-1E+10	1	-1E+10	1	-1E+10	1	-1E+10	1	-1E+10	1
4902663	23	C	03/19/2024	19:17	-127.602	48.645	0	325.00	0	5.6580	0	33.9230	0	26.747	0	322.000	0	76.2	4	25.0	4	-1E+10	1	-1E+10	1	-1E+10	1	-1E+10	1	-1E+10	1	-1E+10	1
4902663	23	C	03/19/2024	19:17	-127.602	48.645	0	325.90	0	5.6550	0	33.9230	0	26.748	0	322.891	0	75.7	4	24.8	4	-1E+10	1	-1E+10	1	-1E+10	1	-1E+10	1	-1E+10	1	-1E+10	1
4902663	23	C	03/19/2024	19:17	-127.602	48.645	0	326.90	0	5.6500	0	33.9240	0	26.749	0	323.881	0	75.1	4	24.6	4	-1E+10	1	-1E+10	1	-1E+10	1	-1E+10	1	-1E+10	1	-1E+10	1
4902663	23	C	03/19/2024	19:17	-127.602	48.645	0	327.80	0	5.6490	0	33.9260	0	26.751	0	324.772	0	74.6	4	24.4	4	-1E+10	1	-1E+10	1	-1E+10	1	-1E+10	1	-1E+10	1	-1E+10	1
4902663	23	C	03/19/2024	19:17	-127.602	48.645	0	328.80	0	5.6460	0	33.9270	0	26.752	0	325.762	0	73.9	4	24.2	4	-1E+10	1	-1E+10	1	-1E+10	1	-1E+10	1	-1E+10	1	-1E+10	1
4902663	23	C	03/19/2024	19:17	-127.602	48.645	0	329.70	0	5.6420	0	33.9300	0	26.755	0	326.653	0	73.4	4	24.1	4	-1E+10	1	-1E+10	1	-1E+10	1	-1E+10	1	-1E+10	1	-1E+10	1
4902663	23	C	03/19/2024	19:17	-127.602	48.645	0	330.60	0	5.6420	0	33.9300	0	26.755	0	327.544	0	72.9	4	23.9	4	-1E+10	1	-1E+10	1	-1E+10	1	-1E+10	1	-1E+10	1	-1E+10	1
4902663	23	C	03/19/2024	19:17	-127.602	48.645	0	331.60	0	5.6410	0	33.9310	0	26.756	0	328.534	0	72.4	4	23.7	4	-1E+10	1	-1E+10	1	-1E+10	1	-1E+10	1	-1E+10	1	-1E+10	1
4902663	23	C	03/19/2024	19:17	-127.602	48.645	0	332.90	0	5.6370	0	33.9330	0	26.758	0	329.821	0	71.5	4	23.4	4	-1E+10	1	-1E+10	1	-1E+10	1	-1E+10	1	-1E+10	1	-1E+10	1
4902663	23	C	03/19/2024	19:17	-127.602	48.645	0	334.30	0	5.6330	0	33.9350	0	26.760	0	331.207	0	70.6	4	23.1	4	-1E+10	1	-1E+10	1	-1E+10	1	-1E+10	1	-1E+10	1	-1E+10	1
4902663	23	C	03/19/2024	19:17	-127.602	48.645	0	335.30	0	5.6300	0	33.9350	0	26.760	0	332.197	0	70.0	4	22.9	4	-1E+10	1	-1E+10	1	-1E+10	1	-1E+10	1	-1E+10	1	-1E+10	1
4902663	23	C	03/19/2024	19:17	-127.602	48.645	0	336.20	0	5.6170	0	33.9390	0	26.765	0	333.088	0	69.6	4	22.8	4	-1E+10	1	-1E+10	1	-1E+10	1	-1E+10	1	-1E+10	1	-1E+10	1
4902663	23	C	03/19/2024	19:17	-127.602	48.645	0	337.10	0	5.6220	0	33.9420	0	26.767	0	333.979	0	69.3	4	22.7	4	-1E+10	1	-1E+10	1	-1E+10	1	-1E+10	1	-1E+10	1	-1E+10	1
4902663	23	C	03/19/2024	19:17	-127.602	48.645	0	338.00	0	5.6220	0	33.9420	0	26.767	0	334.870	0	68.9	4	22.6	4	-1E+10	1	-1E+10	1	-1E+10	1	-1E+10	1	-1E+10	1	-1E+10	1
4902663	23	C	03/19/2024	19:17	-127.602	48.645	0	338.90	0	5.6180	0	33.9430	0	26.768	0	335.761	0	68.6	4	22.5	4	-1E+10	1	-1E+10	1	-1E+10	1	-1E+10	1	-1E+10	1	-1E+10	1
4902663	23	C	03/19/2024	19:17	-127.602	48.645	0	339.90	0	5.5930	0	33.9430	0	26.771	0	336.751	0	68.4	4	22.4	4	-1E+10	1	-1E+10	1	-1E+10	1	-1E+10	1	-1E+10	1	-1E+10	1
4902663	23	C	03/19/2024	19:17	-127.602	48.645	0	340.80	0	5.5670	0	33.9460	0	26.777	0	337.642	0	68.1	4	22.3	4	-1E+10	1	-1E+10	1	-1E+10	1	-1E+10	1	-1E+10	1	-1E+10	1
4902663	23	C	03/19/2024	19:17	-127.602	48.645	0	341.70	0	5.5550	0	33.9450	0	26.777	0	338.533	0	67.8	4	22.2	4	-1E+10	1	-1E+10	1	-1E+10	1	-1E+10	1	-1E+10	1	-1E+10	1
4902663	23	C	03/19/2024	19:17	-127.602	48.645	0	342.60	0	5.5550	0	33.9450	0	26.777	0	339.424	0	67.4	4	22.0	4	-1E+10	1	-1E+10	1	-1E+10	1	-1E+10	1	-1E+10	1	-1E+10	1
4902663	23	C	03/19/2024	19:17	-127.602	48.645	0	343.50	0	5.5550	0	33.9460	0	26.778	0	340.315	0	67.0	4	21.9	4	-1E+10	1	-1E+10	1	-1E+10	1	-1E+10	1	-1E+10	1	-1E+10	1
4902663	23	C	03/19/2024	19:17	-127.602	48.645	0	344.90	0	5.5540	0	33.9450	0	26.777	0	341.700	0	66.3	4	21.7	4	-1E+10	1	-1E+10	1	-1E+10	1	-1E+10	1	-1E+10	1	-1E+10	1
4902663	23	C	03/19/2024	19:17	-127.602	48.645	0	346.30	0	5.5530	0	33.9460	0	26.778	0	343.086	0	65.5	4	21.4	4	-1E+10	1	-1E+10	1	-1E+10	1	-1E+10	1	-1E+10	1	-1E+10	1
4902663	23	C	03/19/2024	19:17	-127.602	48.645	0	347.20	0	5.5520	0	33.9480	0	26.780	0	343.977	0	65.0	4	21.2	4	-1E+10	1	-1E+10	1	-1E+10	1	-1E+10	1	-1E+10	1	-1E+10	1
4902663	23	C	03/19/2024	19:17	-127.602	48.645	0	348.10	0	5.5490	0	33.9500	0	26.782	0	344.868	0	64.4	4	21.1	4	-1E+10	1	-1E+10	1	-1E+10	1	-1E+10	1	-1E+10	1	-1E+10	1
4902663	23	C	03/19/2024	19:17	-127.602	48.645	0	349.00	0	5.5510	0	33.9510	0	26.783	0	345.759	0	63.8	4	20.8	4	-1E+10	1	-1E+10	1	-1E+10	1	-1E+10	1	-1E+10	1	-1E+10	1
4902663	23	C	03/19/2024	19:17	-127.602	48.645	0	349.90	0	5.5500	0	33.9530	0	26.784	0	346.650	0	63.1	4	20.6	4	-1E+10	1	-1E+10	1	-1E+10	1	-1E+10	1	-1E+10	1	-1E+10	1
4902663	23	C	03/19/2024	19:17	-127.602	48.645	0	352.60	0	5.5360	0	33.9600	0	26.792	0	349.322	0	61.4	4	20.1	4	-1E+10	1	-1E+10	1	-1E+10	1	-1E+10	1	-1E+10	1	-1E+10	1
4902663	23	C	03/19/2024	19:17	-127.602	48.645	0	357.80	0	5.5350	0	33.9700	0	26.800	0	354.470	0	59.4	4	19.4	4	-1E+10	1	-1E+10	1	-1E+10	1	-1E+10	1	-1E+10	1	-1E+10	1
4902663	23	C	03/19/2024	19:17	-127.602	48.645	0	362.80	0	5.5320	0	33.9750	0	26.804	0	359.419	0	57.4	4	18.8	4	-1E+10	1	-1E+10	1	-1E+10	1	-1E+10	1	-1E+10	1	-1E+10	1
4902663	23	C	03/19/2024	19:17	-127.602	48.645	0	367.80	0	5.5560	0	33.9830	0	26.807	0	364.368	0	55.5	4	18.2	4	-1E+10	1	-1E+10	1	-1E+10	1	-1E+10	1	-1E+10	1	-1E+10	1
4902663	23	C	03/19/2024	19:17	-127.602	48.645	0	372.80	0	5.5510	0	33.9870	0	26.811	0	369.317	0	53.4	4	17.5	4	-1E+10	1	-1E+10	1	-1E+10	1	-1E+10	1	-1E+10	1	-1E+10	1
4902663	23	C	03/19/2024	19:17	-127.602	48.645	0	377.80	0	5.5040	0	33.9970	0	26.825	0	374.265	0	50.7	4	16.6	4	-1E+10	1	-1E+10	1	-1E+10	1	-1E+10	1	-1E+10	1	-1E+10	1
4902663	23	C	03/19/2024	19:17	-127.602	48.645	0	382.80	0	5.4680	0	34.0050	0	26.836	0	379.214	0	49.1	4	16.0	4	-1E+10	1	-1E+10	1	-1E+10	1	-1E+10	1	-1E+10	1	-1E+10	1
4902663	23	C	03/19/2024	19:17	-127.602	48.645	0	388.00	0	5.4440	0	34.0100	0	26.842	0	384.361	0	47.8	4	15.6	4	-1E+10	1	-1E+10	1	-1E+10	1	-1E+10	1	-1E+10	1	-1E+10	1
4902663	23	C	03/19/2024	19:17	-127.602	48.645	0	393.00	0	5.4270	0	34.0150	0	26.848	0	389.309	0	46.8	4	15.3	4	-1E+10	1	-1E+10	1	-1E+10	1	-1E+10	1	-1E+10	1	-1E+10	1
4902663	23	C	03/19/2024	19:17	-127.602	48.645	0	397.80	0	5.3680	0	34.0180	0	26.858	0	394.059	0	46.1	4	15.0	4	-1E+10	1	-1E+10	1	-1E+10	1	-1E+10	1	-1E+10	1	-1E+10	1
4902663	23	C	03/19/2024	19:17	-127.602	48.645	0	402.90	0	5.3130	0	34.0160	0	26.863	0	399.107	0	45.0	4	14.6	4	-1E+10	1	-1E+10	1	-1E+10	1	-1E+10	1	-1E+10	1	-1E+10	1
4902663	23	C	03/19/2024	19:17	-127.602	48.645	0	408.10	0	5.2590	0	34.0220	0	26.874	0	404.253	0	43.2	4	14.0	4	-1E+10	1	-1E+10	1	-1E+10	1	-1E+10	1	-1E+10	1	-1E+10	1
4902663	23	C	03/19/2024	19:17	-127.602	48.645	0	413.20	0	5.2180	0	34.0270	0	26.883	0	409.299	0	41.4	4	13.4	4	-1E+10	1	-1E+10	1	-1E+10	1	-1E+10	1	-1E+10	1	-1E+10	1
4902663	23	C	03/19/2024	19:17	-127.602	48.645	0	417.90	0	5.1550	0	34.0330	0	26.895	0	413.950	0	39.9	4	12.9	4	-1E+10	1	-1E+10	1	-1E+10	1	-1E+10	1	-1E+10	1	-1E+10	1
4902663	23	C	03/19/2024	19:17	-127.602	48.645	0	422.50	0	5.1430	0	34.0380	0	26.900	0	418.502	0	39.2	4	12.7	4	-1E+10	1	-1E+10	1	-1E+10	1	-1E+10	1	-1E+10	1	-1E+10	1
4902663	23	C	03/19/2024	19:17	-127.602	48.645	0	427.90	0	5.0920	0	34.0380	0	26.906	0	423.846	0	38.0	4	12.3	4	-1E+10	1	-1E+10	1	-1E+10	1	-1E+10	1	-1E+10	1	-1E+10	1
4902663	23	C	03/19/2024	19:17	-127.602	48.645	0	432.90	0	5.0800	0	34.0450	0	26.913	0	428.793	0	36.6	4	11.8	4	-1E+10	1	-1E+10	1	-1E+10	1	-1E+10	1	-1E+10	1	-1E+10	1
4902663	23	C	03/19/2024	19:17	-127.602	48.645	0	437.50	0	5.0520	0	34.0490	0	26.919	0	433.345	0	35.2	4	11.4	4	-1E+10	1	-1E+10	1	-1E+10	1	-1E+10	1	-1E+10	1	-1E+10	1
4902663	23	C	03/19/2024	19:17	-127.602	48.645	0	442.70	0	5.0180	0	34.0570	0	26.930	0	438.490	0	33.6	4	10.9	4	-1E+10	1	-1E+10	1	-1E+10	1	-1E+10	1	-1E+10	1	-1E+10	1
4902663	23	C	03/19/2024	19:17	-127.602	48.645	0	447.80	0	5.0250	0	34.0660	0	26.936	0	443.536	0	32.5	4	10.5	4	-1E+10	1	-1E+10	1	-1E+10	1	-1E+10	1	-1E+10	1	-1E+10	1
4902663	23	C	03/19/2024	19:17	-127.602	48.645	0	452.60	0	5.0160	0	34.0710	0	26.941	0	448.285	0	31.7	4	10.3	4	-1E+10	1	-1E+10	1	-1E+10	1	-1E+10	1	-1E+10	1	-1E+10	1
4902663	23	C	03/19/2024	19:17	-127.602	48.645	0	457.90	0	5.0040	0	34.0740	0	26.945	0	453.529	0	30.9	4	10.0	4	-1E+10	1	-1E+10	1	-1E+10	1	-1E+10	1	-1E+10	1	-1E+10	1
4902663	23	C	03/19/2024	19:17	-127.602	48.645	0	463.40	0	4.9820	0	34.0770	0	26.950	0	458.970	0	30.0	4	9.7	4	-1E+10	1	-1E+10	1	-1E+10	1	-1E+10	1	-1E+10	1	-1E+10	1
4902663	23	C	03/19/2024	19:17	-127.602	48.645	0	467.90	0	4.9250	0	34.0770	0	26.956	0	463.422	0	29.3	4	9.4	4	-1E+10	1	-1E+10	1	-1E+10	1	-1E+10	1	-1E+10	1	-1E+10	1
4902663	23	C	03/19/2024	19:17	-127.602	48.645	0	472.50	0	4.9120	0	34.0800	0	26.960	0	467.973	0	28.2	4	9.1	4	-1E+10	1	-1E+10	1	-1E+10	1	-1E+10	1	-1E+10	1	-1E+10	1
4902663	23	C	03/19/2024	19:17	-127.602	48.645	0	478.00	0	4.9180	0	34.0890	0	26.967	0	473.414	0	27.0	4	8.7	4	-1E+10	1	-1E+10	1	-1E+10	1	-1E+10	1	-1E+10	1	-1E+10	1
4902663	23	C	03/19/2024	19:17	-127.602	48.645	0	482.90	0	4.8970	0	34.0940	0	26.973	0	478.261	0	26.1	4	8.4	4	-1E+10	1	-1E+10	1	-1E+10	1	-1E+10	1	-1E+10	1	-1E+10	1
4902663	23	C	03/19/2024	19:17	-127.602	48.645	0	487.70	0	4.8770	0	34.0990	0	26.979	0	483.009	0	25.0	4	8.1	4	-1E+10	1	-1E+10	1	-1E+10	1	-1E+10	1	-1E+10	1	-1E+10	1
4902663	23	C	03/19/2024	19:17	-127.602	48.645	0	492.60	0	4.8450	0	34.1070	0	26.989	0	487.857	0	24.4	4	7.9	4	-1E+10	1	-1E+10	1	-1E+10	1	-1E+10	1	-1E+10	1	-1E+10	1
4902663	23	C	03/19/2024	19:17	-127.602	48.645	0	497.60	0	4.8370	0	34.1090	0	26.992	0	492.803	0	24.1	4	7.8	4	-1E+10	1	-1E+10	1	-1E+10	1	-1E+10	1	-1E+10	1	-1E+10	1
4902663	23	C	03/19/2024	19:17	-127.602	48.645	0	502.70	0	4.8000	0	34.1080	0	26.995	0	497.847	0	23.5	4	7.6	4	-1E+10	1	-1E+10	1	-1E+10	1	-1E+10	1	-1E+10	1	-1E+10	1
4902663	23	C	03/19/2024	19:17	-127.602	48.645	0	507.80	0	4.7860	0	34.1140	0	27.002	0	502.892	0	22.6	4	7.3	4	-1E+10	1	-1E+10	1	-1E+10	1	-1E+10	1	-1E+10	1	-1E+10	1
4902663	23	C	03/19/2024	19:17	-127.602	48.645	0	513.00	0	4.7630	0	34.1170	0	27.007	0	508.035	0	21.8	4	7.0	4	-1E+10	1	-1E+10	1	-1E+10	1	-1E+10	1	-1E+10	1	-1E+10	1
4902663	23	C	03/19/2024	19:17	-127.602	48.645	0	518.10	0	4.7470	0	34.1210	0	27.012	0	513.080	0	20.8	4	6.7	4	-1E+10	1	-1E+10	1	-1E+10	1	-1E+10	1	-1E+10	1	-1E+10	1
4902663	23	C	03/19/2024	19:17	-127.602	48.645	0	523.20	0	4.7540	0	34.1290	0	27.017	0	518.124	0	19.9	4	6.4	4	-1E+10	1	-1E+10	1	-1E+10	1	-1E+10	1	-1E+10	1	-1E+10	1
4902663	23	C	03/19/2024	19:17	-127.602	48.645	0	528.30	0	4.7400	0	34.1350	0	27.023	0	523.168	0	19.3	4	6.2	4	-1E+10	1	-1E+10	1	-1E+10	1	-1E+10	1	-1E+10	1	-1E+10	1
4902663	23	C	03/19/2024	19:17	-127.602	48.645	0	532.90	0	4.7300	0	34.1400	0	27.029	0	527.717	0	18.7	4	6.0	4	-1E+10	1	-1E+10	1	-1E+10	1	-1E+10	1	-1E+10	1	-1E+10	1
4902663	23	C	03/19/2024	19:17	-127.602	48.645	0	537.50	0	4.7200	0	34.1440	0	27.033	0	532.267	0	18.3	4	5.9	4	-1E+10	1	-1E+10	1	-1E+10	1	-1E+10	1	-1E+10	1	-1E+10	1
4902663	23	C	03/19/2024	19:17	-127.602	48.645	0	542.60	0	4.7080	0	34.1450	0	27.035	0	537.311	0	17.9	4	5.7	4	-1E+10	1	-1E+10	1	-1E+10	1	-1E+10	1	-1E+10	1	-1E+10	1
4902663	23	C	03/19/2024	19:17	-127.602	48.645	0	547.60	0	4.7000	0	34.1500	0	27.040	0	542.255	0	17.3	4	5.6	4	-1E+10	1	-1E+10	1	-1E+10	1	-1E+10	1	-1E+10	1	-1E+10	1
4902663	23	C	03/19/2024	19:17	-127.602	48.645	0	552.70	0	4.6810	0	34.1550	0	27.046	0	547.299	0	17.0	4	5.4	4	-1E+10	1	-1E+10	1	-1E+10	1	-1E+10	1	-1E+10	1	-1E+10	1
4902663	23	C	03/19/2024	19:17	-127.602	48.645	0	557.80	0	4.6740	0	34.1560	0	27.048	0	552.342	0	16.5	4	5.3	4	-1E+10	1	-1E+10	1	-1E+10	1	-1E+10	1	-1E+10	1	-1E+10	1
4902663	23	C	03/19/2024	19:17	-127.602	48.645	0	562.90	0	4.6560	0	34.1600	0	27.053	0	557.385	0	16.1	4	5.2	4	-1E+10	1	-1E+10	1	-1E+10	1	-1E+10	1	-1E+10	1	-1E+10	1
4902663	23	C	03/19/2024	19:17	-127.602	48.645	0	568.00	0	4.6280	0	34.1620	0	27.058	0	562.429	0	15.6	4	5.0	4	-1E+10	1	-1E+10	1	-1E+10	1	-1E+10	1	-1E+10	1	-1E+10	1
4902663	23	C	03/19/2024	19:17	-127.602	48.645	0	573.00	0	4.6290	0	34.1680	0	27.062	0	567.373	0	15.1	4	4.8	4	-1E+10	1	-1E+10	1	-1E+10	1	-1E+10	1	-1E+10	1	-1E+10	1
4902663	23	C	03/19/2024	19:17	-127.602	48.645	0	578.10	0	4.6140	0	34.1710	0	27.066	0	572.416	0	14.6	4	4.7	4	-1E+10	1	-1E+10	1	-1E+10	1	-1E+10	1	-1E+10	1	-1E+10	1
4902663	23	C	03/19/2024	19:17	-127.602	48.645	0	583.20	0	4.6070	0	34.1750	0	27.070	0	577.458	0	14.1	4	4.5	4	-1E+10	1	-1E+10	1	-1E+10	1	-1E+10	1	-1E+10	1	-1E+10	1
4902663	23	C	03/19/2024	19:17	-127.602	48.645	0	588.30	0	4.5760	0	34.1800	0	27.078	0	582.501	0	13.6	4	4.3	4	-1E+10	1	-1E+10	1	-1E+10	1	-1E+10	1	-1E+10	1	-1E+10	1
4902663	23	C	03/19/2024	19:17	-127.602	48.645	0	592.90	0	4.5660	0	34.1850	0	27.083	0	587.049	0	13.2	4	4.2	4	-1E+10	1	-1E+10	1	-1E+10	1	-1E+10	1	-1E+10	1	-1E+10	1
4902663	23	C	03/19/2024	19:17	-127.602	48.645	0	597.60	0	4.5470	0	34.1880	0	27.087	0	591.696	0	12.9	4	4.1	4	-1E+10	1	-1E+10	1	-1E+10	1	-1E+10	1	-1E+10	1	-1E+10	1
4902663	23	C	03/19/2024	19:17	-127.602	48.645	0	602.70	0	4.5160	0	34.1900	0	27.092	0	596.739	0	12.5	4	4.0	4	-1E+10	1	-1E+10	1	-1E+10	1	-1E+10	1	-1E+10	1	-1E+10	1
4902663	23	C	03/19/2024	19:17	-127.602	48.645	0	607.70	0	4.4830	0	34.1950	0	27.100	0	601.682	0	12.2	4	3.9	4	-1E+10	1	-1E+10	1	-1E+10	1	-1E+10	1	-1E+10	1	-1E+10	1
4902663	23	C	03/19/2024	19:17	-127.602	48.645	0	612.90	0	4.4620	0	34.1990	0	27.105	0	606.823	0	11.8	4	3.8	4	-1E+10	1	-1E+10	1	-1E+10	1	-1E+10	1	-1E+10	1	-1E+10	1
4902663	23	C	03/19/2024	19:17	-127.602	48.645	0	618.10	0	4.4290	0	34.2030	0	27.112	0	611.964	0	11.5	4	3.7	4	-1E+10	1	-1E+10	1	-1E+10	1	-1E+10	1	-1E+10	1	-1E+10	1
4902663	23	C	03/19/2024	19:17	-127.602	48.645	0	623.00	0	4.4010	0	34.2060	0	27.117	0	616.808	0	11.1	4	3.5	4	-1E+10	1	-1E+10	1	-1E+10	1	-1E+10	1	-1E+10	1	-1E+10	1
4902663	23	C	03/19/2024	19:17	-127.602	48.645	0	628.00	0	4.4120	0	34.2140	0	27.123	0	621.750	0	10.8	4	3.4	4	-1E+10	1	-1E+10	1	-1E+10	1	-1E+10	1	-1E+10	1	-1E+10	1
4902663	23	C	03/19/2024	19:17	-127.602	48.645	0	633.10	0	4.4070	0	34.2170	0	27.126	0	626.792	0	10.6	4	3.4	4	-1E+10	1	-1E+10	1	-1E+10	1	-1E+10	1	-1E+10	1	-1E+10	1
4902663	23	C	03/19/2024	19:17	-127.602	48.645	0	637.80	0	4.3850	0	34.2180	0	27.129	0	631.438	0	10.5	4	3.4	4	-1E+10	1	-1E+10	1	-1E+10	1	-1E+10	1	-1E+10	1	-1E+10	1
4902663	23	C	03/19/2024	19:17	-127.602	48.645	0	642.60	0	4.3640	0	34.2200	0	27.133	0	636.183	0	10.5	4	3.3	4	-1E+10	1	-1E+10	1	-1E+10	1	-1E+10	1	-1E+10	1	-1E+10	1
4902663	23	C	03/19/2024	19:17	-127.602	48.645	0	647.60	0	4.3410	0	34.2210	0	27.136	0	641.125	0	10.3	4	3.3	4	-1E+10	1	-1E+10	1	-1E+10	1	-1E+10	1	-1E+10	1	-1E+10	1
4902663	23	C	03/19/2024	19:17	-127.602	48.645	0	652.60	0	4.3200	0	34.2260	0	27.142	0	646.068	0	10.1	4	3.2	4	-1E+10	1	-1E+10	1	-1E+10	1	-1E+10	1	-1E+10	1	-1E+10	1
4902663	23	C	03/19/2024	19:17	-127.602	48.645	0	657.60	0	4.3080	0	34.2280	0	27.145	0	651.010	0	9.9	4	3.1	4	-1E+10	1	-1E+10	1	-1E+10	1	-1E+10	1	-1E+10	1	-1E+10	1
4902663	23	C	03/19/2024	19:17	-127.602	48.645	0	662.80	0	4.2950	0	34.2320	0	27.150	0	656.149	0	9.6	4	3.1	4	-1E+10	1	-1E+10	1	-1E+10	1	-1E+10	1	-1E+10	1	-1E+10	1
4902663	23	C	03/19/2024	19:17	-127.602	48.645	0	667.90	0	4.2820	0	34.2380	0	27.156	0	661.190	0	9.4	4	3.0	4	-1E+10	1	-1E+10	1	-1E+10	1	-1E+10	1	-1E+10	1	-1E+10	1
4902663	23	C	03/19/2024	19:17	-127.602	48.645	0	673.20	0	4.2630	0	34.2400	0	27.160	0	666.428	0	9.3	4	3.0	4	-1E+10	1	-1E+10	1	-1E+10	1	-1E+10	1	-1E+10	1	-1E+10	1
4902663	23	C	03/19/2024	19:17	-127.602	48.645	0	678.40	0	4.2490	0	34.2410	0	27.162	0	671.568	0	9.2	4	2.9	4	-1E+10	1	-1E+10	1	-1E+10	1	-1E+10	1	-1E+10	1	-1E+10	1
4902663	23	C	03/19/2024	19:17	-127.602	48.645	0	683.10	0	4.2270	0	34.2430	0	27.166	0	676.213	0	9.2	4	2.9	4	-1E+10	1	-1E+10	1	-1E+10	1	-1E+10	1	-1E+10	1	-1E+10	1
4902663	23	C	03/19/2024	19:17	-127.602	48.645	0	687.90	0	4.1960	0	34.2430	0	27.169	0	680.957	0	9.1	4	2.9	4	-1E+10	1	-1E+10	1	-1E+10	1	-1E+10	1	-1E+10	1	-1E+10	1
4902663	23	C	03/19/2024	19:17	-127.602	48.645	0	692.70	0	4.1880	0	34.2440	0	27.171	0	685.700	0	9.0	4	2.8	4	-1E+10	1	-1E+10	1	-1E+10	1	-1E+10	1	-1E+10	1	-1E+10	1
4902663	23	C	03/19/2024	19:17	-127.602	48.645	0	697.70	0	4.1910	0	34.2480	0	27.174	0	690.641	0	8.8	4	2.8	4	-1E+10	1	-1E+10	1	-1E+10	1	-1E+10	1	-1E+10	1	-1E+10	1
4902663	23	C	03/19/2024	19:17	-127.602	48.645	0	702.70	0	4.1880	0	34.2510	0	27.176	0	695.583	0	8.7	4	2.8	4	-1E+10	1	-1E+10	1	-1E+10	1	-1E+10	1	-1E+10	1	-1E+10	1
4902663	23	C	03/19/2024	19:17	-127.602	48.645	0	707.70	0	4.1750	0	34.2540	0	27.180	0	700.523	0	8.6	4	2.7	4	-1E+10	1	-1E+10	1	-1E+10	1	-1E+10	1	-1E+10	1	-1E+10	1
4902663	23	C	03/19/2024	19:17	-127.602	48.645	0	712.90	0	4.1680	0	34.2580	0	27.184	0	705.662	0	8.5	4	2.7	4	-1E+10	1	-1E+10	1	-1E+10	1	-1E+10	1	-1E+10	1	-1E+10	1
4902663	23	C	03/19/2024	19:17	-127.602	48.645	0	718.00	0	4.1560	0	34.2630	0	27.189	0	710.701	0	8.4	4	2.7	4	-1E+10	1	-1E+10	1	-1E+10	1	-1E+10	1	-1E+10	1	-1E+10	1
4902663	23	C	03/19/2024	19:17	-127.602	48.645	0	723.10	0	4.1470	0	34.2650	0	27.192	0	715.741	0	8.3	4	2.6	4	-1E+10	1	-1E+10	1	-1E+10	1	-1E+10	1	-1E+10	1	-1E+10	1
4902663	23	C	03/19/2024	19:17	-127.602	48.645	0	727.90	0	4.1270	0	34.2670	0	27.196	0	720.484	0	8.2	4	2.6	4	-1E+10	1	-1E+10	1	-1E+10	1	-1E+10	1	-1E+10	1	-1E+10	1
4902663	23	C	03/19/2024	19:17	-127.602	48.645	0	732.70	0	4.1270	0	34.2710	0	27.199	0	725.227	0	8.1	4	2.6	4	-1E+10	1	-1E+10	1	-1E+10	1	-1E+10	1	-1E+10	1	-1E+10	1
4902663	23	C	03/19/2024	19:17	-127.602	48.645	0	737.90	0	4.1170	0	34.2740	0	27.202	0	730.364	0	8.0	4	2.5	4	-1E+10	1	-1E+10	1	-1E+10	1	-1E+10	1	-1E+10	1	-1E+10	1
4902663	23	C	03/19/2024	19:17	-127.602	48.645	0	743.10	0	4.0930	0	34.2760	0	27.206	0	735.502	0	7.9	4	2.5	4	-1E+10	1	-1E+10	1	-1E+10	1	-1E+10	1	-1E+10	1	-1E+10	1
4902663	23	C	03/19/2024	19:17	-127.602	48.645	0	747.90	0	4.0860	0	34.2810	0	27.211	0	740.245	0	7.8	4	2.5	4	-1E+10	1	-1E+10	1	-1E+10	1	-1E+10	1	-1E+10	1	-1E+10	1
4902663	23	C	03/19/2024	19:17	-127.602	48.645	0	752.70	0	4.0690	0	34.2830	0	27.215	0	744.987	0	7.7	4	2.4	4	-1E+10	1	-1E+10	1	-1E+10	1	-1E+10	1	-1E+10	1	-1E+10	1
4902663	23	C	03/19/2024	19:17	-127.602	48.645	0	757.70	0	4.0560	0	34.2870	0	27.219	0	749.927	0	7.6	4	2.4	4	-1E+10	1	-1E+10	1	-1E+10	1	-1E+10	1	-1E+10	1	-1E+10	1
4902663	23	C	03/19/2024	19:17	-127.602	48.645	0	762.80	0	4.0380	0	34.2890	0	27.223	0	754.965	0	7.6	4	2.4	4	-1E+10	1	-1E+10	1	-1E+10	1	-1E+10	1	-1E+10	1	-1E+10	1
4902663	23	C	03/19/2024	19:17	-127.602	48.645	0	767.90	0	4.0280	0	34.2910	0	27.225	0	760.003	0	7.6	4	2.4	4	-1E+10	1	-1E+10	1	-1E+10	1	-1E+10	1	-1E+10	1	-1E+10	1
4902663	23	C	03/19/2024	19:17	-127.602	48.645	0	772.90	0	4.0180	0	34.2910	0	27.226	0	764.943	0	7.5	4	2.4	4	-1E+10	1	-1E+10	1	-1E+10	1	-1E+10	1	-1E+10	1	-1E+10	1
4902663	23	C	03/19/2024	19:17	-127.602	48.645	0	778.10	0	4.0040	0	34.2930	0	27.229	0	770.080	0	7.5	4	2.4	4	-1E+10	1	-1E+10	1	-1E+10	1	-1E+10	1	-1E+10	1	-1E+10	1
4902663	23	C	03/19/2024	19:17	-127.602	48.645	0	782.80	0	3.9940	0	34.2940	0	27.231	0	774.723	0	7.4	4	2.4	4	-1E+10	1	-1E+10	1	-1E+10	1	-1E+10	1	-1E+10	1	-1E+10	1
4902663	23	C	03/19/2024	19:17	-127.602	48.645	0	787.60	0	3.9930	0	34.2960	0	27.233	0	779.464	0	7.4	4	2.3	4	-1E+10	1	-1E+10	1	-1E+10	1	-1E+10	1	-1E+10	1	-1E+10	1
4902663	23	C	03/19/2024	19:17	-127.602	48.645	0	792.80	0	3.9800	0	34.2990	0	27.237	0	784.601	0	7.3	4	2.3	4	-1E+10	1	-1E+10	1	-1E+10	1	-1E+10	1	-1E+10	1	-1E+10	1
4902663	23	C	03/19/2024	19:17	-127.602	48.645	0	798.10	0	3.9590	0	34.3030	0	27.242	0	789.836	0	7.3	4	2.3	4	-1E+10	1	-1E+10	1	-1E+10	1	-1E+10	1	-1E+10	1	-1E+10	1
4902663	23	C	03/19/2024	19:17	-127.602	48.645	0	802.90	0	3.9510	0	34.3050	0	27.244	0	794.577	0	7.3	4	2.3	4	-1E+10	1	-1E+10	1	-1E+10	1	-1E+10	1	-1E+10	1	-1E+10	1
4902663	23	C	03/19/2024	19:17	-127.602	48.645	0	807.70	0	3.9410	0	34.3060	0	27.246	0	799.318	0	7.3	4	2.3	4	-1E+10	1	-1E+10	1	-1E+10	1	-1E+10	1	-1E+10	1	-1E+10	1
4902663	23	C	03/19/2024	19:17	-127.602	48.645	0	812.50	0	3.9250	0	34.3070	0	27.249	0	804.059	0	7.3	4	2.3	4	-1E+10	1	-1E+10	1	-1E+10	1	-1E+10	1	-1E+10	1	-1E+10	1
4902663	23	C	03/19/2024	19:17	-127.602	48.645	0	817.80	0	3.9110	0	34.3090	0	27.252	0	809.294	0	7.2	4	2.3	4	-1E+10	1	-1E+10	1	-1E+10	1	-1E+10	1	-1E+10	1	-1E+10	1
4902663	23	C	03/19/2024	19:17	-127.602	48.645	0	823.30	0	3.9030	0	34.3100	0	27.253	0	814.726	0	7.2	4	2.3	4	-1E+10	1	-1E+10	1	-1E+10	1	-1E+10	1	-1E+10	1	-1E+10	1
4902663	23	C	03/19/2024	19:17	-127.602	48.645	0	828.30	0	3.8980	0	34.3130	0	27.256	0	819.664	0	7.2	4	2.3	4	-1E+10	1	-1E+10	1	-1E+10	1	-1E+10	1	-1E+10	1	-1E+10	1
4902663	23	C	03/19/2024	19:17	-127.602	48.645	0	833.20	0	3.8830	0	34.3160	0	27.260	0	824.503	0	7.1	4	2.2	4	-1E+10	1	-1E+10	1	-1E+10	1	-1E+10	1	-1E+10	1	-1E+10	1
4902663	23	C	03/19/2024	19:17	-127.602	48.645	0	837.80	0	3.8710	0	34.3180	0	27.263	0	829.046	0	7.1	4	2.2	4	-1E+10	1	-1E+10	1	-1E+10	1	-1E+10	1	-1E+10	1	-1E+10	1
4902663	23	C	03/19/2024	19:17	-127.602	48.645	0	842.50	0	3.8600	0	34.3210	0	27.267	0	833.687	0	7.1	4	2.2	4	-1E+10	1	-1E+10	1	-1E+10	1	-1E+10	1	-1E+10	1	-1E+10	1
4902663	23	C	03/19/2024	19:17	-127.602	48.645	0	847.60	0	3.8450	0	34.3240	0	27.271	0	838.724	0	7.1	4	2.2	4	-1E+10	1	-1E+10	1	-1E+10	1	-1E+10	1	-1E+10	1	-1E+10	1
4902663	23	C	03/19/2024	19:17	-127.602	48.645	0	852.60	0	3.8350	0	34.3270	0	27.274	0	843.661	0	7.1	4	2.2	4	-1E+10	1	-1E+10	1	-1E+10	1	-1E+10	1	-1E+10	1	-1E+10	1
4902663	23	C	03/19/2024	19:17	-127.602	48.645	0	857.70	0	3.8300	0	34.3280	0	27.275	0	848.698	0	7.1	4	2.2	4	-1E+10	1	-1E+10	1	-1E+10	1	-1E+10	1	-1E+10	1	-1E+10	1
4902663	23	C	03/19/2024	19:17	-127.602	48.645	0	862.80	0	3.8230	0	34.3300	0	27.278	0	853.734	0	7.1	4	2.2	4	-1E+10	1	-1E+10	1	-1E+10	1	-1E+10	1	-1E+10	1	-1E+10	1
4902663	23	C	03/19/2024	19:17	-127.602	48.645	0	867.90	0	3.8130	0	34.3300	0	27.279	0	858.770	0	7.1	4	2.2	4	-1E+10	1	-1E+10	1	-1E+10	1	-1E+10	1	-1E+10	1	-1E+10	1
4902663	23	C	03/19/2024	19:17	-127.602	48.645	0	873.00	0	3.8120	0	34.3310	0	27.280	0	863.805	0	7.1	4	2.2	4	-1E+10	1	-1E+10	1	-1E+10	1	-1E+10	1	-1E+10	1	-1E+10	1
4902663	23	C	03/19/2024	19:17	-127.602	48.645	0	878.20	0	3.8000	0	34.3300	0	27.280	0	868.940	0	7.2	4	2.3	4	-1E+10	1	-1E+10	1	-1E+10	1	-1E+10	1	-1E+10	1	-1E+10	1
4902663	23	C	03/19/2024	19:17	-127.602	48.645	0	883.30	0	3.7780	0	34.3300	0	27.282	0	873.975	0	7.2	4	2.3	4	-1E+10	1	-1E+10	1	-1E+10	1	-1E+10	1	-1E+10	1	-1E+10	1
4902663	23	C	03/19/2024	19:17	-127.602	48.645	0	888.30	0	3.7770	0	34.3330	0	27.285	0	878.912	0	7.3	4	2.3	4	-1E+10	1	-1E+10	1	-1E+10	1	-1E+10	1	-1E+10	1	-1E+10	1
4902663	23	C	03/19/2024	19:17	-127.602	48.645	0	892.90	0	3.7430	0	34.3330	0	27.288	0	883.454	0	7.4	4	2.3	4	-1E+10	1	-1E+10	1	-1E+10	1	-1E+10	1	-1E+10	1	-1E+10	1
4902663	23	C	03/19/2024	19:17	-127.602	48.645	0	897.50	0	3.7230	0	34.3330	0	27.290	0	887.995	0	7.4	4	2.3	4	-1E+10	1	-1E+10	1	-1E+10	1	-1E+10	1	-1E+10	1	-1E+10	1
4902663	23	C	03/19/2024	19:17	-127.602	48.645	0	902.70	0	3.7100	0	34.3350	0	27.293	0	893.129	0	7.4	4	2.3	4	-1E+10	1	-1E+10	1	-1E+10	1	-1E+10	1	-1E+10	1	-1E+10	1
4902663	23	C	03/19/2024	19:17	-127.602	48.645	0	907.80	0	3.7040	0	34.3370	0	27.295	0	898.164	0	7.4	4	2.3	4	-1E+10	1	-1E+10	1	-1E+10	1	-1E+10	1	-1E+10	1	-1E+10	1
4902663	23	C	03/19/2024	19:17	-127.602	48.645	0	913.00	0	3.6990	0	34.3400	0	27.298	0	903.298	0	7.5	4	2.3	4	-1E+10	1	-1E+10	1	-1E+10	1	-1E+10	1	-1E+10	1	-1E+10	1
4902663	23	C	03/19/2024	19:17	-127.602	48.645	0	918.20	0	3.6800	0	34.3400	0	27.300	0	908.431	0	7.5	4	2.4	4	-1E+10	1	-1E+10	1	-1E+10	1	-1E+10	1	-1E+10	1	-1E+10	1
4902663	23	C	03/19/2024	19:17	-127.602	48.645	0	922.80	0	3.6690	0	34.3410	0	27.302	0	912.972	0	7.6	4	2.4	4	-1E+10	1	-1E+10	1	-1E+10	1	-1E+10	1	-1E+10	1	-1E+10	1
4902663	23	C	03/19/2024	19:17	-127.602	48.645	0	927.50	0	3.6500	0	34.3420	0	27.305	0	917.612	0	7.7	4	2.4	4	-1E+10	1	-1E+10	1	-1E+10	1	-1E+10	1	-1E+10	1	-1E+10	1
4902663	23	C	03/19/2024	19:17	-127.602	48.645	0	932.80	0	3.6210	0	34.3420	0	27.308	0	922.844	0	7.8	4	2.4	4	-1E+10	1	-1E+10	1	-1E+10	1	-1E+10	1	-1E+10	1	-1E+10	1
4902663	23	C	03/19/2024	19:17	-127.602	48.645	0	938.00	0	3.5880	0	34.3440	0	27.312	0	927.977	0	7.8	4	2.5	4	-1E+10	1	-1E+10	1	-1E+10	1	-1E+10	1	-1E+10	1	-1E+10	1
4902663	23	C	03/19/2024	19:17	-127.602	48.645	0	943.20	0	3.5740	0	34.3460	0	27.315	0	933.110	0	7.9	4	2.5	4	-1E+10	1	-1E+10	1	-1E+10	1	-1E+10	1	-1E+10	1	-1E+10	1
4902663	23	C	03/19/2024	19:17	-127.602	48.645	0	947.80	0	3.5610	0	34.3470	0	27.318	0	937.650	0	7.9	4	2.5	4	-1E+10	1	-1E+10	1	-1E+10	1	-1E+10	1	-1E+10	1	-1E+10	1
4902663	23	C	03/19/2024	19:17	-127.602	48.645	0	952.50	0	3.5430	0	34.3480	0	27.320	0	942.289	0	8.0	4	2.5	4	-1E+10	1	-1E+10	1	-1E+10	1	-1E+10	1	-1E+10	1	-1E+10	1
4902663	23	C	03/19/2024	19:17	-127.602	48.645	0	957.60	0	3.5140	0	34.3500	0	27.325	0	947.323	0	8.0	4	2.5	4	-1E+10	1	-1E+10	1	-1E+10	1	-1E+10	1	-1E+10	1	-1E+10	1
4902663	23	C	03/19/2024	19:17	-127.602	48.645	0	962.80	0	3.5080	0	34.3530	0	27.328	0	952.455	0	7.9	4	2.5	4	-1E+10	1	-1E+10	1	-1E+10	1	-1E+10	1	-1E+10	1	-1E+10	1
4902663	23	C	03/19/2024	19:17	-127.602	48.645	0	968.10	0	3.5360	0	34.3600	0	27.330	0	957.686	0	7.8	4	2.4	4	-1E+10	1	-1E+10	1	-1E+10	1	-1E+10	1	-1E+10	1	-1E+10	1
4902663	23	C	03/19/2024	19:17	-127.602	48.645	0	972.80	0	3.5350	0	34.3640	0	27.334	0	962.325	0	7.8	4	2.5	4	-1E+10	1	-1E+10	1	-1E+10	1	-1E+10	1	-1E+10	1	-1E+10	1
4902663	23	C	03/19/2024	19:17	-127.602	48.645	0	977.60	0	3.5210	0	34.3680	0	27.338	0	967.062	0	7.9	4	2.5	4	-1E+10	1	-1E+10	1	-1E+10	1	-1E+10	1	-1E+10	1	-1E+10	1
4902663	23	C	03/19/2024	19:17	-127.602	48.645	0	982.80	0	3.5110	0	34.3720	0	27.343	0	972.194	0	7.9	4	2.5	4	-1E+10	1	-1E+10	1	-1E+10	1	-1E+10	1	-1E+10	1	-1E+10	1
4902663	23	C	03/19/2024	19:17	-127.602	48.645	0	988.00	0	3.5040	0	34.3740	0	27.345	0	977.326	0	7.9	4	2.5	4	-1E+10	1	-1E+10	1	-1E+10	1	-1E+10	1	-1E+10	1	-1E+10	1
4902663	23	C	03/19/2024	19:17	-127.602	48.645	0	993.20	0	3.4920	0	34.3770	0	27.348	0	982.457	0	8.0	4	2.5	4	-1E+10	1	-1E+10	1	-1E+10	1	-1E+10	1	-1E+10	1	-1E+10	1
4902663	23	C	03/19/2024	19:17	-127.602	48.645	0	998.00	0	3.4860	0	34.3810	0	27.352	0	987.194	0	8.1	4	2.5	4	-1E+10	1	-1E+10	1	-1E+10	1	-1E+10	1	-1E+10	1	-1E+10	1
4902663	23	C	03/19/2024	19:17	-127.602	48.645	0	1005.50	0	3.4730	0	34.3830	0	27.355	0	994.595	0	8.2	4	2.5	4	-1E+10	1	-1E+10	1	-1E+10	1	-1E+10	1	-1E+10	1	-1E+10	1
4902663	23	C	03/19/2024	19:17	-127.602	48.645	0	1015.30	0	3.4480	0	34.3880	0	27.362	0	1004.265	0	8.3	4	2.6	4	-1E+10	1	-1E+10	1	-1E+10	1	-1E+10	1	-1E+10	1	-1E+10	1
4902663	23	C	03/19/2024	19:17	-127.602	48.645	0	1025.40	0	3.4310	0	34.3930	0	27.367	0	1014.231	0	8.5	4	2.7	4	-1E+10	1	-1E+10	1	-1E+10	1	-1E+10	1	-1E+10	1	-1E+10	1
4902663	23	C	03/19/2024	19:17	-127.602	48.645	0	1035.60	0	3.3930	0	34.3960	0	27.373	0	1024.295	0	8.7	4	2.7	4	-1E+10	1	-1E+10	1	-1E+10	1	-1E+10	1	-1E+10	1	-1E+10	1
4902663	23	C	03/19/2024	19:17	-127.602	48.645	0	1045.50	0	3.3680	0	34.4020	0	27.380	0	1034.063	0	9.0	4	2.8	4	-1E+10	1	-1E+10	1	-1E+10	1	-1E+10	1	-1E+10	1	-1E+10	1
4902663	23	C	03/19/2024	19:17	-127.602	48.645	0	1055.50	0	3.3550	0	34.4080	0	27.387	0	1043.929	0	9.2	4	2.9	4	-1E+10	1	-1E+10	1	-1E+10	1	-1E+10	1	-1E+10	1	-1E+10	1
4902663	23	C	03/19/2024	19:17	-127.602	48.645	0	1065.60	0	3.3350	0	34.4140	0	27.393	0	1053.892	0	9.4	4	2.9	4	-1E+10	1	-1E+10	1	-1E+10	1	-1E+10	1	-1E+10	1	-1E+10	1
4902663	23	C	03/19/2024	19:17	-127.602	48.645	0	1075.50	0	3.3310	0	34.4170	0	27.396	0	1063.659	0	9.5	4	3.0	4	-1E+10	1	-1E+10	1	-1E+10	1	-1E+10	1	-1E+10	1	-1E+10	1
4902663	23	C	03/19/2024	19:17	-127.602	48.645	0	1085.20	0	3.3150	0	34.4200	0	27.400	0	1073.227	0	9.8	4	3.0	4	-1E+10	1	-1E+10	1	-1E+10	1	-1E+10	1	-1E+10	1	-1E+10	1
4902663	23	C	03/19/2024	19:17	-127.602	48.645	0	1095.20	0	3.2990	0	34.4250	0	27.406	0	1083.091	0	10.0	4	3.1	4	-1E+10	1	-1E+10	1	-1E+10	1	-1E+10	1	-1E+10	1	-1E+10	1
4902663	23	C	03/19/2024	19:17	-127.602	48.645	0	1105.60	0	3.2800	0	34.4280	0	27.410	0	1093.349	0	10.3	4	3.2	4	-1E+10	1	-1E+10	1	-1E+10	1	-1E+10	1	-1E+10	1	-1E+10	1
4902663	23	C	03/19/2024	19:17	-127.602	48.645	0	1115.70	0	3.2620	0	34.4300	0	27.413	0	1103.310	0	10.6	4	3.3	4	-1E+10	1	-1E+10	1	-1E+10	1	-1E+10	1	-1E+10	1	-1E+10	1
4902663	23	C	03/19/2024	19:17	-127.602	48.645	0	1125.70	0	3.2460	0	34.4340	0	27.418	0	1113.173	0	10.9	4	3.4	4	-1E+10	1	-1E+10	1	-1E+10	1	-1E+10	1	-1E+10	1	-1E+10	1
4902663	23	C	03/19/2024	19:17	-127.602	48.645	0	1135.60	0	3.2270	0	34.4370	0	27.422	0	1122.936	0	11.0	4	3.4	4	-1E+10	1	-1E+10	1	-1E+10	1	-1E+10	1	-1E+10	1	-1E+10	1
4902663	23	C	03/19/2024	19:17	-127.602	48.645	0	1145.60	0	3.1910	0	34.4350	0	27.424	0	1132.798	0	11.0	4	3.4	4	-1E+10	1	-1E+10	1	-1E+10	1	-1E+10	1	-1E+10	1	-1E+10	1
4902663	23	C	03/19/2024	19:17	-127.602	48.645	0	1155.30	0	3.1690	0	34.4360	0	27.427	0	1142.363	0	11.1	4	3.4	4	-1E+10	1	-1E+10	1	-1E+10	1	-1E+10	1	-1E+10	1	-1E+10	1
4902663	23	C	03/19/2024	19:17	-127.602	48.645	0	1165.00	0	3.1570	0	34.4370	0	27.429	0	1151.928	0	11.3	4	3.5	4	-1E+10	1	-1E+10	1	-1E+10	1	-1E+10	1	-1E+10	1	-1E+10	1
4902663	23	C	03/19/2024	19:17	-127.602	48.645	0	1175.20	0	3.1470	0	34.4390	0	27.431	0	1161.985	0	11.6	4	3.6	4	-1E+10	1	-1E+10	1	-1E+10	1	-1E+10	1	-1E+10	1	-1E+10	1
4902663	23	C	03/19/2024	19:17	-127.602	48.645	0	1185.20	0	3.1310	0	34.4430	0	27.436	0	1171.845	0	11.9	4	3.7	4	-1E+10	1	-1E+10	1	-1E+10	1	-1E+10	1	-1E+10	1	-1E+10	1
4902663	23	C	03/19/2024	19:17	-127.602	48.645	0	1195.10	0	3.1110	0	34.4470	0	27.441	0	1181.606	0	12.3	4	3.8	4	-1E+10	1	-1E+10	1	-1E+10	1	-1E+10	1	-1E+10	1	-1E+10	1
4902663	23	C	03/19/2024	19:17	-127.602	48.645	0	1205.40	0	3.0980	0	34.4520	0	27.446	0	1191.760	0	12.6	4	3.9	4	-1E+10	1	-1E+10	1	-1E+10	1	-1E+10	1	-1E+10	1	-1E+10	1
4902663	23	C	03/19/2024	19:17	-127.602	48.645	0	1215.80	0	3.0610	0	34.4530	0	27.451	0	1202.013	0	12.9	4	4.0	4	-1E+10	1	-1E+10	1	-1E+10	1	-1E+10	1	-1E+10	1	-1E+10	1
4902663	23	C	03/19/2024	19:17	-127.602	48.645	0	1225.50	0	3.0490	0	34.4560	0	27.454	0	1211.575	0	13.3	4	4.1	4	-1E+10	1	-1E+10	1	-1E+10	1	-1E+10	1	-1E+10	1	-1E+10	1
4902663	23	C	03/19/2024	19:17	-127.602	48.645	0	1235.30	0	3.0360	0	34.4600	0	27.459	0	1221.235	0	13.6	4	4.2	4	-1E+10	1	-1E+10	1	-1E+10	1	-1E+10	1	-1E+10	1	-1E+10	1
4902663	23	C	03/19/2024	19:17	-127.602	48.645	0	1245.20	0	3.0100	0	34.4610	0	27.462	0	1230.993	0	13.8	4	4.3	4	-1E+10	1	-1E+10	1	-1E+10	1	-1E+10	1	-1E+10	1	-1E+10	1
4902663	23	C	03/19/2024	19:17	-127.602	48.645	0	1255.10	0	2.9680	0	34.4630	0	27.467	0	1240.751	0	14.1	4	4.3	4	-1E+10	1	-1E+10	1	-1E+10	1	-1E+10	1	-1E+10	1	-1E+10	1
4902663	23	C	03/19/2024	19:17	-127.602	48.645	0	1265.00	0	2.9580	0	34.4660	0	27.471	0	1250.509	0	14.5	4	4.5	4	-1E+10	1	-1E+10	1	-1E+10	1	-1E+10	1	-1E+10	1	-1E+10	1
4902663	23	C	03/19/2024	19:17	-127.602	48.645	0	1275.00	0	2.9440	0	34.4680	0	27.474	0	1260.364	0	14.6	4	4.5	4	-1E+10	1	-1E+10	1	-1E+10	1	-1E+10	1	-1E+10	1	-1E+10	1
4902663	23	C	03/19/2024	19:17	-127.602	48.645	0	1285.30	0	2.9200	0	34.4680	0	27.476	0	1270.515	0	14.7	4	4.5	4	-1E+10	1	-1E+10	1	-1E+10	1	-1E+10	1	-1E+10	1	-1E+10	1
4902663	23	C	03/19/2024	19:17	-127.602	48.645	0	1295.70	0	2.8870	0	34.4690	0	27.480	0	1280.764	0	14.9	4	4.6	4	-1E+10	1	-1E+10	1	-1E+10	1	-1E+10	1	-1E+10	1	-1E+10	1
4902663	23	C	03/19/2024	19:17	-127.602	48.645	0	1305.20	0	2.8740	0	34.4710	0	27.482	0	1290.125	0	15.1	4	4.7	4	-1E+10	1	-1E+10	1	-1E+10	1	-1E+10	1	-1E+10	1	-1E+10	1
4902663	23	C	03/19/2024	19:17	-127.602	48.645	0	1315.20	0	2.8550	0	34.4730	0	27.486	0	1299.979	0	15.4	4	4.7	4	-1E+10	1	-1E+10	1	-1E+10	1	-1E+10	1	-1E+10	1	-1E+10	1
4902663	23	C	03/19/2024	19:17	-127.602	48.645	0	1325.40	0	2.8350	0	34.4750	0	27.489	0	1310.029	0	15.7	4	4.8	4	-1E+10	1	-1E+10	1	-1E+10	1	-1E+10	1	-1E+10	1	-1E+10	1
4902663	23	C	03/19/2024	19:17	-127.602	48.645	0	1335.30	0	2.8100	0	34.4760	0	27.492	0	1319.783	0	15.9	4	4.9	4	-1E+10	1	-1E+10	1	-1E+10	1	-1E+10	1	-1E+10	1	-1E+10	1
4902663	23	C	03/19/2024	19:17	-127.602	48.645	0	1345.50	0	2.7920	0	34.4780	0	27.495	0	1329.832	0	16.4	4	5.0	4	-1E+10	1	-1E+10	1	-1E+10	1	-1E+10	1	-1E+10	1	-1E+10	1
4902663	23	C	03/19/2024	19:17	-127.602	48.645	0	1355.40	0	2.7800	0	34.4810	0	27.499	0	1339.586	0	17.0	4	5.2	4	-1E+10	1	-1E+10	1	-1E+10	1	-1E+10	1	-1E+10	1	-1E+10	1
4902663	23	C	03/19/2024	19:17	-127.602	48.645	0	1365.30	0	2.7620	0	34.4830	0	27.502	0	1349.339	0	17.3	4	5.3	4	-1E+10	1	-1E+10	1	-1E+10	1	-1E+10	1	-1E+10	1	-1E+10	1
4902663	23	C	03/19/2024	19:17	-127.602	48.645	0	1375.20	0	2.7480	0	34.4850	0	27.505	0	1359.091	0	17.8	4	5.5	4	-1E+10	1	-1E+10	1	-1E+10	1	-1E+10	1	-1E+10	1	-1E+10	1
4902663	23	C	03/19/2024	19:17	-127.602	48.645	0	1385.40	0	2.7350	0	34.4870	0	27.508	0	1369.138	0	18.3	4	5.6	4	-1E+10	1	-1E+10	1	-1E+10	1	-1E+10	1	-1E+10	1	-1E+10	1
4902663	23	C	03/19/2024	19:17	-127.602	48.645	0	1395.70	0	2.7140	0	34.4900	0	27.512	0	1379.284	0	18.8	4	5.8	4	-1E+10	1	-1E+10	1	-1E+10	1	-1E+10	1	-1E+10	1	-1E+10	1
4902663	23	C	03/19/2024	19:17	-127.602	48.645	0	1405.70	0	2.6980	0	34.4930	0	27.516	0	1389.133	0	19.3	4	5.9	4	-1E+10	1	-1E+10	1	-1E+10	1	-1E+10	1	-1E+10	1	-1E+10	1
4902663	23	C	03/19/2024	19:17	-127.602	48.645	0	1415.30	0	2.6780	0	34.4950	0	27.519	0	1398.588	0	19.7	4	6.0	4	-1E+10	1	-1E+10	1	-1E+10	1	-1E+10	1	-1E+10	1	-1E+10	1
4902663	23	C	03/19/2024	19:17	-127.602	48.645	0	1425.30	0	2.6630	0	34.4960	0	27.521	0	1408.437	0	20.0	4	6.1	4	-1E+10	1	-1E+10	1	-1E+10	1	-1E+10	1	-1E+10	1	-1E+10	1
4902663	23	C	03/19/2024	19:17	-127.602	48.645	0	1435.40	0	2.6480	0	34.4980	0	27.524	0	1418.384	0	20.5	4	6.3	4	-1E+10	1	-1E+10	1	-1E+10	1	-1E+10	1	-1E+10	1	-1E+10	1
4902663	23	C	03/19/2024	19:17	-127.602	48.645	0	1445.10	0	2.6360	0	34.4990	0	27.526	0	1427.936	0	20.9	4	6.4	4	-1E+10	1	-1E+10	1	-1E+10	1	-1E+10	1	-1E+10	1	-1E+10	1
4902663	23	C	03/19/2024	19:17	-127.602	48.645	0	1455.30	0	2.6170	0	34.5010	0	27.529	0	1437.980	0	21.5	4	6.6	4	-1E+10	1	-1E+10	1	-1E+10	1	-1E+10	1	-1E+10	1	-1E+10	1
4902663	23	C	03/19/2024	19:17	-127.602	48.645	0	1465.70	0	2.6000	0	34.5040	0	27.533	0	1448.220	0	22.2	4	6.8	4	-1E+10	1	-1E+10	1	-1E+10	1	-1E+10	1	-1E+10	1	-1E+10	1
4902663	23	C	03/19/2024	19:17	-127.602	48.645	0	1475.30	0	2.5870	0	34.5070	0	27.537	0	1457.673	0	23.3	4	7.1	4	-1E+10	1	-1E+10	1	-1E+10	1	-1E+10	1	-1E+10	1	-1E+10	1
4902663	23	C	03/19/2024	19:17	-127.602	48.645	0	1485.00	0	2.5810	0	34.5100	0	27.540	0	1467.223	0	23.9	4	7.3	4	-1E+10	1	-1E+10	1	-1E+10	1	-1E+10	1	-1E+10	1	-1E+10	1
4902663	23	C	03/19/2024	19:17	-127.602	48.645	0	1495.30	0	2.5690	0	34.5120	0	27.543	0	1477.364	0	24.5	4	7.5	4	-1E+10	1	-1E+10	1	-1E+10	1	-1E+10	1	-1E+10	1	-1E+10	1
4902663	23	C	03/19/2024	19:17	-127.602	48.645	0	1505.60	0	2.5480	0	34.5140	0	27.546	0	1487.504	0	25.2	4	7.7	4	-1E+10	1	-1E+10	1	-1E+10	1	-1E+10	1	-1E+10	1	-1E+10	1
4902663	23	C	03/19/2024	19:17	-127.602	48.645	0	1515.70	0	2.5250	0	34.5180	0	27.551	0	1497.447	0	26.0	4	7.9	4	-1E+10	1	-1E+10	1	-1E+10	1	-1E+10	1	-1E+10	1	-1E+10	1
4902663	23	C	03/19/2024	19:17	-127.602	48.645	0	1525.10	0	2.4980	0	34.5190	0	27.554	0	1506.700	0	26.1	4	8.0	4	-1E+10	1	-1E+10	1	-1E+10	1	-1E+10	1	-1E+10	1	-1E+10	1
4902663	23	C	03/19/2024	19:17	-127.602	48.645	0	1535.20	0	2.4720	0	34.5190	0	27.557	0	1516.642	0	26.7	4	8.1	4	-1E+10	1	-1E+10	1	-1E+10	1	-1E+10	1	-1E+10	1	-1E+10	1
4902663	23	C	03/19/2024	19:17	-127.602	48.645	0	1545.20	0	2.4740	0	34.5230	0	27.560	0	1526.485	0	27.7	4	8.4	4	-1E+10	1	-1E+10	1	-1E+10	1	-1E+10	1	-1E+10	1	-1E+10	1
4902663	23	C	03/19/2024	19:17	-127.602	48.645	0	1555.40	0	2.4650	0	34.5270	0	27.564	0	1536.525	0	28.4	4	8.7	4	-1E+10	1	-1E+10	1	-1E+10	1	-1E+10	1	-1E+10	1	-1E+10	1
4902663	23	C	03/19/2024	19:17	-127.602	48.645	0	1565.30	0	2.4590	0	34.5280	0	27.565	0	1546.269	0	28.7	4	8.8	4	-1E+10	1	-1E+10	1	-1E+10	1	-1E+10	1	-1E+10	1	-1E+10	1
4902663	23	C	03/19/2024	19:17	-127.602	48.645	0	1575.20	0	2.4510	0	34.5290	0	27.567	0	1556.012	0	28.8	4	8.8	4	-1E+10	1	-1E+10	1	-1E+10	1	-1E+10	1	-1E+10	1	-1E+10	1
4902663	23	C	03/19/2024	19:17	-127.602	48.645	0	1585.50	0	2.4330	0	34.5280	0	27.567	0	1566.148	0	28.7	4	8.8	4	-1E+10	1	-1E+10	1	-1E+10	1	-1E+10	1	-1E+10	1	-1E+10	1
4902663	23	C	03/19/2024	19:17	-127.602	48.645	0	1595.70	0	2.4150	0	34.5280	0	27.569	0	1576.186	0	29.1	4	8.9	4	-1E+10	1	-1E+10	1	-1E+10	1	-1E+10	1	-1E+10	1	-1E+10	1
4902663	23	C	03/19/2024	19:17	-127.602	48.645	0	1605.70	0	2.3820	0	34.5290	0	27.572	0	1586.026	0	29.3	4	8.9	4	-1E+10	1	-1E+10	1	-1E+10	1	-1E+10	1	-1E+10	1	-1E+10	1
4902663	23	C	03/19/2024	19:17	-127.602	48.645	0	1615.40	0	2.3590	0	34.5280	0	27.573	0	1595.571	0	29.8	4	9.1	4	-1E+10	1	-1E+10	1	-1E+10	1	-1E+10	1	-1E+10	1	-1E+10	1
4902663	23	C	03/19/2024	19:17	-127.602	48.645	0	1625.20	0	2.3480	0	34.5310	0	27.577	0	1605.213	0	30.5	4	9.3	4	-1E+10	1	-1E+10	1	-1E+10	1	-1E+10	1	-1E+10	1	-1E+10	1
4902663	23	C	03/19/2024	19:17	-127.602	48.645	0	1635.40	0	2.3290	0	34.5330	0	27.580	0	1615.249	0	31.2	4	9.5	4	-1E+10	1	-1E+10	1	-1E+10	1	-1E+10	1	-1E+10	1	-1E+10	1
4902663	23	C	03/19/2024	19:17	-127.602	48.645	0	1645.60	0	2.3150	0	34.5360	0	27.584	0	1625.284	0	31.9	4	9.7	4	-1E+10	1	-1E+10	1	-1E+10	1	-1E+10	1	-1E+10	1	-1E+10	1
4902663	23	C	03/19/2024	19:17	-127.602	48.645	0	1655.50	0	2.3060	0	34.5380	0	27.586	0	1635.024	0	32.6	4	9.9	4	-1E+10	1	-1E+10	1	-1E+10	1	-1E+10	1	-1E+10	1	-1E+10	1
4902663	23	C	03/19/2024	19:17	-127.602	48.645	0	1665.60	0	2.2980	0	34.5410	0	27.589	0	1644.960	0	33.2	4	10.1	4	-1E+10	1	-1E+10	1	-1E+10	1	-1E+10	1	-1E+10	1	-1E+10	1
4902663	23	C	03/19/2024	19:17	-127.602	48.645	0	1675.60	0	2.2870	0	34.5420	0	27.591	0	1654.797	0	33.7	4	10.2	4	-1E+10	1	-1E+10	1	-1E+10	1	-1E+10	1	-1E+10	1	-1E+10	1
4902663	23	C	03/19/2024	19:17	-127.602	48.645	0	1685.60	0	2.2720	0	34.5430	0	27.593	0	1664.633	0	34.3	4	10.4	4	-1E+10	1	-1E+10	1	-1E+10	1	-1E+10	1	-1E+10	1	-1E+10	1
4902663	23	C	03/19/2024	19:17	-127.602	48.645	0	1695.50	0	2.2580	0	34.5450	0	27.596	0	1674.371	0	35.0	4	10.6	4	-1E+10	1	-1E+10	1	-1E+10	1	-1E+10	1	-1E+10	1	-1E+10	1
4902663	23	C	03/19/2024	19:17	-127.602	48.645	0	1705.50	0	2.2470	0	34.5470	0	27.598	0	1684.207	0	35.9	4	10.9	4	-1E+10	1	-1E+10	1	-1E+10	1	-1E+10	1	-1E+10	1	-1E+10	1
4902663	23	C	03/19/2024	19:17	-127.602	48.645	0	1715.50	0	2.2410	0	34.5510	0	27.602	0	1694.042	0	36.8	4	11.2	4	-1E+10	1	-1E+10	1	-1E+10	1	-1E+10	1	-1E+10	1	-1E+10	1
4902663	23	C	03/19/2024	19:17	-127.602	48.645	0	1725.50	0	2.2340	0	34.5530	0	27.604	0	1703.877	0	37.2	4	11.3	4	-1E+10	1	-1E+10	1	-1E+10	1	-1E+10	1	-1E+10	1	-1E+10	1
4902663	23	C	03/19/2024	19:17	-127.602	48.645	0	1735.40	0	2.2240	0	34.5540	0	27.606	0	1713.613	0	37.8	4	11.4	4	-1E+10	1	-1E+10	1	-1E+10	1	-1E+10	1	-1E+10	1	-1E+10	1
4902663	23	C	03/19/2024	19:17	-127.602	48.645	0	1745.50	0	2.2120	0	34.5560	0	27.609	0	1723.545	0	38.1	4	11.5	4	-1E+10	1	-1E+10	1	-1E+10	1	-1E+10	1	-1E+10	1	-1E+10	1
4902663	23	C	03/19/2024	19:17	-127.602	48.645	0	1755.70	0	2.1990	0	34.5560	0	27.610	0	1733.575	0	38.6	4	11.7	4	-1E+10	1	-1E+10	1	-1E+10	1	-1E+10	1	-1E+10	1	-1E+10	1
4902663	23	C	03/19/2024	19:17	-127.602	48.645	0	1765.50	0	2.1900	0	34.5580	0	27.612	0	1743.211	0	39.4	4	11.9	4	-1E+10	1	-1E+10	1	-1E+10	1	-1E+10	1	-1E+10	1	-1E+10	1
4902663	23	C	03/19/2024	19:17	-127.602	48.645	0	1775.40	0	2.1810	0	34.5600	0	27.614	0	1752.946	0	39.8	4	12.1	4	-1E+10	1	-1E+10	1	-1E+10	1	-1E+10	1	-1E+10	1	-1E+10	1
4902663	23	C	03/19/2024	19:17	-127.602	48.645	0	1785.50	0	2.1740	0	34.5610	0	27.616	0	1762.876	0	40.1	4	12.1	4	-1E+10	1	-1E+10	1	-1E+10	1	-1E+10	1	-1E+10	1	-1E+10	1
4902663	23	C	03/19/2024	19:17	-127.602	48.645	0	1795.30	0	2.1640	0	34.5610	0	27.617	0	1772.511	0	40.6	4	12.3	4	-1E+10	1	-1E+10	1	-1E+10	1	-1E+10	1	-1E+10	1	-1E+10	1
4902663	23	C	03/19/2024	19:17	-127.602	48.645	0	1805.20	0	2.1480	0	34.5620	0	27.619	0	1782.244	0	41.0	4	12.4	4	-1E+10	1	-1E+10	1	-1E+10	1	-1E+10	1	-1E+10	1	-1E+10	1
4902663	23	C	03/19/2024	19:17	-127.602	48.645	0	1815.30	0	2.1320	0	34.5630	0	27.621	0	1792.173	0	41.5	4	12.6	4	-1E+10	1	-1E+10	1	-1E+10	1	-1E+10	1	-1E+10	1	-1E+10	1
4902663	23	C	03/19/2024	19:17	-127.602	48.645	0	1825.40	0	2.1210	0	34.5650	0	27.623	0	1802.101	0	42.1	4	12.7	4	-1E+10	1	-1E+10	1	-1E+10	1	-1E+10	1	-1E+10	1	-1E+10	1
4902663	23	C	03/19/2024	19:17	-127.602	48.645	0	1835.50	0	2.1080	0	34.5660	0	27.625	0	1812.029	0	43.0	4	13.0	4	-1E+10	1	-1E+10	1	-1E+10	1	-1E+10	1	-1E+10	1	-1E+10	1
4902663	23	C	03/19/2024	19:17	-127.602	48.645	0	1845.70	0	2.0880	0	34.5680	0	27.628	0	1822.055	0	43.8	4	13.2	4	-1E+10	1	-1E+10	1	-1E+10	1	-1E+10	1	-1E+10	1	-1E+10	1
4902663	23	C	03/19/2024	19:17	-127.602	48.645	0	1855.80	0	2.0790	0	34.5700	0	27.631	0	1831.982	0	44.5	4	13.4	4	-1E+10	1	-1E+10	1	-1E+10	1	-1E+10	1	-1E+10	1	-1E+10	1
4902663	23	C	03/19/2024	19:17	-127.602	48.645	0	1865.30	0	2.0690	0	34.5720	0	27.633	0	1841.319	0	45.1	4	13.6	4	-1E+10	1	-1E+10	1	-1E+10	1	-1E+10	1	-1E+10	1	-1E+10	1
4902663	23	C	03/19/2024	19:17	-127.602	48.645	0	1875.30	0	2.0560	0	34.5740	0	27.636	0	1851.147	0	45.9	4	13.8	4	-1E+10	1	-1E+10	1	-1E+10	1	-1E+10	1	-1E+10	1	-1E+10	1
4902663	23	C	03/19/2024	19:17	-127.602	48.645	0	1885.60	0	2.0470	0	34.5760	0	27.638	0	1861.270	0	46.4	4	14.0	4	-1E+10	1	-1E+10	1	-1E+10	1	-1E+10	1	-1E+10	1	-1E+10	1
4902663	23	C	03/19/2024	19:17	-127.602	48.645	0	1895.50	0	2.0420	0	34.5770	0	27.640	0	1870.998	0	46.9	4	14.2	4	-1E+10	1	-1E+10	1	-1E+10	1	-1E+10	1	-1E+10	1	-1E+10	1
4902663	23	C	03/19/2024	19:17	-127.602	48.645	0	1905.30	0	2.0330	0	34.5780	0	27.641	0	1880.628	0	47.5	4	14.3	4	-1E+10	1	-1E+10	1	-1E+10	1	-1E+10	1	-1E+10	1	-1E+10	1
4902663	23	C	03/19/2024	19:17	-127.602	48.645	0	1915.20	0	2.0220	0	34.5800	0	27.644	0	1890.356	0	48.1	4	14.5	4	-1E+10	1	-1E+10	1	-1E+10	1	-1E+10	1	-1E+10	1	-1E+10	1
4902663	23	C	03/19/2024	19:17	-127.602	48.645	0	1925.00	0	2.0140	0	34.5810	0	27.645	0	1899.985	0	48.7	4	14.7	4	-1E+10	1	-1E+10	1	-1E+10	1	-1E+10	1	-1E+10	1	-1E+10	1
4902663	23	C	03/19/2024	19:17	-127.602	48.645	0	1935.20	0	2.0060	0	34.5820	0	27.647	0	1910.007	0	49.1	4	14.8	4	-1E+10	1	-1E+10	1	-1E+10	1	-1E+10	1	-1E+10	1	-1E+10	1
4902663	23	C	03/19/2024	19:17	-127.602	48.645	0	1945.30	0	2.0010	0	34.5830	0	27.648	0	1919.930	0	49.4	4	14.9	4	-1E+10	1	-1E+10	1	-1E+10	1	-1E+10	1	-1E+10	1	-1E+10	1
4902663	23	C	03/19/2024	19:17	-127.602	48.645	0	1955.40	0	1.9960	0	34.5840	0	27.649	0	1929.853	0	49.9	4	15.1	4	-1E+10	1	-1E+10	1	-1E+10	1	-1E+10	1	-1E+10	1	-1E+10	1
4902663	23	C	03/19/2024	19:17	-127.602	48.645	0	1965.60	0	1.9860	0	34.5850	0	27.651	0	1939.873	0	50.4	4	15.2	4	-1E+10	1	-1E+10	1	-1E+10	1	-1E+10	1	-1E+10	1	-1E+10	1
4902663	23	C	03/19/2024	19:17	-127.602	48.645	0	1975.40	0	1.9810	0	34.5860	0	27.652	0	1949.500	0	50.8	4	15.3	4	-1E+10	1	-1E+10	1	-1E+10	1	-1E+10	1	-1E+10	1	-1E+10	1
4902663	23	C	03/19/2024	19:17	-127.602	48.645	0	1985.10	0	1.9760	0	34.5880	0	27.654	0	1959.028	0	51.0	4	15.4	4	-1E+10	1	-1E+10	1	-1E+10	1	-1E+10	1	-1E+10	1	-1E+10	1
4902663	23	C	03/19/2024	19:17	-127.602	48.645	0	1995.80	0	1.9720	0	34.5880	0	27.654	0	1969.538	0	50.7	4	15.3	4	-1E+10	1	-1E+10	1	-1E+10	1	-1E+10	1	-1E+10	1	-1E+10	1
4902663	23	C	03/19/2024	19:17	-127.602	48.645	0																										
4902663	24	C	03/29/2024	14:11	-127.363	48.737	0	0.20	0	9.4850	0	32.2360	0	24.878	0	0.198	0	268.6	4	94.8	4	-1E+10	1	-1E+10	1	-1E+10	1	-1E+10	1	-1E+10	1	-1E+10	1
4902663	24	C	03/29/2024	14:11	-127.363	48.737	0	0.80	0	9.4970	0	32.2250	0	24.868	0	0.793	0	268.6	4	94.8	4	-1E+10	1	-1E+10	1	-1E+10	1	-1E+10	1	-1E+10	1	-1E+10	1
4902663	24	C	03/29/2024	14:11	-127.363	48.737	0	1.90	0	9.4980	0	32.2250	0	24.868	0	1.884	0	268.5	4	94.8	4	-1E+10	1	-1E+10	1	-1E+10	1	-1E+10	1	-1E+10	1	-1E+10	1
4902663	24	C	03/29/2024	14:11	-127.363	48.737	0	3.00	0	9.4980	0	32.2250	0	24.868	0	2.975	0	268.3	4	94.7	4	-1E+10	1	-1E+10	1	-1E+10	1	-1E+10	1	-1E+10	1	-1E+10	1
4902663	24	C	03/29/2024	14:11	-127.363	48.737	0	3.90	0	9.5000	0	32.2250	0	24.868	0	3.867	0	268.2	4	94.7	4	-1E+10	1	-1E+10	1	-1E+10	1	-1E+10	1	-1E+10	1	-1E+10	1
4902663	24	C	03/29/2024	14:11	-127.363	48.737	0	4.90	0	9.4990	0	32.2260	0	24.869	0	4.858	0	268.0	4	94.6	4	-1E+10	1	-1E+10	1	-1E+10	1	-1E+10	1	-1E+10	1	-1E+10	1
4902663	24	C	03/29/2024	14:11	-127.363	48.737	0	5.90	0	9.5000	0	32.2260	0	24.868	0	5.850	0	267.9	4	94.6	4	-1E+10	1	-1E+10	1	-1E+10	1	-1E+10	1	-1E+10	1	-1E+10	1
4902663	24	C	03/29/2024	14:11	-127.363	48.737	0	6.70	0	9.5000	0	32.2260	0	24.868	0	6.643	0	267.8	4	94.6	4	-1E+10	1	-1E+10	1	-1E+10	1	-1E+10	1	-1E+10	1	-1E+10	1
4902663	24	C	03/29/2024	14:11	-127.363	48.737	0	7.80	0	9.4990	0	32.2250	0	24.868	0	7.734	0	267.7	4	94.5	4	-1E+10	1	-1E+10	1	-1E+10	1	-1E+10	1	-1E+10	1	-1E+10	1
4902663	24	C	03/29/2024	14:11	-127.363	48.737	0	9.00	0	9.5010	0	32.2250	0	24.867	0	8.924	0	267.6	4	94.5	4	-1E+10	1	-1E+10	1	-1E+10	1	-1E+10	1	-1E+10	1	-1E+10	1
4902663	24	C	03/29/2024	14:11	-127.363	48.737	0	9.70	0	9.4990	0	32.2260	0	24.869	0	9.618	0	267.5	4	94.5	4	-1E+10	1	-1E+10	1	-1E+10	1	-1E+10	1	-1E+10	1	-1E+10	1
4902663	24	C	03/29/2024	14:11	-127.363	48.737	0	10.90	0	9.4990	0	32.2260	0	24.869	0	10.808	0	267.4	4	94.4	4	-1E+10	1	-1E+10	1	-1E+10	1	-1E+10	1	-1E+10	1	-1E+10	1
4902663	24	C	03/29/2024	14:11	-127.363	48.737	0	12.00	0	9.4990	0	32.2250	0	24.868	0	11.898	0	267.4	4	94.4	4	-1E+10	1	-1E+10	1	-1E+10	1	-1E+10	1	-1E+10	1	-1E+10	1
4902663	24	C	03/29/2024	14:11	-127.363	48.737	0	12.80	0	9.4990	0	32.2250	0	24.868	0	12.691	0	267.3	4	94.4	4	-1E+10	1	-1E+10	1	-1E+10	1	-1E+10	1	-1E+10	1	-1E+10	1
4902663	24	C	03/29/2024	14:11	-127.363	48.737	0	14.00	0	9.4990	0	32.2250	0	24.868	0	13.881	0	267.1	4	94.3	4	-1E+10	1	-1E+10	1	-1E+10	1	-1E+10	1	-1E+10	1	-1E+10	1
4902663	24	C	03/29/2024	14:11	-127.363	48.737	0	15.20	0	9.4990	0	32.2260	0	24.869	0	15.071	0	267.1	4	94.3	4	-1E+10	1	-1E+10	1	-1E+10	1	-1E+10	1	-1E+10	1	-1E+10	1
4902663	24	C	03/29/2024	14:11	-127.363	48.737	0	16.00	0	9.5000	0	32.2260	0	24.869	0	15.864	0	267.0	4	94.3	4	-1E+10	1	-1E+10	1	-1E+10	1	-1E+10	1	-1E+10	1	-1E+10	1
4902663	24	C	03/29/2024	14:11	-127.363	48.737	0	17.00	0	9.5000	0	32.2260	0	24.869	0	16.856	0	266.8	4	94.2	4	-1E+10	1	-1E+10	1	-1E+10	1	-1E+10	1	-1E+10	1	-1E+10	1
4902663	24	C	03/29/2024	14:11	-127.363	48.737	0	18.10	0	9.5000	0	32.2260	0	24.869	0	17.946	0	266.7	4	94.2	4	-1E+10	1	-1E+10	1	-1E+10	1	-1E+10	1	-1E+10	1	-1E+10	1
4902663	24	C	03/29/2024	14:11	-127.363	48.737	0	18.80	0	9.5000	0	32.2260	0	24.869	0	18.640	0	266.6	4	94.1	4	-1E+10	1	-1E+10	1	-1E+10	1	-1E+10	1	-1E+10	1	-1E+10	1
4902663	24	C	03/29/2024	14:11	-127.363	48.737	0	19.80	0	9.5000	0	32.2260	0	24.869	0	19.632	0	266.4	4	94.1	4	-1E+10	1	-1E+10	1	-1E+10	1	-1E+10	1	-1E+10	1	-1E+10	1
4902663	24	C	03/29/2024	14:11	-127.363	48.737	0	21.00	0	9.5000	0	32.2260	0	24.869	0	20.821	0	266.1	4	94.0	4	-1E+10	1	-1E+10	1	-1E+10	1	-1E+10	1	-1E+10	1	-1E+10	1
4902663	24	C	03/29/2024	14:11	-127.363	48.737	0	21.80	0	9.5000	0	32.2250	0	24.868	0	21.614	0	266.0	4	93.9	4	-1E+10	1	-1E+10	1	-1E+10	1	-1E+10	1	-1E+10	1	-1E+10	1
4902663	24	C	03/29/2024	14:11	-127.363	48.737	0	22.60	0	9.4990	0	32.2250	0	24.868	0	22.408	0	265.4	4	93.7	4	-1E+10	1	-1E+10	1	-1E+10	1	-1E+10	1	-1E+10	1	-1E+10	1
4902663	24	C	03/29/2024	14:11	-127.363	48.737	0	23.90	0	9.4990	0	32.2260	0	24.869	0	23.696	0	265.4	4	93.7	4	-1E+10	1	-1E+10	1	-1E+10	1	-1E+10	1	-1E+10	1	-1E+10	1
4902663	24	C	03/29/2024	14:11	-127.363	48.737	0	25.20	0	9.4990	0	32.2270	0	24.870	0	24.985	0	265.2	4	93.6	4	-1E+10	1	-1E+10	1	-1E+10	1	-1E+10	1	-1E+10	1	-1E+10	1
4902663	24	C	03/29/2024	14:11	-127.363	48.737	0	26.00	0	9.4980	0	32.2260	0	24.869	0	25.778	0	264.8	4	93.5	4	-1E+10	1	-1E+10	1	-1E+10	1	-1E+10	1	-1E+10	1	-1E+10	1
4902663	24	C	03/29/2024	14:11	-127.363	48.737	0	26.90	0	9.4990	0	32.2290	0	24.871	0	26.671	0	264.4	4	93.4	4	-1E+10	1	-1E+10	1	-1E+10	1	-1E+10	1	-1E+10	1	-1E+10	1
4902663	24	C	03/29/2024	14:11	-127.363	48.737	0	27.70	0	9.5050	0	32.2310	0	24.872	0	27.464	0	264.1	4	93.3	4	-1E+10	1	-1E+10	1	-1E+10	1	-1E+10	1	-1E+10	1	-1E+10	1
4902663	24	C	03/29/2024	14:11	-127.363	48.737	0	29.00	0	9.5040	0	32.2300	0	24.871	0	28.753	0	263.4	4	93.0	4	-1E+10	1	-1E+10	1	-1E+10	1	-1E+10	1	-1E+10	1	-1E+10	1
4902663	24	C	03/29/2024	14:11	-127.363	48.737	0	30.30	0	9.5070	0	32.2310	0	24.872	0	30.042	0	262.3	4	92.7	4	-1E+10	1	-1E+10	1	-1E+10	1	-1E+10	1	-1E+10	1	-1E+10	1
4902663	24	C	03/29/2024	14:11	-127.363	48.737	0	31.10	0	9.5050	0	32.2330	0	24.873	0	30.835	0	261.7	4	92.4	4	-1E+10	1	-1E+10	1	-1E+10	1	-1E+10	1	-1E+10	1	-1E+10	1
4902663	24	C	03/29/2024	14:11	-127.363	48.737	0	32.00	0	9.4990	0	32.2350	0	24.876	0	31.727	0	261.0	4	92.2	4	-1E+10	1	-1E+10	1	-1E+10	1	-1E+10	1	-1E+10	1	-1E+10	1
4902663	24	C	03/29/2024	14:11	-127.363	48.737	0	32.80	0	9.4960	0	32.2350	0	24.877	0	32.520	0	260.1	4	91.8	4	-1E+10	1	-1E+10	1	-1E+10	1	-1E+10	1	-1E+10	1	-1E+10	1
4902663	24	C	03/29/2024	14:11	-127.363	48.737	0	33.70	0	9.4900	0	32.2370	0	24.879	0	33.412	0	259.0	4	91.4	4	-1E+10	1	-1E+10	1	-1E+10	1	-1E+10	1	-1E+10	1	-1E+10	1
4902663	24	C	03/29/2024	14:11	-127.363	48.737	0	35.00	0	9.4620	0	32.2450	0	24.890	0	34.701	0	257.3	4	90.8	4	-1E+10	1	-1E+10	1	-1E+10	1	-1E+10	1	-1E+10	1	-1E+10	1
4902663	24	C	03/29/2024	14:11	-127.363	48.737	0	36.30	0	9.4310	0	32.2540	0	24.902	0	35.990	0	255.1	4	90.0	4	-1E+10	1	-1E+10	1	-1E+10	1	-1E+10	1	-1E+10	1	-1E+10	1
4902663	24	C	03/29/2024	14:11	-127.363	48.737	0	37.40	0	9.3840	0	32.2650	0	24.918	0	37.080	0	254.0	4	89.5	4	-1E+10	1	-1E+10	1	-1E+10	1	-1E+10	1	-1E+10	1	-1E+10	1
4902663	24	C	03/29/2024	14:11	-127.363	48.737	0	38.30	0	9.3610	0	32.2710	0	24.926	0	37.973	0	252.9	4	89.0	4	-1E+10	1	-1E+10	1	-1E+10	1	-1E+10	1	-1E+10	1	-1E+10	1
4902663	24	C	03/29/2024	14:11	-127.363	48.737	0	39.10	0	9.3240	0	32.2810	0	24.940	0	38.766	0	252.1	4	88.7	4	-1E+10	1	-1E+10	1	-1E+10	1	-1E+10	1	-1E+10	1	-1E+10	1
4902663	24	C	03/29/2024	14:11	-127.363	48.737	0	40.10	0	9.2980	0	32.2860	0	24.948	0	39.757	0	251.0	4	88.3	4	-1E+10	1	-1E+10	1	-1E+10	1	-1E+10	1	-1E+10	1	-1E+10	1
4902663	24	C	03/29/2024	14:11	-127.363	48.737	0	41.00	0	9.2760	0	32.2910	0	24.955	0	40.649	0	249.4	4	87.7	4	-1E+10	1	-1E+10	1	-1E+10	1	-1E+10	1	-1E+10	1	-1E+10	1
4902663	24	C	03/29/2024	14:11	-127.363	48.737	0	42.00	0	9.2540	0	32.2980	0	24.964	0	41.641	0	247.2	4	86.9	4	-1E+10	1	-1E+10	1	-1E+10	1	-1E+10	1	-1E+10	1	-1E+10	1
4902663	24	C	03/29/2024	14:11	-127.363	48.737	0	42.90	0	9.2260	0	32.3030	0	24.973	0	42.533	0	244.9	4	86.0	4	-1E+10	1	-1E+10	1	-1E+10	1	-1E+10	1	-1E+10	1	-1E+10	1
4902663	24	C	03/29/2024	14:11	-127.363	48.737	0	43.90	0	9.2210	0	32.3050	0	24.975	0	43.524	0	242.2	4	85.0	4	-1E+10	1	-1E+10	1	-1E+10	1	-1E+10	1	-1E+10	1	-1E+10	1
4902663	24	C	03/29/2024	14:11	-127.363	48.737	0	44.90	0	9.2120	0	32.3100	0	24.980	0	44.515	0	239.0	4	83.9	4	-1E+10	1	-1E+10	1	-1E+10	1	-1E+10	1	-1E+10	1	-1E+10	1
4902663	24	C	03/29/2024	14:11	-127.363	48.737	0	46.00	0	9.1960	0	32.3210	0	24.991	0	45.606	0	235.8	4	82.8	4	-1E+10	1	-1E+10	1	-1E+10	1	-1E+10	1	-1E+10	1	-1E+10	1
4902663	24	C	03/29/2024	14:11	-127.363	48.737	0	46.80	0	9.1380	0	32.3520	0	25.025	0	46.399	0	233.0	4	81.7	4	-1E+10	1	-1E+10	1	-1E+10	1	-1E+10	1	-1E+10	1	-1E+10	1
4902663	24	C	03/29/2024	14:11	-127.363	48.737	0	47.90	0	9.0690	0	32.3800	0	25.057	0	47.489	0	229.0	4	80.2	4	-1E+10	1	-1E+10	1	-1E+10	1	-1E+10	1	-1E+10	1	-1E+10	1
4902663	24	C	03/29/2024	14:11	-127.363	48.737	0	48.70	0	9.0500	0	32.4060	0	25.081	0	48.282	0	225.4	4	78.9	4	-1E+10	1	-1E+10	1	-1E+10	1	-1E+10	1	-1E+10	1	-1E+10	1
4902663	24	C	03/29/2024	14:11	-127.363	48.737	0	49.90	0	9.0960	0	32.4660	0	25.121	0	49.472	0	221.2	4	77.6	4	-1E+10	1	-1E+10	1	-1E+10	1	-1E+10	1	-1E+10	1	-1E+10	1
4902663	24	C	03/29/2024	14:11	-127.363	48.737	0	50.70	0	9.0950	0	32.4870	0	25.137	0	50.265	0	218.4	4	76.6	4	-1E+10	1	-1E+10	1	-1E+10	1	-1E+10	1	-1E+10	1	-1E+10	1
4902663	24	C	03/29/2024	14:11	-127.363	48.737	0	52.00	0	9.0950	0	32.5600	0	25.194	0	51.554	0	215.3	4	75.5	4	-1E+10	1	-1E+10	1	-1E+10	1	-1E+10	1	-1E+10	1	-1E+10	1
4902663	24	C	03/29/2024	14:11	-127.363	48.737	0	53.00	0	9.0720	0	32.6340	0	25.256	0	52.545	0	212.9	4	74.7	4	-1E+10	1	-1E+10	1	-1E+10	1	-1E+10	1	-1E+10	1	-1E+10	1
4902663	24	C	03/29/2024	14:11	-127.363	48.737	0	54.10	0	9.0680	0	32.6530	0	25.271	0	53.635	0	211.2	4	74.1	4	-1E+10	1	-1E+10	1	-1E+10	1	-1E+10	1	-1E+10	1	-1E+10	1
4902663	24	C	03/29/2024	14:11	-127.363	48.737	0	55.20	0	9.0620	0	32.6650	0	25.282	0	54.726	0	209.5	4	73.5	4	-1E+10	1	-1E+10	1	-1E+10	1	-1E+10	1	-1E+10	1	-1E+10	1
4902663	24	C	03/29/2024	14:11	-127.363	48.737	0	56.10	0	9.0580	0	32.6720	0	25.288	0	55.618	0	208.0	4	73.0	4	-1E+10	1	-1E+10	1	-1E+10	1	-1E+10	1	-1E+10	1	-1E+10	1
4902663	24	C	03/29/2024	14:11	-127.363	48.737	0	57.30	0	9.0540	0	32.6830	0	25.297	0	56.807	0	206.2	4	72.3	4	-1E+10	1	-1E+10	1	-1E+10	1	-1E+10	1	-1E+10	1	-1E+10	1
4902663	24	C	03/29/2024	14:11	-127.363	48.737	0	58.40	0	9.0420	0	32.7000	0	25.312	0	57.898	0	204.2	4	71.6	4	-1E+10	1	-1E+10	1	-1E+10	1	-1E+10	1	-1E+10	1	-1E+10	1
4902663	24	C	03/29/2024	14:11	-127.363	48.737	0	59.20	0	9.0280	0	32.7100	0	25.322	0	58.691	0	202.4	4	71.0	4	-1E+10	1	-1E+10	1	-1E+10	1	-1E+10	1	-1E+10	1	-1E+10	1
4902663	24	C	03/29/2024	14:11	-127.363	48.737	0	60.90	0	9.0140	0	32.7320	0	25.342	0	60.376	0	198.6	4	69.6	4	-1E+10	1	-1E+10	1	-1E+10	1	-1E+10	1	-1E+10	1	-1E+10	1
4902663	24	C	03/29/2024	14:11	-127.363	48.737	0	62.10	0	9.0150	0	32.7460	0	25.352	0	61.565	0	195.0	4	68.4	4	-1E+10	1	-1E+10	1	-1E+10	1	-1E+10	1	-1E+10	1	-1E+10	1
4902663	24	C	03/29/2024	14:11	-127.363	48.737	0	63.20	0	8.9020	0	32.8010	0	25.413	0	62.656	0	191.7	4	67.1	4	-1E+10	1	-1E+10	1	-1E+10	1	-1E+10	1	-1E+10	1	-1E+10	1
4902663	24	C	03/29/2024	14:11	-127.363	48.737	0	63.90	0	8.7960	0	32.8530	0	25.470	0	63.350	0	189.5	4	66.2	4	-1E+10	1	-1E+10	1	-1E+10	1	-1E+10	1	-1E+10	1	-1E+10	1
4902663	24	C	03/29/2024	14:11	-127.363	48.737	0	65.00	0	8.7530	0	32.8760	0	25.495	0	64.440	0	186.3	4	65.0	4	-1E+10	1	-1E+10	1	-1E+10	1	-1E+10	1	-1E+10	1	-1E+10	1
4902663	24	C	03/29/2024	14:11	-127.363	48.737	0	66.10	0	8.7260	0	32.8930	0	25.512	0	65.530	0	183.1	4	63.9	4	-1E+10	1	-1E+10	1	-1E+10	1	-1E+10	1	-1E+10	1	-1E+10	1
4902663	24	C	03/29/2024	14:11	-127.363	48.737	0	66.90	0	8.7060	0	32.9130	0	25.531	0	66.323	0	180.7	4	63.0	4	-1E+10	1	-1E+10	1	-1E+10	1	-1E+10	1	-1E+10	1	-1E+10	1
4902663	24	C	03/29/2024	14:11	-127.363	48.737	0	68.00	0	8.6650	0	32.9340	0	25.554	0	67.414	0	177.0	4	61.7	4	-1E+10	1	-1E+10	1	-1E+10	1	-1E+10	1	-1E+10	1	-1E+10	1
4902663	24	C	03/29/2024	14:11	-127.363	48.737	0	69.20	0	8.5360	0	33.0140	0	25.636	0	68.603	0	173.8	4	60.4	4	-1E+10	1	-1E+10	1	-1E+10	1	-1E+10	1	-1E+10	1	-1E+10	1
4902663	24	C	03/29/2024	14:11	-127.363	48.737	0	69.90	0	8.3520	0	33.0540	0	25.695	0	69.297	0	172.3	4	59.7	4	-1E+10	1	-1E+10	1	-1E+10	1	-1E+10	1	-1E+10	1	-1E+10	1
4902663	24	C	03/29/2024	14:11	-127.363	48.737	0	70.90	0	8.2320	0	33.0730	0	25.728	0	70.288	0	170.0	4	58.7	4	-1E+10	1	-1E+10	1	-1E+10	1	-1E+10	1	-1E+10	1	-1E+10	1
4902663	24	C	03/29/2024	14:11	-127.363	48.737	0	72.30	0	8.2090	0	33.1010	0	25.753	0	71.676	0	165.9	4	57.3	4	-1E+10	1	-1E+10	1	-1E+10	1	-1E+10	1	-1E+10	1	-1E+10	1
4902663	24	C	03/29/2024	14:11	-127.363	48.737	0	73.00	0	8.1910	0	33.1090	0	25.762	0	72.370	0	163.5	4	56.5	4	-1E+10	1	-1E+10	1	-1E+10	1	-1E+10	1	-1E+10	1	-1E+10	1
4902663	24	C	03/29/2024	14:11	-127.363	48.737	0	74.10	0	8.1340	0	33.1670	0	25.816	0	73.460	0	159.9	4	55.2	4	-1E+10	1	-1E+10	1	-1E+10	1	-1E+10	1	-1E+10	1	-1E+10	1
4902663	24	C	03/29/2024	14:11	-127.363	48.737	0	74.90	0	8.1000	0	33.2140	0	25.858	0	74.253	0	157.3	4	54.2	4	-1E+10	1	-1E+10	1	-1E+10	1	-1E+10	1	-1E+10	1	-1E+10	1
4902663	24	C	03/29/2024	14:11	-127.363	48.737	0	75.90	0	8.1310	0	33.2310	0	25.867	0	75.244	0	154.5	4	53.3	4	-1E+10	1	-1E+10	1	-1E+10	1	-1E+10	1	-1E+10	1	-1E+10	1
4902663	24	C	03/29/2024	14:11	-127.363	48.737	0	76.90	0	8.1060	0	33.2540	0	25.889	0	76.235	0	151.9	4	52.4	4	-1E+10	1	-1E+10	1	-1E+10	1	-1E+10	1	-1E+10	1	-1E+10	1
4902663	24	C	03/29/2024	14:11	-127.363	48.737	0	77.90	0	8.1450	0	33.2890	0	25.910	0	77.227	0	149.7	4	51.7	4	-1E+10	1	-1E+10	1	-1E+10	1	-1E+10	1	-1E+10	1	-1E+10	1
4902663	24	C	03/29/2024	14:11	-127.363	48.737	0	79.00	0	8.2690	0	33.3460	0	25.937	0	78.317	0	147.6	4	51.1	4	-1E+10	1	-1E+10	1	-1E+10	1	-1E+10	1	-1E+10	1	-1E+10	1
4902663	24	C	03/29/2024	14:11	-127.363	48.737	0	79.70	0	8.2950	0	33.3530	0	25.938	0	79.011	0	146.5	4	50.8	4	-1E+10	1	-1E+10	1	-1E+10	1	-1E+10	1	-1E+10	1	-1E+10	1
4902663	24	C	03/29/2024	14:11	-127.363	48.737	0	80.80	0	8.3310	0	33.3880	0	25.960	0	80.101	0	145.0	4	50.3	4	-1E+10	1	-1E+10	1	-1E+10	1	-1E+10	1	-1E+10	1	-1E+10	1
4902663	24	C	03/29/2024	14:11	-127.363	48.737	0	82.00	0	8.3680	0	33.4100	0	25.972	0	81.290	0	143.6	4	49.9	4	-1E+10	1	-1E+10	1	-1E+10	1	-1E+10	1	-1E+10	1	-1E+10	1
4902663	24	C	03/29/2024	14:11	-127.363	48.737	0	82.80	0	8.3760	0	33.4120	0	25.972	0	82.083	0	142.5	4	49.5	4	-1E+10	1	-1E+10	1	-1E+10	1	-1E+10	1	-1E+10	1	-1E+10	1
4902663	24	C	03/29/2024	14:11	-127.363	48.737	0	84.00	0	8.4760	0	33.4480	0	25.986	0	83.273	0	144.9	4	50.5	4	-1E+10	1	-1E+10	1	-1E+10	1	-1E+10	1	-1E+10	1	-1E+10	1
4902663	24	C	03/29/2024	14:11	-127.363	48.737	0	85.20	0	8.4910	0	33.4570	0	25.990	0	84.462	0	143.6	4	50.0	4	-1E+10	1	-1E+10	1	-1E+10	1	-1E+10	1	-1E+10	1	-1E+10	1
4902663	24	C	03/29/2024	14:11	-127.363	48.737	0	86.10	0	8.4900	0	33.4660	0	25.998	0	85.354	0	142.9	4	49.8	4	-1E+10	1	-1E+10	1	-1E+10	1	-1E+10	1	-1E+10	1	-1E+10	1
4902663	24	C	03/29/2024	14:11	-127.363	48.737	0	87.00	0	8.4830	0	33.4730	0	26.004	0	86.246	0	142.1	4	49.5	4	-1E+10	1	-1E+10	1	-1E+10	1	-1E+10	1	-1E+10	1	-1E+10	1
4902663	24	C	03/29/2024	14:11	-127.363	48.737	0	87.80	0	8.4740	0	33.4780	0	26.009	0	87.039	0	141.2	4	49.2	4	-1E+10	1	-1E+10	1	-1E+10	1	-1E+10	1	-1E+10	1	-1E+10	1
4902663	24	C	03/29/2024	14:11	-127.363	48.737	0	88.70	0	8.4730	0	33.4790	0	26.010	0	87.931	0	140.2	4	48.8	4	-1E+10	1	-1E+10	1	-1E+10	1	-1E+10	1	-1E+10	1	-1E+10	1
4902663	24	C	03/29/2024	14:11	-127.363	48.737	0	89.60	0	8.4710	0	33.4810	0	26.012	0	88.823	0	139.2	4	48.5	4	-1E+10	1	-1E+10	1	-1E+10	1	-1E+10	1	-1E+10	1	-1E+10	1
4902663	24	C	03/29/2024	14:11	-127.363	48.737	0	90.90	0	8.4290	0	33.5260	0	26.054	0	90.111	0	138.2	4	48.1	4	-1E+10	1	-1E+10	1	-1E+10	1	-1E+10	1	-1E+10	1	-1E+10	1
4902663	24	C	03/29/2024	14:11	-127.363	48.737	0	92.40	0	8.4170	0	33.5430	0	26.069	0	91.598	0	137.3	4	47.8	4	-1E+10	1	-1E+10	1	-1E+10	1	-1E+10	1	-1E+10	1	-1E+10	1
4902663	24	C	03/29/2024	14:11	-127.363	48.737	0	93.30	0	8.4120	0	33.5490	0	26.075	0	92.490	0	136.6	4	47.5	4	-1E+10	1	-1E+10	1	-1E+10	1	-1E+10	1	-1E+10	1	-1E+10	1
4902663	24	C	03/29/2024	14:11	-127.363	48.737	0	94.20	0	8.4090	0	33.5520	0	26.077	0	93.382	0	135.9	4	47.3	4	-1E+10	1	-1E+10	1	-1E+10	1	-1E+10	1	-1E+10	1	-1E+10	1
4902663	24	C	03/29/2024	14:11	-127.363	48.737	0	95.20	0	8.3980	0	33.5620	0	26.087	0	94.373	0	135.2	4	47.0	4	-1E+10	1	-1E+10	1	-1E+10	1	-1E+10	1	-1E+10	1	-1E+10	1
4902663	24	C	03/29/2024	14:11	-127.363	48.737	0	96.10	0	8.3820	0	33.5640	0	26.091	0	95.265	0	134.5	4	46.8	4	-1E+10	1	-1E+10	1	-1E+10	1	-1E+10	1	-1E+10	1	-1E+10	1
4902663	24	C	03/29/2024	14:11	-127.363	48.737	0	97.00	0	8.3730	0	33.5610	0	26.090	0	96.157	0	133.6	4	46.5	4	-1E+10	1	-1E+10	1	-1E+10	1	-1E+10	1	-1E+10	1	-1E+10	1
4902663	24	C	03/29/2024	14:11	-127.363	48.737	0	97.90	0	8.3650	0	33.5690	0	26.097	0	97.049	0	133.0	4	46.2	4	-1E+10	1	-1E+10	1	-1E+10	1	-1E+10	1	-1E+10	1	-1E+10	1
4902663	24	C	03/29/2024	14:11	-127.363	48.737	0	98.80	0	8.3500	0	33.5760	0	26.105	0	97.941	0	132.2	4	46.0	4	-1E+10	1	-1E+10	1	-1E+10	1	-1E+10	1	-1E+10	1	-1E+10	1
4902663	24	C	03/29/2024	14:11	-127.363	48.737	0	99.80	0	8.3390	0	33.5700	0	26.102	0	98.932	0	131.4	4	45.7	4	-1E+10	1	-1E+10	1	-1E+10	1	-1E+10	1	-1E+10	1	-1E+10	1
4902663	24	C	03/29/2024	14:11	-127.363	48.737	0	100.70	0	8.2620	0	33.5800	0	26.122	0	99.824	0	130.5	4	45.3	4	-1E+10	1	-1E+10	1	-1E+10	1	-1E+10	1	-1E+10	1	-1E+10	1
4902663	24	C	03/29/2024	14:11	-127.363	48.737	0	101.70	0	8.2470	0	33.5900	0	26.132	0	100.815	0	129.6	4	45.0	4	-1E+10	1	-1E+10	1	-1E+10	1	-1E+10	1	-1E+10	1	-1E+10	1
4902663	24	C	03/29/2024	14:11	-127.363	48.737	0	102.60	0	8.2520	0	33.6070	0	26.144	0	101.707	0	128.7	4	44.7	4	-1E+10	1	-1E+10	1	-1E+10	1	-1E+10	1	-1E+10	1	-1E+10	1
4902663	24	C	03/29/2024	14:11	-127.363	48.737	0	103.90	0	8.2540	0	33.6200	0	26.154	0	102.995	0	127.4	4	44.2	4	-1E+10	1	-1E+10	1	-1E+10	1	-1E+10	1	-1E+10	1	-1E+10	1
4902663	24	C	03/29/2024	14:11	-127.363	48.737	0	105.40	0	8.2330	0	33.6450	0	26.177	0	104.482	0	126.2	4	43.8	4	-1E+10	1	-1E+10	1	-1E+10	1	-1E+10	1	-1E+10	1	-1E+10	1
4902663	24	C	03/29/2024	14:11	-127.363	48.737	0	106.30	0	8.1990	0	33.6470	0	26.184	0	105.374	0	125.3	4	43.4	4	-1E+10	1	-1E+10	1	-1E+10	1	-1E+10	1	-1E+10	1	-1E+10	1
4902663	24	C	03/29/2024	14:11	-127.363	48.737	0	107.20	0	8.2250	0	33.6720	0	26.199	0	106.266	0	124.6	4	43.2	4	-1E+10	1	-1E+10	1	-1E+10	1	-1E+10	1	-1E+10	1	-1E+10	1
4902663	24	C	03/29/2024	14:11	-127.363	48.737	0	108.20	0	8.2370	0	33.6900	0	26.212	0	107.257	0	124.1	4	43.1	4	-1E+10	1	-1E+10	1	-1E+10	1	-1E+10	1	-1E+10	1	-1E+10	1
4902663	24	C	03/29/2024	14:11	-127.363	48.737	0	109.10	0	8.2360	0	33.6900	0	26.212	0	108.149	0	123.7	4	42.9	4	-1E+10	1	-1E+10	1	-1E+10	1	-1E+10	1	-1E+10	1	-1E+10	1
4902663	24	C	03/29/2024	14:11	-127.363	48.737	0	110.00	0	8.2300	0	33.6930	0	26.215	0	109.040	0	123.2	4	42.8	4	-1E+10	1	-1E+10	1	-1E+10	1	-1E+10	1	-1E+10	1	-1E+10	1
4902663	24	C	03/29/2024	14:11	-127.363	48.737	0	111.00	0	8.2060	0	33.7040	0	26.227	0	110.032	0	122.8	4	42.6	4	-1E+10	1	-1E+10	1	-1E+10	1	-1E+10	1	-1E+10	1	-1E+10	1
4902663	24	C	03/29/2024	14:11	-127.363	48.737	0	111.90	0	8.1680	0	33.7200	0	26.246	0	110.923	0	122.3	4	42.4	4	-1E+10	1	-1E+10	1	-1E+10	1	-1E+10	1	-1E+10	1	-1E+10	1
4902663	24	C	03/29/2024	14:11	-127.363	48.737	0	112.80	0	8.1630	0	33.7230	0	26.249	0	111.815	0	121.9	4	42.3	4	-1E+10	1	-1E+10	1	-1E+10	1	-1E+10	1	-1E+10	1	-1E+10	1
4902663	24	C	03/29/2024	14:11	-127.363	48.737	0	113.70	0	8.1160	0	33.7360	0	26.266	0	112.707	0	121.5	4	42.1	4	-1E+10	1	-1E+10	1	-1E+10	1	-1E+10	1	-1E+10	1	-1E+10	1
4902663	24	C	03/29/2024	14:11	-127.363	48.737	0	114.70	0	8.0930	0	33.7330	0	26.267	0	113.698	0	120.9	4	41.8	4	-1E+10	1	-1E+10	1	-1E+10	1	-1E+10	1	-1E+10	1	-1E+10	1
4902663	24	C	03/29/2024	14:11	-127.363	48.737	0	115.60	0	8.0910	0	33.7320	0	26.267	0	114.590	0	120.1	4	41.6	4	-1E+10	1	-1E+10	1	-1E+10	1	-1E+10	1	-1E+10	1	-1E+10	1
4902663	24	C	03/29/2024	14:11	-127.363	48.737	0	116.90	0	8.0890	0	33.7390	0	26.272	0	115.878	0	118.6	4	41.1	4	-1E+10	1	-1E+10	1	-1E+10	1	-1E+10	1	-1E+10	1	-1E+10	1
4902663	24	C	03/29/2024	14:11	-127.363	48.737	0	118.30	0	8.1060	0	33.7560	0	26.283	0	117.266	0	117.4	4	40.7	4	-1E+10	1	-1E+10	1	-1E+10	1	-1E+10	1	-1E+10	1	-1E+10	1
4902663	24	C	03/29/2024	14:11	-127.363	48.737	0	119.10	0	8.1020	0	33.7580	0	26.285	0	118.059	0	116.7	4	40.4	4	-1E+10	1	-1E+10	1	-1E+10	1	-1E+10	1	-1E+10	1	-1E+10	1
4902663	24	C	03/29/2024	14:11	-127.363	48.737	0	120.00	0	8.0910	0	33.7680	0	26.295	0	118.950	0	116.0	4	40.2	4	-1E+10	1	-1E+10	1	-1E+10	1	-1E+10	1	-1E+10	1	-1E+10	1
4902663	24	C	03/29/2024	14:11	-127.363	48.737	0	120.90	0	8.0370	0	33.7820	0	26.314	0	119.842	0	115.3	4	39.9	4	-1E+10	1	-1E+10	1	-1E+10	1	-1E+10	1	-1E+10	1	-1E+10	1
4902663	24	C	03/29/2024	14:11	-127.363	48.737	0	121.80	0	8.0140	0	33.7910	0	26.324	0	120.734	0	114.7	4	39.6	4	-1E+10	1	-1E+10	1	-1E+10	1	-1E+10	1	-1E+10	1	-1E+10	1
4902663	24	C	03/29/2024	14:11	-127.363	48.737	0	122.70	0	8.0120	0	33.7970	0	26.329	0	121.626	0	114.1	4	39.4	4	-1E+10	1	-1E+10	1	-1E+10	1	-1E+10	1	-1E+10	1	-1E+10	1
4902663	24	C	03/29/2024	14:11	-127.363	48.737	0	123.60	0	8.0140	0	33.7980	0	26.330	0	122.518	0	113.6	4	39.3	4	-1E+10	1	-1E+10	1	-1E+10	1	-1E+10	1	-1E+10	1	-1E+10	1
4902663	24	C	03/29/2024	14:11	-127.363	48.737	0	124.90	0	7.9900	0	33.8140	0	26.346	0	123.806	0	113.1	4	39.1	4	-1E+10	1	-1E+10	1	-1E+10	1	-1E+10	1	-1E+10	1	-1E+10	1
4902663	24	C	03/29/2024	14:11	-127.363	48.737	0	126.30	0	7.9390	0	33.8270	0	26.364	0	125.193	0	112.8	4	38.9	4	-1E+10	1	-1E+10	1	-1E+10	1	-1E+10	1	-1E+10	1	-1E+10	1
4902663	24	C	03/29/2024	14:11	-127.363	48.737	0	127.20	0	7.9280	0	33.8290	0	26.367	0	126.085	0	112.6	4	38.8	4	-1E+10	1	-1E+10	1	-1E+10	1	-1E+10	1	-1E+10	1	-1E+10	1
4902663	24	C	03/29/2024	14:11	-127.363	48.737	0	128.00	0	7.9230	0	33.8290	0	26.368	0	126.878	0	112.4	4	38.8	4	-1E+10	1	-1E+10	1	-1E+10	1	-1E+10	1	-1E+10	1	-1E+10	1
4902663	24	C	03/29/2024	14:11	-127.363	48.737	0	128.90	0	7.9220	0	33.8300	0	26.369	0	127.770	0	112.1	4	38.7	4	-1E+10	1	-1E+10	1	-1E+10	1	-1E+10	1	-1E+10	1	-1E+10	1
4902663	24	C	03/29/2024	14:11	-127.363	48.737	0	129.80	0	7.9080	0	33.8340	0	26.374	0	128.662	0	112.0	4	38.6	4	-1E+10	1	-1E+10	1	-1E+10	1	-1E+10	1	-1E+10	1	-1E+10	1
4902663	24	C	03/29/2024	14:11	-127.363	48.737	0	130.60	0	7.9020	0	33.8360	0	26.376	0	129.454	0	111.8	4	38.6	4	-1E+10	1	-1E+10	1	-1E+10	1	-1E+10	1	-1E+10	1	-1E+10	1
4902663	24	C	03/29/2024	14:11	-127.363	48.737	0	131.90	0	7.8890	0	33.8390	0	26.381	0	130.743	0	111.5	4	38.5	4	-1E+10	1	-1E+10	1	-1E+10	1	-1E+10	1	-1E+10	1	-1E+10	1
4902663	24	C	03/29/2024	14:11	-127.363	48.737	0	133.30	0	7.8700	0	33.8400	0	26.384	0	132.130	0	111.3	4	38.3	4	-1E+10	1	-1E+10	1	-1E+10	1	-1E+10	1	-1E+10	1	-1E+10	1
4902663	24	C	03/29/2024	14:11	-127.363	48.737	0	134.10	0	7.8650	0	33.8410	0	26.386	0	132.923	0	111.0	4	38.3	4	-1E+10	1	-1E+10	1	-1E+10	1	-1E+10	1	-1E+10	1	-1E+10	1
4902663	24	C	03/29/2024	14:11	-127.363	48.737	0	135.00	0	7.8450	0	33.8440	0	26.391	0	133.814	0	110.8	4	38.2	4	-1E+10	1	-1E+10	1	-1E+10	1	-1E+10	1	-1E+10	1	-1E+10	1
4902663	24	C	03/29/2024	14:11	-127.363	48.737	0	135.90	0	7.8370	0	33.8460	0	26.394	0	134.706	0	110.5	4	38.0	4	-1E+10	1	-1E+10	1	-1E+10	1	-1E+10	1	-1E+10	1	-1E+10	1
4902663	24	C	03/29/2024	14:11	-127.363	48.737	0	136.80	0	7.8380	0	33.8490	0	26.396	0	135.598	0	110.2	4	37.9	4	-1E+10	1	-1E+10	1	-1E+10	1	-1E+10	1	-1E+10	1	-1E+10	1
4902663	24	C	03/29/2024	14:11	-127.363	48.737	0	137.70	0	7.8370	0	33.8500	0	26.397	0	136.490	0	110.0	4	37.9	4	-1E+10	1	-1E+10	1	-1E+10	1	-1E+10	1	-1E+10	1	-1E+10	1
4902663	24	C	03/29/2024	14:11	-127.363	48.737	0	138.60	0	7.8370	0	33.8510	0	26.398	0	137.382	0	109.7	4	37.8	4	-1E+10	1	-1E+10	1	-1E+10	1	-1E+10	1	-1E+10	1	-1E+10	1
4902663	24	C	03/29/2024	14:11	-127.363	48.737	0	139.90	0	7.8320	0	33.8520	0	26.399	0	138.670	0	109.2	4	37.6	4	-1E+10	1	-1E+10	1	-1E+10	1	-1E+10	1	-1E+10	1	-1E+10	1
4902663	24	C	03/29/2024	14:11	-127.363	48.737	0	141.30	0	7.8160	0	33.8560	0	26.405	0	140.057	0	108.7	4	37.4	4	-1E+10	1	-1E+10	1	-1E+10	1	-1E+10	1	-1E+10	1	-1E+10	1
4902663	24	C	03/29/2024	14:11	-127.363	48.737	0	142.20	0	7.8020	0	33.8580	0	26.408	0	140.949	0	108.3	4	37.3	4	-1E+10	1	-1E+10	1	-1E+10	1	-1E+10	1	-1E+10	1	-1E+10	1
4902663	24	C	03/29/2024	14:11	-127.363	48.737	0	143.10	0	7.7920	0	33.8610	0	26.412	0	141.840	0	108.0	4	37.2	4	-1E+10	1	-1E+10	1	-1E+10	1	-1E+10	1	-1E+10	1	-1E+10	1
4902663	24	C	03/29/2024	14:11	-127.363	48.737	0	144.00	0	7.7870	0	33.8620	0	26.414	0	142.732	0	107.6	4	37.0	4	-1E+10	1	-1E+10	1	-1E+10	1	-1E+10	1	-1E+10	1	-1E+10	1
4902663	24	C	03/29/2024	14:11	-127.363	48.737	0	144.90	0	7.7850	0	33.8630	0	26.415	0	143.624	0	107.3	4	36.9	4	-1E+10	1	-1E+10	1	-1E+10	1	-1E+10	1	-1E+10	1	-1E+10	1
4902663	24	C	03/29/2024	14:11	-127.363	48.737	0	145.80	0	7.7840	0	33.8630	0	26.415	0	144.516	0	107.0	4	36.8	4	-1E+10	1	-1E+10	1	-1E+10	1	-1E+10	1	-1E+10	1	-1E+10	1
4902663	24	C	03/29/2024	14:11	-127.363	48.737	0	146.80	0	7.7680	0	33.8770	0	26.428	0	145.507	0	106.9	4	36.8	4	-1E+10	1	-1E+10	1	-1E+10	1	-1E+10	1	-1E+10	1	-1E+10	1
4902663	24	C	03/29/2024	14:11	-127.363	48.737	0	147.80	0	7.7540	0	33.8760	0	26.429	0	146.497	0	106.9	4	36.7	4	-1E+10	1	-1E+10	1	-1E+10	1	-1E+10	1	-1E+10	1	-1E+10	1
4902663	24	C	03/29/2024	14:11	-127.363	48.737	0	148.80	0	7.7480	0	33.8780	0	26.432	0	147.488	0	106.8	4	36.7	4	-1E+10	1	-1E+10	1	-1E+10	1	-1E+10	1	-1E+10	1	-1E+10	1
4902663	24	C	03/29/2024	14:11	-127.363	48.737	0	149.80	0	7.7270	0	33.8770	0	26.434	0	148.479	0	106.7	4	36.7	4	-1E+10	1	-1E+10	1	-1E+10	1	-1E+10	1	-1E+10	1	-1E+10	1
4902663	24	C	03/29/2024	14:11	-127.363	48.737	0	150.80	0	7.7290	0	33.8790	0	26.435	0	149.470	0	106.6	4	36.6	4	-1E+10	1	-1E+10	1	-1E+10	1	-1E+10	1	-1E+10	1	-1E+10	1
4902663	24	C	03/29/2024	14:11	-127.363	48.737	0	151.80	0	7.7050	0	33.8900	0	26.448	0	150.461	0	106.6	4	36.6	4	-1E+10	1	-1E+10	1	-1E+10	1	-1E+10	1	-1E+10	1	-1E+10	1
4902663	24	C	03/29/2024	14:11	-127.363	48.737	0	152.70	0	7.6790	0	33.8820	0	26.445	0	151.352	0	106.4	4	36.5	4	-1E+10	1	-1E+10	1	-1E+10	1	-1E+10	1	-1E+10	1	-1E+10	1
4902663	24	C	03/29/2024	14:11	-127.363	48.737	0	153.70	0	7.6780	0	33.8820	0	26.445	0	152.343	0	106.3	4	36.5	4	-1E+10	1	-1E+10	1	-1E+10	1	-1E+10	1	-1E+10	1	-1E+10	1
4902663	24	C	03/29/2024	14:11	-127.363	48.737	0	154.70	0	7.6550	0	33.8820	0	26.449	0	153.334	0	106.1	4	36.4	4	-1E+10	1	-1E+10	1	-1E+10	1	-1E+10	1	-1E+10	1	-1E+10	1
4902663	24	C	03/29/2024	14:11	-127.363	48.737	0	155.80	0	7.6400	0	33.8880	0	26.455	0	154.424	0	106.0	4	36.3	4	-1E+10	1	-1E+10	1	-1E+10	1	-1E+10	1	-1E+10	1	-1E+10	1
4902663	24	C	03/29/2024	14:11	-127.363	48.737	0	156.80	0	7.6260	0	33.8890	0	26.458	0	155.415	0	106.1	4	36.4	4	-1E+10	1	-1E+10	1	-1E+10	1	-1E+10	1	-1E+10	1	-1E+10	1
4902663	24	C	03/29/2024	14:11	-127.363	48.737	0	157.80	0	7.6110	0	33.8900	0	26.461	0	156.405	0	106.3	4	36.4	4	-1E+10	1	-1E+10	1	-1E+10	1	-1E+10	1	-1E+10	1	-1E+10	1
4902663	24	C	03/29/2024	14:11	-127.363	48.737	0	158.80	0	7.5810	0	33.8940	0	26.469	0	157.396	0	106.4	4	36.4	4	-1E+10	1	-1E+10	1	-1E+10	1	-1E+10	1	-1E+10	1	-1E+10	1
4902663	24	C	03/29/2024	14:11	-127.363	48.737	0	159.80	0	7.5580	0	33.8900	0	26.469	0	158.387	0	106.5	4	36.5	4	-1E+10	1	-1E+10	1	-1E+10	1	-1E+10	1	-1E+10	1	-1E+10	1
4902663	24	C	03/29/2024	14:11	-127.363	48.737	0	160.80	0	7.5510	0	33.8910	0	26.471	0	159.378	0	106.6	4	36.5	4	-1E+10	1	-1E+10	1	-1E+10	1	-1E+10	1	-1E+10	1	-1E+10	1
4902663	24	C	03/29/2024	14:11	-127.363	48.737	0	161.80	0	7.5420	0	33.8910	0	26.472	0	160.369	0	106.7	4	36.5	4	-1E+10	1	-1E+10	1	-1E+10	1	-1E+10	1	-1E+10	1	-1E+10	1
4902663	24	C	03/29/2024	14:11	-127.363	48.737	0	162.80	0	7.5260	0	33.8930	0	26.476	0	161.359	0	106.8	4	36.5	4	-1E+10	1	-1E+10	1	-1E+10	1	-1E+10	1	-1E+10	1	-1E+10	1
4902663	24	C	03/29/2024	14:11	-127.363	48.737	0	163.80	0	7.5140	0	33.8900	0	26.475	0	162.350	0	106.9	4	36.6	4	-1E+10	1	-1E+10	1	-1E+10	1	-1E+10	1	-1E+10	1	-1E+10	1
4902663	24	C	03/29/2024	14:11	-127.363	48.737	0	164.80	0	7.4600	0	33.8860	0	26.480	0	163.341	0	106.9	4	36.5	4	-1E+10	1	-1E+10	1	-1E+10	1	-1E+10	1	-1E+10	1	-1E+10	1
4902663	24	C	03/29/2024	14:11	-127.363	48.737	0	165.80	0	7.4510	0	33.8860	0	26.481	0	164.332	0	106.7	4	36.4	4	-1E+10	1	-1E+10	1	-1E+10	1	-1E+10	1	-1E+10	1	-1E+10	1
4902663	24	C	03/29/2024	14:11	-127.363	48.737	0	166.80	0	7.4540	0	33.8860	0	26.480	0	165.322	0	106.4	4	36.3	4	-1E+10	1	-1E+10	1	-1E+10	1	-1E+10	1	-1E+10	1	-1E+10	1
4902663	24	C	03/29/2024	14:11	-127.363	48.737	0	167.80	0	7.4470	0	33.8900	0	26.485	0	166.313	0	106.2	4	36.3	4	-1E+10	1	-1E+10	1	-1E+10	1	-1E+10	1	-1E+10	1	-1E+10	1
4902663	24	C	03/29/2024	14:11	-127.363	48.737	0	168.90	0	7.4210	0	33.8830	0	26.483	0	167.403	0	105.8	4	36.1	4	-1E+10	1	-1E+10	1	-1E+10	1	-1E+10	1	-1E+10	1	-1E+10	1
4902663	24	C	03/29/2024	14:11	-127.363	48.737	0	169.90	0	7.3600	0	33.8870	0	26.495	0	168.394	0	105.3	4	35.9	4	-1E+10	1	-1E+10	1	-1E+10	1	-1E+10	1	-1E+10	1	-1E+10	1
4902663	24	C	03/29/2024	14:11	-127.363	48.737	0	170.90	0	7.3250	0	33.8820	0	26.496	0	169.384	0	104.5	4	35.6	4	-1E+10	1	-1E+10	1	-1E+10	1	-1E+10	1	-1E+10	1	-1E+10	1
4902663	24	C	03/29/2024	14:11	-127.363	48.737	0	172.00	0	7.3260	0	33.8810	0	26.495	0	170.474	0	103.5	4	35.3	4	-1E+10	1	-1E+10	1	-1E+10	1	-1E+10	1	-1E+10	1	-1E+10	1
4902663	24	C	03/29/2024	14:11	-127.363	48.737	0	173.00	0	7.3570	0	33.8820	0	26.491	0	171.465	0	102.8	4	35.0	4	-1E+10	1	-1E+10	1	-1E+10	1	-1E+10	1	-1E+10	1	-1E+10	1
4902663	24	C	03/29/2024	14:11	-127.363	48.737	0	174.00	0	7.3730	0	33.8990	0	26.502	0	172.456	0	102.2	4	34.8	4	-1E+10	1	-1E+10	1	-1E+10	1	-1E+10	1	-1E+10	1	-1E+10	1
4902663	24	C	03/29/2024	14:11	-127.363	48.737	0	175.10	0	7.3890	0	33.9050	0	26.505	0	173.545	0	101.9	4	34.7	4	-1E+10	1	-1E+10	1	-1E+10	1	-1E+10	1	-1E+10	1	-1E+10	1
4902663	24	C	03/29/2024	14:11	-127.363	48.737	0	176.10	0	7.3660	0	33.9050	0	26.508	0	174.536	0	101.6	4	34.6	4	-1E+10	1	-1E+10	1	-1E+10	1	-1E+10	1	-1E+10	1	-1E+10	1
4902663	24	C	03/29/2024	14:11	-127.363	48.737	0	177.10	0	7.3370	0	33.9010	0	26.509	0	175.527	0	101.2	4	34.5	4	-1E+10	1	-1E+10	1	-1E+10	1	-1E+10	1	-1E+10	1	-1E+10	1
4902663	24	C	03/29/2024	14:11	-127.363	48.737	0	178.20	0	7.3270	0	33.9090	0	26.517	0	176.616	0	100.9	4	34.4	4	-1E+10	1	-1E+10	1	-1E+10	1	-1E+10	1	-1E+10	1	-1E+10	1
4902663	24	C	03/29/2024	14:11	-127.363	48.737	0	179.20	0	7.3220	0	33.9090	0	26.517	0	177.607	0	100.8	4	34.3	4	-1E+10	1	-1E+10	1	-1E+10	1	-1E+10	1	-1E+10	1	-1E+10	1
4902663	24	C	03/29/2024	14:11	-127.363	48.737	0	180.20	0	7.2970	0	33.9090	0	26.521	0	178.598	0	100.6	4	34.2	4	-1E+10	1	-1E+10	1	-1E+10	1	-1E+10	1	-1E+10	1	-1E+10	1
4902663	24	C	03/29/2024	14:11	-127.363	48.737	0	181.20	0	7.2630	0	33.9110	0	26.527	0	179.588	0	100.4	4	34.1	4	-1E+10	1	-1E+10	1	-1E+10	1	-1E+10	1	-1E+10	1	-1E+10	1
4902663	24	C	03/29/2024	14:11	-127.363	48.737	0	182.30	0	7.2210	0	33.9100	0	26.532	0	180.678	0	100.2	4	34.0	4	-1E+10	1	-1E+10	1	-1E+10	1	-1E+10	1	-1E+10	1	-1E+10	1
4902663	24	C	03/29/2024	14:11	-127.363	48.737	0	183.30	0	7.1920	0	33.9060	0	26.533	0	181.669	0	99.9	4	33.9	4	-1E+10	1	-1E+10	1	-1E+10	1	-1E+10	1	-1E+10	1	-1E+10	1
4902663	24	C	03/29/2024	14:11	-127.363	48.737	0	184.30	0	7.1780	0	33.9060	0	26.535	0	182.660	0	99.3	4	33.7	4	-1E+10	1	-1E+10	1	-1E+10	1	-1E+10	1	-1E+10	1	-1E+10	1
4902663	24	C	03/29/2024	14:11	-127.363	48.737	0	185.40	0	7.1460	0	33.9050	0	26.539	0	183.749	0	98.7	4	33.5	4	-1E+10	1	-1E+10	1	-1E+10	1	-1E+10	1	-1E+10	1	-1E+10	1
4902663	24	C	03/29/2024	14:11	-127.363	48.737	0	186.40	0	7.1280	0	33.9080	0	26.544	0	184.740	0	98.4	4	33.4	4	-1E+10	1	-1E+10	1	-1E+10	1	-1E+10	1	-1E+10	1	-1E+10	1
4902663	24	C	03/29/2024	14:11	-127.363	48.737	0	187.50	0	7.1380	0	33.9130	0	26.546	0	185.830	0	98.1	4	33.3	4	-1E+10	1	-1E+10	1	-1E+10	1	-1E+10	1	-1E+10	1	-1E+10	1
4902663	24	C	03/29/2024	14:11	-127.363	48.737	0	188.50	0	7.1380	0	33.9150	0	26.548	0	186.820	0	97.9	4	33.2	4	-1E+10	1	-1E+10	1	-1E+10	1	-1E+10	1	-1E+10	1	-1E+10	1
4902663	24	C	03/29/2024	14:11	-127.363	48.737	0	189.60	0	7.1280	0	33.9140	0	26.548	0	187.910	0	97.8	4	33.1	4	-1E+10	1	-1E+10	1	-1E+10	1	-1E+10	1	-1E+10	1	-1E+10	1
4902663	24	C	03/29/2024	14:11	-127.363	48.737	0	190.60	0	7.0730	0	33.9130	0	26.555	0	188.901	0	97.8	4	33.1	4	-1E+10	1	-1E+10	1	-1E+10	1	-1E+10	1	-1E+10	1	-1E+10	1
4902663	24	C	03/29/2024	14:11	-127.363	48.737	0	191.70	0	7.0210	0	33.9050	0	26.556	0	189.990	0	97.9	4	33.1	4	-1E+10	1	-1E+10	1	-1E+10	1	-1E+10	1	-1E+10	1	-1E+10	1
4902663	24	C	03/29/2024	14:11	-127.363	48.737	0	192.70	0	6.9950	0	33.9050	0	26.560	0	190.981	0	97.8	4	33.1	4	-1E+10	1	-1E+10	1	-1E+10	1	-1E+10	1	-1E+10	1	-1E+10	1
4902663	24	C	03/29/2024	14:11	-127.363	48.737	0	193.80	0	6.9790	0	33.9050	0	26.562	0	192.071	0	97.6	4	33.0	4	-1E+10	1	-1E+10	1	-1E+10	1	-1E+10	1	-1E+10	1	-1E+10	1
4902663	24	C	03/29/2024	14:11	-127.363	48.737	0	194.80	0	6.9680	0	33.9050	0	26.563	0	193.061	0	97.4	4	32.9	4	-1E+10	1	-1E+10	1	-1E+10	1	-1E+10	1	-1E+10	1	-1E+10	1
4902663	24	C	03/29/2024	14:11	-127.363	48.737	0	195.90	0	6.9520	0	33.9050	0	26.565	0	194.151	0	97.2	4	32.8	4	-1E+10	1	-1E+10	1	-1E+10	1	-1E+10	1	-1E+10	1	-1E+10	1
4902663	24	C	03/29/2024	14:11	-127.363	48.737	0	196.90	0	6.9370	0	33.9070	0	26.569	0	195.141	0	97.0	4	32.8	4	-1E+10	1	-1E+10	1	-1E+10	1	-1E+10	1	-1E+10	1	-1E+10	1
4902663	24	C	03/29/2024	14:11	-127.363	48.737	0	197.90	0	6.9310	0	33.9060	0	26.569	0	196.132	0	96.8	4	32.7	4	-1E+10	1	-1E+10	1	-1E+10	1	-1E+10	1	-1E+10	1	-1E+10	1
4902663	24	C	03/29/2024	14:11	-127.363	48.737	0	199.00	0	6.9270	0	33.9050	0	26.569	0	197.222	0	96.7	4	32.6	4	-1E+10	1	-1E+10	1	-1E+10	1	-1E+10	1	-1E+10	1	-1E+10	1
4902663	24	C	03/29/2024	14:11	-127.363	48.737	0	200.00	0	6.9180	0	33.9040	0	26.569	0	198.212	0	96.4	4	32.5	4	-1E+10	1	-1E+10	1	-1E+10	1	-1E+10	1	-1E+10	1	-1E+10	1
4902663	24	C	03/29/2024	14:11	-127.363	48.737	0	201.00	0	6.9010	0	33.9070	0	26.574	0	199.203	0	96.1	4	32.4	4	-1E+10	1	-1E+10	1	-1E+10	1	-1E+10	1	-1E+10	1	-1E+10	1
4902663	24	C	03/29/2024	14:11	-127.363	48.737	0	202.10	0	6.8770	0	33.9060	0	26.576	0	200.293	0	95.8	4	32.3	4	-1E+10	1	-1E+10	1	-1E+10	1	-1E+10	1	-1E+10	1	-1E+10	1
4902663	24	C	03/29/2024	14:11	-127.363	48.737	0	203.20	0	6.8530	0	33.9060	0	26.580	0	201.382	0	95.4	4	32.2	4	-1E+10	1	-1E+10	1	-1E+10	1	-1E+10	1	-1E+10	1	-1E+10	1
4902663	24	C	03/29/2024	14:11	-127.363	48.737	0	204.20	0	6.8500	0	33.9070	0	26.581	0	202.373	0	95.0	4	32.0	4	-1E+10	1	-1E+10	1	-1E+10	1	-1E+10	1	-1E+10	1	-1E+10	1
4902663	24	C	03/29/2024	14:11	-127.363	48.737	0	205.30	0	6.8240	0	33.9080	0	26.585	0	203.462	0	94.6	4	31.8	4	-1E+10	1	-1E+10	1	-1E+10	1	-1E+10	1	-1E+10	1	-1E+10	1
4902663	24	C	03/29/2024	14:11	-127.363	48.737	0	206.30	0	6.8040	0	33.9080	0	26.588	0	204.453	0	94.1	4	31.7	4	-1E+10	1	-1E+10	1	-1E+10	1	-1E+10	1	-1E+10	1	-1E+10	1
4902663	24	C	03/29/2024	14:11	-127.363	48.737	0	207.40	0	6.7880	0	33.9120	0	26.593	0	205.542	0	93.6	4	31.5	4	-1E+10	1	-1E+10	1	-1E+10	1	-1E+10	1	-1E+10	1	-1E+10	1
4902663	24	C	03/29/2024	14:11	-127.363	48.737	0	208.50	0	6.7810	0	33.9100	0	26.593	0	206.632	0	93.1	4	31.3	4	-1E+10	1	-1E+10	1	-1E+10	1	-1E+10	1	-1E+10	1	-1E+10	1
4902663	24	C	03/29/2024	14:11	-127.363	48.737	0	209.50	0	6.7870	0	33.9120	0	26.593	0	207.623	0	92.6	4	31.2	4	-1E+10	1	-1E+10	1	-1E+10	1	-1E+10	1	-1E+10	1	-1E+10	1
4902663	24	C	03/29/2024	14:11	-127.363	48.737	0	210.60	0	6.7870	0	33.9120	0	26.593	0	208.712	0	92.1	4	31.0	4	-1E+10	1	-1E+10	1	-1E+10	1	-1E+10	1	-1E+10	1	-1E+10	1
4902663	24	C	03/29/2024	14:11	-127.363	48.737	0	211.60	0	6.7880	0	33.9140	0	26.595	0	209.703	0	91.7	4	30.9	4	-1E+10	1	-1E+10	1	-1E+10	1	-1E+10	1	-1E+10	1	-1E+10	1
4902663	24	C	03/29/2024	14:11	-127.363	48.737	0	212.70	0	6.7510	0	33.9190	0	26.604	0	210.792	0	91.4	4	30.7	4	-1E+10	1	-1E+10	1	-1E+10	1	-1E+10	1	-1E+10	1	-1E+10	1
4902663	24	C	03/29/2024	14:11	-127.363	48.737	0	213.80	0	6.7530	0	33.9160	0	26.601	0	211.882	0	91.1	4	30.6	4	-1E+10	1	-1E+10	1	-1E+10	1	-1E+10	1	-1E+10	1	-1E+10	1
4902663	24	C	03/29/2024	14:11	-127.363	48.737	0	214.90	0	6.7550	0	33.9190	0	26.603	0	212.971	0	90.8	4	30.5	4	-1E+10	1	-1E+10	1	-1E+10	1	-1E+10	1	-1E+10	1	-1E+10	1
4902663	24	C	03/29/2024	14:11	-127.363	48.737	0	215.90	0	6.7390	0	33.9200	0	26.606	0	213.962	0	90.6	4	30.4	4	-1E+10	1	-1E+10	1	-1E+10	1	-1E+10	1	-1E+10	1	-1E+10	1
4902663	24	C	03/29/2024	14:11	-127.363	48.737	0	217.00	0	6.7350	0	33.9200	0	26.607	0	215.051	0	90.3	4	30.3	4	-1E+10	1	-1E+10	1	-1E+10	1	-1E+10	1	-1E+10	1	-1E+10	1
4902663	24	C	03/29/2024	14:11	-127.363	48.737	0	218.10	0	6.7270	0	33.9210	0	26.609	0	216.141	0	90.0	4	30.2	4	-1E+10	1	-1E+10	1	-1E+10	1	-1E+10	1	-1E+10	1	-1E+10	1
4902663	24	C	03/29/2024	14:11	-127.363	48.737	0	219.20	0	6.7230	0	33.9180	0	26.607	0	217.231	0	89.6	4	30.1	4	-1E+10	1	-1E+10	1	-1E+10	1	-1E+10	1	-1E+10	1	-1E+10	1
4902663	24	C	03/29/2024	14:11	-127.363	48.737	0	220.20	0	6.6940	0	33.9190	0	26.611	0	218.221	0	89.3	4	30.0	4	-1E+10	1	-1E+10	1	-1E+10	1	-1E+10	1	-1E+10	1	-1E+10	1
4902663	24	C	03/29/2024	14:11	-127.363	48.737	0	221.30	0	6.6760	0	33.9240	0	26.618	0	219.311	0	89.0	4	29.9	4	-1E+10	1	-1E+10	1	-1E+10	1	-1E+10	1	-1E+10	1	-1E+10	1
4902663	24	C	03/29/2024	14:11	-127.363	48.737	0	222.40	0	6.6530	0	33.9220	0	26.619	0	220.400	0	88.9	4	29.8	4	-1E+10	1	-1E+10	1	-1E+10	1	-1E+10	1	-1E+10	1	-1E+10	1
4902663	24	C	03/29/2024	14:11	-127.363	48.737	0	223.50	0	6.6330	0	33.9250	0	26.624	0	221.490	0	88.8	4	29.8	4	-1E+10	1	-1E+10	1	-1E+10	1	-1E+10	1	-1E+10	1	-1E+10	1
4902663	24	C	03/29/2024	14:11	-127.363	48.737	0	224.60	0	6.6130	0	33.9260	0	26.628	0	222.579	0	88.8	4	29.8	4	-1E+10	1	-1E+10	1	-1E+10	1	-1E+10	1	-1E+10	1	-1E+10	1
4902663	24	C	03/29/2024	14:11	-127.363	48.737	0	225.60	0	6.6010	0	33.9240	0	26.628	0	223.570	0	88.8	4	29.7	4	-1E+10	1	-1E+10	1	-1E+10	1	-1E+10	1	-1E+10	1	-1E+10	1
4902663	24	C	03/29/2024	14:11	-127.363	48.737	0	226.70	0	6.5960	0	33.9230	0	26.628	0	224.659	0	88.8	4	29.7	4	-1E+10	1	-1E+10	1	-1E+10	1	-1E+10	1	-1E+10	1	-1E+10	1
4902663	24	C	03/29/2024	14:11	-127.363	48.737	0	227.80	0	6.5760	0	33.9210	0	26.629	0	225.749	0	88.7	4	29.7	4	-1E+10	1	-1E+10	1	-1E+10	1	-1E+10	1	-1E+10	1	-1E+10	1
4902663	24	C	03/29/2024	14:11	-127.363	48.737	0	228.80	0	6.5260	0	33.9200	0	26.634	0	226.739	0	88.6	4	29.6	4	-1E+10	1	-1E+10	1	-1E+10	1	-1E+10	1	-1E+10	1	-1E+10	1
4902663	24	C	03/29/2024	14:11	-127.363	48.737	0	229.90	0	6.5140	0	33.9240	0	26.639	0	227.829	0	88.4	4	29.6	4	-1E+10	1	-1E+10	1	-1E+10	1	-1E+10	1	-1E+10	1	-1E+10	1
4902663	24	C	03/29/2024	14:11	-127.363	48.737	0	231.00	0	6.4990	0	33.9210	0	26.639	0	228.918	0	88.2	4	29.5	4	-1E+10	1	-1E+10	1	-1E+10	1	-1E+10	1	-1E+10	1	-1E+10	1
4902663	24	C	03/29/2024	14:11	-127.363	48.737	0	232.00	0	6.4920	0	33.9190	0	26.638	0	229.908	0	87.9	4	29.4	4	-1E+10	1	-1E+10	1	-1E+10	1	-1E+10	1	-1E+10	1	-1E+10	1
4902663	24	C	03/29/2024	14:11	-127.363	48.737	0	233.10	0	6.4710	0	33.9190	0	26.641	0	230.998	0	87.6	4	29.3	4	-1E+10	1	-1E+10	1	-1E+10	1	-1E+10	1	-1E+10	1	-1E+10	1
4902663	24	C	03/29/2024	14:11	-127.363	48.737	0	234.20	0	6.4450	0	33.9200	0	26.645	0	232.087	0	87.3	4	29.1	4	-1E+10	1	-1E+10	1	-1E+10	1	-1E+10	1	-1E+10	1	-1E+10	1
4902663	24	C	03/29/2024	14:11	-127.363	48.737	0	235.30	0	6.4120	0	33.9180	0	26.648	0	233.177	0	87.0	4	29.0	4	-1E+10	1	-1E+10	1	-1E+10	1	-1E+10	1	-1E+10	1	-1E+10	1
4902663	24	C	03/29/2024	14:11	-127.363	48.737	0	236.40	0	6.3820	0	33.9200	0	26.653	0	234.266	0	86.5	4	28.8	4	-1E+10	1	-1E+10	1	-1E+10	1	-1E+10	1	-1E+10	1	-1E+10	1
4902663	24	C	03/29/2024	14:11	-127.363	48.737	0	237.50	0	6.3650	0	33.9180	0	26.654	0	235.356	0	86.0	4	28.6	4	-1E+10	1	-1E+10	1	-1E+10	1	-1E+10	1	-1E+10	1	-1E+10	1
4902663	24	C	03/29/2024	14:11	-127.363	48.737	0	238.50	0	6.3570	0	33.9190	0	26.656	0	236.346	0	85.4	4	28.4	4	-1E+10	1	-1E+10	1	-1E+10	1	-1E+10	1	-1E+10	1	-1E+10	1
4902663	24	C	03/29/2024	14:11	-127.363	48.737	0	239.60	0	6.3600	0	33.9210	0	26.657	0	237.436	0	84.8	4	28.2	4	-1E+10	1	-1E+10	1	-1E+10	1	-1E+10	1	-1E+10	1	-1E+10	1
4902663	24	C	03/29/2024	14:11	-127.363	48.737	0	240.70	0	6.3620	0	33.9210	0	26.657	0	238.525	0	84.1	4	28.0	4	-1E+10	1	-1E+10	1	-1E+10	1	-1E+10	1	-1E+10	1	-1E+10	1
4902663	24	C	03/29/2024	14:11	-127.363	48.737	0	241.80	0	6.3590	0	33.9260	0	26.661	0	239.614	0	83.5	4	27.8	4	-1E+10	1	-1E+10	1	-1E+10	1	-1E+10	1	-1E+10	1	-1E+10	1
4902663	24	C	03/29/2024	14:11	-127.363	48.737	0	242.90	0	6.3400	0	33.9260	0	26.664	0	240.704	0	82.9	4	27.6	4	-1E+10	1	-1E+10	1	-1E+10	1	-1E+10	1	-1E+10	1	-1E+10	1
4902663	24	C	03/29/2024	14:11	-127.363	48.737	0	243.90	0	6.3380	0	33.9250	0	26.663	0	241.694	0	82.2	4	27.4	4	-1E+10	1	-1E+10	1	-1E+10	1	-1E+10	1	-1E+10	1	-1E+10	1
4902663	24	C	03/29/2024	14:11	-127.363	48.737	0	245.00	0	6.3530	0	33.9310	0	26.666	0	242.784	0	81.5	4	27.2	4	-1E+10	1	-1E+10	1	-1E+10	1	-1E+10	1	-1E+10	1	-1E+10	1
4902663	24	C	03/29/2024	14:11	-127.363	48.737	0	246.10	0	6.3480	0	33.9330	0	26.668	0	243.873	0	81.0	4	27.0	4	-1E+10	1	-1E+10	1	-1E+10	1	-1E+10	1	-1E+10	1	-1E+10	1
4902663	24	C	03/29/2024	14:11	-127.363	48.737	0	247.20	0	6.3400	0	33.9350	0	26.671	0	244.962	0	80.4	4	26.8	4	-1E+10	1	-1E+10	1	-1E+10	1	-1E+10	1	-1E+10	1	-1E+10	1
4902663	24	C	03/29/2024	14:11	-127.363	48.737	0	248.20	0	6.3350	0	33.9400	0	26.675	0	245.953	0	80.0	4	26.6	4	-1E+10	1	-1E+10	1	-1E+10	1	-1E+10	1	-1E+10	1	-1E+10	1
4902663	24	C	03/29/2024	14:11	-127.363	48.737	0	249.30	0	6.3210	0	33.9390	0	26.676	0	247.042	0	79.7	4	26.5	4	-1E+10	1	-1E+10	1	-1E+10	1	-1E+10	1	-1E+10	1	-1E+10	1
4902663	24	C	03/29/2024	14:11	-127.363	48.737	0	250.40	0	6.2980	0	33.9390	0	26.679	0	248.132	0	79.3	4	26.4	4	-1E+10	1	-1E+10	1	-1E+10	1	-1E+10	1	-1E+10	1	-1E+10	1
4902663	24	C	03/29/2024	14:11	-127.363	48.737	0	251.50	0	6.2490	0	33.9440	0	26.690	0	249.221	0	79.1	4	26.3	4	-1E+10	1	-1E+10	1	-1E+10	1	-1E+10	1	-1E+10	1	-1E+10	1
4902663	24	C	03/29/2024	14:11	-127.363	48.737	0	252.60	0	6.2350	0	33.9430	0	26.691	0	250.310	0	79.0	4	26.2	4	-1E+10	1	-1E+10	1	-1E+10	1	-1E+10	1	-1E+10	1	-1E+10	1
4902663	24	C	03/29/2024	14:11	-127.363	48.737	0	253.60	0	6.2280	0	33.9440	0	26.692	0	251.301	0	78.9	4	26.2	4	-1E+10	1	-1E+10	1	-1E+10	1	-1E+10	1	-1E+10	1	-1E+10	1
4902663	24	C	03/29/2024	14:11	-127.363	48.737	0	254.50	0	6.2250	0	33.9430	0	26.692	0	252.192	0	78.7	4	26.1	4	-1E+10	1	-1E+10	1	-1E+10	1	-1E+10	1	-1E+10	1	-1E+10	1
4902663	24	C	03/29/2024	14:11	-127.363	48.737	0	256.00	0	6.2080	0	33.9430	0	26.694	0	253.677	0	78.6	4	26.1	4	-1E+10	1	-1E+10	1	-1E+10	1	-1E+10	1	-1E+10	1	-1E+10	1
4902663	24	C	03/29/2024	14:11	-127.363	48.737	0	257.20	0	6.2040	0	33.9430	0	26.695	0	254.866	0	78.4	4	26.0	4	-1E+10	1	-1E+10	1	-1E+10	1	-1E+10	1	-1E+10	1	-1E+10	1
4902663	24	C	03/29/2024	14:11	-127.363	48.737	0	258.00	0	6.2030	0	33.9430	0	26.695	0	255.658	0	78.2	4	26.0	4	-1E+10	1	-1E+10	1	-1E+10	1	-1E+10	1	-1E+10	1	-1E+10	1
4902663	24	C	03/29/2024	14:11	-127.363	48.737	0	258.80	0	6.2010	0	33.9430	0	26.695	0	256.450	0	78.1	4	25.9	4	-1E+10	1	-1E+10	1	-1E+10	1	-1E+10	1	-1E+10	1	-1E+10	1
4902663	24	C	03/29/2024	14:11	-127.363	48.737	0	260.00	0	6.1530	0	33.9370	0	26.696	0	257.639	0	77.8	4	25.8	4	-1E+10	1	-1E+10	1	-1E+10	1	-1E+10	1	-1E+10	1	-1E+10	1
4902663	24	C	03/29/2024	14:11	-127.363	48.737	0	261.20	0	6.1320	0	33.9380	0	26.700	0	258.827	0	77.3	4	25.6	4	-1E+10	1	-1E+10	1	-1E+10	1	-1E+10	1	-1E+10	1	-1E+10	1
4902663	24	C	03/29/2024	14:11	-127.363	48.737	0	262.10	0	6.1310	0	33.9390	0	26.701	0	259.718	0	76.8	4	25.5	4	-1E+10	1	-1E+10	1	-1E+10	1	-1E+10	1	-1E+10	1	-1E+10	1
4902663	24	C	03/29/2024	14:11	-127.363	48.737	0	262.90	0	6.1280	0	33.9400	0	26.702	0	260.510	0	76.4	4	25.3	4	-1E+10	1	-1E+10	1	-1E+10	1	-1E+10	1	-1E+10	1	-1E+10	1
4902663	24	C	03/29/2024	14:11	-127.363	48.737	0	263.70	0	6.1340	0	33.9390	0	26.700	0	261.303	0	75.9	4	25.2	4	-1E+10	1	-1E+10	1	-1E+10	1	-1E+10	1	-1E+10	1	-1E+10	1
4902663	24	C	03/29/2024	14:11	-127.363	48.737	0	264.90	0	6.1470	0	33.9490	0	26.707	0	262.491	0	75.6	4	25.1	4	-1E+10	1	-1E+10	1	-1E+10	1	-1E+10	1	-1E+10	1	-1E+10	1
4902663	24	C	03/29/2024	14:11	-127.363	48.737	0	266.20	0	6.1230	0	33.9500	0	26.710	0	263.778	0	75.4	4	25.0	4	-1E+10	1	-1E+10	1	-1E+10	1	-1E+10	1	-1E+10	1	-1E+10	1
4902663	24	C	03/29/2024	14:11	-127.363	48.737	0	267.00	0	6.1100	0	33.9500	0	26.712	0	264.571	0	75.1	4	24.9	4	-1E+10	1	-1E+10	1	-1E+10	1	-1E+10	1	-1E+10	1	-1E+10	1
4902663	24	C	03/29/2024	14:11	-127.363	48.737	0	267.80	0	6.1020	0	33.9510	0	26.714	0	265.363	0	74.9	4	24.8	4	-1E+10	1	-1E+10	1	-1E+10	1	-1E+10	1	-1E+10	1	-1E+10	1
4902663	24	C	03/29/2024	14:11	-127.363	48.737	0	268.70	0	6.0980	0	33.9490	0	26.713	0	266.254	0	74.7	4	24.7	4	-1E+10	1	-1E+10	1	-1E+10	1	-1E+10	1	-1E+10	1	-1E+10	1
4902663	24	C	03/29/2024	14:11	-127.363	48.737	0	269.90	0	6.0950	0	33.9490	0	26.713	0	267.442	0	74.2	4	24.6	4	-1E+10	1	-1E+10	1	-1E+10	1	-1E+10	1	-1E+10	1	-1E+10	1
4902663	24	C	03/29/2024	14:11	-127.363	48.737	0	271.20	0	6.0850	0	33.9490	0	26.715	0	268.730	0	73.7	4	24.4	4	-1E+10	1	-1E+10	1	-1E+10	1	-1E+10	1	-1E+10	1	-1E+10	1
4902663	24	C	03/29/2024	14:11	-127.363	48.737	0	272.00	0	6.0720	0	33.9490	0	26.716	0	269.522	0	73.3	4	24.3	4	-1E+10	1	-1E+10	1	-1E+10	1	-1E+10	1	-1E+10	1	-1E+10	1
4902663	24	C	03/29/2024	14:11	-127.363	48.737	0	272.90	0	6.0340	0	33.9480	0	26.720	0	270.413	0	72.9	4	24.1	4	-1E+10	1	-1E+10	1	-1E+10	1	-1E+10	1	-1E+10	1	-1E+10	1
4902663	24	C	03/29/2024	14:11	-127.363	48.737	0	273.70	0	6.0210	0	33.9500	0	26.723	0	271.205	0	72.5	4	24.0	4	-1E+10	1	-1E+10	1	-1E+10	1	-1E+10	1	-1E+10	1	-1E+10	1
4902663	24	C	03/29/2024	14:11	-127.363	48.737	0	274.60	0	6.0200	0	33.9500	0	26.724	0	272.096	0	72.2	4	23.9	4	-1E+10	1	-1E+10	1	-1E+10	1	-1E+10	1	-1E+10	1	-1E+10	1
4902663	24	C	03/29/2024	14:11	-127.363	48.737	0	275.90	0	6.0160	0	33.9490	0	26.723	0	273.384	0	71.4	4	23.6	4	-1E+10	1	-1E+10	1	-1E+10	1	-1E+10	1	-1E+10	1	-1E+10	1
4902663	24	C	03/29/2024	14:11	-127.363	48.737	0	277.20	0	6.0060	0	33.9500	0	26.725	0	274.671	0	70.5	4	23.3	4	-1E+10	1	-1E+10	1	-1E+10	1	-1E+10	1	-1E+10	1	-1E+10	1
4902663	24	C	03/29/2024	14:11	-127.363	48.737	0	278.10	0	5.9950	0	33.9530	0	26.729	0	275.562	0	70.0	4	23.1	4	-1E+10	1	-1E+10	1	-1E+10	1	-1E+10	1	-1E+10	1	-1E+10	1
4902663	24	C	03/29/2024	14:11	-127.363	48.737	0	278.90	0	5.9840	0	33.9550	0	26.732	0	276.354	0	69.6	4	23.0	4	-1E+10	1	-1E+10	1	-1E+10	1	-1E+10	1	-1E+10	1	-1E+10	1
4902663	24	C	03/29/2024	14:11	-127.363	48.737	0	279.80	0	5.9840	0	33.9560	0	26.733	0	277.246	0	69.2	4	22.8	4	-1E+10	1	-1E+10	1	-1E+10	1	-1E+10	1	-1E+10	1	-1E+10	1
4902663	24	C	03/29/2024	14:11	-127.363	48.737	0	280.60	0	5.9780	0	33.9580	0	26.735	0	278.038	0	68.8	4	22.7	4	-1E+10	1	-1E+10	1	-1E+10	1	-1E+10	1	-1E+10	1	-1E+10	1
4902663	24	C	03/29/2024	14:11	-127.363	48.737	0	281.90	0	5.9650	0	33.9630	0	26.741	0	279.325	0	68.4	4	22.6	4	-1E+10	1	-1E+10	1	-1E+10	1	-1E+10	1	-1E+10	1	-1E+10	1
4902663	24	C	03/29/2024	14:11	-127.363	48.737	0	283.20	0	5.9620	0	33.9630	0	26.741	0	280.612	0	68.1	4	22.5	4	-1E+10	1	-1E+10	1	-1E+10	1	-1E+10	1	-1E+10	1	-1E+10	1
4902663	24	C	03/29/2024	14:11	-127.363	48.737	0	284.10	0	5.9560	0	33.9650	0	26.743	0	281.503	0	67.9	4	22.4	4	-1E+10	1	-1E+10	1	-1E+10	1	-1E+10	1	-1E+10	1	-1E+10	1
4902663	24	C	03/29/2024	14:11	-127.363	48.737	0	284.90	0	5.9490	0	33.9660	0	26.745	0	282.295	0	67.8	4	22.4	4	-1E+10	1	-1E+10	1	-1E+10	1	-1E+10	1	-1E+10	1	-1E+10	1
4902663	24	C	03/29/2024	14:11	-127.363	48.737	0	285.80	0	5.9490	0	33.9650	0	26.744	0	283.187	0	67.6	4	22.3	4	-1E+10	1	-1E+10	1	-1E+10	1	-1E+10	1	-1E+10	1	-1E+10	1
4902663	24	C	03/29/2024	14:11	-127.363	48.737	0	286.60	0	5.9440	0	33.9670	0	26.747	0	283.979	0	67.4	4	22.3	4	-1E+10	1	-1E+10	1	-1E+10	1	-1E+10	1	-1E+10	1	-1E+10	1
4902663	24	C	03/29/2024	14:11	-127.363	48.737	0	287.90	0	5.9360	0	33.9670	0	26.748	0	285.266	0	67.2	4	22.2	4	-1E+10	1	-1E+10	1	-1E+10	1	-1E+10	1	-1E+10	1	-1E+10	1
4902663	24	C	03/29/2024	14:11	-127.363	48.737	0	289.20	0	5.9340	0	33.9680	0	26.749	0	286.553	0	66.9	4	22.1	4	-1E+10	1	-1E+10	1	-1E+10	1	-1E+10	1	-1E+10	1	-1E+10	1
4902663	24	C	03/29/2024	14:11	-127.363	48.737	0	290.10	0	5.9320	0	33.9680	0	26.749	0	287.444	0	66.6	4	22.0	4	-1E+10	1	-1E+10	1	-1E+10	1	-1E+10	1	-1E+10	1	-1E+10	1
4902663	24	C	03/29/2024	14:11	-127.363	48.737	0	290.90	0	5.9310	0	33.9680	0	26.749	0	288.236	0	66.4	4	21.9	4	-1E+10	1	-1E+10	1	-1E+10	1	-1E+10	1	-1E+10	1	-1E+10	1
4902663	24	C	03/29/2024	14:11	-127.363	48.737	0	291.80	0	5.9250	0	33.9690	0	26.751	0	289.128	0	66.1	4	21.8	4	-1E+10	1	-1E+10	1	-1E+10	1	-1E+10	1	-1E+10	1	-1E+10	1
4902663	24	C	03/29/2024	14:11	-127.363	48.737	0	292.70	0	5.9180	0	33.9690	0	26.751	0	290.019	0	65.9	4	21.7	4	-1E+10	1	-1E+10	1	-1E+10	1	-1E+10	1	-1E+10	1	-1E+10	1
4902663	24	C	03/29/2024	14:11	-127.363	48.737	0	293.90	0	5.9070	0	33.9710	0	26.754	0	291.207	0	65.5	4	21.6	4	-1E+10	1	-1E+10	1	-1E+10	1	-1E+10	1	-1E+10	1	-1E+10	1
4902663	24	C	03/29/2024	14:11	-127.363	48.737	0	295.30	0	5.9000	0	33.9710	0	26.755	0	292.593	0	65.2	4	21.5	4	-1E+10	1	-1E+10	1	-1E+10	1	-1E+10	1	-1E+10	1	-1E+10	1
4902663	24	C	03/29/2024	14:11	-127.363	48.737	0	296.10	0	5.8900	0	33.9720	0	26.757	0	293.385	0	65.0	4	21.4	4	-1E+10	1	-1E+10	1	-1E+10	1	-1E+10	1	-1E+10	1	-1E+10	1
4902663	24	C	03/29/2024	14:11	-127.363	48.737	0	296.90	0	5.8790	0	33.9720	0	26.759	0	294.177	0	64.7	4	21.3	4	-1E+10	1	-1E+10	1	-1E+10	1	-1E+10	1	-1E+10	1	-1E+10	1
4902663	24	C	03/29/2024	14:11	-127.363	48.737	0	297.80	0	5.8640	0	33.9730	0	26.761	0	295.068	0	64.6	4	21.3	4	-1E+10	1	-1E+10	1	-1E+10	1	-1E+10	1	-1E+10	1	-1E+10	1
4902663	24	C	03/29/2024	14:11	-127.363	48.737	0	298.60	0	5.8490	0	33.9740	0	26.764	0	295.860	0	64.4	4	21.2	4	-1E+10	1	-1E+10	1	-1E+10	1	-1E+10	1	-1E+10	1	-1E+10	1
4902663	24	C	03/29/2024	14:11	-127.363	48.737	0	299.90	0	5.8380	0	33.9750	0	26.766	0	297.148	0	64.2	4	21.1	4	-1E+10	1	-1E+10	1	-1E+10	1	-1E+10	1	-1E+10	1	-1E+10	1
4902663	24	C	03/29/2024	14:11	-127.363	48.737	0	301.20	0	5.8340	0	33.9750	0	26.767	0	298.435	0	64.1	4	21.1	4	-1E+10	1	-1E+10	1	-1E+10	1	-1E+10	1	-1E+10	1	-1E+10	1
4902663	24	C	03/29/2024	14:11	-127.363	48.737	0	302.10	0	5.8300	0	33.9750	0	26.767	0	299.326	0	63.9	4	21.1	4	-1E+10	1	-1E+10	1	-1E+10	1	-1E+10	1	-1E+10	1	-1E+10	1
4902663	24	C	03/29/2024	14:11	-127.363	48.737	0	303.00	0	5.8270	0	33.9750	0	26.768	0	300.217	0	63.9	4	21.0	4	-1E+10	1	-1E+10	1	-1E+10	1	-1E+10	1	-1E+10	1	-1E+10	1
4902663	24	C	03/29/2024	14:11	-127.363	48.737	0	303.80	0	5.8260	0	33.9750	0	26.768	0	301.009	0	63.7	4	21.0	4	-1E+10	1	-1E+10	1	-1E+10	1	-1E+10	1	-1E+10	1	-1E+10	1
4902663	24	C	03/29/2024	14:11	-127.363	48.737	0	304.70	0	5.8200	0	33.9760	0	26.769	0	301.900	0	63.6	4	20.9	4	-1E+10	1	-1E+10	1	-1E+10	1	-1E+10	1	-1E+10	1	-1E+10	1
4902663	24	C	03/29/2024	14:11	-127.363	48.737	0	306.00	0	5.8130	0	33.9760	0	26.770	0	303.187	0	63.4	4	20.9	4	-1E+10	1	-1E+10	1	-1E+10	1	-1E+10	1	-1E+10	1	-1E+10	1
4902663	24	C	03/29/2024	14:11	-127.363	48.737	0	307.30	0	5.8110	0	33.9760	0	26.770	0	304.474	0	63.2	4	20.8	4	-1E+10	1	-1E+10	1	-1E+10	1	-1E+10	1	-1E+10	1	-1E+10	1
4902663	24	C	03/29/2024	14:11	-127.363	48.737	0	308.20	0	5.8060	0	33.9760	0	26.771	0	305.365	0	63.1	4	20.8	4	-1E+10	1	-1E+10	1	-1E+10	1	-1E+10	1	-1E+10	1	-1E+10	1
4902663	24	C	03/29/2024	14:11	-127.363	48.737	0	309.00	0	5.8050	0	33.9760	0	26.771	0	306.157	0	62.9	4	20.7	4	-1E+10	1	-1E+10	1	-1E+10	1	-1E+10	1	-1E+10	1	-1E+10	1
4902663	24	C	03/29/2024	14:11	-127.363	48.737	0	309.90	0	5.8030	0	33.9760	0	26.771	0	307.048	0	62.7	4	20.6	4	-1E+10	1	-1E+10	1	-1E+10	1	-1E+10	1	-1E+10	1	-1E+10	1
4902663	24	C	03/29/2024	14:11	-127.363	48.737	0	310.80	0	5.8010	0	33.9760	0	26.772	0	307.939	0	62.5	4	20.5	4	-1E+10	1	-1E+10	1	-1E+10	1	-1E+10	1	-1E+10	1	-1E+10	1
4902663	24	C	03/29/2024	14:11	-127.363	48.737	0	311.70	0	5.8010	0	33.9760	0	26.772	0	308.831	0	62.2	4	20.5	4	-1E+10	1	-1E+10	1	-1E+10	1	-1E+10	1	-1E+10	1	-1E+10	1
4902663	24	C	03/29/2024	14:11	-127.363	48.737	0	312.60	0	5.7980	0	33.9770	0	26.773	0	309.722	0	61.9	4	20.4	4	-1E+10	1	-1E+10	1	-1E+10	1	-1E+10	1	-1E+10	1	-1E+10	1
4902663	24	C	03/29/2024	14:11	-127.363	48.737	0	313.90	0	5.7990	0	33.9750	0	26.771	0	311.009	0	61.3	4	20.2	4	-1E+10	1	-1E+10	1	-1E+10	1	-1E+10	1	-1E+10	1	-1E+10	1
4902663	24	C	03/29/2024	14:11	-127.363	48.737	0	315.20	0	5.7950	0	33.9770	0	26.773	0	312.296	0	60.7	4	20.0	4	-1E+10	1	-1E+10	1	-1E+10	1	-1E+10	1	-1E+10	1	-1E+10	1
4902663	24	C	03/29/2024	14:11	-127.363	48.737	0	316.00	0	5.7910	0	33.9770	0	26.774	0	313.088	0	60.2	4	19.8	4	-1E+10	1	-1E+10	1	-1E+10	1	-1E+10	1	-1E+10	1	-1E+10	1
4902663	24	C	03/29/2024	14:11	-127.363	48.737	0	316.90	0	5.7870	0	33.9790	0	26.776	0	313.979	0	59.8	4	19.7	4	-1E+10	1	-1E+10	1	-1E+10	1	-1E+10	1	-1E+10	1	-1E+10	1
4902663	24	C	03/29/2024	14:11	-127.363	48.737	0	317.70	0	5.7640	0	33.9810	0	26.780	0	314.771	0	59.5	4	19.6	4	-1E+10	1	-1E+10	1	-1E+10	1	-1E+10	1	-1E+10	1	-1E+10	1
4902663	24	C	03/29/2024	14:11	-127.363	48.737	0	318.60	0	5.7480	0	33.9830	0	26.784	0	315.662	0	59.2	4	19.5	4	-1E+10	1	-1E+10	1	-1E+10	1	-1E+10	1	-1E+10	1	-1E+10	1
4902663	24	C	03/29/2024	14:11	-127.363	48.737	0	319.90	0	5.7430	0	33.9840	0	26.785	0	316.949	0	58.8	4	19.3	4	-1E+10	1	-1E+10	1	-1E+10	1	-1E+10	1	-1E+10	1	-1E+10	1
4902663	24	C	03/29/2024	14:11	-127.363	48.737	0	321.30	0	5.7360	0	33.9850	0	26.787	0	318.335	0	58.4	4	19.2	4	-1E+10	1	-1E+10	1	-1E+10	1	-1E+10	1	-1E+10	1	-1E+10	1
4902663	24	C	03/29/2024	14:11	-127.363	48.737	0	322.20	0	5.7330	0	33.9860	0	26.788	0	319.226	0	58.1	4	19.1	4	-1E+10	1	-1E+10	1	-1E+10	1	-1E+10	1	-1E+10	1	-1E+10	1
4902663	24	C	03/29/2024	14:11	-127.363	48.737	0	323.00	0	5.7280	0	33.9880	0	26.790	0	320.018	0	57.8	4	19.0	4	-1E+10	1	-1E+10	1	-1E+10	1	-1E+10	1	-1E+10	1	-1E+10	1
4902663	24	C	03/29/2024	14:11	-127.363	48.737	0	323.90	0	5.7220	0	33.9880	0	26.791	0	320.909	0	57.5	4	18.9	4	-1E+10	1	-1E+10	1	-1E+10	1	-1E+10	1	-1E+10	1	-1E+10	1
4902663	24	C	03/29/2024	14:11	-127.363	48.737	0	324.80	0	5.7170	0	33.9900	0	26.793	0	321.800	0	57.2	4	18.8	4	-1E+10	1	-1E+10	1	-1E+10	1	-1E+10	1	-1E+10	1	-1E+10	1
4902663	24	C	03/29/2024	14:11	-127.363	48.737	0	325.70	0	5.7110	0	33.9930	0	26.796	0	322.691	0	57.0	4	18.7	4	-1E+10	1	-1E+10	1	-1E+10	1	-1E+10	1	-1E+10	1	-1E+10	1
4902663	24	C	03/29/2024	14:11	-127.363	48.737	0	327.00	0	5.7090	0	33.9940	0	26.797	0	323.978	0	56.8	4	18.6	4	-1E+10	1	-1E+10	1	-1E+10	1	-1E+10	1	-1E+10	1	-1E+10	1
4902663	24	C	03/29/2024	14:11	-127.363	48.737	0	328.30	0	5.7070	0	33.9950	0	26.798	0	325.265	0	56.6	4	18.6	4	-1E+10	1	-1E+10	1	-1E+10	1	-1E+10	1	-1E+10	1	-1E+10	1
4902663	24	C	03/29/2024	14:11	-127.363	48.737	0	329.20	0	5.7070	0	33.9950	0	26.798	0	326.156	0	56.5	4	18.5	4	-1E+10	1	-1E+10	1	-1E+10	1	-1E+10	1	-1E+10	1	-1E+10	1
4902663	24	C	03/29/2024	14:11	-127.363	48.737	0	330.00	0	5.7030	0	33.9970	0	26.800	0	326.948	0	56.4	4	18.5	4	-1E+10	1	-1E+10	1	-1E+10	1	-1E+10	1	-1E+10	1	-1E+10	1
4902663	24	C	03/29/2024	14:11	-127.363	48.737	0	330.90	0	5.7010	0	33.9970	0	26.801	0	327.839	0	56.3	4	18.5	4	-1E+10	1	-1E+10	1	-1E+10	1	-1E+10	1	-1E+10	1	-1E+10	1
4902663	24	C	03/29/2024	14:11	-127.363	48.737	0	331.80	0	5.7000	0	33.9970	0	26.801	0	328.730	0	56.3	4	18.5	4	-1E+10	1	-1E+10	1	-1E+10	1	-1E+10	1	-1E+10	1	-1E+10	1
4902663	24	C	03/29/2024	14:11	-127.363	48.737	0	332.70	0	5.7000	0	33.9980	0	26.802	0	329.621	0	56.2	4	18.4	4	-1E+10	1	-1E+10	1	-1E+10	1	-1E+10	1	-1E+10	1	-1E+10	1
4902663	24	C	03/29/2024	14:11	-127.363	48.737	0	333.60	0	5.7010	0	33.9970	0	26.801	0	330.511	0	56.1	4	18.4	4	-1E+10	1	-1E+10	1	-1E+10	1	-1E+10	1	-1E+10	1	-1E+10	1
4902663	24	C	03/29/2024	14:11	-127.363	48.737	0	334.90	0	5.6940	0	33.9950	0	26.800	0	331.798	0	55.9	4	18.4	4	-1E+10	1	-1E+10	1	-1E+10	1	-1E+10	1	-1E+10	1	-1E+10	1
4902663	24	C	03/29/2024	14:11	-127.363	48.737	0	336.30	0	5.6880	0	33.9980	0	26.803	0	333.184	0	55.7	4	18.3	4	-1E+10	1	-1E+10	1	-1E+10	1	-1E+10	1	-1E+10	1	-1E+10	1
4902663	24	C	03/29/2024	14:11	-127.363	48.737	0	337.10	0	5.6760	0	33.9970	0	26.804	0	333.976	0	55.5	4	18.2	4	-1E+10	1	-1E+10	1	-1E+10	1	-1E+10	1	-1E+10	1	-1E+10	1
4902663	24	C	03/29/2024	14:11	-127.363	48.737	0	338.00	0	5.6740	0	33.9970	0	26.804	0	334.867	0	55.3	4	18.2	4	-1E+10	1	-1E+10	1	-1E+10	1	-1E+10	1	-1E+10	1	-1E+10	1
4902663	24	C	03/29/2024	14:11	-127.363	48.737	0	338.90	0	5.6730	0	33.9970	0	26.804	0	335.758	0	55.1	4	18.1	4	-1E+10	1	-1E+10	1	-1E+10	1	-1E+10	1	-1E+10	1	-1E+10	1
4902663	24	C	03/29/2024	14:11	-127.363	48.737	0	339.80	0	5.6710	0	33.9970	0	26.804	0	336.649	0	54.9	4	18.0	4	-1E+10	1	-1E+10	1	-1E+10	1	-1E+10	1	-1E+10	1	-1E+10	1
4902663	24	C	03/29/2024	14:11	-127.363	48.737	0	340.70	0	5.6700	0	33.9970	0	26.805	0	337.540	0	54.6	4	17.9	4	-1E+10	1	-1E+10	1	-1E+10	1	-1E+10	1	-1E+10	1	-1E+10	1
4902663	24	C	03/29/2024	14:11	-127.363	48.737	0	341.60	0	5.6720	0	33.9990	0	26.806	0	338.431	0	54.3	4	17.8	4	-1E+10	1	-1E+10	1	-1E+10	1	-1E+10	1	-1E+10	1	-1E+10	1
4902663	24	C	03/29/2024	14:11	-127.363	48.737	0	342.50	0	5.6730	0	33.9970	0	26.804	0	339.322	0	54.0	4	17.7	4	-1E+10	1	-1E+10	1	-1E+10	1	-1E+10	1	-1E+10	1	-1E+10	1
4902663	24	C	03/29/2024	14:11	-127.363	48.737	0	343.90	0	5.6720	0	34.0000	0	26.807	0	340.708	0	53.5	4	17.6	4	-1E+10	1	-1E+10	1	-1E+10	1	-1E+10	1	-1E+10	1	-1E+10	1
4902663	24	C	03/29/2024	14:11	-127.363	48.737	0	345.30	0	5.6520	0	33.9990	0	26.808	0	342.093	0	53.0	4	17.4	4	-1E+10	1	-1E+10	1	-1E+10	1	-1E+10	1	-1E+10	1	-1E+10	1
4902663	24	C	03/29/2024	14:11	-127.363	48.737	0	346.20	0	5.6540	0	33.9970	0	26.807	0	342.984	0	52.5	4	17.2	4	-1E+10	1	-1E+10	1	-1E+10	1	-1E+10	1	-1E+10	1	-1E+10	1
4902663	24	C	03/29/2024	14:11	-127.363	48.737	0	347.10	0	5.6350	0	33.9990	0	26.810	0	343.875	0	52.0	4	17.1	4	-1E+10	1	-1E+10	1	-1E+10	1	-1E+10	1	-1E+10	1	-1E+10	1
4902663	24	C	03/29/2024	14:11	-127.363	48.737	0	348.00	0	5.6300	0	34.0010	0	26.813	0	344.766	0	51.5	4	16.9	4	-1E+10	1	-1E+10	1	-1E+10	1	-1E+10	1	-1E+10	1	-1E+10	1
4902663	24	C	03/29/2024	14:11	-127.363	48.737	0	348.90	0	5.6430	0	34.0070	0	26.816	0	345.657	0	51.1	4	16.8	4	-1E+10	1	-1E+10	1	-1E+10	1	-1E+10	1	-1E+10	1	-1E+10	1
4902663	24	C	03/29/2024	14:11	-127.363	48.737	0	349.80	0	5.6270	0	34.0120	0	26.822	0	346.548	0	50.8	4	16.6	4	-1E+10	1	-1E+10	1	-1E+10	1	-1E+10	1	-1E+10	1	-1E+10	1
4902663	24	C	03/29/2024	14:11	-127.363	48.737	0	352.90	0	5.6080	0	34.0120	0	26.824	0	349.616	0	49.8	4	16.3	4	-1E+10	1	-1E+10	1	-1E+10	1	-1E+10	1	-1E+10	1	-1E+10	1
4902663	24	C	03/29/2024	14:11	-127.363	48.737	0	357.90	0	5.5720	0	34.0170	0	26.832	0	354.566	0	48.3	4	15.8	4	-1E+10	1	-1E+10	1	-1E+10	1	-1E+10	1	-1E+10	1	-1E+10	1
4902663	24	C	03/29/2024	14:11	-127.363	48.737	0	362.90	0	5.5360	0	34.0230	0	26.842	0	359.515	0	47.1	4	15.4	4	-1E+10	1	-1E+10	1	-1E+10	1	-1E+10	1	-1E+10	1	-1E+10	1
4902663	24	C	03/29/2024	14:11	-127.363	48.737	0	368.00	0	5.5170	0	34.0260	0	26.846	0	364.563	0	46.3	4	15.1	4	-1E+10	1	-1E+10	1	-1E+10	1	-1E+10	1	-1E+10	1	-1E+10	1
4902663	24	C	03/29/2024	14:11	-127.363	48.737	0	372.60	0	5.4920	0	34.0270	0	26.850	0	369.116	0	45.5	4	14.9	4	-1E+10	1	-1E+10	1	-1E+10	1	-1E+10	1	-1E+10	1	-1E+10	1
4902663	24	C	03/29/2024	14:11	-127.363	48.737	0	377.80	0	5.4630	0	34.0300	0	26.856	0	374.262	0	44.8	4	14.6	4	-1E+10	1	-1E+10	1	-1E+10	1	-1E+10	1	-1E+10	1	-1E+10	1
4902663	24	C	03/29/2024	14:11	-127.363	48.737	0	382.80	0	5.4380	0	34.0320	0	26.861	0	379.211	0	44.2	4	14.4	4	-1E+10	1	-1E+10	1	-1E+10	1	-1E+10	1	-1E+10	1	-1E+10	1
4902663	24	C	03/29/2024	14:11	-127.363	48.737	0	388.00	0	5.3990	0	34.0320	0	26.865	0	384.357	0	43.3	4	14.1	4	-1E+10	1	-1E+10	1	-1E+10	1	-1E+10	1	-1E+10	1	-1E+10	1
4902663	24	C	03/29/2024	14:11	-127.363	48.737	0	393.30	0	5.3320	0	34.0330	0	26.874	0	389.603	0	42.4	4	13.8	4	-1E+10	1	-1E+10	1	-1E+10	1	-1E+10	1	-1E+10	1	-1E+10	1
4902663	24	C	03/29/2024	14:11	-127.363	48.737	0	398.10	0	5.2890	0	34.0340	0	26.880	0	394.353	0	41.7	4	13.6	4	-1E+10	1	-1E+10	1	-1E+10	1	-1E+10	1	-1E+10	1	-1E+10	1
4902663	24	C	03/29/2024	14:11	-127.363	48.737	0	402.90	0	5.2710	0	34.0360	0	26.884	0	399.103	0	40.8	4	13.3	4	-1E+10	1	-1E+10	1	-1E+10	1	-1E+10	1	-1E+10	1	-1E+10	1
4902663	24	C	03/29/2024	14:11	-127.363	48.737	0	407.90	0	5.2480	0	34.0400	0	26.889	0	404.051	0	40.1	4	13.0	4	-1E+10	1	-1E+10	1	-1E+10	1	-1E+10	1	-1E+10	1	-1E+10	1
4902663	24	C	03/29/2024	14:11	-127.363	48.737	0	413.10	0	5.2250	0	34.0420	0	26.894	0	409.197	0	39.4	4	12.8	4	-1E+10	1	-1E+10	1	-1E+10	1	-1E+10	1	-1E+10	1	-1E+10	1
4902663	24	C	03/29/2024	14:11	-127.363	48.737	0	418.20	0	5.2000	0	34.0430	0	26.897	0	414.244	0	38.5	4	12.5	4	-1E+10	1	-1E+10	1	-1E+10	1	-1E+10	1	-1E+10	1	-1E+10	1
4902663	24	C	03/29/2024	14:11	-127.363	48.737	0	422.90	0	5.1770	0	34.0450	0	26.902	0	418.895	0	37.1	4	12.0	4	-1E+10	1	-1E+10	1	-1E+10	1	-1E+10	1	-1E+10	1	-1E+10	1
4902663	24	C	03/29/2024	14:11	-127.363	48.737	0	427.60	0	5.1590	0	34.0530	0	26.910	0	423.545	0	35.6	4	11.6	4	-1E+10	1	-1E+10	1	-1E+10	1	-1E+10	1	-1E+10	1	-1E+10	1
4902663	24	C	03/29/2024	14:11	-127.363	48.737	0	433.10	0	5.1290	0	34.0600	0	26.919	0	428.987	0	34.5	4	11.2	4	-1E+10	1	-1E+10	1	-1E+10	1	-1E+10	1	-1E+10	1	-1E+10	1
4902663	24	C	03/29/2024	14:11	-127.363	48.737	0	438.00	0	5.1080	0	34.0640	0	26.925	0	433.836	0	33.4	4	10.8	4	-1E+10	1	-1E+10	1	-1E+10	1	-1E+10	1	-1E+10	1	-1E+10	1
4902663	24	C	03/29/2024	14:11	-127.363	48.737	0	442.80	0	5.0790	0	34.0680	0	26.931	0	438.585	0	32.2	4	10.4	4	-1E+10	1	-1E+10	1	-1E+10	1	-1E+10	1	-1E+10	1	-1E+10	1
4902663	24	C	03/29/2024	14:11	-127.363	48.737	0	448.20	0	5.0580	0	34.0760	0	26.940	0	443.928	0	31.2	4	10.1	4	-1E+10	1	-1E+10	1	-1E+10	1	-1E+10	1	-1E+10	1	-1E+10	1
4902663	24	C	03/29/2024	14:11	-127.363	48.737	0	453.10	0	5.0450	0	34.0780	0	26.943	0	448.776	0	30.4	4	9.8	4	-1E+10	1	-1E+10	1	-1E+10	1	-1E+10	1	-1E+10	1	-1E+10	1
4902663	24	C	03/29/2024	14:11	-127.363	48.737	0	458.00	0	5.0420	0	34.0820	0	26.947	0	453.624	0	29.6	4	9.6	4	-1E+10	1	-1E+10	1	-1E+10	1	-1E+10	1	-1E+10	1	-1E+10	1
4902663	24	C	03/29/2024	14:11	-127.363	48.737	0	463.00	0	5.0350	0	34.0840	0	26.949	0	458.570	0	29.0	4	9.4	4	-1E+10	1	-1E+10	1	-1E+10	1	-1E+10	1	-1E+10	1	-1E+10	1
4902663	24	C	03/29/2024	14:11	-127.363	48.737	0	468.00	0	5.0210	0	34.0860	0	26.953	0	463.517	0	28.3	4	9.1	4	-1E+10	1	-1E+10	1	-1E+10	1	-1E+10	1	-1E+10	1	-1E+10	1
4902663	24	C	03/29/2024	14:11	-127.363	48.737	0	473.00	0	5.0050	0	34.0900	0	26.958	0	468.464	0	27.7	4	8.9	4	-1E+10	1	-1E+10	1	-1E+10	1	-1E+10	1	-1E+10	1	-1E+10	1
4902663	24	C	03/29/2024	14:11	-127.363	48.737	0	477.90	0	4.9870	0	34.0930	0	26.962	0	473.311	0	27.2	4	8.8	4	-1E+10	1	-1E+10	1	-1E+10	1	-1E+10	1	-1E+10	1	-1E+10	1
4902663	24	C	03/29/2024	14:11	-127.363	48.737	0	482.80	0	4.9770	0	34.0950	0	26.965	0	478.158	0	26.7	4	8.6	4	-1E+10	1	-1E+10	1	-1E+10	1	-1E+10	1	-1E+10	1	-1E+10	1
4902663	24	C	03/29/2024	14:11	-127.363	48.737	0	487.60	0	4.9650	0	34.0970	0	26.968	0	482.907	0	26.2	4	8.5	4	-1E+10	1	-1E+10	1	-1E+10	1	-1E+10	1	-1E+10	1	-1E+10	1
4902663	24	C	03/29/2024	14:11	-127.363	48.737	0	492.80	0	4.9610	0	34.0980	0	26.969	0	488.050	0	25.5	4	8.2	4	-1E+10	1	-1E+10	1	-1E+10	1	-1E+10	1	-1E+10	1	-1E+10	1
4902663	24	C	03/29/2024	14:11	-127.363	48.737	0	498.00	0	4.9400	0	34.1020	0	26.975	0	493.194	0	24.6	4	7.9	4	-1E+10	1	-1E+10	1	-1E+10	1	-1E+10	1	-1E+10	1	-1E+10	1
4902663	24	C	03/29/2024	14:11	-127.363	48.737	0	503.10	0	4.9090	0	34.1070	0	26.982	0	498.239	0	23.5	4	7.6	4	-1E+10	1	-1E+10	1	-1E+10	1	-1E+10	1	-1E+10	1	-1E+10	1
4902663	24	C	03/29/2024	14:11	-127.363	48.737	0	508.30	0	4.8690	0	34.1140	0	26.992	0	503.382	0	22.6	4	7.3	4	-1E+10	1	-1E+10	1	-1E+10	1	-1E+10	1	-1E+10	1	-1E+10	1
4902663	24	C	03/29/2024	14:11	-127.363	48.737	0	513.40	0	4.8430	0	34.1200	0	27.000	0	508.427	0	21.8	4	7.0	4	-1E+10	1	-1E+10	1	-1E+10	1	-1E+10	1	-1E+10	1	-1E+10	1
4902663	24	C	03/29/2024	14:11	-127.363	48.737	0	518.40	0	4.8190	0	34.1240	0	27.006	0	513.372	0	21.2	4	6.8	4	-1E+10	1	-1E+10	1	-1E+10	1	-1E+10	1	-1E+10	1	-1E+10	1
4902663	24	C	03/29/2024	14:11	-127.363	48.737	0	522.90	0	4.8060	0	34.1270	0	27.010	0	517.823	0	20.9	4	6.7	4	-1E+10	1	-1E+10	1	-1E+10	1	-1E+10	1	-1E+10	1	-1E+10	1
4902663	24	C	03/29/2024	14:11	-127.363	48.737	0	527.50	0	4.7940	0	34.1280	0	27.012	0	522.372	0	20.4	4	6.6	4	-1E+10	1	-1E+10	1	-1E+10	1	-1E+10	1	-1E+10	1	-1E+10	1
4902663	24	C	03/29/2024	14:11	-127.363	48.737	0	532.60	0	4.7640	0	34.1310	0	27.018	0	527.416	0	19.8	4	6.4	4	-1E+10	1	-1E+10	1	-1E+10	1	-1E+10	1	-1E+10	1	-1E+10	1
4902663	24	C	03/29/2024	14:11	-127.363	48.737	0	537.70	0	4.7600	0	34.1400	0	27.025	0	532.460	0	18.9	4	6.1	4	-1E+10	1	-1E+10	1	-1E+10	1	-1E+10	1	-1E+10	1	-1E+10	1
4902663	24	C	03/29/2024	14:11	-127.363	48.737	0	542.80	0	4.7460	0	34.1470	0	27.032	0	537.504	0	18.2	4	5.8	4	-1E+10	1	-1E+10	1	-1E+10	1	-1E+10	1	-1E+10	1	-1E+10	1
4902663	24	C	03/29/2024	14:11	-127.363	48.737	0	547.90	0	4.7320	0	34.1500	0	27.036	0	542.547	0	17.5	4	5.6	4	-1E+10	1	-1E+10	1	-1E+10	1	-1E+10	1	-1E+10	1	-1E+10	1
4902663	24	C	03/29/2024	14:11	-127.363	48.737	0	552.90	0	4.7000	0	34.1540	0	27.043	0	547.492	0	16.7	4	5.3	4	-1E+10	1	-1E+10	1	-1E+10	1	-1E+10	1	-1E+10	1	-1E+10	1
4902663	24	C	03/29/2024	14:11	-127.363	48.737	0	557.90	0	4.6780	0	34.1590	0	27.050	0	552.436	0	15.9	4	5.1	4	-1E+10	1	-1E+10	1	-1E+10	1	-1E+10	1	-1E+10	1	-1E+10	1
4902663	24	C	03/29/2024	14:11	-127.363	48.737	0	563.00	0	4.6330	0	34.1660	0	27.060	0	557.480	0	15.0	4	4.8	4	-1E+10	1	-1E+10	1	-1E+10	1	-1E+10	1	-1E+10	1	-1E+10	1
4902663	24	C	03/29/2024	14:11	-127.363	48.737	0	568.10	0	4.6080	0	34.1700	0	27.066	0	562.523	0	14.6	4	4.7	4	-1E+10	1	-1E+10	1	-1E+10	1	-1E+10	1	-1E+10	1	-1E+10	1
4902663	24	C	03/29/2024	14:11	-127.363	48.737	0	572.90	0	4.5840	0	34.1740	0	27.072	0	567.269	0	14.1	4	4.5	4	-1E+10	1	-1E+10	1	-1E+10	1	-1E+10	1	-1E+10	1	-1E+10	1
4902663	24	C	03/29/2024	14:11	-127.363	48.737	0	577.80	0	4.5650	0	34.1790	0	27.078	0	572.114	0	13.7	4	4.4	4	-1E+10	1	-1E+10	1	-1E+10	1	-1E+10	1	-1E+10	1	-1E+10	1
4902663	24	C	03/29/2024	14:11	-127.363	48.737	0	582.70	0	4.5480	0	34.1830	0	27.083	0	576.959	0	13.2	4	4.2	4	-1E+10	1	-1E+10	1	-1E+10	1	-1E+10	1	-1E+10	1	-1E+10	1
4902663	24	C	03/29/2024	14:11	-127.363	48.737	0	587.60	0	4.5280	0	34.1890	0	27.090	0	581.804	0	12.9	4	4.1	4	-1E+10	1	-1E+10	1	-1E+10	1	-1E+10	1	-1E+10	1	-1E+10	1
4902663	24	C	03/29/2024	14:11	-127.363	48.737	0	592.70	0	4.5110	0	34.1930	0	27.095	0	586.847	0	12.7	4	4.1	4	-1E+10	1	-1E+10	1	-1E+10	1	-1E+10	1	-1E+10	1	-1E+10	1
4902663	24	C	03/29/2024	14:11	-127.363	48.737	0	598.00	0	4.5080	0	34.1940	0	27.096	0	592.087	0	12.5	4	4.0	4	-1E+10	1	-1E+10	1	-1E+10	1	-1E+10	1	-1E+10	1	-1E+10	1
4902663	24	C	03/29/2024	14:11	-127.363	48.737	0	602.80	0	4.4940	0	34.1970	0	27.100	0	596.832	0	12.3	4	3.9	4	-1E+10	1	-1E+10	1	-1E+10	1	-1E+10	1	-1E+10	1	-1E+10	1
4902663	24	C	03/29/2024	14:11	-127.363	48.737	0	607.90	0	4.4840	0	34.1990	0	27.103	0	601.875	0	12.2	4	3.9	4	-1E+10	1	-1E+10	1	-1E+10	1	-1E+10	1	-1E+10	1	-1E+10	1
4902663	24	C	03/29/2024	14:11	-127.363	48.737	0	613.20	0	4.4800	0	34.1990	0	27.103	0	607.114	0	12.0	4	3.8	4	-1E+10	1	-1E+10	1	-1E+10	1	-1E+10	1	-1E+10	1	-1E+10	1
4902663	24	C	03/29/2024	14:11	-127.363	48.737	0	618.20	0	4.4760	0	34.1990	0	27.104	0	612.057	0	11.8	4	3.8	4	-1E+10	1	-1E+10	1	-1E+10	1	-1E+10	1	-1E+10	1	-1E+10	1
4902663	24	C	03/29/2024	14:11	-127.363	48.737	0	623.10	0	4.4670	0	34.2020	0	27.107	0	616.901	0	11.5	4	3.7	4	-1E+10	1	-1E+10	1	-1E+10	1	-1E+10	1	-1E+10	1	-1E+10	1
4902663	24	C	03/29/2024	14:11	-127.363	48.737	0	628.20	0	4.4480	0	34.2050	0	27.112	0	621.943	0	11.2	4	3.6	4	-1E+10	1	-1E+10	1	-1E+10	1	-1E+10	1	-1E+10	1	-1E+10	1
4902663	24	C	03/29/2024	14:11	-127.363	48.737	0	633.30	0	4.4110	0	34.2100	0	27.120	0	626.985	0	10.9	4	3.5	4	-1E+10	1	-1E+10	1	-1E+10	1	-1E+10	1	-1E+10	1	-1E+10	1
4902663	24	C	03/29/2024	14:11	-127.363	48.737	0	638.00	0	4.3930	0	34.2140	0	27.125	0	631.631	0	10.6	4	3.4	4	-1E+10	1	-1E+10	1	-1E+10	1	-1E+10	1	-1E+10	1	-1E+10	1
4902663	24	C	03/29/2024	14:11	-127.363	48.737	0	642.80	0	4.3710	0	34.2190	0	27.131	0	636.375	0	10.4	4	3.3	4	-1E+10	1	-1E+10	1	-1E+10	1	-1E+10	1	-1E+10	1	-1E+10	1
4902663	24	C	03/29/2024	14:11	-127.363	48.737	0	648.00	0	4.3620	0	34.2220	0	27.135	0	641.515	0	10.1	4	3.2	4	-1E+10	1	-1E+10	1	-1E+10	1	-1E+10	1	-1E+10	1	-1E+10	1
4902663	24	C	03/29/2024	14:11	-127.363	48.737	0	652.80	0	4.3510	0	34.2270	0	27.140	0	646.260	0	9.9	4	3.2	4	-1E+10	1	-1E+10	1	-1E+10	1	-1E+10	1	-1E+10	1	-1E+10	1
4902663	24	C	03/29/2024	14:11	-127.363	48.737	0	657.70	0	4.3400	0	34.2300	0	27.143	0	651.103	0	9.8	4	3.1	4	-1E+10	1	-1E+10	1	-1E+10	1	-1E+10	1	-1E+10	1	-1E+10	1
4902663	24	C	03/29/2024	14:11	-127.363	48.737	0	663.20	0	4.3280	0	34.2310	0	27.145	0	656.539	0	9.6	4	3.1	4	-1E+10	1	-1E+10	1	-1E+10	1	-1E+10	1	-1E+10	1	-1E+10	1
4902663	24	C	03/29/2024	14:11	-127.363	48.737	0	668.20	0	4.3230	0	34.2340	0	27.148	0	661.481	0	9.4	4	3.0	4	-1E+10	1	-1E+10	1	-1E+10	1	-1E+10	1	-1E+10	1	-1E+10	1
4902663	24	C	03/29/2024	14:11	-127.363	48.737	0	672.60	0	4.3090	0	34.2370	0	27.152	0	665.830	0	9.2	4	2.9	4	-1E+10	1	-1E+10	1	-1E+10	1	-1E+10	1	-1E+10	1	-1E+10	1
4902663	24	C	03/29/2024	14:11	-127.363	48.737	0	677.70	0	4.2940	0	34.2410	0	27.157	0	670.870	0	9.0	4	2.9	4	-1E+10	1	-1E+10	1	-1E+10	1	-1E+10	1	-1E+10	1	-1E+10	1
4902663	24	C	03/29/2024	14:11	-127.363	48.737	0	683.20	0	4.2770	0	34.2460	0	27.163	0	676.306	0	8.8	4	2.8	4	-1E+10	1	-1E+10	1	-1E+10	1	-1E+10	1	-1E+10	1	-1E+10	1
4902663	24	C	03/29/2024	14:11	-127.363	48.737	0	688.20	0	4.2580	0	34.2510	0	27.169	0	681.247	0	8.7	4	2.8	4	-1E+10	1	-1E+10	1	-1E+10	1	-1E+10	1	-1E+10	1	-1E+10	1
4902663	24	C	03/29/2024	14:11	-127.363	48.737	0	693.20	0	4.2510	0	34.2530	0	27.171	0	686.189	0	8.7	4	2.8	4	-1E+10	1	-1E+10	1	-1E+10	1	-1E+10	1	-1E+10	1	-1E+10	1
4902663	24	C	03/29/2024	14:11	-127.363	48.737	0	698.10	0	4.2440	0	34.2540	0	27.173	0	691.031	0	8.6	4	2.7	4	-1E+10	1	-1E+10	1	-1E+10	1	-1E+10	1	-1E+10	1	-1E+10	1
4902663	24	C	03/29/2024	14:11	-127.363	48.737	0	703.10	0	4.2360	0	34.2560	0	27.175	0	695.972	0	8.4	4	2.7	4	-1E+10	1	-1E+10	1	-1E+10	1	-1E+10	1	-1E+10	1	-1E+10	1
4902663	24	C	03/29/2024	14:11	-127.363	48.737	0	708.10	0	4.2220	0	34.2610	0	27.181	0	700.913	0	8.3	4	2.6	4	-1E+10	1	-1E+10	1	-1E+10	1	-1E+10	1	-1E+10	1	-1E+10	1
4902663	24	C	03/29/2024	14:11	-127.363	48.737	0	713.20	0	4.2110	0	34.2640	0	27.184	0	705.952	0	8.2	4	2.6	4	-1E+10	1	-1E+10	1	-1E+10	1	-1E+10	1	-1E+10	1	-1E+10	1
4902663	24	C	03/29/2024	14:11	-127.363	48.737	0	718.20	0	4.2000	0	34.2660	0	27.187	0	710.893	0	8.1	4	2.6	4	-1E+10	1	-1E+10	1	-1E+10	1	-1E+10	1	-1E+10	1	-1E+10	1
4902663	24	C	03/29/2024	14:11	-127.363	48.737	0	723.20	0	4.1820	0	34.2690	0	27.191	0	715.834	0	8.0	4	2.5	4	-1E+10	1	-1E+10	1	-1E+10	1	-1E+10	1	-1E+10	1	-1E+10	1
4902663	24	C	03/29/2024	14:11	-127.363	48.737	0	728.10	0	4.1580	0	34.2730	0	27.197	0	720.675	0	7.9	4	2.5	4	-1E+10	1	-1E+10	1	-1E+10	1	-1E+10	1	-1E+10	1	-1E+10	1
4902663	24	C	03/29/2024	14:11	-127.363	48.737	0	733.10	0	4.1420	0	34.2760	0	27.201	0	725.616	0	7.8	4	2.5	4	-1E+10	1	-1E+10	1	-1E+10	1	-1E+10	1	-1E+10	1	-1E+10	1
4902663	24	C	03/29/2024	14:11	-127.363	48.737	0	738.10	0	4.1290	0	34.2780	0	27.204	0	730.556	0	7.8	4	2.5	4	-1E+10	1	-1E+10	1	-1E+10	1	-1E+10	1	-1E+10	1	-1E+10	1
4902663	24	C	03/29/2024	14:11	-127.363	48.737	0	743.10	0	4.1060	0	34.2810	0	27.209	0	735.496	0	7.8	4	2.5	4	-1E+10	1	-1E+10	1	-1E+10	1	-1E+10	1	-1E+10	1	-1E+10	1
4902663	24	C	03/29/2024	14:11	-127.363	48.737	0	748.10	0	4.0950	0	34.2810	0	27.210	0	740.436	0	7.8	4	2.5	4	-1E+10	1	-1E+10	1	-1E+10	1	-1E+10	1	-1E+10	1	-1E+10	1
4902663	24	C	03/29/2024	14:11	-127.363	48.737	0	753.10	0	4.0820	0	34.2830	0	27.213	0	745.376	0	7.7	4	2.5	4	-1E+10	1	-1E+10	1	-1E+10	1	-1E+10	1	-1E+10	1	-1E+10	1
4902663	24	C	03/29/2024	14:11	-127.363	48.737	0	758.00	0	4.0720	0	34.2840	0	27.215	0	750.217	0	7.7	4	2.4	4	-1E+10	1	-1E+10	1	-1E+10	1	-1E+10	1	-1E+10	1	-1E+10	1
4902663	24	C	03/29/2024	14:11	-127.363	48.737	0	763.00	0	4.0530	0	34.2870	0	27.219	0	755.156	0	7.7	4	2.4	4	-1E+10	1	-1E+10	1	-1E+10	1	-1E+10	1	-1E+10	1	-1E+10	1
4902663	24	C	03/29/2024	14:11	-127.363	48.737	0	767.90	0	4.0390	0	34.2880	0	27.222	0	759.997	0	7.6	4	2.4	4	-1E+10	1	-1E+10	1	-1E+10	1	-1E+10	1	-1E+10	1	-1E+10	1
4902663	24	C	03/29/2024	14:11	-127.363	48.737	0	772.90	0	4.0370	0	34.2890	0	27.223	0	764.936	0	7.6	4	2.4	4	-1E+10	1	-1E+10	1	-1E+10	1	-1E+10	1	-1E+10	1	-1E+10	1
4902663	24	C	03/29/2024	14:11	-127.363	48.737	0	777.90	0	4.0310	0	34.2900	0	27.224	0	769.876	0	7.5	4	2.4	4	-1E+10	1	-1E+10	1	-1E+10	1	-1E+10	1	-1E+10	1	-1E+10	1
4902663	24	C	03/29/2024	14:11	-127.363	48.737	0	782.90	0	4.0200	0	34.2920	0	27.227	0	774.815	0	7.5	4	2.4	4	-1E+10	1	-1E+10	1	-1E+10	1	-1E+10	1	-1E+10	1	-1E+10	1
4902663	24	C	03/29/2024	14:11	-127.363	48.737	0	787.90	0	4.0150	0	34.2950	0	27.230	0	779.754	0	7.3	4	2.3	4	-1E+10	1	-1E+10	1	-1E+10	1	-1E+10	1	-1E+10	1	-1E+10	1
4902663	24	C	03/29/2024	14:11	-127.363	48.737	0	792.80	0	4.0010	0	34.2980	0	27.234	0	784.594	0	7.2	4	2.3	4	-1E+10	1	-1E+10	1	-1E+10	1	-1E+10	1	-1E+10	1	-1E+10	1
4902663	24	C	03/29/2024	14:11	-127.363	48.737	0	797.70	0	4.0000	0	34.3030	0	27.238	0	789.434	0	7.1	4	2.2	4	-1E+10	1	-1E+10	1	-1E+10	1	-1E+10	1	-1E+10	1	-1E+10	1
4902663	24	C	03/29/2024	14:11	-127.363	48.737	0	802.70	0	4.0040	0	34.3090	0	27.242	0	794.373	0	7.0	4	2.2	4	-1E+10	1	-1E+10	1	-1E+10	1	-1E+10	1	-1E+10	1	-1E+10	1
4902663	24	C	03/29/2024	14:11	-127.363	48.737	0	808.20	0	3.9770	0	34.3120	0	27.247	0	799.805	0	7.0	4	2.2	4	-1E+10	1	-1E+10	1	-1E+10	1	-1E+10	1	-1E+10	1	-1E+10	1
4902663	24	C	03/29/2024	14:11	-127.363	48.737	0	813.10	0	3.9610	0	34.3140	0	27.251	0	804.645	0	7.0	4	2.2	4	-1E+10	1	-1E+10	1	-1E+10	1	-1E+10	1	-1E+10	1	-1E+10	1
4902663	24	C	03/29/2024	14:11	-127.363	48.737	0	817.90	0	3.9440	0	34.3160	0	27.254	0	809.386	0	6.9	4	2.2	4	-1E+10	1	-1E+10	1	-1E+10	1	-1E+10	1	-1E+10	1	-1E+10	1
4902663	24	C	03/29/2024	14:11	-127.363	48.737	0	822.80	0	3.9380	0	34.3180	0	27.256	0	814.225	0	6.9	4	2.2	4	-1E+10	1	-1E+10	1	-1E+10	1	-1E+10	1	-1E+10	1	-1E+10	1
4902663	24	C	03/29/2024	14:11	-127.363	48.737	0	827.70	0	3.9290	0	34.3200	0	27.259	0	819.064	0	6.8	4	2.1	4	-1E+10	1	-1E+10	1	-1E+10	1	-1E+10	1	-1E+10	1	-1E+10	1
4902663	24	C	03/29/2024	14:11	-127.363	48.737	0	833.00	0	3.9180	0	34.3230	0	27.262	0	824.299	0	6.7	4	2.1	4	-1E+10	1	-1E+10	1	-1E+10	1	-1E+10	1	-1E+10	1	-1E+10	1
4902663	24	C	03/29/2024	14:11	-127.363	48.737	0	837.90	0	3.9010	0	34.3280	0	27.268	0	829.138	0	6.7	4	2.1	4	-1E+10	1	-1E+10	1	-1E+10	1	-1E+10	1	-1E+10	1	-1E+10	1
4902663	24	C	03/29/2024	14:11	-127.363	48.737	0	842.70	0	3.8810	0	34.3300	0	27.272	0	833.878	0	6.8	4	2.1	4	-1E+10	1	-1E+10	1	-1E+10	1	-1E+10	1	-1E+10	1	-1E+10	1
4902663	24	C	03/29/2024	14:11	-127.363	48.737	0	848.10	0	3.8550	0	34.3330	0	27.277	0	839.211	0	6.9	4	2.2	4	-1E+10	1	-1E+10	1	-1E+10	1	-1E+10	1	-1E+10	1	-1E+10	1
4902663	24	C	03/29/2024	14:11	-127.363	48.737	0	853.20	0	3.8360	0	34.3350	0	27.280	0	844.247	0	6.9	4	2.2	4	-1E+10	1	-1E+10	1	-1E+10	1	-1E+10	1	-1E+10	1	-1E+10	1
4902663	24	C	03/29/2024	14:11	-127.363	48.737	0	857.80	0	3.8210	0	34.3380	0	27.284	0	848.789	0	6.9	4	2.2	4	-1E+10	1	-1E+10	1	-1E+10	1	-1E+10	1	-1E+10	1	-1E+10	1
4902663	24	C	03/29/2024	14:11	-127.363	48.737	0	862.80	0	3.7940	0	34.3400	0	27.289	0	853.726	0	7.0	4	2.2	4	-1E+10	1	-1E+10	1	-1E+10	1	-1E+10	1	-1E+10	1	-1E+10	1
4902663	24	C	03/29/2024	14:11	-127.363	48.737	0	867.90	0	3.7820	0	34.3440	0	27.293	0	858.762	0	7.0	4	2.2	4	-1E+10	1	-1E+10	1	-1E+10	1	-1E+10	1	-1E+10	1	-1E+10	1
4902663	24	C	03/29/2024	14:11	-127.363	48.737	0	873.00	0	3.7720	0	34.3470	0	27.296	0	863.798	0	7.0	4	2.2	4	-1E+10	1	-1E+10	1	-1E+10	1	-1E+10	1	-1E+10	1	-1E+10	1
4902663	24	C	03/29/2024	14:11	-127.363	48.737	0	878.10	0	3.7540	0	34.3490	0	27.300	0	868.834	0	7.1	4	2.2	4	-1E+10	1	-1E+10	1	-1E+10	1	-1E+10	1	-1E+10	1	-1E+10	1
4902663	24	C	03/29/2024	14:11	-127.363	48.737	0	883.20	0	3.7240	0	34.3500	0	27.304	0	873.869	0	7.2	4	2.2	4	-1E+10	1	-1E+10	1	-1E+10	1	-1E+10	1	-1E+10	1	-1E+10	1
4902663	24	C	03/29/2024	14:11	-127.363	48.737	0	887.90	0	3.7210	0	34.3510	0	27.305	0	878.510	0	7.3	4	2.3	4	-1E+10	1	-1E+10	1	-1E+10	1	-1E+10	1	-1E+10	1	-1E+10	1
4902663	24	C	03/29/2024	14:11	-127.363	48.737	0	892.60	0	3.7000	0	34.3520	0	27.308	0	883.150	0	7.4	4	2.3	4	-1E+10	1	-1E+10	1	-1E+10	1	-1E+10	1	-1E+10	1	-1E+10	1
4902663	24	C	03/29/2024	14:11	-127.363	48.737	0	897.80	0	3.6240	0	34.3510	0	27.314	0	888.284	0	7.7	4	2.4	4	-1E+10	1	-1E+10	1	-1E+10	1	-1E+10	1	-1E+10	1	-1E+10	1
4902663	24	C	03/29/2024	14:11	-127.363	48.737	0	903.00	0	3.5870	0	34.3490	0	27.316	0	893.418	0	7.7	4	2.4	4	-1E+10	1	-1E+10	1	-1E+10	1	-1E+10	1	-1E+10	1	-1E+10	1
4902663	24	C	03/29/2024	14:11	-127.363	48.737	0	908.00	0	3.5700	0	34.3500	0	27.319	0	898.354	0	7.8	4	2.4	4	-1E+10	1	-1E+10	1	-1E+10	1	-1E+10	1	-1E+10	1	-1E+10	1
4902663	24	C	03/29/2024	14:11	-127.363	48.737	0	912.80	0	3.5530	0	34.3520	0	27.322	0	903.093	0	7.8	4	2.5	4	-1E+10	1	-1E+10	1	-1E+10	1	-1E+10	1	-1E+10	1	-1E+10	1
4902663	24	C	03/29/2024	14:11	-127.363	48.737	0	917.80	0	3.5400	0	34.3530	0	27.324	0	908.029	0	7.9	4	2.5	4	-1E+10	1	-1E+10	1	-1E+10	1	-1E+10	1	-1E+10	1	-1E+10	1
4902663	24	C	03/29/2024	14:11	-127.363	48.737	0	922.90	0	3.5130	0	34.3580	0	27.331	0	913.063	0	7.9	4	2.5	4	-1E+10	1	-1E+10	1	-1E+10	1	-1E+10	1	-1E+10	1	-1E+10	1
4902663	24	C	03/29/2024	14:11	-127.363	48.737	0	928.00	0	3.5020	0	34.3640	0	27.337	0	918.098	0	7.9	4	2.5	4	-1E+10	1	-1E+10	1	-1E+10	1	-1E+10	1	-1E+10	1	-1E+10	1
4902663	24	C	03/29/2024	14:11	-127.363	48.737	0	932.80	0	3.4880	0	34.3680	0	27.341	0	922.836	0	7.9	4	2.5	4	-1E+10	1	-1E+10	1	-1E+10	1	-1E+10	1	-1E+10	1	-1E+10	1
4902663	24	C	03/29/2024	14:11	-127.363	48.737	0	937.60	0	3.4840	0	34.3700	0	27.343	0	927.574	0	8.0	4	2.5	4	-1E+10	1	-1E+10	1	-1E+10	1	-1E+10	1	-1E+10	1	-1E+10	1
4902663	24	C	03/29/2024	14:11	-127.363	48.737	0	942.90	0	3.4720	0	34.3730	0	27.347	0	932.806	0	8.0	4	2.5	4	-1E+10	1	-1E+10	1	-1E+10	1	-1E+10	1	-1E+10	1	-1E+10	1
4902663	24	C	03/29/2024	14:11	-127.363	48.737	0	948.40	0	3.4620	0	34.3770	0	27.351	0	938.234	0	8.1	4	2.5	4	-1E+10	1	-1E+10	1	-1E+10	1	-1E+10	1	-1E+10	1	-1E+10	1
4902663	24	C	03/29/2024	14:11	-127.363	48.737	0	952.90	0	3.4580	0	34.3800	0	27.354	0	942.676	0	8.1	4	2.5	4	-1E+10	1	-1E+10	1	-1E+10	1	-1E+10	1	-1E+10	1	-1E+10	1
4902663	24	C	03/29/2024	14:11	-127.363	48.737	0	957.50	0	3.4540	0	34.3830	0	27.357	0	947.216	0	8.2	4	2.5	4	-1E+10	1	-1E+10	1	-1E+10	1	-1E+10	1	-1E+10	1	-1E+10	1
4902663	24	C	03/29/2024	14:11	-127.363	48.737	0	963.00	0	3.4510	0	34.3840	0	27.358	0	952.645	0	8.2	4	2.6	4	-1E+10	1	-1E+10	1	-1E+10	1	-1E+10	1	-1E+10	1	-1E+10	1
4902663	24	C	03/29/2024	14:11	-127.363	48.737	0	968.10	0	3.4460	0	34.3860	0	27.360	0	957.678	0	8.2	4	2.6	4	-1E+10	1	-1E+10	1	-1E+10	1	-1E+10	1	-1E+10	1	-1E+10	1
4902663	24	C	03/29/2024	14:11	-127.363	48.737	0	973.00	0	3.4410	0	34.3870	0	27.361	0	962.514	0	8.3	4	2.6	4	-1E+10	1	-1E+10	1	-1E+10	1	-1E+10	1	-1E+10	1	-1E+10	1
4902663	24	C	03/29/2024	14:11	-127.363	48.737	0	978.00	0	3.4380	0	34.3870	0	27.361	0	967.449	0	8.3	4	2.6	4	-1E+10	1	-1E+10	1	-1E+10	1	-1E+10	1	-1E+10	1	-1E+10	1
4902663	24	C	03/29/2024	14:11	-127.363	48.737	0	983.00	0	3.4280	0	34.3890	0	27.364	0	972.383	0	8.4	4	2.6	4	-1E+10	1	-1E+10	1	-1E+10	1	-1E+10	1	-1E+10	1	-1E+10	1
4902663	24	C	03/29/2024	14:11	-127.363	48.737	0	988.00	0	3.4180	0	34.3890	0	27.365	0	977.318	0	8.5	4	2.6	4	-1E+10	1	-1E+10	1	-1E+10	1	-1E+10	1	-1E+10	1	-1E+10	1
4902663	24	C	03/29/2024	14:11	-127.363	48.737	0	993.00	0	3.4060	0	34.3920	0	27.369	0	982.252	0	8.5	4	2.7	4	-1E+10	1	-1E+10	1	-1E+10	1	-1E+10	1	-1E+10	1	-1E+10	1
4902663	24	C	03/29/2024	14:11	-127.363	48.737	0	998.00	0	3.3960	0	34.3950	0	27.372	0	987.186	0	8.6	4	2.7	4	-1E+10	1	-1E+10	1	-1E+10	1	-1E+10	1	-1E+10	1	-1E+10	1
4902663	24	C	03/29/2024	14:11	-127.363	48.737	0	1005.60	0	3.3780	0	34.3980	0	27.376	0	994.686	0	8.7	4	2.7	4	-1E+10	1	-1E+10	1	-1E+10	1	-1E+10	1	-1E+10	1	-1E+10	1
4902663	24	C	03/29/2024	14:11	-127.363	48.737	0	1015.60	0	3.3670	0	34.4040	0	27.382	0	1004.553	0	8.9	4	2.8	4	-1E+10	1	-1E+10	1	-1E+10	1	-1E+10	1	-1E+10	1	-1E+10	1
4902663	24	C	03/29/2024	14:11	-127.363	48.737	0	1025.70	0	3.3530	0	34.4080	0	27.387	0	1014.519	0	9.2	4	2.9	4	-1E+10	1	-1E+10	1	-1E+10	1	-1E+10	1	-1E+10	1	-1E+10	1
4902663	24	C	03/29/2024	14:11	-127.363	48.737	0	1035.50	0	3.3510	0	34.4160	0	27.393	0	1024.188	0	9.4	4	2.9	4	-1E+10	1	-1E+10	1	-1E+10	1	-1E+10	1	-1E+10	1	-1E+10	1
4902663	24	C	03/29/2024	14:11	-127.363	48.737	0	1045.40	0	3.3220	0	34.4180	0	27.398	0	1033.956	0	9.6	4	3.0	4	-1E+10	1	-1E+10	1	-1E+10	1	-1E+10	1	-1E+10	1	-1E+10	1
4902663	24	C	03/29/2024	14:11	-127.363	48.737	0	1055.40	0	3.2980	0	34.4200	0	27.401	0	1043.821	0	9.8	4	3.0	4	-1E+10	1	-1E+10	1	-1E+10	1	-1E+10	1	-1E+10	1	-1E+10	1
4902663	24	C	03/29/2024	14:11	-127.363	48.737	0	1065.40	0	3.2660	0	34.4220	0	27.406	0	1053.686	0	10.1	4	3.1	4	-1E+10	1	-1E+10	1	-1E+10	1	-1E+10	1	-1E+10	1	-1E+10	1
4902663	24	C	03/29/2024	14:11	-127.363	48.737	0	1075.70	0	3.2580	0	34.4260	0	27.410	0	1063.847	0	10.5	4	3.2	4	-1E+10	1	-1E+10	1	-1E+10	1	-1E+10	1	-1E+10	1	-1E+10	1
4902663	24	C	03/29/2024	14:11	-127.363	48.737	0	1085.30	0	3.2550	0	34.4290	0	27.413	0	1073.317	0	10.7	4	3.3	4	-1E+10	1	-1E+10	1	-1E+10	1	-1E+10	1	-1E+10	1	-1E+10	1
4902663	24	C	03/29/2024	14:11	-127.363	48.737	0	1095.10	0	3.2350	0	34.4310	0	27.416	0	1082.983	0	10.9	4	3.4	4	-1E+10	1	-1E+10	1	-1E+10	1	-1E+10	1	-1E+10	1	-1E+10	1
4902663	24	C	03/29/2024	14:11	-127.363	48.737	0	1105.20	0	3.2180	0	34.4320	0	27.419	0	1092.945	0	11.1	4	3.4	4	-1E+10	1	-1E+10	1	-1E+10	1	-1E+10	1	-1E+10	1	-1E+10	1
4902663	24	C	03/29/2024	14:11	-127.363	48.737	0	1115.40	0	3.1910	0	34.4350	0	27.424	0	1103.005	0	11.4	4	3.5	4	-1E+10	1	-1E+10	1	-1E+10	1	-1E+10	1	-1E+10	1	-1E+10	1
4902663	24	C	03/29/2024	14:11	-127.363	48.737	0	1125.60	0	3.1540	0	34.4390	0	27.430	0	1113.065	0	11.6	4	3.6	4	-1E+10	1	-1E+10	1	-1E+10	1	-1E+10	1	-1E+10	1	-1E+10	1
4902663	24	C	03/29/2024	14:11	-127.363	48.737	0	1135.40	0	3.1410	0	34.4410	0	27.433	0	1122.730	0	11.8	4	3.6	4	-1E+10	1	-1E+10	1	-1E+10	1	-1E+10	1	-1E+10	1	-1E+10	1
4902663	24	C	03/29/2024	14:11	-127.363	48.737	0	1145.20	0	3.1190	0	34.4440	0	27.438	0	1132.394	0	12.1	4	3.7	4	-1E+10	1	-1E+10	1	-1E+10	1	-1E+10	1	-1E+10	1	-1E+10	1
4902663	24	C	03/29/2024	14:11	-127.363	48.737	0	1155.60	0	3.0970	0	34.4470	0	27.442	0	1142.649	0	12.3	4	3.8	4	-1E+10	1	-1E+10	1	-1E+10	1	-1E+10	1	-1E+10	1	-1E+10	1
4902663	24	C	03/29/2024	14:11	-127.363	48.737	0	1165.50	0	3.0840	0	34.4480	0	27.444	0	1152.411	0	12.5	4	3.9	4	-1E+10	1	-1E+10	1	-1E+10	1	-1E+10	1	-1E+10	1	-1E+10	1
4902663	24	C	03/29/2024	14:11	-127.363	48.737	0	1175.40	0	3.0660	0	34.4500	0	27.448	0	1162.173	0	12.7	4	3.9	4	-1E+10	1	-1E+10	1	-1E+10	1	-1E+10	1	-1E+10	1	-1E+10	1
4902663	24	C	03/29/2024	14:11	-127.363	48.737	0	1185.70	0	3.0400	0	34.4530	0	27.452	0	1172.328	0	13.0	4	4.0	4	-1E+10	1	-1E+10	1	-1E+10	1	-1E+10	1	-1E+10	1	-1E+10	1
4902663	24	C	03/29/2024	14:11	-127.363	48.737	0	1195.60	0	3.0190	0	34.4560	0	27.457	0	1182.089	0	13.4	4	4.1	4	-1E+10	1	-1E+10	1	-1E+10	1	-1E+10	1	-1E+10	1	-1E+10	1
4902663	24	C	03/29/2024	14:11	-127.363	48.737	0	1205.30	0	3.0040	0	34.4570	0	27.459	0	1191.652	0	13.7	4	4.2	4	-1E+10	1	-1E+10	1	-1E+10	1	-1E+10	1	-1E+10	1	-1E+10	1
4902663	24	C	03/29/2024	14:11	-127.363	48.737	0	1215.40	0	2.9790	0	34.4600	0	27.464	0	1201.608	0	14.1	4	4.3	4	-1E+10	1	-1E+10	1	-1E+10	1	-1E+10	1	-1E+10	1	-1E+10	1
4902663	24	C	03/29/2024	14:11	-127.363	48.737	0	1225.30	0	2.9560	0	34.4630	0	27.468	0	1211.368	0	14.4	4	4.5	4	-1E+10	1	-1E+10	1	-1E+10	1	-1E+10	1	-1E+10	1	-1E+10	1
4902663	24	C	03/29/2024	14:11	-127.363	48.737	0	1235.40	0	2.9430	0	34.4650	0	27.471	0	1221.323	0	14.7	4	4.5	4	-1E+10	1	-1E+10	1	-1E+10	1	-1E+10	1	-1E+10	1	-1E+10	1
4902663	24	C	03/29/2024	14:11	-127.363	48.737	0	1245.60	0	2.9210	0	34.4670	0	27.475	0	1231.377	0	15.2	4	4.7	4	-1E+10	1	-1E+10	1	-1E+10	1	-1E+10	1	-1E+10	1	-1E+10	1
4902663	24	C	03/29/2024	14:11	-127.363	48.737	0	1255.70	0	2.8960	0	34.4710	0	27.480	0	1241.332	0	15.4	4	4.8	4	-1E+10	1	-1E+10	1	-1E+10	1	-1E+10	1	-1E+10	1	-1E+10	1
4902663	24	C	03/29/2024	14:11	-127.363	48.737	0	1265.30	0	2.8860	0	34.4710	0	27.481	0	1250.794	0	15.6	4	4.8	4	-1E+10	1	-1E+10	1	-1E+10	1	-1E+10	1	-1E+10	1	-1E+10	1
4902663	24	C	03/29/2024	14:11	-127.363	48.737	0	1275.30	0	2.8830	0	34.4730	0	27.483	0	1260.649	0	15.8	4	4.9	4	-1E+10	1	-1E+10	1	-1E+10	1	-1E+10	1	-1E+10	1	-1E+10	1
4902663	24	C	03/29/2024	14:11	-127.363	48.737	0	1285.40	0	2.8740	0	34.4740	0	27.485	0	1270.603	0	16.2	4	5.0	4	-1E+10	1	-1E+10	1	-1E+10	1	-1E+10	1	-1E+10	1	-1E+10	1
4902663	24	C	03/29/2024	14:11	-127.363	48.737	0	1295.40	0	2.8550	0	34.4760	0	27.488	0	1280.457	0	16.6	4	5.1	4	-1E+10	1	-1E+10	1	-1E+10	1	-1E+10	1	-1E+10	1	-1E+10	1
4902663	24	C	03/29/2024	14:11	-127.363	48.737	0	1305.60	0	2.8360	0	34.4780	0	27.491	0	1290.508	0	17.0	4	5.2	4	-1E+10	1	-1E+10	1	-1E+10	1	-1E+10	1	-1E+10	1	-1E+10	1
4902663	24	C	03/29/2024	14:11	-127.363	48.737	0	1315.50	0	2.8130	0	34.4810	0	27.496	0	1300.263	0	17.5	4	5.4	4	-1E+10	1	-1E+10	1	-1E+10	1	-1E+10	1	-1E+10	1	-1E+10	1
4902663	24	C	03/29/2024	14:11	-127.363	48.737	0	1325.50	0	2.7910	0	34.4830	0	27.499	0	1310.117	0	17.9	4	5.5	4	-1E+10	1	-1E+10	1	-1E+10	1	-1E+10	1	-1E+10	1	-1E+10	1
4902663	24	C	03/29/2024	14:11	-127.363	48.737	0	1335.80	0	2.7730	0	34.4850	0	27.503	0	1320.265	0	18.2	4	5.6	4	-1E+10	1	-1E+10	1	-1E+10	1	-1E+10	1	-1E+10	1	-1E+10	1
4902663	24	C	03/29/2024	14:11	-127.363	48.737	0	1345.80	0	2.7660	0	34.4860	0	27.504	0	1330.117	0	18.4	4	5.6	4	-1E+10	1	-1E+10	1	-1E+10	1	-1E+10	1	-1E+10	1	-1E+10	1
4902663	24	C	03/29/2024	14:11	-127.363	48.737	0	1355.80	0	2.7530	0	34.4870	0	27.506	0	1339.969	0	18.8	4	5.8	4	-1E+10	1	-1E+10	1	-1E+10	1	-1E+10	1	-1E+10	1	-1E+10	1
4902663	24	C	03/29/2024	14:11	-127.363	48.737	0	1365.70	0	2.7300	0	34.4890	0	27.510	0	1349.721	0	19.3	4	5.9	4	-1E+10	1	-1E+10	1	-1E+10	1	-1E+10	1	-1E+10	1	-1E+10	1
4902663	24	C	03/29/2024	14:11	-127.363	48.737	0	1375.50	0	2.7110	0	34.4920	0	27.514	0	1359.375	0	19.7	4	6.0	4	-1E+10	1	-1E+10	1	-1E+10	1	-1E+10	1	-1E+10	1	-1E+10	1
4902663	24	C	03/29/2024	14:11	-127.363	48.737	0	1385.30	0	2.6950	0	34.4930	0	27.516	0	1369.028	0	20.2	4	6.2	4	-1E+10	1	-1E+10	1	-1E+10	1	-1E+10	1	-1E+10	1	-1E+10	1
4902663	24	C	03/29/2024	14:11	-127.363	48.737	0	1395.50	0	2.6740	0	34.4960	0	27.520	0	1379.075	0	20.8	4	6.4	4	-1E+10	1	-1E+10	1	-1E+10	1	-1E+10	1	-1E+10	1	-1E+10	1
4902663	24	C	03/29/2024	14:11	-127.363	48.737	0	1405.60	0	2.6540	0	34.4990	0	27.524	0	1389.023	0	21.3	4	6.5	4	-1E+10	1	-1E+10	1	-1E+10	1	-1E+10	1	-1E+10	1	-1E+10	1
4902663	24	C	03/29/2024	14:11	-127.363	48.737	0	1415.20	0	2.6360	0	34.5000	0	27.527	0	1398.478	0	21.6	4	6.6	4	-1E+10	1	-1E+10	1	-1E+10	1	-1E+10	1	-1E+10	1	-1E+10	1
4902663	24	C	03/29/2024	14:11	-127.363	48.737	0	1425.30	0	2.6160	0	34.5020	0	27.530	0	1408.425	0	22.1	4	6.7	4	-1E+10	1	-1E+10	1	-1E+10	1	-1E+10	1	-1E+10	1	-1E+10	1
4902663	24	C	03/29/2024	14:11	-127.363	48.737	0	1435.20	0	2.6040	0	34.5030	0	27.532	0	1418.175	0	22.5	4	6.9	4	-1E+10	1	-1E+10	1	-1E+10	1	-1E+10	1	-1E+10	1	-1E+10	1
4902663	24	C	03/29/2024	14:11	-127.363	48.737	0	1445.20	0	2.5850	0	34.5050	0	27.535	0	1428.022	0	23.2	4	7.1	4	-1E+10	1	-1E+10	1	-1E+10	1	-1E+10	1	-1E+10	1	-1E+10	1
4902663	24	C	03/29/2024	14:11	-127.363	48.737	0	1455.30	0	2.5610	0	34.5080	0	27.540	0	1437.968	0	24.0	4	7.3	4	-1E+10	1	-1E+10	1	-1E+10	1	-1E+10	1	-1E+10	1	-1E+10	1
4902663	24	C	03/29/2024	14:11	-127.363	48.737	0	1465.10	0	2.5470	0	34.5120	0	27.544	0	1447.618	0	24.9	4	7.6	4	-1E+10	1	-1E+10	1	-1E+10	1	-1E+10	1	-1E+10	1	-1E+10	1
4902663	24	C	03/29/2024	14:11	-127.363	48.737	0	1475.40	0	2.5220	0	34.5150	0	27.549	0	1457.759	0	25.4	4	7.8	4	-1E+10	1	-1E+10	1	-1E+10	1	-1E+10	1	-1E+10	1	-1E+10	1
4902663	24	C	03/29/2024	14:11	-127.363	48.737	0	1485.50	0	2.4890	0	34.5150	0	27.552	0	1467.703	0	25.6	4	7.8	4	-1E+10	1	-1E+10	1	-1E+10	1	-1E+10	1	-1E+10	1	-1E+10	1
4902663	24	C	03/29/2024	14:11	-127.363	48.737	0	1495.40	0	2.4680	0	34.5170	0	27.555	0	1477.450	0	26.2	4	8.0	4	-1E+10	1	-1E+10	1	-1E+10	1	-1E+10	1	-1E+10	1	-1E+10	1
4902663	24	C	03/29/2024	14:11	-127.363	48.737	0	1505.80	0	2.4560	0	34.5180	0	27.557	0	1487.689	0	26.6	4	8.1	4	-1E+10	1	-1E+10	1	-1E+10	1	-1E+10	1	-1E+10	1	-1E+10	1
4902663	24	C	03/29/2024	14:11	-127.363	48.737	0	1515.80	0	2.4410	0	34.5200	0	27.560	0	1497.533	0	27.1	4	8.2	4	-1E+10	1	-1E+10	1	-1E+10	1	-1E+10	1	-1E+10	1	-1E+10	1
4902663	24	C	03/29/2024	14:11	-127.363	48.737	0	1526.10	0	2.4260	0	34.5210	0	27.562	0	1507.672	0	27.5	4	8.4	4	-1E+10	1	-1E+10	1	-1E+10	1	-1E+10	1	-1E+10	1	-1E+10	1
4902663	24	C	03/29/2024	14:11	-127.363	48.737	0	1535.30	0	2.4160	0	34.5220	0	27.564	0	1516.728	0	27.9	4	8.5	4	-1E+10	1	-1E+10	1	-1E+10	1	-1E+10	1	-1E+10	1	-1E+10	1
4902663	24	C	03/29/2024	14:11	-127.363	48.737	0	1545.30	0	2.4040	0	34.5240	0	27.566	0	1526.571	0	28.5	4	8.7	4	-1E+10	1	-1E+10	1	-1E+10	1	-1E+10	1	-1E+10	1	-1E+10	1
4902663	24	C	03/29/2024	14:11	-127.363	48.737	0	1555.40	0	2.3860	0	34.5270	0	27.570	0	1536.512	0	29.4	4	8.9	4	-1E+10	1	-1E+10	1	-1E+10	1	-1E+10	1	-1E+10	1	-1E+10	1
4902663	24	C	03/29/2024	14:11	-127.363	48.737	0	1565.30	0	2.3590	0	34.5300	0	27.575	0	1546.256	0	30.0	4	9.1	4	-1E+10	1	-1E+10	1	-1E+10	1	-1E+10	1	-1E+10	1	-1E+10	1
4902663	24	C	03/29/2024	14:11	-127.363	48.737	0	1575.00	0	2.3530	0	34.5310	0	27.576	0	1555.802	0	30.2	4	9.2	4	-1E+10	1	-1E+10	1	-1E+10	1	-1E+10	1	-1E+10	1	-1E+10	1
4902663	24	C	03/29/2024	14:11	-127.363	48.737	0	1585.10	0	2.3510	0	34.5310	0	27.576	0	1565.742	0	30.6	4	9.3	4	-1E+10	1	-1E+10	1	-1E+10	1	-1E+10	1	-1E+10	1	-1E+10	1
4902663	24	C	03/29/2024	14:11	-127.363	48.737	0	1595.30	0	2.3410	0	34.5340	0	27.580	0	1575.779	0	31.3	4	9.5	4	-1E+10	1	-1E+10	1	-1E+10	1	-1E+10	1	-1E+10	1	-1E+10	1
4902663	24	C	03/29/2024	14:11	-127.363	48.737	0	1605.60	0	2.3350	0	34.5360	0	27.582	0	1585.914	0	32.0	4	9.7	4	-1E+10	1	-1E+10	1	-1E+10	1	-1E+10	1	-1E+10	1	-1E+10	1
4902663	24	C	03/29/2024	14:11	-127.363	48.737	0	1615.50	0	2.3220	0	34.5390	0	27.585	0	1595.656	0	32.6	4	9.9	4	-1E+10	1	-1E+10	1	-1E+10	1	-1E+10	1	-1E+10	1	-1E+10	1
4902663	24	C	03/29/2024	14:11	-127.363	48.737	0	1625.10	0	2.3130	0	34.5400	0	27.587	0	1605.101	0	33.2	4	10.1	4	-1E+10	1	-1E+10	1	-1E+10	1	-1E+10	1	-1E+10	1	-1E+10	1
4902663	24	C	03/29/2024	14:11	-127.363	48.737	0	1635.40	0	2.2980	0	34.5420	0	27.590	0	1615.236	0	33.8	4	10.3	4	-1E+10	1	-1E+10	1	-1E+10	1	-1E+10	1	-1E+10	1	-1E+10	1
4902663	24	C	03/29/2024	14:11	-127.363	48.737	0	1645.70	0	2.2780	0	34.5440	0	27.593	0	1625.369	0	34.5	4	10.5	4	-1E+10	1	-1E+10	1	-1E+10	1	-1E+10	1	-1E+10	1	-1E+10	1
4902663	24	C	03/29/2024	14:11	-127.363	48.737	0	1655.60	0	2.2650	0	34.5460	0	27.596	0	1635.108	0	35.0	4	10.6	4	-1E+10	1	-1E+10	1	-1E+10	1	-1E+10	1	-1E+10	1	-1E+10	1
4902663	24	C	03/29/2024	14:11	-127.363	48.737	0	1665.60	0	2.2450	0	34.5470	0	27.598	0	1644.946	0	35.4	4	10.7	4	-1E+10	1	-1E+10	1	-1E+10	1	-1E+10	1	-1E+10	1	-1E+10	1
4902663	24	C	03/29/2024	14:11	-127.363	48.737	0	1675.40	0	2.2380	0	34.5470	0	27.599	0	1654.586	0	35.7	4	10.8	4	-1E+10	1	-1E+10	1	-1E+10	1	-1E+10	1	-1E+10	1	-1E+10	1
4902663	24	C	03/29/2024	14:11	-127.363	48.737	0	1685.20	0	2.2320	0	34.5480	0	27.600	0	1664.226	0	36.0	4	10.9	4	-1E+10	1	-1E+10	1	-1E+10	1	-1E+10	1	-1E+10	1	-1E+10	1
4902663	24	C	03/29/2024	14:11	-127.363	48.737	0	1695.30	0	2.2260	0	34.5490	0	27.601	0	1674.161	0	36.4	4	11.0	4	-1E+10	1	-1E+10	1	-1E+10	1	-1E+10	1	-1E+10	1	-1E+10	1
4902663	24	C	03/29/2024	14:11	-127.363	48.737	0	1705.70	0	2.2140	0	34.5510	0	27.604	0	1684.389	0	37.0	4	11.2	4	-1E+10	1	-1E+10	1	-1E+10	1	-1E+10	1	-1E+10	1	-1E+10	1
4902663	24	C	03/29/2024	14:11	-127.363	48.737	0	1715.40	0	2.2040	0	34.5530	0	27.607	0	1693.930	0	37.5	4	11.4	4	-1E+10	1	-1E+10	1	-1E+10	1	-1E+10	1	-1E+10	1	-1E+10	1
4902663	24	C	03/29/2024	14:11	-127.363	48.737	0	1725.10	0	2.1970	0	34.5530	0	27.607	0	1703.469	0	38.0	4	11.5	4	-1E+10	1	-1E+10	1	-1E+10	1	-1E+10	1	-1E+10	1	-1E+10	1
4902663	24	C	03/29/2024	14:11	-127.363	48.737	0	1735.30	0	2.1910	0	34.5550	0	27.609	0	1713.500	0	38.4	4	11.6	4	-1E+10	1	-1E+10	1	-1E+10	1	-1E+10	1	-1E+10	1	-1E+10	1
4902663	24	C	03/29/2024	14:11	-127.363	48.737	0	1745.40	0	2.1840	0	34.5550	0	27.610	0	1723.432	0	38.6	4	11.7	4	-1E+10	1	-1E+10	1	-1E+10	1	-1E+10	1	-1E+10	1	-1E+10	1
4902663	24	C	03/29/2024	14:11	-127.363	48.737	0	1755.50	0	2.1730	0	34.5560	0	27.612	0	1733.364	0	39.1	4	11.8	4	-1E+10	1	-1E+10	1	-1E+10	1	-1E+10	1	-1E+10	1	-1E+10	1
4902663	24	C	03/29/2024	14:11	-127.363	48.737	0	1765.60	0	2.1640	0	34.5570	0	27.613	0	1743.295	0	39.7	4	12.0	4	-1E+10	1	-1E+10	1	-1E+10	1	-1E+10	1	-1E+10	1	-1E+10	1
4902663	24	C	03/29/2024	14:11	-127.363	48.737	0	1775.40	0	2.1500	0	34.5590	0	27.616	0	1752.931	0	40.4	4	12.2	4	-1E+10	1	-1E+10	1	-1E+10	1	-1E+10	1	-1E+10	1	-1E+10	1
4902663	24	C	03/29/2024	14:11	-127.363	48.737	0	1785.30	0	2.1370	0	34.5610	0	27.619	0	1762.665	0	41.0	4	12.4	4	-1E+10	1	-1E+10	1	-1E+10	1	-1E+10	1	-1E+10	1	-1E+10	1
4902663	24	C	03/29/2024	14:11	-127.363	48.737	0	1795.50	0	2.1240	0	34.5630	0	27.621	0	1772.693	0	41.6	4	12.6	4	-1E+10	1	-1E+10	1	-1E+10	1	-1E+10	1	-1E+10	1	-1E+10	1
4902663	24	C	03/29/2024	14:11	-127.363	48.737	0	1805.70	0	2.1150	0	34.5640	0	27.623	0	1782.720	0	42.2	4	12.8	4	-1E+10	1	-1E+10	1	-1E+10	1	-1E+10	1	-1E+10	1	-1E+10	1
4902663	24	C	03/29/2024	14:11	-127.363	48.737	0	1815.30	0	2.1050	0	34.5650	0	27.625	0	1792.158	0	43.0	4	13.0	4	-1E+10	1	-1E+10	1	-1E+10	1	-1E+10	1	-1E+10	1	-1E+10	1
4902663	24	C	03/29/2024	14:11	-127.363	48.737	0	1825.30	0	2.0870	0	34.5680	0	27.628	0	1801.988	0	43.8	4	13.2	4	-1E+10	1	-1E+10	1	-1E+10	1	-1E+10	1	-1E+10	1	-1E+10	1
4902663	24	C	03/29/2024	14:11	-127.363	48.737	0	1835.30	0	2.0780	0	34.5690	0	27.630	0	1811.818	0	44.6	4	13.5	4	-1E+10	1	-1E+10	1	-1E+10	1	-1E+10	1	-1E+10	1	-1E+10	1
4902663	24	C	03/29/2024	14:11	-127.363	48.737	0	1845.30	0	2.0620	0	34.5720	0	27.634	0	1821.647	0	45.5	4	13.7	4	-1E+10	1	-1E+10	1	-1E+10	1	-1E+10	1	-1E+10	1	-1E+10	1
4902663	24	C	03/29/2024	14:11	-127.363	48.737	0	1855.30	0	2.0520	0	34.5740	0	27.636	0	1831.476	0	46.2	4	13.9	4	-1E+10	1	-1E+10	1	-1E+10	1	-1E+10	1	-1E+10	1	-1E+10	1
4902663	24	C	03/29/2024	14:11	-127.363	48.737	0	1865.40	0	2.0420	0	34.5760	0	27.639	0	1841.402	0	46.9	4	14.2	4	-1E+10	1	-1E+10	1	-1E+10	1	-1E+10	1	-1E+10	1	-1E+10	1
4902663	24	C	03/29/2024	14:11	-127.363	48.737	0	1876.00	0	2.0280	0	34.5780	0	27.641	0	1851.820	0	47.9	4	14.4	4	-1E+10	1	-1E+10	1	-1E+10	1	-1E+10	1	-1E+10	1	-1E+10	1
4902663	24	C	03/29/2024	14:11	-127.363	48.737	0	1885.70	0	2.0160	0	34.5800	0	27.644	0	1861.352	0	48.8	4	14.7	4	-1E+10	1	-1E+10	1	-1E+10	1	-1E+10	1	-1E+10	1	-1E+10	1
4902663	24	C	03/29/2024	14:11	-127.363	48.737	0	1895.70	0	2.0060	0	34.5820	0	27.646	0	1871.179	0	49.5	4	14.9	4	-1E+10	1	-1E+10	1	-1E+10	1	-1E+10	1	-1E+10	1	-1E+10	1
4902663	24	C	03/29/2024	14:11	-127.363	48.737	0	1905.50	0	1.9990	0	34.5840	0	27.649	0	1880.809	0	50.3	4	15.2	4	-1E+10	1	-1E+10	1	-1E+10	1	-1E+10	1	-1E+10	1	-1E+10	1
4902663	24	C	03/29/2024	14:11	-127.363	48.737	0	1915.60	0	1.9860	0	34.5860	0	27.651	0	1890.733	0	51.2	4	15.4	4	-1E+10	1	-1E+10	1	-1E+10	1	-1E+10	1	-1E+10	1	-1E+10	1
4902663	24	C	03/29/2024	14:11	-127.363	48.737	0	1925.40	0	1.9740	0	34.5880	0	27.654	0	1900.363	0	51.9	4	15.6	4	-1E+10	1	-1E+10	1	-1E+10	1	-1E+10	1	-1E+10	1	-1E+10	1
4902663	24	C	03/29/2024	14:11	-127.363	48.737	0	1935.50	0	1.9620	0	34.5900	0	27.656	0	1910.286	0	52.7	4	15.9	4	-1E+10	1	-1E+10	1	-1E+10	1	-1E+10	1	-1E+10	1	-1E+10	1
4902663	24	C	03/29/2024	14:11	-127.363	48.737	0	1945.60	0	1.9490	0	34.5920	0	27.659	0	1920.209	0	53.4	4	16.1	4	-1E+10	1	-1E+10	1	-1E+10	1	-1E+10	1	-1E+10	1	-1E+10	1
4902663	24	C	03/29/2024	14:11	-127.363	48.737	0	1955.50	0	1.9470	0	34.5920	0	27.659	0	1929.935	0	53.8	4	16.2	4	-1E+10	1	-1E+10	1	-1E+10	1	-1E+10	1	-1E+10	1	-1E+10	1
4902663	24	C	03/29/2024	14:11	-127.363	48.737	0	1965.40	0	1.9370	0	34.5950	0	27.662	0	1939.660	0	54.4	4	16.4	4	-1E+10	1	-1E+10	1	-1E+10	1	-1E+10	1	-1E+10	1	-1E+10	1
4902663	24	C	03/29/2024	14:11	-127.363	48.737	0	1975.30	0	1.9330	0	34.5950	0	27.663	0	1949.385	0	54.9	4	16.5	4	-1E+10	1	-1E+10	1	-1E+10	1	-1E+10	1	-1E+10	1	-1E+10	1
4902663	24	C	03/29/2024	14:11	-127.363	48.737	0	1985.30	0	1.9220	0	34.5980	0	27.666	0	1959.208	0	55.9	4	16.8	4	-1E+10	1	-1E+10	1	-1E+10	1	-1E+10	1	-1E+10	1	-1E+10	1
4902663	24	C	03/29/2024	14:11	-127.363	48.737	0	1995.50	0	1.9060	0	34.6000	0	27.669	0	1969.227	0	56.7	4	17.1	4	-1E+10	1	-1E+10	1	-1E+10	1	-1E+10	1	-1E+10	1	-1E+10	1
4902663	24	C	03/29/2024	14:11	-127.363	48.737	0	2005.70	0	1.8950	0	34.6020	0	27.671	0	1979.245	0	57.1	4	17.2	4	-1E+10	1	-1E+10	1	-1E+10	1	-1E+10	1	-1E+10	1	-1E+10	1
4902663	24	C	03/29/2024	14:11	-127.363	48.737	0	2013.10	0	1.8890	0	34.6030	0	27.673	0	1986.513	0	56.9	4	17.1	4	-1E+10	1	-1E+10	1	-1E+10	1	-1E+10	1	-1E+10	1	-1E+10	1
4902663	24	C	03/29/2024	14:11	-127.363	48.737	0																										
4902663	25	C	04/08/2024	09:05	-126.920	48.465	0	0.40	0	9.8220	0	32.2790	0	24.858	0	0.397	0	274.3	4	97.6	4	-1E+10	1	-1E+10	1	-1E+10	1	-1E+10	1	-1E+10	1	-1E+10	1
4902663	25	C	04/08/2024	09:05	-126.920	48.465	0	0.50	0	9.8220	0	32.2790	0	24.858	0	0.496	0	274.3	4	97.6	4	-1E+10	1	-1E+10	1	-1E+10	1	-1E+10	1	-1E+10	1	-1E+10	1
4902663	25	C	04/08/2024	09:05	-126.920	48.465	0	1.00	0	9.8220	0	32.2790	0	24.858	0	0.992	0	274.3	4	97.6	4	-1E+10	1	-1E+10	1	-1E+10	1	-1E+10	1	-1E+10	1	-1E+10	1
4902663	25	C	04/08/2024	09:05	-126.920	48.465	0	2.00	0	9.8220	0	32.2800	0	24.858	0	1.983	0	274.1	4	97.5	4	-1E+10	1	-1E+10	1	-1E+10	1	-1E+10	1	-1E+10	1	-1E+10	1
4902663	25	C	04/08/2024	09:05	-126.920	48.465	0	3.00	0	9.8220	0	32.2800	0	24.858	0	2.975	0	274.0	4	97.5	4	-1E+10	1	-1E+10	1	-1E+10	1	-1E+10	1	-1E+10	1	-1E+10	1
4902663	25	C	04/08/2024	09:05	-126.920	48.465	0	3.90	0	9.8220	0	32.2800	0	24.858	0	3.867	0	273.9	4	97.4	4	-1E+10	1	-1E+10	1	-1E+10	1	-1E+10	1	-1E+10	1	-1E+10	1
4902663	25	C	04/08/2024	09:05	-126.920	48.465	0	4.90	0	9.8220	0	32.2810	0	24.859	0	4.859	0	273.7	4	97.4	4	-1E+10	1	-1E+10	1	-1E+10	1	-1E+10	1	-1E+10	1	-1E+10	1
4902663	25	C	04/08/2024	09:05	-126.920	48.465	0	5.80	0	9.8230	0	32.2810	0	24.859	0	5.751	0	273.5	4	97.3	4	-1E+10	1	-1E+10	1	-1E+10	1	-1E+10	1	-1E+10	1	-1E+10	1
4902663	25	C	04/08/2024	09:05	-126.920	48.465	0	6.90	0	9.8230	0	32.2810	0	24.859	0	6.842	0	273.5	4	97.3	4	-1E+10	1	-1E+10	1	-1E+10	1	-1E+10	1	-1E+10	1	-1E+10	1
4902663	25	C	04/08/2024	09:05	-126.920	48.465	0	7.80	0	9.8230	0	32.2810	0	24.859	0	7.734	0	273.4	4	97.3	4	-1E+10	1	-1E+10	1	-1E+10	1	-1E+10	1	-1E+10	1	-1E+10	1
4902663	25	C	04/08/2024	09:05	-126.920	48.465	0	9.00	0	9.8240	0	32.2800	0	24.858	0	8.924	0	273.3	4	97.2	4	-1E+10	1	-1E+10	1	-1E+10	1	-1E+10	1	-1E+10	1	-1E+10	1
4902663	25	C	04/08/2024	09:05	-126.920	48.465	0	10.30	0	9.8250	0	32.2820	0	24.860	0	10.213	0	273.0	4	97.1	4	-1E+10	1	-1E+10	1	-1E+10	1	-1E+10	1	-1E+10	1	-1E+10	1
4902663	25	C	04/08/2024	09:05	-126.920	48.465	0	11.10	0	9.8250	0	32.2820	0	24.860	0	11.006	0	272.9	4	97.1	4	-1E+10	1	-1E+10	1	-1E+10	1	-1E+10	1	-1E+10	1	-1E+10	1
4902663	25	C	04/08/2024	09:05	-126.920	48.465	0	11.90	0	9.8250	0	32.2810	0	24.859	0	11.799	0	272.8	4	97.1	4	-1E+10	1	-1E+10	1	-1E+10	1	-1E+10	1	-1E+10	1	-1E+10	1
4902663	25	C	04/08/2024	09:05	-126.920	48.465	0	12.90	0	9.8250	0	32.2820	0	24.860	0	12.791	0	272.7	4	97.0	4	-1E+10	1	-1E+10	1	-1E+10	1	-1E+10	1	-1E+10	1	-1E+10	1
4902663	25	C	04/08/2024	09:05	-126.920	48.465	0	13.90	0	9.8260	0	32.2820	0	24.860	0	13.782	0	272.5	4	97.0	4	-1E+10	1	-1E+10	1	-1E+10	1	-1E+10	1	-1E+10	1	-1E+10	1
4902663	25	C	04/08/2024	09:05	-126.920	48.465	0	15.00	0	9.8250	0	32.2820	0	24.860	0	14.873	0	272.3	4	96.9	4	-1E+10	1	-1E+10	1	-1E+10	1	-1E+10	1	-1E+10	1	-1E+10	1
4902663	25	C	04/08/2024	09:05	-126.920	48.465	0	16.10	0	9.8260	0	32.2810	0	24.859	0	15.964	0	272.2	4	96.8	4	-1E+10	1	-1E+10	1	-1E+10	1	-1E+10	1	-1E+10	1	-1E+10	1
4902663	25	C	04/08/2024	09:05	-126.920	48.465	0	17.30	0	9.8260	0	32.2810	0	24.859	0	17.153	0	272.0	4	96.8	4	-1E+10	1	-1E+10	1	-1E+10	1	-1E+10	1	-1E+10	1	-1E+10	1
4902663	25	C	04/08/2024	09:05	-126.920	48.465	0	18.40	0	9.8250	0	32.2810	0	24.859	0	18.244	0	271.8	4	96.7	4	-1E+10	1	-1E+10	1	-1E+10	1	-1E+10	1	-1E+10	1	-1E+10	1
4902663	25	C	04/08/2024	09:05	-126.920	48.465	0	19.50	0	9.8250	0	32.2810	0	24.859	0	19.335	0	271.6	4	96.6	4	-1E+10	1	-1E+10	1	-1E+10	1	-1E+10	1	-1E+10	1	-1E+10	1
4902663	25	C	04/08/2024	09:05	-126.920	48.465	0	20.60	0	9.8250	0	32.2810	0	24.859	0	20.425	0	271.3	4	96.5	4	-1E+10	1	-1E+10	1	-1E+10	1	-1E+10	1	-1E+10	1	-1E+10	1
4902663	25	C	04/08/2024	09:05	-126.920	48.465	0	21.60	0	9.8250	0	32.2810	0	24.859	0	21.417	0	271.0	4	96.4	4	-1E+10	1	-1E+10	1	-1E+10	1	-1E+10	1	-1E+10	1	-1E+10	1
4902663	25	C	04/08/2024	09:05	-126.920	48.465	0	22.60	0	9.8260	0	32.2820	0	24.860	0	22.408	0	270.7	4	96.3	4	-1E+10	1	-1E+10	1	-1E+10	1	-1E+10	1	-1E+10	1	-1E+10	1
4902663	25	C	04/08/2024	09:05	-126.920	48.465	0	23.60	0	9.8250	0	32.2800	0	24.858	0	23.400	0	270.3	4	96.2	4	-1E+10	1	-1E+10	1	-1E+10	1	-1E+10	1	-1E+10	1	-1E+10	1
4902663	25	C	04/08/2024	09:05	-126.920	48.465	0	24.60	0	9.8270	0	32.2830	0	24.860	0	24.391	0	269.4	4	95.8	4	-1E+10	1	-1E+10	1	-1E+10	1	-1E+10	1	-1E+10	1	-1E+10	1
4902663	25	C	04/08/2024	09:05	-126.920	48.465	0	25.80	0	9.8260	0	32.2810	0	24.859	0	25.581	0	269.0	4	95.7	4	-1E+10	1	-1E+10	1	-1E+10	1	-1E+10	1	-1E+10	1	-1E+10	1
4902663	25	C	04/08/2024	09:05	-126.920	48.465	0	26.70	0	9.8270	0	32.2820	0	24.860	0	26.473	0	268.5	4	95.5	4	-1E+10	1	-1E+10	1	-1E+10	1	-1E+10	1	-1E+10	1	-1E+10	1
4902663	25	C	04/08/2024	09:05	-126.920	48.465	0	27.90	0	9.8270	0	32.2840	0	24.861	0	27.663	0	267.3	4	95.1	4	-1E+10	1	-1E+10	1	-1E+10	1	-1E+10	1	-1E+10	1	-1E+10	1
4902663	25	C	04/08/2024	09:05	-126.920	48.465	0	29.20	0	9.8270	0	32.2860	0	24.863	0	28.952	0	266.2	4	94.7	4	-1E+10	1	-1E+10	1	-1E+10	1	-1E+10	1	-1E+10	1	-1E+10	1
4902663	25	C	04/08/2024	09:05	-126.920	48.465	0	30.00	0	9.8260	0	32.2860	0	24.863	0	29.745	0	265.4	4	94.4	4	-1E+10	1	-1E+10	1	-1E+10	1	-1E+10	1	-1E+10	1	-1E+10	1
4902663	25	C	04/08/2024	09:05	-126.920	48.465	0	30.80	0	9.8260	0	32.2860	0	24.863	0	30.538	0	264.5	4	94.1	4	-1E+10	1	-1E+10	1	-1E+10	1	-1E+10	1	-1E+10	1	-1E+10	1
4902663	25	C	04/08/2024	09:05	-126.920	48.465	0	31.90	0	9.8240	0	32.2870	0	24.864	0	31.629	0	263.1	4	93.6	4	-1E+10	1	-1E+10	1	-1E+10	1	-1E+10	1	-1E+10	1	-1E+10	1
4902663	25	C	04/08/2024	09:05	-126.920	48.465	0	33.10	0	9.8200	0	32.2910	0	24.868	0	32.818	0	261.6	4	93.1	4	-1E+10	1	-1E+10	1	-1E+10	1	-1E+10	1	-1E+10	1	-1E+10	1
4902663	25	C	04/08/2024	09:05	-126.920	48.465	0	33.80	0	9.8100	0	32.2950	0	24.873	0	33.512	0	260.9	4	92.8	4	-1E+10	1	-1E+10	1	-1E+10	1	-1E+10	1	-1E+10	1	-1E+10	1
4902663	25	C	04/08/2024	09:05	-126.920	48.465	0	35.00	0	9.8050	0	32.2980	0	24.876	0	34.702	0	259.8	4	92.4	4	-1E+10	1	-1E+10	1	-1E+10	1	-1E+10	1	-1E+10	1	-1E+10	1
4902663	25	C	04/08/2024	09:05	-126.920	48.465	0	36.10	0	9.8020	0	32.3010	0	24.879	0	35.792	0	258.6	4	92.0	4	-1E+10	1	-1E+10	1	-1E+10	1	-1E+10	1	-1E+10	1	-1E+10	1
4902663	25	C	04/08/2024	09:05	-126.920	48.465	0	36.90	0	9.8010	0	32.3010	0	24.879	0	36.586	0	257.9	4	91.7	4	-1E+10	1	-1E+10	1	-1E+10	1	-1E+10	1	-1E+10	1	-1E+10	1
4902663	25	C	04/08/2024	09:05	-126.920	48.465	0	38.00	0	9.7980	0	32.3030	0	24.881	0	37.676	0	256.8	4	91.3	4	-1E+10	1	-1E+10	1	-1E+10	1	-1E+10	1	-1E+10	1	-1E+10	1
4902663	25	C	04/08/2024	09:05	-126.920	48.465	0	39.20	0	9.7910	0	32.3070	0	24.885	0	38.866	0	255.7	4	90.9	4	-1E+10	1	-1E+10	1	-1E+10	1	-1E+10	1	-1E+10	1	-1E+10	1
4902663	25	C	04/08/2024	09:05	-126.920	48.465	0	40.00	0	9.7880	0	32.3070	0	24.886	0	39.659	0	254.9	4	90.6	4	-1E+10	1	-1E+10	1	-1E+10	1	-1E+10	1	-1E+10	1	-1E+10	1
4902663	25	C	04/08/2024	09:05	-126.920	48.465	0	40.70	0	9.7880	0	32.3070	0	24.886	0	40.353	0	253.9	4	90.3	4	-1E+10	1	-1E+10	1	-1E+10	1	-1E+10	1	-1E+10	1	-1E+10	1
4902663	25	C	04/08/2024	09:05	-126.920	48.465	0	41.90	0	9.7870	0	32.3080	0	24.887	0	41.542	0	252.0	4	89.6	4	-1E+10	1	-1E+10	1	-1E+10	1	-1E+10	1	-1E+10	1	-1E+10	1
4902663	25	C	04/08/2024	09:05	-126.920	48.465	0	43.20	0	9.7860	0	32.3080	0	24.887	0	42.831	0	249.7	4	88.8	4	-1E+10	1	-1E+10	1	-1E+10	1	-1E+10	1	-1E+10	1	-1E+10	1
4902663	25	C	04/08/2024	09:05	-126.920	48.465	0	44.00	0	9.7850	0	32.3090	0	24.888	0	43.624	0	247.8	4	88.1	4	-1E+10	1	-1E+10	1	-1E+10	1	-1E+10	1	-1E+10	1	-1E+10	1
4902663	25	C	04/08/2024	09:05	-126.920	48.465	0	44.80	0	9.7830	0	32.3090	0	24.888	0	44.417	0	245.7	4	87.3	4	-1E+10	1	-1E+10	1	-1E+10	1	-1E+10	1	-1E+10	1	-1E+10	1
4902663	25	C	04/08/2024	09:05	-126.920	48.465	0	46.00	0	9.7800	0	32.3090	0	24.889	0	45.607	0	241.7	4	85.9	4	-1E+10	1	-1E+10	1	-1E+10	1	-1E+10	1	-1E+10	1	-1E+10	1
4902663	25	C	04/08/2024	09:05	-126.920	48.465	0	47.20	0	9.7750	0	32.3100	0	24.890	0	46.797	0	236.9	4	84.2	4	-1E+10	1	-1E+10	1	-1E+10	1	-1E+10	1	-1E+10	1	-1E+10	1
4902663	25	C	04/08/2024	09:05	-126.920	48.465	0	48.10	0	9.7670	0	32.3110	0	24.892	0	47.689	0	232.9	4	82.8	4	-1E+10	1	-1E+10	1	-1E+10	1	-1E+10	1	-1E+10	1	-1E+10	1
4902663	25	C	04/08/2024	09:05	-126.920	48.465	0	48.90	0	9.7600	0	32.3110	0	24.894	0	48.482	0	228.4	4	81.1	4	-1E+10	1	-1E+10	1	-1E+10	1	-1E+10	1	-1E+10	1	-1E+10	1
4902663	25	C	04/08/2024	09:05	-126.920	48.465	0	50.00	0	9.7420	0	32.3160	0	24.900	0	49.572	0	219.8	4	78.1	4	-1E+10	1	-1E+10	1	-1E+10	1	-1E+10	1	-1E+10	1	-1E+10	1
4902663	25	C	04/08/2024	09:05	-126.920	48.465	0	51.20	0	9.6920	0	32.3350	0	24.923	0	50.762	0	210.5	4	74.7	4	-1E+10	1	-1E+10	1	-1E+10	1	-1E+10	1	-1E+10	1	-1E+10	1
4902663	25	C	04/08/2024	09:05	-126.920	48.465	0	52.00	0	9.5320	0	32.4330	0	25.026	0	51.555	0	204.5	4	72.4	4	-1E+10	1	-1E+10	1	-1E+10	1	-1E+10	1	-1E+10	1	-1E+10	1
4902663	25	C	04/08/2024	09:05	-126.920	48.465	0	52.90	0	9.4130	0	32.5610	0	25.145	0	52.447	0	200.2	4	70.7	4	-1E+10	1	-1E+10	1	-1E+10	1	-1E+10	1	-1E+10	1	-1E+10	1
4902663	25	C	04/08/2024	09:05	-126.920	48.465	0	53.60	0	9.3730	0	32.5900	0	25.174	0	53.141	0	197.0	4	69.5	4	-1E+10	1	-1E+10	1	-1E+10	1	-1E+10	1	-1E+10	1	-1E+10	1
4902663	25	C	04/08/2024	09:05	-126.920	48.465	0	54.90	0	9.1320	0	32.7000	0	25.298	0	54.430	0	193.0	4	67.8	4	-1E+10	1	-1E+10	1	-1E+10	1	-1E+10	1	-1E+10	1	-1E+10	1
4902663	25	C	04/08/2024	09:05	-126.920	48.465	0	55.90	0	9.0970	0	32.7480	0	25.341	0	55.421	0	189.1	4	66.4	4	-1E+10	1	-1E+10	1	-1E+10	1	-1E+10	1	-1E+10	1	-1E+10	1
4902663	25	C	04/08/2024	09:05	-126.920	48.465	0	57.00	0	8.9840	0	32.8380	0	25.429	0	56.511	0	185.9	4	65.2	4	-1E+10	1	-1E+10	1	-1E+10	1	-1E+10	1	-1E+10	1	-1E+10	1
4902663	25	C	04/08/2024	09:05	-126.920	48.465	0	58.20	0	8.7440	0	32.9130	0	25.525	0	57.701	0	183.8	4	64.1	4	-1E+10	1	-1E+10	1	-1E+10	1	-1E+10	1	-1E+10	1	-1E+10	1
4902663	25	C	04/08/2024	09:05	-126.920	48.465	0	59.00	0	8.6400	0	32.9380	0	25.561	0	58.494	0	182.3	4	63.5	4	-1E+10	1	-1E+10	1	-1E+10	1	-1E+10	1	-1E+10	1	-1E+10	1
4902663	25	C	04/08/2024	09:05	-126.920	48.465	0	59.80	0	8.6240	0	32.9440	0	25.568	0	59.287	0	180.7	4	62.9	4	-1E+10	1	-1E+10	1	-1E+10	1	-1E+10	1	-1E+10	1	-1E+10	1
4902663	25	C	04/08/2024	09:05	-126.920	48.465	0	60.60	0	8.5800	0	32.9650	0	25.591	0	60.080	0	179.2	4	62.3	4	-1E+10	1	-1E+10	1	-1E+10	1	-1E+10	1	-1E+10	1	-1E+10	1
4902663	25	C	04/08/2024	09:05	-126.920	48.465	0	61.90	0	8.5450	0	32.9910	0	25.617	0	61.369	0	176.8	4	61.5	4	-1E+10	1	-1E+10	1	-1E+10	1	-1E+10	1	-1E+10	1	-1E+10	1
4902663	25	C	04/08/2024	09:05	-126.920	48.465	0	63.20	0	8.4720	0	33.0290	0	25.657	0	62.657	0	174.4	4	60.5	4	-1E+10	1	-1E+10	1	-1E+10	1	-1E+10	1	-1E+10	1	-1E+10	1
4902663	25	C	04/08/2024	09:05	-126.920	48.465	0	64.20	0	8.4450	0	33.0410	0	25.671	0	63.649	0	173.1	4	60.1	4	-1E+10	1	-1E+10	1	-1E+10	1	-1E+10	1	-1E+10	1	-1E+10	1
4902663	25	C	04/08/2024	09:05	-126.920	48.465	0	65.00	0	8.4340	0	33.0560	0	25.684	0	64.442	0	171.8	4	59.6	4	-1E+10	1	-1E+10	1	-1E+10	1	-1E+10	1	-1E+10	1	-1E+10	1
4902663	25	C	04/08/2024	09:05	-126.920	48.465	0	66.00	0	8.4510	0	33.0700	0	25.693	0	65.433	0	170.7	4	59.3	4	-1E+10	1	-1E+10	1	-1E+10	1	-1E+10	1	-1E+10	1	-1E+10	1
4902663	25	C	04/08/2024	09:05	-126.920	48.465	0	66.90	0	8.4310	0	33.0860	0	25.708	0	66.325	0	169.5	4	58.8	4	-1E+10	1	-1E+10	1	-1E+10	1	-1E+10	1	-1E+10	1	-1E+10	1
4902663	25	C	04/08/2024	09:05	-126.920	48.465	0	67.80	0	8.4220	0	33.0950	0	25.717	0	67.217	0	168.3	4	58.4	4	-1E+10	1	-1E+10	1	-1E+10	1	-1E+10	1	-1E+10	1	-1E+10	1
4902663	25	C	04/08/2024	09:05	-126.920	48.465	0	68.70	0	8.3810	0	33.1300	0	25.750	0	68.109	0	167.0	4	57.9	4	-1E+10	1	-1E+10	1	-1E+10	1	-1E+10	1	-1E+10	1	-1E+10	1
4902663	25	C	04/08/2024	09:05	-126.920	48.465	0	69.70	0	8.3290	0	33.1250	0	25.754	0	69.100	0	165.7	4	57.4	4	-1E+10	1	-1E+10	1	-1E+10	1	-1E+10	1	-1E+10	1	-1E+10	1
4902663	25	C	04/08/2024	09:05	-126.920	48.465	0	70.60	0	8.3120	0	33.1390	0	25.768	0	69.993	0	164.3	4	56.9	4	-1E+10	1	-1E+10	1	-1E+10	1	-1E+10	1	-1E+10	1	-1E+10	1
4902663	25	C	04/08/2024	09:05	-126.920	48.465	0	71.90	0	8.3430	0	33.1740	0	25.791	0	71.281	0	162.2	4	56.2	4	-1E+10	1	-1E+10	1	-1E+10	1	-1E+10	1	-1E+10	1	-1E+10	1
4902663	25	C	04/08/2024	09:05	-126.920	48.465	0	73.30	0	8.3330	0	33.2070	0	25.818	0	72.669	0	160.5	4	55.6	4	-1E+10	1	-1E+10	1	-1E+10	1	-1E+10	1	-1E+10	1	-1E+10	1
4902663	25	C	04/08/2024	09:05	-126.920	48.465	0	74.10	0	8.2570	0	33.2240	0	25.843	0	73.462	0	159.1	4	55.1	4	-1E+10	1	-1E+10	1	-1E+10	1	-1E+10	1	-1E+10	1	-1E+10	1
4902663	25	C	04/08/2024	09:05	-126.920	48.465	0	75.00	0	8.2110	0	33.1950	0	25.827	0	74.354	0	157.6	4	54.5	4	-1E+10	1	-1E+10	1	-1E+10	1	-1E+10	1	-1E+10	1	-1E+10	1
4902663	25	C	04/08/2024	09:05	-126.920	48.465	0	75.90	0	8.1870	0	33.2090	0	25.841	0	75.246	0	156.0	4	53.9	4	-1E+10	1	-1E+10	1	-1E+10	1	-1E+10	1	-1E+10	1	-1E+10	1
4902663	25	C	04/08/2024	09:05	-126.920	48.465	0	76.80	0	8.2810	0	33.2540	0	25.863	0	76.138	0	154.5	4	53.5	4	-1E+10	1	-1E+10	1	-1E+10	1	-1E+10	1	-1E+10	1	-1E+10	1
4902663	25	C	04/08/2024	09:05	-126.920	48.465	0	77.70	0	8.2670	0	33.2880	0	25.891	0	77.030	0	153.4	4	53.1	4	-1E+10	1	-1E+10	1	-1E+10	1	-1E+10	1	-1E+10	1	-1E+10	1
4902663	25	C	04/08/2024	09:05	-126.920	48.465	0	78.60	0	8.2800	0	33.3090	0	25.906	0	77.922	0	152.2	4	52.7	4	-1E+10	1	-1E+10	1	-1E+10	1	-1E+10	1	-1E+10	1	-1E+10	1
4902663	25	C	04/08/2024	09:05	-126.920	48.465	0	79.90	0	8.2320	0	33.3220	0	25.923	0	79.211	0	150.7	4	52.2	4	-1E+10	1	-1E+10	1	-1E+10	1	-1E+10	1	-1E+10	1	-1E+10	1
4902663	25	C	04/08/2024	09:05	-126.920	48.465	0	81.30	0	8.1340	0	33.3480	0	25.958	0	80.598	0	149.5	4	51.6	4	-1E+10	1	-1E+10	1	-1E+10	1	-1E+10	1	-1E+10	1	-1E+10	1
4902663	25	C	04/08/2024	09:05	-126.920	48.465	0	82.20	0	8.0530	0	33.3670	0	25.985	0	81.491	0	148.6	4	51.3	4	-1E+10	1	-1E+10	1	-1E+10	1	-1E+10	1	-1E+10	1	-1E+10	1
4902663	25	C	04/08/2024	09:05	-126.920	48.465	0	83.10	0	8.0150	0	33.3680	0	25.992	0	82.383	0	151.4	4	52.2	4	-1E+10	1	-1E+10	1	-1E+10	1	-1E+10	1	-1E+10	1	-1E+10	1
4902663	25	C	04/08/2024	09:05	-126.920	48.465	0	84.00	0	7.9920	0	33.3910	0	26.013	0	83.275	0	150.2	4	51.7	4	-1E+10	1	-1E+10	1	-1E+10	1	-1E+10	1	-1E+10	1	-1E+10	1
4902663	25	C	04/08/2024	09:05	-126.920	48.465	0	84.70	0	7.9930	0	33.3980	0	26.018	0	83.968	0	149.2	4	51.4	4	-1E+10	1	-1E+10	1	-1E+10	1	-1E+10	1	-1E+10	1	-1E+10	1
4902663	25	C	04/08/2024	09:05	-126.920	48.465	0	85.90	0	7.9970	0	33.4110	0	26.028	0	85.158	0	147.2	4	50.7	4	-1E+10	1	-1E+10	1	-1E+10	1	-1E+10	1	-1E+10	1	-1E+10	1
4902663	25	C	04/08/2024	09:05	-126.920	48.465	0	86.90	0	7.9570	0	33.4230	0	26.043	0	86.149	0	145.5	4	50.1	4	-1E+10	1	-1E+10	1	-1E+10	1	-1E+10	1	-1E+10	1	-1E+10	1
4902663	25	C	04/08/2024	09:05	-126.920	48.465	0	87.80	0	7.9230	0	33.4330	0	26.056	0	87.041	0	143.8	4	49.5	4	-1E+10	1	-1E+10	1	-1E+10	1	-1E+10	1	-1E+10	1	-1E+10	1
4902663	25	C	04/08/2024	09:05	-126.920	48.465	0	88.90	0	7.9310	0	33.4240	0	26.048	0	88.131	0	141.9	4	48.8	4	-1E+10	1	-1E+10	1	-1E+10	1	-1E+10	1	-1E+10	1	-1E+10	1
4902663	25	C	04/08/2024	09:05	-126.920	48.465	0	90.00	0	7.8760	0	33.4940	0	26.111	0	89.221	0	140.4	4	48.3	4	-1E+10	1	-1E+10	1	-1E+10	1	-1E+10	1	-1E+10	1	-1E+10	1
4902663	25	C	04/08/2024	09:05	-126.920	48.465	0	91.10	0	7.8700	0	33.5070	0	26.122	0	90.312	0	138.4	4	47.6	4	-1E+10	1	-1E+10	1	-1E+10	1	-1E+10	1	-1E+10	1	-1E+10	1
4902663	25	C	04/08/2024	09:05	-126.920	48.465	0	91.90	0	7.8780	0	33.5210	0	26.132	0	91.105	0	136.8	4	47.0	4	-1E+10	1	-1E+10	1	-1E+10	1	-1E+10	1	-1E+10	1	-1E+10	1
4902663	25	C	04/08/2024	09:05	-126.920	48.465	0	92.70	0	7.8520	0	33.5290	0	26.142	0	91.898	0	135.1	4	46.4	4	-1E+10	1	-1E+10	1	-1E+10	1	-1E+10	1	-1E+10	1	-1E+10	1
4902663	25	C	04/08/2024	09:05	-126.920	48.465	0	93.90	0	7.8940	0	33.5530	0	26.155	0	93.087	0	132.2	4	45.5	4	-1E+10	1	-1E+10	1	-1E+10	1	-1E+10	1	-1E+10	1	-1E+10	1
4902663	25	C	04/08/2024	09:05	-126.920	48.465	0	95.20	0	8.0070	0	33.6050	0	26.179	0	94.375	0	129.7	4	44.8	4	-1E+10	1	-1E+10	1	-1E+10	1	-1E+10	1	-1E+10	1	-1E+10	1
4902663	25	C	04/08/2024	09:05	-126.920	48.465	0	96.10	0	8.0670	0	33.6120	0	26.176	0	95.267	0	128.5	4	44.4	4	-1E+10	1	-1E+10	1	-1E+10	1	-1E+10	1	-1E+10	1	-1E+10	1
4902663	25	C	04/08/2024	09:05	-126.920	48.465	0	97.00	0	8.1320	0	33.6700	0	26.212	0	96.159	0	127.8	4	44.3	4	-1E+10	1	-1E+10	1	-1E+10	1	-1E+10	1	-1E+10	1	-1E+10	1
4902663	25	C	04/08/2024	09:05	-126.920	48.465	0	97.90	0	8.0970	0	33.6840	0	26.228	0	97.051	0	127.5	4	44.1	4	-1E+10	1	-1E+10	1	-1E+10	1	-1E+10	1	-1E+10	1	-1E+10	1
4902663	25	C	04/08/2024	09:05	-126.920	48.465	0	98.80	0	8.0400	0	33.6700	0	26.225	0	97.943	0	127.1	4	43.9	4	-1E+10	1	-1E+10	1	-1E+10	1	-1E+10	1	-1E+10	1	-1E+10	1
4902663	25	C	04/08/2024	09:05	-126.920	48.465	0	99.70	0	8.0750	0	33.6810	0	26.229	0	98.835	0	126.7	4	43.8	4	-1E+10	1	-1E+10	1	-1E+10	1	-1E+10	1	-1E+10	1	-1E+10	1
4902663	25	C	04/08/2024	09:05	-126.920	48.465	0	100.70	0	8.0480	0	33.6870	0	26.237	0	99.826	0	126.3	4	43.7	4	-1E+10	1	-1E+10	1	-1E+10	1	-1E+10	1	-1E+10	1	-1E+10	1
4902663	25	C	04/08/2024	09:05	-126.920	48.465	0	101.70	0	8.0290	0	33.7010	0	26.251	0	100.817	0	125.9	4	43.5	4	-1E+10	1	-1E+10	1	-1E+10	1	-1E+10	1	-1E+10	1	-1E+10	1
4902663	25	C	04/08/2024	09:05	-126.920	48.465	0	102.70	0	8.0300	0	33.6920	0	26.244	0	101.809	0	125.5	4	43.3	4	-1E+10	1	-1E+10	1	-1E+10	1	-1E+10	1	-1E+10	1	-1E+10	1
4902663	25	C	04/08/2024	09:05	-126.920	48.465	0	103.70	0	8.0340	0	33.6990	0	26.249	0	102.800	0	124.9	4	43.2	4	-1E+10	1	-1E+10	1	-1E+10	1	-1E+10	1	-1E+10	1	-1E+10	1
4902663	25	C	04/08/2024	09:05	-126.920	48.465	0	104.70	0	8.0320	0	33.6960	0	26.247	0	103.791	0	124.4	4	43.0	4	-1E+10	1	-1E+10	1	-1E+10	1	-1E+10	1	-1E+10	1	-1E+10	1
4902663	25	C	04/08/2024	09:05	-126.920	48.465	0	105.70	0	8.0230	0	33.6980	0	26.250	0	104.782	0	123.7	4	42.7	4	-1E+10	1	-1E+10	1	-1E+10	1	-1E+10	1	-1E+10	1	-1E+10	1
4902663	25	C	04/08/2024	09:05	-126.920	48.465	0	106.70	0	8.0340	0	33.6910	0	26.243	0	105.773	0	122.9	4	42.5	4	-1E+10	1	-1E+10	1	-1E+10	1	-1E+10	1	-1E+10	1	-1E+10	1
4902663	25	C	04/08/2024	09:05	-126.920	48.465	0	107.70	0	8.0680	0	33.7070	0	26.250	0	106.764	0	122.3	4	42.3	4	-1E+10	1	-1E+10	1	-1E+10	1	-1E+10	1	-1E+10	1	-1E+10	1
4902663	25	C	04/08/2024	09:05	-126.920	48.465	0	108.60	0	8.0810	0	33.7110	0	26.251	0	107.656	0	122.0	4	42.2	4	-1E+10	1	-1E+10	1	-1E+10	1	-1E+10	1	-1E+10	1	-1E+10	1
4902663	25	C	04/08/2024	09:05	-126.920	48.465	0	109.60	0	8.0950	0	33.7310	0	26.265	0	108.647	0	121.7	4	42.1	4	-1E+10	1	-1E+10	1	-1E+10	1	-1E+10	1	-1E+10	1	-1E+10	1
4902663	25	C	04/08/2024	09:05	-126.920	48.465	0	110.60	0	8.0960	0	33.7340	0	26.267	0	109.638	0	121.5	4	42.1	4	-1E+10	1	-1E+10	1	-1E+10	1	-1E+10	1	-1E+10	1	-1E+10	1
4902663	25	C	04/08/2024	09:05	-126.920	48.465	0	111.60	0	8.1490	0	33.7400	0	26.264	0	110.629	0	121.6	4	42.1	4	-1E+10	1	-1E+10	1	-1E+10	1	-1E+10	1	-1E+10	1	-1E+10	1
4902663	25	C	04/08/2024	09:05	-126.920	48.465	0	112.60	0	8.0700	0	33.7470	0	26.281	0	111.620	0	121.6	4	42.1	4	-1E+10	1	-1E+10	1	-1E+10	1	-1E+10	1	-1E+10	1	-1E+10	1
4902663	25	C	04/08/2024	09:05	-126.920	48.465	0	113.60	0	8.0420	0	33.7460	0	26.285	0	112.611	0	121.5	4	42.0	4	-1E+10	1	-1E+10	1	-1E+10	1	-1E+10	1	-1E+10	1	-1E+10	1
4902663	25	C	04/08/2024	09:05	-126.920	48.465	0	114.60	0	7.9880	0	33.7510	0	26.297	0	113.602	0	121.3	4	41.9	4	-1E+10	1	-1E+10	1	-1E+10	1	-1E+10	1	-1E+10	1	-1E+10	1
4902663	25	C	04/08/2024	09:05	-126.920	48.465	0	115.60	0	7.9620	0	33.7480	0	26.298	0	114.593	0	120.8	4	41.7	4	-1E+10	1	-1E+10	1	-1E+10	1	-1E+10	1	-1E+10	1	-1E+10	1
4902663	25	C	04/08/2024	09:05	-126.920	48.465	0	116.60	0	7.9520	0	33.7510	0	26.302	0	115.584	0	120.3	4	41.5	4	-1E+10	1	-1E+10	1	-1E+10	1	-1E+10	1	-1E+10	1	-1E+10	1
4902663	25	C	04/08/2024	09:05	-126.920	48.465	0	117.70	0	7.9560	0	33.7610	0	26.309	0	116.674	0	119.9	4	41.4	4	-1E+10	1	-1E+10	1	-1E+10	1	-1E+10	1	-1E+10	1	-1E+10	1
4902663	25	C	04/08/2024	09:05	-126.920	48.465	0	118.70	0	7.9480	0	33.7620	0	26.311	0	117.665	0	119.5	4	41.2	4	-1E+10	1	-1E+10	1	-1E+10	1	-1E+10	1	-1E+10	1	-1E+10	1
4902663	25	C	04/08/2024	09:05	-126.920	48.465	0	119.80	0	7.9520	0	33.7640	0	26.312	0	118.755	0	119.2	4	41.1	4	-1E+10	1	-1E+10	1	-1E+10	1	-1E+10	1	-1E+10	1	-1E+10	1
4902663	25	C	04/08/2024	09:05	-126.920	48.465	0	120.80	0	7.9300	0	33.7680	0	26.319	0	119.746	0	118.7	4	40.9	4	-1E+10	1	-1E+10	1	-1E+10	1	-1E+10	1	-1E+10	1	-1E+10	1
4902663	25	C	04/08/2024	09:05	-126.920	48.465	0	121.80	0	7.9200	0	33.7640	0	26.317	0	120.737	0	118.1	4	40.7	4	-1E+10	1	-1E+10	1	-1E+10	1	-1E+10	1	-1E+10	1	-1E+10	1
4902663	25	C	04/08/2024	09:05	-126.920	48.465	0	122.80	0	7.9220	0	33.7640	0	26.317	0	121.728	0	117.2	4	40.4	4	-1E+10	1	-1E+10	1	-1E+10	1	-1E+10	1	-1E+10	1	-1E+10	1
4902663	25	C	04/08/2024	09:05	-126.920	48.465	0	123.80	0	7.9250	0	33.7740	0	26.324	0	122.719	0	116.4	4	40.2	4	-1E+10	1	-1E+10	1	-1E+10	1	-1E+10	1	-1E+10	1	-1E+10	1
4902663	25	C	04/08/2024	09:05	-126.920	48.465	0	124.80	0	7.9240	0	33.7800	0	26.329	0	123.710	0	115.9	4	40.0	4	-1E+10	1	-1E+10	1	-1E+10	1	-1E+10	1	-1E+10	1	-1E+10	1
4902663	25	C	04/08/2024	09:05	-126.920	48.465	0	125.80	0	7.9210	0	33.7890	0	26.336	0	124.701	0	115.6	4	39.9	4	-1E+10	1	-1E+10	1	-1E+10	1	-1E+10	1	-1E+10	1	-1E+10	1
4902663	25	C	04/08/2024	09:05	-126.920	48.465	0	126.80	0	7.9320	0	33.8020	0	26.345	0	125.692	0	115.4	4	39.8	4	-1E+10	1	-1E+10	1	-1E+10	1	-1E+10	1	-1E+10	1	-1E+10	1
4902663	25	C	04/08/2024	09:05	-126.920	48.465	0	127.90	0	7.9330	0	33.8050	0	26.347	0	126.782	0	115.3	4	39.8	4	-1E+10	1	-1E+10	1	-1E+10	1	-1E+10	1	-1E+10	1	-1E+10	1
4902663	25	C	04/08/2024	09:05	-126.920	48.465	0	128.90	0	7.9190	0	33.8090	0	26.353	0	127.773	0	115.3	4	39.8	4	-1E+10	1	-1E+10	1	-1E+10	1	-1E+10	1	-1E+10	1	-1E+10	1
4902663	25	C	04/08/2024	09:05	-126.920	48.465	0	129.90	0	7.9130	0	33.8100	0	26.354	0	128.764	0	115.4	4	39.8	4	-1E+10	1	-1E+10	1	-1E+10	1	-1E+10	1	-1E+10	1	-1E+10	1
4902663	25	C	04/08/2024	09:05	-126.920	48.465	0	131.00	0	7.9050	0	33.8080	0	26.354	0	129.854	0	115.4	4	39.8	4	-1E+10	1	-1E+10	1	-1E+10	1	-1E+10	1	-1E+10	1	-1E+10	1
4902663	25	C	04/08/2024	09:05	-126.920	48.465	0	132.00	0	7.8330	0	33.8120	0	26.367	0	130.845	0	115.4	4	39.7	4	-1E+10	1	-1E+10	1	-1E+10	1	-1E+10	1	-1E+10	1	-1E+10	1
4902663	25	C	04/08/2024	09:05	-126.920	48.465	0	133.00	0	7.8000	0	33.8060	0	26.368	0	131.836	0	115.3	4	39.6	4	-1E+10	1	-1E+10	1	-1E+10	1	-1E+10	1	-1E+10	1	-1E+10	1
4902663	25	C	04/08/2024	09:05	-126.920	48.465	0	134.00	0	7.7920	0	33.8120	0	26.373	0	132.827	0	115.1	4	39.6	4	-1E+10	1	-1E+10	1	-1E+10	1	-1E+10	1	-1E+10	1	-1E+10	1
4902663	25	C	04/08/2024	09:05	-126.920	48.465	0	135.10	0	7.7870	0	33.8190	0	26.380	0	133.917	0	115.0	4	39.5	4	-1E+10	1	-1E+10	1	-1E+10	1	-1E+10	1	-1E+10	1	-1E+10	1
4902663	25	C	04/08/2024	09:05	-126.920	48.465	0	136.10	0	7.7650	0	33.8210	0	26.384	0	134.908	0	114.8	4	39.5	4	-1E+10	1	-1E+10	1	-1E+10	1	-1E+10	1	-1E+10	1	-1E+10	1
4902663	25	C	04/08/2024	09:05	-126.920	48.465	0	137.20	0	7.7370	0	33.8240	0	26.391	0	135.998	0	114.6	4	39.4	4	-1E+10	1	-1E+10	1	-1E+10	1	-1E+10	1	-1E+10	1	-1E+10	1
4902663	25	C	04/08/2024	09:05	-126.920	48.465	0	138.20	0	7.6840	0	33.8290	0	26.402	0	136.989	0	114.3	4	39.2	4	-1E+10	1	-1E+10	1	-1E+10	1	-1E+10	1	-1E+10	1	-1E+10	1
4902663	25	C	04/08/2024	09:05	-126.920	48.465	0	139.30	0	7.6690	0	33.8320	0	26.407	0	138.079	0	113.9	4	39.1	4	-1E+10	1	-1E+10	1	-1E+10	1	-1E+10	1	-1E+10	1	-1E+10	1
4902663	25	C	04/08/2024	09:05	-126.920	48.465	0	140.30	0	7.6740	0	33.8450	0	26.417	0	139.069	0	113.8	4	39.0	4	-1E+10	1	-1E+10	1	-1E+10	1	-1E+10	1	-1E+10	1	-1E+10	1
4902663	25	C	04/08/2024	09:05	-126.920	48.465	0	141.40	0	7.6700	0	33.8450	0	26.417	0	140.159	0	113.7	4	39.0	4	-1E+10	1	-1E+10	1	-1E+10	1	-1E+10	1	-1E+10	1	-1E+10	1
4902663	25	C	04/08/2024	09:05	-126.920	48.465	0	142.40	0	7.6650	0	33.8470	0	26.419	0	141.150	0	113.8	4	39.0	4	-1E+10	1	-1E+10	1	-1E+10	1	-1E+10	1	-1E+10	1	-1E+10	1
4902663	25	C	04/08/2024	09:05	-126.920	48.465	0	143.50	0	7.6500	0	33.8510	0	26.425	0	142.240	0	113.8	4	39.0	4	-1E+10	1	-1E+10	1	-1E+10	1	-1E+10	1	-1E+10	1	-1E+10	1
4902663	25	C	04/08/2024	09:05	-126.920	48.465	0	144.50	0	7.6390	0	33.8520	0	26.427	0	143.231	0	113.7	4	39.0	4	-1E+10	1	-1E+10	1	-1E+10	1	-1E+10	1	-1E+10	1	-1E+10	1
4902663	25	C	04/08/2024	09:05	-126.920	48.465	0	145.60	0	7.6380	0	33.8520	0	26.427	0	144.321	0	113.7	4	39.0	4	-1E+10	1	-1E+10	1	-1E+10	1	-1E+10	1	-1E+10	1	-1E+10	1
4902663	25	C	04/08/2024	09:05	-126.920	48.465	0	146.60	0	7.6280	0	33.8530	0	26.430	0	145.312	0	113.7	4	39.0	4	-1E+10	1	-1E+10	1	-1E+10	1	-1E+10	1	-1E+10	1	-1E+10	1
4902663	25	C	04/08/2024	09:05	-126.920	48.465	0	147.70	0	7.6170	0	33.8560	0	26.433	0	146.402	0	113.6	4	38.9	4	-1E+10	1	-1E+10	1	-1E+10	1	-1E+10	1	-1E+10	1	-1E+10	1
4902663	25	C	04/08/2024	09:05	-126.920	48.465	0	148.70	0	7.6120	0	33.8560	0	26.434	0	147.393	0	113.6	4	38.9	4	-1E+10	1	-1E+10	1	-1E+10	1	-1E+10	1	-1E+10	1	-1E+10	1
4902663	25	C	04/08/2024	09:05	-126.920	48.465	0	149.80	0	7.6060	0	33.8600	0	26.438	0	148.483	0	113.7	4	39.0	4	-1E+10	1	-1E+10	1	-1E+10	1	-1E+10	1	-1E+10	1	-1E+10	1
4902663	25	C	04/08/2024	09:05	-126.920	48.465	0	150.80	0	7.6000	0	33.8650	0	26.443	0	149.474	0	114.1	4	39.1	4	-1E+10	1	-1E+10	1	-1E+10	1	-1E+10	1	-1E+10	1	-1E+10	1
4902663	25	C	04/08/2024	09:05	-126.920	48.465	0	151.90	0	7.6020	0	33.8670	0	26.444	0	150.563	0	114.7	4	39.3	4	-1E+10	1	-1E+10	1	-1E+10	1	-1E+10	1	-1E+10	1	-1E+10	1
4902663	25	C	04/08/2024	09:05	-126.920	48.465	0	152.90	0	7.5720	0	33.8640	0	26.446	0	151.554	0	115.3	4	39.5	4	-1E+10	1	-1E+10	1	-1E+10	1	-1E+10	1	-1E+10	1	-1E+10	1
4902663	25	C	04/08/2024	09:05	-126.920	48.465	0	153.90	0	7.5260	0	33.8660	0	26.454	0	152.545	0	115.8	4	39.6	4	-1E+10	1	-1E+10	1	-1E+10	1	-1E+10	1	-1E+10	1	-1E+10	1
4902663	25	C	04/08/2024	09:05	-126.920	48.465	0	155.00	0	7.4620	0	33.8580	0	26.457	0	153.635	0	116.0	4	39.6	4	-1E+10	1	-1E+10	1	-1E+10	1	-1E+10	1	-1E+10	1	-1E+10	1
4902663	25	C	04/08/2024	09:05	-126.920	48.465	0	156.00	0	7.4310	0	33.8570	0	26.461	0	154.626	0	115.9	4	39.5	4	-1E+10	1	-1E+10	1	-1E+10	1	-1E+10	1	-1E+10	1	-1E+10	1
4902663	25	C	04/08/2024	09:05	-126.920	48.465	0	157.00	0	7.3960	0	33.8580	0	26.467	0	155.617	0	115.7	4	39.5	4	-1E+10	1	-1E+10	1	-1E+10	1	-1E+10	1	-1E+10	1	-1E+10	1
4902663	25	C	04/08/2024	09:05	-126.920	48.465	0	158.10	0	7.3750	0	33.8610	0	26.472	0	156.707	0	115.5	4	39.4	4	-1E+10	1	-1E+10	1	-1E+10	1	-1E+10	1	-1E+10	1	-1E+10	1
4902663	25	C	04/08/2024	09:05	-126.920	48.465	0	159.10	0	7.3280	0	33.8610	0	26.478	0	157.697	0	115.5	4	39.3	4	-1E+10	1	-1E+10	1	-1E+10	1	-1E+10	1	-1E+10	1	-1E+10	1
4902663	25	C	04/08/2024	09:05	-126.920	48.465	0	160.10	0	7.3250	0	33.8630	0	26.480	0	158.688	0	115.3	4	39.3	4	-1E+10	1	-1E+10	1	-1E+10	1	-1E+10	1	-1E+10	1	-1E+10	1
4902663	25	C	04/08/2024	09:05	-126.920	48.465	0	161.10	0	7.3060	0	33.8590	0	26.480	0	159.679	0	115.1	4	39.2	4	-1E+10	1	-1E+10	1	-1E+10	1	-1E+10	1	-1E+10	1	-1E+10	1
4902663	25	C	04/08/2024	09:05	-126.920	48.465	0	162.10	0	7.2710	0	33.8700	0	26.494	0	160.670	0	114.8	4	39.0	4	-1E+10	1	-1E+10	1	-1E+10	1	-1E+10	1	-1E+10	1	-1E+10	1
4902663	25	C	04/08/2024	09:05	-126.920	48.465	0	163.20	0	7.2650	0	33.8590	0	26.486	0	161.760	0	114.2	4	38.8	4	-1E+10	1	-1E+10	1	-1E+10	1	-1E+10	1	-1E+10	1	-1E+10	1
4902663	25	C	04/08/2024	09:05	-126.920	48.465	0	164.20	0	7.2640	0	33.8620	0	26.488	0	162.750	0	113.8	4	38.7	4	-1E+10	1	-1E+10	1	-1E+10	1	-1E+10	1	-1E+10	1	-1E+10	1
4902663	25	C	04/08/2024	09:05	-126.920	48.465	0	165.30	0	7.2850	0	33.8670	0	26.489	0	163.840	0	113.5	4	38.6	4	-1E+10	1	-1E+10	1	-1E+10	1	-1E+10	1	-1E+10	1	-1E+10	1
4902663	25	C	04/08/2024	09:05	-126.920	48.465	0	166.30	0	7.2440	0	33.8720	0	26.499	0	164.831	0	113.4	4	38.5	4	-1E+10	1	-1E+10	1	-1E+10	1	-1E+10	1	-1E+10	1	-1E+10	1
4902663	25	C	04/08/2024	09:05	-126.920	48.465	0	167.30	0	7.2380	0	33.8680	0	26.497	0	165.822	0	112.9	4	38.4	4	-1E+10	1	-1E+10	1	-1E+10	1	-1E+10	1	-1E+10	1	-1E+10	1
4902663	25	C	04/08/2024	09:05	-126.920	48.465	0	168.40	0	7.2300	0	33.8670	0	26.497	0	166.912	0	112.5	4	38.2	4	-1E+10	1	-1E+10	1	-1E+10	1	-1E+10	1	-1E+10	1	-1E+10	1
4902663	25	C	04/08/2024	09:05	-126.920	48.465	0	169.40	0	7.2100	0	33.8650	0	26.498	0	167.902	0	111.9	4	38.0	4	-1E+10	1	-1E+10	1	-1E+10	1	-1E+10	1	-1E+10	1	-1E+10	1
4902663	25	C	04/08/2024	09:05	-126.920	48.465	0	170.40	0	7.1700	0	33.8650	0	26.504	0	168.893	0	111.2	4	37.7	4	-1E+10	1	-1E+10	1	-1E+10	1	-1E+10	1	-1E+10	1	-1E+10	1
4902663	25	C	04/08/2024	09:05	-126.920	48.465	0	171.50	0	7.1710	0	33.8700	0	26.508	0	169.983	0	110.4	4	37.5	4	-1E+10	1	-1E+10	1	-1E+10	1	-1E+10	1	-1E+10	1	-1E+10	1
4902663	25	C	04/08/2024	09:05	-126.920	48.465	0	172.50	0	7.1930	0	33.8780	0	26.511	0	170.974	0	109.9	4	37.3	4	-1E+10	1	-1E+10	1	-1E+10	1	-1E+10	1	-1E+10	1	-1E+10	1
4902663	25	C	04/08/2024	09:05	-126.920	48.465	0	173.50	0	7.1860	0	33.8810	0	26.514	0	171.964	0	109.4	4	37.1	4	-1E+10	1	-1E+10	1	-1E+10	1	-1E+10	1	-1E+10	1	-1E+10	1
4902663	25	C	04/08/2024	09:05	-126.920	48.465	0	174.60	0	7.1490	0	33.8820	0	26.520	0	173.054	0	108.9	4	36.9	4	-1E+10	1	-1E+10	1	-1E+10	1	-1E+10	1	-1E+10	1	-1E+10	1
4902663	25	C	04/08/2024	09:05	-126.920	48.465	0	175.60	0	7.1470	0	33.8820	0	26.520	0	174.045	0	108.4	4	36.7	4	-1E+10	1	-1E+10	1	-1E+10	1	-1E+10	1	-1E+10	1	-1E+10	1
4902663	25	C	04/08/2024	09:05	-126.920	48.465	0	176.60	0	7.1410	0	33.8840	0	26.523	0	175.036	0	107.8	4	36.5	4	-1E+10	1	-1E+10	1	-1E+10	1	-1E+10	1	-1E+10	1	-1E+10	1
4902663	25	C	04/08/2024	09:05	-126.920	48.465	0	177.60	0	7.1250	0	33.8830	0	26.524	0	176.026	0	107.1	4	36.3	4	-1E+10	1	-1E+10	1	-1E+10	1	-1E+10	1	-1E+10	1	-1E+10	1
4902663	25	C	04/08/2024	09:05	-126.920	48.465	0	178.60	0	7.1150	0	33.8810	0	26.524	0	177.017	0	106.5	4	36.1	4	-1E+10	1	-1E+10	1	-1E+10	1	-1E+10	1	-1E+10	1	-1E+10	1
4902663	25	C	04/08/2024	09:05	-126.920	48.465	0	179.60	0	7.0810	0	33.8820	0	26.529	0	178.008	0	105.6	4	35.8	4	-1E+10	1	-1E+10	1	-1E+10	1	-1E+10	1	-1E+10	1	-1E+10	1
4902663	25	C	04/08/2024	09:05	-126.920	48.465	0	180.70	0	7.0790	0	33.8840	0	26.531	0	179.098	0	104.6	4	35.4	4	-1E+10	1	-1E+10	1	-1E+10	1	-1E+10	1	-1E+10	1	-1E+10	1
4902663	25	C	04/08/2024	09:05	-126.920	48.465	0	181.60	0	7.0860	0	33.8870	0	26.533	0	179.989	0	103.6	4	35.1	4	-1E+10	1	-1E+10	1	-1E+10	1	-1E+10	1	-1E+10	1	-1E+10	1
4902663	25	C	04/08/2024	09:05	-126.920	48.465	0	182.60	0	7.1060	0	33.8900	0	26.532	0	180.980	0	102.6	4	34.8	4	-1E+10	1	-1E+10	1	-1E+10	1	-1E+10	1	-1E+10	1	-1E+10	1
4902663	25	C	04/08/2024	09:05	-126.920	48.465	0	183.50	0	7.1140	0	33.8940	0	26.534	0	181.872	0	101.6	4	34.4	4	-1E+10	1	-1E+10	1	-1E+10	1	-1E+10	1	-1E+10	1	-1E+10	1
4902663	25	C	04/08/2024	09:05	-126.920	48.465	0	184.50	0	7.1260	0	33.9000	0	26.538	0	182.862	0	100.8	4	34.2	4	-1E+10	1	-1E+10	1	-1E+10	1	-1E+10	1	-1E+10	1	-1E+10	1
4902663	25	C	04/08/2024	09:05	-126.920	48.465	0	185.50	0	7.1120	0	33.9030	0	26.542	0	183.853	0	99.9	4	33.9	4	-1E+10	1	-1E+10	1	-1E+10	1	-1E+10	1	-1E+10	1	-1E+10	1
4902663	25	C	04/08/2024	09:05	-126.920	48.465	0	186.90	0	7.0820	0	33.8980	0	26.542	0	185.240	0	98.1	4	33.2	4	-1E+10	1	-1E+10	1	-1E+10	1	-1E+10	1	-1E+10	1	-1E+10	1
4902663	25	C	04/08/2024	09:05	-126.920	48.465	0	188.40	0	7.0600	0	33.9000	0	26.547	0	186.726	0	95.9	4	32.5	4	-1E+10	1	-1E+10	1	-1E+10	1	-1E+10	1	-1E+10	1	-1E+10	1
4902663	25	C	04/08/2024	09:05	-126.920	48.465	0	189.40	0	7.0620	0	33.9020	0	26.548	0	187.717	0	94.3	4	31.9	4	-1E+10	1	-1E+10	1	-1E+10	1	-1E+10	1	-1E+10	1	-1E+10	1
4902663	25	C	04/08/2024	09:05	-126.920	48.465	0	190.40	0	7.1830	0	33.9250	0	26.549	0	188.707	0	93.7	4	31.8	4	-1E+10	1	-1E+10	1	-1E+10	1	-1E+10	1	-1E+10	1	-1E+10	1
4902663	25	C	04/08/2024	09:05	-126.920	48.465	0	191.40	0	7.1800	0	33.9340	0	26.557	0	189.698	0	94.0	4	31.9	4	-1E+10	1	-1E+10	1	-1E+10	1	-1E+10	1	-1E+10	1	-1E+10	1
4902663	25	C	04/08/2024	09:05	-126.920	48.465	0	192.40	0	7.1180	0	33.9390	0	26.569	0	190.688	0	94.3	4	32.0	4	-1E+10	1	-1E+10	1	-1E+10	1	-1E+10	1	-1E+10	1	-1E+10	1
4902663	25	C	04/08/2024	09:05	-126.920	48.465	0	193.40	0	7.1140	0	33.9290	0	26.562	0	191.679	0	94.4	4	32.0	4	-1E+10	1	-1E+10	1	-1E+10	1	-1E+10	1	-1E+10	1	-1E+10	1
4902663	25	C	04/08/2024	09:05	-126.920	48.465	0	194.40	0	7.1180	0	33.9330	0	26.565	0	192.670	0	94.6	4	32.1	4	-1E+10	1	-1E+10	1	-1E+10	1	-1E+10	1	-1E+10	1	-1E+10	1
4902663	25	C	04/08/2024	09:05	-126.920	48.465	0	195.40	0	7.1190	0	33.9340	0	26.565	0	193.660	0	95.0	4	32.2	4	-1E+10	1	-1E+10	1	-1E+10	1	-1E+10	1	-1E+10	1	-1E+10	1
4902663	25	C	04/08/2024	09:05	-126.920	48.465	0	196.40	0	7.1180	0	33.9320	0	26.564	0	194.651	0	95.7	4	32.4	4	-1E+10	1	-1E+10	1	-1E+10	1	-1E+10	1	-1E+10	1	-1E+10	1
4902663	25	C	04/08/2024	09:05	-126.920	48.465	0	197.40	0	7.0870	0	33.9400	0	26.575	0	195.642	0	96.4	4	32.7	4	-1E+10	1	-1E+10	1	-1E+10	1	-1E+10	1	-1E+10	1	-1E+10	1
4902663	25	C	04/08/2024	09:05	-126.920	48.465	0	198.40	0	7.0410	0	33.9300	0	26.573	0	196.632	0	97.0	4	32.8	4	-1E+10	1	-1E+10	1	-1E+10	1	-1E+10	1	-1E+10	1	-1E+10	1
4902663	25	C	04/08/2024	09:05	-126.920	48.465	0	199.40	0	6.9690	0	33.9210	0	26.576	0	197.623	0	97.2	4	32.8	4	-1E+10	1	-1E+10	1	-1E+10	1	-1E+10	1	-1E+10	1	-1E+10	1
4902663	25	C	04/08/2024	09:05	-126.920	48.465	0	200.40	0	6.9540	0	33.9170	0	26.575	0	198.613	0	97.2	4	32.8	4	-1E+10	1	-1E+10	1	-1E+10	1	-1E+10	1	-1E+10	1	-1E+10	1
4902663	25	C	04/08/2024	09:05	-126.920	48.465	0	201.40	0	6.9410	0	33.9150	0	26.575	0	199.604	0	97.0	4	32.8	4	-1E+10	1	-1E+10	1	-1E+10	1	-1E+10	1	-1E+10	1	-1E+10	1
4902663	25	C	04/08/2024	09:05	-126.920	48.465	0	202.40	0	6.9050	0	33.9140	0	26.579	0	200.595	0	96.7	4	32.6	4	-1E+10	1	-1E+10	1	-1E+10	1	-1E+10	1	-1E+10	1	-1E+10	1
4902663	25	C	04/08/2024	09:05	-126.920	48.465	0	203.40	0	6.8990	0	33.9130	0	26.579	0	201.585	0	96.3	4	32.5	4	-1E+10	1	-1E+10	1	-1E+10	1	-1E+10	1	-1E+10	1	-1E+10	1
4902663	25	C	04/08/2024	09:05	-126.920	48.465	0	204.40	0	6.8780	0	33.9120	0	26.581	0	202.576	0	95.8	4	32.3	4	-1E+10	1	-1E+10	1	-1E+10	1	-1E+10	1	-1E+10	1	-1E+10	1
4902663	25	C	04/08/2024	09:05	-126.920	48.465	0	205.40	0	6.8300	0	33.9120	0	26.588	0	203.566	0	95.2	4	32.0	4	-1E+10	1	-1E+10	1	-1E+10	1	-1E+10	1	-1E+10	1	-1E+10	1
4902663	25	C	04/08/2024	09:05	-126.920	48.465	0	206.40	0	6.8150	0	33.9090	0	26.587	0	204.557	0	94.2	4	31.7	4	-1E+10	1	-1E+10	1	-1E+10	1	-1E+10	1	-1E+10	1	-1E+10	1
4902663	25	C	04/08/2024	09:05	-126.920	48.465	0	207.90	0	6.8580	0	33.9180	0	26.589	0	206.043	0	92.8	4	31.3	4	-1E+10	1	-1E+10	1	-1E+10	1	-1E+10	1	-1E+10	1	-1E+10	1
4902663	25	C	04/08/2024	09:05	-126.920	48.465	0	209.90	0	6.8990	0	33.9340	0	26.596	0	208.024	0	93.0	4	31.4	4	-1E+10	1	-1E+10	1	-1E+10	1	-1E+10	1	-1E+10	1	-1E+10	1
4902663	25	C	04/08/2024	09:05	-126.920	48.465	0	211.40	0	6.8410	0	33.9330	0	26.603	0	209.510	0	93.2	4	31.4	4	-1E+10	1	-1E+10	1	-1E+10	1	-1E+10	1	-1E+10	1	-1E+10	1
4902663	25	C	04/08/2024	09:05	-126.920	48.465	0	212.40	0	6.8250	0	33.9240	0	26.598	0	210.500	0	93.0	4	31.3	4	-1E+10	1	-1E+10	1	-1E+10	1	-1E+10	1	-1E+10	1	-1E+10	1
4902663	25	C	04/08/2024	09:05	-126.920	48.465	0	213.50	0	6.7780	0	33.9210	0	26.602	0	211.590	0	92.5	4	31.1	4	-1E+10	1	-1E+10	1	-1E+10	1	-1E+10	1	-1E+10	1	-1E+10	1
4902663	25	C	04/08/2024	09:05	-126.920	48.465	0	214.50	0	6.7830	0	33.9220	0	26.602	0	212.581	0	91.9	4	30.9	4	-1E+10	1	-1E+10	1	-1E+10	1	-1E+10	1	-1E+10	1	-1E+10	1
4902663	25	C	04/08/2024	09:05	-126.920	48.465	0	215.50	0	6.8030	0	33.9260	0	26.602	0	213.571	0	91.5	4	30.8	4	-1E+10	1	-1E+10	1	-1E+10	1	-1E+10	1	-1E+10	1	-1E+10	1
4902663	25	C	04/08/2024	09:05	-126.920	48.465	0	216.50	0	6.7950	0	33.9280	0	26.605	0	214.562	0	91.3	4	30.7	4	-1E+10	1	-1E+10	1	-1E+10	1	-1E+10	1	-1E+10	1	-1E+10	1
4902663	25	C	04/08/2024	09:05	-126.920	48.465	0	217.60	0	6.7870	0	33.9300	0	26.608	0	215.651	0	91.2	4	30.7	4	-1E+10	1	-1E+10	1	-1E+10	1	-1E+10	1	-1E+10	1	-1E+10	1
4902663	25	C	04/08/2024	09:05	-126.920	48.465	0	218.60	0	6.7640	0	33.9320	0	26.612	0	216.642	0	91.1	4	30.6	4	-1E+10	1	-1E+10	1	-1E+10	1	-1E+10	1	-1E+10	1	-1E+10	1
4902663	25	C	04/08/2024	09:05	-126.920	48.465	0	219.60	0	6.7640	0	33.9310	0	26.612	0	217.632	0	91.1	4	30.6	4	-1E+10	1	-1E+10	1	-1E+10	1	-1E+10	1	-1E+10	1	-1E+10	1
4902663	25	C	04/08/2024	09:05	-126.920	48.465	0	220.60	0	6.7860	0	33.9360	0	26.613	0	218.623	0	91.4	4	30.8	4	-1E+10	1	-1E+10	1	-1E+10	1	-1E+10	1	-1E+10	1	-1E+10	1
4902663	25	C	04/08/2024	09:05	-126.920	48.465	0	221.70	0	6.7270	0	33.9350	0	26.620	0	219.712	0	91.7	4	30.8	4	-1E+10	1	-1E+10	1	-1E+10	1	-1E+10	1	-1E+10	1	-1E+10	1
4902663	25	C	04/08/2024	09:05	-126.920	48.465	0	222.70	0	6.7250	0	33.9260	0	26.613	0	220.703	0	91.7	4	30.8	4	-1E+10	1	-1E+10	1	-1E+10	1	-1E+10	1	-1E+10	1	-1E+10	1
4902663	25	C	04/08/2024	09:05	-126.920	48.465	0	223.70	0	6.7190	0	33.9200	0	26.609	0	221.693	0	91.7	4	30.8	4	-1E+10	1	-1E+10	1	-1E+10	1	-1E+10	1	-1E+10	1	-1E+10	1
4902663	25	C	04/08/2024	09:05	-126.920	48.465	0	224.80	0	6.6810	0	33.9180	0	26.612	0	222.783	0	91.5	4	30.7	4	-1E+10	1	-1E+10	1	-1E+10	1	-1E+10	1	-1E+10	1	-1E+10	1
4902663	25	C	04/08/2024	09:05	-126.920	48.465	0	225.80	0	6.6670	0	33.9200	0	26.616	0	223.773	0	91.0	4	30.5	4	-1E+10	1	-1E+10	1	-1E+10	1	-1E+10	1	-1E+10	1	-1E+10	1
4902663	25	C	04/08/2024	09:05	-126.920	48.465	0	226.90	0	6.6780	0	33.9330	0	26.625	0	224.863	0	90.8	4	30.5	4	-1E+10	1	-1E+10	1	-1E+10	1	-1E+10	1	-1E+10	1	-1E+10	1
4902663	25	C	04/08/2024	09:05	-126.920	48.465	0	227.90	0	6.6480	0	33.9250	0	26.622	0	225.853	0	90.6	4	30.4	4	-1E+10	1	-1E+10	1	-1E+10	1	-1E+10	1	-1E+10	1	-1E+10	1
4902663	25	C	04/08/2024	09:05	-126.920	48.465	0	229.00	0	6.6360	0	33.9230	0	26.622	0	226.943	0	90.1	4	30.2	4	-1E+10	1	-1E+10	1	-1E+10	1	-1E+10	1	-1E+10	1	-1E+10	1
4902663	25	C	04/08/2024	09:05	-126.920	48.465	0	230.00	0	6.6300	0	33.9240	0	26.624	0	227.933	0	89.6	4	30.0	4	-1E+10	1	-1E+10	1	-1E+10	1	-1E+10	1	-1E+10	1	-1E+10	1
4902663	25	C	04/08/2024	09:05	-126.920	48.465	0	231.10	0	6.6190	0	33.9240	0	26.625	0	229.023	0	89.1	4	29.9	4	-1E+10	1	-1E+10	1	-1E+10	1	-1E+10	1	-1E+10	1	-1E+10	1
4902663	25	C	04/08/2024	09:05	-126.920	48.465	0	232.10	0	6.6500	0	33.9270	0	26.624	0	230.013	0	88.7	4	29.8	4	-1E+10	1	-1E+10	1	-1E+10	1	-1E+10	1	-1E+10	1	-1E+10	1
4902663	25	C	04/08/2024	09:05	-126.920	48.465	0	233.20	0	6.6400	0	33.9310	0	26.628	0	231.103	0	88.7	4	29.8	4	-1E+10	1	-1E+10	1	-1E+10	1	-1E+10	1	-1E+10	1	-1E+10	1
4902663	25	C	04/08/2024	09:05	-126.920	48.465	0	234.20	0	6.6270	0	33.9300	0	26.629	0	232.093	0	88.6	4	29.7	4	-1E+10	1	-1E+10	1	-1E+10	1	-1E+10	1	-1E+10	1	-1E+10	1
4902663	25	C	04/08/2024	09:05	-126.920	48.465	0	235.20	0	6.5560	0	33.9230	0	26.633	0	233.084	0	88.3	4	29.6	4	-1E+10	1	-1E+10	1	-1E+10	1	-1E+10	1	-1E+10	1	-1E+10	1
4902663	25	C	04/08/2024	09:05	-126.920	48.465	0	236.30	0	6.5500	0	33.9260	0	26.636	0	234.173	0	87.9	4	29.4	4	-1E+10	1	-1E+10	1	-1E+10	1	-1E+10	1	-1E+10	1	-1E+10	1
4902663	25	C	04/08/2024	09:05	-126.920	48.465	0	237.30	0	6.5380	0	33.9270	0	26.639	0	235.164	0	87.4	4	29.3	4	-1E+10	1	-1E+10	1	-1E+10	1	-1E+10	1	-1E+10	1	-1E+10	1
4902663	25	C	04/08/2024	09:05	-126.920	48.465	0	238.30	0	6.5370	0	33.9270	0	26.639	0	236.154	0	86.9	4	29.1	4	-1E+10	1	-1E+10	1	-1E+10	1	-1E+10	1	-1E+10	1	-1E+10	1
4902663	25	C	04/08/2024	09:05	-126.920	48.465	0	239.40	0	6.5260	0	33.9250	0	26.639	0	237.243	0	86.2	4	28.8	4	-1E+10	1	-1E+10	1	-1E+10	1	-1E+10	1	-1E+10	1	-1E+10	1
4902663	25	C	04/08/2024	09:05	-126.920	48.465	0	240.90	0	6.5090	0	33.9290	0	26.644	0	238.729	0	85.1	4	28.4	4	-1E+10	1	-1E+10	1	-1E+10	1	-1E+10	1	-1E+10	1	-1E+10	1
4902663	25	C	04/08/2024	09:05	-126.920	48.465	0	242.10	0	6.5120	0	33.9310	0	26.645	0	239.918	0	84.2	4	28.2	4	-1E+10	1	-1E+10	1	-1E+10	1	-1E+10	1	-1E+10	1	-1E+10	1
4902663	25	C	04/08/2024	09:05	-126.920	48.465	0	242.90	0	6.5600	0	33.9420	0	26.648	0	240.710	0	84.0	4	28.1	4	-1E+10	1	-1E+10	1	-1E+10	1	-1E+10	1	-1E+10	1	-1E+10	1
4902663	25	C	04/08/2024	09:05	-126.920	48.465	0	244.00	0	6.5510	0	33.9400	0	26.647	0	241.799	0	83.8	4	28.0	4	-1E+10	1	-1E+10	1	-1E+10	1	-1E+10	1	-1E+10	1	-1E+10	1
4902663	25	C	04/08/2024	09:05	-126.920	48.465	0	245.20	0	6.5390	0	33.9410	0	26.650	0	242.988	0	83.5	4	27.9	4	-1E+10	1	-1E+10	1	-1E+10	1	-1E+10	1	-1E+10	1	-1E+10	1
4902663	25	C	04/08/2024	09:05	-126.920	48.465	0	246.00	0	6.5060	0	33.9380	0	26.652	0	243.780	0	83.2	4	27.8	4	-1E+10	1	-1E+10	1	-1E+10	1	-1E+10	1	-1E+10	1	-1E+10	1
4902663	25	C	04/08/2024	09:05	-126.920	48.465	0	246.80	0	6.4860	0	33.9410	0	26.656	0	244.572	0	82.8	4	27.7	4	-1E+10	1	-1E+10	1	-1E+10	1	-1E+10	1	-1E+10	1	-1E+10	1
4902663	25	C	04/08/2024	09:05	-126.920	48.465	0	248.00	0	6.4870	0	33.9400	0	26.656	0	245.761	0	82.2	4	27.5	4	-1E+10	1	-1E+10	1	-1E+10	1	-1E+10	1	-1E+10	1	-1E+10	1
4902663	25	C	04/08/2024	09:05	-126.920	48.465	0	249.20	0	6.4900	0	33.9430	0	26.658	0	246.949	0	81.8	4	27.3	4	-1E+10	1	-1E+10	1	-1E+10	1	-1E+10	1	-1E+10	1	-1E+10	1
4902663	25	C	04/08/2024	09:05	-126.920	48.465	0	250.00	0	6.4830	0	33.9430	0	26.659	0	247.742	0	81.4	4	27.2	4	-1E+10	1	-1E+10	1	-1E+10	1	-1E+10	1	-1E+10	1	-1E+10	1
4902663	25	C	04/08/2024	09:05	-126.920	48.465	0	250.80	0	6.4730	0	33.9410	0	26.658	0	248.534	0	81.1	4	27.1	4	-1E+10	1	-1E+10	1	-1E+10	1	-1E+10	1	-1E+10	1	-1E+10	1
4902663	25	C	04/08/2024	09:05	-126.920	48.465	0	251.70	0	6.4750	0	33.9430	0	26.660	0	249.425	0	80.6	4	26.9	4	-1E+10	1	-1E+10	1	-1E+10	1	-1E+10	1	-1E+10	1	-1E+10	1
4902663	25	C	04/08/2024	09:05	-126.920	48.465	0	252.90	0	6.4610	0	33.9430	0	26.661	0	250.614	0	80.0	4	26.7	4	-1E+10	1	-1E+10	1	-1E+10	1	-1E+10	1	-1E+10	1	-1E+10	1
4902663	25	C	04/08/2024	09:05	-126.920	48.465	0	254.10	0	6.4480	0	33.9420	0	26.662	0	251.802	0	79.1	4	26.4	4	-1E+10	1	-1E+10	1	-1E+10	1	-1E+10	1	-1E+10	1	-1E+10	1
4902663	25	C	04/08/2024	09:05	-126.920	48.465	0	254.90	0	6.4410	0	33.9410	0	26.662	0	252.594	0	78.5	4	26.2	4	-1E+10	1	-1E+10	1	-1E+10	1	-1E+10	1	-1E+10	1	-1E+10	1
4902663	25	C	04/08/2024	09:05	-126.920	48.465	0	255.70	0	6.5020	0	33.9540	0	26.665	0	253.387	0	78.2	4	26.1	4	-1E+10	1	-1E+10	1	-1E+10	1	-1E+10	1	-1E+10	1	-1E+10	1
4902663	25	C	04/08/2024	09:05	-126.920	48.465	0	256.90	0	6.4900	0	33.9550	0	26.667	0	254.575	0	77.9	4	26.0	4	-1E+10	1	-1E+10	1	-1E+10	1	-1E+10	1	-1E+10	1	-1E+10	1
4902663	25	C	04/08/2024	09:05	-126.920	48.465	0	258.10	0	6.4790	0	33.9570	0	26.670	0	255.763	0	77.6	4	25.9	4	-1E+10	1	-1E+10	1	-1E+10	1	-1E+10	1	-1E+10	1	-1E+10	1
4902663	25	C	04/08/2024	09:05	-126.920	48.465	0	259.00	0	6.4510	0	33.9550	0	26.672	0	256.655	0	77.3	4	25.8	4	-1E+10	1	-1E+10	1	-1E+10	1	-1E+10	1	-1E+10	1	-1E+10	1
4902663	25	C	04/08/2024	09:05	-126.920	48.465	0	259.80	0	6.4160	0	33.9530	0	26.675	0	257.447	0	77.0	4	25.7	4	-1E+10	1	-1E+10	1	-1E+10	1	-1E+10	1	-1E+10	1	-1E+10	1
4902663	25	C	04/08/2024	09:05	-126.920	48.465	0	261.00	0	6.3800	0	33.9510	0	26.678	0	258.635	0	76.4	4	25.5	4	-1E+10	1	-1E+10	1	-1E+10	1	-1E+10	1	-1E+10	1	-1E+10	1
4902663	25	C	04/08/2024	09:05	-126.920	48.465	0	262.20	0	6.3880	0	33.9590	0	26.684	0	259.824	0	76.1	4	25.4	4	-1E+10	1	-1E+10	1	-1E+10	1	-1E+10	1	-1E+10	1	-1E+10	1
4902663	25	C	04/08/2024	09:05	-126.920	48.465	0	263.10	0	6.3860	0	33.9620	0	26.686	0	260.715	0	76.1	4	25.4	4	-1E+10	1	-1E+10	1	-1E+10	1	-1E+10	1	-1E+10	1	-1E+10	1
4902663	25	C	04/08/2024	09:05	-126.920	48.465	0	263.90	0	6.3930	0	33.9620	0	26.685	0	261.507	0	76.3	4	25.4	4	-1E+10	1	-1E+10	1	-1E+10	1	-1E+10	1	-1E+10	1	-1E+10	1
4902663	25	C	04/08/2024	09:05	-126.920	48.465	0	264.80	0	6.3870	0	33.9670	0	26.690	0	262.399	0	76.5	4	25.5	4	-1E+10	1	-1E+10	1	-1E+10	1	-1E+10	1	-1E+10	1	-1E+10	1
4902663	25	C	04/08/2024	09:05	-126.920	48.465	0	265.60	0	6.3800	0	33.9610	0	26.686	0	263.191	0	76.6	4	25.6	4	-1E+10	1	-1E+10	1	-1E+10	1	-1E+10	1	-1E+10	1	-1E+10	1
4902663	25	C	04/08/2024	09:05	-126.920	48.465	0	266.90	0	6.3650	0	33.9580	0	26.686	0	264.478	0	76.9	4	25.6	4	-1E+10	1	-1E+10	1	-1E+10	1	-1E+10	1	-1E+10	1	-1E+10	1
4902663	25	C	04/08/2024	09:05	-126.920	48.465	0	268.20	0	6.3520	0	33.9520	0	26.683	0	265.766	0	77.1	4	25.7	4	-1E+10	1	-1E+10	1	-1E+10	1	-1E+10	1	-1E+10	1	-1E+10	1
4902663	25	C	04/08/2024	09:05	-126.920	48.465	0	269.00	0	6.3110	0	33.9550	0	26.690	0	266.558	0	77.1	4	25.7	4	-1E+10	1	-1E+10	1	-1E+10	1	-1E+10	1	-1E+10	1	-1E+10	1
4902663	25	C	04/08/2024	09:05	-126.920	48.465	0	269.80	0	6.2830	0	33.9520	0	26.692	0	267.350	0	77.1	4	25.6	4	-1E+10	1	-1E+10	1	-1E+10	1	-1E+10	1	-1E+10	1	-1E+10	1
4902663	25	C	04/08/2024	09:05	-126.920	48.465	0	270.70	0	6.2790	0	33.9530	0	26.693	0	268.241	0	77.1	4	25.7	4	-1E+10	1	-1E+10	1	-1E+10	1	-1E+10	1	-1E+10	1	-1E+10	1
4902663	25	C	04/08/2024	09:05	-126.920	48.465	0	271.90	0	6.2060	0	33.9460	0	26.697	0	269.430	0	76.9	4	25.5	4	-1E+10	1	-1E+10	1	-1E+10	1	-1E+10	1	-1E+10	1	-1E+10	1
4902663	25	C	04/08/2024	09:05	-126.920	48.465	0	273.20	0	6.1950	0	33.9470	0	26.699	0	270.717	0	76.6	4	25.4	4	-1E+10	1	-1E+10	1	-1E+10	1	-1E+10	1	-1E+10	1	-1E+10	1
4902663	25	C	04/08/2024	09:05	-126.920	48.465	0	274.10	0	6.1900	0	33.9460	0	26.699	0	271.608	0	76.2	4	25.3	4	-1E+10	1	-1E+10	1	-1E+10	1	-1E+10	1	-1E+10	1	-1E+10	1
4902663	25	C	04/08/2024	09:05	-126.920	48.465	0	275.00	0	6.1960	0	33.9480	0	26.700	0	272.499	0	75.9	4	25.2	4	-1E+10	1	-1E+10	1	-1E+10	1	-1E+10	1	-1E+10	1	-1E+10	1
4902663	25	C	04/08/2024	09:05	-126.920	48.465	0	275.80	0	6.1990	0	33.9490	0	26.700	0	273.291	0	75.6	4	25.1	4	-1E+10	1	-1E+10	1	-1E+10	1	-1E+10	1	-1E+10	1	-1E+10	1
4902663	25	C	04/08/2024	09:05	-126.920	48.465	0	276.60	0	6.1990	0	33.9500	0	26.701	0	274.084	0	75.3	4	25.0	4	-1E+10	1	-1E+10	1	-1E+10	1	-1E+10	1	-1E+10	1	-1E+10	1
4902663	25	C	04/08/2024	09:05	-126.920	48.465	0	277.90	0	6.1830	0	33.9500	0	26.703	0	275.371	0	74.8	4	24.8	4	-1E+10	1	-1E+10	1	-1E+10	1	-1E+10	1	-1E+10	1	-1E+10	1
4902663	25	C	04/08/2024	09:05	-126.920	48.465	0	279.10	0	6.1470	0	33.9460	0	26.704	0	276.559	0	74.2	4	24.6	4	-1E+10	1	-1E+10	1	-1E+10	1	-1E+10	1	-1E+10	1	-1E+10	1
4902663	25	C	04/08/2024	09:05	-126.920	48.465	0	279.90	0	6.1390	0	33.9470	0	26.706	0	277.351	0	73.7	4	24.4	4	-1E+10	1	-1E+10	1	-1E+10	1	-1E+10	1	-1E+10	1	-1E+10	1
4902663	25	C	04/08/2024	09:05	-126.920	48.465	0	280.80	0	6.1400	0	33.9440	0	26.704	0	278.243	0	73.1	4	24.2	4	-1E+10	1	-1E+10	1	-1E+10	1	-1E+10	1	-1E+10	1	-1E+10	1
4902663	25	C	04/08/2024	09:05	-126.920	48.465	0	282.00	0	6.1320	0	33.9460	0	26.706	0	279.431	0	72.0	4	23.9	4	-1E+10	1	-1E+10	1	-1E+10	1	-1E+10	1	-1E+10	1	-1E+10	1
4902663	25	C	04/08/2024	09:05	-126.920	48.465	0	283.30	0	6.1210	0	33.9490	0	26.710	0	280.718	0	70.6	4	23.4	4	-1E+10	1	-1E+10	1	-1E+10	1	-1E+10	1	-1E+10	1	-1E+10	1
4902663	25	C	04/08/2024	09:05	-126.920	48.465	0	284.20	0	6.1160	0	33.9530	0	26.714	0	281.609	0	69.7	4	23.1	4	-1E+10	1	-1E+10	1	-1E+10	1	-1E+10	1	-1E+10	1	-1E+10	1
4902663	25	C	04/08/2024	09:05	-126.920	48.465	0	285.10	0	6.1250	0	33.9580	0	26.717	0	282.501	0	68.7	4	22.8	4	-1E+10	1	-1E+10	1	-1E+10	1	-1E+10	1	-1E+10	1	-1E+10	1
4902663	25	C	04/08/2024	09:05	-126.920	48.465	0	285.90	0	6.1360	0	33.9580	0	26.715	0	283.293	0	67.9	4	22.5	4	-1E+10	1	-1E+10	1	-1E+10	1	-1E+10	1	-1E+10	1	-1E+10	1
4902663	25	C	04/08/2024	09:05	-126.920	48.465	0	286.80	0	6.1430	0	33.9620	0	26.718	0	284.184	0	67.0	4	22.2	4	-1E+10	1	-1E+10	1	-1E+10	1	-1E+10	1	-1E+10	1	-1E+10	1
4902663	25	C	04/08/2024	09:05	-126.920	48.465	0	287.70	0	6.1180	0	33.9650	0	26.723	0	285.075	0	65.9	4	21.9	4	-1E+10	1	-1E+10	1	-1E+10	1	-1E+10	1	-1E+10	1	-1E+10	1
4902663	25	C	04/08/2024	09:05	-126.920	48.465	0	288.60	0	6.1630	0	33.9610	0	26.714	0	285.966	0	65.0	4	21.6	4	-1E+10	1	-1E+10	1	-1E+10	1	-1E+10	1	-1E+10	1	-1E+10	1
4902663	25	C	04/08/2024	09:05	-126.920	48.465	0	289.50	0	6.2550	0	33.9880	0	26.724	0	286.857	0	64.6	4	21.5	4	-1E+10	1	-1E+10	1	-1E+10	1	-1E+10	1	-1E+10	1	-1E+10	1
4902663	25	C	04/08/2024	09:05	-126.920	48.465	0	290.90	0	6.2580	0	33.9910	0	26.726	0	288.244	0	64.2	4	21.4	4	-1E+10	1	-1E+10	1	-1E+10	1	-1E+10	1	-1E+10	1	-1E+10	1
4902663	25	C	04/08/2024	09:05	-126.920	48.465	0	292.30	0	6.2510	0	33.9920	0	26.728	0	289.630	0	64.0	4	21.3	4	-1E+10	1	-1E+10	1	-1E+10	1	-1E+10	1	-1E+10	1	-1E+10	1
4902663	25	C	04/08/2024	09:05	-126.920	48.465	0	293.20	0	6.2450	0	33.9940	0	26.730	0	290.521	0	63.9	4	21.2	4	-1E+10	1	-1E+10	1	-1E+10	1	-1E+10	1	-1E+10	1	-1E+10	1
4902663	25	C	04/08/2024	09:05	-126.920	48.465	0	294.20	0	6.2430	0	33.9940	0	26.730	0	291.511	0	63.8	4	21.2	4	-1E+10	1	-1E+10	1	-1E+10	1	-1E+10	1	-1E+10	1	-1E+10	1
4902663	25	C	04/08/2024	09:05	-126.920	48.465	0	295.10	0	6.2420	0	33.9930	0	26.730	0	292.402	0	63.8	4	21.2	4	-1E+10	1	-1E+10	1	-1E+10	1	-1E+10	1	-1E+10	1	-1E+10	1
4902663	25	C	04/08/2024	09:05	-126.920	48.465	0	296.00	0	6.2410	0	33.9930	0	26.730	0	293.293	0	63.7	4	21.2	4	-1E+10	1	-1E+10	1	-1E+10	1	-1E+10	1	-1E+10	1	-1E+10	1
4902663	25	C	04/08/2024	09:05	-126.920	48.465	0	296.90	0	6.2380	0	33.9920	0	26.729	0	294.185	0	63.7	4	21.2	4	-1E+10	1	-1E+10	1	-1E+10	1	-1E+10	1	-1E+10	1	-1E+10	1
4902663	25	C	04/08/2024	09:05	-126.920	48.465	0	297.90	0	6.2270	0	33.9920	0	26.731	0	295.175	0	63.7	4	21.2	4	-1E+10	1	-1E+10	1	-1E+10	1	-1E+10	1	-1E+10	1	-1E+10	1
4902663	25	C	04/08/2024	09:05	-126.920	48.465	0	298.80	0	6.1670	0	33.9890	0	26.736	0	296.066	0	63.6	4	21.1	4	-1E+10	1	-1E+10	1	-1E+10	1	-1E+10	1	-1E+10	1	-1E+10	1
4902663	25	C	04/08/2024	09:05	-126.920	48.465	0	299.70	0	6.1670	0	33.9880	0	26.735	0	296.957	0	63.5	4	21.1	4	-1E+10	1	-1E+10	1	-1E+10	1	-1E+10	1	-1E+10	1	-1E+10	1
4902663	25	C	04/08/2024	09:05	-126.920	48.465	0	300.70	0	6.1540	0	33.9890	0	26.738	0	297.947	0	63.3	4	21.0	4	-1E+10	1	-1E+10	1	-1E+10	1	-1E+10	1	-1E+10	1	-1E+10	1
4902663	25	C	04/08/2024	09:05	-126.920	48.465	0	301.60	0	6.1570	0	33.9890	0	26.737	0	298.838	0	63.2	4	21.0	4	-1E+10	1	-1E+10	1	-1E+10	1	-1E+10	1	-1E+10	1	-1E+10	1
4902663	25	C	04/08/2024	09:05	-126.920	48.465	0	302.90	0	6.1520	0	33.9900	0	26.739	0	300.125	0	63.1	4	20.9	4	-1E+10	1	-1E+10	1	-1E+10	1	-1E+10	1	-1E+10	1	-1E+10	1
4902663	25	C	04/08/2024	09:05	-126.920	48.465	0	304.30	0	6.0910	0	33.9850	0	26.743	0	301.512	0	62.8	4	20.8	4	-1E+10	1	-1E+10	1	-1E+10	1	-1E+10	1	-1E+10	1	-1E+10	1
4902663	25	C	04/08/2024	09:05	-126.920	48.465	0	305.30	0	6.0890	0	33.9850	0	26.743	0	302.502	0	62.5	4	20.7	4	-1E+10	1	-1E+10	1	-1E+10	1	-1E+10	1	-1E+10	1	-1E+10	1
4902663	25	C	04/08/2024	09:05	-126.920	48.465	0	306.20	0	6.0830	0	33.9850	0	26.744	0	303.393	0	62.2	4	20.6	4	-1E+10	1	-1E+10	1	-1E+10	1	-1E+10	1	-1E+10	1	-1E+10	1
4902663	25	C	04/08/2024	09:05	-126.920	48.465	0	307.10	0	6.0430	0	33.9890	0	26.752	0	304.284	0	61.7	4	20.4	4	-1E+10	1	-1E+10	1	-1E+10	1	-1E+10	1	-1E+10	1	-1E+10	1
4902663	25	C	04/08/2024	09:05	-126.920	48.465	0	308.00	0	6.0330	0	33.9810	0	26.747	0	305.175	0	61.1	4	20.2	4	-1E+10	1	-1E+10	1	-1E+10	1	-1E+10	1	-1E+10	1	-1E+10	1
4902663	25	C	04/08/2024	09:05	-126.920	48.465	0	309.00	0	6.0370	0	33.9800	0	26.745	0	306.165	0	60.4	4	20.0	4	-1E+10	1	-1E+10	1	-1E+10	1	-1E+10	1	-1E+10	1	-1E+10	1
4902663	25	C	04/08/2024	09:05	-126.920	48.465	0	309.90	0	6.0640	0	33.9840	0	26.745	0	307.056	0	59.8	4	19.8	4	-1E+10	1	-1E+10	1	-1E+10	1	-1E+10	1	-1E+10	1	-1E+10	1
4902663	25	C	04/08/2024	09:05	-126.920	48.465	0	310.80	0	6.0730	0	33.9960	0	26.754	0	307.947	0	59.6	4	19.7	4	-1E+10	1	-1E+10	1	-1E+10	1	-1E+10	1	-1E+10	1	-1E+10	1
4902663	25	C	04/08/2024	09:05	-126.920	48.465	0	311.80	0	6.0730	0	33.9950	0	26.753	0	308.937	0	59.2	4	19.6	4	-1E+10	1	-1E+10	1	-1E+10	1	-1E+10	1	-1E+10	1	-1E+10	1
4902663	25	C	04/08/2024	09:05	-126.920	48.465	0	312.70	0	6.0780	0	33.9970	0	26.754	0	309.828	0	58.9	4	19.5	4	-1E+10	1	-1E+10	1	-1E+10	1	-1E+10	1	-1E+10	1	-1E+10	1
4902663	25	C	04/08/2024	09:05	-126.920	48.465	0	313.60	0	6.0820	0	34.0000	0	26.756	0	310.719	0	58.6	4	19.4	4	-1E+10	1	-1E+10	1	-1E+10	1	-1E+10	1	-1E+10	1	-1E+10	1
4902663	25	C	04/08/2024	09:05	-126.920	48.465	0	314.50	0	6.0850	0	34.0020	0	26.757	0	311.610	0	58.5	4	19.4	4	-1E+10	1	-1E+10	1	-1E+10	1	-1E+10	1	-1E+10	1	-1E+10	1
4902663	25	C	04/08/2024	09:05	-126.920	48.465	0	315.90	0	6.0880	0	34.0040	0	26.758	0	312.996	0	58.3	4	19.3	4	-1E+10	1	-1E+10	1	-1E+10	1	-1E+10	1	-1E+10	1	-1E+10	1
4902663	25	C	04/08/2024	09:05	-126.920	48.465	0	317.40	0	6.0880	0	34.0040	0	26.758	0	314.482	0	58.2	4	19.3	4	-1E+10	1	-1E+10	1	-1E+10	1	-1E+10	1	-1E+10	1	-1E+10	1
4902663	25	C	04/08/2024	09:05	-126.920	48.465	0	318.30	0	6.0680	0	34.0050	0	26.761	0	315.373	0	58.2	4	19.3	4	-1E+10	1	-1E+10	1	-1E+10	1	-1E+10	1	-1E+10	1	-1E+10	1
4902663	25	C	04/08/2024	09:05	-126.920	48.465	0	319.30	0	6.0680	0	34.0060	0	26.762	0	316.363	0	58.2	4	19.3	4	-1E+10	1	-1E+10	1	-1E+10	1	-1E+10	1	-1E+10	1	-1E+10	1
4902663	25	C	04/08/2024	09:05	-126.920	48.465	0	320.20	0	6.0610	0	34.0050	0	26.762	0	317.254	0	58.2	4	19.3	4	-1E+10	1	-1E+10	1	-1E+10	1	-1E+10	1	-1E+10	1	-1E+10	1
4902663	25	C	04/08/2024	09:05	-126.920	48.465	0	321.10	0	6.0550	0	34.0050	0	26.763	0	318.145	0	58.3	4	19.3	4	-1E+10	1	-1E+10	1	-1E+10	1	-1E+10	1	-1E+10	1	-1E+10	1
4902663	25	C	04/08/2024	09:05	-126.920	48.465	0	322.10	0	6.0560	0	34.0060	0	26.764	0	319.135	0	58.3	4	19.3	4	-1E+10	1	-1E+10	1	-1E+10	1	-1E+10	1	-1E+10	1	-1E+10	1
4902663	25	C	04/08/2024	09:05	-126.920	48.465	0	323.00	0	6.0470	0	34.0060	0	26.765	0	320.026	0	58.5	4	19.3	4	-1E+10	1	-1E+10	1	-1E+10	1	-1E+10	1	-1E+10	1	-1E+10	1
4902663	25	C	04/08/2024	09:05	-126.920	48.465	0	323.90	0	6.0240	0	34.0080	0	26.769	0	320.917	0	58.7	4	19.4	4	-1E+10	1	-1E+10	1	-1E+10	1	-1E+10	1	-1E+10	1	-1E+10	1
4902663	25	C	04/08/2024	09:05	-126.920	48.465	0	324.90	0	5.9940	0	34.0040	0	26.770	0	321.907	0	58.9	4	19.5	4	-1E+10	1	-1E+10	1	-1E+10	1	-1E+10	1	-1E+10	1	-1E+10	1
4902663	25	C	04/08/2024	09:05	-126.920	48.465	0	325.80	0	5.9880	0	34.0030	0	26.770	0	322.798	0	59.1	4	19.5	4	-1E+10	1	-1E+10	1	-1E+10	1	-1E+10	1	-1E+10	1	-1E+10	1
4902663	25	C	04/08/2024	09:05	-126.920	48.465	0	326.70	0	5.9850	0	34.0040	0	26.771	0	323.689	0	59.4	4	19.6	4	-1E+10	1	-1E+10	1	-1E+10	1	-1E+10	1	-1E+10	1	-1E+10	1
4902663	25	C	04/08/2024	09:05	-126.920	48.465	0	327.70	0	5.9710	0	34.0010	0	26.771	0	324.679	0	59.7	4	19.7	4	-1E+10	1	-1E+10	1	-1E+10	1	-1E+10	1	-1E+10	1	-1E+10	1
4902663	25	C	04/08/2024	09:05	-126.920	48.465	0	328.60	0	5.9520	0	33.9980	0	26.771	0	325.570	0	59.8	4	19.8	4	-1E+10	1	-1E+10	1	-1E+10	1	-1E+10	1	-1E+10	1	-1E+10	1
4902663	25	C	04/08/2024	09:05	-126.920	48.465	0	329.60	0	5.9440	0	33.9950	0	26.769	0	326.560	0	60.1	4	19.8	4	-1E+10	1	-1E+10	1	-1E+10	1	-1E+10	1	-1E+10	1	-1E+10	1
4902663	25	C	04/08/2024	09:05	-126.920	48.465	0	330.90	0	5.8890	0	33.9910	0	26.773	0	327.847	0	60.2	4	19.9	4	-1E+10	1	-1E+10	1	-1E+10	1	-1E+10	1	-1E+10	1	-1E+10	1
4902663	25	C	04/08/2024	09:05	-126.920	48.465	0	332.30	0	5.8430	0	33.9850	0	26.774	0	329.233	0	60.0	4	19.8	4	-1E+10	1	-1E+10	1	-1E+10	1	-1E+10	1	-1E+10	1	-1E+10	1
4902663	25	C	04/08/2024	09:05	-126.920	48.465	0	333.30	0	5.8450	0	33.9880	0	26.776	0	330.223	0	59.8	4	19.7	4	-1E+10	1	-1E+10	1	-1E+10	1	-1E+10	1	-1E+10	1	-1E+10	1
4902663	25	C	04/08/2024	09:05	-126.920	48.465	0	334.20	0	5.8280	0	33.9870	0	26.777	0	331.114	0	59.6	4	19.6	4	-1E+10	1	-1E+10	1	-1E+10	1	-1E+10	1	-1E+10	1	-1E+10	1
4902663	25	C	04/08/2024	09:05	-126.920	48.465	0	335.10	0	5.8120	0	33.9840	0	26.777	0	332.005	0	59.3	4	19.5	4	-1E+10	1	-1E+10	1	-1E+10	1	-1E+10	1	-1E+10	1	-1E+10	1
4902663	25	C	04/08/2024	09:05	-126.920	48.465	0	336.10	0	5.8100	0	33.9870	0	26.780	0	332.995	0	59.1	4	19.4	4	-1E+10	1	-1E+10	1	-1E+10	1	-1E+10	1	-1E+10	1	-1E+10	1
4902663	25	C	04/08/2024	09:05	-126.920	48.465	0	337.00	0	5.8060	0	33.9870	0	26.780	0	333.886	0	58.7	4	19.3	4	-1E+10	1	-1E+10	1	-1E+10	1	-1E+10	1	-1E+10	1	-1E+10	1
4902663	25	C	04/08/2024	09:05	-126.920	48.465	0	338.00	0	5.8100	0	33.9860	0	26.779	0	334.876	0	58.4	4	19.2	4	-1E+10	1	-1E+10	1	-1E+10	1	-1E+10	1	-1E+10	1	-1E+10	1
4902663	25	C	04/08/2024	09:05	-126.920	48.465	0	338.90	0	5.8040	0	33.9880	0	26.781	0	335.766	0	58.1	4	19.1	4	-1E+10	1	-1E+10	1	-1E+10	1	-1E+10	1	-1E+10	1	-1E+10	1
4902663	25	C	04/08/2024	09:05	-126.920	48.465	0	339.80	0	5.8080	0	33.9900	0	26.782	0	336.657	0	57.9	4	19.0	4	-1E+10	1	-1E+10	1	-1E+10	1	-1E+10	1	-1E+10	1	-1E+10	1
4902663	25	C	04/08/2024	09:05	-126.920	48.465	0	340.80	0	5.8250	0	33.9940	0	26.783	0	337.647	0	57.8	4	19.0	4	-1E+10	1	-1E+10	1	-1E+10	1	-1E+10	1	-1E+10	1	-1E+10	1
4902663	25	C	04/08/2024	09:05	-126.920	48.465	0	341.70	0	5.8260	0	33.9940	0	26.783	0	338.538	0	57.7	4	19.0	4	-1E+10	1	-1E+10	1	-1E+10	1	-1E+10	1	-1E+10	1	-1E+10	1
4902663	25	C	04/08/2024	09:05	-126.920	48.465	0	342.70	0	5.8350	0	33.9960	0	26.784	0	339.528	0	57.6	4	19.0	4	-1E+10	1	-1E+10	1	-1E+10	1	-1E+10	1	-1E+10	1	-1E+10	1
4902663	25	C	04/08/2024	09:05	-126.920	48.465	0	343.60	0	5.7900	0	33.9930	0	26.787	0	340.419	0	57.5	4	18.9	4	-1E+10	1	-1E+10	1	-1E+10	1	-1E+10	1	-1E+10	1	-1E+10	1
4902663	25	C	04/08/2024	09:05	-126.920	48.465	0	344.50	0	5.7960	0	33.9950	0	26.788	0	341.310	0	57.5	4	18.9	4	-1E+10	1	-1E+10	1	-1E+10	1	-1E+10	1	-1E+10	1	-1E+10	1
4902663	25	C	04/08/2024	09:05	-126.920	48.465	0	345.90	0	5.7910	0	33.9960	0	26.789	0	342.696	0	57.5	4	18.9	4	-1E+10	1	-1E+10	1	-1E+10	1	-1E+10	1	-1E+10	1	-1E+10	1
4902663	25	C	04/08/2024	09:05	-126.920	48.465	0	347.30	0	5.7870	0	33.9950	0	26.789	0	344.082	0	57.5	4	18.9	4	-1E+10	1	-1E+10	1	-1E+10	1	-1E+10	1	-1E+10	1	-1E+10	1
4902663	25	C	04/08/2024	09:05	-126.920	48.465	0	348.20	0	5.7710	0	33.9940	0	26.790	0	344.973	0	57.4	4	18.9	4	-1E+10	1	-1E+10	1	-1E+10	1	-1E+10	1	-1E+10	1	-1E+10	1
4902663	25	C	04/08/2024	09:05	-126.920	48.465	0	349.20	0	5.7620	0	33.9930	0	26.790	0	345.963	0	57.3	4	18.9	4	-1E+10	1	-1E+10	1	-1E+10	1	-1E+10	1	-1E+10	1	-1E+10	1
4902663	25	C	04/08/2024	09:05	-126.920	48.465	0	350.10	0	5.7200	0	33.9950	0	26.797	0	346.854	0	57.3	4	18.8	4	-1E+10	1	-1E+10	1	-1E+10	1	-1E+10	1	-1E+10	1	-1E+10	1
4902663	25	C	04/08/2024	09:05	-126.920	48.465	0	352.90	0	5.6890	0	33.9910	0	26.798	0	349.625	0	57.1	4	18.7	4	-1E+10	1	-1E+10	1	-1E+10	1	-1E+10	1	-1E+10	1	-1E+10	1
4902663	25	C	04/08/2024	09:05	-126.920	48.465	0	357.90	0	5.6320	0	33.9900	0	26.804	0	354.575	0	56.3	4	18.5	4	-1E+10	1	-1E+10	1	-1E+10	1	-1E+10	1	-1E+10	1	-1E+10	1
4902663	25	C	04/08/2024	09:05	-126.920	48.465	0	363.10	0	5.5380	0	33.9870	0	26.813	0	359.722	0	55.3	4	18.1	4	-1E+10	1	-1E+10	1	-1E+10	1	-1E+10	1	-1E+10	1	-1E+10	1
4902663	25	C	04/08/2024	09:05	-126.920	48.465	0	367.90	0	5.4640	0	33.9880	0	26.822	0	364.473	0	53.7	4	17.5	4	-1E+10	1	-1E+10	1	-1E+10	1	-1E+10	1	-1E+10	1	-1E+10	1
4902663	25	C	04/08/2024	09:05	-126.920	48.465	0	372.70	0	5.4520	0	33.9960	0	26.830	0	369.224	0	52.8	4	17.2	4	-1E+10	1	-1E+10	1	-1E+10	1	-1E+10	1	-1E+10	1	-1E+10	1
4902663	25	C	04/08/2024	09:05	-126.920	48.465	0	377.70	0	5.3590	0	33.9930	0	26.839	0	374.173	0	52.7	4	17.2	4	-1E+10	1	-1E+10	1	-1E+10	1	-1E+10	1	-1E+10	1	-1E+10	1
4902663	25	C	04/08/2024	09:05	-126.920	48.465	0	382.70	0	5.2990	0	33.9900	0	26.844	0	379.121	0	51.6	4	16.8	4	-1E+10	1	-1E+10	1	-1E+10	1	-1E+10	1	-1E+10	1	-1E+10	1
4902663	25	C	04/08/2024	09:05	-126.920	48.465	0	387.70	0	5.2550	0	34.0020	0	26.858	0	384.070	0	51.2	4	16.6	4	-1E+10	1	-1E+10	1	-1E+10	1	-1E+10	1	-1E+10	1	-1E+10	1
4902663	25	C	04/08/2024	09:05	-126.920	48.465	0	392.80	0	5.1730	0	33.9910	0	26.859	0	389.118	0	50.9	4	16.5	4	-1E+10	1	-1E+10	1	-1E+10	1	-1E+10	1	-1E+10	1	-1E+10	1
4902663	25	C	04/08/2024	09:05	-126.920	48.465	0	397.90	0	5.1090	0	33.9920	0	26.867	0	394.165	0	49.9	4	16.2	4	-1E+10	1	-1E+10	1	-1E+10	1	-1E+10	1	-1E+10	1	-1E+10	1
4902663	25	C	04/08/2024	09:05	-126.920	48.465	0	403.10	0	5.0830	0	33.9970	0	26.874	0	399.311	0	49.0	4	15.8	4	-1E+10	1	-1E+10	1	-1E+10	1	-1E+10	1	-1E+10	1	-1E+10	1
4902663	25	C	04/08/2024	09:05	-126.920	48.465	0	407.90	0	5.0700	0	33.9990	0	26.877	0	404.061	0	48.3	4	15.6	4	-1E+10	1	-1E+10	1	-1E+10	1	-1E+10	1	-1E+10	1	-1E+10	1
4902663	25	C	04/08/2024	09:05	-126.920	48.465	0	412.70	0	5.0620	0	34.0000	0	26.879	0	408.811	0	47.4	4	15.3	4	-1E+10	1	-1E+10	1	-1E+10	1	-1E+10	1	-1E+10	1	-1E+10	1
4902663	25	C	04/08/2024	09:05	-126.920	48.465	0	418.10	0	5.0460	0	34.0030	0	26.883	0	414.155	0	45.6	4	14.8	4	-1E+10	1	-1E+10	1	-1E+10	1	-1E+10	1	-1E+10	1	-1E+10	1
4902663	25	C	04/08/2024	09:05	-126.920	48.465	0	422.80	0	5.0260	0	34.0110	0	26.892	0	418.806	0	43.9	4	14.2	4	-1E+10	1	-1E+10	1	-1E+10	1	-1E+10	1	-1E+10	1	-1E+10	1
4902663	25	C	04/08/2024	09:05	-126.920	48.465	0	427.50	0	5.0500	0	34.0190	0	26.896	0	423.457	0	42.8	4	13.8	4	-1E+10	1	-1E+10	1	-1E+10	1	-1E+10	1	-1E+10	1	-1E+10	1
4902663	25	C	04/08/2024	09:05	-126.920	48.465	0	432.80	0	5.0360	0	34.0220	0	26.900	0	428.701	0	41.8	4	13.5	4	-1E+10	1	-1E+10	1	-1E+10	1	-1E+10	1	-1E+10	1	-1E+10	1
4902663	25	C	04/08/2024	09:05	-126.920	48.465	0	438.20	0	5.0210	0	34.0280	0	26.906	0	434.044	0	40.5	4	13.1	4	-1E+10	1	-1E+10	1	-1E+10	1	-1E+10	1	-1E+10	1	-1E+10	1
4902663	25	C	04/08/2024	09:05	-126.920	48.465	0	443.10	0	4.9990	0	34.0320	0	26.912	0	438.893	0	39.3	4	12.7	4	-1E+10	1	-1E+10	1	-1E+10	1	-1E+10	1	-1E+10	1	-1E+10	1
4902663	25	C	04/08/2024	09:05	-126.920	48.465	0	448.00	0	4.9910	0	34.0370	0	26.917	0	443.741	0	37.9	4	12.2	4	-1E+10	1	-1E+10	1	-1E+10	1	-1E+10	1	-1E+10	1	-1E+10	1
4902663	25	C	04/08/2024	09:05	-126.920	48.465	0	452.90	0	4.9490	0	34.0440	0	26.927	0	448.589	0	37.0	4	11.9	4	-1E+10	1	-1E+10	1	-1E+10	1	-1E+10	1	-1E+10	1	-1E+10	1
4902663	25	C	04/08/2024	09:05	-126.920	48.465	0	457.90	0	4.9250	0	34.0440	0	26.930	0	453.536	0	34.5	4	11.1	4	-1E+10	1	-1E+10	1	-1E+10	1	-1E+10	1	-1E+10	1	-1E+10	1
4902663	25	C	04/08/2024	09:05	-126.920	48.465	0	462.80	0	4.9770	0	34.0600	0	26.937	0	458.384	0	31.4	4	10.1	4	-1E+10	1	-1E+10	1	-1E+10	1	-1E+10	1	-1E+10	1	-1E+10	1
4902663	25	C	04/08/2024	09:05	-126.920	48.465	0	467.90	0	4.9890	0	34.0720	0	26.945	0	463.430	0	29.7	4	9.6	4	-1E+10	1	-1E+10	1	-1E+10	1	-1E+10	1	-1E+10	1	-1E+10	1
4902663	25	C	04/08/2024	09:05	-126.920	48.465	0	472.80	0	4.9810	0	34.0790	0	26.952	0	468.277	0	28.5	4	9.2	4	-1E+10	1	-1E+10	1	-1E+10	1	-1E+10	1	-1E+10	1	-1E+10	1
4902663	25	C	04/08/2024	09:05	-126.920	48.465	0	477.80	0	4.9630	0	34.0860	0	26.959	0	473.224	0	27.4	4	8.8	4	-1E+10	1	-1E+10	1	-1E+10	1	-1E+10	1	-1E+10	1	-1E+10	1
4902663	25	C	04/08/2024	09:05	-126.920	48.465	0	482.70	0	4.9490	0	34.0900	0	26.964	0	478.071	0	26.5	4	8.5	4	-1E+10	1	-1E+10	1	-1E+10	1	-1E+10	1	-1E+10	1	-1E+10	1
4902663	25	C	04/08/2024	09:05	-126.920	48.465	0	487.80	0	4.9360	0	34.0960	0	26.970	0	483.116	0	25.5	4	8.2	4	-1E+10	1	-1E+10	1	-1E+10	1	-1E+10	1	-1E+10	1	-1E+10	1
4902663	25	C	04/08/2024	09:05	-126.920	48.465	0	492.70	0	4.9190	0	34.1010	0	26.976	0	487.964	0	24.6	4	7.9	4	-1E+10	1	-1E+10	1	-1E+10	1	-1E+10	1	-1E+10	1	-1E+10	1
4902663	25	C	04/08/2024	09:05	-126.920	48.465	0	497.70	0	4.8890	0	34.1080	0	26.985	0	492.910	0	23.9	4	7.7	4	-1E+10	1	-1E+10	1	-1E+10	1	-1E+10	1	-1E+10	1	-1E+10	1
4902663	25	C	04/08/2024	09:05	-126.920	48.465	0	503.10	0	4.8680	0	34.1110	0	26.990	0	498.251	0	23.5	4	7.6	4	-1E+10	1	-1E+10	1	-1E+10	1	-1E+10	1	-1E+10	1	-1E+10	1
4902663	25	C	04/08/2024	09:05	-126.920	48.465	0	508.00	0	4.8480	0	34.1130	0	26.994	0	503.098	0	23.1	4	7.5	4	-1E+10	1	-1E+10	1	-1E+10	1	-1E+10	1	-1E+10	1	-1E+10	1
4902663	25	C	04/08/2024	09:05	-126.920	48.465	0	512.90	0	4.8160	0	34.1140	0	26.998	0	507.945	0	22.8	4	7.3	4	-1E+10	1	-1E+10	1	-1E+10	1	-1E+10	1	-1E+10	1	-1E+10	1
4902663	25	C	04/08/2024	09:05	-126.920	48.465	0	518.20	0	4.7850	0	34.1150	0	27.003	0	513.187	0	22.2	4	7.1	4	-1E+10	1	-1E+10	1	-1E+10	1	-1E+10	1	-1E+10	1	-1E+10	1
4902663	25	C	04/08/2024	09:05	-126.920	48.465	0	523.10	0	4.7830	0	34.1180	0	27.005	0	518.033	0	21.3	4	6.8	4	-1E+10	1	-1E+10	1	-1E+10	1	-1E+10	1	-1E+10	1	-1E+10	1
4902663	25	C	04/08/2024	09:05	-126.920	48.465	0	527.90	0	4.7880	0	34.1260	0	27.011	0	522.781	0	20.6	4	6.6	4	-1E+10	1	-1E+10	1	-1E+10	1	-1E+10	1	-1E+10	1	-1E+10	1
4902663	25	C	04/08/2024	09:05	-126.920	48.465	0	533.10	0	4.7730	0	34.1290	0	27.015	0	527.924	0	20.0	4	6.4	4	-1E+10	1	-1E+10	1	-1E+10	1	-1E+10	1	-1E+10	1	-1E+10	1
4902663	25	C	04/08/2024	09:05	-126.920	48.465	0	538.20	0	4.7500	0	34.1340	0	27.022	0	532.968	0	19.4	4	6.2	4	-1E+10	1	-1E+10	1	-1E+10	1	-1E+10	1	-1E+10	1	-1E+10	1
4902663	25	C	04/08/2024	09:05	-126.920	48.465	0	542.90	0	4.7290	0	34.1370	0	27.026	0	537.616	0	19.0	4	6.1	4	-1E+10	1	-1E+10	1	-1E+10	1	-1E+10	1	-1E+10	1	-1E+10	1
4902663	25	C	04/08/2024	09:05	-126.920	48.465	0	547.90	0	4.7190	0	34.1400	0	27.030	0	542.561	0	18.4	4	5.9	4	-1E+10	1	-1E+10	1	-1E+10	1	-1E+10	1	-1E+10	1	-1E+10	1
4902663	25	C	04/08/2024	09:05	-126.920	48.465	0	552.90	0	4.7050	0	34.1440	0	27.035	0	547.506	0	17.8	4	5.7	4	-1E+10	1	-1E+10	1	-1E+10	1	-1E+10	1	-1E+10	1	-1E+10	1
4902663	25	C	04/08/2024	09:05	-126.920	48.465	0	557.80	0	4.6950	0	34.1490	0	27.040	0	552.351	0	17.2	4	5.5	4	-1E+10	1	-1E+10	1	-1E+10	1	-1E+10	1	-1E+10	1	-1E+10	1
4902663	25	C	04/08/2024	09:05	-126.920	48.465	0	563.00	0	4.6750	0	34.1550	0	27.047	0	557.494	0	16.6	4	5.3	4	-1E+10	1	-1E+10	1	-1E+10	1	-1E+10	1	-1E+10	1	-1E+10	1
4902663	25	C	04/08/2024	09:05	-126.920	48.465	0	568.30	0	4.6610	0	34.1590	0	27.052	0	562.735	0	16.2	4	5.2	4	-1E+10	1	-1E+10	1	-1E+10	1	-1E+10	1	-1E+10	1	-1E+10	1
4902663	25	C	04/08/2024	09:05	-126.920	48.465	0	573.20	0	4.6500	0	34.1600	0	27.054	0	567.580	0	15.7	4	5.0	4	-1E+10	1	-1E+10	1	-1E+10	1	-1E+10	1	-1E+10	1	-1E+10	1
4902663	25	C	04/08/2024	09:05	-126.920	48.465	0	578.10	0	4.6210	0	34.1640	0	27.060	0	572.425	0	15.1	4	4.8	4	-1E+10	1	-1E+10	1	-1E+10	1	-1E+10	1	-1E+10	1	-1E+10	1
4902663	25	C	04/08/2024	09:05	-126.920	48.465	0	582.80	0	4.6050	0	34.1690	0	27.066	0	577.072	0	14.6	4	4.7	4	-1E+10	1	-1E+10	1	-1E+10	1	-1E+10	1	-1E+10	1	-1E+10	1
4902663	25	C	04/08/2024	09:05	-126.920	48.465	0	587.70	0	4.5780	0	34.1740	0	27.073	0	581.917	0	14.0	4	4.5	4	-1E+10	1	-1E+10	1	-1E+10	1	-1E+10	1	-1E+10	1	-1E+10	1
4902663	25	C	04/08/2024	09:05	-126.920	48.465	0	593.00	0	4.5550	0	34.1780	0	27.078	0	587.158	0	13.6	4	4.4	4	-1E+10	1	-1E+10	1	-1E+10	1	-1E+10	1	-1E+10	1	-1E+10	1
4902663	25	C	04/08/2024	09:05	-126.920	48.465	0	598.10	0	4.5390	0	34.1820	0	27.083	0	592.200	0	13.3	4	4.2	4	-1E+10	1	-1E+10	1	-1E+10	1	-1E+10	1	-1E+10	1	-1E+10	1
4902663	25	C	04/08/2024	09:05	-126.920	48.465	0	602.90	0	4.5250	0	34.1860	0	27.088	0	596.946	0	13.0	4	4.1	4	-1E+10	1	-1E+10	1	-1E+10	1	-1E+10	1	-1E+10	1	-1E+10	1
4902663	25	C	04/08/2024	09:05	-126.920	48.465	0	607.70	0	4.5150	0	34.1890	0	27.092	0	601.692	0	12.7	4	4.1	4	-1E+10	1	-1E+10	1	-1E+10	1	-1E+10	1	-1E+10	1	-1E+10	1
4902663	25	C	04/08/2024	09:05	-126.920	48.465	0	612.70	0	4.5040	0	34.1920	0	27.095	0	606.635	0	12.4	4	4.0	4	-1E+10	1	-1E+10	1	-1E+10	1	-1E+10	1	-1E+10	1	-1E+10	1
4902663	25	C	04/08/2024	09:05	-126.920	48.465	0	617.80	0	4.4870	0	34.1960	0	27.100	0	611.677	0	12.2	4	3.9	4	-1E+10	1	-1E+10	1	-1E+10	1	-1E+10	1	-1E+10	1	-1E+10	1
4902663	25	C	04/08/2024	09:05	-126.920	48.465	0	622.90	0	4.4720	0	34.1970	0	27.103	0	616.719	0	12.0	4	3.8	4	-1E+10	1	-1E+10	1	-1E+10	1	-1E+10	1	-1E+10	1	-1E+10	1
4902663	25	C	04/08/2024	09:05	-126.920	48.465	0	628.10	0	4.4520	0	34.1980	0	27.106	0	621.860	0	11.7	4	3.7	4	-1E+10	1	-1E+10	1	-1E+10	1	-1E+10	1	-1E+10	1	-1E+10	1
4902663	25	C	04/08/2024	09:05	-126.920	48.465	0	633.00	0	4.4410	0	34.2030	0	27.111	0	626.704	0	11.5	4	3.7	4	-1E+10	1	-1E+10	1	-1E+10	1	-1E+10	1	-1E+10	1	-1E+10	1
4902663	25	C	04/08/2024	09:05	-126.920	48.465	0	637.80	0	4.4370	0	34.2050	0	27.113	0	631.449	0	11.2	4	3.6	4	-1E+10	1	-1E+10	1	-1E+10	1	-1E+10	1	-1E+10	1	-1E+10	1
4902663	25	C	04/08/2024	09:05	-126.920	48.465	0	643.20	0	4.4280	0	34.2080	0	27.116	0	636.787	0	10.9	4	3.5	4	-1E+10	1	-1E+10	1	-1E+10	1	-1E+10	1	-1E+10	1	-1E+10	1
4902663	25	C	04/08/2024	09:05	-126.920	48.465	0	648.00	0	4.4120	0	34.2130	0	27.122	0	641.531	0	10.7	4	3.4	4	-1E+10	1	-1E+10	1	-1E+10	1	-1E+10	1	-1E+10	1	-1E+10	1
4902663	25	C	04/08/2024	09:05	-126.920	48.465	0	653.00	0	4.4010	0	34.2160	0	27.126	0	646.474	0	10.5	4	3.4	4	-1E+10	1	-1E+10	1	-1E+10	1	-1E+10	1	-1E+10	1	-1E+10	1
4902663	25	C	04/08/2024	09:05	-126.920	48.465	0	657.90	0	4.4010	0	34.2170	0	27.127	0	651.317	0	10.4	4	3.3	4	-1E+10	1	-1E+10	1	-1E+10	1	-1E+10	1	-1E+10	1	-1E+10	1
4902663	25	C	04/08/2024	09:05	-126.920	48.465	0	662.80	0	4.3850	0	34.2200	0	27.131	0	656.160	0	10.1	4	3.2	4	-1E+10	1	-1E+10	1	-1E+10	1	-1E+10	1	-1E+10	1	-1E+10	1
4902663	25	C	04/08/2024	09:05	-126.920	48.465	0	667.70	0	4.3650	0	34.2240	0	27.136	0	661.003	0	9.9	4	3.2	4	-1E+10	1	-1E+10	1	-1E+10	1	-1E+10	1	-1E+10	1	-1E+10	1
4902663	25	C	04/08/2024	09:05	-126.920	48.465	0	672.70	0	4.3430	0	34.2280	0	27.142	0	665.945	0	9.7	4	3.1	4	-1E+10	1	-1E+10	1	-1E+10	1	-1E+10	1	-1E+10	1	-1E+10	1
4902663	25	C	04/08/2024	09:05	-126.920	48.465	0	677.80	0	4.3340	0	34.2310	0	27.145	0	670.986	0	9.6	4	3.1	4	-1E+10	1	-1E+10	1	-1E+10	1	-1E+10	1	-1E+10	1	-1E+10	1
4902663	25	C	04/08/2024	09:05	-126.920	48.465	0	682.80	0	4.3340	0	34.2340	0	27.147	0	675.927	0	9.4	4	3.0	4	-1E+10	1	-1E+10	1	-1E+10	1	-1E+10	1	-1E+10	1	-1E+10	1
4902663	25	C	04/08/2024	09:05	-126.920	48.465	0	687.80	0	4.3210	0	34.2380	0	27.152	0	680.869	0	9.3	4	2.9	4	-1E+10	1	-1E+10	1	-1E+10	1	-1E+10	1	-1E+10	1	-1E+10	1
4902663	25	C	04/08/2024	09:05	-126.920	48.465	0	692.80	0	4.3110	0	34.2410	0	27.155	0	685.810	0	9.1	4	2.9	4	-1E+10	1	-1E+10	1	-1E+10	1	-1E+10	1	-1E+10	1	-1E+10	1
4902663	25	C	04/08/2024	09:05	-126.920	48.465	0	697.80	0	4.3060	0	34.2440	0	27.158	0	690.752	0	9.0	4	2.9	4	-1E+10	1	-1E+10	1	-1E+10	1	-1E+10	1	-1E+10	1	-1E+10	1
4902663	25	C	04/08/2024	09:05	-126.920	48.465	0	702.80	0	4.2940	0	34.2450	0	27.160	0	695.693	0	8.9	4	2.8	4	-1E+10	1	-1E+10	1	-1E+10	1	-1E+10	1	-1E+10	1	-1E+10	1
4902663	25	C	04/08/2024	09:05	-126.920	48.465	0	708.20	0	4.2680	0	34.2480	0	27.166	0	701.029	0	8.7	4	2.8	4	-1E+10	1	-1E+10	1	-1E+10	1	-1E+10	1	-1E+10	1	-1E+10	1
4902663	25	C	04/08/2024	09:05	-126.920	48.465	0	713.10	0	4.2520	0	34.2510	0	27.170	0	705.871	0	8.5	4	2.7	4	-1E+10	1	-1E+10	1	-1E+10	1	-1E+10	1	-1E+10	1	-1E+10	1
4902663	25	C	04/08/2024	09:05	-126.920	48.465	0	717.90	0	4.2300	0	34.2550	0	27.175	0	710.614	0	8.3	4	2.6	4	-1E+10	1	-1E+10	1	-1E+10	1	-1E+10	1	-1E+10	1	-1E+10	1
4902663	25	C	04/08/2024	09:05	-126.920	48.465	0	723.10	0	4.2070	0	34.2590	0	27.181	0	715.753	0	8.1	4	2.6	4	-1E+10	1	-1E+10	1	-1E+10	1	-1E+10	1	-1E+10	1	-1E+10	1
4902663	25	C	04/08/2024	09:05	-126.920	48.465	0	728.30	0	4.1950	0	34.2620	0	27.185	0	720.891	0	8.0	4	2.5	4	-1E+10	1	-1E+10	1	-1E+10	1	-1E+10	1	-1E+10	1	-1E+10	1
4902663	25	C	04/08/2024	09:05	-126.920	48.465	0	733.30	0	4.1660	0	34.2680	0	27.192	0	725.831	0	7.8	4	2.5	4	-1E+10	1	-1E+10	1	-1E+10	1	-1E+10	1	-1E+10	1	-1E+10	1
4902663	25	C	04/08/2024	09:05	-126.920	48.465	0	738.20	0	4.1510	0	34.2730	0	27.198	0	730.673	0	7.7	4	2.4	4	-1E+10	1	-1E+10	1	-1E+10	1	-1E+10	1	-1E+10	1	-1E+10	1
4902663	25	C	04/08/2024	09:05	-126.920	48.465	0	743.10	0	4.1340	0	34.2780	0	27.204	0	735.514	0	7.6	4	2.4	4	-1E+10	1	-1E+10	1	-1E+10	1	-1E+10	1	-1E+10	1	-1E+10	1
4902663	25	C	04/08/2024	09:05	-126.920	48.465	0	748.00	0	4.1230	0	34.2810	0	27.207	0	740.356	0	7.5	4	2.4	4	-1E+10	1	-1E+10	1	-1E+10	1	-1E+10	1	-1E+10	1	-1E+10	1
4902663	25	C	04/08/2024	09:05	-126.920	48.465	0	752.90	0	4.1120	0	34.2820	0	27.209	0	745.197	0	7.5	4	2.4	4	-1E+10	1	-1E+10	1	-1E+10	1	-1E+10	1	-1E+10	1	-1E+10	1
4902663	25	C	04/08/2024	09:05	-126.920	48.465	0	757.80	0	4.1000	0	34.2850	0	27.213	0	750.038	0	7.4	4	2.3	4	-1E+10	1	-1E+10	1	-1E+10	1	-1E+10	1	-1E+10	1	-1E+10	1
4902663	25	C	04/08/2024	09:05	-126.920	48.465	0	762.70	0	4.0950	0	34.2880	0	27.216	0	754.879	0	7.3	4	2.3	4	-1E+10	1	-1E+10	1	-1E+10	1	-1E+10	1	-1E+10	1	-1E+10	1
4902663	25	C	04/08/2024	09:05	-126.920	48.465	0	767.60	0	4.0810	0	34.2910	0	27.220	0	759.720	0	7.2	4	2.3	4	-1E+10	1	-1E+10	1	-1E+10	1	-1E+10	1	-1E+10	1	-1E+10	1
4902663	25	C	04/08/2024	09:05	-126.920	48.465	0	772.90	0	4.0580	0	34.2960	0	27.226	0	764.955	0	7.2	4	2.3	4	-1E+10	1	-1E+10	1	-1E+10	1	-1E+10	1	-1E+10	1	-1E+10	1
4902663	25	C	04/08/2024	09:05	-126.920	48.465	0	778.30	0	4.0510	0	34.2980	0	27.228	0	770.290	0	7.1	4	2.3	4	-1E+10	1	-1E+10	1	-1E+10	1	-1E+10	1	-1E+10	1	-1E+10	1
4902663	25	C	04/08/2024	09:05	-126.920	48.465	0	783.10	0	4.0340	0	34.3000	0	27.232	0	775.032	0	7.1	4	2.2	4	-1E+10	1	-1E+10	1	-1E+10	1	-1E+10	1	-1E+10	1	-1E+10	1
4902663	25	C	04/08/2024	09:05	-126.920	48.465	0	788.10	0	4.0230	0	34.3030	0	27.235	0	779.971	0	7.0	4	2.2	4	-1E+10	1	-1E+10	1	-1E+10	1	-1E+10	1	-1E+10	1	-1E+10	1
4902663	25	C	04/08/2024	09:05	-126.920	48.465	0	793.10	0	4.0040	0	34.3070	0	27.241	0	784.910	0	7.0	4	2.2	4	-1E+10	1	-1E+10	1	-1E+10	1	-1E+10	1	-1E+10	1	-1E+10	1
4902663	25	C	04/08/2024	09:05	-126.920	48.465	0	798.10	0	3.9920	0	34.3090	0	27.243	0	789.849	0	7.0	4	2.2	4	-1E+10	1	-1E+10	1	-1E+10	1	-1E+10	1	-1E+10	1	-1E+10	1
4902663	25	C	04/08/2024	09:05	-126.920	48.465	0	803.20	0	3.9860	0	34.3100	0	27.245	0	794.886	0	6.9	4	2.2	4	-1E+10	1	-1E+10	1	-1E+10	1	-1E+10	1	-1E+10	1	-1E+10	1
4902663	25	C	04/08/2024	09:05	-126.920	48.465	0	808.40	0	3.9750	0	34.3130	0	27.248	0	800.023	0	6.9	4	2.2	4	-1E+10	1	-1E+10	1	-1E+10	1	-1E+10	1	-1E+10	1	-1E+10	1
4902663	25	C	04/08/2024	09:05	-126.920	48.465	0	813.10	0	3.9570	0	34.3160	0	27.253	0	804.665	0	6.8	4	2.2	4	-1E+10	1	-1E+10	1	-1E+10	1	-1E+10	1	-1E+10	1	-1E+10	1
4902663	25	C	04/08/2024	09:05	-126.920	48.465	0	818.00	0	3.9460	0	34.3180	0	27.255	0	809.505	0	6.8	4	2.1	4	-1E+10	1	-1E+10	1	-1E+10	1	-1E+10	1	-1E+10	1	-1E+10	1
4902663	25	C	04/08/2024	09:05	-126.920	48.465	0	823.00	0	3.9260	0	34.3220	0	27.261	0	814.443	0	6.8	4	2.1	4	-1E+10	1	-1E+10	1	-1E+10	1	-1E+10	1	-1E+10	1	-1E+10	1
4902663	25	C	04/08/2024	09:05	-126.920	48.465	0	828.10	0	3.9080	0	34.3250	0	27.265	0	819.480	0	6.8	4	2.1	4	-1E+10	1	-1E+10	1	-1E+10	1	-1E+10	1	-1E+10	1	-1E+10	1
4902663	25	C	04/08/2024	09:05	-126.920	48.465	0	832.90	0	3.8920	0	34.3270	0	27.268	0	824.220	0	6.8	4	2.1	4	-1E+10	1	-1E+10	1	-1E+10	1	-1E+10	1	-1E+10	1	-1E+10	1
4902663	25	C	04/08/2024	09:05	-126.920	48.465	0	837.80	0	3.8840	0	34.3280	0	27.270	0	829.060	0	6.8	4	2.1	4	-1E+10	1	-1E+10	1	-1E+10	1	-1E+10	1	-1E+10	1	-1E+10	1
4902663	25	C	04/08/2024	09:05	-126.920	48.465	0	842.80	0	3.8720	0	34.3300	0	27.273	0	833.997	0	6.8	4	2.1	4	-1E+10	1	-1E+10	1	-1E+10	1	-1E+10	1	-1E+10	1	-1E+10	1
4902663	25	C	04/08/2024	09:05	-126.920	48.465	0	847.90	0	3.8590	0	34.3320	0	27.276	0	839.034	0	6.8	4	2.1	4	-1E+10	1	-1E+10	1	-1E+10	1	-1E+10	1	-1E+10	1	-1E+10	1
4902663	25	C	04/08/2024	09:05	-126.920	48.465	0	853.10	0	3.8480	0	34.3330	0	27.277	0	844.169	0	6.8	4	2.2	4	-1E+10	1	-1E+10	1	-1E+10	1	-1E+10	1	-1E+10	1	-1E+10	1
4902663	25	C	04/08/2024	09:05	-126.920	48.465	0	858.10	0	3.8240	0	34.3360	0	27.282	0	849.107	0	6.9	4	2.2	4	-1E+10	1	-1E+10	1	-1E+10	1	-1E+10	1	-1E+10	1	-1E+10	1
4902663	25	C	04/08/2024	09:05	-126.920	48.465	0	862.90	0	3.8070	0	34.3400	0	27.287	0	853.847	0	6.9	4	2.2	4	-1E+10	1	-1E+10	1	-1E+10	1	-1E+10	1	-1E+10	1	-1E+10	1
4902663	25	C	04/08/2024	09:05	-126.920	48.465	0	867.70	0	3.8030	0	34.3430	0	27.290	0	858.586	0	6.9	4	2.2	4	-1E+10	1	-1E+10	1	-1E+10	1	-1E+10	1	-1E+10	1	-1E+10	1
4902663	25	C	04/08/2024	09:05	-126.920	48.465	0	872.70	0	3.7860	0	34.3440	0	27.293	0	863.523	0	7.1	4	2.2	4	-1E+10	1	-1E+10	1	-1E+10	1	-1E+10	1	-1E+10	1	-1E+10	1
4902663	25	C	04/08/2024	09:05	-126.920	48.465	0	877.80	0	3.7410	0	34.3430	0	27.296	0	868.559	0	7.2	4	2.3	4	-1E+10	1	-1E+10	1	-1E+10	1	-1E+10	1	-1E+10	1	-1E+10	1
4902663	25	C	04/08/2024	09:05	-126.920	48.465	0	882.70	0	3.7180	0	34.3450	0	27.300	0	873.397	0	7.3	4	2.3	4	-1E+10	1	-1E+10	1	-1E+10	1	-1E+10	1	-1E+10	1	-1E+10	1
4902663	25	C	04/08/2024	09:05	-126.920	48.465	0	887.70	0	3.6980	0	34.3430	0	27.301	0	878.334	0	7.3	4	2.3	4	-1E+10	1	-1E+10	1	-1E+10	1	-1E+10	1	-1E+10	1	-1E+10	1
4902663	25	C	04/08/2024	09:05	-126.920	48.465	0	892.70	0	3.6920	0	34.3460	0	27.304	0	883.271	0	7.4	4	2.3	4	-1E+10	1	-1E+10	1	-1E+10	1	-1E+10	1	-1E+10	1	-1E+10	1
4902663	25	C	04/08/2024	09:05	-126.920	48.465	0	897.80	0	3.6830	0	34.3470	0	27.305	0	888.306	0	7.5	4	2.3	4	-1E+10	1	-1E+10	1	-1E+10	1	-1E+10	1	-1E+10	1	-1E+10	1
4902663	25	C	04/08/2024	09:05	-126.920	48.465	0	902.80	0	3.6320	0	34.3480	0	27.311	0	893.243	0	7.6	4	2.4	4	-1E+10	1	-1E+10	1	-1E+10	1	-1E+10	1	-1E+10	1	-1E+10	1
4902663	25	C	04/08/2024	09:05	-126.920	48.465	0	907.90	0	3.6170	0	34.3480	0	27.313	0	898.278	0	7.6	4	2.4	4	-1E+10	1	-1E+10	1	-1E+10	1	-1E+10	1	-1E+10	1	-1E+10	1
4902663	25	C	04/08/2024	09:05	-126.920	48.465	0	913.00	0	3.6010	0	34.3480	0	27.314	0	903.313	0	7.7	4	2.4	4	-1E+10	1	-1E+10	1	-1E+10	1	-1E+10	1	-1E+10	1	-1E+10	1
4902663	25	C	04/08/2024	09:05	-126.920	48.465	0	918.10	0	3.5780	0	34.3490	0	27.317	0	908.348	0	7.7	4	2.4	4	-1E+10	1	-1E+10	1	-1E+10	1	-1E+10	1	-1E+10	1	-1E+10	1
4902663	25	C	04/08/2024	09:05	-126.920	48.465	0	923.10	0	3.5680	0	34.3520	0	27.321	0	913.284	0	7.7	4	2.4	4	-1E+10	1	-1E+10	1	-1E+10	1	-1E+10	1	-1E+10	1	-1E+10	1
4902663	25	C	04/08/2024	09:05	-126.920	48.465	0	928.20	0	3.5580	0	34.3550	0	27.324	0	918.318	0	7.7	4	2.4	4	-1E+10	1	-1E+10	1	-1E+10	1	-1E+10	1	-1E+10	1	-1E+10	1
4902663	25	C	04/08/2024	09:05	-126.920	48.465	0	933.30	0	3.5570	0	34.3570	0	27.326	0	923.353	0	7.7	4	2.4	4	-1E+10	1	-1E+10	1	-1E+10	1	-1E+10	1	-1E+10	1	-1E+10	1
4902663	25	C	04/08/2024	09:05	-126.920	48.465	0	937.90	0	3.5510	0	34.3580	0	27.327	0	927.893	0	7.7	4	2.4	4	-1E+10	1	-1E+10	1	-1E+10	1	-1E+10	1	-1E+10	1	-1E+10	1
4902663	25	C	04/08/2024	09:05	-126.920	48.465	0	942.50	0	3.5480	0	34.3620	0	27.331	0	932.434	0	7.7	4	2.4	4	-1E+10	1	-1E+10	1	-1E+10	1	-1E+10	1	-1E+10	1	-1E+10	1
4902663	25	C	04/08/2024	09:05	-126.920	48.465	0	947.60	0	3.5410	0	34.3650	0	27.334	0	937.468	0	7.8	4	2.4	4	-1E+10	1	-1E+10	1	-1E+10	1	-1E+10	1	-1E+10	1	-1E+10	1
4902663	25	C	04/08/2024	09:05	-126.920	48.465	0	952.90	0	3.5310	0	34.3690	0	27.338	0	942.700	0	7.8	4	2.4	4	-1E+10	1	-1E+10	1	-1E+10	1	-1E+10	1	-1E+10	1	-1E+10	1
4902663	25	C	04/08/2024	09:05	-126.920	48.465	0	958.10	0	3.5240	0	34.3710	0	27.340	0	947.832	0	7.9	4	2.5	4	-1E+10	1	-1E+10	1	-1E+10	1	-1E+10	1	-1E+10	1	-1E+10	1
4902663	25	C	04/08/2024	09:05	-126.920	48.465	0	962.80	0	3.5130	0	34.3730	0	27.343	0	952.471	0	8.0	4	2.5	4	-1E+10	1	-1E+10	1	-1E+10	1	-1E+10	1	-1E+10	1	-1E+10	1
4902663	25	C	04/08/2024	09:05	-126.920	48.465	0	967.50	0	3.4830	0	34.3770	0	27.349	0	957.110	0	8.0	4	2.5	4	-1E+10	1	-1E+10	1	-1E+10	1	-1E+10	1	-1E+10	1	-1E+10	1
4902663	25	C	04/08/2024	09:05	-126.920	48.465	0	973.00	0	3.4740	0	34.3780	0	27.351	0	962.538	0	8.1	4	2.5	4	-1E+10	1	-1E+10	1	-1E+10	1	-1E+10	1	-1E+10	1	-1E+10	1
4902663	25	C	04/08/2024	09:05	-126.920	48.465	0	978.00	0	3.4610	0	34.3800	0	27.354	0	967.473	0	8.2	4	2.5	4	-1E+10	1	-1E+10	1	-1E+10	1	-1E+10	1	-1E+10	1	-1E+10	1
4902663	25	C	04/08/2024	09:05	-126.920	48.465	0	982.80	0	3.4480	0	34.3830	0	27.357	0	972.210	0	8.2	4	2.6	4	-1E+10	1	-1E+10	1	-1E+10	1	-1E+10	1	-1E+10	1	-1E+10	1
4902663	25	C	04/08/2024	09:05	-126.920	48.465	0	987.70	0	3.4360	0	34.3850	0	27.360	0	977.046	0	8.3	4	2.6	4	-1E+10	1	-1E+10	1	-1E+10	1	-1E+10	1	-1E+10	1	-1E+10	1
4902663	25	C	04/08/2024	09:05	-126.920	48.465	0	992.60	0	3.4330	0	34.3860	0	27.361	0	981.882	0	8.3	4	2.6	4	-1E+10	1	-1E+10	1	-1E+10	1	-1E+10	1	-1E+10	1	-1E+10	1
4902663	25	C	04/08/2024	09:05	-126.920	48.465	0	997.60	0	3.4260	0	34.3900	0	27.365	0	986.816	0	8.4	4	2.6	4	-1E+10	1	-1E+10	1	-1E+10	1	-1E+10	1	-1E+10	1	-1E+10	1
4902663	25	C	04/08/2024	09:05	-126.920	48.465	0	1005.10	0	3.4160	0	34.3920	0	27.368	0	994.217	0	8.5	4	2.6	4	-1E+10	1	-1E+10	1	-1E+10	1	-1E+10	1	-1E+10	1	-1E+10	1
4902663	25	C	04/08/2024	09:05	-126.920	48.465	0	1015.20	0	3.4020	0	34.3970	0	27.373	0	1004.183	0	8.6	4	2.7	4	-1E+10	1	-1E+10	1	-1E+10	1	-1E+10	1	-1E+10	1	-1E+10	1
4902663	25	C	04/08/2024	09:05	-126.920	48.465	0	1025.40	0	3.3900	0	34.4010	0	27.377	0	1014.248	0	8.8	4	2.7	4	-1E+10	1	-1E+10	1	-1E+10	1	-1E+10	1	-1E+10	1	-1E+10	1
4902663	25	C	04/08/2024	09:05	-126.920	48.465	0	1035.60	0	3.3720	0	34.4080	0	27.385	0	1024.312	0	9.1	4	2.8	4	-1E+10	1	-1E+10	1	-1E+10	1	-1E+10	1	-1E+10	1	-1E+10	1
4902663	25	C	04/08/2024	09:05	-126.920	48.465	0	1045.60	0	3.3510	0	34.4130	0	27.391	0	1034.179	0	9.3	4	2.9	4	-1E+10	1	-1E+10	1	-1E+10	1	-1E+10	1	-1E+10	1	-1E+10	1
4902663	25	C	04/08/2024	09:05	-126.920	48.465	0	1055.60	0	3.3220	0	34.4160	0	27.396	0	1044.044	0	9.6	4	3.0	4	-1E+10	1	-1E+10	1	-1E+10	1	-1E+10	1	-1E+10	1	-1E+10	1
4902663	25	C	04/08/2024	09:05	-126.920	48.465	0	1065.70	0	3.2940	0	34.4200	0	27.402	0	1054.009	0	9.9	4	3.1	4	-1E+10	1	-1E+10	1	-1E+10	1	-1E+10	1	-1E+10	1	-1E+10	1
4902663	25	C	04/08/2024	09:05	-126.920	48.465	0	1075.50	0	3.2830	0	34.4230	0	27.405	0	1063.676	0	10.1	4	3.1	4	-1E+10	1	-1E+10	1	-1E+10	1	-1E+10	1	-1E+10	1	-1E+10	1
4902663	25	C	04/08/2024	09:05	-126.920	48.465	0	1085.30	0	3.2650	0	34.4270	0	27.410	0	1073.344	0	10.4	4	3.2	4	-1E+10	1	-1E+10	1	-1E+10	1	-1E+10	1	-1E+10	1	-1E+10	1
4902663	25	C	04/08/2024	09:05	-126.920	48.465	0	1095.20	0	3.2560	0	34.4300	0	27.414	0	1083.109	0	10.8	4	3.3	4	-1E+10	1	-1E+10	1	-1E+10	1	-1E+10	1	-1E+10	1	-1E+10	1
4902663	25	C	04/08/2024	09:05	-126.920	48.465	0	1105.20	0	3.2300	0	34.4350	0	27.420	0	1092.972	0	11.1	4	3.4	4	-1E+10	1	-1E+10	1	-1E+10	1	-1E+10	1	-1E+10	1	-1E+10	1
4902663	25	C	04/08/2024	09:05	-126.920	48.465	0	1115.50	0	3.2150	0	34.4370	0	27.423	0	1103.131	0	11.2	4	3.5	4	-1E+10	1	-1E+10	1	-1E+10	1	-1E+10	1	-1E+10	1	-1E+10	1
4902663	25	C	04/08/2024	09:05	-126.920	48.465	0	1125.40	0	3.1940	0	34.4380	0	27.426	0	1112.895	0	11.4	4	3.5	4	-1E+10	1	-1E+10	1	-1E+10	1	-1E+10	1	-1E+10	1	-1E+10	1
4902663	25	C	04/08/2024	09:05	-126.920	48.465	0	1135.20	0	3.1680	0	34.4410	0	27.431	0	1122.560	0	11.8	4	3.7	4	-1E+10	1	-1E+10	1	-1E+10	1	-1E+10	1	-1E+10	1	-1E+10	1
4902663	25	C	04/08/2024	09:05	-126.920	48.465	0	1145.10	0	3.1560	0	34.4440	0	27.434	0	1132.323	0	12.1	4	3.7	4	-1E+10	1	-1E+10	1	-1E+10	1	-1E+10	1	-1E+10	1	-1E+10	1
4902663	25	C	04/08/2024	09:05	-126.920	48.465	0	1155.00	0	3.1370	0	34.4460	0	27.438	0	1142.086	0	12.4	4	3.8	4	-1E+10	1	-1E+10	1	-1E+10	1	-1E+10	1	-1E+10	1	-1E+10	1
4902663	25	C	04/08/2024	09:05	-126.920	48.465	0	1165.00	0	3.1130	0	34.4500	0	27.443	0	1151.947	0	12.6	4	3.9	4	-1E+10	1	-1E+10	1	-1E+10	1	-1E+10	1	-1E+10	1	-1E+10	1
4902663	25	C	04/08/2024	09:05	-126.920	48.465	0	1175.40	0	3.0790	0	34.4520	0	27.448	0	1162.202	0	12.6	4	3.9	4	-1E+10	1	-1E+10	1	-1E+10	1	-1E+10	1	-1E+10	1	-1E+10	1
4902663	25	C	04/08/2024	09:05	-126.920	48.465	0	1185.40	0	3.0480	0	34.4530	0	27.452	0	1172.062	0	12.8	4	3.9	4	-1E+10	1	-1E+10	1	-1E+10	1	-1E+10	1	-1E+10	1	-1E+10	1
4902663	25	C	04/08/2024	09:05	-126.920	48.465	0	1195.10	0	3.0310	0	34.4550	0	27.455	0	1181.625	0	13.0	4	4.0	4	-1E+10	1	-1E+10	1	-1E+10	1	-1E+10	1	-1E+10	1	-1E+10	1
4902663	25	C	04/08/2024	09:05	-126.920	48.465	0	1205.40	0	3.0110	0	34.4570	0	27.458	0	1191.780	0	13.2	4	4.1	4	-1E+10	1	-1E+10	1	-1E+10	1	-1E+10	1	-1E+10	1	-1E+10	1
4902663	25	C	04/08/2024	09:05	-126.920	48.465	0	1215.90	0	2.9890	0	34.4590	0	27.462	0	1202.131	0	13.4	4	4.1	4	-1E+10	1	-1E+10	1	-1E+10	1	-1E+10	1	-1E+10	1	-1E+10	1
4902663	25	C	04/08/2024	09:05	-126.920	48.465	0	1225.60	0	2.9730	0	34.4600	0	27.464	0	1211.693	0	13.6	4	4.2	4	-1E+10	1	-1E+10	1	-1E+10	1	-1E+10	1	-1E+10	1	-1E+10	1
4902663	25	C	04/08/2024	09:05	-126.920	48.465	0	1235.80	0	2.9570	0	34.4630	0	27.468	0	1221.748	0	13.9	4	4.3	4	-1E+10	1	-1E+10	1	-1E+10	1	-1E+10	1	-1E+10	1	-1E+10	1
4902663	25	C	04/08/2024	09:05	-126.920	48.465	0	1245.70	0	2.9400	0	34.4650	0	27.471	0	1231.507	0	14.2	4	4.4	4	-1E+10	1	-1E+10	1	-1E+10	1	-1E+10	1	-1E+10	1	-1E+10	1
4902663	25	C	04/08/2024	09:05	-126.920	48.465	0	1255.40	0	2.9270	0	34.4660	0	27.473	0	1241.067	0	14.5	4	4.5	4	-1E+10	1	-1E+10	1	-1E+10	1	-1E+10	1	-1E+10	1	-1E+10	1
4902663	25	C	04/08/2024	09:05	-126.920	48.465	0	1265.20	0	2.9090	0	34.4680	0	27.477	0	1250.726	0	14.8	4	4.6	4	-1E+10	1	-1E+10	1	-1E+10	1	-1E+10	1	-1E+10	1	-1E+10	1
4902663	25	C	04/08/2024	09:05	-126.920	48.465	0	1275.30	0	2.8950	0	34.4700	0	27.479	0	1260.681	0	15.0	4	4.6	4	-1E+10	1	-1E+10	1	-1E+10	1	-1E+10	1	-1E+10	1	-1E+10	1
4902663	25	C	04/08/2024	09:05	-126.920	48.465	0	1285.20	0	2.8770	0	34.4710	0	27.482	0	1270.437	0	15.4	4	4.7	4	-1E+10	1	-1E+10	1	-1E+10	1	-1E+10	1	-1E+10	1	-1E+10	1
4902663	25	C	04/08/2024	09:05	-126.920	48.465	0	1295.10	0	2.8610	0	34.4740	0	27.486	0	1280.194	0	15.9	4	4.9	4	-1E+10	1	-1E+10	1	-1E+10	1	-1E+10	1	-1E+10	1	-1E+10	1
4902663	25	C	04/08/2024	09:05	-126.920	48.465	0	1305.20	0	2.8390	0	34.4770	0	27.490	0	1290.146	0	16.5	4	5.1	4	-1E+10	1	-1E+10	1	-1E+10	1	-1E+10	1	-1E+10	1	-1E+10	1
4902663	25	C	04/08/2024	09:05	-126.920	48.465	0	1315.20	0	2.8030	0	34.4800	0	27.496	0	1300.000	0	17.0	4	5.2	4	-1E+10	1	-1E+10	1	-1E+10	1	-1E+10	1	-1E+10	1	-1E+10	1
4902663	25	C	04/08/2024	09:05	-126.920	48.465	0	1325.30	0	2.7820	0	34.4830	0	27.500	0	1309.952	0	17.7	4	5.4	4	-1E+10	1	-1E+10	1	-1E+10	1	-1E+10	1	-1E+10	1	-1E+10	1
4902663	25	C	04/08/2024	09:05	-126.920	48.465	0	1335.40	0	2.7660	0	34.4860	0	27.504	0	1319.904	0	18.2	4	5.6	4	-1E+10	1	-1E+10	1	-1E+10	1	-1E+10	1	-1E+10	1	-1E+10	1
4902663	25	C	04/08/2024	09:05	-126.920	48.465	0	1345.40	0	2.7560	0	34.4890	0	27.507	0	1329.756	0	18.9	4	5.8	4	-1E+10	1	-1E+10	1	-1E+10	1	-1E+10	1	-1E+10	1	-1E+10	1
4902663	25	C	04/08/2024	09:05	-126.920	48.465	0	1355.40	0	2.7430	0	34.4920	0	27.511	0	1339.608	0	19.4	4	5.9	4	-1E+10	1	-1E+10	1	-1E+10	1	-1E+10	1	-1E+10	1	-1E+10	1
4902663	25	C	04/08/2024	09:05	-126.920	48.465	0	1365.50	0	2.7320	0	34.4930	0	27.513	0	1349.558	0	19.6	4	6.0	4	-1E+10	1	-1E+10	1	-1E+10	1	-1E+10	1	-1E+10	1	-1E+10	1
4902663	25	C	04/08/2024	09:05	-126.920	48.465	0	1375.50	0	2.7070	0	34.4940	0	27.516	0	1359.409	0	19.9	4	6.1	4	-1E+10	1	-1E+10	1	-1E+10	1	-1E+10	1	-1E+10	1	-1E+10	1
4902663	25	C	04/08/2024	09:05	-126.920	48.465	0	1385.50	0	2.6870	0	34.4960	0	27.519	0	1369.260	0	20.3	4	6.2	4	-1E+10	1	-1E+10	1	-1E+10	1	-1E+10	1	-1E+10	1	-1E+10	1
4902663	25	C	04/08/2024	09:05	-126.920	48.465	0	1395.70	0	2.6710	0	34.4970	0	27.521	0	1379.307	0	20.6	4	6.3	4	-1E+10	1	-1E+10	1	-1E+10	1	-1E+10	1	-1E+10	1	-1E+10	1
4902663	25	C	04/08/2024	09:05	-126.920	48.465	0	1405.30	0	2.6560	0	34.4990	0	27.524	0	1388.762	0	21.2	4	6.5	4	-1E+10	1	-1E+10	1	-1E+10	1	-1E+10	1	-1E+10	1	-1E+10	1
4902663	25	C	04/08/2024	09:05	-126.920	48.465	0	1415.10	0	2.6510	0	34.5010	0	27.526	0	1398.415	0	21.8	4	6.7	4	-1E+10	1	-1E+10	1	-1E+10	1	-1E+10	1	-1E+10	1	-1E+10	1
4902663	25	C	04/08/2024	09:05	-126.920	48.465	0	1425.60	0	2.6280	0	34.5040	0	27.531	0	1408.756	0	22.4	4	6.8	4	-1E+10	1	-1E+10	1	-1E+10	1	-1E+10	1	-1E+10	1	-1E+10	1
4902663	25	C	04/08/2024	09:05	-126.920	48.465	0	1435.70	0	2.6260	0	34.5060	0	27.533	0	1418.702	0	22.8	4	7.0	4	-1E+10	1	-1E+10	1	-1E+10	1	-1E+10	1	-1E+10	1	-1E+10	1
4902663	25	C	04/08/2024	09:05	-126.920	48.465	0	1445.30	0	2.6070	0	34.5080	0	27.536	0	1428.156	0	23.3	4	7.1	4	-1E+10	1	-1E+10	1	-1E+10	1	-1E+10	1	-1E+10	1	-1E+10	1
4902663	25	C	04/08/2024	09:05	-126.920	48.465	0	1455.10	0	2.5740	0	34.5090	0	27.539	0	1437.807	0	23.8	4	7.3	4	-1E+10	1	-1E+10	1	-1E+10	1	-1E+10	1	-1E+10	1	-1E+10	1
4902663	25	C	04/08/2024	09:05	-126.920	48.465	0	1465.10	0	2.5400	0	34.5120	0	27.545	0	1447.654	0	24.4	4	7.4	4	-1E+10	1	-1E+10	1	-1E+10	1	-1E+10	1	-1E+10	1	-1E+10	1
4902663	25	C	04/08/2024	09:05	-126.920	48.465	0	1475.50	0	2.5250	0	34.5140	0	27.548	0	1457.894	0	24.7	4	7.5	4	-1E+10	1	-1E+10	1	-1E+10	1	-1E+10	1	-1E+10	1	-1E+10	1
4902663	25	C	04/08/2024	09:05	-126.920	48.465	0	1485.40	0	2.5070	0	34.5140	0	27.549	0	1467.642	0	25.2	4	7.7	4	-1E+10	1	-1E+10	1	-1E+10	1	-1E+10	1	-1E+10	1	-1E+10	1
4902663	25	C	04/08/2024	09:05	-126.920	48.465	0	1495.60	0	2.4830	0	34.5170	0	27.554	0	1477.684	0	25.8	4	7.9	4	-1E+10	1	-1E+10	1	-1E+10	1	-1E+10	1	-1E+10	1	-1E+10	1
4902663	25	C	04/08/2024	09:05	-126.920	48.465	0	1505.60	0	2.4600	0	34.5190	0	27.557	0	1487.529	0	26.3	4	8.0	4	-1E+10	1	-1E+10	1	-1E+10	1	-1E+10	1	-1E+10	1	-1E+10	1
4902663	25	C	04/08/2024	09:05	-126.920	48.465	0	1515.50	0	2.4500	0	34.5200	0	27.559	0	1497.275	0	26.6	4	8.1	4	-1E+10	1	-1E+10	1	-1E+10	1	-1E+10	1	-1E+10	1	-1E+10	1
4902663	25	C	04/08/2024	09:05	-126.920	48.465	0	1525.40	0	2.4430	0	34.5200	0	27.560	0	1507.021	0	27.0	4	8.2	4	-1E+10	1	-1E+10	1	-1E+10	1	-1E+10	1	-1E+10	1	-1E+10	1
4902663	25	C	04/08/2024	09:05	-126.920	48.465	0	1535.50	0	2.4320	0	34.5210	0	27.561	0	1516.963	0	27.3	4	8.3	4	-1E+10	1	-1E+10	1	-1E+10	1	-1E+10	1	-1E+10	1	-1E+10	1
4902663	25	C	04/08/2024	09:05	-126.920	48.465	0	1545.70	0	2.4200	0	34.5230	0	27.564	0	1527.003	0	27.9	4	8.5	4	-1E+10	1	-1E+10	1	-1E+10	1	-1E+10	1	-1E+10	1	-1E+10	1
4902663	25	C	04/08/2024	09:05	-126.920	48.465	0	1555.30	0	2.4000	0	34.5250	0	27.567	0	1536.452	0	28.5	4	8.7	4	-1E+10	1	-1E+10	1	-1E+10	1	-1E+10	1	-1E+10	1	-1E+10	1
4902663	25	C	04/08/2024	09:05	-126.920	48.465	0	1565.20	0	2.3850	0	34.5270	0	27.570	0	1546.196	0	28.8	4	8.8	4	-1E+10	1	-1E+10	1	-1E+10	1	-1E+10	1	-1E+10	1	-1E+10	1
4902663	25	C	04/08/2024	09:05	-126.920	48.465	0	1575.60	0	2.3750	0	34.5280	0	27.572	0	1556.431	0	29.2	4	8.9	4	-1E+10	1	-1E+10	1	-1E+10	1	-1E+10	1	-1E+10	1	-1E+10	1
4902663	25	C	04/08/2024	09:05	-126.920	48.465	0	1585.80	0	2.3660	0	34.5290	0	27.574	0	1566.470	0	29.5	4	9.0	4	-1E+10	1	-1E+10	1	-1E+10	1	-1E+10	1	-1E+10	1	-1E+10	1
4902663	25	C	04/08/2024	09:05	-126.920	48.465	0	1595.80	0	2.3640	0	34.5290	0	27.574	0	1576.310	0	30.1	4	9.2	4	-1E+10	1	-1E+10	1	-1E+10	1	-1E+10	1	-1E+10	1	-1E+10	1
4902663	25	C	04/08/2024	09:05	-126.920	48.465	0	1605.70	0	2.3350	0	34.5320	0	27.579	0	1586.052	0	30.9	4	9.4	4	-1E+10	1	-1E+10	1	-1E+10	1	-1E+10	1	-1E+10	1	-1E+10	1
4902663	25	C	04/08/2024	09:05	-126.920	48.465	0	1615.40	0	2.3210	0	34.5330	0	27.581	0	1595.597	0	31.4	4	9.5	4	-1E+10	1	-1E+10	1	-1E+10	1	-1E+10	1	-1E+10	1	-1E+10	1
4902663	25	C	04/08/2024	09:05	-126.920	48.465	0	1625.20	0	2.3150	0	34.5340	0	27.582	0	1605.240	0	31.8	4	9.7	4	-1E+10	1	-1E+10	1	-1E+10	1	-1E+10	1	-1E+10	1	-1E+10	1
4902663	25	C	04/08/2024	09:05	-126.920	48.465	0	1635.60	0	2.3020	0	34.5360	0	27.585	0	1615.473	0	32.8	4	10.0	4	-1E+10	1	-1E+10	1	-1E+10	1	-1E+10	1	-1E+10	1	-1E+10	1
4902663	25	C	04/08/2024	09:05	-126.920	48.465	0	1645.60	0	2.2730	0	34.5400	0	27.590	0	1625.311	0	33.8	4	10.3	4	-1E+10	1	-1E+10	1	-1E+10	1	-1E+10	1	-1E+10	1	-1E+10	1
4902663	25	C	04/08/2024	09:05	-126.920	48.465	0	1655.30	0	2.2570	0	34.5420	0	27.593	0	1634.854	0	34.6	4	10.5	4	-1E+10	1	-1E+10	1	-1E+10	1	-1E+10	1	-1E+10	1	-1E+10	1
4902663	25	C	04/08/2024	09:05	-126.920	48.465	0	1665.30	0	2.2430	0	34.5450	0	27.597	0	1644.692	0	35.0	4	10.6	4	-1E+10	1	-1E+10	1	-1E+10	1	-1E+10	1	-1E+10	1	-1E+10	1
4902663	25	C	04/08/2024	09:05	-126.920	48.465	0	1675.40	0	2.2410	0	34.5450	0	27.597	0	1654.627	0	35.1	4	10.7	4	-1E+10	1	-1E+10	1	-1E+10	1	-1E+10	1	-1E+10	1	-1E+10	1
4902663	25	C	04/08/2024	09:05	-126.920	48.465	0	1685.60	0	2.2360	0	34.5460	0	27.598	0	1664.661	0	35.6	4	10.8	4	-1E+10	1	-1E+10	1	-1E+10	1	-1E+10	1	-1E+10	1	-1E+10	1
4902663	25	C	04/08/2024	09:05	-126.920	48.465	0	1695.80	0	2.2290	0	34.5470	0	27.600	0	1674.694	0	36.3	4	11.0	4	-1E+10	1	-1E+10	1	-1E+10	1	-1E+10	1	-1E+10	1	-1E+10	1
4902663	25	C	04/08/2024	09:05	-126.920	48.465	0	1705.50	0	2.2220	0	34.5490	0	27.602	0	1684.235	0	37.2	4	11.3	4	-1E+10	1	-1E+10	1	-1E+10	1	-1E+10	1	-1E+10	1	-1E+10	1
4902663	25	C	04/08/2024	09:05	-126.920	48.465	0	1715.00	0	2.2070	0	34.5520	0	27.606	0	1693.578	0	38.5	4	11.7	4	-1E+10	1	-1E+10	1	-1E+10	1	-1E+10	1	-1E+10	1	-1E+10	1
4902663	25	C	04/08/2024	09:05	-126.920	48.465	0	1725.00	0	2.1870	0	34.5570	0	27.611	0	1703.413	0	39.7	4	12.0	4	-1E+10	1	-1E+10	1	-1E+10	1	-1E+10	1	-1E+10	1	-1E+10	1
4902663	25	C	04/08/2024	09:05	-126.920	48.465	0	1735.10	0	2.1740	0	34.5600	0	27.615	0	1713.346	0	40.4	4	12.2	4	-1E+10	1	-1E+10	1	-1E+10	1	-1E+10	1	-1E+10	1	-1E+10	1
4902663	25	C	04/08/2024	09:05	-126.920	48.465	0	1745.30	0	2.1660	0	34.5610	0	27.616	0	1723.377	0	41.1	4	12.4	4	-1E+10	1	-1E+10	1	-1E+10	1	-1E+10	1	-1E+10	1	-1E+10	1
4902663	25	C	04/08/2024	09:05	-126.920	48.465	0	1755.20	0	2.1520	0	34.5630	0	27.619	0	1733.112	0	41.7	4	12.6	4	-1E+10	1	-1E+10	1	-1E+10	1	-1E+10	1	-1E+10	1	-1E+10	1
4902663	25	C	04/08/2024	09:05	-126.920	48.465	0	1765.30	0	2.1470	0	34.5640	0	27.620	0	1743.044	0	42.0	4	12.7	4	-1E+10	1	-1E+10	1	-1E+10	1	-1E+10	1	-1E+10	1	-1E+10	1
4902663	25	C	04/08/2024	09:05	-126.920	48.465	0	1775.40	0	2.1430	0	34.5650	0	27.621	0	1752.975	0	42.5	4	12.8	4	-1E+10	1	-1E+10	1	-1E+10	1	-1E+10	1	-1E+10	1	-1E+10	1
4902663	25	C	04/08/2024	09:05	-126.920	48.465	0	1785.30	0	2.1320	0	34.5660	0	27.623	0	1762.709	0	43.2	4	13.1	4	-1E+10	1	-1E+10	1	-1E+10	1	-1E+10	1	-1E+10	1	-1E+10	1
4902663	25	C	04/08/2024	09:05	-126.920	48.465	0	1795.40	0	2.1210	0	34.5680	0	27.626	0	1772.639	0	44.0	4	13.3	4	-1E+10	1	-1E+10	1	-1E+10	1	-1E+10	1	-1E+10	1	-1E+10	1
4902663	25	C	04/08/2024	09:05	-126.920	48.465	0	1805.50	0	2.1020	0	34.5710	0	27.630	0	1782.568	0	45.0	4	13.6	4	-1E+10	1	-1E+10	1	-1E+10	1	-1E+10	1	-1E+10	1	-1E+10	1
4902663	25	C	04/08/2024	09:05	-126.920	48.465	0	1815.70	0	2.0860	0	34.5730	0	27.632	0	1792.596	0	45.6	4	13.8	4	-1E+10	1	-1E+10	1	-1E+10	1	-1E+10	1	-1E+10	1	-1E+10	1
4902663	25	C	04/08/2024	09:05	-126.920	48.465	0	1825.70	0	2.0770	0	34.5750	0	27.635	0	1802.426	0	46.0	4	13.9	4	-1E+10	1	-1E+10	1	-1E+10	1	-1E+10	1	-1E+10	1	-1E+10	1
4902663	25	C	04/08/2024	09:05	-126.920	48.465	0	1835.30	0	2.0740	0	34.5750	0	27.635	0	1811.863	0	46.3	4	14.0	4	-1E+10	1	-1E+10	1	-1E+10	1	-1E+10	1	-1E+10	1	-1E+10	1
4902663	25	C	04/08/2024	09:05	-126.920	48.465	0	1845.10	0	2.0660	0	34.5760	0	27.637	0	1821.496	0	47.1	4	14.2	4	-1E+10	1	-1E+10	1	-1E+10	1	-1E+10	1	-1E+10	1	-1E+10	1
4902663	25	C	04/08/2024	09:05	-126.920	48.465	0	1855.10	0	2.0500	0	34.5790	0	27.640	0	1831.325	0	47.9	4	14.5	4	-1E+10	1	-1E+10	1	-1E+10	1	-1E+10	1	-1E+10	1	-1E+10	1
4902663	25	C	04/08/2024	09:05	-126.920	48.465	0	1865.30	0	2.0370	0	34.5810	0	27.643	0	1841.350	0	48.8	4	14.7	4	-1E+10	1	-1E+10	1	-1E+10	1	-1E+10	1	-1E+10	1	-1E+10	1
4902663	25	C	04/08/2024	09:05	-126.920	48.465	0	1875.30	0	2.0220	0	34.5830	0	27.646	0	1851.178	0	49.6	4	15.0	4	-1E+10	1	-1E+10	1	-1E+10	1	-1E+10	1	-1E+10	1	-1E+10	1
4902663	25	C	04/08/2024	09:05	-126.920	48.465	0	1885.00	0	2.0120	0	34.5850	0	27.648	0	1860.711	0	50.1	4	15.1	4	-1E+10	1	-1E+10	1	-1E+10	1	-1E+10	1	-1E+10	1	-1E+10	1
4902663	25	C	04/08/2024	09:05	-126.920	48.465	0	1895.00	0	2.0070	0	34.5860	0	27.649	0	1870.538	0	50.9	4	15.3	4	-1E+10	1	-1E+10	1	-1E+10	1	-1E+10	1	-1E+10	1	-1E+10	1
4902663	25	C	04/08/2024	09:05	-126.920	48.465	0	1905.30	0	1.9850	0	34.5890	0	27.654	0	1880.660	0	52.0	4	15.7	4	-1E+10	1	-1E+10	1	-1E+10	1	-1E+10	1	-1E+10	1	-1E+10	1
4902663	25	C	04/08/2024	09:05	-126.920	48.465	0	1915.30	0	1.9730	0	34.5910	0	27.656	0	1890.486	0	52.5	4	15.8	4	-1E+10	1	-1E+10	1	-1E+10	1	-1E+10	1	-1E+10	1	-1E+10	1
4902663	25	C	04/08/2024	09:05	-126.920	48.465	0	1925.40	0	1.9660	0	34.5920	0	27.658	0	1900.410	0	53.0	4	16.0	4	-1E+10	1	-1E+10	1	-1E+10	1	-1E+10	1	-1E+10	1	-1E+10	1
4902663	25	C	04/08/2024	09:05	-126.920	48.465	0	1935.40	0	1.9570	0	34.5930	0	27.659	0	1910.235	0	53.6	4	16.1	4	-1E+10	1	-1E+10	1	-1E+10	1	-1E+10	1	-1E+10	1	-1E+10	1
4902663	25	C	04/08/2024	09:05	-126.920	48.465	0	1945.40	0	1.9440	0	34.5940	0	27.661	0	1920.060	0	54.6	4	16.4	4	-1E+10	1	-1E+10	1	-1E+10	1	-1E+10	1	-1E+10	1	-1E+10	1
4902663	25	C	04/08/2024	09:05	-126.920	48.465	0	1955.40	0	1.9230	0	34.5980	0	27.666	0	1929.885	0	55.4	4	16.7	4	-1E+10	1	-1E+10	1	-1E+10	1	-1E+10	1	-1E+10	1	-1E+10	1
4902663	25	C	04/08/2024	09:05	-126.920	48.465	0	1965.30	0	1.9200	0	34.5990	0	27.667	0	1939.610	0	55.6	4	16.7	4	-1E+10	1	-1E+10	1	-1E+10	1	-1E+10	1	-1E+10	1	-1E+10	1
4902663	25	C	04/08/2024	09:05	-126.920	48.465	0	1975.40	0	1.9160	0	34.5990	0	27.667	0	1949.532	0	56.1	4	16.9	4	-1E+10	1	-1E+10	1	-1E+10	1	-1E+10	1	-1E+10	1	-1E+10	1
4902663	25	C	04/08/2024	09:05	-126.920	48.465	0	1985.60	0	1.9040	0	34.6010	0	27.670	0	1959.552	0	56.5	4	17.0	4	-1E+10	1	-1E+10	1	-1E+10	1	-1E+10	1	-1E+10	1	-1E+10	1
4902663	25	C	04/08/2024	09:05	-126.920	48.465	0	1994.50	0	1.8990	0	34.6020	0	27.671	0	1968.294	0	56.4	4	17.0	4	-1E+10	1	-1E+10	1	-1E+10	1	-1E+10	1	-1E+10	1	-1E+10	1
4902663	25	C	04/08/2024	09:05	-126.920	48.465	0																										
4902663	26	C	04/18/2024	04:11	-126.763	48.167	0	0.40	0	10.1100	0	31.4920	0	24.196	0	0.397	0	279.1	4	99.3	4	-1E+10	1	-1E+10	1	-1E+10	1	-1E+10	1	-1E+10	1	-1E+10	1
4902663	26	C	04/18/2024	04:11	-126.763	48.167	0	0.80	0	10.1040	0	31.4820	0	24.190	0	0.793	0	278.8	4	99.2	4	-1E+10	1	-1E+10	1	-1E+10	1	-1E+10	1	-1E+10	1	-1E+10	1
4902663	26	C	04/18/2024	04:11	-126.763	48.167	0	1.90	0	9.9920	0	31.5530	0	24.263	0	1.884	0	278.7	4	99.0	4	-1E+10	1	-1E+10	1	-1E+10	1	-1E+10	1	-1E+10	1	-1E+10	1
4902663	26	C	04/18/2024	04:11	-126.763	48.167	0	3.00	0	9.8940	0	31.6330	0	24.342	0	2.975	0	278.6	4	98.8	4	-1E+10	1	-1E+10	1	-1E+10	1	-1E+10	1	-1E+10	1	-1E+10	1
4902663	26	C	04/18/2024	04:11	-126.763	48.167	0	4.10	0	9.8780	0	31.6510	0	24.358	0	4.065	0	278.3	4	98.7	4	-1E+10	1	-1E+10	1	-1E+10	1	-1E+10	1	-1E+10	1	-1E+10	1
4902663	26	C	04/18/2024	04:11	-126.763	48.167	0	4.80	0	9.8710	0	31.6600	0	24.367	0	4.760	0	278.3	4	98.7	4	-1E+10	1	-1E+10	1	-1E+10	1	-1E+10	1	-1E+10	1	-1E+10	1
4902663	26	C	04/18/2024	04:11	-126.763	48.167	0	6.00	0	9.8520	0	31.6590	0	24.369	0	5.949	0	278.1	4	98.5	4	-1E+10	1	-1E+10	1	-1E+10	1	-1E+10	1	-1E+10	1	-1E+10	1
4902663	26	C	04/18/2024	04:11	-126.763	48.167	0	7.40	0	9.8250	0	31.6620	0	24.376	0	7.338	0	277.6	4	98.3	4	-1E+10	1	-1E+10	1	-1E+10	1	-1E+10	1	-1E+10	1	-1E+10	1
4902663	26	C	04/18/2024	04:11	-126.763	48.167	0	8.40	0	9.8180	0	31.6660	0	24.380	0	8.329	0	277.2	4	98.2	4	-1E+10	1	-1E+10	1	-1E+10	1	-1E+10	1	-1E+10	1	-1E+10	1
4902663	26	C	04/18/2024	04:11	-126.763	48.167	0	9.40	0	9.8170	0	31.6670	0	24.381	0	9.321	0	276.8	4	98.0	4	-1E+10	1	-1E+10	1	-1E+10	1	-1E+10	1	-1E+10	1	-1E+10	1
4902663	26	C	04/18/2024	04:11	-126.763	48.167	0	10.60	0	9.8120	0	31.6680	0	24.383	0	10.511	0	276.4	4	97.9	4	-1E+10	1	-1E+10	1	-1E+10	1	-1E+10	1	-1E+10	1	-1E+10	1
4902663	26	C	04/18/2024	04:11	-126.763	48.167	0	11.80	0	9.8050	0	31.6690	0	24.384	0	11.700	0	276.0	4	97.7	4	-1E+10	1	-1E+10	1	-1E+10	1	-1E+10	1	-1E+10	1	-1E+10	1
4902663	26	C	04/18/2024	04:11	-126.763	48.167	0	13.00	0	9.7980	0	31.6700	0	24.386	0	12.890	0	275.8	4	97.6	4	-1E+10	1	-1E+10	1	-1E+10	1	-1E+10	1	-1E+10	1	-1E+10	1
4902663	26	C	04/18/2024	04:11	-126.763	48.167	0	14.10	0	9.8030	0	31.6740	0	24.389	0	13.981	0	275.7	4	97.6	4	-1E+10	1	-1E+10	1	-1E+10	1	-1E+10	1	-1E+10	1	-1E+10	1
4902663	26	C	04/18/2024	04:11	-126.763	48.167	0	15.20	0	9.8090	0	31.6780	0	24.391	0	15.072	0	275.4	4	97.5	4	-1E+10	1	-1E+10	1	-1E+10	1	-1E+10	1	-1E+10	1	-1E+10	1
4902663	26	C	04/18/2024	04:11	-126.763	48.167	0	16.20	0	9.8150	0	31.6810	0	24.392	0	16.063	0	275.1	4	97.4	4	-1E+10	1	-1E+10	1	-1E+10	1	-1E+10	1	-1E+10	1	-1E+10	1
4902663	26	C	04/18/2024	04:11	-126.763	48.167	0	17.20	0	9.8210	0	31.6840	0	24.394	0	17.055	0	274.8	4	97.3	4	-1E+10	1	-1E+10	1	-1E+10	1	-1E+10	1	-1E+10	1	-1E+10	1
4902663	26	C	04/18/2024	04:11	-126.763	48.167	0	18.10	0	9.8230	0	31.6870	0	24.396	0	17.947	0	274.5	4	97.2	4	-1E+10	1	-1E+10	1	-1E+10	1	-1E+10	1	-1E+10	1	-1E+10	1
4902663	26	C	04/18/2024	04:11	-126.763	48.167	0	19.10	0	9.8240	0	31.6870	0	24.396	0	18.939	0	274.1	4	97.1	4	-1E+10	1	-1E+10	1	-1E+10	1	-1E+10	1	-1E+10	1	-1E+10	1
4902663	26	C	04/18/2024	04:11	-126.763	48.167	0	20.00	0	9.8310	0	31.6930	0	24.399	0	19.831	0	273.6	4	97.0	4	-1E+10	1	-1E+10	1	-1E+10	1	-1E+10	1	-1E+10	1	-1E+10	1
4902663	26	C	04/18/2024	04:11	-126.763	48.167	0	20.90	0	9.8370	0	31.6980	0	24.402	0	20.723	0	273.1	4	96.8	4	-1E+10	1	-1E+10	1	-1E+10	1	-1E+10	1	-1E+10	1	-1E+10	1
4902663	26	C	04/18/2024	04:11	-126.763	48.167	0	21.80	0	9.8310	0	31.7090	0	24.412	0	21.616	0	272.6	4	96.6	4	-1E+10	1	-1E+10	1	-1E+10	1	-1E+10	1	-1E+10	1	-1E+10	1
4902663	26	C	04/18/2024	04:11	-126.763	48.167	0	22.70	0	9.8300	0	31.7110	0	24.413	0	22.508	0	272.1	4	96.4	4	-1E+10	1	-1E+10	1	-1E+10	1	-1E+10	1	-1E+10	1	-1E+10	1
4902663	26	C	04/18/2024	04:11	-126.763	48.167	0	23.90	0	9.8250	0	31.7170	0	24.419	0	23.698	0	271.3	4	96.1	4	-1E+10	1	-1E+10	1	-1E+10	1	-1E+10	1	-1E+10	1	-1E+10	1
4902663	26	C	04/18/2024	04:11	-126.763	48.167	0	25.00	0	9.8230	0	31.7240	0	24.425	0	24.788	0	270.2	4	95.7	4	-1E+10	1	-1E+10	1	-1E+10	1	-1E+10	1	-1E+10	1	-1E+10	1
4902663	26	C	04/18/2024	04:11	-126.763	48.167	0	26.20	0	9.8200	0	31.7340	0	24.433	0	25.978	0	269.4	4	95.5	4	-1E+10	1	-1E+10	1	-1E+10	1	-1E+10	1	-1E+10	1	-1E+10	1
4902663	26	C	04/18/2024	04:11	-126.763	48.167	0	26.90	0	9.8180	0	31.7580	0	24.452	0	26.672	0	268.5	4	95.2	4	-1E+10	1	-1E+10	1	-1E+10	1	-1E+10	1	-1E+10	1	-1E+10	1
4902663	26	C	04/18/2024	04:11	-126.763	48.167	0	27.90	0	9.8150	0	31.8510	0	24.525	0	27.664	0	266.7	4	94.6	4	-1E+10	1	-1E+10	1	-1E+10	1	-1E+10	1	-1E+10	1	-1E+10	1
4902663	26	C	04/18/2024	04:11	-126.763	48.167	0	28.80	0	9.7940	0	31.9460	0	24.603	0	28.556	0	264.8	4	93.9	4	-1E+10	1	-1E+10	1	-1E+10	1	-1E+10	1	-1E+10	1	-1E+10	1
4902663	26	C	04/18/2024	04:11	-126.763	48.167	0	29.90	0	9.7250	0	32.1370	0	24.763	0	29.646	0	263.8	4	93.5	4	-1E+10	1	-1E+10	1	-1E+10	1	-1E+10	1	-1E+10	1	-1E+10	1
4902663	26	C	04/18/2024	04:11	-126.763	48.167	0	31.10	0	9.6720	0	32.2550	0	24.864	0	30.836	0	263.3	4	93.3	4	-1E+10	1	-1E+10	1	-1E+10	1	-1E+10	1	-1E+10	1	-1E+10	1
4902663	26	C	04/18/2024	04:11	-126.763	48.167	0	31.90	0	9.6670	0	32.2610	0	24.869	0	31.629	0	263.1	4	93.3	4	-1E+10	1	-1E+10	1	-1E+10	1	-1E+10	1	-1E+10	1	-1E+10	1
4902663	26	C	04/18/2024	04:11	-126.763	48.167	0	32.80	0	9.6630	0	32.2620	0	24.871	0	32.522	0	262.9	4	93.2	4	-1E+10	1	-1E+10	1	-1E+10	1	-1E+10	1	-1E+10	1	-1E+10	1
4902663	26	C	04/18/2024	04:11	-126.763	48.167	0	33.60	0	9.6520	0	32.2630	0	24.873	0	33.315	0	262.7	4	93.1	4	-1E+10	1	-1E+10	1	-1E+10	1	-1E+10	1	-1E+10	1	-1E+10	1
4902663	26	C	04/18/2024	04:11	-126.763	48.167	0	34.90	0	9.6280	0	32.2660	0	24.880	0	34.604	0	262.4	4	93.0	4	-1E+10	1	-1E+10	1	-1E+10	1	-1E+10	1	-1E+10	1	-1E+10	1
4902663	26	C	04/18/2024	04:11	-126.763	48.167	0	36.20	0	9.6050	0	32.2680	0	24.885	0	35.893	0	262.2	4	92.8	4	-1E+10	1	-1E+10	1	-1E+10	1	-1E+10	1	-1E+10	1	-1E+10	1
4902663	26	C	04/18/2024	04:11	-126.763	48.167	0	37.10	0	9.5960	0	32.2690	0	24.887	0	36.785	0	261.9	4	92.7	4	-1E+10	1	-1E+10	1	-1E+10	1	-1E+10	1	-1E+10	1	-1E+10	1
4902663	26	C	04/18/2024	04:11	-126.763	48.167	0	38.00	0	9.5740	0	32.2730	0	24.894	0	37.677	0	261.6	4	92.5	4	-1E+10	1	-1E+10	1	-1E+10	1	-1E+10	1	-1E+10	1	-1E+10	1
4902663	26	C	04/18/2024	04:11	-126.763	48.167	0	38.90	0	9.5510	0	32.2750	0	24.899	0	38.569	0	261.2	4	92.4	4	-1E+10	1	-1E+10	1	-1E+10	1	-1E+10	1	-1E+10	1	-1E+10	1
4902663	26	C	04/18/2024	04:11	-126.763	48.167	0	39.80	0	9.5010	0	32.2810	0	24.912	0	39.462	0	260.8	4	92.1	4	-1E+10	1	-1E+10	1	-1E+10	1	-1E+10	1	-1E+10	1	-1E+10	1
4902663	26	C	04/18/2024	04:11	-126.763	48.167	0	40.70	0	9.4640	0	32.2890	0	24.924	0	40.354	0	260.2	4	91.9	4	-1E+10	1	-1E+10	1	-1E+10	1	-1E+10	1	-1E+10	1	-1E+10	1
4902663	26	C	04/18/2024	04:11	-126.763	48.167	0	41.60	0	9.4660	0	32.2860	0	24.921	0	41.246	0	259.8	4	91.7	4	-1E+10	1	-1E+10	1	-1E+10	1	-1E+10	1	-1E+10	1	-1E+10	1
4902663	26	C	04/18/2024	04:11	-126.763	48.167	0	42.90	0	9.4580	0	32.2860	0	24.923	0	42.535	0	258.8	4	91.4	4	-1E+10	1	-1E+10	1	-1E+10	1	-1E+10	1	-1E+10	1	-1E+10	1
4902663	26	C	04/18/2024	04:11	-126.763	48.167	0	44.30	0	9.4170	0	32.2890	0	24.932	0	43.923	0	257.5	4	90.8	4	-1E+10	1	-1E+10	1	-1E+10	1	-1E+10	1	-1E+10	1	-1E+10	1
4902663	26	C	04/18/2024	04:11	-126.763	48.167	0	45.20	0	9.3280	0	32.3010	0	24.955	0	44.815	0	256.5	4	90.3	4	-1E+10	1	-1E+10	1	-1E+10	1	-1E+10	1	-1E+10	1	-1E+10	1
4902663	26	C	04/18/2024	04:11	-126.763	48.167	0	46.10	0	9.2640	0	32.3110	0	24.973	0	45.707	0	255.2	4	89.7	4	-1E+10	1	-1E+10	1	-1E+10	1	-1E+10	1	-1E+10	1	-1E+10	1
4902663	26	C	04/18/2024	04:11	-126.763	48.167	0	47.10	0	9.2170	0	32.3180	0	24.986	0	46.699	0	253.7	4	89.1	4	-1E+10	1	-1E+10	1	-1E+10	1	-1E+10	1	-1E+10	1	-1E+10	1
4902663	26	C	04/18/2024	04:11	-126.763	48.167	0	48.10	0	9.1850	0	32.3230	0	24.995	0	47.690	0	252.6	4	88.7	4	-1E+10	1	-1E+10	1	-1E+10	1	-1E+10	1	-1E+10	1	-1E+10	1
4902663	26	C	04/18/2024	04:11	-126.763	48.167	0	49.10	0	9.1580	0	32.3390	0	25.012	0	48.681	0	251.5	4	88.2	4	-1E+10	1	-1E+10	1	-1E+10	1	-1E+10	1	-1E+10	1	-1E+10	1
4902663	26	C	04/18/2024	04:11	-126.763	48.167	0	50.10	0	9.1180	0	32.3360	0	25.015	0	49.673	0	250.4	4	87.7	4	-1E+10	1	-1E+10	1	-1E+10	1	-1E+10	1	-1E+10	1	-1E+10	1
4902663	26	C	04/18/2024	04:11	-126.763	48.167	0	51.10	0	9.0810	0	32.3490	0	25.031	0	50.664	0	249.0	4	87.2	4	-1E+10	1	-1E+10	1	-1E+10	1	-1E+10	1	-1E+10	1	-1E+10	1
4902663	26	C	04/18/2024	04:11	-126.763	48.167	0	52.00	0	9.0460	0	32.3490	0	25.037	0	51.556	0	247.5	4	86.6	4	-1E+10	1	-1E+10	1	-1E+10	1	-1E+10	1	-1E+10	1	-1E+10	1
4902663	26	C	04/18/2024	04:11	-126.763	48.167	0	53.00	0	9.0370	0	32.3490	0	25.038	0	52.548	0	245.6	4	85.9	4	-1E+10	1	-1E+10	1	-1E+10	1	-1E+10	1	-1E+10	1	-1E+10	1
4902663	26	C	04/18/2024	04:11	-126.763	48.167	0	54.00	0	9.0270	0	32.3510	0	25.041	0	53.539	0	243.3	4	85.1	4	-1E+10	1	-1E+10	1	-1E+10	1	-1E+10	1	-1E+10	1	-1E+10	1
4902663	26	C	04/18/2024	04:11	-126.763	48.167	0	54.90	0	9.0050	0	32.3560	0	25.049	0	54.431	0	240.5	4	84.1	4	-1E+10	1	-1E+10	1	-1E+10	1	-1E+10	1	-1E+10	1	-1E+10	1
4902663	26	C	04/18/2024	04:11	-126.763	48.167	0	55.80	0	9.0070	0	32.3570	0	25.049	0	55.323	0	237.1	4	82.9	4	-1E+10	1	-1E+10	1	-1E+10	1	-1E+10	1	-1E+10	1	-1E+10	1
4902663	26	C	04/18/2024	04:11	-126.763	48.167	0	56.60	0	8.9300	0	32.3650	0	25.067	0	56.116	0	233.2	4	81.4	4	-1E+10	1	-1E+10	1	-1E+10	1	-1E+10	1	-1E+10	1	-1E+10	1
4902663	26	C	04/18/2024	04:11	-126.763	48.167	0	57.60	0	8.8640	0	32.3800	0	25.089	0	57.108	0	228.8	4	79.7	4	-1E+10	1	-1E+10	1	-1E+10	1	-1E+10	1	-1E+10	1	-1E+10	1
4902663	26	C	04/18/2024	04:11	-126.763	48.167	0	58.50	0	8.8400	0	32.3960	0	25.106	0	58.000	0	224.8	4	78.3	4	-1E+10	1	-1E+10	1	-1E+10	1	-1E+10	1	-1E+10	1	-1E+10	1
4902663	26	C	04/18/2024	04:11	-126.763	48.167	0	59.90	0	8.9010	0	32.4660	0	25.151	0	59.388	0	219.3	4	76.5	4	-1E+10	1	-1E+10	1	-1E+10	1	-1E+10	1	-1E+10	1	-1E+10	1
4902663	26	C	04/18/2024	04:11	-126.763	48.167	0	61.40	0	8.9050	0	32.5370	0	25.206	0	60.875	0	214.6	4	75.0	4	-1E+10	1	-1E+10	1	-1E+10	1	-1E+10	1	-1E+10	1	-1E+10	1
4902663	26	C	04/18/2024	04:11	-126.763	48.167	0	62.30	0	8.9020	0	32.5660	0	25.229	0	61.767	0	211.1	4	73.8	4	-1E+10	1	-1E+10	1	-1E+10	1	-1E+10	1	-1E+10	1	-1E+10	1
4902663	26	C	04/18/2024	04:11	-126.763	48.167	0	63.30	0	8.8770	0	32.5790	0	25.243	0	62.758	0	207.1	4	72.3	4	-1E+10	1	-1E+10	1	-1E+10	1	-1E+10	1	-1E+10	1	-1E+10	1
4902663	26	C	04/18/2024	04:11	-126.763	48.167	0	64.20	0	8.8760	0	32.6390	0	25.290	0	63.650	0	203.1	4	71.0	4	-1E+10	1	-1E+10	1	-1E+10	1	-1E+10	1	-1E+10	1	-1E+10	1
4902663	26	C	04/18/2024	04:11	-126.763	48.167	0	65.10	0	8.7970	0	32.7320	0	25.375	0	64.543	0	200.5	4	70.0	4	-1E+10	1	-1E+10	1	-1E+10	1	-1E+10	1	-1E+10	1	-1E+10	1
4902663	26	C	04/18/2024	04:11	-126.763	48.167	0	66.00	0	8.7830	0	32.7540	0	25.395	0	65.435	0	198.0	4	69.1	4	-1E+10	1	-1E+10	1	-1E+10	1	-1E+10	1	-1E+10	1	-1E+10	1
4902663	26	C	04/18/2024	04:11	-126.763	48.167	0	67.00	0	8.7390	0	32.7730	0	25.416	0	66.426	0	195.5	4	68.2	4	-1E+10	1	-1E+10	1	-1E+10	1	-1E+10	1	-1E+10	1	-1E+10	1
4902663	26	C	04/18/2024	04:11	-126.763	48.167	0	67.90	0	8.7130	0	32.7840	0	25.429	0	67.318	0	192.1	4	66.9	4	-1E+10	1	-1E+10	1	-1E+10	1	-1E+10	1	-1E+10	1	-1E+10	1
4902663	26	C	04/18/2024	04:11	-126.763	48.167	0	68.90	0	8.6930	0	32.7950	0	25.441	0	68.309	0	187.9	4	65.5	4	-1E+10	1	-1E+10	1	-1E+10	1	-1E+10	1	-1E+10	1	-1E+10	1
4902663	26	C	04/18/2024	04:11	-126.763	48.167	0	70.00	0	8.6820	0	32.8150	0	25.458	0	69.400	0	183.4	4	63.9	4	-1E+10	1	-1E+10	1	-1E+10	1	-1E+10	1	-1E+10	1	-1E+10	1
4902663	26	C	04/18/2024	04:11	-126.763	48.167	0	71.10	0	8.6240	0	32.8640	0	25.505	0	70.490	0	179.3	4	62.4	4	-1E+10	1	-1E+10	1	-1E+10	1	-1E+10	1	-1E+10	1	-1E+10	1
4902663	26	C	04/18/2024	04:11	-126.763	48.167	0	71.80	0	8.5270	0	32.9250	0	25.568	0	71.184	0	177.4	4	61.6	4	-1E+10	1	-1E+10	1	-1E+10	1	-1E+10	1	-1E+10	1	-1E+10	1
4902663	26	C	04/18/2024	04:11	-126.763	48.167	0	72.80	0	8.4760	0	32.9620	0	25.604	0	72.175	0	174.7	4	60.6	4	-1E+10	1	-1E+10	1	-1E+10	1	-1E+10	1	-1E+10	1	-1E+10	1
4902663	26	C	04/18/2024	04:11	-126.763	48.167	0	74.00	0	8.4640	0	32.9820	0	25.622	0	73.365	0	171.8	4	59.6	4	-1E+10	1	-1E+10	1	-1E+10	1	-1E+10	1	-1E+10	1	-1E+10	1
4902663	26	C	04/18/2024	04:11	-126.763	48.167	0	74.80	0	8.4490	0	33.0030	0	25.641	0	74.158	0	169.6	4	58.9	4	-1E+10	1	-1E+10	1	-1E+10	1	-1E+10	1	-1E+10	1	-1E+10	1
4902663	26	C	04/18/2024	04:11	-126.763	48.167	0	76.00	0	8.3980	0	33.0430	0	25.680	0	75.347	0	166.2	4	57.6	4	-1E+10	1	-1E+10	1	-1E+10	1	-1E+10	1	-1E+10	1	-1E+10	1
4902663	26	C	04/18/2024	04:11	-126.763	48.167	0	77.30	0	8.3140	0	33.1100	0	25.745	0	76.636	0	163.3	4	56.5	4	-1E+10	1	-1E+10	1	-1E+10	1	-1E+10	1	-1E+10	1	-1E+10	1
4902663	26	C	04/18/2024	04:11	-126.763	48.167	0	78.10	0	8.2680	0	33.1340	0	25.770	0	77.429	0	162.0	4	56.1	4	-1E+10	1	-1E+10	1	-1E+10	1	-1E+10	1	-1E+10	1	-1E+10	1
4902663	26	C	04/18/2024	04:11	-126.763	48.167	0	79.00	0	8.2340	0	33.1590	0	25.795	0	78.321	0	160.4	4	55.4	4	-1E+10	1	-1E+10	1	-1E+10	1	-1E+10	1	-1E+10	1	-1E+10	1
4902663	26	C	04/18/2024	04:11	-126.763	48.167	0	79.90	0	8.2300	0	33.1970	0	25.826	0	79.213	0	159.0	4	55.0	4	-1E+10	1	-1E+10	1	-1E+10	1	-1E+10	1	-1E+10	1	-1E+10	1
4902663	26	C	04/18/2024	04:11	-126.763	48.167	0	80.90	0	8.2140	0	33.2070	0	25.836	0	80.204	0	158.0	4	54.6	4	-1E+10	1	-1E+10	1	-1E+10	1	-1E+10	1	-1E+10	1	-1E+10	1
4902663	26	C	04/18/2024	04:11	-126.763	48.167	0	81.80	0	8.2040	0	33.2110	0	25.840	0	81.096	0	156.8	4	54.2	4	-1E+10	1	-1E+10	1	-1E+10	1	-1E+10	1	-1E+10	1	-1E+10	1
4902663	26	C	04/18/2024	04:11	-126.763	48.167	0	82.70	0	8.2020	0	33.2150	0	25.844	0	81.988	0	155.6	4	53.8	4	-1E+10	1	-1E+10	1	-1E+10	1	-1E+10	1	-1E+10	1	-1E+10	1
4902663	26	C	04/18/2024	04:11	-126.763	48.167	0	83.70	0	8.2100	0	33.2220	0	25.848	0	82.980	0	158.3	4	54.7	4	-1E+10	1	-1E+10	1	-1E+10	1	-1E+10	1	-1E+10	1	-1E+10	1
4902663	26	C	04/18/2024	04:11	-126.763	48.167	0	84.60	0	8.2140	0	33.2610	0	25.878	0	83.872	0	156.9	4	54.3	4	-1E+10	1	-1E+10	1	-1E+10	1	-1E+10	1	-1E+10	1	-1E+10	1
4902663	26	C	04/18/2024	04:11	-126.763	48.167	0	85.50	0	8.1910	0	33.2960	0	25.909	0	84.764	0	155.9	4	53.9	4	-1E+10	1	-1E+10	1	-1E+10	1	-1E+10	1	-1E+10	1	-1E+10	1
4902663	26	C	04/18/2024	04:11	-126.763	48.167	0	86.90	0	8.1650	0	33.3110	0	25.925	0	86.151	0	154.6	4	53.4	4	-1E+10	1	-1E+10	1	-1E+10	1	-1E+10	1	-1E+10	1	-1E+10	1
4902663	26	C	04/18/2024	04:11	-126.763	48.167	0	88.00	0	8.1400	0	33.3270	0	25.941	0	87.242	0	152.8	4	52.8	4	-1E+10	1	-1E+10	1	-1E+10	1	-1E+10	1	-1E+10	1	-1E+10	1
4902663	26	C	04/18/2024	04:11	-126.763	48.167	0	89.00	0	8.1590	0	33.3660	0	25.969	0	88.233	0	150.7	4	52.1	4	-1E+10	1	-1E+10	1	-1E+10	1	-1E+10	1	-1E+10	1	-1E+10	1
4902663	26	C	04/18/2024	04:11	-126.763	48.167	0	90.20	0	8.1440	0	33.3840	0	25.985	0	89.422	0	148.6	4	51.4	4	-1E+10	1	-1E+10	1	-1E+10	1	-1E+10	1	-1E+10	1	-1E+10	1
4902663	26	C	04/18/2024	04:11	-126.763	48.167	0	91.00	0	8.2150	0	33.4210	0	26.004	0	90.215	0	147.1	4	50.9	4	-1E+10	1	-1E+10	1	-1E+10	1	-1E+10	1	-1E+10	1	-1E+10	1
4902663	26	C	04/18/2024	04:11	-126.763	48.167	0	91.80	0	8.3230	0	33.4790	0	26.033	0	91.008	0	145.8	4	50.6	4	-1E+10	1	-1E+10	1	-1E+10	1	-1E+10	1	-1E+10	1	-1E+10	1
4902663	26	C	04/18/2024	04:11	-126.763	48.167	0	92.70	0	8.2960	0	33.4850	0	26.042	0	91.900	0	144.8	4	50.3	4	-1E+10	1	-1E+10	1	-1E+10	1	-1E+10	1	-1E+10	1	-1E+10	1
4902663	26	C	04/18/2024	04:11	-126.763	48.167	0	93.60	0	8.3090	0	33.4920	0	26.045	0	92.792	0	143.9	4	49.9	4	-1E+10	1	-1E+10	1	-1E+10	1	-1E+10	1	-1E+10	1	-1E+10	1
4902663	26	C	04/18/2024	04:11	-126.763	48.167	0	94.90	0	8.2830	0	33.5040	0	26.059	0	94.081	0	142.4	4	49.4	4	-1E+10	1	-1E+10	1	-1E+10	1	-1E+10	1	-1E+10	1	-1E+10	1
4902663	26	C	04/18/2024	04:11	-126.763	48.167	0	96.40	0	8.3480	0	33.5480	0	26.084	0	95.567	0	140.9	4	49.0	4	-1E+10	1	-1E+10	1	-1E+10	1	-1E+10	1	-1E+10	1	-1E+10	1
4902663	26	C	04/18/2024	04:11	-126.763	48.167	0	97.30	0	8.3900	0	33.5630	0	26.089	0	96.459	0	140.1	4	48.7	4	-1E+10	1	-1E+10	1	-1E+10	1	-1E+10	1	-1E+10	1	-1E+10	1
4902663	26	C	04/18/2024	04:11	-126.763	48.167	0	98.20	0	8.4600	0	33.5750	0	26.088	0	97.351	0	139.2	4	48.5	4	-1E+10	1	-1E+10	1	-1E+10	1	-1E+10	1	-1E+10	1	-1E+10	1
4902663	26	C	04/18/2024	04:11	-126.763	48.167	0	99.20	0	8.4350	0	33.5830	0	26.098	0	98.342	0	138.4	4	48.2	4	-1E+10	1	-1E+10	1	-1E+10	1	-1E+10	1	-1E+10	1	-1E+10	1
4902663	26	C	04/18/2024	04:11	-126.763	48.167	0	100.10	0	8.4060	0	33.5850	0	26.104	0	99.234	0	137.7	4	47.9	4	-1E+10	1	-1E+10	1	-1E+10	1	-1E+10	1	-1E+10	1	-1E+10	1
4902663	26	C	04/18/2024	04:11	-126.763	48.167	0	101.10	0	8.4130	0	33.5960	0	26.111	0	100.226	0	136.9	4	47.7	4	-1E+10	1	-1E+10	1	-1E+10	1	-1E+10	1	-1E+10	1	-1E+10	1
4902663	26	C	04/18/2024	04:11	-126.763	48.167	0	102.10	0	8.4210	0	33.6250	0	26.133	0	101.217	0	136.2	4	47.4	4	-1E+10	1	-1E+10	1	-1E+10	1	-1E+10	1	-1E+10	1	-1E+10	1
4902663	26	C	04/18/2024	04:11	-126.763	48.167	0	103.10	0	8.4280	0	33.6440	0	26.147	0	102.208	0	135.4	4	47.2	4	-1E+10	1	-1E+10	1	-1E+10	1	-1E+10	1	-1E+10	1	-1E+10	1
4902663	26	C	04/18/2024	04:11	-126.763	48.167	0	104.10	0	8.4220	0	33.6420	0	26.146	0	103.199	0	134.7	4	46.9	4	-1E+10	1	-1E+10	1	-1E+10	1	-1E+10	1	-1E+10	1	-1E+10	1
4902663	26	C	04/18/2024	04:11	-126.763	48.167	0	105.10	0	8.4050	0	33.6430	0	26.150	0	104.190	0	133.9	4	46.6	4	-1E+10	1	-1E+10	1	-1E+10	1	-1E+10	1	-1E+10	1	-1E+10	1
4902663	26	C	04/18/2024	04:11	-126.763	48.167	0	106.10	0	8.3970	0	33.6420	0	26.150	0	105.181	0	133.0	4	46.3	4	-1E+10	1	-1E+10	1	-1E+10	1	-1E+10	1	-1E+10	1	-1E+10	1
4902663	26	C	04/18/2024	04:11	-126.763	48.167	0	107.10	0	8.3970	0	33.6580	0	26.163	0	106.172	0	131.8	4	45.9	4	-1E+10	1	-1E+10	1	-1E+10	1	-1E+10	1	-1E+10	1	-1E+10	1
4902663	26	C	04/18/2024	04:11	-126.763	48.167	0	108.10	0	8.4050	0	33.6750	0	26.175	0	107.163	0	130.8	4	45.6	4	-1E+10	1	-1E+10	1	-1E+10	1	-1E+10	1	-1E+10	1	-1E+10	1
4902663	26	C	04/18/2024	04:11	-126.763	48.167	0	109.10	0	8.4080	0	33.6840	0	26.181	0	108.154	0	129.9	4	45.2	4	-1E+10	1	-1E+10	1	-1E+10	1	-1E+10	1	-1E+10	1	-1E+10	1
4902663	26	C	04/18/2024	04:11	-126.763	48.167	0	110.10	0	8.4070	0	33.6910	0	26.187	0	109.145	0	129.0	4	44.9	4	-1E+10	1	-1E+10	1	-1E+10	1	-1E+10	1	-1E+10	1	-1E+10	1
4902663	26	C	04/18/2024	04:11	-126.763	48.167	0	111.10	0	8.3940	0	33.7050	0	26.200	0	110.136	0	128.1	4	44.6	4	-1E+10	1	-1E+10	1	-1E+10	1	-1E+10	1	-1E+10	1	-1E+10	1
4902663	26	C	04/18/2024	04:11	-126.763	48.167	0	112.10	0	8.3850	0	33.7070	0	26.203	0	111.127	0	127.1	4	44.3	4	-1E+10	1	-1E+10	1	-1E+10	1	-1E+10	1	-1E+10	1	-1E+10	1
4902663	26	C	04/18/2024	04:11	-126.763	48.167	0	113.10	0	8.3650	0	33.7290	0	26.223	0	112.118	0	126.2	4	43.9	4	-1E+10	1	-1E+10	1	-1E+10	1	-1E+10	1	-1E+10	1	-1E+10	1
4902663	26	C	04/18/2024	04:11	-126.763	48.167	0	114.10	0	8.3410	0	33.7450	0	26.239	0	113.110	0	125.8	4	43.8	4	-1E+10	1	-1E+10	1	-1E+10	1	-1E+10	1	-1E+10	1	-1E+10	1
4902663	26	C	04/18/2024	04:11	-126.763	48.167	0	115.10	0	8.3380	0	33.7480	0	26.242	0	114.101	0	125.3	4	43.6	4	-1E+10	1	-1E+10	1	-1E+10	1	-1E+10	1	-1E+10	1	-1E+10	1
4902663	26	C	04/18/2024	04:11	-126.763	48.167	0	116.20	0	8.3390	0	33.7500	0	26.244	0	115.191	0	124.9	4	43.5	4	-1E+10	1	-1E+10	1	-1E+10	1	-1E+10	1	-1E+10	1	-1E+10	1
4902663	26	C	04/18/2024	04:11	-126.763	48.167	0	117.20	0	8.3320	0	33.7540	0	26.248	0	116.182	0	124.5	4	43.3	4	-1E+10	1	-1E+10	1	-1E+10	1	-1E+10	1	-1E+10	1	-1E+10	1
4902663	26	C	04/18/2024	04:11	-126.763	48.167	0	118.20	0	8.3250	0	33.7580	0	26.252	0	117.173	0	124.2	4	43.2	4	-1E+10	1	-1E+10	1	-1E+10	1	-1E+10	1	-1E+10	1	-1E+10	1
4902663	26	C	04/18/2024	04:11	-126.763	48.167	0	119.20	0	8.3160	0	33.7630	0	26.257	0	118.164	0	123.9	4	43.1	4	-1E+10	1	-1E+10	1	-1E+10	1	-1E+10	1	-1E+10	1	-1E+10	1
4902663	26	C	04/18/2024	04:11	-126.763	48.167	0	120.20	0	8.3100	0	33.7650	0	26.260	0	119.155	0	123.6	4	43.0	4	-1E+10	1	-1E+10	1	-1E+10	1	-1E+10	1	-1E+10	1	-1E+10	1
4902663	26	C	04/18/2024	04:11	-126.763	48.167	0	121.20	0	8.3040	0	33.7680	0	26.263	0	120.146	0	123.3	4	42.9	4	-1E+10	1	-1E+10	1	-1E+10	1	-1E+10	1	-1E+10	1	-1E+10	1
4902663	26	C	04/18/2024	04:11	-126.763	48.167	0	122.30	0	8.2980	0	33.7690	0	26.265	0	121.236	0	123.0	4	42.8	4	-1E+10	1	-1E+10	1	-1E+10	1	-1E+10	1	-1E+10	1	-1E+10	1
4902663	26	C	04/18/2024	04:11	-126.763	48.167	0	123.30	0	8.2950	0	33.7700	0	26.266	0	122.227	0	122.6	4	42.6	4	-1E+10	1	-1E+10	1	-1E+10	1	-1E+10	1	-1E+10	1	-1E+10	1
4902663	26	C	04/18/2024	04:11	-126.763	48.167	0	124.30	0	8.2930	0	33.7710	0	26.267	0	123.218	0	122.1	4	42.5	4	-1E+10	1	-1E+10	1	-1E+10	1	-1E+10	1	-1E+10	1	-1E+10	1
4902663	26	C	04/18/2024	04:11	-126.763	48.167	0	125.20	0	8.2880	0	33.7730	0	26.269	0	124.110	0	121.7	4	42.3	4	-1E+10	1	-1E+10	1	-1E+10	1	-1E+10	1	-1E+10	1	-1E+10	1
4902663	26	C	04/18/2024	04:11	-126.763	48.167	0	126.20	0	8.2830	0	33.7730	0	26.270	0	125.101	0	121.1	4	42.1	4	-1E+10	1	-1E+10	1	-1E+10	1	-1E+10	1	-1E+10	1	-1E+10	1
4902663	26	C	04/18/2024	04:11	-126.763	48.167	0	127.20	0	8.2210	0	33.7950	0	26.297	0	126.092	0	120.6	4	41.9	4	-1E+10	1	-1E+10	1	-1E+10	1	-1E+10	1	-1E+10	1	-1E+10	1
4902663	26	C	04/18/2024	04:11	-126.763	48.167	0	128.20	0	8.2050	0	33.8040	0	26.306	0	127.083	0	120.4	4	41.8	4	-1E+10	1	-1E+10	1	-1E+10	1	-1E+10	1	-1E+10	1	-1E+10	1
4902663	26	C	04/18/2024	04:11	-126.763	48.167	0	129.20	0	8.2050	0	33.8070	0	26.309	0	128.074	0	120.2	4	41.7	4	-1E+10	1	-1E+10	1	-1E+10	1	-1E+10	1	-1E+10	1	-1E+10	1
4902663	26	C	04/18/2024	04:11	-126.763	48.167	0	130.20	0	8.1920	0	33.8090	0	26.312	0	129.065	0	120.1	4	41.7	4	-1E+10	1	-1E+10	1	-1E+10	1	-1E+10	1	-1E+10	1	-1E+10	1
4902663	26	C	04/18/2024	04:11	-126.763	48.167	0	131.10	0	8.1830	0	33.8060	0	26.311	0	129.957	0	120.0	4	41.6	4	-1E+10	1	-1E+10	1	-1E+10	1	-1E+10	1	-1E+10	1	-1E+10	1
4902663	26	C	04/18/2024	04:11	-126.763	48.167	0	132.10	0	8.1570	0	33.8120	0	26.320	0	130.948	0	119.7	4	41.5	4	-1E+10	1	-1E+10	1	-1E+10	1	-1E+10	1	-1E+10	1	-1E+10	1
4902663	26	C	04/18/2024	04:11	-126.763	48.167	0	133.10	0	8.1500	0	33.8120	0	26.321	0	131.939	0	119.4	4	41.4	4	-1E+10	1	-1E+10	1	-1E+10	1	-1E+10	1	-1E+10	1	-1E+10	1
4902663	26	C	04/18/2024	04:11	-126.763	48.167	0	134.10	0	8.1470	0	33.8120	0	26.321	0	132.929	0	119.1	4	41.3	4	-1E+10	1	-1E+10	1	-1E+10	1	-1E+10	1	-1E+10	1	-1E+10	1
4902663	26	C	04/18/2024	04:11	-126.763	48.167	0	135.00	0	8.1460	0	33.8130	0	26.322	0	133.821	0	118.7	4	41.2	4	-1E+10	1	-1E+10	1	-1E+10	1	-1E+10	1	-1E+10	1	-1E+10	1
4902663	26	C	04/18/2024	04:11	-126.763	48.167	0	136.00	0	8.1460	0	33.8160	0	26.325	0	134.812	0	118.3	4	41.0	4	-1E+10	1	-1E+10	1	-1E+10	1	-1E+10	1	-1E+10	1	-1E+10	1
4902663	26	C	04/18/2024	04:11	-126.763	48.167	0	137.00	0	8.1440	0	33.8200	0	26.328	0	135.803	0	118.0	4	40.9	4	-1E+10	1	-1E+10	1	-1E+10	1	-1E+10	1	-1E+10	1	-1E+10	1
4902663	26	C	04/18/2024	04:11	-126.763	48.167	0	137.90	0	8.1320	0	33.8240	0	26.333	0	136.695	0	117.9	4	40.8	4	-1E+10	1	-1E+10	1	-1E+10	1	-1E+10	1	-1E+10	1	-1E+10	1
4902663	26	C	04/18/2024	04:11	-126.763	48.167	0	138.80	0	8.1280	0	33.8250	0	26.334	0	137.587	0	117.7	4	40.8	4	-1E+10	1	-1E+10	1	-1E+10	1	-1E+10	1	-1E+10	1	-1E+10	1
4902663	26	C	04/18/2024	04:11	-126.763	48.167	0	139.70	0	8.1250	0	33.8270	0	26.336	0	138.479	0	117.5	4	40.7	4	-1E+10	1	-1E+10	1	-1E+10	1	-1E+10	1	-1E+10	1	-1E+10	1
4902663	26	C	04/18/2024	04:11	-126.763	48.167	0	140.70	0	8.1120	0	33.8310	0	26.342	0	139.470	0	117.3	4	40.6	4	-1E+10	1	-1E+10	1	-1E+10	1	-1E+10	1	-1E+10	1	-1E+10	1
4902663	26	C	04/18/2024	04:11	-126.763	48.167	0	141.70	0	8.0580	0	33.8400	0	26.357	0	140.461	0	117.1	4	40.5	4	-1E+10	1	-1E+10	1	-1E+10	1	-1E+10	1	-1E+10	1	-1E+10	1
4902663	26	C	04/18/2024	04:11	-126.763	48.167	0	142.60	0	8.0070	0	33.8370	0	26.362	0	141.352	0	116.9	4	40.4	4	-1E+10	1	-1E+10	1	-1E+10	1	-1E+10	1	-1E+10	1	-1E+10	1
4902663	26	C	04/18/2024	04:11	-126.763	48.167	0	143.60	0	7.9820	0	33.8410	0	26.369	0	142.343	0	116.6	4	40.3	4	-1E+10	1	-1E+10	1	-1E+10	1	-1E+10	1	-1E+10	1	-1E+10	1
4902663	26	C	04/18/2024	04:11	-126.763	48.167	0	144.60	0	7.9710	0	33.8450	0	26.373	0	143.334	0	116.4	4	40.2	4	-1E+10	1	-1E+10	1	-1E+10	1	-1E+10	1	-1E+10	1	-1E+10	1
4902663	26	C	04/18/2024	04:11	-126.763	48.167	0	145.50	0	7.9600	0	33.8480	0	26.377	0	144.226	0	116.2	4	40.1	4	-1E+10	1	-1E+10	1	-1E+10	1	-1E+10	1	-1E+10	1	-1E+10	1
4902663	26	C	04/18/2024	04:11	-126.763	48.167	0	146.50	0	7.9480	0	33.8500	0	26.381	0	145.217	0	116.1	4	40.1	4	-1E+10	1	-1E+10	1	-1E+10	1	-1E+10	1	-1E+10	1	-1E+10	1
4902663	26	C	04/18/2024	04:11	-126.763	48.167	0	147.90	0	7.9340	0	33.8490	0	26.382	0	146.604	0	115.8	4	40.0	4	-1E+10	1	-1E+10	1	-1E+10	1	-1E+10	1	-1E+10	1	-1E+10	1
4902663	26	C	04/18/2024	04:11	-126.763	48.167	0	149.40	0	7.8820	0	33.8550	0	26.394	0	148.090	0	115.6	4	39.9	4	-1E+10	1	-1E+10	1	-1E+10	1	-1E+10	1	-1E+10	1	-1E+10	1
4902663	26	C	04/18/2024	04:11	-126.763	48.167	0	150.40	0	7.8510	0	33.8550	0	26.399	0	149.081	0	115.5	4	39.8	4	-1E+10	1	-1E+10	1	-1E+10	1	-1E+10	1	-1E+10	1	-1E+10	1
4902663	26	C	04/18/2024	04:11	-126.763	48.167	0	151.40	0	7.8270	0	33.8530	0	26.401	0	150.072	0	115.4	4	39.7	4	-1E+10	1	-1E+10	1	-1E+10	1	-1E+10	1	-1E+10	1	-1E+10	1
4902663	26	C	04/18/2024	04:11	-126.763	48.167	0	152.40	0	7.7900	0	33.8570	0	26.409	0	151.063	0	115.3	4	39.7	4	-1E+10	1	-1E+10	1	-1E+10	1	-1E+10	1	-1E+10	1	-1E+10	1
4902663	26	C	04/18/2024	04:11	-126.763	48.167	0	153.40	0	7.7840	0	33.8540	0	26.408	0	152.054	0	115.3	4	39.6	4	-1E+10	1	-1E+10	1	-1E+10	1	-1E+10	1	-1E+10	1	-1E+10	1
4902663	26	C	04/18/2024	04:11	-126.763	48.167	0	154.30	0	7.7780	0	33.8540	0	26.409	0	152.946	0	115.2	4	39.6	4	-1E+10	1	-1E+10	1	-1E+10	1	-1E+10	1	-1E+10	1	-1E+10	1
4902663	26	C	04/18/2024	04:11	-126.763	48.167	0	155.30	0	7.7750	0	33.8530	0	26.408	0	153.937	0	115.1	4	39.6	4	-1E+10	1	-1E+10	1	-1E+10	1	-1E+10	1	-1E+10	1	-1E+10	1
4902663	26	C	04/18/2024	04:11	-126.763	48.167	0	156.40	0	7.7670	0	33.8530	0	26.410	0	155.026	0	115.0	4	39.5	4	-1E+10	1	-1E+10	1	-1E+10	1	-1E+10	1	-1E+10	1	-1E+10	1
4902663	26	C	04/18/2024	04:11	-126.763	48.167	0	157.40	0	7.7430	0	33.8560	0	26.415	0	156.017	0	114.8	4	39.5	4	-1E+10	1	-1E+10	1	-1E+10	1	-1E+10	1	-1E+10	1	-1E+10	1
4902663	26	C	04/18/2024	04:11	-126.763	48.167	0	158.40	0	7.7290	0	33.8500	0	26.413	0	157.008	0	114.7	4	39.4	4	-1E+10	1	-1E+10	1	-1E+10	1	-1E+10	1	-1E+10	1	-1E+10	1
4902663	26	C	04/18/2024	04:11	-126.763	48.167	0	159.40	0	7.7160	0	33.8500	0	26.415	0	157.999	0	114.5	4	39.3	4	-1E+10	1	-1E+10	1	-1E+10	1	-1E+10	1	-1E+10	1	-1E+10	1
4902663	26	C	04/18/2024	04:11	-126.763	48.167	0	160.40	0	7.7150	0	33.8450	0	26.411	0	158.990	0	114.3	4	39.2	4	-1E+10	1	-1E+10	1	-1E+10	1	-1E+10	1	-1E+10	1	-1E+10	1
4902663	26	C	04/18/2024	04:11	-126.763	48.167	0	161.40	0	7.7100	0	33.8470	0	26.413	0	159.981	0	114.0	4	39.1	4	-1E+10	1	-1E+10	1	-1E+10	1	-1E+10	1	-1E+10	1	-1E+10	1
4902663	26	C	04/18/2024	04:11	-126.763	48.167	0	162.40	0	7.7050	0	33.8450	0	26.412	0	160.971	0	113.6	4	39.0	4	-1E+10	1	-1E+10	1	-1E+10	1	-1E+10	1	-1E+10	1	-1E+10	1
4902663	26	C	04/18/2024	04:11	-126.763	48.167	0	163.40	0	7.6880	0	33.8520	0	26.420	0	161.962	0	113.1	4	38.8	4	-1E+10	1	-1E+10	1	-1E+10	1	-1E+10	1	-1E+10	1	-1E+10	1
4902663	26	C	04/18/2024	04:11	-126.763	48.167	0	164.40	0	7.6610	0	33.8480	0	26.421	0	162.953	0	112.7	4	38.6	4	-1E+10	1	-1E+10	1	-1E+10	1	-1E+10	1	-1E+10	1	-1E+10	1
4902663	26	C	04/18/2024	04:11	-126.763	48.167	0	165.40	0	7.6510	0	33.8520	0	26.426	0	163.944	0	112.2	4	38.5	4	-1E+10	1	-1E+10	1	-1E+10	1	-1E+10	1	-1E+10	1	-1E+10	1
4902663	26	C	04/18/2024	04:11	-126.763	48.167	0	166.40	0	7.6230	0	33.8540	0	26.431	0	164.935	0	111.7	4	38.3	4	-1E+10	1	-1E+10	1	-1E+10	1	-1E+10	1	-1E+10	1	-1E+10	1
4902663	26	C	04/18/2024	04:11	-126.763	48.167	0	167.50	0	7.6010	0	33.8570	0	26.437	0	166.025	0	111.2	4	38.1	4	-1E+10	1	-1E+10	1	-1E+10	1	-1E+10	1	-1E+10	1	-1E+10	1
4902663	26	C	04/18/2024	04:11	-126.763	48.167	0	168.50	0	7.5910	0	33.8590	0	26.440	0	167.015	0	110.7	4	37.9	4	-1E+10	1	-1E+10	1	-1E+10	1	-1E+10	1	-1E+10	1	-1E+10	1
4902663	26	C	04/18/2024	04:11	-126.763	48.167	0	169.60	0	7.6000	0	33.8670	0	26.445	0	168.105	0	110.2	4	37.7	4	-1E+10	1	-1E+10	1	-1E+10	1	-1E+10	1	-1E+10	1	-1E+10	1
4902663	26	C	04/18/2024	04:11	-126.763	48.167	0	170.60	0	7.5930	0	33.8670	0	26.446	0	169.096	0	109.6	4	37.6	4	-1E+10	1	-1E+10	1	-1E+10	1	-1E+10	1	-1E+10	1	-1E+10	1
4902663	26	C	04/18/2024	04:11	-126.763	48.167	0	171.60	0	7.5700	0	33.8650	0	26.448	0	170.087	0	109.1	4	37.4	4	-1E+10	1	-1E+10	1	-1E+10	1	-1E+10	1	-1E+10	1	-1E+10	1
4902663	26	C	04/18/2024	04:11	-126.763	48.167	0	172.70	0	7.5850	0	33.8690	0	26.449	0	171.177	0	108.6	4	37.2	4	-1E+10	1	-1E+10	1	-1E+10	1	-1E+10	1	-1E+10	1	-1E+10	1
4902663	26	C	04/18/2024	04:11	-126.763	48.167	0	173.80	0	7.5930	0	33.8820	0	26.458	0	172.266	0	107.9	4	37.0	4	-1E+10	1	-1E+10	1	-1E+10	1	-1E+10	1	-1E+10	1	-1E+10	1
4902663	26	C	04/18/2024	04:11	-126.763	48.167	0	174.80	0	7.5780	0	33.8900	0	26.466	0	173.257	0	107.1	4	36.7	4	-1E+10	1	-1E+10	1	-1E+10	1	-1E+10	1	-1E+10	1	-1E+10	1
4902663	26	C	04/18/2024	04:11	-126.763	48.167	0	175.90	0	7.5590	0	33.8900	0	26.469	0	174.347	0	106.3	4	36.4	4	-1E+10	1	-1E+10	1	-1E+10	1	-1E+10	1	-1E+10	1	-1E+10	1
4902663	26	C	04/18/2024	04:11	-126.763	48.167	0	177.00	0	7.5600	0	33.8940	0	26.472	0	175.437	0	105.4	4	36.1	4	-1E+10	1	-1E+10	1	-1E+10	1	-1E+10	1	-1E+10	1	-1E+10	1
4902663	26	C	04/18/2024	04:11	-126.763	48.167	0	178.10	0	7.5500	0	33.8950	0	26.474	0	176.527	0	104.3	4	35.7	4	-1E+10	1	-1E+10	1	-1E+10	1	-1E+10	1	-1E+10	1	-1E+10	1
4902663	26	C	04/18/2024	04:11	-126.763	48.167	0	179.10	0	7.5390	0	33.8960	0	26.476	0	177.517	0	103.1	4	35.3	4	-1E+10	1	-1E+10	1	-1E+10	1	-1E+10	1	-1E+10	1	-1E+10	1
4902663	26	C	04/18/2024	04:11	-126.763	48.167	0	180.20	0	7.5210	0	33.9010	0	26.483	0	178.607	0	101.9	4	34.9	4	-1E+10	1	-1E+10	1	-1E+10	1	-1E+10	1	-1E+10	1	-1E+10	1
4902663	26	C	04/18/2024	04:11	-126.763	48.167	0	181.30	0	7.5230	0	33.9060	0	26.487	0	179.697	0	100.8	4	34.5	4	-1E+10	1	-1E+10	1	-1E+10	1	-1E+10	1	-1E+10	1	-1E+10	1
4902663	26	C	04/18/2024	04:11	-126.763	48.167	0	182.30	0	7.5030	0	33.9070	0	26.490	0	180.688	0	99.6	4	34.1	4	-1E+10	1	-1E+10	1	-1E+10	1	-1E+10	1	-1E+10	1	-1E+10	1
4902663	26	C	04/18/2024	04:11	-126.763	48.167	0	183.40	0	7.4910	0	33.9080	0	26.493	0	181.777	0	98.3	4	33.6	4	-1E+10	1	-1E+10	1	-1E+10	1	-1E+10	1	-1E+10	1	-1E+10	1
4902663	26	C	04/18/2024	04:11	-126.763	48.167	0	184.50	0	7.4730	0	33.9130	0	26.499	0	182.867	0	97.0	4	33.2	4	-1E+10	1	-1E+10	1	-1E+10	1	-1E+10	1	-1E+10	1	-1E+10	1
4902663	26	C	04/18/2024	04:11	-126.763	48.167	0	185.60	0	7.4700	0	33.9170	0	26.503	0	183.957	0	96.1	4	32.8	4	-1E+10	1	-1E+10	1	-1E+10	1	-1E+10	1	-1E+10	1	-1E+10	1
4902663	26	C	04/18/2024	04:11	-126.763	48.167	0	186.60	0	7.4670	0	33.9180	0	26.504	0	184.948	0	95.3	4	32.6	4	-1E+10	1	-1E+10	1	-1E+10	1	-1E+10	1	-1E+10	1	-1E+10	1
4902663	26	C	04/18/2024	04:11	-126.763	48.167	0	187.70	0	7.4570	0	33.9220	0	26.509	0	186.037	0	94.8	4	32.4	4	-1E+10	1	-1E+10	1	-1E+10	1	-1E+10	1	-1E+10	1	-1E+10	1
4902663	26	C	04/18/2024	04:11	-126.763	48.167	0	188.70	0	7.4490	0	33.9220	0	26.510	0	187.028	0	94.3	4	32.2	4	-1E+10	1	-1E+10	1	-1E+10	1	-1E+10	1	-1E+10	1	-1E+10	1
4902663	26	C	04/18/2024	04:11	-126.763	48.167	0	189.80	0	7.4350	0	33.9240	0	26.513	0	188.118	0	93.8	4	32.0	4	-1E+10	1	-1E+10	1	-1E+10	1	-1E+10	1	-1E+10	1	-1E+10	1
4902663	26	C	04/18/2024	04:11	-126.763	48.167	0	190.80	0	7.4000	0	33.9250	0	26.519	0	189.109	0	93.4	4	31.9	4	-1E+10	1	-1E+10	1	-1E+10	1	-1E+10	1	-1E+10	1	-1E+10	1
4902663	26	C	04/18/2024	04:11	-126.763	48.167	0	191.90	0	7.3610	0	33.9280	0	26.527	0	190.198	0	93.1	4	31.7	4	-1E+10	1	-1E+10	1	-1E+10	1	-1E+10	1	-1E+10	1	-1E+10	1
4902663	26	C	04/18/2024	04:11	-126.763	48.167	0	192.90	0	7.3300	0	33.9290	0	26.532	0	191.189	0	92.9	4	31.6	4	-1E+10	1	-1E+10	1	-1E+10	1	-1E+10	1	-1E+10	1	-1E+10	1
4902663	26	C	04/18/2024	04:11	-126.763	48.167	0	193.90	0	7.3250	0	33.9300	0	26.534	0	192.180	0	92.6	4	31.5	4	-1E+10	1	-1E+10	1	-1E+10	1	-1E+10	1	-1E+10	1	-1E+10	1
4902663	26	C	04/18/2024	04:11	-126.763	48.167	0	195.00	0	7.3110	0	33.9310	0	26.536	0	193.269	0	92.3	4	31.4	4	-1E+10	1	-1E+10	1	-1E+10	1	-1E+10	1	-1E+10	1	-1E+10	1
4902663	26	C	04/18/2024	04:11	-126.763	48.167	0	196.00	0	7.2880	0	33.9330	0	26.541	0	194.260	0	92.1	4	31.3	4	-1E+10	1	-1E+10	1	-1E+10	1	-1E+10	1	-1E+10	1	-1E+10	1
4902663	26	C	04/18/2024	04:11	-126.763	48.167	0	197.00	0	7.2790	0	33.9330	0	26.542	0	195.251	0	91.9	4	31.3	4	-1E+10	1	-1E+10	1	-1E+10	1	-1E+10	1	-1E+10	1	-1E+10	1
4902663	26	C	04/18/2024	04:11	-126.763	48.167	0	198.10	0	7.2720	0	33.9340	0	26.544	0	196.340	0	91.6	4	31.1	4	-1E+10	1	-1E+10	1	-1E+10	1	-1E+10	1	-1E+10	1	-1E+10	1
4902663	26	C	04/18/2024	04:11	-126.763	48.167	0	199.10	0	7.2550	0	33.9360	0	26.548	0	197.331	0	91.3	4	31.0	4	-1E+10	1	-1E+10	1	-1E+10	1	-1E+10	1	-1E+10	1	-1E+10	1
4902663	26	C	04/18/2024	04:11	-126.763	48.167	0	200.10	0	7.2510	0	33.9360	0	26.549	0	198.322	0	91.0	4	31.0	4	-1E+10	1	-1E+10	1	-1E+10	1	-1E+10	1	-1E+10	1	-1E+10	1
4902663	26	C	04/18/2024	04:11	-126.763	48.167	0	201.20	0	7.2470	0	33.9370	0	26.550	0	199.411	0	90.7	4	30.9	4	-1E+10	1	-1E+10	1	-1E+10	1	-1E+10	1	-1E+10	1	-1E+10	1
4902663	26	C	04/18/2024	04:11	-126.763	48.167	0	202.20	0	7.2450	0	33.9370	0	26.550	0	200.402	0	90.4	4	30.7	4	-1E+10	1	-1E+10	1	-1E+10	1	-1E+10	1	-1E+10	1	-1E+10	1
4902663	26	C	04/18/2024	04:11	-126.763	48.167	0	203.20	0	7.2430	0	33.9380	0	26.551	0	201.393	0	90.0	4	30.6	4	-1E+10	1	-1E+10	1	-1E+10	1	-1E+10	1	-1E+10	1	-1E+10	1
4902663	26	C	04/18/2024	04:11	-126.763	48.167	0	204.30	0	7.2490	0	33.9430	0	26.555	0	202.482	0	89.6	4	30.5	4	-1E+10	1	-1E+10	1	-1E+10	1	-1E+10	1	-1E+10	1	-1E+10	1
4902663	26	C	04/18/2024	04:11	-126.763	48.167	0	205.30	0	7.2690	0	33.9480	0	26.556	0	203.473	0	89.2	4	30.4	4	-1E+10	1	-1E+10	1	-1E+10	1	-1E+10	1	-1E+10	1	-1E+10	1
4902663	26	C	04/18/2024	04:11	-126.763	48.167	0	206.30	0	7.2730	0	33.9530	0	26.559	0	204.464	0	89.0	4	30.3	4	-1E+10	1	-1E+10	1	-1E+10	1	-1E+10	1	-1E+10	1	-1E+10	1
4902663	26	C	04/18/2024	04:11	-126.763	48.167	0	207.30	0	7.2690	0	33.9540	0	26.561	0	205.454	0	88.8	4	30.2	4	-1E+10	1	-1E+10	1	-1E+10	1	-1E+10	1	-1E+10	1	-1E+10	1
4902663	26	C	04/18/2024	04:11	-126.763	48.167	0	208.30	0	7.2650	0	33.9540	0	26.561	0	206.445	0	88.6	4	30.1	4	-1E+10	1	-1E+10	1	-1E+10	1	-1E+10	1	-1E+10	1	-1E+10	1
4902663	26	C	04/18/2024	04:11	-126.763	48.167	0	209.30	0	7.2610	0	33.9540	0	26.562	0	207.435	0	88.4	4	30.1	4	-1E+10	1	-1E+10	1	-1E+10	1	-1E+10	1	-1E+10	1	-1E+10	1
4902663	26	C	04/18/2024	04:11	-126.763	48.167	0	210.40	0	7.2530	0	33.9550	0	26.564	0	208.525	0	88.2	4	30.0	4	-1E+10	1	-1E+10	1	-1E+10	1	-1E+10	1	-1E+10	1	-1E+10	1
4902663	26	C	04/18/2024	04:11	-126.763	48.167	0	211.30	0	7.2350	0	33.9550	0	26.566	0	209.417	0	87.9	4	29.9	4	-1E+10	1	-1E+10	1	-1E+10	1	-1E+10	1	-1E+10	1	-1E+10	1
4902663	26	C	04/18/2024	04:11	-126.763	48.167	0	212.40	0	7.2250	0	33.9550	0	26.568	0	210.506	0	87.5	4	29.7	4	-1E+10	1	-1E+10	1	-1E+10	1	-1E+10	1	-1E+10	1	-1E+10	1
4902663	26	C	04/18/2024	04:11	-126.763	48.167	0	213.30	0	7.2190	0	33.9550	0	26.568	0	211.398	0	87.2	4	29.6	4	-1E+10	1	-1E+10	1	-1E+10	1	-1E+10	1	-1E+10	1	-1E+10	1
4902663	26	C	04/18/2024	04:11	-126.763	48.167	0	214.30	0	7.2150	0	33.9540	0	26.568	0	212.388	0	86.7	4	29.5	4	-1E+10	1	-1E+10	1	-1E+10	1	-1E+10	1	-1E+10	1	-1E+10	1
4902663	26	C	04/18/2024	04:11	-126.763	48.167	0	215.30	0	7.1910	0	33.9570	0	26.574	0	213.379	0	86.4	4	29.3	4	-1E+10	1	-1E+10	1	-1E+10	1	-1E+10	1	-1E+10	1	-1E+10	1
4902663	26	C	04/18/2024	04:11	-126.763	48.167	0	216.30	0	7.1740	0	33.9590	0	26.578	0	214.369	0	86.1	4	29.2	4	-1E+10	1	-1E+10	1	-1E+10	1	-1E+10	1	-1E+10	1	-1E+10	1
4902663	26	C	04/18/2024	04:11	-126.763	48.167	0	217.20	0	7.1580	0	33.9600	0	26.581	0	215.261	0	86.0	4	29.2	4	-1E+10	1	-1E+10	1	-1E+10	1	-1E+10	1	-1E+10	1	-1E+10	1
4902663	26	C	04/18/2024	04:11	-126.763	48.167	0	218.20	0	7.1510	0	33.9600	0	26.582	0	216.251	0	85.9	4	29.1	4	-1E+10	1	-1E+10	1	-1E+10	1	-1E+10	1	-1E+10	1	-1E+10	1
4902663	26	C	04/18/2024	04:11	-126.763	48.167	0	219.10	0	7.1380	0	33.9610	0	26.584	0	217.143	0	85.7	4	29.1	4	-1E+10	1	-1E+10	1	-1E+10	1	-1E+10	1	-1E+10	1	-1E+10	1
4902663	26	C	04/18/2024	04:11	-126.763	48.167	0	220.10	0	7.1270	0	33.9610	0	26.586	0	218.133	0	85.6	4	29.0	4	-1E+10	1	-1E+10	1	-1E+10	1	-1E+10	1	-1E+10	1	-1E+10	1
4902663	26	C	04/18/2024	04:11	-126.763	48.167	0	221.10	0	7.1170	0	33.9590	0	26.586	0	219.124	0	85.4	4	29.0	4	-1E+10	1	-1E+10	1	-1E+10	1	-1E+10	1	-1E+10	1	-1E+10	1
4902663	26	C	04/18/2024	04:11	-126.763	48.167	0	222.00	0	7.1030	0	33.9610	0	26.589	0	220.015	0	85.2	4	28.9	4	-1E+10	1	-1E+10	1	-1E+10	1	-1E+10	1	-1E+10	1	-1E+10	1
4902663	26	C	04/18/2024	04:11	-126.763	48.167	0	223.00	0	7.0950	0	33.9610	0	26.590	0	221.006	0	85.0	4	28.8	4	-1E+10	1	-1E+10	1	-1E+10	1	-1E+10	1	-1E+10	1	-1E+10	1
4902663	26	C	04/18/2024	04:11	-126.763	48.167	0	223.90	0	7.0910	0	33.9620	0	26.592	0	221.897	0	84.9	4	28.8	4	-1E+10	1	-1E+10	1	-1E+10	1	-1E+10	1	-1E+10	1	-1E+10	1
4902663	26	C	04/18/2024	04:11	-126.763	48.167	0	224.90	0	7.0830	0	33.9630	0	26.594	0	222.888	0	84.7	4	28.7	4	-1E+10	1	-1E+10	1	-1E+10	1	-1E+10	1	-1E+10	1	-1E+10	1
4902663	26	C	04/18/2024	04:11	-126.763	48.167	0	225.90	0	7.0740	0	33.9630	0	26.595	0	223.878	0	84.4	4	28.6	4	-1E+10	1	-1E+10	1	-1E+10	1	-1E+10	1	-1E+10	1	-1E+10	1
4902663	26	C	04/18/2024	04:11	-126.763	48.167	0	226.90	0	7.0670	0	33.9620	0	26.595	0	224.869	0	84.0	4	28.5	4	-1E+10	1	-1E+10	1	-1E+10	1	-1E+10	1	-1E+10	1	-1E+10	1
4902663	26	C	04/18/2024	04:11	-126.763	48.167	0	227.90	0	7.0570	0	33.9630	0	26.597	0	225.859	0	83.6	4	28.3	4	-1E+10	1	-1E+10	1	-1E+10	1	-1E+10	1	-1E+10	1	-1E+10	1
4902663	26	C	04/18/2024	04:11	-126.763	48.167	0	228.90	0	7.0560	0	33.9640	0	26.598	0	226.850	0	83.2	4	28.2	4	-1E+10	1	-1E+10	1	-1E+10	1	-1E+10	1	-1E+10	1	-1E+10	1
4902663	26	C	04/18/2024	04:11	-126.763	48.167	0	229.90	0	7.0530	0	33.9650	0	26.599	0	227.840	0	82.9	4	28.1	4	-1E+10	1	-1E+10	1	-1E+10	1	-1E+10	1	-1E+10	1	-1E+10	1
4902663	26	C	04/18/2024	04:11	-126.763	48.167	0	230.90	0	7.0380	0	33.9660	0	26.602	0	228.831	0	82.6	4	28.0	4	-1E+10	1	-1E+10	1	-1E+10	1	-1E+10	1	-1E+10	1	-1E+10	1
4902663	26	C	04/18/2024	04:11	-126.763	48.167	0	231.90	0	7.0330	0	33.9650	0	26.602	0	229.821	0	82.2	4	27.8	4	-1E+10	1	-1E+10	1	-1E+10	1	-1E+10	1	-1E+10	1	-1E+10	1
4902663	26	C	04/18/2024	04:11	-126.763	48.167	0	232.90	0	7.0210	0	33.9660	0	26.605	0	230.812	0	81.9	4	27.7	4	-1E+10	1	-1E+10	1	-1E+10	1	-1E+10	1	-1E+10	1	-1E+10	1
4902663	26	C	04/18/2024	04:11	-126.763	48.167	0	233.90	0	7.0120	0	33.9680	0	26.607	0	231.802	0	81.6	4	27.6	4	-1E+10	1	-1E+10	1	-1E+10	1	-1E+10	1	-1E+10	1	-1E+10	1
4902663	26	C	04/18/2024	04:11	-126.763	48.167	0	234.90	0	7.0110	0	33.9680	0	26.608	0	232.793	0	81.2	4	27.5	4	-1E+10	1	-1E+10	1	-1E+10	1	-1E+10	1	-1E+10	1	-1E+10	1
4902663	26	C	04/18/2024	04:11	-126.763	48.167	0	235.90	0	7.0050	0	33.9690	0	26.609	0	233.783	0	80.9	4	27.4	4	-1E+10	1	-1E+10	1	-1E+10	1	-1E+10	1	-1E+10	1	-1E+10	1
4902663	26	C	04/18/2024	04:11	-126.763	48.167	0	237.00	0	6.9910	0	33.9700	0	26.612	0	234.873	0	80.6	4	27.2	4	-1E+10	1	-1E+10	1	-1E+10	1	-1E+10	1	-1E+10	1	-1E+10	1
4902663	26	C	04/18/2024	04:11	-126.763	48.167	0	238.00	0	6.9810	0	33.9710	0	26.614	0	235.863	0	80.3	4	27.1	4	-1E+10	1	-1E+10	1	-1E+10	1	-1E+10	1	-1E+10	1	-1E+10	1
4902663	26	C	04/18/2024	04:11	-126.763	48.167	0	239.00	0	6.9630	0	33.9680	0	26.614	0	236.854	0	79.9	4	27.0	4	-1E+10	1	-1E+10	1	-1E+10	1	-1E+10	1	-1E+10	1	-1E+10	1
4902663	26	C	04/18/2024	04:11	-126.763	48.167	0	240.10	0	6.9630	0	33.9680	0	26.614	0	237.943	0	79.4	4	26.8	4	-1E+10	1	-1E+10	1	-1E+10	1	-1E+10	1	-1E+10	1	-1E+10	1
4902663	26	C	04/18/2024	04:11	-126.763	48.167	0	241.10	0	6.9430	0	33.9680	0	26.617	0	238.934	0	78.9	4	26.6	4	-1E+10	1	-1E+10	1	-1E+10	1	-1E+10	1	-1E+10	1	-1E+10	1
4902663	26	C	04/18/2024	04:11	-126.763	48.167	0	242.10	0	6.9340	0	33.9690	0	26.619	0	239.924	0	78.3	4	26.4	4	-1E+10	1	-1E+10	1	-1E+10	1	-1E+10	1	-1E+10	1	-1E+10	1
4902663	26	C	04/18/2024	04:11	-126.763	48.167	0	243.10	0	6.9240	0	33.9710	0	26.622	0	240.915	0	77.7	4	26.2	4	-1E+10	1	-1E+10	1	-1E+10	1	-1E+10	1	-1E+10	1	-1E+10	1
4902663	26	C	04/18/2024	04:11	-126.763	48.167	0	244.20	0	6.9110	0	33.9720	0	26.624	0	242.004	0	77.3	4	26.1	4	-1E+10	1	-1E+10	1	-1E+10	1	-1E+10	1	-1E+10	1	-1E+10	1
4902663	26	C	04/18/2024	04:11	-126.763	48.167	0	245.20	0	6.9010	0	33.9740	0	26.627	0	242.994	0	76.8	4	25.9	4	-1E+10	1	-1E+10	1	-1E+10	1	-1E+10	1	-1E+10	1	-1E+10	1
4902663	26	C	04/18/2024	04:11	-126.763	48.167	0	246.30	0	6.8650	0	33.9760	0	26.634	0	244.084	0	76.4	4	25.8	4	-1E+10	1	-1E+10	1	-1E+10	1	-1E+10	1	-1E+10	1	-1E+10	1
4902663	26	C	04/18/2024	04:11	-126.763	48.167	0	247.30	0	6.8490	0	33.9770	0	26.637	0	245.074	0	76.1	4	25.6	4	-1E+10	1	-1E+10	1	-1E+10	1	-1E+10	1	-1E+10	1	-1E+10	1
4902663	26	C	04/18/2024	04:11	-126.763	48.167	0	248.40	0	6.8450	0	33.9770	0	26.637	0	246.164	0	75.7	4	25.5	4	-1E+10	1	-1E+10	1	-1E+10	1	-1E+10	1	-1E+10	1	-1E+10	1
4902663	26	C	04/18/2024	04:11	-126.763	48.167	0	249.40	0	6.8240	0	33.9790	0	26.642	0	247.154	0	75.3	4	25.4	4	-1E+10	1	-1E+10	1	-1E+10	1	-1E+10	1	-1E+10	1	-1E+10	1
4902663	26	C	04/18/2024	04:11	-126.763	48.167	0	250.50	0	6.8120	0	33.9800	0	26.644	0	248.244	0	75.1	4	25.3	4	-1E+10	1	-1E+10	1	-1E+10	1	-1E+10	1	-1E+10	1	-1E+10	1
4902663	26	C	04/18/2024	04:11	-126.763	48.167	0	251.50	0	6.7970	0	33.9820	0	26.648	0	249.234	0	74.8	4	25.2	4	-1E+10	1	-1E+10	1	-1E+10	1	-1E+10	1	-1E+10	1	-1E+10	1
4902663	26	C	04/18/2024	04:11	-126.763	48.167	0	252.60	0	6.7770	0	33.9820	0	26.650	0	250.323	0	74.6	4	25.1	4	-1E+10	1	-1E+10	1	-1E+10	1	-1E+10	1	-1E+10	1	-1E+10	1
4902663	26	C	04/18/2024	04:11	-126.763	48.167	0	253.70	0	6.7720	0	33.9820	0	26.651	0	251.413	0	74.3	4	25.0	4	-1E+10	1	-1E+10	1	-1E+10	1	-1E+10	1	-1E+10	1	-1E+10	1
4902663	26	C	04/18/2024	04:11	-126.763	48.167	0	254.70	0	6.7530	0	33.9840	0	26.655	0	252.403	0	74.2	4	24.9	4	-1E+10	1	-1E+10	1	-1E+10	1	-1E+10	1	-1E+10	1	-1E+10	1
4902663	26	C	04/18/2024	04:11	-126.763	48.167	0	255.80	0	6.7500	0	33.9830	0	26.655	0	253.493	0	74.0	4	24.9	4	-1E+10	1	-1E+10	1	-1E+10	1	-1E+10	1	-1E+10	1	-1E+10	1
4902663	26	C	04/18/2024	04:11	-126.763	48.167	0	256.90	0	6.7490	0	33.9830	0	26.655	0	254.582	0	73.8	4	24.8	4	-1E+10	1	-1E+10	1	-1E+10	1	-1E+10	1	-1E+10	1	-1E+10	1
4902663	26	C	04/18/2024	04:11	-126.763	48.167	0	258.00	0	6.7440	0	33.9840	0	26.656	0	255.671	0	73.5	4	24.7	4	-1E+10	1	-1E+10	1	-1E+10	1	-1E+10	1	-1E+10	1	-1E+10	1
4902663	26	C	04/18/2024	04:11	-126.763	48.167	0	259.10	0	6.7330	0	33.9840	0	26.658	0	256.761	0	73.4	4	24.7	4	-1E+10	1	-1E+10	1	-1E+10	1	-1E+10	1	-1E+10	1	-1E+10	1
4902663	26	C	04/18/2024	04:11	-126.763	48.167	0	260.20	0	6.7290	0	33.9840	0	26.659	0	257.850	0	73.2	4	24.6	4	-1E+10	1	-1E+10	1	-1E+10	1	-1E+10	1	-1E+10	1	-1E+10	1
4902663	26	C	04/18/2024	04:11	-126.763	48.167	0	261.30	0	6.7240	0	33.9850	0	26.660	0	258.940	0	73.0	4	24.5	4	-1E+10	1	-1E+10	1	-1E+10	1	-1E+10	1	-1E+10	1	-1E+10	1
4902663	26	C	04/18/2024	04:11	-126.763	48.167	0	262.30	0	6.7230	0	33.9840	0	26.659	0	259.930	0	72.7	4	24.4	4	-1E+10	1	-1E+10	1	-1E+10	1	-1E+10	1	-1E+10	1	-1E+10	1
4902663	26	C	04/18/2024	04:11	-126.763	48.167	0	263.40	0	6.7210	0	33.9840	0	26.660	0	261.019	0	72.4	4	24.3	4	-1E+10	1	-1E+10	1	-1E+10	1	-1E+10	1	-1E+10	1	-1E+10	1
4902663	26	C	04/18/2024	04:11	-126.763	48.167	0	264.40	0	6.7170	0	33.9840	0	26.660	0	262.010	0	72.1	4	24.2	4	-1E+10	1	-1E+10	1	-1E+10	1	-1E+10	1	-1E+10	1	-1E+10	1
4902663	26	C	04/18/2024	04:11	-126.763	48.167	0	265.40	0	6.7070	0	33.9850	0	26.662	0	263.000	0	71.8	4	24.1	4	-1E+10	1	-1E+10	1	-1E+10	1	-1E+10	1	-1E+10	1	-1E+10	1
4902663	26	C	04/18/2024	04:11	-126.763	48.167	0	267.00	0	6.6760	0	33.9860	0	26.667	0	264.584	0	71.3	4	24.0	4	-1E+10	1	-1E+10	1	-1E+10	1	-1E+10	1	-1E+10	1	-1E+10	1
4902663	26	C	04/18/2024	04:11	-126.763	48.167	0	268.20	0	6.6560	0	33.9880	0	26.671	0	265.773	0	71.1	4	23.8	4	-1E+10	1	-1E+10	1	-1E+10	1	-1E+10	1	-1E+10	1	-1E+10	1
4902663	26	C	04/18/2024	04:11	-126.763	48.167	0	269.00	0	6.6450	0	33.9890	0	26.674	0	266.565	0	70.9	4	23.8	4	-1E+10	1	-1E+10	1	-1E+10	1	-1E+10	1	-1E+10	1	-1E+10	1
4902663	26	C	04/18/2024	04:11	-126.763	48.167	0	269.80	0	6.6360	0	33.9890	0	26.675	0	267.357	0	70.7	4	23.7	4	-1E+10	1	-1E+10	1	-1E+10	1	-1E+10	1	-1E+10	1	-1E+10	1
4902663	26	C	04/18/2024	04:11	-126.763	48.167	0	271.00	0	6.6310	0	33.9890	0	26.676	0	268.546	0	70.5	4	23.6	4	-1E+10	1	-1E+10	1	-1E+10	1	-1E+10	1	-1E+10	1	-1E+10	1
4902663	26	C	04/18/2024	04:11	-126.763	48.167	0	272.20	0	6.6260	0	33.9880	0	26.675	0	269.734	0	70.2	4	23.5	4	-1E+10	1	-1E+10	1	-1E+10	1	-1E+10	1	-1E+10	1	-1E+10	1
4902663	26	C	04/18/2024	04:11	-126.763	48.167	0	273.00	0	6.6120	0	33.9910	0	26.680	0	270.526	0	70.0	4	23.5	4	-1E+10	1	-1E+10	1	-1E+10	1	-1E+10	1	-1E+10	1	-1E+10	1
4902663	26	C	04/18/2024	04:11	-126.763	48.167	0	273.80	0	6.6060	0	33.9910	0	26.681	0	271.318	0	69.9	4	23.4	4	-1E+10	1	-1E+10	1	-1E+10	1	-1E+10	1	-1E+10	1	-1E+10	1
4902663	26	C	04/18/2024	04:11	-126.763	48.167	0	275.00	0	6.5960	0	33.9900	0	26.681	0	272.507	0	69.6	4	23.3	4	-1E+10	1	-1E+10	1	-1E+10	1	-1E+10	1	-1E+10	1	-1E+10	1
4902663	26	C	04/18/2024	04:11	-126.763	48.167	0	276.20	0	6.5840	0	33.9920	0	26.684	0	273.695	0	69.3	4	23.2	4	-1E+10	1	-1E+10	1	-1E+10	1	-1E+10	1	-1E+10	1	-1E+10	1
4902663	26	C	04/18/2024	04:11	-126.763	48.167	0	277.10	0	6.5700	0	33.9930	0	26.687	0	274.586	0	69.1	4	23.2	4	-1E+10	1	-1E+10	1	-1E+10	1	-1E+10	1	-1E+10	1	-1E+10	1
4902663	26	C	04/18/2024	04:11	-126.763	48.167	0	277.90	0	6.5670	0	33.9920	0	26.686	0	275.379	0	69.0	4	23.1	4	-1E+10	1	-1E+10	1	-1E+10	1	-1E+10	1	-1E+10	1	-1E+10	1
4902663	26	C	04/18/2024	04:11	-126.763	48.167	0	278.70	0	6.5670	0	33.9920	0	26.686	0	276.171	0	68.8	4	23.0	4	-1E+10	1	-1E+10	1	-1E+10	1	-1E+10	1	-1E+10	1	-1E+10	1
4902663	26	C	04/18/2024	04:11	-126.763	48.167	0	279.90	0	6.5530	0	33.9920	0	26.688	0	277.359	0	68.6	4	23.0	4	-1E+10	1	-1E+10	1	-1E+10	1	-1E+10	1	-1E+10	1	-1E+10	1
4902663	26	C	04/18/2024	04:11	-126.763	48.167	0	281.10	0	6.5370	0	33.9940	0	26.692	0	278.547	0	68.4	4	22.9	4	-1E+10	1	-1E+10	1	-1E+10	1	-1E+10	1	-1E+10	1	-1E+10	1
4902663	26	C	04/18/2024	04:11	-126.763	48.167	0	281.90	0	6.5320	0	33.9940	0	26.693	0	279.340	0	68.3	4	22.8	4	-1E+10	1	-1E+10	1	-1E+10	1	-1E+10	1	-1E+10	1	-1E+10	1
4902663	26	C	04/18/2024	04:11	-126.763	48.167	0	282.70	0	6.5290	0	33.9940	0	26.693	0	280.132	0	68.1	4	22.8	4	-1E+10	1	-1E+10	1	-1E+10	1	-1E+10	1	-1E+10	1	-1E+10	1
4902663	26	C	04/18/2024	04:11	-126.763	48.167	0	283.90	0	6.5220	0	33.9940	0	26.694	0	281.320	0	68.0	4	22.8	4	-1E+10	1	-1E+10	1	-1E+10	1	-1E+10	1	-1E+10	1	-1E+10	1
4902663	26	C	04/18/2024	04:11	-126.763	48.167	0	285.10	0	6.5200	0	33.9940	0	26.694	0	282.508	0	67.8	4	22.7	4	-1E+10	1	-1E+10	1	-1E+10	1	-1E+10	1	-1E+10	1	-1E+10	1
4902663	26	C	04/18/2024	04:11	-126.763	48.167	0	286.00	0	6.5190	0	33.9940	0	26.694	0	283.399	0	67.7	4	22.7	4	-1E+10	1	-1E+10	1	-1E+10	1	-1E+10	1	-1E+10	1	-1E+10	1
4902663	26	C	04/18/2024	04:11	-126.763	48.167	0	286.80	0	6.5190	0	33.9940	0	26.694	0	284.192	0	67.6	4	22.6	4	-1E+10	1	-1E+10	1	-1E+10	1	-1E+10	1	-1E+10	1	-1E+10	1
4902663	26	C	04/18/2024	04:11	-126.763	48.167	0	287.70	0	6.5190	0	33.9930	0	26.694	0	285.083	0	67.4	4	22.5	4	-1E+10	1	-1E+10	1	-1E+10	1	-1E+10	1	-1E+10	1	-1E+10	1
4902663	26	C	04/18/2024	04:11	-126.763	48.167	0	288.90	0	6.4880	0	34.0000	0	26.703	0	286.271	0	67.1	4	22.4	4	-1E+10	1	-1E+10	1	-1E+10	1	-1E+10	1	-1E+10	1	-1E+10	1
4902663	26	C	04/18/2024	04:11	-126.763	48.167	0	290.10	0	6.4710	0	33.9950	0	26.702	0	287.459	0	67.0	4	22.4	4	-1E+10	1	-1E+10	1	-1E+10	1	-1E+10	1	-1E+10	1	-1E+10	1
4902663	26	C	04/18/2024	04:11	-126.763	48.167	0	291.00	0	6.4640	0	33.9960	0	26.703	0	288.351	0	66.9	4	22.4	4	-1E+10	1	-1E+10	1	-1E+10	1	-1E+10	1	-1E+10	1	-1E+10	1
4902663	26	C	04/18/2024	04:11	-126.763	48.167	0	291.80	0	6.4420	0	33.9960	0	26.706	0	289.143	0	66.9	4	22.4	4	-1E+10	1	-1E+10	1	-1E+10	1	-1E+10	1	-1E+10	1	-1E+10	1
4902663	26	C	04/18/2024	04:11	-126.763	48.167	0	292.60	0	6.4340	0	33.9960	0	26.707	0	289.935	0	66.9	4	22.3	4	-1E+10	1	-1E+10	1	-1E+10	1	-1E+10	1	-1E+10	1	-1E+10	1
4902663	26	C	04/18/2024	04:11	-126.763	48.167	0	293.90	0	6.4120	0	33.9960	0	26.710	0	291.222	0	66.8	4	22.3	4	-1E+10	1	-1E+10	1	-1E+10	1	-1E+10	1	-1E+10	1	-1E+10	1
4902663	26	C	04/18/2024	04:11	-126.763	48.167	0	295.20	0	6.3690	0	33.9960	0	26.716	0	292.509	0	66.8	4	22.3	4	-1E+10	1	-1E+10	1	-1E+10	1	-1E+10	1	-1E+10	1	-1E+10	1
4902663	26	C	04/18/2024	04:11	-126.763	48.167	0	296.10	0	6.3670	0	33.9950	0	26.715	0	293.401	0	66.7	4	22.2	4	-1E+10	1	-1E+10	1	-1E+10	1	-1E+10	1	-1E+10	1	-1E+10	1
4902663	26	C	04/18/2024	04:11	-126.763	48.167	0	297.00	0	6.3660	0	33.9950	0	26.715	0	294.292	0	66.7	4	22.2	4	-1E+10	1	-1E+10	1	-1E+10	1	-1E+10	1	-1E+10	1	-1E+10	1
4902663	26	C	04/18/2024	04:11	-126.763	48.167	0	297.80	0	6.3620	0	33.9940	0	26.715	0	295.084	0	66.6	4	22.2	4	-1E+10	1	-1E+10	1	-1E+10	1	-1E+10	1	-1E+10	1	-1E+10	1
4902663	26	C	04/18/2024	04:11	-126.763	48.167	0	298.70	0	6.3540	0	33.9940	0	26.716	0	295.975	0	66.5	4	22.2	4	-1E+10	1	-1E+10	1	-1E+10	1	-1E+10	1	-1E+10	1	-1E+10	1
4902663	26	C	04/18/2024	04:11	-126.763	48.167	0	299.90	0	6.3390	0	33.9940	0	26.718	0	297.163	0	66.3	4	22.1	4	-1E+10	1	-1E+10	1	-1E+10	1	-1E+10	1	-1E+10	1	-1E+10	1
4902663	26	C	04/18/2024	04:11	-126.763	48.167	0	301.30	0	6.3260	0	33.9930	0	26.719	0	298.549	0	66.0	4	22.0	4	-1E+10	1	-1E+10	1	-1E+10	1	-1E+10	1	-1E+10	1	-1E+10	1
4902663	26	C	04/18/2024	04:11	-126.763	48.167	0	302.20	0	6.3190	0	33.9930	0	26.720	0	299.441	0	65.8	4	21.9	4	-1E+10	1	-1E+10	1	-1E+10	1	-1E+10	1	-1E+10	1	-1E+10	1
4902663	26	C	04/18/2024	04:11	-126.763	48.167	0	303.10	0	6.3130	0	33.9930	0	26.721	0	300.332	0	65.6	4	21.8	4	-1E+10	1	-1E+10	1	-1E+10	1	-1E+10	1	-1E+10	1	-1E+10	1
4902663	26	C	04/18/2024	04:11	-126.763	48.167	0	303.90	0	6.3030	0	33.9940	0	26.723	0	301.124	0	65.4	4	21.8	4	-1E+10	1	-1E+10	1	-1E+10	1	-1E+10	1	-1E+10	1	-1E+10	1
4902663	26	C	04/18/2024	04:11	-126.763	48.167	0	304.80	0	6.3000	0	33.9930	0	26.722	0	302.015	0	65.1	4	21.7	4	-1E+10	1	-1E+10	1	-1E+10	1	-1E+10	1	-1E+10	1	-1E+10	1
4902663	26	C	04/18/2024	04:11	-126.763	48.167	0	305.60	0	6.3010	0	33.9940	0	26.723	0	302.807	0	64.8	4	21.6	4	-1E+10	1	-1E+10	1	-1E+10	1	-1E+10	1	-1E+10	1	-1E+10	1
4902663	26	C	04/18/2024	04:11	-126.763	48.167	0	306.90	0	6.2980	0	33.9960	0	26.725	0	304.094	0	64.4	4	21.4	4	-1E+10	1	-1E+10	1	-1E+10	1	-1E+10	1	-1E+10	1	-1E+10	1
4902663	26	C	04/18/2024	04:11	-126.763	48.167	0	308.20	0	6.2810	0	33.9940	0	26.726	0	305.381	0	63.9	4	21.3	4	-1E+10	1	-1E+10	1	-1E+10	1	-1E+10	1	-1E+10	1	-1E+10	1
4902663	26	C	04/18/2024	04:11	-126.763	48.167	0	309.00	0	6.2880	0	33.9980	0	26.728	0	306.173	0	63.7	4	21.2	4	-1E+10	1	-1E+10	1	-1E+10	1	-1E+10	1	-1E+10	1	-1E+10	1
4902663	26	C	04/18/2024	04:11	-126.763	48.167	0	309.90	0	6.2430	0	33.9980	0	26.734	0	307.064	0	63.5	4	21.1	4	-1E+10	1	-1E+10	1	-1E+10	1	-1E+10	1	-1E+10	1	-1E+10	1
4902663	26	C	04/18/2024	04:11	-126.763	48.167	0	310.70	0	6.2380	0	33.9970	0	26.733	0	307.857	0	63.2	4	21.0	4	-1E+10	1	-1E+10	1	-1E+10	1	-1E+10	1	-1E+10	1	-1E+10	1
4902663	26	C	04/18/2024	04:11	-126.763	48.167	0	311.90	0	6.2330	0	33.9980	0	26.735	0	309.045	0	62.9	4	20.9	4	-1E+10	1	-1E+10	1	-1E+10	1	-1E+10	1	-1E+10	1	-1E+10	1
4902663	26	C	04/18/2024	04:11	-126.763	48.167	0	313.10	0	6.2220	0	33.9990	0	26.737	0	310.233	0	62.6	4	20.8	4	-1E+10	1	-1E+10	1	-1E+10	1	-1E+10	1	-1E+10	1	-1E+10	1
4902663	26	C	04/18/2024	04:11	-126.763	48.167	0	313.90	0	6.2210	0	33.9990	0	26.737	0	311.025	0	62.3	4	20.7	4	-1E+10	1	-1E+10	1	-1E+10	1	-1E+10	1	-1E+10	1	-1E+10	1
4902663	26	C	04/18/2024	04:11	-126.763	48.167	0	314.80	0	6.2150	0	33.9990	0	26.738	0	311.916	0	62.0	4	20.6	4	-1E+10	1	-1E+10	1	-1E+10	1	-1E+10	1	-1E+10	1	-1E+10	1
4902663	26	C	04/18/2024	04:11	-126.763	48.167	0	315.70	0	6.2080	0	33.9980	0	26.738	0	312.807	0	61.7	4	20.5	4	-1E+10	1	-1E+10	1	-1E+10	1	-1E+10	1	-1E+10	1	-1E+10	1
4902663	26	C	04/18/2024	04:11	-126.763	48.167	0	316.90	0	6.1950	0	33.9980	0	26.740	0	313.995	0	61.2	4	20.3	4	-1E+10	1	-1E+10	1	-1E+10	1	-1E+10	1	-1E+10	1	-1E+10	1
4902663	26	C	04/18/2024	04:11	-126.763	48.167	0	318.30	0	6.1870	0	33.9990	0	26.742	0	315.381	0	60.6	4	20.1	4	-1E+10	1	-1E+10	1	-1E+10	1	-1E+10	1	-1E+10	1	-1E+10	1
4902663	26	C	04/18/2024	04:11	-126.763	48.167	0	319.20	0	6.1790	0	34.0000	0	26.743	0	316.272	0	60.1	4	20.0	4	-1E+10	1	-1E+10	1	-1E+10	1	-1E+10	1	-1E+10	1	-1E+10	1
4902663	26	C	04/18/2024	04:11	-126.763	48.167	0	320.00	0	6.1740	0	34.0000	0	26.744	0	317.064	0	59.6	4	19.8	4	-1E+10	1	-1E+10	1	-1E+10	1	-1E+10	1	-1E+10	1	-1E+10	1
4902663	26	C	04/18/2024	04:11	-126.763	48.167	0	320.90	0	6.1670	0	34.0020	0	26.747	0	317.955	0	59.1	4	19.6	4	-1E+10	1	-1E+10	1	-1E+10	1	-1E+10	1	-1E+10	1	-1E+10	1
4902663	26	C	04/18/2024	04:11	-126.763	48.167	0	321.80	0	6.1560	0	34.0040	0	26.750	0	318.846	0	58.7	4	19.5	4	-1E+10	1	-1E+10	1	-1E+10	1	-1E+10	1	-1E+10	1	-1E+10	1
4902663	26	C	04/18/2024	04:11	-126.763	48.167	0	322.70	0	6.1490	0	34.0050	0	26.751	0	319.737	0	58.4	4	19.4	4	-1E+10	1	-1E+10	1	-1E+10	1	-1E+10	1	-1E+10	1	-1E+10	1
4902663	26	C	04/18/2024	04:11	-126.763	48.167	0	323.50	0	6.1430	0	34.0070	0	26.754	0	320.530	0	58.1	4	19.3	4	-1E+10	1	-1E+10	1	-1E+10	1	-1E+10	1	-1E+10	1	-1E+10	1
4902663	26	C	04/18/2024	04:11	-126.763	48.167	0	324.90	0	6.1360	0	34.0080	0	26.755	0	321.916	0	57.7	4	19.1	4	-1E+10	1	-1E+10	1	-1E+10	1	-1E+10	1	-1E+10	1	-1E+10	1
4902663	26	C	04/18/2024	04:11	-126.763	48.167	0	326.30	0	6.1320	0	34.0100	0	26.757	0	323.302	0	57.3	4	19.0	4	-1E+10	1	-1E+10	1	-1E+10	1	-1E+10	1	-1E+10	1	-1E+10	1
4902663	26	C	04/18/2024	04:11	-126.763	48.167	0	327.20	0	6.1300	0	34.0100	0	26.758	0	324.193	0	57.0	4	18.9	4	-1E+10	1	-1E+10	1	-1E+10	1	-1E+10	1	-1E+10	1	-1E+10	1
4902663	26	C	04/18/2024	04:11	-126.763	48.167	0	328.00	0	6.1270	0	34.0110	0	26.759	0	324.985	0	56.7	4	18.8	4	-1E+10	1	-1E+10	1	-1E+10	1	-1E+10	1	-1E+10	1	-1E+10	1
4902663	26	C	04/18/2024	04:11	-126.763	48.167	0	328.90	0	6.1170	0	34.0130	0	26.762	0	325.876	0	56.4	4	18.7	4	-1E+10	1	-1E+10	1	-1E+10	1	-1E+10	1	-1E+10	1	-1E+10	1
4902663	26	C	04/18/2024	04:11	-126.763	48.167	0	329.80	0	6.1160	0	34.0130	0	26.762	0	326.767	0	56.2	4	18.6	4	-1E+10	1	-1E+10	1	-1E+10	1	-1E+10	1	-1E+10	1	-1E+10	1
4902663	26	C	04/18/2024	04:11	-126.763	48.167	0	330.70	0	6.1130	0	34.0140	0	26.763	0	327.658	0	55.9	4	18.5	4	-1E+10	1	-1E+10	1	-1E+10	1	-1E+10	1	-1E+10	1	-1E+10	1
4902663	26	C	04/18/2024	04:11	-126.763	48.167	0	331.90	0	6.1080	0	34.0140	0	26.764	0	328.846	0	55.5	4	18.4	4	-1E+10	1	-1E+10	1	-1E+10	1	-1E+10	1	-1E+10	1	-1E+10	1
4902663	26	C	04/18/2024	04:11	-126.763	48.167	0	333.20	0	6.0990	0	34.0160	0	26.766	0	330.133	0	55.2	4	18.3	4	-1E+10	1	-1E+10	1	-1E+10	1	-1E+10	1	-1E+10	1	-1E+10	1
4902663	26	C	04/18/2024	04:11	-126.763	48.167	0	334.10	0	6.0980	0	34.0150	0	26.766	0	331.024	0	54.9	4	18.2	4	-1E+10	1	-1E+10	1	-1E+10	1	-1E+10	1	-1E+10	1	-1E+10	1
4902663	26	C	04/18/2024	04:11	-126.763	48.167	0	335.00	0	6.0970	0	34.0150	0	26.766	0	331.915	0	54.6	4	18.1	4	-1E+10	1	-1E+10	1	-1E+10	1	-1E+10	1	-1E+10	1	-1E+10	1
4902663	26	C	04/18/2024	04:11	-126.763	48.167	0	336.00	0	6.0800	0	34.0190	0	26.771	0	332.905	0	54.4	4	18.0	4	-1E+10	1	-1E+10	1	-1E+10	1	-1E+10	1	-1E+10	1	-1E+10	1
4902663	26	C	04/18/2024	04:11	-126.763	48.167	0	336.90	0	6.0650	0	34.0200	0	26.774	0	333.796	0	54.2	4	18.0	4	-1E+10	1	-1E+10	1	-1E+10	1	-1E+10	1	-1E+10	1	-1E+10	1
4902663	26	C	04/18/2024	04:11	-126.763	48.167	0	337.80	0	6.0590	0	34.0200	0	26.775	0	334.687	0	54.0	4	17.9	4	-1E+10	1	-1E+10	1	-1E+10	1	-1E+10	1	-1E+10	1	-1E+10	1
4902663	26	C	04/18/2024	04:11	-126.763	48.167	0	338.80	0	6.0520	0	34.0210	0	26.776	0	335.677	0	53.8	4	17.8	4	-1E+10	1	-1E+10	1	-1E+10	1	-1E+10	1	-1E+10	1	-1E+10	1
4902663	26	C	04/18/2024	04:11	-126.763	48.167	0	339.70	0	6.0460	0	34.0210	0	26.777	0	336.568	0	53.7	4	17.8	4	-1E+10	1	-1E+10	1	-1E+10	1	-1E+10	1	-1E+10	1	-1E+10	1
4902663	26	C	04/18/2024	04:11	-126.763	48.167	0	340.60	0	6.0440	0	34.0200	0	26.777	0	337.459	0	53.5	4	17.7	4	-1E+10	1	-1E+10	1	-1E+10	1	-1E+10	1	-1E+10	1	-1E+10	1
4902663	26	C	04/18/2024	04:11	-126.763	48.167	0	341.60	0	6.0350	0	34.0210	0	26.779	0	338.449	0	53.3	4	17.6	4	-1E+10	1	-1E+10	1	-1E+10	1	-1E+10	1	-1E+10	1	-1E+10	1
4902663	26	C	04/18/2024	04:11	-126.763	48.167	0	342.90	0	6.0300	0	34.0220	0	26.780	0	339.735	0	53.1	4	17.6	4	-1E+10	1	-1E+10	1	-1E+10	1	-1E+10	1	-1E+10	1	-1E+10	1
4902663	26	C	04/18/2024	04:11	-126.763	48.167	0	344.40	0	6.0240	0	34.0220	0	26.781	0	341.220	0	52.8	4	17.5	4	-1E+10	1	-1E+10	1	-1E+10	1	-1E+10	1	-1E+10	1	-1E+10	1
4902663	26	C	04/18/2024	04:11	-126.763	48.167	0	345.30	0	6.0110	0	34.0220	0	26.782	0	342.111	0	52.6	4	17.4	4	-1E+10	1	-1E+10	1	-1E+10	1	-1E+10	1	-1E+10	1	-1E+10	1
4902663	26	C	04/18/2024	04:11	-126.763	48.167	0	346.30	0	6.0070	0	34.0230	0	26.784	0	343.101	0	52.4	4	17.3	4	-1E+10	1	-1E+10	1	-1E+10	1	-1E+10	1	-1E+10	1	-1E+10	1
4902663	26	C	04/18/2024	04:11	-126.763	48.167	0	347.20	0	6.0020	0	34.0240	0	26.785	0	343.992	0	52.3	4	17.3	4	-1E+10	1	-1E+10	1	-1E+10	1	-1E+10	1	-1E+10	1	-1E+10	1
4902663	26	C	04/18/2024	04:11	-126.763	48.167	0	348.10	0	5.9950	0	34.0240	0	26.786	0	344.883	0	52.1	4	17.2	4	-1E+10	1	-1E+10	1	-1E+10	1	-1E+10	1	-1E+10	1	-1E+10	1
4902663	26	C	04/18/2024	04:11	-126.763	48.167	0	349.10	0	5.9910	0	34.0230	0	26.786	0	345.873	0	51.9	4	17.2	4	-1E+10	1	-1E+10	1	-1E+10	1	-1E+10	1	-1E+10	1	-1E+10	1
4902663	26	C	04/18/2024	04:11	-126.763	48.167	0	350.00	0	5.9880	0	34.0240	0	26.787	0	346.764	0	51.8	4	17.1	4	-1E+10	1	-1E+10	1	-1E+10	1	-1E+10	1	-1E+10	1	-1E+10	1
4902663	26	C	04/18/2024	04:11	-126.763	48.167	0	352.70	0	5.9620	0	34.0250	0	26.791	0	349.437	0	51.4	4	17.0	4	-1E+10	1	-1E+10	1	-1E+10	1	-1E+10	1	-1E+10	1	-1E+10	1
4902663	26	C	04/18/2024	04:11	-126.763	48.167	0	357.90	0	5.9290	0	34.0270	0	26.797	0	354.584	0	50.7	4	16.7	4	-1E+10	1	-1E+10	1	-1E+10	1	-1E+10	1	-1E+10	1	-1E+10	1
4902663	26	C	04/18/2024	04:11	-126.763	48.167	0	363.00	0	5.8580	0	34.0280	0	26.806	0	359.633	0	50.3	4	16.6	4	-1E+10	1	-1E+10	1	-1E+10	1	-1E+10	1	-1E+10	1	-1E+10	1
4902663	26	C	04/18/2024	04:11	-126.763	48.167	0	367.70	0	5.8220	0	34.0270	0	26.810	0	364.285	0	49.9	4	16.4	4	-1E+10	1	-1E+10	1	-1E+10	1	-1E+10	1	-1E+10	1	-1E+10	1
4902663	26	C	04/18/2024	04:11	-126.763	48.167	0	373.00	0	5.7870	0	34.0290	0	26.816	0	369.531	0	49.1	4	16.1	4	-1E+10	1	-1E+10	1	-1E+10	1	-1E+10	1	-1E+10	1	-1E+10	1
4902663	26	C	04/18/2024	04:11	-126.763	48.167	0	378.20	0	5.7680	0	34.0320	0	26.821	0	374.678	0	47.8	4	15.7	4	-1E+10	1	-1E+10	1	-1E+10	1	-1E+10	1	-1E+10	1	-1E+10	1
4902663	26	C	04/18/2024	04:11	-126.763	48.167	0	383.00	0	5.7520	0	34.0360	0	26.826	0	379.429	0	46.8	4	15.4	4	-1E+10	1	-1E+10	1	-1E+10	1	-1E+10	1	-1E+10	1	-1E+10	1
4902663	26	C	04/18/2024	04:11	-126.763	48.167	0	387.90	0	5.7410	0	34.0370	0	26.828	0	384.278	0	45.8	4	15.1	4	-1E+10	1	-1E+10	1	-1E+10	1	-1E+10	1	-1E+10	1	-1E+10	1
4902663	26	C	04/18/2024	04:11	-126.763	48.167	0	392.80	0	5.7130	0	34.0410	0	26.835	0	389.128	0	44.7	4	14.7	4	-1E+10	1	-1E+10	1	-1E+10	1	-1E+10	1	-1E+10	1	-1E+10	1
4902663	26	C	04/18/2024	04:11	-126.763	48.167	0	397.80	0	5.6710	0	34.0450	0	26.843	0	394.077	0	43.7	4	14.3	4	-1E+10	1	-1E+10	1	-1E+10	1	-1E+10	1	-1E+10	1	-1E+10	1
4902663	26	C	04/18/2024	04:11	-126.763	48.167	0	402.90	0	5.6200	0	34.0450	0	26.849	0	399.124	0	42.7	4	14.0	4	-1E+10	1	-1E+10	1	-1E+10	1	-1E+10	1	-1E+10	1	-1E+10	1
4902663	26	C	04/18/2024	04:11	-126.763	48.167	0	408.00	0	5.5920	0	34.0510	0	26.857	0	404.171	0	41.9	4	13.7	4	-1E+10	1	-1E+10	1	-1E+10	1	-1E+10	1	-1E+10	1	-1E+10	1
4902663	26	C	04/18/2024	04:11	-126.763	48.167	0	413.10	0	5.5890	0	34.0530	0	26.859	0	409.218	0	41.3	4	13.5	4	-1E+10	1	-1E+10	1	-1E+10	1	-1E+10	1	-1E+10	1	-1E+10	1
4902663	26	C	04/18/2024	04:11	-126.763	48.167	0	418.20	0	5.5420	0	34.0550	0	26.867	0	414.265	0	40.9	4	13.4	4	-1E+10	1	-1E+10	1	-1E+10	1	-1E+10	1	-1E+10	1	-1E+10	1
4902663	26	C	04/18/2024	04:11	-126.763	48.167	0	423.40	0	5.4390	0	34.0500	0	26.875	0	419.411	0	41.0	4	13.4	4	-1E+10	1	-1E+10	1	-1E+10	1	-1E+10	1	-1E+10	1	-1E+10	1
4902663	26	C	04/18/2024	04:11	-126.763	48.167	0	428.00	0	5.3190	0	34.0410	0	26.882	0	423.963	0	41.0	4	13.3	4	-1E+10	1	-1E+10	1	-1E+10	1	-1E+10	1	-1E+10	1	-1E+10	1
4902663	26	C	04/18/2024	04:11	-126.763	48.167	0	432.70	0	5.2110	0	34.0330	0	26.888	0	428.614	0	39.7	4	12.9	4	-1E+10	1	-1E+10	1	-1E+10	1	-1E+10	1	-1E+10	1	-1E+10	1
4902663	26	C	04/18/2024	04:11	-126.763	48.167	0	437.90	0	5.2340	0	34.0450	0	26.895	0	433.759	0	37.6	4	12.2	4	-1E+10	1	-1E+10	1	-1E+10	1	-1E+10	1	-1E+10	1	-1E+10	1
4902663	26	C	04/18/2024	04:11	-126.763	48.167	0	443.00	0	5.2510	0	34.0550	0	26.901	0	438.806	0	36.1	4	11.7	4	-1E+10	1	-1E+10	1	-1E+10	1	-1E+10	1	-1E+10	1	-1E+10	1
4902663	26	C	04/18/2024	04:11	-126.763	48.167	0	447.80	0	5.2610	0	34.0630	0	26.907	0	443.555	0	35.2	4	11.4	4	-1E+10	1	-1E+10	1	-1E+10	1	-1E+10	1	-1E+10	1	-1E+10	1
4902663	26	C	04/18/2024	04:11	-126.763	48.167	0	452.60	0	5.2490	0	34.0650	0	26.910	0	448.305	0	34.4	4	11.2	4	-1E+10	1	-1E+10	1	-1E+10	1	-1E+10	1	-1E+10	1	-1E+10	1
4902663	26	C	04/18/2024	04:11	-126.763	48.167	0	458.00	0	5.2170	0	34.0680	0	26.916	0	453.647	0	33.4	4	10.8	4	-1E+10	1	-1E+10	1	-1E+10	1	-1E+10	1	-1E+10	1	-1E+10	1
4902663	26	C	04/18/2024	04:11	-126.763	48.167	0	462.80	0	5.2060	0	34.0740	0	26.922	0	458.397	0	32.5	4	10.5	4	-1E+10	1	-1E+10	1	-1E+10	1	-1E+10	1	-1E+10	1	-1E+10	1
4902663	26	C	04/18/2024	04:11	-126.763	48.167	0	467.60	0	5.1870	0	34.0780	0	26.927	0	463.146	0	31.7	4	10.3	4	-1E+10	1	-1E+10	1	-1E+10	1	-1E+10	1	-1E+10	1	-1E+10	1
4902663	26	C	04/18/2024	04:11	-126.763	48.167	0	472.80	0	5.1620	0	34.0800	0	26.932	0	468.290	0	30.7	4	10.0	4	-1E+10	1	-1E+10	1	-1E+10	1	-1E+10	1	-1E+10	1	-1E+10	1
4902663	26	C	04/18/2024	04:11	-126.763	48.167	0	477.80	0	5.1180	0	34.0850	0	26.941	0	473.237	0	29.8	4	9.6	4	-1E+10	1	-1E+10	1	-1E+10	1	-1E+10	1	-1E+10	1	-1E+10	1
4902663	26	C	04/18/2024	04:11	-126.763	48.167	0	483.00	0	5.0960	0	34.0870	0	26.945	0	478.381	0	28.7	4	9.3	4	-1E+10	1	-1E+10	1	-1E+10	1	-1E+10	1	-1E+10	1	-1E+10	1
4902663	26	C	04/18/2024	04:11	-126.763	48.167	0	488.20	0	5.0640	0	34.0950	0	26.955	0	483.525	0	27.6	4	8.9	4	-1E+10	1	-1E+10	1	-1E+10	1	-1E+10	1	-1E+10	1	-1E+10	1
4902663	26	C	04/18/2024	04:11	-126.763	48.167	0	493.10	0	5.0520	0	34.0980	0	26.959	0	488.373	0	26.9	4	8.7	4	-1E+10	1	-1E+10	1	-1E+10	1	-1E+10	1	-1E+10	1	-1E+10	1
4902663	26	C	04/18/2024	04:11	-126.763	48.167	0	498.00	0	5.0250	0	34.1010	0	26.964	0	493.220	0	26.2	4	8.5	4	-1E+10	1	-1E+10	1	-1E+10	1	-1E+10	1	-1E+10	1	-1E+10	1
4902663	26	C	04/18/2024	04:11	-126.763	48.167	0	503.10	0	4.9960	0	34.1050	0	26.971	0	498.265	0	25.6	4	8.3	4	-1E+10	1	-1E+10	1	-1E+10	1	-1E+10	1	-1E+10	1	-1E+10	1
4902663	26	C	04/18/2024	04:11	-126.763	48.167	0	508.20	0	4.9830	0	34.1070	0	26.974	0	503.310	0	25.1	4	8.1	4	-1E+10	1	-1E+10	1	-1E+10	1	-1E+10	1	-1E+10	1	-1E+10	1
4902663	26	C	04/18/2024	04:11	-126.763	48.167	0	512.90	0	4.9690	0	34.1100	0	26.978	0	507.959	0	24.5	4	7.9	4	-1E+10	1	-1E+10	1	-1E+10	1	-1E+10	1	-1E+10	1	-1E+10	1
4902663	26	C	04/18/2024	04:11	-126.763	48.167	0	517.60	0	4.9370	0	34.1130	0	26.984	0	512.608	0	24.0	4	7.7	4	-1E+10	1	-1E+10	1	-1E+10	1	-1E+10	1	-1E+10	1	-1E+10	1
4902663	26	C	04/18/2024	04:11	-126.763	48.167	0	522.70	0	4.9170	0	34.1140	0	26.987	0	517.652	0	23.4	4	7.5	4	-1E+10	1	-1E+10	1	-1E+10	1	-1E+10	1	-1E+10	1	-1E+10	1
4902663	26	C	04/18/2024	04:11	-126.763	48.167	0	527.80	0	4.9050	0	34.1190	0	26.992	0	522.696	0	22.6	4	7.3	4	-1E+10	1	-1E+10	1	-1E+10	1	-1E+10	1	-1E+10	1	-1E+10	1
4902663	26	C	04/18/2024	04:11	-126.763	48.167	0	533.20	0	4.8890	0	34.1230	0	26.997	0	528.037	0	22.0	4	7.1	4	-1E+10	1	-1E+10	1	-1E+10	1	-1E+10	1	-1E+10	1	-1E+10	1
4902663	26	C	04/18/2024	04:11	-126.763	48.167	0	538.00	0	4.8810	0	34.1250	0	27.000	0	532.785	0	21.3	4	6.9	4	-1E+10	1	-1E+10	1	-1E+10	1	-1E+10	1	-1E+10	1	-1E+10	1
4902663	26	C	04/18/2024	04:11	-126.763	48.167	0	542.90	0	4.8660	0	34.1310	0	27.006	0	537.631	0	20.6	4	6.6	4	-1E+10	1	-1E+10	1	-1E+10	1	-1E+10	1	-1E+10	1	-1E+10	1
4902663	26	C	04/18/2024	04:11	-126.763	48.167	0	548.20	0	4.8520	0	34.1360	0	27.012	0	542.872	0	20.1	4	6.5	4	-1E+10	1	-1E+10	1	-1E+10	1	-1E+10	1	-1E+10	1	-1E+10	1
4902663	26	C	04/18/2024	04:11	-126.763	48.167	0	552.90	0	4.8320	0	34.1380	0	27.016	0	547.521	0	19.7	4	6.3	4	-1E+10	1	-1E+10	1	-1E+10	1	-1E+10	1	-1E+10	1	-1E+10	1
4902663	26	C	04/18/2024	04:11	-126.763	48.167	0	557.80	0	4.8130	0	34.1410	0	27.020	0	552.366	0	19.2	4	6.2	4	-1E+10	1	-1E+10	1	-1E+10	1	-1E+10	1	-1E+10	1	-1E+10	1
4902663	26	C	04/18/2024	04:11	-126.763	48.167	0	563.00	0	4.7840	0	34.1410	0	27.024	0	557.509	0	18.7	4	6.0	4	-1E+10	1	-1E+10	1	-1E+10	1	-1E+10	1	-1E+10	1	-1E+10	1
4902663	26	C	04/18/2024	04:11	-126.763	48.167	0	567.80	0	4.7670	0	34.1470	0	27.030	0	562.255	0	18.0	4	5.8	4	-1E+10	1	-1E+10	1	-1E+10	1	-1E+10	1	-1E+10	1	-1E+10	1
4902663	26	C	04/18/2024	04:11	-126.763	48.167	0	572.70	0	4.7530	0	34.1500	0	27.034	0	567.101	0	17.3	4	5.6	4	-1E+10	1	-1E+10	1	-1E+10	1	-1E+10	1	-1E+10	1	-1E+10	1
4902663	26	C	04/18/2024	04:11	-126.763	48.167	0	578.00	0	4.7430	0	34.1590	0	27.043	0	572.342	0	16.6	4	5.3	4	-1E+10	1	-1E+10	1	-1E+10	1	-1E+10	1	-1E+10	1	-1E+10	1
4902663	26	C	04/18/2024	04:11	-126.763	48.167	0	583.00	0	4.7320	0	34.1620	0	27.046	0	577.286	0	16.2	4	5.2	4	-1E+10	1	-1E+10	1	-1E+10	1	-1E+10	1	-1E+10	1	-1E+10	1
4902663	26	C	04/18/2024	04:11	-126.763	48.167	0	588.00	0	4.7250	0	34.1650	0	27.050	0	582.230	0	15.9	4	5.1	4	-1E+10	1	-1E+10	1	-1E+10	1	-1E+10	1	-1E+10	1	-1E+10	1
4902663	26	C	04/18/2024	04:11	-126.763	48.167	0	593.10	0	4.7080	0	34.1680	0	27.054	0	587.273	0	15.6	4	5.0	4	-1E+10	1	-1E+10	1	-1E+10	1	-1E+10	1	-1E+10	1	-1E+10	1
4902663	26	C	04/18/2024	04:11	-126.763	48.167	0	597.80	0	4.6830	0	34.1700	0	27.058	0	591.920	0	15.4	4	4.9	4	-1E+10	1	-1E+10	1	-1E+10	1	-1E+10	1	-1E+10	1	-1E+10	1
4902663	26	C	04/18/2024	04:11	-126.763	48.167	0	602.50	0	4.6510	0	34.1700	0	27.062	0	596.567	0	15.1	4	4.9	4	-1E+10	1	-1E+10	1	-1E+10	1	-1E+10	1	-1E+10	1	-1E+10	1
4902663	26	C	04/18/2024	04:11	-126.763	48.167	0	607.80	0	4.6230	0	34.1710	0	27.066	0	601.807	0	14.9	4	4.8	4	-1E+10	1	-1E+10	1	-1E+10	1	-1E+10	1	-1E+10	1	-1E+10	1
4902663	26	C	04/18/2024	04:11	-126.763	48.167	0	612.90	0	4.5890	0	34.1720	0	27.070	0	606.849	0	14.7	4	4.7	4	-1E+10	1	-1E+10	1	-1E+10	1	-1E+10	1	-1E+10	1	-1E+10	1
4902663	26	C	04/18/2024	04:11	-126.763	48.167	0	617.70	0	4.5570	0	34.1730	0	27.074	0	611.595	0	14.5	4	4.6	4	-1E+10	1	-1E+10	1	-1E+10	1	-1E+10	1	-1E+10	1	-1E+10	1
4902663	26	C	04/18/2024	04:11	-126.763	48.167	0	622.80	0	4.5250	0	34.1750	0	27.080	0	616.637	0	14.2	4	4.5	4	-1E+10	1	-1E+10	1	-1E+10	1	-1E+10	1	-1E+10	1	-1E+10	1
4902663	26	C	04/18/2024	04:11	-126.763	48.167	0	628.00	0	4.4930	0	34.1760	0	27.084	0	621.778	0	13.8	4	4.4	4	-1E+10	1	-1E+10	1	-1E+10	1	-1E+10	1	-1E+10	1	-1E+10	1
4902663	26	C	04/18/2024	04:11	-126.763	48.167	0	632.70	0	4.4680	0	34.1790	0	27.089	0	626.424	0	13.4	4	4.3	4	-1E+10	1	-1E+10	1	-1E+10	1	-1E+10	1	-1E+10	1	-1E+10	1
4902663	26	C	04/18/2024	04:11	-126.763	48.167	0	637.90	0	4.4550	0	34.1840	0	27.094	0	631.565	0	12.9	4	4.1	4	-1E+10	1	-1E+10	1	-1E+10	1	-1E+10	1	-1E+10	1	-1E+10	1
4902663	26	C	04/18/2024	04:11	-126.763	48.167	0	643.20	0	4.4360	0	34.1890	0	27.100	0	636.804	0	12.5	4	4.0	4	-1E+10	1	-1E+10	1	-1E+10	1	-1E+10	1	-1E+10	1	-1E+10	1
4902663	26	C	04/18/2024	04:11	-126.763	48.167	0	648.10	0	4.4310	0	34.1940	0	27.105	0	641.648	0	12.1	4	3.8	4	-1E+10	1	-1E+10	1	-1E+10	1	-1E+10	1	-1E+10	1	-1E+10	1
4902663	26	C	04/18/2024	04:11	-126.763	48.167	0	653.00	0	4.4180	0	34.1990	0	27.110	0	646.491	0	11.8	4	3.8	4	-1E+10	1	-1E+10	1	-1E+10	1	-1E+10	1	-1E+10	1	-1E+10	1
4902663	26	C	04/18/2024	04:11	-126.763	48.167	0	657.90	0	4.3920	0	34.2010	0	27.115	0	651.335	0	11.6	4	3.7	4	-1E+10	1	-1E+10	1	-1E+10	1	-1E+10	1	-1E+10	1	-1E+10	1
4902663	26	C	04/18/2024	04:11	-126.763	48.167	0	662.80	0	4.3690	0	34.2030	0	27.119	0	656.178	0	11.4	4	3.6	4	-1E+10	1	-1E+10	1	-1E+10	1	-1E+10	1	-1E+10	1	-1E+10	1
4902663	26	C	04/18/2024	04:11	-126.763	48.167	0	667.60	0	4.3540	0	34.2050	0	27.122	0	660.923	0	11.2	4	3.6	4	-1E+10	1	-1E+10	1	-1E+10	1	-1E+10	1	-1E+10	1	-1E+10	1
4902663	26	C	04/18/2024	04:11	-126.763	48.167	0	672.50	0	4.3370	0	34.2100	0	27.128	0	665.766	0	10.9	4	3.5	4	-1E+10	1	-1E+10	1	-1E+10	1	-1E+10	1	-1E+10	1	-1E+10	1
4902663	26	C	04/18/2024	04:11	-126.763	48.167	0	677.90	0	4.3280	0	34.2110	0	27.130	0	671.103	0	10.7	4	3.4	4	-1E+10	1	-1E+10	1	-1E+10	1	-1E+10	1	-1E+10	1	-1E+10	1
4902663	26	C	04/18/2024	04:11	-126.763	48.167	0	683.30	0	4.3140	0	34.2150	0	27.134	0	676.440	0	10.4	4	3.3	4	-1E+10	1	-1E+10	1	-1E+10	1	-1E+10	1	-1E+10	1	-1E+10	1
4902663	26	C	04/18/2024	04:11	-126.763	48.167	0	688.20	0	4.3060	0	34.2200	0	27.139	0	681.283	0	10.2	4	3.2	4	-1E+10	1	-1E+10	1	-1E+10	1	-1E+10	1	-1E+10	1	-1E+10	1
4902663	26	C	04/18/2024	04:11	-126.763	48.167	0	693.20	0	4.3010	0	34.2230	0	27.142	0	686.224	0	10.0	4	3.2	4	-1E+10	1	-1E+10	1	-1E+10	1	-1E+10	1	-1E+10	1	-1E+10	1
4902663	26	C	04/18/2024	04:11	-126.763	48.167	0	698.20	0	4.2930	0	34.2250	0	27.145	0	691.166	0	9.9	4	3.1	4	-1E+10	1	-1E+10	1	-1E+10	1	-1E+10	1	-1E+10	1	-1E+10	1
4902663	26	C	04/18/2024	04:11	-126.763	48.167	0	703.20	0	4.2880	0	34.2280	0	27.148	0	696.107	0	9.7	4	3.1	4	-1E+10	1	-1E+10	1	-1E+10	1	-1E+10	1	-1E+10	1	-1E+10	1
4902663	26	C	04/18/2024	04:11	-126.763	48.167	0	708.30	0	4.2820	0	34.2300	0	27.150	0	701.147	0	9.5	4	3.0	4	-1E+10	1	-1E+10	1	-1E+10	1	-1E+10	1	-1E+10	1	-1E+10	1
4902663	26	C	04/18/2024	04:11	-126.763	48.167	0	713.30	0	4.2690	0	34.2320	0	27.153	0	706.088	0	9.3	4	3.0	4	-1E+10	1	-1E+10	1	-1E+10	1	-1E+10	1	-1E+10	1	-1E+10	1
4902663	26	C	04/18/2024	04:11	-126.763	48.167	0	717.90	0	4.2570	0	34.2360	0	27.157	0	710.634	0	9.1	4	2.9	4	-1E+10	1	-1E+10	1	-1E+10	1	-1E+10	1	-1E+10	1	-1E+10	1
4902663	26	C	04/18/2024	04:11	-126.763	48.167	0	722.50	0	4.2570	0	34.2400	0	27.161	0	715.179	0	8.8	4	2.8	4	-1E+10	1	-1E+10	1	-1E+10	1	-1E+10	1	-1E+10	1	-1E+10	1
4902663	26	C	04/18/2024	04:11	-126.763	48.167	0	727.50	0	4.2550	0	34.2490	0	27.168	0	720.120	0	8.6	4	2.7	4	-1E+10	1	-1E+10	1	-1E+10	1	-1E+10	1	-1E+10	1	-1E+10	1
4902663	26	C	04/18/2024	04:11	-126.763	48.167	0	732.90	0	4.2420	0	34.2530	0	27.173	0	725.456	0	8.4	4	2.7	4	-1E+10	1	-1E+10	1	-1E+10	1	-1E+10	1	-1E+10	1	-1E+10	1
4902663	26	C	04/18/2024	04:11	-126.763	48.167	0	738.40	0	4.2280	0	34.2550	0	27.176	0	730.890	0	8.3	4	2.7	4	-1E+10	1	-1E+10	1	-1E+10	1	-1E+10	1	-1E+10	1	-1E+10	1
4902663	26	C	04/18/2024	04:11	-126.763	48.167	0	743.40	0	4.2120	0	34.2580	0	27.180	0	735.831	0	8.2	4	2.6	4	-1E+10	1	-1E+10	1	-1E+10	1	-1E+10	1	-1E+10	1	-1E+10	1
4902663	26	C	04/18/2024	04:11	-126.763	48.167	0	748.30	0	4.1960	0	34.2600	0	27.183	0	740.672	0	8.1	4	2.6	4	-1E+10	1	-1E+10	1	-1E+10	1	-1E+10	1	-1E+10	1	-1E+10	1
4902663	26	C	04/18/2024	04:11	-126.763	48.167	0	753.30	0	4.1800	0	34.2640	0	27.188	0	745.612	0	8.0	4	2.5	4	-1E+10	1	-1E+10	1	-1E+10	1	-1E+10	1	-1E+10	1	-1E+10	1
4902663	26	C	04/18/2024	04:11	-126.763	48.167	0	758.20	0	4.1580	0	34.2680	0	27.193	0	750.453	0	7.9	4	2.5	4	-1E+10	1	-1E+10	1	-1E+10	1	-1E+10	1	-1E+10	1	-1E+10	1
4902663	26	C	04/18/2024	04:11	-126.763	48.167	0	763.20	0	4.1470	0	34.2700	0	27.196	0	755.393	0	7.9	4	2.5	4	-1E+10	1	-1E+10	1	-1E+10	1	-1E+10	1	-1E+10	1	-1E+10	1
4902663	26	C	04/18/2024	04:11	-126.763	48.167	0	768.20	0	4.1430	0	34.2710	0	27.197	0	760.333	0	7.8	4	2.5	4	-1E+10	1	-1E+10	1	-1E+10	1	-1E+10	1	-1E+10	1	-1E+10	1
4902663	26	C	04/18/2024	04:11	-126.763	48.167	0	773.30	0	4.1330	0	34.2750	0	27.202	0	765.372	0	7.7	4	2.4	4	-1E+10	1	-1E+10	1	-1E+10	1	-1E+10	1	-1E+10	1	-1E+10	1
4902663	26	C	04/18/2024	04:11	-126.763	48.167	0	778.40	0	4.1240	0	34.2770	0	27.204	0	770.410	0	7.6	4	2.4	4	-1E+10	1	-1E+10	1	-1E+10	1	-1E+10	1	-1E+10	1	-1E+10	1
4902663	26	C	04/18/2024	04:11	-126.763	48.167	0	783.00	0	4.1190	0	34.2800	0	27.207	0	774.954	0	7.5	4	2.4	4	-1E+10	1	-1E+10	1	-1E+10	1	-1E+10	1	-1E+10	1	-1E+10	1
4902663	26	C	04/18/2024	04:11	-126.763	48.167	0	787.60	0	4.1060	0	34.2850	0	27.213	0	779.498	0	7.4	4	2.4	4	-1E+10	1	-1E+10	1	-1E+10	1	-1E+10	1	-1E+10	1	-1E+10	1
4902663	26	C	04/18/2024	04:11	-126.763	48.167	0	792.60	0	4.0860	0	34.2860	0	27.215	0	784.437	0	7.4	4	2.3	4	-1E+10	1	-1E+10	1	-1E+10	1	-1E+10	1	-1E+10	1	-1E+10	1
4902663	26	C	04/18/2024	04:11	-126.763	48.167	0	797.70	0	4.0670	0	34.2920	0	27.222	0	789.475	0	7.3	4	2.3	4	-1E+10	1	-1E+10	1	-1E+10	1	-1E+10	1	-1E+10	1	-1E+10	1
4902663	26	C	04/18/2024	04:11	-126.763	48.167	0	802.80	0	4.0620	0	34.2930	0	27.224	0	794.513	0	7.2	4	2.3	4	-1E+10	1	-1E+10	1	-1E+10	1	-1E+10	1	-1E+10	1	-1E+10	1
4902663	26	C	04/18/2024	04:11	-126.763	48.167	0	807.80	0	4.0470	0	34.2960	0	27.228	0	799.452	0	7.2	4	2.3	4	-1E+10	1	-1E+10	1	-1E+10	1	-1E+10	1	-1E+10	1	-1E+10	1
4902663	26	C	04/18/2024	04:11	-126.763	48.167	0	813.00	0	4.0360	0	34.2970	0	27.230	0	804.588	0	7.2	4	2.3	4	-1E+10	1	-1E+10	1	-1E+10	1	-1E+10	1	-1E+10	1	-1E+10	1
4902663	26	C	04/18/2024	04:11	-126.763	48.167	0	818.10	0	4.0180	0	34.3020	0	27.235	0	809.625	0	7.1	4	2.3	4	-1E+10	1	-1E+10	1	-1E+10	1	-1E+10	1	-1E+10	1	-1E+10	1
4902663	26	C	04/18/2024	04:11	-126.763	48.167	0	822.90	0	3.9950	0	34.3030	0	27.239	0	814.366	0	7.1	4	2.2	4	-1E+10	1	-1E+10	1	-1E+10	1	-1E+10	1	-1E+10	1	-1E+10	1
4902663	26	C	04/18/2024	04:11	-126.763	48.167	0	827.70	0	3.9800	0	34.3050	0	27.242	0	819.107	0	7.0	4	2.2	4	-1E+10	1	-1E+10	1	-1E+10	1	-1E+10	1	-1E+10	1	-1E+10	1
4902663	26	C	04/18/2024	04:11	-126.763	48.167	0	832.60	0	3.9800	0	34.3110	0	27.247	0	823.947	0	6.9	4	2.2	4	-1E+10	1	-1E+10	1	-1E+10	1	-1E+10	1	-1E+10	1	-1E+10	1
4902663	26	C	04/18/2024	04:11	-126.763	48.167	0	837.60	0	3.9590	0	34.3140	0	27.251	0	828.885	0	6.9	4	2.2	4	-1E+10	1	-1E+10	1	-1E+10	1	-1E+10	1	-1E+10	1	-1E+10	1
4902663	26	C	04/18/2024	04:11	-126.763	48.167	0	842.70	0	3.9530	0	34.3160	0	27.253	0	833.922	0	6.9	4	2.2	4	-1E+10	1	-1E+10	1	-1E+10	1	-1E+10	1	-1E+10	1	-1E+10	1
4902663	26	C	04/18/2024	04:11	-126.763	48.167	0	847.80	0	3.9290	0	34.3170	0	27.257	0	838.958	0	7.0	4	2.2	4	-1E+10	1	-1E+10	1	-1E+10	1	-1E+10	1	-1E+10	1	-1E+10	1
4902663	26	C	04/18/2024	04:11	-126.763	48.167	0	853.10	0	3.8920	0	34.3200	0	27.263	0	844.192	0	7.0	4	2.2	4	-1E+10	1	-1E+10	1	-1E+10	1	-1E+10	1	-1E+10	1	-1E+10	1
4902663	26	C	04/18/2024	04:11	-126.763	48.167	0	858.00	0	3.8640	0	34.3240	0	27.269	0	849.031	0	6.9	4	2.2	4	-1E+10	1	-1E+10	1	-1E+10	1	-1E+10	1	-1E+10	1	-1E+10	1
4902663	26	C	04/18/2024	04:11	-126.763	48.167	0	863.00	0	3.8550	0	34.3260	0	27.271	0	853.969	0	6.9	4	2.2	4	-1E+10	1	-1E+10	1	-1E+10	1	-1E+10	1	-1E+10	1	-1E+10	1
4902663	26	C	04/18/2024	04:11	-126.763	48.167	0	868.10	0	3.8570	0	34.3290	0	27.274	0	859.005	0	6.8	4	2.2	4	-1E+10	1	-1E+10	1	-1E+10	1	-1E+10	1	-1E+10	1	-1E+10	1
4902663	26	C	04/18/2024	04:11	-126.763	48.167	0	872.70	0	3.8470	0	34.3330	0	27.278	0	863.547	0	6.8	4	2.2	4	-1E+10	1	-1E+10	1	-1E+10	1	-1E+10	1	-1E+10	1	-1E+10	1
4902663	26	C	04/18/2024	04:11	-126.763	48.167	0	877.90	0	3.8360	0	34.3350	0	27.280	0	868.682	0	6.9	4	2.2	4	-1E+10	1	-1E+10	1	-1E+10	1	-1E+10	1	-1E+10	1	-1E+10	1
4902663	26	C	04/18/2024	04:11	-126.763	48.167	0	883.10	0	3.8230	0	34.3360	0	27.283	0	873.816	0	6.9	4	2.2	4	-1E+10	1	-1E+10	1	-1E+10	1	-1E+10	1	-1E+10	1	-1E+10	1
4902663	26	C	04/18/2024	04:11	-126.763	48.167	0	887.90	0	3.8130	0	34.3390	0	27.286	0	878.556	0	6.9	4	2.2	4	-1E+10	1	-1E+10	1	-1E+10	1	-1E+10	1	-1E+10	1	-1E+10	1
4902663	26	C	04/18/2024	04:11	-126.763	48.167	0	892.90	0	3.7940	0	34.3410	0	27.290	0	883.493	0	6.9	4	2.2	4	-1E+10	1	-1E+10	1	-1E+10	1	-1E+10	1	-1E+10	1	-1E+10	1
4902663	26	C	04/18/2024	04:11	-126.763	48.167	0	897.80	0	3.7760	0	34.3430	0	27.293	0	888.331	0	6.9	4	2.2	4	-1E+10	1	-1E+10	1	-1E+10	1	-1E+10	1	-1E+10	1	-1E+10	1
4902663	26	C	04/18/2024	04:11	-126.763	48.167	0	902.70	0	3.7740	0	34.3470	0	27.296	0	893.168	0	6.9	4	2.2	4	-1E+10	1	-1E+10	1	-1E+10	1	-1E+10	1	-1E+10	1	-1E+10	1
4902663	26	C	04/18/2024	04:11	-126.763	48.167	0	907.70	0	3.7620	0	34.3470	0	27.298	0	898.105	0	7.0	4	2.2	4	-1E+10	1	-1E+10	1	-1E+10	1	-1E+10	1	-1E+10	1	-1E+10	1
4902663	26	C	04/18/2024	04:11	-126.763	48.167	0	912.60	0	3.7440	0	34.3480	0	27.300	0	902.942	0	7.2	4	2.2	4	-1E+10	1	-1E+10	1	-1E+10	1	-1E+10	1	-1E+10	1	-1E+10	1
4902663	26	C	04/18/2024	04:11	-126.763	48.167	0	917.60	0	3.7060	0	34.3480	0	27.304	0	907.879	0	7.2	4	2.3	4	-1E+10	1	-1E+10	1	-1E+10	1	-1E+10	1	-1E+10	1	-1E+10	1
4902663	26	C	04/18/2024	04:11	-126.763	48.167	0	922.60	0	3.6970	0	34.3500	0	27.307	0	912.815	0	7.3	4	2.3	4	-1E+10	1	-1E+10	1	-1E+10	1	-1E+10	1	-1E+10	1	-1E+10	1
4902663	26	C	04/18/2024	04:11	-126.763	48.167	0	927.60	0	3.6770	0	34.3520	0	27.310	0	917.751	0	7.4	4	2.3	4	-1E+10	1	-1E+10	1	-1E+10	1	-1E+10	1	-1E+10	1	-1E+10	1
4902663	26	C	04/18/2024	04:11	-126.763	48.167	0	932.70	0	3.6610	0	34.3510	0	27.311	0	922.786	0	7.4	4	2.3	4	-1E+10	1	-1E+10	1	-1E+10	1	-1E+10	1	-1E+10	1	-1E+10	1
4902663	26	C	04/18/2024	04:11	-126.763	48.167	0	938.00	0	3.6380	0	34.3520	0	27.314	0	928.017	0	7.4	4	2.3	4	-1E+10	1	-1E+10	1	-1E+10	1	-1E+10	1	-1E+10	1	-1E+10	1
4902663	26	C	04/18/2024	04:11	-126.763	48.167	0	943.30	0	3.6460	0	34.3570	0	27.317	0	933.249	0	7.5	4	2.4	4	-1E+10	1	-1E+10	1	-1E+10	1	-1E+10	1	-1E+10	1	-1E+10	1
4902663	26	C	04/18/2024	04:11	-126.763	48.167	0	948.00	0	3.6140	0	34.3550	0	27.319	0	937.889	0	7.6	4	2.4	4	-1E+10	1	-1E+10	1	-1E+10	1	-1E+10	1	-1E+10	1	-1E+10	1
4902663	26	C	04/18/2024	04:11	-126.763	48.167	0	952.80	0	3.6060	0	34.3550	0	27.320	0	942.627	0	7.7	4	2.4	4	-1E+10	1	-1E+10	1	-1E+10	1	-1E+10	1	-1E+10	1	-1E+10	1
4902663	26	C	04/18/2024	04:11	-126.763	48.167	0	958.20	0	3.5630	0	34.3540	0	27.323	0	947.957	0	7.7	4	2.4	4	-1E+10	1	-1E+10	1	-1E+10	1	-1E+10	1	-1E+10	1	-1E+10	1
4902663	26	C	04/18/2024	04:11	-126.763	48.167	0	963.20	0	3.5610	0	34.3550	0	27.324	0	952.892	0	7.8	4	2.4	4	-1E+10	1	-1E+10	1	-1E+10	1	-1E+10	1	-1E+10	1	-1E+10	1
4902663	26	C	04/18/2024	04:11	-126.763	48.167	0	968.10	0	3.5500	0	34.3570	0	27.327	0	957.728	0	7.8	4	2.4	4	-1E+10	1	-1E+10	1	-1E+10	1	-1E+10	1	-1E+10	1	-1E+10	1
4902663	26	C	04/18/2024	04:11	-126.763	48.167	0	973.00	0	3.5430	0	34.3590	0	27.329	0	962.565	0	7.8	4	2.4	4	-1E+10	1	-1E+10	1	-1E+10	1	-1E+10	1	-1E+10	1	-1E+10	1
4902663	26	C	04/18/2024	04:11	-126.763	48.167	0	978.00	0	3.5400	0	34.3600	0	27.330	0	967.499	0	7.8	4	2.4	4	-1E+10	1	-1E+10	1	-1E+10	1	-1E+10	1	-1E+10	1	-1E+10	1
4902663	26	C	04/18/2024	04:11	-126.763	48.167	0	982.90	0	3.5400	0	34.3630	0	27.333	0	972.335	0	7.8	4	2.4	4	-1E+10	1	-1E+10	1	-1E+10	1	-1E+10	1	-1E+10	1	-1E+10	1
4902663	26	C	04/18/2024	04:11	-126.763	48.167	0	987.90	0	3.5330	0	34.3660	0	27.336	0	977.270	0	7.8	4	2.5	4	-1E+10	1	-1E+10	1	-1E+10	1	-1E+10	1	-1E+10	1	-1E+10	1
4902663	26	C	04/18/2024	04:11	-126.763	48.167	0	992.80	0	3.5180	0	34.3700	0	27.340	0	982.106	0	7.9	4	2.5	4	-1E+10	1	-1E+10	1	-1E+10	1	-1E+10	1	-1E+10	1	-1E+10	1
4902663	26	C	04/18/2024	04:11	-126.763	48.167	0	997.70	0	3.5060	0	34.3720	0	27.343	0	986.942	0	7.9	4	2.5	4	-1E+10	1	-1E+10	1	-1E+10	1	-1E+10	1	-1E+10	1	-1E+10	1
4902663	26	C	04/18/2024	04:11	-126.763	48.167	0	1005.40	0	3.4860	0	34.3760	0	27.348	0	994.540	0	8.1	4	2.5	4	-1E+10	1	-1E+10	1	-1E+10	1	-1E+10	1	-1E+10	1	-1E+10	1
4902663	26	C	04/18/2024	04:11	-126.763	48.167	0	1015.20	0	3.4670	0	34.3820	0	27.355	0	1004.211	0	8.2	4	2.5	4	-1E+10	1	-1E+10	1	-1E+10	1	-1E+10	1	-1E+10	1	-1E+10	1
4902663	26	C	04/18/2024	04:11	-126.763	48.167	0	1025.30	0	3.4620	0	34.3900	0	27.362	0	1014.177	0	8.3	4	2.6	4	-1E+10	1	-1E+10	1	-1E+10	1	-1E+10	1	-1E+10	1	-1E+10	1
4902663	26	C	04/18/2024	04:11	-126.763	48.167	0	1035.50	0	3.4290	0	34.3930	0	27.367	0	1024.242	0	8.5	4	2.6	4	-1E+10	1	-1E+10	1	-1E+10	1	-1E+10	1	-1E+10	1	-1E+10	1
4902663	26	C	04/18/2024	04:11	-126.763	48.167	0	1045.50	0	3.4100	0	34.3990	0	27.374	0	1034.108	0	8.7	4	2.7	4	-1E+10	1	-1E+10	1	-1E+10	1	-1E+10	1	-1E+10	1	-1E+10	1
4902663	26	C	04/18/2024	04:11	-126.763	48.167	0	1055.50	0	3.3870	0	34.4020	0	27.379	0	1043.974	0	8.8	4	2.8	4	-1E+10	1	-1E+10	1	-1E+10	1	-1E+10	1	-1E+10	1	-1E+10	1
4902663	26	C	04/18/2024	04:11	-126.763	48.167	0	1065.30	0	3.3580	0	34.4070	0	27.386	0	1053.643	0	9.2	4	2.9	4	-1E+10	1	-1E+10	1	-1E+10	1	-1E+10	1	-1E+10	1	-1E+10	1
4902663	26	C	04/18/2024	04:11	-126.763	48.167	0	1075.40	0	3.3280	0	34.4130	0	27.393	0	1063.607	0	9.5	4	3.0	4	-1E+10	1	-1E+10	1	-1E+10	1	-1E+10	1	-1E+10	1	-1E+10	1
4902663	26	C	04/18/2024	04:11	-126.763	48.167	0	1085.60	0	3.3030	0	34.4190	0	27.400	0	1073.669	0	9.8	4	3.1	4	-1E+10	1	-1E+10	1	-1E+10	1	-1E+10	1	-1E+10	1	-1E+10	1
4902663	26	C	04/18/2024	04:11	-126.763	48.167	0	1095.30	0	3.2800	0	34.4240	0	27.407	0	1083.237	0	10.2	4	3.2	4	-1E+10	1	-1E+10	1	-1E+10	1	-1E+10	1	-1E+10	1	-1E+10	1
4902663	26	C	04/18/2024	04:11	-126.763	48.167	0	1105.30	0	3.2480	0	34.4290	0	27.414	0	1093.101	0	10.4	4	3.2	4	-1E+10	1	-1E+10	1	-1E+10	1	-1E+10	1	-1E+10	1	-1E+10	1
4902663	26	C	04/18/2024	04:11	-126.763	48.167	0	1115.40	0	3.2150	0	34.4310	0	27.418	0	1103.063	0	10.6	4	3.3	4	-1E+10	1	-1E+10	1	-1E+10	1	-1E+10	1	-1E+10	1	-1E+10	1
4902663	26	C	04/18/2024	04:11	-126.763	48.167	0	1125.80	0	3.1900	0	34.4330	0	27.422	0	1113.320	0	10.9	4	3.4	4	-1E+10	1	-1E+10	1	-1E+10	1	-1E+10	1	-1E+10	1	-1E+10	1
4902663	26	C	04/18/2024	04:11	-126.763	48.167	0	1135.40	0	3.1560	0	34.4350	0	27.427	0	1122.788	0	11.3	4	3.5	4	-1E+10	1	-1E+10	1	-1E+10	1	-1E+10	1	-1E+10	1	-1E+10	1
4902663	26	C	04/18/2024	04:11	-126.763	48.167	0	1145.20	0	3.1320	0	34.4420	0	27.435	0	1132.453	0	11.6	4	3.6	4	-1E+10	1	-1E+10	1	-1E+10	1	-1E+10	1	-1E+10	1	-1E+10	1
4902663	26	C	04/18/2024	04:11	-126.763	48.167	0	1155.10	0	3.1110	0	34.4440	0	27.439	0	1142.216	0	11.9	4	3.7	4	-1E+10	1	-1E+10	1	-1E+10	1	-1E+10	1	-1E+10	1	-1E+10	1
4902663	26	C	04/18/2024	04:11	-126.763	48.167	0	1165.20	0	3.0880	0	34.4470	0	27.443	0	1152.176	0	12.1	4	3.8	4	-1E+10	1	-1E+10	1	-1E+10	1	-1E+10	1	-1E+10	1	-1E+10	1
4902663	26	C	04/18/2024	04:11	-126.763	48.167	0	1175.60	0	3.0640	0	34.4500	0	27.448	0	1162.431	0	12.4	4	3.8	4	-1E+10	1	-1E+10	1	-1E+10	1	-1E+10	1	-1E+10	1	-1E+10	1
4902663	26	C	04/18/2024	04:11	-126.763	48.167	0	1185.80	0	3.0540	0	34.4520	0	27.450	0	1172.488	0	12.6	4	3.9	4	-1E+10	1	-1E+10	1	-1E+10	1	-1E+10	1	-1E+10	1	-1E+10	1
4902663	26	C	04/18/2024	04:11	-126.763	48.167	0	1195.70	0	3.0290	0	34.4540	0	27.454	0	1182.249	0	12.9	4	4.0	4	-1E+10	1	-1E+10	1	-1E+10	1	-1E+10	1	-1E+10	1	-1E+10	1
4902663	26	C	04/18/2024	04:11	-126.763	48.167	0	1205.70	0	3.0120	0	34.4560	0	27.457	0	1192.108	0	13.1	4	4.1	4	-1E+10	1	-1E+10	1	-1E+10	1	-1E+10	1	-1E+10	1	-1E+10	1
4902663	26	C	04/18/2024	04:11	-126.763	48.167	0	1215.60	0	2.9950	0	34.4580	0	27.461	0	1201.868	0	13.4	4	4.1	4	-1E+10	1	-1E+10	1	-1E+10	1	-1E+10	1	-1E+10	1	-1E+10	1
4902663	26	C	04/18/2024	04:11	-126.763	48.167	0	1225.30	0	2.9750	0	34.4600	0	27.464	0	1211.431	0	13.7	4	4.2	4	-1E+10	1	-1E+10	1	-1E+10	1	-1E+10	1	-1E+10	1	-1E+10	1
4902663	26	C	04/18/2024	04:11	-126.763	48.167	0	1235.10	0	2.9560	0	34.4620	0	27.467	0	1221.091	0	13.9	4	4.3	4	-1E+10	1	-1E+10	1	-1E+10	1	-1E+10	1	-1E+10	1	-1E+10	1
4902663	26	C	04/18/2024	04:11	-126.763	48.167	0	1245.00	0	2.9410	0	34.4640	0	27.470	0	1230.850	0	14.1	4	4.4	4	-1E+10	1	-1E+10	1	-1E+10	1	-1E+10	1	-1E+10	1	-1E+10	1
4902663	26	C	04/18/2024	04:11	-126.763	48.167	0	1255.40	0	2.9270	0	34.4650	0	27.473	0	1241.101	0	14.3	4	4.4	4	-1E+10	1	-1E+10	1	-1E+10	1	-1E+10	1	-1E+10	1	-1E+10	1
4902663	26	C	04/18/2024	04:11	-126.763	48.167	0	1265.90	0	2.9130	0	34.4670	0	27.475	0	1251.451	0	14.7	4	4.5	4	-1E+10	1	-1E+10	1	-1E+10	1	-1E+10	1	-1E+10	1	-1E+10	1
4902663	26	C	04/18/2024	04:11	-126.763	48.167	0	1275.50	0	2.8860	0	34.4700	0	27.480	0	1260.912	0	15.1	4	4.7	4	-1E+10	1	-1E+10	1	-1E+10	1	-1E+10	1	-1E+10	1	-1E+10	1
4902663	26	C	04/18/2024	04:11	-126.763	48.167	0	1285.30	0	2.8640	0	34.4720	0	27.484	0	1270.571	0	15.5	4	4.8	4	-1E+10	1	-1E+10	1	-1E+10	1	-1E+10	1	-1E+10	1	-1E+10	1
4902663	26	C	04/18/2024	04:11	-126.763	48.167	0	1295.10	0	2.8510	0	34.4730	0	27.486	0	1280.229	0	15.8	4	4.9	4	-1E+10	1	-1E+10	1	-1E+10	1	-1E+10	1	-1E+10	1	-1E+10	1
4902663	26	C	04/18/2024	04:11	-126.763	48.167	0	1305.50	0	2.8340	0	34.4760	0	27.490	0	1290.477	0	16.2	4	5.0	4	-1E+10	1	-1E+10	1	-1E+10	1	-1E+10	1	-1E+10	1	-1E+10	1
4902663	26	C	04/18/2024	04:11	-126.763	48.167	0	1315.50	0	2.8180	0	34.4770	0	27.492	0	1300.331	0	16.6	4	5.1	4	-1E+10	1	-1E+10	1	-1E+10	1	-1E+10	1	-1E+10	1	-1E+10	1
4902663	26	C	04/18/2024	04:11	-126.763	48.167	0	1325.10	0	2.7970	0	34.4800	0	27.496	0	1309.791	0	17.2	4	5.3	4	-1E+10	1	-1E+10	1	-1E+10	1	-1E+10	1	-1E+10	1	-1E+10	1
4902663	26	C	04/18/2024	04:11	-126.763	48.167	0	1335.30	0	2.7770	0	34.4830	0	27.501	0	1319.841	0	17.8	4	5.5	4	-1E+10	1	-1E+10	1	-1E+10	1	-1E+10	1	-1E+10	1	-1E+10	1
4902663	26	C	04/18/2024	04:11	-126.763	48.167	0	1345.50	0	2.7620	0	34.4860	0	27.504	0	1329.891	0	18.7	4	5.7	4	-1E+10	1	-1E+10	1	-1E+10	1	-1E+10	1	-1E+10	1	-1E+10	1
4902663	26	C	04/18/2024	04:11	-126.763	48.167	0	1355.30	0	2.7570	0	34.4910	0	27.509	0	1339.546	0	19.4	4	5.9	4	-1E+10	1	-1E+10	1	-1E+10	1	-1E+10	1	-1E+10	1	-1E+10	1
4902663	26	C	04/18/2024	04:11	-126.763	48.167	0	1365.10	0	2.7410	0	34.4920	0	27.511	0	1349.201	0	19.7	4	6.0	4	-1E+10	1	-1E+10	1	-1E+10	1	-1E+10	1	-1E+10	1	-1E+10	1
4902663	26	C	04/18/2024	04:11	-126.763	48.167	0	1375.20	0	2.7190	0	34.4950	0	27.515	0	1359.151	0	20.0	4	6.1	4	-1E+10	1	-1E+10	1	-1E+10	1	-1E+10	1	-1E+10	1	-1E+10	1
4902663	26	C	04/18/2024	04:11	-126.763	48.167	0	1385.40	0	2.7050	0	34.4960	0	27.518	0	1369.198	0	20.6	4	6.3	4	-1E+10	1	-1E+10	1	-1E+10	1	-1E+10	1	-1E+10	1	-1E+10	1
4902663	26	C	04/18/2024	04:11	-126.763	48.167	0	1395.50	0	2.6850	0	34.4990	0	27.522	0	1379.147	0	21.3	4	6.5	4	-1E+10	1	-1E+10	1	-1E+10	1	-1E+10	1	-1E+10	1	-1E+10	1
4902663	26	C	04/18/2024	04:11	-126.763	48.167	0	1405.50	0	2.6580	0	34.5020	0	27.526	0	1388.997	0	21.8	4	6.7	4	-1E+10	1	-1E+10	1	-1E+10	1	-1E+10	1	-1E+10	1	-1E+10	1
4902663	26	C	04/18/2024	04:11	-126.763	48.167	0	1415.60	0	2.6380	0	34.5030	0	27.529	0	1398.945	0	22.1	4	6.8	4	-1E+10	1	-1E+10	1	-1E+10	1	-1E+10	1	-1E+10	1	-1E+10	1
4902663	26	C	04/18/2024	04:11	-126.763	48.167	0	1425.50	0	2.6050	0	34.5040	0	27.533	0	1408.696	0	22.6	4	6.9	4	-1E+10	1	-1E+10	1	-1E+10	1	-1E+10	1	-1E+10	1	-1E+10	1
4902663	26	C	04/18/2024	04:11	-126.763	48.167	0	1435.40	0	2.5860	0	34.5060	0	27.536	0	1418.446	0	23.1	4	7.0	4	-1E+10	1	-1E+10	1	-1E+10	1	-1E+10	1	-1E+10	1	-1E+10	1
4902663	26	C	04/18/2024	04:11	-126.763	48.167	0	1445.40	0	2.5710	0	34.5080	0	27.539	0	1428.294	0	23.5	4	7.2	4	-1E+10	1	-1E+10	1	-1E+10	1	-1E+10	1	-1E+10	1	-1E+10	1
4902663	26	C	04/18/2024	04:11	-126.763	48.167	0	1455.30	0	2.5560	0	34.5090	0	27.541	0	1438.043	0	23.8	4	7.3	4	-1E+10	1	-1E+10	1	-1E+10	1	-1E+10	1	-1E+10	1	-1E+10	1
4902663	26	C	04/18/2024	04:11	-126.763	48.167	0	1465.70	0	2.5450	0	34.5100	0	27.543	0	1448.284	0	24.3	4	7.4	4	-1E+10	1	-1E+10	1	-1E+10	1	-1E+10	1	-1E+10	1	-1E+10	1
4902663	26	C	04/18/2024	04:11	-126.763	48.167	0	1475.50	0	2.5200	0	34.5130	0	27.547	0	1457.934	0	24.9	4	7.6	4	-1E+10	1	-1E+10	1	-1E+10	1	-1E+10	1	-1E+10	1	-1E+10	1
4902663	26	C	04/18/2024	04:11	-126.763	48.167	0	1485.60	0	2.4990	0	34.5140	0	27.550	0	1467.878	0	25.4	4	7.7	4	-1E+10	1	-1E+10	1	-1E+10	1	-1E+10	1	-1E+10	1	-1E+10	1
4902663	26	C	04/18/2024	04:11	-126.763	48.167	0	1495.70	0	2.4820	0	34.5160	0	27.553	0	1477.823	0	26.0	4	7.9	4	-1E+10	1	-1E+10	1	-1E+10	1	-1E+10	1	-1E+10	1	-1E+10	1
4902663	26	C	04/18/2024	04:11	-126.763	48.167	0	1505.40	0	2.4580	0	34.5180	0	27.557	0	1487.373	0	26.7	4	8.1	4	-1E+10	1	-1E+10	1	-1E+10	1	-1E+10	1	-1E+10	1	-1E+10	1
4902663	26	C	04/18/2024	04:11	-126.763	48.167	0	1515.40	0	2.4420	0	34.5200	0	27.560	0	1497.218	0	27.2	4	8.3	4	-1E+10	1	-1E+10	1	-1E+10	1	-1E+10	1	-1E+10	1	-1E+10	1
4902663	26	C	04/18/2024	04:11	-126.763	48.167	0	1525.50	0	2.4260	0	34.5220	0	27.563	0	1507.160	0	27.7	4	8.4	4	-1E+10	1	-1E+10	1	-1E+10	1	-1E+10	1	-1E+10	1	-1E+10	1
4902663	26	C	04/18/2024	04:11	-126.763	48.167	0	1535.20	0	2.4120	0	34.5230	0	27.565	0	1516.709	0	28.1	4	8.5	4	-1E+10	1	-1E+10	1	-1E+10	1	-1E+10	1	-1E+10	1	-1E+10	1
4902663	26	C	04/18/2024	04:11	-126.763	48.167	0	1545.50	0	2.4020	0	34.5240	0	27.566	0	1526.848	0	28.5	4	8.7	4	-1E+10	1	-1E+10	1	-1E+10	1	-1E+10	1	-1E+10	1	-1E+10	1
4902663	26	C	04/18/2024	04:11	-126.763	48.167	0	1555.60	0	2.3890	0	34.5260	0	27.569	0	1536.789	0	28.9	4	8.8	4	-1E+10	1	-1E+10	1	-1E+10	1	-1E+10	1	-1E+10	1	-1E+10	1
4902663	26	C	04/18/2024	04:11	-126.763	48.167	0	1565.30	0	2.3800	0	34.5270	0	27.571	0	1546.336	0	29.3	4	8.9	4	-1E+10	1	-1E+10	1	-1E+10	1	-1E+10	1	-1E+10	1	-1E+10	1
4902663	26	C	04/18/2024	04:11	-126.763	48.167	0	1575.40	0	2.3650	0	34.5290	0	27.574	0	1556.277	0	30.0	4	9.1	4	-1E+10	1	-1E+10	1	-1E+10	1	-1E+10	1	-1E+10	1	-1E+10	1
4902663	26	C	04/18/2024	04:11	-126.763	48.167	0	1585.70	0	2.3490	0	34.5310	0	27.576	0	1566.414	0	30.5	4	9.3	4	-1E+10	1	-1E+10	1	-1E+10	1	-1E+10	1	-1E+10	1	-1E+10	1
4902663	26	C	04/18/2024	04:11	-126.763	48.167	0	1595.60	0	2.3380	0	34.5320	0	27.578	0	1576.157	0	31.1	4	9.4	4	-1E+10	1	-1E+10	1	-1E+10	1	-1E+10	1	-1E+10	1	-1E+10	1
4902663	26	C	04/18/2024	04:11	-126.763	48.167	0	1605.40	0	2.3240	0	34.5340	0	27.581	0	1585.801	0	31.7	4	9.6	4	-1E+10	1	-1E+10	1	-1E+10	1	-1E+10	1	-1E+10	1	-1E+10	1
4902663	26	C	04/18/2024	04:11	-126.763	48.167	0	1615.20	0	2.3170	0	34.5360	0	27.583	0	1595.444	0	32.4	4	9.8	4	-1E+10	1	-1E+10	1	-1E+10	1	-1E+10	1	-1E+10	1	-1E+10	1
4902663	26	C	04/18/2024	04:11	-126.763	48.167	0	1625.20	0	2.3010	0	34.5390	0	27.587	0	1605.284	0	34.1	4	10.4	4	-1E+10	1	-1E+10	1	-1E+10	1	-1E+10	1	-1E+10	1	-1E+10	1
4902663	26	C	04/18/2024	04:11	-126.763	48.167	0	1635.40	0	2.2900	0	34.5470	0	27.594	0	1615.320	0	35.8	4	10.9	4	-1E+10	1	-1E+10	1	-1E+10	1	-1E+10	1	-1E+10	1	-1E+10	1
4902663	26	C	04/18/2024	04:11	-126.763	48.167	0	1645.70	0	2.2680	0	34.5490	0	27.598	0	1625.454	0	36.2	4	11.0	4	-1E+10	1	-1E+10	1	-1E+10	1	-1E+10	1	-1E+10	1	-1E+10	1
4902663	26	C	04/18/2024	04:11	-126.763	48.167	0	1655.40	0	2.2400	0	34.5500	0	27.601	0	1634.997	0	36.8	4	11.1	4	-1E+10	1	-1E+10	1	-1E+10	1	-1E+10	1	-1E+10	1	-1E+10	1
4902663	26	C	04/18/2024	04:11	-126.763	48.167	0	1665.30	0	2.2320	0	34.5510	0	27.602	0	1644.737	0	37.5	4	11.4	4	-1E+10	1	-1E+10	1	-1E+10	1	-1E+10	1	-1E+10	1	-1E+10	1
4902663	26	C	04/18/2024	04:11	-126.763	48.167	0	1675.60	0	2.2220	0	34.5540	0	27.606	0	1654.869	0	38.2	4	11.6	4	-1E+10	1	-1E+10	1	-1E+10	1	-1E+10	1	-1E+10	1	-1E+10	1
4902663	26	C	04/18/2024	04:11	-126.763	48.167	0	1685.60	0	2.2210	0	34.5560	0	27.607	0	1664.706	0	38.4	4	11.7	4	-1E+10	1	-1E+10	1	-1E+10	1	-1E+10	1	-1E+10	1	-1E+10	1
4902663	26	C	04/18/2024	04:11	-126.763	48.167	0	1695.60	0	2.2120	0	34.5560	0	27.608	0	1674.543	0	38.7	4	11.7	4	-1E+10	1	-1E+10	1	-1E+10	1	-1E+10	1	-1E+10	1	-1E+10	1
4902663	26	C	04/18/2024	04:11	-126.763	48.167	0	1705.50	0	2.2080	0	34.5560	0	27.609	0	1684.281	0	39.0	4	11.8	4	-1E+10	1	-1E+10	1	-1E+10	1	-1E+10	1	-1E+10	1	-1E+10	1
4902663	26	C	04/18/2024	04:11	-126.763	48.167	0	1715.40	0	2.1870	0	34.5580	0	27.612	0	1694.018	0	39.6	4	12.0	4	-1E+10	1	-1E+10	1	-1E+10	1	-1E+10	1	-1E+10	1	-1E+10	1
4902663	26	C	04/18/2024	04:11	-126.763	48.167	0	1725.50	0	2.1750	0	34.5590	0	27.614	0	1703.952	0	39.9	4	12.1	4	-1E+10	1	-1E+10	1	-1E+10	1	-1E+10	1	-1E+10	1	-1E+10	1
4902663	26	C	04/18/2024	04:11	-126.763	48.167	0	1735.30	0	2.1740	0	34.5590	0	27.614	0	1713.590	0	40.3	4	12.2	4	-1E+10	1	-1E+10	1	-1E+10	1	-1E+10	1	-1E+10	1	-1E+10	1
4902663	26	C	04/18/2024	04:11	-126.763	48.167	0	1745.10	0	2.1660	0	34.5610	0	27.616	0	1723.227	0	41.0	4	12.4	4	-1E+10	1	-1E+10	1	-1E+10	1	-1E+10	1	-1E+10	1	-1E+10	1
4902663	26	C	04/18/2024	04:11	-126.763	48.167	0	1755.10	0	2.1550	0	34.5630	0	27.619	0	1733.061	0	41.6	4	12.6	4	-1E+10	1	-1E+10	1	-1E+10	1	-1E+10	1	-1E+10	1	-1E+10	1
4902663	26	C	04/18/2024	04:11	-126.763	48.167	0	1765.20	0	2.1470	0	34.5640	0	27.620	0	1742.993	0	42.2	4	12.8	4	-1E+10	1	-1E+10	1	-1E+10	1	-1E+10	1	-1E+10	1	-1E+10	1
4902663	26	C	04/18/2024	04:11	-126.763	48.167	0	1775.20	0	2.1440	0	34.5670	0	27.623	0	1752.826	0	42.4	4	12.8	4	-1E+10	1	-1E+10	1	-1E+10	1	-1E+10	1	-1E+10	1	-1E+10	1
4902663	26	C	04/18/2024	04:11	-126.763	48.167	0	1785.40	0	2.1430	0	34.5670	0	27.623	0	1762.855	0	42.7	4	12.9	4	-1E+10	1	-1E+10	1	-1E+10	1	-1E+10	1	-1E+10	1	-1E+10	1
4902663	26	C	04/18/2024	04:11	-126.763	48.167	0	1795.60	0	2.1410	0	34.5670	0	27.623	0	1772.884	0	43.2	4	13.1	4	-1E+10	1	-1E+10	1	-1E+10	1	-1E+10	1	-1E+10	1	-1E+10	1
4902663	26	C	04/18/2024	04:11	-126.763	48.167	0	1805.30	0	2.1370	0	34.5690	0	27.625	0	1782.420	0	43.9	4	13.3	4	-1E+10	1	-1E+10	1	-1E+10	1	-1E+10	1	-1E+10	1	-1E+10	1
4902663	26	C	04/18/2024	04:11	-126.763	48.167	0	1815.10	0	2.1230	0	34.5720	0	27.629	0	1792.055	0	44.8	4	13.5	4	-1E+10	1	-1E+10	1	-1E+10	1	-1E+10	1	-1E+10	1	-1E+10	1
4902663	26	C	04/18/2024	04:11	-126.763	48.167	0	1825.50	0	2.1110	0	34.5740	0	27.631	0	1802.279	0	45.4	4	13.7	4	-1E+10	1	-1E+10	1	-1E+10	1	-1E+10	1	-1E+10	1	-1E+10	1
4902663	26	C	04/18/2024	04:11	-126.763	48.167	0	1835.40	0	2.0980	0	34.5760	0	27.634	0	1812.011	0	46.0	4	13.9	4	-1E+10	1	-1E+10	1	-1E+10	1	-1E+10	1	-1E+10	1	-1E+10	1
4902663	26	C	04/18/2024	04:11	-126.763	48.167	0	1845.50	0	2.0860	0	34.5770	0	27.636	0	1821.939	0	46.5	4	14.0	4	-1E+10	1	-1E+10	1	-1E+10	1	-1E+10	1	-1E+10	1	-1E+10	1
4902663	26	C	04/18/2024	04:11	-126.763	48.167	0	1855.70	0	2.0700	0	34.5780	0	27.638	0	1831.964	0	46.9	4	14.2	4	-1E+10	1	-1E+10	1	-1E+10	1	-1E+10	1	-1E+10	1	-1E+10	1
4902663	26	C	04/18/2024	04:11	-126.763	48.167	0	1865.40	0	2.0520	0	34.5780	0	27.639	0	1841.498	0	47.3	4	14.3	4	-1E+10	1	-1E+10	1	-1E+10	1	-1E+10	1	-1E+10	1	-1E+10	1
4902663	26	C	04/18/2024	04:11	-126.763	48.167	0	1875.20	0	2.0310	0	34.5780	0	27.641	0	1851.130	0	48.0	4	14.5	4	-1E+10	1	-1E+10	1	-1E+10	1	-1E+10	1	-1E+10	1	-1E+10	1
4902663	26	C	04/18/2024	04:11	-126.763	48.167	0	1885.50	0	2.0140	0	34.5790	0	27.643	0	1861.253	0	48.6	4	14.7	4	-1E+10	1	-1E+10	1	-1E+10	1	-1E+10	1	-1E+10	1	-1E+10	1
4902663	26	C	04/18/2024	04:11	-126.763	48.167	0	1895.40	0	2.0050	0	34.5810	0	27.646	0	1870.982	0	49.3	4	14.9	4	-1E+10	1	-1E+10	1	-1E+10	1	-1E+10	1	-1E+10	1	-1E+10	1
4902663	26	C	04/18/2024	04:11	-126.763	48.167	0	1905.20	0	1.9990	0	34.5830	0	27.648	0	1880.613	0	49.9	4	15.0	4	-1E+10	1	-1E+10	1	-1E+10	1	-1E+10	1	-1E+10	1	-1E+10	1
4902663	26	C	04/18/2024	04:11	-126.763	48.167	0	1915.50	0	1.9940	0	34.5850	0	27.650	0	1890.734	0	50.4	4	15.2	4	-1E+10	1	-1E+10	1	-1E+10	1	-1E+10	1	-1E+10	1	-1E+10	1
4902663	26	C	04/18/2024	04:11	-126.763	48.167	0	1925.30	0	1.9910	0	34.5860	0	27.651	0	1900.364	0	50.8	4	15.3	4	-1E+10	1	-1E+10	1	-1E+10	1	-1E+10	1	-1E+10	1	-1E+10	1
4902663	26	C	04/18/2024	04:11	-126.763	48.167	0	1935.30	0	1.9810	0	34.5870	0	27.653	0	1910.189	0	51.6	4	15.5	4	-1E+10	1	-1E+10	1	-1E+10	1	-1E+10	1	-1E+10	1	-1E+10	1
4902663	26	C	04/18/2024	04:11	-126.763	48.167	0	1945.50	0	1.9650	0	34.5890	0	27.655	0	1920.211	0	52.3	4	15.7	4	-1E+10	1	-1E+10	1	-1E+10	1	-1E+10	1	-1E+10	1	-1E+10	1
4902663	26	C	04/18/2024	04:11	-126.763	48.167	0	1955.50	0	1.9560	0	34.5900	0	27.657	0	1930.036	0	52.8	4	15.9	4	-1E+10	1	-1E+10	1	-1E+10	1	-1E+10	1	-1E+10	1	-1E+10	1
4902663	26	C	04/18/2024	04:11	-126.763	48.167	0	1965.50	0	1.9460	0	34.5910	0	27.659	0	1939.860	0	53.5	4	16.1	4	-1E+10	1	-1E+10	1	-1E+10	1	-1E+10	1	-1E+10	1	-1E+10	1
4902663	26	C	04/18/2024	04:11	-126.763	48.167	0	1975.40	0	1.9400	0	34.5930	0	27.661	0	1949.585	0	54.0	4	16.2	4	-1E+10	1	-1E+10	1	-1E+10	1	-1E+10	1	-1E+10	1	-1E+10	1
4902663	26	C	04/18/2024	04:11	-126.763	48.167	0	1985.30	0	1.9320	0	34.5940	0	27.662	0	1959.311	0	54.5	4	16.4	4	-1E+10	1	-1E+10	1	-1E+10	1	-1E+10	1	-1E+10	1	-1E+10	1
4902663	26	C	04/18/2024	04:11	-126.763	48.167	0	1995.20	0	1.9260	0	34.5950	0	27.663	0	1969.035	0	54.9	4	16.5	4	-1E+10	1	-1E+10	1	-1E+10	1	-1E+10	1	-1E+10	1	-1E+10	1
4902663	26	C	04/18/2024	04:11	-126.763	48.167	0	2005.20	0	1.9200	0	34.5970	0	27.666	0	1978.858	0	55.4	4	16.7	4	-1E+10	1	-1E+10	1	-1E+10	1	-1E+10	1	-1E+10	1	-1E+10	1
4902663	26	C	04/18/2024	04:11	-126.763	48.167	0	2015.50	0	1.9110	0	34.5990	0	27.668	0	1988.974	0	56.0	4	16.8	4	-1E+10	1	-1E+10	1	-1E+10	1	-1E+10	1	-1E+10	1	-1E+10	1
4902663	26	C	04/18/2024	04:11	-126.763	48.167	0	2022.40	0	1.9050	0	34.6000	0	27.669	0	1995.751	0	56.0	4	16.9	4	-1E+10	1	-1E+10	1	-1E+10	1	-1E+10	1	-1E+10	1	-1E+10	1
4902663	26	C	04/18/2024	04:11	-126.763	48.167	0																										
4902663	27	C	04/27/2024	23:14	-127.130	48.109	0	0.10	0	10.5850	0	31.5380	0	24.153	0	0.099	0	281.4	4	101.2	4	-1E+10	1	-1E+10	1	-1E+10	1	-1E+10	1	-1E+10	1	-1E+10	1
4902663	27	C	04/27/2024	23:14	-127.130	48.109	0	0.20	0	10.5680	0	31.5320	0	24.151	0	0.198	0	274.7	4	98.8	4	-1E+10	1	-1E+10	1	-1E+10	1	-1E+10	1	-1E+10	1	-1E+10	1
4902663	27	C	04/27/2024	23:14	-127.130	48.109	0	1.10	0	10.5670	0	31.5330	0	24.152	0	1.091	0	273.9	4	98.5	4	-1E+10	1	-1E+10	1	-1E+10	1	-1E+10	1	-1E+10	1	-1E+10	1
4902663	27	C	04/27/2024	23:14	-127.130	48.109	0	2.10	0	10.5660	0	31.5350	0	24.154	0	2.082	0	273.9	4	98.5	4	-1E+10	1	-1E+10	1	-1E+10	1	-1E+10	1	-1E+10	1	-1E+10	1
4902663	27	C	04/27/2024	23:14	-127.130	48.109	0	2.80	0	10.5710	0	31.5300	0	24.149	0	2.776	0	273.7	4	98.4	4	-1E+10	1	-1E+10	1	-1E+10	1	-1E+10	1	-1E+10	1	-1E+10	1
4902663	27	C	04/27/2024	23:14	-127.130	48.109	0	3.70	0	10.5660	0	31.5340	0	24.153	0	3.669	0	273.6	4	98.4	4	-1E+10	1	-1E+10	1	-1E+10	1	-1E+10	1	-1E+10	1	-1E+10	1
4902663	27	C	04/27/2024	23:14	-127.130	48.109	0	4.60	0	10.5660	0	31.5360	0	24.154	0	4.561	0	273.3	4	98.3	4	-1E+10	1	-1E+10	1	-1E+10	1	-1E+10	1	-1E+10	1	-1E+10	1
4902663	27	C	04/27/2024	23:14	-127.130	48.109	0	5.60	0	10.5660	0	31.5340	0	24.153	0	5.553	0	273.4	4	98.3	4	-1E+10	1	-1E+10	1	-1E+10	1	-1E+10	1	-1E+10	1	-1E+10	1
4902663	27	C	04/27/2024	23:14	-127.130	48.109	0	6.90	0	10.5670	0	31.5350	0	24.154	0	6.842	0	273.3	4	98.3	4	-1E+10	1	-1E+10	1	-1E+10	1	-1E+10	1	-1E+10	1	-1E+10	1
4902663	27	C	04/27/2024	23:14	-127.130	48.109	0	8.30	0	10.5660	0	31.5350	0	24.154	0	8.230	0	273.2	4	98.2	4	-1E+10	1	-1E+10	1	-1E+10	1	-1E+10	1	-1E+10	1	-1E+10	1
4902663	27	C	04/27/2024	23:14	-127.130	48.109	0	9.20	0	10.5660	0	31.5350	0	24.154	0	9.123	0	273.3	4	98.3	4	-1E+10	1	-1E+10	1	-1E+10	1	-1E+10	1	-1E+10	1	-1E+10	1
4902663	27	C	04/27/2024	23:14	-127.130	48.109	0	10.00	0	10.5620	0	31.5390	0	24.158	0	9.916	0	273.3	4	98.3	4	-1E+10	1	-1E+10	1	-1E+10	1	-1E+10	1	-1E+10	1	-1E+10	1
4902663	27	C	04/27/2024	23:14	-127.130	48.109	0	10.90	0	10.5670	0	31.5350	0	24.154	0	10.808	0	273.3	4	98.3	4	-1E+10	1	-1E+10	1	-1E+10	1	-1E+10	1	-1E+10	1	-1E+10	1
4902663	27	C	04/27/2024	23:14	-127.130	48.109	0	12.00	0	10.5530	0	31.5350	0	24.156	0	11.899	0	273.3	4	98.3	4	-1E+10	1	-1E+10	1	-1E+10	1	-1E+10	1	-1E+10	1	-1E+10	1
4902663	27	C	04/27/2024	23:14	-127.130	48.109	0	13.00	0	10.5440	0	31.5390	0	24.161	0	12.890	0	273.3	4	98.2	4	-1E+10	1	-1E+10	1	-1E+10	1	-1E+10	1	-1E+10	1	-1E+10	1
4902663	27	C	04/27/2024	23:14	-127.130	48.109	0	14.10	0	10.5420	0	31.5370	0	24.160	0	13.981	0	273.3	4	98.2	4	-1E+10	1	-1E+10	1	-1E+10	1	-1E+10	1	-1E+10	1	-1E+10	1
4902663	27	C	04/27/2024	23:14	-127.130	48.109	0	15.30	0	10.5510	0	31.5380	0	24.159	0	15.171	0	273.2	4	98.2	4	-1E+10	1	-1E+10	1	-1E+10	1	-1E+10	1	-1E+10	1	-1E+10	1
4902663	27	C	04/27/2024	23:14	-127.130	48.109	0	16.30	0	10.5180	0	31.5390	0	24.165	0	16.162	0	272.9	4	98.0	4	-1E+10	1	-1E+10	1	-1E+10	1	-1E+10	1	-1E+10	1	-1E+10	1
4902663	27	C	04/27/2024	23:14	-127.130	48.109	0	17.40	0	10.5150	0	31.5420	0	24.168	0	17.253	0	273.0	4	98.1	4	-1E+10	1	-1E+10	1	-1E+10	1	-1E+10	1	-1E+10	1	-1E+10	1
4902663	27	C	04/27/2024	23:14	-127.130	48.109	0	18.20	0	10.5130	0	31.5410	0	24.168	0	18.046	0	273.0	4	98.1	4	-1E+10	1	-1E+10	1	-1E+10	1	-1E+10	1	-1E+10	1	-1E+10	1
4902663	27	C	04/27/2024	23:14	-127.130	48.109	0	19.00	0	10.5110	0	31.5410	0	24.168	0	18.840	0	272.8	4	98.0	4	-1E+10	1	-1E+10	1	-1E+10	1	-1E+10	1	-1E+10	1	-1E+10	1
4902663	27	C	04/27/2024	23:14	-127.130	48.109	0	19.70	0	10.5100	0	31.5410	0	24.168	0	19.534	0	272.7	4	97.9	4	-1E+10	1	-1E+10	1	-1E+10	1	-1E+10	1	-1E+10	1	-1E+10	1
4902663	27	C	04/27/2024	23:14	-127.130	48.109	0	20.90	0	10.5040	0	31.5420	0	24.170	0	20.723	0	272.5	4	97.9	4	-1E+10	1	-1E+10	1	-1E+10	1	-1E+10	1	-1E+10	1	-1E+10	1
4902663	27	C	04/27/2024	23:14	-127.130	48.109	0	22.00	0	10.5000	0	31.5450	0	24.173	0	21.814	0	272.1	4	97.7	4	-1E+10	1	-1E+10	1	-1E+10	1	-1E+10	1	-1E+10	1	-1E+10	1
4902663	27	C	04/27/2024	23:14	-127.130	48.109	0	22.80	0	10.4770	0	31.5510	0	24.182	0	22.607	0	271.9	4	97.6	4	-1E+10	1	-1E+10	1	-1E+10	1	-1E+10	1	-1E+10	1	-1E+10	1
4902663	27	C	04/27/2024	23:14	-127.130	48.109	0	23.80	0	10.4620	0	31.5530	0	24.186	0	23.599	0	271.4	4	97.4	4	-1E+10	1	-1E+10	1	-1E+10	1	-1E+10	1	-1E+10	1	-1E+10	1
4902663	27	C	04/27/2024	23:14	-127.130	48.109	0	24.90	0	10.4420	0	31.5610	0	24.195	0	24.689	0	270.6	4	97.1	4	-1E+10	1	-1E+10	1	-1E+10	1	-1E+10	1	-1E+10	1	-1E+10	1
4902663	27	C	04/27/2024	23:14	-127.130	48.109	0	25.90	0	10.3990	0	31.5710	0	24.210	0	25.681	0	268.9	4	96.4	4	-1E+10	1	-1E+10	1	-1E+10	1	-1E+10	1	-1E+10	1	-1E+10	1
4902663	27	C	04/27/2024	23:14	-127.130	48.109	0	27.10	0	10.3460	0	31.6860	0	24.309	0	26.871	0	266.4	4	95.4	4	-1E+10	1	-1E+10	1	-1E+10	1	-1E+10	1	-1E+10	1	-1E+10	1
4902663	27	C	04/27/2024	23:14	-127.130	48.109	0	28.10	0	10.3200	0	31.7840	0	24.390	0	27.862	0	263.5	4	94.4	4	-1E+10	1	-1E+10	1	-1E+10	1	-1E+10	1	-1E+10	1	-1E+10	1
4902663	27	C	04/27/2024	23:14	-127.130	48.109	0	29.00	0	10.2640	0	31.7990	0	24.411	0	28.754	0	261.3	4	93.5	4	-1E+10	1	-1E+10	1	-1E+10	1	-1E+10	1	-1E+10	1	-1E+10	1
4902663	27	C	04/27/2024	23:14	-127.130	48.109	0	29.90	0	10.1970	0	31.8630	0	24.472	0	29.647	0	258.8	4	92.5	4	-1E+10	1	-1E+10	1	-1E+10	1	-1E+10	1	-1E+10	1	-1E+10	1
4902663	27	C	04/27/2024	23:14	-127.130	48.109	0	30.90	0	10.1210	0	31.9360	0	24.541	0	30.638	0	257.1	4	91.8	4	-1E+10	1	-1E+10	1	-1E+10	1	-1E+10	1	-1E+10	1	-1E+10	1
4902663	27	C	04/27/2024	23:14	-127.130	48.109	0	32.00	0	10.0460	0	32.0270	0	24.625	0	31.729	0	256.3	4	91.4	4	-1E+10	1	-1E+10	1	-1E+10	1	-1E+10	1	-1E+10	1	-1E+10	1
4902663	27	C	04/27/2024	23:14	-127.130	48.109	0	33.30	0	9.9540	0	32.1090	0	24.704	0	33.018	0	255.4	4	91.0	4	-1E+10	1	-1E+10	1	-1E+10	1	-1E+10	1	-1E+10	1	-1E+10	1
4902663	27	C	04/27/2024	23:14	-127.130	48.109	0	34.10	0	9.9160	0	32.1390	0	24.734	0	33.811	0	254.9	4	90.8	4	-1E+10	1	-1E+10	1	-1E+10	1	-1E+10	1	-1E+10	1	-1E+10	1
4902663	27	C	04/27/2024	23:14	-127.130	48.109	0	34.90	0	9.8980	0	32.1490	0	24.744	0	34.604	0	254.0	4	90.4	4	-1E+10	1	-1E+10	1	-1E+10	1	-1E+10	1	-1E+10	1	-1E+10	1
4902663	27	C	04/27/2024	23:14	-127.130	48.109	0	35.90	0	9.8110	0	32.2040	0	24.801	0	35.595	0	252.8	4	89.9	4	-1E+10	1	-1E+10	1	-1E+10	1	-1E+10	1	-1E+10	1	-1E+10	1
4902663	27	C	04/27/2024	23:14	-127.130	48.109	0	36.80	0	9.8100	0	32.2480	0	24.836	0	36.488	0	253.3	4	90.1	4	-1E+10	1	-1E+10	1	-1E+10	1	-1E+10	1	-1E+10	1	-1E+10	1
4902663	27	C	04/27/2024	23:14	-127.130	48.109	0	37.70	0	9.7480	0	32.2680	0	24.862	0	37.380	0	254.3	4	90.3	4	-1E+10	1	-1E+10	1	-1E+10	1	-1E+10	1	-1E+10	1	-1E+10	1
4902663	27	C	04/27/2024	23:14	-127.130	48.109	0	38.60	0	9.7240	0	32.2750	0	24.871	0	38.272	0	255.2	4	90.6	4	-1E+10	1	-1E+10	1	-1E+10	1	-1E+10	1	-1E+10	1	-1E+10	1
4902663	27	C	04/27/2024	23:14	-127.130	48.109	0	39.60	0	9.6850	0	32.2780	0	24.880	0	39.264	0	256.0	4	90.8	4	-1E+10	1	-1E+10	1	-1E+10	1	-1E+10	1	-1E+10	1	-1E+10	1
4902663	27	C	04/27/2024	23:14	-127.130	48.109	0	40.90	0	9.6540	0	32.2790	0	24.886	0	40.552	0	257.2	4	91.2	4	-1E+10	1	-1E+10	1	-1E+10	1	-1E+10	1	-1E+10	1	-1E+10	1
4902663	27	C	04/27/2024	23:14	-127.130	48.109	0	42.40	0	9.5990	0	32.2830	0	24.898	0	42.039	0	258.1	4	91.4	4	-1E+10	1	-1E+10	1	-1E+10	1	-1E+10	1	-1E+10	1	-1E+10	1
4902663	27	C	04/27/2024	23:14	-127.130	48.109	0	43.40	0	9.5430	0	32.2950	0	24.916	0	43.031	0	258.6	4	91.4	4	-1E+10	1	-1E+10	1	-1E+10	1	-1E+10	1	-1E+10	1	-1E+10	1
4902663	27	C	04/27/2024	23:14	-127.130	48.109	0	44.40	0	9.4330	0	32.3160	0	24.950	0	44.022	0	259.8	4	91.7	4	-1E+10	1	-1E+10	1	-1E+10	1	-1E+10	1	-1E+10	1	-1E+10	1
4902663	27	C	04/27/2024	23:14	-127.130	48.109	0	45.30	0	9.3930	0	32.3120	0	24.953	0	44.914	0	260.5	4	91.8	4	-1E+10	1	-1E+10	1	-1E+10	1	-1E+10	1	-1E+10	1	-1E+10	1
4902663	27	C	04/27/2024	23:14	-127.130	48.109	0	46.40	0	9.3700	0	32.3060	0	24.952	0	46.005	0	260.8	4	91.9	4	-1E+10	1	-1E+10	1	-1E+10	1	-1E+10	1	-1E+10	1	-1E+10	1
4902663	27	C	04/27/2024	23:14	-127.130	48.109	0	47.40	0	9.3210	0	32.3050	0	24.959	0	46.996	0	260.4	4	91.7	4	-1E+10	1	-1E+10	1	-1E+10	1	-1E+10	1	-1E+10	1	-1E+10	1
4902663	27	C	04/27/2024	23:14	-127.130	48.109	0	48.30	0	9.2940	0	32.3030	0	24.962	0	47.889	0	259.6	4	91.3	4	-1E+10	1	-1E+10	1	-1E+10	1	-1E+10	1	-1E+10	1	-1E+10	1
4902663	27	C	04/27/2024	23:14	-127.130	48.109	0	49.30	0	9.2610	0	32.3040	0	24.968	0	48.880	0	258.6	4	90.9	4	-1E+10	1	-1E+10	1	-1E+10	1	-1E+10	1	-1E+10	1	-1E+10	1
4902663	27	C	04/27/2024	23:14	-127.130	48.109	0	50.20	0	9.2430	0	32.3040	0	24.971	0	49.772	0	257.6	4	90.5	4	-1E+10	1	-1E+10	1	-1E+10	1	-1E+10	1	-1E+10	1	-1E+10	1
4902663	27	C	04/27/2024	23:14	-127.130	48.109	0	51.10	0	9.2360	0	32.3030	0	24.971	0	50.664	0	256.7	4	90.2	4	-1E+10	1	-1E+10	1	-1E+10	1	-1E+10	1	-1E+10	1	-1E+10	1
4902663	27	C	04/27/2024	23:14	-127.130	48.109	0	52.10	0	9.2220	0	32.3030	0	24.973	0	51.656	0	255.7	4	89.8	4	-1E+10	1	-1E+10	1	-1E+10	1	-1E+10	1	-1E+10	1	-1E+10	1
4902663	27	C	04/27/2024	23:14	-127.130	48.109	0	53.00	0	9.1760	0	32.3150	0	24.990	0	52.548	0	254.7	4	89.4	4	-1E+10	1	-1E+10	1	-1E+10	1	-1E+10	1	-1E+10	1	-1E+10	1
4902663	27	C	04/27/2024	23:14	-127.130	48.109	0	54.00	0	9.0130	0	32.3130	0	25.014	0	53.539	0	253.4	4	88.6	4	-1E+10	1	-1E+10	1	-1E+10	1	-1E+10	1	-1E+10	1	-1E+10	1
4902663	27	C	04/27/2024	23:14	-127.130	48.109	0	55.00	0	9.0000	0	32.3140	0	25.017	0	54.531	0	251.2	4	87.8	4	-1E+10	1	-1E+10	1	-1E+10	1	-1E+10	1	-1E+10	1	-1E+10	1
4902663	27	C	04/27/2024	23:14	-127.130	48.109	0	56.00	0	8.9560	0	32.3270	0	25.034	0	55.522	0	248.7	4	86.8	4	-1E+10	1	-1E+10	1	-1E+10	1	-1E+10	1	-1E+10	1	-1E+10	1
4902663	27	C	04/27/2024	23:14	-127.130	48.109	0	56.90	0	8.8870	0	32.3340	0	25.050	0	56.414	0	246.2	4	85.8	4	-1E+10	1	-1E+10	1	-1E+10	1	-1E+10	1	-1E+10	1	-1E+10	1
4902663	27	C	04/27/2024	23:14	-127.130	48.109	0	57.90	0	8.8100	0	32.3380	0	25.065	0	57.406	0	243.2	4	84.7	4	-1E+10	1	-1E+10	1	-1E+10	1	-1E+10	1	-1E+10	1	-1E+10	1
4902663	27	C	04/27/2024	23:14	-127.130	48.109	0	58.90	0	8.7940	0	32.3460	0	25.073	0	58.397	0	239.8	4	83.4	4	-1E+10	1	-1E+10	1	-1E+10	1	-1E+10	1	-1E+10	1	-1E+10	1
4902663	27	C	04/27/2024	23:14	-127.130	48.109	0	59.80	0	8.8670	0	32.3810	0	25.090	0	59.289	0	236.5	4	82.4	4	-1E+10	1	-1E+10	1	-1E+10	1	-1E+10	1	-1E+10	1	-1E+10	1
4902663	27	C	04/27/2024	23:14	-127.130	48.109	0	60.80	0	8.7080	0	32.4350	0	25.156	0	60.280	0	234.2	4	81.4	4	-1E+10	1	-1E+10	1	-1E+10	1	-1E+10	1	-1E+10	1	-1E+10	1
4902663	27	C	04/27/2024	23:14	-127.130	48.109	0	61.80	0	8.6990	0	32.4390	0	25.161	0	61.272	0	231.5	4	80.4	4	-1E+10	1	-1E+10	1	-1E+10	1	-1E+10	1	-1E+10	1	-1E+10	1
4902663	27	C	04/27/2024	23:14	-127.130	48.109	0	62.70	0	8.7030	0	32.4410	0	25.162	0	62.164	0	228.7	4	79.5	4	-1E+10	1	-1E+10	1	-1E+10	1	-1E+10	1	-1E+10	1	-1E+10	1
4902663	27	C	04/27/2024	23:14	-127.130	48.109	0	63.60	0	8.7250	0	32.4510	0	25.166	0	63.056	0	225.8	4	78.5	4	-1E+10	1	-1E+10	1	-1E+10	1	-1E+10	1	-1E+10	1	-1E+10	1
4902663	27	C	04/27/2024	23:14	-127.130	48.109	0	64.60	0	8.7010	0	32.4940	0	25.204	0	64.047	0	222.8	4	77.5	4	-1E+10	1	-1E+10	1	-1E+10	1	-1E+10	1	-1E+10	1	-1E+10	1
4902663	27	C	04/27/2024	23:14	-127.130	48.109	0	65.90	0	8.6530	0	32.5090	0	25.223	0	65.336	0	217.0	4	75.4	4	-1E+10	1	-1E+10	1	-1E+10	1	-1E+10	1	-1E+10	1	-1E+10	1
4902663	27	C	04/27/2024	23:14	-127.130	48.109	0	67.40	0	8.6380	0	32.5330	0	25.244	0	66.823	0	209.8	4	72.8	4	-1E+10	1	-1E+10	1	-1E+10	1	-1E+10	1	-1E+10	1	-1E+10	1
4902663	27	C	04/27/2024	23:14	-127.130	48.109	0	68.10	0	8.6150	0	32.5450	0	25.257	0	67.517	0	205.5	4	71.3	4	-1E+10	1	-1E+10	1	-1E+10	1	-1E+10	1	-1E+10	1	-1E+10	1
4902663	27	C	04/27/2024	23:14	-127.130	48.109	0	69.00	0	8.6400	0	32.5800	0	25.280	0	68.409	0	197.9	4	68.7	4	-1E+10	1	-1E+10	1	-1E+10	1	-1E+10	1	-1E+10	1	-1E+10	1
4902663	27	C	04/27/2024	23:14	-127.130	48.109	0	70.10	0	8.7640	0	32.6310	0	25.301	0	69.499	0	190.2	4	66.3	4	-1E+10	1	-1E+10	1	-1E+10	1	-1E+10	1	-1E+10	1	-1E+10	1
4902663	27	C	04/27/2024	23:14	-127.130	48.109	0	70.90	0	8.9630	0	32.7550	0	25.368	0	70.292	0	186.6	4	65.4	4	-1E+10	1	-1E+10	1	-1E+10	1	-1E+10	1	-1E+10	1	-1E+10	1
4902663	27	C	04/27/2024	23:14	-127.130	48.109	0	72.00	0	9.0930	0	32.8480	0	25.420	0	71.383	0	184.3	4	64.8	4	-1E+10	1	-1E+10	1	-1E+10	1	-1E+10	1	-1E+10	1	-1E+10	1
4902663	27	C	04/27/2024	23:14	-127.130	48.109	0	73.20	0	8.9000	0	32.8530	0	25.454	0	72.572	0	181.5	4	63.6	4	-1E+10	1	-1E+10	1	-1E+10	1	-1E+10	1	-1E+10	1	-1E+10	1
4902663	27	C	04/27/2024	23:14	-127.130	48.109	0	73.90	0	8.7650	0	32.8260	0	25.454	0	73.266	0	179.1	4	62.5	4	-1E+10	1	-1E+10	1	-1E+10	1	-1E+10	1	-1E+10	1	-1E+10	1
4902663	27	C	04/27/2024	23:14	-127.130	48.109	0	74.70	0	8.8270	0	32.8510	0	25.464	0	74.059	0	176.3	4	61.6	4	-1E+10	1	-1E+10	1	-1E+10	1	-1E+10	1	-1E+10	1	-1E+10	1
4902663	27	C	04/27/2024	23:14	-127.130	48.109	0	75.90	0	8.9460	0	32.9570	0	25.529	0	75.248	0	173.6	4	60.9	4	-1E+10	1	-1E+10	1	-1E+10	1	-1E+10	1	-1E+10	1	-1E+10	1
4902663	27	C	04/27/2024	23:14	-127.130	48.109	0	77.00	0	8.9150	0	32.9650	0	25.540	0	76.339	0	171.4	4	60.1	4	-1E+10	1	-1E+10	1	-1E+10	1	-1E+10	1	-1E+10	1	-1E+10	1
4902663	27	C	04/27/2024	23:14	-127.130	48.109	0	77.80	0	8.8970	0	32.9800	0	25.554	0	77.132	0	169.9	4	59.5	4	-1E+10	1	-1E+10	1	-1E+10	1	-1E+10	1	-1E+10	1	-1E+10	1
4902663	27	C	04/27/2024	23:14	-127.130	48.109	0	78.70	0	8.8480	0	33.0250	0	25.597	0	78.024	0	168.5	4	59.0	4	-1E+10	1	-1E+10	1	-1E+10	1	-1E+10	1	-1E+10	1	-1E+10	1
4902663	27	C	04/27/2024	23:14	-127.130	48.109	0	79.90	0	8.8010	0	33.0530	0	25.626	0	79.213	0	166.3	4	58.2	4	-1E+10	1	-1E+10	1	-1E+10	1	-1E+10	1	-1E+10	1	-1E+10	1
4902663	27	C	04/27/2024	23:14	-127.130	48.109	0	81.20	0	8.7740	0	33.0660	0	25.641	0	80.502	0	163.7	4	57.3	4	-1E+10	1	-1E+10	1	-1E+10	1	-1E+10	1	-1E+10	1	-1E+10	1
4902663	27	C	04/27/2024	23:14	-127.130	48.109	0	82.10	0	8.6890	0	33.1030	0	25.683	0	81.394	0	162.1	4	56.6	4	-1E+10	1	-1E+10	1	-1E+10	1	-1E+10	1	-1E+10	1	-1E+10	1
4902663	27	C	04/27/2024	23:14	-127.130	48.109	0	83.00	0	8.6530	0	33.1070	0	25.691	0	82.286	0	165.0	4	57.6	4	-1E+10	1	-1E+10	1	-1E+10	1	-1E+10	1	-1E+10	1	-1E+10	1
4902663	27	C	04/27/2024	23:14	-127.130	48.109	0	83.90	0	8.6480	0	33.1120	0	25.696	0	83.178	0	163.7	4	57.1	4	-1E+10	1	-1E+10	1	-1E+10	1	-1E+10	1	-1E+10	1	-1E+10	1
4902663	27	C	04/27/2024	23:14	-127.130	48.109	0	84.80	0	8.6370	0	33.1180	0	25.702	0	84.070	0	162.0	4	56.5	4	-1E+10	1	-1E+10	1	-1E+10	1	-1E+10	1	-1E+10	1	-1E+10	1
4902663	27	C	04/27/2024	23:14	-127.130	48.109	0	85.70	0	8.6180	0	33.1380	0	25.721	0	84.962	0	160.2	4	55.9	4	-1E+10	1	-1E+10	1	-1E+10	1	-1E+10	1	-1E+10	1	-1E+10	1
4902663	27	C	04/27/2024	23:14	-127.130	48.109	0	86.90	0	8.6420	0	33.1820	0	25.752	0	86.152	0	158.0	4	55.1	4	-1E+10	1	-1E+10	1	-1E+10	1	-1E+10	1	-1E+10	1	-1E+10	1
4902663	27	C	04/27/2024	23:14	-127.130	48.109	0	87.80	0	8.6390	0	33.2070	0	25.772	0	87.044	0	156.1	4	54.5	4	-1E+10	1	-1E+10	1	-1E+10	1	-1E+10	1	-1E+10	1	-1E+10	1
4902663	27	C	04/27/2024	23:14	-127.130	48.109	0	88.80	0	8.5900	0	33.2400	0	25.805	0	88.035	0	154.5	4	53.9	4	-1E+10	1	-1E+10	1	-1E+10	1	-1E+10	1	-1E+10	1	-1E+10	1
4902663	27	C	04/27/2024	23:14	-127.130	48.109	0	89.80	0	8.5640	0	33.2460	0	25.814	0	89.026	0	152.5	4	53.2	4	-1E+10	1	-1E+10	1	-1E+10	1	-1E+10	1	-1E+10	1	-1E+10	1
4902663	27	C	04/27/2024	23:14	-127.130	48.109	0	90.80	0	8.5010	0	33.2890	0	25.857	0	90.017	0	150.5	4	52.4	4	-1E+10	1	-1E+10	1	-1E+10	1	-1E+10	1	-1E+10	1	-1E+10	1
4902663	27	C	04/27/2024	23:14	-127.130	48.109	0	91.90	0	8.4790	0	33.3040	0	25.872	0	91.108	0	148.9	4	51.8	4	-1E+10	1	-1E+10	1	-1E+10	1	-1E+10	1	-1E+10	1	-1E+10	1
4902663	27	C	04/27/2024	23:14	-127.130	48.109	0	93.00	0	8.4310	0	33.3260	0	25.897	0	92.198	0	147.2	4	51.2	4	-1E+10	1	-1E+10	1	-1E+10	1	-1E+10	1	-1E+10	1	-1E+10	1
4902663	27	C	04/27/2024	23:14	-127.130	48.109	0	94.20	0	8.4070	0	33.3400	0	25.911	0	93.387	0	145.4	4	50.5	4	-1E+10	1	-1E+10	1	-1E+10	1	-1E+10	1	-1E+10	1	-1E+10	1
4902663	27	C	04/27/2024	23:14	-127.130	48.109	0	94.90	0	8.3870	0	33.3660	0	25.935	0	94.081	0	144.3	4	50.1	4	-1E+10	1	-1E+10	1	-1E+10	1	-1E+10	1	-1E+10	1	-1E+10	1
4902663	27	C	04/27/2024	23:14	-127.130	48.109	0	95.70	0	8.3840	0	33.3820	0	25.948	0	94.874	0	143.4	4	49.8	4	-1E+10	1	-1E+10	1	-1E+10	1	-1E+10	1	-1E+10	1	-1E+10	1
4902663	27	C	04/27/2024	23:14	-127.130	48.109	0	96.90	0	8.3660	0	33.3920	0	25.958	0	96.063	0	142.2	4	49.4	4	-1E+10	1	-1E+10	1	-1E+10	1	-1E+10	1	-1E+10	1	-1E+10	1
4902663	27	C	04/27/2024	23:14	-127.130	48.109	0	98.10	0	8.3520	0	33.4020	0	25.968	0	97.253	0	141.0	4	48.9	4	-1E+10	1	-1E+10	1	-1E+10	1	-1E+10	1	-1E+10	1	-1E+10	1
4902663	27	C	04/27/2024	23:14	-127.130	48.109	0	98.90	0	8.3390	0	33.4070	0	25.974	0	98.046	0	140.1	4	48.6	4	-1E+10	1	-1E+10	1	-1E+10	1	-1E+10	1	-1E+10	1	-1E+10	1
4902663	27	C	04/27/2024	23:14	-127.130	48.109	0	99.70	0	8.3180	0	33.4300	0	25.996	0	98.838	0	139.3	4	48.3	4	-1E+10	1	-1E+10	1	-1E+10	1	-1E+10	1	-1E+10	1	-1E+10	1
4902663	27	C	04/27/2024	23:14	-127.130	48.109	0	100.90	0	8.3100	0	33.4360	0	26.001	0	100.028	0	138.3	4	48.0	4	-1E+10	1	-1E+10	1	-1E+10	1	-1E+10	1	-1E+10	1	-1E+10	1
4902663	27	C	04/27/2024	23:14	-127.130	48.109	0	102.10	0	8.2960	0	33.4490	0	26.014	0	101.217	0	137.3	4	47.6	4	-1E+10	1	-1E+10	1	-1E+10	1	-1E+10	1	-1E+10	1	-1E+10	1
4902663	27	C	04/27/2024	23:14	-127.130	48.109	0	102.90	0	8.2890	0	33.4580	0	26.022	0	102.010	0	136.7	4	47.4	4	-1E+10	1	-1E+10	1	-1E+10	1	-1E+10	1	-1E+10	1	-1E+10	1
4902663	27	C	04/27/2024	23:14	-127.130	48.109	0	103.70	0	8.2890	0	33.4670	0	26.029	0	102.803	0	136.1	4	47.2	4	-1E+10	1	-1E+10	1	-1E+10	1	-1E+10	1	-1E+10	1	-1E+10	1
4902663	27	C	04/27/2024	23:14	-127.130	48.109	0	105.00	0	8.2770	0	33.4720	0	26.035	0	104.091	0	134.8	4	46.8	4	-1E+10	1	-1E+10	1	-1E+10	1	-1E+10	1	-1E+10	1	-1E+10	1
4902663	27	C	04/27/2024	23:14	-127.130	48.109	0	106.20	0	8.2580	0	33.4790	0	26.043	0	105.281	0	133.4	4	46.3	4	-1E+10	1	-1E+10	1	-1E+10	1	-1E+10	1	-1E+10	1	-1E+10	1
4902663	27	C	04/27/2024	23:14	-127.130	48.109	0	107.10	0	8.2270	0	33.5010	0	26.065	0	106.173	0	132.5	4	45.9	4	-1E+10	1	-1E+10	1	-1E+10	1	-1E+10	1	-1E+10	1	-1E+10	1
4902663	27	C	04/27/2024	23:14	-127.130	48.109	0	107.90	0	8.2050	0	33.5080	0	26.074	0	106.966	0	131.8	4	45.6	4	-1E+10	1	-1E+10	1	-1E+10	1	-1E+10	1	-1E+10	1	-1E+10	1
4902663	27	C	04/27/2024	23:14	-127.130	48.109	0	108.80	0	8.2450	0	33.5270	0	26.083	0	107.857	0	131.1	4	45.4	4	-1E+10	1	-1E+10	1	-1E+10	1	-1E+10	1	-1E+10	1	-1E+10	1
4902663	27	C	04/27/2024	23:14	-127.130	48.109	0	109.60	0	8.2090	0	33.5430	0	26.101	0	108.650	0	130.5	4	45.2	4	-1E+10	1	-1E+10	1	-1E+10	1	-1E+10	1	-1E+10	1	-1E+10	1
4902663	27	C	04/27/2024	23:14	-127.130	48.109	0	110.90	0	8.1820	0	33.5510	0	26.111	0	109.939	0	129.6	4	44.9	4	-1E+10	1	-1E+10	1	-1E+10	1	-1E+10	1	-1E+10	1	-1E+10	1
4902663	27	C	04/27/2024	23:14	-127.130	48.109	0	112.30	0	8.1630	0	33.5630	0	26.123	0	111.326	0	128.8	4	44.6	4	-1E+10	1	-1E+10	1	-1E+10	1	-1E+10	1	-1E+10	1	-1E+10	1
4902663	27	C	04/27/2024	23:14	-127.130	48.109	0	113.20	0	8.1300	0	33.5740	0	26.137	0	112.218	0	128.2	4	44.3	4	-1E+10	1	-1E+10	1	-1E+10	1	-1E+10	1	-1E+10	1	-1E+10	1
4902663	27	C	04/27/2024	23:14	-127.130	48.109	0	114.00	0	8.0940	0	33.5900	0	26.155	0	113.011	0	127.9	4	44.2	4	-1E+10	1	-1E+10	1	-1E+10	1	-1E+10	1	-1E+10	1	-1E+10	1
4902663	27	C	04/27/2024	23:14	-127.130	48.109	0	114.90	0	8.0740	0	33.5930	0	26.160	0	113.903	0	127.7	4	44.1	4	-1E+10	1	-1E+10	1	-1E+10	1	-1E+10	1	-1E+10	1	-1E+10	1
4902663	27	C	04/27/2024	23:14	-127.130	48.109	0	115.90	0	8.0690	0	33.5920	0	26.160	0	114.894	0	127.3	4	44.0	4	-1E+10	1	-1E+10	1	-1E+10	1	-1E+10	1	-1E+10	1	-1E+10	1
4902663	27	C	04/27/2024	23:14	-127.130	48.109	0	116.80	0	8.0570	0	33.5910	0	26.161	0	115.786	0	126.9	4	43.8	4	-1E+10	1	-1E+10	1	-1E+10	1	-1E+10	1	-1E+10	1	-1E+10	1
4902663	27	C	04/27/2024	23:14	-127.130	48.109	0	117.70	0	8.0420	0	33.5980	0	26.169	0	116.678	0	126.5	4	43.7	4	-1E+10	1	-1E+10	1	-1E+10	1	-1E+10	1	-1E+10	1	-1E+10	1
4902663	27	C	04/27/2024	23:14	-127.130	48.109	0	118.60	0	8.0370	0	33.6000	0	26.171	0	117.570	0	126.1	4	43.5	4	-1E+10	1	-1E+10	1	-1E+10	1	-1E+10	1	-1E+10	1	-1E+10	1
4902663	27	C	04/27/2024	23:14	-127.130	48.109	0	119.90	0	8.0180	0	33.6060	0	26.178	0	118.858	0	125.5	4	43.3	4	-1E+10	1	-1E+10	1	-1E+10	1	-1E+10	1	-1E+10	1	-1E+10	1
4902663	27	C	04/27/2024	23:14	-127.130	48.109	0	121.40	0	7.9900	0	33.6120	0	26.187	0	120.345	0	124.7	4	43.0	4	-1E+10	1	-1E+10	1	-1E+10	1	-1E+10	1	-1E+10	1	-1E+10	1
4902663	27	C	04/27/2024	23:14	-127.130	48.109	0	122.30	0	7.9710	0	33.6200	0	26.196	0	121.237	0	123.9	4	42.7	4	-1E+10	1	-1E+10	1	-1E+10	1	-1E+10	1	-1E+10	1	-1E+10	1
4902663	27	C	04/27/2024	23:14	-127.130	48.109	0	123.20	0	7.9530	0	33.6300	0	26.207	0	122.128	0	123.2	4	42.5	4	-1E+10	1	-1E+10	1	-1E+10	1	-1E+10	1	-1E+10	1	-1E+10	1
4902663	27	C	04/27/2024	23:14	-127.130	48.109	0	124.10	0	7.9510	0	33.6310	0	26.208	0	123.020	0	122.4	4	42.2	4	-1E+10	1	-1E+10	1	-1E+10	1	-1E+10	1	-1E+10	1	-1E+10	1
4902663	27	C	04/27/2024	23:14	-127.130	48.109	0	125.10	0	7.9540	0	33.6330	0	26.209	0	124.011	0	121.5	4	41.9	4	-1E+10	1	-1E+10	1	-1E+10	1	-1E+10	1	-1E+10	1	-1E+10	1
4902663	27	C	04/27/2024	23:14	-127.130	48.109	0	126.00	0	7.9540	0	33.6440	0	26.218	0	124.903	0	120.7	4	41.6	4	-1E+10	1	-1E+10	1	-1E+10	1	-1E+10	1	-1E+10	1	-1E+10	1
4902663	27	C	04/27/2024	23:14	-127.130	48.109	0	126.90	0	7.9480	0	33.6510	0	26.224	0	125.795	0	120.0	4	41.4	4	-1E+10	1	-1E+10	1	-1E+10	1	-1E+10	1	-1E+10	1	-1E+10	1
4902663	27	C	04/27/2024	23:14	-127.130	48.109	0	127.80	0	7.9520	0	33.6550	0	26.227	0	126.687	0	119.2	4	41.1	4	-1E+10	1	-1E+10	1	-1E+10	1	-1E+10	1	-1E+10	1	-1E+10	1
4902663	27	C	04/27/2024	23:14	-127.130	48.109	0	128.60	0	7.9540	0	33.6580	0	26.229	0	127.480	0	118.3	4	40.8	4	-1E+10	1	-1E+10	1	-1E+10	1	-1E+10	1	-1E+10	1	-1E+10	1
4902663	27	C	04/27/2024	23:14	-127.130	48.109	0	129.60	0	7.9480	0	33.6610	0	26.232	0	128.471	0	117.4	4	40.5	4	-1E+10	1	-1E+10	1	-1E+10	1	-1E+10	1	-1E+10	1	-1E+10	1
4902663	27	C	04/27/2024	23:14	-127.130	48.109	0	130.90	0	7.9120	0	33.6820	0	26.254	0	129.759	0	115.8	4	39.9	4	-1E+10	1	-1E+10	1	-1E+10	1	-1E+10	1	-1E+10	1	-1E+10	1
4902663	27	C	04/27/2024	23:14	-127.130	48.109	0	132.20	0	7.8750	0	33.6970	0	26.271	0	131.047	0	114.5	4	39.4	4	-1E+10	1	-1E+10	1	-1E+10	1	-1E+10	1	-1E+10	1	-1E+10	1
4902663	27	C	04/27/2024	23:14	-127.130	48.109	0	133.20	0	7.8470	0	33.7140	0	26.288	0	132.038	0	113.9	4	39.2	4	-1E+10	1	-1E+10	1	-1E+10	1	-1E+10	1	-1E+10	1	-1E+10	1
4902663	27	C	04/27/2024	23:14	-127.130	48.109	0	134.10	0	7.8260	0	33.7300	0	26.304	0	132.930	0	113.4	4	39.0	4	-1E+10	1	-1E+10	1	-1E+10	1	-1E+10	1	-1E+10	1	-1E+10	1
4902663	27	C	04/27/2024	23:14	-127.130	48.109	0	135.00	0	7.8030	0	33.7450	0	26.319	0	133.822	0	113.1	4	38.9	4	-1E+10	1	-1E+10	1	-1E+10	1	-1E+10	1	-1E+10	1	-1E+10	1
4902663	27	C	04/27/2024	23:14	-127.130	48.109	0	135.90	0	7.7700	0	33.7510	0	26.329	0	134.714	0	112.8	4	38.8	4	-1E+10	1	-1E+10	1	-1E+10	1	-1E+10	1	-1E+10	1	-1E+10	1
4902663	27	C	04/27/2024	23:14	-127.130	48.109	0	136.90	0	7.7670	0	33.7510	0	26.329	0	135.705	0	112.5	4	38.7	4	-1E+10	1	-1E+10	1	-1E+10	1	-1E+10	1	-1E+10	1	-1E+10	1
4902663	27	C	04/27/2024	23:14	-127.130	48.109	0	137.80	0	7.7640	0	33.7510	0	26.330	0	136.597	0	112.2	4	38.5	4	-1E+10	1	-1E+10	1	-1E+10	1	-1E+10	1	-1E+10	1	-1E+10	1
4902663	27	C	04/27/2024	23:14	-127.130	48.109	0	138.70	0	7.7630	0	33.7560	0	26.334	0	137.489	0	111.8	4	38.4	4	-1E+10	1	-1E+10	1	-1E+10	1	-1E+10	1	-1E+10	1	-1E+10	1
4902663	27	C	04/27/2024	23:14	-127.130	48.109	0	139.70	0	7.7430	0	33.7620	0	26.341	0	138.479	0	111.3	4	38.2	4	-1E+10	1	-1E+10	1	-1E+10	1	-1E+10	1	-1E+10	1	-1E+10	1
4902663	27	C	04/27/2024	23:14	-127.130	48.109	0	140.70	0	7.6600	0	33.7730	0	26.362	0	139.470	0	111.3	4	38.2	4	-1E+10	1	-1E+10	1	-1E+10	1	-1E+10	1	-1E+10	1	-1E+10	1
4902663	27	C	04/27/2024	23:14	-127.130	48.109	0	141.60	0	7.6630	0	33.7800	0	26.367	0	140.362	0	111.4	4	38.2	4	-1E+10	1	-1E+10	1	-1E+10	1	-1E+10	1	-1E+10	1	-1E+10	1
4902663	27	C	04/27/2024	23:14	-127.130	48.109	0	142.60	0	7.6180	0	33.7890	0	26.381	0	141.353	0	111.3	4	38.1	4	-1E+10	1	-1E+10	1	-1E+10	1	-1E+10	1	-1E+10	1	-1E+10	1
4902663	27	C	04/27/2024	23:14	-127.130	48.109	0	143.60	0	7.5760	0	33.7920	0	26.389	0	142.344	0	111.5	4	38.2	4	-1E+10	1	-1E+10	1	-1E+10	1	-1E+10	1	-1E+10	1	-1E+10	1
4902663	27	C	04/27/2024	23:14	-127.130	48.109	0	144.60	0	7.5590	0	33.7930	0	26.392	0	143.335	0	111.9	4	38.3	4	-1E+10	1	-1E+10	1	-1E+10	1	-1E+10	1	-1E+10	1	-1E+10	1
4902663	27	C	04/27/2024	23:14	-127.130	48.109	0	145.50	0	7.5540	0	33.8010	0	26.399	0	144.227	0	112.0	4	38.3	4	-1E+10	1	-1E+10	1	-1E+10	1	-1E+10	1	-1E+10	1	-1E+10	1
4902663	27	C	04/27/2024	23:14	-127.130	48.109	0	146.50	0	7.5410	0	33.7950	0	26.396	0	145.218	0	111.7	4	38.2	4	-1E+10	1	-1E+10	1	-1E+10	1	-1E+10	1	-1E+10	1	-1E+10	1
4902663	27	C	04/27/2024	23:14	-127.130	48.109	0	147.90	0	7.5420	0	33.8120	0	26.410	0	146.605	0	111.5	4	38.1	4	-1E+10	1	-1E+10	1	-1E+10	1	-1E+10	1	-1E+10	1	-1E+10	1
4902663	27	C	04/27/2024	23:14	-127.130	48.109	0	149.40	0	7.5230	0	33.8170	0	26.416	0	148.091	0	111.4	4	38.1	4	-1E+10	1	-1E+10	1	-1E+10	1	-1E+10	1	-1E+10	1	-1E+10	1
4902663	27	C	04/27/2024	23:14	-127.130	48.109	0	150.30	0	7.4810	0	33.8170	0	26.422	0	148.983	0	111.3	4	38.0	4	-1E+10	1	-1E+10	1	-1E+10	1	-1E+10	1	-1E+10	1	-1E+10	1
4902663	27	C	04/27/2024	23:14	-127.130	48.109	0	151.30	0	7.4520	0	33.8160	0	26.426	0	149.974	0	110.9	4	37.8	4	-1E+10	1	-1E+10	1	-1E+10	1	-1E+10	1	-1E+10	1	-1E+10	1
4902663	27	C	04/27/2024	23:14	-127.130	48.109	0	152.30	0	7.4570	0	33.8200	0	26.428	0	150.965	0	110.4	4	37.7	4	-1E+10	1	-1E+10	1	-1E+10	1	-1E+10	1	-1E+10	1	-1E+10	1
4902663	27	C	04/27/2024	23:14	-127.130	48.109	0	153.30	0	7.4620	0	33.8260	0	26.432	0	151.956	0	110.0	4	37.5	4	-1E+10	1	-1E+10	1	-1E+10	1	-1E+10	1	-1E+10	1	-1E+10	1
4902663	27	C	04/27/2024	23:14	-127.130	48.109	0	154.30	0	7.4610	0	33.8310	0	26.436	0	152.946	0	109.7	4	37.5	4	-1E+10	1	-1E+10	1	-1E+10	1	-1E+10	1	-1E+10	1	-1E+10	1
4902663	27	C	04/27/2024	23:14	-127.130	48.109	0	155.30	0	7.4610	0	33.8340	0	26.438	0	153.937	0	109.5	4	37.4	4	-1E+10	1	-1E+10	1	-1E+10	1	-1E+10	1	-1E+10	1	-1E+10	1
4902663	27	C	04/27/2024	23:14	-127.130	48.109	0	156.30	0	7.4590	0	33.8340	0	26.439	0	154.928	0	109.3	4	37.3	4	-1E+10	1	-1E+10	1	-1E+10	1	-1E+10	1	-1E+10	1	-1E+10	1
4902663	27	C	04/27/2024	23:14	-127.130	48.109	0	157.30	0	7.4320	0	33.8360	0	26.444	0	155.919	0	109.2	4	37.3	4	-1E+10	1	-1E+10	1	-1E+10	1	-1E+10	1	-1E+10	1	-1E+10	1
4902663	27	C	04/27/2024	23:14	-127.130	48.109	0	158.30	0	7.4120	0	33.8400	0	26.450	0	156.910	0	108.9	4	37.1	4	-1E+10	1	-1E+10	1	-1E+10	1	-1E+10	1	-1E+10	1	-1E+10	1
4902663	27	C	04/27/2024	23:14	-127.130	48.109	0	159.30	0	7.3870	0	33.8430	0	26.456	0	157.901	0	108.5	4	37.0	4	-1E+10	1	-1E+10	1	-1E+10	1	-1E+10	1	-1E+10	1	-1E+10	1
4902663	27	C	04/27/2024	23:14	-127.130	48.109	0	160.30	0	7.3890	0	33.8430	0	26.456	0	158.892	0	108.1	4	36.8	4	-1E+10	1	-1E+10	1	-1E+10	1	-1E+10	1	-1E+10	1	-1E+10	1
4902663	27	C	04/27/2024	23:14	-127.130	48.109	0	161.30	0	7.3790	0	33.8430	0	26.457	0	159.882	0	107.7	4	36.7	4	-1E+10	1	-1E+10	1	-1E+10	1	-1E+10	1	-1E+10	1	-1E+10	1
4902663	27	C	04/27/2024	23:14	-127.130	48.109	0	162.30	0	7.3620	0	33.8440	0	26.460	0	160.873	0	107.4	4	36.6	4	-1E+10	1	-1E+10	1	-1E+10	1	-1E+10	1	-1E+10	1	-1E+10	1
4902663	27	C	04/27/2024	23:14	-127.130	48.109	0	163.30	0	7.3510	0	33.8440	0	26.462	0	161.864	0	107.2	4	36.5	4	-1E+10	1	-1E+10	1	-1E+10	1	-1E+10	1	-1E+10	1	-1E+10	1
4902663	27	C	04/27/2024	23:14	-127.130	48.109	0	164.40	0	7.3280	0	33.8520	0	26.471	0	162.954	0	106.9	4	36.4	4	-1E+10	1	-1E+10	1	-1E+10	1	-1E+10	1	-1E+10	1	-1E+10	1
4902663	27	C	04/27/2024	23:14	-127.130	48.109	0	165.40	0	7.3130	0	33.8530	0	26.474	0	163.945	0	106.7	4	36.3	4	-1E+10	1	-1E+10	1	-1E+10	1	-1E+10	1	-1E+10	1	-1E+10	1
4902663	27	C	04/27/2024	23:14	-127.130	48.109	0	166.40	0	7.3470	0	33.8590	0	26.474	0	164.936	0	106.0	4	36.1	4	-1E+10	1	-1E+10	1	-1E+10	1	-1E+10	1	-1E+10	1	-1E+10	1
4902663	27	C	04/27/2024	23:14	-127.130	48.109	0	167.50	0	7.3320	0	33.8770	0	26.491	0	166.025	0	105.2	4	35.8	4	-1E+10	1	-1E+10	1	-1E+10	1	-1E+10	1	-1E+10	1	-1E+10	1
4902663	27	C	04/27/2024	23:14	-127.130	48.109	0	168.50	0	7.3840	0	33.8690	0	26.477	0	167.016	0	104.4	4	35.6	4	-1E+10	1	-1E+10	1	-1E+10	1	-1E+10	1	-1E+10	1	-1E+10	1
4902663	27	C	04/27/2024	23:14	-127.130	48.109	0	169.60	0	7.4800	0	33.9060	0	26.493	0	168.106	0	103.8	4	35.5	4	-1E+10	1	-1E+10	1	-1E+10	1	-1E+10	1	-1E+10	1	-1E+10	1
4902663	27	C	04/27/2024	23:14	-127.130	48.109	0	170.60	0	7.4810	0	33.9110	0	26.496	0	169.097	0	103.4	4	35.3	4	-1E+10	1	-1E+10	1	-1E+10	1	-1E+10	1	-1E+10	1	-1E+10	1
4902663	27	C	04/27/2024	23:14	-127.130	48.109	0	171.60	0	7.4820	0	33.9130	0	26.498	0	170.088	0	103.0	4	35.2	4	-1E+10	1	-1E+10	1	-1E+10	1	-1E+10	1	-1E+10	1	-1E+10	1
4902663	27	C	04/27/2024	23:14	-127.130	48.109	0	172.70	0	7.4720	0	33.9150	0	26.501	0	171.177	0	102.5	4	35.0	4	-1E+10	1	-1E+10	1	-1E+10	1	-1E+10	1	-1E+10	1	-1E+10	1
4902663	27	C	04/27/2024	23:14	-127.130	48.109	0	173.90	0	7.4500	0	33.9150	0	26.504	0	172.366	0	101.9	4	34.8	4	-1E+10	1	-1E+10	1	-1E+10	1	-1E+10	1	-1E+10	1	-1E+10	1
4902663	27	C	04/27/2024	23:14	-127.130	48.109	0	175.00	0	7.4400	0	33.9220	0	26.511	0	173.456	0	101.5	4	34.6	4	-1E+10	1	-1E+10	1	-1E+10	1	-1E+10	1	-1E+10	1	-1E+10	1
4902663	27	C	04/27/2024	23:14	-127.130	48.109	0	175.80	0	7.4250	0	33.9230	0	26.514	0	174.249	0	101.3	4	34.6	4	-1E+10	1	-1E+10	1	-1E+10	1	-1E+10	1	-1E+10	1	-1E+10	1
4902663	27	C	04/27/2024	23:14	-127.130	48.109	0	177.00	0	7.4070	0	33.9230	0	26.516	0	175.438	0	100.9	4	34.4	4	-1E+10	1	-1E+10	1	-1E+10	1	-1E+10	1	-1E+10	1	-1E+10	1
4902663	27	C	04/27/2024	23:14	-127.130	48.109	0	178.20	0	7.3950	0	33.9240	0	26.519	0	176.627	0	100.5	4	34.3	4	-1E+10	1	-1E+10	1	-1E+10	1	-1E+10	1	-1E+10	1	-1E+10	1
4902663	27	C	04/27/2024	23:14	-127.130	48.109	0	179.00	0	7.3630	0	33.9220	0	26.522	0	177.419	0	100.3	4	34.2	4	-1E+10	1	-1E+10	1	-1E+10	1	-1E+10	1	-1E+10	1	-1E+10	1
4902663	27	C	04/27/2024	23:14	-127.130	48.109	0	179.90	0	7.3610	0	33.9220	0	26.522	0	178.311	0	100.1	4	34.1	4	-1E+10	1	-1E+10	1	-1E+10	1	-1E+10	1	-1E+10	1	-1E+10	1
4902663	27	C	04/27/2024	23:14	-127.130	48.109	0	180.70	0	7.3580	0	33.9220	0	26.523	0	179.103	0	99.9	4	34.0	4	-1E+10	1	-1E+10	1	-1E+10	1	-1E+10	1	-1E+10	1	-1E+10	1
4902663	27	C	04/27/2024	23:14	-127.130	48.109	0	181.90	0	7.3390	0	33.9240	0	26.527	0	180.292	0	99.5	4	33.9	4	-1E+10	1	-1E+10	1	-1E+10	1	-1E+10	1	-1E+10	1	-1E+10	1
4902663	27	C	04/27/2024	23:14	-127.130	48.109	0	183.30	0	7.3320	0	33.9240	0	26.528	0	181.679	0	99.1	4	33.8	4	-1E+10	1	-1E+10	1	-1E+10	1	-1E+10	1	-1E+10	1	-1E+10	1
4902663	27	C	04/27/2024	23:14	-127.130	48.109	0	184.10	0	7.3230	0	33.9260	0	26.531	0	182.472	0	98.8	4	33.6	4	-1E+10	1	-1E+10	1	-1E+10	1	-1E+10	1	-1E+10	1	-1E+10	1
4902663	27	C	04/27/2024	23:14	-127.130	48.109	0	185.00	0	7.3170	0	33.9260	0	26.531	0	183.364	0	98.5	4	33.5	4	-1E+10	1	-1E+10	1	-1E+10	1	-1E+10	1	-1E+10	1	-1E+10	1
4902663	27	C	04/27/2024	23:14	-127.130	48.109	0	185.90	0	7.2990	0	33.9270	0	26.535	0	184.255	0	98.2	4	33.4	4	-1E+10	1	-1E+10	1	-1E+10	1	-1E+10	1	-1E+10	1	-1E+10	1
4902663	27	C	04/27/2024	23:14	-127.130	48.109	0	186.70	0	7.2900	0	33.9280	0	26.537	0	185.048	0	97.9	4	33.3	4	-1E+10	1	-1E+10	1	-1E+10	1	-1E+10	1	-1E+10	1	-1E+10	1
4902663	27	C	04/27/2024	23:14	-127.130	48.109	0	187.60	0	7.2880	0	33.9270	0	26.536	0	185.939	0	97.6	4	33.2	4	-1E+10	1	-1E+10	1	-1E+10	1	-1E+10	1	-1E+10	1	-1E+10	1
4902663	27	C	04/27/2024	23:14	-127.130	48.109	0	188.90	0	7.2810	0	33.9280	0	26.538	0	187.227	0	97.0	4	33.0	4	-1E+10	1	-1E+10	1	-1E+10	1	-1E+10	1	-1E+10	1	-1E+10	1
4902663	27	C	04/27/2024	23:14	-127.130	48.109	0	190.20	0	7.2640	0	33.9300	0	26.542	0	188.515	0	96.4	4	32.8	4	-1E+10	1	-1E+10	1	-1E+10	1	-1E+10	1	-1E+10	1	-1E+10	1
4902663	27	C	04/27/2024	23:14	-127.130	48.109	0	191.10	0	7.2520	0	33.9300	0	26.544	0	189.407	0	96.1	4	32.7	4	-1E+10	1	-1E+10	1	-1E+10	1	-1E+10	1	-1E+10	1	-1E+10	1
4902663	27	C	04/27/2024	23:14	-127.130	48.109	0	192.00	0	7.2350	0	33.9310	0	26.547	0	190.298	0	95.9	4	32.6	4	-1E+10	1	-1E+10	1	-1E+10	1	-1E+10	1	-1E+10	1	-1E+10	1
4902663	27	C	04/27/2024	23:14	-127.130	48.109	0	192.90	0	7.2260	0	33.9320	0	26.549	0	191.190	0	95.5	4	32.5	4	-1E+10	1	-1E+10	1	-1E+10	1	-1E+10	1	-1E+10	1	-1E+10	1
4902663	27	C	04/27/2024	23:14	-127.130	48.109	0	193.90	0	7.2180	0	33.9320	0	26.550	0	192.181	0	95.2	4	32.3	4	-1E+10	1	-1E+10	1	-1E+10	1	-1E+10	1	-1E+10	1	-1E+10	1
4902663	27	C	04/27/2024	23:14	-127.130	48.109	0	194.80	0	7.2040	0	33.9330	0	26.553	0	193.072	0	94.9	4	32.2	4	-1E+10	1	-1E+10	1	-1E+10	1	-1E+10	1	-1E+10	1	-1E+10	1
4902663	27	C	04/27/2024	23:14	-127.130	48.109	0	195.70	0	7.1940	0	33.9340	0	26.555	0	193.964	0	94.5	4	32.1	4	-1E+10	1	-1E+10	1	-1E+10	1	-1E+10	1	-1E+10	1	-1E+10	1
4902663	27	C	04/27/2024	23:14	-127.130	48.109	0	196.60	0	7.1860	0	33.9360	0	26.558	0	194.856	0	94.2	4	32.0	4	-1E+10	1	-1E+10	1	-1E+10	1	-1E+10	1	-1E+10	1	-1E+10	1
4902663	27	C	04/27/2024	23:14	-127.130	48.109	0	197.90	0	7.1770	0	33.9370	0	26.560	0	196.143	0	93.8	4	31.8	4	-1E+10	1	-1E+10	1	-1E+10	1	-1E+10	1	-1E+10	1	-1E+10	1
4902663	27	C	04/27/2024	23:14	-127.130	48.109	0	199.30	0	7.1770	0	33.9370	0	26.560	0	197.530	0	93.2	4	31.6	4	-1E+10	1	-1E+10	1	-1E+10	1	-1E+10	1	-1E+10	1	-1E+10	1
4902663	27	C	04/27/2024	23:14	-127.130	48.109	0	200.20	0	7.1760	0	33.9370	0	26.560	0	198.422	0	92.8	4	31.5	4	-1E+10	1	-1E+10	1	-1E+10	1	-1E+10	1	-1E+10	1	-1E+10	1
4902663	27	C	04/27/2024	23:14	-127.130	48.109	0	201.10	0	7.1720	0	33.9390	0	26.562	0	199.313	0	92.3	4	31.3	4	-1E+10	1	-1E+10	1	-1E+10	1	-1E+10	1	-1E+10	1	-1E+10	1
4902663	27	C	04/27/2024	23:14	-127.130	48.109	0	202.00	0	7.1670	0	33.9400	0	26.564	0	200.205	0	91.9	4	31.2	4	-1E+10	1	-1E+10	1	-1E+10	1	-1E+10	1	-1E+10	1	-1E+10	1
4902663	27	C	04/27/2024	23:14	-127.130	48.109	0	202.90	0	7.1610	0	33.9410	0	26.565	0	201.097	0	91.4	4	31.0	4	-1E+10	1	-1E+10	1	-1E+10	1	-1E+10	1	-1E+10	1	-1E+10	1
4902663	27	C	04/27/2024	23:14	-127.130	48.109	0	203.80	0	7.1430	0	33.9440	0	26.570	0	201.988	0	91.0	4	30.9	4	-1E+10	1	-1E+10	1	-1E+10	1	-1E+10	1	-1E+10	1	-1E+10	1
4902663	27	C	04/27/2024	23:14	-127.130	48.109	0	204.70	0	7.1220	0	33.9480	0	26.576	0	202.880	0	90.6	4	30.7	4	-1E+10	1	-1E+10	1	-1E+10	1	-1E+10	1	-1E+10	1	-1E+10	1
4902663	27	C	04/27/2024	23:14	-127.130	48.109	0	205.60	0	7.1090	0	33.9480	0	26.578	0	203.771	0	90.3	4	30.6	4	-1E+10	1	-1E+10	1	-1E+10	1	-1E+10	1	-1E+10	1	-1E+10	1
4902663	27	C	04/27/2024	23:14	-127.130	48.109	0	206.90	0	7.0940	0	33.9490	0	26.581	0	205.059	0	89.9	4	30.5	4	-1E+10	1	-1E+10	1	-1E+10	1	-1E+10	1	-1E+10	1	-1E+10	1
4902663	27	C	04/27/2024	23:14	-127.130	48.109	0	208.30	0	7.0770	0	33.9500	0	26.584	0	206.446	0	89.5	4	30.3	4	-1E+10	1	-1E+10	1	-1E+10	1	-1E+10	1	-1E+10	1	-1E+10	1
4902663	27	C	04/27/2024	23:14	-127.130	48.109	0	209.20	0	7.0620	0	33.9520	0	26.588	0	207.337	0	89.3	4	30.2	4	-1E+10	1	-1E+10	1	-1E+10	1	-1E+10	1	-1E+10	1	-1E+10	1
4902663	27	C	04/27/2024	23:14	-127.130	48.109	0	210.10	0	7.0550	0	33.9520	0	26.589	0	208.229	0	89.0	4	30.1	4	-1E+10	1	-1E+10	1	-1E+10	1	-1E+10	1	-1E+10	1	-1E+10	1
4902663	27	C	04/27/2024	23:14	-127.130	48.109	0	211.00	0	7.0490	0	33.9530	0	26.590	0	209.120	0	88.8	4	30.1	4	-1E+10	1	-1E+10	1	-1E+10	1	-1E+10	1	-1E+10	1	-1E+10	1
4902663	27	C	04/27/2024	23:14	-127.130	48.109	0	211.90	0	7.0430	0	33.9520	0	26.590	0	210.012	0	88.6	4	30.0	4	-1E+10	1	-1E+10	1	-1E+10	1	-1E+10	1	-1E+10	1	-1E+10	1
4902663	27	C	04/27/2024	23:14	-127.130	48.109	0	212.80	0	7.0300	0	33.9540	0	26.594	0	210.903	0	88.3	4	29.9	4	-1E+10	1	-1E+10	1	-1E+10	1	-1E+10	1	-1E+10	1	-1E+10	1
4902663	27	C	04/27/2024	23:14	-127.130	48.109	0	213.70	0	7.0050	0	33.9550	0	26.598	0	211.795	0	88.1	4	29.8	4	-1E+10	1	-1E+10	1	-1E+10	1	-1E+10	1	-1E+10	1	-1E+10	1
4902663	27	C	04/27/2024	23:14	-127.130	48.109	0	214.60	0	6.9820	0	33.9550	0	26.601	0	212.687	0	87.9	4	29.7	4	-1E+10	1	-1E+10	1	-1E+10	1	-1E+10	1	-1E+10	1	-1E+10	1
4902663	27	C	04/27/2024	23:14	-127.130	48.109	0	215.90	0	6.9640	0	33.9550	0	26.603	0	213.974	0	87.5	4	29.6	4	-1E+10	1	-1E+10	1	-1E+10	1	-1E+10	1	-1E+10	1	-1E+10	1
4902663	27	C	04/27/2024	23:14	-127.130	48.109	0	217.30	0	6.9540	0	33.9540	0	26.604	0	215.361	0	87.1	4	29.4	4	-1E+10	1	-1E+10	1	-1E+10	1	-1E+10	1	-1E+10	1	-1E+10	1
4902663	27	C	04/27/2024	23:14	-127.130	48.109	0	218.20	0	6.9420	0	33.9540	0	26.606	0	216.253	0	86.8	4	29.3	4	-1E+10	1	-1E+10	1	-1E+10	1	-1E+10	1	-1E+10	1	-1E+10	1
4902663	27	C	04/27/2024	23:14	-127.130	48.109	0	219.10	0	6.9150	0	33.9550	0	26.610	0	217.144	0	86.6	4	29.2	4	-1E+10	1	-1E+10	1	-1E+10	1	-1E+10	1	-1E+10	1	-1E+10	1
4902663	27	C	04/27/2024	23:14	-127.130	48.109	0	220.10	0	6.9120	0	33.9560	0	26.611	0	218.135	0	86.4	4	29.2	4	-1E+10	1	-1E+10	1	-1E+10	1	-1E+10	1	-1E+10	1	-1E+10	1
4902663	27	C	04/27/2024	23:14	-127.130	48.109	0	221.00	0	6.8990	0	33.9550	0	26.612	0	219.026	0	86.3	4	29.1	4	-1E+10	1	-1E+10	1	-1E+10	1	-1E+10	1	-1E+10	1	-1E+10	1
4902663	27	C	04/27/2024	23:14	-127.130	48.109	0	221.90	0	6.9050	0	33.9580	0	26.614	0	219.918	0	86.2	4	29.1	4	-1E+10	1	-1E+10	1	-1E+10	1	-1E+10	1	-1E+10	1	-1E+10	1
4902663	27	C	04/27/2024	23:14	-127.130	48.109	0	222.80	0	6.8980	0	33.9590	0	26.616	0	220.809	0	86.1	4	29.1	4	-1E+10	1	-1E+10	1	-1E+10	1	-1E+10	1	-1E+10	1	-1E+10	1
4902663	27	C	04/27/2024	23:14	-127.130	48.109	0	223.70	0	6.8920	0	33.9590	0	26.616	0	221.701	0	86.1	4	29.0	4	-1E+10	1	-1E+10	1	-1E+10	1	-1E+10	1	-1E+10	1	-1E+10	1
4902663	27	C	04/27/2024	23:14	-127.130	48.109	0	224.60	0	6.8850	0	33.9570	0	26.616	0	222.592	0	86.0	4	29.0	4	-1E+10	1	-1E+10	1	-1E+10	1	-1E+10	1	-1E+10	1	-1E+10	1
4902663	27	C	04/27/2024	23:14	-127.130	48.109	0	225.50	0	6.8860	0	33.9580	0	26.616	0	223.483	0	85.9	4	29.0	4	-1E+10	1	-1E+10	1	-1E+10	1	-1E+10	1	-1E+10	1	-1E+10	1
4902663	27	C	04/27/2024	23:14	-127.130	48.109	0	226.90	0	6.8660	0	33.9580	0	26.619	0	224.870	0	85.9	4	29.0	4	-1E+10	1	-1E+10	1	-1E+10	1	-1E+10	1	-1E+10	1	-1E+10	1
4902663	27	C	04/27/2024	23:14	-127.130	48.109	0	228.30	0	6.8300	0	33.9580	0	26.624	0	226.257	0	86.0	4	29.0	4	-1E+10	1	-1E+10	1	-1E+10	1	-1E+10	1	-1E+10	1	-1E+10	1
4902663	27	C	04/27/2024	23:14	-127.130	48.109	0	229.20	0	6.7820	0	33.9560	0	26.629	0	227.148	0	86.1	4	29.0	4	-1E+10	1	-1E+10	1	-1E+10	1	-1E+10	1	-1E+10	1	-1E+10	1
4902663	27	C	04/27/2024	23:14	-127.130	48.109	0	230.10	0	6.7440	0	33.9680	0	26.644	0	228.040	0	86.0	4	28.9	4	-1E+10	1	-1E+10	1	-1E+10	1	-1E+10	1	-1E+10	1	-1E+10	1
4902663	27	C	04/27/2024	23:14	-127.130	48.109	0	231.00	0	6.7250	0	33.9510	0	26.633	0	228.931	0	85.9	4	28.9	4	-1E+10	1	-1E+10	1	-1E+10	1	-1E+10	1	-1E+10	1	-1E+10	1
4902663	27	C	04/27/2024	23:14	-127.130	48.109	0	231.90	0	6.7210	0	33.9470	0	26.630	0	229.823	0	85.6	4	28.8	4	-1E+10	1	-1E+10	1	-1E+10	1	-1E+10	1	-1E+10	1	-1E+10	1
4902663	27	C	04/27/2024	23:14	-127.130	48.109	0	232.80	0	6.7170	0	33.9460	0	26.630	0	230.714	0	85.3	4	28.6	4	-1E+10	1	-1E+10	1	-1E+10	1	-1E+10	1	-1E+10	1	-1E+10	1
4902663	27	C	04/27/2024	23:14	-127.130	48.109	0	233.80	0	6.7110	0	33.9470	0	26.631	0	231.705	0	84.9	4	28.5	4	-1E+10	1	-1E+10	1	-1E+10	1	-1E+10	1	-1E+10	1	-1E+10	1
4902663	27	C	04/27/2024	23:14	-127.130	48.109	0	234.70	0	6.7040	0	33.9470	0	26.632	0	232.596	0	84.5	4	28.4	4	-1E+10	1	-1E+10	1	-1E+10	1	-1E+10	1	-1E+10	1	-1E+10	1
4902663	27	C	04/27/2024	23:14	-127.130	48.109	0	235.60	0	6.7020	0	33.9470	0	26.633	0	233.487	0	84.1	4	28.2	4	-1E+10	1	-1E+10	1	-1E+10	1	-1E+10	1	-1E+10	1	-1E+10	1
4902663	27	C	04/27/2024	23:14	-127.130	48.109	0	236.90	0	6.7000	0	33.9470	0	26.633	0	234.775	0	83.2	4	28.0	4	-1E+10	1	-1E+10	1	-1E+10	1	-1E+10	1	-1E+10	1	-1E+10	1
4902663	27	C	04/27/2024	23:14	-127.130	48.109	0	238.30	0	6.7030	0	33.9500	0	26.635	0	236.162	0	82.4	4	27.7	4	-1E+10	1	-1E+10	1	-1E+10	1	-1E+10	1	-1E+10	1	-1E+10	1
4902663	27	C	04/27/2024	23:14	-127.130	48.109	0	239.20	0	6.7080	0	33.9530	0	26.637	0	237.053	0	81.9	4	27.5	4	-1E+10	1	-1E+10	1	-1E+10	1	-1E+10	1	-1E+10	1	-1E+10	1
4902663	27	C	04/27/2024	23:14	-127.130	48.109	0	240.10	0	6.7050	0	33.9580	0	26.641	0	237.945	0	81.5	4	27.4	4	-1E+10	1	-1E+10	1	-1E+10	1	-1E+10	1	-1E+10	1	-1E+10	1
4902663	27	C	04/27/2024	23:14	-127.130	48.109	0	241.00	0	6.6900	0	33.9610	0	26.645	0	238.836	0	81.2	4	27.3	4	-1E+10	1	-1E+10	1	-1E+10	1	-1E+10	1	-1E+10	1	-1E+10	1
4902663	27	C	04/27/2024	23:14	-127.130	48.109	0	242.00	0	6.6890	0	33.9620	0	26.646	0	239.826	0	81.0	4	27.2	4	-1E+10	1	-1E+10	1	-1E+10	1	-1E+10	1	-1E+10	1	-1E+10	1
4902663	27	C	04/27/2024	23:14	-127.130	48.109	0	242.90	0	6.6790	0	33.9620	0	26.648	0	240.718	0	80.8	4	27.1	4	-1E+10	1	-1E+10	1	-1E+10	1	-1E+10	1	-1E+10	1	-1E+10	1
4902663	27	C	04/27/2024	23:14	-127.130	48.109	0	243.80	0	6.6690	0	33.9620	0	26.649	0	241.609	0	80.6	4	27.1	4	-1E+10	1	-1E+10	1	-1E+10	1	-1E+10	1	-1E+10	1	-1E+10	1
4902663	27	C	04/27/2024	23:14	-127.130	48.109	0	244.80	0	6.6680	0	33.9620	0	26.649	0	242.600	0	80.4	4	27.0	4	-1E+10	1	-1E+10	1	-1E+10	1	-1E+10	1	-1E+10	1	-1E+10	1
4902663	27	C	04/27/2024	23:14	-127.130	48.109	0	245.70	0	6.6610	0	33.9620	0	26.650	0	243.491	0	80.2	4	26.9	4	-1E+10	1	-1E+10	1	-1E+10	1	-1E+10	1	-1E+10	1	-1E+10	1
4902663	27	C	04/27/2024	23:14	-127.130	48.109	0	246.60	0	6.6580	0	33.9610	0	26.650	0	244.382	0	79.9	4	26.8	4	-1E+10	1	-1E+10	1	-1E+10	1	-1E+10	1	-1E+10	1	-1E+10	1
4902663	27	C	04/27/2024	23:14	-127.130	48.109	0	247.90	0	6.6400	0	33.9600	0	26.651	0	245.670	0	79.5	4	26.7	4	-1E+10	1	-1E+10	1	-1E+10	1	-1E+10	1	-1E+10	1	-1E+10	1
4902663	27	C	04/27/2024	23:14	-127.130	48.109	0	249.30	0	6.6200	0	33.9580	0	26.652	0	247.056	0	79.0	4	26.5	4	-1E+10	1	-1E+10	1	-1E+10	1	-1E+10	1	-1E+10	1	-1E+10	1
4902663	27	C	04/27/2024	23:14	-127.130	48.109	0	250.20	0	6.5980	0	33.9630	0	26.659	0	247.948	0	78.5	4	26.3	4	-1E+10	1	-1E+10	1	-1E+10	1	-1E+10	1	-1E+10	1	-1E+10	1
4902663	27	C	04/27/2024	23:14	-127.130	48.109	0	251.20	0	6.5720	0	33.9560	0	26.657	0	248.938	0	78.1	4	26.2	4	-1E+10	1	-1E+10	1	-1E+10	1	-1E+10	1	-1E+10	1	-1E+10	1
4902663	27	C	04/27/2024	23:14	-127.130	48.109	0	252.10	0	6.5320	0	33.9560	0	26.662	0	249.830	0	77.6	4	26.0	4	-1E+10	1	-1E+10	1	-1E+10	1	-1E+10	1	-1E+10	1	-1E+10	1
4902663	27	C	04/27/2024	23:14	-127.130	48.109	0	253.00	0	6.4920	0	33.9530	0	26.665	0	250.721	0	77.1	4	25.8	4	-1E+10	1	-1E+10	1	-1E+10	1	-1E+10	1	-1E+10	1	-1E+10	1
4902663	27	C	04/27/2024	23:14	-127.130	48.109	0	254.00	0	6.4630	0	33.9520	0	26.668	0	251.711	0	76.6	4	25.6	4	-1E+10	1	-1E+10	1	-1E+10	1	-1E+10	1	-1E+10	1	-1E+10	1
4902663	27	C	04/27/2024	23:14	-127.130	48.109	0	254.90	0	6.4180	0	33.9520	0	26.674	0	252.603	0	76.1	4	25.4	4	-1E+10	1	-1E+10	1	-1E+10	1	-1E+10	1	-1E+10	1	-1E+10	1
4902663	27	C	04/27/2024	23:14	-127.130	48.109	0	255.80	0	6.4070	0	33.9520	0	26.676	0	253.494	0	75.8	4	25.3	4	-1E+10	1	-1E+10	1	-1E+10	1	-1E+10	1	-1E+10	1	-1E+10	1
4902663	27	C	04/27/2024	23:14	-127.130	48.109	0	256.80	0	6.4010	0	33.9520	0	26.676	0	254.484	0	75.4	4	25.1	4	-1E+10	1	-1E+10	1	-1E+10	1	-1E+10	1	-1E+10	1	-1E+10	1
4902663	27	C	04/27/2024	23:14	-127.130	48.109	0	257.70	0	6.3980	0	33.9520	0	26.677	0	255.376	0	75.0	4	25.0	4	-1E+10	1	-1E+10	1	-1E+10	1	-1E+10	1	-1E+10	1	-1E+10	1
4902663	27	C	04/27/2024	23:14	-127.130	48.109	0	258.60	0	6.4060	0	33.9550	0	26.678	0	256.267	0	74.6	4	24.9	4	-1E+10	1	-1E+10	1	-1E+10	1	-1E+10	1	-1E+10	1	-1E+10	1
4902663	27	C	04/27/2024	23:14	-127.130	48.109	0	259.60	0	6.4070	0	33.9560	0	26.679	0	257.257	0	74.1	4	24.7	4	-1E+10	1	-1E+10	1	-1E+10	1	-1E+10	1	-1E+10	1	-1E+10	1
4902663	27	C	04/27/2024	23:14	-127.130	48.109	0	260.90	0	6.3790	0	33.9600	0	26.686	0	258.545	0	73.3	4	24.5	4	-1E+10	1	-1E+10	1	-1E+10	1	-1E+10	1	-1E+10	1	-1E+10	1
4902663	27	C	04/27/2024	23:14	-127.130	48.109	0	262.30	0	6.3690	0	33.9590	0	26.686	0	259.931	0	72.6	4	24.2	4	-1E+10	1	-1E+10	1	-1E+10	1	-1E+10	1	-1E+10	1	-1E+10	1
4902663	27	C	04/27/2024	23:14	-127.130	48.109	0	263.30	0	6.3750	0	33.9610	0	26.687	0	260.922	0	72.1	4	24.0	4	-1E+10	1	-1E+10	1	-1E+10	1	-1E+10	1	-1E+10	1	-1E+10	1
4902663	27	C	04/27/2024	23:14	-127.130	48.109	0	264.20	0	6.3680	0	33.9630	0	26.689	0	261.813	0	71.8	4	23.9	4	-1E+10	1	-1E+10	1	-1E+10	1	-1E+10	1	-1E+10	1	-1E+10	1
4902663	27	C	04/27/2024	23:14	-127.130	48.109	0	265.10	0	6.3650	0	33.9640	0	26.691	0	262.704	0	71.4	4	23.8	4	-1E+10	1	-1E+10	1	-1E+10	1	-1E+10	1	-1E+10	1	-1E+10	1
4902663	27	C	04/27/2024	23:14	-127.130	48.109	0	266.00	0	6.3590	0	33.9650	0	26.692	0	263.595	0	71.0	4	23.7	4	-1E+10	1	-1E+10	1	-1E+10	1	-1E+10	1	-1E+10	1	-1E+10	1
4902663	27	C	04/27/2024	23:14	-127.130	48.109	0	266.90	0	6.3780	0	33.9680	0	26.692	0	264.487	0	70.7	4	23.6	4	-1E+10	1	-1E+10	1	-1E+10	1	-1E+10	1	-1E+10	1	-1E+10	1
4902663	27	C	04/27/2024	23:14	-127.130	48.109	0	267.80	0	6.3810	0	33.9730	0	26.696	0	265.378	0	70.5	4	23.5	4	-1E+10	1	-1E+10	1	-1E+10	1	-1E+10	1	-1E+10	1	-1E+10	1
4902663	27	C	04/27/2024	23:14	-127.130	48.109	0	268.80	0	6.3530	0	33.9710	0	26.698	0	266.368	0	70.4	4	23.4	4	-1E+10	1	-1E+10	1	-1E+10	1	-1E+10	1	-1E+10	1	-1E+10	1
4902663	27	C	04/27/2024	23:14	-127.130	48.109	0	269.70	0	6.3450	0	33.9700	0	26.698	0	267.260	0	70.2	4	23.4	4	-1E+10	1	-1E+10	1	-1E+10	1	-1E+10	1	-1E+10	1	-1E+10	1
4902663	27	C	04/27/2024	23:14	-127.130	48.109	0	270.60	0	6.3320	0	33.9710	0	26.700	0	268.151	0	70.0	4	23.3	4	-1E+10	1	-1E+10	1	-1E+10	1	-1E+10	1	-1E+10	1	-1E+10	1
4902663	27	C	04/27/2024	23:14	-127.130	48.109	0	271.50	0	6.3230	0	33.9710	0	26.702	0	269.042	0	69.8	4	23.3	4	-1E+10	1	-1E+10	1	-1E+10	1	-1E+10	1	-1E+10	1	-1E+10	1
4902663	27	C	04/27/2024	23:14	-127.130	48.109	0	272.90	0	6.3170	0	33.9720	0	26.703	0	270.429	0	69.5	4	23.2	4	-1E+10	1	-1E+10	1	-1E+10	1	-1E+10	1	-1E+10	1	-1E+10	1
4902663	27	C	04/27/2024	23:14	-127.130	48.109	0	274.30	0	6.3100	0	33.9720	0	26.704	0	271.815	0	69.2	4	23.0	4	-1E+10	1	-1E+10	1	-1E+10	1	-1E+10	1	-1E+10	1	-1E+10	1
4902663	27	C	04/27/2024	23:14	-127.130	48.109	0	275.30	0	6.3080	0	33.9720	0	26.704	0	272.805	0	68.9	4	22.9	4	-1E+10	1	-1E+10	1	-1E+10	1	-1E+10	1	-1E+10	1	-1E+10	1
4902663	27	C	04/27/2024	23:14	-127.130	48.109	0	276.20	0	6.3020	0	33.9720	0	26.705	0	273.697	0	68.7	4	22.9	4	-1E+10	1	-1E+10	1	-1E+10	1	-1E+10	1	-1E+10	1	-1E+10	1
4902663	27	C	04/27/2024	23:14	-127.130	48.109	0	277.10	0	6.3000	0	33.9740	0	26.707	0	274.588	0	68.5	4	22.8	4	-1E+10	1	-1E+10	1	-1E+10	1	-1E+10	1	-1E+10	1	-1E+10	1
4902663	27	C	04/27/2024	23:14	-127.130	48.109	0	278.00	0	6.2980	0	33.9740	0	26.707	0	275.479	0	68.3	4	22.7	4	-1E+10	1	-1E+10	1	-1E+10	1	-1E+10	1	-1E+10	1	-1E+10	1
4902663	27	C	04/27/2024	23:14	-127.130	48.109	0	278.90	0	6.2940	0	33.9760	0	26.709	0	276.370	0	68.1	4	22.7	4	-1E+10	1	-1E+10	1	-1E+10	1	-1E+10	1	-1E+10	1	-1E+10	1
4902663	27	C	04/27/2024	23:14	-127.130	48.109	0	279.80	0	6.2930	0	33.9770	0	26.710	0	277.261	0	68.0	4	22.6	4	-1E+10	1	-1E+10	1	-1E+10	1	-1E+10	1	-1E+10	1	-1E+10	1
4902663	27	C	04/27/2024	23:14	-127.130	48.109	0	280.70	0	6.2940	0	33.9770	0	26.710	0	278.153	0	67.8	4	22.6	4	-1E+10	1	-1E+10	1	-1E+10	1	-1E+10	1	-1E+10	1	-1E+10	1
4902663	27	C	04/27/2024	23:14	-127.130	48.109	0	281.70	0	6.2940	0	33.9770	0	26.710	0	279.143	0	67.7	4	22.5	4	-1E+10	1	-1E+10	1	-1E+10	1	-1E+10	1	-1E+10	1	-1E+10	1
4902663	27	C	04/27/2024	23:14	-127.130	48.109	0	282.60	0	6.2940	0	33.9770	0	26.710	0	280.034	0	67.5	4	22.5	4	-1E+10	1	-1E+10	1	-1E+10	1	-1E+10	1	-1E+10	1	-1E+10	1
4902663	27	C	04/27/2024	23:14	-127.130	48.109	0	283.90	0	6.2770	0	33.9800	0	26.715	0	281.322	0	67.3	4	22.4	4	-1E+10	1	-1E+10	1	-1E+10	1	-1E+10	1	-1E+10	1	-1E+10	1
4902663	27	C	04/27/2024	23:14	-127.130	48.109	0	285.30	0	6.2690	0	33.9790	0	26.715	0	282.708	0	67.2	4	22.3	4	-1E+10	1	-1E+10	1	-1E+10	1	-1E+10	1	-1E+10	1	-1E+10	1
4902663	27	C	04/27/2024	23:14	-127.130	48.109	0	286.20	0	6.2660	0	33.9780	0	26.715	0	283.599	0	67.0	4	22.3	4	-1E+10	1	-1E+10	1	-1E+10	1	-1E+10	1	-1E+10	1	-1E+10	1
4902663	27	C	04/27/2024	23:14	-127.130	48.109	0	287.10	0	6.2560	0	33.9780	0	26.716	0	284.490	0	66.9	4	22.2	4	-1E+10	1	-1E+10	1	-1E+10	1	-1E+10	1	-1E+10	1	-1E+10	1
4902663	27	C	04/27/2024	23:14	-127.130	48.109	0	288.00	0	6.2480	0	33.9780	0	26.717	0	285.381	0	66.7	4	22.2	4	-1E+10	1	-1E+10	1	-1E+10	1	-1E+10	1	-1E+10	1	-1E+10	1
4902663	27	C	04/27/2024	23:14	-127.130	48.109	0	288.90	0	6.2150	0	33.9790	0	26.722	0	286.273	0	66.5	4	22.1	4	-1E+10	1	-1E+10	1	-1E+10	1	-1E+10	1	-1E+10	1	-1E+10	1
4902663	27	C	04/27/2024	23:14	-127.130	48.109	0	289.70	0	6.2130	0	33.9780	0	26.721	0	287.065	0	66.3	4	22.0	4	-1E+10	1	-1E+10	1	-1E+10	1	-1E+10	1	-1E+10	1	-1E+10	1
4902663	27	C	04/27/2024	23:14	-127.130	48.109	0	290.60	0	6.2130	0	33.9770	0	26.721	0	287.956	0	66.1	4	22.0	4	-1E+10	1	-1E+10	1	-1E+10	1	-1E+10	1	-1E+10	1	-1E+10	1
4902663	27	C	04/27/2024	23:14	-127.130	48.109	0	292.00	0	6.1940	0	33.9770	0	26.723	0	289.342	0	65.7	4	21.8	4	-1E+10	1	-1E+10	1	-1E+10	1	-1E+10	1	-1E+10	1	-1E+10	1
4902663	27	C	04/27/2024	23:14	-127.130	48.109	0	293.30	0	6.1860	0	33.9780	0	26.725	0	290.630	0	65.2	4	21.7	4	-1E+10	1	-1E+10	1	-1E+10	1	-1E+10	1	-1E+10	1	-1E+10	1
4902663	27	C	04/27/2024	23:14	-127.130	48.109	0	294.20	0	6.1770	0	33.9790	0	26.727	0	291.521	0	64.9	4	21.5	4	-1E+10	1	-1E+10	1	-1E+10	1	-1E+10	1	-1E+10	1	-1E+10	1
4902663	27	C	04/27/2024	23:14	-127.130	48.109	0	295.10	0	6.1780	0	33.9780	0	26.726	0	292.412	0	64.6	4	21.4	4	-1E+10	1	-1E+10	1	-1E+10	1	-1E+10	1	-1E+10	1	-1E+10	1
4902663	27	C	04/27/2024	23:14	-127.130	48.109	0	296.00	0	6.1770	0	33.9800	0	26.728	0	293.303	0	64.2	4	21.3	4	-1E+10	1	-1E+10	1	-1E+10	1	-1E+10	1	-1E+10	1	-1E+10	1
4902663	27	C	04/27/2024	23:14	-127.130	48.109	0	296.90	0	6.1710	0	33.9810	0	26.729	0	294.194	0	64.0	4	21.2	4	-1E+10	1	-1E+10	1	-1E+10	1	-1E+10	1	-1E+10	1	-1E+10	1
4902663	27	C	04/27/2024	23:14	-127.130	48.109	0	297.80	0	6.1660	0	33.9850	0	26.733	0	295.085	0	63.8	4	21.2	4	-1E+10	1	-1E+10	1	-1E+10	1	-1E+10	1	-1E+10	1	-1E+10	1
4902663	27	C	04/27/2024	23:14	-127.130	48.109	0	298.70	0	6.1590	0	33.9850	0	26.734	0	295.977	0	63.6	4	21.1	4	-1E+10	1	-1E+10	1	-1E+10	1	-1E+10	1	-1E+10	1	-1E+10	1
4902663	27	C	04/27/2024	23:14	-127.130	48.109	0	299.60	0	6.1550	0	33.9850	0	26.734	0	296.868	0	63.4	4	21.0	4	-1E+10	1	-1E+10	1	-1E+10	1	-1E+10	1	-1E+10	1	-1E+10	1
4902663	27	C	04/27/2024	23:14	-127.130	48.109	0	300.90	0	6.1490	0	33.9850	0	26.735	0	298.155	0	63.0	4	20.9	4	-1E+10	1	-1E+10	1	-1E+10	1	-1E+10	1	-1E+10	1	-1E+10	1
4902663	27	C	04/27/2024	23:14	-127.130	48.109	0	302.20	0	6.1450	0	33.9860	0	26.737	0	299.442	0	62.6	4	20.8	4	-1E+10	1	-1E+10	1	-1E+10	1	-1E+10	1	-1E+10	1	-1E+10	1
4902663	27	C	04/27/2024	23:14	-127.130	48.109	0	303.00	0	6.1430	0	33.9860	0	26.737	0	300.234	0	62.2	4	20.6	4	-1E+10	1	-1E+10	1	-1E+10	1	-1E+10	1	-1E+10	1	-1E+10	1
4902663	27	C	04/27/2024	23:14	-127.130	48.109	0	303.90	0	6.1390	0	33.9870	0	26.738	0	301.125	0	61.9	4	20.5	4	-1E+10	1	-1E+10	1	-1E+10	1	-1E+10	1	-1E+10	1	-1E+10	1
4902663	27	C	04/27/2024	23:14	-127.130	48.109	0	304.80	0	6.1280	0	33.9900	0	26.742	0	302.016	0	61.5	4	20.4	4	-1E+10	1	-1E+10	1	-1E+10	1	-1E+10	1	-1E+10	1	-1E+10	1
4902663	27	C	04/27/2024	23:14	-127.130	48.109	0	305.60	0	6.1230	0	33.9910	0	26.743	0	302.809	0	61.2	4	20.3	4	-1E+10	1	-1E+10	1	-1E+10	1	-1E+10	1	-1E+10	1	-1E+10	1
4902663	27	C	04/27/2024	23:14	-127.130	48.109	0	306.90	0	6.1160	0	33.9910	0	26.744	0	304.096	0	60.8	4	20.2	4	-1E+10	1	-1E+10	1	-1E+10	1	-1E+10	1	-1E+10	1	-1E+10	1
4902663	27	C	04/27/2024	23:14	-127.130	48.109	0	308.20	0	6.1060	0	33.9970	0	26.750	0	305.383	0	60.5	4	20.1	4	-1E+10	1	-1E+10	1	-1E+10	1	-1E+10	1	-1E+10	1	-1E+10	1
4902663	27	C	04/27/2024	23:14	-127.130	48.109	0	309.10	0	6.1020	0	33.9940	0	26.748	0	306.274	0	60.3	4	20.0	4	-1E+10	1	-1E+10	1	-1E+10	1	-1E+10	1	-1E+10	1	-1E+10	1
4902663	27	C	04/27/2024	23:14	-127.130	48.109	0	310.00	0	6.0950	0	33.9930	0	26.748	0	307.165	0	60.0	4	19.9	4	-1E+10	1	-1E+10	1	-1E+10	1	-1E+10	1	-1E+10	1	-1E+10	1
4902663	27	C	04/27/2024	23:14	-127.130	48.109	0	310.90	0	6.0910	0	33.9940	0	26.750	0	308.056	0	59.8	4	19.8	4	-1E+10	1	-1E+10	1	-1E+10	1	-1E+10	1	-1E+10	1	-1E+10	1
4902663	27	C	04/27/2024	23:14	-127.130	48.109	0	311.80	0	6.0870	0	33.9940	0	26.750	0	308.947	0	59.6	4	19.7	4	-1E+10	1	-1E+10	1	-1E+10	1	-1E+10	1	-1E+10	1	-1E+10	1
4902663	27	C	04/27/2024	23:14	-127.130	48.109	0	312.70	0	6.0840	0	33.9950	0	26.751	0	309.838	0	59.3	4	19.6	4	-1E+10	1	-1E+10	1	-1E+10	1	-1E+10	1	-1E+10	1	-1E+10	1
4902663	27	C	04/27/2024	23:14	-127.130	48.109	0	313.90	0	6.0670	0	33.9940	0	26.753	0	311.027	0	58.8	4	19.5	4	-1E+10	1	-1E+10	1	-1E+10	1	-1E+10	1	-1E+10	1	-1E+10	1
4902663	27	C	04/27/2024	23:14	-127.130	48.109	0	315.30	0	6.0670	0	33.9960	0	26.754	0	312.413	0	58.4	4	19.3	4	-1E+10	1	-1E+10	1	-1E+10	1	-1E+10	1	-1E+10	1	-1E+10	1
4902663	27	C	04/27/2024	23:14	-127.130	48.109	0	316.20	0	6.0640	0	33.9980	0	26.756	0	313.304	0	58.0	4	19.2	4	-1E+10	1	-1E+10	1	-1E+10	1	-1E+10	1	-1E+10	1	-1E+10	1
4902663	27	C	04/27/2024	23:14	-127.130	48.109	0	317.00	0	6.0600	0	33.9960	0	26.755	0	314.096	0	57.7	4	19.1	4	-1E+10	1	-1E+10	1	-1E+10	1	-1E+10	1	-1E+10	1	-1E+10	1
4902663	27	C	04/27/2024	23:14	-127.130	48.109	0	317.90	0	6.0500	0	33.9960	0	26.757	0	314.987	0	57.2	4	18.9	4	-1E+10	1	-1E+10	1	-1E+10	1	-1E+10	1	-1E+10	1	-1E+10	1
4902663	27	C	04/27/2024	23:14	-127.130	48.109	0	318.80	0	6.0380	0	34.0030	0	26.764	0	315.878	0	56.8	4	18.8	4	-1E+10	1	-1E+10	1	-1E+10	1	-1E+10	1	-1E+10	1	-1E+10	1
4902663	27	C	04/27/2024	23:14	-127.130	48.109	0	319.60	0	6.0180	0	34.0030	0	26.766	0	316.670	0	56.6	4	18.7	4	-1E+10	1	-1E+10	1	-1E+10	1	-1E+10	1	-1E+10	1	-1E+10	1
4902663	27	C	04/27/2024	23:14	-127.130	48.109	0	320.90	0	6.0080	0	34.0050	0	26.769	0	317.957	0	56.4	4	18.6	4	-1E+10	1	-1E+10	1	-1E+10	1	-1E+10	1	-1E+10	1	-1E+10	1
4902663	27	C	04/27/2024	23:14	-127.130	48.109	0	322.20	0	6.0100	0	34.0060	0	26.770	0	319.244	0	56.1	4	18.6	4	-1E+10	1	-1E+10	1	-1E+10	1	-1E+10	1	-1E+10	1	-1E+10	1
4902663	27	C	04/27/2024	23:14	-127.130	48.109	0	323.10	0	6.0090	0	34.0060	0	26.770	0	320.135	0	55.9	4	18.5	4	-1E+10	1	-1E+10	1	-1E+10	1	-1E+10	1	-1E+10	1	-1E+10	1
4902663	27	C	04/27/2024	23:14	-127.130	48.109	0	324.00	0	5.9960	0	34.0080	0	26.773	0	321.026	0	55.8	4	18.5	4	-1E+10	1	-1E+10	1	-1E+10	1	-1E+10	1	-1E+10	1	-1E+10	1
4902663	27	C	04/27/2024	23:14	-127.130	48.109	0	324.90	0	5.9930	0	34.0080	0	26.773	0	321.917	0	55.7	4	18.4	4	-1E+10	1	-1E+10	1	-1E+10	1	-1E+10	1	-1E+10	1	-1E+10	1
4902663	27	C	04/27/2024	23:14	-127.130	48.109	0	325.80	0	5.9910	0	34.0070	0	26.773	0	322.808	0	55.6	4	18.4	4	-1E+10	1	-1E+10	1	-1E+10	1	-1E+10	1	-1E+10	1	-1E+10	1
4902663	27	C	04/27/2024	23:14	-127.130	48.109	0	326.70	0	5.9910	0	34.0080	0	26.774	0	323.699	0	55.5	4	18.3	4	-1E+10	1	-1E+10	1	-1E+10	1	-1E+10	1	-1E+10	1	-1E+10	1
4902663	27	C	04/27/2024	23:14	-127.130	48.109	0	327.60	0	5.9910	0	34.0080	0	26.774	0	324.590	0	55.3	4	18.3	4	-1E+10	1	-1E+10	1	-1E+10	1	-1E+10	1	-1E+10	1	-1E+10	1
4902663	27	C	04/27/2024	23:14	-127.130	48.109	0	328.90	0	5.9870	0	34.0080	0	26.774	0	325.877	0	55.1	4	18.2	4	-1E+10	1	-1E+10	1	-1E+10	1	-1E+10	1	-1E+10	1	-1E+10	1
4902663	27	C	04/27/2024	23:14	-127.130	48.109	0	330.30	0	5.9840	0	34.0080	0	26.774	0	327.263	0	54.8	4	18.1	4	-1E+10	1	-1E+10	1	-1E+10	1	-1E+10	1	-1E+10	1	-1E+10	1
4902663	27	C	04/27/2024	23:14	-127.130	48.109	0	331.20	0	5.9810	0	34.0080	0	26.775	0	328.154	0	54.6	4	18.1	4	-1E+10	1	-1E+10	1	-1E+10	1	-1E+10	1	-1E+10	1	-1E+10	1
4902663	27	C	04/27/2024	23:14	-127.130	48.109	0	332.10	0	5.9800	0	34.0080	0	26.775	0	329.045	0	54.4	4	18.0	4	-1E+10	1	-1E+10	1	-1E+10	1	-1E+10	1	-1E+10	1	-1E+10	1
4902663	27	C	04/27/2024	23:14	-127.130	48.109	0	332.90	0	5.9770	0	34.0070	0	26.775	0	329.837	0	54.2	4	17.9	4	-1E+10	1	-1E+10	1	-1E+10	1	-1E+10	1	-1E+10	1	-1E+10	1
4902663	27	C	04/27/2024	23:14	-127.130	48.109	0	333.80	0	5.9530	0	34.0110	0	26.781	0	330.728	0	54.1	4	17.9	4	-1E+10	1	-1E+10	1	-1E+10	1	-1E+10	1	-1E+10	1	-1E+10	1
4902663	27	C	04/27/2024	23:14	-127.130	48.109	0	334.70	0	5.9460	0	34.0090	0	26.780	0	331.619	0	53.9	4	17.8	4	-1E+10	1	-1E+10	1	-1E+10	1	-1E+10	1	-1E+10	1	-1E+10	1
4902663	27	C	04/27/2024	23:14	-127.130	48.109	0	335.60	0	5.9430	0	34.0100	0	26.781	0	332.510	0	53.7	4	17.7	4	-1E+10	1	-1E+10	1	-1E+10	1	-1E+10	1	-1E+10	1	-1E+10	1
4902663	27	C	04/27/2024	23:14	-127.130	48.109	0	336.90	0	5.9270	0	34.0110	0	26.784	0	333.797	0	53.5	4	17.6	4	-1E+10	1	-1E+10	1	-1E+10	1	-1E+10	1	-1E+10	1	-1E+10	1
4902663	27	C	04/27/2024	23:14	-127.130	48.109	0	338.30	0	5.9070	0	34.0090	0	26.785	0	335.183	0	53.2	4	17.5	4	-1E+10	1	-1E+10	1	-1E+10	1	-1E+10	1	-1E+10	1	-1E+10	1
4902663	27	C	04/27/2024	23:14	-127.130	48.109	0	339.10	0	5.8890	0	34.0090	0	26.787	0	335.975	0	53.1	4	17.5	4	-1E+10	1	-1E+10	1	-1E+10	1	-1E+10	1	-1E+10	1	-1E+10	1
4902663	27	C	04/27/2024	23:14	-127.130	48.109	0	340.00	0	5.8730	0	34.0090	0	26.789	0	336.866	0	52.9	4	17.4	4	-1E+10	1	-1E+10	1	-1E+10	1	-1E+10	1	-1E+10	1	-1E+10	1
4902663	27	C	04/27/2024	23:14	-127.130	48.109	0	340.90	0	5.8580	0	34.0080	0	26.790	0	337.757	0	52.8	4	17.4	4	-1E+10	1	-1E+10	1	-1E+10	1	-1E+10	1	-1E+10	1	-1E+10	1
4902663	27	C	04/27/2024	23:14	-127.130	48.109	0	341.80	0	5.8390	0	34.0070	0	26.792	0	338.648	0	52.6	4	17.3	4	-1E+10	1	-1E+10	1	-1E+10	1	-1E+10	1	-1E+10	1	-1E+10	1
4902663	27	C	04/27/2024	23:14	-127.130	48.109	0	342.70	0	5.8050	0	34.0070	0	26.796	0	339.539	0	52.5	4	17.3	4	-1E+10	1	-1E+10	1	-1E+10	1	-1E+10	1	-1E+10	1	-1E+10	1
4902663	27	C	04/27/2024	23:14	-127.130	48.109	0	343.60	0	5.8040	0	34.0100	0	26.799	0	340.430	0	52.2	4	17.2	4	-1E+10	1	-1E+10	1	-1E+10	1	-1E+10	1	-1E+10	1	-1E+10	1
4902663	27	C	04/27/2024	23:14	-127.130	48.109	0	344.50	0	5.8050	0	34.0120	0	26.800	0	341.321	0	51.9	4	17.1	4	-1E+10	1	-1E+10	1	-1E+10	1	-1E+10	1	-1E+10	1	-1E+10	1
4902663	27	C	04/27/2024	23:14	-127.130	48.109	0	345.90	0	5.7940	0	34.0140	0	26.803	0	342.707	0	51.5	4	16.9	4	-1E+10	1	-1E+10	1	-1E+10	1	-1E+10	1	-1E+10	1	-1E+10	1
4902663	27	C	04/27/2024	23:14	-127.130	48.109	0	347.30	0	5.7930	0	34.0160	0	26.805	0	344.093	0	51.1	4	16.8	4	-1E+10	1	-1E+10	1	-1E+10	1	-1E+10	1	-1E+10	1	-1E+10	1
4902663	27	C	04/27/2024	23:14	-127.130	48.109	0	348.20	0	5.7930	0	34.0180	0	26.806	0	344.984	0	50.9	4	16.7	4	-1E+10	1	-1E+10	1	-1E+10	1	-1E+10	1	-1E+10	1	-1E+10	1
4902663	27	C	04/27/2024	23:14	-127.130	48.109	0	349.20	0	5.7900	0	34.0200	0	26.808	0	345.974	0	50.6	4	16.7	4	-1E+10	1	-1E+10	1	-1E+10	1	-1E+10	1	-1E+10	1	-1E+10	1
4902663	27	C	04/27/2024	23:14	-127.130	48.109	0	350.10	0	5.7830	0	34.0210	0	26.810	0	346.865	0	50.4	4	16.6	4	-1E+10	1	-1E+10	1	-1E+10	1	-1E+10	1	-1E+10	1	-1E+10	1
4902663	27	C	04/27/2024	23:14	-127.130	48.109	0	352.90	0	5.7510	0	34.0210	0	26.814	0	349.637	0	50.0	4	16.4	4	-1E+10	1	-1E+10	1	-1E+10	1	-1E+10	1	-1E+10	1	-1E+10	1
4902663	27	C	04/27/2024	23:14	-127.130	48.109	0	357.80	0	5.7210	0	34.0210	0	26.818	0	354.487	0	49.3	4	16.2	4	-1E+10	1	-1E+10	1	-1E+10	1	-1E+10	1	-1E+10	1	-1E+10	1
4902663	27	C	04/27/2024	23:14	-127.130	48.109	0	362.80	0	5.7090	0	34.0210	0	26.819	0	359.436	0	48.4	4	15.9	4	-1E+10	1	-1E+10	1	-1E+10	1	-1E+10	1	-1E+10	1	-1E+10	1
4902663	27	C	04/27/2024	23:14	-127.130	48.109	0	367.70	0	5.7110	0	34.0260	0	26.823	0	364.287	0	46.6	4	15.3	4	-1E+10	1	-1E+10	1	-1E+10	1	-1E+10	1	-1E+10	1	-1E+10	1
4902663	27	C	04/27/2024	23:14	-127.130	48.109	0	372.70	0	5.7120	0	34.0370	0	26.831	0	369.236	0	45.2	4	14.8	4	-1E+10	1	-1E+10	1	-1E+10	1	-1E+10	1	-1E+10	1	-1E+10	1
4902663	27	C	04/27/2024	23:14	-127.130	48.109	0	377.80	0	5.6990	0	34.0400	0	26.835	0	374.284	0	43.8	4	14.4	4	-1E+10	1	-1E+10	1	-1E+10	1	-1E+10	1	-1E+10	1	-1E+10	1
4902663	27	C	04/27/2024	23:14	-127.130	48.109	0	383.00	0	5.6760	0	34.0470	0	26.844	0	379.431	0	42.9	4	14.1	4	-1E+10	1	-1E+10	1	-1E+10	1	-1E+10	1	-1E+10	1	-1E+10	1
4902663	27	C	04/27/2024	23:14	-127.130	48.109	0	388.20	0	5.6240	0	34.0490	0	26.852	0	384.577	0	42.4	4	13.9	4	-1E+10	1	-1E+10	1	-1E+10	1	-1E+10	1	-1E+10	1	-1E+10	1
4902663	27	C	04/27/2024	23:14	-127.130	48.109	0	392.90	0	5.5840	0	34.0480	0	26.856	0	389.229	0	42.2	4	13.8	4	-1E+10	1	-1E+10	1	-1E+10	1	-1E+10	1	-1E+10	1	-1E+10	1
4902663	27	C	04/27/2024	23:14	-127.130	48.109	0	397.50	0	5.5540	0	34.0490	0	26.860	0	393.782	0	42.2	4	13.8	4	-1E+10	1	-1E+10	1	-1E+10	1	-1E+10	1	-1E+10	1	-1E+10	1
4902663	27	C	04/27/2024	23:14	-127.130	48.109	0	402.70	0	5.4820	0	34.0410	0	26.863	0	398.928	0	42.3	4	13.8	4	-1E+10	1	-1E+10	1	-1E+10	1	-1E+10	1	-1E+10	1	-1E+10	1
4902663	27	C	04/27/2024	23:14	-127.130	48.109	0	407.90	0	5.3530	0	34.0360	0	26.874	0	404.074	0	42.1	4	13.7	4	-1E+10	1	-1E+10	1	-1E+10	1	-1E+10	1	-1E+10	1	-1E+10	1
4902663	27	C	04/27/2024	23:14	-127.130	48.109	0	413.10	0	5.3510	0	34.0360	0	26.874	0	409.221	0	41.3	4	13.4	4	-1E+10	1	-1E+10	1	-1E+10	1	-1E+10	1	-1E+10	1	-1E+10	1
4902663	27	C	04/27/2024	23:14	-127.130	48.109	0	417.90	0	5.3140	0	34.0380	0	26.880	0	413.971	0	40.4	4	13.1	4	-1E+10	1	-1E+10	1	-1E+10	1	-1E+10	1	-1E+10	1	-1E+10	1
4902663	27	C	04/27/2024	23:14	-127.130	48.109	0	422.70	0	5.2640	0	34.0400	0	26.888	0	418.721	0	39.4	4	12.8	4	-1E+10	1	-1E+10	1	-1E+10	1	-1E+10	1	-1E+10	1	-1E+10	1
4902663	27	C	04/27/2024	23:14	-127.130	48.109	0	428.10	0	5.2130	0	34.0410	0	26.894	0	424.064	0	37.8	4	12.3	4	-1E+10	1	-1E+10	1	-1E+10	1	-1E+10	1	-1E+10	1	-1E+10	1
4902663	27	C	04/27/2024	23:14	-127.130	48.109	0	432.90	0	5.1880	0	34.0450	0	26.901	0	428.814	0	35.9	4	11.7	4	-1E+10	1	-1E+10	1	-1E+10	1	-1E+10	1	-1E+10	1	-1E+10	1
4902663	27	C	04/27/2024	23:14	-127.130	48.109	0	437.90	0	5.2200	0	34.0620	0	26.910	0	433.762	0	33.3	4	10.8	4	-1E+10	1	-1E+10	1	-1E+10	1	-1E+10	1	-1E+10	1	-1E+10	1
4902663	27	C	04/27/2024	23:14	-127.130	48.109	0	442.90	0	5.3200	0	34.0820	0	26.915	0	438.709	0	31.7	4	10.3	4	-1E+10	1	-1E+10	1	-1E+10	1	-1E+10	1	-1E+10	1	-1E+10	1
4902663	27	C	04/27/2024	23:14	-127.130	48.109	0	447.90	0	5.3060	0	34.0880	0	26.921	0	443.657	0	30.8	4	10.0	4	-1E+10	1	-1E+10	1	-1E+10	1	-1E+10	1	-1E+10	1	-1E+10	1
4902663	27	C	04/27/2024	23:14	-127.130	48.109	0	453.30	0	5.2740	0	34.0910	0	26.927	0	449.000	0	29.8	4	9.7	4	-1E+10	1	-1E+10	1	-1E+10	1	-1E+10	1	-1E+10	1	-1E+10	1
4902663	27	C	04/27/2024	23:14	-127.130	48.109	0	458.20	0	5.2420	0	34.0950	0	26.934	0	453.848	0	28.9	4	9.4	4	-1E+10	1	-1E+10	1	-1E+10	1	-1E+10	1	-1E+10	1	-1E+10	1
4902663	27	C	04/27/2024	23:14	-127.130	48.109	0	462.70	0	5.2150	0	34.0990	0	26.941	0	458.300	0	28.0	4	9.1	4	-1E+10	1	-1E+10	1	-1E+10	1	-1E+10	1	-1E+10	1	-1E+10	1
4902663	27	C	04/27/2024	23:14	-127.130	48.109	0	467.80	0	5.1960	0	34.1050	0	26.948	0	463.346	0	27.0	4	8.8	4	-1E+10	1	-1E+10	1	-1E+10	1	-1E+10	1	-1E+10	1	-1E+10	1
4902663	27	C	04/27/2024	23:14	-127.130	48.109	0	473.10	0	5.1670	0	34.1100	0	26.955	0	468.589	0	26.1	4	8.5	4	-1E+10	1	-1E+10	1	-1E+10	1	-1E+10	1	-1E+10	1	-1E+10	1
4902663	27	C	04/27/2024	23:14	-127.130	48.109	0	478.00	0	5.1410	0	34.1140	0	26.961	0	473.437	0	25.2	4	8.2	4	-1E+10	1	-1E+10	1	-1E+10	1	-1E+10	1	-1E+10	1	-1E+10	1
4902663	27	C	04/27/2024	23:14	-127.130	48.109	0	482.90	0	5.0950	0	34.1190	0	26.970	0	478.285	0	24.3	4	7.9	4	-1E+10	1	-1E+10	1	-1E+10	1	-1E+10	1	-1E+10	1	-1E+10	1
4902663	27	C	04/27/2024	23:14	-127.130	48.109	0	487.80	0	5.0590	0	34.1230	0	26.978	0	483.132	0	23.9	4	7.7	4	-1E+10	1	-1E+10	1	-1E+10	1	-1E+10	1	-1E+10	1	-1E+10	1
4902663	27	C	04/27/2024	23:14	-127.130	48.109	0	492.80	0	5.0480	0	34.1250	0	26.981	0	488.078	0	23.6	4	7.6	4	-1E+10	1	-1E+10	1	-1E+10	1	-1E+10	1	-1E+10	1	-1E+10	1
4902663	27	C	04/27/2024	23:14	-127.130	48.109	0	497.80	0	5.0420	0	34.1250	0	26.981	0	493.025	0	23.2	4	7.5	4	-1E+10	1	-1E+10	1	-1E+10	1	-1E+10	1	-1E+10	1	-1E+10	1
4902663	27	C	04/27/2024	23:14	-127.130	48.109	0	502.90	0	4.9860	0	34.1280	0	26.990	0	498.070	0	22.9	4	7.4	4	-1E+10	1	-1E+10	1	-1E+10	1	-1E+10	1	-1E+10	1	-1E+10	1
4902663	27	C	04/27/2024	23:14	-127.130	48.109	0	508.00	0	4.9500	0	34.1270	0	26.994	0	503.114	0	22.9	4	7.4	4	-1E+10	1	-1E+10	1	-1E+10	1	-1E+10	1	-1E+10	1	-1E+10	1
4902663	27	C	04/27/2024	23:14	-127.130	48.109	0	513.20	0	4.8950	0	34.1220	0	26.996	0	508.258	0	22.9	4	7.4	4	-1E+10	1	-1E+10	1	-1E+10	1	-1E+10	1	-1E+10	1	-1E+10	1
4902663	27	C	04/27/2024	23:14	-127.130	48.109	0	518.00	0	4.8100	0	34.1180	0	27.002	0	513.006	0	22.6	4	7.3	4	-1E+10	1	-1E+10	1	-1E+10	1	-1E+10	1	-1E+10	1	-1E+10	1
4902663	27	C	04/27/2024	23:14	-127.130	48.109	0	522.80	0	4.7770	0	34.1180	0	27.006	0	517.754	0	22.1	4	7.1	4	-1E+10	1	-1E+10	1	-1E+10	1	-1E+10	1	-1E+10	1	-1E+10	1
4902663	27	C	04/27/2024	23:14	-127.130	48.109	0	527.90	0	4.7540	0	34.1210	0	27.011	0	522.798	0	21.3	4	6.8	4	-1E+10	1	-1E+10	1	-1E+10	1	-1E+10	1	-1E+10	1	-1E+10	1
4902663	27	C	04/27/2024	23:14	-127.130	48.109	0	532.90	0	4.7320	0	34.1250	0	27.016	0	527.743	0	20.4	4	6.6	4	-1E+10	1	-1E+10	1	-1E+10	1	-1E+10	1	-1E+10	1	-1E+10	1
4902663	27	C	04/27/2024	23:14	-127.130	48.109	0	538.00	0	4.7350	0	34.1320	0	27.022	0	532.787	0	19.2	4	6.2	4	-1E+10	1	-1E+10	1	-1E+10	1	-1E+10	1	-1E+10	1	-1E+10	1
4902663	27	C	04/27/2024	23:14	-127.130	48.109	0	543.00	0	4.7700	0	34.1450	0	27.028	0	537.733	0	18.3	4	5.9	4	-1E+10	1	-1E+10	1	-1E+10	1	-1E+10	1	-1E+10	1	-1E+10	1
4902663	27	C	04/27/2024	23:14	-127.130	48.109	0	548.10	0	4.7610	0	34.1500	0	27.033	0	542.776	0	17.8	4	5.7	4	-1E+10	1	-1E+10	1	-1E+10	1	-1E+10	1	-1E+10	1	-1E+10	1
4902663	27	C	04/27/2024	23:14	-127.130	48.109	0	552.90	0	4.7540	0	34.1540	0	27.037	0	547.524	0	17.5	4	5.6	4	-1E+10	1	-1E+10	1	-1E+10	1	-1E+10	1	-1E+10	1	-1E+10	1
4902663	27	C	04/27/2024	23:14	-127.130	48.109	0	557.80	0	4.7400	0	34.1550	0	27.040	0	552.369	0	17.1	4	5.5	4	-1E+10	1	-1E+10	1	-1E+10	1	-1E+10	1	-1E+10	1	-1E+10	1
4902663	27	C	04/27/2024	23:14	-127.130	48.109	0	562.60	0	4.7260	0	34.1570	0	27.043	0	557.116	0	16.6	4	5.3	4	-1E+10	1	-1E+10	1	-1E+10	1	-1E+10	1	-1E+10	1	-1E+10	1
4902663	27	C	04/27/2024	23:14	-127.130	48.109	0	567.50	0	4.6800	0	34.1590	0	27.050	0	561.962	0	16.0	4	5.1	4	-1E+10	1	-1E+10	1	-1E+10	1	-1E+10	1	-1E+10	1	-1E+10	1
4902663	27	C	04/27/2024	23:14	-127.130	48.109	0	572.50	0	4.6520	0	34.1670	0	27.059	0	566.906	0	15.5	4	5.0	4	-1E+10	1	-1E+10	1	-1E+10	1	-1E+10	1	-1E+10	1	-1E+10	1
4902663	27	C	04/27/2024	23:14	-127.130	48.109	0	577.90	0	4.6340	0	34.1680	0	27.062	0	572.246	0	15.1	4	4.9	4	-1E+10	1	-1E+10	1	-1E+10	1	-1E+10	1	-1E+10	1	-1E+10	1
4902663	27	C	04/27/2024	23:14	-127.130	48.109	0	583.20	0	4.6210	0	34.1710	0	27.066	0	577.487	0	14.7	4	4.7	4	-1E+10	1	-1E+10	1	-1E+10	1	-1E+10	1	-1E+10	1	-1E+10	1
4902663	27	C	04/27/2024	23:14	-127.130	48.109	0	588.10	0	4.6030	0	34.1750	0	27.071	0	582.332	0	14.2	4	4.5	4	-1E+10	1	-1E+10	1	-1E+10	1	-1E+10	1	-1E+10	1	-1E+10	1
4902663	27	C	04/27/2024	23:14	-127.130	48.109	0	593.00	0	4.5770	0	34.1800	0	27.078	0	587.177	0	13.8	4	4.4	4	-1E+10	1	-1E+10	1	-1E+10	1	-1E+10	1	-1E+10	1	-1E+10	1
4902663	27	C	04/27/2024	23:14	-127.130	48.109	0	597.90	0	4.5580	0	34.1840	0	27.083	0	592.022	0	13.5	4	4.3	4	-1E+10	1	-1E+10	1	-1E+10	1	-1E+10	1	-1E+10	1	-1E+10	1
4902663	27	C	04/27/2024	23:14	-127.130	48.109	0	602.70	0	4.5280	0	34.1860	0	27.088	0	596.768	0	13.3	4	4.2	4	-1E+10	1	-1E+10	1	-1E+10	1	-1E+10	1	-1E+10	1	-1E+10	1
4902663	27	C	04/27/2024	23:14	-127.130	48.109	0	607.50	0	4.5100	0	34.1890	0	27.092	0	601.514	0	13.0	4	4.2	4	-1E+10	1	-1E+10	1	-1E+10	1	-1E+10	1	-1E+10	1	-1E+10	1
4902663	27	C	04/27/2024	23:14	-127.130	48.109	0	612.90	0	4.4950	0	34.1910	0	27.095	0	606.853	0	12.9	4	4.1	4	-1E+10	1	-1E+10	1	-1E+10	1	-1E+10	1	-1E+10	1	-1E+10	1
4902663	27	C	04/27/2024	23:14	-127.130	48.109	0	618.20	0	4.4610	0	34.1900	0	27.098	0	612.093	0	12.6	4	4.0	4	-1E+10	1	-1E+10	1	-1E+10	1	-1E+10	1	-1E+10	1	-1E+10	1
4902663	27	C	04/27/2024	23:14	-127.130	48.109	0	623.20	0	4.4600	0	34.1930	0	27.101	0	617.036	0	12.4	4	4.0	4	-1E+10	1	-1E+10	1	-1E+10	1	-1E+10	1	-1E+10	1	-1E+10	1
4902663	27	C	04/27/2024	23:14	-127.130	48.109	0	628.10	0	4.4560	0	34.1970	0	27.105	0	621.880	0	12.2	4	3.9	4	-1E+10	1	-1E+10	1	-1E+10	1	-1E+10	1	-1E+10	1	-1E+10	1
4902663	27	C	04/27/2024	23:14	-127.130	48.109	0	633.10	0	4.4400	0	34.1970	0	27.106	0	626.823	0	12.1	4	3.9	4	-1E+10	1	-1E+10	1	-1E+10	1	-1E+10	1	-1E+10	1	-1E+10	1
4902663	27	C	04/27/2024	23:14	-127.130	48.109	0	638.00	0	4.4140	0	34.1980	0	27.110	0	631.667	0	11.8	4	3.8	4	-1E+10	1	-1E+10	1	-1E+10	1	-1E+10	1	-1E+10	1	-1E+10	1
4902663	27	C	04/27/2024	23:14	-127.130	48.109	0	642.90	0	4.4200	0	34.2010	0	27.112	0	636.511	0	11.5	4	3.7	4	-1E+10	1	-1E+10	1	-1E+10	1	-1E+10	1	-1E+10	1	-1E+10	1
4902663	27	C	04/27/2024	23:14	-127.130	48.109	0	647.80	0	4.4430	0	34.2070	0	27.114	0	641.355	0	11.2	4	3.6	4	-1E+10	1	-1E+10	1	-1E+10	1	-1E+10	1	-1E+10	1	-1E+10	1
4902663	27	C	04/27/2024	23:14	-127.130	48.109	0	652.70	0	4.4210	0	34.2100	0	27.119	0	646.198	0	10.9	4	3.5	4	-1E+10	1	-1E+10	1	-1E+10	1	-1E+10	1	-1E+10	1	-1E+10	1
4902663	27	C	04/27/2024	23:14	-127.130	48.109	0	657.70	0	4.4000	0	34.2150	0	27.125	0	651.141	0	10.7	4	3.4	4	-1E+10	1	-1E+10	1	-1E+10	1	-1E+10	1	-1E+10	1	-1E+10	1
4902663	27	C	04/27/2024	23:14	-127.130	48.109	0	662.70	0	4.3760	0	34.2160	0	27.128	0	656.083	0	10.5	4	3.4	4	-1E+10	1	-1E+10	1	-1E+10	1	-1E+10	1	-1E+10	1	-1E+10	1
4902663	27	C	04/27/2024	23:14	-127.130	48.109	0	667.90	0	4.3540	0	34.2190	0	27.133	0	661.223	0	10.3	4	3.3	4	-1E+10	1	-1E+10	1	-1E+10	1	-1E+10	1	-1E+10	1	-1E+10	1
4902663	27	C	04/27/2024	23:14	-127.130	48.109	0	673.00	0	4.3320	0	34.2220	0	27.138	0	666.264	0	10.1	4	3.2	4	-1E+10	1	-1E+10	1	-1E+10	1	-1E+10	1	-1E+10	1	-1E+10	1
4902663	27	C	04/27/2024	23:14	-127.130	48.109	0	678.30	0	4.3140	0	34.2240	0	27.141	0	671.502	0	10.0	4	3.2	4	-1E+10	1	-1E+10	1	-1E+10	1	-1E+10	1	-1E+10	1	-1E+10	1
4902663	27	C	04/27/2024	23:14	-127.130	48.109	0	682.90	0	4.3020	0	34.2260	0	27.144	0	676.048	0	9.9	4	3.1	4	-1E+10	1	-1E+10	1	-1E+10	1	-1E+10	1	-1E+10	1	-1E+10	1
4902663	27	C	04/27/2024	23:14	-127.130	48.109	0	687.60	0	4.2930	0	34.2270	0	27.146	0	680.694	0	9.7	4	3.1	4	-1E+10	1	-1E+10	1	-1E+10	1	-1E+10	1	-1E+10	1	-1E+10	1
4902663	27	C	04/27/2024	23:14	-127.130	48.109	0	692.90	0	4.2740	0	34.2300	0	27.151	0	685.932	0	9.5	4	3.0	4	-1E+10	1	-1E+10	1	-1E+10	1	-1E+10	1	-1E+10	1	-1E+10	1
4902663	27	C	04/27/2024	23:14	-127.130	48.109	0	698.20	0	4.2600	0	34.2340	0	27.155	0	691.170	0	9.3	4	3.0	4	-1E+10	1	-1E+10	1	-1E+10	1	-1E+10	1	-1E+10	1	-1E+10	1
4902663	27	C	04/27/2024	23:14	-127.130	48.109	0	703.10	0	4.2500	0	34.2360	0	27.158	0	696.012	0	9.2	4	2.9	4	-1E+10	1	-1E+10	1	-1E+10	1	-1E+10	1	-1E+10	1	-1E+10	1
4902663	27	C	04/27/2024	23:14	-127.130	48.109	0	708.10	0	4.2280	0	34.2390	0	27.163	0	700.953	0	8.9	4	2.8	4	-1E+10	1	-1E+10	1	-1E+10	1	-1E+10	1	-1E+10	1	-1E+10	1
4902663	27	C	04/27/2024	23:14	-127.130	48.109	0	713.00	0	4.2050	0	34.2440	0	27.169	0	705.795	0	8.8	4	2.8	4	-1E+10	1	-1E+10	1	-1E+10	1	-1E+10	1	-1E+10	1	-1E+10	1
4902663	27	C	04/27/2024	23:14	-127.130	48.109	0	718.10	0	4.1940	0	34.2490	0	27.174	0	710.835	0	8.6	4	2.7	4	-1E+10	1	-1E+10	1	-1E+10	1	-1E+10	1	-1E+10	1	-1E+10	1
4902663	27	C	04/27/2024	23:14	-127.130	48.109	0	723.10	0	4.1900	0	34.2520	0	27.177	0	715.776	0	8.5	4	2.7	4	-1E+10	1	-1E+10	1	-1E+10	1	-1E+10	1	-1E+10	1	-1E+10	1
4902663	27	C	04/27/2024	23:14	-127.130	48.109	0	728.20	0	4.1790	0	34.2530	0	27.179	0	720.816	0	8.4	4	2.7	4	-1E+10	1	-1E+10	1	-1E+10	1	-1E+10	1	-1E+10	1	-1E+10	1
4902663	27	C	04/27/2024	23:14	-127.130	48.109	0	733.10	0	4.1680	0	34.2570	0	27.183	0	725.657	0	8.2	4	2.6	4	-1E+10	1	-1E+10	1	-1E+10	1	-1E+10	1	-1E+10	1	-1E+10	1
4902663	27	C	04/27/2024	23:14	-127.130	48.109	0	738.10	0	4.1590	0	34.2610	0	27.188	0	730.598	0	8.0	4	2.5	4	-1E+10	1	-1E+10	1	-1E+10	1	-1E+10	1	-1E+10	1	-1E+10	1
4902663	27	C	04/27/2024	23:14	-127.130	48.109	0	743.00	0	4.1510	0	34.2660	0	27.192	0	735.439	0	7.9	4	2.5	4	-1E+10	1	-1E+10	1	-1E+10	1	-1E+10	1	-1E+10	1	-1E+10	1
4902663	27	C	04/27/2024	23:14	-127.130	48.109	0	747.90	0	4.1480	0	34.2700	0	27.196	0	740.281	0	7.8	4	2.5	4	-1E+10	1	-1E+10	1	-1E+10	1	-1E+10	1	-1E+10	1	-1E+10	1
4902663	27	C	04/27/2024	23:14	-127.130	48.109	0	752.80	0	4.1310	0	34.2740	0	27.201	0	745.122	0	7.7	4	2.4	4	-1E+10	1	-1E+10	1	-1E+10	1	-1E+10	1	-1E+10	1	-1E+10	1
4902663	27	C	04/27/2024	23:14	-127.130	48.109	0	757.70	0	4.1220	0	34.2770	0	27.204	0	749.964	0	7.6	4	2.4	4	-1E+10	1	-1E+10	1	-1E+10	1	-1E+10	1	-1E+10	1	-1E+10	1
4902663	27	C	04/27/2024	23:14	-127.130	48.109	0	763.10	0	4.1080	0	34.2800	0	27.208	0	755.299	0	7.5	4	2.4	4	-1E+10	1	-1E+10	1	-1E+10	1	-1E+10	1	-1E+10	1	-1E+10	1
4902663	27	C	04/27/2024	23:14	-127.130	48.109	0	767.90	0	4.0960	0	34.2840	0	27.213	0	760.041	0	7.4	4	2.4	4	-1E+10	1	-1E+10	1	-1E+10	1	-1E+10	1	-1E+10	1	-1E+10	1
4902663	27	C	04/27/2024	23:14	-127.130	48.109	0	772.70	0	4.0840	0	34.2860	0	27.216	0	764.783	0	7.4	4	2.3	4	-1E+10	1	-1E+10	1	-1E+10	1	-1E+10	1	-1E+10	1	-1E+10	1
4902663	27	C	04/27/2024	23:14	-127.130	48.109	0	778.10	0	4.0600	0	34.2920	0	27.223	0	770.118	0	7.3	4	2.3	4	-1E+10	1	-1E+10	1	-1E+10	1	-1E+10	1	-1E+10	1	-1E+10	1
4902663	27	C	04/27/2024	23:14	-127.130	48.109	0	783.30	0	4.0400	0	34.2960	0	27.228	0	775.255	0	7.2	4	2.3	4	-1E+10	1	-1E+10	1	-1E+10	1	-1E+10	1	-1E+10	1	-1E+10	1
4902663	27	C	04/27/2024	23:14	-127.130	48.109	0	788.10	0	4.0310	0	34.2990	0	27.231	0	779.996	0	7.2	4	2.3	4	-1E+10	1	-1E+10	1	-1E+10	1	-1E+10	1	-1E+10	1	-1E+10	1
4902663	27	C	04/27/2024	23:14	-127.130	48.109	0	792.80	0	4.0190	0	34.3000	0	27.233	0	784.639	0	7.1	4	2.3	4	-1E+10	1	-1E+10	1	-1E+10	1	-1E+10	1	-1E+10	1	-1E+10	1
4902663	27	C	04/27/2024	23:14	-127.130	48.109	0	798.10	0	3.9870	0	34.3020	0	27.238	0	789.875	0	7.1	4	2.2	4	-1E+10	1	-1E+10	1	-1E+10	1	-1E+10	1	-1E+10	1	-1E+10	1
4902663	27	C	04/27/2024	23:14	-127.130	48.109	0	802.80	0	3.9770	0	34.3060	0	27.243	0	794.517	0	7.0	4	2.2	4	-1E+10	1	-1E+10	1	-1E+10	1	-1E+10	1	-1E+10	1	-1E+10	1
4902663	27	C	04/27/2024	23:14	-127.130	48.109	0	807.80	0	3.9600	0	34.3090	0	27.247	0	799.456	0	7.0	4	2.2	4	-1E+10	1	-1E+10	1	-1E+10	1	-1E+10	1	-1E+10	1	-1E+10	1
4902663	27	C	04/27/2024	23:14	-127.130	48.109	0	812.90	0	3.9460	0	34.3140	0	27.252	0	804.494	0	7.0	4	2.2	4	-1E+10	1	-1E+10	1	-1E+10	1	-1E+10	1	-1E+10	1	-1E+10	1
4902663	27	C	04/27/2024	23:14	-127.130	48.109	0	817.70	0	3.9200	0	34.3150	0	27.256	0	809.235	0	7.0	4	2.2	4	-1E+10	1	-1E+10	1	-1E+10	1	-1E+10	1	-1E+10	1	-1E+10	1
4902663	27	C	04/27/2024	23:14	-127.130	48.109	0	823.00	0	3.9050	0	34.3170	0	27.259	0	814.469	0	7.0	4	2.2	4	-1E+10	1	-1E+10	1	-1E+10	1	-1E+10	1	-1E+10	1	-1E+10	1
4902663	27	C	04/27/2024	23:14	-127.130	48.109	0	828.30	0	3.8900	0	34.3190	0	27.262	0	819.704	0	6.9	4	2.2	4	-1E+10	1	-1E+10	1	-1E+10	1	-1E+10	1	-1E+10	1	-1E+10	1
4902663	27	C	04/27/2024	23:14	-127.130	48.109	0	833.20	0	3.8840	0	34.3230	0	27.266	0	824.544	0	6.9	4	2.2	4	-1E+10	1	-1E+10	1	-1E+10	1	-1E+10	1	-1E+10	1	-1E+10	1
4902663	27	C	04/27/2024	23:14	-127.130	48.109	0	838.10	0	3.8660	0	34.3260	0	27.270	0	829.383	0	6.9	4	2.2	4	-1E+10	1	-1E+10	1	-1E+10	1	-1E+10	1	-1E+10	1	-1E+10	1
4902663	27	C	04/27/2024	23:14	-127.130	48.109	0	843.10	0	3.8550	0	34.3310	0	27.275	0	834.321	0	6.8	4	2.2	4	-1E+10	1	-1E+10	1	-1E+10	1	-1E+10	1	-1E+10	1	-1E+10	1
4902663	27	C	04/27/2024	23:14	-127.130	48.109	0	848.20	0	3.8610	0	34.3350	0	27.278	0	839.358	0	6.8	4	2.2	4	-1E+10	1	-1E+10	1	-1E+10	1	-1E+10	1	-1E+10	1	-1E+10	1
4902663	27	C	04/27/2024	23:14	-127.130	48.109	0	852.90	0	3.8500	0	34.3360	0	27.280	0	843.999	0	6.9	4	2.2	4	-1E+10	1	-1E+10	1	-1E+10	1	-1E+10	1	-1E+10	1	-1E+10	1
4902663	27	C	04/27/2024	23:14	-127.130	48.109	0	857.80	0	3.8370	0	34.3390	0	27.283	0	848.838	0	6.9	4	2.2	4	-1E+10	1	-1E+10	1	-1E+10	1	-1E+10	1	-1E+10	1	-1E+10	1
4902663	27	C	04/27/2024	23:14	-127.130	48.109	0	863.00	0	3.8260	0	34.3430	0	27.288	0	853.973	0	6.9	4	2.2	4	-1E+10	1	-1E+10	1	-1E+10	1	-1E+10	1	-1E+10	1	-1E+10	1
4902663	27	C	04/27/2024	23:14	-127.130	48.109	0	867.60	0	3.8170	0	34.3450	0	27.290	0	858.516	0	6.9	4	2.2	4	-1E+10	1	-1E+10	1	-1E+10	1	-1E+10	1	-1E+10	1	-1E+10	1
4902663	27	C	04/27/2024	23:14	-127.130	48.109	0	872.70	0	3.8110	0	34.3450	0	27.291	0	863.552	0	6.9	4	2.2	4	-1E+10	1	-1E+10	1	-1E+10	1	-1E+10	1	-1E+10	1	-1E+10	1
4902663	27	C	04/27/2024	23:14	-127.130	48.109	0	877.90	0	3.7710	0	34.3460	0	27.296	0	868.686	0	7.0	4	2.2	4	-1E+10	1	-1E+10	1	-1E+10	1	-1E+10	1	-1E+10	1	-1E+10	1
4902663	27	C	04/27/2024	23:14	-127.130	48.109	0	882.70	0	3.7550	0	34.3460	0	27.297	0	873.426	0	7.0	4	2.2	4	-1E+10	1	-1E+10	1	-1E+10	1	-1E+10	1	-1E+10	1	-1E+10	1
4902663	27	C	04/27/2024	23:14	-127.130	48.109	0	887.90	0	3.7470	0	34.3470	0	27.299	0	878.560	0	7.0	4	2.2	4	-1E+10	1	-1E+10	1	-1E+10	1	-1E+10	1	-1E+10	1	-1E+10	1
4902663	27	C	04/27/2024	23:14	-127.130	48.109	0	893.30	0	3.7390	0	34.3480	0	27.301	0	883.892	0	7.1	4	2.2	4	-1E+10	1	-1E+10	1	-1E+10	1	-1E+10	1	-1E+10	1	-1E+10	1
4902663	27	C	04/27/2024	23:14	-127.130	48.109	0	898.20	0	3.7210	0	34.3490	0	27.303	0	888.730	0	7.1	4	2.2	4	-1E+10	1	-1E+10	1	-1E+10	1	-1E+10	1	-1E+10	1	-1E+10	1
4902663	27	C	04/27/2024	23:14	-127.130	48.109	0	903.20	0	3.7020	0	34.3520	0	27.307	0	893.667	0	7.2	4	2.2	4	-1E+10	1	-1E+10	1	-1E+10	1	-1E+10	1	-1E+10	1	-1E+10	1
4902663	27	C	04/27/2024	23:14	-127.130	48.109	0	908.30	0	3.6920	0	34.3530	0	27.309	0	898.702	0	7.2	4	2.3	4	-1E+10	1	-1E+10	1	-1E+10	1	-1E+10	1	-1E+10	1	-1E+10	1
4902663	27	C	04/27/2024	23:14	-127.130	48.109	0	912.90	0	3.6780	0	34.3540	0	27.311	0	903.244	0	7.2	4	2.3	4	-1E+10	1	-1E+10	1	-1E+10	1	-1E+10	1	-1E+10	1	-1E+10	1
4902663	27	C	04/27/2024	23:14	-127.130	48.109	0	917.50	0	3.6690	0	34.3560	0	27.314	0	907.785	0	7.3	4	2.3	4	-1E+10	1	-1E+10	1	-1E+10	1	-1E+10	1	-1E+10	1	-1E+10	1
4902663	27	C	04/27/2024	23:14	-127.130	48.109	0	922.70	0	3.6510	0	34.3570	0	27.317	0	912.919	0	7.3	4	2.3	4	-1E+10	1	-1E+10	1	-1E+10	1	-1E+10	1	-1E+10	1	-1E+10	1
4902663	27	C	04/27/2024	23:14	-127.130	48.109	0	928.10	0	3.6420	0	34.3610	0	27.321	0	918.249	0	7.4	4	2.3	4	-1E+10	1	-1E+10	1	-1E+10	1	-1E+10	1	-1E+10	1	-1E+10	1
4902663	27	C	04/27/2024	23:14	-127.130	48.109	0	932.80	0	3.6320	0	34.3620	0	27.322	0	922.889	0	7.4	4	2.3	4	-1E+10	1	-1E+10	1	-1E+10	1	-1E+10	1	-1E+10	1	-1E+10	1
4902663	27	C	04/27/2024	23:14	-127.130	48.109	0	937.90	0	3.6200	0	34.3660	0	27.327	0	927.924	0	7.5	4	2.3	4	-1E+10	1	-1E+10	1	-1E+10	1	-1E+10	1	-1E+10	1	-1E+10	1
4902663	27	C	04/27/2024	23:14	-127.130	48.109	0	943.00	0	3.5880	0	34.3670	0	27.331	0	932.958	0	7.5	4	2.4	4	-1E+10	1	-1E+10	1	-1E+10	1	-1E+10	1	-1E+10	1	-1E+10	1
4902663	27	C	04/27/2024	23:14	-127.130	48.109	0	947.90	0	3.5770	0	34.3700	0	27.334	0	937.795	0	7.6	4	2.4	4	-1E+10	1	-1E+10	1	-1E+10	1	-1E+10	1	-1E+10	1	-1E+10	1
4902663	27	C	04/27/2024	23:14	-127.130	48.109	0	952.90	0	3.5740	0	34.3710	0	27.335	0	942.730	0	7.6	4	2.4	4	-1E+10	1	-1E+10	1	-1E+10	1	-1E+10	1	-1E+10	1	-1E+10	1
4902663	27	C	04/27/2024	23:14	-127.130	48.109	0	957.90	0	3.5650	0	34.3710	0	27.336	0	947.666	0	7.7	4	2.4	4	-1E+10	1	-1E+10	1	-1E+10	1	-1E+10	1	-1E+10	1	-1E+10	1
4902663	27	C	04/27/2024	23:14	-127.130	48.109	0	963.00	0	3.5510	0	34.3720	0	27.339	0	952.700	0	7.8	4	2.4	4	-1E+10	1	-1E+10	1	-1E+10	1	-1E+10	1	-1E+10	1	-1E+10	1
4902663	27	C	04/27/2024	23:14	-127.130	48.109	0	968.10	0	3.5190	0	34.3710	0	27.341	0	957.733	0	7.9	4	2.5	4	-1E+10	1	-1E+10	1	-1E+10	1	-1E+10	1	-1E+10	1	-1E+10	1
4902663	27	C	04/27/2024	23:14	-127.130	48.109	0	973.10	0	3.5120	0	34.3740	0	27.344	0	962.668	0	7.9	4	2.5	4	-1E+10	1	-1E+10	1	-1E+10	1	-1E+10	1	-1E+10	1	-1E+10	1
4902663	27	C	04/27/2024	23:14	-127.130	48.109	0	978.20	0	3.4950	0	34.3760	0	27.347	0	967.702	0	8.0	4	2.5	4	-1E+10	1	-1E+10	1	-1E+10	1	-1E+10	1	-1E+10	1	-1E+10	1
4902663	27	C	04/27/2024	23:14	-127.130	48.109	0	983.20	0	3.4800	0	34.3780	0	27.350	0	972.637	0	8.0	4	2.5	4	-1E+10	1	-1E+10	1	-1E+10	1	-1E+10	1	-1E+10	1	-1E+10	1
4902663	27	C	04/27/2024	23:14	-127.130	48.109	0	987.90	0	3.4760	0	34.3810	0	27.353	0	977.275	0	8.1	4	2.5	4	-1E+10	1	-1E+10	1	-1E+10	1	-1E+10	1	-1E+10	1	-1E+10	1
4902663	27	C	04/27/2024	23:14	-127.130	48.109	0	992.60	0	3.4740	0	34.3850	0	27.356	0	981.914	0	8.1	4	2.5	4	-1E+10	1	-1E+10	1	-1E+10	1	-1E+10	1	-1E+10	1	-1E+10	1
4902663	27	C	04/27/2024	23:14	-127.130	48.109	0	997.60	0	3.4690	0	34.3870	0	27.359	0	986.848	0	8.2	4	2.6	4	-1E+10	1	-1E+10	1	-1E+10	1	-1E+10	1	-1E+10	1	-1E+10	1
4902663	27	C	04/27/2024	23:14	-127.130	48.109	0	1005.30	0	3.4380	0	34.3910	0	27.365	0	994.447	0	8.3	4	2.6	4	-1E+10	1	-1E+10	1	-1E+10	1	-1E+10	1	-1E+10	1	-1E+10	1
4902663	27	C	04/27/2024	23:14	-127.130	48.109	0	1015.60	0	3.4110	0	34.3930	0	27.369	0	1004.611	0	8.5	4	2.6	4	-1E+10	1	-1E+10	1	-1E+10	1	-1E+10	1	-1E+10	1	-1E+10	1
4902663	27	C	04/27/2024	23:14	-127.130	48.109	0	1025.50	0	3.3960	0	34.3970	0	27.374	0	1014.380	0	8.6	4	2.7	4	-1E+10	1	-1E+10	1	-1E+10	1	-1E+10	1	-1E+10	1	-1E+10	1
4902663	27	C	04/27/2024	23:14	-127.130	48.109	0	1035.10	0	3.3890	0	34.4010	0	27.378	0	1023.852	0	8.7	4	2.7	4	-1E+10	1	-1E+10	1	-1E+10	1	-1E+10	1	-1E+10	1	-1E+10	1
4902663	27	C	04/27/2024	23:14	-127.130	48.109	0	1045.30	0	3.3690	0	34.4040	0	27.382	0	1033.916	0	8.9	4	2.8	4	-1E+10	1	-1E+10	1	-1E+10	1	-1E+10	1	-1E+10	1	-1E+10	1
4902663	27	C	04/27/2024	23:14	-127.130	48.109	0	1055.50	0	3.3480	0	34.4070	0	27.386	0	1043.980	0	9.1	4	2.8	4	-1E+10	1	-1E+10	1	-1E+10	1	-1E+10	1	-1E+10	1	-1E+10	1
4902663	27	C	04/27/2024	23:14	-127.130	48.109	0	1065.50	0	3.3220	0	34.4110	0	27.392	0	1053.846	0	9.3	4	2.9	4	-1E+10	1	-1E+10	1	-1E+10	1	-1E+10	1	-1E+10	1	-1E+10	1
4902663	27	C	04/27/2024	23:14	-127.130	48.109	0	1075.50	0	3.2920	0	34.4130	0	27.397	0	1063.711	0	9.5	4	3.0	4	-1E+10	1	-1E+10	1	-1E+10	1	-1E+10	1	-1E+10	1	-1E+10	1
4902663	27	C	04/27/2024	23:14	-127.130	48.109	0	1085.20	0	3.2740	0	34.4170	0	27.402	0	1073.280	0	9.7	4	3.0	4	-1E+10	1	-1E+10	1	-1E+10	1	-1E+10	1	-1E+10	1	-1E+10	1
4902663	27	C	04/27/2024	23:14	-127.130	48.109	0	1095.40	0	3.2470	0	34.4200	0	27.406	0	1083.342	0	10.0	4	3.1	4	-1E+10	1	-1E+10	1	-1E+10	1	-1E+10	1	-1E+10	1	-1E+10	1
4902663	27	C	04/27/2024	23:14	-127.130	48.109	0	1105.50	0	3.2260	0	34.4230	0	27.411	0	1093.304	0	10.4	4	3.2	4	-1E+10	1	-1E+10	1	-1E+10	1	-1E+10	1	-1E+10	1	-1E+10	1
4902663	27	C	04/27/2024	23:14	-127.130	48.109	0	1115.10	0	3.2240	0	34.4320	0	27.418	0	1102.773	0	10.8	4	3.3	4	-1E+10	1	-1E+10	1	-1E+10	1	-1E+10	1	-1E+10	1	-1E+10	1
4902663	27	C	04/27/2024	23:14	-127.130	48.109	0	1125.40	0	3.2120	0	34.4340	0	27.421	0	1112.932	0	10.9	4	3.4	4	-1E+10	1	-1E+10	1	-1E+10	1	-1E+10	1	-1E+10	1	-1E+10	1
4902663	27	C	04/27/2024	23:14	-127.130	48.109	0	1135.80	0	3.1860	0	34.4360	0	27.425	0	1123.189	0	11.1	4	3.5	4	-1E+10	1	-1E+10	1	-1E+10	1	-1E+10	1	-1E+10	1	-1E+10	1
4902663	27	C	04/27/2024	23:14	-127.130	48.109	0	1145.80	0	3.1570	0	34.4390	0	27.430	0	1133.051	0	11.5	4	3.6	4	-1E+10	1	-1E+10	1	-1E+10	1	-1E+10	1	-1E+10	1	-1E+10	1
4902663	27	C	04/27/2024	23:14	-127.130	48.109	0	1155.40	0	3.1320	0	34.4430	0	27.436	0	1142.518	0	11.8	4	3.7	4	-1E+10	1	-1E+10	1	-1E+10	1	-1E+10	1	-1E+10	1	-1E+10	1
4902663	27	C	04/27/2024	23:14	-127.130	48.109	0	1165.10	0	3.1100	0	34.4460	0	27.440	0	1152.083	0	12.0	4	3.7	4	-1E+10	1	-1E+10	1	-1E+10	1	-1E+10	1	-1E+10	1	-1E+10	1
4902663	27	C	04/27/2024	23:14	-127.130	48.109	0	1175.30	0	3.0840	0	34.4480	0	27.444	0	1162.141	0	12.2	4	3.8	4	-1E+10	1	-1E+10	1	-1E+10	1	-1E+10	1	-1E+10	1	-1E+10	1
4902663	27	C	04/27/2024	23:14	-127.130	48.109	0	1185.60	0	3.0720	0	34.4490	0	27.446	0	1172.297	0	12.3	4	3.8	4	-1E+10	1	-1E+10	1	-1E+10	1	-1E+10	1	-1E+10	1	-1E+10	1
4902663	27	C	04/27/2024	23:14	-127.130	48.109	0	1195.50	0	3.0590	0	34.4510	0	27.449	0	1182.058	0	12.6	4	3.9	4	-1E+10	1	-1E+10	1	-1E+10	1	-1E+10	1	-1E+10	1	-1E+10	1
4902663	27	C	04/27/2024	23:14	-127.130	48.109	0	1205.20	0	3.0430	0	34.4530	0	27.452	0	1191.622	0	12.8	4	4.0	4	-1E+10	1	-1E+10	1	-1E+10	1	-1E+10	1	-1E+10	1	-1E+10	1
4902663	27	C	04/27/2024	23:14	-127.130	48.109	0	1215.30	0	3.0290	0	34.4550	0	27.455	0	1201.579	0	13.1	4	4.0	4	-1E+10	1	-1E+10	1	-1E+10	1	-1E+10	1	-1E+10	1	-1E+10	1
4902663	27	C	04/27/2024	23:14	-127.130	48.109	0	1225.80	0	3.0100	0	34.4580	0	27.459	0	1211.930	0	13.4	4	4.1	4	-1E+10	1	-1E+10	1	-1E+10	1	-1E+10	1	-1E+10	1	-1E+10	1
4902663	27	C	04/27/2024	23:14	-127.130	48.109	0	1236.00	0	2.9920	0	34.4610	0	27.463	0	1221.985	0	13.6	4	4.2	4	-1E+10	1	-1E+10	1	-1E+10	1	-1E+10	1	-1E+10	1	-1E+10	1
4902663	27	C	04/27/2024	23:14	-127.130	48.109	0	1245.50	0	2.9680	0	34.4620	0	27.466	0	1231.350	0	13.9	4	4.3	4	-1E+10	1	-1E+10	1	-1E+10	1	-1E+10	1	-1E+10	1	-1E+10	1
4902663	27	C	04/27/2024	23:14	-127.130	48.109	0	1255.30	0	2.9420	0	34.4650	0	27.471	0	1241.009	0	14.3	4	4.4	4	-1E+10	1	-1E+10	1	-1E+10	1	-1E+10	1	-1E+10	1	-1E+10	1
4902663	27	C	04/27/2024	23:14	-127.130	48.109	0	1265.10	0	2.9230	0	34.4670	0	27.475	0	1250.669	0	14.6	4	4.5	4	-1E+10	1	-1E+10	1	-1E+10	1	-1E+10	1	-1E+10	1	-1E+10	1
4902663	27	C	04/27/2024	23:14	-127.130	48.109	0	1275.30	0	2.8990	0	34.4700	0	27.479	0	1260.722	0	15.1	4	4.7	4	-1E+10	1	-1E+10	1	-1E+10	1	-1E+10	1	-1E+10	1	-1E+10	1
4902663	27	C	04/27/2024	23:14	-127.130	48.109	0	1285.20	0	2.8790	0	34.4730	0	27.483	0	1270.479	0	15.6	4	4.8	4	-1E+10	1	-1E+10	1	-1E+10	1	-1E+10	1	-1E+10	1	-1E+10	1
4902663	27	C	04/27/2024	23:14	-127.130	48.109	0	1295.40	0	2.8610	0	34.4760	0	27.487	0	1280.531	0	16.3	4	5.0	4	-1E+10	1	-1E+10	1	-1E+10	1	-1E+10	1	-1E+10	1	-1E+10	1
4902663	27	C	04/27/2024	23:14	-127.130	48.109	0	1305.50	0	2.8460	0	34.4790	0	27.491	0	1290.484	0	16.7	4	5.1	4	-1E+10	1	-1E+10	1	-1E+10	1	-1E+10	1	-1E+10	1	-1E+10	1
4902663	27	C	04/27/2024	23:14	-127.130	48.109	0	1315.50	0	2.8270	0	34.4810	0	27.494	0	1300.338	0	17.1	4	5.3	4	-1E+10	1	-1E+10	1	-1E+10	1	-1E+10	1	-1E+10	1	-1E+10	1
4902663	27	C	04/27/2024	23:14	-127.130	48.109	0	1325.70	0	2.8090	0	34.4820	0	27.497	0	1310.389	0	17.4	4	5.4	4	-1E+10	1	-1E+10	1	-1E+10	1	-1E+10	1	-1E+10	1	-1E+10	1
4902663	27	C	04/27/2024	23:14	-127.130	48.109	0	1335.60	0	2.7870	0	34.4840	0	27.501	0	1320.144	0	17.8	4	5.5	4	-1E+10	1	-1E+10	1	-1E+10	1	-1E+10	1	-1E+10	1	-1E+10	1
4902663	27	C	04/27/2024	23:14	-127.130	48.109	0	1345.50	0	2.7740	0	34.4860	0	27.503	0	1329.898	0	18.2	4	5.6	4	-1E+10	1	-1E+10	1	-1E+10	1	-1E+10	1	-1E+10	1	-1E+10	1
4902663	27	C	04/27/2024	23:14	-127.130	48.109	0	1355.60	0	2.7570	0	34.4880	0	27.506	0	1339.849	0	18.7	4	5.7	4	-1E+10	1	-1E+10	1	-1E+10	1	-1E+10	1	-1E+10	1	-1E+10	1
4902663	27	C	04/27/2024	23:14	-127.130	48.109	0	1365.70	0	2.7320	0	34.4910	0	27.511	0	1349.799	0	19.3	4	5.9	4	-1E+10	1	-1E+10	1	-1E+10	1	-1E+10	1	-1E+10	1	-1E+10	1
4902663	27	C	04/27/2024	23:14	-127.130	48.109	0	1375.30	0	2.7260	0	34.4930	0	27.513	0	1359.256	0	19.8	4	6.1	4	-1E+10	1	-1E+10	1	-1E+10	1	-1E+10	1	-1E+10	1	-1E+10	1
4902663	27	C	04/27/2024	23:14	-127.130	48.109	0	1385.00	0	2.7120	0	34.4950	0	27.516	0	1368.812	0	20.1	4	6.2	4	-1E+10	1	-1E+10	1	-1E+10	1	-1E+10	1	-1E+10	1	-1E+10	1
4902663	27	C	04/27/2024	23:14	-127.130	48.109	0	1395.20	0	2.6990	0	34.4970	0	27.519	0	1378.859	0	20.6	4	6.3	4	-1E+10	1	-1E+10	1	-1E+10	1	-1E+10	1	-1E+10	1	-1E+10	1
4902663	27	C	04/27/2024	23:14	-127.130	48.109	0	1405.40	0	2.6810	0	34.4990	0	27.522	0	1388.906	0	21.0	4	6.4	4	-1E+10	1	-1E+10	1	-1E+10	1	-1E+10	1	-1E+10	1	-1E+10	1
4902663	27	C	04/27/2024	23:14	-127.130	48.109	0	1415.80	0	2.6710	0	34.5000	0	27.524	0	1399.150	0	21.3	4	6.5	4	-1E+10	1	-1E+10	1	-1E+10	1	-1E+10	1	-1E+10	1	-1E+10	1
4902663	27	C	04/27/2024	23:14	-127.130	48.109	0	1425.50	0	2.6520	0	34.5010	0	27.526	0	1408.703	0	21.6	4	6.6	4	-1E+10	1	-1E+10	1	-1E+10	1	-1E+10	1	-1E+10	1	-1E+10	1
4902663	27	C	04/27/2024	23:14	-127.130	48.109	0	1435.00	0	2.6340	0	34.5020	0	27.529	0	1418.059	0	21.9	4	6.7	4	-1E+10	1	-1E+10	1	-1E+10	1	-1E+10	1	-1E+10	1	-1E+10	1
4902663	27	C	04/27/2024	23:14	-127.130	48.109	0	1445.10	0	2.6250	0	34.5040	0	27.531	0	1428.006	0	22.2	4	6.8	4	-1E+10	1	-1E+10	1	-1E+10	1	-1E+10	1	-1E+10	1	-1E+10	1
4902663	27	C	04/27/2024	23:14	-127.130	48.109	0	1455.10	0	2.6210	0	34.5050	0	27.532	0	1437.854	0	22.5	4	6.9	4	-1E+10	1	-1E+10	1	-1E+10	1	-1E+10	1	-1E+10	1	-1E+10	1
4902663	27	C	04/27/2024	23:14	-127.130	48.109	0	1465.40	0	2.6020	0	34.5060	0	27.535	0	1447.996	0	22.9	4	7.0	4	-1E+10	1	-1E+10	1	-1E+10	1	-1E+10	1	-1E+10	1	-1E+10	1
4902663	27	C	04/27/2024	23:14	-127.130	48.109	0	1475.80	0	2.5820	0	34.5070	0	27.537	0	1458.237	0	23.4	4	7.1	4	-1E+10	1	-1E+10	1	-1E+10	1	-1E+10	1	-1E+10	1	-1E+10	1
4902663	27	C	04/27/2024	23:14	-127.130	48.109	0	1485.80	0	2.5690	0	34.5090	0	27.540	0	1468.083	0	23.9	4	7.3	4	-1E+10	1	-1E+10	1	-1E+10	1	-1E+10	1	-1E+10	1	-1E+10	1
4902663	27	C	04/27/2024	23:14	-127.130	48.109	0	1495.60	0	2.5560	0	34.5110	0	27.543	0	1477.732	0	24.4	4	7.5	4	-1E+10	1	-1E+10	1	-1E+10	1	-1E+10	1	-1E+10	1	-1E+10	1
4902663	27	C	04/27/2024	23:14	-127.130	48.109	0	1505.20	0	2.5390	0	34.5130	0	27.546	0	1487.184	0	24.9	4	7.6	4	-1E+10	1	-1E+10	1	-1E+10	1	-1E+10	1	-1E+10	1	-1E+10	1
4902663	27	C	04/27/2024	23:14	-127.130	48.109	0	1515.40	0	2.5150	0	34.5150	0	27.550	0	1497.226	0	25.4	4	7.7	4	-1E+10	1	-1E+10	1	-1E+10	1	-1E+10	1	-1E+10	1	-1E+10	1
4902663	27	C	04/27/2024	23:14	-127.130	48.109	0	1525.70	0	2.4960	0	34.5160	0	27.552	0	1507.365	0	25.9	4	7.9	4	-1E+10	1	-1E+10	1	-1E+10	1	-1E+10	1	-1E+10	1	-1E+10	1
4902663	27	C	04/27/2024	23:14	-127.130	48.109	0	1535.70	0	2.4810	0	34.5170	0	27.554	0	1517.209	0	26.4	4	8.0	4	-1E+10	1	-1E+10	1	-1E+10	1	-1E+10	1	-1E+10	1	-1E+10	1
4902663	27	C	04/27/2024	23:14	-127.130	48.109	0	1545.30	0	2.4640	0	34.5190	0	27.557	0	1526.659	0	26.9	4	8.2	4	-1E+10	1	-1E+10	1	-1E+10	1	-1E+10	1	-1E+10	1	-1E+10	1
4902663	27	C	04/27/2024	23:14	-127.130	48.109	0	1555.20	0	2.4510	0	34.5210	0	27.560	0	1536.404	0	27.5	4	8.4	4	-1E+10	1	-1E+10	1	-1E+10	1	-1E+10	1	-1E+10	1	-1E+10	1
4902663	27	C	04/27/2024	23:14	-127.130	48.109	0	1565.60	0	2.4280	0	34.5230	0	27.564	0	1546.640	0	28.2	4	8.6	4	-1E+10	1	-1E+10	1	-1E+10	1	-1E+10	1	-1E+10	1	-1E+10	1
4902663	27	C	04/27/2024	23:14	-127.130	48.109	0	1575.60	0	2.4050	0	34.5260	0	27.568	0	1556.482	0	29.1	4	8.9	4	-1E+10	1	-1E+10	1	-1E+10	1	-1E+10	1	-1E+10	1	-1E+10	1
4902663	27	C	04/27/2024	23:14	-127.130	48.109	0	1585.40	0	2.3930	0	34.5300	0	27.572	0	1566.127	0	30.1	4	9.2	4	-1E+10	1	-1E+10	1	-1E+10	1	-1E+10	1	-1E+10	1	-1E+10	1
4902663	27	C	04/27/2024	23:14	-127.130	48.109	0	1595.70	0	2.3820	0	34.5340	0	27.576	0	1576.263	0	30.8	4	9.4	4	-1E+10	1	-1E+10	1	-1E+10	1	-1E+10	1	-1E+10	1	-1E+10	1
4902663	27	C	04/27/2024	23:14	-127.130	48.109	0	1605.30	0	2.3570	0	34.5350	0	27.579	0	1585.711	0	31.2	4	9.5	4	-1E+10	1	-1E+10	1	-1E+10	1	-1E+10	1	-1E+10	1	-1E+10	1
4902663	27	C	04/27/2024	23:14	-127.130	48.109	0	1615.20	0	2.3340	0	34.5360	0	27.582	0	1595.452	0	31.8	4	9.7	4	-1E+10	1	-1E+10	1	-1E+10	1	-1E+10	1	-1E+10	1	-1E+10	1
4902663	27	C	04/27/2024	23:14	-127.130	48.109	0	1625.20	0	2.3180	0	34.5370	0	27.584	0	1605.292	0	32.3	4	9.8	4	-1E+10	1	-1E+10	1	-1E+10	1	-1E+10	1	-1E+10	1	-1E+10	1
4902663	27	C	04/27/2024	23:14	-127.130	48.109	0	1635.40	0	2.3000	0	34.5390	0	27.587	0	1615.329	0	32.9	4	10.0	4	-1E+10	1	-1E+10	1	-1E+10	1	-1E+10	1	-1E+10	1	-1E+10	1
4902663	27	C	04/27/2024	23:14	-127.130	48.109	0	1645.70	0	2.2750	0	34.5400	0	27.590	0	1625.463	0	33.8	4	10.3	4	-1E+10	1	-1E+10	1	-1E+10	1	-1E+10	1	-1E+10	1	-1E+10	1
4902663	27	C	04/27/2024	23:14	-127.130	48.109	0	1655.80	0	2.2470	0	34.5430	0	27.595	0	1635.400	0	34.8	4	10.5	4	-1E+10	1	-1E+10	1	-1E+10	1	-1E+10	1	-1E+10	1	-1E+10	1
4902663	27	C	04/27/2024	23:14	-127.130	48.109	0	1665.40	0	2.2280	0	34.5450	0	27.598	0	1644.844	0	35.3	4	10.7	4	-1E+10	1	-1E+10	1	-1E+10	1	-1E+10	1	-1E+10	1	-1E+10	1
4902663	27	C	04/27/2024	23:14	-127.130	48.109	0	1675.30	0	2.2230	0	34.5460	0	27.599	0	1654.583	0	35.8	4	10.8	4	-1E+10	1	-1E+10	1	-1E+10	1	-1E+10	1	-1E+10	1	-1E+10	1
4902663	27	C	04/27/2024	23:14	-127.130	48.109	0	1685.40	0	2.2110	0	34.5480	0	27.602	0	1664.519	0	36.6	4	11.1	4	-1E+10	1	-1E+10	1	-1E+10	1	-1E+10	1	-1E+10	1	-1E+10	1
4902663	27	C	04/27/2024	23:14	-127.130	48.109	0	1695.20	0	2.1940	0	34.5500	0	27.605	0	1674.158	0	37.3	4	11.3	4	-1E+10	1	-1E+10	1	-1E+10	1	-1E+10	1	-1E+10	1	-1E+10	1
4902663	27	C	04/27/2024	23:14	-127.130	48.109	0	1705.20	0	2.1840	0	34.5520	0	27.607	0	1683.995	0	37.9	4	11.5	4	-1E+10	1	-1E+10	1	-1E+10	1	-1E+10	1	-1E+10	1	-1E+10	1
4902663	27	C	04/27/2024	23:14	-127.130	48.109	0	1715.20	0	2.1750	0	34.5540	0	27.610	0	1693.830	0	38.6	4	11.7	4	-1E+10	1	-1E+10	1	-1E+10	1	-1E+10	1	-1E+10	1	-1E+10	1
4902663	27	C	04/27/2024	23:14	-127.130	48.109	0	1725.20	0	2.1670	0	34.5560	0	27.612	0	1703.666	0	39.3	4	11.9	4	-1E+10	1	-1E+10	1	-1E+10	1	-1E+10	1	-1E+10	1	-1E+10	1
4902663	27	C	04/27/2024	23:14	-127.130	48.109	0	1735.20	0	2.1640	0	34.5590	0	27.615	0	1713.500	0	40.0	4	12.1	4	-1E+10	1	-1E+10	1	-1E+10	1	-1E+10	1	-1E+10	1	-1E+10	1
4902663	27	C	04/27/2024	23:14	-127.130	48.109	0	1745.30	0	2.1570	0	34.5610	0	27.617	0	1723.433	0	40.6	4	12.3	4	-1E+10	1	-1E+10	1	-1E+10	1	-1E+10	1	-1E+10	1	-1E+10	1
4902663	27	C	04/27/2024	23:14	-127.130	48.109	0	1755.30	0	2.1440	0	34.5620	0	27.619	0	1733.267	0	41.1	4	12.4	4	-1E+10	1	-1E+10	1	-1E+10	1	-1E+10	1	-1E+10	1	-1E+10	1
4902663	27	C	04/27/2024	23:14	-127.130	48.109	0	1765.40	0	2.1360	0	34.5630	0	27.620	0	1743.199	0	41.8	4	12.6	4	-1E+10	1	-1E+10	1	-1E+10	1	-1E+10	1	-1E+10	1	-1E+10	1
4902663	27	C	04/27/2024	23:14	-127.130	48.109	0	1775.40	0	2.1280	0	34.5660	0	27.623	0	1753.032	0	42.5	4	12.9	4	-1E+10	1	-1E+10	1	-1E+10	1	-1E+10	1	-1E+10	1	-1E+10	1
4902663	27	C	04/27/2024	23:14	-127.130	48.109	0	1785.50	0	2.1190	0	34.5670	0	27.625	0	1762.963	0	43.0	4	13.0	4	-1E+10	1	-1E+10	1	-1E+10	1	-1E+10	1	-1E+10	1	-1E+10	1
4902663	27	C	04/27/2024	23:14	-127.130	48.109	0	1795.50	0	2.1080	0	34.5690	0	27.627	0	1772.795	0	43.7	4	13.2	4	-1E+10	1	-1E+10	1	-1E+10	1	-1E+10	1	-1E+10	1	-1E+10	1
4902663	27	C	04/27/2024	23:14	-127.130	48.109	0	1805.70	0	2.1020	0	34.5710	0	27.630	0	1782.823	0	44.2	4	13.4	4	-1E+10	1	-1E+10	1	-1E+10	1	-1E+10	1	-1E+10	1	-1E+10	1
4902663	27	C	04/27/2024	23:14	-127.130	48.109	0	1815.50	0	2.0890	0	34.5710	0	27.631	0	1792.458	0	44.4	4	13.4	4	-1E+10	1	-1E+10	1	-1E+10	1	-1E+10	1	-1E+10	1	-1E+10	1
4902663	27	C	04/27/2024	23:14	-127.130	48.109	0	1825.60	0	2.0740	0	34.5710	0	27.632	0	1802.387	0	45.0	4	13.6	4	-1E+10	1	-1E+10	1	-1E+10	1	-1E+10	1	-1E+10	1	-1E+10	1
4902663	27	C	04/27/2024	23:14	-127.130	48.109	0	1835.60	0	2.0670	0	34.5730	0	27.634	0	1812.217	0	45.7	4	13.8	4	-1E+10	1	-1E+10	1	-1E+10	1	-1E+10	1	-1E+10	1	-1E+10	1
4902663	27	C	04/27/2024	23:14	-127.130	48.109	0	1845.30	0	2.0640	0	34.5760	0	27.637	0	1821.752	0	46.3	4	14.0	4	-1E+10	1	-1E+10	1	-1E+10	1	-1E+10	1	-1E+10	1	-1E+10	1
4902663	27	C	04/27/2024	23:14	-127.130	48.109	0	1855.20	0	2.0510	0	34.5760	0	27.638	0	1831.483	0	46.9	4	14.1	4	-1E+10	1	-1E+10	1	-1E+10	1	-1E+10	1	-1E+10	1	-1E+10	1
4902663	27	C	04/27/2024	23:14	-127.130	48.109	0	1865.00	0	2.0420	0	34.5780	0	27.640	0	1841.115	0	47.5	4	14.3	4	-1E+10	1	-1E+10	1	-1E+10	1	-1E+10	1	-1E+10	1	-1E+10	1
4902663	27	C	04/27/2024	23:14	-127.130	48.109	0	1875.10	0	2.0330	0	34.5800	0	27.643	0	1851.042	0	48.2	4	14.5	4	-1E+10	1	-1E+10	1	-1E+10	1	-1E+10	1	-1E+10	1	-1E+10	1
4902663	27	C	04/27/2024	23:14	-127.130	48.109	0	1885.30	0	2.0240	0	34.5820	0	27.645	0	1861.066	0	48.7	4	14.7	4	-1E+10	1	-1E+10	1	-1E+10	1	-1E+10	1	-1E+10	1	-1E+10	1
4902663	27	C	04/27/2024	23:14	-127.130	48.109	0	1895.30	0	2.0120	0	34.5820	0	27.646	0	1870.894	0	49.1	4	14.8	4	-1E+10	1	-1E+10	1	-1E+10	1	-1E+10	1	-1E+10	1	-1E+10	1
4902663	27	C	04/27/2024	23:14	-127.130	48.109	0	1905.40	0	2.0070	0	34.5830	0	27.647	0	1880.819	0	49.6	4	15.0	4	-1E+10	1	-1E+10	1	-1E+10	1	-1E+10	1	-1E+10	1	-1E+10	1
4902663	27	C	04/27/2024	23:14	-127.130	48.109	0	1915.80	0	2.0030	0	34.5860	0	27.650	0	1891.039	0	50.2	4	15.1	4	-1E+10	1	-1E+10	1	-1E+10	1	-1E+10	1	-1E+10	1	-1E+10	1
4902663	27	C	04/27/2024	23:14	-127.130	48.109	0	1925.50	0	1.9970	0	34.5870	0	27.651	0	1900.570	0	50.5	4	15.2	4	-1E+10	1	-1E+10	1	-1E+10	1	-1E+10	1	-1E+10	1	-1E+10	1
4902663	27	C	04/27/2024	23:14	-127.130	48.109	0	1935.10	0	1.9890	0	34.5870	0	27.652	0	1910.003	0	51.1	4	15.4	4	-1E+10	1	-1E+10	1	-1E+10	1	-1E+10	1	-1E+10	1	-1E+10	1
4902663	27	C	04/27/2024	23:14	-127.130	48.109	0	1945.30	0	1.9780	0	34.5890	0	27.654	0	1920.025	0	51.6	4	15.6	4	-1E+10	1	-1E+10	1	-1E+10	1	-1E+10	1	-1E+10	1	-1E+10	1
4902663	27	C	04/27/2024	23:14	-127.130	48.109	0	1955.30	0	1.9720	0	34.5900	0	27.656	0	1929.849	0	52.0	4	15.7	4	-1E+10	1	-1E+10	1	-1E+10	1	-1E+10	1	-1E+10	1	-1E+10	1
4902663	27	C	04/27/2024	23:14	-127.130	48.109	0	1965.40	0	1.9620	0	34.5900	0	27.657	0	1939.772	0	52.4	4	15.8	4	-1E+10	1	-1E+10	1	-1E+10	1	-1E+10	1	-1E+10	1	-1E+10	1
4902663	27	C	04/27/2024	23:14	-127.130	48.109	0	1975.70	0	1.9530	0	34.5920	0	27.659	0	1949.890	0	52.9	4	15.9	4	-1E+10	1	-1E+10	1	-1E+10	1	-1E+10	1	-1E+10	1	-1E+10	1
4902663	27	C	04/27/2024	23:14	-127.130	48.109	0	1985.40	0	1.9480	0	34.5930	0	27.660	0	1959.419	0	53.3	4	16.0	4	-1E+10	1	-1E+10	1	-1E+10	1	-1E+10	1	-1E+10	1	-1E+10	1
4902663	27	C	04/27/2024	23:14	-127.130	48.109	0	1993.60	0	1.9390	0	34.5940	0	27.662	0	1967.474	0	53.3	4	16.0	4	-1E+10	1	-1E+10	1	-1E+10	1	-1E+10	1	-1E+10	1	-1E+10	1
4902663	27	C	04/27/2024	23:14	-127.130	48.109	0																										
4902663	28	C	05/07/2024	18:11	-127.368	48.103	0	0.30	0	10.5430	0	31.6940	0	24.281	0	0.297	0	269.7	4	97.0	4	-1E+10	1	-1E+10	1	-1E+10	1	-1E+10	1	-1E+10	1	-1E+10	1
4902663	28	C	05/07/2024	18:11	-127.368	48.103	0	0.40	0	10.5424	0	31.6939	0	24.281	0	0.397	0	269.6	4	97.0	4	-1E+10	1	-1E+10	1	-1E+10	1	-1E+10	1	-1E+10	1	-1E+10	1
4902663	28	C	05/07/2024	18:11	-127.368	48.103	0	1.00	0	10.5390	0	31.6930	0	24.281	0	0.992	0	269.3	4	96.9	4	-1E+10	1	-1E+10	1	-1E+10	1	-1E+10	1	-1E+10	1	-1E+10	1
4902663	28	C	05/07/2024	18:11	-127.368	48.103	0	2.00	0	10.5360	0	31.6970	0	24.285	0	1.983	0	269.3	4	96.9	4	-1E+10	1	-1E+10	1	-1E+10	1	-1E+10	1	-1E+10	1	-1E+10	1
4902663	28	C	05/07/2024	18:11	-127.368	48.103	0	2.90	0	10.5270	0	31.7030	0	24.291	0	2.876	0	269.3	4	96.9	4	-1E+10	1	-1E+10	1	-1E+10	1	-1E+10	1	-1E+10	1	-1E+10	1
4902663	28	C	05/07/2024	18:11	-127.368	48.103	0	4.00	0	10.5340	0	31.7010	0	24.288	0	3.966	0	269.2	4	96.8	4	-1E+10	1	-1E+10	1	-1E+10	1	-1E+10	1	-1E+10	1	-1E+10	1
4902663	28	C	05/07/2024	18:11	-127.368	48.103	0	4.80	0	10.5140	0	31.7140	0	24.302	0	4.760	0	269.1	4	96.8	4	-1E+10	1	-1E+10	1	-1E+10	1	-1E+10	1	-1E+10	1	-1E+10	1
4902663	28	C	05/07/2024	18:11	-127.368	48.103	0	5.90	0	10.5050	0	31.7120	0	24.302	0	5.850	0	269.0	4	96.7	4	-1E+10	1	-1E+10	1	-1E+10	1	-1E+10	1	-1E+10	1	-1E+10	1
4902663	28	C	05/07/2024	18:11	-127.368	48.103	0	7.10	0	10.5020	0	31.7130	0	24.303	0	7.040	0	269.0	4	96.7	4	-1E+10	1	-1E+10	1	-1E+10	1	-1E+10	1	-1E+10	1	-1E+10	1
4902663	28	C	05/07/2024	18:11	-127.368	48.103	0	7.90	0	10.4960	0	31.7190	0	24.309	0	7.833	0	268.9	4	96.7	4	-1E+10	1	-1E+10	1	-1E+10	1	-1E+10	1	-1E+10	1	-1E+10	1
4902663	28	C	05/07/2024	18:11	-127.368	48.103	0	8.70	0	10.4900	0	31.7290	0	24.318	0	8.627	0	268.9	4	96.7	4	-1E+10	1	-1E+10	1	-1E+10	1	-1E+10	1	-1E+10	1	-1E+10	1
4902663	28	C	05/07/2024	18:11	-127.368	48.103	0	9.90	0	10.4860	0	31.7410	0	24.328	0	9.817	0	268.8	4	96.6	4	-1E+10	1	-1E+10	1	-1E+10	1	-1E+10	1	-1E+10	1	-1E+10	1
4902663	28	C	05/07/2024	18:11	-127.368	48.103	0	11.30	0	10.4850	0	31.7610	0	24.344	0	11.205	0	268.6	4	96.6	4	-1E+10	1	-1E+10	1	-1E+10	1	-1E+10	1	-1E+10	1	-1E+10	1
4902663	28	C	05/07/2024	18:11	-127.368	48.103	0	12.10	0	10.4900	0	31.7700	0	24.350	0	11.998	0	268.6	4	96.6	4	-1E+10	1	-1E+10	1	-1E+10	1	-1E+10	1	-1E+10	1	-1E+10	1
4902663	28	C	05/07/2024	18:11	-127.368	48.103	0	13.00	0	10.4990	0	31.7790	0	24.355	0	12.890	0	268.6	4	96.6	4	-1E+10	1	-1E+10	1	-1E+10	1	-1E+10	1	-1E+10	1	-1E+10	1
4902663	28	C	05/07/2024	18:11	-127.368	48.103	0	14.00	0	10.5120	0	31.7920	0	24.363	0	13.882	0	268.5	4	96.6	4	-1E+10	1	-1E+10	1	-1E+10	1	-1E+10	1	-1E+10	1	-1E+10	1
4902663	28	C	05/07/2024	18:11	-127.368	48.103	0	14.90	0	10.5190	0	31.8010	0	24.369	0	14.774	0	268.4	4	96.6	4	-1E+10	1	-1E+10	1	-1E+10	1	-1E+10	1	-1E+10	1	-1E+10	1
4902663	28	C	05/07/2024	18:11	-127.368	48.103	0	15.80	0	10.5220	0	31.8040	0	24.371	0	15.667	0	268.4	4	96.6	4	-1E+10	1	-1E+10	1	-1E+10	1	-1E+10	1	-1E+10	1	-1E+10	1
4902663	28	C	05/07/2024	18:11	-127.368	48.103	0	16.80	0	10.5240	0	31.8090	0	24.374	0	16.658	0	268.4	4	96.6	4	-1E+10	1	-1E+10	1	-1E+10	1	-1E+10	1	-1E+10	1	-1E+10	1
4902663	28	C	05/07/2024	18:11	-127.368	48.103	0	17.70	0	10.5280	0	31.8130	0	24.377	0	17.551	0	268.4	4	96.6	4	-1E+10	1	-1E+10	1	-1E+10	1	-1E+10	1	-1E+10	1	-1E+10	1
4902663	28	C	05/07/2024	18:11	-127.368	48.103	0	18.70	0	10.5290	0	31.8180	0	24.381	0	18.542	0	268.4	4	96.6	4	-1E+10	1	-1E+10	1	-1E+10	1	-1E+10	1	-1E+10	1	-1E+10	1
4902663	28	C	05/07/2024	18:11	-127.368	48.103	0	19.70	0	10.5280	0	31.8220	0	24.384	0	19.534	0	268.6	4	96.7	4	-1E+10	1	-1E+10	1	-1E+10	1	-1E+10	1	-1E+10	1	-1E+10	1
4902663	28	C	05/07/2024	18:11	-127.368	48.103	0	20.60	0	10.5280	0	31.8240	0	24.386	0	20.426	0	268.6	4	96.7	4	-1E+10	1	-1E+10	1	-1E+10	1	-1E+10	1	-1E+10	1	-1E+10	1
4902663	28	C	05/07/2024	18:11	-127.368	48.103	0	21.60	0	10.5300	0	31.8270	0	24.388	0	21.417	0	268.7	4	96.8	4	-1E+10	1	-1E+10	1	-1E+10	1	-1E+10	1	-1E+10	1	-1E+10	1
4902663	28	C	05/07/2024	18:11	-127.368	48.103	0	22.90	0	10.5160	0	31.8340	0	24.395	0	22.706	0	269.0	4	96.8	4	-1E+10	1	-1E+10	1	-1E+10	1	-1E+10	1	-1E+10	1	-1E+10	1
4902663	28	C	05/07/2024	18:11	-127.368	48.103	0	24.20	0	10.4310	0	31.8680	0	24.436	0	23.995	0	269.0	4	96.7	4	-1E+10	1	-1E+10	1	-1E+10	1	-1E+10	1	-1E+10	1	-1E+10	1
4902663	28	C	05/07/2024	18:11	-127.368	48.103	0	25.10	0	10.3630	0	31.8680	0	24.448	0	24.888	0	269.6	4	96.8	4	-1E+10	1	-1E+10	1	-1E+10	1	-1E+10	1	-1E+10	1	-1E+10	1
4902663	28	C	05/07/2024	18:11	-127.368	48.103	0	26.00	0	10.3570	0	31.8860	0	24.463	0	25.780	0	269.7	4	96.8	4	-1E+10	1	-1E+10	1	-1E+10	1	-1E+10	1	-1E+10	1	-1E+10	1
4902663	28	C	05/07/2024	18:11	-127.368	48.103	0	26.90	0	10.4230	0	31.9760	0	24.522	0	26.672	0	269.5	4	96.9	4	-1E+10	1	-1E+10	1	-1E+10	1	-1E+10	1	-1E+10	1	-1E+10	1
4902663	28	C	05/07/2024	18:11	-127.368	48.103	0	28.00	0	10.3670	0	32.0940	0	24.623	0	27.763	0	269.1	4	96.7	4	-1E+10	1	-1E+10	1	-1E+10	1	-1E+10	1	-1E+10	1	-1E+10	1
4902663	28	C	05/07/2024	18:11	-127.368	48.103	0	29.20	0	10.3450	0	32.2120	0	24.719	0	28.953	0	268.3	4	96.5	4	-1E+10	1	-1E+10	1	-1E+10	1	-1E+10	1	-1E+10	1	-1E+10	1
4902663	28	C	05/07/2024	18:11	-127.368	48.103	0	30.10	0	10.2390	0	32.2720	0	24.784	0	29.845	0	268.2	4	96.3	4	-1E+10	1	-1E+10	1	-1E+10	1	-1E+10	1	-1E+10	1	-1E+10	1
4902663	28	C	05/07/2024	18:11	-127.368	48.103	0	31.00	0	10.1730	0	32.2840	0	24.804	0	30.737	0	267.9	4	96.0	4	-1E+10	1	-1E+10	1	-1E+10	1	-1E+10	1	-1E+10	1	-1E+10	1
4902663	28	C	05/07/2024	18:11	-127.368	48.103	0	31.80	0	10.1100	0	32.2840	0	24.815	0	31.530	0	267.8	4	95.9	4	-1E+10	1	-1E+10	1	-1E+10	1	-1E+10	1	-1E+10	1	-1E+10	1
4902663	28	C	05/07/2024	18:11	-127.368	48.103	0	32.70	0	10.0970	0	32.2840	0	24.817	0	32.423	0	267.5	4	95.7	4	-1E+10	1	-1E+10	1	-1E+10	1	-1E+10	1	-1E+10	1	-1E+10	1
4902663	28	C	05/07/2024	18:11	-127.368	48.103	0	34.00	0	10.0770	0	32.2860	0	24.822	0	33.712	0	266.9	4	95.5	4	-1E+10	1	-1E+10	1	-1E+10	1	-1E+10	1	-1E+10	1	-1E+10	1
4902663	28	C	05/07/2024	18:11	-127.368	48.103	0	35.30	0	10.0500	0	32.2870	0	24.827	0	35.000	0	266.2	4	95.2	4	-1E+10	1	-1E+10	1	-1E+10	1	-1E+10	1	-1E+10	1	-1E+10	1
4902663	28	C	05/07/2024	18:11	-127.368	48.103	0	36.20	0	10.0420	0	32.2870	0	24.828	0	35.893	0	265.5	4	94.9	4	-1E+10	1	-1E+10	1	-1E+10	1	-1E+10	1	-1E+10	1	-1E+10	1
4902663	28	C	05/07/2024	18:11	-127.368	48.103	0	37.10	0	10.0220	0	32.2900	0	24.834	0	36.785	0	264.9	4	94.7	4	-1E+10	1	-1E+10	1	-1E+10	1	-1E+10	1	-1E+10	1	-1E+10	1
4902663	28	C	05/07/2024	18:11	-127.368	48.103	0	38.00	0	10.0070	0	32.2940	0	24.840	0	37.677	0	264.3	4	94.4	4	-1E+10	1	-1E+10	1	-1E+10	1	-1E+10	1	-1E+10	1	-1E+10	1
4902663	28	C	05/07/2024	18:11	-127.368	48.103	0	38.80	0	9.9860	0	32.3030	0	24.850	0	38.470	0	263.8	4	94.2	4	-1E+10	1	-1E+10	1	-1E+10	1	-1E+10	1	-1E+10	1	-1E+10	1
4902663	28	C	05/07/2024	18:11	-127.368	48.103	0	39.70	0	9.9660	0	32.3040	0	24.854	0	39.363	0	263.2	4	93.9	4	-1E+10	1	-1E+10	1	-1E+10	1	-1E+10	1	-1E+10	1	-1E+10	1
4902663	28	C	05/07/2024	18:11	-127.368	48.103	0	40.60	0	9.9410	0	32.3110	0	24.864	0	40.255	0	262.5	4	93.7	4	-1E+10	1	-1E+10	1	-1E+10	1	-1E+10	1	-1E+10	1	-1E+10	1
4902663	28	C	05/07/2024	18:11	-127.368	48.103	0	41.90	0	9.9250	0	32.3140	0	24.869	0	41.544	0	261.7	4	93.3	4	-1E+10	1	-1E+10	1	-1E+10	1	-1E+10	1	-1E+10	1	-1E+10	1
4902663	28	C	05/07/2024	18:11	-127.368	48.103	0	43.30	0	9.8790	0	32.3130	0	24.876	0	42.932	0	260.6	4	92.9	4	-1E+10	1	-1E+10	1	-1E+10	1	-1E+10	1	-1E+10	1	-1E+10	1
4902663	28	C	05/07/2024	18:11	-127.368	48.103	0	44.10	0	9.8700	0	32.3240	0	24.886	0	43.725	0	259.7	4	92.5	4	-1E+10	1	-1E+10	1	-1E+10	1	-1E+10	1	-1E+10	1	-1E+10	1
4902663	28	C	05/07/2024	18:11	-127.368	48.103	0	45.00	0	9.8360	0	32.3220	0	24.890	0	44.617	0	258.8	4	92.1	4	-1E+10	1	-1E+10	1	-1E+10	1	-1E+10	1	-1E+10	1	-1E+10	1
4902663	28	C	05/07/2024	18:11	-127.368	48.103	0	45.90	0	9.7540	0	32.3280	0	24.908	0	45.509	0	257.8	4	91.6	4	-1E+10	1	-1E+10	1	-1E+10	1	-1E+10	1	-1E+10	1	-1E+10	1
4902663	28	C	05/07/2024	18:11	-127.368	48.103	0	46.80	0	9.7350	0	32.3370	0	24.918	0	46.402	0	256.8	4	91.2	4	-1E+10	1	-1E+10	1	-1E+10	1	-1E+10	1	-1E+10	1	-1E+10	1
4902663	28	C	05/07/2024	18:11	-127.368	48.103	0	47.70	0	9.7140	0	32.3400	0	24.924	0	47.294	0	255.7	4	90.8	4	-1E+10	1	-1E+10	1	-1E+10	1	-1E+10	1	-1E+10	1	-1E+10	1
4902663	28	C	05/07/2024	18:11	-127.368	48.103	0	48.90	0	9.6910	0	32.3400	0	24.927	0	48.483	0	254.0	4	90.1	4	-1E+10	1	-1E+10	1	-1E+10	1	-1E+10	1	-1E+10	1	-1E+10	1
4902663	28	C	05/07/2024	18:11	-127.368	48.103	0	50.20	0	9.6370	0	32.3560	0	24.949	0	49.772	0	251.8	4	89.3	4	-1E+10	1	-1E+10	1	-1E+10	1	-1E+10	1	-1E+10	1	-1E+10	1
4902663	28	C	05/07/2024	18:11	-127.368	48.103	0	51.10	0	9.6250	0	32.3680	0	24.960	0	50.664	0	250.5	4	88.8	4	-1E+10	1	-1E+10	1	-1E+10	1	-1E+10	1	-1E+10	1	-1E+10	1
4902663	28	C	05/07/2024	18:11	-127.368	48.103	0	52.00	0	9.5460	0	32.3720	0	24.976	0	51.557	0	249.3	4	88.2	4	-1E+10	1	-1E+10	1	-1E+10	1	-1E+10	1	-1E+10	1	-1E+10	1
4902663	28	C	05/07/2024	18:11	-127.368	48.103	0	53.00	0	9.4310	0	32.3650	0	24.989	0	52.548	0	248.1	4	87.6	4	-1E+10	1	-1E+10	1	-1E+10	1	-1E+10	1	-1E+10	1	-1E+10	1
4902663	28	C	05/07/2024	18:11	-127.368	48.103	0	53.90	0	9.3210	0	32.3670	0	25.008	0	53.440	0	246.7	4	86.9	4	-1E+10	1	-1E+10	1	-1E+10	1	-1E+10	1	-1E+10	1	-1E+10	1
4902663	28	C	05/07/2024	18:11	-127.368	48.103	0	54.80	0	9.2480	0	32.3400	0	24.998	0	54.332	0	245.1	4	86.2	4	-1E+10	1	-1E+10	1	-1E+10	1	-1E+10	1	-1E+10	1	-1E+10	1
4902663	28	C	05/07/2024	18:11	-127.368	48.103	0	55.70	0	9.1570	0	32.3420	0	25.014	0	55.225	0	243.5	4	85.4	4	-1E+10	1	-1E+10	1	-1E+10	1	-1E+10	1	-1E+10	1	-1E+10	1
4902663	28	C	05/07/2024	18:11	-127.368	48.103	0	56.60	0	9.1320	0	32.3370	0	25.014	0	56.117	0	241.9	4	84.8	4	-1E+10	1	-1E+10	1	-1E+10	1	-1E+10	1	-1E+10	1	-1E+10	1
4902663	28	C	05/07/2024	18:11	-127.368	48.103	0	57.60	0	9.0900	0	32.3420	0	25.025	0	57.108	0	240.6	4	84.3	4	-1E+10	1	-1E+10	1	-1E+10	1	-1E+10	1	-1E+10	1	-1E+10	1
4902663	28	C	05/07/2024	18:11	-127.368	48.103	0	58.90	0	8.9970	0	32.3550	0	25.049	0	58.397	0	238.7	4	83.5	4	-1E+10	1	-1E+10	1	-1E+10	1	-1E+10	1	-1E+10	1	-1E+10	1
4902663	28	C	05/07/2024	18:11	-127.368	48.103	0	60.40	0	8.8950	0	32.3600	0	25.069	0	59.884	0	237.1	4	82.7	4	-1E+10	1	-1E+10	1	-1E+10	1	-1E+10	1	-1E+10	1	-1E+10	1
4902663	28	C	05/07/2024	18:11	-127.368	48.103	0	61.40	0	8.8600	0	32.3800	0	25.090	0	60.875	0	235.6	4	82.1	4	-1E+10	1	-1E+10	1	-1E+10	1	-1E+10	1	-1E+10	1	-1E+10	1
4902663	28	C	05/07/2024	18:11	-127.368	48.103	0	62.50	0	8.8520	0	32.4220	0	25.124	0	61.966	0	234.3	4	81.7	4	-1E+10	1	-1E+10	1	-1E+10	1	-1E+10	1	-1E+10	1	-1E+10	1
4902663	28	C	05/07/2024	18:11	-127.368	48.103	0	63.50	0	8.8400	0	32.4220	0	25.126	0	62.957	0	233.2	4	81.3	4	-1E+10	1	-1E+10	1	-1E+10	1	-1E+10	1	-1E+10	1	-1E+10	1
4902663	28	C	05/07/2024	18:11	-127.368	48.103	0	64.60	0	8.7900	0	32.4240	0	25.135	0	64.047	0	231.9	4	80.7	4	-1E+10	1	-1E+10	1	-1E+10	1	-1E+10	1	-1E+10	1	-1E+10	1
4902663	28	C	05/07/2024	18:11	-127.368	48.103	0	65.60	0	8.7510	0	32.4290	0	25.145	0	65.039	0	230.2	4	80.1	4	-1E+10	1	-1E+10	1	-1E+10	1	-1E+10	1	-1E+10	1	-1E+10	1
4902663	28	C	05/07/2024	18:11	-127.368	48.103	0	66.70	0	8.7230	0	32.4300	0	25.150	0	66.129	0	228.3	4	79.4	4	-1E+10	1	-1E+10	1	-1E+10	1	-1E+10	1	-1E+10	1	-1E+10	1
4902663	28	C	05/07/2024	18:11	-127.368	48.103	0	67.70	0	8.6790	0	32.4390	0	25.164	0	67.120	0	225.8	4	78.4	4	-1E+10	1	-1E+10	1	-1E+10	1	-1E+10	1	-1E+10	1	-1E+10	1
4902663	28	C	05/07/2024	18:11	-127.368	48.103	0	68.80	0	8.5630	0	32.4560	0	25.195	0	68.211	0	222.5	4	77.1	4	-1E+10	1	-1E+10	1	-1E+10	1	-1E+10	1	-1E+10	1	-1E+10	1
4902663	28	C	05/07/2024	18:11	-127.368	48.103	0	69.80	0	8.6290	0	32.4870	0	25.209	0	69.202	0	219.3	4	76.1	4	-1E+10	1	-1E+10	1	-1E+10	1	-1E+10	1	-1E+10	1	-1E+10	1
4902663	28	C	05/07/2024	18:11	-127.368	48.103	0	70.90	0	8.5480	0	32.4820	0	25.217	0	70.292	0	215.9	4	74.8	4	-1E+10	1	-1E+10	1	-1E+10	1	-1E+10	1	-1E+10	1	-1E+10	1
4902663	28	C	05/07/2024	18:11	-127.368	48.103	0	72.10	0	8.6490	0	32.5090	0	25.223	0	71.482	0	211.9	4	73.6	4	-1E+10	1	-1E+10	1	-1E+10	1	-1E+10	1	-1E+10	1	-1E+10	1
4902663	28	C	05/07/2024	18:11	-127.368	48.103	0	73.10	0	8.6210	0	32.5270	0	25.242	0	72.473	0	208.9	4	72.5	4	-1E+10	1	-1E+10	1	-1E+10	1	-1E+10	1	-1E+10	1	-1E+10	1
4902663	28	C	05/07/2024	18:11	-127.368	48.103	0	74.20	0	8.5830	0	32.5240	0	25.245	0	73.563	0	205.5	4	71.3	4	-1E+10	1	-1E+10	1	-1E+10	1	-1E+10	1	-1E+10	1	-1E+10	1
4902663	28	C	05/07/2024	18:11	-127.368	48.103	0	75.20	0	8.5560	0	32.5770	0	25.291	0	74.555	0	201.8	4	70.0	4	-1E+10	1	-1E+10	1	-1E+10	1	-1E+10	1	-1E+10	1	-1E+10	1
4902663	28	C	05/07/2024	18:11	-127.368	48.103	0	76.30	0	8.5240	0	32.6310	0	25.338	0	75.645	0	198.1	4	68.7	4	-1E+10	1	-1E+10	1	-1E+10	1	-1E+10	1	-1E+10	1	-1E+10	1
4902663	28	C	05/07/2024	18:11	-127.368	48.103	0	77.30	0	8.5170	0	32.6680	0	25.368	0	76.636	0	194.6	4	67.5	4	-1E+10	1	-1E+10	1	-1E+10	1	-1E+10	1	-1E+10	1	-1E+10	1
4902663	28	C	05/07/2024	18:11	-127.368	48.103	0	78.40	0	8.5100	0	32.7230	0	25.412	0	77.727	0	191.2	4	66.3	4	-1E+10	1	-1E+10	1	-1E+10	1	-1E+10	1	-1E+10	1	-1E+10	1
4902663	28	C	05/07/2024	18:11	-127.368	48.103	0	79.20	0	8.5090	0	32.7340	0	25.421	0	78.520	0	187.9	4	65.2	4	-1E+10	1	-1E+10	1	-1E+10	1	-1E+10	1	-1E+10	1	-1E+10	1
4902663	28	C	05/07/2024	18:11	-127.368	48.103	0	80.90	0	8.5120	0	32.7960	0	25.469	0	80.205	0	182.5	4	63.3	4	-1E+10	1	-1E+10	1	-1E+10	1	-1E+10	1	-1E+10	1	-1E+10	1
4902663	28	C	05/07/2024	18:11	-127.368	48.103	0	82.10	0	8.5000	0	32.8280	0	25.496	0	81.394	0	178.0	4	61.7	4	-1E+10	1	-1E+10	1	-1E+10	1	-1E+10	1	-1E+10	1	-1E+10	1
4902663	28	C	05/07/2024	18:11	-127.368	48.103	0	82.90	0	8.4920	0	32.8820	0	25.539	0	82.187	0	175.4	4	60.9	4	-1E+10	1	-1E+10	1	-1E+10	1	-1E+10	1	-1E+10	1	-1E+10	1
4902663	28	C	05/07/2024	18:11	-127.368	48.103	0	83.70	0	8.4850	0	32.9030	0	25.557	0	82.980	0	173.1	4	60.1	4	-1E+10	1	-1E+10	1	-1E+10	1	-1E+10	1	-1E+10	1	-1E+10	1
4902663	28	C	05/07/2024	18:11	-127.368	48.103	0	84.90	0	8.4900	0	32.9550	0	25.597	0	84.169	0	174.2	4	60.5	4	-1E+10	1	-1E+10	1	-1E+10	1	-1E+10	1	-1E+10	1	-1E+10	1
4902663	28	C	05/07/2024	18:11	-127.368	48.103	0	86.20	0	8.4730	0	32.9790	0	25.618	0	85.458	0	170.4	4	59.1	4	-1E+10	1	-1E+10	1	-1E+10	1	-1E+10	1	-1E+10	1	-1E+10	1
4902663	28	C	05/07/2024	18:11	-127.368	48.103	0	87.00	0	8.4520	0	33.0310	0	25.662	0	86.251	0	168.0	4	58.3	4	-1E+10	1	-1E+10	1	-1E+10	1	-1E+10	1	-1E+10	1	-1E+10	1
4902663	28	C	05/07/2024	18:11	-127.368	48.103	0	87.90	0	8.4590	0	33.0660	0	25.689	0	87.143	0	165.8	4	57.6	4	-1E+10	1	-1E+10	1	-1E+10	1	-1E+10	1	-1E+10	1	-1E+10	1
4902663	28	C	05/07/2024	18:11	-127.368	48.103	0	88.80	0	8.4600	0	33.0980	0	25.714	0	88.035	0	163.9	4	56.9	4	-1E+10	1	-1E+10	1	-1E+10	1	-1E+10	1	-1E+10	1	-1E+10	1
4902663	28	C	05/07/2024	18:11	-127.368	48.103	0	89.90	0	8.4920	0	33.1340	0	25.737	0	89.125	0	161.3	4	56.1	4	-1E+10	1	-1E+10	1	-1E+10	1	-1E+10	1	-1E+10	1	-1E+10	1
4902663	28	C	05/07/2024	18:11	-127.368	48.103	0	91.00	0	8.5010	0	33.1500	0	25.748	0	90.216	0	158.9	4	55.3	4	-1E+10	1	-1E+10	1	-1E+10	1	-1E+10	1	-1E+10	1	-1E+10	1
4902663	28	C	05/07/2024	18:11	-127.368	48.103	0	91.90	0	8.5040	0	33.1640	0	25.759	0	91.108	0	156.6	4	54.5	4	-1E+10	1	-1E+10	1	-1E+10	1	-1E+10	1	-1E+10	1	-1E+10	1
4902663	28	C	05/07/2024	18:11	-127.368	48.103	0	93.10	0	8.4890	0	33.2400	0	25.821	0	92.297	0	154.6	4	53.8	4	-1E+10	1	-1E+10	1	-1E+10	1	-1E+10	1	-1E+10	1	-1E+10	1
4902663	28	C	05/07/2024	18:11	-127.368	48.103	0	94.10	0	8.4750	0	33.2560	0	25.835	0	93.288	0	153.6	4	53.4	4	-1E+10	1	-1E+10	1	-1E+10	1	-1E+10	1	-1E+10	1	-1E+10	1
4902663	28	C	05/07/2024	18:11	-127.368	48.103	0	95.00	0	8.4600	0	33.2620	0	25.842	0	94.180	0	152.3	4	53.0	4	-1E+10	1	-1E+10	1	-1E+10	1	-1E+10	1	-1E+10	1	-1E+10	1
4902663	28	C	05/07/2024	18:11	-127.368	48.103	0	96.00	0	8.4570	0	33.2700	0	25.849	0	95.171	0	150.8	4	52.4	4	-1E+10	1	-1E+10	1	-1E+10	1	-1E+10	1	-1E+10	1	-1E+10	1
4902663	28	C	05/07/2024	18:11	-127.368	48.103	0	97.00	0	8.4290	0	33.2960	0	25.874	0	96.163	0	149.4	4	51.9	4	-1E+10	1	-1E+10	1	-1E+10	1	-1E+10	1	-1E+10	1	-1E+10	1
4902663	28	C	05/07/2024	18:11	-127.368	48.103	0	98.10	0	8.3890	0	33.3280	0	25.905	0	97.253	0	148.3	4	51.5	4	-1E+10	1	-1E+10	1	-1E+10	1	-1E+10	1	-1E+10	1	-1E+10	1
4902663	28	C	05/07/2024	18:11	-127.368	48.103	0	98.90	0	8.3680	0	33.3400	0	25.917	0	98.046	0	147.7	4	51.3	4	-1E+10	1	-1E+10	1	-1E+10	1	-1E+10	1	-1E+10	1	-1E+10	1
4902663	28	C	05/07/2024	18:11	-127.368	48.103	0	99.70	0	8.3570	0	33.3470	0	25.925	0	98.839	0	147.0	4	51.0	4	-1E+10	1	-1E+10	1	-1E+10	1	-1E+10	1	-1E+10	1	-1E+10	1
4902663	28	C	05/07/2024	18:11	-127.368	48.103	0	100.90	0	8.3440	0	33.3540	0	25.932	0	100.028	0	145.9	4	50.6	4	-1E+10	1	-1E+10	1	-1E+10	1	-1E+10	1	-1E+10	1	-1E+10	1
4902663	28	C	05/07/2024	18:11	-127.368	48.103	0	102.00	0	8.3280	0	33.3630	0	25.942	0	101.118	0	144.5	4	50.1	4	-1E+10	1	-1E+10	1	-1E+10	1	-1E+10	1	-1E+10	1	-1E+10	1
4902663	28	C	05/07/2024	18:11	-127.368	48.103	0	102.90	0	8.3150	0	33.3710	0	25.950	0	102.010	0	143.6	4	49.8	4	-1E+10	1	-1E+10	1	-1E+10	1	-1E+10	1	-1E+10	1	-1E+10	1
4902663	28	C	05/07/2024	18:11	-127.368	48.103	0	103.70	0	8.3090	0	33.3740	0	25.953	0	102.803	0	142.6	4	49.5	4	-1E+10	1	-1E+10	1	-1E+10	1	-1E+10	1	-1E+10	1	-1E+10	1
4902663	28	C	05/07/2024	18:11	-127.368	48.103	0	104.90	0	8.2910	0	33.3880	0	25.967	0	103.992	0	141.1	4	48.9	4	-1E+10	1	-1E+10	1	-1E+10	1	-1E+10	1	-1E+10	1	-1E+10	1
4902663	28	C	05/07/2024	18:11	-127.368	48.103	0	106.30	0	8.2650	0	33.4260	0	26.000	0	105.380	0	139.7	4	48.4	4	-1E+10	1	-1E+10	1	-1E+10	1	-1E+10	1	-1E+10	1	-1E+10	1
4902663	28	C	05/07/2024	18:11	-127.368	48.103	0	107.20	0	8.2600	0	33.4380	0	26.011	0	106.272	0	138.9	4	48.1	4	-1E+10	1	-1E+10	1	-1E+10	1	-1E+10	1	-1E+10	1	-1E+10	1
4902663	28	C	05/07/2024	18:11	-127.368	48.103	0	108.10	0	8.2660	0	33.4470	0	26.017	0	107.164	0	138.0	4	47.8	4	-1E+10	1	-1E+10	1	-1E+10	1	-1E+10	1	-1E+10	1	-1E+10	1
4902663	28	C	05/07/2024	18:11	-127.368	48.103	0	109.00	0	8.2300	0	33.4700	0	26.040	0	108.056	0	137.3	4	47.6	4	-1E+10	1	-1E+10	1	-1E+10	1	-1E+10	1	-1E+10	1	-1E+10	1
4902663	28	C	05/07/2024	18:11	-127.368	48.103	0	109.80	0	8.2120	0	33.4800	0	26.051	0	108.849	0	136.6	4	47.3	4	-1E+10	1	-1E+10	1	-1E+10	1	-1E+10	1	-1E+10	1	-1E+10	1
4902663	28	C	05/07/2024	18:11	-127.368	48.103	0	110.70	0	8.1990	0	33.4860	0	26.057	0	109.741	0	135.9	4	47.0	4	-1E+10	1	-1E+10	1	-1E+10	1	-1E+10	1	-1E+10	1	-1E+10	1
4902663	28	C	05/07/2024	18:11	-127.368	48.103	0	111.60	0	8.1710	0	33.4900	0	26.065	0	110.633	0	135.0	4	46.7	4	-1E+10	1	-1E+10	1	-1E+10	1	-1E+10	1	-1E+10	1	-1E+10	1
4902663	28	C	05/07/2024	18:11	-127.368	48.103	0	112.90	0	8.1480	0	33.4960	0	26.073	0	111.921	0	133.6	4	46.2	4	-1E+10	1	-1E+10	1	-1E+10	1	-1E+10	1	-1E+10	1	-1E+10	1
4902663	28	C	05/07/2024	18:11	-127.368	48.103	0	114.30	0	8.1450	0	33.5130	0	26.087	0	113.308	0	132.1	4	45.7	4	-1E+10	1	-1E+10	1	-1E+10	1	-1E+10	1	-1E+10	1	-1E+10	1
4902663	28	C	05/07/2024	18:11	-127.368	48.103	0	115.20	0	8.1410	0	33.5190	0	26.092	0	114.200	0	131.2	4	45.4	4	-1E+10	1	-1E+10	1	-1E+10	1	-1E+10	1	-1E+10	1	-1E+10	1
4902663	28	C	05/07/2024	18:11	-127.368	48.103	0	116.00	0	8.1280	0	33.5350	0	26.106	0	114.993	0	130.3	4	45.1	4	-1E+10	1	-1E+10	1	-1E+10	1	-1E+10	1	-1E+10	1	-1E+10	1
4902663	28	C	05/07/2024	18:11	-127.368	48.103	0	116.90	0	8.1360	0	33.5370	0	26.107	0	115.885	0	129.6	4	44.8	4	-1E+10	1	-1E+10	1	-1E+10	1	-1E+10	1	-1E+10	1	-1E+10	1
4902663	28	C	05/07/2024	18:11	-127.368	48.103	0	117.70	0	8.1250	0	33.5490	0	26.118	0	116.678	0	129.0	4	44.6	4	-1E+10	1	-1E+10	1	-1E+10	1	-1E+10	1	-1E+10	1	-1E+10	1
4902663	28	C	05/07/2024	18:11	-127.368	48.103	0	118.60	0	8.1290	0	33.5590	0	26.125	0	117.570	0	128.3	4	44.4	4	-1E+10	1	-1E+10	1	-1E+10	1	-1E+10	1	-1E+10	1	-1E+10	1
4902663	28	C	05/07/2024	18:11	-127.368	48.103	0	119.90	0	8.1080	0	33.5810	0	26.146	0	118.858	0	127.2	4	44.0	4	-1E+10	1	-1E+10	1	-1E+10	1	-1E+10	1	-1E+10	1	-1E+10	1
4902663	28	C	05/07/2024	18:11	-127.368	48.103	0	121.30	0	8.0980	0	33.5990	0	26.161	0	120.246	0	126.3	4	43.7	4	-1E+10	1	-1E+10	1	-1E+10	1	-1E+10	1	-1E+10	1	-1E+10	1
4902663	28	C	05/07/2024	18:11	-127.368	48.103	0	122.30	0	8.0870	0	33.6090	0	26.171	0	121.237	0	126.0	4	43.6	4	-1E+10	1	-1E+10	1	-1E+10	1	-1E+10	1	-1E+10	1	-1E+10	1
4902663	28	C	05/07/2024	18:11	-127.368	48.103	0	123.20	0	8.0800	0	33.6210	0	26.181	0	122.129	0	125.8	4	43.5	4	-1E+10	1	-1E+10	1	-1E+10	1	-1E+10	1	-1E+10	1	-1E+10	1
4902663	28	C	05/07/2024	18:11	-127.368	48.103	0	124.20	0	8.0540	0	33.6390	0	26.199	0	123.120	0	125.8	4	43.5	4	-1E+10	1	-1E+10	1	-1E+10	1	-1E+10	1	-1E+10	1	-1E+10	1
4902663	28	C	05/07/2024	18:11	-127.368	48.103	0	125.20	0	8.0300	0	33.6450	0	26.207	0	124.111	0	125.5	4	43.3	4	-1E+10	1	-1E+10	1	-1E+10	1	-1E+10	1	-1E+10	1	-1E+10	1
4902663	28	C	05/07/2024	18:11	-127.368	48.103	0	126.20	0	8.0370	0	33.6520	0	26.212	0	125.102	0	125.3	4	43.3	4	-1E+10	1	-1E+10	1	-1E+10	1	-1E+10	1	-1E+10	1	-1E+10	1
4902663	28	C	05/07/2024	18:11	-127.368	48.103	0	127.20	0	7.9940	0	33.6660	0	26.229	0	126.093	0	125.1	4	43.2	4	-1E+10	1	-1E+10	1	-1E+10	1	-1E+10	1	-1E+10	1	-1E+10	1
4902663	28	C	05/07/2024	18:11	-127.368	48.103	0	128.20	0	7.9700	0	33.6780	0	26.242	0	127.084	0	124.9	4	43.1	4	-1E+10	1	-1E+10	1	-1E+10	1	-1E+10	1	-1E+10	1	-1E+10	1
4902663	28	C	05/07/2024	18:11	-127.368	48.103	0	129.20	0	7.9620	0	33.6800	0	26.245	0	128.075	0	124.5	4	43.0	4	-1E+10	1	-1E+10	1	-1E+10	1	-1E+10	1	-1E+10	1	-1E+10	1
4902663	28	C	05/07/2024	18:11	-127.368	48.103	0	130.20	0	7.9560	0	33.6810	0	26.247	0	129.065	0	124.2	4	42.8	4	-1E+10	1	-1E+10	1	-1E+10	1	-1E+10	1	-1E+10	1	-1E+10	1
4902663	28	C	05/07/2024	18:11	-127.368	48.103	0	131.20	0	7.9490	0	33.6810	0	26.248	0	130.056	0	123.9	4	42.7	4	-1E+10	1	-1E+10	1	-1E+10	1	-1E+10	1	-1E+10	1	-1E+10	1
4902663	28	C	05/07/2024	18:11	-127.368	48.103	0	132.20	0	7.9380	0	33.6830	0	26.251	0	131.047	0	123.5	4	42.6	4	-1E+10	1	-1E+10	1	-1E+10	1	-1E+10	1	-1E+10	1	-1E+10	1
4902663	28	C	05/07/2024	18:11	-127.368	48.103	0	133.20	0	7.9300	0	33.6860	0	26.254	0	132.038	0	123.1	4	42.4	4	-1E+10	1	-1E+10	1	-1E+10	1	-1E+10	1	-1E+10	1	-1E+10	1
4902663	28	C	05/07/2024	18:11	-127.368	48.103	0	134.30	0	7.9260	0	33.6860	0	26.255	0	133.128	0	122.6	4	42.3	4	-1E+10	1	-1E+10	1	-1E+10	1	-1E+10	1	-1E+10	1	-1E+10	1
4902663	28	C	05/07/2024	18:11	-127.368	48.103	0	135.30	0	7.9190	0	33.6880	0	26.258	0	134.119	0	122.2	4	42.1	4	-1E+10	1	-1E+10	1	-1E+10	1	-1E+10	1	-1E+10	1	-1E+10	1
4902663	28	C	05/07/2024	18:11	-127.368	48.103	0	136.30	0	7.9090	0	33.7010	0	26.269	0	135.110	0	121.7	4	41.9	4	-1E+10	1	-1E+10	1	-1E+10	1	-1E+10	1	-1E+10	1	-1E+10	1
4902663	28	C	05/07/2024	18:11	-127.368	48.103	0	137.30	0	7.8930	0	33.7050	0	26.275	0	136.101	0	121.3	4	41.8	4	-1E+10	1	-1E+10	1	-1E+10	1	-1E+10	1	-1E+10	1	-1E+10	1
4902663	28	C	05/07/2024	18:11	-127.368	48.103	0	138.30	0	7.8840	0	33.7070	0	26.278	0	137.092	0	120.7	4	41.6	4	-1E+10	1	-1E+10	1	-1E+10	1	-1E+10	1	-1E+10	1	-1E+10	1
4902663	28	C	05/07/2024	18:11	-127.368	48.103	0	139.30	0	7.8670	0	33.7140	0	26.286	0	138.083	0	120.1	4	41.3	4	-1E+10	1	-1E+10	1	-1E+10	1	-1E+10	1	-1E+10	1	-1E+10	1
4902663	28	C	05/07/2024	18:11	-127.368	48.103	0	140.30	0	7.8550	0	33.7170	0	26.290	0	139.074	0	119.4	4	41.1	4	-1E+10	1	-1E+10	1	-1E+10	1	-1E+10	1	-1E+10	1	-1E+10	1
4902663	28	C	05/07/2024	18:11	-127.368	48.103	0	141.40	0	7.8150	0	33.7310	0	26.307	0	140.164	0	118.8	4	40.8	4	-1E+10	1	-1E+10	1	-1E+10	1	-1E+10	1	-1E+10	1	-1E+10	1
4902663	28	C	05/07/2024	18:11	-127.368	48.103	0	142.40	0	7.7870	0	33.7380	0	26.316	0	141.155	0	118.2	4	40.6	4	-1E+10	1	-1E+10	1	-1E+10	1	-1E+10	1	-1E+10	1	-1E+10	1
4902663	28	C	05/07/2024	18:11	-127.368	48.103	0	143.40	0	7.7730	0	33.7410	0	26.321	0	142.146	0	117.7	4	40.5	4	-1E+10	1	-1E+10	1	-1E+10	1	-1E+10	1	-1E+10	1	-1E+10	1
4902663	28	C	05/07/2024	18:11	-127.368	48.103	0	144.40	0	7.7500	0	33.7470	0	26.329	0	143.137	0	117.6	4	40.4	4	-1E+10	1	-1E+10	1	-1E+10	1	-1E+10	1	-1E+10	1	-1E+10	1
4902663	28	C	05/07/2024	18:11	-127.368	48.103	0	145.50	0	7.7390	0	33.7500	0	26.333	0	144.227	0	117.6	4	40.4	4	-1E+10	1	-1E+10	1	-1E+10	1	-1E+10	1	-1E+10	1	-1E+10	1
4902663	28	C	05/07/2024	18:11	-127.368	48.103	0	146.50	0	7.6810	0	33.7560	0	26.346	0	145.218	0	117.6	4	40.3	4	-1E+10	1	-1E+10	1	-1E+10	1	-1E+10	1	-1E+10	1	-1E+10	1
4902663	28	C	05/07/2024	18:11	-127.368	48.103	0	147.60	0	7.6240	0	33.7610	0	26.358	0	146.308	0	117.0	4	40.1	4	-1E+10	1	-1E+10	1	-1E+10	1	-1E+10	1	-1E+10	1	-1E+10	1
4902663	28	C	05/07/2024	18:11	-127.368	48.103	0	148.60	0	7.6220	0	33.7620	0	26.359	0	147.299	0	116.3	4	39.8	4	-1E+10	1	-1E+10	1	-1E+10	1	-1E+10	1	-1E+10	1	-1E+10	1
4902663	28	C	05/07/2024	18:11	-127.368	48.103	0	149.60	0	7.6080	0	33.7660	0	26.364	0	148.289	0	115.5	4	39.6	4	-1E+10	1	-1E+10	1	-1E+10	1	-1E+10	1	-1E+10	1	-1E+10	1
4902663	28	C	05/07/2024	18:11	-127.368	48.103	0	150.70	0	7.5950	0	33.7690	0	26.368	0	149.379	0	114.9	4	39.3	4	-1E+10	1	-1E+10	1	-1E+10	1	-1E+10	1	-1E+10	1	-1E+10	1
4902663	28	C	05/07/2024	18:11	-127.368	48.103	0	151.70	0	7.5970	0	33.7710	0	26.370	0	150.370	0	114.3	4	39.1	4	-1E+10	1	-1E+10	1	-1E+10	1	-1E+10	1	-1E+10	1	-1E+10	1
4902663	28	C	05/07/2024	18:11	-127.368	48.103	0	152.80	0	7.5940	0	33.7770	0	26.375	0	151.460	0	113.9	4	39.0	4	-1E+10	1	-1E+10	1	-1E+10	1	-1E+10	1	-1E+10	1	-1E+10	1
4902663	28	C	05/07/2024	18:11	-127.368	48.103	0	153.90	0	7.5830	0	33.7800	0	26.379	0	152.550	0	113.8	4	38.9	4	-1E+10	1	-1E+10	1	-1E+10	1	-1E+10	1	-1E+10	1	-1E+10	1
4902663	28	C	05/07/2024	18:11	-127.368	48.103	0	155.00	0	7.5820	0	33.7800	0	26.379	0	153.640	0	113.6	4	38.9	4	-1E+10	1	-1E+10	1	-1E+10	1	-1E+10	1	-1E+10	1	-1E+10	1
4902663	28	C	05/07/2024	18:11	-127.368	48.103	0	156.10	0	7.5800	0	33.7810	0	26.380	0	154.730	0	113.4	4	38.8	4	-1E+10	1	-1E+10	1	-1E+10	1	-1E+10	1	-1E+10	1	-1E+10	1
4902663	28	C	05/07/2024	18:11	-127.368	48.103	0	157.10	0	7.5750	0	33.7830	0	26.382	0	155.721	0	113.2	4	38.7	4	-1E+10	1	-1E+10	1	-1E+10	1	-1E+10	1	-1E+10	1	-1E+10	1
4902663	28	C	05/07/2024	18:11	-127.368	48.103	0	158.20	0	7.5680	0	33.7850	0	26.385	0	156.811	0	113.1	4	38.7	4	-1E+10	1	-1E+10	1	-1E+10	1	-1E+10	1	-1E+10	1	-1E+10	1
4902663	28	C	05/07/2024	18:11	-127.368	48.103	0	159.20	0	7.5530	0	33.7890	0	26.390	0	157.802	0	112.9	4	38.6	4	-1E+10	1	-1E+10	1	-1E+10	1	-1E+10	1	-1E+10	1	-1E+10	1
4902663	28	C	05/07/2024	18:11	-127.368	48.103	0	160.20	0	7.5410	0	33.7920	0	26.394	0	158.793	0	112.8	4	38.6	4	-1E+10	1	-1E+10	1	-1E+10	1	-1E+10	1	-1E+10	1	-1E+10	1
4902663	28	C	05/07/2024	18:11	-127.368	48.103	0	161.20	0	7.5240	0	33.7950	0	26.399	0	159.783	0	112.7	4	38.5	4	-1E+10	1	-1E+10	1	-1E+10	1	-1E+10	1	-1E+10	1	-1E+10	1
4902663	28	C	05/07/2024	18:11	-127.368	48.103	0	162.30	0	7.4930	0	33.7990	0	26.406	0	160.873	0	112.4	4	38.4	4	-1E+10	1	-1E+10	1	-1E+10	1	-1E+10	1	-1E+10	1	-1E+10	1
4902663	28	C	05/07/2024	18:11	-127.368	48.103	0	163.30	0	7.4810	0	33.7990	0	26.408	0	161.864	0	111.9	4	38.2	4	-1E+10	1	-1E+10	1	-1E+10	1	-1E+10	1	-1E+10	1	-1E+10	1
4902663	28	C	05/07/2024	18:11	-127.368	48.103	0	164.30	0	7.4780	0	33.7990	0	26.409	0	162.855	0	111.3	4	38.0	4	-1E+10	1	-1E+10	1	-1E+10	1	-1E+10	1	-1E+10	1	-1E+10	1
4902663	28	C	05/07/2024	18:11	-127.368	48.103	0	165.30	0	7.4650	0	33.8020	0	26.413	0	163.846	0	110.7	4	37.8	4	-1E+10	1	-1E+10	1	-1E+10	1	-1E+10	1	-1E+10	1	-1E+10	1
4902663	28	C	05/07/2024	18:11	-127.368	48.103	0	166.30	0	7.4460	0	33.8060	0	26.419	0	164.837	0	109.9	4	37.5	4	-1E+10	1	-1E+10	1	-1E+10	1	-1E+10	1	-1E+10	1	-1E+10	1
4902663	28	C	05/07/2024	18:11	-127.368	48.103	0	167.30	0	7.4240	0	33.8150	0	26.429	0	165.827	0	109.4	4	37.3	4	-1E+10	1	-1E+10	1	-1E+10	1	-1E+10	1	-1E+10	1	-1E+10	1
4902663	28	C	05/07/2024	18:11	-127.368	48.103	0	168.20	0	7.4310	0	33.8200	0	26.432	0	166.719	0	109.0	4	37.2	4	-1E+10	1	-1E+10	1	-1E+10	1	-1E+10	1	-1E+10	1	-1E+10	1
4902663	28	C	05/07/2024	18:11	-127.368	48.103	0	169.20	0	7.4300	0	33.8230	0	26.434	0	167.710	0	108.5	4	37.0	4	-1E+10	1	-1E+10	1	-1E+10	1	-1E+10	1	-1E+10	1	-1E+10	1
4902663	28	C	05/07/2024	18:11	-127.368	48.103	0	170.30	0	7.4080	0	33.8300	0	26.443	0	168.800	0	108.2	4	36.9	4	-1E+10	1	-1E+10	1	-1E+10	1	-1E+10	1	-1E+10	1	-1E+10	1
4902663	28	C	05/07/2024	18:11	-127.368	48.103	0	171.30	0	7.4050	0	33.8300	0	26.443	0	169.790	0	107.9	4	36.8	4	-1E+10	1	-1E+10	1	-1E+10	1	-1E+10	1	-1E+10	1	-1E+10	1
4902663	28	C	05/07/2024	18:11	-127.368	48.103	0	172.30	0	7.3830	0	33.8330	0	26.449	0	170.781	0	107.5	4	36.6	4	-1E+10	1	-1E+10	1	-1E+10	1	-1E+10	1	-1E+10	1	-1E+10	1
4902663	28	C	05/07/2024	18:11	-127.368	48.103	0	173.40	0	7.3480	0	33.8330	0	26.454	0	171.871	0	107.0	4	36.5	4	-1E+10	1	-1E+10	1	-1E+10	1	-1E+10	1	-1E+10	1	-1E+10	1
4902663	28	C	05/07/2024	18:11	-127.368	48.103	0	174.40	0	7.3510	0	33.8360	0	26.456	0	172.862	0	106.4	4	36.3	4	-1E+10	1	-1E+10	1	-1E+10	1	-1E+10	1	-1E+10	1	-1E+10	1
4902663	28	C	05/07/2024	18:11	-127.368	48.103	0	175.40	0	7.3440	0	33.8400	0	26.460	0	173.853	0	106.1	4	36.1	4	-1E+10	1	-1E+10	1	-1E+10	1	-1E+10	1	-1E+10	1	-1E+10	1
4902663	28	C	05/07/2024	18:11	-127.368	48.103	0	176.40	0	7.3390	0	33.8390	0	26.460	0	174.843	0	105.9	4	36.1	4	-1E+10	1	-1E+10	1	-1E+10	1	-1E+10	1	-1E+10	1	-1E+10	1
4902663	28	C	05/07/2024	18:11	-127.368	48.103	0	177.40	0	7.3100	0	33.8390	0	26.464	0	175.834	0	105.8	4	36.0	4	-1E+10	1	-1E+10	1	-1E+10	1	-1E+10	1	-1E+10	1	-1E+10	1
4902663	28	C	05/07/2024	18:11	-127.368	48.103	0	178.40	0	7.3100	0	33.8410	0	26.465	0	176.825	0	105.8	4	36.0	4	-1E+10	1	-1E+10	1	-1E+10	1	-1E+10	1	-1E+10	1	-1E+10	1
4902663	28	C	05/07/2024	18:11	-127.368	48.103	0	179.40	0	7.2870	0	33.8450	0	26.472	0	177.816	0	105.7	4	35.9	4	-1E+10	1	-1E+10	1	-1E+10	1	-1E+10	1	-1E+10	1	-1E+10	1
4902663	28	C	05/07/2024	18:11	-127.368	48.103	0	180.40	0	7.2660	0	33.8490	0	26.478	0	178.806	0	105.5	4	35.9	4	-1E+10	1	-1E+10	1	-1E+10	1	-1E+10	1	-1E+10	1	-1E+10	1
4902663	28	C	05/07/2024	18:11	-127.368	48.103	0	181.40	0	7.2540	0	33.8490	0	26.480	0	179.797	0	105.4	4	35.8	4	-1E+10	1	-1E+10	1	-1E+10	1	-1E+10	1	-1E+10	1	-1E+10	1
4902663	28	C	05/07/2024	18:11	-127.368	48.103	0	182.40	0	7.2510	0	33.8490	0	26.480	0	180.788	0	105.1	4	35.7	4	-1E+10	1	-1E+10	1	-1E+10	1	-1E+10	1	-1E+10	1	-1E+10	1
4902663	28	C	05/07/2024	18:11	-127.368	48.103	0	183.50	0	7.2490	0	33.8490	0	26.480	0	181.878	0	104.9	4	35.6	4	-1E+10	1	-1E+10	1	-1E+10	1	-1E+10	1	-1E+10	1	-1E+10	1
4902663	28	C	05/07/2024	18:11	-127.368	48.103	0	184.50	0	7.2410	0	33.8500	0	26.482	0	182.868	0	104.6	4	35.5	4	-1E+10	1	-1E+10	1	-1E+10	1	-1E+10	1	-1E+10	1	-1E+10	1
4902663	28	C	05/07/2024	18:11	-127.368	48.103	0	185.50	0	7.2380	0	33.8500	0	26.483	0	183.859	0	104.3	4	35.4	4	-1E+10	1	-1E+10	1	-1E+10	1	-1E+10	1	-1E+10	1	-1E+10	1
4902663	28	C	05/07/2024	18:11	-127.368	48.103	0	186.50	0	7.2050	0	33.8520	0	26.489	0	184.850	0	103.9	4	35.3	4	-1E+10	1	-1E+10	1	-1E+10	1	-1E+10	1	-1E+10	1	-1E+10	1
4902663	28	C	05/07/2024	18:11	-127.368	48.103	0	187.60	0	7.1750	0	33.8550	0	26.495	0	185.940	0	103.7	4	35.2	4	-1E+10	1	-1E+10	1	-1E+10	1	-1E+10	1	-1E+10	1	-1E+10	1
4902663	28	C	05/07/2024	18:11	-127.368	48.103	0	188.60	0	7.1620	0	33.8580	0	26.500	0	186.930	0	103.4	4	35.1	4	-1E+10	1	-1E+10	1	-1E+10	1	-1E+10	1	-1E+10	1	-1E+10	1
4902663	28	C	05/07/2024	18:11	-127.368	48.103	0	189.70	0	7.1360	0	33.8570	0	26.502	0	188.020	0	102.8	4	34.9	4	-1E+10	1	-1E+10	1	-1E+10	1	-1E+10	1	-1E+10	1	-1E+10	1
4902663	28	C	05/07/2024	18:11	-127.368	48.103	0	190.70	0	7.1200	0	33.8590	0	26.506	0	189.011	0	102.2	4	34.6	4	-1E+10	1	-1E+10	1	-1E+10	1	-1E+10	1	-1E+10	1	-1E+10	1
4902663	28	C	05/07/2024	18:11	-127.368	48.103	0	191.80	0	7.1120	0	33.8650	0	26.512	0	190.100	0	101.7	4	34.5	4	-1E+10	1	-1E+10	1	-1E+10	1	-1E+10	1	-1E+10	1	-1E+10	1
4902663	28	C	05/07/2024	18:11	-127.368	48.103	0	192.90	0	7.0880	0	33.8630	0	26.514	0	191.190	0	101.2	4	34.3	4	-1E+10	1	-1E+10	1	-1E+10	1	-1E+10	1	-1E+10	1	-1E+10	1
4902663	28	C	05/07/2024	18:11	-127.368	48.103	0	193.90	0	7.0890	0	33.8670	0	26.517	0	192.181	0	100.8	4	34.1	4	-1E+10	1	-1E+10	1	-1E+10	1	-1E+10	1	-1E+10	1	-1E+10	1
4902663	28	C	05/07/2024	18:11	-127.368	48.103	0	195.00	0	7.0750	0	33.8690	0	26.520	0	193.271	0	100.4	4	34.0	4	-1E+10	1	-1E+10	1	-1E+10	1	-1E+10	1	-1E+10	1	-1E+10	1
4902663	28	C	05/07/2024	18:11	-127.368	48.103	0	196.00	0	7.0750	0	33.8690	0	26.520	0	194.261	0	100.1	4	33.9	4	-1E+10	1	-1E+10	1	-1E+10	1	-1E+10	1	-1E+10	1	-1E+10	1
4902663	28	C	05/07/2024	18:11	-127.368	48.103	0	197.10	0	7.0510	0	33.8770	0	26.530	0	195.351	0	99.6	4	33.7	4	-1E+10	1	-1E+10	1	-1E+10	1	-1E+10	1	-1E+10	1	-1E+10	1
4902663	28	C	05/07/2024	18:11	-127.368	48.103	0	198.20	0	7.0420	0	33.8750	0	26.530	0	196.441	0	99.0	4	33.5	4	-1E+10	1	-1E+10	1	-1E+10	1	-1E+10	1	-1E+10	1	-1E+10	1
4902663	28	C	05/07/2024	18:11	-127.368	48.103	0	199.30	0	7.0170	0	33.8810	0	26.538	0	197.530	0	98.8	4	33.4	4	-1E+10	1	-1E+10	1	-1E+10	1	-1E+10	1	-1E+10	1	-1E+10	1
4902663	28	C	05/07/2024	18:11	-127.368	48.103	0	200.40	0	6.9970	0	33.8820	0	26.541	0	198.620	0	98.4	4	33.3	4	-1E+10	1	-1E+10	1	-1E+10	1	-1E+10	1	-1E+10	1	-1E+10	1
4902663	28	C	05/07/2024	18:11	-127.368	48.103	0	201.50	0	6.9890	0	33.8830	0	26.543	0	199.710	0	97.9	4	33.1	4	-1E+10	1	-1E+10	1	-1E+10	1	-1E+10	1	-1E+10	1	-1E+10	1
4902663	28	C	05/07/2024	18:11	-127.368	48.103	0	202.90	0	6.9700	0	33.8850	0	26.547	0	201.097	0	97.5	4	32.9	4	-1E+10	1	-1E+10	1	-1E+10	1	-1E+10	1	-1E+10	1	-1E+10	1
4902663	28	C	05/07/2024	18:11	-127.368	48.103	0	204.90	0	6.9360	0	33.8870	0	26.554	0	203.078	0	96.9	4	32.7	4	-1E+10	1	-1E+10	1	-1E+10	1	-1E+10	1	-1E+10	1	-1E+10	1
4902663	28	C	05/07/2024	18:11	-127.368	48.103	0	206.10	0	6.9050	0	33.8880	0	26.559	0	204.267	0	96.7	4	32.6	4	-1E+10	1	-1E+10	1	-1E+10	1	-1E+10	1	-1E+10	1	-1E+10	1
4902663	28	C	05/07/2024	18:11	-127.368	48.103	0	206.90	0	6.8940	0	33.8890	0	26.561	0	205.059	0	96.4	4	32.5	4	-1E+10	1	-1E+10	1	-1E+10	1	-1E+10	1	-1E+10	1	-1E+10	1
4902663	28	C	05/07/2024	18:11	-127.368	48.103	0	207.80	0	6.8840	0	33.8900	0	26.563	0	205.951	0	96.2	4	32.4	4	-1E+10	1	-1E+10	1	-1E+10	1	-1E+10	1	-1E+10	1	-1E+10	1
4902663	28	C	05/07/2024	18:11	-127.368	48.103	0	209.00	0	6.8690	0	33.8920	0	26.567	0	207.139	0	95.9	4	32.3	4	-1E+10	1	-1E+10	1	-1E+10	1	-1E+10	1	-1E+10	1	-1E+10	1
4902663	28	C	05/07/2024	18:11	-127.368	48.103	0	210.20	0	6.8590	0	33.8920	0	26.568	0	208.328	0	95.5	4	32.2	4	-1E+10	1	-1E+10	1	-1E+10	1	-1E+10	1	-1E+10	1	-1E+10	1
4902663	28	C	05/07/2024	18:11	-127.368	48.103	0	211.10	0	6.8570	0	33.8910	0	26.567	0	209.220	0	95.3	4	32.1	4	-1E+10	1	-1E+10	1	-1E+10	1	-1E+10	1	-1E+10	1	-1E+10	1
4902663	28	C	05/07/2024	18:11	-127.368	48.103	0	211.90	0	6.8510	0	33.8910	0	26.568	0	210.012	0	95.0	4	32.0	4	-1E+10	1	-1E+10	1	-1E+10	1	-1E+10	1	-1E+10	1	-1E+10	1
4902663	28	C	05/07/2024	18:11	-127.368	48.103	0	212.70	0	6.8500	0	33.8910	0	26.568	0	210.805	0	94.6	4	31.9	4	-1E+10	1	-1E+10	1	-1E+10	1	-1E+10	1	-1E+10	1	-1E+10	1
4902663	28	C	05/07/2024	18:11	-127.368	48.103	0	213.90	0	6.8410	0	33.8930	0	26.571	0	211.993	0	94.2	4	31.7	4	-1E+10	1	-1E+10	1	-1E+10	1	-1E+10	1	-1E+10	1	-1E+10	1
4902663	28	C	05/07/2024	18:11	-127.368	48.103	0	215.10	0	6.8050	0	33.8960	0	26.578	0	213.182	0	93.8	4	31.6	4	-1E+10	1	-1E+10	1	-1E+10	1	-1E+10	1	-1E+10	1	-1E+10	1
4902663	28	C	05/07/2024	18:11	-127.368	48.103	0	215.90	0	6.8000	0	33.8960	0	26.579	0	213.974	0	93.5	4	31.5	4	-1E+10	1	-1E+10	1	-1E+10	1	-1E+10	1	-1E+10	1	-1E+10	1
4902663	28	C	05/07/2024	18:11	-127.368	48.103	0	216.70	0	6.7750	0	33.9040	0	26.589	0	214.767	0	93.2	4	31.3	4	-1E+10	1	-1E+10	1	-1E+10	1	-1E+10	1	-1E+10	1	-1E+10	1
4902663	28	C	05/07/2024	18:11	-127.368	48.103	0	217.90	0	6.7560	0	33.9000	0	26.588	0	215.955	0	92.6	4	31.1	4	-1E+10	1	-1E+10	1	-1E+10	1	-1E+10	1	-1E+10	1	-1E+10	1
4902663	28	C	05/07/2024	18:11	-127.368	48.103	0	219.20	0	6.7420	0	33.9020	0	26.592	0	217.243	0	92.0	4	30.9	4	-1E+10	1	-1E+10	1	-1E+10	1	-1E+10	1	-1E+10	1	-1E+10	1
4902663	28	C	05/07/2024	18:11	-127.368	48.103	0	220.00	0	6.7290	0	33.9010	0	26.593	0	218.036	0	91.5	4	30.7	4	-1E+10	1	-1E+10	1	-1E+10	1	-1E+10	1	-1E+10	1	-1E+10	1
4902663	28	C	05/07/2024	18:11	-127.368	48.103	0	220.80	0	6.7220	0	33.9000	0	26.593	0	218.828	0	91.0	4	30.6	4	-1E+10	1	-1E+10	1	-1E+10	1	-1E+10	1	-1E+10	1	-1E+10	1
4902663	28	C	05/07/2024	18:11	-127.368	48.103	0	222.00	0	6.6940	0	33.9030	0	26.599	0	220.017	0	90.3	4	30.3	4	-1E+10	1	-1E+10	1	-1E+10	1	-1E+10	1	-1E+10	1	-1E+10	1
4902663	28	C	05/07/2024	18:11	-127.368	48.103	0	223.30	0	6.6980	0	33.9060	0	26.601	0	221.304	0	89.7	4	30.1	4	-1E+10	1	-1E+10	1	-1E+10	1	-1E+10	1	-1E+10	1	-1E+10	1
4902663	28	C	05/07/2024	18:11	-127.368	48.103	0	224.10	0	6.6960	0	33.9050	0	26.600	0	222.097	0	89.3	4	30.0	4	-1E+10	1	-1E+10	1	-1E+10	1	-1E+10	1	-1E+10	1	-1E+10	1
4902663	28	C	05/07/2024	18:11	-127.368	48.103	0	224.90	0	6.6420	0	33.9090	0	26.610	0	222.889	0	89.0	4	29.8	4	-1E+10	1	-1E+10	1	-1E+10	1	-1E+10	1	-1E+10	1	-1E+10	1
4902663	28	C	05/07/2024	18:11	-127.368	48.103	0	225.70	0	6.6170	0	33.9090	0	26.614	0	223.682	0	88.7	4	29.7	4	-1E+10	1	-1E+10	1	-1E+10	1	-1E+10	1	-1E+10	1	-1E+10	1
4902663	28	C	05/07/2024	18:11	-127.368	48.103	0	227.00	0	6.6120	0	33.9090	0	26.614	0	224.969	0	88.2	4	29.6	4	-1E+10	1	-1E+10	1	-1E+10	1	-1E+10	1	-1E+10	1	-1E+10	1
4902663	28	C	05/07/2024	18:11	-127.368	48.103	0	228.30	0	6.5910	0	33.9160	0	26.623	0	226.257	0	87.7	4	29.4	4	-1E+10	1	-1E+10	1	-1E+10	1	-1E+10	1	-1E+10	1	-1E+10	1
4902663	28	C	05/07/2024	18:11	-127.368	48.103	0	229.10	0	6.5700	0	33.9120	0	26.622	0	227.049	0	87.5	4	29.3	4	-1E+10	1	-1E+10	1	-1E+10	1	-1E+10	1	-1E+10	1	-1E+10	1
4902663	28	C	05/07/2024	18:11	-127.368	48.103	0	229.90	0	6.5580	0	33.9160	0	26.627	0	227.842	0	87.3	4	29.2	4	-1E+10	1	-1E+10	1	-1E+10	1	-1E+10	1	-1E+10	1	-1E+10	1
4902663	28	C	05/07/2024	18:11	-127.368	48.103	0	230.80	0	6.5560	0	33.9150	0	26.627	0	228.733	0	87.1	4	29.1	4	-1E+10	1	-1E+10	1	-1E+10	1	-1E+10	1	-1E+10	1	-1E+10	1
4902663	28	C	05/07/2024	18:11	-127.368	48.103	0	232.00	0	6.5530	0	33.9150	0	26.627	0	229.922	0	86.7	4	29.0	4	-1E+10	1	-1E+10	1	-1E+10	1	-1E+10	1	-1E+10	1	-1E+10	1
4902663	28	C	05/07/2024	18:11	-127.368	48.103	0	233.30	0	6.5490	0	33.9150	0	26.628	0	231.209	0	86.2	4	28.9	4	-1E+10	1	-1E+10	1	-1E+10	1	-1E+10	1	-1E+10	1	-1E+10	1
4902663	28	C	05/07/2024	18:11	-127.368	48.103	0	234.10	0	6.5450	0	33.9160	0	26.629	0	232.002	0	85.9	4	28.7	4	-1E+10	1	-1E+10	1	-1E+10	1	-1E+10	1	-1E+10	1	-1E+10	1
4902663	28	C	05/07/2024	18:11	-127.368	48.103	0	234.90	0	6.5370	0	33.9170	0	26.631	0	232.794	0	85.6	4	28.6	4	-1E+10	1	-1E+10	1	-1E+10	1	-1E+10	1	-1E+10	1	-1E+10	1
4902663	28	C	05/07/2024	18:11	-127.368	48.103	0	235.70	0	6.5300	0	33.9180	0	26.632	0	233.587	0	85.2	4	28.5	4	-1E+10	1	-1E+10	1	-1E+10	1	-1E+10	1	-1E+10	1	-1E+10	1
4902663	28	C	05/07/2024	18:11	-127.368	48.103	0	236.90	0	6.5220	0	33.9180	0	26.634	0	234.775	0	84.9	4	28.4	4	-1E+10	1	-1E+10	1	-1E+10	1	-1E+10	1	-1E+10	1	-1E+10	1
4902663	28	C	05/07/2024	18:11	-127.368	48.103	0	238.20	0	6.5110	0	33.9190	0	26.636	0	236.063	0	84.5	4	28.3	4	-1E+10	1	-1E+10	1	-1E+10	1	-1E+10	1	-1E+10	1	-1E+10	1
4902663	28	C	05/07/2024	18:11	-127.368	48.103	0	239.00	0	6.5040	0	33.9210	0	26.638	0	236.855	0	84.2	4	28.2	4	-1E+10	1	-1E+10	1	-1E+10	1	-1E+10	1	-1E+10	1	-1E+10	1
4902663	28	C	05/07/2024	18:11	-127.368	48.103	0	239.80	0	6.5000	0	33.9210	0	26.639	0	237.647	0	84.0	4	28.1	4	-1E+10	1	-1E+10	1	-1E+10	1	-1E+10	1	-1E+10	1	-1E+10	1
4902663	28	C	05/07/2024	18:11	-127.368	48.103	0	240.70	0	6.4910	0	33.9220	0	26.641	0	238.539	0	83.8	4	28.0	4	-1E+10	1	-1E+10	1	-1E+10	1	-1E+10	1	-1E+10	1	-1E+10	1
4902663	28	C	05/07/2024	18:11	-127.368	48.103	0	241.90	0	6.4790	0	33.9230	0	26.643	0	239.727	0	83.3	4	27.8	4	-1E+10	1	-1E+10	1	-1E+10	1	-1E+10	1	-1E+10	1	-1E+10	1
4902663	28	C	05/07/2024	18:11	-127.368	48.103	0	243.10	0	6.4690	0	33.9230	0	26.644	0	240.916	0	83.0	4	27.7	4	-1E+10	1	-1E+10	1	-1E+10	1	-1E+10	1	-1E+10	1	-1E+10	1
4902663	28	C	05/07/2024	18:11	-127.368	48.103	0	243.90	0	6.4570	0	33.9260	0	26.648	0	241.708	0	82.7	4	27.6	4	-1E+10	1	-1E+10	1	-1E+10	1	-1E+10	1	-1E+10	1	-1E+10	1
4902663	28	C	05/07/2024	18:11	-127.368	48.103	0	244.70	0	6.4430	0	33.9260	0	26.650	0	242.501	0	82.5	4	27.6	4	-1E+10	1	-1E+10	1	-1E+10	1	-1E+10	1	-1E+10	1	-1E+10	1
4902663	28	C	05/07/2024	18:11	-127.368	48.103	0	246.00	0	6.4260	0	33.9270	0	26.653	0	243.788	0	82.3	4	27.5	4	-1E+10	1	-1E+10	1	-1E+10	1	-1E+10	1	-1E+10	1	-1E+10	1
4902663	28	C	05/07/2024	18:11	-127.368	48.103	0	247.20	0	6.4180	0	33.9270	0	26.654	0	244.977	0	82.1	4	27.4	4	-1E+10	1	-1E+10	1	-1E+10	1	-1E+10	1	-1E+10	1	-1E+10	1
4902663	28	C	05/07/2024	18:11	-127.368	48.103	0	248.00	0	6.4100	0	33.9270	0	26.655	0	245.769	0	81.9	4	27.3	4	-1E+10	1	-1E+10	1	-1E+10	1	-1E+10	1	-1E+10	1	-1E+10	1
4902663	28	C	05/07/2024	18:11	-127.368	48.103	0	248.80	0	6.4100	0	33.9270	0	26.655	0	246.561	0	81.6	4	27.2	4	-1E+10	1	-1E+10	1	-1E+10	1	-1E+10	1	-1E+10	1	-1E+10	1
4902663	28	C	05/07/2024	18:11	-127.368	48.103	0	250.00	0	6.4050	0	33.9270	0	26.656	0	247.750	0	81.2	4	27.1	4	-1E+10	1	-1E+10	1	-1E+10	1	-1E+10	1	-1E+10	1	-1E+10	1
4902663	28	C	05/07/2024	18:11	-127.368	48.103	0	251.20	0	6.3860	0	33.9350	0	26.665	0	248.938	0	80.8	4	26.9	4	-1E+10	1	-1E+10	1	-1E+10	1	-1E+10	1	-1E+10	1	-1E+10	1
4902663	28	C	05/07/2024	18:11	-127.368	48.103	0	252.00	0	6.3830	0	33.9290	0	26.660	0	249.731	0	80.5	4	26.8	4	-1E+10	1	-1E+10	1	-1E+10	1	-1E+10	1	-1E+10	1	-1E+10	1
4902663	28	C	05/07/2024	18:11	-127.368	48.103	0	252.80	0	6.3770	0	33.9290	0	26.661	0	250.523	0	80.2	4	26.7	4	-1E+10	1	-1E+10	1	-1E+10	1	-1E+10	1	-1E+10	1	-1E+10	1
4902663	28	C	05/07/2024	18:11	-127.368	48.103	0	253.60	0	6.3700	0	33.9300	0	26.663	0	251.315	0	79.9	4	26.6	4	-1E+10	1	-1E+10	1	-1E+10	1	-1E+10	1	-1E+10	1	-1E+10	1
4902663	28	C	05/07/2024	18:11	-127.368	48.103	0	254.90	0	6.3490	0	33.9330	0	26.668	0	252.603	0	79.5	4	26.5	4	-1E+10	1	-1E+10	1	-1E+10	1	-1E+10	1	-1E+10	1	-1E+10	1
4902663	28	C	05/07/2024	18:11	-127.368	48.103	0	256.10	0	6.3340	0	33.9330	0	26.670	0	253.791	0	79.1	4	26.4	4	-1E+10	1	-1E+10	1	-1E+10	1	-1E+10	1	-1E+10	1	-1E+10	1
4902663	28	C	05/07/2024	18:11	-127.368	48.103	0	256.90	0	6.3260	0	33.9330	0	26.671	0	254.583	0	78.8	4	26.2	4	-1E+10	1	-1E+10	1	-1E+10	1	-1E+10	1	-1E+10	1	-1E+10	1
4902663	28	C	05/07/2024	18:11	-127.368	48.103	0	257.70	0	6.3110	0	33.9350	0	26.675	0	255.376	0	78.5	4	26.1	4	-1E+10	1	-1E+10	1	-1E+10	1	-1E+10	1	-1E+10	1	-1E+10	1
4902663	28	C	05/07/2024	18:11	-127.368	48.103	0	258.90	0	6.3040	0	33.9360	0	26.676	0	256.564	0	78.2	4	26.0	4	-1E+10	1	-1E+10	1	-1E+10	1	-1E+10	1	-1E+10	1	-1E+10	1
4902663	28	C	05/07/2024	18:11	-127.368	48.103	0	260.10	0	6.2930	0	33.9370	0	26.678	0	257.753	0	77.8	4	25.9	4	-1E+10	1	-1E+10	1	-1E+10	1	-1E+10	1	-1E+10	1	-1E+10	1
4902663	28	C	05/07/2024	18:11	-127.368	48.103	0	260.90	0	6.2920	0	33.9360	0	26.678	0	258.545	0	77.5	4	25.8	4	-1E+10	1	-1E+10	1	-1E+10	1	-1E+10	1	-1E+10	1	-1E+10	1
4902663	28	C	05/07/2024	18:11	-127.368	48.103	0	261.80	0	6.2780	0	33.9380	0	26.681	0	259.436	0	77.3	4	25.7	4	-1E+10	1	-1E+10	1	-1E+10	1	-1E+10	1	-1E+10	1	-1E+10	1
4902663	28	C	05/07/2024	18:11	-127.368	48.103	0	262.60	0	6.2660	0	33.9390	0	26.684	0	260.228	0	77.0	4	25.6	4	-1E+10	1	-1E+10	1	-1E+10	1	-1E+10	1	-1E+10	1	-1E+10	1
4902663	28	C	05/07/2024	18:11	-127.368	48.103	0	263.90	0	6.2600	0	33.9390	0	26.684	0	261.516	0	76.7	4	25.5	4	-1E+10	1	-1E+10	1	-1E+10	1	-1E+10	1	-1E+10	1	-1E+10	1
4902663	28	C	05/07/2024	18:11	-127.368	48.103	0	265.10	0	6.2510	0	33.9400	0	26.686	0	262.704	0	76.4	4	25.4	4	-1E+10	1	-1E+10	1	-1E+10	1	-1E+10	1	-1E+10	1	-1E+10	1
4902663	28	C	05/07/2024	18:11	-127.368	48.103	0	265.90	0	6.2470	0	33.9400	0	26.687	0	263.497	0	76.1	4	25.3	4	-1E+10	1	-1E+10	1	-1E+10	1	-1E+10	1	-1E+10	1	-1E+10	1
4902663	28	C	05/07/2024	18:11	-127.368	48.103	0	266.80	0	6.2420	0	33.9400	0	26.687	0	264.388	0	75.9	4	25.2	4	-1E+10	1	-1E+10	1	-1E+10	1	-1E+10	1	-1E+10	1	-1E+10	1
4902663	28	C	05/07/2024	18:11	-127.368	48.103	0	268.00	0	6.2190	0	33.9420	0	26.692	0	265.576	0	75.6	4	25.1	4	-1E+10	1	-1E+10	1	-1E+10	1	-1E+10	1	-1E+10	1	-1E+10	1
4902663	28	C	05/07/2024	18:11	-127.368	48.103	0	269.30	0	6.2060	0	33.9430	0	26.694	0	266.864	0	75.3	4	25.0	4	-1E+10	1	-1E+10	1	-1E+10	1	-1E+10	1	-1E+10	1	-1E+10	1
4902663	28	C	05/07/2024	18:11	-127.368	48.103	0	270.10	0	6.2050	0	33.9430	0	26.695	0	267.656	0	75.2	4	25.0	4	-1E+10	1	-1E+10	1	-1E+10	1	-1E+10	1	-1E+10	1	-1E+10	1
4902663	28	C	05/07/2024	18:11	-127.368	48.103	0	271.00	0	6.2000	0	33.9440	0	26.696	0	268.547	0	75.0	4	24.9	4	-1E+10	1	-1E+10	1	-1E+10	1	-1E+10	1	-1E+10	1	-1E+10	1
4902663	28	C	05/07/2024	18:11	-127.368	48.103	0	271.80	0	6.1950	0	33.9440	0	26.697	0	269.339	0	74.8	4	24.8	4	-1E+10	1	-1E+10	1	-1E+10	1	-1E+10	1	-1E+10	1	-1E+10	1
4902663	28	C	05/07/2024	18:11	-127.368	48.103	0	272.70	0	6.1860	0	33.9450	0	26.699	0	270.231	0	74.6	4	24.8	4	-1E+10	1	-1E+10	1	-1E+10	1	-1E+10	1	-1E+10	1	-1E+10	1
4902663	28	C	05/07/2024	18:11	-127.368	48.103	0	274.00	0	6.1830	0	33.9460	0	26.700	0	271.518	0	74.3	4	24.7	4	-1E+10	1	-1E+10	1	-1E+10	1	-1E+10	1	-1E+10	1	-1E+10	1
4902663	28	C	05/07/2024	18:11	-127.368	48.103	0	275.30	0	6.1810	0	33.9460	0	26.700	0	272.805	0	74.0	4	24.5	4	-1E+10	1	-1E+10	1	-1E+10	1	-1E+10	1	-1E+10	1	-1E+10	1
4902663	28	C	05/07/2024	18:11	-127.368	48.103	0	276.20	0	6.1750	0	33.9460	0	26.701	0	273.697	0	73.7	4	24.5	4	-1E+10	1	-1E+10	1	-1E+10	1	-1E+10	1	-1E+10	1	-1E+10	1
4902663	28	C	05/07/2024	18:11	-127.368	48.103	0	277.00	0	6.1710	0	33.9470	0	26.702	0	274.489	0	73.5	4	24.4	4	-1E+10	1	-1E+10	1	-1E+10	1	-1E+10	1	-1E+10	1	-1E+10	1
4902663	28	C	05/07/2024	18:11	-127.368	48.103	0	277.90	0	6.1620	0	33.9490	0	26.705	0	275.380	0	73.3	4	24.3	4	-1E+10	1	-1E+10	1	-1E+10	1	-1E+10	1	-1E+10	1	-1E+10	1
4902663	28	C	05/07/2024	18:11	-127.368	48.103	0	278.80	0	6.1510	0	33.9490	0	26.706	0	276.271	0	73.1	4	24.2	4	-1E+10	1	-1E+10	1	-1E+10	1	-1E+10	1	-1E+10	1	-1E+10	1
4902663	28	C	05/07/2024	18:11	-127.368	48.103	0	279.70	0	6.1430	0	33.9500	0	26.708	0	277.163	0	73.0	4	24.2	4	-1E+10	1	-1E+10	1	-1E+10	1	-1E+10	1	-1E+10	1	-1E+10	1
4902663	28	C	05/07/2024	18:11	-127.368	48.103	0	280.90	0	6.1340	0	33.9500	0	26.709	0	278.351	0	72.7	4	24.1	4	-1E+10	1	-1E+10	1	-1E+10	1	-1E+10	1	-1E+10	1	-1E+10	1
4902663	28	C	05/07/2024	18:11	-127.368	48.103	0	282.30	0	6.1310	0	33.9490	0	26.709	0	279.737	0	72.4	4	24.0	4	-1E+10	1	-1E+10	1	-1E+10	1	-1E+10	1	-1E+10	1	-1E+10	1
4902663	28	C	05/07/2024	18:11	-127.368	48.103	0	283.10	0	6.1310	0	33.9490	0	26.709	0	280.529	0	72.2	4	23.9	4	-1E+10	1	-1E+10	1	-1E+10	1	-1E+10	1	-1E+10	1	-1E+10	1
4902663	28	C	05/07/2024	18:11	-127.368	48.103	0	284.00	0	6.1210	0	33.9490	0	26.710	0	281.421	0	72.0	4	23.9	4	-1E+10	1	-1E+10	1	-1E+10	1	-1E+10	1	-1E+10	1	-1E+10	1
4902663	28	C	05/07/2024	18:11	-127.368	48.103	0	284.90	0	6.1050	0	33.9510	0	26.714	0	282.312	0	71.8	4	23.8	4	-1E+10	1	-1E+10	1	-1E+10	1	-1E+10	1	-1E+10	1	-1E+10	1
4902663	28	C	05/07/2024	18:11	-127.368	48.103	0	285.80	0	6.0930	0	33.9500	0	26.714	0	283.203	0	71.6	4	23.7	4	-1E+10	1	-1E+10	1	-1E+10	1	-1E+10	1	-1E+10	1	-1E+10	1
4902663	28	C	05/07/2024	18:11	-127.368	48.103	0	286.70	0	6.0930	0	33.9510	0	26.715	0	284.094	0	71.4	4	23.6	4	-1E+10	1	-1E+10	1	-1E+10	1	-1E+10	1	-1E+10	1	-1E+10	1
4902663	28	C	05/07/2024	18:11	-127.368	48.103	0	288.00	0	6.0870	0	33.9510	0	26.716	0	285.382	0	71.1	4	23.5	4	-1E+10	1	-1E+10	1	-1E+10	1	-1E+10	1	-1E+10	1	-1E+10	1
4902663	28	C	05/07/2024	18:11	-127.368	48.103	0	289.30	0	6.0640	0	33.9540	0	26.721	0	286.669	0	70.6	4	23.4	4	-1E+10	1	-1E+10	1	-1E+10	1	-1E+10	1	-1E+10	1	-1E+10	1
4902663	28	C	05/07/2024	18:11	-127.368	48.103	0	290.20	0	6.0530	0	33.9520	0	26.721	0	287.560	0	70.3	4	23.3	4	-1E+10	1	-1E+10	1	-1E+10	1	-1E+10	1	-1E+10	1	-1E+10	1
4902663	28	C	05/07/2024	18:11	-127.368	48.103	0	291.10	0	6.0440	0	33.9530	0	26.723	0	288.451	0	70.1	4	23.2	4	-1E+10	1	-1E+10	1	-1E+10	1	-1E+10	1	-1E+10	1	-1E+10	1
4902663	28	C	05/07/2024	18:11	-127.368	48.103	0	292.00	0	6.0310	0	33.9560	0	26.727	0	289.342	0	69.8	4	23.1	4	-1E+10	1	-1E+10	1	-1E+10	1	-1E+10	1	-1E+10	1	-1E+10	1
4902663	28	C	05/07/2024	18:11	-127.368	48.103	0	292.90	0	6.0210	0	33.9550	0	26.728	0	290.234	0	69.6	4	23.0	4	-1E+10	1	-1E+10	1	-1E+10	1	-1E+10	1	-1E+10	1	-1E+10	1
4902663	28	C	05/07/2024	18:11	-127.368	48.103	0	293.80	0	6.0180	0	33.9550	0	26.728	0	291.125	0	69.4	4	22.9	4	-1E+10	1	-1E+10	1	-1E+10	1	-1E+10	1	-1E+10	1	-1E+10	1
4902663	28	C	05/07/2024	18:11	-127.368	48.103	0	294.70	0	6.0130	0	33.9560	0	26.729	0	292.016	0	69.2	4	22.9	4	-1E+10	1	-1E+10	1	-1E+10	1	-1E+10	1	-1E+10	1	-1E+10	1
4902663	28	C	05/07/2024	18:11	-127.368	48.103	0	295.90	0	6.0120	0	33.9560	0	26.730	0	293.204	0	68.8	4	22.7	4	-1E+10	1	-1E+10	1	-1E+10	1	-1E+10	1	-1E+10	1	-1E+10	1
4902663	28	C	05/07/2024	18:11	-127.368	48.103	0	297.30	0	6.0030	0	33.9570	0	26.731	0	294.590	0	68.4	4	22.6	4	-1E+10	1	-1E+10	1	-1E+10	1	-1E+10	1	-1E+10	1	-1E+10	1
4902663	28	C	05/07/2024	18:11	-127.368	48.103	0	298.20	0	5.9970	0	33.9580	0	26.733	0	295.482	0	68.2	4	22.5	4	-1E+10	1	-1E+10	1	-1E+10	1	-1E+10	1	-1E+10	1	-1E+10	1
4902663	28	C	05/07/2024	18:11	-127.368	48.103	0	299.10	0	5.9960	0	33.9580	0	26.733	0	296.373	0	67.9	4	22.4	4	-1E+10	1	-1E+10	1	-1E+10	1	-1E+10	1	-1E+10	1	-1E+10	1
4902663	28	C	05/07/2024	18:11	-127.368	48.103	0	300.00	0	5.9840	0	33.9610	0	26.737	0	297.264	0	67.7	4	22.4	4	-1E+10	1	-1E+10	1	-1E+10	1	-1E+10	1	-1E+10	1	-1E+10	1
4902663	28	C	05/07/2024	18:11	-127.368	48.103	0	300.90	0	5.9760	0	33.9600	0	26.737	0	298.155	0	67.5	4	22.3	4	-1E+10	1	-1E+10	1	-1E+10	1	-1E+10	1	-1E+10	1	-1E+10	1
4902663	28	C	05/07/2024	18:11	-127.368	48.103	0	301.80	0	5.9700	0	33.9600	0	26.738	0	299.046	0	67.2	4	22.2	4	-1E+10	1	-1E+10	1	-1E+10	1	-1E+10	1	-1E+10	1	-1E+10	1
4902663	28	C	05/07/2024	18:11	-127.368	48.103	0	302.70	0	5.9680	0	33.9610	0	26.739	0	299.937	0	67.0	4	22.1	4	-1E+10	1	-1E+10	1	-1E+10	1	-1E+10	1	-1E+10	1	-1E+10	1
4902663	28	C	05/07/2024	18:11	-127.368	48.103	0	303.60	0	5.9620	0	33.9620	0	26.741	0	300.828	0	66.8	4	22.1	4	-1E+10	1	-1E+10	1	-1E+10	1	-1E+10	1	-1E+10	1	-1E+10	1
4902663	28	C	05/07/2024	18:11	-127.368	48.103	0	304.90	0	5.9500	0	33.9620	0	26.742	0	302.116	0	66.5	4	22.0	4	-1E+10	1	-1E+10	1	-1E+10	1	-1E+10	1	-1E+10	1	-1E+10	1
4902663	28	C	05/07/2024	18:11	-127.368	48.103	0	306.30	0	5.9430	0	33.9620	0	26.743	0	303.502	0	66.2	4	21.8	4	-1E+10	1	-1E+10	1	-1E+10	1	-1E+10	1	-1E+10	1	-1E+10	1
4902663	28	C	05/07/2024	18:11	-127.368	48.103	0	307.20	0	5.9280	0	33.9640	0	26.746	0	304.393	0	65.9	4	21.8	4	-1E+10	1	-1E+10	1	-1E+10	1	-1E+10	1	-1E+10	1	-1E+10	1
4902663	28	C	05/07/2024	18:11	-127.368	48.103	0	308.10	0	5.8970	0	33.9650	0	26.751	0	305.284	0	65.7	4	21.7	4	-1E+10	1	-1E+10	1	-1E+10	1	-1E+10	1	-1E+10	1	-1E+10	1
4902663	28	C	05/07/2024	18:11	-127.368	48.103	0	309.00	0	5.8930	0	33.9630	0	26.750	0	306.175	0	65.5	4	21.6	4	-1E+10	1	-1E+10	1	-1E+10	1	-1E+10	1	-1E+10	1	-1E+10	1
4902663	28	C	05/07/2024	18:11	-127.368	48.103	0	310.00	0	5.8870	0	33.9640	0	26.752	0	307.165	0	65.2	4	21.5	4	-1E+10	1	-1E+10	1	-1E+10	1	-1E+10	1	-1E+10	1	-1E+10	1
4902663	28	C	05/07/2024	18:11	-127.368	48.103	0	310.90	0	5.8780	0	33.9650	0	26.753	0	308.056	0	64.9	4	21.4	4	-1E+10	1	-1E+10	1	-1E+10	1	-1E+10	1	-1E+10	1	-1E+10	1
4902663	28	C	05/07/2024	18:11	-127.368	48.103	0	311.80	0	5.8740	0	33.9650	0	26.754	0	308.947	0	64.6	4	21.3	4	-1E+10	1	-1E+10	1	-1E+10	1	-1E+10	1	-1E+10	1	-1E+10	1
4902663	28	C	05/07/2024	18:11	-127.368	48.103	0	312.70	0	5.8660	0	33.9660	0	26.756	0	309.839	0	64.3	4	21.2	4	-1E+10	1	-1E+10	1	-1E+10	1	-1E+10	1	-1E+10	1	-1E+10	1
4902663	28	C	05/07/2024	18:11	-127.368	48.103	0	313.60	0	5.8560	0	33.9670	0	26.758	0	310.730	0	64.0	4	21.1	4	-1E+10	1	-1E+10	1	-1E+10	1	-1E+10	1	-1E+10	1	-1E+10	1
4902663	28	C	05/07/2024	18:11	-127.368	48.103	0	314.90	0	5.8490	0	33.9660	0	26.758	0	312.017	0	63.6	4	20.9	4	-1E+10	1	-1E+10	1	-1E+10	1	-1E+10	1	-1E+10	1	-1E+10	1
4902663	28	C	05/07/2024	18:11	-127.368	48.103	0	316.30	0	5.8530	0	33.9690	0	26.760	0	313.403	0	63.1	4	20.8	4	-1E+10	1	-1E+10	1	-1E+10	1	-1E+10	1	-1E+10	1	-1E+10	1
4902663	28	C	05/07/2024	18:11	-127.368	48.103	0	317.30	0	5.8310	0	33.9680	0	26.762	0	314.393	0	62.8	4	20.7	4	-1E+10	1	-1E+10	1	-1E+10	1	-1E+10	1	-1E+10	1	-1E+10	1
4902663	28	C	05/07/2024	18:11	-127.368	48.103	0	318.20	0	5.8240	0	33.9700	0	26.764	0	315.284	0	62.4	4	20.5	4	-1E+10	1	-1E+10	1	-1E+10	1	-1E+10	1	-1E+10	1	-1E+10	1
4902663	28	C	05/07/2024	18:11	-127.368	48.103	0	319.10	0	5.8160	0	33.9700	0	26.765	0	316.175	0	62.1	4	20.4	4	-1E+10	1	-1E+10	1	-1E+10	1	-1E+10	1	-1E+10	1	-1E+10	1
4902663	28	C	05/07/2024	18:11	-127.368	48.103	0	320.00	0	5.8150	0	33.9710	0	26.766	0	317.066	0	61.8	4	20.3	4	-1E+10	1	-1E+10	1	-1E+10	1	-1E+10	1	-1E+10	1	-1E+10	1
4902663	28	C	05/07/2024	18:11	-127.368	48.103	0	320.90	0	5.8110	0	33.9720	0	26.767	0	317.957	0	61.5	4	20.2	4	-1E+10	1	-1E+10	1	-1E+10	1	-1E+10	1	-1E+10	1	-1E+10	1
4902663	28	C	05/07/2024	18:11	-127.368	48.103	0	321.80	0	5.8070	0	33.9740	0	26.769	0	318.848	0	61.1	4	20.1	4	-1E+10	1	-1E+10	1	-1E+10	1	-1E+10	1	-1E+10	1	-1E+10	1
4902663	28	C	05/07/2024	18:11	-127.368	48.103	0	322.70	0	5.7990	0	33.9740	0	26.770	0	319.739	0	60.8	4	20.0	4	-1E+10	1	-1E+10	1	-1E+10	1	-1E+10	1	-1E+10	1	-1E+10	1
4902663	28	C	05/07/2024	18:11	-127.368	48.103	0	323.70	0	5.7950	0	33.9750	0	26.772	0	320.729	0	60.5	4	19.9	4	-1E+10	1	-1E+10	1	-1E+10	1	-1E+10	1	-1E+10	1	-1E+10	1
4902663	28	C	05/07/2024	18:11	-127.368	48.103	0	324.60	0	5.7920	0	33.9750	0	26.772	0	321.620	0	60.1	4	19.8	4	-1E+10	1	-1E+10	1	-1E+10	1	-1E+10	1	-1E+10	1	-1E+10	1
4902663	28	C	05/07/2024	18:11	-127.368	48.103	0	325.50	0	5.7890	0	33.9760	0	26.773	0	322.511	0	59.7	4	19.6	4	-1E+10	1	-1E+10	1	-1E+10	1	-1E+10	1	-1E+10	1	-1E+10	1
4902663	28	C	05/07/2024	18:11	-127.368	48.103	0	326.90	0	5.7850	0	33.9760	0	26.774	0	323.898	0	59.0	4	19.4	4	-1E+10	1	-1E+10	1	-1E+10	1	-1E+10	1	-1E+10	1	-1E+10	1
4902663	28	C	05/07/2024	18:11	-127.368	48.103	0	328.30	0	5.7710	0	33.9800	0	26.779	0	325.284	0	58.3	4	19.2	4	-1E+10	1	-1E+10	1	-1E+10	1	-1E+10	1	-1E+10	1	-1E+10	1
4902663	28	C	05/07/2024	18:11	-127.368	48.103	0	329.30	0	5.7580	0	33.9810	0	26.781	0	326.274	0	57.9	4	19.0	4	-1E+10	1	-1E+10	1	-1E+10	1	-1E+10	1	-1E+10	1	-1E+10	1
4902663	28	C	05/07/2024	18:11	-127.368	48.103	0	330.20	0	5.7610	0	33.9870	0	26.785	0	327.165	0	57.7	4	19.0	4	-1E+10	1	-1E+10	1	-1E+10	1	-1E+10	1	-1E+10	1	-1E+10	1
4902663	28	C	05/07/2024	18:11	-127.368	48.103	0	331.10	0	5.7510	0	33.9880	0	26.787	0	328.056	0	57.4	4	18.9	4	-1E+10	1	-1E+10	1	-1E+10	1	-1E+10	1	-1E+10	1	-1E+10	1
4902663	28	C	05/07/2024	18:11	-127.368	48.103	0	332.10	0	5.7480	0	33.9860	0	26.786	0	329.046	0	57.2	4	18.8	4	-1E+10	1	-1E+10	1	-1E+10	1	-1E+10	1	-1E+10	1	-1E+10	1
4902663	28	C	05/07/2024	18:11	-127.368	48.103	0	333.00	0	5.7360	0	33.9870	0	26.789	0	329.937	0	57.0	4	18.7	4	-1E+10	1	-1E+10	1	-1E+10	1	-1E+10	1	-1E+10	1	-1E+10	1
4902663	28	C	05/07/2024	18:11	-127.368	48.103	0	333.90	0	5.7370	0	33.9880	0	26.789	0	330.828	0	56.7	4	18.6	4	-1E+10	1	-1E+10	1	-1E+10	1	-1E+10	1	-1E+10	1	-1E+10	1
4902663	28	C	05/07/2024	18:11	-127.368	48.103	0	334.90	0	5.7310	0	33.9890	0	26.791	0	331.818	0	56.6	4	18.6	4	-1E+10	1	-1E+10	1	-1E+10	1	-1E+10	1	-1E+10	1	-1E+10	1
4902663	28	C	05/07/2024	18:11	-127.368	48.103	0	335.80	0	5.7150	0	33.9890	0	26.793	0	332.709	0	56.4	4	18.5	4	-1E+10	1	-1E+10	1	-1E+10	1	-1E+10	1	-1E+10	1	-1E+10	1
4902663	28	C	05/07/2024	18:11	-127.368	48.103	0	336.80	0	5.6910	0	33.9890	0	26.796	0	333.699	0	56.3	4	18.5	4	-1E+10	1	-1E+10	1	-1E+10	1	-1E+10	1	-1E+10	1	-1E+10	1
4902663	28	C	05/07/2024	18:11	-127.368	48.103	0	337.70	0	5.6850	0	33.9890	0	26.796	0	334.590	0	56.1	4	18.4	4	-1E+10	1	-1E+10	1	-1E+10	1	-1E+10	1	-1E+10	1	-1E+10	1
4902663	28	C	05/07/2024	18:11	-127.368	48.103	0	338.60	0	5.6820	0	33.9890	0	26.797	0	335.481	0	56.0	4	18.4	4	-1E+10	1	-1E+10	1	-1E+10	1	-1E+10	1	-1E+10	1	-1E+10	1
4902663	28	C	05/07/2024	18:11	-127.368	48.103	0	339.60	0	5.6740	0	33.9900	0	26.799	0	336.471	0	55.9	4	18.3	4	-1E+10	1	-1E+10	1	-1E+10	1	-1E+10	1	-1E+10	1	-1E+10	1
4902663	28	C	05/07/2024	18:11	-127.368	48.103	0	340.60	0	5.6690	0	33.9890	0	26.798	0	337.461	0	55.7	4	18.3	4	-1E+10	1	-1E+10	1	-1E+10	1	-1E+10	1	-1E+10	1	-1E+10	1
4902663	28	C	05/07/2024	18:11	-127.368	48.103	0	341.50	0	5.6650	0	33.9900	0	26.800	0	338.352	0	55.6	4	18.2	4	-1E+10	1	-1E+10	1	-1E+10	1	-1E+10	1	-1E+10	1	-1E+10	1
4902663	28	C	05/07/2024	18:11	-127.368	48.103	0	342.90	0	5.6530	0	33.9890	0	26.800	0	339.737	0	55.3	4	18.1	4	-1E+10	1	-1E+10	1	-1E+10	1	-1E+10	1	-1E+10	1	-1E+10	1
4902663	28	C	05/07/2024	18:11	-127.368	48.103	0	344.40	0	5.6300	0	33.9900	0	26.804	0	341.222	0	55.0	4	18.0	4	-1E+10	1	-1E+10	1	-1E+10	1	-1E+10	1	-1E+10	1	-1E+10	1
4902663	28	C	05/07/2024	18:11	-127.368	48.103	0	345.40	0	5.6250	0	33.9900	0	26.805	0	342.212	0	54.8	4	18.0	4	-1E+10	1	-1E+10	1	-1E+10	1	-1E+10	1	-1E+10	1	-1E+10	1
4902663	28	C	05/07/2024	18:11	-127.368	48.103	0	346.40	0	5.6100	0	33.9900	0	26.806	0	343.202	0	54.6	4	17.9	4	-1E+10	1	-1E+10	1	-1E+10	1	-1E+10	1	-1E+10	1	-1E+10	1
4902663	28	C	05/07/2024	18:11	-127.368	48.103	0	347.40	0	5.5980	0	33.9920	0	26.809	0	344.192	0	54.5	4	17.8	4	-1E+10	1	-1E+10	1	-1E+10	1	-1E+10	1	-1E+10	1	-1E+10	1
4902663	28	C	05/07/2024	18:11	-127.368	48.103	0	348.40	0	5.5930	0	33.9910	0	26.809	0	345.182	0	54.3	4	17.8	4	-1E+10	1	-1E+10	1	-1E+10	1	-1E+10	1	-1E+10	1	-1E+10	1
4902663	28	C	05/07/2024	18:11	-127.368	48.103	0	349.40	0	5.5620	0	33.9940	0	26.815	0	346.172	0	54.1	4	17.7	4	-1E+10	1	-1E+10	1	-1E+10	1	-1E+10	1	-1E+10	1	-1E+10	1
4902663	28	C	05/07/2024	18:11	-127.368	48.103	0	350.40	0	5.5540	0	33.9880	0	26.812	0	347.162	0	53.9	4	17.6	4	-1E+10	1	-1E+10	1	-1E+10	1	-1E+10	1	-1E+10	1	-1E+10	1
4902663	28	C	05/07/2024	18:11	-127.368	48.103	0	353.30	0	5.5290	0	33.9900	0	26.816	0	350.033	0	53.0	4	17.3	4	-1E+10	1	-1E+10	1	-1E+10	1	-1E+10	1	-1E+10	1	-1E+10	1
4902663	28	C	05/07/2024	18:11	-127.368	48.103	0	358.00	0	5.4830	0	33.9930	0	26.824	0	354.685	0	51.9	4	16.9	4	-1E+10	1	-1E+10	1	-1E+10	1	-1E+10	1	-1E+10	1	-1E+10	1
4902663	28	C	05/07/2024	18:11	-127.368	48.103	0	362.70	0	5.4510	0	33.9950	0	26.829	0	359.338	0	50.5	4	16.5	4	-1E+10	1	-1E+10	1	-1E+10	1	-1E+10	1	-1E+10	1	-1E+10	1
4902663	28	C	05/07/2024	18:11	-127.368	48.103	0	367.90	0	5.4620	0	34.0040	0	26.835	0	364.485	0	48.9	4	16.0	4	-1E+10	1	-1E+10	1	-1E+10	1	-1E+10	1	-1E+10	1	-1E+10	1
4902663	28	C	05/07/2024	18:11	-127.368	48.103	0	373.20	0	5.4740	0	34.0120	0	26.840	0	369.731	0	48.0	4	15.7	4	-1E+10	1	-1E+10	1	-1E+10	1	-1E+10	1	-1E+10	1	-1E+10	1
4902663	28	C	05/07/2024	18:11	-127.368	48.103	0	378.00	0	5.4580	0	34.0150	0	26.845	0	374.482	0	47.5	4	15.5	4	-1E+10	1	-1E+10	1	-1E+10	1	-1E+10	1	-1E+10	1	-1E+10	1
4902663	28	C	05/07/2024	18:11	-127.368	48.103	0	382.90	0	5.4340	0	34.0170	0	26.849	0	379.332	0	47.4	4	15.5	4	-1E+10	1	-1E+10	1	-1E+10	1	-1E+10	1	-1E+10	1	-1E+10	1
4902663	28	C	05/07/2024	18:11	-127.368	48.103	0	387.80	0	5.3510	0	34.0130	0	26.856	0	384.182	0	48.0	4	15.6	4	-1E+10	1	-1E+10	1	-1E+10	1	-1E+10	1	-1E+10	1	-1E+10	1
4902663	28	C	05/07/2024	18:11	-127.368	48.103	0	392.70	0	5.2460	0	34.0040	0	26.861	0	389.031	0	47.8	4	15.5	4	-1E+10	1	-1E+10	1	-1E+10	1	-1E+10	1	-1E+10	1	-1E+10	1
4902663	28	C	05/07/2024	18:11	-127.368	48.103	0	398.20	0	5.2090	0	34.0030	0	26.865	0	394.475	0	47.2	4	15.3	4	-1E+10	1	-1E+10	1	-1E+10	1	-1E+10	1	-1E+10	1	-1E+10	1
4902663	28	C	05/07/2024	18:11	-127.368	48.103	0	403.10	0	5.1990	0	34.0030	0	26.866	0	399.324	0	46.6	4	15.1	4	-1E+10	1	-1E+10	1	-1E+10	1	-1E+10	1	-1E+10	1	-1E+10	1
4902663	28	C	05/07/2024	18:11	-127.368	48.103	0	408.10	0	5.1920	0	34.0040	0	26.867	0	404.273	0	45.5	4	14.8	4	-1E+10	1	-1E+10	1	-1E+10	1	-1E+10	1	-1E+10	1	-1E+10	1
4902663	28	C	05/07/2024	18:11	-127.368	48.103	0	412.90	0	5.1970	0	34.0100	0	26.872	0	409.023	0	44.1	4	14.3	4	-1E+10	1	-1E+10	1	-1E+10	1	-1E+10	1	-1E+10	1	-1E+10	1
4902663	28	C	05/07/2024	18:11	-127.368	48.103	0	417.80	0	5.1740	0	34.0160	0	26.879	0	413.872	0	42.9	4	13.9	4	-1E+10	1	-1E+10	1	-1E+10	1	-1E+10	1	-1E+10	1	-1E+10	1
4902663	28	C	05/07/2024	18:11	-127.368	48.103	0	423.20	0	5.1400	0	34.0210	0	26.887	0	419.216	0	41.7	4	13.5	4	-1E+10	1	-1E+10	1	-1E+10	1	-1E+10	1	-1E+10	1	-1E+10	1
4902663	28	C	05/07/2024	18:11	-127.368	48.103	0	428.10	0	5.1160	0	34.0240	0	26.892	0	424.065	0	40.6	4	13.1	4	-1E+10	1	-1E+10	1	-1E+10	1	-1E+10	1	-1E+10	1	-1E+10	1
4902663	28	C	05/07/2024	18:11	-127.368	48.103	0	433.10	0	5.1270	0	34.0320	0	26.897	0	429.012	0	39.3	4	12.7	4	-1E+10	1	-1E+10	1	-1E+10	1	-1E+10	1	-1E+10	1	-1E+10	1
4902663	28	C	05/07/2024	18:11	-127.368	48.103	0	437.90	0	5.1230	0	34.0370	0	26.902	0	433.762	0	38.3	4	12.4	4	-1E+10	1	-1E+10	1	-1E+10	1	-1E+10	1	-1E+10	1	-1E+10	1
4902663	28	C	05/07/2024	18:11	-127.368	48.103	0	442.80	0	5.1290	0	34.0440	0	26.907	0	438.610	0	37.2	4	12.0	4	-1E+10	1	-1E+10	1	-1E+10	1	-1E+10	1	-1E+10	1	-1E+10	1
4902663	28	C	05/07/2024	18:11	-127.368	48.103	0	448.10	0	5.1270	0	34.0500	0	26.912	0	443.855	0	35.8	4	11.6	4	-1E+10	1	-1E+10	1	-1E+10	1	-1E+10	1	-1E+10	1	-1E+10	1
4902663	28	C	05/07/2024	18:11	-127.368	48.103	0	453.30	0	5.1420	0	34.0580	0	26.916	0	449.000	0	34.7	4	11.3	4	-1E+10	1	-1E+10	1	-1E+10	1	-1E+10	1	-1E+10	1	-1E+10	1
4902663	28	C	05/07/2024	18:11	-127.368	48.103	0	457.90	0	5.1330	0	34.0640	0	26.922	0	453.551	0	34.2	4	11.1	4	-1E+10	1	-1E+10	1	-1E+10	1	-1E+10	1	-1E+10	1	-1E+10	1
4902663	28	C	05/07/2024	18:11	-127.368	48.103	0	462.60	0	5.0750	0	34.0620	0	26.927	0	458.201	0	33.3	4	10.8	4	-1E+10	1	-1E+10	1	-1E+10	1	-1E+10	1	-1E+10	1	-1E+10	1
4902663	28	C	05/07/2024	18:11	-127.368	48.103	0	467.70	0	5.0510	0	34.0660	0	26.933	0	463.247	0	31.7	4	10.3	4	-1E+10	1	-1E+10	1	-1E+10	1	-1E+10	1	-1E+10	1	-1E+10	1
4902663	28	C	05/07/2024	18:11	-127.368	48.103	0	472.90	0	5.0680	0	34.0760	0	26.939	0	468.392	0	30.1	4	9.7	4	-1E+10	1	-1E+10	1	-1E+10	1	-1E+10	1	-1E+10	1	-1E+10	1
4902663	28	C	05/07/2024	18:11	-127.368	48.103	0	478.00	0	5.0640	0	34.0860	0	26.948	0	473.437	0	29.2	4	9.4	4	-1E+10	1	-1E+10	1	-1E+10	1	-1E+10	1	-1E+10	1	-1E+10	1
4902663	28	C	05/07/2024	18:11	-127.368	48.103	0	483.10	0	5.0390	0	34.0900	0	26.954	0	478.483	0	28.4	4	9.2	4	-1E+10	1	-1E+10	1	-1E+10	1	-1E+10	1	-1E+10	1	-1E+10	1
4902663	28	C	05/07/2024	18:11	-127.368	48.103	0	488.10	0	4.9640	0	34.0890	0	26.962	0	483.429	0	27.1	4	8.8	4	-1E+10	1	-1E+10	1	-1E+10	1	-1E+10	1	-1E+10	1	-1E+10	1
4902663	28	C	05/07/2024	18:11	-127.368	48.103	0	493.10	0	4.9600	0	34.0960	0	26.968	0	488.375	0	24.9	4	8.0	4	-1E+10	1	-1E+10	1	-1E+10	1	-1E+10	1	-1E+10	1	-1E+10	1
4902663	28	C	05/07/2024	18:11	-127.368	48.103	0	497.90	0	5.0280	0	34.1160	0	26.976	0	493.124	0	23.6	4	7.6	4	-1E+10	1	-1E+10	1	-1E+10	1	-1E+10	1	-1E+10	1	-1E+10	1
4902663	28	C	05/07/2024	18:11	-127.368	48.103	0	502.90	0	5.0180	0	34.1220	0	26.982	0	498.070	0	22.5	4	7.3	4	-1E+10	1	-1E+10	1	-1E+10	1	-1E+10	1	-1E+10	1	-1E+10	1
4902663	28	C	05/07/2024	18:11	-127.368	48.103	0	507.80	0	4.9840	0	34.1280	0	26.990	0	502.917	0	21.3	4	6.9	4	-1E+10	1	-1E+10	1	-1E+10	1	-1E+10	1	-1E+10	1	-1E+10	1
4902663	28	C	05/07/2024	18:11	-127.368	48.103	0	512.70	0	4.9440	0	34.1360	0	27.001	0	507.764	0	20.4	4	6.6	4	-1E+10	1	-1E+10	1	-1E+10	1	-1E+10	1	-1E+10	1	-1E+10	1
4902663	28	C	05/07/2024	18:11	-127.368	48.103	0	517.80	0	4.9070	0	34.1430	0	27.011	0	512.808	0	19.8	4	6.4	4	-1E+10	1	-1E+10	1	-1E+10	1	-1E+10	1	-1E+10	1	-1E+10	1
4902663	28	C	05/07/2024	18:11	-127.368	48.103	0	523.10	0	4.8830	0	34.1450	0	27.015	0	518.051	0	19.3	4	6.2	4	-1E+10	1	-1E+10	1	-1E+10	1	-1E+10	1	-1E+10	1	-1E+10	1
4902663	28	C	05/07/2024	18:11	-127.368	48.103	0	528.00	0	4.8650	0	34.1460	0	27.018	0	522.897	0	18.9	4	6.1	4	-1E+10	1	-1E+10	1	-1E+10	1	-1E+10	1	-1E+10	1	-1E+10	1
4902663	28	C	05/07/2024	18:11	-127.368	48.103	0	533.00	0	4.8350	0	34.1480	0	27.023	0	527.843	0	18.4	4	5.9	4	-1E+10	1	-1E+10	1	-1E+10	1	-1E+10	1	-1E+10	1	-1E+10	1
4902663	28	C	05/07/2024	18:11	-127.368	48.103	0	538.00	0	4.7970	0	34.1520	0	27.031	0	532.788	0	17.7	4	5.7	4	-1E+10	1	-1E+10	1	-1E+10	1	-1E+10	1	-1E+10	1	-1E+10	1
4902663	28	C	05/07/2024	18:11	-127.368	48.103	0	543.10	0	4.7740	0	34.1570	0	27.037	0	537.832	0	17.2	4	5.5	4	-1E+10	1	-1E+10	1	-1E+10	1	-1E+10	1	-1E+10	1	-1E+10	1
4902663	28	C	05/07/2024	18:11	-127.368	48.103	0	548.20	0	4.7600	0	34.1610	0	27.042	0	542.876	0	16.7	4	5.4	4	-1E+10	1	-1E+10	1	-1E+10	1	-1E+10	1	-1E+10	1	-1E+10	1
4902663	28	C	05/07/2024	18:11	-127.368	48.103	0	552.70	0	4.7500	0	34.1640	0	27.046	0	547.326	0	16.4	4	5.3	4	-1E+10	1	-1E+10	1	-1E+10	1	-1E+10	1	-1E+10	1	-1E+10	1
4902663	28	C	05/07/2024	18:11	-127.368	48.103	0	557.80	0	4.7420	0	34.1670	0	27.049	0	552.370	0	16.1	4	5.2	4	-1E+10	1	-1E+10	1	-1E+10	1	-1E+10	1	-1E+10	1	-1E+10	1
4902663	28	C	05/07/2024	18:11	-127.368	48.103	0	563.10	0	4.7280	0	34.1700	0	27.053	0	557.611	0	15.7	4	5.1	4	-1E+10	1	-1E+10	1	-1E+10	1	-1E+10	1	-1E+10	1	-1E+10	1
4902663	28	C	05/07/2024	18:11	-127.368	48.103	0	567.90	0	4.7040	0	34.1710	0	27.056	0	562.358	0	15.5	4	5.0	4	-1E+10	1	-1E+10	1	-1E+10	1	-1E+10	1	-1E+10	1	-1E+10	1
4902663	28	C	05/07/2024	18:11	-127.368	48.103	0	572.60	0	4.6820	0	34.1730	0	27.060	0	567.005	0	15.3	4	4.9	4	-1E+10	1	-1E+10	1	-1E+10	1	-1E+10	1	-1E+10	1	-1E+10	1
4902663	28	C	05/07/2024	18:11	-127.368	48.103	0	577.80	0	4.6550	0	34.1740	0	27.064	0	572.147	0	15.1	4	4.9	4	-1E+10	1	-1E+10	1	-1E+10	1	-1E+10	1	-1E+10	1	-1E+10	1
4902663	28	C	05/07/2024	18:11	-127.368	48.103	0	583.10	0	4.6360	0	34.1720	0	27.065	0	577.388	0	14.9	4	4.8	4	-1E+10	1	-1E+10	1	-1E+10	1	-1E+10	1	-1E+10	1	-1E+10	1
4902663	28	C	05/07/2024	18:11	-127.368	48.103	0	587.90	0	4.6150	0	34.1730	0	27.068	0	582.135	0	14.6	4	4.7	4	-1E+10	1	-1E+10	1	-1E+10	1	-1E+10	1	-1E+10	1	-1E+10	1
4902663	28	C	05/07/2024	18:11	-127.368	48.103	0	592.70	0	4.5960	0	34.1750	0	27.072	0	586.881	0	14.3	4	4.6	4	-1E+10	1	-1E+10	1	-1E+10	1	-1E+10	1	-1E+10	1	-1E+10	1
4902663	28	C	05/07/2024	18:11	-127.368	48.103	0	597.90	0	4.5870	0	34.1790	0	27.076	0	592.022	0	13.8	4	4.4	4	-1E+10	1	-1E+10	1	-1E+10	1	-1E+10	1	-1E+10	1	-1E+10	1
4902663	28	C	05/07/2024	18:11	-127.368	48.103	0	603.20	0	4.5590	0	34.1840	0	27.083	0	597.263	0	13.4	4	4.3	4	-1E+10	1	-1E+10	1	-1E+10	1	-1E+10	1	-1E+10	1	-1E+10	1
4902663	28	C	05/07/2024	18:11	-127.368	48.103	0	608.10	0	4.5170	0	34.1860	0	27.089	0	602.107	0	13.1	4	4.2	4	-1E+10	1	-1E+10	1	-1E+10	1	-1E+10	1	-1E+10	1	-1E+10	1
4902663	28	C	05/07/2024	18:11	-127.368	48.103	0	613.00	0	4.4900	0	34.1880	0	27.094	0	606.952	0	12.8	4	4.1	4	-1E+10	1	-1E+10	1	-1E+10	1	-1E+10	1	-1E+10	1	-1E+10	1
4902663	28	C	05/07/2024	18:11	-127.368	48.103	0	617.90	0	4.4860	0	34.1920	0	27.097	0	611.796	0	12.5	4	4.0	4	-1E+10	1	-1E+10	1	-1E+10	1	-1E+10	1	-1E+10	1	-1E+10	1
4902663	28	C	05/07/2024	18:11	-127.368	48.103	0	622.80	0	4.4770	0	34.1980	0	27.103	0	616.641	0	12.3	4	3.9	4	-1E+10	1	-1E+10	1	-1E+10	1	-1E+10	1	-1E+10	1	-1E+10	1
4902663	28	C	05/07/2024	18:11	-127.368	48.103	0	627.70	0	4.4350	0	34.1980	0	27.108	0	621.485	0	12.2	4	3.9	4	-1E+10	1	-1E+10	1	-1E+10	1	-1E+10	1	-1E+10	1	-1E+10	1
4902663	28	C	05/07/2024	18:11	-127.368	48.103	0	632.70	0	4.3960	0	34.1970	0	27.111	0	626.428	0	12.0	4	3.8	4	-1E+10	1	-1E+10	1	-1E+10	1	-1E+10	1	-1E+10	1	-1E+10	1
4902663	28	C	05/07/2024	18:11	-127.368	48.103	0	637.70	0	4.3950	0	34.2000	0	27.113	0	631.371	0	11.8	4	3.8	4	-1E+10	1	-1E+10	1	-1E+10	1	-1E+10	1	-1E+10	1	-1E+10	1
4902663	28	C	05/07/2024	18:11	-127.368	48.103	0	642.70	0	4.3800	0	34.2010	0	27.116	0	636.313	0	11.6	4	3.7	4	-1E+10	1	-1E+10	1	-1E+10	1	-1E+10	1	-1E+10	1	-1E+10	1
4902663	28	C	05/07/2024	18:11	-127.368	48.103	0	647.70	0	4.3630	0	34.2050	0	27.121	0	641.256	0	11.5	4	3.6	4	-1E+10	1	-1E+10	1	-1E+10	1	-1E+10	1	-1E+10	1	-1E+10	1
4902663	28	C	05/07/2024	18:11	-127.368	48.103	0	652.70	0	4.3210	0	34.2060	0	27.126	0	646.199	0	11.4	4	3.6	4	-1E+10	1	-1E+10	1	-1E+10	1	-1E+10	1	-1E+10	1	-1E+10	1
4902663	28	C	05/07/2024	18:11	-127.368	48.103	0	657.90	0	4.3010	0	34.2070	0	27.129	0	651.339	0	11.2	4	3.6	4	-1E+10	1	-1E+10	1	-1E+10	1	-1E+10	1	-1E+10	1	-1E+10	1
4902663	28	C	05/07/2024	18:11	-127.368	48.103	0	662.90	0	4.2770	0	34.2080	0	27.133	0	656.281	0	10.9	4	3.5	4	-1E+10	1	-1E+10	1	-1E+10	1	-1E+10	1	-1E+10	1	-1E+10	1
4902663	28	C	05/07/2024	18:11	-127.368	48.103	0	668.00	0	4.2740	0	34.2140	0	27.138	0	661.322	0	10.6	4	3.4	4	-1E+10	1	-1E+10	1	-1E+10	1	-1E+10	1	-1E+10	1	-1E+10	1
4902663	28	C	05/07/2024	18:11	-127.368	48.103	0	673.00	0	4.2730	0	34.2170	0	27.140	0	666.264	0	10.1	4	3.2	4	-1E+10	1	-1E+10	1	-1E+10	1	-1E+10	1	-1E+10	1	-1E+10	1
4902663	28	C	05/07/2024	18:11	-127.368	48.103	0	678.10	0	4.2900	0	34.2250	0	27.145	0	671.305	0	9.7	4	3.1	4	-1E+10	1	-1E+10	1	-1E+10	1	-1E+10	1	-1E+10	1	-1E+10	1
4902663	28	C	05/07/2024	18:11	-127.368	48.103	0	683.10	0	4.2840	0	34.2300	0	27.149	0	676.246	0	9.4	4	3.0	4	-1E+10	1	-1E+10	1	-1E+10	1	-1E+10	1	-1E+10	1	-1E+10	1
4902663	28	C	05/07/2024	18:11	-127.368	48.103	0	688.20	0	4.2770	0	34.2380	0	27.157	0	681.287	0	9.0	4	2.9	4	-1E+10	1	-1E+10	1	-1E+10	1	-1E+10	1	-1E+10	1	-1E+10	1
4902663	28	C	05/07/2024	18:11	-127.368	48.103	0	693.20	0	4.2440	0	34.2420	0	27.163	0	686.228	0	8.8	4	2.8	4	-1E+10	1	-1E+10	1	-1E+10	1	-1E+10	1	-1E+10	1	-1E+10	1
4902663	28	C	05/07/2024	18:11	-127.368	48.103	0	698.20	0	4.2230	0	34.2490	0	27.171	0	691.170	0	8.5	4	2.7	4	-1E+10	1	-1E+10	1	-1E+10	1	-1E+10	1	-1E+10	1	-1E+10	1
4902663	28	C	05/07/2024	18:11	-127.368	48.103	0	702.80	0	4.2100	0	34.2520	0	27.175	0	695.716	0	8.4	4	2.7	4	-1E+10	1	-1E+10	1	-1E+10	1	-1E+10	1	-1E+10	1	-1E+10	1
4902663	28	C	05/07/2024	18:11	-127.368	48.103	0	707.90	0	4.2100	0	34.2590	0	27.180	0	700.756	0	8.2	4	2.6	4	-1E+10	1	-1E+10	1	-1E+10	1	-1E+10	1	-1E+10	1	-1E+10	1
4902663	28	C	05/07/2024	18:11	-127.368	48.103	0	713.00	0	4.2040	0	34.2640	0	27.185	0	705.796	0	8.1	4	2.6	4	-1E+10	1	-1E+10	1	-1E+10	1	-1E+10	1	-1E+10	1	-1E+10	1
4902663	28	C	05/07/2024	18:11	-127.368	48.103	0	717.80	0	4.1900	0	34.2670	0	27.189	0	710.539	0	8.0	4	2.5	4	-1E+10	1	-1E+10	1	-1E+10	1	-1E+10	1	-1E+10	1	-1E+10	1
4902663	28	C	05/07/2024	18:11	-127.368	48.103	0	722.70	0	4.1860	0	34.2720	0	27.193	0	715.381	0	7.9	4	2.5	4	-1E+10	1	-1E+10	1	-1E+10	1	-1E+10	1	-1E+10	1	-1E+10	1
4902663	28	C	05/07/2024	18:11	-127.368	48.103	0	727.60	0	4.1810	0	34.2730	0	27.195	0	720.223	0	7.8	4	2.5	4	-1E+10	1	-1E+10	1	-1E+10	1	-1E+10	1	-1E+10	1	-1E+10	1
4902663	28	C	05/07/2024	18:11	-127.368	48.103	0	732.60	0	4.1650	0	34.2740	0	27.197	0	725.164	0	7.7	4	2.5	4	-1E+10	1	-1E+10	1	-1E+10	1	-1E+10	1	-1E+10	1	-1E+10	1
4902663	28	C	05/07/2024	18:11	-127.368	48.103	0	737.70	0	4.1460	0	34.2780	0	27.202	0	730.203	0	7.6	4	2.4	4	-1E+10	1	-1E+10	1	-1E+10	1	-1E+10	1	-1E+10	1	-1E+10	1
4902663	28	C	05/07/2024	18:11	-127.368	48.103	0	742.90	0	4.1270	0	34.2790	0	27.205	0	735.341	0	7.6	4	2.4	4	-1E+10	1	-1E+10	1	-1E+10	1	-1E+10	1	-1E+10	1	-1E+10	1
4902663	28	C	05/07/2024	18:11	-127.368	48.103	0	748.20	0	4.1030	0	34.2810	0	27.209	0	740.578	0	7.5	4	2.4	4	-1E+10	1	-1E+10	1	-1E+10	1	-1E+10	1	-1E+10	1	-1E+10	1
4902663	28	C	05/07/2024	18:11	-127.368	48.103	0	753.00	0	4.0940	0	34.2830	0	27.212	0	745.320	0	7.4	4	2.4	4	-1E+10	1	-1E+10	1	-1E+10	1	-1E+10	1	-1E+10	1	-1E+10	1
4902663	28	C	05/07/2024	18:11	-127.368	48.103	0	757.90	0	4.0790	0	34.2870	0	27.217	0	750.161	0	7.4	4	2.3	4	-1E+10	1	-1E+10	1	-1E+10	1	-1E+10	1	-1E+10	1	-1E+10	1
4902663	28	C	05/07/2024	18:11	-127.368	48.103	0	762.90	0	4.0710	0	34.2890	0	27.219	0	755.101	0	7.3	4	2.3	4	-1E+10	1	-1E+10	1	-1E+10	1	-1E+10	1	-1E+10	1	-1E+10	1
4902663	28	C	05/07/2024	18:11	-127.368	48.103	0	767.90	0	4.0610	0	34.2910	0	27.222	0	760.041	0	7.3	4	2.3	4	-1E+10	1	-1E+10	1	-1E+10	1	-1E+10	1	-1E+10	1	-1E+10	1
4902663	28	C	05/07/2024	18:11	-127.368	48.103	0	772.90	0	4.0420	0	34.2940	0	27.226	0	764.981	0	7.2	4	2.3	4	-1E+10	1	-1E+10	1	-1E+10	1	-1E+10	1	-1E+10	1	-1E+10	1
4902663	28	C	05/07/2024	18:11	-127.368	48.103	0	777.90	0	4.0250	0	34.2970	0	27.230	0	769.920	0	7.2	4	2.3	4	-1E+10	1	-1E+10	1	-1E+10	1	-1E+10	1	-1E+10	1	-1E+10	1
4902663	28	C	05/07/2024	18:11	-127.368	48.103	0	783.00	0	4.0160	0	34.3000	0	27.234	0	774.959	0	7.1	4	2.2	4	-1E+10	1	-1E+10	1	-1E+10	1	-1E+10	1	-1E+10	1	-1E+10	1
4902663	28	C	05/07/2024	18:11	-127.368	48.103	0	788.00	0	4.0000	0	34.3020	0	27.237	0	779.898	0	7.1	4	2.2	4	-1E+10	1	-1E+10	1	-1E+10	1	-1E+10	1	-1E+10	1	-1E+10	1
4902663	28	C	05/07/2024	18:11	-127.368	48.103	0	793.00	0	3.9880	0	34.3050	0	27.241	0	784.837	0	7.0	4	2.2	4	-1E+10	1	-1E+10	1	-1E+10	1	-1E+10	1	-1E+10	1	-1E+10	1
4902663	28	C	05/07/2024	18:11	-127.368	48.103	0	798.00	0	3.9710	0	34.3090	0	27.246	0	789.776	0	7.0	4	2.2	4	-1E+10	1	-1E+10	1	-1E+10	1	-1E+10	1	-1E+10	1	-1E+10	1
4902663	28	C	05/07/2024	18:11	-127.368	48.103	0	803.10	0	3.9610	0	34.3120	0	27.249	0	794.814	0	6.9	4	2.2	4	-1E+10	1	-1E+10	1	-1E+10	1	-1E+10	1	-1E+10	1	-1E+10	1
4902663	28	C	05/07/2024	18:11	-127.368	48.103	0	808.10	0	3.9430	0	34.3140	0	27.252	0	799.753	0	6.9	4	2.2	4	-1E+10	1	-1E+10	1	-1E+10	1	-1E+10	1	-1E+10	1	-1E+10	1
4902663	28	C	05/07/2024	18:11	-127.368	48.103	0	813.10	0	3.9330	0	34.3150	0	27.254	0	804.691	0	6.9	4	2.2	4	-1E+10	1	-1E+10	1	-1E+10	1	-1E+10	1	-1E+10	1	-1E+10	1
4902663	28	C	05/07/2024	18:11	-127.368	48.103	0	818.00	0	3.9180	0	34.3180	0	27.258	0	809.531	0	6.9	4	2.2	4	-1E+10	1	-1E+10	1	-1E+10	1	-1E+10	1	-1E+10	1	-1E+10	1
4902663	28	C	05/07/2024	18:11	-127.368	48.103	0	822.90	0	3.9110	0	34.3200	0	27.261	0	814.371	0	6.8	4	2.2	4	-1E+10	1	-1E+10	1	-1E+10	1	-1E+10	1	-1E+10	1	-1E+10	1
4902663	28	C	05/07/2024	18:11	-127.368	48.103	0	827.90	0	3.8970	0	34.3230	0	27.264	0	819.309	0	6.8	4	2.1	4	-1E+10	1	-1E+10	1	-1E+10	1	-1E+10	1	-1E+10	1	-1E+10	1
4902663	28	C	05/07/2024	18:11	-127.368	48.103	0	832.90	0	3.8830	0	34.3280	0	27.270	0	824.248	0	6.8	4	2.1	4	-1E+10	1	-1E+10	1	-1E+10	1	-1E+10	1	-1E+10	1	-1E+10	1
4902663	28	C	05/07/2024	18:11	-127.368	48.103	0	837.90	0	3.8630	0	34.3290	0	27.273	0	829.186	0	6.8	4	2.2	4	-1E+10	1	-1E+10	1	-1E+10	1	-1E+10	1	-1E+10	1	-1E+10	1
4902663	28	C	05/07/2024	18:11	-127.368	48.103	0	843.00	0	3.8510	0	34.3300	0	27.275	0	834.223	0	6.8	4	2.1	4	-1E+10	1	-1E+10	1	-1E+10	1	-1E+10	1	-1E+10	1	-1E+10	1
4902663	28	C	05/07/2024	18:11	-127.368	48.103	0	848.00	0	3.8510	0	34.3330	0	27.277	0	839.161	0	6.8	4	2.1	4	-1E+10	1	-1E+10	1	-1E+10	1	-1E+10	1	-1E+10	1	-1E+10	1
4902663	28	C	05/07/2024	18:11	-127.368	48.103	0	853.10	0	3.8390	0	34.3350	0	27.280	0	844.197	0	6.9	4	2.2	4	-1E+10	1	-1E+10	1	-1E+10	1	-1E+10	1	-1E+10	1	-1E+10	1
4902663	28	C	05/07/2024	18:11	-127.368	48.103	0	858.00	0	3.8240	0	34.3360	0	27.282	0	849.036	0	6.9	4	2.2	4	-1E+10	1	-1E+10	1	-1E+10	1	-1E+10	1	-1E+10	1	-1E+10	1
4902663	28	C	05/07/2024	18:11	-127.368	48.103	0	863.00	0	3.8190	0	34.3400	0	27.286	0	853.974	0	6.9	4	2.2	4	-1E+10	1	-1E+10	1	-1E+10	1	-1E+10	1	-1E+10	1	-1E+10	1
4902663	28	C	05/07/2024	18:11	-127.368	48.103	0	867.90	0	3.8050	0	34.3400	0	27.287	0	858.812	0	6.9	4	2.2	4	-1E+10	1	-1E+10	1	-1E+10	1	-1E+10	1	-1E+10	1	-1E+10	1
4902663	28	C	05/07/2024	18:11	-127.368	48.103	0	872.90	0	3.7940	0	34.3410	0	27.289	0	863.750	0	7.0	4	2.2	4	-1E+10	1	-1E+10	1	-1E+10	1	-1E+10	1	-1E+10	1	-1E+10	1
4902663	28	C	05/07/2024	18:11	-127.368	48.103	0	877.80	0	3.7720	0	34.3430	0	27.293	0	868.588	0	7.0	4	2.2	4	-1E+10	1	-1E+10	1	-1E+10	1	-1E+10	1	-1E+10	1	-1E+10	1
4902663	28	C	05/07/2024	18:11	-127.368	48.103	0	882.80	0	3.7500	0	34.3430	0	27.295	0	873.525	0	7.1	4	2.2	4	-1E+10	1	-1E+10	1	-1E+10	1	-1E+10	1	-1E+10	1	-1E+10	1
4902663	28	C	05/07/2024	18:11	-127.368	48.103	0	887.70	0	3.7340	0	34.3460	0	27.299	0	878.363	0	7.1	4	2.2	4	-1E+10	1	-1E+10	1	-1E+10	1	-1E+10	1	-1E+10	1	-1E+10	1
4902663	28	C	05/07/2024	18:11	-127.368	48.103	0	893.00	0	3.7170	0	34.3480	0	27.303	0	883.596	0	7.2	4	2.2	4	-1E+10	1	-1E+10	1	-1E+10	1	-1E+10	1	-1E+10	1	-1E+10	1
4902663	28	C	05/07/2024	18:11	-127.368	48.103	0	898.00	0	3.6980	0	34.3510	0	27.307	0	888.533	0	7.2	4	2.3	4	-1E+10	1	-1E+10	1	-1E+10	1	-1E+10	1	-1E+10	1	-1E+10	1
4902663	28	C	05/07/2024	18:11	-127.368	48.103	0	902.90	0	3.6810	0	34.3530	0	27.310	0	893.371	0	7.3	4	2.3	4	-1E+10	1	-1E+10	1	-1E+10	1	-1E+10	1	-1E+10	1	-1E+10	1
4902663	28	C	05/07/2024	18:11	-127.368	48.103	0	908.00	0	3.6700	0	34.3560	0	27.314	0	898.406	0	7.3	4	2.3	4	-1E+10	1	-1E+10	1	-1E+10	1	-1E+10	1	-1E+10	1	-1E+10	1
4902663	28	C	05/07/2024	18:11	-127.368	48.103	0	913.00	0	3.6520	0	34.3580	0	27.317	0	903.343	0	7.4	4	2.3	4	-1E+10	1	-1E+10	1	-1E+10	1	-1E+10	1	-1E+10	1	-1E+10	1
4902663	28	C	05/07/2024	18:11	-127.368	48.103	0	918.10	0	3.6550	0	34.3600	0	27.319	0	908.378	0	7.4	4	2.3	4	-1E+10	1	-1E+10	1	-1E+10	1	-1E+10	1	-1E+10	1	-1E+10	1
4902663	28	C	05/07/2024	18:11	-127.368	48.103	0	922.80	0	3.6510	0	34.3630	0	27.321	0	913.018	0	7.4	4	2.3	4	-1E+10	1	-1E+10	1	-1E+10	1	-1E+10	1	-1E+10	1	-1E+10	1
4902663	28	C	05/07/2024	18:11	-127.368	48.103	0	928.00	0	3.6350	0	34.3640	0	27.324	0	918.151	0	7.4	4	2.3	4	-1E+10	1	-1E+10	1	-1E+10	1	-1E+10	1	-1E+10	1	-1E+10	1
4902663	28	C	05/07/2024	18:11	-127.368	48.103	0	933.20	0	3.6190	0	34.3660	0	27.327	0	923.284	0	7.5	4	2.3	4	-1E+10	1	-1E+10	1	-1E+10	1	-1E+10	1	-1E+10	1	-1E+10	1
4902663	28	C	05/07/2024	18:11	-127.368	48.103	0	938.00	0	3.6170	0	34.3690	0	27.330	0	928.023	0	7.5	4	2.3	4	-1E+10	1	-1E+10	1	-1E+10	1	-1E+10	1	-1E+10	1	-1E+10	1
4902663	28	C	05/07/2024	18:11	-127.368	48.103	0	942.80	0	3.5960	0	34.3700	0	27.332	0	932.761	0	7.5	4	2.4	4	-1E+10	1	-1E+10	1	-1E+10	1	-1E+10	1	-1E+10	1	-1E+10	1
4902663	28	C	05/07/2024	18:11	-127.368	48.103	0	947.80	0	3.5800	0	34.3720	0	27.336	0	937.697	0	7.6	4	2.4	4	-1E+10	1	-1E+10	1	-1E+10	1	-1E+10	1	-1E+10	1	-1E+10	1
4902663	28	C	05/07/2024	18:11	-127.368	48.103	0	952.70	0	3.5720	0	34.3730	0	27.337	0	942.533	0	7.6	4	2.4	4	-1E+10	1	-1E+10	1	-1E+10	1	-1E+10	1	-1E+10	1	-1E+10	1
4902663	28	C	05/07/2024	18:11	-127.368	48.103	0	957.70	0	3.5580	0	34.3760	0	27.341	0	947.469	0	7.7	4	2.4	4	-1E+10	1	-1E+10	1	-1E+10	1	-1E+10	1	-1E+10	1	-1E+10	1
4902663	28	C	05/07/2024	18:11	-127.368	48.103	0	962.70	0	3.5450	0	34.3780	0	27.344	0	952.404	0	7.8	4	2.4	4	-1E+10	1	-1E+10	1	-1E+10	1	-1E+10	1	-1E+10	1	-1E+10	1
4902663	28	C	05/07/2024	18:11	-127.368	48.103	0	967.80	0	3.5260	0	34.3810	0	27.348	0	957.438	0	7.9	4	2.5	4	-1E+10	1	-1E+10	1	-1E+10	1	-1E+10	1	-1E+10	1	-1E+10	1
4902663	28	C	05/07/2024	18:11	-127.368	48.103	0	973.00	0	3.5130	0	34.3840	0	27.352	0	962.570	0	8.0	4	2.5	4	-1E+10	1	-1E+10	1	-1E+10	1	-1E+10	1	-1E+10	1	-1E+10	1
4902663	28	C	05/07/2024	18:11	-127.368	48.103	0	978.20	0	3.4990	0	34.3850	0	27.354	0	967.702	0	8.1	4	2.5	4	-1E+10	1	-1E+10	1	-1E+10	1	-1E+10	1	-1E+10	1	-1E+10	1
4902663	28	C	05/07/2024	18:11	-127.368	48.103	0	983.20	0	3.4880	0	34.3870	0	27.357	0	972.637	0	8.2	4	2.6	4	-1E+10	1	-1E+10	1	-1E+10	1	-1E+10	1	-1E+10	1	-1E+10	1
4902663	28	C	05/07/2024	18:11	-127.368	48.103	0	987.80	0	3.4810	0	34.3890	0	27.359	0	977.177	0	8.2	4	2.6	4	-1E+10	1	-1E+10	1	-1E+10	1	-1E+10	1	-1E+10	1	-1E+10	1
4902663	28	C	05/07/2024	18:11	-127.368	48.103	0	992.60	0	3.4710	0	34.3900	0	27.361	0	981.914	0	8.3	4	2.6	4	-1E+10	1	-1E+10	1	-1E+10	1	-1E+10	1	-1E+10	1	-1E+10	1
4902663	28	C	05/07/2024	18:11	-127.368	48.103	0	997.50	0	3.4570	0	34.3920	0	27.364	0	986.750	0	8.5	4	2.7	4	-1E+10	1	-1E+10	1	-1E+10	1	-1E+10	1	-1E+10	1	-1E+10	1
4902663	28	C	05/07/2024	18:11	-127.368	48.103	0	1005.10	0	3.4280	0	34.3950	0	27.369	0	994.250	0	8.6	4	2.7	4	-1E+10	1	-1E+10	1	-1E+10	1	-1E+10	1	-1E+10	1	-1E+10	1
4902663	28	C	05/07/2024	18:11	-127.368	48.103	0	1015.50	0	3.4030	0	34.3990	0	27.375	0	1004.513	0	8.7	4	2.7	4	-1E+10	1	-1E+10	1	-1E+10	1	-1E+10	1	-1E+10	1	-1E+10	1
4902663	28	C	05/07/2024	18:11	-127.368	48.103	0	1025.40	0	3.3760	0	34.4020	0	27.380	0	1014.282	0	8.9	4	2.8	4	-1E+10	1	-1E+10	1	-1E+10	1	-1E+10	1	-1E+10	1	-1E+10	1
4902663	28	C	05/07/2024	18:11	-127.368	48.103	0	1035.20	0	3.3560	0	34.4050	0	27.384	0	1023.951	0	9.0	4	2.8	4	-1E+10	1	-1E+10	1	-1E+10	1	-1E+10	1	-1E+10	1	-1E+10	1
4902663	28	C	05/07/2024	18:11	-127.368	48.103	0	1045.30	0	3.3410	0	34.4070	0	27.387	0	1033.917	0	9.1	4	2.8	4	-1E+10	1	-1E+10	1	-1E+10	1	-1E+10	1	-1E+10	1	-1E+10	1
4902663	28	C	05/07/2024	18:11	-127.368	48.103	0	1055.40	0	3.3310	0	34.4100	0	27.390	0	1043.882	0	9.3	4	2.9	4	-1E+10	1	-1E+10	1	-1E+10	1	-1E+10	1	-1E+10	1	-1E+10	1
4902663	28	C	05/07/2024	18:11	-127.368	48.103	0	1065.60	0	3.3180	0	34.4150	0	27.396	0	1053.945	0	9.5	4	3.0	4	-1E+10	1	-1E+10	1	-1E+10	1	-1E+10	1	-1E+10	1	-1E+10	1
4902663	28	C	05/07/2024	18:11	-127.368	48.103	0	1075.60	0	3.2970	0	34.4190	0	27.401	0	1063.810	0	9.8	4	3.0	4	-1E+10	1	-1E+10	1	-1E+10	1	-1E+10	1	-1E+10	1	-1E+10	1
4902663	28	C	05/07/2024	18:11	-127.368	48.103	0	1085.80	0	3.2750	0	34.4220	0	27.405	0	1073.872	0	9.9	4	3.1	4	-1E+10	1	-1E+10	1	-1E+10	1	-1E+10	1	-1E+10	1	-1E+10	1
4902663	28	C	05/07/2024	18:11	-127.368	48.103	0	1095.60	0	3.2470	0	34.4250	0	27.410	0	1083.539	0	10.1	4	3.1	4	-1E+10	1	-1E+10	1	-1E+10	1	-1E+10	1	-1E+10	1	-1E+10	1
4902663	28	C	05/07/2024	18:11	-127.368	48.103	0	1105.40	0	3.2390	0	34.4260	0	27.412	0	1093.206	0	10.3	4	3.2	4	-1E+10	1	-1E+10	1	-1E+10	1	-1E+10	1	-1E+10	1	-1E+10	1
4902663	28	C	05/07/2024	18:11	-127.368	48.103	0	1115.40	0	3.2300	0	34.4290	0	27.415	0	1103.069	0	10.6	4	3.3	4	-1E+10	1	-1E+10	1	-1E+10	1	-1E+10	1	-1E+10	1	-1E+10	1
4902663	28	C	05/07/2024	18:11	-127.368	48.103	0	1125.30	0	3.2150	0	34.4320	0	27.419	0	1112.834	0	10.8	4	3.3	4	-1E+10	1	-1E+10	1	-1E+10	1	-1E+10	1	-1E+10	1	-1E+10	1
4902663	28	C	05/07/2024	18:11	-127.368	48.103	0	1135.20	0	3.1970	0	34.4340	0	27.423	0	1122.598	0	11.0	4	3.4	4	-1E+10	1	-1E+10	1	-1E+10	1	-1E+10	1	-1E+10	1	-1E+10	1
4902663	28	C	05/07/2024	18:11	-127.368	48.103	0	1145.20	0	3.1740	0	34.4370	0	27.427	0	1132.460	0	11.2	4	3.5	4	-1E+10	1	-1E+10	1	-1E+10	1	-1E+10	1	-1E+10	1	-1E+10	1
4902663	28	C	05/07/2024	18:11	-127.368	48.103	0	1155.50	0	3.1540	0	34.4390	0	27.431	0	1142.617	0	11.4	4	3.5	4	-1E+10	1	-1E+10	1	-1E+10	1	-1E+10	1	-1E+10	1	-1E+10	1
4902663	28	C	05/07/2024	18:11	-127.368	48.103	0	1165.80	0	3.1310	0	34.4410	0	27.434	0	1152.774	0	11.6	4	3.6	4	-1E+10	1	-1E+10	1	-1E+10	1	-1E+10	1	-1E+10	1	-1E+10	1
4902663	28	C	05/07/2024	18:11	-127.368	48.103	0	1175.50	0	3.1140	0	34.4440	0	27.438	0	1162.339	0	11.9	4	3.7	4	-1E+10	1	-1E+10	1	-1E+10	1	-1E+10	1	-1E+10	1	-1E+10	1
4902663	28	C	05/07/2024	18:11	-127.368	48.103	0	1185.10	0	3.0930	0	34.4460	0	27.442	0	1171.805	0	12.2	4	3.8	4	-1E+10	1	-1E+10	1	-1E+10	1	-1E+10	1	-1E+10	1	-1E+10	1
4902663	28	C	05/07/2024	18:11	-127.368	48.103	0	1195.40	0	3.0700	0	34.4500	0	27.447	0	1181.960	0	12.5	4	3.9	4	-1E+10	1	-1E+10	1	-1E+10	1	-1E+10	1	-1E+10	1	-1E+10	1
4902663	28	C	05/07/2024	18:11	-127.368	48.103	0	1205.60	0	3.0490	0	34.4520	0	27.451	0	1192.016	0	12.7	4	3.9	4	-1E+10	1	-1E+10	1	-1E+10	1	-1E+10	1	-1E+10	1	-1E+10	1
4902663	28	C	05/07/2024	18:11	-127.368	48.103	0	1215.40	0	3.0290	0	34.4550	0	27.455	0	1201.678	0	13.1	4	4.0	4	-1E+10	1	-1E+10	1	-1E+10	1	-1E+10	1	-1E+10	1	-1E+10	1
4902663	28	C	05/07/2024	18:11	-127.368	48.103	0	1225.20	0	3.0040	0	34.4580	0	27.460	0	1211.339	0	13.4	4	4.1	4	-1E+10	1	-1E+10	1	-1E+10	1	-1E+10	1	-1E+10	1	-1E+10	1
4902663	28	C	05/07/2024	18:11	-127.368	48.103	0	1235.40	0	2.9820	0	34.4600	0	27.463	0	1221.394	0	13.6	4	4.2	4	-1E+10	1	-1E+10	1	-1E+10	1	-1E+10	1	-1E+10	1	-1E+10	1
4902663	28	C	05/07/2024	18:11	-127.368	48.103	0	1245.70	0	2.9590	0	34.4620	0	27.467	0	1231.547	0	13.9	4	4.3	4	-1E+10	1	-1E+10	1	-1E+10	1	-1E+10	1	-1E+10	1	-1E+10	1
4902663	28	C	05/07/2024	18:11	-127.368	48.103	0	1255.40	0	2.9440	0	34.4640	0	27.470	0	1241.109	0	14.2	4	4.4	4	-1E+10	1	-1E+10	1	-1E+10	1	-1E+10	1	-1E+10	1	-1E+10	1
4902663	28	C	05/07/2024	18:11	-127.368	48.103	0	1265.20	0	2.9230	0	34.4660	0	27.474	0	1250.768	0	14.5	4	4.5	4	-1E+10	1	-1E+10	1	-1E+10	1	-1E+10	1	-1E+10	1	-1E+10	1
4902663	28	C	05/07/2024	18:11	-127.368	48.103	0	1275.50	0	2.9010	0	34.4690	0	27.478	0	1260.920	0	15.0	4	4.6	4	-1E+10	1	-1E+10	1	-1E+10	1	-1E+10	1	-1E+10	1	-1E+10	1
4902663	28	C	05/07/2024	18:11	-127.368	48.103	0	1285.70	0	2.8860	0	34.4720	0	27.482	0	1270.972	0	15.5	4	4.8	4	-1E+10	1	-1E+10	1	-1E+10	1	-1E+10	1	-1E+10	1	-1E+10	1
4902663	28	C	05/07/2024	18:11	-127.368	48.103	0	1295.40	0	2.8710	0	34.4740	0	27.485	0	1280.532	0	15.8	4	4.9	4	-1E+10	1	-1E+10	1	-1E+10	1	-1E+10	1	-1E+10	1	-1E+10	1
4902663	28	C	05/07/2024	18:11	-127.368	48.103	0	1305.40	0	2.8530	0	34.4760	0	27.488	0	1290.386	0	16.3	4	5.0	4	-1E+10	1	-1E+10	1	-1E+10	1	-1E+10	1	-1E+10	1	-1E+10	1
4902663	28	C	05/07/2024	18:11	-127.368	48.103	0	1315.50	0	2.8350	0	34.4790	0	27.492	0	1300.339	0	16.8	4	5.2	4	-1E+10	1	-1E+10	1	-1E+10	1	-1E+10	1	-1E+10	1	-1E+10	1
4902663	28	C	05/07/2024	18:11	-127.368	48.103	0	1325.10	0	2.8140	0	34.4800	0	27.495	0	1309.798	0	17.4	4	5.4	4	-1E+10	1	-1E+10	1	-1E+10	1	-1E+10	1	-1E+10	1	-1E+10	1
4902663	28	C	05/07/2024	18:11	-127.368	48.103	0	1335.00	0	2.7930	0	34.4830	0	27.499	0	1319.553	0	17.8	4	5.5	4	-1E+10	1	-1E+10	1	-1E+10	1	-1E+10	1	-1E+10	1	-1E+10	1
4902663	28	C	05/07/2024	18:11	-127.368	48.103	0	1345.40	0	2.7720	0	34.4850	0	27.503	0	1329.800	0	18.2	4	5.6	4	-1E+10	1	-1E+10	1	-1E+10	1	-1E+10	1	-1E+10	1	-1E+10	1
4902663	28	C	05/07/2024	18:11	-127.368	48.103	0	1355.40	0	2.7520	0	34.4880	0	27.507	0	1339.652	0	18.7	4	5.7	4	-1E+10	1	-1E+10	1	-1E+10	1	-1E+10	1	-1E+10	1	-1E+10	1
4902663	28	C	05/07/2024	18:11	-127.368	48.103	0	1365.00	0	2.7320	0	34.4910	0	27.511	0	1349.110	0	19.2	4	5.9	4	-1E+10	1	-1E+10	1	-1E+10	1	-1E+10	1	-1E+10	1	-1E+10	1
4902663	28	C	05/07/2024	18:11	-127.368	48.103	0	1375.20	0	2.7160	0	34.4920	0	27.513	0	1359.158	0	19.7	4	6.0	4	-1E+10	1	-1E+10	1	-1E+10	1	-1E+10	1	-1E+10	1	-1E+10	1
4902663	28	C	05/07/2024	18:11	-127.368	48.103	0	1385.50	0	2.6990	0	34.4950	0	27.517	0	1369.305	0	20.2	4	6.2	4	-1E+10	1	-1E+10	1	-1E+10	1	-1E+10	1	-1E+10	1	-1E+10	1
4902663	28	C	05/07/2024	18:11	-127.368	48.103	0	1395.50	0	2.6820	0	34.4970	0	27.520	0	1379.155	0	20.6	4	6.3	4	-1E+10	1	-1E+10	1	-1E+10	1	-1E+10	1	-1E+10	1	-1E+10	1
4902663	28	C	05/07/2024	18:11	-127.368	48.103	0	1405.20	0	2.6620	0	34.4980	0	27.523	0	1388.710	0	20.9	4	6.4	4	-1E+10	1	-1E+10	1	-1E+10	1	-1E+10	1	-1E+10	1	-1E+10	1
4902663	28	C	05/07/2024	18:11	-127.368	48.103	0	1415.20	0	2.6490	0	34.4990	0	27.525	0	1398.559	0	21.4	4	6.5	4	-1E+10	1	-1E+10	1	-1E+10	1	-1E+10	1	-1E+10	1	-1E+10	1
4902663	28	C	05/07/2024	18:11	-127.368	48.103	0	1425.30	0	2.6360	0	34.5020	0	27.528	0	1408.507	0	21.8	4	6.7	4	-1E+10	1	-1E+10	1	-1E+10	1	-1E+10	1	-1E+10	1	-1E+10	1
4902663	28	C	05/07/2024	18:11	-127.368	48.103	0	1435.30	0	2.6170	0	34.5030	0	27.531	0	1418.356	0	22.1	4	6.8	4	-1E+10	1	-1E+10	1	-1E+10	1	-1E+10	1	-1E+10	1	-1E+10	1
4902663	28	C	05/07/2024	18:11	-127.368	48.103	0	1445.60	0	2.6070	0	34.5040	0	27.533	0	1428.499	0	22.5	4	6.9	4	-1E+10	1	-1E+10	1	-1E+10	1	-1E+10	1	-1E+10	1	-1E+10	1
4902663	28	C	05/07/2024	18:11	-127.368	48.103	0	1455.40	0	2.5890	0	34.5060	0	27.536	0	1438.150	0	23.1	4	7.1	4	-1E+10	1	-1E+10	1	-1E+10	1	-1E+10	1	-1E+10	1	-1E+10	1
4902663	28	C	05/07/2024	18:11	-127.368	48.103	0	1465.20	0	2.5690	0	34.5080	0	27.539	0	1447.800	0	23.7	4	7.3	4	-1E+10	1	-1E+10	1	-1E+10	1	-1E+10	1	-1E+10	1	-1E+10	1
4902663	28	C	05/07/2024	18:11	-127.368	48.103	0	1475.30	0	2.5510	0	34.5100	0	27.542	0	1457.745	0	24.4	4	7.5	4	-1E+10	1	-1E+10	1	-1E+10	1	-1E+10	1	-1E+10	1	-1E+10	1
4902663	28	C	05/07/2024	18:11	-127.368	48.103	0	1485.50	0	2.5280	0	34.5140	0	27.548	0	1467.789	0	25.0	4	7.6	4	-1E+10	1	-1E+10	1	-1E+10	1	-1E+10	1	-1E+10	1	-1E+10	1
4902663	28	C	05/07/2024	18:11	-127.368	48.103	0	1495.40	0	2.5100	0	34.5150	0	27.550	0	1477.536	0	25.5	4	7.8	4	-1E+10	1	-1E+10	1	-1E+10	1	-1E+10	1	-1E+10	1	-1E+10	1
4902663	28	C	05/07/2024	18:11	-127.368	48.103	0	1505.20	0	2.4940	0	34.5170	0	27.553	0	1487.184	0	26.0	4	7.9	4	-1E+10	1	-1E+10	1	-1E+10	1	-1E+10	1	-1E+10	1	-1E+10	1
4902663	28	C	05/07/2024	18:11	-127.368	48.103	0	1515.50	0	2.4820	0	34.5190	0	27.556	0	1497.325	0	26.4	4	8.1	4	-1E+10	1	-1E+10	1	-1E+10	1	-1E+10	1	-1E+10	1	-1E+10	1
4902663	28	C	05/07/2024	18:11	-127.368	48.103	0	1525.40	0	2.4760	0	34.5200	0	27.557	0	1507.071	0	27.0	4	8.2	4	-1E+10	1	-1E+10	1	-1E+10	1	-1E+10	1	-1E+10	1	-1E+10	1
4902663	28	C	05/07/2024	18:11	-127.368	48.103	0	1535.40	0	2.4560	0	34.5220	0	27.560	0	1516.915	0	27.5	4	8.4	4	-1E+10	1	-1E+10	1	-1E+10	1	-1E+10	1	-1E+10	1	-1E+10	1
4902663	28	C	05/07/2024	18:11	-127.368	48.103	0	1545.60	0	2.4450	0	34.5230	0	27.562	0	1526.955	0	27.9	4	8.5	4	-1E+10	1	-1E+10	1	-1E+10	1	-1E+10	1	-1E+10	1	-1E+10	1
4902663	28	C	05/07/2024	18:11	-127.368	48.103	0	1555.40	0	2.4290	0	34.5260	0	27.566	0	1536.601	0	28.6	4	8.7	4	-1E+10	1	-1E+10	1	-1E+10	1	-1E+10	1	-1E+10	1	-1E+10	1
4902663	28	C	05/07/2024	18:11	-127.368	48.103	0	1565.60	0	2.4150	0	34.5280	0	27.569	0	1546.641	0	29.3	4	8.9	4	-1E+10	1	-1E+10	1	-1E+10	1	-1E+10	1	-1E+10	1	-1E+10	1
4902663	28	C	05/07/2024	18:11	-127.368	48.103	0	1575.60	0	2.4020	0	34.5310	0	27.572	0	1556.483	0	29.9	4	9.1	4	-1E+10	1	-1E+10	1	-1E+10	1	-1E+10	1	-1E+10	1	-1E+10	1
4902663	28	C	05/07/2024	18:11	-127.368	48.103	0	1585.40	0	2.3770	0	34.5320	0	27.575	0	1566.128	0	30.1	4	9.2	4	-1E+10	1	-1E+10	1	-1E+10	1	-1E+10	1	-1E+10	1	-1E+10	1
4902663	28	C	05/07/2024	18:11	-127.368	48.103	0	1595.50	0	2.3610	0	34.5320	0	27.576	0	1576.067	0	30.4	4	9.3	4	-1E+10	1	-1E+10	1	-1E+10	1	-1E+10	1	-1E+10	1	-1E+10	1
4902663	28	C	05/07/2024	18:11	-127.368	48.103	0	1605.60	0	2.3410	0	34.5330	0	27.579	0	1586.007	0	30.9	4	9.4	4	-1E+10	1	-1E+10	1	-1E+10	1	-1E+10	1	-1E+10	1	-1E+10	1
4902663	28	C	05/07/2024	18:11	-127.368	48.103	0	1615.60	0	2.3290	0	34.5340	0	27.581	0	1595.847	0	31.3	4	9.5	4	-1E+10	1	-1E+10	1	-1E+10	1	-1E+10	1	-1E+10	1	-1E+10	1
4902663	28	C	05/07/2024	18:11	-127.368	48.103	0	1625.30	0	2.3150	0	34.5350	0	27.583	0	1605.392	0	31.7	4	9.6	4	-1E+10	1	-1E+10	1	-1E+10	1	-1E+10	1	-1E+10	1	-1E+10	1
4902663	28	C	05/07/2024	18:11	-127.368	48.103	0	1635.20	0	2.2970	0	34.5360	0	27.585	0	1615.132	0	32.3	4	9.8	4	-1E+10	1	-1E+10	1	-1E+10	1	-1E+10	1	-1E+10	1	-1E+10	1
4902663	28	C	05/07/2024	18:11	-127.368	48.103	0	1645.20	0	2.2820	0	34.5380	0	27.588	0	1624.971	0	33.1	4	10.0	4	-1E+10	1	-1E+10	1	-1E+10	1	-1E+10	1	-1E+10	1	-1E+10	1
4902663	28	C	05/07/2024	18:11	-127.368	48.103	0	1655.60	0	2.2690	0	34.5400	0	27.591	0	1635.203	0	33.8	4	10.3	4	-1E+10	1	-1E+10	1	-1E+10	1	-1E+10	1	-1E+10	1	-1E+10	1
4902663	28	C	05/07/2024	18:11	-127.368	48.103	0	1665.60	0	2.2620	0	34.5430	0	27.594	0	1645.041	0	34.5	4	10.5	4	-1E+10	1	-1E+10	1	-1E+10	1	-1E+10	1	-1E+10	1	-1E+10	1
4902663	28	C	05/07/2024	18:11	-127.368	48.103	0	1675.30	0	2.2460	0	34.5450	0	27.597	0	1654.584	0	35.2	4	10.7	4	-1E+10	1	-1E+10	1	-1E+10	1	-1E+10	1	-1E+10	1	-1E+10	1
4902663	28	C	05/07/2024	18:11	-127.368	48.103	0	1685.40	0	2.2310	0	34.5460	0	27.599	0	1664.519	0	35.7	4	10.8	4	-1E+10	1	-1E+10	1	-1E+10	1	-1E+10	1	-1E+10	1	-1E+10	1
4902663	28	C	05/07/2024	18:11	-127.368	48.103	0	1695.40	0	2.2160	0	34.5470	0	27.601	0	1674.356	0	36.3	4	11.0	4	-1E+10	1	-1E+10	1	-1E+10	1	-1E+10	1	-1E+10	1	-1E+10	1
4902663	28	C	05/07/2024	18:11	-127.368	48.103	0	1705.20	0	2.2080	0	34.5490	0	27.603	0	1683.995	0	37.1	4	11.2	4	-1E+10	1	-1E+10	1	-1E+10	1	-1E+10	1	-1E+10	1	-1E+10	1
4902663	28	C	05/07/2024	18:11	-127.368	48.103	0	1715.00	0	2.2060	0	34.5530	0	27.606	0	1693.635	0	37.8	4	11.5	4	-1E+10	1	-1E+10	1	-1E+10	1	-1E+10	1	-1E+10	1	-1E+10	1
4902663	28	C	05/07/2024	18:11	-127.368	48.103	0	1724.90	0	2.1940	0	34.5550	0	27.609	0	1703.372	0	38.3	4	11.6	4	-1E+10	1	-1E+10	1	-1E+10	1	-1E+10	1	-1E+10	1	-1E+10	1
4902663	28	C	05/07/2024	18:11	-127.368	48.103	0	1734.90	0	2.1860	0	34.5550	0	27.610	0	1713.206	0	38.8	4	11.7	4	-1E+10	1	-1E+10	1	-1E+10	1	-1E+10	1	-1E+10	1	-1E+10	1
4902663	28	C	05/07/2024	18:11	-127.368	48.103	0	1744.90	0	2.1720	0	34.5570	0	27.612	0	1723.041	0	39.5	4	12.0	4	-1E+10	1	-1E+10	1	-1E+10	1	-1E+10	1	-1E+10	1	-1E+10	1
4902663	28	C	05/07/2024	18:11	-127.368	48.103	0	1755.30	0	2.1600	0	34.5590	0	27.615	0	1733.268	0	40.0	4	12.1	4	-1E+10	1	-1E+10	1	-1E+10	1	-1E+10	1	-1E+10	1	-1E+10	1
4902663	28	C	05/07/2024	18:11	-127.368	48.103	0	1765.70	0	2.1510	0	34.5600	0	27.617	0	1743.495	0	40.5	4	12.3	4	-1E+10	1	-1E+10	1	-1E+10	1	-1E+10	1	-1E+10	1	-1E+10	1
4902663	28	C	05/07/2024	18:11	-127.368	48.103	0	1775.40	0	2.1410	0	34.5610	0	27.618	0	1753.033	0	41.1	4	12.4	4	-1E+10	1	-1E+10	1	-1E+10	1	-1E+10	1	-1E+10	1	-1E+10	1
4902663	28	C	05/07/2024	18:11	-127.368	48.103	0	1785.20	0	2.1320	0	34.5630	0	27.621	0	1762.669	0	41.7	4	12.6	4	-1E+10	1	-1E+10	1	-1E+10	1	-1E+10	1	-1E+10	1	-1E+10	1
4902663	28	C	05/07/2024	18:11	-127.368	48.103	0	1795.40	0	2.1280	0	34.5650	0	27.623	0	1772.697	0	42.3	4	12.8	4	-1E+10	1	-1E+10	1	-1E+10	1	-1E+10	1	-1E+10	1	-1E+10	1
4902663	28	C	05/07/2024	18:11	-127.368	48.103	0	1805.60	0	2.1190	0	34.5670	0	27.625	0	1782.726	0	42.7	4	12.9	4	-1E+10	1	-1E+10	1	-1E+10	1	-1E+10	1	-1E+10	1	-1E+10	1
4902663	28	C	05/07/2024	18:11	-127.368	48.103	0	1815.30	0	2.1100	0	34.5670	0	27.626	0	1792.262	0	43.3	4	13.1	4	-1E+10	1	-1E+10	1	-1E+10	1	-1E+10	1	-1E+10	1	-1E+10	1
4902663	28	C	05/07/2024	18:11	-127.368	48.103	0	1825.40	0	2.0890	0	34.5680	0	27.628	0	1802.191	0	43.9	4	13.3	4	-1E+10	1	-1E+10	1	-1E+10	1	-1E+10	1	-1E+10	1	-1E+10	1
4902663	28	C	05/07/2024	18:11	-127.368	48.103	0	1835.60	0	2.0790	0	34.5700	0	27.631	0	1812.218	0	44.6	4	13.5	4	-1E+10	1	-1E+10	1	-1E+10	1	-1E+10	1	-1E+10	1	-1E+10	1
4902663	28	C	05/07/2024	18:11	-127.368	48.103	0	1845.40	0	2.0710	0	34.5720	0	27.633	0	1821.851	0	45.4	4	13.7	4	-1E+10	1	-1E+10	1	-1E+10	1	-1E+10	1	-1E+10	1	-1E+10	1
4902663	28	C	05/07/2024	18:11	-127.368	48.103	0	1855.40	0	2.0570	0	34.5740	0	27.636	0	1831.680	0	46.0	4	13.9	4	-1E+10	1	-1E+10	1	-1E+10	1	-1E+10	1	-1E+10	1	-1E+10	1
4902663	28	C	05/07/2024	18:11	-127.368	48.103	0	1865.40	0	2.0440	0	34.5750	0	27.638	0	1841.509	0	46.8	4	14.1	4	-1E+10	1	-1E+10	1	-1E+10	1	-1E+10	1	-1E+10	1	-1E+10	1
4902663	28	C	05/07/2024	18:11	-127.368	48.103	0	1875.40	0	2.0330	0	34.5770	0	27.640	0	1851.338	0	47.7	4	14.4	4	-1E+10	1	-1E+10	1	-1E+10	1	-1E+10	1	-1E+10	1	-1E+10	1
4902663	28	C	05/07/2024	18:11	-127.368	48.103	0	1885.50	0	2.0260	0	34.5810	0	27.644	0	1861.264	0	48.6	4	14.7	4	-1E+10	1	-1E+10	1	-1E+10	1	-1E+10	1	-1E+10	1	-1E+10	1
4902663	28	C	05/07/2024	18:11	-127.368	48.103	0	1895.80	0	2.0160	0	34.5820	0	27.646	0	1871.386	0	49.3	4	14.9	4	-1E+10	1	-1E+10	1	-1E+10	1	-1E+10	1	-1E+10	1	-1E+10	1
4902663	28	C	05/07/2024	18:11	-127.368	48.103	0	1905.60	0	2.0000	0	34.5840	0	27.648	0	1881.017	0	50.1	4	15.1	4	-1E+10	1	-1E+10	1	-1E+10	1	-1E+10	1	-1E+10	1	-1E+10	1
4902663	28	C	05/07/2024	18:11	-127.368	48.103	0	1915.10	0	1.9880	0	34.5860	0	27.651	0	1890.352	0	50.8	4	15.3	4	-1E+10	1	-1E+10	1	-1E+10	1	-1E+10	1	-1E+10	1	-1E+10	1
4902663	28	C	05/07/2024	18:11	-127.368	48.103	0	1925.40	0	1.9770	0	34.5880	0	27.654	0	1900.473	0	51.5	4	15.5	4	-1E+10	1	-1E+10	1	-1E+10	1	-1E+10	1	-1E+10	1	-1E+10	1
4902663	28	C	05/07/2024	18:11	-127.368	48.103	0	1935.30	0	1.9690	0	34.5890	0	27.655	0	1910.200	0	52.1	4	15.7	4	-1E+10	1	-1E+10	1	-1E+10	1	-1E+10	1	-1E+10	1	-1E+10	1
4902663	28	C	05/07/2024	18:11	-127.368	48.103	0	1945.50	0	1.9590	0	34.5900	0	27.657	0	1920.222	0	52.8	4	15.9	4	-1E+10	1	-1E+10	1	-1E+10	1	-1E+10	1	-1E+10	1	-1E+10	1
4902663	28	C	05/07/2024	18:11	-127.368	48.103	0	1955.40	0	1.9480	0	34.5930	0	27.660	0	1929.949	0	53.4	4	16.1	4	-1E+10	1	-1E+10	1	-1E+10	1	-1E+10	1	-1E+10	1	-1E+10	1
4902663	28	C	05/07/2024	18:11	-127.368	48.103	0	1965.10	0	1.9420	0	34.5940	0	27.661	0	1939.478	0	53.8	4	16.2	4	-1E+10	1	-1E+10	1	-1E+10	1	-1E+10	1	-1E+10	1	-1E+10	1
4902663	28	C	05/07/2024	18:11	-127.368	48.103	0	1975.10	0	1.9350	0	34.5950	0	27.663	0	1949.302	0	54.2	4	16.3	4	-1E+10	1	-1E+10	1	-1E+10	1	-1E+10	1	-1E+10	1	-1E+10	1
4902663	28	C	05/07/2024	18:11	-127.368	48.103	0	1985.50	0	1.9280	0	34.5960	0	27.664	0	1959.518	0	54.3	4	16.3	4	-1E+10	1	-1E+10	1	-1E+10	1	-1E+10	1	-1E+10	1	-1E+10	1
4902663	28	C	05/07/2024	18:11	-127.368	48.103	0	1991.90	0	1.9270	0	34.5970	0	27.665	0	1965.805	0	53.9	4	16.2	4	-1E+10	1	-1E+10	1	-1E+10	1	-1E+10	1	-1E+10	1	-1E+10	1
4902663	28	C	05/07/2024	18:11	-127.368	48.103	0																										
4902663	29	C	05/17/2024	13:05	-127.611	48.016	0	0.20	0	11.7120	0	31.7050	0	24.084	0	0.198	0	262.8	4	96.9	4	-1E+10	1	-1E+10	1	-1E+10	1	-1E+10	1	-1E+10	1	-1E+10	1
4902663	29	C	05/17/2024	13:05	-127.611	48.016	0	0.30	0	11.7080	0	31.6660	0	24.055	0	0.297	0	-1e10	1	-1e10	1	-1E+10	1	-1E+10	1	-1E+10	1	-1E+10	1	-1E+10	1	-1E+10	1
4902663	29	C	05/17/2024	13:05	-127.611	48.016	0	0.40	0	11.7099	0	31.6720	0	24.059	0	0.397	0	262.1	4	96.6	4	-1E+10	1	-1E+10	1	-1E+10	1	-1E+10	1	-1E+10	1	-1E+10	1
4902663	29	C	05/17/2024	13:05	-127.611	48.016	0	1.00	0	11.7210	0	31.7080	0	24.085	0	0.992	0	261.9	4	96.6	4	-1E+10	1	-1E+10	1	-1E+10	1	-1E+10	1	-1E+10	1	-1E+10	1
4902663	29	C	05/17/2024	13:05	-127.611	48.016	0	1.90	0	11.7210	0	31.7145	0	24.090	0	1.884	0	261.7	4	96.6	4	-1E+10	1	-1E+10	1	-1E+10	1	-1E+10	1	-1E+10	1	-1E+10	1
4902663	29	C	05/17/2024	13:05	-127.611	48.016	0	2.10	0	11.7210	0	31.7160	0	24.091	0	2.082	0	-1e10	1	-1e10	1	-1E+10	1	-1E+10	1	-1E+10	1	-1E+10	1	-1E+10	1	-1E+10	1
4902663	29	C	05/17/2024	13:05	-127.611	48.016	0	2.40	0	11.7213	0	31.7172	0	24.092	0	2.380	0	261.6	4	96.5	4	-1E+10	1	-1E+10	1	-1E+10	1	-1E+10	1	-1E+10	1	-1E+10	1
4902663	29	C	05/17/2024	13:05	-127.611	48.016	0	3.10	0	11.7220	0	31.7200	0	24.094	0	3.074	0	261.5	4	96.5	4	-1E+10	1	-1E+10	1	-1E+10	1	-1E+10	1	-1E+10	1	-1E+10	1
4902663	29	C	05/17/2024	13:05	-127.611	48.016	0	3.80	0	11.7210	0	31.7220	0	24.096	0	3.768	0	261.4	4	96.5	4	-1E+10	1	-1E+10	1	-1E+10	1	-1E+10	1	-1E+10	1	-1E+10	1
4902663	29	C	05/17/2024	13:05	-127.611	48.016	0	5.00	0	11.7200	0	31.7230	0	24.097	0	4.958	0	261.3	4	96.4	4	-1E+10	1	-1E+10	1	-1E+10	1	-1E+10	1	-1E+10	1	-1E+10	1
4902663	29	C	05/17/2024	13:05	-127.611	48.016	0	6.20	0	11.7210	0	31.7240	0	24.098	0	6.148	0	261.1	4	96.4	4	-1E+10	1	-1E+10	1	-1E+10	1	-1E+10	1	-1E+10	1	-1E+10	1
4902663	29	C	05/17/2024	13:05	-127.611	48.016	0	7.00	0	11.7220	0	31.7230	0	24.097	0	6.941	0	261.1	4	96.3	4	-1E+10	1	-1E+10	1	-1E+10	1	-1E+10	1	-1E+10	1	-1E+10	1
4902663	29	C	05/17/2024	13:05	-127.611	48.016	0	7.90	0	11.7250	0	31.7230	0	24.096	0	7.834	0	261.0	4	96.3	4	-1E+10	1	-1E+10	1	-1E+10	1	-1E+10	1	-1E+10	1	-1E+10	1
4902663	29	C	05/17/2024	13:05	-127.611	48.016	0	9.00	0	11.7240	0	31.7230	0	24.096	0	8.924	0	261.0	4	96.3	4	-1E+10	1	-1E+10	1	-1E+10	1	-1E+10	1	-1E+10	1	-1E+10	1
4902663	29	C	05/17/2024	13:05	-127.611	48.016	0	10.20	0	11.7240	0	31.7230	0	24.096	0	10.114	0	260.9	4	96.3	4	-1E+10	1	-1E+10	1	-1E+10	1	-1E+10	1	-1E+10	1	-1E+10	1
4902663	29	C	05/17/2024	13:05	-127.611	48.016	0	10.90	0	11.7230	0	31.7230	0	24.097	0	10.808	0	260.9	4	96.3	4	-1E+10	1	-1E+10	1	-1E+10	1	-1E+10	1	-1E+10	1	-1E+10	1
4902663	29	C	05/17/2024	13:05	-127.611	48.016	0	11.90	0	11.7220	0	31.7230	0	24.097	0	11.800	0	260.9	4	96.3	4	-1E+10	1	-1E+10	1	-1E+10	1	-1E+10	1	-1E+10	1	-1E+10	1
4902663	29	C	05/17/2024	13:05	-127.611	48.016	0	12.90	0	11.7250	0	31.7230	0	24.096	0	12.791	0	261.0	4	96.3	4	-1E+10	1	-1E+10	1	-1E+10	1	-1E+10	1	-1E+10	1	-1E+10	1
4902663	29	C	05/17/2024	13:05	-127.611	48.016	0	13.80	0	11.7240	0	31.7220	0	24.096	0	13.684	0	261.1	4	96.4	4	-1E+10	1	-1E+10	1	-1E+10	1	-1E+10	1	-1E+10	1	-1E+10	1
4902663	29	C	05/17/2024	13:05	-127.611	48.016	0	15.00	0	11.7240	0	31.7230	0	24.097	0	14.874	0	261.4	4	96.5	4	-1E+10	1	-1E+10	1	-1E+10	1	-1E+10	1	-1E+10	1	-1E+10	1
4902663	29	C	05/17/2024	13:05	-127.611	48.016	0	15.80	0	11.7270	0	31.7220	0	24.095	0	15.667	0	261.5	4	96.5	4	-1E+10	1	-1E+10	1	-1E+10	1	-1E+10	1	-1E+10	1	-1E+10	1
4902663	29	C	05/17/2024	13:05	-127.611	48.016	0	16.70	0	11.7280	0	31.7210	0	24.094	0	16.559	0	261.7	4	96.6	4	-1E+10	1	-1E+10	1	-1E+10	1	-1E+10	1	-1E+10	1	-1E+10	1
4902663	29	C	05/17/2024	13:05	-127.611	48.016	0	17.90	0	11.7270	0	31.7210	0	24.095	0	17.749	0	262.0	4	96.7	4	-1E+10	1	-1E+10	1	-1E+10	1	-1E+10	1	-1E+10	1	-1E+10	1
4902663	29	C	05/17/2024	13:05	-127.611	48.016	0	19.30	0	11.7260	0	31.7200	0	24.094	0	19.137	0	262.7	4	97.0	4	-1E+10	1	-1E+10	1	-1E+10	1	-1E+10	1	-1E+10	1	-1E+10	1
4902663	29	C	05/17/2024	13:05	-127.611	48.016	0	20.10	0	11.7260	0	31.7180	0	24.092	0	19.930	0	263.4	4	97.2	4	-1E+10	1	-1E+10	1	-1E+10	1	-1E+10	1	-1E+10	1	-1E+10	1
4902663	29	C	05/17/2024	13:05	-127.611	48.016	0	20.80	0	11.7030	0	31.7310	0	24.107	0	20.624	0	264.1	4	97.4	4	-1E+10	1	-1E+10	1	-1E+10	1	-1E+10	1	-1E+10	1	-1E+10	1
4902663	29	C	05/17/2024	13:05	-127.611	48.016	0	21.60	0	11.5770	0	31.8030	0	24.185	0	21.418	0	264.6	4	97.4	4	-1E+10	1	-1E+10	1	-1E+10	1	-1E+10	1	-1E+10	1	-1E+10	1
4902663	29	C	05/17/2024	13:05	-127.611	48.016	0	22.90	0	11.3370	0	31.9110	0	24.312	0	22.707	0	265.0	4	97.1	4	-1E+10	1	-1E+10	1	-1E+10	1	-1E+10	1	-1E+10	1	-1E+10	1
4902663	29	C	05/17/2024	13:05	-127.611	48.016	0	24.30	0	11.1940	0	32.0210	0	24.423	0	24.095	0	264.2	4	96.6	4	-1E+10	1	-1E+10	1	-1E+10	1	-1E+10	1	-1E+10	1	-1E+10	1
4902663	29	C	05/17/2024	13:05	-127.611	48.016	0	25.20	0	11.1650	0	32.0570	0	24.457	0	24.987	0	263.3	4	96.2	4	-1E+10	1	-1E+10	1	-1E+10	1	-1E+10	1	-1E+10	1	-1E+10	1
4902663	29	C	05/17/2024	13:05	-127.611	48.016	0	26.10	0	11.1180	0	32.0510	0	24.460	0	25.879	0	262.5	4	95.9	4	-1E+10	1	-1E+10	1	-1E+10	1	-1E+10	1	-1E+10	1	-1E+10	1
4902663	29	C	05/17/2024	13:05	-127.611	48.016	0	27.00	0	10.7920	0	32.0790	0	24.539	0	26.772	0	261.6	4	94.9	4	-1E+10	1	-1E+10	1	-1E+10	1	-1E+10	1	-1E+10	1	-1E+10	1
4902663	29	C	05/17/2024	13:05	-127.611	48.016	0	28.00	0	10.3640	0	32.0660	0	24.602	0	27.763	0	260.9	4	93.8	4	-1E+10	1	-1E+10	1	-1E+10	1	-1E+10	1	-1E+10	1	-1E+10	1
4902663	29	C	05/17/2024	13:05	-127.611	48.016	0	29.00	0	10.1630	0	32.0750	0	24.643	0	28.755	0	259.1	4	92.7	4	-1E+10	1	-1E+10	1	-1E+10	1	-1E+10	1	-1E+10	1	-1E+10	1
4902663	29	C	05/17/2024	13:05	-127.611	48.016	0	30.00	0	10.0140	0	32.0910	0	24.680	0	29.746	0	257.4	4	91.8	4	-1E+10	1	-1E+10	1	-1E+10	1	-1E+10	1	-1E+10	1	-1E+10	1
4902663	29	C	05/17/2024	13:05	-127.611	48.016	0	30.90	0	9.9110	0	32.0960	0	24.701	0	30.638	0	255.7	4	91.0	4	-1E+10	1	-1E+10	1	-1E+10	1	-1E+10	1	-1E+10	1	-1E+10	1
4902663	29	C	05/17/2024	13:05	-127.611	48.016	0	31.90	0	9.7740	0	32.1290	0	24.749	0	31.630	0	253.9	4	90.1	4	-1E+10	1	-1E+10	1	-1E+10	1	-1E+10	1	-1E+10	1	-1E+10	1
4902663	29	C	05/17/2024	13:05	-127.611	48.016	0	33.00	0	9.7020	0	32.1520	0	24.779	0	32.720	0	252.1	4	89.4	4	-1E+10	1	-1E+10	1	-1E+10	1	-1E+10	1	-1E+10	1	-1E+10	1
4902663	29	C	05/17/2024	13:05	-127.611	48.016	0	34.10	0	9.6750	0	32.1790	0	24.804	0	33.811	0	250.5	4	88.8	4	-1E+10	1	-1E+10	1	-1E+10	1	-1E+10	1	-1E+10	1	-1E+10	1
4902663	29	C	05/17/2024	13:05	-127.611	48.016	0	34.90	0	9.7570	0	32.2210	0	24.824	0	34.604	0	248.9	4	88.4	4	-1E+10	1	-1E+10	1	-1E+10	1	-1E+10	1	-1E+10	1	-1E+10	1
4902663	29	C	05/17/2024	13:05	-127.611	48.016	0	36.00	0	9.8030	0	32.2570	0	24.844	0	35.695	0	246.7	4	87.7	4	-1E+10	1	-1E+10	1	-1E+10	1	-1E+10	1	-1E+10	1	-1E+10	1
4902663	29	C	05/17/2024	13:05	-127.611	48.016	0	37.10	0	9.7310	0	32.2720	0	24.868	0	36.785	0	244.5	4	86.8	4	-1E+10	1	-1E+10	1	-1E+10	1	-1E+10	1	-1E+10	1	-1E+10	1
4902663	29	C	05/17/2024	13:05	-127.611	48.016	0	37.90	0	9.7050	0	32.2770	0	24.876	0	37.578	0	242.8	4	86.1	4	-1E+10	1	-1E+10	1	-1E+10	1	-1E+10	1	-1E+10	1	-1E+10	1
4902663	29	C	05/17/2024	13:05	-127.611	48.016	0	39.00	0	9.6310	0	32.2850	0	24.894	0	38.669	0	240.5	4	85.2	4	-1E+10	1	-1E+10	1	-1E+10	1	-1E+10	1	-1E+10	1	-1E+10	1
4902663	29	C	05/17/2024	13:05	-127.611	48.016	0	40.20	0	9.5240	0	32.2940	0	24.918	0	39.859	0	237.9	4	84.1	4	-1E+10	1	-1E+10	1	-1E+10	1	-1E+10	1	-1E+10	1	-1E+10	1
4902663	29	C	05/17/2024	13:05	-127.611	48.016	0	41.00	0	9.3920	0	32.3280	0	24.966	0	40.652	0	236.3	4	83.3	4	-1E+10	1	-1E+10	1	-1E+10	1	-1E+10	1	-1E+10	1	-1E+10	1
4902663	29	C	05/17/2024	13:05	-127.611	48.016	0	41.80	0	9.3410	0	32.3420	0	24.985	0	41.445	0	234.2	4	82.5	4	-1E+10	1	-1E+10	1	-1E+10	1	-1E+10	1	-1E+10	1	-1E+10	1
4902663	29	C	05/17/2024	13:05	-127.611	48.016	0	42.70	0	9.2910	0	32.3470	0	24.997	0	42.337	0	232.0	4	81.6	4	-1E+10	1	-1E+10	1	-1E+10	1	-1E+10	1	-1E+10	1	-1E+10	1
4902663	29	C	05/17/2024	13:05	-127.611	48.016	0	43.60	0	9.2510	0	32.3610	0	25.014	0	43.229	0	229.2	4	80.6	4	-1E+10	1	-1E+10	1	-1E+10	1	-1E+10	1	-1E+10	1	-1E+10	1
4902663	29	C	05/17/2024	13:05	-127.611	48.016	0	44.90	0	9.1900	0	32.3830	0	25.041	0	44.518	0	224.8	4	78.9	4	-1E+10	1	-1E+10	1	-1E+10	1	-1E+10	1	-1E+10	1	-1E+10	1
4902663	29	C	05/17/2024	13:05	-127.611	48.016	0	46.20	0	9.2310	0	32.4070	0	25.053	0	45.807	0	220.5	4	77.5	4	-1E+10	1	-1E+10	1	-1E+10	1	-1E+10	1	-1E+10	1	-1E+10	1
4902663	29	C	05/17/2024	13:05	-127.611	48.016	0	46.80	0	9.2770	0	32.4380	0	25.070	0	46.402	0	219.0	4	77.1	4	-1E+10	1	-1E+10	1	-1E+10	1	-1E+10	1	-1E+10	1	-1E+10	1
4902663	29	C	05/17/2024	13:05	-127.611	48.016	0	47.80	0	9.2070	0	32.4650	0	25.102	0	47.393	0	216.8	4	76.2	4	-1E+10	1	-1E+10	1	-1E+10	1	-1E+10	1	-1E+10	1	-1E+10	1
4902663	29	C	05/17/2024	13:05	-127.611	48.016	0	49.10	0	9.1460	0	32.4800	0	25.124	0	48.682	0	212.9	4	74.7	4	-1E+10	1	-1E+10	1	-1E+10	1	-1E+10	1	-1E+10	1	-1E+10	1
4902663	29	C	05/17/2024	13:05	-127.611	48.016	0	50.10	0	9.1400	0	32.4830	0	25.127	0	49.673	0	209.2	4	73.4	4	-1E+10	1	-1E+10	1	-1E+10	1	-1E+10	1	-1E+10	1	-1E+10	1
4902663	29	C	05/17/2024	13:05	-127.611	48.016	0	51.10	0	9.1330	0	32.4950	0	25.138	0	50.665	0	204.9	4	71.9	4	-1E+10	1	-1E+10	1	-1E+10	1	-1E+10	1	-1E+10	1	-1E+10	1
4902663	29	C	05/17/2024	13:05	-127.611	48.016	0	52.00	0	9.1270	0	32.5020	0	25.144	0	51.557	0	200.0	4	70.2	4	-1E+10	1	-1E+10	1	-1E+10	1	-1E+10	1	-1E+10	1	-1E+10	1
4902663	29	C	05/17/2024	13:05	-127.611	48.016	0	52.90	0	9.1160	0	32.5120	0	25.153	0	52.449	0	194.3	4	68.2	4	-1E+10	1	-1E+10	1	-1E+10	1	-1E+10	1	-1E+10	1	-1E+10	1
4902663	29	C	05/17/2024	13:05	-127.611	48.016	0	53.90	0	9.0670	0	32.5890	0	25.221	0	53.441	0	188.2	4	66.0	4	-1E+10	1	-1E+10	1	-1E+10	1	-1E+10	1	-1E+10	1	-1E+10	1
4902663	29	C	05/17/2024	13:05	-127.611	48.016	0	54.70	0	9.0620	0	32.6320	0	25.256	0	54.234	0	184.3	4	64.7	4	-1E+10	1	-1E+10	1	-1E+10	1	-1E+10	1	-1E+10	1	-1E+10	1
4902663	29	C	05/17/2024	13:05	-127.611	48.016	0	55.80	0	9.0560	0	32.6870	0	25.300	0	55.324	0	179.9	4	63.1	4	-1E+10	1	-1E+10	1	-1E+10	1	-1E+10	1	-1E+10	1	-1E+10	1
4902663	29	C	05/17/2024	13:05	-127.611	48.016	0	57.00	0	9.0360	0	32.7550	0	25.356	0	56.514	0	176.4	4	61.9	4	-1E+10	1	-1E+10	1	-1E+10	1	-1E+10	1	-1E+10	1	-1E+10	1
4902663	29	C	05/17/2024	13:05	-127.611	48.016	0	57.80	0	9.0310	0	32.7590	0	25.360	0	57.307	0	174.0	4	61.0	4	-1E+10	1	-1E+10	1	-1E+10	1	-1E+10	1	-1E+10	1	-1E+10	1
4902663	29	C	05/17/2024	13:05	-127.611	48.016	0	59.00	0	8.9860	0	32.8040	0	25.402	0	58.496	0	169.1	4	59.3	4	-1E+10	1	-1E+10	1	-1E+10	1	-1E+10	1	-1E+10	1	-1E+10	1
4902663	29	C	05/17/2024	13:05	-127.611	48.016	0	60.20	0	8.9160	0	32.8740	0	25.468	0	59.686	0	164.0	4	57.4	4	-1E+10	1	-1E+10	1	-1E+10	1	-1E+10	1	-1E+10	1	-1E+10	1
4902663	29	C	05/17/2024	13:05	-127.611	48.016	0	61.10	0	8.8650	0	32.9610	0	25.544	0	60.578	0	161.0	4	56.4	4	-1E+10	1	-1E+10	1	-1E+10	1	-1E+10	1	-1E+10	1	-1E+10	1
4902663	29	C	05/17/2024	13:05	-127.611	48.016	0	62.00	0	8.8250	0	33.0060	0	25.585	0	61.470	0	158.5	4	55.5	4	-1E+10	1	-1E+10	1	-1E+10	1	-1E+10	1	-1E+10	1	-1E+10	1
4902663	29	C	05/17/2024	13:05	-127.611	48.016	0	63.00	0	8.7020	0	33.0970	0	25.676	0	62.462	0	156.6	4	54.7	4	-1E+10	1	-1E+10	1	-1E+10	1	-1E+10	1	-1E+10	1	-1E+10	1
4902663	29	C	05/17/2024	13:05	-127.611	48.016	0	63.90	0	8.6700	0	33.1320	0	25.708	0	63.354	0	154.9	4	54.1	4	-1E+10	1	-1E+10	1	-1E+10	1	-1E+10	1	-1E+10	1	-1E+10	1
4902663	29	C	05/17/2024	13:05	-127.611	48.016	0	64.90	0	8.6670	0	33.1350	0	25.711	0	64.345	0	153.2	4	53.5	4	-1E+10	1	-1E+10	1	-1E+10	1	-1E+10	1	-1E+10	1	-1E+10	1
4902663	29	C	05/17/2024	13:05	-127.611	48.016	0	65.90	0	8.6280	0	33.1710	0	25.745	0	65.336	0	151.6	4	52.9	4	-1E+10	1	-1E+10	1	-1E+10	1	-1E+10	1	-1E+10	1	-1E+10	1
4902663	29	C	05/17/2024	13:05	-127.611	48.016	0	67.00	0	8.6110	0	33.1850	0	25.759	0	66.427	0	149.9	4	52.3	4	-1E+10	1	-1E+10	1	-1E+10	1	-1E+10	1	-1E+10	1	-1E+10	1
4902663	29	C	05/17/2024	13:05	-127.611	48.016	0	68.00	0	8.5770	0	33.2020	0	25.777	0	67.418	0	148.3	4	51.7	4	-1E+10	1	-1E+10	1	-1E+10	1	-1E+10	1	-1E+10	1	-1E+10	1
4902663	29	C	05/17/2024	13:05	-127.611	48.016	0	69.00	0	8.5720	0	33.2060	0	25.781	0	68.409	0	146.3	4	51.0	4	-1E+10	1	-1E+10	1	-1E+10	1	-1E+10	1	-1E+10	1	-1E+10	1
4902663	29	C	05/17/2024	13:05	-127.611	48.016	0	70.10	0	8.5330	0	33.2480	0	25.820	0	69.500	0	144.5	4	50.3	4	-1E+10	1	-1E+10	1	-1E+10	1	-1E+10	1	-1E+10	1	-1E+10	1
4902663	29	C	05/17/2024	13:05	-127.611	48.016	0	71.20	0	8.5000	0	33.2770	0	25.848	0	70.590	0	142.9	4	49.8	4	-1E+10	1	-1E+10	1	-1E+10	1	-1E+10	1	-1E+10	1	-1E+10	1
4902663	29	C	05/17/2024	13:05	-127.611	48.016	0	72.30	0	8.4680	0	33.3060	0	25.875	0	71.681	0	141.4	4	49.2	4	-1E+10	1	-1E+10	1	-1E+10	1	-1E+10	1	-1E+10	1	-1E+10	1
4902663	29	C	05/17/2024	13:05	-127.611	48.016	0	73.40	0	8.4520	0	33.3180	0	25.887	0	72.771	0	140.0	4	48.7	4	-1E+10	1	-1E+10	1	-1E+10	1	-1E+10	1	-1E+10	1	-1E+10	1
4902663	29	C	05/17/2024	13:05	-127.611	48.016	0	74.50	0	8.4310	0	33.3330	0	25.902	0	73.861	0	138.4	4	48.1	4	-1E+10	1	-1E+10	1	-1E+10	1	-1E+10	1	-1E+10	1	-1E+10	1
4902663	29	C	05/17/2024	13:05	-127.611	48.016	0	75.60	0	8.4130	0	33.3480	0	25.917	0	74.952	0	136.9	4	47.6	4	-1E+10	1	-1E+10	1	-1E+10	1	-1E+10	1	-1E+10	1	-1E+10	1
4902663	29	C	05/17/2024	13:05	-127.611	48.016	0	76.70	0	8.3900	0	33.3710	0	25.938	0	76.042	0	135.1	4	46.9	4	-1E+10	1	-1E+10	1	-1E+10	1	-1E+10	1	-1E+10	1	-1E+10	1
4902663	29	C	05/17/2024	13:05	-127.611	48.016	0	77.80	0	8.3160	0	33.4210	0	25.988	0	77.132	0	133.8	4	46.4	4	-1E+10	1	-1E+10	1	-1E+10	1	-1E+10	1	-1E+10	1	-1E+10	1
4902663	29	C	05/17/2024	13:05	-127.611	48.016	0	78.90	0	8.2610	0	33.4510	0	26.020	0	78.223	0	132.7	4	46.0	4	-1E+10	1	-1E+10	1	-1E+10	1	-1E+10	1	-1E+10	1	-1E+10	1
4902663	29	C	05/17/2024	13:05	-127.611	48.016	0	80.10	0	8.2350	0	33.4670	0	26.037	0	79.412	0	131.6	4	45.6	4	-1E+10	1	-1E+10	1	-1E+10	1	-1E+10	1	-1E+10	1	-1E+10	1
4902663	29	C	05/17/2024	13:05	-127.611	48.016	0	81.20	0	8.2100	0	33.4860	0	26.055	0	80.503	0	130.8	4	45.3	4	-1E+10	1	-1E+10	1	-1E+10	1	-1E+10	1	-1E+10	1	-1E+10	1
4902663	29	C	05/17/2024	13:05	-127.611	48.016	0	82.40	0	8.1800	0	33.5080	0	26.077	0	81.692	0	130.2	4	45.1	4	-1E+10	1	-1E+10	1	-1E+10	1	-1E+10	1	-1E+10	1	-1E+10	1
4902663	29	C	05/17/2024	13:05	-127.611	48.016	0	83.50	0	8.1790	0	33.5110	0	26.080	0	82.782	0	133.0	4	46.0	4	-1E+10	1	-1E+10	1	-1E+10	1	-1E+10	1	-1E+10	1	-1E+10	1
4902663	29	C	05/17/2024	13:05	-127.611	48.016	0	84.60	0	8.1610	0	33.5210	0	26.090	0	83.873	0	132.4	4	45.8	4	-1E+10	1	-1E+10	1	-1E+10	1	-1E+10	1	-1E+10	1	-1E+10	1
4902663	29	C	05/17/2024	13:05	-127.611	48.016	0	85.60	0	8.1370	0	33.5380	0	26.107	0	84.864	0	131.8	4	45.6	4	-1E+10	1	-1E+10	1	-1E+10	1	-1E+10	1	-1E+10	1	-1E+10	1
4902663	29	C	05/17/2024	13:05	-127.611	48.016	0	86.70	0	8.1280	0	33.5440	0	26.113	0	85.954	0	131.3	4	45.4	4	-1E+10	1	-1E+10	1	-1E+10	1	-1E+10	1	-1E+10	1	-1E+10	1
4902663	29	C	05/17/2024	13:05	-127.611	48.016	0	87.80	0	8.1240	0	33.5460	0	26.115	0	87.045	0	130.6	4	45.2	4	-1E+10	1	-1E+10	1	-1E+10	1	-1E+10	1	-1E+10	1	-1E+10	1
4902663	29	C	05/17/2024	13:05	-127.611	48.016	0	88.80	0	8.1010	0	33.5630	0	26.132	0	88.036	0	130.0	4	44.9	4	-1E+10	1	-1E+10	1	-1E+10	1	-1E+10	1	-1E+10	1	-1E+10	1
4902663	29	C	05/17/2024	13:05	-127.611	48.016	0	89.90	0	8.0830	0	33.5770	0	26.146	0	89.126	0	129.5	4	44.7	4	-1E+10	1	-1E+10	1	-1E+10	1	-1E+10	1	-1E+10	1	-1E+10	1
4902663	29	C	05/17/2024	13:05	-127.611	48.016	0	91.00	0	8.0700	0	33.5870	0	26.155	0	90.216	0	129.0	4	44.6	4	-1E+10	1	-1E+10	1	-1E+10	1	-1E+10	1	-1E+10	1	-1E+10	1
4902663	29	C	05/17/2024	13:05	-127.611	48.016	0	92.20	0	8.0560	0	33.6030	0	26.170	0	91.406	0	128.6	4	44.4	4	-1E+10	1	-1E+10	1	-1E+10	1	-1E+10	1	-1E+10	1	-1E+10	1
4902663	29	C	05/17/2024	13:05	-127.611	48.016	0	93.00	0	8.0510	0	33.6080	0	26.175	0	92.199	0	128.3	4	44.3	4	-1E+10	1	-1E+10	1	-1E+10	1	-1E+10	1	-1E+10	1	-1E+10	1
4902663	29	C	05/17/2024	13:05	-127.611	48.016	0	93.80	0	8.0400	0	33.6240	0	26.189	0	92.992	0	128.1	4	44.2	4	-1E+10	1	-1E+10	1	-1E+10	1	-1E+10	1	-1E+10	1	-1E+10	1
4902663	29	C	05/17/2024	13:05	-127.611	48.016	0	94.90	0	8.0330	0	33.6290	0	26.194	0	94.082	0	127.8	4	44.1	4	-1E+10	1	-1E+10	1	-1E+10	1	-1E+10	1	-1E+10	1	-1E+10	1
4902663	29	C	05/17/2024	13:05	-127.611	48.016	0	96.10	0	8.0280	0	33.6340	0	26.199	0	95.271	0	127.4	4	44.0	4	-1E+10	1	-1E+10	1	-1E+10	1	-1E+10	1	-1E+10	1	-1E+10	1
4902663	29	C	05/17/2024	13:05	-127.611	48.016	0	96.90	0	8.0260	0	33.6350	0	26.200	0	96.064	0	127.1	4	43.9	4	-1E+10	1	-1E+10	1	-1E+10	1	-1E+10	1	-1E+10	1	-1E+10	1
4902663	29	C	05/17/2024	13:05	-127.611	48.016	0	97.70	0	8.0160	0	33.6430	0	26.207	0	96.857	0	126.9	4	43.8	4	-1E+10	1	-1E+10	1	-1E+10	1	-1E+10	1	-1E+10	1	-1E+10	1
4902663	29	C	05/17/2024	13:05	-127.611	48.016	0	98.90	0	8.0060	0	33.6490	0	26.214	0	98.046	0	126.7	4	43.7	4	-1E+10	1	-1E+10	1	-1E+10	1	-1E+10	1	-1E+10	1	-1E+10	1
4902663	29	C	05/17/2024	13:05	-127.611	48.016	0	100.10	0	7.9970	0	33.6550	0	26.220	0	99.236	0	126.4	4	43.6	4	-1E+10	1	-1E+10	1	-1E+10	1	-1E+10	1	-1E+10	1	-1E+10	1
4902663	29	C	05/17/2024	13:05	-127.611	48.016	0	100.90	0	7.9890	0	33.6600	0	26.225	0	100.029	0	126.3	4	43.6	4	-1E+10	1	-1E+10	1	-1E+10	1	-1E+10	1	-1E+10	1	-1E+10	1
4902663	29	C	05/17/2024	13:05	-127.611	48.016	0	101.80	0	7.9700	0	33.6670	0	26.233	0	100.921	0	126.2	4	43.5	4	-1E+10	1	-1E+10	1	-1E+10	1	-1E+10	1	-1E+10	1	-1E+10	1
4902663	29	C	05/17/2024	13:05	-127.611	48.016	0	102.70	0	7.9530	0	33.6730	0	26.240	0	101.813	0	126.2	4	43.5	4	-1E+10	1	-1E+10	1	-1E+10	1	-1E+10	1	-1E+10	1	-1E+10	1
4902663	29	C	05/17/2024	13:05	-127.611	48.016	0	103.60	0	7.9520	0	33.6740	0	26.241	0	102.705	0	126.1	4	43.5	4	-1E+10	1	-1E+10	1	-1E+10	1	-1E+10	1	-1E+10	1	-1E+10	1
4902663	29	C	05/17/2024	13:05	-127.611	48.016	0	104.90	0	7.9440	0	33.6760	0	26.244	0	103.993	0	126.0	4	43.4	4	-1E+10	1	-1E+10	1	-1E+10	1	-1E+10	1	-1E+10	1	-1E+10	1
4902663	29	C	05/17/2024	13:05	-127.611	48.016	0	106.30	0	7.9250	0	33.6860	0	26.255	0	105.381	0	125.8	4	43.4	4	-1E+10	1	-1E+10	1	-1E+10	1	-1E+10	1	-1E+10	1	-1E+10	1
4902663	29	C	05/17/2024	13:05	-127.611	48.016	0	107.20	0	7.9200	0	33.6900	0	26.259	0	106.273	0	125.7	4	43.3	4	-1E+10	1	-1E+10	1	-1E+10	1	-1E+10	1	-1E+10	1	-1E+10	1
4902663	29	C	05/17/2024	13:05	-127.611	48.016	0	108.10	0	7.9220	0	33.6970	0	26.264	0	107.165	0	125.4	4	43.2	4	-1E+10	1	-1E+10	1	-1E+10	1	-1E+10	1	-1E+10	1	-1E+10	1
4902663	29	C	05/17/2024	13:05	-127.611	48.016	0	109.00	0	7.9290	0	33.7020	0	26.267	0	108.057	0	125.0	4	43.1	4	-1E+10	1	-1E+10	1	-1E+10	1	-1E+10	1	-1E+10	1	-1E+10	1
4902663	29	C	05/17/2024	13:05	-127.611	48.016	0	109.90	0	7.9330	0	33.7070	0	26.270	0	108.949	0	124.5	4	42.9	4	-1E+10	1	-1E+10	1	-1E+10	1	-1E+10	1	-1E+10	1	-1E+10	1
4902663	29	C	05/17/2024	13:05	-127.611	48.016	0	110.80	0	7.9300	0	33.7130	0	26.275	0	109.841	0	123.9	4	42.7	4	-1E+10	1	-1E+10	1	-1E+10	1	-1E+10	1	-1E+10	1	-1E+10	1
4902663	29	C	05/17/2024	13:05	-127.611	48.016	0	111.70	0	7.9360	0	33.7200	0	26.280	0	110.733	0	123.2	4	42.5	4	-1E+10	1	-1E+10	1	-1E+10	1	-1E+10	1	-1E+10	1	-1E+10	1
4902663	29	C	05/17/2024	13:05	-127.611	48.016	0	112.70	0	7.9360	0	33.7280	0	26.286	0	111.724	0	122.6	4	42.3	4	-1E+10	1	-1E+10	1	-1E+10	1	-1E+10	1	-1E+10	1	-1E+10	1
4902663	29	C	05/17/2024	13:05	-127.611	48.016	0	113.70	0	7.9010	0	33.7380	0	26.299	0	112.715	0	122.2	4	42.1	4	-1E+10	1	-1E+10	1	-1E+10	1	-1E+10	1	-1E+10	1	-1E+10	1
4902663	29	C	05/17/2024	13:05	-127.611	48.016	0	114.70	0	7.8550	0	33.7540	0	26.318	0	113.706	0	121.7	4	41.9	4	-1E+10	1	-1E+10	1	-1E+10	1	-1E+10	1	-1E+10	1	-1E+10	1
4902663	29	C	05/17/2024	13:05	-127.611	48.016	0	115.70	0	7.8530	0	33.7650	0	26.327	0	114.697	0	121.4	4	41.8	4	-1E+10	1	-1E+10	1	-1E+10	1	-1E+10	1	-1E+10	1	-1E+10	1
4902663	29	C	05/17/2024	13:05	-127.611	48.016	0	116.70	0	7.8040	0	33.7710	0	26.339	0	115.688	0	121.0	4	41.6	4	-1E+10	1	-1E+10	1	-1E+10	1	-1E+10	1	-1E+10	1	-1E+10	1
4902663	29	C	05/17/2024	13:05	-127.611	48.016	0	117.80	0	7.7800	0	33.7790	0	26.349	0	116.778	0	120.3	4	41.4	4	-1E+10	1	-1E+10	1	-1E+10	1	-1E+10	1	-1E+10	1	-1E+10	1
4902663	29	C	05/17/2024	13:05	-127.611	48.016	0	118.80	0	7.7790	0	33.7800	0	26.350	0	117.769	0	119.6	4	41.1	4	-1E+10	1	-1E+10	1	-1E+10	1	-1E+10	1	-1E+10	1	-1E+10	1
4902663	29	C	05/17/2024	13:05	-127.611	48.016	0	119.80	0	7.7790	0	33.7820	0	26.352	0	118.760	0	118.9	4	40.9	4	-1E+10	1	-1E+10	1	-1E+10	1	-1E+10	1	-1E+10	1	-1E+10	1
4902663	29	C	05/17/2024	13:05	-127.611	48.016	0	120.90	0	7.7970	0	33.7920	0	26.357	0	119.850	0	118.1	4	40.6	4	-1E+10	1	-1E+10	1	-1E+10	1	-1E+10	1	-1E+10	1	-1E+10	1
4902663	29	C	05/17/2024	13:05	-127.611	48.016	0	122.00	0	7.7910	0	33.8070	0	26.370	0	120.940	0	117.5	4	40.4	4	-1E+10	1	-1E+10	1	-1E+10	1	-1E+10	1	-1E+10	1	-1E+10	1
4902663	29	C	05/17/2024	13:05	-127.611	48.016	0	123.00	0	7.7690	0	33.8060	0	26.372	0	121.931	0	117.0	4	40.2	4	-1E+10	1	-1E+10	1	-1E+10	1	-1E+10	1	-1E+10	1	-1E+10	1
4902663	29	C	05/17/2024	13:05	-127.611	48.016	0	124.10	0	7.7750	0	33.8100	0	26.374	0	123.021	0	116.5	4	40.1	4	-1E+10	1	-1E+10	1	-1E+10	1	-1E+10	1	-1E+10	1	-1E+10	1
4902663	29	C	05/17/2024	13:05	-127.611	48.016	0	125.10	0	7.7710	0	33.8170	0	26.380	0	124.012	0	116.2	4	40.0	4	-1E+10	1	-1E+10	1	-1E+10	1	-1E+10	1	-1E+10	1	-1E+10	1
4902663	29	C	05/17/2024	13:05	-127.611	48.016	0	126.20	0	7.7670	0	33.8230	0	26.386	0	125.103	0	116.1	4	39.9	4	-1E+10	1	-1E+10	1	-1E+10	1	-1E+10	1	-1E+10	1	-1E+10	1
4902663	29	C	05/17/2024	13:05	-127.611	48.016	0	127.20	0	7.7550	0	33.8220	0	26.387	0	126.094	0	116.0	4	39.9	4	-1E+10	1	-1E+10	1	-1E+10	1	-1E+10	1	-1E+10	1	-1E+10	1
4902663	29	C	05/17/2024	13:05	-127.611	48.016	0	128.30	0	7.7470	0	33.8240	0	26.389	0	127.184	0	115.7	4	39.8	4	-1E+10	1	-1E+10	1	-1E+10	1	-1E+10	1	-1E+10	1	-1E+10	1
4902663	29	C	05/17/2024	13:05	-127.611	48.016	0	129.30	0	7.7460	0	33.8260	0	26.391	0	128.175	0	115.5	4	39.7	4	-1E+10	1	-1E+10	1	-1E+10	1	-1E+10	1	-1E+10	1	-1E+10	1
4902663	29	C	05/17/2024	13:05	-127.611	48.016	0	130.40	0	7.7520	0	33.8280	0	26.392	0	129.265	0	115.1	4	39.5	4	-1E+10	1	-1E+10	1	-1E+10	1	-1E+10	1	-1E+10	1	-1E+10	1
4902663	29	C	05/17/2024	13:05	-127.611	48.016	0	131.40	0	7.7650	0	33.8310	0	26.392	0	130.256	0	114.5	4	39.4	4	-1E+10	1	-1E+10	1	-1E+10	1	-1E+10	1	-1E+10	1	-1E+10	1
4902663	29	C	05/17/2024	13:05	-127.611	48.016	0	132.50	0	7.7450	0	33.8330	0	26.397	0	131.346	0	114.2	4	39.2	4	-1E+10	1	-1E+10	1	-1E+10	1	-1E+10	1	-1E+10	1	-1E+10	1
4902663	29	C	05/17/2024	13:05	-127.611	48.016	0	133.60	0	7.7360	0	33.8360	0	26.400	0	132.436	0	113.9	4	39.1	4	-1E+10	1	-1E+10	1	-1E+10	1	-1E+10	1	-1E+10	1	-1E+10	1
4902663	29	C	05/17/2024	13:05	-127.611	48.016	0	134.60	0	7.7130	0	33.8390	0	26.406	0	133.427	0	113.6	4	39.0	4	-1E+10	1	-1E+10	1	-1E+10	1	-1E+10	1	-1E+10	1	-1E+10	1
4902663	29	C	05/17/2024	13:05	-127.611	48.016	0	135.70	0	7.6810	0	33.8440	0	26.415	0	134.517	0	113.3	4	38.9	4	-1E+10	1	-1E+10	1	-1E+10	1	-1E+10	1	-1E+10	1	-1E+10	1
4902663	29	C	05/17/2024	13:05	-127.611	48.016	0	136.80	0	7.6400	0	33.8440	0	26.421	0	135.607	0	113.0	4	38.7	4	-1E+10	1	-1E+10	1	-1E+10	1	-1E+10	1	-1E+10	1	-1E+10	1
4902663	29	C	05/17/2024	13:05	-127.611	48.016	0	137.80	0	7.6320	0	33.8490	0	26.426	0	136.598	0	112.7	4	38.6	4	-1E+10	1	-1E+10	1	-1E+10	1	-1E+10	1	-1E+10	1	-1E+10	1
4902663	29	C	05/17/2024	13:05	-127.611	48.016	0	138.90	0	7.6240	0	33.8500	0	26.428	0	137.688	0	112.2	4	38.5	4	-1E+10	1	-1E+10	1	-1E+10	1	-1E+10	1	-1E+10	1	-1E+10	1
4902663	29	C	05/17/2024	13:05	-127.611	48.016	0	140.00	0	7.6120	0	33.8500	0	26.429	0	138.778	0	111.8	4	38.3	4	-1E+10	1	-1E+10	1	-1E+10	1	-1E+10	1	-1E+10	1	-1E+10	1
4902663	29	C	05/17/2024	13:05	-127.611	48.016	0	141.00	0	7.5920	0	33.8530	0	26.435	0	139.769	0	111.3	4	38.1	4	-1E+10	1	-1E+10	1	-1E+10	1	-1E+10	1	-1E+10	1	-1E+10	1
4902663	29	C	05/17/2024	13:05	-127.611	48.016	0	142.10	0	7.5820	0	33.8540	0	26.437	0	140.859	0	110.8	4	37.9	4	-1E+10	1	-1E+10	1	-1E+10	1	-1E+10	1	-1E+10	1	-1E+10	1
4902663	29	C	05/17/2024	13:05	-127.611	48.016	0	143.10	0	7.5740	0	33.8570	0	26.440	0	141.850	0	110.4	4	37.8	4	-1E+10	1	-1E+10	1	-1E+10	1	-1E+10	1	-1E+10	1	-1E+10	1
4902663	29	C	05/17/2024	13:05	-127.611	48.016	0	144.20	0	7.5580	0	33.8630	0	26.447	0	142.940	0	109.9	4	37.6	4	-1E+10	1	-1E+10	1	-1E+10	1	-1E+10	1	-1E+10	1	-1E+10	1
4902663	29	C	05/17/2024	13:05	-127.611	48.016	0	145.20	0	7.5540	0	33.8610	0	26.446	0	143.931	0	109.4	4	37.4	4	-1E+10	1	-1E+10	1	-1E+10	1	-1E+10	1	-1E+10	1	-1E+10	1
4902663	29	C	05/17/2024	13:05	-127.611	48.016	0	146.20	0	7.5570	0	33.8640	0	26.448	0	144.922	0	108.8	4	37.2	4	-1E+10	1	-1E+10	1	-1E+10	1	-1E+10	1	-1E+10	1	-1E+10	1
4902663	29	C	05/17/2024	13:05	-127.611	48.016	0	147.20	0	7.5530	0	33.8660	0	26.450	0	145.913	0	108.4	4	37.1	4	-1E+10	1	-1E+10	1	-1E+10	1	-1E+10	1	-1E+10	1	-1E+10	1
4902663	29	C	05/17/2024	13:05	-127.611	48.016	0	148.30	0	7.4970	0	33.8730	0	26.464	0	147.003	0	108.0	4	36.9	4	-1E+10	1	-1E+10	1	-1E+10	1	-1E+10	1	-1E+10	1	-1E+10	1
4902663	29	C	05/17/2024	13:05	-127.611	48.016	0	149.30	0	7.4960	0	33.8750	0	26.466	0	147.993	0	107.8	4	36.8	4	-1E+10	1	-1E+10	1	-1E+10	1	-1E+10	1	-1E+10	1	-1E+10	1
4902663	29	C	05/17/2024	13:05	-127.611	48.016	0	150.30	0	7.4880	0	33.8770	0	26.468	0	148.984	0	107.5	4	36.8	4	-1E+10	1	-1E+10	1	-1E+10	1	-1E+10	1	-1E+10	1	-1E+10	1
4902663	29	C	05/17/2024	13:05	-127.611	48.016	0	151.30	0	7.4910	0	33.8840	0	26.473	0	149.975	0	107.3	4	36.7	4	-1E+10	1	-1E+10	1	-1E+10	1	-1E+10	1	-1E+10	1	-1E+10	1
4902663	29	C	05/17/2024	13:05	-127.611	48.016	0	152.30	0	7.4760	0	33.8910	0	26.481	0	150.966	0	107.1	4	36.6	4	-1E+10	1	-1E+10	1	-1E+10	1	-1E+10	1	-1E+10	1	-1E+10	1
4902663	29	C	05/17/2024	13:05	-127.611	48.016	0	153.40	0	7.4530	0	33.8900	0	26.484	0	152.056	0	107.0	4	36.5	4	-1E+10	1	-1E+10	1	-1E+10	1	-1E+10	1	-1E+10	1	-1E+10	1
4902663	29	C	05/17/2024	13:05	-127.611	48.016	0	154.40	0	7.4450	0	33.8890	0	26.484	0	153.047	0	106.8	4	36.5	4	-1E+10	1	-1E+10	1	-1E+10	1	-1E+10	1	-1E+10	1	-1E+10	1
4902663	29	C	05/17/2024	13:05	-127.611	48.016	0	155.40	0	7.4200	0	33.8890	0	26.488	0	154.038	0	106.7	4	36.4	4	-1E+10	1	-1E+10	1	-1E+10	1	-1E+10	1	-1E+10	1	-1E+10	1
4902663	29	C	05/17/2024	13:05	-127.611	48.016	0	156.50	0	7.4050	0	33.8930	0	26.493	0	155.128	0	106.6	4	36.4	4	-1E+10	1	-1E+10	1	-1E+10	1	-1E+10	1	-1E+10	1	-1E+10	1
4902663	29	C	05/17/2024	13:05	-127.611	48.016	0	157.50	0	7.4050	0	33.8930	0	26.493	0	156.119	0	106.5	4	36.3	4	-1E+10	1	-1E+10	1	-1E+10	1	-1E+10	1	-1E+10	1	-1E+10	1
4902663	29	C	05/17/2024	13:05	-127.611	48.016	0	158.50	0	7.4090	0	33.8950	0	26.494	0	157.109	0	106.3	4	36.3	4	-1E+10	1	-1E+10	1	-1E+10	1	-1E+10	1	-1E+10	1	-1E+10	1
4902663	29	C	05/17/2024	13:05	-127.611	48.016	0	159.50	0	7.4120	0	33.8950	0	26.493	0	158.100	0	106.1	4	36.2	4	-1E+10	1	-1E+10	1	-1E+10	1	-1E+10	1	-1E+10	1	-1E+10	1
4902663	29	C	05/17/2024	13:05	-127.611	48.016	0	160.50	0	7.4130	0	33.8970	0	26.495	0	159.091	0	105.9	4	36.1	4	-1E+10	1	-1E+10	1	-1E+10	1	-1E+10	1	-1E+10	1	-1E+10	1
4902663	29	C	05/17/2024	13:05	-127.611	48.016	0	161.50	0	7.4120	0	33.8970	0	26.495	0	160.082	0	105.6	4	36.0	4	-1E+10	1	-1E+10	1	-1E+10	1	-1E+10	1	-1E+10	1	-1E+10	1
4902663	29	C	05/17/2024	13:05	-127.611	48.016	0	162.50	0	7.4100	0	33.8980	0	26.496	0	161.073	0	105.2	4	35.9	4	-1E+10	1	-1E+10	1	-1E+10	1	-1E+10	1	-1E+10	1	-1E+10	1
4902663	29	C	05/17/2024	13:05	-127.611	48.016	0	163.60	0	7.3870	0	33.9040	0	26.504	0	162.163	0	104.8	4	35.7	4	-1E+10	1	-1E+10	1	-1E+10	1	-1E+10	1	-1E+10	1	-1E+10	1
4902663	29	C	05/17/2024	13:05	-127.611	48.016	0	164.60	0	7.3690	0	33.9040	0	26.507	0	163.153	0	104.6	4	35.7	4	-1E+10	1	-1E+10	1	-1E+10	1	-1E+10	1	-1E+10	1	-1E+10	1
4902663	29	C	05/17/2024	13:05	-127.611	48.016	0	165.70	0	7.3270	0	33.9040	0	26.513	0	164.243	0	104.4	4	35.5	4	-1E+10	1	-1E+10	1	-1E+10	1	-1E+10	1	-1E+10	1	-1E+10	1
4902663	29	C	05/17/2024	13:05	-127.611	48.016	0	166.80	0	7.3120	0	33.9040	0	26.515	0	165.333	0	104.2	4	35.5	4	-1E+10	1	-1E+10	1	-1E+10	1	-1E+10	1	-1E+10	1	-1E+10	1
4902663	29	C	05/17/2024	13:05	-127.611	48.016	0	167.90	0	7.3040	0	33.9060	0	26.517	0	166.423	0	104.0	4	35.4	4	-1E+10	1	-1E+10	1	-1E+10	1	-1E+10	1	-1E+10	1	-1E+10	1
4902663	29	C	05/17/2024	13:05	-127.611	48.016	0	169.00	0	7.3040	0	33.9060	0	26.517	0	167.513	0	103.8	4	35.3	4	-1E+10	1	-1E+10	1	-1E+10	1	-1E+10	1	-1E+10	1	-1E+10	1
4902663	29	C	05/17/2024	13:05	-127.611	48.016	0	170.10	0	7.3030	0	33.9060	0	26.518	0	168.603	0	103.7	4	35.3	4	-1E+10	1	-1E+10	1	-1E+10	1	-1E+10	1	-1E+10	1	-1E+10	1
4902663	29	C	05/17/2024	13:05	-127.611	48.016	0	171.20	0	7.2990	0	33.9070	0	26.519	0	169.693	0	103.5	4	35.2	4	-1E+10	1	-1E+10	1	-1E+10	1	-1E+10	1	-1E+10	1	-1E+10	1
4902663	29	C	05/17/2024	13:05	-127.611	48.016	0	172.30	0	7.2950	0	33.9070	0	26.519	0	170.783	0	103.3	4	35.1	4	-1E+10	1	-1E+10	1	-1E+10	1	-1E+10	1	-1E+10	1	-1E+10	1
4902663	29	C	05/17/2024	13:05	-127.611	48.016	0	173.40	0	7.2820	0	33.9090	0	26.523	0	171.872	0	103.1	4	35.1	4	-1E+10	1	-1E+10	1	-1E+10	1	-1E+10	1	-1E+10	1	-1E+10	1
4902663	29	C	05/17/2024	13:05	-127.611	48.016	0	174.50	0	7.2760	0	33.9090	0	26.524	0	172.962	0	103.1	4	35.1	4	-1E+10	1	-1E+10	1	-1E+10	1	-1E+10	1	-1E+10	1	-1E+10	1
4902663	29	C	05/17/2024	13:05	-127.611	48.016	0	175.60	0	7.2750	0	33.9100	0	26.525	0	174.052	0	103.0	4	35.0	4	-1E+10	1	-1E+10	1	-1E+10	1	-1E+10	1	-1E+10	1	-1E+10	1
4902663	29	C	05/17/2024	13:05	-127.611	48.016	0	176.80	0	7.2640	0	33.9100	0	26.526	0	175.241	0	103.0	4	35.0	4	-1E+10	1	-1E+10	1	-1E+10	1	-1E+10	1	-1E+10	1	-1E+10	1
4902663	29	C	05/17/2024	13:05	-127.611	48.016	0	177.90	0	7.2510	0	33.9110	0	26.529	0	176.331	0	103.1	4	35.1	4	-1E+10	1	-1E+10	1	-1E+10	1	-1E+10	1	-1E+10	1	-1E+10	1
4902663	29	C	05/17/2024	13:05	-127.611	48.016	0	179.00	0	7.2360	0	33.9120	0	26.532	0	177.421	0	103.2	4	35.1	4	-1E+10	1	-1E+10	1	-1E+10	1	-1E+10	1	-1E+10	1	-1E+10	1
4902663	29	C	05/17/2024	13:05	-127.611	48.016	0	180.10	0	7.1980	0	33.9160	0	26.540	0	178.511	0	103.3	4	35.1	4	-1E+10	1	-1E+10	1	-1E+10	1	-1E+10	1	-1E+10	1	-1E+10	1
4902663	29	C	05/17/2024	13:05	-127.611	48.016	0	181.20	0	7.1450	0	33.9050	0	26.539	0	179.600	0	103.0	4	34.9	4	-1E+10	1	-1E+10	1	-1E+10	1	-1E+10	1	-1E+10	1	-1E+10	1
4902663	29	C	05/17/2024	13:05	-127.611	48.016	0	182.40	0	7.1520	0	33.9100	0	26.542	0	180.789	0	102.8	4	34.9	4	-1E+10	1	-1E+10	1	-1E+10	1	-1E+10	1	-1E+10	1	-1E+10	1
4902663	29	C	05/17/2024	13:05	-127.611	48.016	0	183.50	0	7.1560	0	33.9130	0	26.544	0	181.879	0	102.9	4	34.9	4	-1E+10	1	-1E+10	1	-1E+10	1	-1E+10	1	-1E+10	1	-1E+10	1
4902663	29	C	05/17/2024	13:05	-127.611	48.016	0	184.60	0	7.1470	0	33.9110	0	26.543	0	182.969	0	103.0	4	34.9	4	-1E+10	1	-1E+10	1	-1E+10	1	-1E+10	1	-1E+10	1	-1E+10	1
4902663	29	C	05/17/2024	13:05	-127.611	48.016	0	185.80	0	7.1010	0	33.9090	0	26.548	0	184.158	0	102.9	4	34.9	4	-1E+10	1	-1E+10	1	-1E+10	1	-1E+10	1	-1E+10	1	-1E+10	1
4902663	29	C	05/17/2024	13:05	-127.611	48.016	0	186.90	0	7.0980	0	33.9070	0	26.547	0	185.247	0	102.6	4	34.8	4	-1E+10	1	-1E+10	1	-1E+10	1	-1E+10	1	-1E+10	1	-1E+10	1
4902663	29	C	05/17/2024	13:05	-127.611	48.016	0	188.10	0	7.0690	0	33.9070	0	26.551	0	186.436	0	102.4	4	34.7	4	-1E+10	1	-1E+10	1	-1E+10	1	-1E+10	1	-1E+10	1	-1E+10	1
4902663	29	C	05/17/2024	13:05	-127.611	48.016	0	189.20	0	7.0420	0	33.9070	0	26.555	0	187.526	0	102.0	4	34.5	4	-1E+10	1	-1E+10	1	-1E+10	1	-1E+10	1	-1E+10	1	-1E+10	1
4902663	29	C	05/17/2024	13:05	-127.611	48.016	0	190.40	0	7.0360	0	33.9070	0	26.555	0	188.715	0	101.6	4	34.4	4	-1E+10	1	-1E+10	1	-1E+10	1	-1E+10	1	-1E+10	1	-1E+10	1
4902663	29	C	05/17/2024	13:05	-127.611	48.016	0	191.60	0	7.0370	0	33.9110	0	26.559	0	189.904	0	101.3	4	34.3	4	-1E+10	1	-1E+10	1	-1E+10	1	-1E+10	1	-1E+10	1	-1E+10	1
4902663	29	C	05/17/2024	13:05	-127.611	48.016	0	192.80	0	7.0320	0	33.9100	0	26.558	0	191.093	0	101.2	4	34.2	4	-1E+10	1	-1E+10	1	-1E+10	1	-1E+10	1	-1E+10	1	-1E+10	1
4902663	29	C	05/17/2024	13:05	-127.611	48.016	0	194.00	0	7.0180	0	33.9100	0	26.560	0	192.281	0	101.0	4	34.2	4	-1E+10	1	-1E+10	1	-1E+10	1	-1E+10	1	-1E+10	1	-1E+10	1
4902663	29	C	05/17/2024	13:05	-127.611	48.016	0	195.10	0	6.9950	0	33.9140	0	26.567	0	193.371	0	100.7	4	34.0	4	-1E+10	1	-1E+10	1	-1E+10	1	-1E+10	1	-1E+10	1	-1E+10	1
4902663	29	C	05/17/2024	13:05	-127.611	48.016	0	196.30	0	6.9400	0	33.9050	0	26.567	0	194.560	0	100.0	4	33.8	4	-1E+10	1	-1E+10	1	-1E+10	1	-1E+10	1	-1E+10	1	-1E+10	1
4902663	29	C	05/17/2024	13:05	-127.611	48.016	0	197.50	0	6.9160	0	33.9050	0	26.570	0	195.749	0	99.1	4	33.4	4	-1E+10	1	-1E+10	1	-1E+10	1	-1E+10	1	-1E+10	1	-1E+10	1
4902663	29	C	05/17/2024	13:05	-127.611	48.016	0	198.70	0	6.8950	0	33.9080	0	26.576	0	196.938	0	98.2	4	33.1	4	-1E+10	1	-1E+10	1	-1E+10	1	-1E+10	1	-1E+10	1	-1E+10	1
4902663	29	C	05/17/2024	13:05	-127.611	48.016	0	199.90	0	6.8850	0	33.9070	0	26.576	0	198.126	0	97.2	4	32.8	4	-1E+10	1	-1E+10	1	-1E+10	1	-1E+10	1	-1E+10	1	-1E+10	1
4902663	29	C	05/17/2024	13:05	-127.611	48.016	0	201.10	0	6.8900	0	33.9070	0	26.575	0	199.315	0	96.2	4	32.4	4	-1E+10	1	-1E+10	1	-1E+10	1	-1E+10	1	-1E+10	1	-1E+10	1
4902663	29	C	05/17/2024	13:05	-127.611	48.016	0	202.20	0	6.9010	0	33.9130	0	26.579	0	200.405	0	95.2	4	32.1	4	-1E+10	1	-1E+10	1	-1E+10	1	-1E+10	1	-1E+10	1	-1E+10	1
4902663	29	C	05/17/2024	13:05	-127.611	48.016	0	203.40	0	6.9200	0	33.9210	0	26.582	0	201.594	0	94.4	4	31.9	4	-1E+10	1	-1E+10	1	-1E+10	1	-1E+10	1	-1E+10	1	-1E+10	1
4902663	29	C	05/17/2024	13:05	-127.611	48.016	0	204.60	0	6.9090	0	33.9240	0	26.586	0	202.782	0	93.9	4	31.7	4	-1E+10	1	-1E+10	1	-1E+10	1	-1E+10	1	-1E+10	1	-1E+10	1
4902663	29	C	05/17/2024	13:05	-127.611	48.016	0	205.70	0	6.9010	0	33.9240	0	26.587	0	203.872	0	93.4	4	31.5	4	-1E+10	1	-1E+10	1	-1E+10	1	-1E+10	1	-1E+10	1	-1E+10	1
4902663	29	C	05/17/2024	13:05	-127.611	48.016	0	206.90	0	6.8980	0	33.9240	0	26.588	0	205.061	0	92.9	4	31.3	4	-1E+10	1	-1E+10	1	-1E+10	1	-1E+10	1	-1E+10	1	-1E+10	1
4902663	29	C	05/17/2024	13:05	-127.611	48.016	0	208.10	0	6.8940	0	33.9240	0	26.588	0	206.249	0	92.4	4	31.2	4	-1E+10	1	-1E+10	1	-1E+10	1	-1E+10	1	-1E+10	1	-1E+10	1
4902663	29	C	05/17/2024	13:05	-127.611	48.016	0	209.30	0	6.8930	0	33.9250	0	26.589	0	207.438	0	91.8	4	31.0	4	-1E+10	1	-1E+10	1	-1E+10	1	-1E+10	1	-1E+10	1	-1E+10	1
4902663	29	C	05/17/2024	13:05	-127.611	48.016	0	210.40	0	6.8790	0	33.9270	0	26.593	0	208.528	0	91.1	4	30.7	4	-1E+10	1	-1E+10	1	-1E+10	1	-1E+10	1	-1E+10	1	-1E+10	1
4902663	29	C	05/17/2024	13:05	-127.611	48.016	0	211.60	0	6.8620	0	33.9290	0	26.597	0	209.717	0	90.3	4	30.4	4	-1E+10	1	-1E+10	1	-1E+10	1	-1E+10	1	-1E+10	1	-1E+10	1
4902663	29	C	05/17/2024	13:05	-127.611	48.016	0	212.70	0	6.8530	0	33.9260	0	26.596	0	210.806	0	89.4	4	30.1	4	-1E+10	1	-1E+10	1	-1E+10	1	-1E+10	1	-1E+10	1	-1E+10	1
4902663	29	C	05/17/2024	13:05	-127.611	48.016	0	213.90	0	6.8470	0	33.9300	0	26.600	0	211.995	0	88.8	4	29.9	4	-1E+10	1	-1E+10	1	-1E+10	1	-1E+10	1	-1E+10	1	-1E+10	1
4902663	29	C	05/17/2024	13:05	-127.611	48.016	0	215.00	0	6.8440	0	33.9340	0	26.603	0	213.085	0	88.2	4	29.7	4	-1E+10	1	-1E+10	1	-1E+10	1	-1E+10	1	-1E+10	1	-1E+10	1
4902663	29	C	05/17/2024	13:05	-127.611	48.016	0	216.20	0	6.8250	0	33.9370	0	26.608	0	214.273	0	87.6	4	29.5	4	-1E+10	1	-1E+10	1	-1E+10	1	-1E+10	1	-1E+10	1	-1E+10	1
4902663	29	C	05/17/2024	13:05	-127.611	48.016	0	217.30	0	6.8210	0	33.9400	0	26.611	0	215.363	0	87.1	4	29.3	4	-1E+10	1	-1E+10	1	-1E+10	1	-1E+10	1	-1E+10	1	-1E+10	1
4902663	29	C	05/17/2024	13:05	-127.611	48.016	0	218.50	0	6.8050	0	33.9400	0	26.613	0	216.552	0	86.6	4	29.2	4	-1E+10	1	-1E+10	1	-1E+10	1	-1E+10	1	-1E+10	1	-1E+10	1
4902663	29	C	05/17/2024	13:05	-127.611	48.016	0	219.60	0	6.7890	0	33.9430	0	26.618	0	217.641	0	86.2	4	29.0	4	-1E+10	1	-1E+10	1	-1E+10	1	-1E+10	1	-1E+10	1	-1E+10	1
4902663	29	C	05/17/2024	13:05	-127.611	48.016	0	220.70	0	6.7580	0	33.9420	0	26.621	0	218.731	0	85.9	4	28.9	4	-1E+10	1	-1E+10	1	-1E+10	1	-1E+10	1	-1E+10	1	-1E+10	1
4902663	29	C	05/17/2024	13:05	-127.611	48.016	0	221.90	0	6.7490	0	33.9430	0	26.623	0	219.919	0	85.6	4	28.8	4	-1E+10	1	-1E+10	1	-1E+10	1	-1E+10	1	-1E+10	1	-1E+10	1
4902663	29	C	05/17/2024	13:05	-127.611	48.016	0	223.00	0	6.7390	0	33.9420	0	26.624	0	221.009	0	85.2	4	28.6	4	-1E+10	1	-1E+10	1	-1E+10	1	-1E+10	1	-1E+10	1	-1E+10	1
4902663	29	C	05/17/2024	13:05	-127.611	48.016	0	224.20	0	6.7280	0	33.9450	0	26.627	0	222.198	0	84.9	4	28.5	4	-1E+10	1	-1E+10	1	-1E+10	1	-1E+10	1	-1E+10	1	-1E+10	1
4902663	29	C	05/17/2024	13:05	-127.611	48.016	0	225.30	0	6.7260	0	33.9450	0	26.628	0	223.287	0	84.6	4	28.4	4	-1E+10	1	-1E+10	1	-1E+10	1	-1E+10	1	-1E+10	1	-1E+10	1
4902663	29	C	05/17/2024	13:05	-127.611	48.016	0	226.40	0	6.7240	0	33.9460	0	26.629	0	224.377	0	84.3	4	28.3	4	-1E+10	1	-1E+10	1	-1E+10	1	-1E+10	1	-1E+10	1	-1E+10	1
4902663	29	C	05/17/2024	13:05	-127.611	48.016	0	227.60	0	6.7280	0	33.9470	0	26.629	0	225.565	0	84.0	4	28.2	4	-1E+10	1	-1E+10	1	-1E+10	1	-1E+10	1	-1E+10	1	-1E+10	1
4902663	29	C	05/17/2024	13:05	-127.611	48.016	0	228.90	0	6.7180	0	33.9470	0	26.630	0	226.853	0	83.6	4	28.1	4	-1E+10	1	-1E+10	1	-1E+10	1	-1E+10	1	-1E+10	1	-1E+10	1
4902663	29	C	05/17/2024	13:05	-127.611	48.016	0	230.10	0	6.7190	0	33.9480	0	26.631	0	228.042	0	83.1	4	27.9	4	-1E+10	1	-1E+10	1	-1E+10	1	-1E+10	1	-1E+10	1	-1E+10	1
4902663	29	C	05/17/2024	13:05	-127.611	48.016	0	231.00	0	6.7210	0	33.9490	0	26.632	0	228.933	0	82.8	4	27.8	4	-1E+10	1	-1E+10	1	-1E+10	1	-1E+10	1	-1E+10	1	-1E+10	1
4902663	29	C	05/17/2024	13:05	-127.611	48.016	0	231.80	0	6.7200	0	33.9490	0	26.632	0	229.726	0	82.4	4	27.7	4	-1E+10	1	-1E+10	1	-1E+10	1	-1E+10	1	-1E+10	1	-1E+10	1
4902663	29	C	05/17/2024	13:05	-127.611	48.016	0	233.00	0	6.7140	0	33.9490	0	26.633	0	230.914	0	81.9	4	27.5	4	-1E+10	1	-1E+10	1	-1E+10	1	-1E+10	1	-1E+10	1	-1E+10	1
4902663	29	C	05/17/2024	13:05	-127.611	48.016	0	234.20	0	6.6940	0	33.9480	0	26.634	0	232.103	0	81.4	4	27.3	4	-1E+10	1	-1E+10	1	-1E+10	1	-1E+10	1	-1E+10	1	-1E+10	1
4902663	29	C	05/17/2024	13:05	-127.611	48.016	0	235.00	0	6.6580	0	33.9470	0	26.638	0	232.895	0	81.1	4	27.2	4	-1E+10	1	-1E+10	1	-1E+10	1	-1E+10	1	-1E+10	1	-1E+10	1
4902663	29	C	05/17/2024	13:05	-127.611	48.016	0	235.80	0	6.6420	0	33.9470	0	26.641	0	233.688	0	80.8	4	27.1	4	-1E+10	1	-1E+10	1	-1E+10	1	-1E+10	1	-1E+10	1	-1E+10	1
4902663	29	C	05/17/2024	13:05	-127.611	48.016	0	237.00	0	6.6460	0	33.9490	0	26.642	0	234.876	0	80.1	4	26.9	4	-1E+10	1	-1E+10	1	-1E+10	1	-1E+10	1	-1E+10	1	-1E+10	1
4902663	29	C	05/17/2024	13:05	-127.611	48.016	0	238.20	0	6.6620	0	33.9560	0	26.645	0	236.065	0	79.4	4	26.7	4	-1E+10	1	-1E+10	1	-1E+10	1	-1E+10	1	-1E+10	1	-1E+10	1
4902663	29	C	05/17/2024	13:05	-127.611	48.016	0	238.90	0	6.6640	0	33.9590	0	26.647	0	236.758	0	79.1	4	26.6	4	-1E+10	1	-1E+10	1	-1E+10	1	-1E+10	1	-1E+10	1	-1E+10	1
4902663	29	C	05/17/2024	13:05	-127.611	48.016	0	239.80	0	6.6440	0	33.9580	0	26.649	0	237.649	0	78.8	4	26.4	4	-1E+10	1	-1E+10	1	-1E+10	1	-1E+10	1	-1E+10	1	-1E+10	1
4902663	29	C	05/17/2024	13:05	-127.611	48.016	0	241.00	0	6.6360	0	33.9600	0	26.652	0	238.838	0	78.5	4	26.3	4	-1E+10	1	-1E+10	1	-1E+10	1	-1E+10	1	-1E+10	1	-1E+10	1
4902663	29	C	05/17/2024	13:05	-127.611	48.016	0	242.20	0	6.6300	0	33.9620	0	26.654	0	240.026	0	78.1	4	26.2	4	-1E+10	1	-1E+10	1	-1E+10	1	-1E+10	1	-1E+10	1	-1E+10	1
4902663	29	C	05/17/2024	13:05	-127.611	48.016	0	243.00	0	6.6290	0	33.9630	0	26.655	0	240.819	0	77.9	4	26.1	4	-1E+10	1	-1E+10	1	-1E+10	1	-1E+10	1	-1E+10	1	-1E+10	1
4902663	29	C	05/17/2024	13:05	-127.611	48.016	0	243.90	0	6.6260	0	33.9630	0	26.655	0	241.710	0	77.6	4	26.0	4	-1E+10	1	-1E+10	1	-1E+10	1	-1E+10	1	-1E+10	1	-1E+10	1
4902663	29	C	05/17/2024	13:05	-127.611	48.016	0	244.70	0	6.6250	0	33.9620	0	26.655	0	242.503	0	77.4	4	25.9	4	-1E+10	1	-1E+10	1	-1E+10	1	-1E+10	1	-1E+10	1	-1E+10	1
4902663	29	C	05/17/2024	13:05	-127.611	48.016	0	245.90	0	6.6160	0	33.9620	0	26.656	0	243.691	0	77.0	4	25.8	4	-1E+10	1	-1E+10	1	-1E+10	1	-1E+10	1	-1E+10	1	-1E+10	1
4902663	29	C	05/17/2024	13:05	-127.611	48.016	0	247.10	0	6.6150	0	33.9640	0	26.658	0	244.880	0	76.6	4	25.7	4	-1E+10	1	-1E+10	1	-1E+10	1	-1E+10	1	-1E+10	1	-1E+10	1
4902663	29	C	05/17/2024	13:05	-127.611	48.016	0	248.00	0	6.6140	0	33.9640	0	26.658	0	245.771	0	76.3	4	25.6	4	-1E+10	1	-1E+10	1	-1E+10	1	-1E+10	1	-1E+10	1	-1E+10	1
4902663	29	C	05/17/2024	13:05	-127.611	48.016	0	248.80	0	6.6090	0	33.9650	0	26.659	0	246.563	0	76.0	4	25.5	4	-1E+10	1	-1E+10	1	-1E+10	1	-1E+10	1	-1E+10	1	-1E+10	1
4902663	29	C	05/17/2024	13:05	-127.611	48.016	0	249.70	0	6.5820	0	33.9680	0	26.665	0	247.455	0	75.8	4	25.4	4	-1E+10	1	-1E+10	1	-1E+10	1	-1E+10	1	-1E+10	1	-1E+10	1
4902663	29	C	05/17/2024	13:05	-127.611	48.016	0	250.90	0	6.5710	0	33.9670	0	26.666	0	248.643	0	75.5	4	25.3	4	-1E+10	1	-1E+10	1	-1E+10	1	-1E+10	1	-1E+10	1	-1E+10	1
4902663	29	C	05/17/2024	13:05	-127.611	48.016	0	252.20	0	6.5620	0	33.9680	0	26.668	0	249.931	0	75.2	4	25.2	4	-1E+10	1	-1E+10	1	-1E+10	1	-1E+10	1	-1E+10	1	-1E+10	1
4902663	29	C	05/17/2024	13:05	-127.611	48.016	0	253.10	0	6.5580	0	33.9680	0	26.668	0	250.822	0	74.9	4	25.1	4	-1E+10	1	-1E+10	1	-1E+10	1	-1E+10	1	-1E+10	1	-1E+10	1
4902663	29	C	05/17/2024	13:05	-127.611	48.016	0	254.00	0	6.5480	0	33.9690	0	26.671	0	251.713	0	74.7	4	25.0	4	-1E+10	1	-1E+10	1	-1E+10	1	-1E+10	1	-1E+10	1	-1E+10	1
4902663	29	C	05/17/2024	13:05	-127.611	48.016	0	254.80	0	6.5240	0	33.9660	0	26.671	0	252.506	0	74.4	4	24.9	4	-1E+10	1	-1E+10	1	-1E+10	1	-1E+10	1	-1E+10	1	-1E+10	1
4902663	29	C	05/17/2024	13:05	-127.611	48.016	0	255.70	0	6.5140	0	33.9630	0	26.670	0	253.397	0	74.0	4	24.8	4	-1E+10	1	-1E+10	1	-1E+10	1	-1E+10	1	-1E+10	1	-1E+10	1
4902663	29	C	05/17/2024	13:05	-127.611	48.016	0	256.90	0	6.5070	0	33.9660	0	26.674	0	254.586	0	73.5	4	24.6	4	-1E+10	1	-1E+10	1	-1E+10	1	-1E+10	1	-1E+10	1	-1E+10	1
4902663	29	C	05/17/2024	13:05	-127.611	48.016	0	258.30	0	6.4940	0	33.9700	0	26.678	0	255.972	0	73.0	4	24.4	4	-1E+10	1	-1E+10	1	-1E+10	1	-1E+10	1	-1E+10	1	-1E+10	1
4902663	29	C	05/17/2024	13:05	-127.611	48.016	0	259.10	0	6.4950	0	33.9710	0	26.679	0	256.764	0	72.8	4	24.3	4	-1E+10	1	-1E+10	1	-1E+10	1	-1E+10	1	-1E+10	1	-1E+10	1
4902663	29	C	05/17/2024	13:05	-127.611	48.016	0	260.00	0	6.4950	0	33.9710	0	26.679	0	257.656	0	72.5	4	24.2	4	-1E+10	1	-1E+10	1	-1E+10	1	-1E+10	1	-1E+10	1	-1E+10	1
4902663	29	C	05/17/2024	13:05	-127.611	48.016	0	260.80	0	6.4950	0	33.9720	0	26.680	0	258.448	0	72.2	4	24.1	4	-1E+10	1	-1E+10	1	-1E+10	1	-1E+10	1	-1E+10	1	-1E+10	1
4902663	29	C	05/17/2024	13:05	-127.611	48.016	0	261.70	0	6.4950	0	33.9720	0	26.680	0	259.339	0	71.9	4	24.0	4	-1E+10	1	-1E+10	1	-1E+10	1	-1E+10	1	-1E+10	1	-1E+10	1
4902663	29	C	05/17/2024	13:05	-127.611	48.016	0	262.60	0	6.4920	0	33.9750	0	26.683	0	260.231	0	71.6	4	24.0	4	-1E+10	1	-1E+10	1	-1E+10	1	-1E+10	1	-1E+10	1	-1E+10	1
4902663	29	C	05/17/2024	13:05	-127.611	48.016	0	263.90	0	6.4860	0	33.9770	0	26.685	0	261.518	0	71.3	4	23.8	4	-1E+10	1	-1E+10	1	-1E+10	1	-1E+10	1	-1E+10	1	-1E+10	1
4902663	29	C	05/17/2024	13:05	-127.611	48.016	0	265.30	0	6.4850	0	33.9770	0	26.685	0	262.904	0	70.9	4	23.7	4	-1E+10	1	-1E+10	1	-1E+10	1	-1E+10	1	-1E+10	1	-1E+10	1
4902663	29	C	05/17/2024	13:05	-127.611	48.016	0	266.20	0	6.4740	0	33.9800	0	26.689	0	263.796	0	70.6	4	23.6	4	-1E+10	1	-1E+10	1	-1E+10	1	-1E+10	1	-1E+10	1	-1E+10	1
4902663	29	C	05/17/2024	13:05	-127.611	48.016	0	267.20	0	6.4620	0	33.9800	0	26.691	0	264.786	0	70.5	4	23.5	4	-1E+10	1	-1E+10	1	-1E+10	1	-1E+10	1	-1E+10	1	-1E+10	1
4902663	29	C	05/17/2024	13:05	-127.611	48.016	0	268.10	0	6.4500	0	33.9800	0	26.692	0	265.677	0	70.3	4	23.5	4	-1E+10	1	-1E+10	1	-1E+10	1	-1E+10	1	-1E+10	1	-1E+10	1
4902663	29	C	05/17/2024	13:05	-127.611	48.016	0	269.00	0	6.4350	0	33.9810	0	26.695	0	266.569	0	70.2	4	23.4	4	-1E+10	1	-1E+10	1	-1E+10	1	-1E+10	1	-1E+10	1	-1E+10	1
4902663	29	C	05/17/2024	13:05	-127.611	48.016	0	270.00	0	6.4180	0	33.9770	0	26.694	0	267.559	0	70.0	4	23.4	4	-1E+10	1	-1E+10	1	-1E+10	1	-1E+10	1	-1E+10	1	-1E+10	1
4902663	29	C	05/17/2024	13:05	-127.611	48.016	0	270.90	0	6.3940	0	33.9760	0	26.696	0	268.450	0	69.8	4	23.3	4	-1E+10	1	-1E+10	1	-1E+10	1	-1E+10	1	-1E+10	1	-1E+10	1
4902663	29	C	05/17/2024	13:05	-127.611	48.016	0	271.80	0	6.3750	0	33.9770	0	26.700	0	269.342	0	69.5	4	23.2	4	-1E+10	1	-1E+10	1	-1E+10	1	-1E+10	1	-1E+10	1	-1E+10	1
4902663	29	C	05/17/2024	13:05	-127.611	48.016	0	272.80	0	6.3760	0	33.9740	0	26.697	0	270.332	0	69.3	4	23.1	4	-1E+10	1	-1E+10	1	-1E+10	1	-1E+10	1	-1E+10	1	-1E+10	1
4902663	29	C	05/17/2024	13:05	-127.611	48.016	0	273.70	0	6.3890	0	33.9790	0	26.699	0	271.223	0	69.0	4	23.0	4	-1E+10	1	-1E+10	1	-1E+10	1	-1E+10	1	-1E+10	1	-1E+10	1
4902663	29	C	05/17/2024	13:05	-127.611	48.016	0	274.70	0	6.3610	0	33.9770	0	26.701	0	272.213	0	68.8	4	22.9	4	-1E+10	1	-1E+10	1	-1E+10	1	-1E+10	1	-1E+10	1	-1E+10	1
4902663	29	C	05/17/2024	13:05	-127.611	48.016	0	275.60	0	6.3340	0	33.9750	0	26.703	0	273.105	0	68.4	4	22.8	4	-1E+10	1	-1E+10	1	-1E+10	1	-1E+10	1	-1E+10	1	-1E+10	1
4902663	29	C	05/17/2024	13:05	-127.611	48.016	0	276.60	0	6.3160	0	33.9710	0	26.703	0	274.095	0	68.1	4	22.7	4	-1E+10	1	-1E+10	1	-1E+10	1	-1E+10	1	-1E+10	1	-1E+10	1
4902663	29	C	05/17/2024	13:05	-127.611	48.016	0	277.90	0	6.3190	0	33.9750	0	26.705	0	275.382	0	67.7	4	22.5	4	-1E+10	1	-1E+10	1	-1E+10	1	-1E+10	1	-1E+10	1	-1E+10	1
4902663	29	C	05/17/2024	13:05	-127.611	48.016	0	279.40	0	6.3020	0	33.9770	0	26.709	0	276.868	0	67.2	4	22.4	4	-1E+10	1	-1E+10	1	-1E+10	1	-1E+10	1	-1E+10	1	-1E+10	1
4902663	29	C	05/17/2024	13:05	-127.611	48.016	0	280.30	0	6.2970	0	33.9750	0	26.708	0	277.759	0	66.9	4	22.3	4	-1E+10	1	-1E+10	1	-1E+10	1	-1E+10	1	-1E+10	1	-1E+10	1
4902663	29	C	05/17/2024	13:05	-127.611	48.016	0	281.30	0	6.2980	0	33.9770	0	26.710	0	278.749	0	66.7	4	22.2	4	-1E+10	1	-1E+10	1	-1E+10	1	-1E+10	1	-1E+10	1	-1E+10	1
4902663	29	C	05/17/2024	13:05	-127.611	48.016	0	282.30	0	6.2960	0	33.9830	0	26.715	0	279.740	0	66.5	4	22.1	4	-1E+10	1	-1E+10	1	-1E+10	1	-1E+10	1	-1E+10	1	-1E+10	1
4902663	29	C	05/17/2024	13:05	-127.611	48.016	0	283.20	0	6.2980	0	33.9830	0	26.714	0	280.631	0	66.4	4	22.1	4	-1E+10	1	-1E+10	1	-1E+10	1	-1E+10	1	-1E+10	1	-1E+10	1
4902663	29	C	05/17/2024	13:05	-127.611	48.016	0	284.20	0	6.3000	0	33.9840	0	26.715	0	281.621	0	66.3	4	22.1	4	-1E+10	1	-1E+10	1	-1E+10	1	-1E+10	1	-1E+10	1	-1E+10	1
4902663	29	C	05/17/2024	13:05	-127.611	48.016	0	285.20	0	6.2900	0	33.9830	0	26.715	0	282.611	0	66.1	4	22.0	4	-1E+10	1	-1E+10	1	-1E+10	1	-1E+10	1	-1E+10	1	-1E+10	1
4902663	29	C	05/17/2024	13:05	-127.611	48.016	0	286.20	0	6.2750	0	33.9820	0	26.717	0	283.601	0	66.0	4	21.9	4	-1E+10	1	-1E+10	1	-1E+10	1	-1E+10	1	-1E+10	1	-1E+10	1
4902663	29	C	05/17/2024	13:05	-127.611	48.016	0	287.10	0	6.2590	0	33.9810	0	26.718	0	284.493	0	65.8	4	21.9	4	-1E+10	1	-1E+10	1	-1E+10	1	-1E+10	1	-1E+10	1	-1E+10	1
4902663	29	C	05/17/2024	13:05	-127.611	48.016	0	288.10	0	6.2480	0	33.9820	0	26.720	0	285.483	0	65.6	4	21.8	4	-1E+10	1	-1E+10	1	-1E+10	1	-1E+10	1	-1E+10	1	-1E+10	1
4902663	29	C	05/17/2024	13:05	-127.611	48.016	0	289.10	0	6.2070	0	33.9780	0	26.722	0	286.473	0	65.4	4	21.7	4	-1E+10	1	-1E+10	1	-1E+10	1	-1E+10	1	-1E+10	1	-1E+10	1
4902663	29	C	05/17/2024	13:05	-127.611	48.016	0	290.10	0	6.2040	0	33.9790	0	26.723	0	287.463	0	65.2	4	21.7	4	-1E+10	1	-1E+10	1	-1E+10	1	-1E+10	1	-1E+10	1	-1E+10	1
4902663	29	C	05/17/2024	13:05	-127.611	48.016	0	291.10	0	6.2080	0	33.9810	0	26.724	0	288.454	0	65.0	4	21.6	4	-1E+10	1	-1E+10	1	-1E+10	1	-1E+10	1	-1E+10	1	-1E+10	1
4902663	29	C	05/17/2024	13:05	-127.611	48.016	0	292.10	0	6.2050	0	33.9820	0	26.726	0	289.444	0	64.9	4	21.6	4	-1E+10	1	-1E+10	1	-1E+10	1	-1E+10	1	-1E+10	1	-1E+10	1
4902663	29	C	05/17/2024	13:05	-127.611	48.016	0	293.00	0	6.1980	0	33.9820	0	26.727	0	290.335	0	64.8	4	21.5	4	-1E+10	1	-1E+10	1	-1E+10	1	-1E+10	1	-1E+10	1	-1E+10	1
4902663	29	C	05/17/2024	13:05	-127.611	48.016	0	294.00	0	6.1870	0	33.9810	0	26.727	0	291.325	0	64.7	4	21.5	4	-1E+10	1	-1E+10	1	-1E+10	1	-1E+10	1	-1E+10	1	-1E+10	1
4902663	29	C	05/17/2024	13:05	-127.611	48.016	0	295.00	0	6.1740	0	33.9810	0	26.729	0	292.315	0	64.5	4	21.4	4	-1E+10	1	-1E+10	1	-1E+10	1	-1E+10	1	-1E+10	1	-1E+10	1
4902663	29	C	05/17/2024	13:05	-127.611	48.016	0	295.90	0	6.1690	0	33.9810	0	26.729	0	293.207	0	64.4	4	21.4	4	-1E+10	1	-1E+10	1	-1E+10	1	-1E+10	1	-1E+10	1	-1E+10	1
4902663	29	C	05/17/2024	13:05	-127.611	48.016	0	296.90	0	6.1560	0	33.9830	0	26.733	0	294.197	0	64.2	4	21.3	4	-1E+10	1	-1E+10	1	-1E+10	1	-1E+10	1	-1E+10	1	-1E+10	1
4902663	29	C	05/17/2024	13:05	-127.611	48.016	0	297.90	0	6.1540	0	33.9800	0	26.731	0	295.187	0	64.0	4	21.2	4	-1E+10	1	-1E+10	1	-1E+10	1	-1E+10	1	-1E+10	1	-1E+10	1
4902663	29	C	05/17/2024	13:05	-127.611	48.016	0	298.90	0	6.1530	0	33.9820	0	26.732	0	296.177	0	63.7	4	21.1	4	-1E+10	1	-1E+10	1	-1E+10	1	-1E+10	1	-1E+10	1	-1E+10	1
4902663	29	C	05/17/2024	13:05	-127.611	48.016	0	299.80	0	6.1450	0	33.9820	0	26.733	0	297.068	0	63.5	4	21.1	4	-1E+10	1	-1E+10	1	-1E+10	1	-1E+10	1	-1E+10	1	-1E+10	1
4902663	29	C	05/17/2024	13:05	-127.611	48.016	0	300.80	0	6.1330	0	33.9820	0	26.735	0	298.058	0	63.3	4	21.0	4	-1E+10	1	-1E+10	1	-1E+10	1	-1E+10	1	-1E+10	1	-1E+10	1
4902663	29	C	05/17/2024	13:05	-127.611	48.016	0	301.80	0	6.1320	0	33.9830	0	26.736	0	299.049	0	63.2	4	20.9	4	-1E+10	1	-1E+10	1	-1E+10	1	-1E+10	1	-1E+10	1	-1E+10	1
4902663	29	C	05/17/2024	13:05	-127.611	48.016	0	302.80	0	6.1300	0	33.9830	0	26.736	0	300.039	0	63.0	4	20.9	4	-1E+10	1	-1E+10	1	-1E+10	1	-1E+10	1	-1E+10	1	-1E+10	1
4902663	29	C	05/17/2024	13:05	-127.611	48.016	0	303.80	0	6.1250	0	33.9840	0	26.738	0	301.029	0	62.9	4	20.8	4	-1E+10	1	-1E+10	1	-1E+10	1	-1E+10	1	-1E+10	1	-1E+10	1
4902663	29	C	05/17/2024	13:05	-127.611	48.016	0	304.70	0	6.1150	0	33.9840	0	26.739	0	301.920	0	62.7	4	20.8	4	-1E+10	1	-1E+10	1	-1E+10	1	-1E+10	1	-1E+10	1	-1E+10	1
4902663	29	C	05/17/2024	13:05	-127.611	48.016	0	305.70	0	6.1100	0	33.9870	0	26.742	0	302.910	0	62.6	4	20.8	4	-1E+10	1	-1E+10	1	-1E+10	1	-1E+10	1	-1E+10	1	-1E+10	1
4902663	29	C	05/17/2024	13:05	-127.611	48.016	0	306.70	0	6.0640	0	33.9870	0	26.748	0	303.900	0	62.6	4	20.7	4	-1E+10	1	-1E+10	1	-1E+10	1	-1E+10	1	-1E+10	1	-1E+10	1
4902663	29	C	05/17/2024	13:05	-127.611	48.016	0	307.70	0	6.0620	0	33.9850	0	26.746	0	304.890	0	62.5	4	20.7	4	-1E+10	1	-1E+10	1	-1E+10	1	-1E+10	1	-1E+10	1	-1E+10	1
4902663	29	C	05/17/2024	13:05	-127.611	48.016	0	308.70	0	6.0590	0	33.9840	0	26.746	0	305.881	0	62.4	4	20.7	4	-1E+10	1	-1E+10	1	-1E+10	1	-1E+10	1	-1E+10	1	-1E+10	1
4902663	29	C	05/17/2024	13:05	-127.611	48.016	0	309.70	0	6.0580	0	33.9840	0	26.746	0	306.871	0	62.3	4	20.6	4	-1E+10	1	-1E+10	1	-1E+10	1	-1E+10	1	-1E+10	1	-1E+10	1
4902663	29	C	05/17/2024	13:05	-127.611	48.016	0	310.70	0	6.0500	0	33.9850	0	26.748	0	307.861	0	62.2	4	20.6	4	-1E+10	1	-1E+10	1	-1E+10	1	-1E+10	1	-1E+10	1	-1E+10	1
4902663	29	C	05/17/2024	13:05	-127.611	48.016	0	311.60	0	6.0420	0	33.9840	0	26.748	0	308.752	0	62.1	4	20.6	4	-1E+10	1	-1E+10	1	-1E+10	1	-1E+10	1	-1E+10	1	-1E+10	1
4902663	29	C	05/17/2024	13:05	-127.611	48.016	0	312.60	0	6.0320	0	33.9850	0	26.750	0	309.742	0	62.0	4	20.5	4	-1E+10	1	-1E+10	1	-1E+10	1	-1E+10	1	-1E+10	1	-1E+10	1
4902663	29	C	05/17/2024	13:05	-127.611	48.016	0	313.60	0	6.0270	0	33.9840	0	26.750	0	310.732	0	61.9	4	20.5	4	-1E+10	1	-1E+10	1	-1E+10	1	-1E+10	1	-1E+10	1	-1E+10	1
4902663	29	C	05/17/2024	13:05	-127.611	48.016	0	314.50	0	6.0180	0	33.9830	0	26.750	0	311.623	0	61.8	4	20.4	4	-1E+10	1	-1E+10	1	-1E+10	1	-1E+10	1	-1E+10	1	-1E+10	1
4902663	29	C	05/17/2024	13:05	-127.611	48.016	0	315.90	0	5.9780	0	33.9790	0	26.752	0	313.009	0	61.4	4	20.3	4	-1E+10	1	-1E+10	1	-1E+10	1	-1E+10	1	-1E+10	1	-1E+10	1
4902663	29	C	05/17/2024	13:05	-127.611	48.016	0	317.40	0	5.9380	0	33.9810	0	26.759	0	314.495	0	61.1	4	20.2	4	-1E+10	1	-1E+10	1	-1E+10	1	-1E+10	1	-1E+10	1	-1E+10	1
4902663	29	C	05/17/2024	13:05	-127.611	48.016	0	318.30	0	5.9230	0	33.9800	0	26.760	0	315.386	0	60.9	4	20.1	4	-1E+10	1	-1E+10	1	-1E+10	1	-1E+10	1	-1E+10	1	-1E+10	1
4902663	29	C	05/17/2024	13:05	-127.611	48.016	0	319.30	0	5.9110	0	33.9810	0	26.762	0	316.376	0	60.7	4	20.0	4	-1E+10	1	-1E+10	1	-1E+10	1	-1E+10	1	-1E+10	1	-1E+10	1
4902663	29	C	05/17/2024	13:05	-127.611	48.016	0	320.30	0	5.8950	0	33.9810	0	26.764	0	317.366	0	60.5	4	19.9	4	-1E+10	1	-1E+10	1	-1E+10	1	-1E+10	1	-1E+10	1	-1E+10	1
4902663	29	C	05/17/2024	13:05	-127.611	48.016	0	321.30	0	5.8910	0	33.9830	0	26.766	0	318.356	0	60.2	4	19.8	4	-1E+10	1	-1E+10	1	-1E+10	1	-1E+10	1	-1E+10	1	-1E+10	1
4902663	29	C	05/17/2024	13:05	-127.611	48.016	0	322.20	0	5.8820	0	33.9810	0	26.766	0	319.247	0	59.9	4	19.7	4	-1E+10	1	-1E+10	1	-1E+10	1	-1E+10	1	-1E+10	1	-1E+10	1
4902663	29	C	05/17/2024	13:05	-127.611	48.016	0	323.20	0	5.8750	0	33.9820	0	26.767	0	320.237	0	59.6	4	19.6	4	-1E+10	1	-1E+10	1	-1E+10	1	-1E+10	1	-1E+10	1	-1E+10	1
4902663	29	C	05/17/2024	13:05	-127.611	48.016	0	324.10	0	5.8750	0	33.9830	0	26.768	0	321.128	0	59.3	4	19.5	4	-1E+10	1	-1E+10	1	-1E+10	1	-1E+10	1	-1E+10	1	-1E+10	1
4902663	29	C	05/17/2024	13:05	-127.611	48.016	0	325.10	0	5.8700	0	33.9820	0	26.768	0	322.118	0	59.0	4	19.4	4	-1E+10	1	-1E+10	1	-1E+10	1	-1E+10	1	-1E+10	1	-1E+10	1
4902663	29	C	05/17/2024	13:05	-127.611	48.016	0	326.00	0	5.8210	0	33.9890	0	26.780	0	323.009	0	58.7	4	19.3	4	-1E+10	1	-1E+10	1	-1E+10	1	-1E+10	1	-1E+10	1	-1E+10	1
4902663	29	C	05/17/2024	13:05	-127.611	48.016	0	327.00	0	5.8130	0	33.9860	0	26.778	0	323.999	0	58.5	4	19.3	4	-1E+10	1	-1E+10	1	-1E+10	1	-1E+10	1	-1E+10	1	-1E+10	1
4902663	29	C	05/17/2024	13:05	-127.611	48.016	0	327.90	0	5.8090	0	33.9880	0	26.780	0	324.890	0	58.4	4	19.2	4	-1E+10	1	-1E+10	1	-1E+10	1	-1E+10	1	-1E+10	1	-1E+10	1
4902663	29	C	05/17/2024	13:05	-127.611	48.016	0	328.90	0	5.8070	0	33.9880	0	26.781	0	325.880	0	58.3	4	19.2	4	-1E+10	1	-1E+10	1	-1E+10	1	-1E+10	1	-1E+10	1	-1E+10	1
4902663	29	C	05/17/2024	13:05	-127.611	48.016	0	329.80	0	5.8050	0	33.9870	0	26.780	0	326.771	0	58.2	4	19.1	4	-1E+10	1	-1E+10	1	-1E+10	1	-1E+10	1	-1E+10	1	-1E+10	1
4902663	29	C	05/17/2024	13:05	-127.611	48.016	0	330.70	0	5.8000	0	33.9880	0	26.781	0	327.662	0	58.0	4	19.1	4	-1E+10	1	-1E+10	1	-1E+10	1	-1E+10	1	-1E+10	1	-1E+10	1
4902663	29	C	05/17/2024	13:05	-127.611	48.016	0	331.70	0	5.7910	0	33.9860	0	26.781	0	328.652	0	57.8	4	19.0	4	-1E+10	1	-1E+10	1	-1E+10	1	-1E+10	1	-1E+10	1	-1E+10	1
4902663	29	C	05/17/2024	13:05	-127.611	48.016	0	332.60	0	5.7710	0	33.9840	0	26.782	0	329.543	0	57.6	4	18.9	4	-1E+10	1	-1E+10	1	-1E+10	1	-1E+10	1	-1E+10	1	-1E+10	1
4902663	29	C	05/17/2024	13:05	-127.611	48.016	0	333.60	0	5.7640	0	33.9840	0	26.783	0	330.533	0	57.4	4	18.9	4	-1E+10	1	-1E+10	1	-1E+10	1	-1E+10	1	-1E+10	1	-1E+10	1
4902663	29	C	05/17/2024	13:05	-127.611	48.016	0	334.50	0	5.7530	0	33.9850	0	26.785	0	331.424	0	57.1	4	18.8	4	-1E+10	1	-1E+10	1	-1E+10	1	-1E+10	1	-1E+10	1	-1E+10	1
4902663	29	C	05/17/2024	13:05	-127.611	48.016	0	335.90	0	5.7520	0	33.9850	0	26.785	0	332.810	0	56.6	4	18.6	4	-1E+10	1	-1E+10	1	-1E+10	1	-1E+10	1	-1E+10	1	-1E+10	1
4902663	29	C	05/17/2024	13:05	-127.611	48.016	0	337.40	0	5.7530	0	33.9860	0	26.786	0	334.295	0	56.1	4	18.4	4	-1E+10	1	-1E+10	1	-1E+10	1	-1E+10	1	-1E+10	1	-1E+10	1
4902663	29	C	05/17/2024	13:05	-127.611	48.016	0	338.40	0	5.7460	0	33.9920	0	26.791	0	335.285	0	55.9	4	18.4	4	-1E+10	1	-1E+10	1	-1E+10	1	-1E+10	1	-1E+10	1	-1E+10	1
4902663	29	C	05/17/2024	13:05	-127.611	48.016	0	339.30	0	5.7440	0	33.9930	0	26.792	0	336.176	0	55.7	4	18.3	4	-1E+10	1	-1E+10	1	-1E+10	1	-1E+10	1	-1E+10	1	-1E+10	1
4902663	29	C	05/17/2024	13:05	-127.611	48.016	0	340.30	0	5.7380	0	33.9940	0	26.794	0	337.166	0	55.5	4	18.2	4	-1E+10	1	-1E+10	1	-1E+10	1	-1E+10	1	-1E+10	1	-1E+10	1
4902663	29	C	05/17/2024	13:05	-127.611	48.016	0	341.20	0	5.6950	0	33.9940	0	26.799	0	338.057	0	55.2	4	18.1	4	-1E+10	1	-1E+10	1	-1E+10	1	-1E+10	1	-1E+10	1	-1E+10	1
4902663	29	C	05/17/2024	13:05	-127.611	48.016	0	342.20	0	5.6780	0	33.9910	0	26.799	0	339.047	0	54.9	4	18.0	4	-1E+10	1	-1E+10	1	-1E+10	1	-1E+10	1	-1E+10	1	-1E+10	1
4902663	29	C	05/17/2024	13:05	-127.611	48.016	0	343.10	0	5.6710	0	33.9910	0	26.800	0	339.938	0	54.6	4	17.9	4	-1E+10	1	-1E+10	1	-1E+10	1	-1E+10	1	-1E+10	1	-1E+10	1
4902663	29	C	05/17/2024	13:05	-127.611	48.016	0	344.10	0	5.6670	0	33.9910	0	26.800	0	340.928	0	54.2	4	17.8	4	-1E+10	1	-1E+10	1	-1E+10	1	-1E+10	1	-1E+10	1	-1E+10	1
4902663	29	C	05/17/2024	13:05	-127.611	48.016	0	345.00	0	5.6490	0	33.9910	0	26.802	0	341.819	0	53.8	4	17.6	4	-1E+10	1	-1E+10	1	-1E+10	1	-1E+10	1	-1E+10	1	-1E+10	1
4902663	29	C	05/17/2024	13:05	-127.611	48.016	0	346.00	0	5.6540	0	33.9930	0	26.803	0	342.809	0	53.4	4	17.5	4	-1E+10	1	-1E+10	1	-1E+10	1	-1E+10	1	-1E+10	1	-1E+10	1
4902663	29	C	05/17/2024	13:05	-127.611	48.016	0	346.90	0	5.6640	0	33.9920	0	26.801	0	343.700	0	53.0	4	17.4	4	-1E+10	1	-1E+10	1	-1E+10	1	-1E+10	1	-1E+10	1	-1E+10	1
4902663	29	C	05/17/2024	13:05	-127.611	48.016	0	347.80	0	5.6810	0	34.0000	0	26.806	0	344.591	0	52.7	4	17.3	4	-1E+10	1	-1E+10	1	-1E+10	1	-1E+10	1	-1E+10	1	-1E+10	1
4902663	29	C	05/17/2024	13:05	-127.611	48.016	0	348.70	0	5.6890	0	34.0050	0	26.809	0	345.482	0	52.5	4	17.2	4	-1E+10	1	-1E+10	1	-1E+10	1	-1E+10	1	-1E+10	1	-1E+10	1
4902663	29	C	05/17/2024	13:05	-127.611	48.016	0	349.70	0	5.7020	0	33.9950	0	26.799	0	346.472	0	52.3	4	17.2	4	-1E+10	1	-1E+10	1	-1E+10	1	-1E+10	1	-1E+10	1	-1E+10	1
4902663	29	C	05/17/2024	13:05	-127.611	48.016	0	352.90	0	5.6690	0	34.0070	0	26.813	0	349.640	0	52.0	4	17.1	4	-1E+10	1	-1E+10	1	-1E+10	1	-1E+10	1	-1E+10	1	-1E+10	1
4902663	29	C	05/17/2024	13:05	-127.611	48.016	0	358.10	0	5.6010	0	34.0050	0	26.819	0	354.787	0	51.3	4	16.8	4	-1E+10	1	-1E+10	1	-1E+10	1	-1E+10	1	-1E+10	1	-1E+10	1
4902663	29	C	05/17/2024	13:05	-127.611	48.016	0	362.80	0	5.5510	0	34.0050	0	26.825	0	359.440	0	49.8	4	16.3	4	-1E+10	1	-1E+10	1	-1E+10	1	-1E+10	1	-1E+10	1	-1E+10	1
4902663	29	C	05/17/2024	13:05	-127.611	48.016	0	367.60	0	5.5450	0	34.0120	0	26.832	0	364.191	0	48.8	4	16.0	4	-1E+10	1	-1E+10	1	-1E+10	1	-1E+10	1	-1E+10	1	-1E+10	1
4902663	29	C	05/17/2024	13:05	-127.611	48.016	0	372.50	0	5.5270	0	34.0140	0	26.836	0	369.041	0	48.0	4	15.7	4	-1E+10	1	-1E+10	1	-1E+10	1	-1E+10	1	-1E+10	1	-1E+10	1
4902663	29	C	05/17/2024	13:05	-127.611	48.016	0	377.90	0	5.5110	0	34.0170	0	26.840	0	374.386	0	46.8	4	15.3	4	-1E+10	1	-1E+10	1	-1E+10	1	-1E+10	1	-1E+10	1	-1E+10	1
4902663	29	C	05/17/2024	13:05	-127.611	48.016	0	383.40	0	5.4950	0	34.0240	0	26.847	0	379.830	0	45.8	4	15.0	4	-1E+10	1	-1E+10	1	-1E+10	1	-1E+10	1	-1E+10	1	-1E+10	1
4902663	29	C	05/17/2024	13:05	-127.611	48.016	0	387.90	0	5.4740	0	34.0270	0	26.852	0	384.284	0	45.6	4	14.9	4	-1E+10	1	-1E+10	1	-1E+10	1	-1E+10	1	-1E+10	1	-1E+10	1
4902663	29	C	05/17/2024	13:05	-127.611	48.016	0	392.90	0	5.4330	0	34.0240	0	26.855	0	389.233	0	45.2	4	14.7	4	-1E+10	1	-1E+10	1	-1E+10	1	-1E+10	1	-1E+10	1	-1E+10	1
4902663	29	C	05/17/2024	13:05	-127.611	48.016	0	398.30	0	5.4130	0	34.0250	0	26.858	0	394.577	0	44.3	4	14.4	4	-1E+10	1	-1E+10	1	-1E+10	1	-1E+10	1	-1E+10	1	-1E+10	1
4902663	29	C	05/17/2024	13:05	-127.611	48.016	0	403.40	0	5.3900	0	34.0270	0	26.862	0	399.624	0	43.1	4	14.0	4	-1E+10	1	-1E+10	1	-1E+10	1	-1E+10	1	-1E+10	1	-1E+10	1
4902663	29	C	05/17/2024	13:05	-127.611	48.016	0	408.30	0	5.3600	0	34.0300	0	26.868	0	404.474	0	41.5	4	13.5	4	-1E+10	1	-1E+10	1	-1E+10	1	-1E+10	1	-1E+10	1	-1E+10	1
4902663	29	C	05/17/2024	13:05	-127.611	48.016	0	413.30	0	5.3170	0	34.0370	0	26.879	0	409.422	0	40.0	4	13.0	4	-1E+10	1	-1E+10	1	-1E+10	1	-1E+10	1	-1E+10	1	-1E+10	1
4902663	29	C	05/17/2024	13:05	-127.611	48.016	0	418.40	0	5.2950	0	34.0420	0	26.886	0	414.469	0	38.8	4	12.6	4	-1E+10	1	-1E+10	1	-1E+10	1	-1E+10	1	-1E+10	1	-1E+10	1
4902663	29	C	05/17/2024	13:05	-127.611	48.016	0	423.40	0	5.2420	0	34.0460	0	26.895	0	419.417	0	37.8	4	12.3	4	-1E+10	1	-1E+10	1	-1E+10	1	-1E+10	1	-1E+10	1	-1E+10	1
4902663	29	C	05/17/2024	13:05	-127.611	48.016	0	427.90	0	5.2220	0	34.0500	0	26.901	0	423.870	0	36.8	4	12.0	4	-1E+10	1	-1E+10	1	-1E+10	1	-1E+10	1	-1E+10	1	-1E+10	1
4902663	29	C	05/17/2024	13:05	-127.611	48.016	0	432.90	0	5.1980	0	34.0550	0	26.907	0	428.818	0	35.6	4	11.6	4	-1E+10	1	-1E+10	1	-1E+10	1	-1E+10	1	-1E+10	1	-1E+10	1
4902663	29	C	05/17/2024	13:05	-127.611	48.016	0	438.30	0	5.1710	0	34.0620	0	26.916	0	434.161	0	34.6	4	11.2	4	-1E+10	1	-1E+10	1	-1E+10	1	-1E+10	1	-1E+10	1	-1E+10	1
4902663	29	C	05/17/2024	13:05	-127.611	48.016	0	443.30	0	5.1580	0	34.0620	0	26.918	0	439.109	0	33.5	4	10.8	4	-1E+10	1	-1E+10	1	-1E+10	1	-1E+10	1	-1E+10	1	-1E+10	1
4902663	29	C	05/17/2024	13:05	-127.611	48.016	0	448.00	0	5.1250	0	34.0700	0	26.928	0	443.759	0	32.1	4	10.4	4	-1E+10	1	-1E+10	1	-1E+10	1	-1E+10	1	-1E+10	1	-1E+10	1
4902663	29	C	05/17/2024	13:05	-127.611	48.016	0	452.80	0	5.1090	0	34.0740	0	26.933	0	448.509	0	31.1	4	10.1	4	-1E+10	1	-1E+10	1	-1E+10	1	-1E+10	1	-1E+10	1	-1E+10	1
4902663	29	C	05/17/2024	13:05	-127.611	48.016	0	458.20	0	5.0940	0	34.0800	0	26.939	0	453.852	0	29.9	4	9.7	4	-1E+10	1	-1E+10	1	-1E+10	1	-1E+10	1	-1E+10	1	-1E+10	1
4902663	29	C	05/17/2024	13:05	-127.611	48.016	0	463.00	0	5.0800	0	34.0850	0	26.945	0	458.601	0	29.0	4	9.4	4	-1E+10	1	-1E+10	1	-1E+10	1	-1E+10	1	-1E+10	1	-1E+10	1
4902663	29	C	05/17/2024	13:05	-127.611	48.016	0	467.70	0	5.0490	0	34.0890	0	26.952	0	463.251	0	28.1	4	9.1	4	-1E+10	1	-1E+10	1	-1E+10	1	-1E+10	1	-1E+10	1	-1E+10	1
4902663	29	C	05/17/2024	13:05	-127.611	48.016	0	473.00	0	5.0280	0	34.0940	0	26.958	0	468.494	0	27.3	4	8.8	4	-1E+10	1	-1E+10	1	-1E+10	1	-1E+10	1	-1E+10	1	-1E+10	1
4902663	29	C	05/17/2024	13:05	-127.611	48.016	0	478.30	0	5.0190	0	34.0980	0	26.962	0	473.738	0	26.5	4	8.6	4	-1E+10	1	-1E+10	1	-1E+10	1	-1E+10	1	-1E+10	1	-1E+10	1
4902663	29	C	05/17/2024	13:05	-127.611	48.016	0	483.20	0	5.0040	0	34.1050	0	26.970	0	478.586	0	25.7	4	8.3	4	-1E+10	1	-1E+10	1	-1E+10	1	-1E+10	1	-1E+10	1	-1E+10	1
4902663	29	C	05/17/2024	13:05	-127.611	48.016	0	487.70	0	4.9940	0	34.1080	0	26.973	0	483.037	0	25.0	4	8.1	4	-1E+10	1	-1E+10	1	-1E+10	1	-1E+10	1	-1E+10	1	-1E+10	1
4902663	29	C	05/17/2024	13:05	-127.611	48.016	0	492.60	0	4.9740	0	34.1120	0	26.979	0	487.885	0	24.4	4	7.9	4	-1E+10	1	-1E+10	1	-1E+10	1	-1E+10	1	-1E+10	1	-1E+10	1
4902663	29	C	05/17/2024	13:05	-127.611	48.016	0	497.70	0	4.9550	0	34.1150	0	26.983	0	492.930	0	23.5	4	7.6	4	-1E+10	1	-1E+10	1	-1E+10	1	-1E+10	1	-1E+10	1	-1E+10	1
4902663	29	C	05/17/2024	13:05	-127.611	48.016	0	502.80	0	4.9240	0	34.1170	0	26.988	0	497.975	0	22.6	4	7.3	4	-1E+10	1	-1E+10	1	-1E+10	1	-1E+10	1	-1E+10	1	-1E+10	1
4902663	29	C	05/17/2024	13:05	-127.611	48.016	0	507.90	0	4.8930	0	34.1220	0	26.996	0	503.020	0	21.7	4	7.0	4	-1E+10	1	-1E+10	1	-1E+10	1	-1E+10	1	-1E+10	1	-1E+10	1
4902663	29	C	05/17/2024	13:05	-127.611	48.016	0	513.20	0	4.8550	0	34.1260	0	27.003	0	508.262	0	21.1	4	6.8	4	-1E+10	1	-1E+10	1	-1E+10	1	-1E+10	1	-1E+10	1	-1E+10	1
4902663	29	C	05/17/2024	13:05	-127.611	48.016	0	518.00	0	4.8430	0	34.1300	0	27.008	0	513.010	0	20.5	4	6.6	4	-1E+10	1	-1E+10	1	-1E+10	1	-1E+10	1	-1E+10	1	-1E+10	1
4902663	29	C	05/17/2024	13:05	-127.611	48.016	0	522.80	0	4.8180	0	34.1340	0	27.014	0	517.758	0	19.8	4	6.4	4	-1E+10	1	-1E+10	1	-1E+10	1	-1E+10	1	-1E+10	1	-1E+10	1
4902663	29	C	05/17/2024	13:05	-127.611	48.016	0	528.00	0	4.7910	0	34.1380	0	27.020	0	522.901	0	19.3	4	6.2	4	-1E+10	1	-1E+10	1	-1E+10	1	-1E+10	1	-1E+10	1	-1E+10	1
4902663	29	C	05/17/2024	13:05	-127.611	48.016	0	532.80	0	4.7790	0	34.1400	0	27.023	0	527.649	0	18.9	4	6.1	4	-1E+10	1	-1E+10	1	-1E+10	1	-1E+10	1	-1E+10	1	-1E+10	1
4902663	29	C	05/17/2024	13:05	-127.611	48.016	0	537.60	0	4.7760	0	34.1450	0	27.028	0	532.396	0	18.4	4	5.9	4	-1E+10	1	-1E+10	1	-1E+10	1	-1E+10	1	-1E+10	1	-1E+10	1
4902663	29	C	05/17/2024	13:05	-127.611	48.016	0	542.90	0	4.7530	0	34.1500	0	27.034	0	537.638	0	17.9	4	5.8	4	-1E+10	1	-1E+10	1	-1E+10	1	-1E+10	1	-1E+10	1	-1E+10	1
4902663	29	C	05/17/2024	13:05	-127.611	48.016	0	548.10	0	4.7380	0	34.1530	0	27.038	0	542.781	0	17.6	4	5.6	4	-1E+10	1	-1E+10	1	-1E+10	1	-1E+10	1	-1E+10	1	-1E+10	1
4902663	29	C	05/17/2024	13:05	-127.611	48.016	0	552.90	0	4.7100	0	34.1560	0	27.044	0	547.528	0	17.4	4	5.6	4	-1E+10	1	-1E+10	1	-1E+10	1	-1E+10	1	-1E+10	1	-1E+10	1
4902663	29	C	05/17/2024	13:05	-127.611	48.016	0	557.80	0	4.6770	0	34.1570	0	27.048	0	552.374	0	17.3	4	5.6	4	-1E+10	1	-1E+10	1	-1E+10	1	-1E+10	1	-1E+10	1	-1E+10	1
4902663	29	C	05/17/2024	13:05	-127.611	48.016	0	563.20	0	4.6370	0	34.1600	0	27.055	0	557.714	0	17.4	4	5.6	4	-1E+10	1	-1E+10	1	-1E+10	1	-1E+10	1	-1E+10	1	-1E+10	1
4902663	29	C	05/17/2024	13:05	-127.611	48.016	0	568.10	0	4.6100	0	34.1590	0	27.057	0	562.560	0	17.4	4	5.6	4	-1E+10	1	-1E+10	1	-1E+10	1	-1E+10	1	-1E+10	1	-1E+10	1
4902663	29	C	05/17/2024	13:05	-127.611	48.016	0	573.00	0	4.5990	0	34.1580	0	27.058	0	567.406	0	17.4	4	5.6	4	-1E+10	1	-1E+10	1	-1E+10	1	-1E+10	1	-1E+10	1	-1E+10	1
4902663	29	C	05/17/2024	13:05	-127.611	48.016	0	578.00	0	4.5660	0	34.1570	0	27.060	0	572.350	0	17.4	4	5.6	4	-1E+10	1	-1E+10	1	-1E+10	1	-1E+10	1	-1E+10	1	-1E+10	1
4902663	29	C	05/17/2024	13:05	-127.611	48.016	0	582.80	0	4.4940	0	34.1560	0	27.067	0	577.096	0	17.2	4	5.5	4	-1E+10	1	-1E+10	1	-1E+10	1	-1E+10	1	-1E+10	1	-1E+10	1
4902663	29	C	05/17/2024	13:05	-127.611	48.016	0	588.00	0	4.4760	0	34.1560	0	27.069	0	582.238	0	16.8	4	5.3	4	-1E+10	1	-1E+10	1	-1E+10	1	-1E+10	1	-1E+10	1	-1E+10	1
4902663	29	C	05/17/2024	13:05	-127.611	48.016	0	592.80	0	4.4680	0	34.1580	0	27.072	0	586.984	0	16.0	4	5.1	4	-1E+10	1	-1E+10	1	-1E+10	1	-1E+10	1	-1E+10	1	-1E+10	1
4902663	29	C	05/17/2024	13:05	-127.611	48.016	0	597.70	0	4.4500	0	34.1640	0	27.079	0	591.829	0	15.0	4	4.8	4	-1E+10	1	-1E+10	1	-1E+10	1	-1E+10	1	-1E+10	1	-1E+10	1
4902663	29	C	05/17/2024	13:05	-127.611	48.016	0	603.10	0	4.4530	0	34.1690	0	27.082	0	597.168	0	14.1	4	4.5	4	-1E+10	1	-1E+10	1	-1E+10	1	-1E+10	1	-1E+10	1	-1E+10	1
4902663	29	C	05/17/2024	13:05	-127.611	48.016	0	608.10	0	4.4740	0	34.1810	0	27.090	0	602.112	0	13.6	4	4.3	4	-1E+10	1	-1E+10	1	-1E+10	1	-1E+10	1	-1E+10	1	-1E+10	1
4902663	29	C	05/17/2024	13:05	-127.611	48.016	0	613.00	0	4.4500	0	34.1840	0	27.095	0	606.957	0	13.4	4	4.3	4	-1E+10	1	-1E+10	1	-1E+10	1	-1E+10	1	-1E+10	1	-1E+10	1
4902663	29	C	05/17/2024	13:05	-127.611	48.016	0	618.00	0	4.4360	0	34.1870	0	27.099	0	611.900	0	13.0	4	4.1	4	-1E+10	1	-1E+10	1	-1E+10	1	-1E+10	1	-1E+10	1	-1E+10	1
4902663	29	C	05/17/2024	13:05	-127.611	48.016	0	623.00	0	4.4370	0	34.1910	0	27.102	0	616.843	0	12.7	4	4.1	4	-1E+10	1	-1E+10	1	-1E+10	1	-1E+10	1	-1E+10	1	-1E+10	1
4902663	29	C	05/17/2024	13:05	-127.611	48.016	0	628.00	0	4.4010	0	34.1920	0	27.106	0	621.786	0	12.1	4	3.9	4	-1E+10	1	-1E+10	1	-1E+10	1	-1E+10	1	-1E+10	1	-1E+10	1
4902663	29	C	05/17/2024	13:05	-127.611	48.016	0	633.00	0	4.4210	0	34.2020	0	27.112	0	626.729	0	11.4	4	3.6	4	-1E+10	1	-1E+10	1	-1E+10	1	-1E+10	1	-1E+10	1	-1E+10	1
4902663	29	C	05/17/2024	13:05	-127.611	48.016	0	638.20	0	4.4500	0	34.2100	0	27.116	0	631.870	0	10.9	4	3.5	4	-1E+10	1	-1E+10	1	-1E+10	1	-1E+10	1	-1E+10	1	-1E+10	1
4902663	29	C	05/17/2024	13:05	-127.611	48.016	0	642.90	0	4.4510	0	34.2150	0	27.119	0	636.516	0	10.8	4	3.4	4	-1E+10	1	-1E+10	1	-1E+10	1	-1E+10	1	-1E+10	1	-1E+10	1
4902663	29	C	05/17/2024	13:05	-127.611	48.016	0	648.00	0	4.4220	0	34.2140	0	27.122	0	641.558	0	10.5	4	3.3	4	-1E+10	1	-1E+10	1	-1E+10	1	-1E+10	1	-1E+10	1	-1E+10	1
4902663	29	C	05/17/2024	13:05	-127.611	48.016	0	653.30	0	4.4030	0	34.2210	0	27.129	0	646.797	0	10.2	4	3.3	4	-1E+10	1	-1E+10	1	-1E+10	1	-1E+10	1	-1E+10	1	-1E+10	1
4902663	29	C	05/17/2024	13:05	-127.611	48.016	0	658.20	0	4.3890	0	34.2240	0	27.133	0	651.640	0	10.0	4	3.2	4	-1E+10	1	-1E+10	1	-1E+10	1	-1E+10	1	-1E+10	1	-1E+10	1
4902663	29	C	05/17/2024	13:05	-127.611	48.016	0	663.20	0	4.3700	0	34.2280	0	27.139	0	656.583	0	9.8	4	3.1	4	-1E+10	1	-1E+10	1	-1E+10	1	-1E+10	1	-1E+10	1	-1E+10	1
4902663	29	C	05/17/2024	13:05	-127.611	48.016	0	668.10	0	4.3590	0	34.2320	0	27.143	0	661.426	0	9.5	4	3.0	4	-1E+10	1	-1E+10	1	-1E+10	1	-1E+10	1	-1E+10	1	-1E+10	1
4902663	29	C	05/17/2024	13:05	-127.611	48.016	0	673.20	0	4.3410	0	34.2370	0	27.149	0	666.467	0	9.3	4	3.0	4	-1E+10	1	-1E+10	1	-1E+10	1	-1E+10	1	-1E+10	1	-1E+10	1
4902663	29	C	05/17/2024	13:05	-127.611	48.016	0	678.20	0	4.3230	0	34.2400	0	27.153	0	671.409	0	9.1	4	2.9	4	-1E+10	1	-1E+10	1	-1E+10	1	-1E+10	1	-1E+10	1	-1E+10	1
4902663	29	C	05/17/2024	13:05	-127.611	48.016	0	683.30	0	4.3060	0	34.2460	0	27.160	0	676.449	0	8.8	4	2.8	4	-1E+10	1	-1E+10	1	-1E+10	1	-1E+10	1	-1E+10	1	-1E+10	1
4902663	29	C	05/17/2024	13:05	-127.611	48.016	0	687.90	0	4.2930	0	34.2500	0	27.164	0	680.996	0	8.7	4	2.8	4	-1E+10	1	-1E+10	1	-1E+10	1	-1E+10	1	-1E+10	1	-1E+10	1
4902663	29	C	05/17/2024	13:05	-127.611	48.016	0	692.50	0	4.2830	0	34.2540	0	27.169	0	685.542	0	8.6	4	2.7	4	-1E+10	1	-1E+10	1	-1E+10	1	-1E+10	1	-1E+10	1	-1E+10	1
4902663	29	C	05/17/2024	13:05	-127.611	48.016	0	697.80	0	4.2620	0	34.2560	0	27.173	0	690.780	0	8.5	4	2.7	4	-1E+10	1	-1E+10	1	-1E+10	1	-1E+10	1	-1E+10	1	-1E+10	1
4902663	29	C	05/17/2024	13:05	-127.611	48.016	0	703.00	0	4.2450	0	34.2560	0	27.174	0	695.919	0	8.4	4	2.7	4	-1E+10	1	-1E+10	1	-1E+10	1	-1E+10	1	-1E+10	1	-1E+10	1
4902663	29	C	05/17/2024	13:05	-127.611	48.016	0	708.10	0	4.2160	0	34.2560	0	27.177	0	700.959	0	8.3	4	2.6	4	-1E+10	1	-1E+10	1	-1E+10	1	-1E+10	1	-1E+10	1	-1E+10	1
4902663	29	C	05/17/2024	13:05	-127.611	48.016	0	712.90	0	4.2050	0	34.2590	0	27.181	0	705.703	0	8.1	4	2.6	4	-1E+10	1	-1E+10	1	-1E+10	1	-1E+10	1	-1E+10	1	-1E+10	1
4902663	29	C	05/17/2024	13:05	-127.611	48.016	0	717.70	0	4.1990	0	34.2620	0	27.184	0	710.446	0	8.0	4	2.5	4	-1E+10	1	-1E+10	1	-1E+10	1	-1E+10	1	-1E+10	1	-1E+10	1
4902663	29	C	05/17/2024	13:05	-127.611	48.016	0	722.70	0	4.1890	0	34.2650	0	27.188	0	715.387	0	7.9	4	2.5	4	-1E+10	1	-1E+10	1	-1E+10	1	-1E+10	1	-1E+10	1	-1E+10	1
4902663	29	C	05/17/2024	13:05	-127.611	48.016	0	727.70	0	4.1760	0	34.2690	0	27.192	0	720.328	0	7.7	4	2.5	4	-1E+10	1	-1E+10	1	-1E+10	1	-1E+10	1	-1E+10	1	-1E+10	1
4902663	29	C	05/17/2024	13:05	-127.611	48.016	0	732.80	0	4.1570	0	34.2730	0	27.197	0	725.367	0	7.6	4	2.4	4	-1E+10	1	-1E+10	1	-1E+10	1	-1E+10	1	-1E+10	1	-1E+10	1
4902663	29	C	05/17/2024	13:05	-127.611	48.016	0	738.00	0	4.1470	0	34.2740	0	27.199	0	730.505	0	7.5	4	2.4	4	-1E+10	1	-1E+10	1	-1E+10	1	-1E+10	1	-1E+10	1	-1E+10	1
4902663	29	C	05/17/2024	13:05	-127.611	48.016	0	742.90	0	4.1310	0	34.2790	0	27.205	0	735.347	0	7.4	4	2.3	4	-1E+10	1	-1E+10	1	-1E+10	1	-1E+10	1	-1E+10	1	-1E+10	1
4902663	29	C	05/17/2024	13:05	-127.611	48.016	0	747.70	0	4.1180	0	34.2830	0	27.209	0	740.090	0	7.3	4	2.3	4	-1E+10	1	-1E+10	1	-1E+10	1	-1E+10	1	-1E+10	1	-1E+10	1
4902663	29	C	05/17/2024	13:05	-127.611	48.016	0	752.70	0	4.1080	0	34.2850	0	27.212	0	745.030	0	7.3	4	2.3	4	-1E+10	1	-1E+10	1	-1E+10	1	-1E+10	1	-1E+10	1	-1E+10	1
4902663	29	C	05/17/2024	13:05	-127.611	48.016	0	757.90	0	4.0980	0	34.2870	0	27.215	0	750.168	0	7.2	4	2.3	4	-1E+10	1	-1E+10	1	-1E+10	1	-1E+10	1	-1E+10	1	-1E+10	1
4902663	29	C	05/17/2024	13:05	-127.611	48.016	0	763.10	0	4.0920	0	34.2890	0	27.217	0	755.305	0	7.2	4	2.3	4	-1E+10	1	-1E+10	1	-1E+10	1	-1E+10	1	-1E+10	1	-1E+10	1
4902663	29	C	05/17/2024	13:05	-127.611	48.016	0	768.10	0	4.0810	0	34.2920	0	27.221	0	760.245	0	7.1	4	2.3	4	-1E+10	1	-1E+10	1	-1E+10	1	-1E+10	1	-1E+10	1	-1E+10	1
4902663	29	C	05/17/2024	13:05	-127.611	48.016	0	772.90	0	4.0650	0	34.2920	0	27.222	0	764.987	0	7.1	4	2.2	4	-1E+10	1	-1E+10	1	-1E+10	1	-1E+10	1	-1E+10	1	-1E+10	1
4902663	29	C	05/17/2024	13:05	-127.611	48.016	0	777.70	0	4.0500	0	34.2950	0	27.226	0	769.729	0	7.0	4	2.2	4	-1E+10	1	-1E+10	1	-1E+10	1	-1E+10	1	-1E+10	1	-1E+10	1
4902663	29	C	05/17/2024	13:05	-127.611	48.016	0	783.00	0	4.0500	0	34.3000	0	27.230	0	774.965	0	7.0	4	2.2	4	-1E+10	1	-1E+10	1	-1E+10	1	-1E+10	1	-1E+10	1	-1E+10	1
4902663	29	C	05/17/2024	13:05	-127.611	48.016	0	788.20	0	4.0310	0	34.3010	0	27.233	0	780.102	0	7.0	4	2.2	4	-1E+10	1	-1E+10	1	-1E+10	1	-1E+10	1	-1E+10	1	-1E+10	1
4902663	29	C	05/17/2024	13:05	-127.611	48.016	0	793.00	0	4.0210	0	34.3030	0	27.236	0	784.843	0	7.0	4	2.2	4	-1E+10	1	-1E+10	1	-1E+10	1	-1E+10	1	-1E+10	1	-1E+10	1
4902663	29	C	05/17/2024	13:05	-127.611	48.016	0	797.80	0	4.0050	0	34.3040	0	27.238	0	789.585	0	7.0	4	2.2	4	-1E+10	1	-1E+10	1	-1E+10	1	-1E+10	1	-1E+10	1	-1E+10	1
4902663	29	C	05/17/2024	13:05	-127.611	48.016	0	803.00	0	3.9860	0	34.3070	0	27.242	0	794.722	0	7.0	4	2.2	4	-1E+10	1	-1E+10	1	-1E+10	1	-1E+10	1	-1E+10	1	-1E+10	1
4902663	29	C	05/17/2024	13:05	-127.611	48.016	0	808.30	0	3.9710	0	34.3090	0	27.246	0	799.957	0	7.0	4	2.2	4	-1E+10	1	-1E+10	1	-1E+10	1	-1E+10	1	-1E+10	1	-1E+10	1
4902663	29	C	05/17/2024	13:05	-127.611	48.016	0	813.10	0	3.9610	0	34.3110	0	27.248	0	804.698	0	6.9	4	2.2	4	-1E+10	1	-1E+10	1	-1E+10	1	-1E+10	1	-1E+10	1	-1E+10	1
4902663	29	C	05/17/2024	13:05	-127.611	48.016	0	817.90	0	3.9470	0	34.3130	0	27.251	0	809.439	0	6.9	4	2.2	4	-1E+10	1	-1E+10	1	-1E+10	1	-1E+10	1	-1E+10	1	-1E+10	1
4902663	29	C	05/17/2024	13:05	-127.611	48.016	0	822.80	0	3.9360	0	34.3150	0	27.254	0	814.279	0	6.9	4	2.2	4	-1E+10	1	-1E+10	1	-1E+10	1	-1E+10	1	-1E+10	1	-1E+10	1
4902663	29	C	05/17/2024	13:05	-127.611	48.016	0	827.60	0	3.9190	0	34.3180	0	27.258	0	819.020	0	6.9	4	2.2	4	-1E+10	1	-1E+10	1	-1E+10	1	-1E+10	1	-1E+10	1	-1E+10	1
4902663	29	C	05/17/2024	13:05	-127.611	48.016	0	832.50	0	3.9090	0	34.3210	0	27.262	0	823.859	0	6.9	4	2.2	4	-1E+10	1	-1E+10	1	-1E+10	1	-1E+10	1	-1E+10	1	-1E+10	1
4902663	29	C	05/17/2024	13:05	-127.611	48.016	0	837.90	0	3.8890	0	34.3220	0	27.265	0	829.193	0	6.9	4	2.2	4	-1E+10	1	-1E+10	1	-1E+10	1	-1E+10	1	-1E+10	1	-1E+10	1
4902663	29	C	05/17/2024	13:05	-127.611	48.016	0	843.10	0	3.8720	0	34.3240	0	27.268	0	834.328	0	6.9	4	2.2	4	-1E+10	1	-1E+10	1	-1E+10	1	-1E+10	1	-1E+10	1	-1E+10	1
4902663	29	C	05/17/2024	13:05	-127.611	48.016	0	847.90	0	3.8550	0	34.3260	0	27.271	0	839.069	0	6.9	4	2.2	4	-1E+10	1	-1E+10	1	-1E+10	1	-1E+10	1	-1E+10	1	-1E+10	1
4902663	29	C	05/17/2024	13:05	-127.611	48.016	0	852.70	0	3.8500	0	34.3270	0	27.273	0	843.809	0	6.9	4	2.2	4	-1E+10	1	-1E+10	1	-1E+10	1	-1E+10	1	-1E+10	1	-1E+10	1
4902663	29	C	05/17/2024	13:05	-127.611	48.016	0	857.50	0	3.8390	0	34.3290	0	27.275	0	848.549	0	6.9	4	2.2	4	-1E+10	1	-1E+10	1	-1E+10	1	-1E+10	1	-1E+10	1	-1E+10	1
4902663	29	C	05/17/2024	13:05	-127.611	48.016	0	862.80	0	3.8230	0	34.3340	0	27.281	0	853.783	0	6.9	4	2.2	4	-1E+10	1	-1E+10	1	-1E+10	1	-1E+10	1	-1E+10	1	-1E+10	1
4902663	29	C	05/17/2024	13:05	-127.611	48.016	0	868.10	0	3.8050	0	34.3360	0	27.284	0	859.017	0	6.9	4	2.2	4	-1E+10	1	-1E+10	1	-1E+10	1	-1E+10	1	-1E+10	1	-1E+10	1
4902663	29	C	05/17/2024	13:05	-127.611	48.016	0	873.00	0	3.7940	0	34.3400	0	27.289	0	863.855	0	6.9	4	2.2	4	-1E+10	1	-1E+10	1	-1E+10	1	-1E+10	1	-1E+10	1	-1E+10	1
4902663	29	C	05/17/2024	13:05	-127.611	48.016	0	877.80	0	3.7860	0	34.3410	0	27.290	0	868.595	0	7.0	4	2.2	4	-1E+10	1	-1E+10	1	-1E+10	1	-1E+10	1	-1E+10	1	-1E+10	1
4902663	29	C	05/17/2024	13:05	-127.611	48.016	0	882.60	0	3.7690	0	34.3420	0	27.293	0	873.335	0	7.0	4	2.2	4	-1E+10	1	-1E+10	1	-1E+10	1	-1E+10	1	-1E+10	1	-1E+10	1
4902663	29	C	05/17/2024	13:05	-127.611	48.016	0	887.90	0	3.7430	0	34.3450	0	27.298	0	878.568	0	7.1	4	2.2	4	-1E+10	1	-1E+10	1	-1E+10	1	-1E+10	1	-1E+10	1	-1E+10	1
4902663	29	C	05/17/2024	13:05	-127.611	48.016	0	893.20	0	3.7250	0	34.3470	0	27.301	0	883.801	0	7.1	4	2.2	4	-1E+10	1	-1E+10	1	-1E+10	1	-1E+10	1	-1E+10	1	-1E+10	1
4902663	29	C	05/17/2024	13:05	-127.611	48.016	0	898.10	0	3.7140	0	34.3490	0	27.304	0	888.639	0	7.2	4	2.2	4	-1E+10	1	-1E+10	1	-1E+10	1	-1E+10	1	-1E+10	1	-1E+10	1
4902663	29	C	05/17/2024	13:05	-127.611	48.016	0	903.00	0	3.6980	0	34.3520	0	27.308	0	893.477	0	7.2	4	2.3	4	-1E+10	1	-1E+10	1	-1E+10	1	-1E+10	1	-1E+10	1	-1E+10	1
4902663	29	C	05/17/2024	13:05	-127.611	48.016	0	907.90	0	3.6770	0	34.3540	0	27.312	0	898.315	0	7.3	4	2.3	4	-1E+10	1	-1E+10	1	-1E+10	1	-1E+10	1	-1E+10	1	-1E+10	1
4902663	29	C	05/17/2024	13:05	-127.611	48.016	0	912.80	0	3.6540	0	34.3560	0	27.315	0	903.152	0	7.4	4	2.3	4	-1E+10	1	-1E+10	1	-1E+10	1	-1E+10	1	-1E+10	1	-1E+10	1
4902663	29	C	05/17/2024	13:05	-127.611	48.016	0	917.70	0	3.6380	0	34.3580	0	27.319	0	907.990	0	7.4	4	2.3	4	-1E+10	1	-1E+10	1	-1E+10	1	-1E+10	1	-1E+10	1	-1E+10	1
4902663	29	C	05/17/2024	13:05	-127.611	48.016	0	922.70	0	3.6170	0	34.3610	0	27.323	0	912.926	0	7.5	4	2.3	4	-1E+10	1	-1E+10	1	-1E+10	1	-1E+10	1	-1E+10	1	-1E+10	1
4902663	29	C	05/17/2024	13:05	-127.611	48.016	0	927.80	0	3.6010	0	34.3600	0	27.324	0	917.961	0	7.6	4	2.4	4	-1E+10	1	-1E+10	1	-1E+10	1	-1E+10	1	-1E+10	1	-1E+10	1
4902663	29	C	05/17/2024	13:05	-127.611	48.016	0	932.90	0	3.5720	0	34.3620	0	27.328	0	922.996	0	7.6	4	2.4	4	-1E+10	1	-1E+10	1	-1E+10	1	-1E+10	1	-1E+10	1	-1E+10	1
4902663	29	C	05/17/2024	13:05	-127.611	48.016	0	938.00	0	3.5640	0	34.3650	0	27.332	0	928.030	0	7.6	4	2.4	4	-1E+10	1	-1E+10	1	-1E+10	1	-1E+10	1	-1E+10	1	-1E+10	1
4902663	29	C	05/17/2024	13:05	-127.611	48.016	0	943.10	0	3.5570	0	34.3690	0	27.335	0	933.065	0	7.7	4	2.4	4	-1E+10	1	-1E+10	1	-1E+10	1	-1E+10	1	-1E+10	1	-1E+10	1
4902663	29	C	05/17/2024	13:05	-127.611	48.016	0	948.20	0	3.5460	0	34.3720	0	27.339	0	938.099	0	7.7	4	2.4	4	-1E+10	1	-1E+10	1	-1E+10	1	-1E+10	1	-1E+10	1	-1E+10	1
4902663	29	C	05/17/2024	13:05	-127.611	48.016	0	953.30	0	3.5550	0	34.3760	0	27.341	0	943.133	0	7.7	4	2.4	4	-1E+10	1	-1E+10	1	-1E+10	1	-1E+10	1	-1E+10	1	-1E+10	1
4902663	29	C	05/17/2024	13:05	-127.611	48.016	0	957.90	0	3.5390	0	34.3790	0	27.345	0	947.674	0	7.8	4	2.5	4	-1E+10	1	-1E+10	1	-1E+10	1	-1E+10	1	-1E+10	1	-1E+10	1
4902663	29	C	05/17/2024	13:05	-127.611	48.016	0	962.50	0	3.5210	0	34.3820	0	27.349	0	952.214	0	8.0	4	2.5	4	-1E+10	1	-1E+10	1	-1E+10	1	-1E+10	1	-1E+10	1	-1E+10	1
4902663	29	C	05/17/2024	13:05	-127.611	48.016	0	967.60	0	3.5070	0	34.3850	0	27.353	0	957.248	0	8.1	4	2.5	4	-1E+10	1	-1E+10	1	-1E+10	1	-1E+10	1	-1E+10	1	-1E+10	1
4902663	29	C	05/17/2024	13:05	-127.611	48.016	0	972.80	0	3.4950	0	34.3860	0	27.355	0	962.381	0	8.1	4	2.5	4	-1E+10	1	-1E+10	1	-1E+10	1	-1E+10	1	-1E+10	1	-1E+10	1
4902663	29	C	05/17/2024	13:05	-127.611	48.016	0	978.00	0	3.4840	0	34.3860	0	27.356	0	967.513	0	8.2	4	2.6	4	-1E+10	1	-1E+10	1	-1E+10	1	-1E+10	1	-1E+10	1	-1E+10	1
4902663	29	C	05/17/2024	13:05	-127.611	48.016	0	983.20	0	3.4630	0	34.3870	0	27.359	0	972.645	0	8.3	4	2.6	4	-1E+10	1	-1E+10	1	-1E+10	1	-1E+10	1	-1E+10	1	-1E+10	1
4902663	29	C	05/17/2024	13:05	-127.611	48.016	0	987.90	0	3.4600	0	34.3900	0	27.362	0	977.284	0	8.3	4	2.6	4	-1E+10	1	-1E+10	1	-1E+10	1	-1E+10	1	-1E+10	1	-1E+10	1
4902663	29	C	05/17/2024	13:05	-127.611	48.016	0	992.60	0	3.4700	0	34.3920	0	27.362	0	981.922	0	8.3	4	2.6	4	-1E+10	1	-1E+10	1	-1E+10	1	-1E+10	1	-1E+10	1	-1E+10	1
4902663	29	C	05/17/2024	13:05	-127.611	48.016	0	998.00	0	3.4690	0	34.3940	0	27.364	0	987.251	0	8.4	4	2.6	4	-1E+10	1	-1E+10	1	-1E+10	1	-1E+10	1	-1E+10	1	-1E+10	1
4902663	29	C	05/17/2024	13:05	-127.611	48.016	0	1005.60	0	3.4570	0	34.3960	0	27.367	0	994.751	0	8.5	4	2.6	4	-1E+10	1	-1E+10	1	-1E+10	1	-1E+10	1	-1E+10	1	-1E+10	1
4902663	29	C	05/17/2024	13:05	-127.611	48.016	0	1015.70	0	3.4250	0	34.3990	0	27.372	0	1004.718	0	8.6	4	2.7	4	-1E+10	1	-1E+10	1	-1E+10	1	-1E+10	1	-1E+10	1	-1E+10	1
4902663	29	C	05/17/2024	13:05	-127.611	48.016	0	1025.50	0	3.4010	0	34.4030	0	27.378	0	1014.389	0	8.8	4	2.8	4	-1E+10	1	-1E+10	1	-1E+10	1	-1E+10	1	-1E+10	1	-1E+10	1
4902663	29	C	05/17/2024	13:05	-127.611	48.016	0	1035.50	0	3.3720	0	34.4060	0	27.383	0	1024.256	0	9.0	4	2.8	4	-1E+10	1	-1E+10	1	-1E+10	1	-1E+10	1	-1E+10	1	-1E+10	1
4902663	29	C	05/17/2024	13:05	-127.611	48.016	0	1045.40	0	3.3570	0	34.4090	0	27.387	0	1034.024	0	9.2	4	2.9	4	-1E+10	1	-1E+10	1	-1E+10	1	-1E+10	1	-1E+10	1	-1E+10	1
4902663	29	C	05/17/2024	13:05	-127.611	48.016	0	1055.30	0	3.3420	0	34.4120	0	27.391	0	1043.792	0	9.4	4	2.9	4	-1E+10	1	-1E+10	1	-1E+10	1	-1E+10	1	-1E+10	1	-1E+10	1
4902663	29	C	05/17/2024	13:05	-127.611	48.016	0	1065.40	0	3.3180	0	34.4140	0	27.395	0	1053.756	0	9.6	4	3.0	4	-1E+10	1	-1E+10	1	-1E+10	1	-1E+10	1	-1E+10	1	-1E+10	1
4902663	29	C	05/17/2024	13:05	-127.611	48.016	0	1075.30	0	3.2940	0	34.4160	0	27.399	0	1063.523	0	9.8	4	3.0	4	-1E+10	1	-1E+10	1	-1E+10	1	-1E+10	1	-1E+10	1	-1E+10	1
4902663	29	C	05/17/2024	13:05	-127.611	48.016	0	1085.30	0	3.2690	0	34.4200	0	27.404	0	1073.388	0	10.0	4	3.1	4	-1E+10	1	-1E+10	1	-1E+10	1	-1E+10	1	-1E+10	1	-1E+10	1
4902663	29	C	05/17/2024	13:05	-127.611	48.016	0	1095.30	0	3.2470	0	34.4230	0	27.409	0	1083.252	0	10.3	4	3.2	4	-1E+10	1	-1E+10	1	-1E+10	1	-1E+10	1	-1E+10	1	-1E+10	1
4902663	29	C	05/17/2024	13:05	-127.611	48.016	0	1105.10	0	3.2230	0	34.4260	0	27.414	0	1092.919	0	10.6	4	3.3	4	-1E+10	1	-1E+10	1	-1E+10	1	-1E+10	1	-1E+10	1	-1E+10	1
4902663	29	C	05/17/2024	13:05	-127.611	48.016	0	1115.20	0	3.2100	0	34.4280	0	27.416	0	1102.881	0	10.8	4	3.3	4	-1E+10	1	-1E+10	1	-1E+10	1	-1E+10	1	-1E+10	1	-1E+10	1
4902663	29	C	05/17/2024	13:05	-127.611	48.016	0	1125.40	0	3.1970	0	34.4320	0	27.421	0	1112.941	0	10.9	4	3.4	4	-1E+10	1	-1E+10	1	-1E+10	1	-1E+10	1	-1E+10	1	-1E+10	1
4902663	29	C	05/17/2024	13:05	-127.611	48.016	0	1135.50	0	3.1790	0	34.4350	0	27.425	0	1122.903	0	11.2	4	3.5	4	-1E+10	1	-1E+10	1	-1E+10	1	-1E+10	1	-1E+10	1	-1E+10	1
4902663	29	C	05/17/2024	13:05	-127.611	48.016	0	1145.30	0	3.1610	0	34.4380	0	27.429	0	1132.567	0	11.4	4	3.5	4	-1E+10	1	-1E+10	1	-1E+10	1	-1E+10	1	-1E+10	1	-1E+10	1
4902663	29	C	05/17/2024	13:05	-127.611	48.016	0	1155.40	0	3.1450	0	34.4400	0	27.432	0	1142.528	0	11.6	4	3.6	4	-1E+10	1	-1E+10	1	-1E+10	1	-1E+10	1	-1E+10	1	-1E+10	1
4902663	29	C	05/17/2024	13:05	-127.611	48.016	0	1165.50	0	3.1240	0	34.4410	0	27.435	0	1152.487	0	11.9	4	3.7	4	-1E+10	1	-1E+10	1	-1E+10	1	-1E+10	1	-1E+10	1	-1E+10	1
4902663	29	C	05/17/2024	13:05	-127.611	48.016	0	1175.70	0	3.1040	0	34.4430	0	27.439	0	1162.545	0	12.1	4	3.7	4	-1E+10	1	-1E+10	1	-1E+10	1	-1E+10	1	-1E+10	1	-1E+10	1
4902663	29	C	05/17/2024	13:05	-127.611	48.016	0	1185.40	0	3.0870	0	34.4470	0	27.443	0	1172.110	0	12.3	4	3.8	4	-1E+10	1	-1E+10	1	-1E+10	1	-1E+10	1	-1E+10	1	-1E+10	1
4902663	29	C	05/17/2024	13:05	-127.611	48.016	0	1195.20	0	3.0720	0	34.4500	0	27.447	0	1181.772	0	12.4	4	3.8	4	-1E+10	1	-1E+10	1	-1E+10	1	-1E+10	1	-1E+10	1	-1E+10	1
4902663	29	C	05/17/2024	13:05	-127.611	48.016	0	1205.50	0	3.0490	0	34.4510	0	27.450	0	1191.928	0	12.7	4	3.9	4	-1E+10	1	-1E+10	1	-1E+10	1	-1E+10	1	-1E+10	1	-1E+10	1
4902663	29	C	05/17/2024	13:05	-127.611	48.016	0	1215.30	0	3.0300	0	34.4540	0	27.454	0	1201.589	0	12.9	4	4.0	4	-1E+10	1	-1E+10	1	-1E+10	1	-1E+10	1	-1E+10	1	-1E+10	1
4902663	29	C	05/17/2024	13:05	-127.611	48.016	0	1225.20	0	3.0100	0	34.4550	0	27.457	0	1211.349	0	13.1	4	4.1	4	-1E+10	1	-1E+10	1	-1E+10	1	-1E+10	1	-1E+10	1	-1E+10	1
4902663	29	C	05/17/2024	13:05	-127.611	48.016	0	1235.50	0	2.9920	0	34.4580	0	27.461	0	1221.503	0	13.4	4	4.1	4	-1E+10	1	-1E+10	1	-1E+10	1	-1E+10	1	-1E+10	1	-1E+10	1
4902663	29	C	05/17/2024	13:05	-127.611	48.016	0	1245.80	0	2.9760	0	34.4600	0	27.464	0	1231.656	0	13.8	4	4.3	4	-1E+10	1	-1E+10	1	-1E+10	1	-1E+10	1	-1E+10	1	-1E+10	1
4902663	29	C	05/17/2024	13:05	-127.611	48.016	0	1255.90	0	2.9490	0	34.4630	0	27.469	0	1241.611	0	14.2	4	4.4	4	-1E+10	1	-1E+10	1	-1E+10	1	-1E+10	1	-1E+10	1	-1E+10	1
4902663	29	C	05/17/2024	13:05	-127.611	48.016	0	1265.40	0	2.9290	0	34.4660	0	27.473	0	1250.975	0	14.7	4	4.5	4	-1E+10	1	-1E+10	1	-1E+10	1	-1E+10	1	-1E+10	1	-1E+10	1
4902663	29	C	05/17/2024	13:05	-127.611	48.016	0	1275.40	0	2.9060	0	34.4700	0	27.479	0	1260.831	0	15.3	4	4.7	4	-1E+10	1	-1E+10	1	-1E+10	1	-1E+10	1	-1E+10	1	-1E+10	1
4902663	29	C	05/17/2024	13:05	-127.611	48.016	0	1285.70	0	2.8830	0	34.4730	0	27.483	0	1270.982	0	15.8	4	4.9	4	-1E+10	1	-1E+10	1	-1E+10	1	-1E+10	1	-1E+10	1	-1E+10	1
4902663	29	C	05/17/2024	13:05	-127.611	48.016	0	1295.40	0	2.8640	0	34.4750	0	27.486	0	1280.542	0	16.1	4	5.0	4	-1E+10	1	-1E+10	1	-1E+10	1	-1E+10	1	-1E+10	1	-1E+10	1
4902663	29	C	05/17/2024	13:05	-127.611	48.016	0	1305.60	0	2.8390	0	34.4770	0	27.490	0	1290.594	0	16.6	4	5.1	4	-1E+10	1	-1E+10	1	-1E+10	1	-1E+10	1	-1E+10	1	-1E+10	1
4902663	29	C	05/17/2024	13:05	-127.611	48.016	0	1315.80	0	2.8220	0	34.4790	0	27.493	0	1300.645	0	17.2	4	5.3	4	-1E+10	1	-1E+10	1	-1E+10	1	-1E+10	1	-1E+10	1	-1E+10	1
4902663	29	C	05/17/2024	13:05	-127.611	48.016	0	1325.40	0	2.8050	0	34.4810	0	27.496	0	1310.105	0	17.6	4	5.4	4	-1E+10	1	-1E+10	1	-1E+10	1	-1E+10	1	-1E+10	1	-1E+10	1
4902663	29	C	05/17/2024	13:05	-127.611	48.016	0	1335.30	0	2.7850	0	34.4830	0	27.500	0	1319.859	0	18.1	4	5.6	4	-1E+10	1	-1E+10	1	-1E+10	1	-1E+10	1	-1E+10	1	-1E+10	1
4902663	29	C	05/17/2024	13:05	-127.611	48.016	0	1345.40	0	2.7660	0	34.4860	0	27.504	0	1329.811	0	18.6	4	5.7	4	-1E+10	1	-1E+10	1	-1E+10	1	-1E+10	1	-1E+10	1	-1E+10	1
4902663	29	C	05/17/2024	13:05	-127.611	48.016	0	1355.30	0	2.7430	0	34.4880	0	27.508	0	1339.565	0	19.0	4	5.8	4	-1E+10	1	-1E+10	1	-1E+10	1	-1E+10	1	-1E+10	1	-1E+10	1
4902663	29	C	05/17/2024	13:05	-127.611	48.016	0	1365.40	0	2.7210	0	34.4910	0	27.512	0	1349.515	0	19.6	4	6.0	4	-1E+10	1	-1E+10	1	-1E+10	1	-1E+10	1	-1E+10	1	-1E+10	1
4902663	29	C	05/17/2024	13:05	-127.611	48.016	0	1375.70	0	2.7020	0	34.4940	0	27.516	0	1359.662	0	20.1	4	6.2	4	-1E+10	1	-1E+10	1	-1E+10	1	-1E+10	1	-1E+10	1	-1E+10	1
4902663	29	C	05/17/2024	13:05	-127.611	48.016	0	1385.70	0	2.6890	0	34.4950	0	27.518	0	1369.513	0	20.4	4	6.3	4	-1E+10	1	-1E+10	1	-1E+10	1	-1E+10	1	-1E+10	1	-1E+10	1
4902663	29	C	05/17/2024	13:05	-127.611	48.016	0	1395.70	0	2.6670	0	34.4970	0	27.522	0	1379.363	0	20.8	4	6.4	4	-1E+10	1	-1E+10	1	-1E+10	1	-1E+10	1	-1E+10	1	-1E+10	1
4902663	29	C	05/17/2024	13:05	-127.611	48.016	0	1405.40	0	2.6390	0	34.4980	0	27.525	0	1388.918	0	21.2	4	6.5	4	-1E+10	1	-1E+10	1	-1E+10	1	-1E+10	1	-1E+10	1	-1E+10	1
4902663	29	C	05/17/2024	13:05	-127.611	48.016	0	1415.20	0	2.6040	0	34.4990	0	27.529	0	1398.571	0	21.5	4	6.6	4	-1E+10	1	-1E+10	1	-1E+10	1	-1E+10	1	-1E+10	1	-1E+10	1
4902663	29	C	05/17/2024	13:05	-127.611	48.016	0	1425.50	0	2.5930	0	34.5000	0	27.530	0	1408.715	0	21.8	4	6.7	4	-1E+10	1	-1E+10	1	-1E+10	1	-1E+10	1	-1E+10	1	-1E+10	1
4902663	29	C	05/17/2024	13:05	-127.611	48.016	0	1435.50	0	2.5800	0	34.5010	0	27.532	0	1418.564	0	22.2	4	6.8	4	-1E+10	1	-1E+10	1	-1E+10	1	-1E+10	1	-1E+10	1	-1E+10	1
4902663	29	C	05/17/2024	13:05	-127.611	48.016	0	1445.40	0	2.5530	0	34.5030	0	27.536	0	1428.314	0	22.8	4	7.0	4	-1E+10	1	-1E+10	1	-1E+10	1	-1E+10	1	-1E+10	1	-1E+10	1
4902663	29	C	05/17/2024	13:05	-127.611	48.016	0	1455.30	0	2.5340	0	34.5050	0	27.540	0	1438.063	0	23.7	4	7.2	4	-1E+10	1	-1E+10	1	-1E+10	1	-1E+10	1	-1E+10	1	-1E+10	1
4902663	29	C	05/17/2024	13:05	-127.611	48.016	0	1465.50	0	2.5320	0	34.5120	0	27.545	0	1448.107	0	25.1	4	7.7	4	-1E+10	1	-1E+10	1	-1E+10	1	-1E+10	1	-1E+10	1	-1E+10	1
4902663	29	C	05/17/2024	13:05	-127.611	48.016	0	1475.30	0	2.5310	0	34.5170	0	27.550	0	1457.757	0	25.6	4	7.8	4	-1E+10	1	-1E+10	1	-1E+10	1	-1E+10	1	-1E+10	1	-1E+10	1
4902663	29	C	05/17/2024	13:05	-127.611	48.016	0	1485.30	0	2.5240	0	34.5180	0	27.551	0	1467.604	0	25.9	4	7.9	4	-1E+10	1	-1E+10	1	-1E+10	1	-1E+10	1	-1E+10	1	-1E+10	1
4902663	29	C	05/17/2024	13:05	-127.611	48.016	0	1495.50	0	2.5090	0	34.5190	0	27.553	0	1477.646	0	26.2	4	8.0	4	-1E+10	1	-1E+10	1	-1E+10	1	-1E+10	1	-1E+10	1	-1E+10	1
4902663	29	C	05/17/2024	13:05	-127.611	48.016	0	1505.40	0	2.4930	0	34.5200	0	27.555	0	1487.393	0	26.7	4	8.1	4	-1E+10	1	-1E+10	1	-1E+10	1	-1E+10	1	-1E+10	1	-1E+10	1
4902663	29	C	05/17/2024	13:05	-127.611	48.016	0	1515.50	0	2.4780	0	34.5220	0	27.558	0	1497.337	0	27.2	4	8.3	4	-1E+10	1	-1E+10	1	-1E+10	1	-1E+10	1	-1E+10	1	-1E+10	1
4902663	29	C	05/17/2024	13:05	-127.611	48.016	0	1525.30	0	2.4660	0	34.5240	0	27.561	0	1506.984	0	27.6	4	8.4	4	-1E+10	1	-1E+10	1	-1E+10	1	-1E+10	1	-1E+10	1	-1E+10	1
4902663	29	C	05/17/2024	13:05	-127.611	48.016	0	1535.40	0	2.4520	0	34.5250	0	27.563	0	1516.927	0	27.9	4	8.5	4	-1E+10	1	-1E+10	1	-1E+10	1	-1E+10	1	-1E+10	1	-1E+10	1
4902663	29	C	05/17/2024	13:05	-127.611	48.016	0	1545.40	0	2.4250	0	34.5250	0	27.565	0	1526.771	0	27.7	4	8.5	4	-1E+10	1	-1E+10	1	-1E+10	1	-1E+10	1	-1E+10	1	-1E+10	1
4902663	29	C	05/17/2024	13:05	-127.611	48.016	0	1555.30	0	2.3960	0	34.5240	0	27.567	0	1536.515	0	28.1	4	8.6	4	-1E+10	1	-1E+10	1	-1E+10	1	-1E+10	1	-1E+10	1	-1E+10	1
4902663	29	C	05/17/2024	13:05	-127.611	48.016	0	1565.50	0	2.3740	0	34.5250	0	27.570	0	1546.555	0	28.7	4	8.7	4	-1E+10	1	-1E+10	1	-1E+10	1	-1E+10	1	-1E+10	1	-1E+10	1
4902663	29	C	05/17/2024	13:05	-127.611	48.016	0	1575.60	0	2.3540	0	34.5270	0	27.573	0	1556.495	0	29.2	4	8.9	4	-1E+10	1	-1E+10	1	-1E+10	1	-1E+10	1	-1E+10	1	-1E+10	1
4902663	29	C	05/17/2024	13:05	-127.611	48.016	0	1585.40	0	2.3380	0	34.5280	0	27.575	0	1566.140	0	29.7	4	9.0	4	-1E+10	1	-1E+10	1	-1E+10	1	-1E+10	1	-1E+10	1	-1E+10	1
4902663	29	C	05/17/2024	13:05	-127.611	48.016	0	1595.10	0	2.3210	0	34.5290	0	27.577	0	1575.686	0	30.2	4	9.2	4	-1E+10	1	-1E+10	1	-1E+10	1	-1E+10	1	-1E+10	1	-1E+10	1
4902663	29	C	05/17/2024	13:05	-127.611	48.016	0	1605.00	0	2.3120	0	34.5310	0	27.580	0	1585.429	0	30.8	4	9.3	4	-1E+10	1	-1E+10	1	-1E+10	1	-1E+10	1	-1E+10	1	-1E+10	1
4902663	29	C	05/17/2024	13:05	-127.611	48.016	0	1615.00	0	2.3020	0	34.5330	0	27.582	0	1595.269	0	31.3	4	9.5	4	-1E+10	1	-1E+10	1	-1E+10	1	-1E+10	1	-1E+10	1	-1E+10	1
4902663	29	C	05/17/2024	13:05	-127.611	48.016	0	1625.10	0	2.2910	0	34.5340	0	27.584	0	1605.208	0	31.7	4	9.6	4	-1E+10	1	-1E+10	1	-1E+10	1	-1E+10	1	-1E+10	1	-1E+10	1
4902663	29	C	05/17/2024	13:05	-127.611	48.016	0	1635.60	0	2.2830	0	34.5350	0	27.585	0	1615.539	0	32.2	4	9.8	4	-1E+10	1	-1E+10	1	-1E+10	1	-1E+10	1	-1E+10	1	-1E+10	1
4902663	29	C	05/17/2024	13:05	-127.611	48.016	0	1645.60	0	2.2750	0	34.5380	0	27.588	0	1625.378	0	32.9	4	10.0	4	-1E+10	1	-1E+10	1	-1E+10	1	-1E+10	1	-1E+10	1	-1E+10	1
4902663	29	C	05/17/2024	13:05	-127.611	48.016	0	1655.30	0	2.2690	0	34.5400	0	27.591	0	1634.922	0	33.5	4	10.2	4	-1E+10	1	-1E+10	1	-1E+10	1	-1E+10	1	-1E+10	1	-1E+10	1
4902663	29	C	05/17/2024	13:05	-127.611	48.016	0	1665.40	0	2.2540	0	34.5410	0	27.593	0	1644.858	0	34.0	4	10.3	4	-1E+10	1	-1E+10	1	-1E+10	1	-1E+10	1	-1E+10	1	-1E+10	1
4902663	29	C	05/17/2024	13:05	-127.611	48.016	0	1675.40	0	2.2430	0	34.5430	0	27.595	0	1654.696	0	34.5	4	10.5	4	-1E+10	1	-1E+10	1	-1E+10	1	-1E+10	1	-1E+10	1	-1E+10	1
4902663	29	C	05/17/2024	13:05	-127.611	48.016	0	1685.50	0	2.2340	0	34.5440	0	27.597	0	1664.631	0	34.8	4	10.6	4	-1E+10	1	-1E+10	1	-1E+10	1	-1E+10	1	-1E+10	1	-1E+10	1
4902663	29	C	05/17/2024	13:05	-127.611	48.016	0	1695.50	0	2.2190	0	34.5450	0	27.599	0	1674.468	0	35.3	4	10.7	4	-1E+10	1	-1E+10	1	-1E+10	1	-1E+10	1	-1E+10	1	-1E+10	1
4902663	29	C	05/17/2024	13:05	-127.611	48.016	0	1705.40	0	2.2110	0	34.5460	0	27.600	0	1684.206	0	35.9	4	10.9	4	-1E+10	1	-1E+10	1	-1E+10	1	-1E+10	1	-1E+10	1	-1E+10	1
4902663	29	C	05/17/2024	13:05	-127.611	48.016	0	1715.80	0	2.2060	0	34.5490	0	27.603	0	1694.435	0	36.5	4	11.1	4	-1E+10	1	-1E+10	1	-1E+10	1	-1E+10	1	-1E+10	1	-1E+10	1
4902663	29	C	05/17/2024	13:05	-127.611	48.016	0	1725.50	0	2.2030	0	34.5510	0	27.605	0	1703.975	0	37.0	4	11.2	4	-1E+10	1	-1E+10	1	-1E+10	1	-1E+10	1	-1E+10	1	-1E+10	1
4902663	29	C	05/17/2024	13:05	-127.611	48.016	0	1735.10	0	2.2010	0	34.5530	0	27.607	0	1713.417	0	37.5	4	11.4	4	-1E+10	1	-1E+10	1	-1E+10	1	-1E+10	1	-1E+10	1	-1E+10	1
4902663	29	C	05/17/2024	13:05	-127.611	48.016	0	1745.20	0	2.1870	0	34.5540	0	27.609	0	1723.350	0	38.1	4	11.6	4	-1E+10	1	-1E+10	1	-1E+10	1	-1E+10	1	-1E+10	1	-1E+10	1
4902663	29	C	05/17/2024	13:05	-127.611	48.016	0	1755.10	0	2.1730	0	34.5550	0	27.611	0	1733.085	0	38.9	4	11.8	4	-1E+10	1	-1E+10	1	-1E+10	1	-1E+10	1	-1E+10	1	-1E+10	1
4902663	29	C	05/17/2024	13:05	-127.611	48.016	0	1765.10	0	2.1510	0	34.5570	0	27.614	0	1742.919	0	39.7	4	12.0	4	-1E+10	1	-1E+10	1	-1E+10	1	-1E+10	1	-1E+10	1	-1E+10	1
4902663	29	C	05/17/2024	13:05	-127.611	48.016	0	1775.20	0	2.1400	0	34.5580	0	27.616	0	1752.850	0	40.2	4	12.2	4	-1E+10	1	-1E+10	1	-1E+10	1	-1E+10	1	-1E+10	1	-1E+10	1
4902663	29	C	05/17/2024	13:05	-127.611	48.016	0	1785.10	0	2.1310	0	34.5600	0	27.618	0	1762.584	0	40.9	4	12.4	4	-1E+10	1	-1E+10	1	-1E+10	1	-1E+10	1	-1E+10	1	-1E+10	1
4902663	29	C	05/17/2024	13:05	-127.611	48.016	0	1795.50	0	2.1170	0	34.5620	0	27.621	0	1772.810	0	41.7	4	12.6	4	-1E+10	1	-1E+10	1	-1E+10	1	-1E+10	1	-1E+10	1	-1E+10	1
4902663	29	C	05/17/2024	13:05	-127.611	48.016	0	1805.80	0	2.1040	0	34.5630	0	27.623	0	1782.937	0	42.3	4	12.8	4	-1E+10	1	-1E+10	1	-1E+10	1	-1E+10	1	-1E+10	1	-1E+10	1
4902663	29	C	05/17/2024	13:05	-127.611	48.016	0	1815.70	0	2.0970	0	34.5650	0	27.625	0	1792.669	0	42.9	4	13.0	4	-1E+10	1	-1E+10	1	-1E+10	1	-1E+10	1	-1E+10	1	-1E+10	1
4902663	29	C	05/17/2024	13:05	-127.611	48.016	0	1825.50	0	2.0890	0	34.5680	0	27.628	0	1802.304	0	43.7	4	13.2	4	-1E+10	1	-1E+10	1	-1E+10	1	-1E+10	1	-1E+10	1	-1E+10	1
4902663	29	C	05/17/2024	13:05	-127.611	48.016	0	1835.50	0	2.0760	0	34.5700	0	27.631	0	1812.134	0	44.4	4	13.4	4	-1E+10	1	-1E+10	1	-1E+10	1	-1E+10	1	-1E+10	1	-1E+10	1
4902663	29	C	05/17/2024	13:05	-127.611	48.016	0	1845.50	0	2.0640	0	34.5710	0	27.633	0	1821.964	0	45.1	4	13.6	4	-1E+10	1	-1E+10	1	-1E+10	1	-1E+10	1	-1E+10	1	-1E+10	1
4902663	29	C	05/17/2024	13:05	-127.611	48.016	0	1855.70	0	2.0550	0	34.5730	0	27.635	0	1831.990	0	45.6	4	13.8	4	-1E+10	1	-1E+10	1	-1E+10	1	-1E+10	1	-1E+10	1	-1E+10	1
4902663	29	C	05/17/2024	13:05	-127.611	48.016	0	1865.60	0	2.0460	0	34.5740	0	27.637	0	1841.720	0	46.2	4	14.0	4	-1E+10	1	-1E+10	1	-1E+10	1	-1E+10	1	-1E+10	1	-1E+10	1
4902663	29	C	05/17/2024	13:05	-127.611	48.016	0	1875.80	0	2.0350	0	34.5760	0	27.639	0	1851.746	0	46.9	4	14.1	4	-1E+10	1	-1E+10	1	-1E+10	1	-1E+10	1	-1E+10	1	-1E+10	1
4902663	29	C	05/17/2024	13:05	-127.611	48.016	0	1885.60	0	2.0270	0	34.5770	0	27.641	0	1861.377	0	47.5	4	14.3	4	-1E+10	1	-1E+10	1	-1E+10	1	-1E+10	1	-1E+10	1	-1E+10	1
4902663	29	C	05/17/2024	13:05	-127.611	48.016	0	1895.40	0	2.0180	0	34.5790	0	27.643	0	1871.008	0	48.2	4	14.5	4	-1E+10	1	-1E+10	1	-1E+10	1	-1E+10	1	-1E+10	1	-1E+10	1
4902663	29	C	05/17/2024	13:05	-127.611	48.016	0	1905.30	0	2.0080	0	34.5800	0	27.645	0	1880.737	0	48.8	4	14.7	4	-1E+10	1	-1E+10	1	-1E+10	1	-1E+10	1	-1E+10	1	-1E+10	1
4902663	29	C	05/17/2024	13:05	-127.611	48.016	0	1915.40	0	2.0000	0	34.5820	0	27.647	0	1890.662	0	49.4	4	14.9	4	-1E+10	1	-1E+10	1	-1E+10	1	-1E+10	1	-1E+10	1	-1E+10	1
4902663	29	C	05/17/2024	13:05	-127.611	48.016	0	1925.50	0	1.9920	0	34.5830	0	27.648	0	1900.586	0	49.9	4	15.0	4	-1E+10	1	-1E+10	1	-1E+10	1	-1E+10	1	-1E+10	1	-1E+10	1
4902663	29	C	05/17/2024	13:05	-127.611	48.016	0	1935.40	0	1.9850	0	34.5840	0	27.650	0	1910.314	0	50.4	4	15.2	4	-1E+10	1	-1E+10	1	-1E+10	1	-1E+10	1	-1E+10	1	-1E+10	1
4902663	29	C	05/17/2024	13:05	-127.611	48.016	0	1945.40	0	1.9770	0	34.5860	0	27.652	0	1920.139	0	51.0	4	15.4	4	-1E+10	1	-1E+10	1	-1E+10	1	-1E+10	1	-1E+10	1	-1E+10	1
4902663	29	C	05/17/2024	13:05	-127.611	48.016	0	1955.50	0	1.9670	0	34.5880	0	27.655	0	1930.062	0	51.7	4	15.6	4	-1E+10	1	-1E+10	1	-1E+10	1	-1E+10	1	-1E+10	1	-1E+10	1
4902663	29	C	05/17/2024	13:05	-127.611	48.016	0	1965.10	0	1.9580	0	34.5890	0	27.656	0	1939.494	0	52.2	4	15.7	4	-1E+10	1	-1E+10	1	-1E+10	1	-1E+10	1	-1E+10	1	-1E+10	1
4902663	29	C	05/17/2024	13:05	-127.611	48.016	0	1975.00	0	1.9530	0	34.5900	0	27.657	0	1949.220	0	52.6	4	15.8	4	-1E+10	1	-1E+10	1	-1E+10	1	-1E+10	1	-1E+10	1	-1E+10	1
4902663	29	C	05/17/2024	13:05	-127.611	48.016	0	1985.60	0	1.9440	0	34.5920	0	27.660	0	1959.632	0	52.8	4	15.9	4	-1E+10	1	-1E+10	1	-1E+10	1	-1E+10	1	-1E+10	1	-1E+10	1
4902663	29	C	05/17/2024	13:05	-127.611	48.016	0	1991.80	0	1.9400	0	34.5930	0	27.661	0	1965.723	0	52.2	4	15.7	4	-1E+10	1	-1E+10	1	-1E+10	1	-1E+10	1	-1E+10	1	-1E+10	1
4902663	29	C	05/17/2024	13:05	-127.611	48.016	0																										
4902663	30	C	05/27/2024	08:15	-127.886	47.943	0	0.20	0	11.8290	0	31.9670	0	24.266	0	0.198	0	261.6	4	96.9	4	-1E+10	1	-1E+10	1	-1E+10	1	-1E+10	1	-1E+10	1	-1E+10	1
4902663	30	C	05/27/2024	08:15	-127.886	47.943	0	0.90	0	11.8320	0	31.9630	0	24.263	0	0.892	0	261.7	4	97.0	4	-1E+10	1	-1E+10	1	-1E+10	1	-1E+10	1	-1E+10	1	-1E+10	1
4902663	30	C	05/27/2024	08:15	-127.886	47.943	0	1.70	0	11.8300	0	31.9650	0	24.265	0	1.686	0	261.8	4	97.0	4	-1E+10	1	-1E+10	1	-1E+10	1	-1E+10	1	-1E+10	1	-1E+10	1
4902663	30	C	05/27/2024	08:15	-127.886	47.943	0	2.90	0	11.8280	0	31.9660	0	24.266	0	2.876	0	261.8	4	97.0	4	-1E+10	1	-1E+10	1	-1E+10	1	-1E+10	1	-1E+10	1	-1E+10	1
4902663	30	C	05/27/2024	08:15	-127.886	47.943	0	4.20	0	11.8290	0	31.9700	0	24.269	0	4.165	0	261.8	4	97.0	4	-1E+10	1	-1E+10	1	-1E+10	1	-1E+10	1	-1E+10	1	-1E+10	1
4902663	30	C	05/27/2024	08:15	-127.886	47.943	0	5.00	0	11.8270	0	31.9700	0	24.269	0	4.958	0	261.8	4	97.0	4	-1E+10	1	-1E+10	1	-1E+10	1	-1E+10	1	-1E+10	1	-1E+10	1
4902663	30	C	05/27/2024	08:15	-127.886	47.943	0	5.80	0	11.8260	0	31.9700	0	24.269	0	5.751	0	261.7	4	97.0	4	-1E+10	1	-1E+10	1	-1E+10	1	-1E+10	1	-1E+10	1	-1E+10	1
4902663	30	C	05/27/2024	08:15	-127.886	47.943	0	6.70	0	11.8260	0	31.9700	0	24.270	0	6.644	0	261.8	4	97.0	4	-1E+10	1	-1E+10	1	-1E+10	1	-1E+10	1	-1E+10	1	-1E+10	1
4902663	30	C	05/27/2024	08:15	-127.886	47.943	0	7.90	0	11.8220	0	31.9690	0	24.270	0	7.834	0	261.8	4	97.0	4	-1E+10	1	-1E+10	1	-1E+10	1	-1E+10	1	-1E+10	1	-1E+10	1
4902663	30	C	05/27/2024	08:15	-127.886	47.943	0	9.10	0	11.8120	0	31.9690	0	24.271	0	9.023	0	261.8	4	97.0	4	-1E+10	1	-1E+10	1	-1E+10	1	-1E+10	1	-1E+10	1	-1E+10	1
4902663	30	C	05/27/2024	08:15	-127.886	47.943	0	9.80	0	11.8100	0	31.9620	0	24.266	0	9.718	0	262.0	4	97.0	4	-1E+10	1	-1E+10	1	-1E+10	1	-1E+10	1	-1E+10	1	-1E+10	1
4902663	30	C	05/27/2024	08:15	-127.886	47.943	0	11.00	0	11.7980	0	31.9700	0	24.275	0	10.907	0	262.1	4	97.0	4	-1E+10	1	-1E+10	1	-1E+10	1	-1E+10	1	-1E+10	1	-1E+10	1
4902663	30	C	05/27/2024	08:15	-127.886	47.943	0	12.30	0	11.7020	0	31.9770	0	24.298	0	12.196	0	262.3	4	96.9	4	-1E+10	1	-1E+10	1	-1E+10	1	-1E+10	1	-1E+10	1	-1E+10	1
4902663	30	C	05/27/2024	08:15	-127.886	47.943	0	13.20	0	11.6180	0	31.9700	0	24.308	0	13.089	0	262.7	4	96.9	4	-1E+10	1	-1E+10	1	-1E+10	1	-1E+10	1	-1E+10	1	-1E+10	1
4902663	30	C	05/27/2024	08:15	-127.886	47.943	0	14.10	0	11.6070	0	31.9690	0	24.309	0	13.981	0	262.7	4	96.9	4	-1E+10	1	-1E+10	1	-1E+10	1	-1E+10	1	-1E+10	1	-1E+10	1
4902663	30	C	05/27/2024	08:15	-127.886	47.943	0	15.00	0	11.6150	0	31.9690	0	24.307	0	14.874	0	262.7	4	96.9	4	-1E+10	1	-1E+10	1	-1E+10	1	-1E+10	1	-1E+10	1	-1E+10	1
4902663	30	C	05/27/2024	08:15	-127.886	47.943	0	15.90	0	11.6050	0	31.9710	0	24.311	0	15.766	0	262.8	4	96.9	4	-1E+10	1	-1E+10	1	-1E+10	1	-1E+10	1	-1E+10	1	-1E+10	1
4902663	30	C	05/27/2024	08:15	-127.886	47.943	0	16.80	0	11.6000	0	31.9710	0	24.312	0	16.658	0	262.9	4	96.9	4	-1E+10	1	-1E+10	1	-1E+10	1	-1E+10	1	-1E+10	1	-1E+10	1
4902663	30	C	05/27/2024	08:15	-127.886	47.943	0	17.70	0	11.5970	0	31.9690	0	24.311	0	17.551	0	263.0	4	97.0	4	-1E+10	1	-1E+10	1	-1E+10	1	-1E+10	1	-1E+10	1	-1E+10	1
4902663	30	C	05/27/2024	08:15	-127.886	47.943	0	19.00	0	11.5960	0	31.9720	0	24.313	0	18.840	0	263.1	4	97.0	4	-1E+10	1	-1E+10	1	-1E+10	1	-1E+10	1	-1E+10	1	-1E+10	1
4902663	30	C	05/27/2024	08:15	-127.886	47.943	0	20.30	0	11.5930	0	31.9720	0	24.314	0	20.129	0	263.4	4	97.1	4	-1E+10	1	-1E+10	1	-1E+10	1	-1E+10	1	-1E+10	1	-1E+10	1
4902663	30	C	05/27/2024	08:15	-127.886	47.943	0	21.20	0	11.5850	0	31.9720	0	24.315	0	21.021	0	263.7	4	97.2	4	-1E+10	1	-1E+10	1	-1E+10	1	-1E+10	1	-1E+10	1	-1E+10	1
4902663	30	C	05/27/2024	08:15	-127.886	47.943	0	22.10	0	11.5800	0	31.9720	0	24.316	0	21.913	0	264.2	4	97.4	4	-1E+10	1	-1E+10	1	-1E+10	1	-1E+10	1	-1E+10	1	-1E+10	1
4902663	30	C	05/27/2024	08:15	-127.886	47.943	0	22.80	0	11.5760	0	31.9710	0	24.316	0	22.608	0	264.2	4	97.4	4	-1E+10	1	-1E+10	1	-1E+10	1	-1E+10	1	-1E+10	1	-1E+10	1
4902663	30	C	05/27/2024	08:15	-127.886	47.943	0	23.80	0	11.5630	0	31.9730	0	24.320	0	23.599	0	265.8	4	97.9	4	-1E+10	1	-1E+10	1	-1E+10	1	-1E+10	1	-1E+10	1	-1E+10	1
4902663	30	C	05/27/2024	08:15	-127.886	47.943	0	24.80	0	11.5060	0	31.9900	0	24.344	0	24.591	0	267.5	4	98.4	4	-1E+10	1	-1E+10	1	-1E+10	1	-1E+10	1	-1E+10	1	-1E+10	1
4902663	30	C	05/27/2024	08:15	-127.886	47.943	0	25.80	0	11.3660	0	32.0410	0	24.408	0	25.582	0	269.2	4	98.8	4	-1E+10	1	-1E+10	1	-1E+10	1	-1E+10	1	-1E+10	1	-1E+10	1
4902663	30	C	05/27/2024	08:15	-127.886	47.943	0	27.00	0	11.0780	0	32.1270	0	24.526	0	26.772	0	271.2	4	99.0	4	-1E+10	1	-1E+10	1	-1E+10	1	-1E+10	1	-1E+10	1	-1E+10	1
4902663	30	C	05/27/2024	08:15	-127.886	47.943	0	28.00	0	10.7530	0	32.2320	0	24.665	0	27.763	0	272.1	4	98.7	4	-1E+10	1	-1E+10	1	-1E+10	1	-1E+10	1	-1E+10	1	-1E+10	1
4902663	30	C	05/27/2024	08:15	-127.886	47.943	0	28.80	0	10.6630	0	32.2450	0	24.691	0	28.556	0	272.2	4	98.6	4	-1E+10	1	-1E+10	1	-1E+10	1	-1E+10	1	-1E+10	1	-1E+10	1
4902663	30	C	05/27/2024	08:15	-127.886	47.943	0	29.90	0	10.5730	0	32.2700	0	24.725	0	29.647	0	272.4	4	98.5	4	-1E+10	1	-1E+10	1	-1E+10	1	-1E+10	1	-1E+10	1	-1E+10	1
4902663	30	C	05/27/2024	08:15	-127.886	47.943	0	31.10	0	10.4560	0	32.2860	0	24.758	0	30.837	0	272.5	4	98.3	4	-1E+10	1	-1E+10	1	-1E+10	1	-1E+10	1	-1E+10	1	-1E+10	1
4902663	30	C	05/27/2024	08:15	-127.886	47.943	0	31.90	0	10.3770	0	32.2990	0	24.781	0	31.630	0	272.4	4	98.1	4	-1E+10	1	-1E+10	1	-1E+10	1	-1E+10	1	-1E+10	1	-1E+10	1
4902663	30	C	05/27/2024	08:15	-127.886	47.943	0	32.70	0	10.3210	0	32.3110	0	24.800	0	32.423	0	272.3	4	97.9	4	-1E+10	1	-1E+10	1	-1E+10	1	-1E+10	1	-1E+10	1	-1E+10	1
4902663	30	C	05/27/2024	08:15	-127.886	47.943	0	33.90	0	10.2030	0	32.3200	0	24.827	0	33.613	0	272.0	4	97.6	4	-1E+10	1	-1E+10	1	-1E+10	1	-1E+10	1	-1E+10	1	-1E+10	1
4902663	30	C	05/27/2024	08:15	-127.886	47.943	0	35.20	0	10.1610	0	32.3160	0	24.831	0	34.902	0	271.5	4	97.3	4	-1E+10	1	-1E+10	1	-1E+10	1	-1E+10	1	-1E+10	1	-1E+10	1
4902663	30	C	05/27/2024	08:15	-127.886	47.943	0	36.10	0	10.1470	0	32.3150	0	24.833	0	35.794	0	271.1	4	97.1	4	-1E+10	1	-1E+10	1	-1E+10	1	-1E+10	1	-1E+10	1	-1E+10	1
4902663	30	C	05/27/2024	08:15	-127.886	47.943	0	37.00	0	10.1450	0	32.3150	0	24.833	0	36.686	0	270.7	4	97.0	4	-1E+10	1	-1E+10	1	-1E+10	1	-1E+10	1	-1E+10	1	-1E+10	1
4902663	30	C	05/27/2024	08:15	-127.886	47.943	0	37.80	0	10.1310	0	32.3200	0	24.839	0	37.480	0	270.1	4	96.8	4	-1E+10	1	-1E+10	1	-1E+10	1	-1E+10	1	-1E+10	1	-1E+10	1
4902663	30	C	05/27/2024	08:15	-127.886	47.943	0	38.70	0	10.1060	0	32.3110	0	24.836	0	38.372	0	269.7	4	96.6	4	-1E+10	1	-1E+10	1	-1E+10	1	-1E+10	1	-1E+10	1	-1E+10	1
4902663	30	C	05/27/2024	08:15	-127.886	47.943	0	39.60	0	9.9490	0	32.3250	0	24.873	0	39.264	0	269.5	4	96.2	4	-1E+10	1	-1E+10	1	-1E+10	1	-1E+10	1	-1E+10	1	-1E+10	1
4902663	30	C	05/27/2024	08:15	-127.886	47.943	0	40.90	0	9.8670	0	32.3220	0	24.885	0	40.553	0	268.8	4	95.7	4	-1E+10	1	-1E+10	1	-1E+10	1	-1E+10	1	-1E+10	1	-1E+10	1
4902663	30	C	05/27/2024	08:15	-127.886	47.943	0	42.40	0	9.8560	0	32.3220	0	24.886	0	42.040	0	267.6	4	95.3	4	-1E+10	1	-1E+10	1	-1E+10	1	-1E+10	1	-1E+10	1	-1E+10	1
4902663	30	C	05/27/2024	08:15	-127.886	47.943	0	43.30	0	9.8570	0	32.3200	0	24.885	0	42.932	0	266.7	4	95.0	4	-1E+10	1	-1E+10	1	-1E+10	1	-1E+10	1	-1E+10	1	-1E+10	1
4902663	30	C	05/27/2024	08:15	-127.886	47.943	0	44.20	0	9.8540	0	32.3190	0	24.884	0	43.825	0	265.7	4	94.6	4	-1E+10	1	-1E+10	1	-1E+10	1	-1E+10	1	-1E+10	1	-1E+10	1
4902663	30	C	05/27/2024	08:15	-127.886	47.943	0	45.10	0	9.8530	0	32.3170	0	24.883	0	44.717	0	264.6	4	94.2	4	-1E+10	1	-1E+10	1	-1E+10	1	-1E+10	1	-1E+10	1	-1E+10	1
4902663	30	C	05/27/2024	08:15	-127.886	47.943	0	46.00	0	9.8130	0	32.3270	0	24.897	0	45.609	0	263.4	4	93.7	4	-1E+10	1	-1E+10	1	-1E+10	1	-1E+10	1	-1E+10	1	-1E+10	1
4902663	30	C	05/27/2024	08:15	-127.886	47.943	0	46.90	0	9.6360	0	32.3350	0	24.932	0	46.501	0	262.6	4	93.1	4	-1E+10	1	-1E+10	1	-1E+10	1	-1E+10	1	-1E+10	1	-1E+10	1
4902663	30	C	05/27/2024	08:15	-127.886	47.943	0	47.80	0	9.5360	0	32.3360	0	24.949	0	47.394	0	261.6	4	92.5	4	-1E+10	1	-1E+10	1	-1E+10	1	-1E+10	1	-1E+10	1	-1E+10	1
4902663	30	C	05/27/2024	08:15	-127.886	47.943	0	48.70	0	9.5090	0	32.3340	0	24.952	0	48.286	0	260.3	4	92.0	4	-1E+10	1	-1E+10	1	-1E+10	1	-1E+10	1	-1E+10	1	-1E+10	1
4902663	30	C	05/27/2024	08:15	-127.886	47.943	0	49.60	0	9.4960	0	32.3320	0	24.953	0	49.178	0	259.0	4	91.5	4	-1E+10	1	-1E+10	1	-1E+10	1	-1E+10	1	-1E+10	1	-1E+10	1
4902663	30	C	05/27/2024	08:15	-127.886	47.943	0	50.90	0	9.3960	0	32.3410	0	24.976	0	50.467	0	256.8	4	90.6	4	-1E+10	1	-1E+10	1	-1E+10	1	-1E+10	1	-1E+10	1	-1E+10	1
4902663	30	C	05/27/2024	08:15	-127.886	47.943	0	52.30	0	9.3010	0	32.3470	0	24.995	0	51.855	0	254.2	4	89.5	4	-1E+10	1	-1E+10	1	-1E+10	1	-1E+10	1	-1E+10	1	-1E+10	1
4902663	30	C	05/27/2024	08:15	-127.886	47.943	0	53.20	0	9.1380	0	32.3670	0	25.037	0	52.747	0	253.1	4	88.8	4	-1E+10	1	-1E+10	1	-1E+10	1	-1E+10	1	-1E+10	1	-1E+10	1
4902663	30	C	05/27/2024	08:15	-127.886	47.943	0	54.10	0	9.0960	0	32.3740	0	25.049	0	53.639	0	251.9	4	88.3	4	-1E+10	1	-1E+10	1	-1E+10	1	-1E+10	1	-1E+10	1	-1E+10	1
4902663	30	C	05/27/2024	08:15	-127.886	47.943	0	55.10	0	9.0450	0	32.3810	0	25.062	0	54.631	0	250.6	4	87.7	4	-1E+10	1	-1E+10	1	-1E+10	1	-1E+10	1	-1E+10	1	-1E+10	1
4902663	30	C	05/27/2024	08:15	-127.886	47.943	0	56.00	0	9.0190	0	32.3850	0	25.069	0	55.523	0	249.0	4	87.1	4	-1E+10	1	-1E+10	1	-1E+10	1	-1E+10	1	-1E+10	1	-1E+10	1
4902663	30	C	05/27/2024	08:15	-127.886	47.943	0	56.90	0	9.0000	0	32.3840	0	25.071	0	56.415	0	247.3	4	86.5	4	-1E+10	1	-1E+10	1	-1E+10	1	-1E+10	1	-1E+10	1	-1E+10	1
4902663	30	C	05/27/2024	08:15	-127.886	47.943	0	57.80	0	8.9110	0	32.4050	0	25.102	0	57.307	0	245.2	4	85.6	4	-1E+10	1	-1E+10	1	-1E+10	1	-1E+10	1	-1E+10	1	-1E+10	1
4902663	30	C	05/27/2024	08:15	-127.886	47.943	0	58.70	0	8.8020	0	32.4220	0	25.132	0	58.199	0	243.4	4	84.8	4	-1E+10	1	-1E+10	1	-1E+10	1	-1E+10	1	-1E+10	1	-1E+10	1
4902663	30	C	05/27/2024	08:15	-127.886	47.943	0	59.70	0	8.7210	0	32.4260	0	25.147	0	59.191	0	241.9	4	84.1	4	-1E+10	1	-1E+10	1	-1E+10	1	-1E+10	1	-1E+10	1	-1E+10	1
4902663	30	C	05/27/2024	08:15	-127.886	47.943	0	60.60	0	8.6850	0	32.4330	0	25.158	0	60.083	0	240.2	4	83.4	4	-1E+10	1	-1E+10	1	-1E+10	1	-1E+10	1	-1E+10	1	-1E+10	1
4902663	30	C	05/27/2024	08:15	-127.886	47.943	0	61.90	0	8.6440	0	32.4380	0	25.168	0	61.372	0	237.0	4	82.3	4	-1E+10	1	-1E+10	1	-1E+10	1	-1E+10	1	-1E+10	1	-1E+10	1
4902663	30	C	05/27/2024	08:15	-127.886	47.943	0	63.40	0	8.5690	0	32.4450	0	25.185	0	62.859	0	233.3	4	80.8	4	-1E+10	1	-1E+10	1	-1E+10	1	-1E+10	1	-1E+10	1	-1E+10	1
4902663	30	C	05/27/2024	08:15	-127.886	47.943	0	64.30	0	8.4490	0	32.4550	0	25.211	0	63.751	0	230.5	4	79.7	4	-1E+10	1	-1E+10	1	-1E+10	1	-1E+10	1	-1E+10	1	-1E+10	1
4902663	30	C	05/27/2024	08:15	-127.886	47.943	0	65.30	0	8.5060	0	32.4890	0	25.229	0	64.742	0	227.6	4	78.8	4	-1E+10	1	-1E+10	1	-1E+10	1	-1E+10	1	-1E+10	1	-1E+10	1
4902663	30	C	05/27/2024	08:15	-127.886	47.943	0	66.20	0	8.5220	0	32.5050	0	25.239	0	65.634	0	224.7	4	77.8	4	-1E+10	1	-1E+10	1	-1E+10	1	-1E+10	1	-1E+10	1	-1E+10	1
4902663	30	C	05/27/2024	08:15	-127.886	47.943	0	67.20	0	8.4400	0	32.5010	0	25.248	0	66.626	0	221.7	4	76.6	4	-1E+10	1	-1E+10	1	-1E+10	1	-1E+10	1	-1E+10	1	-1E+10	1
4902663	30	C	05/27/2024	08:15	-127.886	47.943	0	68.20	0	8.4390	0	32.5380	0	25.278	0	67.617	0	218.2	4	75.4	4	-1E+10	1	-1E+10	1	-1E+10	1	-1E+10	1	-1E+10	1	-1E+10	1
4902663	30	C	05/27/2024	08:15	-127.886	47.943	0	69.20	0	8.4030	0	32.5700	0	25.308	0	68.608	0	214.6	4	74.1	4	-1E+10	1	-1E+10	1	-1E+10	1	-1E+10	1	-1E+10	1	-1E+10	1
4902663	30	C	05/27/2024	08:15	-127.886	47.943	0	70.10	0	8.3940	0	32.6180	0	25.347	0	69.500	0	211.4	4	73.1	4	-1E+10	1	-1E+10	1	-1E+10	1	-1E+10	1	-1E+10	1	-1E+10	1
4902663	30	C	05/27/2024	08:15	-127.886	47.943	0	71.00	0	8.3830	0	32.6450	0	25.370	0	70.392	0	208.0	4	71.9	4	-1E+10	1	-1E+10	1	-1E+10	1	-1E+10	1	-1E+10	1	-1E+10	1
4902663	30	C	05/27/2024	08:15	-127.886	47.943	0	71.90	0	8.4330	0	32.6710	0	25.383	0	71.285	0	204.4	4	70.7	4	-1E+10	1	-1E+10	1	-1E+10	1	-1E+10	1	-1E+10	1	-1E+10	1
4902663	30	C	05/27/2024	08:15	-127.886	47.943	0	72.80	0	8.4800	0	32.7640	0	25.449	0	72.177	0	201.8	4	69.9	4	-1E+10	1	-1E+10	1	-1E+10	1	-1E+10	1	-1E+10	1	-1E+10	1
4902663	30	C	05/27/2024	08:15	-127.886	47.943	0	73.70	0	8.4790	0	32.7970	0	25.475	0	73.069	0	199.7	4	69.2	4	-1E+10	1	-1E+10	1	-1E+10	1	-1E+10	1	-1E+10	1	-1E+10	1
4902663	30	C	05/27/2024	08:15	-127.886	47.943	0	75.00	0	8.4620	0	32.8180	0	25.494	0	74.358	0	197.5	4	68.5	4	-1E+10	1	-1E+10	1	-1E+10	1	-1E+10	1	-1E+10	1	-1E+10	1
4902663	30	C	05/27/2024	08:15	-127.886	47.943	0	76.10	0	8.4380	0	32.8290	0	25.506	0	75.448	0	195.4	4	67.7	4	-1E+10	1	-1E+10	1	-1E+10	1	-1E+10	1	-1E+10	1	-1E+10	1
4902663	30	C	05/27/2024	08:15	-127.886	47.943	0	76.80	0	8.4180	0	32.8390	0	25.517	0	76.142	0	193.9	4	67.2	4	-1E+10	1	-1E+10	1	-1E+10	1	-1E+10	1	-1E+10	1	-1E+10	1
4902663	30	C	05/27/2024	08:15	-127.886	47.943	0	77.90	0	8.3120	0	32.8730	0	25.559	0	77.232	0	191.7	4	66.2	4	-1E+10	1	-1E+10	1	-1E+10	1	-1E+10	1	-1E+10	1	-1E+10	1
4902663	30	C	05/27/2024	08:15	-127.886	47.943	0	79.00	0	8.2550	0	32.8840	0	25.576	0	78.322	0	189.3	4	65.3	4	-1E+10	1	-1E+10	1	-1E+10	1	-1E+10	1	-1E+10	1	-1E+10	1
4902663	30	C	05/27/2024	08:15	-127.886	47.943	0	79.80	0	8.1880	0	32.9000	0	25.599	0	79.115	0	187.4	4	64.6	4	-1E+10	1	-1E+10	1	-1E+10	1	-1E+10	1	-1E+10	1	-1E+10	1
4902663	30	C	05/27/2024	08:15	-127.886	47.943	0	80.70	0	8.0670	0	32.9680	0	25.670	0	80.008	0	186.2	4	64.1	4	-1E+10	1	-1E+10	1	-1E+10	1	-1E+10	1	-1E+10	1	-1E+10	1
4902663	30	C	05/27/2024	08:15	-127.886	47.943	0	81.90	0	8.0360	0	32.9860	0	25.689	0	81.197	0	185.0	4	63.6	4	-1E+10	1	-1E+10	1	-1E+10	1	-1E+10	1	-1E+10	1	-1E+10	1
4902663	30	C	05/27/2024	08:15	-127.886	47.943	0	83.20	0	8.0220	0	32.9940	0	25.697	0	82.486	0	188.1	4	64.7	4	-1E+10	1	-1E+10	1	-1E+10	1	-1E+10	1	-1E+10	1	-1E+10	1
4902663	30	C	05/27/2024	08:15	-127.886	47.943	0	84.00	0	8.0150	0	32.9990	0	25.702	0	83.279	0	186.8	4	64.2	4	-1E+10	1	-1E+10	1	-1E+10	1	-1E+10	1	-1E+10	1	-1E+10	1
4902663	30	C	05/27/2024	08:15	-127.886	47.943	0	84.90	0	8.0050	0	33.0100	0	25.712	0	84.171	0	185.5	4	63.7	4	-1E+10	1	-1E+10	1	-1E+10	1	-1E+10	1	-1E+10	1	-1E+10	1
4902663	30	C	05/27/2024	08:15	-127.886	47.943	0	85.70	0	8.0010	0	33.0140	0	25.716	0	84.964	0	183.9	4	63.2	4	-1E+10	1	-1E+10	1	-1E+10	1	-1E+10	1	-1E+10	1	-1E+10	1
4902663	30	C	05/27/2024	08:15	-127.886	47.943	0	86.90	0	7.9970	0	33.0180	0	25.719	0	86.153	0	181.1	4	62.2	4	-1E+10	1	-1E+10	1	-1E+10	1	-1E+10	1	-1E+10	1	-1E+10	1
4902663	30	C	05/27/2024	08:15	-127.886	47.943	0	88.10	0	7.9780	0	33.0370	0	25.737	0	87.343	0	178.0	4	61.1	4	-1E+10	1	-1E+10	1	-1E+10	1	-1E+10	1	-1E+10	1	-1E+10	1
4902663	30	C	05/27/2024	08:15	-127.886	47.943	0	88.90	0	7.9320	0	33.0690	0	25.769	0	88.135	0	175.9	4	60.4	4	-1E+10	1	-1E+10	1	-1E+10	1	-1E+10	1	-1E+10	1	-1E+10	1
4902663	30	C	05/27/2024	08:15	-127.886	47.943	0	89.80	0	7.8900	0	33.1010	0	25.800	0	89.028	0	174.0	4	59.7	4	-1E+10	1	-1E+10	1	-1E+10	1	-1E+10	1	-1E+10	1	-1E+10	1
4902663	30	C	05/27/2024	08:15	-127.886	47.943	0	90.70	0	7.8680	0	33.1280	0	25.825	0	89.920	0	171.9	4	58.9	4	-1E+10	1	-1E+10	1	-1E+10	1	-1E+10	1	-1E+10	1	-1E+10	1
4902663	30	C	05/27/2024	08:15	-127.886	47.943	0	91.60	0	7.8650	0	33.1780	0	25.864	0	90.812	0	170.2	4	58.4	4	-1E+10	1	-1E+10	1	-1E+10	1	-1E+10	1	-1E+10	1	-1E+10	1
4902663	30	C	05/27/2024	08:15	-127.886	47.943	0	93.00	0	7.8510	0	33.1800	0	25.868	0	92.199	0	167.2	4	57.3	4	-1E+10	1	-1E+10	1	-1E+10	1	-1E+10	1	-1E+10	1	-1E+10	1
4902663	30	C	05/27/2024	08:15	-127.886	47.943	0	94.80	0	7.9130	0	33.2270	0	25.896	0	93.983	0	162.9	4	55.9	4	-1E+10	1	-1E+10	1	-1E+10	1	-1E+10	1	-1E+10	1	-1E+10	1
4902663	30	C	05/27/2024	08:15	-127.886	47.943	0	95.90	0	7.8720	0	33.2370	0	25.910	0	95.074	0	160.2	4	55.0	4	-1E+10	1	-1E+10	1	-1E+10	1	-1E+10	1	-1E+10	1	-1E+10	1
4902663	30	C	05/27/2024	08:15	-127.886	47.943	0	97.00	0	7.9470	0	33.2730	0	25.927	0	96.164	0	157.2	4	54.0	4	-1E+10	1	-1E+10	1	-1E+10	1	-1E+10	1	-1E+10	1	-1E+10	1
4902663	30	C	05/27/2024	08:15	-127.886	47.943	0	98.10	0	8.0240	0	33.3130	0	25.947	0	97.254	0	154.3	4	53.1	4	-1E+10	1	-1E+10	1	-1E+10	1	-1E+10	1	-1E+10	1	-1E+10	1
4902663	30	C	05/27/2024	08:15	-127.886	47.943	0	98.90	0	8.0920	0	33.3390	0	25.958	0	98.047	0	153.1	4	52.8	4	-1E+10	1	-1E+10	1	-1E+10	1	-1E+10	1	-1E+10	1	-1E+10	1
4902663	30	C	05/27/2024	08:15	-127.886	47.943	0	100.00	0	8.1100	0	33.3600	0	25.972	0	99.137	0	151.5	4	52.3	4	-1E+10	1	-1E+10	1	-1E+10	1	-1E+10	1	-1E+10	1	-1E+10	1
4902663	30	C	05/27/2024	08:15	-127.886	47.943	0	101.20	0	8.0860	0	33.3660	0	25.980	0	100.327	0	149.6	4	51.6	4	-1E+10	1	-1E+10	1	-1E+10	1	-1E+10	1	-1E+10	1	-1E+10	1
4902663	30	C	05/27/2024	08:15	-127.886	47.943	0	101.90	0	8.1400	0	33.4180	0	26.013	0	101.020	0	148.4	4	51.3	4	-1E+10	1	-1E+10	1	-1E+10	1	-1E+10	1	-1E+10	1	-1E+10	1
4902663	30	C	05/27/2024	08:15	-127.886	47.943	0	102.80	0	8.0590	0	33.4210	0	26.027	0	101.912	0	147.5	4	50.9	4	-1E+10	1	-1E+10	1	-1E+10	1	-1E+10	1	-1E+10	1	-1E+10	1
4902663	30	C	05/27/2024	08:15	-127.886	47.943	0	104.00	0	8.0740	0	33.4340	0	26.035	0	103.102	0	145.9	4	50.3	4	-1E+10	1	-1E+10	1	-1E+10	1	-1E+10	1	-1E+10	1	-1E+10	1
4902663	30	C	05/27/2024	08:15	-127.886	47.943	0	105.30	0	8.0900	0	33.4620	0	26.055	0	104.390	0	144.4	4	49.9	4	-1E+10	1	-1E+10	1	-1E+10	1	-1E+10	1	-1E+10	1	-1E+10	1
4902663	30	C	05/27/2024	08:15	-127.886	47.943	0	106.10	0	8.0290	0	33.4580	0	26.060	0	105.183	0	143.4	4	49.4	4	-1E+10	1	-1E+10	1	-1E+10	1	-1E+10	1	-1E+10	1	-1E+10	1
4902663	30	C	05/27/2024	08:15	-127.886	47.943	0	107.00	0	7.9920	0	33.4690	0	26.075	0	106.075	0	142.1	4	49.0	4	-1E+10	1	-1E+10	1	-1E+10	1	-1E+10	1	-1E+10	1	-1E+10	1
4902663	30	C	05/27/2024	08:15	-127.886	47.943	0	107.80	0	7.9520	0	33.4630	0	26.076	0	106.868	0	140.7	4	48.4	4	-1E+10	1	-1E+10	1	-1E+10	1	-1E+10	1	-1E+10	1	-1E+10	1
4902663	30	C	05/27/2024	08:15	-127.886	47.943	0	108.70	0	8.0230	0	33.4810	0	26.079	0	107.760	0	139.3	4	48.0	4	-1E+10	1	-1E+10	1	-1E+10	1	-1E+10	1	-1E+10	1	-1E+10	1
4902663	30	C	05/27/2024	08:15	-127.886	47.943	0	109.60	0	8.0790	0	33.5110	0	26.095	0	108.652	0	137.8	4	47.6	4	-1E+10	1	-1E+10	1	-1E+10	1	-1E+10	1	-1E+10	1	-1E+10	1
4902663	30	C	05/27/2024	08:15	-127.886	47.943	0	110.90	0	8.0580	0	33.5110	0	26.098	0	109.940	0	135.7	4	46.8	4	-1E+10	1	-1E+10	1	-1E+10	1	-1E+10	1	-1E+10	1	-1E+10	1
4902663	30	C	05/27/2024	08:15	-127.886	47.943	0	112.40	0	8.0990	0	33.5670	0	26.136	0	111.427	0	133.5	4	46.1	4	-1E+10	1	-1E+10	1	-1E+10	1	-1E+10	1	-1E+10	1	-1E+10	1
4902663	30	C	05/27/2024	08:15	-127.886	47.943	0	113.30	0	8.0400	0	33.5720	0	26.148	0	112.319	0	132.2	4	45.6	4	-1E+10	1	-1E+10	1	-1E+10	1	-1E+10	1	-1E+10	1	-1E+10	1
4902663	30	C	05/27/2024	08:15	-127.886	47.943	0	114.20	0	8.0370	0	33.5780	0	26.154	0	113.211	0	130.8	4	45.2	4	-1E+10	1	-1E+10	1	-1E+10	1	-1E+10	1	-1E+10	1	-1E+10	1
4902663	30	C	05/27/2024	08:15	-127.886	47.943	0	115.20	0	8.0880	0	33.5940	0	26.159	0	114.202	0	129.6	4	44.8	4	-1E+10	1	-1E+10	1	-1E+10	1	-1E+10	1	-1E+10	1	-1E+10	1
4902663	30	C	05/27/2024	08:15	-127.886	47.943	0	116.10	0	8.1400	0	33.6180	0	26.170	0	115.094	0	128.8	4	44.6	4	-1E+10	1	-1E+10	1	-1E+10	1	-1E+10	1	-1E+10	1	-1E+10	1
4902663	30	C	05/27/2024	08:15	-127.886	47.943	0	117.10	0	8.2070	0	33.6390	0	26.176	0	116.085	0	128.1	4	44.4	4	-1E+10	1	-1E+10	1	-1E+10	1	-1E+10	1	-1E+10	1	-1E+10	1
4902663	30	C	05/27/2024	08:15	-127.886	47.943	0	118.10	0	8.2130	0	33.6400	0	26.176	0	117.076	0	127.5	4	44.2	4	-1E+10	1	-1E+10	1	-1E+10	1	-1E+10	1	-1E+10	1	-1E+10	1
4902663	30	C	05/27/2024	08:15	-127.886	47.943	0	119.00	0	8.2120	0	33.6440	0	26.180	0	117.968	0	126.9	4	44.0	4	-1E+10	1	-1E+10	1	-1E+10	1	-1E+10	1	-1E+10	1	-1E+10	1
4902663	30	C	05/27/2024	08:15	-127.886	47.943	0	120.00	0	8.1630	0	33.6330	0	26.178	0	118.959	0	126.3	4	43.8	4	-1E+10	1	-1E+10	1	-1E+10	1	-1E+10	1	-1E+10	1	-1E+10	1
4902663	30	C	05/27/2024	08:15	-127.886	47.943	0	121.00	0	8.1820	0	33.6710	0	26.205	0	119.950	0	125.8	4	43.6	4	-1E+10	1	-1E+10	1	-1E+10	1	-1E+10	1	-1E+10	1	-1E+10	1
4902663	30	C	05/27/2024	08:15	-127.886	47.943	0	121.90	0	8.0940	0	33.6630	0	26.212	0	120.842	0	125.4	4	43.4	4	-1E+10	1	-1E+10	1	-1E+10	1	-1E+10	1	-1E+10	1	-1E+10	1
4902663	30	C	05/27/2024	08:15	-127.886	47.943	0	122.90	0	8.1190	0	33.6840	0	26.225	0	121.833	0	124.9	4	43.2	4	-1E+10	1	-1E+10	1	-1E+10	1	-1E+10	1	-1E+10	1	-1E+10	1
4902663	30	C	05/27/2024	08:15	-127.886	47.943	0	123.90	0	8.1240	0	33.6940	0	26.232	0	122.824	0	124.6	4	43.1	4	-1E+10	1	-1E+10	1	-1E+10	1	-1E+10	1	-1E+10	1	-1E+10	1
4902663	30	C	05/27/2024	08:15	-127.886	47.943	0	124.90	0	8.1320	0	33.7040	0	26.239	0	123.815	0	124.4	4	43.1	4	-1E+10	1	-1E+10	1	-1E+10	1	-1E+10	1	-1E+10	1	-1E+10	1
4902663	30	C	05/27/2024	08:15	-127.886	47.943	0	125.90	0	8.0550	0	33.7040	0	26.250	0	124.806	0	124.2	4	42.9	4	-1E+10	1	-1E+10	1	-1E+10	1	-1E+10	1	-1E+10	1	-1E+10	1
4902663	30	C	05/27/2024	08:15	-127.886	47.943	0	126.90	0	8.0320	0	33.7110	0	26.259	0	125.797	0	123.9	4	42.8	4	-1E+10	1	-1E+10	1	-1E+10	1	-1E+10	1	-1E+10	1	-1E+10	1
4902663	30	C	05/27/2024	08:15	-127.886	47.943	0	127.90	0	8.0300	0	33.7130	0	26.261	0	126.788	0	123.6	4	42.7	4	-1E+10	1	-1E+10	1	-1E+10	1	-1E+10	1	-1E+10	1	-1E+10	1
4902663	30	C	05/27/2024	08:15	-127.886	47.943	0	128.90	0	8.0320	0	33.7130	0	26.261	0	127.779	0	123.3	4	42.6	4	-1E+10	1	-1E+10	1	-1E+10	1	-1E+10	1	-1E+10	1	-1E+10	1
4902663	30	C	05/27/2024	08:15	-127.886	47.943	0	129.90	0	8.0410	0	33.7210	0	26.266	0	128.770	0	123.0	4	42.5	4	-1E+10	1	-1E+10	1	-1E+10	1	-1E+10	1	-1E+10	1	-1E+10	1
4902663	30	C	05/27/2024	08:15	-127.886	47.943	0	130.90	0	8.0630	0	33.7370	0	26.275	0	129.761	0	122.7	4	42.4	4	-1E+10	1	-1E+10	1	-1E+10	1	-1E+10	1	-1E+10	1	-1E+10	1
4902663	30	C	05/27/2024	08:15	-127.886	47.943	0	131.90	0	8.0560	0	33.7410	0	26.279	0	130.752	0	122.4	4	42.3	4	-1E+10	1	-1E+10	1	-1E+10	1	-1E+10	1	-1E+10	1	-1E+10	1
4902663	30	C	05/27/2024	08:15	-127.886	47.943	0	132.90	0	8.0560	0	33.7420	0	26.280	0	131.743	0	122.2	4	42.3	4	-1E+10	1	-1E+10	1	-1E+10	1	-1E+10	1	-1E+10	1	-1E+10	1
4902663	30	C	05/27/2024	08:15	-127.886	47.943	0	133.90	0	8.0600	0	33.7460	0	26.282	0	132.734	0	121.9	4	42.2	4	-1E+10	1	-1E+10	1	-1E+10	1	-1E+10	1	-1E+10	1	-1E+10	1
4902663	30	C	05/27/2024	08:15	-127.886	47.943	0	134.90	0	8.0610	0	33.7500	0	26.285	0	133.725	0	121.6	4	42.1	4	-1E+10	1	-1E+10	1	-1E+10	1	-1E+10	1	-1E+10	1	-1E+10	1
4902663	30	C	05/27/2024	08:15	-127.886	47.943	0	135.90	0	8.0180	0	33.7480	0	26.290	0	134.716	0	121.4	4	42.0	4	-1E+10	1	-1E+10	1	-1E+10	1	-1E+10	1	-1E+10	1	-1E+10	1
4902663	30	C	05/27/2024	08:15	-127.886	47.943	0	136.90	0	7.9980	0	33.7390	0	26.286	0	135.707	0	121.1	4	41.8	4	-1E+10	1	-1E+10	1	-1E+10	1	-1E+10	1	-1E+10	1	-1E+10	1
4902663	30	C	05/27/2024	08:15	-127.886	47.943	0	137.90	0	8.0310	0	33.7610	0	26.299	0	136.698	0	120.7	4	41.7	4	-1E+10	1	-1E+10	1	-1E+10	1	-1E+10	1	-1E+10	1	-1E+10	1
4902663	30	C	05/27/2024	08:15	-127.886	47.943	0	138.90	0	8.0190	0	33.7640	0	26.303	0	137.689	0	120.4	4	41.6	4	-1E+10	1	-1E+10	1	-1E+10	1	-1E+10	1	-1E+10	1	-1E+10	1
4902663	30	C	05/27/2024	08:15	-127.886	47.943	0	139.90	0	7.9950	0	33.7650	0	26.307	0	138.680	0	120.1	4	41.5	4	-1E+10	1	-1E+10	1	-1E+10	1	-1E+10	1	-1E+10	1	-1E+10	1
4902663	30	C	05/27/2024	08:15	-127.886	47.943	0	140.90	0	7.9140	0	33.7630	0	26.317	0	139.671	0	119.8	4	41.3	4	-1E+10	1	-1E+10	1	-1E+10	1	-1E+10	1	-1E+10	1	-1E+10	1
4902663	30	C	05/27/2024	08:15	-127.886	47.943	0	141.90	0	7.8920	0	33.7640	0	26.321	0	140.662	0	119.4	4	41.2	4	-1E+10	1	-1E+10	1	-1E+10	1	-1E+10	1	-1E+10	1	-1E+10	1
4902663	30	C	05/27/2024	08:15	-127.886	47.943	0	142.90	0	7.8970	0	33.7670	0	26.323	0	141.653	0	119.0	4	41.0	4	-1E+10	1	-1E+10	1	-1E+10	1	-1E+10	1	-1E+10	1	-1E+10	1
4902663	30	C	05/27/2024	08:15	-127.886	47.943	0	143.90	0	7.9190	0	33.7740	0	26.325	0	142.643	0	118.4	4	40.8	4	-1E+10	1	-1E+10	1	-1E+10	1	-1E+10	1	-1E+10	1	-1E+10	1
4902663	30	C	05/27/2024	08:15	-127.886	47.943	0	144.90	0	7.9440	0	33.7840	0	26.329	0	143.634	0	117.7	4	40.6	4	-1E+10	1	-1E+10	1	-1E+10	1	-1E+10	1	-1E+10	1	-1E+10	1
4902663	30	C	05/27/2024	08:15	-127.886	47.943	0	145.90	0	7.9600	0	33.7940	0	26.335	0	144.625	0	117.2	4	40.4	4	-1E+10	1	-1E+10	1	-1E+10	1	-1E+10	1	-1E+10	1	-1E+10	1
4902663	30	C	05/27/2024	08:15	-127.886	47.943	0	146.90	0	7.9480	0	33.7990	0	26.341	0	145.616	0	116.6	4	40.2	4	-1E+10	1	-1E+10	1	-1E+10	1	-1E+10	1	-1E+10	1	-1E+10	1
4902663	30	C	05/27/2024	08:15	-127.886	47.943	0	147.90	0	7.9320	0	33.8030	0	26.346	0	146.607	0	116.0	4	40.0	4	-1E+10	1	-1E+10	1	-1E+10	1	-1E+10	1	-1E+10	1	-1E+10	1
4902663	30	C	05/27/2024	08:15	-127.886	47.943	0	148.80	0	7.9250	0	33.8170	0	26.358	0	147.499	0	115.5	4	39.8	4	-1E+10	1	-1E+10	1	-1E+10	1	-1E+10	1	-1E+10	1	-1E+10	1
4902663	30	C	05/27/2024	08:15	-127.886	47.943	0	149.80	0	7.9000	0	33.8170	0	26.362	0	148.490	0	115.0	4	39.6	4	-1E+10	1	-1E+10	1	-1E+10	1	-1E+10	1	-1E+10	1	-1E+10	1
4902663	30	C	05/27/2024	08:15	-127.886	47.943	0	150.80	0	7.8940	0	33.8160	0	26.362	0	149.481	0	114.4	4	39.4	4	-1E+10	1	-1E+10	1	-1E+10	1	-1E+10	1	-1E+10	1	-1E+10	1
4902663	30	C	05/27/2024	08:15	-127.886	47.943	0	151.80	0	7.8860	0	33.8170	0	26.364	0	150.472	0	113.9	4	39.3	4	-1E+10	1	-1E+10	1	-1E+10	1	-1E+10	1	-1E+10	1	-1E+10	1
4902663	30	C	05/27/2024	08:15	-127.886	47.943	0	152.90	0	7.8430	0	33.8300	0	26.380	0	151.562	0	113.5	4	39.1	4	-1E+10	1	-1E+10	1	-1E+10	1	-1E+10	1	-1E+10	1	-1E+10	1
4902663	30	C	05/27/2024	08:15	-127.886	47.943	0	153.90	0	7.8350	0	33.8280	0	26.380	0	152.552	0	113.1	4	38.9	4	-1E+10	1	-1E+10	1	-1E+10	1	-1E+10	1	-1E+10	1	-1E+10	1
4902663	30	C	05/27/2024	08:15	-127.886	47.943	0	154.90	0	7.8310	0	33.8280	0	26.381	0	153.543	0	112.7	4	38.8	4	-1E+10	1	-1E+10	1	-1E+10	1	-1E+10	1	-1E+10	1	-1E+10	1
4902663	30	C	05/27/2024	08:15	-127.886	47.943	0	155.90	0	7.8110	0	33.8310	0	26.386	0	154.534	0	112.3	4	38.6	4	-1E+10	1	-1E+10	1	-1E+10	1	-1E+10	1	-1E+10	1	-1E+10	1
4902663	30	C	05/27/2024	08:15	-127.886	47.943	0	157.00	0	7.7340	0	33.8330	0	26.399	0	155.624	0	112.1	4	38.5	4	-1E+10	1	-1E+10	1	-1E+10	1	-1E+10	1	-1E+10	1	-1E+10	1
4902663	30	C	05/27/2024	08:15	-127.886	47.943	0	158.00	0	7.7250	0	33.8340	0	26.401	0	156.615	0	111.9	4	38.4	4	-1E+10	1	-1E+10	1	-1E+10	1	-1E+10	1	-1E+10	1	-1E+10	1
4902663	30	C	05/27/2024	08:15	-127.886	47.943	0	159.10	0	7.6660	0	33.8260	0	26.403	0	157.705	0	111.8	4	38.3	4	-1E+10	1	-1E+10	1	-1E+10	1	-1E+10	1	-1E+10	1	-1E+10	1
4902663	30	C	05/27/2024	08:15	-127.886	47.943	0	160.10	0	7.6500	0	33.8290	0	26.408	0	158.696	0	111.6	4	38.3	4	-1E+10	1	-1E+10	1	-1E+10	1	-1E+10	1	-1E+10	1	-1E+10	1
4902663	30	C	05/27/2024	08:15	-127.886	47.943	0	161.10	0	7.6690	0	33.8350	0	26.410	0	159.687	0	111.4	4	38.2	4	-1E+10	1	-1E+10	1	-1E+10	1	-1E+10	1	-1E+10	1	-1E+10	1
4902663	30	C	05/27/2024	08:15	-127.886	47.943	0	162.10	0	7.6550	0	33.8380	0	26.414	0	160.677	0	111.1	4	38.1	4	-1E+10	1	-1E+10	1	-1E+10	1	-1E+10	1	-1E+10	1	-1E+10	1
4902663	30	C	05/27/2024	08:15	-127.886	47.943	0	163.20	0	7.6280	0	33.8410	0	26.420	0	161.767	0	111.0	4	38.0	4	-1E+10	1	-1E+10	1	-1E+10	1	-1E+10	1	-1E+10	1	-1E+10	1
4902663	30	C	05/27/2024	08:15	-127.886	47.943	0	164.20	0	7.6800	0	33.8350	0	26.408	0	162.758	0	110.9	4	38.0	4	-1E+10	1	-1E+10	1	-1E+10	1	-1E+10	1	-1E+10	1	-1E+10	1
4902663	30	C	05/27/2024	08:15	-127.886	47.943	0	165.20	0	7.7060	0	33.8620	0	26.426	0	163.749	0	110.8	4	38.0	4	-1E+10	1	-1E+10	1	-1E+10	1	-1E+10	1	-1E+10	1	-1E+10	1
4902663	30	C	05/27/2024	08:15	-127.886	47.943	0	166.30	0	7.6920	0	33.8630	0	26.428	0	164.839	0	110.8	4	38.0	4	-1E+10	1	-1E+10	1	-1E+10	1	-1E+10	1	-1E+10	1	-1E+10	1
4902663	30	C	05/27/2024	08:15	-127.886	47.943	0	167.30	0	7.6820	0	33.8620	0	26.429	0	165.830	0	110.8	4	38.0	4	-1E+10	1	-1E+10	1	-1E+10	1	-1E+10	1	-1E+10	1	-1E+10	1
4902663	30	C	05/27/2024	08:15	-127.886	47.943	0	168.30	0	7.6240	0	33.8640	0	26.439	0	166.821	0	110.7	4	38.0	4	-1E+10	1	-1E+10	1	-1E+10	1	-1E+10	1	-1E+10	1	-1E+10	1
4902663	30	C	05/27/2024	08:15	-127.886	47.943	0	169.40	0	7.6070	0	33.8610	0	26.439	0	167.910	0	110.6	4	37.9	4	-1E+10	1	-1E+10	1	-1E+10	1	-1E+10	1	-1E+10	1	-1E+10	1
4902663	30	C	05/27/2024	08:15	-127.886	47.943	0	170.40	0	7.6020	0	33.8570	0	26.437	0	168.901	0	110.5	4	37.9	4	-1E+10	1	-1E+10	1	-1E+10	1	-1E+10	1	-1E+10	1	-1E+10	1
4902663	30	C	05/27/2024	08:15	-127.886	47.943	0	171.50	0	7.5710	0	33.8630	0	26.446	0	169.991	0	110.3	4	37.8	4	-1E+10	1	-1E+10	1	-1E+10	1	-1E+10	1	-1E+10	1	-1E+10	1
4902663	30	C	05/27/2024	08:15	-127.886	47.943	0	172.50	0	7.5470	0	33.8580	0	26.445	0	170.982	0	110.0	4	37.6	4	-1E+10	1	-1E+10	1	-1E+10	1	-1E+10	1	-1E+10	1	-1E+10	1
4902663	30	C	05/27/2024	08:15	-127.886	47.943	0	173.50	0	7.5790	0	33.8640	0	26.446	0	171.973	0	109.7	4	37.6	4	-1E+10	1	-1E+10	1	-1E+10	1	-1E+10	1	-1E+10	1	-1E+10	1
4902663	30	C	05/27/2024	08:15	-127.886	47.943	0	174.50	0	7.5540	0	33.8780	0	26.460	0	172.963	0	109.7	4	37.5	4	-1E+10	1	-1E+10	1	-1E+10	1	-1E+10	1	-1E+10	1	-1E+10	1
4902663	30	C	05/27/2024	08:15	-127.886	47.943	0	175.60	0	7.4330	0	33.8690	0	26.470	0	174.053	0	109.6	4	37.4	4	-1E+10	1	-1E+10	1	-1E+10	1	-1E+10	1	-1E+10	1	-1E+10	1
4902663	30	C	05/27/2024	08:15	-127.886	47.943	0	176.60	0	7.4250	0	33.8670	0	26.470	0	175.044	0	109.2	4	37.3	4	-1E+10	1	-1E+10	1	-1E+10	1	-1E+10	1	-1E+10	1	-1E+10	1
4902663	30	C	05/27/2024	08:15	-127.886	47.943	0	177.70	0	7.4180	0	33.8640	0	26.468	0	176.134	0	108.9	4	37.1	4	-1E+10	1	-1E+10	1	-1E+10	1	-1E+10	1	-1E+10	1	-1E+10	1
4902663	30	C	05/27/2024	08:15	-127.886	47.943	0	178.70	0	7.3280	0	33.8630	0	26.480	0	177.125	0	108.5	4	37.0	4	-1E+10	1	-1E+10	1	-1E+10	1	-1E+10	1	-1E+10	1	-1E+10	1
4902663	30	C	05/27/2024	08:15	-127.886	47.943	0	179.80	0	7.2840	0	33.8570	0	26.482	0	178.215	0	108.2	4	36.8	4	-1E+10	1	-1E+10	1	-1E+10	1	-1E+10	1	-1E+10	1	-1E+10	1
4902663	30	C	05/27/2024	08:15	-127.886	47.943	0	180.80	0	7.3050	0	33.8650	0	26.485	0	179.205	0	107.6	4	36.6	4	-1E+10	1	-1E+10	1	-1E+10	1	-1E+10	1	-1E+10	1	-1E+10	1
4902663	30	C	05/27/2024	08:15	-127.886	47.943	0	181.90	0	7.2970	0	33.8760	0	26.495	0	180.295	0	106.9	4	36.4	4	-1E+10	1	-1E+10	1	-1E+10	1	-1E+10	1	-1E+10	1	-1E+10	1
4902663	30	C	05/27/2024	08:15	-127.886	47.943	0	182.90	0	7.2990	0	33.8780	0	26.496	0	181.286	0	106.2	4	36.1	4	-1E+10	1	-1E+10	1	-1E+10	1	-1E+10	1	-1E+10	1	-1E+10	1
4902663	30	C	05/27/2024	08:15	-127.886	47.943	0	184.00	0	7.2990	0	33.8800	0	26.498	0	182.376	0	105.4	4	35.9	4	-1E+10	1	-1E+10	1	-1E+10	1	-1E+10	1	-1E+10	1	-1E+10	1
4902663	30	C	05/27/2024	08:15	-127.886	47.943	0	185.10	0	7.2980	0	33.8830	0	26.500	0	183.465	0	104.7	4	35.6	4	-1E+10	1	-1E+10	1	-1E+10	1	-1E+10	1	-1E+10	1	-1E+10	1
4902663	30	C	05/27/2024	08:15	-127.886	47.943	0	186.20	0	7.2840	0	33.8860	0	26.505	0	184.555	0	103.9	4	35.3	4	-1E+10	1	-1E+10	1	-1E+10	1	-1E+10	1	-1E+10	1	-1E+10	1
4902663	30	C	05/27/2024	08:15	-127.886	47.943	0	187.20	0	7.3000	0	33.8940	0	26.509	0	185.546	0	103.4	4	35.2	4	-1E+10	1	-1E+10	1	-1E+10	1	-1E+10	1	-1E+10	1	-1E+10	1
4902663	30	C	05/27/2024	08:15	-127.886	47.943	0	188.30	0	7.2970	0	33.8970	0	26.512	0	186.636	0	103.1	4	35.1	4	-1E+10	1	-1E+10	1	-1E+10	1	-1E+10	1	-1E+10	1	-1E+10	1
4902663	30	C	05/27/2024	08:15	-127.886	47.943	0	189.30	0	7.2930	0	33.9000	0	26.514	0	187.626	0	102.8	4	35.0	4	-1E+10	1	-1E+10	1	-1E+10	1	-1E+10	1	-1E+10	1	-1E+10	1
4902663	30	C	05/27/2024	08:15	-127.886	47.943	0	190.40	0	7.2850	0	33.9000	0	26.516	0	188.716	0	102.4	4	34.8	4	-1E+10	1	-1E+10	1	-1E+10	1	-1E+10	1	-1E+10	1	-1E+10	1
4902663	30	C	05/27/2024	08:15	-127.886	47.943	0	191.40	0	7.2750	0	33.8980	0	26.515	0	189.707	0	101.9	4	34.6	4	-1E+10	1	-1E+10	1	-1E+10	1	-1E+10	1	-1E+10	1	-1E+10	1
4902663	30	C	05/27/2024	08:15	-127.886	47.943	0	192.50	0	7.2610	0	33.8990	0	26.518	0	190.797	0	101.3	4	34.5	4	-1E+10	1	-1E+10	1	-1E+10	1	-1E+10	1	-1E+10	1	-1E+10	1
4902663	30	C	05/27/2024	08:15	-127.886	47.943	0	193.50	0	7.2260	0	33.9020	0	26.525	0	191.787	0	100.7	4	34.2	4	-1E+10	1	-1E+10	1	-1E+10	1	-1E+10	1	-1E+10	1	-1E+10	1
4902663	30	C	05/27/2024	08:15	-127.886	47.943	0	194.60	0	7.2310	0	33.9010	0	26.524	0	192.877	0	100.1	4	34.0	4	-1E+10	1	-1E+10	1	-1E+10	1	-1E+10	1	-1E+10	1	-1E+10	1
4902663	30	C	05/27/2024	08:15	-127.886	47.943	0	195.60	0	7.2470	0	33.9000	0	26.521	0	193.868	0	99.5	4	33.8	4	-1E+10	1	-1E+10	1	-1E+10	1	-1E+10	1	-1E+10	1	-1E+10	1
4902663	30	C	05/27/2024	08:15	-127.886	47.943	0	196.70	0	7.2370	0	33.9090	0	26.529	0	194.958	0	98.9	4	33.6	4	-1E+10	1	-1E+10	1	-1E+10	1	-1E+10	1	-1E+10	1	-1E+10	1
4902663	30	C	05/27/2024	08:15	-127.886	47.943	0	197.70	0	7.2400	0	33.9110	0	26.531	0	195.948	0	98.3	4	33.4	4	-1E+10	1	-1E+10	1	-1E+10	1	-1E+10	1	-1E+10	1	-1E+10	1
4902663	30	C	05/27/2024	08:15	-127.886	47.943	0	198.70	0	7.2460	0	33.9130	0	26.531	0	196.939	0	97.7	4	33.2	4	-1E+10	1	-1E+10	1	-1E+10	1	-1E+10	1	-1E+10	1	-1E+10	1
4902663	30	C	05/27/2024	08:15	-127.886	47.943	0	199.80	0	7.2500	0	33.9160	0	26.533	0	198.029	0	97.1	4	33.0	4	-1E+10	1	-1E+10	1	-1E+10	1	-1E+10	1	-1E+10	1	-1E+10	1
4902663	30	C	05/27/2024	08:15	-127.886	47.943	0	200.80	0	7.2550	0	33.9200	0	26.536	0	199.019	0	96.5	4	32.8	4	-1E+10	1	-1E+10	1	-1E+10	1	-1E+10	1	-1E+10	1	-1E+10	1
4902663	30	C	05/27/2024	08:15	-127.886	47.943	0	201.90	0	7.2500	0	33.9290	0	26.543	0	200.109	0	96.2	4	32.7	4	-1E+10	1	-1E+10	1	-1E+10	1	-1E+10	1	-1E+10	1	-1E+10	1
4902663	30	C	05/27/2024	08:15	-127.886	47.943	0	202.90	0	7.2210	0	33.9370	0	26.554	0	201.100	0	96.1	4	32.7	4	-1E+10	1	-1E+10	1	-1E+10	1	-1E+10	1	-1E+10	1	-1E+10	1
4902663	30	C	05/27/2024	08:15	-127.886	47.943	0	204.00	0	7.2110	0	33.9300	0	26.550	0	202.189	0	95.9	4	32.6	4	-1E+10	1	-1E+10	1	-1E+10	1	-1E+10	1	-1E+10	1	-1E+10	1
4902663	30	C	05/27/2024	08:15	-127.886	47.943	0	205.00	0	7.2050	0	33.9300	0	26.551	0	203.180	0	95.8	4	32.6	4	-1E+10	1	-1E+10	1	-1E+10	1	-1E+10	1	-1E+10	1	-1E+10	1
4902663	30	C	05/27/2024	08:15	-127.886	47.943	0	206.10	0	7.1990	0	33.9290	0	26.551	0	204.270	0	95.8	4	32.5	4	-1E+10	1	-1E+10	1	-1E+10	1	-1E+10	1	-1E+10	1	-1E+10	1
4902663	30	C	05/27/2024	08:15	-127.886	47.943	0	207.10	0	7.1170	0	33.9330	0	26.565	0	205.260	0	95.6	4	32.4	4	-1E+10	1	-1E+10	1	-1E+10	1	-1E+10	1	-1E+10	1	-1E+10	1
4902663	30	C	05/27/2024	08:15	-127.886	47.943	0	208.20	0	6.9950	0	33.9130	0	26.566	0	206.350	0	95.2	4	32.2	4	-1E+10	1	-1E+10	1	-1E+10	1	-1E+10	1	-1E+10	1	-1E+10	1
4902663	30	C	05/27/2024	08:15	-127.886	47.943	0	209.20	0	6.9920	0	33.9080	0	26.563	0	207.341	0	94.4	4	31.9	4	-1E+10	1	-1E+10	1	-1E+10	1	-1E+10	1	-1E+10	1	-1E+10	1
4902663	30	C	05/27/2024	08:15	-127.886	47.943	0	210.30	0	7.0090	0	33.9130	0	26.564	0	208.430	0	93.5	4	31.6	4	-1E+10	1	-1E+10	1	-1E+10	1	-1E+10	1	-1E+10	1	-1E+10	1
4902663	30	C	05/27/2024	08:15	-127.886	47.943	0	211.30	0	7.0320	0	33.9200	0	26.567	0	209.421	0	92.6	4	31.3	4	-1E+10	1	-1E+10	1	-1E+10	1	-1E+10	1	-1E+10	1	-1E+10	1
4902663	30	C	05/27/2024	08:15	-127.886	47.943	0	212.30	0	7.0770	0	33.9340	0	26.571	0	210.411	0	92.1	4	31.2	4	-1E+10	1	-1E+10	1	-1E+10	1	-1E+10	1	-1E+10	1	-1E+10	1
4902663	30	C	05/27/2024	08:15	-127.886	47.943	0	213.30	0	7.0680	0	33.9350	0	26.573	0	211.402	0	91.8	4	31.1	4	-1E+10	1	-1E+10	1	-1E+10	1	-1E+10	1	-1E+10	1	-1E+10	1
4902663	30	C	05/27/2024	08:15	-127.886	47.943	0	214.30	0	7.0630	0	33.9340	0	26.573	0	212.393	0	91.5	4	31.0	4	-1E+10	1	-1E+10	1	-1E+10	1	-1E+10	1	-1E+10	1	-1E+10	1
4902663	30	C	05/27/2024	08:15	-127.886	47.943	0	215.40	0	6.9890	0	33.9380	0	26.587	0	213.482	0	91.2	4	30.8	4	-1E+10	1	-1E+10	1	-1E+10	1	-1E+10	1	-1E+10	1	-1E+10	1
4902663	30	C	05/27/2024	08:15	-127.886	47.943	0	216.40	0	6.8890	0	33.9170	0	26.584	0	214.473	0	90.6	4	30.6	4	-1E+10	1	-1E+10	1	-1E+10	1	-1E+10	1	-1E+10	1	-1E+10	1
4902663	30	C	05/27/2024	08:15	-127.886	47.943	0	217.50	0	6.9270	0	33.9280	0	26.587	0	215.562	0	89.8	4	30.3	4	-1E+10	1	-1E+10	1	-1E+10	1	-1E+10	1	-1E+10	1	-1E+10	1
4902663	30	C	05/27/2024	08:15	-127.886	47.943	0	218.50	0	6.9540	0	33.9340	0	26.588	0	216.553	0	89.4	4	30.2	4	-1E+10	1	-1E+10	1	-1E+10	1	-1E+10	1	-1E+10	1	-1E+10	1
4902663	30	C	05/27/2024	08:15	-127.886	47.943	0	219.60	0	6.9900	0	33.9410	0	26.589	0	217.643	0	89.1	4	30.1	4	-1E+10	1	-1E+10	1	-1E+10	1	-1E+10	1	-1E+10	1	-1E+10	1
4902663	30	C	05/27/2024	08:15	-127.886	47.943	0	220.60	0	7.0160	0	33.9510	0	26.593	0	218.633	0	89.1	4	30.1	4	-1E+10	1	-1E+10	1	-1E+10	1	-1E+10	1	-1E+10	1	-1E+10	1
4902663	30	C	05/27/2024	08:15	-127.886	47.943	0	221.60	0	6.9940	0	33.9460	0	26.592	0	219.624	0	89.3	4	30.2	4	-1E+10	1	-1E+10	1	-1E+10	1	-1E+10	1	-1E+10	1	-1E+10	1
4902663	30	C	05/27/2024	08:15	-127.886	47.943	0	222.60	0	6.9350	0	33.9800	0	26.627	0	220.614	0	89.4	4	30.2	4	-1E+10	1	-1E+10	1	-1E+10	1	-1E+10	1	-1E+10	1	-1E+10	1
4902663	30	C	05/27/2024	08:15	-127.886	47.943	0	223.60	0	6.8650	0	33.9300	0	26.597	0	221.605	0	89.3	4	30.1	4	-1E+10	1	-1E+10	1	-1E+10	1	-1E+10	1	-1E+10	1	-1E+10	1
4902663	30	C	05/27/2024	08:15	-127.886	47.943	0	224.80	0	6.7920	0	33.9270	0	26.605	0	222.793	0	88.9	4	29.9	4	-1E+10	1	-1E+10	1	-1E+10	1	-1E+10	1	-1E+10	1	-1E+10	1
4902663	30	C	05/27/2024	08:15	-127.886	47.943	0	225.90	0	6.7620	0	33.9280	0	26.610	0	223.883	0	88.3	4	29.7	4	-1E+10	1	-1E+10	1	-1E+10	1	-1E+10	1	-1E+10	1	-1E+10	1
4902663	30	C	05/27/2024	08:15	-127.886	47.943	0	227.10	0	6.7330	0	33.9240	0	26.610	0	225.072	0	87.6	4	29.5	4	-1E+10	1	-1E+10	1	-1E+10	1	-1E+10	1	-1E+10	1	-1E+10	1
4902663	30	C	05/27/2024	08:15	-127.886	47.943	0	227.90	0	6.7310	0	33.9240	0	26.611	0	225.864	0	87.1	4	29.3	4	-1E+10	1	-1E+10	1	-1E+10	1	-1E+10	1	-1E+10	1	-1E+10	1
4902663	30	C	05/27/2024	08:15	-127.886	47.943	0	228.70	0	6.7260	0	33.9270	0	26.614	0	226.657	0	86.6	4	29.1	4	-1E+10	1	-1E+10	1	-1E+10	1	-1E+10	1	-1E+10	1	-1E+10	1
4902663	30	C	05/27/2024	08:15	-127.886	47.943	0	229.90	0	6.7300	0	33.9300	0	26.615	0	227.845	0	86.0	4	28.9	4	-1E+10	1	-1E+10	1	-1E+10	1	-1E+10	1	-1E+10	1	-1E+10	1
4902663	30	C	05/27/2024	08:15	-127.886	47.943	0	231.10	0	6.7760	0	33.9460	0	26.622	0	229.034	0	85.6	4	28.8	4	-1E+10	1	-1E+10	1	-1E+10	1	-1E+10	1	-1E+10	1	-1E+10	1
4902663	30	C	05/27/2024	08:15	-127.886	47.943	0	231.90	0	6.7490	0	33.9390	0	26.620	0	229.826	0	85.4	4	28.7	4	-1E+10	1	-1E+10	1	-1E+10	1	-1E+10	1	-1E+10	1	-1E+10	1
4902663	30	C	05/27/2024	08:15	-127.886	47.943	0	233.00	0	6.7360	0	33.9430	0	26.625	0	230.916	0	85.1	4	28.6	4	-1E+10	1	-1E+10	1	-1E+10	1	-1E+10	1	-1E+10	1	-1E+10	1
4902663	30	C	05/27/2024	08:15	-127.886	47.943	0	234.20	0	6.7130	0	33.9410	0	26.626	0	232.104	0	84.7	4	28.5	4	-1E+10	1	-1E+10	1	-1E+10	1	-1E+10	1	-1E+10	1	-1E+10	1
4902663	30	C	05/27/2024	08:15	-127.886	47.943	0	235.00	0	6.7030	0	33.9390	0	26.626	0	232.897	0	84.3	4	28.3	4	-1E+10	1	-1E+10	1	-1E+10	1	-1E+10	1	-1E+10	1	-1E+10	1
4902663	30	C	05/27/2024	08:15	-127.886	47.943	0	235.80	0	6.6920	0	33.9380	0	26.627	0	233.689	0	83.9	4	28.2	4	-1E+10	1	-1E+10	1	-1E+10	1	-1E+10	1	-1E+10	1	-1E+10	1
4902663	30	C	05/27/2024	08:15	-127.886	47.943	0	237.00	0	6.6790	0	33.9430	0	26.633	0	234.878	0	83.4	4	28.0	4	-1E+10	1	-1E+10	1	-1E+10	1	-1E+10	1	-1E+10	1	-1E+10	1
4902663	30	C	05/27/2024	08:15	-127.886	47.943	0	238.20	0	6.6660	0	33.9430	0	26.634	0	236.066	0	82.9	4	27.8	4	-1E+10	1	-1E+10	1	-1E+10	1	-1E+10	1	-1E+10	1	-1E+10	1
4902663	30	C	05/27/2024	08:15	-127.886	47.943	0	239.00	0	6.6560	0	33.9420	0	26.635	0	236.859	0	82.5	4	27.7	4	-1E+10	1	-1E+10	1	-1E+10	1	-1E+10	1	-1E+10	1	-1E+10	1
4902663	30	C	05/27/2024	08:15	-127.886	47.943	0	239.90	0	6.6380	0	33.9430	0	26.638	0	237.750	0	82.1	4	27.5	4	-1E+10	1	-1E+10	1	-1E+10	1	-1E+10	1	-1E+10	1	-1E+10	1
4902663	30	C	05/27/2024	08:15	-127.886	47.943	0	240.70	0	6.6170	0	33.9400	0	26.638	0	238.542	0	81.5	4	27.3	4	-1E+10	1	-1E+10	1	-1E+10	1	-1E+10	1	-1E+10	1	-1E+10	1
4902663	30	C	05/27/2024	08:15	-127.886	47.943	0	241.90	0	6.6230	0	33.9430	0	26.640	0	239.731	0	80.7	4	27.1	4	-1E+10	1	-1E+10	1	-1E+10	1	-1E+10	1	-1E+10	1	-1E+10	1
4902663	30	C	05/27/2024	08:15	-127.886	47.943	0	243.20	0	6.6430	0	33.9440	0	26.638	0	241.019	0	79.9	4	26.8	4	-1E+10	1	-1E+10	1	-1E+10	1	-1E+10	1	-1E+10	1	-1E+10	1
4902663	30	C	05/27/2024	08:15	-127.886	47.943	0	244.00	0	6.5950	0	33.9440	0	26.645	0	241.811	0	79.4	4	26.6	4	-1E+10	1	-1E+10	1	-1E+10	1	-1E+10	1	-1E+10	1	-1E+10	1
4902663	30	C	05/27/2024	08:15	-127.886	47.943	0	244.90	0	6.6490	0	33.9530	0	26.645	0	242.702	0	78.9	4	26.5	4	-1E+10	1	-1E+10	1	-1E+10	1	-1E+10	1	-1E+10	1	-1E+10	1
4902663	30	C	05/27/2024	08:15	-127.886	47.943	0	245.70	0	6.6460	0	33.9590	0	26.650	0	243.495	0	78.6	4	26.4	4	-1E+10	1	-1E+10	1	-1E+10	1	-1E+10	1	-1E+10	1	-1E+10	1
4902663	30	C	05/27/2024	08:15	-127.886	47.943	0	247.00	0	6.6570	0	33.9670	0	26.655	0	244.782	0	78.3	4	26.3	4	-1E+10	1	-1E+10	1	-1E+10	1	-1E+10	1	-1E+10	1	-1E+10	1
4902663	30	C	05/27/2024	08:15	-127.886	47.943	0	248.30	0	6.6320	0	33.9630	0	26.655	0	246.070	0	78.2	4	26.2	4	-1E+10	1	-1E+10	1	-1E+10	1	-1E+10	1	-1E+10	1	-1E+10	1
4902663	30	C	05/27/2024	08:15	-127.886	47.943	0	249.10	0	6.6070	0	33.9620	0	26.657	0	246.862	0	78.1	4	26.2	4	-1E+10	1	-1E+10	1	-1E+10	1	-1E+10	1	-1E+10	1	-1E+10	1
4902663	30	C	05/27/2024	08:15	-127.886	47.943	0	249.90	0	6.6030	0	33.9620	0	26.658	0	247.654	0	77.9	4	26.1	4	-1E+10	1	-1E+10	1	-1E+10	1	-1E+10	1	-1E+10	1	-1E+10	1
4902663	30	C	05/27/2024	08:15	-127.886	47.943	0	250.80	0	6.5880	0	33.9620	0	26.660	0	248.546	0	77.8	4	26.1	4	-1E+10	1	-1E+10	1	-1E+10	1	-1E+10	1	-1E+10	1	-1E+10	1
4902663	30	C	05/27/2024	08:15	-127.886	47.943	0	251.60	0	6.5620	0	33.9580	0	26.660	0	249.338	0	77.6	4	26.0	4	-1E+10	1	-1E+10	1	-1E+10	1	-1E+10	1	-1E+10	1	-1E+10	1
4902663	30	C	05/27/2024	08:15	-127.886	47.943	0	252.90	0	6.5000	0	33.9530	0	26.664	0	250.626	0	77.1	4	25.8	4	-1E+10	1	-1E+10	1	-1E+10	1	-1E+10	1	-1E+10	1	-1E+10	1
4902663	30	C	05/27/2024	08:15	-127.886	47.943	0	254.20	0	6.4660	0	33.9500	0	26.666	0	251.913	0	76.8	4	25.7	4	-1E+10	1	-1E+10	1	-1E+10	1	-1E+10	1	-1E+10	1	-1E+10	1
4902663	30	C	05/27/2024	08:15	-127.886	47.943	0	255.00	0	6.4720	0	33.9560	0	26.670	0	252.705	0	76.6	4	25.6	4	-1E+10	1	-1E+10	1	-1E+10	1	-1E+10	1	-1E+10	1	-1E+10	1
4902663	30	C	05/27/2024	08:15	-127.886	47.943	0	255.90	0	6.4800	0	33.9550	0	26.668	0	253.597	0	76.4	4	25.5	4	-1E+10	1	-1E+10	1	-1E+10	1	-1E+10	1	-1E+10	1	-1E+10	1
4902663	30	C	05/27/2024	08:15	-127.886	47.943	0	256.80	0	6.4700	0	33.9560	0	26.671	0	254.488	0	76.2	4	25.5	4	-1E+10	1	-1E+10	1	-1E+10	1	-1E+10	1	-1E+10	1	-1E+10	1
4902663	30	C	05/27/2024	08:15	-127.886	47.943	0	257.70	0	6.4520	0	33.9570	0	26.674	0	255.380	0	76.0	4	25.4	4	-1E+10	1	-1E+10	1	-1E+10	1	-1E+10	1	-1E+10	1	-1E+10	1
4902663	30	C	05/27/2024	08:15	-127.886	47.943	0	258.90	0	6.3850	0	33.9490	0	26.676	0	256.568	0	75.7	4	25.2	4	-1E+10	1	-1E+10	1	-1E+10	1	-1E+10	1	-1E+10	1	-1E+10	1
4902663	30	C	05/27/2024	08:15	-127.886	47.943	0	260.30	0	6.3490	0	33.9460	0	26.678	0	257.954	0	75.1	4	25.0	4	-1E+10	1	-1E+10	1	-1E+10	1	-1E+10	1	-1E+10	1	-1E+10	1
4902663	30	C	05/27/2024	08:15	-127.886	47.943	0	261.10	0	6.3320	0	33.9480	0	26.682	0	258.747	0	74.8	4	24.9	4	-1E+10	1	-1E+10	1	-1E+10	1	-1E+10	1	-1E+10	1	-1E+10	1
4902663	30	C	05/27/2024	08:15	-127.886	47.943	0	262.00	0	6.3080	0	33.9500	0	26.687	0	259.638	0	74.6	4	24.8	4	-1E+10	1	-1E+10	1	-1E+10	1	-1E+10	1	-1E+10	1	-1E+10	1
4902663	30	C	05/27/2024	08:15	-127.886	47.943	0	262.80	0	6.2980	0	33.9520	0	26.690	0	260.430	0	74.3	4	24.7	4	-1E+10	1	-1E+10	1	-1E+10	1	-1E+10	1	-1E+10	1	-1E+10	1
4902663	30	C	05/27/2024	08:15	-127.886	47.943	0	263.70	0	6.2900	0	33.9500	0	26.689	0	261.322	0	74.0	4	24.6	4	-1E+10	1	-1E+10	1	-1E+10	1	-1E+10	1	-1E+10	1	-1E+10	1
4902663	30	C	05/27/2024	08:15	-127.886	47.943	0	264.90	0	6.2820	0	33.9510	0	26.691	0	262.510	0	73.5	4	24.5	4	-1E+10	1	-1E+10	1	-1E+10	1	-1E+10	1	-1E+10	1	-1E+10	1
4902663	30	C	05/27/2024	08:15	-127.886	47.943	0	266.30	0	6.2780	0	33.9520	0	26.692	0	263.897	0	73.0	4	24.3	4	-1E+10	1	-1E+10	1	-1E+10	1	-1E+10	1	-1E+10	1	-1E+10	1
4902663	30	C	05/27/2024	08:15	-127.886	47.943	0	267.10	0	6.2750	0	33.9520	0	26.693	0	264.689	0	72.7	4	24.2	4	-1E+10	1	-1E+10	1	-1E+10	1	-1E+10	1	-1E+10	1	-1E+10	1
4902663	30	C	05/27/2024	08:15	-127.886	47.943	0	268.00	0	6.2720	0	33.9530	0	26.694	0	265.580	0	72.3	4	24.0	4	-1E+10	1	-1E+10	1	-1E+10	1	-1E+10	1	-1E+10	1	-1E+10	1
4902663	30	C	05/27/2024	08:15	-127.886	47.943	0	268.80	0	6.2680	0	33.9530	0	26.694	0	266.372	0	71.9	4	23.9	4	-1E+10	1	-1E+10	1	-1E+10	1	-1E+10	1	-1E+10	1	-1E+10	1
4902663	30	C	05/27/2024	08:15	-127.886	47.943	0	269.70	0	6.2570	0	33.9550	0	26.697	0	267.264	0	71.6	4	23.8	4	-1E+10	1	-1E+10	1	-1E+10	1	-1E+10	1	-1E+10	1	-1E+10	1
4902663	30	C	05/27/2024	08:15	-127.886	47.943	0	271.00	0	6.2490	0	33.9560	0	26.699	0	268.551	0	71.2	4	23.7	4	-1E+10	1	-1E+10	1	-1E+10	1	-1E+10	1	-1E+10	1	-1E+10	1
4902663	30	C	05/27/2024	08:15	-127.886	47.943	0	272.30	0	6.2360	0	33.9560	0	26.701	0	269.839	0	70.8	4	23.5	4	-1E+10	1	-1E+10	1	-1E+10	1	-1E+10	1	-1E+10	1	-1E+10	1
4902663	30	C	05/27/2024	08:15	-127.886	47.943	0	273.10	0	6.2240	0	33.9580	0	26.704	0	270.631	0	70.5	4	23.4	4	-1E+10	1	-1E+10	1	-1E+10	1	-1E+10	1	-1E+10	1	-1E+10	1
4902663	30	C	05/27/2024	08:15	-127.886	47.943	0	274.00	0	6.2140	0	33.9590	0	26.706	0	271.522	0	70.3	4	23.3	4	-1E+10	1	-1E+10	1	-1E+10	1	-1E+10	1	-1E+10	1	-1E+10	1
4902663	30	C	05/27/2024	08:15	-127.886	47.943	0	274.80	0	6.2080	0	33.9580	0	26.706	0	272.314	0	69.9	4	23.2	4	-1E+10	1	-1E+10	1	-1E+10	1	-1E+10	1	-1E+10	1	-1E+10	1
4902663	30	C	05/27/2024	08:15	-127.886	47.943	0	275.70	0	6.2030	0	33.9590	0	26.708	0	273.206	0	69.6	4	23.1	4	-1E+10	1	-1E+10	1	-1E+10	1	-1E+10	1	-1E+10	1	-1E+10	1
4902663	30	C	05/27/2024	08:15	-127.886	47.943	0	277.00	0	6.1610	0	33.9620	0	26.715	0	274.493	0	69.2	4	23.0	4	-1E+10	1	-1E+10	1	-1E+10	1	-1E+10	1	-1E+10	1	-1E+10	1
4902663	30	C	05/27/2024	08:15	-127.886	47.943	0	278.30	0	6.1530	0	33.9630	0	26.717	0	275.780	0	68.9	4	22.9	4	-1E+10	1	-1E+10	1	-1E+10	1	-1E+10	1	-1E+10	1	-1E+10	1
4902663	30	C	05/27/2024	08:15	-127.886	47.943	0	279.20	0	6.1490	0	33.9660	0	26.720	0	276.672	0	68.7	4	22.8	4	-1E+10	1	-1E+10	1	-1E+10	1	-1E+10	1	-1E+10	1	-1E+10	1
4902663	30	C	05/27/2024	08:15	-127.886	47.943	0	280.10	0	6.1460	0	33.9650	0	26.720	0	277.563	0	68.6	4	22.7	4	-1E+10	1	-1E+10	1	-1E+10	1	-1E+10	1	-1E+10	1	-1E+10	1
4902663	30	C	05/27/2024	08:15	-127.886	47.943	0	281.00	0	6.1400	0	33.9660	0	26.721	0	278.454	0	68.4	4	22.7	4	-1E+10	1	-1E+10	1	-1E+10	1	-1E+10	1	-1E+10	1	-1E+10	1
4902663	30	C	05/27/2024	08:15	-127.886	47.943	0	281.90	0	6.1320	0	33.9660	0	26.722	0	279.345	0	68.2	4	22.6	4	-1E+10	1	-1E+10	1	-1E+10	1	-1E+10	1	-1E+10	1	-1E+10	1
4902663	30	C	05/27/2024	08:15	-127.886	47.943	0	282.80	0	6.1270	0	33.9670	0	26.724	0	280.236	0	68.0	4	22.5	4	-1E+10	1	-1E+10	1	-1E+10	1	-1E+10	1	-1E+10	1	-1E+10	1
4902663	30	C	05/27/2024	08:15	-127.886	47.943	0	283.70	0	6.1090	0	33.9660	0	26.725	0	281.128	0	67.8	4	22.5	4	-1E+10	1	-1E+10	1	-1E+10	1	-1E+10	1	-1E+10	1	-1E+10	1
4902663	30	C	05/27/2024	08:15	-127.886	47.943	0	284.60	0	6.0980	0	33.9660	0	26.726	0	282.019	0	67.7	4	22.4	4	-1E+10	1	-1E+10	1	-1E+10	1	-1E+10	1	-1E+10	1	-1E+10	1
4902663	30	C	05/27/2024	08:15	-127.886	47.943	0	285.90	0	6.0920	0	33.9670	0	26.728	0	283.306	0	67.4	4	22.3	4	-1E+10	1	-1E+10	1	-1E+10	1	-1E+10	1	-1E+10	1	-1E+10	1
4902663	30	C	05/27/2024	08:15	-127.886	47.943	0	287.30	0	6.0810	0	33.9670	0	26.729	0	284.693	0	67.1	4	22.2	4	-1E+10	1	-1E+10	1	-1E+10	1	-1E+10	1	-1E+10	1	-1E+10	1
4902663	30	C	05/27/2024	08:15	-127.886	47.943	0	288.10	0	6.0760	0	33.9680	0	26.731	0	285.485	0	67.0	4	22.2	4	-1E+10	1	-1E+10	1	-1E+10	1	-1E+10	1	-1E+10	1	-1E+10	1
4902663	30	C	05/27/2024	08:15	-127.886	47.943	0	289.00	0	6.0660	0	33.9690	0	26.733	0	286.376	0	66.8	4	22.1	4	-1E+10	1	-1E+10	1	-1E+10	1	-1E+10	1	-1E+10	1	-1E+10	1
4902663	30	C	05/27/2024	08:15	-127.886	47.943	0	289.90	0	6.0470	0	33.9690	0	26.735	0	287.267	0	66.6	4	22.0	4	-1E+10	1	-1E+10	1	-1E+10	1	-1E+10	1	-1E+10	1	-1E+10	1
4902663	30	C	05/27/2024	08:15	-127.886	47.943	0	290.80	0	6.0380	0	33.9680	0	26.736	0	288.158	0	66.4	4	22.0	4	-1E+10	1	-1E+10	1	-1E+10	1	-1E+10	1	-1E+10	1	-1E+10	1
4902663	30	C	05/27/2024	08:15	-127.886	47.943	0	291.70	0	6.0220	0	33.9680	0	26.738	0	289.050	0	66.3	4	21.9	4	-1E+10	1	-1E+10	1	-1E+10	1	-1E+10	1	-1E+10	1	-1E+10	1
4902663	30	C	05/27/2024	08:15	-127.886	47.943	0	292.60	0	6.0150	0	33.9670	0	26.738	0	289.941	0	66.1	4	21.8	4	-1E+10	1	-1E+10	1	-1E+10	1	-1E+10	1	-1E+10	1	-1E+10	1
4902663	30	C	05/27/2024	08:15	-127.886	47.943	0	293.90	0	6.0010	0	33.9660	0	26.739	0	291.228	0	65.8	4	21.7	4	-1E+10	1	-1E+10	1	-1E+10	1	-1E+10	1	-1E+10	1	-1E+10	1
4902663	30	C	05/27/2024	08:15	-127.886	47.943	0	295.30	0	5.9860	0	33.9660	0	26.741	0	292.614	0	65.3	4	21.6	4	-1E+10	1	-1E+10	1	-1E+10	1	-1E+10	1	-1E+10	1	-1E+10	1
4902663	30	C	05/27/2024	08:15	-127.886	47.943	0	296.20	0	5.9740	0	33.9660	0	26.742	0	293.506	0	65.0	4	21.5	4	-1E+10	1	-1E+10	1	-1E+10	1	-1E+10	1	-1E+10	1	-1E+10	1
4902663	30	C	05/27/2024	08:15	-127.886	47.943	0	297.10	0	5.9680	0	33.9660	0	26.743	0	294.397	0	64.7	4	21.4	4	-1E+10	1	-1E+10	1	-1E+10	1	-1E+10	1	-1E+10	1	-1E+10	1
4902663	30	C	05/27/2024	08:15	-127.886	47.943	0	298.00	0	5.9740	0	33.9690	0	26.745	0	295.288	0	64.4	4	21.3	4	-1E+10	1	-1E+10	1	-1E+10	1	-1E+10	1	-1E+10	1	-1E+10	1
4902663	30	C	05/27/2024	08:15	-127.886	47.943	0	298.90	0	5.9660	0	33.9730	0	26.749	0	296.179	0	64.1	4	21.2	4	-1E+10	1	-1E+10	1	-1E+10	1	-1E+10	1	-1E+10	1	-1E+10	1
4902663	30	C	05/27/2024	08:15	-127.886	47.943	0	299.80	0	5.9690	0	33.9720	0	26.748	0	297.070	0	63.9	4	21.1	4	-1E+10	1	-1E+10	1	-1E+10	1	-1E+10	1	-1E+10	1	-1E+10	1
4902663	30	C	05/27/2024	08:15	-127.886	47.943	0	300.70	0	5.9680	0	33.9740	0	26.749	0	297.961	0	63.8	4	21.1	4	-1E+10	1	-1E+10	1	-1E+10	1	-1E+10	1	-1E+10	1	-1E+10	1
4902663	30	C	05/27/2024	08:15	-127.886	47.943	0	301.60	0	5.9620	0	33.9740	0	26.750	0	298.853	0	63.6	4	21.0	4	-1E+10	1	-1E+10	1	-1E+10	1	-1E+10	1	-1E+10	1	-1E+10	1
4902663	30	C	05/27/2024	08:15	-127.886	47.943	0	302.50	0	5.9600	0	33.9750	0	26.751	0	299.744	0	63.4	4	20.9	4	-1E+10	1	-1E+10	1	-1E+10	1	-1E+10	1	-1E+10	1	-1E+10	1
4902663	30	C	05/27/2024	08:15	-127.886	47.943	0	303.90	0	5.9570	0	33.9740	0	26.751	0	301.130	0	63.2	4	20.9	4	-1E+10	1	-1E+10	1	-1E+10	1	-1E+10	1	-1E+10	1	-1E+10	1
4902663	30	C	05/27/2024	08:15	-127.886	47.943	0	305.30	0	5.9410	0	33.9770	0	26.755	0	302.516	0	63.0	4	20.8	4	-1E+10	1	-1E+10	1	-1E+10	1	-1E+10	1	-1E+10	1	-1E+10	1
4902663	30	C	05/27/2024	08:15	-127.886	47.943	0	306.20	0	5.9300	0	33.9760	0	26.756	0	303.407	0	62.9	4	20.7	4	-1E+10	1	-1E+10	1	-1E+10	1	-1E+10	1	-1E+10	1	-1E+10	1
4902663	30	C	05/27/2024	08:15	-127.886	47.943	0	307.10	0	5.9120	0	33.9750	0	26.757	0	304.298	0	62.8	4	20.7	4	-1E+10	1	-1E+10	1	-1E+10	1	-1E+10	1	-1E+10	1	-1E+10	1
4902663	30	C	05/27/2024	08:15	-127.886	47.943	0	308.00	0	5.9040	0	33.9760	0	26.759	0	305.190	0	62.7	4	20.7	4	-1E+10	1	-1E+10	1	-1E+10	1	-1E+10	1	-1E+10	1	-1E+10	1
4902663	30	C	05/27/2024	08:15	-127.886	47.943	0	308.90	0	5.9030	0	33.9750	0	26.758	0	306.081	0	62.5	4	20.6	4	-1E+10	1	-1E+10	1	-1E+10	1	-1E+10	1	-1E+10	1	-1E+10	1
4902663	30	C	05/27/2024	08:15	-127.886	47.943	0	309.80	0	5.8990	0	33.9730	0	26.757	0	306.972	0	62.3	4	20.5	4	-1E+10	1	-1E+10	1	-1E+10	1	-1E+10	1	-1E+10	1	-1E+10	1
4902663	30	C	05/27/2024	08:15	-127.886	47.943	0	310.70	0	5.8950	0	33.9740	0	26.758	0	307.863	0	62.1	4	20.5	4	-1E+10	1	-1E+10	1	-1E+10	1	-1E+10	1	-1E+10	1	-1E+10	1
4902663	30	C	05/27/2024	08:15	-127.886	47.943	0	311.90	0	5.8840	0	33.9760	0	26.761	0	309.051	0	61.8	4	20.4	4	-1E+10	1	-1E+10	1	-1E+10	1	-1E+10	1	-1E+10	1	-1E+10	1
4902663	30	C	05/27/2024	08:15	-127.886	47.943	0	313.30	0	5.8790	0	33.9760	0	26.762	0	310.437	0	61.5	4	20.3	4	-1E+10	1	-1E+10	1	-1E+10	1	-1E+10	1	-1E+10	1	-1E+10	1
4902663	30	C	05/27/2024	08:15	-127.886	47.943	0	314.20	0	5.8700	0	33.9750	0	26.762	0	311.328	0	61.3	4	20.2	4	-1E+10	1	-1E+10	1	-1E+10	1	-1E+10	1	-1E+10	1	-1E+10	1
4902663	30	C	05/27/2024	08:15	-127.886	47.943	0	315.10	0	5.8600	0	33.9750	0	26.764	0	312.219	0	61.1	4	20.1	4	-1E+10	1	-1E+10	1	-1E+10	1	-1E+10	1	-1E+10	1	-1E+10	1
4902663	30	C	05/27/2024	08:15	-127.886	47.943	0	316.00	0	5.8390	0	33.9760	0	26.767	0	313.110	0	61.0	4	20.1	4	-1E+10	1	-1E+10	1	-1E+10	1	-1E+10	1	-1E+10	1	-1E+10	1
4902663	30	C	05/27/2024	08:15	-127.886	47.943	0	317.00	0	5.8210	0	33.9770	0	26.770	0	314.101	0	60.8	4	20.0	4	-1E+10	1	-1E+10	1	-1E+10	1	-1E+10	1	-1E+10	1	-1E+10	1
4902663	30	C	05/27/2024	08:15	-127.886	47.943	0	317.90	0	5.8090	0	33.9780	0	26.772	0	314.992	0	60.7	4	20.0	4	-1E+10	1	-1E+10	1	-1E+10	1	-1E+10	1	-1E+10	1	-1E+10	1
4902663	30	C	05/27/2024	08:15	-127.886	47.943	0	318.80	0	5.7840	0	33.9770	0	26.775	0	315.883	0	60.5	4	19.9	4	-1E+10	1	-1E+10	1	-1E+10	1	-1E+10	1	-1E+10	1	-1E+10	1
4902663	30	C	05/27/2024	08:15	-127.886	47.943	0	319.80	0	5.7790	0	33.9760	0	26.774	0	316.873	0	60.3	4	19.8	4	-1E+10	1	-1E+10	1	-1E+10	1	-1E+10	1	-1E+10	1	-1E+10	1
4902663	30	C	05/27/2024	08:15	-127.886	47.943	0	320.70	0	5.7730	0	33.9780	0	26.777	0	317.764	0	60.1	4	19.8	4	-1E+10	1	-1E+10	1	-1E+10	1	-1E+10	1	-1E+10	1	-1E+10	1
4902663	30	C	05/27/2024	08:15	-127.886	47.943	0	321.60	0	5.7700	0	33.9770	0	26.776	0	318.655	0	60.0	4	19.7	4	-1E+10	1	-1E+10	1	-1E+10	1	-1E+10	1	-1E+10	1	-1E+10	1
4902663	30	C	05/27/2024	08:15	-127.886	47.943	0	322.50	0	5.7650	0	33.9770	0	26.777	0	319.546	0	59.7	4	19.6	4	-1E+10	1	-1E+10	1	-1E+10	1	-1E+10	1	-1E+10	1	-1E+10	1
4902663	30	C	05/27/2024	08:15	-127.886	47.943	0	323.90	0	5.7570	0	33.9770	0	26.778	0	320.932	0	59.4	4	19.5	4	-1E+10	1	-1E+10	1	-1E+10	1	-1E+10	1	-1E+10	1	-1E+10	1
4902663	30	C	05/27/2024	08:15	-127.886	47.943	0	325.40	0	5.7510	0	33.9780	0	26.780	0	322.417	0	59.1	4	19.4	4	-1E+10	1	-1E+10	1	-1E+10	1	-1E+10	1	-1E+10	1	-1E+10	1
4902663	30	C	05/27/2024	08:15	-127.886	47.943	0	326.30	0	5.7370	0	33.9810	0	26.784	0	323.308	0	58.8	4	19.3	4	-1E+10	1	-1E+10	1	-1E+10	1	-1E+10	1	-1E+10	1	-1E+10	1
4902663	30	C	05/27/2024	08:15	-127.886	47.943	0	327.20	0	5.7280	0	33.9820	0	26.785	0	324.199	0	58.7	4	19.3	4	-1E+10	1	-1E+10	1	-1E+10	1	-1E+10	1	-1E+10	1	-1E+10	1
4902663	30	C	05/27/2024	08:15	-127.886	47.943	0	328.20	0	5.7270	0	33.9810	0	26.785	0	325.189	0	58.5	4	19.2	4	-1E+10	1	-1E+10	1	-1E+10	1	-1E+10	1	-1E+10	1	-1E+10	1
4902663	30	C	05/27/2024	08:15	-127.886	47.943	0	329.10	0	5.7250	0	33.9820	0	26.786	0	326.080	0	58.3	4	19.2	4	-1E+10	1	-1E+10	1	-1E+10	1	-1E+10	1	-1E+10	1	-1E+10	1
4902663	30	C	05/27/2024	08:15	-127.886	47.943	0	330.10	0	5.7220	0	33.9830	0	26.787	0	327.070	0	58.1	4	19.1	4	-1E+10	1	-1E+10	1	-1E+10	1	-1E+10	1	-1E+10	1	-1E+10	1
4902663	30	C	05/27/2024	08:15	-127.886	47.943	0	331.00	0	5.7170	0	33.9830	0	26.788	0	327.961	0	58.0	4	19.0	4	-1E+10	1	-1E+10	1	-1E+10	1	-1E+10	1	-1E+10	1	-1E+10	1
4902663	30	C	05/27/2024	08:15	-127.886	47.943	0	332.00	0	5.7160	0	33.9830	0	26.788	0	328.951	0	57.9	4	19.0	4	-1E+10	1	-1E+10	1	-1E+10	1	-1E+10	1	-1E+10	1	-1E+10	1
4902663	30	C	05/27/2024	08:15	-127.886	47.943	0	332.90	0	5.7130	0	33.9840	0	26.789	0	329.842	0	57.7	4	18.9	4	-1E+10	1	-1E+10	1	-1E+10	1	-1E+10	1	-1E+10	1	-1E+10	1
4902663	30	C	05/27/2024	08:15	-127.886	47.943	0	333.90	0	5.7130	0	33.9840	0	26.789	0	330.832	0	57.4	4	18.9	4	-1E+10	1	-1E+10	1	-1E+10	1	-1E+10	1	-1E+10	1	-1E+10	1
4902663	30	C	05/27/2024	08:15	-127.886	47.943	0	334.80	0	5.7130	0	33.9840	0	26.789	0	331.724	0	57.2	4	18.8	4	-1E+10	1	-1E+10	1	-1E+10	1	-1E+10	1	-1E+10	1	-1E+10	1
4902663	30	C	05/27/2024	08:15	-127.886	47.943	0	335.80	0	5.7110	0	33.9840	0	26.789	0	332.714	0	56.9	4	18.7	4	-1E+10	1	-1E+10	1	-1E+10	1	-1E+10	1	-1E+10	1	-1E+10	1
4902663	30	C	05/27/2024	08:15	-127.886	47.943	0	336.70	0	5.7030	0	33.9840	0	26.790	0	333.605	0	56.6	4	18.6	4	-1E+10	1	-1E+10	1	-1E+10	1	-1E+10	1	-1E+10	1	-1E+10	1
4902663	30	C	05/27/2024	08:15	-127.886	47.943	0	337.60	0	5.7010	0	33.9840	0	26.790	0	334.496	0	56.3	4	18.5	4	-1E+10	1	-1E+10	1	-1E+10	1	-1E+10	1	-1E+10	1	-1E+10	1
4902663	30	C	05/27/2024	08:15	-127.886	47.943	0	338.60	0	5.6820	0	33.9920	0	26.799	0	335.486	0	55.9	4	18.3	4	-1E+10	1	-1E+10	1	-1E+10	1	-1E+10	1	-1E+10	1	-1E+10	1
4902663	30	C	05/27/2024	08:15	-127.886	47.943	0	339.50	0	5.6740	0	33.9860	0	26.795	0	336.377	0	55.6	4	18.2	4	-1E+10	1	-1E+10	1	-1E+10	1	-1E+10	1	-1E+10	1	-1E+10	1
4902663	30	C	05/27/2024	08:15	-127.886	47.943	0	340.90	0	5.6710	0	33.9860	0	26.796	0	337.762	0	55.0	4	18.0	4	-1E+10	1	-1E+10	1	-1E+10	1	-1E+10	1	-1E+10	1	-1E+10	1
4902663	30	C	05/27/2024	08:15	-127.886	47.943	0	342.40	0	5.6460	0	33.9880	0	26.800	0	339.247	0	54.5	4	17.9	4	-1E+10	1	-1E+10	1	-1E+10	1	-1E+10	1	-1E+10	1	-1E+10	1
4902663	30	C	05/27/2024	08:15	-127.886	47.943	0	343.30	0	5.6480	0	33.9910	0	26.802	0	340.138	0	54.1	4	17.8	4	-1E+10	1	-1E+10	1	-1E+10	1	-1E+10	1	-1E+10	1	-1E+10	1
4902663	30	C	05/27/2024	08:15	-127.886	47.943	0	344.30	0	5.6580	0	33.9940	0	26.804	0	341.128	0	53.9	4	17.7	4	-1E+10	1	-1E+10	1	-1E+10	1	-1E+10	1	-1E+10	1	-1E+10	1
4902663	30	C	05/27/2024	08:15	-127.886	47.943	0	345.20	0	5.6610	0	33.9950	0	26.804	0	342.019	0	53.6	4	17.6	4	-1E+10	1	-1E+10	1	-1E+10	1	-1E+10	1	-1E+10	1	-1E+10	1
4902663	30	C	05/27/2024	08:15	-127.886	47.943	0	346.20	0	5.6600	0	33.9960	0	26.805	0	343.009	0	53.3	4	17.5	4	-1E+10	1	-1E+10	1	-1E+10	1	-1E+10	1	-1E+10	1	-1E+10	1
4902663	30	C	05/27/2024	08:15	-127.886	47.943	0	347.20	0	5.6530	0	33.9980	0	26.807	0	343.999	0	53.0	4	17.4	4	-1E+10	1	-1E+10	1	-1E+10	1	-1E+10	1	-1E+10	1	-1E+10	1
4902663	30	C	05/27/2024	08:15	-127.886	47.943	0	348.10	0	5.6550	0	33.9990	0	26.808	0	344.890	0	52.8	4	17.3	4	-1E+10	1	-1E+10	1	-1E+10	1	-1E+10	1	-1E+10	1	-1E+10	1
4902663	30	C	05/27/2024	08:15	-127.886	47.943	0	349.10	0	5.6500	0	34.0000	0	26.809	0	345.880	0	52.5	4	17.2	4	-1E+10	1	-1E+10	1	-1E+10	1	-1E+10	1	-1E+10	1	-1E+10	1
4902663	30	C	05/27/2024	08:15	-127.886	47.943	0	350.00	0	5.6430	0	34.0000	0	26.810	0	346.771	0	52.2	4	17.1	4	-1E+10	1	-1E+10	1	-1E+10	1	-1E+10	1	-1E+10	1	-1E+10	1
4902663	30	C	05/27/2024	08:15	-127.886	47.943	0	352.90	0	5.6280	0	34.0030	0	26.815	0	349.642	0	51.4	4	16.8	4	-1E+10	1	-1E+10	1	-1E+10	1	-1E+10	1	-1E+10	1	-1E+10	1
4902663	30	C	05/27/2024	08:15	-127.886	47.943	0	357.80	0	5.5850	0	34.0060	0	26.822	0	354.492	0	50.3	4	16.5	4	-1E+10	1	-1E+10	1	-1E+10	1	-1E+10	1	-1E+10	1	-1E+10	1
4902663	30	C	05/27/2024	08:15	-127.886	47.943	0	363.00	0	5.5240	0	34.0090	0	26.832	0	359.640	0	49.2	4	16.1	4	-1E+10	1	-1E+10	1	-1E+10	1	-1E+10	1	-1E+10	1	-1E+10	1
4902663	30	C	05/27/2024	08:15	-127.886	47.943	0	368.20	0	5.4930	0	34.0120	0	26.838	0	364.787	0	48.2	4	15.8	4	-1E+10	1	-1E+10	1	-1E+10	1	-1E+10	1	-1E+10	1	-1E+10	1
4902663	30	C	05/27/2024	08:15	-127.886	47.943	0	372.90	0	5.3950	0	34.0100	0	26.848	0	369.439	0	47.6	4	15.5	4	-1E+10	1	-1E+10	1	-1E+10	1	-1E+10	1	-1E+10	1	-1E+10	1
4902663	30	C	05/27/2024	08:15	-127.886	47.943	0	377.60	0	5.3700	0	34.0100	0	26.851	0	374.092	0	46.3	4	15.1	4	-1E+10	1	-1E+10	1	-1E+10	1	-1E+10	1	-1E+10	1	-1E+10	1
4902663	30	C	05/27/2024	08:15	-127.886	47.943	0	382.90	0	5.3490	0	34.0160	0	26.858	0	379.338	0	45.3	4	14.7	4	-1E+10	1	-1E+10	1	-1E+10	1	-1E+10	1	-1E+10	1	-1E+10	1
4902663	30	C	05/27/2024	08:15	-127.886	47.943	0	388.30	0	5.3090	0	34.0190	0	26.865	0	384.682	0	44.2	4	14.4	4	-1E+10	1	-1E+10	1	-1E+10	1	-1E+10	1	-1E+10	1	-1E+10	1
4902663	30	C	05/27/2024	08:15	-127.886	47.943	0	393.20	0	5.3080	0	34.0240	0	26.870	0	389.532	0	43.0	4	14.0	4	-1E+10	1	-1E+10	1	-1E+10	1	-1E+10	1	-1E+10	1	-1E+10	1
4902663	30	C	05/27/2024	08:15	-127.886	47.943	0	398.10	0	5.2970	0	34.0290	0	26.875	0	394.382	0	41.9	4	13.6	4	-1E+10	1	-1E+10	1	-1E+10	1	-1E+10	1	-1E+10	1	-1E+10	1
4902663	30	C	05/27/2024	08:15	-127.886	47.943	0	403.10	0	5.2840	0	34.0340	0	26.880	0	399.330	0	40.6	4	13.2	4	-1E+10	1	-1E+10	1	-1E+10	1	-1E+10	1	-1E+10	1	-1E+10	1
4902663	30	C	05/27/2024	08:15	-127.886	47.943	0	408.20	0	5.2950	0	34.0410	0	26.885	0	404.378	0	39.5	4	12.8	4	-1E+10	1	-1E+10	1	-1E+10	1	-1E+10	1	-1E+10	1	-1E+10	1
4902663	30	C	05/27/2024	08:15	-127.886	47.943	0	413.30	0	5.2940	0	34.0450	0	26.888	0	409.425	0	38.3	4	12.5	4	-1E+10	1	-1E+10	1	-1E+10	1	-1E+10	1	-1E+10	1	-1E+10	1
4902663	30	C	05/27/2024	08:15	-127.886	47.943	0	418.00	0	5.2660	0	34.0490	0	26.895	0	414.076	0	36.9	4	12.0	4	-1E+10	1	-1E+10	1	-1E+10	1	-1E+10	1	-1E+10	1	-1E+10	1
4902663	30	C	05/27/2024	08:15	-127.886	47.943	0	422.70	0	5.2580	0	34.0580	0	26.903	0	418.727	0	35.9	4	11.7	4	-1E+10	1	-1E+10	1	-1E+10	1	-1E+10	1	-1E+10	1	-1E+10	1
4902663	30	C	05/27/2024	08:15	-127.886	47.943	0	428.00	0	5.2240	0	34.0620	0	26.910	0	423.972	0	35.1	4	11.4	4	-1E+10	1	-1E+10	1	-1E+10	1	-1E+10	1	-1E+10	1	-1E+10	1
4902663	30	C	05/27/2024	08:15	-127.886	47.943	0	432.80	0	5.2060	0	34.0650	0	26.914	0	428.722	0	34.6	4	11.2	4	-1E+10	1	-1E+10	1	-1E+10	1	-1E+10	1	-1E+10	1	-1E+10	1
4902663	30	C	05/27/2024	08:15	-127.886	47.943	0	437.80	0	5.1760	0	34.0650	0	26.918	0	433.669	0	34.1	4	11.1	4	-1E+10	1	-1E+10	1	-1E+10	1	-1E+10	1	-1E+10	1	-1E+10	1
4902663	30	C	05/27/2024	08:15	-127.886	47.943	0	443.00	0	5.1460	0	34.0670	0	26.923	0	438.815	0	33.1	4	10.7	4	-1E+10	1	-1E+10	1	-1E+10	1	-1E+10	1	-1E+10	1	-1E+10	1
4902663	30	C	05/27/2024	08:15	-127.886	47.943	0	447.90	0	5.1350	0	34.0710	0	26.927	0	443.663	0	31.9	4	10.3	4	-1E+10	1	-1E+10	1	-1E+10	1	-1E+10	1	-1E+10	1	-1E+10	1
4902663	30	C	05/27/2024	08:15	-127.886	47.943	0	452.90	0	5.1240	0	34.0780	0	26.934	0	448.611	0	31.1	4	10.1	4	-1E+10	1	-1E+10	1	-1E+10	1	-1E+10	1	-1E+10	1	-1E+10	1
4902663	30	C	05/27/2024	08:15	-127.886	47.943	0	458.00	0	5.0980	0	34.0800	0	26.939	0	453.657	0	30.3	4	9.8	4	-1E+10	1	-1E+10	1	-1E+10	1	-1E+10	1	-1E+10	1	-1E+10	1
4902663	30	C	05/27/2024	08:15	-127.886	47.943	0	463.20	0	5.0760	0	34.0820	0	26.943	0	458.802	0	29.1	4	9.4	4	-1E+10	1	-1E+10	1	-1E+10	1	-1E+10	1	-1E+10	1	-1E+10	1
4902663	30	C	05/27/2024	08:15	-127.886	47.943	0	468.00	0	5.0570	0	34.0890	0	26.951	0	463.551	0	27.9	4	9.0	4	-1E+10	1	-1E+10	1	-1E+10	1	-1E+10	1	-1E+10	1	-1E+10	1
4902663	30	C	05/27/2024	08:15	-127.886	47.943	0	472.80	0	5.0280	0	34.0950	0	26.959	0	468.300	0	27.0	4	8.7	4	-1E+10	1	-1E+10	1	-1E+10	1	-1E+10	1	-1E+10	1	-1E+10	1
4902663	30	C	05/27/2024	08:15	-127.886	47.943	0	477.70	0	5.0060	0	34.0980	0	26.964	0	473.148	0	26.2	4	8.5	4	-1E+10	1	-1E+10	1	-1E+10	1	-1E+10	1	-1E+10	1	-1E+10	1
4902663	30	C	05/27/2024	08:15	-127.886	47.943	0	482.70	0	4.9850	0	34.1050	0	26.972	0	478.094	0	25.4	4	8.2	4	-1E+10	1	-1E+10	1	-1E+10	1	-1E+10	1	-1E+10	1	-1E+10	1
4902663	30	C	05/27/2024	08:15	-127.886	47.943	0	487.70	0	4.9680	0	34.1090	0	26.977	0	483.041	0	24.8	4	8.0	4	-1E+10	1	-1E+10	1	-1E+10	1	-1E+10	1	-1E+10	1	-1E+10	1
4902663	30	C	05/27/2024	08:15	-127.886	47.943	0	492.70	0	4.9500	0	34.1120	0	26.981	0	487.987	0	24.4	4	7.9	4	-1E+10	1	-1E+10	1	-1E+10	1	-1E+10	1	-1E+10	1	-1E+10	1
4902663	30	C	05/27/2024	08:15	-127.886	47.943	0	498.10	0	4.9400	0	34.1140	0	26.984	0	493.329	0	24.0	4	7.7	4	-1E+10	1	-1E+10	1	-1E+10	1	-1E+10	1	-1E+10	1	-1E+10	1
4902663	30	C	05/27/2024	08:15	-127.886	47.943	0	503.10	0	4.9340	0	34.1170	0	26.987	0	498.275	0	23.6	4	7.6	4	-1E+10	1	-1E+10	1	-1E+10	1	-1E+10	1	-1E+10	1	-1E+10	1
4902663	30	C	05/27/2024	08:15	-127.886	47.943	0	508.00	0	4.9150	0	34.1190	0	26.991	0	503.122	0	23.3	4	7.5	4	-1E+10	1	-1E+10	1	-1E+10	1	-1E+10	1	-1E+10	1	-1E+10	1
4902663	30	C	05/27/2024	08:15	-127.886	47.943	0	512.90	0	4.8990	0	34.1180	0	26.992	0	507.969	0	23.0	4	7.4	4	-1E+10	1	-1E+10	1	-1E+10	1	-1E+10	1	-1E+10	1	-1E+10	1
4902663	30	C	05/27/2024	08:15	-127.886	47.943	0	517.80	0	4.8650	0	34.1170	0	26.995	0	512.816	0	22.6	4	7.3	4	-1E+10	1	-1E+10	1	-1E+10	1	-1E+10	1	-1E+10	1	-1E+10	1
4902663	30	C	05/27/2024	08:15	-127.886	47.943	0	522.80	0	4.8610	0	34.1210	0	26.999	0	517.762	0	21.7	4	7.0	4	-1E+10	1	-1E+10	1	-1E+10	1	-1E+10	1	-1E+10	1	-1E+10	1
4902663	30	C	05/27/2024	08:15	-127.886	47.943	0	527.70	0	4.8720	0	34.1280	0	27.003	0	522.608	0	21.0	4	6.8	4	-1E+10	1	-1E+10	1	-1E+10	1	-1E+10	1	-1E+10	1	-1E+10	1
4902663	30	C	05/27/2024	08:15	-127.886	47.943	0	533.10	0	4.8420	0	34.1350	0	27.012	0	527.949	0	20.1	4	6.5	4	-1E+10	1	-1E+10	1	-1E+10	1	-1E+10	1	-1E+10	1	-1E+10	1
4902663	30	C	05/27/2024	08:15	-127.886	47.943	0	538.00	0	4.8080	0	34.1380	0	27.018	0	532.796	0	19.6	4	6.3	4	-1E+10	1	-1E+10	1	-1E+10	1	-1E+10	1	-1E+10	1	-1E+10	1
4902663	30	C	05/27/2024	08:15	-127.886	47.943	0	542.80	0	4.7850	0	34.1400	0	27.023	0	537.543	0	19.2	4	6.2	4	-1E+10	1	-1E+10	1	-1E+10	1	-1E+10	1	-1E+10	1	-1E+10	1
4902663	30	C	05/27/2024	08:15	-127.886	47.943	0	547.70	0	4.7690	0	34.1410	0	27.025	0	542.389	0	18.8	4	6.0	4	-1E+10	1	-1E+10	1	-1E+10	1	-1E+10	1	-1E+10	1	-1E+10	1
4902663	30	C	05/27/2024	08:15	-127.886	47.943	0	552.60	0	4.7460	0	34.1450	0	27.031	0	547.235	0	18.3	4	5.9	4	-1E+10	1	-1E+10	1	-1E+10	1	-1E+10	1	-1E+10	1	-1E+10	1
4902663	30	C	05/27/2024	08:15	-127.886	47.943	0	557.90	0	4.7170	0	34.1500	0	27.038	0	552.477	0	17.9	4	5.7	4	-1E+10	1	-1E+10	1	-1E+10	1	-1E+10	1	-1E+10	1	-1E+10	1
4902663	30	C	05/27/2024	08:15	-127.886	47.943	0	563.10	0	4.7020	0	34.1530	0	27.042	0	557.619	0	17.5	4	5.6	4	-1E+10	1	-1E+10	1	-1E+10	1	-1E+10	1	-1E+10	1	-1E+10	1
4902663	30	C	05/27/2024	08:15	-127.886	47.943	0	567.90	0	4.6800	0	34.1540	0	27.046	0	562.366	0	17.2	4	5.5	4	-1E+10	1	-1E+10	1	-1E+10	1	-1E+10	1	-1E+10	1	-1E+10	1
4902663	30	C	05/27/2024	08:15	-127.886	47.943	0	572.70	0	4.6570	0	34.1580	0	27.051	0	567.113	0	16.8	4	5.4	4	-1E+10	1	-1E+10	1	-1E+10	1	-1E+10	1	-1E+10	1	-1E+10	1
4902663	30	C	05/27/2024	08:15	-127.886	47.943	0	578.00	0	4.6290	0	34.1620	0	27.058	0	572.354	0	16.5	4	5.3	4	-1E+10	1	-1E+10	1	-1E+10	1	-1E+10	1	-1E+10	1	-1E+10	1
4902663	30	C	05/27/2024	08:15	-127.886	47.943	0	583.10	0	4.6090	0	34.1630	0	27.061	0	577.397	0	16.2	4	5.2	4	-1E+10	1	-1E+10	1	-1E+10	1	-1E+10	1	-1E+10	1	-1E+10	1
4902663	30	C	05/27/2024	08:15	-127.886	47.943	0	587.80	0	4.5850	0	34.1660	0	27.066	0	582.044	0	16.0	4	5.1	4	-1E+10	1	-1E+10	1	-1E+10	1	-1E+10	1	-1E+10	1	-1E+10	1
4902663	30	C	05/27/2024	08:15	-127.886	47.943	0	592.60	0	4.5280	0	34.1660	0	27.072	0	586.790	0	15.5	4	5.0	4	-1E+10	1	-1E+10	1	-1E+10	1	-1E+10	1	-1E+10	1	-1E+10	1
4902663	30	C	05/27/2024	08:15	-127.886	47.943	0	598.00	0	4.5150	0	34.1710	0	27.077	0	592.130	0	15.1	4	4.8	4	-1E+10	1	-1E+10	1	-1E+10	1	-1E+10	1	-1E+10	1	-1E+10	1
4902663	30	C	05/27/2024	08:15	-127.886	47.943	0	603.10	0	4.4740	0	34.1710	0	27.082	0	597.172	0	14.6	4	4.7	4	-1E+10	1	-1E+10	1	-1E+10	1	-1E+10	1	-1E+10	1	-1E+10	1
4902663	30	C	05/27/2024	08:15	-127.886	47.943	0	608.10	0	4.4450	0	34.1750	0	27.088	0	602.116	0	14.1	4	4.5	4	-1E+10	1	-1E+10	1	-1E+10	1	-1E+10	1	-1E+10	1	-1E+10	1
4902663	30	C	05/27/2024	08:15	-127.886	47.943	0	613.20	0	4.4230	0	34.1790	0	27.094	0	607.158	0	13.6	4	4.3	4	-1E+10	1	-1E+10	1	-1E+10	1	-1E+10	1	-1E+10	1	-1E+10	1
4902663	30	C	05/27/2024	08:15	-127.886	47.943	0	617.90	0	4.3990	0	34.1870	0	27.103	0	611.805	0	12.9	4	4.1	4	-1E+10	1	-1E+10	1	-1E+10	1	-1E+10	1	-1E+10	1	-1E+10	1
4902663	30	C	05/27/2024	08:15	-127.886	47.943	0	622.80	0	4.4060	0	34.1910	0	27.105	0	616.650	0	12.3	4	3.9	4	-1E+10	1	-1E+10	1	-1E+10	1	-1E+10	1	-1E+10	1	-1E+10	1
4902663	30	C	05/27/2024	08:15	-127.886	47.943	0	627.60	0	4.4290	0	34.1990	0	27.109	0	621.395	0	11.8	4	3.8	4	-1E+10	1	-1E+10	1	-1E+10	1	-1E+10	1	-1E+10	1	-1E+10	1
4902663	30	C	05/27/2024	08:15	-127.886	47.943	0	632.60	0	4.4240	0	34.2020	0	27.112	0	626.338	0	11.5	4	3.7	4	-1E+10	1	-1E+10	1	-1E+10	1	-1E+10	1	-1E+10	1	-1E+10	1
4902663	30	C	05/27/2024	08:15	-127.886	47.943	0	637.60	0	4.4220	0	34.2070	0	27.116	0	631.281	0	11.2	4	3.6	4	-1E+10	1	-1E+10	1	-1E+10	1	-1E+10	1	-1E+10	1	-1E+10	1
4902663	30	C	05/27/2024	08:15	-127.886	47.943	0	642.60	0	4.4050	0	34.2090	0	27.120	0	636.224	0	10.9	4	3.5	4	-1E+10	1	-1E+10	1	-1E+10	1	-1E+10	1	-1E+10	1	-1E+10	1
4902663	30	C	05/27/2024	08:15	-127.886	47.943	0	647.70	0	4.4110	0	34.2160	0	27.125	0	641.265	0	10.3	4	3.3	4	-1E+10	1	-1E+10	1	-1E+10	1	-1E+10	1	-1E+10	1	-1E+10	1
4902663	30	C	05/27/2024	08:15	-127.886	47.943	0	652.80	0	4.4100	0	34.2220	0	27.130	0	646.307	0	10.0	4	3.2	4	-1E+10	1	-1E+10	1	-1E+10	1	-1E+10	1	-1E+10	1	-1E+10	1
4902663	30	C	05/27/2024	08:15	-127.886	47.943	0	658.00	0	4.3840	0	34.2270	0	27.136	0	651.447	0	9.8	4	3.1	4	-1E+10	1	-1E+10	1	-1E+10	1	-1E+10	1	-1E+10	1	-1E+10	1
4902663	30	C	05/27/2024	08:15	-127.886	47.943	0	663.00	0	4.3680	0	34.2300	0	27.140	0	656.389	0	9.7	4	3.1	4	-1E+10	1	-1E+10	1	-1E+10	1	-1E+10	1	-1E+10	1	-1E+10	1
4902663	30	C	05/27/2024	08:15	-127.886	47.943	0	667.70	0	4.3510	0	34.2320	0	27.144	0	661.035	0	9.5	4	3.0	4	-1E+10	1	-1E+10	1	-1E+10	1	-1E+10	1	-1E+10	1	-1E+10	1
4902663	30	C	05/27/2024	08:15	-127.886	47.943	0	672.70	0	4.3290	0	34.2350	0	27.149	0	665.977	0	9.3	4	3.0	4	-1E+10	1	-1E+10	1	-1E+10	1	-1E+10	1	-1E+10	1	-1E+10	1
4902663	30	C	05/27/2024	08:15	-127.886	47.943	0	677.90	0	4.3200	0	34.2400	0	27.154	0	671.117	0	9.1	4	2.9	4	-1E+10	1	-1E+10	1	-1E+10	1	-1E+10	1	-1E+10	1	-1E+10	1
4902663	30	C	05/27/2024	08:15	-127.886	47.943	0	683.20	0	4.3130	0	34.2430	0	27.157	0	676.355	0	9.0	4	2.9	4	-1E+10	1	-1E+10	1	-1E+10	1	-1E+10	1	-1E+10	1	-1E+10	1
4902663	30	C	05/27/2024	08:15	-127.886	47.943	0	688.20	0	4.3060	0	34.2470	0	27.161	0	681.297	0	8.8	4	2.8	4	-1E+10	1	-1E+10	1	-1E+10	1	-1E+10	1	-1E+10	1	-1E+10	1
4902663	30	C	05/27/2024	08:15	-127.886	47.943	0	693.20	0	4.2990	0	34.2490	0	27.163	0	686.239	0	8.6	4	2.8	4	-1E+10	1	-1E+10	1	-1E+10	1	-1E+10	1	-1E+10	1	-1E+10	1
4902663	30	C	05/27/2024	08:15	-127.886	47.943	0	697.90	0	4.2890	0	34.2520	0	27.167	0	690.884	0	8.5	4	2.7	4	-1E+10	1	-1E+10	1	-1E+10	1	-1E+10	1	-1E+10	1	-1E+10	1
4902663	30	C	05/27/2024	08:15	-127.886	47.943	0	702.60	0	4.2730	0	34.2560	0	27.171	0	695.528	0	8.3	4	2.7	4	-1E+10	1	-1E+10	1	-1E+10	1	-1E+10	1	-1E+10	1	-1E+10	1
4902663	30	C	05/27/2024	08:15	-127.886	47.943	0	707.70	0	4.2590	0	34.2600	0	27.176	0	700.569	0	8.2	4	2.6	4	-1E+10	1	-1E+10	1	-1E+10	1	-1E+10	1	-1E+10	1	-1E+10	1
4902663	30	C	05/27/2024	08:15	-127.886	47.943	0	712.90	0	4.2440	0	34.2630	0	27.180	0	705.707	0	8.1	4	2.6	4	-1E+10	1	-1E+10	1	-1E+10	1	-1E+10	1	-1E+10	1	-1E+10	1
4902663	30	C	05/27/2024	08:15	-127.886	47.943	0	718.10	0	4.2330	0	34.2660	0	27.184	0	710.846	0	8.0	4	2.5	4	-1E+10	1	-1E+10	1	-1E+10	1	-1E+10	1	-1E+10	1	-1E+10	1
4902663	30	C	05/27/2024	08:15	-127.886	47.943	0	723.10	0	4.2190	0	34.2690	0	27.188	0	715.787	0	7.9	4	2.5	4	-1E+10	1	-1E+10	1	-1E+10	1	-1E+10	1	-1E+10	1	-1E+10	1
4902663	30	C	05/27/2024	08:15	-127.886	47.943	0	728.00	0	4.2090	0	34.2720	0	27.191	0	720.629	0	7.8	4	2.5	4	-1E+10	1	-1E+10	1	-1E+10	1	-1E+10	1	-1E+10	1	-1E+10	1
4902663	30	C	05/27/2024	08:15	-127.886	47.943	0	733.10	0	4.2020	0	34.2750	0	27.194	0	725.668	0	7.8	4	2.5	4	-1E+10	1	-1E+10	1	-1E+10	1	-1E+10	1	-1E+10	1	-1E+10	1
4902663	30	C	05/27/2024	08:15	-127.886	47.943	0	738.00	0	4.1910	0	34.2780	0	27.198	0	730.510	0	7.7	4	2.4	4	-1E+10	1	-1E+10	1	-1E+10	1	-1E+10	1	-1E+10	1	-1E+10	1
4902663	30	C	05/27/2024	08:15	-127.886	47.943	0	743.00	0	4.1840	0	34.2800	0	27.200	0	735.451	0	7.6	4	2.4	4	-1E+10	1	-1E+10	1	-1E+10	1	-1E+10	1	-1E+10	1	-1E+10	1
4902663	30	C	05/27/2024	08:15	-127.886	47.943	0	748.00	0	4.1760	0	34.2820	0	27.203	0	740.391	0	7.5	4	2.4	4	-1E+10	1	-1E+10	1	-1E+10	1	-1E+10	1	-1E+10	1	-1E+10	1
4902663	30	C	05/27/2024	08:15	-127.886	47.943	0	753.10	0	4.1610	0	34.2860	0	27.207	0	745.430	0	7.5	4	2.4	4	-1E+10	1	-1E+10	1	-1E+10	1	-1E+10	1	-1E+10	1	-1E+10	1
4902663	30	C	05/27/2024	08:15	-127.886	47.943	0	757.70	0	4.1480	0	34.2880	0	27.210	0	749.975	0	7.4	4	2.3	4	-1E+10	1	-1E+10	1	-1E+10	1	-1E+10	1	-1E+10	1	-1E+10	1
4902663	30	C	05/27/2024	08:15	-127.886	47.943	0	762.70	0	4.1400	0	34.2900	0	27.213	0	754.915	0	7.3	4	2.3	4	-1E+10	1	-1E+10	1	-1E+10	1	-1E+10	1	-1E+10	1	-1E+10	1
4902663	30	C	05/27/2024	08:15	-127.886	47.943	0	768.10	0	4.1190	0	34.2930	0	27.217	0	760.250	0	7.3	4	2.3	4	-1E+10	1	-1E+10	1	-1E+10	1	-1E+10	1	-1E+10	1	-1E+10	1
4902663	30	C	05/27/2024	08:15	-127.886	47.943	0	773.10	0	4.1070	0	34.2950	0	27.220	0	765.190	0	7.2	4	2.3	4	-1E+10	1	-1E+10	1	-1E+10	1	-1E+10	1	-1E+10	1	-1E+10	1
4902663	30	C	05/27/2024	08:15	-127.886	47.943	0	777.90	0	4.0840	0	34.2980	0	27.225	0	769.932	0	7.1	4	2.3	4	-1E+10	1	-1E+10	1	-1E+10	1	-1E+10	1	-1E+10	1	-1E+10	1
4902663	30	C	05/27/2024	08:15	-127.886	47.943	0	782.90	0	4.0660	0	34.2990	0	27.228	0	774.871	0	7.1	4	2.2	4	-1E+10	1	-1E+10	1	-1E+10	1	-1E+10	1	-1E+10	1	-1E+10	1
4902663	30	C	05/27/2024	08:15	-127.886	47.943	0	787.70	0	4.0560	0	34.3000	0	27.230	0	779.613	0	7.0	4	2.2	4	-1E+10	1	-1E+10	1	-1E+10	1	-1E+10	1	-1E+10	1	-1E+10	1
4902663	30	C	05/27/2024	08:15	-127.886	47.943	0	793.00	0	4.0430	0	34.3030	0	27.233	0	784.849	0	6.9	4	2.2	4	-1E+10	1	-1E+10	1	-1E+10	1	-1E+10	1	-1E+10	1	-1E+10	1
4902663	30	C	05/27/2024	08:15	-127.886	47.943	0	798.00	0	4.0280	0	34.3060	0	27.237	0	789.788	0	6.9	4	2.2	4	-1E+10	1	-1E+10	1	-1E+10	1	-1E+10	1	-1E+10	1	-1E+10	1
4902663	30	C	05/27/2024	08:15	-127.886	47.943	0	802.90	0	4.0120	0	34.3100	0	27.242	0	794.628	0	6.9	4	2.2	4	-1E+10	1	-1E+10	1	-1E+10	1	-1E+10	1	-1E+10	1	-1E+10	1
4902663	30	C	05/27/2024	08:15	-127.886	47.943	0	807.80	0	3.9980	0	34.3130	0	27.246	0	799.468	0	6.8	4	2.2	4	-1E+10	1	-1E+10	1	-1E+10	1	-1E+10	1	-1E+10	1	-1E+10	1
4902663	30	C	05/27/2024	08:15	-127.886	47.943	0	812.70	0	3.9850	0	34.3170	0	27.251	0	804.308	0	6.8	4	2.2	4	-1E+10	1	-1E+10	1	-1E+10	1	-1E+10	1	-1E+10	1	-1E+10	1
4902663	30	C	05/27/2024	08:15	-127.886	47.943	0	817.80	0	3.9700	0	34.3190	0	27.254	0	809.346	0	6.8	4	2.2	4	-1E+10	1	-1E+10	1	-1E+10	1	-1E+10	1	-1E+10	1	-1E+10	1
4902663	30	C	05/27/2024	08:15	-127.886	47.943	0	822.80	0	3.9520	0	34.3210	0	27.257	0	814.284	0	6.8	4	2.2	4	-1E+10	1	-1E+10	1	-1E+10	1	-1E+10	1	-1E+10	1	-1E+10	1
4902663	30	C	05/27/2024	08:15	-127.886	47.943	0	828.00	0	3.9400	0	34.3230	0	27.260	0	819.420	0	6.8	4	2.1	4	-1E+10	1	-1E+10	1	-1E+10	1	-1E+10	1	-1E+10	1	-1E+10	1
4902663	30	C	05/27/2024	08:15	-127.886	47.943	0	832.70	0	3.9380	0	34.3260	0	27.263	0	824.062	0	6.8	4	2.1	4	-1E+10	1	-1E+10	1	-1E+10	1	-1E+10	1	-1E+10	1	-1E+10	1
4902663	30	C	05/27/2024	08:15	-127.886	47.943	0	837.90	0	3.9240	0	34.3290	0	27.267	0	829.198	0	6.8	4	2.2	4	-1E+10	1	-1E+10	1	-1E+10	1	-1E+10	1	-1E+10	1	-1E+10	1
4902663	30	C	05/27/2024	08:15	-127.886	47.943	0	843.20	0	3.9100	0	34.3320	0	27.270	0	834.432	0	6.8	4	2.2	4	-1E+10	1	-1E+10	1	-1E+10	1	-1E+10	1	-1E+10	1	-1E+10	1
4902663	30	C	05/27/2024	08:15	-127.886	47.943	0	848.00	0	3.9000	0	34.3340	0	27.273	0	839.173	0	6.9	4	2.2	4	-1E+10	1	-1E+10	1	-1E+10	1	-1E+10	1	-1E+10	1	-1E+10	1
4902663	30	C	05/27/2024	08:15	-127.886	47.943	0	852.70	0	3.8950	0	34.3360	0	27.275	0	843.814	0	6.9	4	2.2	4	-1E+10	1	-1E+10	1	-1E+10	1	-1E+10	1	-1E+10	1	-1E+10	1
4902663	30	C	05/27/2024	08:15	-127.886	47.943	0	857.60	0	3.8830	0	34.3380	0	27.278	0	848.653	0	6.9	4	2.2	4	-1E+10	1	-1E+10	1	-1E+10	1	-1E+10	1	-1E+10	1	-1E+10	1
4902663	30	C	05/27/2024	08:15	-127.886	47.943	0	862.50	0	3.8690	0	34.3390	0	27.280	0	853.492	0	6.9	4	2.2	4	-1E+10	1	-1E+10	1	-1E+10	1	-1E+10	1	-1E+10	1	-1E+10	1
4902663	30	C	05/27/2024	08:15	-127.886	47.943	0	867.90	0	3.8600	0	34.3410	0	27.283	0	858.825	0	6.8	4	2.2	4	-1E+10	1	-1E+10	1	-1E+10	1	-1E+10	1	-1E+10	1	-1E+10	1
4902663	30	C	05/27/2024	08:15	-127.886	47.943	0	873.30	0	3.8450	0	34.3410	0	27.284	0	864.157	0	6.8	4	2.2	4	-1E+10	1	-1E+10	1	-1E+10	1	-1E+10	1	-1E+10	1	-1E+10	1
4902663	30	C	05/27/2024	08:15	-127.886	47.943	0	878.30	0	3.8330	0	34.3440	0	27.288	0	869.095	0	6.8	4	2.1	4	-1E+10	1	-1E+10	1	-1E+10	1	-1E+10	1	-1E+10	1	-1E+10	1
4902663	30	C	05/27/2024	08:15	-127.886	47.943	0	883.30	0	3.8290	0	34.3480	0	27.292	0	874.032	0	6.8	4	2.1	4	-1E+10	1	-1E+10	1	-1E+10	1	-1E+10	1	-1E+10	1	-1E+10	1
4902663	30	C	05/27/2024	08:15	-127.886	47.943	0	887.90	0	3.8180	0	34.3510	0	27.295	0	878.574	0	6.8	4	2.1	4	-1E+10	1	-1E+10	1	-1E+10	1	-1E+10	1	-1E+10	1	-1E+10	1
4902663	30	C	05/27/2024	08:15	-127.886	47.943	0	892.50	0	3.8120	0	34.3520	0	27.297	0	883.116	0	6.9	4	2.2	4	-1E+10	1	-1E+10	1	-1E+10	1	-1E+10	1	-1E+10	1	-1E+10	1
4902663	30	C	05/27/2024	08:15	-127.886	47.943	0	897.50	0	3.8060	0	34.3530	0	27.298	0	888.053	0	6.9	4	2.2	4	-1E+10	1	-1E+10	1	-1E+10	1	-1E+10	1	-1E+10	1	-1E+10	1
4902663	30	C	05/27/2024	08:15	-127.886	47.943	0	902.60	0	3.7890	0	34.3540	0	27.300	0	893.088	0	7.0	4	2.2	4	-1E+10	1	-1E+10	1	-1E+10	1	-1E+10	1	-1E+10	1	-1E+10	1
4902663	30	C	05/27/2024	08:15	-127.886	47.943	0	907.80	0	3.7720	0	34.3540	0	27.302	0	898.222	0	7.0	4	2.2	4	-1E+10	1	-1E+10	1	-1E+10	1	-1E+10	1	-1E+10	1	-1E+10	1
4902663	30	C	05/27/2024	08:15	-127.886	47.943	0	913.00	0	3.7340	0	34.3550	0	27.307	0	903.356	0	7.1	4	2.2	4	-1E+10	1	-1E+10	1	-1E+10	1	-1E+10	1	-1E+10	1	-1E+10	1
4902663	30	C	05/27/2024	08:15	-127.886	47.943	0	918.20	0	3.7320	0	34.3570	0	27.309	0	908.490	0	7.1	4	2.2	4	-1E+10	1	-1E+10	1	-1E+10	1	-1E+10	1	-1E+10	1	-1E+10	1
4902663	30	C	05/27/2024	08:15	-127.886	47.943	0	922.90	0	3.7140	0	34.3580	0	27.311	0	913.130	0	7.2	4	2.3	4	-1E+10	1	-1E+10	1	-1E+10	1	-1E+10	1	-1E+10	1	-1E+10	1
4902663	30	C	05/27/2024	08:15	-127.886	47.943	0	927.60	0	3.6810	0	34.3570	0	27.314	0	917.770	0	7.3	4	2.3	4	-1E+10	1	-1E+10	1	-1E+10	1	-1E+10	1	-1E+10	1	-1E+10	1
4902663	30	C	05/27/2024	08:15	-127.886	47.943	0	932.70	0	3.6500	0	34.3580	0	27.318	0	922.804	0	7.3	4	2.3	4	-1E+10	1	-1E+10	1	-1E+10	1	-1E+10	1	-1E+10	1	-1E+10	1
4902663	30	C	05/27/2024	08:15	-127.886	47.943	0	937.90	0	3.6350	0	34.3600	0	27.321	0	927.938	0	7.4	4	2.3	4	-1E+10	1	-1E+10	1	-1E+10	1	-1E+10	1	-1E+10	1	-1E+10	1
4902663	30	C	05/27/2024	08:15	-127.886	47.943	0	943.10	0	3.6250	0	34.3620	0	27.323	0	933.071	0	7.4	4	2.3	4	-1E+10	1	-1E+10	1	-1E+10	1	-1E+10	1	-1E+10	1	-1E+10	1
4902663	30	C	05/27/2024	08:15	-127.886	47.943	0	948.30	0	3.6120	0	34.3630	0	27.325	0	938.204	0	7.4	4	2.3	4	-1E+10	1	-1E+10	1	-1E+10	1	-1E+10	1	-1E+10	1	-1E+10	1
4902663	30	C	05/27/2024	08:15	-127.886	47.943	0	953.30	0	3.6100	0	34.3650	0	27.327	0	943.139	0	7.5	4	2.4	4	-1E+10	1	-1E+10	1	-1E+10	1	-1E+10	1	-1E+10	1	-1E+10	1
4902663	30	C	05/27/2024	08:15	-127.886	47.943	0	958.00	0	3.5970	0	34.3670	0	27.330	0	947.779	0	7.5	4	2.4	4	-1E+10	1	-1E+10	1	-1E+10	1	-1E+10	1	-1E+10	1	-1E+10	1
4902663	30	C	05/27/2024	08:15	-127.886	47.943	0	963.20	0	3.5850	0	34.3690	0	27.333	0	952.911	0	7.6	4	2.4	4	-1E+10	1	-1E+10	1	-1E+10	1	-1E+10	1	-1E+10	1	-1E+10	1
4902663	30	C	05/27/2024	08:15	-127.886	47.943	0	968.10	0	3.5630	0	34.3700	0	27.336	0	957.748	0	7.6	4	2.4	4	-1E+10	1	-1E+10	1	-1E+10	1	-1E+10	1	-1E+10	1	-1E+10	1
4902663	30	C	05/27/2024	08:15	-127.886	47.943	0	972.90	0	3.5550	0	34.3720	0	27.338	0	962.486	0	7.7	4	2.4	4	-1E+10	1	-1E+10	1	-1E+10	1	-1E+10	1	-1E+10	1	-1E+10	1
4902663	30	C	05/27/2024	08:15	-127.886	47.943	0	977.80	0	3.5420	0	34.3750	0	27.342	0	967.322	0	7.7	4	2.4	4	-1E+10	1	-1E+10	1	-1E+10	1	-1E+10	1	-1E+10	1	-1E+10	1
4902663	30	C	05/27/2024	08:15	-127.886	47.943	0	982.80	0	3.5330	0	34.3780	0	27.345	0	972.257	0	7.8	4	2.4	4	-1E+10	1	-1E+10	1	-1E+10	1	-1E+10	1	-1E+10	1	-1E+10	1
4902663	30	C	05/27/2024	08:15	-127.886	47.943	0	987.90	0	3.5210	0	34.3800	0	27.348	0	977.290	0	7.9	4	2.5	4	-1E+10	1	-1E+10	1	-1E+10	1	-1E+10	1	-1E+10	1	-1E+10	1
4902663	30	C	05/27/2024	08:15	-127.886	47.943	0	993.00	0	3.5080	0	34.3820	0	27.351	0	982.323	0	8.0	4	2.5	4	-1E+10	1	-1E+10	1	-1E+10	1	-1E+10	1	-1E+10	1	-1E+10	1
4902663	30	C	05/27/2024	08:15	-127.886	47.943	0	998.20	0	3.4930	0	34.3830	0	27.353	0	987.455	0	8.1	4	2.5	4	-1E+10	1	-1E+10	1	-1E+10	1	-1E+10	1	-1E+10	1	-1E+10	1
4902663	30	C	05/27/2024	08:15	-127.886	47.943	0	1005.50	0	3.4930	0	34.3870	0	27.356	0	994.659	0	8.2	4	2.6	4	-1E+10	1	-1E+10	1	-1E+10	1	-1E+10	1	-1E+10	1	-1E+10	1
4902663	30	C	05/27/2024	08:15	-127.886	47.943	0	1015.20	0	3.4640	0	34.3910	0	27.362	0	1004.231	0	8.4	4	2.6	4	-1E+10	1	-1E+10	1	-1E+10	1	-1E+10	1	-1E+10	1	-1E+10	1
4902663	30	C	05/27/2024	08:15	-127.886	47.943	0	1025.40	0	3.4430	0	34.3960	0	27.368	0	1014.297	0	8.5	4	2.6	4	-1E+10	1	-1E+10	1	-1E+10	1	-1E+10	1	-1E+10	1	-1E+10	1
4902663	30	C	05/27/2024	08:15	-127.886	47.943	0	1035.80	0	3.4300	0	34.3990	0	27.372	0	1024.559	0	8.6	4	2.7	4	-1E+10	1	-1E+10	1	-1E+10	1	-1E+10	1	-1E+10	1	-1E+10	1
4902663	30	C	05/27/2024	08:15	-127.886	47.943	0	1045.80	0	3.4050	0	34.4020	0	27.377	0	1034.425	0	8.8	4	2.7	4	-1E+10	1	-1E+10	1	-1E+10	1	-1E+10	1	-1E+10	1	-1E+10	1
4902663	30	C	05/27/2024	08:15	-127.886	47.943	0	1055.40	0	3.3820	0	34.4050	0	27.382	0	1043.897	0	8.9	4	2.8	4	-1E+10	1	-1E+10	1	-1E+10	1	-1E+10	1	-1E+10	1	-1E+10	1
4902663	30	C	05/27/2024	08:15	-127.886	47.943	0	1065.00	0	3.3600	0	34.4080	0	27.386	0	1053.368	0	9.2	4	2.9	4	-1E+10	1	-1E+10	1	-1E+10	1	-1E+10	1	-1E+10	1	-1E+10	1
4902663	30	C	05/27/2024	08:15	-127.886	47.943	0	1075.10	0	3.3360	0	34.4120	0	27.392	0	1063.332	0	9.4	4	2.9	4	-1E+10	1	-1E+10	1	-1E+10	1	-1E+10	1	-1E+10	1	-1E+10	1
4902663	30	C	05/27/2024	08:15	-127.886	47.943	0	1085.30	0	3.3170	0	34.4150	0	27.396	0	1073.395	0	9.5	4	3.0	4	-1E+10	1	-1E+10	1	-1E+10	1	-1E+10	1	-1E+10	1	-1E+10	1
4902663	30	C	05/27/2024	08:15	-127.886	47.943	0	1095.60	0	3.3010	0	34.4160	0	27.398	0	1083.555	0	9.7	4	3.0	4	-1E+10	1	-1E+10	1	-1E+10	1	-1E+10	1	-1E+10	1	-1E+10	1
4902663	30	C	05/27/2024	08:15	-127.886	47.943	0	1105.60	0	3.2810	0	34.4190	0	27.403	0	1093.419	0	9.9	4	3.1	4	-1E+10	1	-1E+10	1	-1E+10	1	-1E+10	1	-1E+10	1	-1E+10	1
4902663	30	C	05/27/2024	08:15	-127.886	47.943	0	1115.40	0	3.2570	0	34.4220	0	27.407	0	1103.086	0	10.2	4	3.2	4	-1E+10	1	-1E+10	1	-1E+10	1	-1E+10	1	-1E+10	1	-1E+10	1
4902663	30	C	05/27/2024	08:15	-127.886	47.943	0	1125.20	0	3.2310	0	34.4250	0	27.412	0	1112.751	0	10.4	4	3.2	4	-1E+10	1	-1E+10	1	-1E+10	1	-1E+10	1	-1E+10	1	-1E+10	1
4902663	30	C	05/27/2024	08:15	-127.886	47.943	0	1135.40	0	3.2140	0	34.4280	0	27.416	0	1122.811	0	10.8	4	3.3	4	-1E+10	1	-1E+10	1	-1E+10	1	-1E+10	1	-1E+10	1	-1E+10	1
4902663	30	C	05/27/2024	08:15	-127.886	47.943	0	1145.70	0	3.1890	0	34.4320	0	27.422	0	1132.969	0	11.0	4	3.4	4	-1E+10	1	-1E+10	1	-1E+10	1	-1E+10	1	-1E+10	1	-1E+10	1
4902663	30	C	05/27/2024	08:15	-127.886	47.943	0	1155.60	0	3.1650	0	34.4330	0	27.425	0	1142.732	0	11.2	4	3.5	4	-1E+10	1	-1E+10	1	-1E+10	1	-1E+10	1	-1E+10	1	-1E+10	1
4902663	30	C	05/27/2024	08:15	-127.886	47.943	0	1165.70	0	3.1460	0	34.4370	0	27.430	0	1152.692	0	11.4	4	3.5	4	-1E+10	1	-1E+10	1	-1E+10	1	-1E+10	1	-1E+10	1	-1E+10	1
4902663	30	C	05/27/2024	08:15	-127.886	47.943	0	1175.40	0	3.1300	0	34.4400	0	27.434	0	1162.257	0	11.7	4	3.6	4	-1E+10	1	-1E+10	1	-1E+10	1	-1E+10	1	-1E+10	1	-1E+10	1
4902663	30	C	05/27/2024	08:15	-127.886	47.943	0	1185.10	0	3.1040	0	34.4410	0	27.437	0	1171.822	0	11.9	4	3.7	4	-1E+10	1	-1E+10	1	-1E+10	1	-1E+10	1	-1E+10	1	-1E+10	1
4902663	30	C	05/27/2024	08:15	-127.886	47.943	0	1195.40	0	3.0950	0	34.4450	0	27.441	0	1181.977	0	12.3	4	3.8	4	-1E+10	1	-1E+10	1	-1E+10	1	-1E+10	1	-1E+10	1	-1E+10	1
4902663	30	C	05/27/2024	08:15	-127.886	47.943	0	1205.70	0	3.0810	0	34.4480	0	27.445	0	1192.133	0	12.7	4	3.9	4	-1E+10	1	-1E+10	1	-1E+10	1	-1E+10	1	-1E+10	1	-1E+10	1
4902663	30	C	05/27/2024	08:15	-127.886	47.943	0	1215.40	0	3.0490	0	34.4510	0	27.450	0	1201.696	0	13.0	4	4.0	4	-1E+10	1	-1E+10	1	-1E+10	1	-1E+10	1	-1E+10	1	-1E+10	1
4902663	30	C	05/27/2024	08:15	-127.886	47.943	0	1225.30	0	3.0290	0	34.4530	0	27.454	0	1211.456	0	13.4	4	4.1	4	-1E+10	1	-1E+10	1	-1E+10	1	-1E+10	1	-1E+10	1	-1E+10	1
4902663	30	C	05/27/2024	08:15	-127.886	47.943	0	1235.70	0	3.0060	0	34.4570	0	27.459	0	1221.708	0	13.8	4	4.2	4	-1E+10	1	-1E+10	1	-1E+10	1	-1E+10	1	-1E+10	1	-1E+10	1
4902663	30	C	05/27/2024	08:15	-127.886	47.943	0	1245.50	0	3.0010	0	34.4600	0	27.462	0	1231.368	0	14.2	4	4.4	4	-1E+10	1	-1E+10	1	-1E+10	1	-1E+10	1	-1E+10	1	-1E+10	1
4902663	30	C	05/27/2024	08:15	-127.886	47.943	0	1255.30	0	2.9850	0	34.4630	0	27.466	0	1241.028	0	14.6	4	4.5	4	-1E+10	1	-1E+10	1	-1E+10	1	-1E+10	1	-1E+10	1	-1E+10	1
4902663	30	C	05/27/2024	08:15	-127.886	47.943	0	1265.30	0	2.9610	0	34.4660	0	27.470	0	1250.885	0	14.8	4	4.6	4	-1E+10	1	-1E+10	1	-1E+10	1	-1E+10	1	-1E+10	1	-1E+10	1
4902663	30	C	05/27/2024	08:15	-127.886	47.943	0	1275.10	0	2.9250	0	34.4690	0	27.476	0	1260.544	0	15.1	4	4.7	4	-1E+10	1	-1E+10	1	-1E+10	1	-1E+10	1	-1E+10	1	-1E+10	1
4902663	30	C	05/27/2024	08:15	-127.886	47.943	0	1285.60	0	2.8990	0	34.4720	0	27.481	0	1270.892	0	15.5	4	4.8	4	-1E+10	1	-1E+10	1	-1E+10	1	-1E+10	1	-1E+10	1	-1E+10	1
4902663	30	C	05/27/2024	08:15	-127.886	47.943	0	1295.50	0	2.8760	0	34.4740	0	27.484	0	1280.649	0	15.8	4	4.9	4	-1E+10	1	-1E+10	1	-1E+10	1	-1E+10	1	-1E+10	1	-1E+10	1
4902663	30	C	05/27/2024	08:15	-127.886	47.943	0	1305.30	0	2.8550	0	34.4760	0	27.488	0	1290.307	0	16.2	4	5.0	4	-1E+10	1	-1E+10	1	-1E+10	1	-1E+10	1	-1E+10	1	-1E+10	1
4902663	30	C	05/27/2024	08:15	-127.886	47.943	0	1315.60	0	2.8330	0	34.4780	0	27.492	0	1300.457	0	16.5	4	5.1	4	-1E+10	1	-1E+10	1	-1E+10	1	-1E+10	1	-1E+10	1	-1E+10	1
4902663	30	C	05/27/2024	08:15	-127.886	47.943	0	1325.40	0	2.8090	0	34.4810	0	27.496	0	1310.113	0	17.0	4	5.2	4	-1E+10	1	-1E+10	1	-1E+10	1	-1E+10	1	-1E+10	1	-1E+10	1
4902663	30	C	05/27/2024	08:15	-127.886	47.943	0	1335.40	0	2.7900	0	34.4830	0	27.499	0	1319.967	0	17.3	4	5.3	4	-1E+10	1	-1E+10	1	-1E+10	1	-1E+10	1	-1E+10	1	-1E+10	1
4902663	30	C	05/27/2024	08:15	-127.886	47.943	0	1345.20	0	2.7730	0	34.4850	0	27.503	0	1329.622	0	17.7	4	5.4	4	-1E+10	1	-1E+10	1	-1E+10	1	-1E+10	1	-1E+10	1	-1E+10	1
4902663	30	C	05/27/2024	08:15	-127.886	47.943	0	1355.30	0	2.7580	0	34.4870	0	27.506	0	1339.574	0	18.1	4	5.5	4	-1E+10	1	-1E+10	1	-1E+10	1	-1E+10	1	-1E+10	1	-1E+10	1
4902663	30	C	05/27/2024	08:15	-127.886	47.943	0	1365.30	0	2.7440	0	34.4880	0	27.508	0	1349.426	0	18.5	4	5.7	4	-1E+10	1	-1E+10	1	-1E+10	1	-1E+10	1	-1E+10	1	-1E+10	1
4902663	30	C	05/27/2024	08:15	-127.886	47.943	0	1375.40	0	2.7250	0	34.4910	0	27.512	0	1359.376	0	19.1	4	5.8	4	-1E+10	1	-1E+10	1	-1E+10	1	-1E+10	1	-1E+10	1	-1E+10	1
4902663	30	C	05/27/2024	08:15	-127.886	47.943	0	1385.70	0	2.6930	0	34.4940	0	27.517	0	1369.522	0	19.8	4	6.1	4	-1E+10	1	-1E+10	1	-1E+10	1	-1E+10	1	-1E+10	1	-1E+10	1
4902663	30	C	05/27/2024	08:15	-127.886	47.943	0	1395.70	0	2.6710	0	34.4970	0	27.521	0	1379.373	0	20.3	4	6.2	4	-1E+10	1	-1E+10	1	-1E+10	1	-1E+10	1	-1E+10	1	-1E+10	1
4902663	30	C	05/27/2024	08:15	-127.886	47.943	0	1405.40	0	2.6540	0	34.4980	0	27.524	0	1388.927	0	20.8	4	6.4	4	-1E+10	1	-1E+10	1	-1E+10	1	-1E+10	1	-1E+10	1	-1E+10	1
4902663	30	C	05/27/2024	08:15	-127.886	47.943	0	1415.30	0	2.6270	0	34.5000	0	27.528	0	1398.678	0	21.2	4	6.5	4	-1E+10	1	-1E+10	1	-1E+10	1	-1E+10	1	-1E+10	1	-1E+10	1
4902663	30	C	05/27/2024	08:15	-127.886	47.943	0	1425.40	0	2.6050	0	34.5020	0	27.531	0	1408.626	0	21.7	4	6.6	4	-1E+10	1	-1E+10	1	-1E+10	1	-1E+10	1	-1E+10	1	-1E+10	1
4902663	30	C	05/27/2024	08:15	-127.886	47.943	0	1435.20	0	2.5880	0	34.5030	0	27.533	0	1418.278	0	22.1	4	6.8	4	-1E+10	1	-1E+10	1	-1E+10	1	-1E+10	1	-1E+10	1	-1E+10	1
4902663	30	C	05/27/2024	08:15	-127.886	47.943	0	1445.10	0	2.5600	0	34.5040	0	27.537	0	1428.028	0	22.4	4	6.9	4	-1E+10	1	-1E+10	1	-1E+10	1	-1E+10	1	-1E+10	1	-1E+10	1
4902663	30	C	05/27/2024	08:15	-127.886	47.943	0	1455.10	0	2.5370	0	34.5060	0	27.540	0	1437.876	0	22.7	4	6.9	4	-1E+10	1	-1E+10	1	-1E+10	1	-1E+10	1	-1E+10	1	-1E+10	1
4902663	30	C	05/27/2024	08:15	-127.886	47.943	0	1465.20	0	2.5170	0	34.5060	0	27.542	0	1447.821	0	23.1	4	7.0	4	-1E+10	1	-1E+10	1	-1E+10	1	-1E+10	1	-1E+10	1	-1E+10	1
4902663	30	C	05/27/2024	08:15	-127.886	47.943	0	1475.30	0	2.4930	0	34.5060	0	27.544	0	1457.767	0	23.7	4	7.2	4	-1E+10	1	-1E+10	1	-1E+10	1	-1E+10	1	-1E+10	1	-1E+10	1
4902663	30	C	05/27/2024	08:15	-127.886	47.943	0	1485.40	0	2.4940	0	34.5120	0	27.549	0	1467.712	0	24.7	4	7.5	4	-1E+10	1	-1E+10	1	-1E+10	1	-1E+10	1	-1E+10	1	-1E+10	1
4902663	30	C	05/27/2024	08:15	-127.886	47.943	0	1495.70	0	2.4940	0	34.5160	0	27.552	0	1477.853	0	25.3	4	7.7	4	-1E+10	1	-1E+10	1	-1E+10	1	-1E+10	1	-1E+10	1	-1E+10	1
4902663	30	C	05/27/2024	08:15	-127.886	47.943	0	1505.40	0	2.4770	0	34.5170	0	27.554	0	1487.403	0	25.9	4	7.9	4	-1E+10	1	-1E+10	1	-1E+10	1	-1E+10	1	-1E+10	1	-1E+10	1
4902663	30	C	05/27/2024	08:15	-127.886	47.943	0	1515.10	0	2.4720	0	34.5210	0	27.558	0	1496.953	0	26.5	4	8.1	4	-1E+10	1	-1E+10	1	-1E+10	1	-1E+10	1	-1E+10	1	-1E+10	1
4902663	30	C	05/27/2024	08:15	-127.886	47.943	0	1525.30	0	2.4530	0	34.5220	0	27.560	0	1506.994	0	26.9	4	8.2	4	-1E+10	1	-1E+10	1	-1E+10	1	-1E+10	1	-1E+10	1	-1E+10	1
4902663	30	C	05/27/2024	08:15	-127.886	47.943	0	1535.50	0	2.4330	0	34.5230	0	27.563	0	1517.035	0	27.4	4	8.3	4	-1E+10	1	-1E+10	1	-1E+10	1	-1E+10	1	-1E+10	1	-1E+10	1
4902663	30	C	05/27/2024	08:15	-127.886	47.943	0	1545.30	0	2.4160	0	34.5240	0	27.565	0	1526.682	0	28.1	4	8.5	4	-1E+10	1	-1E+10	1	-1E+10	1	-1E+10	1	-1E+10	1	-1E+10	1
4902663	30	C	05/27/2024	08:15	-127.886	47.943	0	1555.10	0	2.3890	0	34.5270	0	27.570	0	1536.329	0	28.7	4	8.7	4	-1E+10	1	-1E+10	1	-1E+10	1	-1E+10	1	-1E+10	1	-1E+10	1
4902663	30	C	05/27/2024	08:15	-127.886	47.943	0	1565.40	0	2.3660	0	34.5290	0	27.573	0	1546.467	0	29.4	4	9.0	4	-1E+10	1	-1E+10	1	-1E+10	1	-1E+10	1	-1E+10	1	-1E+10	1
4902663	30	C	05/27/2024	08:15	-127.886	47.943	0	1575.60	0	2.3390	0	34.5300	0	27.576	0	1556.506	0	30.0	4	9.1	4	-1E+10	1	-1E+10	1	-1E+10	1	-1E+10	1	-1E+10	1	-1E+10	1
4902663	30	C	05/27/2024	08:15	-127.886	47.943	0	1585.70	0	2.3240	0	34.5320	0	27.579	0	1566.446	0	30.8	4	9.3	4	-1E+10	1	-1E+10	1	-1E+10	1	-1E+10	1	-1E+10	1	-1E+10	1
4902663	30	C	05/27/2024	08:15	-127.886	47.943	0	1595.70	0	2.3090	0	34.5340	0	27.582	0	1576.287	0	31.4	4	9.5	4	-1E+10	1	-1E+10	1	-1E+10	1	-1E+10	1	-1E+10	1	-1E+10	1
4902663	30	C	05/27/2024	08:15	-127.886	47.943	0	1605.60	0	2.2990	0	34.5360	0	27.585	0	1586.030	0	31.9	4	9.7	4	-1E+10	1	-1E+10	1	-1E+10	1	-1E+10	1	-1E+10	1	-1E+10	1
4902663	30	C	05/27/2024	08:15	-127.886	47.943	0	1615.70	0	2.2920	0	34.5380	0	27.587	0	1595.969	0	32.5	4	9.9	4	-1E+10	1	-1E+10	1	-1E+10	1	-1E+10	1	-1E+10	1	-1E+10	1
4902663	30	C	05/27/2024	08:15	-127.886	47.943	0	1625.70	0	2.2740	0	34.5400	0	27.590	0	1605.809	0	33.4	4	10.1	4	-1E+10	1	-1E+10	1	-1E+10	1	-1E+10	1	-1E+10	1	-1E+10	1
4902663	30	C	05/27/2024	08:15	-127.886	47.943	0	1635.80	0	2.2640	0	34.5430	0	27.593	0	1615.747	0	34.0	4	10.3	4	-1E+10	1	-1E+10	1	-1E+10	1	-1E+10	1	-1E+10	1	-1E+10	1
4902663	30	C	05/27/2024	08:15	-127.886	47.943	0	1645.40	0	2.2550	0	34.5450	0	27.596	0	1625.192	0	34.6	4	10.5	4	-1E+10	1	-1E+10	1	-1E+10	1	-1E+10	1	-1E+10	1	-1E+10	1
4902663	30	C	05/27/2024	08:15	-127.886	47.943	0	1655.50	0	2.2400	0	34.5470	0	27.599	0	1635.129	0	35.4	4	10.7	4	-1E+10	1	-1E+10	1	-1E+10	1	-1E+10	1	-1E+10	1	-1E+10	1
4902663	30	C	05/27/2024	08:15	-127.886	47.943	0	1665.60	0	2.2240	0	34.5490	0	27.601	0	1645.066	0	36.1	4	10.9	4	-1E+10	1	-1E+10	1	-1E+10	1	-1E+10	1	-1E+10	1	-1E+10	1
4902663	30	C	05/27/2024	08:15	-127.886	47.943	0	1675.30	0	2.2100	0	34.5510	0	27.604	0	1654.608	0	36.7	4	11.1	4	-1E+10	1	-1E+10	1	-1E+10	1	-1E+10	1	-1E+10	1	-1E+10	1
4902663	30	C	05/27/2024	08:15	-127.886	47.943	0	1685.30	0	2.1980	0	34.5520	0	27.606	0	1664.446	0	37.3	4	11.3	4	-1E+10	1	-1E+10	1	-1E+10	1	-1E+10	1	-1E+10	1	-1E+10	1
4902663	30	C	05/27/2024	08:15	-127.886	47.943	0	1695.60	0	2.1860	0	34.5540	0	27.609	0	1674.577	0	37.9	4	11.5	4	-1E+10	1	-1E+10	1	-1E+10	1	-1E+10	1	-1E+10	1	-1E+10	1
4902663	30	C	05/27/2024	08:15	-127.886	47.943	0	1705.70	0	2.1740	0	34.5550	0	27.610	0	1684.512	0	38.6	4	11.7	4	-1E+10	1	-1E+10	1	-1E+10	1	-1E+10	1	-1E+10	1	-1E+10	1
4902663	30	C	05/27/2024	08:15	-127.886	47.943	0	1715.70	0	2.1600	0	34.5570	0	27.613	0	1694.348	0	39.4	4	11.9	4	-1E+10	1	-1E+10	1	-1E+10	1	-1E+10	1	-1E+10	1	-1E+10	1
4902663	30	C	05/27/2024	08:15	-127.886	47.943	0	1725.40	0	2.1410	0	34.5580	0	27.616	0	1703.888	0	40.1	4	12.1	4	-1E+10	1	-1E+10	1	-1E+10	1	-1E+10	1	-1E+10	1	-1E+10	1
4902663	30	C	05/27/2024	08:15	-127.886	47.943	0	1735.40	0	2.1250	0	34.5600	0	27.619	0	1713.723	0	40.7	4	12.3	4	-1E+10	1	-1E+10	1	-1E+10	1	-1E+10	1	-1E+10	1	-1E+10	1
4902663	30	C	05/27/2024	08:15	-127.886	47.943	0	1745.60	0	2.1160	0	34.5610	0	27.620	0	1723.754	0	41.3	4	12.5	4	-1E+10	1	-1E+10	1	-1E+10	1	-1E+10	1	-1E+10	1	-1E+10	1
4902663	30	C	05/27/2024	08:15	-127.886	47.943	0	1755.50	0	2.1080	0	34.5620	0	27.622	0	1733.490	0	41.9	4	12.7	4	-1E+10	1	-1E+10	1	-1E+10	1	-1E+10	1	-1E+10	1	-1E+10	1
4902663	30	C	05/27/2024	08:15	-127.886	47.943	0	1765.30	0	2.0980	0	34.5650	0	27.625	0	1743.127	0	42.5	4	12.8	4	-1E+10	1	-1E+10	1	-1E+10	1	-1E+10	1	-1E+10	1	-1E+10	1
4902663	30	C	05/27/2024	08:15	-127.886	47.943	0	1775.40	0	2.0890	0	34.5660	0	27.626	0	1753.059	0	43.2	4	13.0	4	-1E+10	1	-1E+10	1	-1E+10	1	-1E+10	1	-1E+10	1	-1E+10	1
4902663	30	C	05/27/2024	08:15	-127.886	47.943	0	1785.20	0	2.0770	0	34.5680	0	27.629	0	1762.694	0	43.7	4	13.2	4	-1E+10	1	-1E+10	1	-1E+10	1	-1E+10	1	-1E+10	1	-1E+10	1
4902663	30	C	05/27/2024	08:15	-127.886	47.943	0	1795.10	0	2.0710	0	34.5690	0	27.630	0	1772.428	0	44.3	4	13.4	4	-1E+10	1	-1E+10	1	-1E+10	1	-1E+10	1	-1E+10	1	-1E+10	1
4902663	30	C	05/27/2024	08:15	-127.886	47.943	0	1805.10	0	2.0600	0	34.5700	0	27.632	0	1782.260	0	44.9	4	13.6	4	-1E+10	1	-1E+10	1	-1E+10	1	-1E+10	1	-1E+10	1	-1E+10	1
4902663	30	C	05/27/2024	08:15	-127.886	47.943	0	1815.30	0	2.0520	0	34.5720	0	27.634	0	1792.288	0	45.4	4	13.7	4	-1E+10	1	-1E+10	1	-1E+10	1	-1E+10	1	-1E+10	1	-1E+10	1
4902663	30	C	05/27/2024	08:15	-127.886	47.943	0	1825.20	0	2.0470	0	34.5730	0	27.636	0	1802.021	0	45.8	4	13.8	4	-1E+10	1	-1E+10	1	-1E+10	1	-1E+10	1	-1E+10	1	-1E+10	1
4902663	30	C	05/27/2024	08:15	-127.886	47.943	0	1835.30	0	2.0400	0	34.5750	0	27.638	0	1811.949	0	46.3	4	14.0	4	-1E+10	1	-1E+10	1	-1E+10	1	-1E+10	1	-1E+10	1	-1E+10	1
4902663	30	C	05/27/2024	08:15	-127.886	47.943	0	1845.60	0	2.0340	0	34.5760	0	27.639	0	1822.074	0	46.9	4	14.2	4	-1E+10	1	-1E+10	1	-1E+10	1	-1E+10	1	-1E+10	1	-1E+10	1
4902663	30	C	05/27/2024	08:15	-127.886	47.943	0	1855.30	0	2.0220	0	34.5770	0	27.641	0	1831.609	0	47.7	4	14.4	4	-1E+10	1	-1E+10	1	-1E+10	1	-1E+10	1	-1E+10	1	-1E+10	1
4902663	30	C	05/27/2024	08:15	-127.886	47.943	0	1865.40	0	2.0120	0	34.5790	0	27.643	0	1841.536	0	48.5	4	14.6	4	-1E+10	1	-1E+10	1	-1E+10	1	-1E+10	1	-1E+10	1	-1E+10	1
4902663	30	C	05/27/2024	08:15	-127.886	47.943	0	1875.70	0	2.0000	0	34.5810	0	27.646	0	1851.660	0	49.2	4	14.8	4	-1E+10	1	-1E+10	1	-1E+10	1	-1E+10	1	-1E+10	1	-1E+10	1
4902663	30	C	05/27/2024	08:15	-127.886	47.943	0	1885.50	0	1.9920	0	34.5820	0	27.647	0	1861.291	0	49.8	4	15.0	4	-1E+10	1	-1E+10	1	-1E+10	1	-1E+10	1	-1E+10	1	-1E+10	1
4902663	30	C	05/27/2024	08:15	-127.886	47.943	0	1895.40	0	1.9840	0	34.5840	0	27.650	0	1871.021	0	50.4	4	15.2	4	-1E+10	1	-1E+10	1	-1E+10	1	-1E+10	1	-1E+10	1	-1E+10	1
4902663	30	C	05/27/2024	08:15	-127.886	47.943	0	1905.20	0	1.9750	0	34.5850	0	27.651	0	1880.651	0	51.0	4	15.4	4	-1E+10	1	-1E+10	1	-1E+10	1	-1E+10	1	-1E+10	1	-1E+10	1
4902663	30	C	05/27/2024	08:15	-127.886	47.943	0	1915.10	0	1.9690	0	34.5860	0	27.652	0	1890.380	0	51.5	4	15.5	4	-1E+10	1	-1E+10	1	-1E+10	1	-1E+10	1	-1E+10	1	-1E+10	1
4902663	30	C	05/27/2024	08:15	-127.886	47.943	0	1925.30	0	1.9610	0	34.5880	0	27.655	0	1900.403	0	52.2	4	15.7	4	-1E+10	1	-1E+10	1	-1E+10	1	-1E+10	1	-1E+10	1	-1E+10	1
4902663	30	C	05/27/2024	08:15	-127.886	47.943	0	1935.50	0	1.9530	0	34.5890	0	27.656	0	1910.425	0	52.7	4	15.9	4	-1E+10	1	-1E+10	1	-1E+10	1	-1E+10	1	-1E+10	1	-1E+10	1
4902663	30	C	05/27/2024	08:15	-127.886	47.943	0	1945.30	0	1.9480	0	34.5900	0	27.657	0	1920.054	0	53.1	4	16.0	4	-1E+10	1	-1E+10	1	-1E+10	1	-1E+10	1	-1E+10	1	-1E+10	1
4902663	30	C	05/27/2024	08:15	-127.886	47.943	0	1955.10	0	1.9430	0	34.5910	0	27.659	0	1929.682	0	53.5	4	16.1	4	-1E+10	1	-1E+10	1	-1E+10	1	-1E+10	1	-1E+10	1	-1E+10	1
4902663	30	C	05/27/2024	08:15	-127.886	47.943	0	1965.40	0	1.9370	0	34.5920	0	27.660	0	1939.801	0	54.0	4	16.2	4	-1E+10	1	-1E+10	1	-1E+10	1	-1E+10	1	-1E+10	1	-1E+10	1
4902663	30	C	05/27/2024	08:15	-127.886	47.943	0	1975.80	0	1.9300	0	34.5940	0	27.662	0	1950.018	0	54.5	4	16.4	4	-1E+10	1	-1E+10	1	-1E+10	1	-1E+10	1	-1E+10	1	-1E+10	1
4902663	30	C	05/27/2024	08:15	-127.886	47.943	0	1985.60	0	1.9210	0	34.5950	0	27.664	0	1959.645	0	55.0	4	16.5	4	-1E+10	1	-1E+10	1	-1E+10	1	-1E+10	1	-1E+10	1	-1E+10	1
4902663	30	C	05/27/2024	08:15	-127.886	47.943	0	1993.50	0	1.9170	0	34.5960	0	27.665	0	1967.406	0	54.9	4	16.5	4	-1E+10	1	-1E+10	1	-1E+10	1	-1E+10	1	-1E+10	1	-1E+10	1
4902663	30	C	05/27/2024	08:15	-127.886	47.943	0																										
4902663	31	C	06/06/2024	03:13	-127.946	47.904	0	0.20	0	12.5110	8	32.1030	8	24.244	0	0.198	0	264.4	4	99.4	4	-1E+10	1	-1E+10	1	-1E+10	1	-1E+10	1	-1E+10	1	-1E+10	1
4902663	31	C	06/06/2024	03:13	-127.946	47.904	0	1.00	0	12.5150	8	32.0650	8	24.214	0	0.992	0	264.5	4	99.5	4	-1E+10	1	-1E+10	1	-1E+10	1	-1E+10	1	-1E+10	1	-1E+10	1
4902663	31	C	06/06/2024	03:13	-127.946	47.904	0	1.90	0	12.5150	0	32.0450	0	24.199	0	1.884	0	264.5	4	99.5	4	-1E+10	1	-1E+10	1	-1E+10	1	-1E+10	1	-1E+10	1	-1E+10	1
4902663	31	C	06/06/2024	03:13	-127.946	47.904	0	2.80	0	12.4860	0	32.0270	0	24.190	0	2.777	0	264.6	4	99.4	4	-1E+10	1	-1E+10	1	-1E+10	1	-1E+10	1	-1E+10	1	-1E+10	1
4902663	31	C	06/06/2024	03:13	-127.946	47.904	0	3.90	0	12.3700	0	32.1410	0	24.301	0	3.867	0	264.8	4	99.3	4	-1E+10	1	-1E+10	1	-1E+10	1	-1E+10	1	-1E+10	1	-1E+10	1
4902663	31	C	06/06/2024	03:13	-127.946	47.904	0	4.70	0	12.2740	0	32.2060	0	24.369	0	4.661	0	265.2	4	99.3	4	-1E+10	1	-1E+10	1	-1E+10	1	-1E+10	1	-1E+10	1	-1E+10	1
4902663	31	C	06/06/2024	03:13	-127.946	47.904	0	5.90	0	12.1850	0	32.1960	0	24.378	0	5.850	0	265.5	4	99.3	4	-1E+10	1	-1E+10	1	-1E+10	1	-1E+10	1	-1E+10	1	-1E+10	1
4902663	31	C	06/06/2024	03:13	-127.946	47.904	0	7.20	0	12.1100	0	32.1990	0	24.395	0	7.140	0	265.9	4	99.3	4	-1E+10	1	-1E+10	1	-1E+10	1	-1E+10	1	-1E+10	1	-1E+10	1
4902663	31	C	06/06/2024	03:13	-127.946	47.904	0	8.10	0	12.0420	0	32.1980	0	24.407	0	8.032	0	266.1	4	99.2	4	-1E+10	1	-1E+10	1	-1E+10	1	-1E+10	1	-1E+10	1	-1E+10	1
4902663	31	C	06/06/2024	03:13	-127.946	47.904	0	9.00	0	11.9890	0	32.2030	0	24.420	0	8.924	0	266.6	4	99.3	4	-1E+10	1	-1E+10	1	-1E+10	1	-1E+10	1	-1E+10	1	-1E+10	1
4902663	31	C	06/06/2024	03:13	-127.946	47.904	0	9.90	0	11.9140	0	32.2050	0	24.436	0	9.817	0	266.5	4	99.1	4	-1E+10	1	-1E+10	1	-1E+10	1	-1E+10	1	-1E+10	1	-1E+10	1
4902663	31	C	06/06/2024	03:13	-127.946	47.904	0	10.80	0	11.9030	0	32.2050	0	24.438	0	10.709	0	266.7	4	99.1	4	-1E+10	1	-1E+10	1	-1E+10	1	-1E+10	1	-1E+10	1	-1E+10	1
4902663	31	C	06/06/2024	03:13	-127.946	47.904	0	11.80	0	11.8940	0	32.2040	0	24.439	0	11.701	0	266.6	4	99.1	4	-1E+10	1	-1E+10	1	-1E+10	1	-1E+10	1	-1E+10	1	-1E+10	1
4902663	31	C	06/06/2024	03:13	-127.946	47.904	0	12.70	0	11.8890	0	32.2050	0	24.440	0	12.593	0	266.4	4	99.0	4	-1E+10	1	-1E+10	1	-1E+10	1	-1E+10	1	-1E+10	1	-1E+10	1
4902663	31	C	06/06/2024	03:13	-127.946	47.904	0	13.70	0	11.8760	0	32.2050	0	24.443	0	13.585	0	266.4	4	98.9	4	-1E+10	1	-1E+10	1	-1E+10	1	-1E+10	1	-1E+10	1	-1E+10	1
4902663	31	C	06/06/2024	03:13	-127.946	47.904	0	14.80	0	11.8710	0	32.2050	0	24.444	0	14.675	0	266.3	4	98.9	4	-1E+10	1	-1E+10	1	-1E+10	1	-1E+10	1	-1E+10	1	-1E+10	1
4902663	31	C	06/06/2024	03:13	-127.946	47.904	0	15.80	0	11.8640	0	32.2050	0	24.445	0	15.667	0	266.3	4	98.9	4	-1E+10	1	-1E+10	1	-1E+10	1	-1E+10	1	-1E+10	1	-1E+10	1
4902663	31	C	06/06/2024	03:13	-127.946	47.904	0	16.80	0	11.8620	0	32.2050	0	24.446	0	16.658	0	266.2	4	98.9	4	-1E+10	1	-1E+10	1	-1E+10	1	-1E+10	1	-1E+10	1	-1E+10	1
4902663	31	C	06/06/2024	03:13	-127.946	47.904	0	17.90	0	11.8570	0	32.2050	0	24.446	0	17.749	0	266.2	4	98.8	4	-1E+10	1	-1E+10	1	-1E+10	1	-1E+10	1	-1E+10	1	-1E+10	1
4902663	31	C	06/06/2024	03:13	-127.946	47.904	0	18.90	0	11.8520	0	32.2050	0	24.447	0	18.741	0	266.1	4	98.8	4	-1E+10	1	-1E+10	1	-1E+10	1	-1E+10	1	-1E+10	1	-1E+10	1
4902663	31	C	06/06/2024	03:13	-127.946	47.904	0	19.90	0	11.8500	0	32.2040	0	24.447	0	19.732	0	266.0	4	98.8	4	-1E+10	1	-1E+10	1	-1E+10	1	-1E+10	1	-1E+10	1	-1E+10	1
4902663	31	C	06/06/2024	03:13	-127.946	47.904	0	21.00	0	11.8450	0	32.2050	0	24.449	0	20.823	0	266.0	4	98.7	4	-1E+10	1	-1E+10	1	-1E+10	1	-1E+10	1	-1E+10	1	-1E+10	1
4902663	31	C	06/06/2024	03:13	-127.946	47.904	0	22.00	0	11.8420	0	32.2050	0	24.449	0	21.814	0	266.0	4	98.7	4	-1E+10	1	-1E+10	1	-1E+10	1	-1E+10	1	-1E+10	1	-1E+10	1
4902663	31	C	06/06/2024	03:13	-127.946	47.904	0	23.00	0	11.8400	0	32.2050	0	24.450	0	22.806	0	265.9	4	98.7	4	-1E+10	1	-1E+10	1	-1E+10	1	-1E+10	1	-1E+10	1	-1E+10	1
4902663	31	C	06/06/2024	03:13	-127.946	47.904	0	24.10	0	11.8350	0	32.2050	0	24.451	0	23.897	0	265.8	4	98.7	4	-1E+10	1	-1E+10	1	-1E+10	1	-1E+10	1	-1E+10	1	-1E+10	1
4902663	31	C	06/06/2024	03:13	-127.946	47.904	0	25.10	0	11.8280	0	32.2060	0	24.453	0	24.888	0	265.8	4	98.6	4	-1E+10	1	-1E+10	1	-1E+10	1	-1E+10	1	-1E+10	1	-1E+10	1
4902663	31	C	06/06/2024	03:13	-127.946	47.904	0	26.20	0	11.8200	0	32.2060	0	24.454	0	25.979	0	265.7	4	98.6	4	-1E+10	1	-1E+10	1	-1E+10	1	-1E+10	1	-1E+10	1	-1E+10	1
4902663	31	C	06/06/2024	03:13	-127.946	47.904	0	27.20	0	11.8190	0	32.2060	0	24.454	0	26.970	0	265.6	4	98.5	4	-1E+10	1	-1E+10	1	-1E+10	1	-1E+10	1	-1E+10	1	-1E+10	1
4902663	31	C	06/06/2024	03:13	-127.946	47.904	0	28.30	0	11.8170	0	32.2060	0	24.455	0	28.061	0	265.5	4	98.5	4	-1E+10	1	-1E+10	1	-1E+10	1	-1E+10	1	-1E+10	1	-1E+10	1
4902663	31	C	06/06/2024	03:13	-127.946	47.904	0	29.30	0	11.8170	0	32.2060	0	24.455	0	29.052	0	265.5	4	98.5	4	-1E+10	1	-1E+10	1	-1E+10	1	-1E+10	1	-1E+10	1	-1E+10	1
4902663	31	C	06/06/2024	03:13	-127.946	47.904	0	30.30	0	11.8170	0	32.2060	0	24.455	0	30.044	0	265.3	4	98.4	4	-1E+10	1	-1E+10	1	-1E+10	1	-1E+10	1	-1E+10	1	-1E+10	1
4902663	31	C	06/06/2024	03:13	-127.946	47.904	0	31.10	0	11.8170	0	32.2050	0	24.454	0	30.837	0	265.1	4	98.3	4	-1E+10	1	-1E+10	1	-1E+10	1	-1E+10	1	-1E+10	1	-1E+10	1
4902663	31	C	06/06/2024	03:13	-127.946	47.904	0	32.10	0	11.8110	0	32.2050	0	24.455	0	31.828	0	265.4	4	98.5	4	-1E+10	1	-1E+10	1	-1E+10	1	-1E+10	1	-1E+10	1	-1E+10	1
4902663	31	C	06/06/2024	03:13	-127.946	47.904	0	33.00	0	11.7850	0	32.2050	0	24.460	0	32.721	0	265.6	4	98.5	4	-1E+10	1	-1E+10	1	-1E+10	1	-1E+10	1	-1E+10	1	-1E+10	1
4902663	31	C	06/06/2024	03:13	-127.946	47.904	0	33.90	0	11.7350	0	32.2120	0	24.475	0	33.613	0	265.8	4	98.5	4	-1E+10	1	-1E+10	1	-1E+10	1	-1E+10	1	-1E+10	1	-1E+10	1
4902663	31	C	06/06/2024	03:13	-127.946	47.904	0	34.90	0	11.6990	0	32.2120	0	24.481	0	34.605	0	266.1	4	98.5	4	-1E+10	1	-1E+10	1	-1E+10	1	-1E+10	1	-1E+10	1	-1E+10	1
4902663	31	C	06/06/2024	03:13	-127.946	47.904	0	36.10	0	11.6540	0	32.2150	0	24.492	0	35.794	0	266.6	4	98.6	4	-1E+10	1	-1E+10	1	-1E+10	1	-1E+10	1	-1E+10	1	-1E+10	1
4902663	31	C	06/06/2024	03:13	-127.946	47.904	0	37.10	0	11.5880	0	32.2220	0	24.509	0	36.786	0	267.0	4	98.6	4	-1E+10	1	-1E+10	1	-1E+10	1	-1E+10	1	-1E+10	1	-1E+10	1
4902663	31	C	06/06/2024	03:13	-127.946	47.904	0	37.80	0	11.5310	0	32.2240	0	24.521	0	37.480	0	267.3	4	98.6	4	-1E+10	1	-1E+10	1	-1E+10	1	-1E+10	1	-1E+10	1	-1E+10	1
4902663	31	C	06/06/2024	03:13	-127.946	47.904	0	38.80	0	11.3010	0	32.2420	0	24.577	0	38.471	0	268.4	4	98.5	4	-1E+10	1	-1E+10	1	-1E+10	1	-1E+10	1	-1E+10	1	-1E+10	1
4902663	31	C	06/06/2024	03:13	-127.946	47.904	0	39.90	0	11.0750	0	32.2610	0	24.631	0	39.562	0	268.7	4	98.2	4	-1E+10	1	-1E+10	1	-1E+10	1	-1E+10	1	-1E+10	1	-1E+10	1
4902663	31	C	06/06/2024	03:13	-127.946	47.904	0	41.00	0	10.8650	0	32.2830	0	24.685	0	40.652	0	269.6	4	98.1	4	-1E+10	1	-1E+10	1	-1E+10	1	-1E+10	1	-1E+10	1	-1E+10	1
4902663	31	C	06/06/2024	03:13	-127.946	47.904	0	42.10	0	10.7250	0	32.2830	0	24.710	0	41.743	0	269.8	4	97.9	4	-1E+10	1	-1E+10	1	-1E+10	1	-1E+10	1	-1E+10	1	-1E+10	1
4902663	31	C	06/06/2024	03:13	-127.946	47.904	0	42.90	0	10.4490	0	32.3130	0	24.780	0	42.536	0	269.8	4	97.3	4	-1E+10	1	-1E+10	1	-1E+10	1	-1E+10	1	-1E+10	1	-1E+10	1
4902663	31	C	06/06/2024	03:13	-127.946	47.904	0	43.70	0	10.3350	0	32.3140	0	24.800	0	43.329	0	269.7	4	97.0	4	-1E+10	1	-1E+10	1	-1E+10	1	-1E+10	1	-1E+10	1	-1E+10	1
4902663	31	C	06/06/2024	03:13	-127.946	47.904	0	44.60	0	10.1790	0	32.3280	0	24.838	0	44.221	0	269.6	4	96.7	4	-1E+10	1	-1E+10	1	-1E+10	1	-1E+10	1	-1E+10	1	-1E+10	1
4902663	31	C	06/06/2024	03:13	-127.946	47.904	0	45.90	0	10.0210	0	32.3300	0	24.865	0	45.510	0	269.3	4	96.3	4	-1E+10	1	-1E+10	1	-1E+10	1	-1E+10	1	-1E+10	1	-1E+10	1
4902663	31	C	06/06/2024	03:13	-127.946	47.904	0	47.20	0	9.9490	0	32.3270	0	24.875	0	46.799	0	269.1	4	96.0	4	-1E+10	1	-1E+10	1	-1E+10	1	-1E+10	1	-1E+10	1	-1E+10	1
4902663	31	C	06/06/2024	03:13	-127.946	47.904	0	48.10	0	9.8750	0	32.3300	0	24.890	0	47.691	0	268.9	4	95.8	4	-1E+10	1	-1E+10	1	-1E+10	1	-1E+10	1	-1E+10	1	-1E+10	1
4902663	31	C	06/06/2024	03:13	-127.946	47.904	0	49.00	0	9.7880	0	32.3330	0	24.906	0	48.583	0	268.8	4	95.6	4	-1E+10	1	-1E+10	1	-1E+10	1	-1E+10	1	-1E+10	1	-1E+10	1
4902663	31	C	06/06/2024	03:13	-127.946	47.904	0	49.90	0	9.7750	0	32.3350	0	24.910	0	49.476	0	268.5	4	95.5	4	-1E+10	1	-1E+10	1	-1E+10	1	-1E+10	1	-1E+10	1	-1E+10	1
4902663	31	C	06/06/2024	03:13	-127.946	47.904	0	50.80	0	9.7070	0	32.3350	0	24.921	0	50.368	0	268.4	4	95.3	4	-1E+10	1	-1E+10	1	-1E+10	1	-1E+10	1	-1E+10	1	-1E+10	1
4902663	31	C	06/06/2024	03:13	-127.946	47.904	0	51.80	0	9.6820	0	32.3360	0	24.926	0	51.359	0	268.0	4	95.1	4	-1E+10	1	-1E+10	1	-1E+10	1	-1E+10	1	-1E+10	1	-1E+10	1
4902663	31	C	06/06/2024	03:13	-127.946	47.904	0	52.70	0	9.6740	0	32.3330	0	24.925	0	52.252	0	267.7	4	95.0	4	-1E+10	1	-1E+10	1	-1E+10	1	-1E+10	1	-1E+10	1	-1E+10	1
4902663	31	C	06/06/2024	03:13	-127.946	47.904	0	53.60	0	9.6180	0	32.3360	0	24.936	0	53.144	0	267.6	4	94.8	4	-1E+10	1	-1E+10	1	-1E+10	1	-1E+10	1	-1E+10	1	-1E+10	1
4902663	31	C	06/06/2024	03:13	-127.946	47.904	0	54.90	0	9.5750	0	32.3380	0	24.945	0	54.433	0	267.1	4	94.5	4	-1E+10	1	-1E+10	1	-1E+10	1	-1E+10	1	-1E+10	1	-1E+10	1
4902663	31	C	06/06/2024	03:13	-127.946	47.904	0	56.30	0	9.5070	0	32.3400	0	24.957	0	55.820	0	266.7	4	94.3	4	-1E+10	1	-1E+10	1	-1E+10	1	-1E+10	1	-1E+10	1	-1E+10	1
4902663	31	C	06/06/2024	03:13	-127.946	47.904	0	57.30	0	9.4780	0	32.3420	0	24.963	0	56.812	0	266.4	4	94.1	4	-1E+10	1	-1E+10	1	-1E+10	1	-1E+10	1	-1E+10	1	-1E+10	1
4902663	31	C	06/06/2024	03:13	-127.946	47.904	0	58.20	0	9.4620	0	32.3410	0	24.965	0	57.704	0	266.1	4	94.0	4	-1E+10	1	-1E+10	1	-1E+10	1	-1E+10	1	-1E+10	1	-1E+10	1
4902663	31	C	06/06/2024	03:13	-127.946	47.904	0	59.10	0	9.4550	0	32.3400	0	24.966	0	58.596	0	265.6	4	93.8	4	-1E+10	1	-1E+10	1	-1E+10	1	-1E+10	1	-1E+10	1	-1E+10	1
4902663	31	C	06/06/2024	03:13	-127.946	47.904	0	60.00	0	9.4080	0	32.3450	0	24.977	0	59.488	0	265.3	4	93.6	4	-1E+10	1	-1E+10	1	-1E+10	1	-1E+10	1	-1E+10	1	-1E+10	1
4902663	31	C	06/06/2024	03:13	-127.946	47.904	0	60.90	0	9.3710	0	32.3460	0	24.984	0	60.381	0	264.8	4	93.3	4	-1E+10	1	-1E+10	1	-1E+10	1	-1E+10	1	-1E+10	1	-1E+10	1
4902663	31	C	06/06/2024	03:13	-127.946	47.904	0	61.80	0	9.3110	0	32.3520	0	24.998	0	61.273	0	264.6	4	93.1	4	-1E+10	1	-1E+10	1	-1E+10	1	-1E+10	1	-1E+10	1	-1E+10	1
4902663	31	C	06/06/2024	03:13	-127.946	47.904	0	62.70	0	9.2330	0	32.3550	0	25.013	0	62.165	0	264.6	4	93.0	4	-1E+10	1	-1E+10	1	-1E+10	1	-1E+10	1	-1E+10	1	-1E+10	1
4902663	31	C	06/06/2024	03:13	-127.946	47.904	0	63.60	0	9.1700	0	32.3590	0	25.026	0	63.057	0	264.5	4	92.8	4	-1E+10	1	-1E+10	1	-1E+10	1	-1E+10	1	-1E+10	1	-1E+10	1
4902663	31	C	06/06/2024	03:13	-127.946	47.904	0	64.90	0	9.1080	0	32.3620	0	25.038	0	64.346	0	264.3	4	92.6	4	-1E+10	1	-1E+10	1	-1E+10	1	-1E+10	1	-1E+10	1	-1E+10	1
4902663	31	C	06/06/2024	03:13	-127.946	47.904	0	66.20	0	9.0260	0	32.3650	0	25.053	0	65.635	0	264.0	4	92.3	4	-1E+10	1	-1E+10	1	-1E+10	1	-1E+10	1	-1E+10	1	-1E+10	1
4902663	31	C	06/06/2024	03:13	-127.946	47.904	0	67.10	0	8.9200	0	32.3750	0	25.077	0	66.527	0	263.5	4	92.0	4	-1E+10	1	-1E+10	1	-1E+10	1	-1E+10	1	-1E+10	1	-1E+10	1
4902663	31	C	06/06/2024	03:13	-127.946	47.904	0	68.00	0	8.9110	0	32.3700	0	25.074	0	67.419	0	262.5	4	91.6	4	-1E+10	1	-1E+10	1	-1E+10	1	-1E+10	1	-1E+10	1	-1E+10	1
4902663	31	C	06/06/2024	03:13	-127.946	47.904	0	68.80	0	8.8940	0	32.3680	0	25.075	0	68.212	0	261.2	4	91.1	4	-1E+10	1	-1E+10	1	-1E+10	1	-1E+10	1	-1E+10	1	-1E+10	1
4902663	31	C	06/06/2024	03:13	-127.946	47.904	0	69.90	0	8.8550	0	32.3710	0	25.084	0	69.302	0	258.4	4	90.1	4	-1E+10	1	-1E+10	1	-1E+10	1	-1E+10	1	-1E+10	1	-1E+10	1
4902663	31	C	06/06/2024	03:13	-127.946	47.904	0	71.10	0	8.8220	0	32.3760	0	25.093	0	70.492	0	255.6	4	89.0	4	-1E+10	1	-1E+10	1	-1E+10	1	-1E+10	1	-1E+10	1	-1E+10	1
4902663	31	C	06/06/2024	03:13	-127.946	47.904	0	71.80	0	8.7650	0	32.3870	0	25.110	0	71.186	0	253.5	4	88.2	4	-1E+10	1	-1E+10	1	-1E+10	1	-1E+10	1	-1E+10	1	-1E+10	1
4902663	31	C	06/06/2024	03:13	-127.946	47.904	0	72.90	0	8.7280	0	32.3930	0	25.120	0	72.276	0	250.0	4	86.9	4	-1E+10	1	-1E+10	1	-1E+10	1	-1E+10	1	-1E+10	1	-1E+10	1
4902663	31	C	06/06/2024	03:13	-127.946	47.904	0	74.00	0	8.7220	0	32.3980	0	25.125	0	73.367	0	245.8	4	85.4	4	-1E+10	1	-1E+10	1	-1E+10	1	-1E+10	1	-1E+10	1	-1E+10	1
4902663	31	C	06/06/2024	03:13	-127.946	47.904	0	74.90	0	8.7040	0	32.4150	0	25.141	0	74.259	0	242.1	4	84.1	4	-1E+10	1	-1E+10	1	-1E+10	1	-1E+10	1	-1E+10	1	-1E+10	1
4902663	31	C	06/06/2024	03:13	-127.946	47.904	0	75.80	0	8.6950	0	32.4200	0	25.147	0	75.151	0	237.8	4	82.6	4	-1E+10	1	-1E+10	1	-1E+10	1	-1E+10	1	-1E+10	1	-1E+10	1
4902663	31	C	06/06/2024	03:13	-127.946	47.904	0	76.80	0	8.6930	0	32.4200	0	25.147	0	76.142	0	233.2	4	81.0	4	-1E+10	1	-1E+10	1	-1E+10	1	-1E+10	1	-1E+10	1	-1E+10	1
4902663	31	C	06/06/2024	03:13	-127.946	47.904	0	77.80	0	8.6350	0	32.4630	0	25.189	0	77.133	0	228.9	4	79.4	4	-1E+10	1	-1E+10	1	-1E+10	1	-1E+10	1	-1E+10	1	-1E+10	1
4902663	31	C	06/06/2024	03:13	-127.946	47.904	0	78.90	0	8.5650	0	32.5050	0	25.233	0	78.224	0	225.6	4	78.2	4	-1E+10	1	-1E+10	1	-1E+10	1	-1E+10	1	-1E+10	1	-1E+10	1
4902663	31	C	06/06/2024	03:13	-127.946	47.904	0	80.00	0	8.4940	0	32.5290	0	25.262	0	79.314	0	221.6	4	76.7	4	-1E+10	1	-1E+10	1	-1E+10	1	-1E+10	1	-1E+10	1	-1E+10	1
4902663	31	C	06/06/2024	03:13	-127.946	47.904	0	81.20	0	8.4310	0	32.5870	0	25.317	0	80.503	0	217.8	4	75.3	4	-1E+10	1	-1E+10	1	-1E+10	1	-1E+10	1	-1E+10	1	-1E+10	1
4902663	31	C	06/06/2024	03:13	-127.946	47.904	0	82.00	0	8.4000	0	32.6080	0	25.338	0	81.296	0	215.6	4	74.5	4	-1E+10	1	-1E+10	1	-1E+10	1	-1E+10	1	-1E+10	1	-1E+10	1
4902663	31	C	06/06/2024	03:13	-127.946	47.904	0	82.80	0	8.3800	0	32.6210	0	25.352	0	82.089	0	218.9	4	75.6	4	-1E+10	1	-1E+10	1	-1E+10	1	-1E+10	1	-1E+10	1	-1E+10	1
4902663	31	C	06/06/2024	03:13	-127.946	47.904	0	83.70	0	8.3530	0	32.6390	0	25.370	0	82.982	0	216.2	4	74.6	4	-1E+10	1	-1E+10	1	-1E+10	1	-1E+10	1	-1E+10	1	-1E+10	1
4902663	31	C	06/06/2024	03:13	-127.946	47.904	0	84.90	0	8.3230	0	32.6540	0	25.386	0	84.171	0	211.9	4	73.1	4	-1E+10	1	-1E+10	1	-1E+10	1	-1E+10	1	-1E+10	1	-1E+10	1
4902663	31	C	06/06/2024	03:13	-127.946	47.904	0	86.30	0	8.2590	0	32.7250	0	25.451	0	85.559	0	208.0	4	71.7	4	-1E+10	1	-1E+10	1	-1E+10	1	-1E+10	1	-1E+10	1	-1E+10	1
4902663	31	C	06/06/2024	03:13	-127.946	47.904	0	87.20	0	8.2280	0	32.7560	0	25.480	0	86.451	0	205.8	4	70.9	4	-1E+10	1	-1E+10	1	-1E+10	1	-1E+10	1	-1E+10	1	-1E+10	1
4902663	31	C	06/06/2024	03:13	-127.946	47.904	0	88.10	0	8.2200	0	32.7710	0	25.493	0	87.343	0	203.4	4	70.1	4	-1E+10	1	-1E+10	1	-1E+10	1	-1E+10	1	-1E+10	1	-1E+10	1
4902663	31	C	06/06/2024	03:13	-127.946	47.904	0	89.00	0	8.1970	0	32.8130	0	25.529	0	88.235	0	200.9	4	69.2	4	-1E+10	1	-1E+10	1	-1E+10	1	-1E+10	1	-1E+10	1	-1E+10	1
4902663	31	C	06/06/2024	03:13	-127.946	47.904	0	89.90	0	8.1430	0	32.8560	0	25.571	0	89.127	0	198.9	4	68.5	4	-1E+10	1	-1E+10	1	-1E+10	1	-1E+10	1	-1E+10	1	-1E+10	1
4902663	31	C	06/06/2024	03:13	-127.946	47.904	0	90.90	0	8.1280	0	32.8590	0	25.576	0	90.118	0	196.7	4	67.7	4	-1E+10	1	-1E+10	1	-1E+10	1	-1E+10	1	-1E+10	1	-1E+10	1
4902663	31	C	06/06/2024	03:13	-127.946	47.904	0	91.90	0	8.0830	0	32.8880	0	25.605	0	91.109	0	194.1	4	66.8	4	-1E+10	1	-1E+10	1	-1E+10	1	-1E+10	1	-1E+10	1	-1E+10	1
4902663	31	C	06/06/2024	03:13	-127.946	47.904	0	92.90	0	8.0460	0	32.9050	0	25.624	0	92.101	0	192.3	4	66.1	4	-1E+10	1	-1E+10	1	-1E+10	1	-1E+10	1	-1E+10	1	-1E+10	1
4902663	31	C	06/06/2024	03:13	-127.946	47.904	0	94.00	0	8.0220	0	32.9470	0	25.660	0	93.191	0	190.7	4	65.5	4	-1E+10	1	-1E+10	1	-1E+10	1	-1E+10	1	-1E+10	1	-1E+10	1
4902663	31	C	06/06/2024	03:13	-127.946	47.904	0	95.00	0	7.9810	0	32.9890	0	25.699	0	94.182	0	189.4	4	65.0	4	-1E+10	1	-1E+10	1	-1E+10	1	-1E+10	1	-1E+10	1	-1E+10	1
4902663	31	C	06/06/2024	03:13	-127.946	47.904	0	96.10	0	7.9440	0	33.0080	0	25.719	0	95.272	0	188.1	4	64.5	4	-1E+10	1	-1E+10	1	-1E+10	1	-1E+10	1	-1E+10	1	-1E+10	1
4902663	31	C	06/06/2024	03:13	-127.946	47.904	0	97.10	0	7.9470	0	33.0090	0	25.720	0	96.263	0	186.4	4	64.0	4	-1E+10	1	-1E+10	1	-1E+10	1	-1E+10	1	-1E+10	1	-1E+10	1
4902663	31	C	06/06/2024	03:13	-127.946	47.904	0	98.10	0	7.9440	0	33.0190	0	25.728	0	97.255	0	184.5	4	63.3	4	-1E+10	1	-1E+10	1	-1E+10	1	-1E+10	1	-1E+10	1	-1E+10	1
4902663	31	C	06/06/2024	03:13	-127.946	47.904	0	99.00	0	7.9130	0	33.0460	0	25.754	0	98.147	0	182.5	4	62.6	4	-1E+10	1	-1E+10	1	-1E+10	1	-1E+10	1	-1E+10	1	-1E+10	1
4902663	31	C	06/06/2024	03:13	-127.946	47.904	0	100.00	0	7.8900	0	33.0600	0	25.768	0	99.138	0	180.1	4	61.7	4	-1E+10	1	-1E+10	1	-1E+10	1	-1E+10	1	-1E+10	1	-1E+10	1
4902663	31	C	06/06/2024	03:13	-127.946	47.904	0	101.00	0	7.8070	0	33.1100	0	25.819	0	100.129	0	177.0	4	60.6	4	-1E+10	1	-1E+10	1	-1E+10	1	-1E+10	1	-1E+10	1	-1E+10	1
4902663	31	C	06/06/2024	03:13	-127.946	47.904	0	102.10	0	7.7480	0	33.1620	0	25.869	0	101.219	0	173.8	4	59.4	4	-1E+10	1	-1E+10	1	-1E+10	1	-1E+10	1	-1E+10	1	-1E+10	1
4902663	31	C	06/06/2024	03:13	-127.946	47.904	0	102.80	0	7.7160	0	33.1880	0	25.894	0	101.913	0	171.6	4	58.6	4	-1E+10	1	-1E+10	1	-1E+10	1	-1E+10	1	-1E+10	1	-1E+10	1
4902663	31	C	06/06/2024	03:13	-127.946	47.904	0	103.90	0	7.6530	0	33.2190	0	25.927	0	103.003	0	167.8	4	57.3	4	-1E+10	1	-1E+10	1	-1E+10	1	-1E+10	1	-1E+10	1	-1E+10	1
4902663	31	C	06/06/2024	03:13	-127.946	47.904	0	105.00	0	7.5870	0	33.2540	0	25.964	0	104.093	0	163.8	4	55.8	4	-1E+10	1	-1E+10	1	-1E+10	1	-1E+10	1	-1E+10	1	-1E+10	1
4902663	31	C	06/06/2024	03:13	-127.946	47.904	0	105.70	0	7.5680	0	33.2890	0	25.994	0	104.787	0	161.1	4	54.9	4	-1E+10	1	-1E+10	1	-1E+10	1	-1E+10	1	-1E+10	1	-1E+10	1
4902663	31	C	06/06/2024	03:13	-127.946	47.904	0	106.90	0	7.6000	0	33.3510	0	26.038	0	105.976	0	158.4	4	54.1	4	-1E+10	1	-1E+10	1	-1E+10	1	-1E+10	1	-1E+10	1	-1E+10	1
4902663	31	C	06/06/2024	03:13	-127.946	47.904	0	108.10	0	7.6200	0	33.4090	0	26.081	0	107.166	0	156.4	4	53.4	4	-1E+10	1	-1E+10	1	-1E+10	1	-1E+10	1	-1E+10	1	-1E+10	1
4902663	31	C	06/06/2024	03:13	-127.946	47.904	0	108.90	0	7.6210	0	33.4190	0	26.089	0	107.959	0	154.8	4	52.9	4	-1E+10	1	-1E+10	1	-1E+10	1	-1E+10	1	-1E+10	1	-1E+10	1
4902663	31	C	06/06/2024	03:13	-127.946	47.904	0	110.00	0	7.6180	0	33.4380	0	26.104	0	109.049	0	152.6	4	52.1	4	-1E+10	1	-1E+10	1	-1E+10	1	-1E+10	1	-1E+10	1	-1E+10	1
4902663	31	C	06/06/2024	03:13	-127.946	47.904	0	111.20	0	7.6060	0	33.4760	0	26.136	0	110.238	0	150.1	4	51.3	4	-1E+10	1	-1E+10	1	-1E+10	1	-1E+10	1	-1E+10	1	-1E+10	1
4902663	31	C	06/06/2024	03:13	-127.946	47.904	0	112.00	0	7.6050	0	33.4800	0	26.139	0	111.031	0	148.5	4	50.7	4	-1E+10	1	-1E+10	1	-1E+10	1	-1E+10	1	-1E+10	1	-1E+10	1
4902663	31	C	06/06/2024	03:13	-127.946	47.904	0	112.80	0	7.6000	0	33.4940	0	26.151	0	111.824	0	146.6	4	50.1	4	-1E+10	1	-1E+10	1	-1E+10	1	-1E+10	1	-1E+10	1	-1E+10	1
4902663	31	C	06/06/2024	03:13	-127.946	47.904	0	114.00	0	7.6190	0	33.5290	0	26.176	0	113.013	0	143.7	4	49.1	4	-1E+10	1	-1E+10	1	-1E+10	1	-1E+10	1	-1E+10	1	-1E+10	1
4902663	31	C	06/06/2024	03:13	-127.946	47.904	0	115.20	0	7.6180	0	33.5530	0	26.195	0	114.202	0	140.8	4	48.1	4	-1E+10	1	-1E+10	1	-1E+10	1	-1E+10	1	-1E+10	1	-1E+10	1
4902663	31	C	06/06/2024	03:13	-127.946	47.904	0	116.00	0	7.6270	0	33.5740	0	26.210	0	114.995	0	139.0	4	47.6	4	-1E+10	1	-1E+10	1	-1E+10	1	-1E+10	1	-1E+10	1	-1E+10	1
4902663	31	C	06/06/2024	03:13	-127.946	47.904	0	116.90	0	7.6070	0	33.6120	0	26.243	0	115.887	0	137.5	4	47.0	4	-1E+10	1	-1E+10	1	-1E+10	1	-1E+10	1	-1E+10	1	-1E+10	1
4902663	31	C	06/06/2024	03:13	-127.946	47.904	0	117.70	0	7.6040	0	33.6220	0	26.251	0	116.680	0	136.2	4	46.6	4	-1E+10	1	-1E+10	1	-1E+10	1	-1E+10	1	-1E+10	1	-1E+10	1
4902663	31	C	06/06/2024	03:13	-127.946	47.904	0	118.60	0	7.6210	0	33.6550	0	26.274	0	117.572	0	135.1	4	46.2	4	-1E+10	1	-1E+10	1	-1E+10	1	-1E+10	1	-1E+10	1	-1E+10	1
4902663	31	C	06/06/2024	03:13	-127.946	47.904	0	119.90	0	7.6110	0	33.6680	0	26.286	0	118.860	0	133.9	4	45.8	4	-1E+10	1	-1E+10	1	-1E+10	1	-1E+10	1	-1E+10	1	-1E+10	1
4902663	31	C	06/06/2024	03:13	-127.946	47.904	0	121.20	0	7.6100	0	33.6800	0	26.296	0	120.149	0	132.7	4	45.4	4	-1E+10	1	-1E+10	1	-1E+10	1	-1E+10	1	-1E+10	1	-1E+10	1
4902663	31	C	06/06/2024	03:13	-127.946	47.904	0	122.10	0	7.6090	0	33.6810	0	26.297	0	121.041	0	131.9	4	45.1	4	-1E+10	1	-1E+10	1	-1E+10	1	-1E+10	1	-1E+10	1	-1E+10	1
4902663	31	C	06/06/2024	03:13	-127.946	47.904	0	122.90	0	7.6090	0	33.6810	0	26.297	0	121.833	0	130.9	4	44.8	4	-1E+10	1	-1E+10	1	-1E+10	1	-1E+10	1	-1E+10	1	-1E+10	1
4902663	31	C	06/06/2024	03:13	-127.946	47.904	0	123.80	0	7.6070	0	33.6920	0	26.306	0	122.725	0	130.0	4	44.5	4	-1E+10	1	-1E+10	1	-1E+10	1	-1E+10	1	-1E+10	1	-1E+10	1
4902663	31	C	06/06/2024	03:13	-127.946	47.904	0	124.70	0	7.5590	0	33.7110	0	26.327	0	123.617	0	129.3	4	44.2	4	-1E+10	1	-1E+10	1	-1E+10	1	-1E+10	1	-1E+10	1	-1E+10	1
4902663	31	C	06/06/2024	03:13	-127.946	47.904	0	125.60	0	7.5580	0	33.7260	0	26.339	0	124.509	0	128.7	4	44.0	4	-1E+10	1	-1E+10	1	-1E+10	1	-1E+10	1	-1E+10	1	-1E+10	1
4902663	31	C	06/06/2024	03:13	-127.946	47.904	0	126.90	0	7.5460	0	33.7320	0	26.346	0	125.798	0	127.4	4	43.6	4	-1E+10	1	-1E+10	1	-1E+10	1	-1E+10	1	-1E+10	1	-1E+10	1
4902663	31	C	06/06/2024	03:13	-127.946	47.904	0	128.20	0	7.5430	0	33.7440	0	26.356	0	127.086	0	126.1	4	43.1	4	-1E+10	1	-1E+10	1	-1E+10	1	-1E+10	1	-1E+10	1	-1E+10	1
4902663	31	C	06/06/2024	03:13	-127.946	47.904	0	129.10	0	7.5430	0	33.7440	0	26.356	0	127.978	0	125.3	4	42.8	4	-1E+10	1	-1E+10	1	-1E+10	1	-1E+10	1	-1E+10	1	-1E+10	1
4902663	31	C	06/06/2024	03:13	-127.946	47.904	0	130.10	0	7.5370	0	33.7550	0	26.365	0	128.969	0	124.7	4	42.6	4	-1E+10	1	-1E+10	1	-1E+10	1	-1E+10	1	-1E+10	1	-1E+10	1
4902663	31	C	06/06/2024	03:13	-127.946	47.904	0	131.00	0	7.5250	0	33.7690	0	26.378	0	129.861	0	124.1	4	42.4	4	-1E+10	1	-1E+10	1	-1E+10	1	-1E+10	1	-1E+10	1	-1E+10	1
4902663	31	C	06/06/2024	03:13	-127.946	47.904	0	131.90	0	7.5230	0	33.7720	0	26.381	0	130.753	0	123.4	4	42.2	4	-1E+10	1	-1E+10	1	-1E+10	1	-1E+10	1	-1E+10	1	-1E+10	1
4902663	31	C	06/06/2024	03:13	-127.946	47.904	0	132.90	0	7.5180	0	33.7740	0	26.383	0	131.743	0	122.7	4	41.9	4	-1E+10	1	-1E+10	1	-1E+10	1	-1E+10	1	-1E+10	1	-1E+10	1
4902663	31	C	06/06/2024	03:13	-127.946	47.904	0	133.80	0	7.5190	0	33.7800	0	26.387	0	132.635	0	122.0	4	41.7	4	-1E+10	1	-1E+10	1	-1E+10	1	-1E+10	1	-1E+10	1	-1E+10	1
4902663	31	C	06/06/2024	03:13	-127.946	47.904	0	134.80	0	7.5200	0	33.7830	0	26.390	0	133.626	0	121.4	4	41.5	4	-1E+10	1	-1E+10	1	-1E+10	1	-1E+10	1	-1E+10	1	-1E+10	1
4902663	31	C	06/06/2024	03:13	-127.946	47.904	0	135.80	0	7.5210	0	33.7860	0	26.392	0	134.617	0	120.7	4	41.3	4	-1E+10	1	-1E+10	1	-1E+10	1	-1E+10	1	-1E+10	1	-1E+10	1
4902663	31	C	06/06/2024	03:13	-127.946	47.904	0	136.80	0	7.5170	0	33.7960	0	26.400	0	135.608	0	120.3	4	41.1	4	-1E+10	1	-1E+10	1	-1E+10	1	-1E+10	1	-1E+10	1	-1E+10	1
4902663	31	C	06/06/2024	03:13	-127.946	47.904	0	137.80	0	7.5090	0	33.7980	0	26.403	0	136.599	0	119.8	4	40.9	4	-1E+10	1	-1E+10	1	-1E+10	1	-1E+10	1	-1E+10	1	-1E+10	1
4902663	31	C	06/06/2024	03:13	-127.946	47.904	0	138.90	0	7.5070	0	33.8080	0	26.411	0	137.689	0	119.6	4	40.9	4	-1E+10	1	-1E+10	1	-1E+10	1	-1E+10	1	-1E+10	1	-1E+10	1
4902663	31	C	06/06/2024	03:13	-127.946	47.904	0	139.90	0	7.5020	0	33.8110	0	26.414	0	138.680	0	119.4	4	40.8	4	-1E+10	1	-1E+10	1	-1E+10	1	-1E+10	1	-1E+10	1	-1E+10	1
4902663	31	C	06/06/2024	03:13	-127.946	47.904	0	141.00	0	7.5010	0	33.8110	0	26.415	0	139.770	0	119.2	4	40.7	4	-1E+10	1	-1E+10	1	-1E+10	1	-1E+10	1	-1E+10	1	-1E+10	1
4902663	31	C	06/06/2024	03:13	-127.946	47.904	0	142.00	0	7.4970	0	33.8120	0	26.416	0	140.761	0	118.9	4	40.6	4	-1E+10	1	-1E+10	1	-1E+10	1	-1E+10	1	-1E+10	1	-1E+10	1
4902663	31	C	06/06/2024	03:13	-127.946	47.904	0	143.00	0	7.4910	0	33.8140	0	26.418	0	141.752	0	118.6	4	40.5	4	-1E+10	1	-1E+10	1	-1E+10	1	-1E+10	1	-1E+10	1	-1E+10	1
4902663	31	C	06/06/2024	03:13	-127.946	47.904	0	144.00	0	7.4890	0	33.8150	0	26.419	0	142.743	0	118.2	4	40.4	4	-1E+10	1	-1E+10	1	-1E+10	1	-1E+10	1	-1E+10	1	-1E+10	1
4902663	31	C	06/06/2024	03:13	-127.946	47.904	0	145.10	0	7.4900	0	33.8150	0	26.419	0	143.833	0	117.7	4	40.2	4	-1E+10	1	-1E+10	1	-1E+10	1	-1E+10	1	-1E+10	1	-1E+10	1
4902663	31	C	06/06/2024	03:13	-127.946	47.904	0	146.20	0	7.4810	0	33.8210	0	26.425	0	144.923	0	117.1	4	40.0	4	-1E+10	1	-1E+10	1	-1E+10	1	-1E+10	1	-1E+10	1	-1E+10	1
4902663	31	C	06/06/2024	03:13	-127.946	47.904	0	147.20	0	7.4670	0	33.8180	0	26.425	0	145.914	0	116.6	4	39.8	4	-1E+10	1	-1E+10	1	-1E+10	1	-1E+10	1	-1E+10	1	-1E+10	1
4902663	31	C	06/06/2024	03:13	-127.946	47.904	0	148.30	0	7.4660	0	33.8240	0	26.430	0	147.004	0	116.2	4	39.7	4	-1E+10	1	-1E+10	1	-1E+10	1	-1E+10	1	-1E+10	1	-1E+10	1
4902663	31	C	06/06/2024	03:13	-127.946	47.904	0	149.40	0	7.4560	0	33.8280	0	26.434	0	148.094	0	115.9	4	39.6	4	-1E+10	1	-1E+10	1	-1E+10	1	-1E+10	1	-1E+10	1	-1E+10	1
4902663	31	C	06/06/2024	03:13	-127.946	47.904	0	150.40	0	7.4370	0	33.8300	0	26.439	0	149.085	0	115.7	4	39.5	4	-1E+10	1	-1E+10	1	-1E+10	1	-1E+10	1	-1E+10	1	-1E+10	1
4902663	31	C	06/06/2024	03:13	-127.946	47.904	0	151.50	0	7.4160	0	33.8320	0	26.443	0	150.175	0	115.2	4	39.3	4	-1E+10	1	-1E+10	1	-1E+10	1	-1E+10	1	-1E+10	1	-1E+10	1
4902663	31	C	06/06/2024	03:13	-127.946	47.904	0	152.50	0	7.4080	0	33.8310	0	26.444	0	151.166	0	114.6	4	39.1	4	-1E+10	1	-1E+10	1	-1E+10	1	-1E+10	1	-1E+10	1	-1E+10	1
4902663	31	C	06/06/2024	03:13	-127.946	47.904	0	153.50	0	7.3980	0	33.8370	0	26.450	0	152.157	0	114.1	4	38.9	4	-1E+10	1	-1E+10	1	-1E+10	1	-1E+10	1	-1E+10	1	-1E+10	1
4902663	31	C	06/06/2024	03:13	-127.946	47.904	0	154.60	0	7.3880	0	33.8410	0	26.454	0	153.247	0	113.6	4	38.7	4	-1E+10	1	-1E+10	1	-1E+10	1	-1E+10	1	-1E+10	1	-1E+10	1
4902663	31	C	06/06/2024	03:13	-127.946	47.904	0	155.70	0	7.3780	0	33.8410	0	26.456	0	154.337	0	113.1	4	38.6	4	-1E+10	1	-1E+10	1	-1E+10	1	-1E+10	1	-1E+10	1	-1E+10	1
4902663	31	C	06/06/2024	03:13	-127.946	47.904	0	156.70	0	7.3490	0	33.8430	0	26.461	0	155.327	0	112.4	4	38.3	4	-1E+10	1	-1E+10	1	-1E+10	1	-1E+10	1	-1E+10	1	-1E+10	1
4902663	31	C	06/06/2024	03:13	-127.946	47.904	0	157.80	0	7.3220	0	33.8450	0	26.467	0	156.417	0	111.7	4	38.0	4	-1E+10	1	-1E+10	1	-1E+10	1	-1E+10	1	-1E+10	1	-1E+10	1
4902663	31	C	06/06/2024	03:13	-127.946	47.904	0	158.80	0	7.3350	0	33.8470	0	26.466	0	157.408	0	111.1	4	37.8	4	-1E+10	1	-1E+10	1	-1E+10	1	-1E+10	1	-1E+10	1	-1E+10	1
4902663	31	C	06/06/2024	03:13	-127.946	47.904	0	159.90	0	7.3140	0	33.8550	0	26.476	0	158.498	0	110.7	4	37.7	4	-1E+10	1	-1E+10	1	-1E+10	1	-1E+10	1	-1E+10	1	-1E+10	1
4902663	31	C	06/06/2024	03:13	-127.946	47.904	0	161.00	0	7.2930	0	33.8550	0	26.479	0	159.588	0	110.2	4	37.5	4	-1E+10	1	-1E+10	1	-1E+10	1	-1E+10	1	-1E+10	1	-1E+10	1
4902663	31	C	06/06/2024	03:13	-127.946	47.904	0	162.10	0	7.2840	0	33.8560	0	26.481	0	160.678	0	109.8	4	37.3	4	-1E+10	1	-1E+10	1	-1E+10	1	-1E+10	1	-1E+10	1	-1E+10	1
4902663	31	C	06/06/2024	03:13	-127.946	47.904	0	163.20	0	7.2710	0	33.8570	0	26.483	0	161.768	0	109.4	4	37.2	4	-1E+10	1	-1E+10	1	-1E+10	1	-1E+10	1	-1E+10	1	-1E+10	1
4902663	31	C	06/06/2024	03:13	-127.946	47.904	0	164.20	0	7.2730	0	33.8600	0	26.485	0	162.759	0	109.3	4	37.2	4	-1E+10	1	-1E+10	1	-1E+10	1	-1E+10	1	-1E+10	1	-1E+10	1
4902663	31	C	06/06/2024	03:13	-127.946	47.904	0	165.30	0	7.2450	0	33.8650	0	26.493	0	163.849	0	108.9	4	37.0	4	-1E+10	1	-1E+10	1	-1E+10	1	-1E+10	1	-1E+10	1	-1E+10	1
4902663	31	C	06/06/2024	03:13	-127.946	47.904	0	166.30	0	7.2480	0	33.8700	0	26.497	0	164.840	0	108.4	4	36.9	4	-1E+10	1	-1E+10	1	-1E+10	1	-1E+10	1	-1E+10	1	-1E+10	1
4902663	31	C	06/06/2024	03:13	-127.946	47.904	0	167.40	0	7.2430	0	33.8700	0	26.497	0	165.929	0	108.0	4	36.7	4	-1E+10	1	-1E+10	1	-1E+10	1	-1E+10	1	-1E+10	1	-1E+10	1
4902663	31	C	06/06/2024	03:13	-127.946	47.904	0	168.40	0	7.2340	0	33.8700	0	26.499	0	166.920	0	107.2	4	36.4	4	-1E+10	1	-1E+10	1	-1E+10	1	-1E+10	1	-1E+10	1	-1E+10	1
4902663	31	C	06/06/2024	03:13	-127.946	47.904	0	169.40	0	7.2130	0	33.8680	0	26.500	0	167.911	0	106.3	4	36.1	4	-1E+10	1	-1E+10	1	-1E+10	1	-1E+10	1	-1E+10	1	-1E+10	1
4902663	31	C	06/06/2024	03:13	-127.946	47.904	0	170.50	0	7.2030	0	33.8740	0	26.506	0	169.001	0	105.4	4	35.8	4	-1E+10	1	-1E+10	1	-1E+10	1	-1E+10	1	-1E+10	1	-1E+10	1
4902663	31	C	06/06/2024	03:13	-127.946	47.904	0	171.50	0	7.1680	0	33.8760	0	26.513	0	169.992	0	104.7	4	35.5	4	-1E+10	1	-1E+10	1	-1E+10	1	-1E+10	1	-1E+10	1	-1E+10	1
4902663	31	C	06/06/2024	03:13	-127.946	47.904	0	172.60	0	7.1140	0	33.8770	0	26.521	0	171.082	0	103.5	4	35.1	4	-1E+10	1	-1E+10	1	-1E+10	1	-1E+10	1	-1E+10	1	-1E+10	1
4902663	31	C	06/06/2024	03:13	-127.946	47.904	0	173.60	0	7.1080	0	33.8770	0	26.522	0	172.072	0	102.2	4	34.6	4	-1E+10	1	-1E+10	1	-1E+10	1	-1E+10	1	-1E+10	1	-1E+10	1
4902663	31	C	06/06/2024	03:13	-127.946	47.904	0	174.70	0	7.1370	0	33.8910	0	26.529	0	173.162	0	101.8	4	34.5	4	-1E+10	1	-1E+10	1	-1E+10	1	-1E+10	1	-1E+10	1	-1E+10	1
4902663	31	C	06/06/2024	03:13	-127.946	47.904	0	175.80	0	7.1360	0	33.8920	0	26.530	0	174.252	0	101.4	4	34.4	4	-1E+10	1	-1E+10	1	-1E+10	1	-1E+10	1	-1E+10	1	-1E+10	1
4902663	31	C	06/06/2024	03:13	-127.946	47.904	0	176.80	0	7.1320	0	33.8920	0	26.530	0	175.243	0	101.0	4	34.2	4	-1E+10	1	-1E+10	1	-1E+10	1	-1E+10	1	-1E+10	1	-1E+10	1
4902663	31	C	06/06/2024	03:13	-127.946	47.904	0	177.90	0	7.1300	0	33.8920	0	26.531	0	176.333	0	100.5	4	34.1	4	-1E+10	1	-1E+10	1	-1E+10	1	-1E+10	1	-1E+10	1	-1E+10	1
4902663	31	C	06/06/2024	03:13	-127.946	47.904	0	178.90	0	7.1110	0	33.8990	0	26.539	0	177.323	0	100.1	4	33.9	4	-1E+10	1	-1E+10	1	-1E+10	1	-1E+10	1	-1E+10	1	-1E+10	1
4902663	31	C	06/06/2024	03:13	-127.946	47.904	0	180.00	0	7.0990	0	33.8970	0	26.539	0	178.413	0	99.6	4	33.7	4	-1E+10	1	-1E+10	1	-1E+10	1	-1E+10	1	-1E+10	1	-1E+10	1
4902663	31	C	06/06/2024	03:13	-127.946	47.904	0	181.00	0	7.0870	0	33.8990	0	26.542	0	179.404	0	99.3	4	33.6	4	-1E+10	1	-1E+10	1	-1E+10	1	-1E+10	1	-1E+10	1	-1E+10	1
4902663	31	C	06/06/2024	03:13	-127.946	47.904	0	182.10	0	7.0750	0	33.8990	0	26.544	0	180.494	0	99.0	4	33.5	4	-1E+10	1	-1E+10	1	-1E+10	1	-1E+10	1	-1E+10	1	-1E+10	1
4902663	31	C	06/06/2024	03:13	-127.946	47.904	0	183.10	0	7.0670	0	33.8990	0	26.545	0	181.485	0	98.8	4	33.4	4	-1E+10	1	-1E+10	1	-1E+10	1	-1E+10	1	-1E+10	1	-1E+10	1
4902663	31	C	06/06/2024	03:13	-127.946	47.904	0	184.10	0	7.0560	0	33.9010	0	26.548	0	182.475	0	98.5	4	33.3	4	-1E+10	1	-1E+10	1	-1E+10	1	-1E+10	1	-1E+10	1	-1E+10	1
4902663	31	C	06/06/2024	03:13	-127.946	47.904	0	185.20	0	7.0510	0	33.9010	0	26.549	0	183.565	0	98.2	4	33.2	4	-1E+10	1	-1E+10	1	-1E+10	1	-1E+10	1	-1E+10	1	-1E+10	1
4902663	31	C	06/06/2024	03:13	-127.946	47.904	0	186.30	0	7.0420	0	33.9030	0	26.551	0	184.655	0	97.9	4	33.1	4	-1E+10	1	-1E+10	1	-1E+10	1	-1E+10	1	-1E+10	1	-1E+10	1
4902663	31	C	06/06/2024	03:13	-127.946	47.904	0	187.30	0	7.0360	0	33.9030	0	26.552	0	185.646	0	97.6	4	33.0	4	-1E+10	1	-1E+10	1	-1E+10	1	-1E+10	1	-1E+10	1	-1E+10	1
4902663	31	C	06/06/2024	03:13	-127.946	47.904	0	188.30	0	7.0350	0	33.9030	0	26.552	0	186.636	0	97.1	4	32.9	4	-1E+10	1	-1E+10	1	-1E+10	1	-1E+10	1	-1E+10	1	-1E+10	1
4902663	31	C	06/06/2024	03:13	-127.946	47.904	0	189.40	0	7.0310	0	33.9030	0	26.553	0	187.726	0	96.7	4	32.7	4	-1E+10	1	-1E+10	1	-1E+10	1	-1E+10	1	-1E+10	1	-1E+10	1
4902663	31	C	06/06/2024	03:13	-127.946	47.904	0	190.40	0	7.0120	0	33.9060	0	26.558	0	188.717	0	96.3	4	32.6	4	-1E+10	1	-1E+10	1	-1E+10	1	-1E+10	1	-1E+10	1	-1E+10	1
4902663	31	C	06/06/2024	03:13	-127.946	47.904	0	191.80	0	6.9900	0	33.9100	0	26.564	0	190.104	0	95.9	4	32.4	4	-1E+10	1	-1E+10	1	-1E+10	1	-1E+10	1	-1E+10	1	-1E+10	1
4902663	31	C	06/06/2024	03:13	-127.946	47.904	0	192.90	0	6.9820	0	33.9090	0	26.564	0	191.194	0	95.6	4	32.3	4	-1E+10	1	-1E+10	1	-1E+10	1	-1E+10	1	-1E+10	1	-1E+10	1
4902663	31	C	06/06/2024	03:13	-127.946	47.904	0	193.70	0	6.9760	0	33.9100	0	26.566	0	191.986	0	95.3	4	32.2	4	-1E+10	1	-1E+10	1	-1E+10	1	-1E+10	1	-1E+10	1	-1E+10	1
4902663	31	C	06/06/2024	03:13	-127.946	47.904	0	194.80	0	6.9700	0	33.9100	0	26.567	0	193.076	0	95.1	4	32.1	4	-1E+10	1	-1E+10	1	-1E+10	1	-1E+10	1	-1E+10	1	-1E+10	1
4902663	31	C	06/06/2024	03:13	-127.946	47.904	0	196.00	0	6.9720	0	33.9130	0	26.569	0	194.265	0	94.8	4	32.0	4	-1E+10	1	-1E+10	1	-1E+10	1	-1E+10	1	-1E+10	1	-1E+10	1
4902663	31	C	06/06/2024	03:13	-127.946	47.904	0	196.80	0	6.9620	0	33.9120	0	26.570	0	195.057	0	94.6	4	32.0	4	-1E+10	1	-1E+10	1	-1E+10	1	-1E+10	1	-1E+10	1	-1E+10	1
4902663	31	C	06/06/2024	03:13	-127.946	47.904	0	198.00	0	6.9510	0	33.9120	0	26.571	0	196.246	0	94.4	4	31.9	4	-1E+10	1	-1E+10	1	-1E+10	1	-1E+10	1	-1E+10	1	-1E+10	1
4902663	31	C	06/06/2024	03:13	-127.946	47.904	0	199.20	0	6.8890	0	33.9160	0	26.583	0	197.435	0	94.2	4	31.8	4	-1E+10	1	-1E+10	1	-1E+10	1	-1E+10	1	-1E+10	1	-1E+10	1
4902663	31	C	06/06/2024	03:13	-127.946	47.904	0	199.90	0	6.8560	0	33.9060	0	26.579	0	198.128	0	94.1	4	31.7	4	-1E+10	1	-1E+10	1	-1E+10	1	-1E+10	1	-1E+10	1	-1E+10	1
4902663	31	C	06/06/2024	03:13	-127.946	47.904	0	200.70	0	6.8620	0	33.9080	0	26.580	0	198.921	0	93.9	4	31.6	4	-1E+10	1	-1E+10	1	-1E+10	1	-1E+10	1	-1E+10	1	-1E+10	1
4902663	31	C	06/06/2024	03:13	-127.946	47.904	0	201.90	0	6.8670	0	33.9100	0	26.581	0	200.110	0	93.6	4	31.6	4	-1E+10	1	-1E+10	1	-1E+10	1	-1E+10	1	-1E+10	1	-1E+10	1
4902663	31	C	06/06/2024	03:13	-127.946	47.904	0	203.20	0	6.8630	0	33.9110	0	26.582	0	201.397	0	93.4	4	31.5	4	-1E+10	1	-1E+10	1	-1E+10	1	-1E+10	1	-1E+10	1	-1E+10	1
4902663	31	C	06/06/2024	03:13	-127.946	47.904	0	204.00	0	6.8520	0	33.9110	0	26.584	0	202.190	0	93.2	4	31.4	4	-1E+10	1	-1E+10	1	-1E+10	1	-1E+10	1	-1E+10	1	-1E+10	1
4902663	31	C	06/06/2024	03:13	-127.946	47.904	0	204.80	0	6.8480	0	33.9100	0	26.584	0	202.983	0	93.0	4	31.3	4	-1E+10	1	-1E+10	1	-1E+10	1	-1E+10	1	-1E+10	1	-1E+10	1
4902663	31	C	06/06/2024	03:13	-127.946	47.904	0	205.60	0	6.8390	0	33.9100	0	26.585	0	203.775	0	92.8	4	31.3	4	-1E+10	1	-1E+10	1	-1E+10	1	-1E+10	1	-1E+10	1	-1E+10	1
4902663	31	C	06/06/2024	03:13	-127.946	47.904	0	206.90	0	6.8360	0	33.9090	0	26.584	0	205.063	0	92.5	4	31.2	4	-1E+10	1	-1E+10	1	-1E+10	1	-1E+10	1	-1E+10	1	-1E+10	1
4902663	31	C	06/06/2024	03:13	-127.946	47.904	0	208.10	0	6.8320	0	33.9090	0	26.585	0	206.252	0	92.2	4	31.1	4	-1E+10	1	-1E+10	1	-1E+10	1	-1E+10	1	-1E+10	1	-1E+10	1
4902663	31	C	06/06/2024	03:13	-127.946	47.904	0	209.00	0	6.8190	0	33.9090	0	26.587	0	207.143	0	92.0	4	31.0	4	-1E+10	1	-1E+10	1	-1E+10	1	-1E+10	1	-1E+10	1	-1E+10	1
4902663	31	C	06/06/2024	03:13	-127.946	47.904	0	209.80	0	6.8020	0	33.9140	0	26.593	0	207.936	0	91.9	4	30.9	4	-1E+10	1	-1E+10	1	-1E+10	1	-1E+10	1	-1E+10	1	-1E+10	1
4902663	31	C	06/06/2024	03:13	-127.946	47.904	0	210.70	0	6.7810	0	33.9140	0	26.596	0	208.827	0	91.6	4	30.8	4	-1E+10	1	-1E+10	1	-1E+10	1	-1E+10	1	-1E+10	1	-1E+10	1
4902663	31	C	06/06/2024	03:13	-127.946	47.904	0	212.00	0	6.7910	0	33.9200	0	26.599	0	210.115	0	91.3	4	30.7	4	-1E+10	1	-1E+10	1	-1E+10	1	-1E+10	1	-1E+10	1	-1E+10	1
4902663	31	C	06/06/2024	03:13	-127.946	47.904	0	213.30	0	6.7960	0	33.9230	0	26.601	0	211.403	0	91.1	4	30.7	4	-1E+10	1	-1E+10	1	-1E+10	1	-1E+10	1	-1E+10	1	-1E+10	1
4902663	31	C	06/06/2024	03:13	-127.946	47.904	0	214.10	0	6.7970	0	33.9250	0	26.602	0	212.195	0	91.1	4	30.7	4	-1E+10	1	-1E+10	1	-1E+10	1	-1E+10	1	-1E+10	1	-1E+10	1
4902663	31	C	06/06/2024	03:13	-127.946	47.904	0	215.00	0	6.7880	0	33.9250	0	26.604	0	213.087	0	91.2	4	30.7	4	-1E+10	1	-1E+10	1	-1E+10	1	-1E+10	1	-1E+10	1	-1E+10	1
4902663	31	C	06/06/2024	03:13	-127.946	47.904	0	215.90	0	6.7760	0	33.9240	0	26.604	0	213.978	0	91.3	4	30.7	4	-1E+10	1	-1E+10	1	-1E+10	1	-1E+10	1	-1E+10	1	-1E+10	1
4902663	31	C	06/06/2024	03:13	-127.946	47.904	0	216.70	0	6.7440	0	33.9220	0	26.607	0	214.771	0	91.2	4	30.6	4	-1E+10	1	-1E+10	1	-1E+10	1	-1E+10	1	-1E+10	1	-1E+10	1
4902663	31	C	06/06/2024	03:13	-127.946	47.904	0	217.60	0	6.7270	0	33.9230	0	26.610	0	215.662	0	91.1	4	30.6	4	-1E+10	1	-1E+10	1	-1E+10	1	-1E+10	1	-1E+10	1	-1E+10	1
4902663	31	C	06/06/2024	03:13	-127.946	47.904	0	218.90	0	6.6830	0	33.9190	0	26.613	0	216.950	0	90.7	4	30.4	4	-1E+10	1	-1E+10	1	-1E+10	1	-1E+10	1	-1E+10	1	-1E+10	1
4902663	31	C	06/06/2024	03:13	-127.946	47.904	0	220.20	0	6.6530	0	33.9160	0	26.614	0	218.238	0	90.0	4	30.2	4	-1E+10	1	-1E+10	1	-1E+10	1	-1E+10	1	-1E+10	1	-1E+10	1
4902663	31	C	06/06/2024	03:13	-127.946	47.904	0	221.10	0	6.6460	0	33.9160	0	26.615	0	219.129	0	89.5	4	30.0	4	-1E+10	1	-1E+10	1	-1E+10	1	-1E+10	1	-1E+10	1	-1E+10	1
4902663	31	C	06/06/2024	03:13	-127.946	47.904	0	222.00	0	6.6420	0	33.9170	0	26.617	0	220.021	0	88.9	4	29.8	4	-1E+10	1	-1E+10	1	-1E+10	1	-1E+10	1	-1E+10	1	-1E+10	1
4902663	31	C	06/06/2024	03:13	-127.946	47.904	0	222.90	0	6.6450	0	33.9170	0	26.616	0	220.912	0	88.4	4	29.6	4	-1E+10	1	-1E+10	1	-1E+10	1	-1E+10	1	-1E+10	1	-1E+10	1
4902663	31	C	06/06/2024	03:13	-127.946	47.904	0	223.80	0	6.6500	0	33.9220	0	26.620	0	221.804	0	87.9	4	29.5	4	-1E+10	1	-1E+10	1	-1E+10	1	-1E+10	1	-1E+10	1	-1E+10	1
4902663	31	C	06/06/2024	03:13	-127.946	47.904	0	224.70	0	6.6320	0	33.9240	0	26.624	0	222.695	0	87.6	4	29.4	4	-1E+10	1	-1E+10	1	-1E+10	1	-1E+10	1	-1E+10	1	-1E+10	1
4902663	31	C	06/06/2024	03:13	-127.946	47.904	0	225.60	0	6.5740	0	33.9220	0	26.630	0	223.587	0	86.9	4	29.1	4	-1E+10	1	-1E+10	1	-1E+10	1	-1E+10	1	-1E+10	1	-1E+10	1
4902663	31	C	06/06/2024	03:13	-127.946	47.904	0	226.90	0	6.5760	0	33.9170	0	26.626	0	224.874	0	85.8	4	28.7	4	-1E+10	1	-1E+10	1	-1E+10	1	-1E+10	1	-1E+10	1	-1E+10	1
4902663	31	C	06/06/2024	03:13	-127.946	47.904	0	228.30	0	6.6120	0	33.9310	0	26.632	0	226.261	0	85.1	4	28.5	4	-1E+10	1	-1E+10	1	-1E+10	1	-1E+10	1	-1E+10	1	-1E+10	1
4902663	31	C	06/06/2024	03:13	-127.946	47.904	0	229.20	0	6.6070	0	33.9310	0	26.633	0	227.153	0	84.7	4	28.4	4	-1E+10	1	-1E+10	1	-1E+10	1	-1E+10	1	-1E+10	1	-1E+10	1
4902663	31	C	06/06/2024	03:13	-127.946	47.904	0	230.10	0	6.5980	0	33.9300	0	26.633	0	228.044	0	84.2	4	28.2	4	-1E+10	1	-1E+10	1	-1E+10	1	-1E+10	1	-1E+10	1	-1E+10	1
4902663	31	C	06/06/2024	03:13	-127.946	47.904	0	231.00	0	6.5900	0	33.9310	0	26.635	0	228.936	0	83.7	4	28.0	4	-1E+10	1	-1E+10	1	-1E+10	1	-1E+10	1	-1E+10	1	-1E+10	1
4902663	31	C	06/06/2024	03:13	-127.946	47.904	0	231.90	0	6.5900	0	33.9320	0	26.636	0	229.827	0	83.1	4	27.8	4	-1E+10	1	-1E+10	1	-1E+10	1	-1E+10	1	-1E+10	1	-1E+10	1
4902663	31	C	06/06/2024	03:13	-127.946	47.904	0	232.80	0	6.6020	0	33.9300	0	26.632	0	230.718	0	82.6	4	27.7	4	-1E+10	1	-1E+10	1	-1E+10	1	-1E+10	1	-1E+10	1	-1E+10	1
4902663	31	C	06/06/2024	03:13	-127.946	47.904	0	233.70	0	6.6130	0	33.9380	0	26.637	0	231.610	0	82.2	4	27.6	4	-1E+10	1	-1E+10	1	-1E+10	1	-1E+10	1	-1E+10	1	-1E+10	1
4902663	31	C	06/06/2024	03:13	-127.946	47.904	0	234.70	0	6.6200	0	33.9410	0	26.639	0	232.600	0	81.9	4	27.5	4	-1E+10	1	-1E+10	1	-1E+10	1	-1E+10	1	-1E+10	1	-1E+10	1
4902663	31	C	06/06/2024	03:13	-127.946	47.904	0	235.50	0	6.6100	0	33.9460	0	26.644	0	233.393	0	81.7	4	27.4	4	-1E+10	1	-1E+10	1	-1E+10	1	-1E+10	1	-1E+10	1	-1E+10	1
4902663	31	C	06/06/2024	03:13	-127.946	47.904	0	236.90	0	6.5970	0	33.9460	0	26.646	0	234.779	0	81.4	4	27.3	4	-1E+10	1	-1E+10	1	-1E+10	1	-1E+10	1	-1E+10	1	-1E+10	1
4902663	31	C	06/06/2024	03:13	-127.946	47.904	0	238.30	0	6.5910	0	33.9460	0	26.647	0	236.166	0	81.0	4	27.1	4	-1E+10	1	-1E+10	1	-1E+10	1	-1E+10	1	-1E+10	1	-1E+10	1
4902663	31	C	06/06/2024	03:13	-127.946	47.904	0	239.10	0	6.5890	0	33.9470	0	26.648	0	236.958	0	80.7	4	27.0	4	-1E+10	1	-1E+10	1	-1E+10	1	-1E+10	1	-1E+10	1	-1E+10	1
4902663	31	C	06/06/2024	03:13	-127.946	47.904	0	240.00	0	6.5840	0	33.9470	0	26.648	0	237.850	0	80.4	4	26.9	4	-1E+10	1	-1E+10	1	-1E+10	1	-1E+10	1	-1E+10	1	-1E+10	1
4902663	31	C	06/06/2024	03:13	-127.946	47.904	0	240.90	0	6.5770	0	33.9480	0	26.650	0	238.741	0	80.2	4	26.9	4	-1E+10	1	-1E+10	1	-1E+10	1	-1E+10	1	-1E+10	1	-1E+10	1
4902663	31	C	06/06/2024	03:13	-127.946	47.904	0	241.80	0	6.5740	0	33.9520	0	26.654	0	239.633	0	80.0	4	26.8	4	-1E+10	1	-1E+10	1	-1E+10	1	-1E+10	1	-1E+10	1	-1E+10	1
4902663	31	C	06/06/2024	03:13	-127.946	47.904	0	242.80	0	6.5610	0	33.9510	0	26.655	0	240.623	0	79.7	4	26.7	4	-1E+10	1	-1E+10	1	-1E+10	1	-1E+10	1	-1E+10	1	-1E+10	1
4902663	31	C	06/06/2024	03:13	-127.946	47.904	0	243.60	0	6.5540	0	33.9510	0	26.655	0	241.416	0	79.5	4	26.6	4	-1E+10	1	-1E+10	1	-1E+10	1	-1E+10	1	-1E+10	1	-1E+10	1
4902663	31	C	06/06/2024	03:13	-127.946	47.904	0	244.50	0	6.5440	0	33.9510	0	26.657	0	242.307	0	79.3	4	26.5	4	-1E+10	1	-1E+10	1	-1E+10	1	-1E+10	1	-1E+10	1	-1E+10	1
4902663	31	C	06/06/2024	03:13	-127.946	47.904	0	245.90	0	6.5410	0	33.9530	0	26.659	0	243.694	0	79.0	4	26.4	4	-1E+10	1	-1E+10	1	-1E+10	1	-1E+10	1	-1E+10	1	-1E+10	1
4902663	31	C	06/06/2024	03:13	-127.946	47.904	0	247.30	0	6.5390	0	33.9530	0	26.659	0	245.080	0	78.7	4	26.3	4	-1E+10	1	-1E+10	1	-1E+10	1	-1E+10	1	-1E+10	1	-1E+10	1
4902663	31	C	06/06/2024	03:13	-127.946	47.904	0	248.20	0	6.5230	0	33.9530	0	26.661	0	245.972	0	78.5	4	26.2	4	-1E+10	1	-1E+10	1	-1E+10	1	-1E+10	1	-1E+10	1	-1E+10	1
4902663	31	C	06/06/2024	03:13	-127.946	47.904	0	249.10	0	6.5220	0	33.9520	0	26.660	0	246.863	0	78.3	4	26.2	4	-1E+10	1	-1E+10	1	-1E+10	1	-1E+10	1	-1E+10	1	-1E+10	1
4902663	31	C	06/06/2024	03:13	-127.946	47.904	0	249.90	0	6.5310	0	33.9560	0	26.662	0	247.655	0	78.0	4	26.1	4	-1E+10	1	-1E+10	1	-1E+10	1	-1E+10	1	-1E+10	1	-1E+10	1
4902663	31	C	06/06/2024	03:13	-127.946	47.904	0	250.80	0	6.5300	0	33.9560	0	26.663	0	248.547	0	77.8	4	26.0	4	-1E+10	1	-1E+10	1	-1E+10	1	-1E+10	1	-1E+10	1	-1E+10	1
4902663	31	C	06/06/2024	03:13	-127.946	47.904	0	251.70	0	6.5290	0	33.9560	0	26.663	0	249.438	0	77.6	4	25.9	4	-1E+10	1	-1E+10	1	-1E+10	1	-1E+10	1	-1E+10	1	-1E+10	1
4902663	31	C	06/06/2024	03:13	-127.946	47.904	0	252.60	0	6.5190	0	33.9560	0	26.664	0	250.329	0	77.3	4	25.8	4	-1E+10	1	-1E+10	1	-1E+10	1	-1E+10	1	-1E+10	1	-1E+10	1
4902663	31	C	06/06/2024	03:13	-127.946	47.904	0	253.90	0	6.4990	0	33.9560	0	26.667	0	251.617	0	76.8	4	25.7	4	-1E+10	1	-1E+10	1	-1E+10	1	-1E+10	1	-1E+10	1	-1E+10	1
4902663	31	C	06/06/2024	03:13	-127.946	47.904	0	255.30	0	6.4850	0	33.9570	0	26.669	0	253.003	0	76.4	4	25.5	4	-1E+10	1	-1E+10	1	-1E+10	1	-1E+10	1	-1E+10	1	-1E+10	1
4902663	31	C	06/06/2024	03:13	-127.946	47.904	0	256.20	0	6.4840	0	33.9580	0	26.670	0	253.895	0	76.1	4	25.4	4	-1E+10	1	-1E+10	1	-1E+10	1	-1E+10	1	-1E+10	1	-1E+10	1
4902663	31	C	06/06/2024	03:13	-127.946	47.904	0	257.00	0	6.4820	0	33.9580	0	26.671	0	254.687	0	75.7	4	25.3	4	-1E+10	1	-1E+10	1	-1E+10	1	-1E+10	1	-1E+10	1	-1E+10	1
4902663	31	C	06/06/2024	03:13	-127.946	47.904	0	257.90	0	6.4760	0	33.9560	0	26.670	0	255.578	0	75.3	4	25.2	4	-1E+10	1	-1E+10	1	-1E+10	1	-1E+10	1	-1E+10	1	-1E+10	1
4902663	31	C	06/06/2024	03:13	-127.946	47.904	0	258.80	0	6.4590	0	33.9610	0	26.676	0	256.470	0	74.9	4	25.0	4	-1E+10	1	-1E+10	1	-1E+10	1	-1E+10	1	-1E+10	1	-1E+10	1
4902663	31	C	06/06/2024	03:13	-127.946	47.904	0	259.70	0	6.4440	0	33.9600	0	26.677	0	257.361	0	74.5	4	24.9	4	-1E+10	1	-1E+10	1	-1E+10	1	-1E+10	1	-1E+10	1	-1E+10	1
4902663	31	C	06/06/2024	03:13	-127.946	47.904	0	260.90	0	6.4310	0	33.9600	0	26.679	0	258.550	0	73.8	4	24.6	4	-1E+10	1	-1E+10	1	-1E+10	1	-1E+10	1	-1E+10	1	-1E+10	1
4902663	31	C	06/06/2024	03:13	-127.946	47.904	0	262.30	0	6.4190	0	33.9610	0	26.681	0	259.936	0	73.1	4	24.4	4	-1E+10	1	-1E+10	1	-1E+10	1	-1E+10	1	-1E+10	1	-1E+10	1
4902663	31	C	06/06/2024	03:13	-127.946	47.904	0	263.20	0	6.4170	0	33.9620	0	26.682	0	260.827	0	72.6	4	24.2	4	-1E+10	1	-1E+10	1	-1E+10	1	-1E+10	1	-1E+10	1	-1E+10	1
4902663	31	C	06/06/2024	03:13	-127.946	47.904	0	264.10	0	6.4110	0	33.9640	0	26.685	0	261.719	0	72.1	4	24.1	4	-1E+10	1	-1E+10	1	-1E+10	1	-1E+10	1	-1E+10	1	-1E+10	1
4902663	31	C	06/06/2024	03:13	-127.946	47.904	0	265.00	0	6.3970	0	33.9650	0	26.687	0	262.610	0	71.7	4	23.9	4	-1E+10	1	-1E+10	1	-1E+10	1	-1E+10	1	-1E+10	1	-1E+10	1
4902663	31	C	06/06/2024	03:13	-127.946	47.904	0	265.80	0	6.3910	0	33.9650	0	26.688	0	263.402	0	71.2	4	23.7	4	-1E+10	1	-1E+10	1	-1E+10	1	-1E+10	1	-1E+10	1	-1E+10	1
4902663	31	C	06/06/2024	03:13	-127.946	47.904	0	266.70	0	6.3650	0	33.9660	0	26.692	0	264.294	0	70.7	4	23.6	4	-1E+10	1	-1E+10	1	-1E+10	1	-1E+10	1	-1E+10	1	-1E+10	1
4902663	31	C	06/06/2024	03:13	-127.946	47.904	0	267.90	0	6.3410	0	33.9700	0	26.698	0	265.482	0	70.2	4	23.4	4	-1E+10	1	-1E+10	1	-1E+10	1	-1E+10	1	-1E+10	1	-1E+10	1
4902663	31	C	06/06/2024	03:13	-127.946	47.904	0	269.30	0	6.3270	0	33.9720	0	26.702	0	266.869	0	69.8	4	23.3	4	-1E+10	1	-1E+10	1	-1E+10	1	-1E+10	1	-1E+10	1	-1E+10	1
4902663	31	C	06/06/2024	03:13	-127.946	47.904	0	270.20	0	6.3200	0	33.9720	0	26.703	0	267.760	0	69.5	4	23.1	4	-1E+10	1	-1E+10	1	-1E+10	1	-1E+10	1	-1E+10	1	-1E+10	1
4902663	31	C	06/06/2024	03:13	-127.946	47.904	0	271.00	0	6.3060	0	33.9730	0	26.705	0	268.552	0	69.2	4	23.1	4	-1E+10	1	-1E+10	1	-1E+10	1	-1E+10	1	-1E+10	1	-1E+10	1
4902663	31	C	06/06/2024	03:13	-127.946	47.904	0	271.90	0	6.3000	0	33.9720	0	26.705	0	269.443	0	69.0	4	23.0	4	-1E+10	1	-1E+10	1	-1E+10	1	-1E+10	1	-1E+10	1	-1E+10	1
4902663	31	C	06/06/2024	03:13	-127.946	47.904	0	272.80	0	6.2930	0	33.9720	0	26.706	0	270.335	0	68.6	4	22.8	4	-1E+10	1	-1E+10	1	-1E+10	1	-1E+10	1	-1E+10	1	-1E+10	1
4902663	31	C	06/06/2024	03:13	-127.946	47.904	0	273.70	0	6.2690	0	33.9770	0	26.713	0	271.226	0	68.3	4	22.7	4	-1E+10	1	-1E+10	1	-1E+10	1	-1E+10	1	-1E+10	1	-1E+10	1
4902663	31	C	06/06/2024	03:13	-127.946	47.904	0	275.00	0	6.2430	0	33.9750	0	26.715	0	272.513	0	67.9	4	22.6	4	-1E+10	1	-1E+10	1	-1E+10	1	-1E+10	1	-1E+10	1	-1E+10	1
4902663	31	C	06/06/2024	03:13	-127.946	47.904	0	276.30	0	6.2190	0	33.9760	0	26.719	0	273.801	0	67.7	4	22.5	4	-1E+10	1	-1E+10	1	-1E+10	1	-1E+10	1	-1E+10	1	-1E+10	1
4902663	31	C	06/06/2024	03:13	-127.946	47.904	0	277.20	0	6.2090	0	33.9760	0	26.720	0	274.692	0	67.5	4	22.4	4	-1E+10	1	-1E+10	1	-1E+10	1	-1E+10	1	-1E+10	1	-1E+10	1
4902663	31	C	06/06/2024	03:13	-127.946	47.904	0	278.00	0	6.2050	0	33.9760	0	26.721	0	275.484	0	67.4	4	22.4	4	-1E+10	1	-1E+10	1	-1E+10	1	-1E+10	1	-1E+10	1	-1E+10	1
4902663	31	C	06/06/2024	03:13	-127.946	47.904	0	278.90	0	6.2050	0	33.9770	0	26.722	0	276.375	0	67.2	4	22.3	4	-1E+10	1	-1E+10	1	-1E+10	1	-1E+10	1	-1E+10	1	-1E+10	1
4902663	31	C	06/06/2024	03:13	-127.946	47.904	0	279.80	0	6.1970	0	33.9780	0	26.723	0	277.267	0	67.0	4	22.3	4	-1E+10	1	-1E+10	1	-1E+10	1	-1E+10	1	-1E+10	1	-1E+10	1
4902663	31	C	06/06/2024	03:13	-127.946	47.904	0	280.70	0	6.1930	0	33.9770	0	26.723	0	278.158	0	66.9	4	22.2	4	-1E+10	1	-1E+10	1	-1E+10	1	-1E+10	1	-1E+10	1	-1E+10	1
4902663	31	C	06/06/2024	03:13	-127.946	47.904	0	281.90	0	6.1880	0	33.9770	0	26.724	0	279.346	0	66.6	4	22.1	4	-1E+10	1	-1E+10	1	-1E+10	1	-1E+10	1	-1E+10	1	-1E+10	1
4902663	31	C	06/06/2024	03:13	-127.946	47.904	0	283.20	0	6.1830	0	33.9780	0	26.725	0	280.634	0	66.2	4	22.0	4	-1E+10	1	-1E+10	1	-1E+10	1	-1E+10	1	-1E+10	1	-1E+10	1
4902663	31	C	06/06/2024	03:13	-127.946	47.904	0	284.10	0	6.1770	0	33.9760	0	26.724	0	281.525	0	66.0	4	21.9	4	-1E+10	1	-1E+10	1	-1E+10	1	-1E+10	1	-1E+10	1	-1E+10	1
4902663	31	C	06/06/2024	03:13	-127.946	47.904	0	285.00	0	6.1820	0	33.9790	0	26.726	0	282.416	0	65.7	4	21.8	4	-1E+10	1	-1E+10	1	-1E+10	1	-1E+10	1	-1E+10	1	-1E+10	1
4902663	31	C	06/06/2024	03:13	-127.946	47.904	0	285.80	0	6.1810	0	33.9790	0	26.726	0	283.208	0	65.5	4	21.7	4	-1E+10	1	-1E+10	1	-1E+10	1	-1E+10	1	-1E+10	1	-1E+10	1
4902663	31	C	06/06/2024	03:13	-127.946	47.904	0	286.80	0	6.1800	0	33.9830	0	26.730	0	284.199	0	65.3	4	21.7	4	-1E+10	1	-1E+10	1	-1E+10	1	-1E+10	1	-1E+10	1	-1E+10	1
4902663	31	C	06/06/2024	03:13	-127.946	47.904	0	287.60	0	6.1680	0	33.9800	0	26.729	0	284.991	0	65.1	4	21.6	4	-1E+10	1	-1E+10	1	-1E+10	1	-1E+10	1	-1E+10	1	-1E+10	1
4902663	31	C	06/06/2024	03:13	-127.946	47.904	0	288.90	0	6.1370	0	33.9800	0	26.733	0	286.278	0	64.7	4	21.5	4	-1E+10	1	-1E+10	1	-1E+10	1	-1E+10	1	-1E+10	1	-1E+10	1
4902663	31	C	06/06/2024	03:13	-127.946	47.904	0	290.30	0	6.1300	0	33.9790	0	26.733	0	287.664	0	64.3	4	21.3	4	-1E+10	1	-1E+10	1	-1E+10	1	-1E+10	1	-1E+10	1	-1E+10	1
4902663	31	C	06/06/2024	03:13	-127.946	47.904	0	291.20	0	6.1110	0	33.9820	0	26.738	0	288.556	0	64.0	4	21.2	4	-1E+10	1	-1E+10	1	-1E+10	1	-1E+10	1	-1E+10	1	-1E+10	1
4902663	31	C	06/06/2024	03:13	-127.946	47.904	0	292.10	0	6.1080	0	33.9810	0	26.737	0	289.447	0	63.8	4	21.1	4	-1E+10	1	-1E+10	1	-1E+10	1	-1E+10	1	-1E+10	1	-1E+10	1
4902663	31	C	06/06/2024	03:13	-127.946	47.904	0	293.00	0	6.1020	0	33.9840	0	26.740	0	290.338	0	63.5	4	21.0	4	-1E+10	1	-1E+10	1	-1E+10	1	-1E+10	1	-1E+10	1	-1E+10	1
4902663	31	C	06/06/2024	03:13	-127.946	47.904	0	293.90	0	6.0860	0	33.9820	0	26.741	0	291.229	0	63.3	4	21.0	4	-1E+10	1	-1E+10	1	-1E+10	1	-1E+10	1	-1E+10	1	-1E+10	1
4902663	31	C	06/06/2024	03:13	-127.946	47.904	0	294.80	0	6.0760	0	33.9800	0	26.740	0	292.120	0	63.0	4	20.9	4	-1E+10	1	-1E+10	1	-1E+10	1	-1E+10	1	-1E+10	1	-1E+10	1
4902663	31	C	06/06/2024	03:13	-127.946	47.904	0	295.70	0	6.0740	0	33.9810	0	26.741	0	293.012	0	62.7	4	20.8	4	-1E+10	1	-1E+10	1	-1E+10	1	-1E+10	1	-1E+10	1	-1E+10	1
4902663	31	C	06/06/2024	03:13	-127.946	47.904	0	296.60	0	6.0570	0	33.9830	0	26.745	0	293.903	0	62.4	4	20.6	4	-1E+10	1	-1E+10	1	-1E+10	1	-1E+10	1	-1E+10	1	-1E+10	1
4902663	31	C	06/06/2024	03:13	-127.946	47.904	0	297.90	0	6.0500	0	33.9810	0	26.745	0	295.190	0	61.9	4	20.5	4	-1E+10	1	-1E+10	1	-1E+10	1	-1E+10	1	-1E+10	1	-1E+10	1
4902663	31	C	06/06/2024	03:13	-127.946	47.904	0	299.30	0	6.0420	0	33.9810	0	26.746	0	296.576	0	61.3	4	20.3	4	-1E+10	1	-1E+10	1	-1E+10	1	-1E+10	1	-1E+10	1	-1E+10	1
4902663	31	C	06/06/2024	03:13	-127.946	47.904	0	300.20	0	6.0120	0	33.9840	0	26.752	0	297.467	0	61.0	4	20.2	4	-1E+10	1	-1E+10	1	-1E+10	1	-1E+10	1	-1E+10	1	-1E+10	1
4902663	31	C	06/06/2024	03:13	-127.946	47.904	0	301.10	0	6.0030	0	33.9830	0	26.752	0	298.359	0	60.8	4	20.1	4	-1E+10	1	-1E+10	1	-1E+10	1	-1E+10	1	-1E+10	1	-1E+10	1
4902663	31	C	06/06/2024	03:13	-127.946	47.904	0	302.00	0	6.0010	0	33.9830	0	26.752	0	299.250	0	60.6	4	20.0	4	-1E+10	1	-1E+10	1	-1E+10	1	-1E+10	1	-1E+10	1	-1E+10	1
4902663	31	C	06/06/2024	03:13	-127.946	47.904	0	302.90	0	5.9900	0	33.9830	0	26.754	0	300.141	0	60.3	4	19.9	4	-1E+10	1	-1E+10	1	-1E+10	1	-1E+10	1	-1E+10	1	-1E+10	1
4902663	31	C	06/06/2024	03:13	-127.946	47.904	0	303.80	0	5.9750	0	33.9830	0	26.756	0	301.032	0	60.1	4	19.8	4	-1E+10	1	-1E+10	1	-1E+10	1	-1E+10	1	-1E+10	1	-1E+10	1
4902663	31	C	06/06/2024	03:13	-127.946	47.904	0	304.70	0	5.9560	0	33.9840	0	26.759	0	301.923	0	59.9	4	19.8	4	-1E+10	1	-1E+10	1	-1E+10	1	-1E+10	1	-1E+10	1	-1E+10	1
4902663	31	C	06/06/2024	03:13	-127.946	47.904	0	305.60	0	5.9300	0	33.9860	0	26.764	0	302.814	0	59.8	4	19.7	4	-1E+10	1	-1E+10	1	-1E+10	1	-1E+10	1	-1E+10	1	-1E+10	1
4902663	31	C	06/06/2024	03:13	-127.946	47.904	0	306.50	0	5.9210	0	33.9850	0	26.764	0	303.705	0	59.6	4	19.7	4	-1E+10	1	-1E+10	1	-1E+10	1	-1E+10	1	-1E+10	1	-1E+10	1
4902663	31	C	06/06/2024	03:13	-127.946	47.904	0	307.90	0	5.9120	0	33.9860	0	26.766	0	305.092	0	59.4	4	19.6	4	-1E+10	1	-1E+10	1	-1E+10	1	-1E+10	1	-1E+10	1	-1E+10	1
4902663	31	C	06/06/2024	03:13	-127.946	47.904	0	309.30	0	5.8980	0	33.9870	0	26.768	0	306.478	0	59.3	4	19.5	4	-1E+10	1	-1E+10	1	-1E+10	1	-1E+10	1	-1E+10	1	-1E+10	1
4902663	31	C	06/06/2024	03:13	-127.946	47.904	0	310.20	0	5.8940	0	33.9870	0	26.769	0	307.369	0	59.2	4	19.5	4	-1E+10	1	-1E+10	1	-1E+10	1	-1E+10	1	-1E+10	1	-1E+10	1
4902663	31	C	06/06/2024	03:13	-127.946	47.904	0	311.20	0	5.8900	0	33.9870	0	26.769	0	308.359	0	59.1	4	19.5	4	-1E+10	1	-1E+10	1	-1E+10	1	-1E+10	1	-1E+10	1	-1E+10	1
4902663	31	C	06/06/2024	03:13	-127.946	47.904	0	312.10	0	5.8780	0	33.9870	0	26.771	0	309.250	0	59.0	4	19.4	4	-1E+10	1	-1E+10	1	-1E+10	1	-1E+10	1	-1E+10	1	-1E+10	1
4902663	31	C	06/06/2024	03:13	-127.946	47.904	0	313.00	0	5.8700	0	33.9860	0	26.771	0	310.141	0	58.9	4	19.4	4	-1E+10	1	-1E+10	1	-1E+10	1	-1E+10	1	-1E+10	1	-1E+10	1
4902663	31	C	06/06/2024	03:13	-127.946	47.904	0	314.00	0	5.8610	0	33.9870	0	26.773	0	311.131	0	58.7	4	19.3	4	-1E+10	1	-1E+10	1	-1E+10	1	-1E+10	1	-1E+10	1	-1E+10	1
4902663	31	C	06/06/2024	03:13	-127.946	47.904	0	314.90	0	5.8550	0	33.9860	0	26.773	0	312.022	0	58.5	4	19.3	4	-1E+10	1	-1E+10	1	-1E+10	1	-1E+10	1	-1E+10	1	-1E+10	1
4902663	31	C	06/06/2024	03:13	-127.946	47.904	0	315.80	0	5.8470	0	33.9860	0	26.774	0	312.914	0	58.3	4	19.2	4	-1E+10	1	-1E+10	1	-1E+10	1	-1E+10	1	-1E+10	1	-1E+10	1
4902663	31	C	06/06/2024	03:13	-127.946	47.904	0	316.80	0	5.8310	0	33.9860	0	26.776	0	313.904	0	58.1	4	19.1	4	-1E+10	1	-1E+10	1	-1E+10	1	-1E+10	1	-1E+10	1	-1E+10	1
4902663	31	C	06/06/2024	03:13	-127.946	47.904	0	317.70	0	5.8250	0	33.9860	0	26.777	0	314.795	0	58.0	4	19.1	4	-1E+10	1	-1E+10	1	-1E+10	1	-1E+10	1	-1E+10	1	-1E+10	1
4902663	31	C	06/06/2024	03:13	-127.946	47.904	0	318.60	0	5.8080	0	33.9860	0	26.779	0	315.686	0	57.7	4	19.0	4	-1E+10	1	-1E+10	1	-1E+10	1	-1E+10	1	-1E+10	1	-1E+10	1
4902663	31	C	06/06/2024	03:13	-127.946	47.904	0	319.60	0	5.7730	0	33.9860	0	26.783	0	316.676	0	57.5	4	18.9	4	-1E+10	1	-1E+10	1	-1E+10	1	-1E+10	1	-1E+10	1	-1E+10	1
4902663	31	C	06/06/2024	03:13	-127.946	47.904	0	320.90	0	5.7660	0	33.9860	0	26.784	0	317.963	0	57.1	4	18.8	4	-1E+10	1	-1E+10	1	-1E+10	1	-1E+10	1	-1E+10	1	-1E+10	1
4902663	31	C	06/06/2024	03:13	-127.946	47.904	0	322.40	0	5.7670	0	33.9890	0	26.786	0	319.448	0	56.8	4	18.7	4	-1E+10	1	-1E+10	1	-1E+10	1	-1E+10	1	-1E+10	1	-1E+10	1
4902663	31	C	06/06/2024	03:13	-127.946	47.904	0	323.30	0	5.7600	0	33.9890	0	26.787	0	320.339	0	56.6	4	18.6	4	-1E+10	1	-1E+10	1	-1E+10	1	-1E+10	1	-1E+10	1	-1E+10	1
4902663	31	C	06/06/2024	03:13	-127.946	47.904	0	324.30	0	5.7500	0	33.9880	0	26.788	0	321.329	0	56.5	4	18.6	4	-1E+10	1	-1E+10	1	-1E+10	1	-1E+10	1	-1E+10	1	-1E+10	1
4902663	31	C	06/06/2024	03:13	-127.946	47.904	0	325.20	0	5.7350	0	33.9910	0	26.792	0	322.220	0	56.2	4	18.5	4	-1E+10	1	-1E+10	1	-1E+10	1	-1E+10	1	-1E+10	1	-1E+10	1
4902663	31	C	06/06/2024	03:13	-127.946	47.904	0	326.20	0	5.7350	0	33.9890	0	26.790	0	323.210	0	56.1	4	18.4	4	-1E+10	1	-1E+10	1	-1E+10	1	-1E+10	1	-1E+10	1	-1E+10	1
4902663	31	C	06/06/2024	03:13	-127.946	47.904	0	327.10	0	5.7370	0	33.9920	0	26.792	0	324.101	0	55.9	4	18.4	4	-1E+10	1	-1E+10	1	-1E+10	1	-1E+10	1	-1E+10	1	-1E+10	1
4902663	31	C	06/06/2024	03:13	-127.946	47.904	0	328.10	0	5.7220	0	33.9920	0	26.794	0	325.092	0	55.7	4	18.3	4	-1E+10	1	-1E+10	1	-1E+10	1	-1E+10	1	-1E+10	1	-1E+10	1
4902663	31	C	06/06/2024	03:13	-127.946	47.904	0	329.00	0	5.6970	0	33.9910	0	26.796	0	325.983	0	55.5	4	18.2	4	-1E+10	1	-1E+10	1	-1E+10	1	-1E+10	1	-1E+10	1	-1E+10	1
4902663	31	C	06/06/2024	03:13	-127.946	47.904	0	330.00	0	5.6930	0	33.9910	0	26.797	0	326.973	0	55.2	4	18.1	4	-1E+10	1	-1E+10	1	-1E+10	1	-1E+10	1	-1E+10	1	-1E+10	1
4902663	31	C	06/06/2024	03:13	-127.946	47.904	0	330.90	0	5.6910	0	33.9920	0	26.798	0	327.864	0	55.0	4	18.0	4	-1E+10	1	-1E+10	1	-1E+10	1	-1E+10	1	-1E+10	1	-1E+10	1
4902663	31	C	06/06/2024	03:13	-127.946	47.904	0	331.90	0	5.6900	0	33.9920	0	26.798	0	328.854	0	54.8	4	18.0	4	-1E+10	1	-1E+10	1	-1E+10	1	-1E+10	1	-1E+10	1	-1E+10	1
4902663	31	C	06/06/2024	03:13	-127.946	47.904	0	332.80	0	5.6870	0	33.9930	0	26.799	0	329.745	0	54.5	4	17.9	4	-1E+10	1	-1E+10	1	-1E+10	1	-1E+10	1	-1E+10	1	-1E+10	1
4902663	31	C	06/06/2024	03:13	-127.946	47.904	0	333.80	0	5.6850	0	33.9940	0	26.800	0	330.735	0	54.2	4	17.8	4	-1E+10	1	-1E+10	1	-1E+10	1	-1E+10	1	-1E+10	1	-1E+10	1
4902663	31	C	06/06/2024	03:13	-127.946	47.904	0	334.80	0	5.6820	0	33.9950	0	26.801	0	331.725	0	54.1	4	17.8	4	-1E+10	1	-1E+10	1	-1E+10	1	-1E+10	1	-1E+10	1	-1E+10	1
4902663	31	C	06/06/2024	03:13	-127.946	47.904	0	335.80	0	5.6920	0	33.9990	0	26.803	0	332.715	0	54.1	4	17.8	4	-1E+10	1	-1E+10	1	-1E+10	1	-1E+10	1	-1E+10	1	-1E+10	1
4902663	31	C	06/06/2024	03:13	-127.946	47.904	0	336.70	0	5.6810	0	34.0000	0	26.806	0	333.606	0	54.1	4	17.7	4	-1E+10	1	-1E+10	1	-1E+10	1	-1E+10	1	-1E+10	1	-1E+10	1
4902663	31	C	06/06/2024	03:13	-127.946	47.904	0	337.70	0	5.6350	0	33.9990	0	26.810	0	334.596	0	54.0	4	17.7	4	-1E+10	1	-1E+10	1	-1E+10	1	-1E+10	1	-1E+10	1	-1E+10	1
4902663	31	C	06/06/2024	03:13	-127.946	47.904	0	338.70	0	5.6280	0	33.9950	0	26.808	0	335.586	0	53.8	4	17.6	4	-1E+10	1	-1E+10	1	-1E+10	1	-1E+10	1	-1E+10	1	-1E+10	1
4902663	31	C	06/06/2024	03:13	-127.946	47.904	0	339.70	0	5.6290	0	33.9960	0	26.809	0	336.576	0	53.5	4	17.5	4	-1E+10	1	-1E+10	1	-1E+10	1	-1E+10	1	-1E+10	1	-1E+10	1
4902663	31	C	06/06/2024	03:13	-127.946	47.904	0	340.70	0	5.6280	0	33.9960	0	26.809	0	337.566	0	53.2	4	17.4	4	-1E+10	1	-1E+10	1	-1E+10	1	-1E+10	1	-1E+10	1	-1E+10	1
4902663	31	C	06/06/2024	03:13	-127.946	47.904	0	341.70	0	5.6240	0	33.9960	0	26.809	0	338.556	0	52.9	4	17.3	4	-1E+10	1	-1E+10	1	-1E+10	1	-1E+10	1	-1E+10	1	-1E+10	1
4902663	31	C	06/06/2024	03:13	-127.946	47.904	0	342.70	0	5.6090	0	33.9910	0	26.807	0	339.546	0	52.5	4	17.2	4	-1E+10	1	-1E+10	1	-1E+10	1	-1E+10	1	-1E+10	1	-1E+10	1
4902663	31	C	06/06/2024	03:13	-127.946	47.904	0	343.70	0	5.5970	0	33.9940	0	26.811	0	340.536	0	51.9	4	17.0	4	-1E+10	1	-1E+10	1	-1E+10	1	-1E+10	1	-1E+10	1	-1E+10	1
4902663	31	C	06/06/2024	03:13	-127.946	47.904	0	344.70	0	5.5760	0	33.9990	0	26.818	0	341.526	0	51.3	4	16.8	4	-1E+10	1	-1E+10	1	-1E+10	1	-1E+10	1	-1E+10	1	-1E+10	1
4902663	31	C	06/06/2024	03:13	-127.946	47.904	0	345.70	0	5.5690	0	33.9970	0	26.817	0	342.516	0	50.7	4	16.6	4	-1E+10	1	-1E+10	1	-1E+10	1	-1E+10	1	-1E+10	1	-1E+10	1
4902663	31	C	06/06/2024	03:13	-127.946	47.904	0	346.70	0	5.5680	0	33.9980	0	26.818	0	343.506	0	50.1	4	16.4	4	-1E+10	1	-1E+10	1	-1E+10	1	-1E+10	1	-1E+10	1	-1E+10	1
4902663	31	C	06/06/2024	03:13	-127.946	47.904	0	347.70	0	5.5660	0	33.9990	0	26.819	0	344.496	0	49.6	4	16.2	4	-1E+10	1	-1E+10	1	-1E+10	1	-1E+10	1	-1E+10	1	-1E+10	1
4902663	31	C	06/06/2024	03:13	-127.946	47.904	0	348.70	0	5.5630	0	34.0010	0	26.821	0	345.485	0	49.1	4	16.1	4	-1E+10	1	-1E+10	1	-1E+10	1	-1E+10	1	-1E+10	1	-1E+10	1
4902663	31	C	06/06/2024	03:13	-127.946	47.904	0	349.70	0	5.5690	0	34.0030	0	26.822	0	346.475	0	48.6	4	15.9	4	-1E+10	1	-1E+10	1	-1E+10	1	-1E+10	1	-1E+10	1	-1E+10	1
4902663	31	C	06/06/2024	03:13	-127.946	47.904	0	352.70	0	5.5930	0	34.0120	0	26.826	0	349.445	0	47.5	4	15.6	4	-1E+10	1	-1E+10	1	-1E+10	1	-1E+10	1	-1E+10	1	-1E+10	1
4902663	31	C	06/06/2024	03:13	-127.946	47.904	0	357.70	0	5.6140	0	34.0190	0	26.829	0	354.395	0	46.6	4	15.3	4	-1E+10	1	-1E+10	1	-1E+10	1	-1E+10	1	-1E+10	1	-1E+10	1
4902663	31	C	06/06/2024	03:13	-127.946	47.904	0	362.90	0	5.5930	0	34.0200	0	26.832	0	359.542	0	45.9	4	15.0	4	-1E+10	1	-1E+10	1	-1E+10	1	-1E+10	1	-1E+10	1	-1E+10	1
4902663	31	C	06/06/2024	03:13	-127.946	47.904	0	368.20	0	5.5550	0	34.0220	0	26.838	0	364.789	0	44.6	4	14.6	4	-1E+10	1	-1E+10	1	-1E+10	1	-1E+10	1	-1E+10	1	-1E+10	1
4902663	31	C	06/06/2024	03:13	-127.946	47.904	0	372.90	0	5.5210	0	34.0260	0	26.846	0	369.441	0	43.7	4	14.3	4	-1E+10	1	-1E+10	1	-1E+10	1	-1E+10	1	-1E+10	1	-1E+10	1
4902663	31	C	06/06/2024	03:13	-127.946	47.904	0	377.60	0	5.4870	0	34.0280	0	26.851	0	374.093	0	42.9	4	14.0	4	-1E+10	1	-1E+10	1	-1E+10	1	-1E+10	1	-1E+10	1	-1E+10	1
4902663	31	C	06/06/2024	03:13	-127.946	47.904	0	382.80	0	5.4740	0	34.0330	0	26.857	0	379.240	0	41.9	4	13.7	4	-1E+10	1	-1E+10	1	-1E+10	1	-1E+10	1	-1E+10	1	-1E+10	1
4902663	31	C	06/06/2024	03:13	-127.946	47.904	0	388.00	0	5.4410	0	34.0360	0	26.863	0	384.387	0	41.2	4	13.4	4	-1E+10	1	-1E+10	1	-1E+10	1	-1E+10	1	-1E+10	1	-1E+10	1
4902663	31	C	06/06/2024	03:13	-127.946	47.904	0	393.10	0	5.3970	0	34.0380	0	26.870	0	389.434	0	40.6	4	13.2	4	-1E+10	1	-1E+10	1	-1E+10	1	-1E+10	1	-1E+10	1	-1E+10	1
4902663	31	C	06/06/2024	03:13	-127.946	47.904	0	398.30	0	5.3550	0	34.0400	0	26.877	0	394.581	0	39.8	4	13.0	4	-1E+10	1	-1E+10	1	-1E+10	1	-1E+10	1	-1E+10	1	-1E+10	1
4902663	31	C	06/06/2024	03:13	-127.946	47.904	0	402.90	0	5.3350	0	34.0430	0	26.882	0	399.134	0	39.1	4	12.7	4	-1E+10	1	-1E+10	1	-1E+10	1	-1E+10	1	-1E+10	1	-1E+10	1
4902663	31	C	06/06/2024	03:13	-127.946	47.904	0	407.70	0	5.3180	0	34.0480	0	26.888	0	403.884	0	38.4	4	12.5	4	-1E+10	1	-1E+10	1	-1E+10	1	-1E+10	1	-1E+10	1	-1E+10	1
4902663	31	C	06/06/2024	03:13	-127.946	47.904	0	412.80	0	5.2950	0	34.0480	0	26.890	0	408.931	0	38.0	4	12.4	4	-1E+10	1	-1E+10	1	-1E+10	1	-1E+10	1	-1E+10	1	-1E+10	1
4902663	31	C	06/06/2024	03:13	-127.946	47.904	0	418.10	0	5.2760	0	34.0490	0	26.893	0	414.176	0	37.4	4	12.2	4	-1E+10	1	-1E+10	1	-1E+10	1	-1E+10	1	-1E+10	1	-1E+10	1
4902663	31	C	06/06/2024	03:13	-127.946	47.904	0	423.10	0	5.2470	0	34.0500	0	26.898	0	419.124	0	36.4	4	11.8	4	-1E+10	1	-1E+10	1	-1E+10	1	-1E+10	1	-1E+10	1	-1E+10	1
4902663	31	C	06/06/2024	03:13	-127.946	47.904	0	427.80	0	5.2230	0	34.0550	0	26.904	0	423.775	0	35.0	4	11.4	4	-1E+10	1	-1E+10	1	-1E+10	1	-1E+10	1	-1E+10	1	-1E+10	1
4902663	31	C	06/06/2024	03:13	-127.946	47.904	0	432.70	0	5.2010	0	34.0630	0	26.913	0	428.624	0	34.0	4	11.0	4	-1E+10	1	-1E+10	1	-1E+10	1	-1E+10	1	-1E+10	1	-1E+10	1
4902663	31	C	06/06/2024	03:13	-127.946	47.904	0	437.60	0	5.1590	0	34.0670	0	26.921	0	433.473	0	33.2	4	10.8	4	-1E+10	1	-1E+10	1	-1E+10	1	-1E+10	1	-1E+10	1	-1E+10	1
4902663	31	C	06/06/2024	03:13	-127.946	47.904	0	442.70	0	5.1010	0	34.0690	0	26.930	0	438.520	0	33.0	4	10.7	4	-1E+10	1	-1E+10	1	-1E+10	1	-1E+10	1	-1E+10	1	-1E+10	1
4902663	31	C	06/06/2024	03:13	-127.946	47.904	0	447.80	0	5.0900	0	34.0680	0	26.930	0	443.566	0	32.7	4	10.6	4	-1E+10	1	-1E+10	1	-1E+10	1	-1E+10	1	-1E+10	1	-1E+10	1
4902663	31	C	06/06/2024	03:13	-127.946	47.904	0	453.00	0	5.0540	0	34.0680	0	26.934	0	448.711	0	32.3	4	10.5	4	-1E+10	1	-1E+10	1	-1E+10	1	-1E+10	1	-1E+10	1	-1E+10	1
4902663	31	C	06/06/2024	03:13	-127.946	47.904	0	458.00	0	5.0050	0	34.0680	0	26.940	0	453.658	0	32.0	4	10.3	4	-1E+10	1	-1E+10	1	-1E+10	1	-1E+10	1	-1E+10	1	-1E+10	1
4902663	31	C	06/06/2024	03:13	-127.946	47.904	0	463.00	0	4.9740	0	34.0690	0	26.944	0	458.605	0	31.4	4	10.1	4	-1E+10	1	-1E+10	1	-1E+10	1	-1E+10	1	-1E+10	1	-1E+10	1
4902663	31	C	06/06/2024	03:13	-127.946	47.904	0	468.00	0	4.9620	0	34.0720	0	26.948	0	463.552	0	30.9	4	10.0	4	-1E+10	1	-1E+10	1	-1E+10	1	-1E+10	1	-1E+10	1	-1E+10	1
4902663	31	C	06/06/2024	03:13	-127.946	47.904	0	472.70	0	4.9380	0	34.0720	0	26.951	0	468.202	0	30.3	4	9.8	4	-1E+10	1	-1E+10	1	-1E+10	1	-1E+10	1	-1E+10	1	-1E+10	1
4902663	31	C	06/06/2024	03:13	-127.946	47.904	0	477.80	0	4.9290	0	34.0750	0	26.954	0	473.248	0	29.5	4	9.5	4	-1E+10	1	-1E+10	1	-1E+10	1	-1E+10	1	-1E+10	1	-1E+10	1
4902663	31	C	06/06/2024	03:13	-127.946	47.904	0	482.90	0	4.9140	0	34.0790	0	26.959	0	478.294	0	28.6	4	9.2	4	-1E+10	1	-1E+10	1	-1E+10	1	-1E+10	1	-1E+10	1	-1E+10	1
4902663	31	C	06/06/2024	03:13	-127.946	47.904	0	487.90	0	4.9010	0	34.0840	0	26.965	0	483.240	0	27.7	4	8.9	4	-1E+10	1	-1E+10	1	-1E+10	1	-1E+10	1	-1E+10	1	-1E+10	1
4902663	31	C	06/06/2024	03:13	-127.946	47.904	0	492.90	0	4.8950	0	34.0890	0	26.969	0	488.187	0	27.0	4	8.7	4	-1E+10	1	-1E+10	1	-1E+10	1	-1E+10	1	-1E+10	1	-1E+10	1
4902663	31	C	06/06/2024	03:13	-127.946	47.904	0	497.80	0	4.8680	0	34.0920	0	26.975	0	493.034	0	26.2	4	8.4	4	-1E+10	1	-1E+10	1	-1E+10	1	-1E+10	1	-1E+10	1	-1E+10	1
4902663	31	C	06/06/2024	03:13	-127.946	47.904	0	503.10	0	4.8620	0	34.0960	0	26.979	0	498.277	0	25.1	4	8.1	4	-1E+10	1	-1E+10	1	-1E+10	1	-1E+10	1	-1E+10	1	-1E+10	1
4902663	31	C	06/06/2024	03:13	-127.946	47.904	0	507.80	0	4.8540	0	34.1020	0	26.984	0	502.926	0	24.2	4	7.8	4	-1E+10	1	-1E+10	1	-1E+10	1	-1E+10	1	-1E+10	1	-1E+10	1
4902663	31	C	06/06/2024	03:13	-127.946	47.904	0	512.60	0	4.8360	0	34.1070	0	26.990	0	507.674	0	23.1	4	7.4	4	-1E+10	1	-1E+10	1	-1E+10	1	-1E+10	1	-1E+10	1	-1E+10	1
4902663	31	C	06/06/2024	03:13	-127.946	47.904	0	517.80	0	4.8310	0	34.1150	0	26.997	0	512.818	0	22.0	4	7.1	4	-1E+10	1	-1E+10	1	-1E+10	1	-1E+10	1	-1E+10	1	-1E+10	1
4902663	31	C	06/06/2024	03:13	-127.946	47.904	0	523.00	0	4.8310	0	34.1230	0	27.004	0	517.961	0	20.9	4	6.7	4	-1E+10	1	-1E+10	1	-1E+10	1	-1E+10	1	-1E+10	1	-1E+10	1
4902663	31	C	06/06/2024	03:13	-127.946	47.904	0	527.80	0	4.8310	0	34.1320	0	27.011	0	522.709	0	20.0	4	6.4	4	-1E+10	1	-1E+10	1	-1E+10	1	-1E+10	1	-1E+10	1	-1E+10	1
4902663	31	C	06/06/2024	03:13	-127.946	47.904	0	532.60	0	4.8210	0	34.1370	0	27.016	0	527.457	0	19.2	4	6.2	4	-1E+10	1	-1E+10	1	-1E+10	1	-1E+10	1	-1E+10	1	-1E+10	1
4902663	31	C	06/06/2024	03:13	-127.946	47.904	0	537.90	0	4.7960	0	34.1440	0	27.025	0	532.699	0	18.4	4	5.9	4	-1E+10	1	-1E+10	1	-1E+10	1	-1E+10	1	-1E+10	1	-1E+10	1
4902663	31	C	06/06/2024	03:13	-127.946	47.904	0	543.20	0	4.7720	0	34.1470	0	27.030	0	537.940	0	17.9	4	5.7	4	-1E+10	1	-1E+10	1	-1E+10	1	-1E+10	1	-1E+10	1	-1E+10	1
4902663	31	C	06/06/2024	03:13	-127.946	47.904	0	548.00	0	4.7570	0	34.1510	0	27.034	0	542.688	0	17.2	4	5.5	4	-1E+10	1	-1E+10	1	-1E+10	1	-1E+10	1	-1E+10	1	-1E+10	1
4902663	31	C	06/06/2024	03:13	-127.946	47.904	0	552.90	0	4.7460	0	34.1560	0	27.040	0	547.534	0	16.7	4	5.4	4	-1E+10	1	-1E+10	1	-1E+10	1	-1E+10	1	-1E+10	1	-1E+10	1
4902663	31	C	06/06/2024	03:13	-127.946	47.904	0	557.90	0	4.7290	0	34.1600	0	27.045	0	552.479	0	16.3	4	5.2	4	-1E+10	1	-1E+10	1	-1E+10	1	-1E+10	1	-1E+10	1	-1E+10	1
4902663	31	C	06/06/2024	03:13	-127.946	47.904	0	562.80	0	4.6960	0	34.1610	0	27.049	0	557.324	0	15.9	4	5.1	4	-1E+10	1	-1E+10	1	-1E+10	1	-1E+10	1	-1E+10	1	-1E+10	1
4902663	31	C	06/06/2024	03:13	-127.946	47.904	0	567.70	0	4.6710	0	34.1640	0	27.054	0	562.170	0	15.4	4	4.9	4	-1E+10	1	-1E+10	1	-1E+10	1	-1E+10	1	-1E+10	1	-1E+10	1
4902663	31	C	06/06/2024	03:13	-127.946	47.904	0	572.60	0	4.6550	0	34.1680	0	27.059	0	567.016	0	14.9	4	4.8	4	-1E+10	1	-1E+10	1	-1E+10	1	-1E+10	1	-1E+10	1	-1E+10	1
4902663	31	C	06/06/2024	03:13	-127.946	47.904	0	578.00	0	4.6410	0	34.1750	0	27.067	0	572.356	0	14.4	4	4.6	4	-1E+10	1	-1E+10	1	-1E+10	1	-1E+10	1	-1E+10	1	-1E+10	1
4902663	31	C	06/06/2024	03:13	-127.946	47.904	0	583.00	0	4.6300	0	34.1790	0	27.071	0	577.300	0	14.0	4	4.5	4	-1E+10	1	-1E+10	1	-1E+10	1	-1E+10	1	-1E+10	1	-1E+10	1
4902663	31	C	06/06/2024	03:13	-127.946	47.904	0	587.90	0	4.6110	0	34.1830	0	27.076	0	582.145	0	13.7	4	4.4	4	-1E+10	1	-1E+10	1	-1E+10	1	-1E+10	1	-1E+10	1	-1E+10	1
4902663	31	C	06/06/2024	03:13	-127.946	47.904	0	593.10	0	4.6000	0	34.1860	0	27.080	0	587.287	0	13.4	4	4.3	4	-1E+10	1	-1E+10	1	-1E+10	1	-1E+10	1	-1E+10	1	-1E+10	1
4902663	31	C	06/06/2024	03:13	-127.946	47.904	0	597.80	0	4.5740	0	34.1890	0	27.085	0	591.934	0	13.1	4	4.2	4	-1E+10	1	-1E+10	1	-1E+10	1	-1E+10	1	-1E+10	1	-1E+10	1
4902663	31	C	06/06/2024	03:13	-127.946	47.904	0	602.50	0	4.5590	0	34.1910	0	27.088	0	596.581	0	12.9	4	4.1	4	-1E+10	1	-1E+10	1	-1E+10	1	-1E+10	1	-1E+10	1	-1E+10	1
4902663	31	C	06/06/2024	03:13	-127.946	47.904	0	607.80	0	4.5400	0	34.1920	0	27.091	0	601.822	0	12.7	4	4.1	4	-1E+10	1	-1E+10	1	-1E+10	1	-1E+10	1	-1E+10	1	-1E+10	1
4902663	31	C	06/06/2024	03:13	-127.946	47.904	0	613.10	0	4.5000	0	34.1970	0	27.100	0	607.062	0	12.6	4	4.0	4	-1E+10	1	-1E+10	1	-1E+10	1	-1E+10	1	-1E+10	1	-1E+10	1
4902663	31	C	06/06/2024	03:13	-127.946	47.904	0	617.90	0	4.4650	0	34.1960	0	27.103	0	611.807	0	12.5	4	4.0	4	-1E+10	1	-1E+10	1	-1E+10	1	-1E+10	1	-1E+10	1	-1E+10	1
4902663	31	C	06/06/2024	03:13	-127.946	47.904	0	622.80	0	4.4050	0	34.1940	0	27.108	0	616.652	0	11.8	4	3.8	4	-1E+10	1	-1E+10	1	-1E+10	1	-1E+10	1	-1E+10	1	-1E+10	1
4902663	31	C	06/06/2024	03:13	-127.946	47.904	0	627.80	0	4.4350	0	34.2060	0	27.114	0	621.595	0	11.3	4	3.6	4	-1E+10	1	-1E+10	1	-1E+10	1	-1E+10	1	-1E+10	1	-1E+10	1
4902663	31	C	06/06/2024	03:13	-127.946	47.904	0	632.80	0	4.4360	0	34.2090	0	27.116	0	626.538	0	11.1	4	3.5	4	-1E+10	1	-1E+10	1	-1E+10	1	-1E+10	1	-1E+10	1	-1E+10	1
4902663	31	C	06/06/2024	03:13	-127.946	47.904	0	637.80	0	4.4140	0	34.2110	0	27.120	0	631.481	0	10.7	4	3.4	4	-1E+10	1	-1E+10	1	-1E+10	1	-1E+10	1	-1E+10	1	-1E+10	1
4902663	31	C	06/06/2024	03:13	-127.946	47.904	0	642.90	0	4.4110	0	34.2190	0	27.127	0	636.523	0	10.4	4	3.3	4	-1E+10	1	-1E+10	1	-1E+10	1	-1E+10	1	-1E+10	1	-1E+10	1
4902663	31	C	06/06/2024	03:13	-127.946	47.904	0	647.90	0	4.4020	0	34.2220	0	27.130	0	641.465	0	10.2	4	3.3	4	-1E+10	1	-1E+10	1	-1E+10	1	-1E+10	1	-1E+10	1	-1E+10	1
4902663	31	C	06/06/2024	03:13	-127.946	47.904	0	652.90	0	4.3970	0	34.2230	0	27.132	0	646.408	0	10.1	4	3.2	4	-1E+10	1	-1E+10	1	-1E+10	1	-1E+10	1	-1E+10	1	-1E+10	1
4902663	31	C	06/06/2024	03:13	-127.946	47.904	0	657.90	0	4.3900	0	34.2240	0	27.133	0	651.351	0	9.9	4	3.2	4	-1E+10	1	-1E+10	1	-1E+10	1	-1E+10	1	-1E+10	1	-1E+10	1
4902663	31	C	06/06/2024	03:13	-127.946	47.904	0	662.90	0	4.3740	0	34.2280	0	27.138	0	656.293	0	9.7	4	3.1	4	-1E+10	1	-1E+10	1	-1E+10	1	-1E+10	1	-1E+10	1	-1E+10	1
4902663	31	C	06/06/2024	03:13	-127.946	47.904	0	667.80	0	4.3540	0	34.2320	0	27.144	0	661.136	0	9.5	4	3.0	4	-1E+10	1	-1E+10	1	-1E+10	1	-1E+10	1	-1E+10	1	-1E+10	1
4902663	31	C	06/06/2024	03:13	-127.946	47.904	0	672.60	0	4.3420	0	34.2340	0	27.146	0	665.881	0	9.3	4	3.0	4	-1E+10	1	-1E+10	1	-1E+10	1	-1E+10	1	-1E+10	1	-1E+10	1
4902663	31	C	06/06/2024	03:13	-127.946	47.904	0	677.90	0	4.3260	0	34.2380	0	27.151	0	671.119	0	9.1	4	2.9	4	-1E+10	1	-1E+10	1	-1E+10	1	-1E+10	1	-1E+10	1	-1E+10	1
4902663	31	C	06/06/2024	03:13	-127.946	47.904	0	683.20	0	4.3120	0	34.2440	0	27.158	0	676.358	0	9.0	4	2.8	4	-1E+10	1	-1E+10	1	-1E+10	1	-1E+10	1	-1E+10	1	-1E+10	1
4902663	31	C	06/06/2024	03:13	-127.946	47.904	0	688.10	0	4.3070	0	34.2460	0	27.160	0	681.200	0	8.8	4	2.8	4	-1E+10	1	-1E+10	1	-1E+10	1	-1E+10	1	-1E+10	1	-1E+10	1
4902663	31	C	06/06/2024	03:13	-127.946	47.904	0	693.00	0	4.2980	0	34.2490	0	27.163	0	686.043	0	8.7	4	2.8	4	-1E+10	1	-1E+10	1	-1E+10	1	-1E+10	1	-1E+10	1	-1E+10	1
4902663	31	C	06/06/2024	03:13	-127.946	47.904	0	697.80	0	4.2910	0	34.2520	0	27.166	0	690.787	0	8.6	4	2.7	4	-1E+10	1	-1E+10	1	-1E+10	1	-1E+10	1	-1E+10	1	-1E+10	1
4902663	31	C	06/06/2024	03:13	-127.946	47.904	0	702.60	0	4.2760	0	34.2540	0	27.170	0	695.531	0	8.5	4	2.7	4	-1E+10	1	-1E+10	1	-1E+10	1	-1E+10	1	-1E+10	1	-1E+10	1
4902663	31	C	06/06/2024	03:13	-127.946	47.904	0	707.90	0	4.2590	0	34.2560	0	27.173	0	700.769	0	8.4	4	2.7	4	-1E+10	1	-1E+10	1	-1E+10	1	-1E+10	1	-1E+10	1	-1E+10	1
4902663	31	C	06/06/2024	03:13	-127.946	47.904	0	713.30	0	4.2550	0	34.2590	0	27.176	0	706.105	0	8.2	4	2.6	4	-1E+10	1	-1E+10	1	-1E+10	1	-1E+10	1	-1E+10	1	-1E+10	1
4902663	31	C	06/06/2024	03:13	-127.946	47.904	0	718.20	0	4.2490	0	34.2620	0	27.179	0	710.947	0	8.1	4	2.6	4	-1E+10	1	-1E+10	1	-1E+10	1	-1E+10	1	-1E+10	1	-1E+10	1
4902663	31	C	06/06/2024	03:13	-127.946	47.904	0	723.10	0	4.2380	0	34.2640	0	27.182	0	715.789	0	8.0	4	2.6	4	-1E+10	1	-1E+10	1	-1E+10	1	-1E+10	1	-1E+10	1	-1E+10	1
4902663	31	C	06/06/2024	03:13	-127.946	47.904	0	728.10	0	4.2190	0	34.2670	0	27.186	0	720.730	0	7.9	4	2.5	4	-1E+10	1	-1E+10	1	-1E+10	1	-1E+10	1	-1E+10	1	-1E+10	1
4902663	31	C	06/06/2024	03:13	-127.946	47.904	0	733.10	0	4.2110	0	34.2690	0	27.189	0	725.671	0	7.8	4	2.5	4	-1E+10	1	-1E+10	1	-1E+10	1	-1E+10	1	-1E+10	1	-1E+10	1
4902663	31	C	06/06/2024	03:13	-127.946	47.904	0	738.10	0	4.1860	0	34.2720	0	27.194	0	730.612	0	7.7	4	2.4	4	-1E+10	1	-1E+10	1	-1E+10	1	-1E+10	1	-1E+10	1	-1E+10	1
4902663	31	C	06/06/2024	03:13	-127.946	47.904	0	743.10	0	4.1730	0	34.2750	0	27.197	0	735.552	0	7.6	4	2.4	4	-1E+10	1	-1E+10	1	-1E+10	1	-1E+10	1	-1E+10	1	-1E+10	1
4902663	31	C	06/06/2024	03:13	-127.946	47.904	0	748.20	0	4.1680	0	34.2810	0	27.203	0	740.591	0	7.5	4	2.4	4	-1E+10	1	-1E+10	1	-1E+10	1	-1E+10	1	-1E+10	1	-1E+10	1
4902663	31	C	06/06/2024	03:13	-127.946	47.904	0	753.20	0	4.1590	0	34.2840	0	27.206	0	745.531	0	7.4	4	2.4	4	-1E+10	1	-1E+10	1	-1E+10	1	-1E+10	1	-1E+10	1	-1E+10	1
4902663	31	C	06/06/2024	03:13	-127.946	47.904	0	758.30	0	4.1430	0	34.2870	0	27.210	0	750.570	0	7.4	4	2.3	4	-1E+10	1	-1E+10	1	-1E+10	1	-1E+10	1	-1E+10	1	-1E+10	1
4902663	31	C	06/06/2024	03:13	-127.946	47.904	0	763.00	0	4.1370	0	34.2900	0	27.213	0	755.214	0	7.3	4	2.3	4	-1E+10	1	-1E+10	1	-1E+10	1	-1E+10	1	-1E+10	1	-1E+10	1
4902663	31	C	06/06/2024	03:13	-127.946	47.904	0	767.70	0	4.1250	0	34.2920	0	27.216	0	759.857	0	7.3	4	2.3	4	-1E+10	1	-1E+10	1	-1E+10	1	-1E+10	1	-1E+10	1	-1E+10	1
4902663	31	C	06/06/2024	03:13	-127.946	47.904	0	772.90	0	4.1100	0	34.2940	0	27.219	0	764.995	0	7.2	4	2.3	4	-1E+10	1	-1E+10	1	-1E+10	1	-1E+10	1	-1E+10	1	-1E+10	1
4902663	31	C	06/06/2024	03:13	-127.946	47.904	0	778.20	0	4.0880	0	34.2970	0	27.224	0	770.231	0	7.1	4	2.3	4	-1E+10	1	-1E+10	1	-1E+10	1	-1E+10	1	-1E+10	1	-1E+10	1
4902663	31	C	06/06/2024	03:13	-127.946	47.904	0	783.30	0	4.0710	0	34.3000	0	27.228	0	775.269	0	7.1	4	2.3	4	-1E+10	1	-1E+10	1	-1E+10	1	-1E+10	1	-1E+10	1	-1E+10	1
4902663	31	C	06/06/2024	03:13	-127.946	47.904	0	788.10	0	4.0590	0	34.3020	0	27.231	0	780.011	0	7.1	4	2.2	4	-1E+10	1	-1E+10	1	-1E+10	1	-1E+10	1	-1E+10	1	-1E+10	1
4902663	31	C	06/06/2024	03:13	-127.946	47.904	0	793.00	0	4.0430	0	34.3050	0	27.235	0	784.851	0	7.0	4	2.2	4	-1E+10	1	-1E+10	1	-1E+10	1	-1E+10	1	-1E+10	1	-1E+10	1
4902663	31	C	06/06/2024	03:13	-127.946	47.904	0	797.90	0	4.0280	0	34.3090	0	27.240	0	789.692	0	7.0	4	2.2	4	-1E+10	1	-1E+10	1	-1E+10	1	-1E+10	1	-1E+10	1	-1E+10	1
4902663	31	C	06/06/2024	03:13	-127.946	47.904	0	803.00	0	4.0170	0	34.3120	0	27.243	0	794.730	0	7.0	4	2.2	4	-1E+10	1	-1E+10	1	-1E+10	1	-1E+10	1	-1E+10	1	-1E+10	1
4902663	31	C	06/06/2024	03:13	-127.946	47.904	0	808.20	0	3.9990	0	34.3140	0	27.247	0	799.866	0	7.0	4	2.2	4	-1E+10	1	-1E+10	1	-1E+10	1	-1E+10	1	-1E+10	1	-1E+10	1
4902663	31	C	06/06/2024	03:13	-127.946	47.904	0	813.00	0	3.9940	0	34.3160	0	27.249	0	804.607	0	7.0	4	2.2	4	-1E+10	1	-1E+10	1	-1E+10	1	-1E+10	1	-1E+10	1	-1E+10	1
4902663	31	C	06/06/2024	03:13	-127.946	47.904	0	817.90	0	3.9850	0	34.3180	0	27.251	0	809.447	0	6.9	4	2.2	4	-1E+10	1	-1E+10	1	-1E+10	1	-1E+10	1	-1E+10	1	-1E+10	1
4902663	31	C	06/06/2024	03:13	-127.946	47.904	0	822.90	0	3.9710	0	34.3200	0	27.255	0	814.386	0	6.9	4	2.2	4	-1E+10	1	-1E+10	1	-1E+10	1	-1E+10	1	-1E+10	1	-1E+10	1
4902663	31	C	06/06/2024	03:13	-127.946	47.904	0	827.90	0	3.9510	0	34.3230	0	27.259	0	819.324	0	6.9	4	2.2	4	-1E+10	1	-1E+10	1	-1E+10	1	-1E+10	1	-1E+10	1	-1E+10	1
4902663	31	C	06/06/2024	03:13	-127.946	47.904	0	833.10	0	3.9280	0	34.3280	0	27.265	0	824.460	0	6.8	4	2.2	4	-1E+10	1	-1E+10	1	-1E+10	1	-1E+10	1	-1E+10	1	-1E+10	1
4902663	31	C	06/06/2024	03:13	-127.946	47.904	0	837.80	0	3.9050	0	34.3310	0	27.270	0	829.102	0	6.8	4	2.2	4	-1E+10	1	-1E+10	1	-1E+10	1	-1E+10	1	-1E+10	1	-1E+10	1
4902663	31	C	06/06/2024	03:13	-127.946	47.904	0	842.90	0	3.8930	0	34.3330	0	27.273	0	834.139	0	6.9	4	2.2	4	-1E+10	1	-1E+10	1	-1E+10	1	-1E+10	1	-1E+10	1	-1E+10	1
4902663	31	C	06/06/2024	03:13	-127.946	47.904	0	848.20	0	3.8840	0	34.3360	0	27.276	0	839.373	0	6.8	4	2.2	4	-1E+10	1	-1E+10	1	-1E+10	1	-1E+10	1	-1E+10	1	-1E+10	1
4902663	31	C	06/06/2024	03:13	-127.946	47.904	0	852.90	0	3.8650	0	34.3380	0	27.280	0	844.015	0	6.8	4	2.2	4	-1E+10	1	-1E+10	1	-1E+10	1	-1E+10	1	-1E+10	1	-1E+10	1
4902663	31	C	06/06/2024	03:13	-127.946	47.904	0	857.70	0	3.8570	0	34.3400	0	27.282	0	848.755	0	6.9	4	2.2	4	-1E+10	1	-1E+10	1	-1E+10	1	-1E+10	1	-1E+10	1	-1E+10	1
4902663	31	C	06/06/2024	03:13	-127.946	47.904	0	862.90	0	3.8380	0	34.3430	0	27.287	0	853.890	0	6.9	4	2.2	4	-1E+10	1	-1E+10	1	-1E+10	1	-1E+10	1	-1E+10	1	-1E+10	1
4902663	31	C	06/06/2024	03:13	-127.946	47.904	0	868.20	0	3.8300	0	34.3450	0	27.289	0	859.124	0	6.9	4	2.2	4	-1E+10	1	-1E+10	1	-1E+10	1	-1E+10	1	-1E+10	1	-1E+10	1
4902663	31	C	06/06/2024	03:13	-127.946	47.904	0	873.00	0	3.8170	0	34.3460	0	27.291	0	863.864	0	6.9	4	2.2	4	-1E+10	1	-1E+10	1	-1E+10	1	-1E+10	1	-1E+10	1	-1E+10	1
4902663	31	C	06/06/2024	03:13	-127.946	47.904	0	877.80	0	3.8100	0	34.3490	0	27.294	0	868.604	0	6.9	4	2.2	4	-1E+10	1	-1E+10	1	-1E+10	1	-1E+10	1	-1E+10	1	-1E+10	1
4902663	31	C	06/06/2024	03:13	-127.946	47.904	0	883.00	0	3.7960	0	34.3510	0	27.297	0	873.739	0	7.0	4	2.2	4	-1E+10	1	-1E+10	1	-1E+10	1	-1E+10	1	-1E+10	1	-1E+10	1
4902663	31	C	06/06/2024	03:13	-127.946	47.904	0	888.30	0	3.7890	0	34.3520	0	27.299	0	878.972	0	7.0	4	2.2	4	-1E+10	1	-1E+10	1	-1E+10	1	-1E+10	1	-1E+10	1	-1E+10	1
4902663	31	C	06/06/2024	03:13	-127.946	47.904	0	893.10	0	3.7860	0	34.3540	0	27.301	0	883.711	0	7.0	4	2.2	4	-1E+10	1	-1E+10	1	-1E+10	1	-1E+10	1	-1E+10	1	-1E+10	1
4902663	31	C	06/06/2024	03:13	-127.946	47.904	0	897.90	0	3.7740	0	34.3560	0	27.304	0	888.451	0	7.1	4	2.2	4	-1E+10	1	-1E+10	1	-1E+10	1	-1E+10	1	-1E+10	1	-1E+10	1
4902663	31	C	06/06/2024	03:13	-127.946	47.904	0	902.70	0	3.7540	0	34.3580	0	27.307	0	893.190	0	7.2	4	2.2	4	-1E+10	1	-1E+10	1	-1E+10	1	-1E+10	1	-1E+10	1	-1E+10	1
4902663	31	C	06/06/2024	03:13	-127.946	47.904	0	908.00	0	3.7020	0	34.3560	0	27.311	0	898.423	0	7.2	4	2.3	4	-1E+10	1	-1E+10	1	-1E+10	1	-1E+10	1	-1E+10	1	-1E+10	1
4902663	31	C	06/06/2024	03:13	-127.946	47.904	0	913.20	0	3.6960	0	34.3600	0	27.315	0	903.557	0	7.2	4	2.3	4	-1E+10	1	-1E+10	1	-1E+10	1	-1E+10	1	-1E+10	1	-1E+10	1
4902663	31	C	06/06/2024	03:13	-127.946	47.904	0	917.90	0	3.6610	0	34.3600	0	27.318	0	908.197	0	7.3	4	2.3	4	-1E+10	1	-1E+10	1	-1E+10	1	-1E+10	1	-1E+10	1	-1E+10	1
4902663	31	C	06/06/2024	03:13	-127.946	47.904	0	922.70	0	3.6570	0	34.3640	0	27.322	0	912.936	0	7.4	4	2.3	4	-1E+10	1	-1E+10	1	-1E+10	1	-1E+10	1	-1E+10	1	-1E+10	1
4902663	31	C	06/06/2024	03:13	-127.946	47.904	0	928.00	0	3.6180	0	34.3640	0	27.325	0	918.168	0	7.4	4	2.3	4	-1E+10	1	-1E+10	1	-1E+10	1	-1E+10	1	-1E+10	1	-1E+10	1
4902663	31	C	06/06/2024	03:13	-127.946	47.904	0	933.20	0	3.6080	0	34.3670	0	27.329	0	923.301	0	7.5	4	2.3	4	-1E+10	1	-1E+10	1	-1E+10	1	-1E+10	1	-1E+10	1	-1E+10	1
4902663	31	C	06/06/2024	03:13	-127.946	47.904	0	938.10	0	3.5870	0	34.3680	0	27.332	0	928.138	0	7.6	4	2.4	4	-1E+10	1	-1E+10	1	-1E+10	1	-1E+10	1	-1E+10	1	-1E+10	1
4902663	31	C	06/06/2024	03:13	-127.946	47.904	0	943.00	0	3.5620	0	34.3690	0	27.335	0	932.976	0	7.6	4	2.4	4	-1E+10	1	-1E+10	1	-1E+10	1	-1E+10	1	-1E+10	1	-1E+10	1
4902663	31	C	06/06/2024	03:13	-127.946	47.904	0	947.90	0	3.5550	0	34.3700	0	27.336	0	937.813	0	7.7	4	2.4	4	-1E+10	1	-1E+10	1	-1E+10	1	-1E+10	1	-1E+10	1	-1E+10	1
4902663	31	C	06/06/2024	03:13	-127.946	47.904	0	952.80	0	3.5440	0	34.3720	0	27.339	0	942.649	0	7.7	4	2.4	4	-1E+10	1	-1E+10	1	-1E+10	1	-1E+10	1	-1E+10	1	-1E+10	1
4902663	31	C	06/06/2024	03:13	-127.946	47.904	0	957.80	0	3.5370	0	34.3750	0	27.342	0	947.585	0	7.8	4	2.4	4	-1E+10	1	-1E+10	1	-1E+10	1	-1E+10	1	-1E+10	1	-1E+10	1
4902663	31	C	06/06/2024	03:13	-127.946	47.904	0	962.90	0	3.5310	0	34.3770	0	27.344	0	952.619	0	7.8	4	2.5	4	-1E+10	1	-1E+10	1	-1E+10	1	-1E+10	1	-1E+10	1	-1E+10	1
4902663	31	C	06/06/2024	03:13	-127.946	47.904	0	967.90	0	3.5180	0	34.3780	0	27.347	0	957.554	0	7.9	4	2.5	4	-1E+10	1	-1E+10	1	-1E+10	1	-1E+10	1	-1E+10	1	-1E+10	1
4902663	31	C	06/06/2024	03:13	-127.946	47.904	0	973.00	0	3.5010	0	34.3810	0	27.351	0	962.588	0	8.0	4	2.5	4	-1E+10	1	-1E+10	1	-1E+10	1	-1E+10	1	-1E+10	1	-1E+10	1
4902663	31	C	06/06/2024	03:13	-127.946	47.904	0	978.30	0	3.4870	0	34.3830	0	27.354	0	967.819	0	8.1	4	2.5	4	-1E+10	1	-1E+10	1	-1E+10	1	-1E+10	1	-1E+10	1	-1E+10	1
4902663	31	C	06/06/2024	03:13	-127.946	47.904	0	983.00	0	3.4790	0	34.3850	0	27.356	0	972.458	0	8.1	4	2.5	4	-1E+10	1	-1E+10	1	-1E+10	1	-1E+10	1	-1E+10	1	-1E+10	1
4902663	31	C	06/06/2024	03:13	-127.946	47.904	0	987.90	0	3.4660	0	34.3870	0	27.359	0	977.294	0	8.2	4	2.6	4	-1E+10	1	-1E+10	1	-1E+10	1	-1E+10	1	-1E+10	1	-1E+10	1
4902663	31	C	06/06/2024	03:13	-127.946	47.904	0	992.90	0	3.4540	0	34.3890	0	27.362	0	982.228	0	8.3	4	2.6	4	-1E+10	1	-1E+10	1	-1E+10	1	-1E+10	1	-1E+10	1	-1E+10	1
4902663	31	C	06/06/2024	03:13	-127.946	47.904	0	997.80	0	3.4410	0	34.3910	0	27.364	0	987.064	0	8.4	4	2.6	4	-1E+10	1	-1E+10	1	-1E+10	1	-1E+10	1	-1E+10	1	-1E+10	1
4902663	31	C	06/06/2024	03:13	-127.946	47.904	0	1005.30	0	3.4250	0	34.3950	0	27.369	0	994.465	0	8.5	4	2.7	4	-1E+10	1	-1E+10	1	-1E+10	1	-1E+10	1	-1E+10	1	-1E+10	1
4902663	31	C	06/06/2024	03:13	-127.946	47.904	0	1015.10	0	3.4030	0	34.3990	0	27.375	0	1004.136	0	8.7	4	2.7	4	-1E+10	1	-1E+10	1	-1E+10	1	-1E+10	1	-1E+10	1	-1E+10	1
4902663	31	C	06/06/2024	03:13	-127.946	47.904	0	1025.30	0	3.3840	0	34.4020	0	27.379	0	1014.202	0	8.8	4	2.8	4	-1E+10	1	-1E+10	1	-1E+10	1	-1E+10	1	-1E+10	1	-1E+10	1
4902663	31	C	06/06/2024	03:13	-127.946	47.904	0	1035.60	0	3.3660	0	34.4060	0	27.384	0	1024.365	0	9.0	4	2.8	4	-1E+10	1	-1E+10	1	-1E+10	1	-1E+10	1	-1E+10	1	-1E+10	1
4902663	31	C	06/06/2024	03:13	-127.946	47.904	0	1045.70	0	3.3440	0	34.4090	0	27.388	0	1034.330	0	9.1	4	2.8	4	-1E+10	1	-1E+10	1	-1E+10	1	-1E+10	1	-1E+10	1	-1E+10	1
4902663	31	C	06/06/2024	03:13	-127.946	47.904	0	1055.30	0	3.3280	0	34.4110	0	27.391	0	1043.802	0	9.3	4	2.9	4	-1E+10	1	-1E+10	1	-1E+10	1	-1E+10	1	-1E+10	1	-1E+10	1
4902663	31	C	06/06/2024	03:13	-127.946	47.904	0	1065.10	0	3.3110	0	34.4130	0	27.395	0	1053.471	0	9.4	4	2.9	4	-1E+10	1	-1E+10	1	-1E+10	1	-1E+10	1	-1E+10	1	-1E+10	1
4902663	31	C	06/06/2024	03:13	-127.946	47.904	0	1075.40	0	3.2900	0	34.4160	0	27.399	0	1063.632	0	9.7	4	3.0	4	-1E+10	1	-1E+10	1	-1E+10	1	-1E+10	1	-1E+10	1	-1E+10	1
4902663	31	C	06/06/2024	03:13	-127.946	47.904	0	1085.70	0	3.2760	0	34.4190	0	27.403	0	1073.793	0	10.0	4	3.1	4	-1E+10	1	-1E+10	1	-1E+10	1	-1E+10	1	-1E+10	1	-1E+10	1
4902663	31	C	06/06/2024	03:13	-127.946	47.904	0	1095.40	0	3.2680	0	34.4240	0	27.408	0	1083.362	0	10.2	4	3.2	4	-1E+10	1	-1E+10	1	-1E+10	1	-1E+10	1	-1E+10	1	-1E+10	1
4902663	31	C	06/06/2024	03:13	-127.946	47.904	0	1105.00	0	3.2510	0	34.4260	0	27.411	0	1092.831	0	10.4	4	3.2	4	-1E+10	1	-1E+10	1	-1E+10	1	-1E+10	1	-1E+10	1	-1E+10	1
4902663	31	C	06/06/2024	03:13	-127.946	47.904	0	1115.40	0	3.2410	0	34.4290	0	27.414	0	1103.090	0	10.6	4	3.3	4	-1E+10	1	-1E+10	1	-1E+10	1	-1E+10	1	-1E+10	1	-1E+10	1
4902663	31	C	06/06/2024	03:13	-127.946	47.904	0	1125.40	0	3.2210	0	34.4310	0	27.418	0	1112.953	0	10.8	4	3.4	4	-1E+10	1	-1E+10	1	-1E+10	1	-1E+10	1	-1E+10	1	-1E+10	1
4902663	31	C	06/06/2024	03:13	-127.946	47.904	0	1135.10	0	3.1980	0	34.4340	0	27.422	0	1122.519	0	11.1	4	3.4	4	-1E+10	1	-1E+10	1	-1E+10	1	-1E+10	1	-1E+10	1	-1E+10	1
4902663	31	C	06/06/2024	03:13	-127.946	47.904	0	1145.20	0	3.1760	0	34.4370	0	27.427	0	1132.480	0	11.4	4	3.5	4	-1E+10	1	-1E+10	1	-1E+10	1	-1E+10	1	-1E+10	1	-1E+10	1
4902663	31	C	06/06/2024	03:13	-127.946	47.904	0	1155.50	0	3.1580	0	34.4400	0	27.431	0	1142.638	0	11.6	4	3.6	4	-1E+10	1	-1E+10	1	-1E+10	1	-1E+10	1	-1E+10	1	-1E+10	1
4902663	31	C	06/06/2024	03:13	-127.946	47.904	0	1165.40	0	3.1360	0	34.4420	0	27.435	0	1152.401	0	11.9	4	3.7	4	-1E+10	1	-1E+10	1	-1E+10	1	-1E+10	1	-1E+10	1	-1E+10	1
4902663	31	C	06/06/2024	03:13	-127.946	47.904	0	1175.40	0	3.1180	0	34.4450	0	27.439	0	1162.261	0	12.3	4	3.8	4	-1E+10	1	-1E+10	1	-1E+10	1	-1E+10	1	-1E+10	1	-1E+10	1
4902663	31	C	06/06/2024	03:13	-127.946	47.904	0	1185.50	0	3.0890	0	34.4480	0	27.444	0	1172.220	0	12.5	4	3.9	4	-1E+10	1	-1E+10	1	-1E+10	1	-1E+10	1	-1E+10	1	-1E+10	1
4902663	31	C	06/06/2024	03:13	-127.946	47.904	0	1195.30	0	3.0730	0	34.4510	0	27.448	0	1181.883	0	12.8	4	4.0	4	-1E+10	1	-1E+10	1	-1E+10	1	-1E+10	1	-1E+10	1	-1E+10	1
4902663	31	C	06/06/2024	03:13	-127.946	47.904	0	1205.40	0	3.0480	0	34.4530	0	27.452	0	1191.841	0	13.2	4	4.1	4	-1E+10	1	-1E+10	1	-1E+10	1	-1E+10	1	-1E+10	1	-1E+10	1
4902663	31	C	06/06/2024	03:13	-127.946	47.904	0	1215.50	0	3.0120	0	34.4570	0	27.458	0	1201.799	0	13.7	4	4.2	4	-1E+10	1	-1E+10	1	-1E+10	1	-1E+10	1	-1E+10	1	-1E+10	1
4902663	31	C	06/06/2024	03:13	-127.946	47.904	0	1225.10	0	2.9790	0	34.4590	0	27.463	0	1211.263	0	14.0	4	4.3	4	-1E+10	1	-1E+10	1	-1E+10	1	-1E+10	1	-1E+10	1	-1E+10	1
4902663	31	C	06/06/2024	03:13	-127.946	47.904	0	1235.40	0	2.9620	0	34.4620	0	27.467	0	1221.417	0	14.4	4	4.4	4	-1E+10	1	-1E+10	1	-1E+10	1	-1E+10	1	-1E+10	1	-1E+10	1
4902663	31	C	06/06/2024	03:13	-127.946	47.904	0	1245.90	0	2.9360	0	34.4650	0	27.472	0	1231.767	0	14.8	4	4.6	4	-1E+10	1	-1E+10	1	-1E+10	1	-1E+10	1	-1E+10	1	-1E+10	1
4902663	31	C	06/06/2024	03:13	-127.946	47.904	0	1255.40	0	2.9120	0	34.4680	0	27.476	0	1241.131	0	15.2	4	4.7	4	-1E+10	1	-1E+10	1	-1E+10	1	-1E+10	1	-1E+10	1	-1E+10	1
4902663	31	C	06/06/2024	03:13	-127.946	47.904	0	1265.10	0	2.8890	0	34.4710	0	27.481	0	1250.692	0	15.6	4	4.8	4	-1E+10	1	-1E+10	1	-1E+10	1	-1E+10	1	-1E+10	1	-1E+10	1
4902663	31	C	06/06/2024	03:13	-127.946	47.904	0	1275.40	0	2.8660	0	34.4730	0	27.484	0	1260.844	0	16.1	4	5.0	4	-1E+10	1	-1E+10	1	-1E+10	1	-1E+10	1	-1E+10	1	-1E+10	1
4902663	31	C	06/06/2024	03:13	-127.946	47.904	0	1285.40	0	2.8430	0	34.4760	0	27.489	0	1270.700	0	16.6	4	5.1	4	-1E+10	1	-1E+10	1	-1E+10	1	-1E+10	1	-1E+10	1	-1E+10	1
4902663	31	C	06/06/2024	03:13	-127.946	47.904	0	1295.40	0	2.8190	0	34.4790	0	27.493	0	1280.555	0	17.1	4	5.3	4	-1E+10	1	-1E+10	1	-1E+10	1	-1E+10	1	-1E+10	1	-1E+10	1
4902663	31	C	06/06/2024	03:13	-127.946	47.904	0	1306.00	0	2.7990	0	34.4820	0	27.498	0	1291.001	0	17.6	4	5.4	4	-1E+10	1	-1E+10	1	-1E+10	1	-1E+10	1	-1E+10	1	-1E+10	1
4902663	31	C	06/06/2024	03:13	-127.946	47.904	0	1315.70	0	2.7810	0	34.4840	0	27.501	0	1300.560	0	18.0	4	5.5	4	-1E+10	1	-1E+10	1	-1E+10	1	-1E+10	1	-1E+10	1	-1E+10	1
4902663	31	C	06/06/2024	03:13	-127.946	47.904	0	1325.40	0	2.7590	0	34.4860	0	27.504	0	1310.118	0	18.5	4	5.7	4	-1E+10	1	-1E+10	1	-1E+10	1	-1E+10	1	-1E+10	1	-1E+10	1
4902663	31	C	06/06/2024	03:13	-127.946	47.904	0	1335.10	0	2.7380	0	34.4890	0	27.509	0	1319.676	0	19.0	4	5.8	4	-1E+10	1	-1E+10	1	-1E+10	1	-1E+10	1	-1E+10	1	-1E+10	1
4902663	31	C	06/06/2024	03:13	-127.946	47.904	0	1345.00	0	2.7190	0	34.4910	0	27.512	0	1329.430	0	19.5	4	6.0	4	-1E+10	1	-1E+10	1	-1E+10	1	-1E+10	1	-1E+10	1	-1E+10	1
4902663	31	C	06/06/2024	03:13	-127.946	47.904	0	1355.00	0	2.7010	0	34.4930	0	27.515	0	1339.283	0	19.9	4	6.1	4	-1E+10	1	-1E+10	1	-1E+10	1	-1E+10	1	-1E+10	1	-1E+10	1
4902663	31	C	06/06/2024	03:13	-127.946	47.904	0	1365.10	0	2.6860	0	34.4950	0	27.518	0	1349.233	0	20.3	4	6.2	4	-1E+10	1	-1E+10	1	-1E+10	1	-1E+10	1	-1E+10	1	-1E+10	1
4902663	31	C	06/06/2024	03:13	-127.946	47.904	0	1375.30	0	2.6730	0	34.4960	0	27.520	0	1359.282	0	20.7	4	6.3	4	-1E+10	1	-1E+10	1	-1E+10	1	-1E+10	1	-1E+10	1	-1E+10	1
4902663	31	C	06/06/2024	03:13	-127.946	47.904	0	1385.50	0	2.6540	0	34.4980	0	27.523	0	1369.330	0	21.0	4	6.4	4	-1E+10	1	-1E+10	1	-1E+10	1	-1E+10	1	-1E+10	1	-1E+10	1
4902663	31	C	06/06/2024	03:13	-127.946	47.904	0	1395.30	0	2.6330	0	34.5000	0	27.527	0	1378.984	0	21.4	4	6.5	4	-1E+10	1	-1E+10	1	-1E+10	1	-1E+10	1	-1E+10	1	-1E+10	1
4902663	31	C	06/06/2024	03:13	-127.946	47.904	0	1405.20	0	2.6090	0	34.5030	0	27.531	0	1388.735	0	21.8	4	6.7	4	-1E+10	1	-1E+10	1	-1E+10	1	-1E+10	1	-1E+10	1	-1E+10	1
4902663	31	C	06/06/2024	03:13	-127.946	47.904	0	1415.20	0	2.5860	0	34.5050	0	27.535	0	1398.585	0	22.3	4	6.8	4	-1E+10	1	-1E+10	1	-1E+10	1	-1E+10	1	-1E+10	1	-1E+10	1
4902663	31	C	06/06/2024	03:13	-127.946	47.904	0	1425.40	0	2.5700	0	34.5060	0	27.537	0	1408.631	0	22.8	4	7.0	4	-1E+10	1	-1E+10	1	-1E+10	1	-1E+10	1	-1E+10	1	-1E+10	1
4902663	31	C	06/06/2024	03:13	-127.946	47.904	0	1435.50	0	2.5610	0	34.5080	0	27.540	0	1418.578	0	23.4	4	7.2	4	-1E+10	1	-1E+10	1	-1E+10	1	-1E+10	1	-1E+10	1	-1E+10	1
4902663	31	C	06/06/2024	03:13	-127.946	47.904	0	1445.20	0	2.5540	0	34.5100	0	27.542	0	1428.131	0	23.9	4	7.3	4	-1E+10	1	-1E+10	1	-1E+10	1	-1E+10	1	-1E+10	1	-1E+10	1
4902663	31	C	06/06/2024	03:13	-127.946	47.904	0	1455.30	0	2.5330	0	34.5110	0	27.545	0	1438.078	0	23.9	4	7.3	4	-1E+10	1	-1E+10	1	-1E+10	1	-1E+10	1	-1E+10	1	-1E+10	1
4902663	31	C	06/06/2024	03:13	-127.946	47.904	0	1465.40	0	2.4810	0	34.5090	0	27.547	0	1448.024	0	24.0	4	7.3	4	-1E+10	1	-1E+10	1	-1E+10	1	-1E+10	1	-1E+10	1	-1E+10	1
4902663	31	C	06/06/2024	03:13	-127.946	47.904	0	1475.20	0	2.4680	0	34.5110	0	27.550	0	1457.673	0	24.8	4	7.5	4	-1E+10	1	-1E+10	1	-1E+10	1	-1E+10	1	-1E+10	1	-1E+10	1
4902663	31	C	06/06/2024	03:13	-127.946	47.904	0	1485.10	0	2.4570	0	34.5140	0	27.553	0	1467.421	0	25.7	4	7.8	4	-1E+10	1	-1E+10	1	-1E+10	1	-1E+10	1	-1E+10	1	-1E+10	1
4902663	31	C	06/06/2024	03:13	-127.946	47.904	0	1495.10	0	2.4600	0	34.5200	0	27.558	0	1477.268	0	26.6	4	8.1	4	-1E+10	1	-1E+10	1	-1E+10	1	-1E+10	1	-1E+10	1	-1E+10	1
4902663	31	C	06/06/2024	03:13	-127.946	47.904	0	1505.70	0	2.4330	0	34.5220	0	27.562	0	1487.704	0	27.0	4	8.2	4	-1E+10	1	-1E+10	1	-1E+10	1	-1E+10	1	-1E+10	1	-1E+10	1
4902663	31	C	06/06/2024	03:13	-127.946	47.904	0	1515.30	0	2.4160	0	34.5230	0	27.564	0	1497.155	0	27.4	4	8.3	4	-1E+10	1	-1E+10	1	-1E+10	1	-1E+10	1	-1E+10	1	-1E+10	1
4902663	31	C	06/06/2024	03:13	-127.946	47.904	0	1525.40	0	2.3900	0	34.5220	0	27.566	0	1507.098	0	27.8	4	8.5	4	-1E+10	1	-1E+10	1	-1E+10	1	-1E+10	1	-1E+10	1	-1E+10	1
4902663	31	C	06/06/2024	03:13	-127.946	47.904	0	1535.40	0	2.3790	0	34.5240	0	27.568	0	1516.942	0	28.3	4	8.6	4	-1E+10	1	-1E+10	1	-1E+10	1	-1E+10	1	-1E+10	1	-1E+10	1
4902663	31	C	06/06/2024	03:13	-127.946	47.904	0	1545.00	0	2.3750	0	34.5270	0	27.571	0	1526.392	0	28.9	4	8.8	4	-1E+10	1	-1E+10	1	-1E+10	1	-1E+10	1	-1E+10	1	-1E+10	1
4902663	31	C	06/06/2024	03:13	-127.946	47.904	0	1555.20	0	2.3540	0	34.5270	0	27.573	0	1536.432	0	29.2	4	8.9	4	-1E+10	1	-1E+10	1	-1E+10	1	-1E+10	1	-1E+10	1	-1E+10	1
4902663	31	C	06/06/2024	03:13	-127.946	47.904	0	1565.20	0	2.3470	0	34.5280	0	27.574	0	1546.275	0	29.6	4	9.0	4	-1E+10	1	-1E+10	1	-1E+10	1	-1E+10	1	-1E+10	1	-1E+10	1
4902663	31	C	06/06/2024	03:13	-127.946	47.904	0	1575.10	0	2.3410	0	34.5290	0	27.575	0	1556.019	0	30.0	4	9.1	4	-1E+10	1	-1E+10	1	-1E+10	1	-1E+10	1	-1E+10	1	-1E+10	1
4902663	31	C	06/06/2024	03:13	-127.946	47.904	0	1585.20	0	2.3340	0	34.5320	0	27.579	0	1565.959	0	30.5	4	9.3	4	-1E+10	1	-1E+10	1	-1E+10	1	-1E+10	1	-1E+10	1	-1E+10	1
4902663	31	C	06/06/2024	03:13	-127.946	47.904	0	1595.40	0	2.3250	0	34.5330	0	27.580	0	1575.998	0	31.0	4	9.4	4	-1E+10	1	-1E+10	1	-1E+10	1	-1E+10	1	-1E+10	1	-1E+10	1
4902663	31	C	06/06/2024	03:13	-127.946	47.904	0	1605.30	0	2.3100	0	34.5340	0	27.582	0	1585.740	0	31.5	4	9.6	4	-1E+10	1	-1E+10	1	-1E+10	1	-1E+10	1	-1E+10	1	-1E+10	1
4902663	31	C	06/06/2024	03:13	-127.946	47.904	0	1615.20	0	2.3090	0	34.5370	0	27.585	0	1595.482	0	32.1	4	9.8	4	-1E+10	1	-1E+10	1	-1E+10	1	-1E+10	1	-1E+10	1	-1E+10	1
4902663	31	C	06/06/2024	03:13	-127.946	47.904	0	1625.30	0	2.3010	0	34.5400	0	27.588	0	1605.421	0	32.8	4	10.0	4	-1E+10	1	-1E+10	1	-1E+10	1	-1E+10	1	-1E+10	1	-1E+10	1
4902663	31	C	06/06/2024	03:13	-127.946	47.904	0	1635.40	0	2.2930	0	34.5420	0	27.590	0	1615.359	0	33.3	4	10.1	4	-1E+10	1	-1E+10	1	-1E+10	1	-1E+10	1	-1E+10	1	-1E+10	1
4902663	31	C	06/06/2024	03:13	-127.946	47.904	0	1645.70	0	2.2830	0	34.5430	0	27.592	0	1625.493	0	33.8	4	10.3	4	-1E+10	1	-1E+10	1	-1E+10	1	-1E+10	1	-1E+10	1	-1E+10	1
4902663	31	C	06/06/2024	03:13	-127.946	47.904	0	1655.60	0	2.2690	0	34.5450	0	27.595	0	1635.233	0	34.4	4	10.4	4	-1E+10	1	-1E+10	1	-1E+10	1	-1E+10	1	-1E+10	1	-1E+10	1
4902663	31	C	06/06/2024	03:13	-127.946	47.904	0	1665.70	0	2.2550	0	34.5460	0	27.597	0	1645.170	0	34.9	4	10.6	4	-1E+10	1	-1E+10	1	-1E+10	1	-1E+10	1	-1E+10	1	-1E+10	1
4902663	31	C	06/06/2024	03:13	-127.946	47.904	0	1675.70	0	2.2410	0	34.5470	0	27.599	0	1655.008	0	35.6	4	10.8	4	-1E+10	1	-1E+10	1	-1E+10	1	-1E+10	1	-1E+10	1	-1E+10	1
4902663	31	C	06/06/2024	03:13	-127.946	47.904	0	1685.80	0	2.2220	0	34.5490	0	27.602	0	1664.943	0	36.4	4	11.0	4	-1E+10	1	-1E+10	1	-1E+10	1	-1E+10	1	-1E+10	1	-1E+10	1
4902663	31	C	06/06/2024	03:13	-127.946	47.904	0	1695.50	0	2.2060	0	34.5500	0	27.604	0	1674.485	0	37.0	4	11.2	4	-1E+10	1	-1E+10	1	-1E+10	1	-1E+10	1	-1E+10	1	-1E+10	1
4902663	31	C	06/06/2024	03:13	-127.946	47.904	0	1705.30	0	2.1940	0	34.5520	0	27.606	0	1684.125	0	37.5	4	11.4	4	-1E+10	1	-1E+10	1	-1E+10	1	-1E+10	1	-1E+10	1	-1E+10	1
4902663	31	C	06/06/2024	03:13	-127.946	47.904	0	1715.70	0	2.1850	0	34.5540	0	27.609	0	1694.354	0	38.0	4	11.5	4	-1E+10	1	-1E+10	1	-1E+10	1	-1E+10	1	-1E+10	1	-1E+10	1
4902663	31	C	06/06/2024	03:13	-127.946	47.904	0	1725.60	0	2.1770	0	34.5550	0	27.610	0	1704.091	0	38.5	4	11.7	4	-1E+10	1	-1E+10	1	-1E+10	1	-1E+10	1	-1E+10	1	-1E+10	1
4902663	31	C	06/06/2024	03:13	-127.946	47.904	0	1735.60	0	2.1630	0	34.5560	0	27.612	0	1713.926	0	39.2	4	11.9	4	-1E+10	1	-1E+10	1	-1E+10	1	-1E+10	1	-1E+10	1	-1E+10	1
4902663	31	C	06/06/2024	03:13	-127.946	47.904	0	1745.70	0	2.1490	0	34.5570	0	27.614	0	1723.859	0	39.9	4	12.1	4	-1E+10	1	-1E+10	1	-1E+10	1	-1E+10	1	-1E+10	1	-1E+10	1
4902663	31	C	06/06/2024	03:13	-127.946	47.904	0	1755.70	0	2.1370	0	34.5590	0	27.617	0	1733.693	0	40.5	4	12.3	4	-1E+10	1	-1E+10	1	-1E+10	1	-1E+10	1	-1E+10	1	-1E+10	1
4902663	31	C	06/06/2024	03:13	-127.946	47.904	0	1765.30	0	2.1260	0	34.5610	0	27.619	0	1743.133	0	41.2	4	12.4	4	-1E+10	1	-1E+10	1	-1E+10	1	-1E+10	1	-1E+10	1	-1E+10	1
4902663	31	C	06/06/2024	03:13	-127.946	47.904	0	1775.20	0	2.1150	0	34.5630	0	27.622	0	1752.868	0	41.9	4	12.7	4	-1E+10	1	-1E+10	1	-1E+10	1	-1E+10	1	-1E+10	1	-1E+10	1
4902663	31	C	06/06/2024	03:13	-127.946	47.904	0	1785.30	0	2.1020	0	34.5650	0	27.625	0	1762.799	0	42.5	4	12.8	4	-1E+10	1	-1E+10	1	-1E+10	1	-1E+10	1	-1E+10	1	-1E+10	1
4902663	31	C	06/06/2024	03:13	-127.946	47.904	0	1795.60	0	2.0950	0	34.5660	0	27.626	0	1772.926	0	42.8	4	12.9	4	-1E+10	1	-1E+10	1	-1E+10	1	-1E+10	1	-1E+10	1	-1E+10	1
4902663	31	C	06/06/2024	03:13	-127.946	47.904	0	1805.60	0	2.0910	0	34.5670	0	27.627	0	1782.758	0	43.4	4	13.1	4	-1E+10	1	-1E+10	1	-1E+10	1	-1E+10	1	-1E+10	1	-1E+10	1
4902663	31	C	06/06/2024	03:13	-127.946	47.904	0	1815.60	0	2.0790	0	34.5690	0	27.630	0	1792.589	0	44.0	4	13.3	4	-1E+10	1	-1E+10	1	-1E+10	1	-1E+10	1	-1E+10	1	-1E+10	1
4902663	31	C	06/06/2024	03:13	-127.946	47.904	0	1825.30	0	2.0700	0	34.5700	0	27.631	0	1802.125	0	44.5	4	13.5	4	-1E+10	1	-1E+10	1	-1E+10	1	-1E+10	1	-1E+10	1	-1E+10	1
4902663	31	C	06/06/2024	03:13	-127.946	47.904	0	1835.10	0	2.0630	0	34.5710	0	27.633	0	1811.759	0	45.1	4	13.6	4	-1E+10	1	-1E+10	1	-1E+10	1	-1E+10	1	-1E+10	1	-1E+10	1
4902663	31	C	06/06/2024	03:13	-127.946	47.904	0	1845.40	0	2.0530	0	34.5720	0	27.634	0	1821.884	0	45.7	4	13.8	4	-1E+10	1	-1E+10	1	-1E+10	1	-1E+10	1	-1E+10	1	-1E+10	1
4902663	31	C	06/06/2024	03:13	-127.946	47.904	0	1855.20	0	2.0450	0	34.5740	0	27.637	0	1831.517	0	46.2	4	13.9	4	-1E+10	1	-1E+10	1	-1E+10	1	-1E+10	1	-1E+10	1	-1E+10	1
4902663	31	C	06/06/2024	03:13	-127.946	47.904	0	1865.10	0	2.0380	0	34.5750	0	27.638	0	1841.248	0	46.7	4	14.1	4	-1E+10	1	-1E+10	1	-1E+10	1	-1E+10	1	-1E+10	1	-1E+10	1
4902663	31	C	06/06/2024	03:13	-127.946	47.904	0	1875.50	0	2.0280	0	34.5770	0	27.641	0	1851.470	0	47.3	4	14.3	4	-1E+10	1	-1E+10	1	-1E+10	1	-1E+10	1	-1E+10	1	-1E+10	1
4902663	31	C	06/06/2024	03:13	-127.946	47.904	0	1885.50	0	2.0210	0	34.5780	0	27.642	0	1861.298	0	47.7	4	14.4	4	-1E+10	1	-1E+10	1	-1E+10	1	-1E+10	1	-1E+10	1	-1E+10	1
4902663	31	C	06/06/2024	03:13	-127.946	47.904	0	1895.10	0	2.0160	0	34.5790	0	27.643	0	1870.732	0	48.2	4	14.6	4	-1E+10	1	-1E+10	1	-1E+10	1	-1E+10	1	-1E+10	1	-1E+10	1
4902663	31	C	06/06/2024	03:13	-127.946	47.904	0	1905.20	0	2.0080	0	34.5800	0	27.645	0	1880.658	0	48.8	4	14.7	4	-1E+10	1	-1E+10	1	-1E+10	1	-1E+10	1	-1E+10	1	-1E+10	1
4902663	31	C	06/06/2024	03:13	-127.946	47.904	0	1915.20	0	2.0000	0	34.5810	0	27.646	0	1890.485	0	49.3	4	14.9	4	-1E+10	1	-1E+10	1	-1E+10	1	-1E+10	1	-1E+10	1	-1E+10	1
4902663	31	C	06/06/2024	03:13	-127.946	47.904	0	1925.10	0	1.9930	0	34.5830	0	27.648	0	1900.213	0	49.9	4	15.0	4	-1E+10	1	-1E+10	1	-1E+10	1	-1E+10	1	-1E+10	1	-1E+10	1
4902663	31	C	06/06/2024	03:13	-127.946	47.904	0	1935.40	0	1.9850	0	34.5840	0	27.650	0	1910.333	0	50.6	4	15.2	4	-1E+10	1	-1E+10	1	-1E+10	1	-1E+10	1	-1E+10	1	-1E+10	1
4902663	31	C	06/06/2024	03:13	-127.946	47.904	0	1945.50	0	1.9750	0	34.5860	0	27.652	0	1920.257	0	51.2	4	15.4	4	-1E+10	1	-1E+10	1	-1E+10	1	-1E+10	1	-1E+10	1	-1E+10	1
4902663	31	C	06/06/2024	03:13	-127.946	47.904	0	1955.40	0	1.9680	0	34.5870	0	27.654	0	1929.984	0	51.7	4	15.6	4	-1E+10	1	-1E+10	1	-1E+10	1	-1E+10	1	-1E+10	1	-1E+10	1
4902663	31	C	06/06/2024	03:13	-127.946	47.904	0	1965.30	0	1.9600	0	34.5890	0	27.656	0	1939.710	0	52.2	4	15.7	4	-1E+10	1	-1E+10	1	-1E+10	1	-1E+10	1	-1E+10	1	-1E+10	1
4902663	31	C	06/06/2024	03:13	-127.946	47.904	0	1975.30	0	1.9540	0	34.5900	0	27.657	0	1949.534	0	52.6	4	15.8	4	-1E+10	1	-1E+10	1	-1E+10	1	-1E+10	1	-1E+10	1	-1E+10	1
4902663	31	C	06/06/2024	03:13	-127.946	47.904	0	1985.40	0	1.9490	0	34.5910	0	27.658	0	1959.456	0	53.0	4	16.0	4	-1E+10	1	-1E+10	1	-1E+10	1	-1E+10	1	-1E+10	1	-1E+10	1
4902663	31	C	06/06/2024	03:13	-127.946	47.904	0	1995.80	0	1.9420	0	34.5920	0	27.660	0	1969.672	0	53.3	4	16.0	4	-1E+10	1	-1E+10	1	-1E+10	1	-1E+10	1	-1E+10	1	-1E+10	1
4902663	31	C	06/06/2024	03:13	-127.946	47.904	0	2003.10	0	1.9390	0	34.5930	0	27.661	0	1976.843	0	53.1	4	16.0	4	-1E+10	1	-1E+10	1	-1E+10	1	-1E+10	1	-1E+10	1	-1E+10	1
4902663	31	C	06/06/2024	03:13	-127.946	47.904	0																										
4902663	32	C	06/15/2024	22:16	-127.917	47.722	0	0.10	0	13.3670	0	31.9300	0	23.944	0	0.099	0	262.7	4	100.4	4	-1E+10	1	-1E+10	1	-1E+10	1	-1E+10	1	-1E+10	1	-1E+10	1
4902663	32	C	06/15/2024	22:16	-127.917	47.722	0	0.20	0	13.3680	0	31.9320	0	23.945	0	0.198	0	263.2	4	100.6	4	-1E+10	1	-1E+10	1	-1E+10	1	-1E+10	1	-1E+10	1	-1E+10	1
4902663	32	C	06/15/2024	22:16	-127.917	47.722	0	0.30	0	13.3680	0	31.9760	0	23.979	0	0.297	0	-1e10	1	-1e10	1	-1E+10	1	-1E+10	1	-1E+10	1	-1E+10	1	-1E+10	1	-1E+10	1
4902663	32	C	06/15/2024	22:16	-127.917	47.722	0	0.40	0	13.3490	0	31.9120	0	23.934	0	0.397	0	256.5	4	98.0	4	-1E+10	1	-1E+10	1	-1E+10	1	-1E+10	1	-1E+10	1	-1E+10	1
4902663	32	C	06/15/2024	22:16	-127.917	47.722	0	1.00	0	13.3380	0	31.9070	0	23.932	0	0.992	0	256.7	4	98.1	4	-1E+10	1	-1E+10	1	-1E+10	1	-1E+10	1	-1E+10	1	-1E+10	1
4902663	32	C	06/15/2024	22:16	-127.917	47.722	0	1.90	0	13.3300	0	31.8960	0	23.925	0	1.884	0	256.8	4	98.1	4	-1E+10	1	-1E+10	1	-1E+10	1	-1E+10	1	-1E+10	1	-1E+10	1
4902663	32	C	06/15/2024	22:16	-127.917	47.722	0	2.90	0	13.3280	0	31.8800	0	23.913	0	2.876	0	257.1	4	98.2	4	-1E+10	1	-1E+10	1	-1E+10	1	-1E+10	1	-1E+10	1	-1E+10	1
4902663	32	C	06/15/2024	22:16	-127.917	47.722	0	4.10	0	13.3110	0	31.9330	0	23.958	0	4.066	0	257.9	4	98.5	4	-1E+10	1	-1E+10	1	-1E+10	1	-1E+10	1	-1E+10	1	-1E+10	1
4902663	32	C	06/15/2024	22:16	-127.917	47.722	0	5.10	0	13.1590	0	32.0390	0	24.070	0	5.057	0	259.0	4	98.7	4	-1E+10	1	-1E+10	1	-1E+10	1	-1E+10	1	-1E+10	1	-1E+10	1
4902663	32	C	06/15/2024	22:16	-127.917	47.722	0	5.80	0	12.9150	0	32.0660	0	24.138	0	5.751	0	260.2	4	98.6	4	-1E+10	1	-1E+10	1	-1E+10	1	-1E+10	1	-1E+10	1	-1E+10	1
4902663	32	C	06/15/2024	22:16	-127.917	47.722	0	7.00	0	12.7590	0	32.0970	0	24.192	0	6.941	0	260.9	4	98.6	4	-1E+10	1	-1E+10	1	-1E+10	1	-1E+10	1	-1E+10	1	-1E+10	1
4902663	32	C	06/15/2024	22:16	-127.917	47.722	0	8.30	0	12.8180	0	32.1360	0	24.211	0	8.230	0	260.8	4	98.8	4	-1E+10	1	-1E+10	1	-1E+10	1	-1E+10	1	-1E+10	1	-1E+10	1
4902663	32	C	06/15/2024	22:16	-127.917	47.722	0	9.20	0	12.8250	0	32.1420	0	24.215	0	9.123	0	260.9	4	98.8	4	-1E+10	1	-1E+10	1	-1E+10	1	-1E+10	1	-1E+10	1	-1E+10	1
4902663	32	C	06/15/2024	22:16	-127.917	47.722	0	10.00	0	12.8140	0	32.1450	0	24.219	0	9.916	0	261.2	4	98.9	4	-1E+10	1	-1E+10	1	-1E+10	1	-1E+10	1	-1E+10	1	-1E+10	1
4902663	32	C	06/15/2024	22:16	-127.917	47.722	0	10.90	0	12.7990	0	32.1490	0	24.225	0	10.809	0	261.2	4	98.9	4	-1E+10	1	-1E+10	1	-1E+10	1	-1E+10	1	-1E+10	1	-1E+10	1
4902663	32	C	06/15/2024	22:16	-127.917	47.722	0	11.70	0	12.7860	0	32.1480	0	24.227	0	11.602	0	261.5	4	98.9	4	-1E+10	1	-1E+10	1	-1E+10	1	-1E+10	1	-1E+10	1	-1E+10	1
4902663	32	C	06/15/2024	22:16	-127.917	47.722	0	12.60	0	12.7750	0	32.1500	0	24.231	0	12.494	0	261.7	4	99.0	4	-1E+10	1	-1E+10	1	-1E+10	1	-1E+10	1	-1E+10	1	-1E+10	1
4902663	32	C	06/15/2024	22:16	-127.917	47.722	0	13.90	0	12.7480	0	32.1460	0	24.233	0	13.783	0	262.2	4	99.1	4	-1E+10	1	-1E+10	1	-1E+10	1	-1E+10	1	-1E+10	1	-1E+10	1
4902663	32	C	06/15/2024	22:16	-127.917	47.722	0	15.30	0	12.6540	0	32.1450	0	24.250	0	15.171	0	262.7	4	99.1	4	-1E+10	1	-1E+10	1	-1E+10	1	-1E+10	1	-1E+10	1	-1E+10	1
4902663	32	C	06/15/2024	22:16	-127.917	47.722	0	16.20	0	12.5860	0	32.1390	0	24.258	0	16.064	0	263.1	4	99.1	4	-1E+10	1	-1E+10	1	-1E+10	1	-1E+10	1	-1E+10	1	-1E+10	1
4902663	32	C	06/15/2024	22:16	-127.917	47.722	0	17.10	0	12.5290	0	32.1360	0	24.267	0	16.956	0	263.5	4	99.2	4	-1E+10	1	-1E+10	1	-1E+10	1	-1E+10	1	-1E+10	1	-1E+10	1
4902663	32	C	06/15/2024	22:16	-127.917	47.722	0	18.00	0	12.4550	0	32.1370	0	24.282	0	17.849	0	264.1	4	99.2	4	-1E+10	1	-1E+10	1	-1E+10	1	-1E+10	1	-1E+10	1	-1E+10	1
4902663	32	C	06/15/2024	22:16	-127.917	47.722	0	19.00	0	12.3970	0	32.1330	0	24.290	0	18.840	0	264.2	4	99.2	4	-1E+10	1	-1E+10	1	-1E+10	1	-1E+10	1	-1E+10	1	-1E+10	1
4902663	32	C	06/15/2024	22:16	-127.917	47.722	0	19.90	0	12.3210	0	32.1300	0	24.302	0	19.733	0	264.9	4	99.3	4	-1E+10	1	-1E+10	1	-1E+10	1	-1E+10	1	-1E+10	1	-1E+10	1
4902663	32	C	06/15/2024	22:16	-127.917	47.722	0	20.90	0	12.1920	0	32.1310	0	24.327	0	20.724	0	265.3	4	99.1	4	-1E+10	1	-1E+10	1	-1E+10	1	-1E+10	1	-1E+10	1	-1E+10	1
4902663	32	C	06/15/2024	22:16	-127.917	47.722	0	22.00	0	12.1370	0	32.1240	0	24.332	0	21.815	0	265.4	4	99.1	4	-1E+10	1	-1E+10	1	-1E+10	1	-1E+10	1	-1E+10	1	-1E+10	1
4902663	32	C	06/15/2024	22:16	-127.917	47.722	0	23.00	0	12.1400	0	32.1290	0	24.335	0	22.806	0	265.4	4	99.1	4	-1E+10	1	-1E+10	1	-1E+10	1	-1E+10	1	-1E+10	1	-1E+10	1
4902663	32	C	06/15/2024	22:16	-127.917	47.722	0	24.00	0	12.1560	0	32.1330	0	24.335	0	23.798	0	265.2	4	99.1	4	-1E+10	1	-1E+10	1	-1E+10	1	-1E+10	1	-1E+10	1	-1E+10	1
4902663	32	C	06/15/2024	22:16	-127.917	47.722	0	25.00	0	12.1600	0	32.1440	0	24.343	0	24.789	0	265.2	4	99.1	4	-1E+10	1	-1E+10	1	-1E+10	1	-1E+10	1	-1E+10	1	-1E+10	1
4902663	32	C	06/15/2024	22:16	-127.917	47.722	0	26.00	0	12.1390	0	32.1440	0	24.347	0	25.781	0	265.2	4	99.0	4	-1E+10	1	-1E+10	1	-1E+10	1	-1E+10	1	-1E+10	1	-1E+10	1
4902663	32	C	06/15/2024	22:16	-127.917	47.722	0	27.00	0	12.1200	0	32.1560	0	24.360	0	26.772	0	265.2	4	99.0	4	-1E+10	1	-1E+10	1	-1E+10	1	-1E+10	1	-1E+10	1	-1E+10	1
4902663	32	C	06/15/2024	22:16	-127.917	47.722	0	28.10	0	12.1060	0	32.1660	0	24.370	0	27.863	0	265.3	4	99.0	4	-1E+10	1	-1E+10	1	-1E+10	1	-1E+10	1	-1E+10	1	-1E+10	1
4902663	32	C	06/15/2024	22:16	-127.917	47.722	0	29.10	0	12.0840	0	32.1700	0	24.378	0	28.855	0	265.2	4	98.9	4	-1E+10	1	-1E+10	1	-1E+10	1	-1E+10	1	-1E+10	1	-1E+10	1
4902663	32	C	06/15/2024	22:16	-127.917	47.722	0	30.10	0	12.0520	0	32.1730	0	24.386	0	29.846	0	265.1	4	98.8	4	-1E+10	1	-1E+10	1	-1E+10	1	-1E+10	1	-1E+10	1	-1E+10	1
4902663	32	C	06/15/2024	22:16	-127.917	47.722	0	31.20	0	11.9360	0	32.1920	0	24.422	0	30.937	0	265.3	4	98.7	4	-1E+10	1	-1E+10	1	-1E+10	1	-1E+10	1	-1E+10	1	-1E+10	1
4902663	32	C	06/15/2024	22:16	-127.917	47.722	0	32.30	0	11.8860	0	32.2160	0	24.450	0	32.027	0	265.3	4	98.6	4	-1E+10	1	-1E+10	1	-1E+10	1	-1E+10	1	-1E+10	1	-1E+10	1
4902663	32	C	06/15/2024	22:16	-127.917	47.722	0	33.40	0	11.8600	0	32.2110	0	24.451	0	33.118	0	265.3	4	98.5	4	-1E+10	1	-1E+10	1	-1E+10	1	-1E+10	1	-1E+10	1	-1E+10	1
4902663	32	C	06/15/2024	22:16	-127.917	47.722	0	34.40	0	11.8610	0	32.2290	0	24.465	0	34.109	0	265.3	4	98.5	4	-1E+10	1	-1E+10	1	-1E+10	1	-1E+10	1	-1E+10	1	-1E+10	1
4902663	32	C	06/15/2024	22:16	-127.917	47.722	0	35.50	0	11.7570	0	32.2480	0	24.499	0	35.200	0	265.5	4	98.4	4	-1E+10	1	-1E+10	1	-1E+10	1	-1E+10	1	-1E+10	1	-1E+10	1
4902663	32	C	06/15/2024	22:16	-127.917	47.722	0	36.60	0	11.7300	0	32.2670	0	24.518	0	36.291	0	265.7	4	98.4	4	-1E+10	1	-1E+10	1	-1E+10	1	-1E+10	1	-1E+10	1	-1E+10	1
4902663	32	C	06/15/2024	22:16	-127.917	47.722	0	37.70	0	11.5950	0	32.2690	0	24.545	0	37.381	0	266.1	4	98.3	4	-1E+10	1	-1E+10	1	-1E+10	1	-1E+10	1	-1E+10	1	-1E+10	1
4902663	32	C	06/15/2024	22:16	-127.917	47.722	0	38.90	0	11.4850	0	32.2780	0	24.571	0	38.571	0	266.4	4	98.2	4	-1E+10	1	-1E+10	1	-1E+10	1	-1E+10	1	-1E+10	1	-1E+10	1
4902663	32	C	06/15/2024	22:16	-127.917	47.722	0	40.00	0	11.3750	0	32.2740	0	24.588	0	39.662	0	266.7	4	98.1	4	-1E+10	1	-1E+10	1	-1E+10	1	-1E+10	1	-1E+10	1	-1E+10	1
4902663	32	C	06/15/2024	22:16	-127.917	47.722	0	41.10	0	11.3250	0	32.2730	0	24.596	0	40.752	0	266.8	4	98.0	4	-1E+10	1	-1E+10	1	-1E+10	1	-1E+10	1	-1E+10	1	-1E+10	1
4902663	32	C	06/15/2024	22:16	-127.917	47.722	0	42.20	0	11.3070	0	32.2730	0	24.600	0	41.843	0	266.6	4	97.9	4	-1E+10	1	-1E+10	1	-1E+10	1	-1E+10	1	-1E+10	1	-1E+10	1
4902663	32	C	06/15/2024	22:16	-127.917	47.722	0	43.30	0	11.2780	0	32.2750	0	24.606	0	42.933	0	266.3	4	97.7	4	-1E+10	1	-1E+10	1	-1E+10	1	-1E+10	1	-1E+10	1	-1E+10	1
4902663	32	C	06/15/2024	22:16	-127.917	47.722	0	44.40	0	11.2460	0	32.2760	0	24.613	0	44.024	0	266.1	4	97.6	4	-1E+10	1	-1E+10	1	-1E+10	1	-1E+10	1	-1E+10	1	-1E+10	1
4902663	32	C	06/15/2024	22:16	-127.917	47.722	0	45.40	0	11.1790	0	32.2750	0	24.624	0	45.015	0	265.5	4	97.2	4	-1E+10	1	-1E+10	1	-1E+10	1	-1E+10	1	-1E+10	1	-1E+10	1
4902663	32	C	06/15/2024	22:16	-127.917	47.722	0	46.70	0	11.1400	0	32.2800	0	24.635	0	46.304	0	265.4	4	97.1	4	-1E+10	1	-1E+10	1	-1E+10	1	-1E+10	1	-1E+10	1	-1E+10	1
4902663	32	C	06/15/2024	22:16	-127.917	47.722	0	47.90	0	11.0720	0	32.2790	0	24.646	0	47.494	0	265.1	4	96.9	4	-1E+10	1	-1E+10	1	-1E+10	1	-1E+10	1	-1E+10	1	-1E+10	1
4902663	32	C	06/15/2024	22:16	-127.917	47.722	0	49.10	0	10.9820	0	32.2810	0	24.664	0	48.683	0	264.8	4	96.6	4	-1E+10	1	-1E+10	1	-1E+10	1	-1E+10	1	-1E+10	1	-1E+10	1
4902663	32	C	06/15/2024	22:16	-127.917	47.722	0	49.90	0	10.8390	0	32.2810	0	24.689	0	49.477	0	264.7	4	96.3	4	-1E+10	1	-1E+10	1	-1E+10	1	-1E+10	1	-1E+10	1	-1E+10	1
4902663	32	C	06/15/2024	22:16	-127.917	47.722	0	50.80	0	10.6570	0	32.2960	0	24.732	0	50.369	0	265.0	4	96.0	4	-1E+10	1	-1E+10	1	-1E+10	1	-1E+10	1	-1E+10	1	-1E+10	1
4902663	32	C	06/15/2024	22:16	-127.917	47.722	0	51.90	0	10.4390	0	32.3110	0	24.781	0	51.459	0	264.8	4	95.5	4	-1E+10	1	-1E+10	1	-1E+10	1	-1E+10	1	-1E+10	1	-1E+10	1
4902663	32	C	06/15/2024	22:16	-127.917	47.722	0	53.10	0	10.2980	0	32.3130	0	24.806	0	52.649	0	264.3	4	95.0	4	-1E+10	1	-1E+10	1	-1E+10	1	-1E+10	1	-1E+10	1	-1E+10	1
4902663	32	C	06/15/2024	22:16	-127.917	47.722	0	53.90	0	10.2250	0	32.3100	0	24.816	0	53.442	0	263.9	4	94.7	4	-1E+10	1	-1E+10	1	-1E+10	1	-1E+10	1	-1E+10	1	-1E+10	1
4902663	32	C	06/15/2024	22:16	-127.917	47.722	0	54.70	0	10.1010	0	32.3220	0	24.846	0	54.235	0	263.3	4	94.3	4	-1E+10	1	-1E+10	1	-1E+10	1	-1E+10	1	-1E+10	1	-1E+10	1
4902663	32	C	06/15/2024	22:16	-127.917	47.722	0	56.00	0	9.8730	0	32.3230	0	24.885	0	55.524	0	262.3	4	93.5	4	-1E+10	1	-1E+10	1	-1E+10	1	-1E+10	1	-1E+10	1	-1E+10	1
4902663	32	C	06/15/2024	22:16	-127.917	47.722	0	57.30	0	9.6110	0	32.3380	0	24.939	0	56.813	0	261.5	4	92.6	4	-1E+10	1	-1E+10	1	-1E+10	1	-1E+10	1	-1E+10	1	-1E+10	1
4902663	32	C	06/15/2024	22:16	-127.917	47.722	0	58.20	0	9.5330	0	32.3450	0	24.957	0	57.705	0	260.7	4	92.2	4	-1E+10	1	-1E+10	1	-1E+10	1	-1E+10	1	-1E+10	1	-1E+10	1
4902663	32	C	06/15/2024	22:16	-127.917	47.722	0	59.10	0	9.4910	0	32.3400	0	24.960	0	58.597	0	259.9	4	91.8	4	-1E+10	1	-1E+10	1	-1E+10	1	-1E+10	1	-1E+10	1	-1E+10	1
4902663	32	C	06/15/2024	22:16	-127.917	47.722	0	59.90	0	9.4760	0	32.3400	0	24.962	0	59.390	0	259.0	4	91.5	4	-1E+10	1	-1E+10	1	-1E+10	1	-1E+10	1	-1E+10	1	-1E+10	1
4902663	32	C	06/15/2024	22:16	-127.917	47.722	0	60.80	0	9.3640	0	32.3500	0	24.988	0	60.282	0	258.0	4	90.9	4	-1E+10	1	-1E+10	1	-1E+10	1	-1E+10	1	-1E+10	1	-1E+10	1
4902663	32	C	06/15/2024	22:16	-127.917	47.722	0	61.70	0	9.2570	0	32.3520	0	25.006	0	61.175	0	257.2	4	90.4	4	-1E+10	1	-1E+10	1	-1E+10	1	-1E+10	1	-1E+10	1	-1E+10	1
4902663	32	C	06/15/2024	22:16	-127.917	47.722	0	62.90	0	9.1420	0	32.3590	0	25.030	0	62.364	0	255.7	4	89.7	4	-1E+10	1	-1E+10	1	-1E+10	1	-1E+10	1	-1E+10	1	-1E+10	1
4902663	32	C	06/15/2024	22:16	-127.917	47.722	0	64.30	0	9.0680	0	32.3650	0	25.046	0	63.752	0	254.0	4	89.0	4	-1E+10	1	-1E+10	1	-1E+10	1	-1E+10	1	-1E+10	1	-1E+10	1
4902663	32	C	06/15/2024	22:16	-127.917	47.722	0	65.20	0	8.9930	0	32.3760	0	25.066	0	64.644	0	252.7	4	88.3	4	-1E+10	1	-1E+10	1	-1E+10	1	-1E+10	1	-1E+10	1	-1E+10	1
4902663	32	C	06/15/2024	22:16	-127.917	47.722	0	66.10	0	8.9680	0	32.3800	0	25.073	0	65.536	0	251.3	4	87.8	4	-1E+10	1	-1E+10	1	-1E+10	1	-1E+10	1	-1E+10	1	-1E+10	1
4902663	32	C	06/15/2024	22:16	-127.917	47.722	0	67.00	0	8.9290	0	32.3820	0	25.081	0	66.429	0	249.6	4	87.1	4	-1E+10	1	-1E+10	1	-1E+10	1	-1E+10	1	-1E+10	1	-1E+10	1
4902663	32	C	06/15/2024	22:16	-127.917	47.722	0	67.90	0	8.9280	0	32.3980	0	25.094	0	67.321	0	247.7	4	86.5	4	-1E+10	1	-1E+10	1	-1E+10	1	-1E+10	1	-1E+10	1	-1E+10	1
4902663	32	C	06/15/2024	22:16	-127.917	47.722	0	68.80	0	8.9050	0	32.4100	0	25.107	0	68.213	0	246.1	4	85.9	4	-1E+10	1	-1E+10	1	-1E+10	1	-1E+10	1	-1E+10	1	-1E+10	1
4902663	32	C	06/15/2024	22:16	-127.917	47.722	0	69.70	0	8.8540	0	32.4250	0	25.126	0	69.105	0	244.6	4	85.3	4	-1E+10	1	-1E+10	1	-1E+10	1	-1E+10	1	-1E+10	1	-1E+10	1
4902663	32	C	06/15/2024	22:16	-127.917	47.722	0	70.90	0	8.7640	0	32.4320	0	25.146	0	70.295	0	242.3	4	84.3	4	-1E+10	1	-1E+10	1	-1E+10	1	-1E+10	1	-1E+10	1	-1E+10	1
4902663	32	C	06/15/2024	22:16	-127.917	47.722	0	72.30	0	8.7080	0	32.4500	0	25.168	0	71.683	0	239.7	4	83.3	4	-1E+10	1	-1E+10	1	-1E+10	1	-1E+10	1	-1E+10	1	-1E+10	1
4902663	32	C	06/15/2024	22:16	-127.917	47.722	0	73.20	0	8.6640	0	32.4740	0	25.194	0	72.575	0	238.2	4	82.7	4	-1E+10	1	-1E+10	1	-1E+10	1	-1E+10	1	-1E+10	1	-1E+10	1
4902663	32	C	06/15/2024	22:16	-127.917	47.722	0	74.10	0	8.6240	0	32.4920	0	25.214	0	73.467	0	236.7	4	82.1	4	-1E+10	1	-1E+10	1	-1E+10	1	-1E+10	1	-1E+10	1	-1E+10	1
4902663	32	C	06/15/2024	22:16	-127.917	47.722	0	75.10	0	8.5710	0	32.5050	0	25.232	0	74.458	0	235.6	4	81.7	4	-1E+10	1	-1E+10	1	-1E+10	1	-1E+10	1	-1E+10	1	-1E+10	1
4902663	32	C	06/15/2024	22:16	-127.917	47.722	0	75.90	0	8.5090	0	32.5180	0	25.252	0	75.251	0	234.5	4	81.2	4	-1E+10	1	-1E+10	1	-1E+10	1	-1E+10	1	-1E+10	1	-1E+10	1
4902663	32	C	06/15/2024	22:16	-127.917	47.722	0	76.60	0	8.5150	0	32.5350	0	25.264	0	75.945	0	233.3	4	80.8	4	-1E+10	1	-1E+10	1	-1E+10	1	-1E+10	1	-1E+10	1	-1E+10	1
4902663	32	C	06/15/2024	22:16	-127.917	47.722	0	77.90	0	8.5020	0	32.5510	0	25.278	0	77.234	0	231.5	4	80.2	4	-1E+10	1	-1E+10	1	-1E+10	1	-1E+10	1	-1E+10	1	-1E+10	1
4902663	32	C	06/15/2024	22:16	-127.917	47.722	0	78.90	0	8.4900	0	32.5600	0	25.287	0	78.225	0	229.9	4	79.6	4	-1E+10	1	-1E+10	1	-1E+10	1	-1E+10	1	-1E+10	1	-1E+10	1
4902663	32	C	06/15/2024	22:16	-127.917	47.722	0	79.90	0	8.4460	0	32.5610	0	25.295	0	79.216	0	228.0	4	78.9	4	-1E+10	1	-1E+10	1	-1E+10	1	-1E+10	1	-1E+10	1	-1E+10	1
4902663	32	C	06/15/2024	22:16	-127.917	47.722	0	80.90	0	8.3580	0	32.5620	0	25.309	0	80.207	0	225.8	4	77.9	4	-1E+10	1	-1E+10	1	-1E+10	1	-1E+10	1	-1E+10	1	-1E+10	1
4902663	32	C	06/15/2024	22:16	-127.917	47.722	0	81.90	0	8.1580	0	32.5840	0	25.355	0	81.199	0	223.5	4	76.8	4	-1E+10	1	-1E+10	1	-1E+10	1	-1E+10	1	-1E+10	1	-1E+10	1
4902663	32	C	06/15/2024	22:16	-127.917	47.722	0	83.00	0	8.2200	0	32.6040	0	25.362	0	82.289	0	220.1	4	75.8	4	-1E+10	1	-1E+10	1	-1E+10	1	-1E+10	1	-1E+10	1	-1E+10	1
4902663	32	C	06/15/2024	22:16	-127.917	47.722	0	83.80	0	8.2850	0	32.6680	0	25.403	0	83.082	0	218.3	4	75.3	4	-1E+10	1	-1E+10	1	-1E+10	1	-1E+10	1	-1E+10	1	-1E+10	1
4902663	32	C	06/15/2024	22:16	-127.917	47.722	0	84.90	0	8.2700	0	32.6780	0	25.413	0	84.172	0	221.3	4	76.3	4	-1E+10	1	-1E+10	1	-1E+10	1	-1E+10	1	-1E+10	1	-1E+10	1
4902663	32	C	06/15/2024	22:16	-127.917	47.722	0	86.10	0	8.1640	0	32.7090	0	25.453	0	85.362	0	218.9	4	75.3	4	-1E+10	1	-1E+10	1	-1E+10	1	-1E+10	1	-1E+10	1	-1E+10	1
4902663	32	C	06/15/2024	22:16	-127.917	47.722	0	87.00	0	8.1180	0	32.7130	0	25.462	0	86.254	0	217.2	4	74.6	4	-1E+10	1	-1E+10	1	-1E+10	1	-1E+10	1	-1E+10	1	-1E+10	1
4902663	32	C	06/15/2024	22:16	-127.917	47.722	0	87.80	0	8.0680	0	32.7270	0	25.481	0	87.047	0	215.5	4	74.0	4	-1E+10	1	-1E+10	1	-1E+10	1	-1E+10	1	-1E+10	1	-1E+10	1
4902663	32	C	06/15/2024	22:16	-127.917	47.722	0	89.00	0	7.9720	0	32.7590	0	25.520	0	88.236	0	213.1	4	73.0	4	-1E+10	1	-1E+10	1	-1E+10	1	-1E+10	1	-1E+10	1	-1E+10	1
4902663	32	C	06/15/2024	22:16	-127.917	47.722	0	90.30	0	7.8920	0	32.7850	0	25.552	0	89.525	0	210.3	4	71.9	4	-1E+10	1	-1E+10	1	-1E+10	1	-1E+10	1	-1E+10	1	-1E+10	1
4902663	32	C	06/15/2024	22:16	-127.917	47.722	0	91.10	0	7.8330	0	32.7950	0	25.568	0	90.318	0	207.9	4	71.0	4	-1E+10	1	-1E+10	1	-1E+10	1	-1E+10	1	-1E+10	1	-1E+10	1
4902663	32	C	06/15/2024	22:16	-127.917	47.722	0	92.10	0	7.7900	0	32.8040	0	25.581	0	91.309	0	205.4	4	70.1	4	-1E+10	1	-1E+10	1	-1E+10	1	-1E+10	1	-1E+10	1	-1E+10	1
4902663	32	C	06/15/2024	22:16	-127.917	47.722	0	93.00	0	7.7410	0	32.8200	0	25.601	0	92.201	0	202.9	4	69.2	4	-1E+10	1	-1E+10	1	-1E+10	1	-1E+10	1	-1E+10	1	-1E+10	1
4902663	32	C	06/15/2024	22:16	-127.917	47.722	0	94.00	0	7.7170	0	32.8380	0	25.618	0	93.192	0	200.5	4	68.3	4	-1E+10	1	-1E+10	1	-1E+10	1	-1E+10	1	-1E+10	1	-1E+10	1
4902663	32	C	06/15/2024	22:16	-127.917	47.722	0	94.90	0	7.6760	0	32.8560	0	25.638	0	94.084	0	197.8	4	67.4	4	-1E+10	1	-1E+10	1	-1E+10	1	-1E+10	1	-1E+10	1	-1E+10	1
4902663	32	C	06/15/2024	22:16	-127.917	47.722	0	95.90	0	7.6680	0	32.9220	0	25.691	0	95.076	0	195.3	4	66.6	4	-1E+10	1	-1E+10	1	-1E+10	1	-1E+10	1	-1E+10	1	-1E+10	1
4902663	32	C	06/15/2024	22:16	-127.917	47.722	0	96.90	0	7.6190	0	32.9590	0	25.727	0	96.067	0	193.3	4	65.8	4	-1E+10	1	-1E+10	1	-1E+10	1	-1E+10	1	-1E+10	1	-1E+10	1
4902663	32	C	06/15/2024	22:16	-127.917	47.722	0	97.90	0	7.6030	0	32.9720	0	25.740	0	97.058	0	191.1	4	65.1	4	-1E+10	1	-1E+10	1	-1E+10	1	-1E+10	1	-1E+10	1	-1E+10	1
4902663	32	C	06/15/2024	22:16	-127.917	47.722	0	98.90	0	7.5930	0	33.0240	0	25.782	0	98.049	0	189.1	4	64.4	4	-1E+10	1	-1E+10	1	-1E+10	1	-1E+10	1	-1E+10	1	-1E+10	1
4902663	32	C	06/15/2024	22:16	-127.917	47.722	0	99.80	0	7.5790	0	33.0410	0	25.798	0	98.941	0	187.4	4	63.8	4	-1E+10	1	-1E+10	1	-1E+10	1	-1E+10	1	-1E+10	1	-1E+10	1
4902663	32	C	06/15/2024	22:16	-127.917	47.722	0	100.80	0	7.6030	0	33.0450	0	25.797	0	99.932	0	185.5	4	63.2	4	-1E+10	1	-1E+10	1	-1E+10	1	-1E+10	1	-1E+10	1	-1E+10	1
4902663	32	C	06/15/2024	22:16	-127.917	47.722	0	101.80	0	7.6160	0	33.0580	0	25.806	0	100.923	0	183.6	4	62.6	4	-1E+10	1	-1E+10	1	-1E+10	1	-1E+10	1	-1E+10	1	-1E+10	1
4902663	32	C	06/15/2024	22:16	-127.917	47.722	0	102.80	0	7.6110	0	33.0830	0	25.826	0	101.915	0	181.8	4	61.9	4	-1E+10	1	-1E+10	1	-1E+10	1	-1E+10	1	-1E+10	1	-1E+10	1
4902663	32	C	06/15/2024	22:16	-127.917	47.722	0	103.80	0	7.6160	0	33.0960	0	25.836	0	102.906	0	179.8	4	61.3	4	-1E+10	1	-1E+10	1	-1E+10	1	-1E+10	1	-1E+10	1	-1E+10	1
4902663	32	C	06/15/2024	22:16	-127.917	47.722	0	104.80	0	7.6270	0	33.1180	0	25.851	0	103.897	0	177.7	4	60.6	4	-1E+10	1	-1E+10	1	-1E+10	1	-1E+10	1	-1E+10	1	-1E+10	1
4902663	32	C	06/15/2024	22:16	-127.917	47.722	0	105.80	0	7.6330	0	33.1350	0	25.864	0	104.888	0	176.0	4	60.0	4	-1E+10	1	-1E+10	1	-1E+10	1	-1E+10	1	-1E+10	1	-1E+10	1
4902663	32	C	06/15/2024	22:16	-127.917	47.722	0	106.80	0	7.6350	0	33.1520	0	25.877	0	105.879	0	174.4	4	59.5	4	-1E+10	1	-1E+10	1	-1E+10	1	-1E+10	1	-1E+10	1	-1E+10	1
4902663	32	C	06/15/2024	22:16	-127.917	47.722	0	107.80	0	7.6310	0	33.1630	0	25.886	0	106.870	0	172.8	4	58.9	4	-1E+10	1	-1E+10	1	-1E+10	1	-1E+10	1	-1E+10	1	-1E+10	1
4902663	32	C	06/15/2024	22:16	-127.917	47.722	0	108.80	0	7.6450	0	33.1850	0	25.901	0	107.861	0	171.1	4	58.4	4	-1E+10	1	-1E+10	1	-1E+10	1	-1E+10	1	-1E+10	1	-1E+10	1
4902663	32	C	06/15/2024	22:16	-127.917	47.722	0	109.80	0	7.6480	0	33.2030	0	25.915	0	108.852	0	169.3	4	57.8	4	-1E+10	1	-1E+10	1	-1E+10	1	-1E+10	1	-1E+10	1	-1E+10	1
4902663	32	C	06/15/2024	22:16	-127.917	47.722	0	110.90	0	7.6420	0	33.2360	0	25.942	0	109.943	0	167.8	4	57.3	4	-1E+10	1	-1E+10	1	-1E+10	1	-1E+10	1	-1E+10	1	-1E+10	1
4902663	32	C	06/15/2024	22:16	-127.917	47.722	0	111.90	0	7.6090	0	33.2720	0	25.975	0	110.934	0	166.8	4	56.9	4	-1E+10	1	-1E+10	1	-1E+10	1	-1E+10	1	-1E+10	1	-1E+10	1
4902663	32	C	06/15/2024	22:16	-127.917	47.722	0	113.00	0	7.5950	0	33.2850	0	25.987	0	112.024	0	165.8	4	56.5	4	-1E+10	1	-1E+10	1	-1E+10	1	-1E+10	1	-1E+10	1	-1E+10	1
4902663	32	C	06/15/2024	22:16	-127.917	47.722	0	114.00	0	7.5830	0	33.2890	0	25.992	0	113.015	0	164.5	4	56.1	4	-1E+10	1	-1E+10	1	-1E+10	1	-1E+10	1	-1E+10	1	-1E+10	1
4902663	32	C	06/15/2024	22:16	-127.917	47.722	0	115.00	0	7.5530	0	33.2970	0	26.003	0	114.006	0	163.0	4	55.5	4	-1E+10	1	-1E+10	1	-1E+10	1	-1E+10	1	-1E+10	1	-1E+10	1
4902663	32	C	06/15/2024	22:16	-127.917	47.722	0	116.00	0	7.5250	0	33.3030	0	26.011	0	114.997	0	161.1	4	54.9	4	-1E+10	1	-1E+10	1	-1E+10	1	-1E+10	1	-1E+10	1	-1E+10	1
4902663	32	C	06/15/2024	22:16	-127.917	47.722	0	117.20	0	7.5080	0	33.3100	0	26.019	0	116.186	0	158.9	4	54.1	4	-1E+10	1	-1E+10	1	-1E+10	1	-1E+10	1	-1E+10	1	-1E+10	1
4902663	32	C	06/15/2024	22:16	-127.917	47.722	0	117.90	0	7.4970	0	33.3170	0	26.026	0	116.880	0	157.2	4	53.5	4	-1E+10	1	-1E+10	1	-1E+10	1	-1E+10	1	-1E+10	1	-1E+10	1
4902663	32	C	06/15/2024	22:16	-127.917	47.722	0	119.00	0	7.4940	0	33.3580	0	26.059	0	117.970	0	154.8	4	52.7	4	-1E+10	1	-1E+10	1	-1E+10	1	-1E+10	1	-1E+10	1	-1E+10	1
4902663	32	C	06/15/2024	22:16	-127.917	47.722	0	120.20	0	7.4890	0	33.4000	0	26.093	0	119.160	0	152.7	4	52.0	4	-1E+10	1	-1E+10	1	-1E+10	1	-1E+10	1	-1E+10	1	-1E+10	1
4902663	32	C	06/15/2024	22:16	-127.917	47.722	0	120.90	0	7.4880	0	33.4030	0	26.095	0	119.853	0	151.2	4	51.5	4	-1E+10	1	-1E+10	1	-1E+10	1	-1E+10	1	-1E+10	1	-1E+10	1
4902663	32	C	06/15/2024	22:16	-127.917	47.722	0	121.70	0	7.4880	0	33.4090	0	26.100	0	120.646	0	149.5	4	50.9	4	-1E+10	1	-1E+10	1	-1E+10	1	-1E+10	1	-1E+10	1	-1E+10	1
4902663	32	C	06/15/2024	22:16	-127.917	47.722	0	122.90	0	7.4860	0	33.4290	0	26.116	0	121.836	0	147.5	4	50.2	4	-1E+10	1	-1E+10	1	-1E+10	1	-1E+10	1	-1E+10	1	-1E+10	1
4902663	32	C	06/15/2024	22:16	-127.917	47.722	0	124.10	0	7.4860	0	33.4400	0	26.125	0	123.025	0	144.8	4	49.3	4	-1E+10	1	-1E+10	1	-1E+10	1	-1E+10	1	-1E+10	1	-1E+10	1
4902663	32	C	06/15/2024	22:16	-127.917	47.722	0	124.90	0	7.5010	0	33.4690	0	26.145	0	123.818	0	143.1	4	48.8	4	-1E+10	1	-1E+10	1	-1E+10	1	-1E+10	1	-1E+10	1	-1E+10	1
4902663	32	C	06/15/2024	22:16	-127.917	47.722	0	125.80	0	7.5100	0	33.5130	0	26.179	0	124.710	0	142.2	4	48.5	4	-1E+10	1	-1E+10	1	-1E+10	1	-1E+10	1	-1E+10	1	-1E+10	1
4902663	32	C	06/15/2024	22:16	-127.917	47.722	0	126.60	0	7.5040	0	33.5340	0	26.196	0	125.502	0	141.6	4	48.3	4	-1E+10	1	-1E+10	1	-1E+10	1	-1E+10	1	-1E+10	1	-1E+10	1
4902663	32	C	06/15/2024	22:16	-127.917	47.722	0	127.90	0	7.4970	0	33.5440	0	26.205	0	126.791	0	140.6	4	47.9	4	-1E+10	1	-1E+10	1	-1E+10	1	-1E+10	1	-1E+10	1	-1E+10	1
4902663	32	C	06/15/2024	22:16	-127.917	47.722	0	129.20	0	7.4990	0	33.5670	0	26.223	0	128.079	0	139.7	4	47.6	4	-1E+10	1	-1E+10	1	-1E+10	1	-1E+10	1	-1E+10	1	-1E+10	1
4902663	32	C	06/15/2024	22:16	-127.917	47.722	0	130.10	0	7.4980	0	33.5730	0	26.228	0	128.971	0	139.2	4	47.5	4	-1E+10	1	-1E+10	1	-1E+10	1	-1E+10	1	-1E+10	1	-1E+10	1
4902663	32	C	06/15/2024	22:16	-127.917	47.722	0	131.00	0	7.4930	0	33.5810	0	26.235	0	129.863	0	138.7	4	47.3	4	-1E+10	1	-1E+10	1	-1E+10	1	-1E+10	1	-1E+10	1	-1E+10	1
4902663	32	C	06/15/2024	22:16	-127.917	47.722	0	131.90	0	7.4930	0	33.5990	0	26.249	0	130.755	0	138.3	4	47.2	4	-1E+10	1	-1E+10	1	-1E+10	1	-1E+10	1	-1E+10	1	-1E+10	1
4902663	32	C	06/15/2024	22:16	-127.917	47.722	0	132.80	0	7.4910	0	33.6030	0	26.252	0	131.647	0	138.2	4	47.1	4	-1E+10	1	-1E+10	1	-1E+10	1	-1E+10	1	-1E+10	1	-1E+10	1
4902663	32	C	06/15/2024	22:16	-127.917	47.722	0	133.80	0	7.4840	0	33.6260	0	26.271	0	132.638	0	138.3	4	47.2	4	-1E+10	1	-1E+10	1	-1E+10	1	-1E+10	1	-1E+10	1	-1E+10	1
4902663	32	C	06/15/2024	22:16	-127.917	47.722	0	134.70	0	7.4790	0	33.6400	0	26.283	0	133.529	0	138.7	4	47.3	4	-1E+10	1	-1E+10	1	-1E+10	1	-1E+10	1	-1E+10	1	-1E+10	1
4902663	32	C	06/15/2024	22:16	-127.917	47.722	0	135.60	0	7.4730	0	33.6450	0	26.288	0	134.421	0	139.3	4	47.5	4	-1E+10	1	-1E+10	1	-1E+10	1	-1E+10	1	-1E+10	1	-1E+10	1
4902663	32	C	06/15/2024	22:16	-127.917	47.722	0	136.60	0	7.4680	0	33.6460	0	26.289	0	135.412	0	139.9	4	47.7	4	-1E+10	1	-1E+10	1	-1E+10	1	-1E+10	1	-1E+10	1	-1E+10	1
4902663	32	C	06/15/2024	22:16	-127.917	47.722	0	137.90	0	7.4390	0	33.6720	0	26.314	0	136.701	0	141.1	4	48.1	4	-1E+10	1	-1E+10	1	-1E+10	1	-1E+10	1	-1E+10	1	-1E+10	1
4902663	32	C	06/15/2024	22:16	-127.917	47.722	0	139.40	0	7.4330	0	33.6800	0	26.321	0	138.187	0	142.5	4	48.6	4	-1E+10	1	-1E+10	1	-1E+10	1	-1E+10	1	-1E+10	1	-1E+10	1
4902663	32	C	06/15/2024	22:16	-127.917	47.722	0	140.30	0	7.4290	0	33.6820	0	26.323	0	139.079	0	143.7	4	49.0	4	-1E+10	1	-1E+10	1	-1E+10	1	-1E+10	1	-1E+10	1	-1E+10	1
4902663	32	C	06/15/2024	22:16	-127.917	47.722	0	141.30	0	7.4250	0	33.6880	0	26.328	0	140.070	0	145.0	4	49.4	4	-1E+10	1	-1E+10	1	-1E+10	1	-1E+10	1	-1E+10	1	-1E+10	1
4902663	32	C	06/15/2024	22:16	-127.917	47.722	0	142.20	0	7.3190	0	33.6920	0	26.346	0	140.962	0	145.9	4	49.6	4	-1E+10	1	-1E+10	1	-1E+10	1	-1E+10	1	-1E+10	1	-1E+10	1
4902663	32	C	06/15/2024	22:16	-127.917	47.722	0	143.10	0	7.2930	0	33.6910	0	26.349	0	141.854	0	146.4	4	49.7	4	-1E+10	1	-1E+10	1	-1E+10	1	-1E+10	1	-1E+10	1	-1E+10	1
4902663	32	C	06/15/2024	22:16	-127.917	47.722	0	144.10	0	7.2360	0	33.6890	0	26.356	0	142.845	0	146.7	4	49.8	4	-1E+10	1	-1E+10	1	-1E+10	1	-1E+10	1	-1E+10	1	-1E+10	1
4902663	32	C	06/15/2024	22:16	-127.917	47.722	0	145.10	0	7.1780	0	33.6970	0	26.370	0	143.836	0	146.4	4	49.6	4	-1E+10	1	-1E+10	1	-1E+10	1	-1E+10	1	-1E+10	1	-1E+10	1
4902663	32	C	06/15/2024	22:16	-127.917	47.722	0	146.00	0	7.1580	0	33.6930	0	26.370	0	144.727	0	145.8	4	49.4	4	-1E+10	1	-1E+10	1	-1E+10	1	-1E+10	1	-1E+10	1	-1E+10	1
4902663	32	C	06/15/2024	22:16	-127.917	47.722	0	147.00	0	7.1500	0	33.6920	0	26.370	0	145.718	0	145.0	4	49.1	4	-1E+10	1	-1E+10	1	-1E+10	1	-1E+10	1	-1E+10	1	-1E+10	1
4902663	32	C	06/15/2024	22:16	-127.917	47.722	0	148.00	0	7.1520	0	33.6920	0	26.370	0	146.709	0	144.1	4	48.8	4	-1E+10	1	-1E+10	1	-1E+10	1	-1E+10	1	-1E+10	1	-1E+10	1
4902663	32	C	06/15/2024	22:16	-127.917	47.722	0	148.90	0	7.1420	0	33.6950	0	26.373	0	147.601	0	143.2	4	48.5	4	-1E+10	1	-1E+10	1	-1E+10	1	-1E+10	1	-1E+10	1	-1E+10	1
4902663	32	C	06/15/2024	22:16	-127.917	47.722	0	149.90	0	7.1280	0	33.7000	0	26.379	0	148.592	0	142.2	4	48.2	4	-1E+10	1	-1E+10	1	-1E+10	1	-1E+10	1	-1E+10	1	-1E+10	1
4902663	32	C	06/15/2024	22:16	-127.917	47.722	0	150.80	0	7.1280	0	33.7060	0	26.384	0	149.484	0	141.4	4	47.9	4	-1E+10	1	-1E+10	1	-1E+10	1	-1E+10	1	-1E+10	1	-1E+10	1
4902663	32	C	06/15/2024	22:16	-127.917	47.722	0	151.80	0	7.1320	0	33.7160	0	26.391	0	150.475	0	140.6	4	47.6	4	-1E+10	1	-1E+10	1	-1E+10	1	-1E+10	1	-1E+10	1	-1E+10	1
4902663	32	C	06/15/2024	22:16	-127.917	47.722	0	152.80	0	7.1380	0	33.7230	0	26.396	0	151.466	0	139.7	4	47.3	4	-1E+10	1	-1E+10	1	-1E+10	1	-1E+10	1	-1E+10	1	-1E+10	1
4902663	32	C	06/15/2024	22:16	-127.917	47.722	0	153.80	0	7.1480	0	33.7300	0	26.400	0	152.456	0	139.0	4	47.1	4	-1E+10	1	-1E+10	1	-1E+10	1	-1E+10	1	-1E+10	1	-1E+10	1
4902663	32	C	06/15/2024	22:16	-127.917	47.722	0	154.70	0	7.1540	0	33.7390	0	26.407	0	153.348	0	138.4	4	46.9	4	-1E+10	1	-1E+10	1	-1E+10	1	-1E+10	1	-1E+10	1	-1E+10	1
4902663	32	C	06/15/2024	22:16	-127.917	47.722	0	155.70	0	7.1180	0	33.7410	0	26.413	0	154.339	0	137.8	4	46.7	4	-1E+10	1	-1E+10	1	-1E+10	1	-1E+10	1	-1E+10	1	-1E+10	1
4902663	32	C	06/15/2024	22:16	-127.917	47.722	0	156.60	0	7.1150	0	33.7410	0	26.413	0	155.231	0	136.9	4	46.4	4	-1E+10	1	-1E+10	1	-1E+10	1	-1E+10	1	-1E+10	1	-1E+10	1
4902663	32	C	06/15/2024	22:16	-127.917	47.722	0	157.60	0	7.1000	0	33.7530	0	26.425	0	156.222	0	136.0	4	46.0	4	-1E+10	1	-1E+10	1	-1E+10	1	-1E+10	1	-1E+10	1	-1E+10	1
4902663	32	C	06/15/2024	22:16	-127.917	47.722	0	158.50	0	7.1050	0	33.7590	0	26.429	0	157.114	0	135.4	4	45.8	4	-1E+10	1	-1E+10	1	-1E+10	1	-1E+10	1	-1E+10	1	-1E+10	1
4902663	32	C	06/15/2024	22:16	-127.917	47.722	0	159.90	0	7.0980	0	33.7590	0	26.430	0	158.501	0	134.2	4	45.4	4	-1E+10	1	-1E+10	1	-1E+10	1	-1E+10	1	-1E+10	1	-1E+10	1
4902663	32	C	06/15/2024	22:16	-127.917	47.722	0	161.40	0	7.0850	0	33.7650	0	26.437	0	159.987	0	133.1	4	45.0	4	-1E+10	1	-1E+10	1	-1E+10	1	-1E+10	1	-1E+10	1	-1E+10	1
4902663	32	C	06/15/2024	22:16	-127.917	47.722	0	162.30	0	7.0850	0	33.7690	0	26.440	0	160.879	0	132.1	4	44.7	4	-1E+10	1	-1E+10	1	-1E+10	1	-1E+10	1	-1E+10	1	-1E+10	1
4902663	32	C	06/15/2024	22:16	-127.917	47.722	0	163.30	0	7.0780	0	33.7740	0	26.445	0	161.870	0	131.1	4	44.3	4	-1E+10	1	-1E+10	1	-1E+10	1	-1E+10	1	-1E+10	1	-1E+10	1
4902663	32	C	06/15/2024	22:16	-127.917	47.722	0	164.30	0	7.0780	0	33.7750	0	26.445	0	162.861	0	129.8	4	43.9	4	-1E+10	1	-1E+10	1	-1E+10	1	-1E+10	1	-1E+10	1	-1E+10	1
4902663	32	C	06/15/2024	22:16	-127.917	47.722	0	165.20	0	7.0800	0	33.7770	0	26.447	0	163.752	0	128.4	4	43.5	4	-1E+10	1	-1E+10	1	-1E+10	1	-1E+10	1	-1E+10	1	-1E+10	1
4902663	32	C	06/15/2024	22:16	-127.917	47.722	0	166.20	0	7.0850	0	33.7790	0	26.448	0	164.743	0	126.8	4	42.9	4	-1E+10	1	-1E+10	1	-1E+10	1	-1E+10	1	-1E+10	1	-1E+10	1
4902663	32	C	06/15/2024	22:16	-127.917	47.722	0	167.20	0	7.0890	0	33.7800	0	26.448	0	165.734	0	125.1	4	42.3	4	-1E+10	1	-1E+10	1	-1E+10	1	-1E+10	1	-1E+10	1	-1E+10	1
4902663	32	C	06/15/2024	22:16	-127.917	47.722	0	168.10	0	7.1160	0	33.7970	0	26.458	0	166.626	0	123.6	4	41.9	4	-1E+10	1	-1E+10	1	-1E+10	1	-1E+10	1	-1E+10	1	-1E+10	1
4902663	32	C	06/15/2024	22:16	-127.917	47.722	0	169.10	0	7.1180	0	33.8050	0	26.464	0	167.617	0	122.1	4	41.4	4	-1E+10	1	-1E+10	1	-1E+10	1	-1E+10	1	-1E+10	1	-1E+10	1
4902663	32	C	06/15/2024	22:16	-127.917	47.722	0	170.10	0	7.1170	0	33.8080	0	26.466	0	168.607	0	120.5	4	40.8	4	-1E+10	1	-1E+10	1	-1E+10	1	-1E+10	1	-1E+10	1	-1E+10	1
4902663	32	C	06/15/2024	22:16	-127.917	47.722	0	171.10	0	7.1090	0	33.8140	0	26.472	0	169.598	0	118.8	4	40.2	4	-1E+10	1	-1E+10	1	-1E+10	1	-1E+10	1	-1E+10	1	-1E+10	1
4902663	32	C	06/15/2024	22:16	-127.917	47.722	0	172.20	0	7.1080	0	33.8180	0	26.475	0	170.688	0	117.1	4	39.6	4	-1E+10	1	-1E+10	1	-1E+10	1	-1E+10	1	-1E+10	1	-1E+10	1
4902663	32	C	06/15/2024	22:16	-127.917	47.722	0	173.20	0	7.1160	0	33.8210	0	26.477	0	171.679	0	115.4	4	39.1	4	-1E+10	1	-1E+10	1	-1E+10	1	-1E+10	1	-1E+10	1	-1E+10	1
4902663	32	C	06/15/2024	22:16	-127.917	47.722	0	174.20	0	7.1410	0	33.8350	0	26.484	0	172.670	0	113.9	4	38.6	4	-1E+10	1	-1E+10	1	-1E+10	1	-1E+10	1	-1E+10	1	-1E+10	1
4902663	32	C	06/15/2024	22:16	-127.917	47.722	0	175.20	0	7.1860	0	33.8490	0	26.489	0	173.661	0	112.6	4	38.2	4	-1E+10	1	-1E+10	1	-1E+10	1	-1E+10	1	-1E+10	1	-1E+10	1
4902663	32	C	06/15/2024	22:16	-127.917	47.722	0	176.30	0	7.2180	0	33.8510	0	26.486	0	174.750	0	111.5	4	37.9	4	-1E+10	1	-1E+10	1	-1E+10	1	-1E+10	1	-1E+10	1	-1E+10	1
4902663	32	C	06/15/2024	22:16	-127.917	47.722	0	177.30	0	7.2310	0	33.8650	0	26.495	0	175.741	0	110.7	4	37.6	4	-1E+10	1	-1E+10	1	-1E+10	1	-1E+10	1	-1E+10	1	-1E+10	1
4902663	32	C	06/15/2024	22:16	-127.917	47.722	0	178.30	0	7.2380	0	33.8660	0	26.495	0	176.732	0	109.9	4	37.3	4	-1E+10	1	-1E+10	1	-1E+10	1	-1E+10	1	-1E+10	1	-1E+10	1
4902663	32	C	06/15/2024	22:16	-127.917	47.722	0	179.40	0	7.2330	0	33.8670	0	26.497	0	177.822	0	109.0	4	37.0	4	-1E+10	1	-1E+10	1	-1E+10	1	-1E+10	1	-1E+10	1	-1E+10	1
4902663	32	C	06/15/2024	22:16	-127.917	47.722	0	180.40	0	7.2310	0	33.8700	0	26.499	0	178.813	0	108.0	4	36.7	4	-1E+10	1	-1E+10	1	-1E+10	1	-1E+10	1	-1E+10	1	-1E+10	1
4902663	32	C	06/15/2024	22:16	-127.917	47.722	0	181.40	0	7.2000	0	33.8760	0	26.508	0	179.803	0	107.2	4	36.4	4	-1E+10	1	-1E+10	1	-1E+10	1	-1E+10	1	-1E+10	1	-1E+10	1
4902663	32	C	06/15/2024	22:16	-127.917	47.722	0	182.40	0	7.2050	0	33.8820	0	26.512	0	180.794	0	106.5	4	36.2	4	-1E+10	1	-1E+10	1	-1E+10	1	-1E+10	1	-1E+10	1	-1E+10	1
4902663	32	C	06/15/2024	22:16	-127.917	47.722	0	183.40	0	7.2050	0	33.8880	0	26.517	0	181.785	0	106.0	4	36.0	4	-1E+10	1	-1E+10	1	-1E+10	1	-1E+10	1	-1E+10	1	-1E+10	1
4902663	32	C	06/15/2024	22:16	-127.917	47.722	0	184.40	0	7.2030	0	33.8890	0	26.518	0	182.776	0	105.6	4	35.9	4	-1E+10	1	-1E+10	1	-1E+10	1	-1E+10	1	-1E+10	1	-1E+10	1
4902663	32	C	06/15/2024	22:16	-127.917	47.722	0	185.40	0	7.1990	0	33.8910	0	26.520	0	183.766	0	105.1	4	35.7	4	-1E+10	1	-1E+10	1	-1E+10	1	-1E+10	1	-1E+10	1	-1E+10	1
4902663	32	C	06/15/2024	22:16	-127.917	47.722	0	186.40	0	7.1800	0	33.8920	0	26.524	0	184.757	0	104.7	4	35.5	4	-1E+10	1	-1E+10	1	-1E+10	1	-1E+10	1	-1E+10	1	-1E+10	1
4902663	32	C	06/15/2024	22:16	-127.917	47.722	0	187.50	0	7.1700	0	33.8930	0	26.526	0	185.847	0	104.2	4	35.4	4	-1E+10	1	-1E+10	1	-1E+10	1	-1E+10	1	-1E+10	1	-1E+10	1
4902663	32	C	06/15/2024	22:16	-127.917	47.722	0	188.50	0	7.1710	0	33.8990	0	26.531	0	186.838	0	103.8	4	35.2	4	-1E+10	1	-1E+10	1	-1E+10	1	-1E+10	1	-1E+10	1	-1E+10	1
4902663	32	C	06/15/2024	22:16	-127.917	47.722	0	189.60	0	7.1660	0	33.8990	0	26.531	0	187.927	0	103.5	4	35.1	4	-1E+10	1	-1E+10	1	-1E+10	1	-1E+10	1	-1E+10	1	-1E+10	1
4902663	32	C	06/15/2024	22:16	-127.917	47.722	0	190.60	0	7.1430	0	33.8980	0	26.534	0	188.918	0	103.1	4	35.0	4	-1E+10	1	-1E+10	1	-1E+10	1	-1E+10	1	-1E+10	1	-1E+10	1
4902663	32	C	06/15/2024	22:16	-127.917	47.722	0	191.60	0	7.1410	0	33.8990	0	26.535	0	189.909	0	102.6	4	34.8	4	-1E+10	1	-1E+10	1	-1E+10	1	-1E+10	1	-1E+10	1	-1E+10	1
4902663	32	C	06/15/2024	22:16	-127.917	47.722	0	192.70	0	7.1410	0	33.9000	0	26.536	0	190.999	0	102.2	4	34.7	4	-1E+10	1	-1E+10	1	-1E+10	1	-1E+10	1	-1E+10	1	-1E+10	1
4902663	32	C	06/15/2024	22:16	-127.917	47.722	0	193.70	0	7.1380	0	33.9010	0	26.537	0	191.989	0	101.8	4	34.5	4	-1E+10	1	-1E+10	1	-1E+10	1	-1E+10	1	-1E+10	1	-1E+10	1
4902663	32	C	06/15/2024	22:16	-127.917	47.722	0	194.70	0	7.1170	0	33.9050	0	26.543	0	192.980	0	101.4	4	34.4	4	-1E+10	1	-1E+10	1	-1E+10	1	-1E+10	1	-1E+10	1	-1E+10	1
4902663	32	C	06/15/2024	22:16	-127.917	47.722	0	195.70	0	7.1080	0	33.9040	0	26.543	0	193.971	0	101.1	4	34.3	4	-1E+10	1	-1E+10	1	-1E+10	1	-1E+10	1	-1E+10	1	-1E+10	1
4902663	32	C	06/15/2024	22:16	-127.917	47.722	0	196.80	0	7.0970	0	33.9070	0	26.547	0	195.061	0	100.9	4	34.2	4	-1E+10	1	-1E+10	1	-1E+10	1	-1E+10	1	-1E+10	1	-1E+10	1
4902663	32	C	06/15/2024	22:16	-127.917	47.722	0	197.80	0	7.0880	0	33.9050	0	26.547	0	196.051	0	100.6	4	34.1	4	-1E+10	1	-1E+10	1	-1E+10	1	-1E+10	1	-1E+10	1	-1E+10	1
4902663	32	C	06/15/2024	22:16	-127.917	47.722	0	198.80	0	7.0850	0	33.9050	0	26.547	0	197.042	0	100.2	4	33.9	4	-1E+10	1	-1E+10	1	-1E+10	1	-1E+10	1	-1E+10	1	-1E+10	1
4902663	32	C	06/15/2024	22:16	-127.917	47.722	0	199.80	0	7.0790	0	33.9060	0	26.549	0	198.033	0	99.7	4	33.8	4	-1E+10	1	-1E+10	1	-1E+10	1	-1E+10	1	-1E+10	1	-1E+10	1
4902663	32	C	06/15/2024	22:16	-127.917	47.722	0	200.90	0	7.0560	0	33.9090	0	26.554	0	199.122	0	99.2	4	33.6	4	-1E+10	1	-1E+10	1	-1E+10	1	-1E+10	1	-1E+10	1	-1E+10	1
4902663	32	C	06/15/2024	22:16	-127.917	47.722	0	201.90	0	7.0330	0	33.9090	0	26.558	0	200.113	0	98.9	4	33.4	4	-1E+10	1	-1E+10	1	-1E+10	1	-1E+10	1	-1E+10	1	-1E+10	1
4902663	32	C	06/15/2024	22:16	-127.917	47.722	0	203.00	0	7.0100	0	33.9110	0	26.562	0	201.203	0	98.5	4	33.3	4	-1E+10	1	-1E+10	1	-1E+10	1	-1E+10	1	-1E+10	1	-1E+10	1
4902663	32	C	06/15/2024	22:16	-127.917	47.722	0	204.00	0	6.9910	0	33.9130	0	26.567	0	202.193	0	98.3	4	33.2	4	-1E+10	1	-1E+10	1	-1E+10	1	-1E+10	1	-1E+10	1	-1E+10	1
4902663	32	C	06/15/2024	22:16	-127.917	47.722	0	205.00	0	6.9840	0	33.9130	0	26.567	0	203.184	0	98.1	4	33.1	4	-1E+10	1	-1E+10	1	-1E+10	1	-1E+10	1	-1E+10	1	-1E+10	1
4902663	32	C	06/15/2024	22:16	-127.917	47.722	0	206.10	0	6.9770	0	33.9130	0	26.568	0	204.274	0	97.9	4	33.1	4	-1E+10	1	-1E+10	1	-1E+10	1	-1E+10	1	-1E+10	1	-1E+10	1
4902663	32	C	06/15/2024	22:16	-127.917	47.722	0	207.20	0	6.9690	0	33.9150	0	26.571	0	205.363	0	97.6	4	33.0	4	-1E+10	1	-1E+10	1	-1E+10	1	-1E+10	1	-1E+10	1	-1E+10	1
4902663	32	C	06/15/2024	22:16	-127.917	47.722	0	208.30	0	6.9550	0	33.9150	0	26.573	0	206.453	0	97.4	4	32.9	4	-1E+10	1	-1E+10	1	-1E+10	1	-1E+10	1	-1E+10	1	-1E+10	1
4902663	32	C	06/15/2024	22:16	-127.917	47.722	0	209.40	0	6.9480	0	33.9140	0	26.573	0	207.543	0	97.1	4	32.8	4	-1E+10	1	-1E+10	1	-1E+10	1	-1E+10	1	-1E+10	1	-1E+10	1
4902663	32	C	06/15/2024	22:16	-127.917	47.722	0	210.40	0	6.9400	0	33.9150	0	26.575	0	208.533	0	96.8	4	32.7	4	-1E+10	1	-1E+10	1	-1E+10	1	-1E+10	1	-1E+10	1	-1E+10	1
4902663	32	C	06/15/2024	22:16	-127.917	47.722	0	211.50	0	6.9320	0	33.9150	0	26.576	0	209.623	0	96.4	4	32.6	4	-1E+10	1	-1E+10	1	-1E+10	1	-1E+10	1	-1E+10	1	-1E+10	1
4902663	32	C	06/15/2024	22:16	-127.917	47.722	0	212.60	0	6.9300	0	33.9160	0	26.577	0	210.713	0	96.2	4	32.5	4	-1E+10	1	-1E+10	1	-1E+10	1	-1E+10	1	-1E+10	1	-1E+10	1
4902663	32	C	06/15/2024	22:16	-127.917	47.722	0	213.60	0	6.9290	0	33.9170	0	26.578	0	211.703	0	95.8	4	32.3	4	-1E+10	1	-1E+10	1	-1E+10	1	-1E+10	1	-1E+10	1	-1E+10	1
4902663	32	C	06/15/2024	22:16	-127.917	47.722	0	214.70	0	6.9280	0	33.9170	0	26.578	0	212.793	0	95.5	4	32.2	4	-1E+10	1	-1E+10	1	-1E+10	1	-1E+10	1	-1E+10	1	-1E+10	1
4902663	32	C	06/15/2024	22:16	-127.917	47.722	0	215.70	0	6.9240	0	33.9170	0	26.579	0	213.784	0	95.2	4	32.1	4	-1E+10	1	-1E+10	1	-1E+10	1	-1E+10	1	-1E+10	1	-1E+10	1
4902663	32	C	06/15/2024	22:16	-127.917	47.722	0	216.80	0	6.9190	0	33.9180	0	26.580	0	214.873	0	94.8	4	32.0	4	-1E+10	1	-1E+10	1	-1E+10	1	-1E+10	1	-1E+10	1	-1E+10	1
4902663	32	C	06/15/2024	22:16	-127.917	47.722	0	217.80	0	6.9010	0	33.9190	0	26.584	0	215.864	0	94.4	4	31.8	4	-1E+10	1	-1E+10	1	-1E+10	1	-1E+10	1	-1E+10	1	-1E+10	1
4902663	32	C	06/15/2024	22:16	-127.917	47.722	0	218.90	0	6.8880	0	33.9200	0	26.586	0	216.954	0	94.0	4	31.7	4	-1E+10	1	-1E+10	1	-1E+10	1	-1E+10	1	-1E+10	1	-1E+10	1
4902663	32	C	06/15/2024	22:16	-127.917	47.722	0	219.90	0	6.8860	0	33.9200	0	26.586	0	217.944	0	93.5	4	31.5	4	-1E+10	1	-1E+10	1	-1E+10	1	-1E+10	1	-1E+10	1	-1E+10	1
4902663	32	C	06/15/2024	22:16	-127.917	47.722	0	220.90	0	6.8850	0	33.9200	0	26.587	0	218.935	0	93.0	4	31.3	4	-1E+10	1	-1E+10	1	-1E+10	1	-1E+10	1	-1E+10	1	-1E+10	1
4902663	32	C	06/15/2024	22:16	-127.917	47.722	0	222.00	0	6.8830	0	33.9200	0	26.587	0	220.024	0	92.3	4	31.1	4	-1E+10	1	-1E+10	1	-1E+10	1	-1E+10	1	-1E+10	1	-1E+10	1
4902663	32	C	06/15/2024	22:16	-127.917	47.722	0	223.00	0	6.8680	0	33.9220	0	26.591	0	221.015	0	91.6	4	30.9	4	-1E+10	1	-1E+10	1	-1E+10	1	-1E+10	1	-1E+10	1	-1E+10	1
4902663	32	C	06/15/2024	22:16	-127.917	47.722	0	224.10	0	6.8560	0	33.9240	0	26.594	0	222.105	0	91.0	4	30.7	4	-1E+10	1	-1E+10	1	-1E+10	1	-1E+10	1	-1E+10	1	-1E+10	1
4902663	32	C	06/15/2024	22:16	-127.917	47.722	0	225.20	0	6.8400	0	33.9250	0	26.597	0	223.194	0	90.3	4	30.4	4	-1E+10	1	-1E+10	1	-1E+10	1	-1E+10	1	-1E+10	1	-1E+10	1
4902663	32	C	06/15/2024	22:16	-127.917	47.722	0	226.20	0	6.8380	0	33.9270	0	26.599	0	224.185	0	89.7	4	30.2	4	-1E+10	1	-1E+10	1	-1E+10	1	-1E+10	1	-1E+10	1	-1E+10	1
4902663	32	C	06/15/2024	22:16	-127.917	47.722	0	227.30	0	6.8370	0	33.9280	0	26.599	0	225.274	0	89.2	4	30.0	4	-1E+10	1	-1E+10	1	-1E+10	1	-1E+10	1	-1E+10	1	-1E+10	1
4902663	32	C	06/15/2024	22:16	-127.917	47.722	0	228.40	0	6.8080	0	33.9310	0	26.606	0	226.364	0	88.8	4	29.9	4	-1E+10	1	-1E+10	1	-1E+10	1	-1E+10	1	-1E+10	1	-1E+10	1
4902663	32	C	06/15/2024	22:16	-127.917	47.722	0	229.40	0	6.7760	0	33.9320	0	26.611	0	227.354	0	88.4	4	29.7	4	-1E+10	1	-1E+10	1	-1E+10	1	-1E+10	1	-1E+10	1	-1E+10	1
4902663	32	C	06/15/2024	22:16	-127.917	47.722	0	230.50	0	6.7620	0	33.9320	0	26.613	0	228.444	0	88.0	4	29.6	4	-1E+10	1	-1E+10	1	-1E+10	1	-1E+10	1	-1E+10	1	-1E+10	1
4902663	32	C	06/15/2024	22:16	-127.917	47.722	0	231.60	0	6.7580	0	33.9320	0	26.613	0	229.534	0	87.4	4	29.4	4	-1E+10	1	-1E+10	1	-1E+10	1	-1E+10	1	-1E+10	1	-1E+10	1
4902663	32	C	06/15/2024	22:16	-127.917	47.722	0	232.70	0	6.7520	0	33.9330	0	26.615	0	230.623	0	86.9	4	29.2	4	-1E+10	1	-1E+10	1	-1E+10	1	-1E+10	1	-1E+10	1	-1E+10	1
4902663	32	C	06/15/2024	22:16	-127.917	47.722	0	233.70	0	6.7430	0	33.9380	0	26.620	0	231.614	0	86.4	4	29.0	4	-1E+10	1	-1E+10	1	-1E+10	1	-1E+10	1	-1E+10	1	-1E+10	1
4902663	32	C	06/15/2024	22:16	-127.917	47.722	0	234.80	0	6.7440	0	33.9340	0	26.617	0	232.703	0	85.9	4	28.9	4	-1E+10	1	-1E+10	1	-1E+10	1	-1E+10	1	-1E+10	1	-1E+10	1
4902663	32	C	06/15/2024	22:16	-127.917	47.722	0	235.90	0	6.7140	0	33.9410	0	26.626	0	233.793	0	85.6	4	28.7	4	-1E+10	1	-1E+10	1	-1E+10	1	-1E+10	1	-1E+10	1	-1E+10	1
4902663	32	C	06/15/2024	22:16	-127.917	47.722	0	237.00	0	6.6830	0	33.9400	0	26.630	0	234.882	0	85.3	4	28.6	4	-1E+10	1	-1E+10	1	-1E+10	1	-1E+10	1	-1E+10	1	-1E+10	1
4902663	32	C	06/15/2024	22:16	-127.917	47.722	0	238.10	0	6.6650	0	33.9370	0	26.630	0	235.972	0	85.0	4	28.5	4	-1E+10	1	-1E+10	1	-1E+10	1	-1E+10	1	-1E+10	1	-1E+10	1
4902663	32	C	06/15/2024	22:16	-127.917	47.722	0	239.20	0	6.6590	0	33.9380	0	26.631	0	237.062	0	84.7	4	28.4	4	-1E+10	1	-1E+10	1	-1E+10	1	-1E+10	1	-1E+10	1	-1E+10	1
4902663	32	C	06/15/2024	22:16	-127.917	47.722	0	240.20	0	6.6530	0	33.9390	0	26.633	0	238.052	0	84.4	4	28.3	4	-1E+10	1	-1E+10	1	-1E+10	1	-1E+10	1	-1E+10	1	-1E+10	1
4902663	32	C	06/15/2024	22:16	-127.917	47.722	0	241.30	0	6.6560	0	33.9400	0	26.633	0	239.142	0	84.1	4	28.2	4	-1E+10	1	-1E+10	1	-1E+10	1	-1E+10	1	-1E+10	1	-1E+10	1
4902663	32	C	06/15/2024	22:16	-127.917	47.722	0	242.40	0	6.6540	0	33.9400	0	26.634	0	240.231	0	83.8	4	28.1	4	-1E+10	1	-1E+10	1	-1E+10	1	-1E+10	1	-1E+10	1	-1E+10	1
4902663	32	C	06/15/2024	22:16	-127.917	47.722	0	243.50	0	6.6410	0	33.9420	0	26.637	0	241.321	0	83.6	4	28.0	4	-1E+10	1	-1E+10	1	-1E+10	1	-1E+10	1	-1E+10	1	-1E+10	1
4902663	32	C	06/15/2024	22:16	-127.917	47.722	0	244.60	0	6.6380	0	33.9430	0	26.638	0	242.410	0	83.4	4	28.0	4	-1E+10	1	-1E+10	1	-1E+10	1	-1E+10	1	-1E+10	1	-1E+10	1
4902663	32	C	06/15/2024	22:16	-127.917	47.722	0	245.60	0	6.6360	0	33.9420	0	26.638	0	243.401	0	83.2	4	27.9	4	-1E+10	1	-1E+10	1	-1E+10	1	-1E+10	1	-1E+10	1	-1E+10	1
4902663	32	C	06/15/2024	22:16	-127.917	47.722	0	246.60	0	6.6340	0	33.9420	0	26.638	0	244.391	0	82.9	4	27.8	4	-1E+10	1	-1E+10	1	-1E+10	1	-1E+10	1	-1E+10	1	-1E+10	1
4902663	32	C	06/15/2024	22:16	-127.917	47.722	0	247.80	0	6.6210	0	33.9430	0	26.640	0	245.580	0	82.7	4	27.7	4	-1E+10	1	-1E+10	1	-1E+10	1	-1E+10	1	-1E+10	1	-1E+10	1
4902663	32	C	06/15/2024	22:16	-127.917	47.722	0	248.90	0	6.6180	0	33.9430	0	26.641	0	246.669	0	82.4	4	27.6	4	-1E+10	1	-1E+10	1	-1E+10	1	-1E+10	1	-1E+10	1	-1E+10	1
4902663	32	C	06/15/2024	22:16	-127.917	47.722	0	250.10	0	6.6160	0	33.9450	0	26.643	0	247.858	0	82.2	4	27.6	4	-1E+10	1	-1E+10	1	-1E+10	1	-1E+10	1	-1E+10	1	-1E+10	1
4902663	32	C	06/15/2024	22:16	-127.917	47.722	0	250.90	0	6.6000	0	33.9490	0	26.648	0	248.650	0	82.1	4	27.5	4	-1E+10	1	-1E+10	1	-1E+10	1	-1E+10	1	-1E+10	1	-1E+10	1
4902663	32	C	06/15/2024	22:16	-127.917	47.722	0	251.70	0	6.5870	0	33.9450	0	26.646	0	249.442	0	82.0	4	27.5	4	-1E+10	1	-1E+10	1	-1E+10	1	-1E+10	1	-1E+10	1	-1E+10	1
4902663	32	C	06/15/2024	22:16	-127.917	47.722	0	252.90	0	6.5330	0	33.9460	0	26.654	0	250.631	0	81.6	4	27.3	4	-1E+10	1	-1E+10	1	-1E+10	1	-1E+10	1	-1E+10	1	-1E+10	1
4902663	32	C	06/15/2024	22:16	-127.917	47.722	0	254.10	0	6.5210	0	33.9430	0	26.654	0	251.819	0	81.1	4	27.1	4	-1E+10	1	-1E+10	1	-1E+10	1	-1E+10	1	-1E+10	1	-1E+10	1
4902663	32	C	06/15/2024	22:16	-127.917	47.722	0	255.00	0	6.5170	0	33.9440	0	26.655	0	252.711	0	80.8	4	27.0	4	-1E+10	1	-1E+10	1	-1E+10	1	-1E+10	1	-1E+10	1	-1E+10	1
4902663	32	C	06/15/2024	22:16	-127.917	47.722	0	255.80	0	6.4770	0	33.9430	0	26.659	0	253.503	0	80.4	4	26.9	4	-1E+10	1	-1E+10	1	-1E+10	1	-1E+10	1	-1E+10	1	-1E+10	1
4902663	32	C	06/15/2024	22:16	-127.917	47.722	0	257.00	0	6.4430	0	33.9440	0	26.665	0	254.691	0	79.8	4	26.6	4	-1E+10	1	-1E+10	1	-1E+10	1	-1E+10	1	-1E+10	1	-1E+10	1
4902663	32	C	06/15/2024	22:16	-127.917	47.722	0	258.20	0	6.4260	0	33.9450	0	26.668	0	255.880	0	79.3	4	26.5	4	-1E+10	1	-1E+10	1	-1E+10	1	-1E+10	1	-1E+10	1	-1E+10	1
4902663	32	C	06/15/2024	22:16	-127.917	47.722	0	259.00	0	6.4280	0	33.9460	0	26.668	0	256.672	0	78.9	4	26.3	4	-1E+10	1	-1E+10	1	-1E+10	1	-1E+10	1	-1E+10	1	-1E+10	1
4902663	32	C	06/15/2024	22:16	-127.917	47.722	0	259.80	0	6.4330	0	33.9470	0	26.668	0	257.465	0	78.6	4	26.2	4	-1E+10	1	-1E+10	1	-1E+10	1	-1E+10	1	-1E+10	1	-1E+10	1
4902663	32	C	06/15/2024	22:16	-127.917	47.722	0	261.00	0	6.4330	0	33.9480	0	26.669	0	258.653	0	78.1	4	26.1	4	-1E+10	1	-1E+10	1	-1E+10	1	-1E+10	1	-1E+10	1	-1E+10	1
4902663	32	C	06/15/2024	22:16	-127.917	47.722	0	262.20	0	6.4310	0	33.9490	0	26.670	0	259.841	0	77.6	4	25.9	4	-1E+10	1	-1E+10	1	-1E+10	1	-1E+10	1	-1E+10	1	-1E+10	1
4902663	32	C	06/15/2024	22:16	-127.917	47.722	0	263.00	0	6.4290	0	33.9490	0	26.670	0	260.634	0	77.2	4	25.8	4	-1E+10	1	-1E+10	1	-1E+10	1	-1E+10	1	-1E+10	1	-1E+10	1
4902663	32	C	06/15/2024	22:16	-127.917	47.722	0	263.80	0	6.4260	0	33.9520	0	26.673	0	261.426	0	76.9	4	25.7	4	-1E+10	1	-1E+10	1	-1E+10	1	-1E+10	1	-1E+10	1	-1E+10	1
4902663	32	C	06/15/2024	22:16	-127.917	47.722	0	264.60	0	6.4250	0	33.9520	0	26.673	0	262.218	0	76.7	4	25.6	4	-1E+10	1	-1E+10	1	-1E+10	1	-1E+10	1	-1E+10	1	-1E+10	1
4902663	32	C	06/15/2024	22:16	-127.917	47.722	0	265.90	0	6.4110	0	33.9510	0	26.674	0	263.506	0	76.3	4	25.4	4	-1E+10	1	-1E+10	1	-1E+10	1	-1E+10	1	-1E+10	1	-1E+10	1
4902663	32	C	06/15/2024	22:16	-127.917	47.722	0	267.10	0	6.3890	0	33.9560	0	26.681	0	264.694	0	75.9	4	25.3	4	-1E+10	1	-1E+10	1	-1E+10	1	-1E+10	1	-1E+10	1	-1E+10	1
4902663	32	C	06/15/2024	22:16	-127.917	47.722	0	268.00	0	6.3730	0	33.9530	0	26.681	0	265.586	0	75.7	4	25.2	4	-1E+10	1	-1E+10	1	-1E+10	1	-1E+10	1	-1E+10	1	-1E+10	1
4902663	32	C	06/15/2024	22:16	-127.917	47.722	0	268.80	0	6.3680	0	33.9530	0	26.682	0	266.378	0	75.4	4	25.1	4	-1E+10	1	-1E+10	1	-1E+10	1	-1E+10	1	-1E+10	1	-1E+10	1
4902663	32	C	06/15/2024	22:16	-127.917	47.722	0	269.70	0	6.3640	0	33.9530	0	26.682	0	267.269	0	75.2	4	25.1	4	-1E+10	1	-1E+10	1	-1E+10	1	-1E+10	1	-1E+10	1	-1E+10	1
4902663	32	C	06/15/2024	22:16	-127.917	47.722	0	270.90	0	6.3500	0	33.9540	0	26.685	0	268.458	0	74.9	4	24.9	4	-1E+10	1	-1E+10	1	-1E+10	1	-1E+10	1	-1E+10	1	-1E+10	1
4902663	32	C	06/15/2024	22:16	-127.917	47.722	0	272.20	0	6.3380	0	33.9560	0	26.688	0	269.745	0	74.6	4	24.8	4	-1E+10	1	-1E+10	1	-1E+10	1	-1E+10	1	-1E+10	1	-1E+10	1
4902663	32	C	06/15/2024	22:16	-127.917	47.722	0	273.10	0	6.3170	0	33.9560	0	26.691	0	270.636	0	74.4	4	24.8	4	-1E+10	1	-1E+10	1	-1E+10	1	-1E+10	1	-1E+10	1	-1E+10	1
4902663	32	C	06/15/2024	22:16	-127.917	47.722	0	273.90	0	6.3130	0	33.9570	0	26.692	0	271.429	0	74.2	4	24.7	4	-1E+10	1	-1E+10	1	-1E+10	1	-1E+10	1	-1E+10	1	-1E+10	1
4902663	32	C	06/15/2024	22:16	-127.917	47.722	0	274.80	0	6.3100	0	33.9560	0	26.691	0	272.320	0	74.0	4	24.6	4	-1E+10	1	-1E+10	1	-1E+10	1	-1E+10	1	-1E+10	1	-1E+10	1
4902663	32	C	06/15/2024	22:16	-127.917	47.722	0	275.60	0	6.3050	0	33.9560	0	26.692	0	273.112	0	73.7	4	24.5	4	-1E+10	1	-1E+10	1	-1E+10	1	-1E+10	1	-1E+10	1	-1E+10	1
4902663	32	C	06/15/2024	22:16	-127.917	47.722	0	276.90	0	6.2840	0	33.9570	0	26.696	0	274.399	0	73.3	4	24.4	4	-1E+10	1	-1E+10	1	-1E+10	1	-1E+10	1	-1E+10	1	-1E+10	1
4902663	32	C	06/15/2024	22:16	-127.917	47.722	0	278.10	0	6.2640	0	33.9560	0	26.697	0	275.588	0	73.0	4	24.3	4	-1E+10	1	-1E+10	1	-1E+10	1	-1E+10	1	-1E+10	1	-1E+10	1
4902663	32	C	06/15/2024	22:16	-127.917	47.722	0	278.90	0	6.2400	0	33.9560	0	26.700	0	276.380	0	72.7	4	24.2	4	-1E+10	1	-1E+10	1	-1E+10	1	-1E+10	1	-1E+10	1	-1E+10	1
4902663	32	C	06/15/2024	22:16	-127.917	47.722	0	279.80	0	6.2260	0	33.9590	0	26.705	0	277.271	0	72.5	4	24.1	4	-1E+10	1	-1E+10	1	-1E+10	1	-1E+10	1	-1E+10	1	-1E+10	1
4902663	32	C	06/15/2024	22:16	-127.917	47.722	0	280.60	0	6.2230	0	33.9590	0	26.705	0	278.064	0	72.4	4	24.0	4	-1E+10	1	-1E+10	1	-1E+10	1	-1E+10	1	-1E+10	1	-1E+10	1
4902663	32	C	06/15/2024	22:16	-127.917	47.722	0	281.90	0	6.2170	0	33.9590	0	26.706	0	279.351	0	72.1	4	23.9	4	-1E+10	1	-1E+10	1	-1E+10	1	-1E+10	1	-1E+10	1	-1E+10	1
4902663	32	C	06/15/2024	22:16	-127.917	47.722	0	283.10	0	6.2110	0	33.9590	0	26.707	0	280.539	0	71.8	4	23.8	4	-1E+10	1	-1E+10	1	-1E+10	1	-1E+10	1	-1E+10	1	-1E+10	1
4902663	32	C	06/15/2024	22:16	-127.917	47.722	0	283.90	0	6.2010	0	33.9610	0	26.709	0	281.332	0	71.6	4	23.8	4	-1E+10	1	-1E+10	1	-1E+10	1	-1E+10	1	-1E+10	1	-1E+10	1
4902663	32	C	06/15/2024	22:16	-127.917	47.722	0	284.80	0	6.1950	0	33.9600	0	26.709	0	282.223	0	71.4	4	23.7	4	-1E+10	1	-1E+10	1	-1E+10	1	-1E+10	1	-1E+10	1	-1E+10	1
4902663	32	C	06/15/2024	22:16	-127.917	47.722	0	285.60	0	6.1910	0	33.9600	0	26.710	0	283.015	0	71.2	4	23.6	4	-1E+10	1	-1E+10	1	-1E+10	1	-1E+10	1	-1E+10	1	-1E+10	1
4902663	32	C	06/15/2024	22:16	-127.917	47.722	0	286.90	0	6.1620	0	33.9610	0	26.714	0	284.302	0	70.9	4	23.5	4	-1E+10	1	-1E+10	1	-1E+10	1	-1E+10	1	-1E+10	1	-1E+10	1
4902663	32	C	06/15/2024	22:16	-127.917	47.722	0	288.10	0	6.1190	0	33.9580	0	26.718	0	285.491	0	70.7	4	23.4	4	-1E+10	1	-1E+10	1	-1E+10	1	-1E+10	1	-1E+10	1	-1E+10	1
4902663	32	C	06/15/2024	22:16	-127.917	47.722	0	289.00	0	6.1180	0	33.9580	0	26.718	0	286.382	0	70.5	4	23.4	4	-1E+10	1	-1E+10	1	-1E+10	1	-1E+10	1	-1E+10	1	-1E+10	1
4902663	32	C	06/15/2024	22:16	-127.917	47.722	0	289.80	0	6.0960	0	33.9600	0	26.722	0	287.174	0	70.3	4	23.3	4	-1E+10	1	-1E+10	1	-1E+10	1	-1E+10	1	-1E+10	1	-1E+10	1
4902663	32	C	06/15/2024	22:16	-127.917	47.722	0	290.60	0	6.0940	0	33.9600	0	26.722	0	287.966	0	70.1	4	23.2	4	-1E+10	1	-1E+10	1	-1E+10	1	-1E+10	1	-1E+10	1	-1E+10	1
4902663	32	C	06/15/2024	22:16	-127.917	47.722	0	291.90	0	6.0810	0	33.9600	0	26.724	0	289.254	0	69.7	4	23.1	4	-1E+10	1	-1E+10	1	-1E+10	1	-1E+10	1	-1E+10	1	-1E+10	1
4902663	32	C	06/15/2024	22:16	-127.917	47.722	0	293.20	0	6.0790	0	33.9600	0	26.724	0	290.541	0	69.3	4	23.0	4	-1E+10	1	-1E+10	1	-1E+10	1	-1E+10	1	-1E+10	1	-1E+10	1
4902663	32	C	06/15/2024	22:16	-127.917	47.722	0	294.00	0	6.0780	0	33.9590	0	26.724	0	291.333	0	69.0	4	22.9	4	-1E+10	1	-1E+10	1	-1E+10	1	-1E+10	1	-1E+10	1	-1E+10	1
4902663	32	C	06/15/2024	22:16	-127.917	47.722	0	294.80	0	6.0680	0	33.9620	0	26.727	0	292.125	0	68.7	4	22.7	4	-1E+10	1	-1E+10	1	-1E+10	1	-1E+10	1	-1E+10	1	-1E+10	1
4902663	32	C	06/15/2024	22:16	-127.917	47.722	0	295.70	0	6.0420	0	33.9590	0	26.728	0	293.016	0	68.4	4	22.6	4	-1E+10	1	-1E+10	1	-1E+10	1	-1E+10	1	-1E+10	1	-1E+10	1
4902663	32	C	06/15/2024	22:16	-127.917	47.722	0	296.90	0	6.0240	0	33.9590	0	26.730	0	294.205	0	68.0	4	22.5	4	-1E+10	1	-1E+10	1	-1E+10	1	-1E+10	1	-1E+10	1	-1E+10	1
4902663	32	C	06/15/2024	22:16	-127.917	47.722	0	298.20	0	6.0060	0	33.9610	0	26.734	0	295.492	0	67.6	4	22.3	4	-1E+10	1	-1E+10	1	-1E+10	1	-1E+10	1	-1E+10	1	-1E+10	1
4902663	32	C	06/15/2024	22:16	-127.917	47.722	0	299.00	0	6.0140	0	33.9620	0	26.734	0	296.284	0	67.4	4	22.3	4	-1E+10	1	-1E+10	1	-1E+10	1	-1E+10	1	-1E+10	1	-1E+10	1
4902663	32	C	06/15/2024	22:16	-127.917	47.722	0	299.90	0	6.0170	0	33.9640	0	26.735	0	297.175	0	67.1	4	22.2	4	-1E+10	1	-1E+10	1	-1E+10	1	-1E+10	1	-1E+10	1	-1E+10	1
4902663	32	C	06/15/2024	22:16	-127.917	47.722	0	300.70	0	6.0090	0	33.9640	0	26.736	0	297.967	0	66.9	4	22.1	4	-1E+10	1	-1E+10	1	-1E+10	1	-1E+10	1	-1E+10	1	-1E+10	1
4902663	32	C	06/15/2024	22:16	-127.917	47.722	0	301.60	0	6.0020	0	33.9630	0	26.736	0	298.859	0	66.6	4	22.0	4	-1E+10	1	-1E+10	1	-1E+10	1	-1E+10	1	-1E+10	1	-1E+10	1
4902663	32	C	06/15/2024	22:16	-127.917	47.722	0	302.90	0	5.9950	0	33.9640	0	26.738	0	300.146	0	66.2	4	21.9	4	-1E+10	1	-1E+10	1	-1E+10	1	-1E+10	1	-1E+10	1	-1E+10	1
4902663	32	C	06/15/2024	22:16	-127.917	47.722	0	304.20	0	5.9870	0	33.9660	0	26.741	0	301.433	0	65.8	4	21.7	4	-1E+10	1	-1E+10	1	-1E+10	1	-1E+10	1	-1E+10	1	-1E+10	1
4902663	32	C	06/15/2024	22:16	-127.917	47.722	0	305.00	0	5.9820	0	33.9650	0	26.740	0	302.225	0	65.4	4	21.6	4	-1E+10	1	-1E+10	1	-1E+10	1	-1E+10	1	-1E+10	1	-1E+10	1
4902663	32	C	06/15/2024	22:16	-127.917	47.722	0	305.90	0	5.9760	0	33.9650	0	26.741	0	303.116	0	64.9	4	21.4	4	-1E+10	1	-1E+10	1	-1E+10	1	-1E+10	1	-1E+10	1	-1E+10	1
4902663	32	C	06/15/2024	22:16	-127.917	47.722	0	306.70	0	5.9680	0	33.9650	0	26.742	0	303.909	0	64.6	4	21.3	4	-1E+10	1	-1E+10	1	-1E+10	1	-1E+10	1	-1E+10	1	-1E+10	1
4902663	32	C	06/15/2024	22:16	-127.917	47.722	0	307.60	0	5.9620	0	33.9650	0	26.743	0	304.800	0	64.4	4	21.3	4	-1E+10	1	-1E+10	1	-1E+10	1	-1E+10	1	-1E+10	1	-1E+10	1
4902663	32	C	06/15/2024	22:16	-127.917	47.722	0	308.90	0	5.9540	0	33.9640	0	26.743	0	306.087	0	63.8	4	21.1	4	-1E+10	1	-1E+10	1	-1E+10	1	-1E+10	1	-1E+10	1	-1E+10	1
4902663	32	C	06/15/2024	22:16	-127.917	47.722	0	310.10	0	5.9380	0	33.9640	0	26.745	0	307.275	0	63.4	4	20.9	4	-1E+10	1	-1E+10	1	-1E+10	1	-1E+10	1	-1E+10	1	-1E+10	1
4902663	32	C	06/15/2024	22:16	-127.917	47.722	0	311.00	0	5.9200	0	33.9650	0	26.748	0	308.166	0	63.1	4	20.8	4	-1E+10	1	-1E+10	1	-1E+10	1	-1E+10	1	-1E+10	1	-1E+10	1
4902663	32	C	06/15/2024	22:16	-127.917	47.722	0	311.80	0	5.9080	0	33.9640	0	26.749	0	308.958	0	62.9	4	20.7	4	-1E+10	1	-1E+10	1	-1E+10	1	-1E+10	1	-1E+10	1	-1E+10	1
4902663	32	C	06/15/2024	22:16	-127.917	47.722	0	312.70	0	5.9080	0	33.9650	0	26.750	0	309.849	0	62.6	4	20.6	4	-1E+10	1	-1E+10	1	-1E+10	1	-1E+10	1	-1E+10	1	-1E+10	1
4902663	32	C	06/15/2024	22:16	-127.917	47.722	0	313.90	0	5.9130	0	33.9680	0	26.752	0	311.038	0	62.3	4	20.6	4	-1E+10	1	-1E+10	1	-1E+10	1	-1E+10	1	-1E+10	1	-1E+10	1
4902663	32	C	06/15/2024	22:16	-127.917	47.722	0	315.30	0	5.8950	0	33.9700	0	26.755	0	312.424	0	62.2	4	20.5	4	-1E+10	1	-1E+10	1	-1E+10	1	-1E+10	1	-1E+10	1	-1E+10	1
4902663	32	C	06/15/2024	22:16	-127.917	47.722	0	316.20	0	5.8900	0	33.9680	0	26.754	0	313.315	0	62.0	4	20.4	4	-1E+10	1	-1E+10	1	-1E+10	1	-1E+10	1	-1E+10	1	-1E+10	1
4902663	32	C	06/15/2024	22:16	-127.917	47.722	0	317.00	0	5.8700	0	33.9670	0	26.756	0	314.107	0	61.8	4	20.4	4	-1E+10	1	-1E+10	1	-1E+10	1	-1E+10	1	-1E+10	1	-1E+10	1
4902663	32	C	06/15/2024	22:16	-127.917	47.722	0	317.90	0	5.8650	0	33.9670	0	26.757	0	314.998	0	61.5	4	20.3	4	-1E+10	1	-1E+10	1	-1E+10	1	-1E+10	1	-1E+10	1	-1E+10	1
4902663	32	C	06/15/2024	22:16	-127.917	47.722	0	318.80	0	5.8570	0	33.9690	0	26.759	0	315.889	0	61.2	4	20.2	4	-1E+10	1	-1E+10	1	-1E+10	1	-1E+10	1	-1E+10	1	-1E+10	1
4902663	32	C	06/15/2024	22:16	-127.917	47.722	0	319.70	0	5.8770	0	33.9700	0	26.758	0	316.780	0	61.0	4	20.1	4	-1E+10	1	-1E+10	1	-1E+10	1	-1E+10	1	-1E+10	1	-1E+10	1
4902663	32	C	06/15/2024	22:16	-127.917	47.722	0	320.90	0	5.8790	0	33.9750	0	26.761	0	317.968	0	60.8	4	20.0	4	-1E+10	1	-1E+10	1	-1E+10	1	-1E+10	1	-1E+10	1	-1E+10	1
4902663	32	C	06/15/2024	22:16	-127.917	47.722	0	322.30	0	5.8410	0	33.9710	0	26.763	0	319.354	0	60.5	4	19.9	4	-1E+10	1	-1E+10	1	-1E+10	1	-1E+10	1	-1E+10	1	-1E+10	1
4902663	32	C	06/15/2024	22:16	-127.917	47.722	0	323.20	0	5.8650	0	33.9770	0	26.765	0	320.246	0	60.4	4	19.9	4	-1E+10	1	-1E+10	1	-1E+10	1	-1E+10	1	-1E+10	1	-1E+10	1
4902663	32	C	06/15/2024	22:16	-127.917	47.722	0	324.10	0	5.8350	0	33.9730	0	26.765	0	321.137	0	60.3	4	19.8	4	-1E+10	1	-1E+10	1	-1E+10	1	-1E+10	1	-1E+10	1	-1E+10	1
4902663	32	C	06/15/2024	22:16	-127.917	47.722	0	324.90	0	5.8540	0	33.9760	0	26.765	0	321.929	0	60.2	4	19.8	4	-1E+10	1	-1E+10	1	-1E+10	1	-1E+10	1	-1E+10	1	-1E+10	1
4902663	32	C	06/15/2024	22:16	-127.917	47.722	0	325.80	0	5.8460	0	33.9780	0	26.768	0	322.820	0	60.0	4	19.8	4	-1E+10	1	-1E+10	1	-1E+10	1	-1E+10	1	-1E+10	1	-1E+10	1
4902663	32	C	06/15/2024	22:16	-127.917	47.722	0	326.70	0	5.8200	0	33.9730	0	26.767	0	323.711	0	60.0	4	19.7	4	-1E+10	1	-1E+10	1	-1E+10	1	-1E+10	1	-1E+10	1	-1E+10	1
4902663	32	C	06/15/2024	22:16	-127.917	47.722	0	327.60	0	5.8120	0	33.9760	0	26.770	0	324.602	0	59.9	4	19.7	4	-1E+10	1	-1E+10	1	-1E+10	1	-1E+10	1	-1E+10	1	-1E+10	1
4902663	32	C	06/15/2024	22:16	-127.917	47.722	0	328.90	0	5.7900	0	33.9760	0	26.773	0	325.889	0	60.1	4	19.8	4	-1E+10	1	-1E+10	1	-1E+10	1	-1E+10	1	-1E+10	1	-1E+10	1
4902663	32	C	06/15/2024	22:16	-127.917	47.722	0	330.20	0	5.7830	0	33.9750	0	26.773	0	327.176	0	60.3	4	19.8	4	-1E+10	1	-1E+10	1	-1E+10	1	-1E+10	1	-1E+10	1	-1E+10	1
4902663	32	C	06/15/2024	22:16	-127.917	47.722	0	331.10	0	5.7420	0	33.9780	0	26.781	0	328.067	0	60.3	4	19.8	4	-1E+10	1	-1E+10	1	-1E+10	1	-1E+10	1	-1E+10	1	-1E+10	1
4902663	32	C	06/15/2024	22:16	-127.917	47.722	0	332.00	0	5.7150	0	33.9700	0	26.778	0	328.958	0	60.3	4	19.8	4	-1E+10	1	-1E+10	1	-1E+10	1	-1E+10	1	-1E+10	1	-1E+10	1
4902663	32	C	06/15/2024	22:16	-127.917	47.722	0	332.90	0	5.7180	0	33.9690	0	26.776	0	329.849	0	60.2	4	19.8	4	-1E+10	1	-1E+10	1	-1E+10	1	-1E+10	1	-1E+10	1	-1E+10	1
4902663	32	C	06/15/2024	22:16	-127.917	47.722	0	333.80	0	5.7080	0	33.9680	0	26.777	0	330.740	0	60.1	4	19.7	4	-1E+10	1	-1E+10	1	-1E+10	1	-1E+10	1	-1E+10	1	-1E+10	1
4902663	32	C	06/15/2024	22:16	-127.917	47.722	0	334.70	0	5.6940	0	33.9690	0	26.779	0	331.631	0	60.0	4	19.7	4	-1E+10	1	-1E+10	1	-1E+10	1	-1E+10	1	-1E+10	1	-1E+10	1
4902663	32	C	06/15/2024	22:16	-127.917	47.722	0	336.00	0	5.6450	0	33.9670	0	26.784	0	332.918	0	59.8	4	19.6	4	-1E+10	1	-1E+10	1	-1E+10	1	-1E+10	1	-1E+10	1	-1E+10	1
4902663	32	C	06/15/2024	22:16	-127.917	47.722	0	337.30	0	5.6220	0	33.9650	0	26.785	0	334.205	0	59.5	4	19.5	4	-1E+10	1	-1E+10	1	-1E+10	1	-1E+10	1	-1E+10	1	-1E+10	1
4902663	32	C	06/15/2024	22:16	-127.917	47.722	0	338.20	0	5.6200	0	33.9660	0	26.786	0	335.096	0	59.3	4	19.4	4	-1E+10	1	-1E+10	1	-1E+10	1	-1E+10	1	-1E+10	1	-1E+10	1
4902663	32	C	06/15/2024	22:16	-127.917	47.722	0	339.10	0	5.6130	0	33.9660	0	26.787	0	335.987	0	59.0	4	19.3	4	-1E+10	1	-1E+10	1	-1E+10	1	-1E+10	1	-1E+10	1	-1E+10	1
4902663	32	C	06/15/2024	22:16	-127.917	47.722	0	340.00	0	5.6090	0	33.9660	0	26.787	0	336.878	0	58.8	4	19.2	4	-1E+10	1	-1E+10	1	-1E+10	1	-1E+10	1	-1E+10	1	-1E+10	1
4902663	32	C	06/15/2024	22:16	-127.917	47.722	0	340.90	0	5.6060	0	33.9660	0	26.788	0	337.769	0	58.6	4	19.2	4	-1E+10	1	-1E+10	1	-1E+10	1	-1E+10	1	-1E+10	1	-1E+10	1
4902663	32	C	06/15/2024	22:16	-127.917	47.722	0	341.80	0	5.6490	0	33.9670	0	26.783	0	338.660	0	58.5	4	19.2	4	-1E+10	1	-1E+10	1	-1E+10	1	-1E+10	1	-1E+10	1	-1E+10	1
4902663	32	C	06/15/2024	22:16	-127.917	47.722	0	342.60	0	5.6490	0	33.9740	0	26.789	0	339.452	0	58.5	4	19.2	4	-1E+10	1	-1E+10	1	-1E+10	1	-1E+10	1	-1E+10	1	-1E+10	1
4902663	32	C	06/15/2024	22:16	-127.917	47.722	0	343.90	0	5.6160	0	33.9720	0	26.791	0	340.739	0	58.4	4	19.1	4	-1E+10	1	-1E+10	1	-1E+10	1	-1E+10	1	-1E+10	1	-1E+10	1
4902663	32	C	06/15/2024	22:16	-127.917	47.722	0	345.40	0	5.6010	0	33.9700	0	26.792	0	342.224	0	58.3	4	19.1	4	-1E+10	1	-1E+10	1	-1E+10	1	-1E+10	1	-1E+10	1	-1E+10	1
4902663	32	C	06/15/2024	22:16	-127.917	47.722	0	346.30	0	5.5910	0	33.9710	0	26.794	0	343.115	0	58.2	4	19.0	4	-1E+10	1	-1E+10	1	-1E+10	1	-1E+10	1	-1E+10	1	-1E+10	1
4902663	32	C	06/15/2024	22:16	-127.917	47.722	0	347.20	0	5.5560	0	33.9680	0	26.795	0	344.006	0	58.0	4	19.0	4	-1E+10	1	-1E+10	1	-1E+10	1	-1E+10	1	-1E+10	1	-1E+10	1
4902663	32	C	06/15/2024	22:16	-127.917	47.722	0	348.10	0	5.5410	0	33.9650	0	26.795	0	344.897	0	57.8	4	18.9	4	-1E+10	1	-1E+10	1	-1E+10	1	-1E+10	1	-1E+10	1	-1E+10	1
4902663	32	C	06/15/2024	22:16	-127.917	47.722	0	349.00	0	5.5390	0	33.9650	0	26.795	0	345.788	0	57.5	4	18.8	4	-1E+10	1	-1E+10	1	-1E+10	1	-1E+10	1	-1E+10	1	-1E+10	1
4902663	32	C	06/15/2024	22:16	-127.917	47.722	0	350.00	0	5.5260	0	33.9680	0	26.799	0	346.778	0	57.2	4	18.7	4	-1E+10	1	-1E+10	1	-1E+10	1	-1E+10	1	-1E+10	1	-1E+10	1
4902663	32	C	06/15/2024	22:16	-127.917	47.722	0	353.10	0	5.5310	0	33.9720	0	26.802	0	349.847	0	56.3	4	18.4	4	-1E+10	1	-1E+10	1	-1E+10	1	-1E+10	1	-1E+10	1	-1E+10	1
4902663	32	C	06/15/2024	22:16	-127.917	47.722	0	358.10	0	5.5040	0	33.9740	0	26.806	0	354.797	0	54.7	4	17.9	4	-1E+10	1	-1E+10	1	-1E+10	1	-1E+10	1	-1E+10	1	-1E+10	1
4902663	32	C	06/15/2024	22:16	-127.917	47.722	0	362.70	0	5.4760	0	33.9810	0	26.815	0	359.350	0	52.6	4	17.2	4	-1E+10	1	-1E+10	1	-1E+10	1	-1E+10	1	-1E+10	1	-1E+10	1
4902663	32	C	06/15/2024	22:16	-127.917	47.722	0	367.90	0	5.5240	0	33.9990	0	26.824	0	364.498	0	51.0	4	16.7	4	-1E+10	1	-1E+10	1	-1E+10	1	-1E+10	1	-1E+10	1	-1E+10	1
4902663	32	C	06/15/2024	22:16	-127.917	47.722	0	373.10	0	5.4500	0	33.9960	0	26.830	0	369.645	0	50.0	4	16.3	4	-1E+10	1	-1E+10	1	-1E+10	1	-1E+10	1	-1E+10	1	-1E+10	1
4902663	32	C	06/15/2024	22:16	-127.917	47.722	0	377.90	0	5.4200	0	34.0000	0	26.837	0	374.396	0	48.7	4	15.9	4	-1E+10	1	-1E+10	1	-1E+10	1	-1E+10	1	-1E+10	1	-1E+10	1
4902663	32	C	06/15/2024	22:16	-127.917	47.722	0	382.70	0	5.3890	0	34.0020	0	26.843	0	379.147	0	47.1	4	15.3	4	-1E+10	1	-1E+10	1	-1E+10	1	-1E+10	1	-1E+10	1	-1E+10	1
4902663	32	C	06/15/2024	22:16	-127.917	47.722	0	387.60	0	5.3760	0	34.0090	0	26.850	0	383.997	0	45.9	4	14.9	4	-1E+10	1	-1E+10	1	-1E+10	1	-1E+10	1	-1E+10	1	-1E+10	1
4902663	32	C	06/15/2024	22:16	-127.917	47.722	0	392.90	0	5.3400	0	34.0120	0	26.856	0	389.243	0	44.9	4	14.6	4	-1E+10	1	-1E+10	1	-1E+10	1	-1E+10	1	-1E+10	1	-1E+10	1
4902663	32	C	06/15/2024	22:16	-127.917	47.722	0	398.40	0	5.3260	0	34.0170	0	26.862	0	394.687	0	44.3	4	14.4	4	-1E+10	1	-1E+10	1	-1E+10	1	-1E+10	1	-1E+10	1	-1E+10	1
4902663	32	C	06/15/2024	22:16	-127.917	47.722	0	402.90	0	5.2910	0	34.0160	0	26.865	0	399.140	0	43.7	4	14.2	4	-1E+10	1	-1E+10	1	-1E+10	1	-1E+10	1	-1E+10	1	-1E+10	1
4902663	32	C	06/15/2024	22:16	-127.917	47.722	0	407.50	0	5.2420	0	34.0170	0	26.872	0	403.693	0	42.6	4	13.8	4	-1E+10	1	-1E+10	1	-1E+10	1	-1E+10	1	-1E+10	1	-1E+10	1
4902663	32	C	06/15/2024	22:16	-127.917	47.722	0	412.60	0	5.1900	0	34.0210	0	26.881	0	408.740	0	41.3	4	13.4	4	-1E+10	1	-1E+10	1	-1E+10	1	-1E+10	1	-1E+10	1	-1E+10	1
4902663	32	C	06/15/2024	22:16	-127.917	47.722	0	417.70	0	5.1820	0	34.0270	0	26.887	0	413.787	0	39.7	4	12.9	4	-1E+10	1	-1E+10	1	-1E+10	1	-1E+10	1	-1E+10	1	-1E+10	1
4902663	32	C	06/15/2024	22:16	-127.917	47.722	0	422.90	0	5.1690	0	34.0350	0	26.895	0	418.934	0	38.6	4	12.5	4	-1E+10	1	-1E+10	1	-1E+10	1	-1E+10	1	-1E+10	1	-1E+10	1
4902663	32	C	06/15/2024	22:16	-127.917	47.722	0	428.10	0	5.1590	0	34.0390	0	26.899	0	424.079	0	37.6	4	12.2	4	-1E+10	1	-1E+10	1	-1E+10	1	-1E+10	1	-1E+10	1	-1E+10	1
4902663	32	C	06/15/2024	22:16	-127.917	47.722	0	432.90	0	5.1350	0	34.0420	0	26.904	0	428.829	0	37.0	4	12.0	4	-1E+10	1	-1E+10	1	-1E+10	1	-1E+10	1	-1E+10	1	-1E+10	1
4902663	32	C	06/15/2024	22:16	-127.917	47.722	0	437.60	0	5.0900	0	34.0450	0	26.912	0	433.480	0	36.3	4	11.8	4	-1E+10	1	-1E+10	1	-1E+10	1	-1E+10	1	-1E+10	1	-1E+10	1
4902663	32	C	06/15/2024	22:16	-127.917	47.722	0	443.10	0	5.0600	0	34.0460	0	26.916	0	438.923	0	35.7	4	11.6	4	-1E+10	1	-1E+10	1	-1E+10	1	-1E+10	1	-1E+10	1	-1E+10	1
4902663	32	C	06/15/2024	22:16	-127.917	47.722	0	447.90	0	5.0260	0	34.0490	0	26.922	0	443.672	0	35.2	4	11.4	4	-1E+10	1	-1E+10	1	-1E+10	1	-1E+10	1	-1E+10	1	-1E+10	1
4902663	32	C	06/15/2024	22:16	-127.917	47.722	0	452.80	0	4.9840	0	34.0500	0	26.928	0	448.521	0	34.0	4	11.0	4	-1E+10	1	-1E+10	1	-1E+10	1	-1E+10	1	-1E+10	1	-1E+10	1
4902663	32	C	06/15/2024	22:16	-127.917	47.722	0	457.70	0	5.0060	0	34.0560	0	26.930	0	453.369	0	32.7	4	10.6	4	-1E+10	1	-1E+10	1	-1E+10	1	-1E+10	1	-1E+10	1	-1E+10	1
4902663	32	C	06/15/2024	22:16	-127.917	47.722	0	462.70	0	5.0060	0	34.0650	0	26.938	0	458.316	0	32.0	4	10.3	4	-1E+10	1	-1E+10	1	-1E+10	1	-1E+10	1	-1E+10	1	-1E+10	1
4902663	32	C	06/15/2024	22:16	-127.917	47.722	0	468.20	0	4.9440	0	34.0670	0	26.946	0	463.758	0	31.7	4	10.2	4	-1E+10	1	-1E+10	1	-1E+10	1	-1E+10	1	-1E+10	1	-1E+10	1
4902663	32	C	06/15/2024	22:16	-127.917	47.722	0	473.20	0	4.8990	0	34.0670	0	26.951	0	468.705	0	31.4	4	10.1	4	-1E+10	1	-1E+10	1	-1E+10	1	-1E+10	1	-1E+10	1	-1E+10	1
4902663	32	C	06/15/2024	22:16	-127.917	47.722	0	477.70	0	4.8960	0	34.0690	0	26.953	0	473.157	0	31.0	4	10.0	4	-1E+10	1	-1E+10	1	-1E+10	1	-1E+10	1	-1E+10	1	-1E+10	1
4902663	32	C	06/15/2024	22:16	-127.917	47.722	0	482.60	0	4.8850	0	34.0740	0	26.959	0	478.005	0	30.4	4	9.8	4	-1E+10	1	-1E+10	1	-1E+10	1	-1E+10	1	-1E+10	1	-1E+10	1
4902663	32	C	06/15/2024	22:16	-127.917	47.722	0	487.90	0	4.8540	0	34.0770	0	26.964	0	483.248	0	30.1	4	9.7	4	-1E+10	1	-1E+10	1	-1E+10	1	-1E+10	1	-1E+10	1	-1E+10	1
4902663	32	C	06/15/2024	22:16	-127.917	47.722	0	493.20	0	4.8130	0	34.0780	0	26.970	0	488.492	0	29.8	4	9.6	4	-1E+10	1	-1E+10	1	-1E+10	1	-1E+10	1	-1E+10	1	-1E+10	1
4902663	32	C	06/15/2024	22:16	-127.917	47.722	0	498.00	0	4.7730	0	34.0760	0	26.973	0	493.240	0	29.0	4	9.3	4	-1E+10	1	-1E+10	1	-1E+10	1	-1E+10	1	-1E+10	1	-1E+10	1
4902663	32	C	06/15/2024	22:16	-127.917	47.722	0	503.00	0	4.7850	0	34.0830	0	26.977	0	498.186	0	27.8	4	8.9	4	-1E+10	1	-1E+10	1	-1E+10	1	-1E+10	1	-1E+10	1	-1E+10	1
4902663	32	C	06/15/2024	22:16	-127.917	47.722	0	508.00	0	4.7720	0	34.0870	0	26.982	0	503.132	0	27.1	4	8.7	4	-1E+10	1	-1E+10	1	-1E+10	1	-1E+10	1	-1E+10	1	-1E+10	1
4902663	32	C	06/15/2024	22:16	-127.917	47.722	0	513.00	0	4.7320	0	34.0890	0	26.988	0	508.078	0	26.2	4	8.4	4	-1E+10	1	-1E+10	1	-1E+10	1	-1E+10	1	-1E+10	1	-1E+10	1
4902663	32	C	06/15/2024	22:16	-127.917	47.722	0	518.00	0	4.7150	0	34.0940	0	26.994	0	513.024	0	25.2	4	8.1	4	-1E+10	1	-1E+10	1	-1E+10	1	-1E+10	1	-1E+10	1	-1E+10	1
4902663	32	C	06/15/2024	22:16	-127.917	47.722	0	523.10	0	4.6850	0	34.0990	0	27.001	0	518.069	0	24.8	4	7.9	4	-1E+10	1	-1E+10	1	-1E+10	1	-1E+10	1	-1E+10	1	-1E+10	1
4902663	32	C	06/15/2024	22:16	-127.917	47.722	0	528.10	0	4.6580	0	34.1000	0	27.005	0	523.014	0	24.1	4	7.7	4	-1E+10	1	-1E+10	1	-1E+10	1	-1E+10	1	-1E+10	1	-1E+10	1
4902663	32	C	06/15/2024	22:16	-127.917	47.722	0	533.10	0	4.6590	0	34.1060	0	27.009	0	527.960	0	23.4	4	7.5	4	-1E+10	1	-1E+10	1	-1E+10	1	-1E+10	1	-1E+10	1	-1E+10	1
4902663	32	C	06/15/2024	22:16	-127.917	47.722	0	538.20	0	4.6200	0	34.1070	0	27.015	0	533.004	0	22.3	4	7.1	4	-1E+10	1	-1E+10	1	-1E+10	1	-1E+10	1	-1E+10	1	-1E+10	1
4902663	32	C	06/15/2024	22:16	-127.917	47.722	0	542.90	0	4.6230	0	34.1140	0	27.020	0	537.653	0	21.0	4	6.7	4	-1E+10	1	-1E+10	1	-1E+10	1	-1E+10	1	-1E+10	1	-1E+10	1
4902663	32	C	06/15/2024	22:16	-127.917	47.722	0	547.70	0	4.6590	0	34.1260	0	27.025	0	542.400	0	20.1	4	6.4	4	-1E+10	1	-1E+10	1	-1E+10	1	-1E+10	1	-1E+10	1	-1E+10	1
4902663	32	C	06/15/2024	22:16	-127.917	47.722	0	552.80	0	4.6490	0	34.1320	0	27.031	0	547.444	0	19.4	4	6.2	4	-1E+10	1	-1E+10	1	-1E+10	1	-1E+10	1	-1E+10	1	-1E+10	1
4902663	32	C	06/15/2024	22:16	-127.917	47.722	0	558.10	0	4.6370	0	34.1370	0	27.037	0	552.686	0	18.8	4	6.0	4	-1E+10	1	-1E+10	1	-1E+10	1	-1E+10	1	-1E+10	1	-1E+10	1
4902663	32	C	06/15/2024	22:16	-127.917	47.722	0	562.90	0	4.5930	0	34.1390	0	27.043	0	557.433	0	18.4	4	5.9	4	-1E+10	1	-1E+10	1	-1E+10	1	-1E+10	1	-1E+10	1	-1E+10	1
4902663	32	C	06/15/2024	22:16	-127.917	47.722	0	567.70	0	4.5820	0	34.1430	0	27.048	0	562.180	0	17.7	4	5.7	4	-1E+10	1	-1E+10	1	-1E+10	1	-1E+10	1	-1E+10	1	-1E+10	1
4902663	32	C	06/15/2024	22:16	-127.917	47.722	0	573.00	0	4.5670	0	34.1480	0	27.053	0	567.421	0	17.3	4	5.5	4	-1E+10	1	-1E+10	1	-1E+10	1	-1E+10	1	-1E+10	1	-1E+10	1
4902663	32	C	06/15/2024	22:16	-127.917	47.722	0	577.90	0	4.5610	0	34.1500	0	27.055	0	572.266	0	16.7	4	5.3	4	-1E+10	1	-1E+10	1	-1E+10	1	-1E+10	1	-1E+10	1	-1E+10	1
4902663	32	C	06/15/2024	22:16	-127.917	47.722	0	582.70	0	4.5490	0	34.1560	0	27.062	0	577.013	0	16.3	4	5.2	4	-1E+10	1	-1E+10	1	-1E+10	1	-1E+10	1	-1E+10	1	-1E+10	1
4902663	32	C	06/15/2024	22:16	-127.917	47.722	0	588.00	0	4.5180	0	34.1580	0	27.067	0	582.254	0	16.0	4	5.1	4	-1E+10	1	-1E+10	1	-1E+10	1	-1E+10	1	-1E+10	1	-1E+10	1
4902663	32	C	06/15/2024	22:16	-127.917	47.722	0	592.90	0	4.4910	0	34.1580	0	27.069	0	587.099	0	15.5	4	4.9	4	-1E+10	1	-1E+10	1	-1E+10	1	-1E+10	1	-1E+10	1	-1E+10	1
4902663	32	C	06/15/2024	22:16	-127.917	47.722	0	597.80	0	4.4870	0	34.1640	0	27.075	0	591.944	0	14.9	4	4.8	4	-1E+10	1	-1E+10	1	-1E+10	1	-1E+10	1	-1E+10	1	-1E+10	1
4902663	32	C	06/15/2024	22:16	-127.917	47.722	0	603.10	0	4.4650	0	34.1690	0	27.081	0	597.185	0	14.4	4	4.6	4	-1E+10	1	-1E+10	1	-1E+10	1	-1E+10	1	-1E+10	1	-1E+10	1
4902663	32	C	06/15/2024	22:16	-127.917	47.722	0	608.00	0	4.4410	0	34.1740	0	27.088	0	602.029	0	14.0	4	4.5	4	-1E+10	1	-1E+10	1	-1E+10	1	-1E+10	1	-1E+10	1	-1E+10	1
4902663	32	C	06/15/2024	22:16	-127.917	47.722	0	613.00	0	4.4260	0	34.1780	0	27.092	0	606.973	0	13.5	4	4.3	4	-1E+10	1	-1E+10	1	-1E+10	1	-1E+10	1	-1E+10	1	-1E+10	1
4902663	32	C	06/15/2024	22:16	-127.917	47.722	0	618.00	0	4.4180	0	34.1820	0	27.097	0	611.917	0	13.0	4	4.1	4	-1E+10	1	-1E+10	1	-1E+10	1	-1E+10	1	-1E+10	1	-1E+10	1
4902663	32	C	06/15/2024	22:16	-127.917	47.722	0	623.00	0	4.4230	0	34.1880	0	27.101	0	616.860	0	12.6	4	4.0	4	-1E+10	1	-1E+10	1	-1E+10	1	-1E+10	1	-1E+10	1	-1E+10	1
4902663	32	C	06/15/2024	22:16	-127.917	47.722	0	628.00	0	4.4160	0	34.1920	0	27.105	0	621.803	0	12.3	4	3.9	4	-1E+10	1	-1E+10	1	-1E+10	1	-1E+10	1	-1E+10	1	-1E+10	1
4902663	32	C	06/15/2024	22:16	-127.917	47.722	0	633.00	0	4.4240	0	34.2000	0	27.110	0	626.746	0	11.9	4	3.8	4	-1E+10	1	-1E+10	1	-1E+10	1	-1E+10	1	-1E+10	1	-1E+10	1
4902663	32	C	06/15/2024	22:16	-127.917	47.722	0	637.90	0	4.4320	0	34.2020	0	27.111	0	631.590	0	11.7	4	3.7	4	-1E+10	1	-1E+10	1	-1E+10	1	-1E+10	1	-1E+10	1	-1E+10	1
4902663	32	C	06/15/2024	22:16	-127.917	47.722	0	642.90	0	4.4080	0	34.2040	0	27.115	0	636.533	0	11.6	4	3.7	4	-1E+10	1	-1E+10	1	-1E+10	1	-1E+10	1	-1E+10	1	-1E+10	1
4902663	32	C	06/15/2024	22:16	-127.917	47.722	0	647.90	0	4.4030	0	34.2060	0	27.117	0	641.476	0	11.5	4	3.7	4	-1E+10	1	-1E+10	1	-1E+10	1	-1E+10	1	-1E+10	1	-1E+10	1
4902663	32	C	06/15/2024	22:16	-127.917	47.722	0	653.00	0	4.3680	0	34.2050	0	27.120	0	646.518	0	11.4	4	3.6	4	-1E+10	1	-1E+10	1	-1E+10	1	-1E+10	1	-1E+10	1	-1E+10	1
4902663	32	C	06/15/2024	22:16	-127.917	47.722	0	658.00	0	4.3320	0	34.2070	0	27.126	0	651.460	0	11.2	4	3.6	4	-1E+10	1	-1E+10	1	-1E+10	1	-1E+10	1	-1E+10	1	-1E+10	1
4902663	32	C	06/15/2024	22:16	-127.917	47.722	0	662.80	0	4.3170	0	34.2100	0	27.130	0	656.205	0	11.0	4	3.5	4	-1E+10	1	-1E+10	1	-1E+10	1	-1E+10	1	-1E+10	1	-1E+10	1
4902663	32	C	06/15/2024	22:16	-127.917	47.722	0	667.60	0	4.2840	0	34.2110	0	27.134	0	660.950	0	10.8	4	3.4	4	-1E+10	1	-1E+10	1	-1E+10	1	-1E+10	1	-1E+10	1	-1E+10	1
4902663	32	C	06/15/2024	22:16	-127.917	47.722	0	673.00	0	4.2880	0	34.2170	0	27.139	0	666.287	0	10.5	4	3.3	4	-1E+10	1	-1E+10	1	-1E+10	1	-1E+10	1	-1E+10	1	-1E+10	1
4902663	32	C	06/15/2024	22:16	-127.917	47.722	0	678.30	0	4.2610	0	34.2200	0	27.144	0	671.526	0	10.3	4	3.3	4	-1E+10	1	-1E+10	1	-1E+10	1	-1E+10	1	-1E+10	1	-1E+10	1
4902663	32	C	06/15/2024	22:16	-127.917	47.722	0	683.30	0	4.2450	0	34.2220	0	27.147	0	676.468	0	10.1	4	3.2	4	-1E+10	1	-1E+10	1	-1E+10	1	-1E+10	1	-1E+10	1	-1E+10	1
4902663	32	C	06/15/2024	22:16	-127.917	47.722	0	688.30	0	4.2490	0	34.2280	0	27.152	0	681.410	0	9.8	4	3.1	4	-1E+10	1	-1E+10	1	-1E+10	1	-1E+10	1	-1E+10	1	-1E+10	1
4902663	32	C	06/15/2024	22:16	-127.917	47.722	0	692.80	0	4.2450	0	34.2330	0	27.156	0	685.857	0	9.4	4	3.0	4	-1E+10	1	-1E+10	1	-1E+10	1	-1E+10	1	-1E+10	1	-1E+10	1
4902663	32	C	06/15/2024	22:16	-127.917	47.722	0	697.50	0	4.2380	0	34.2350	0	27.158	0	690.502	0	9.0	4	2.9	4	-1E+10	1	-1E+10	1	-1E+10	1	-1E+10	1	-1E+10	1	-1E+10	1
4902663	32	C	06/15/2024	22:16	-127.917	47.722	0	702.80	0	4.2590	0	34.2450	0	27.164	0	695.740	0	8.6	4	2.7	4	-1E+10	1	-1E+10	1	-1E+10	1	-1E+10	1	-1E+10	1	-1E+10	1
4902663	32	C	06/15/2024	22:16	-127.917	47.722	0	708.00	0	4.2780	0	34.2560	0	27.171	0	700.879	0	8.4	4	2.7	4	-1E+10	1	-1E+10	1	-1E+10	1	-1E+10	1	-1E+10	1	-1E+10	1
4902663	32	C	06/15/2024	22:16	-127.917	47.722	0	712.80	0	4.2640	0	34.2580	0	27.174	0	705.623	0	8.3	4	2.6	4	-1E+10	1	-1E+10	1	-1E+10	1	-1E+10	1	-1E+10	1	-1E+10	1
4902663	32	C	06/15/2024	22:16	-127.917	47.722	0	717.90	0	4.2520	0	34.2610	0	27.178	0	710.663	0	8.2	4	2.6	4	-1E+10	1	-1E+10	1	-1E+10	1	-1E+10	1	-1E+10	1	-1E+10	1
4902663	32	C	06/15/2024	22:16	-127.917	47.722	0	723.20	0	4.2410	0	34.2630	0	27.181	0	715.900	0	8.1	4	2.6	4	-1E+10	1	-1E+10	1	-1E+10	1	-1E+10	1	-1E+10	1	-1E+10	1
4902663	32	C	06/15/2024	22:16	-127.917	47.722	0	728.00	0	4.2270	0	34.2650	0	27.184	0	720.644	0	8.0	4	2.5	4	-1E+10	1	-1E+10	1	-1E+10	1	-1E+10	1	-1E+10	1	-1E+10	1
4902663	32	C	06/15/2024	22:16	-127.917	47.722	0	733.00	0	4.2130	0	34.2690	0	27.188	0	725.584	0	7.9	4	2.5	4	-1E+10	1	-1E+10	1	-1E+10	1	-1E+10	1	-1E+10	1	-1E+10	1
4902663	32	C	06/15/2024	22:16	-127.917	47.722	0	738.10	0	4.2020	0	34.2720	0	27.192	0	730.624	0	7.8	4	2.5	4	-1E+10	1	-1E+10	1	-1E+10	1	-1E+10	1	-1E+10	1	-1E+10	1
4902663	32	C	06/15/2024	22:16	-127.917	47.722	0	743.10	0	4.1920	0	34.2740	0	27.195	0	735.564	0	7.7	4	2.4	4	-1E+10	1	-1E+10	1	-1E+10	1	-1E+10	1	-1E+10	1	-1E+10	1
4902663	32	C	06/15/2024	22:16	-127.917	47.722	0	748.20	0	4.1800	0	34.2770	0	27.198	0	740.604	0	7.6	4	2.4	4	-1E+10	1	-1E+10	1	-1E+10	1	-1E+10	1	-1E+10	1	-1E+10	1
4902663	32	C	06/15/2024	22:16	-127.917	47.722	0	752.90	0	4.1700	0	34.2800	0	27.202	0	745.248	0	7.6	4	2.4	4	-1E+10	1	-1E+10	1	-1E+10	1	-1E+10	1	-1E+10	1	-1E+10	1
4902663	32	C	06/15/2024	22:16	-127.917	47.722	0	757.70	0	4.1590	0	34.2820	0	27.204	0	749.990	0	7.5	4	2.4	4	-1E+10	1	-1E+10	1	-1E+10	1	-1E+10	1	-1E+10	1	-1E+10	1
4902663	32	C	06/15/2024	22:16	-127.917	47.722	0	762.80	0	4.1420	0	34.2830	0	27.207	0	755.029	0	7.4	4	2.3	4	-1E+10	1	-1E+10	1	-1E+10	1	-1E+10	1	-1E+10	1	-1E+10	1
4902663	32	C	06/15/2024	22:16	-127.917	47.722	0	767.90	0	4.1180	0	34.2860	0	27.212	0	760.068	0	7.3	4	2.3	4	-1E+10	1	-1E+10	1	-1E+10	1	-1E+10	1	-1E+10	1	-1E+10	1
4902663	32	C	06/15/2024	22:16	-127.917	47.722	0	773.10	0	4.1130	0	34.2890	0	27.215	0	765.205	0	7.3	4	2.3	4	-1E+10	1	-1E+10	1	-1E+10	1	-1E+10	1	-1E+10	1	-1E+10	1
4902663	32	C	06/15/2024	22:16	-127.917	47.722	0	778.20	0	4.1020	0	34.2910	0	27.218	0	770.244	0	7.3	4	2.3	4	-1E+10	1	-1E+10	1	-1E+10	1	-1E+10	1	-1E+10	1	-1E+10	1
4902663	32	C	06/15/2024	22:16	-127.917	47.722	0	783.00	0	4.0950	0	34.2930	0	27.220	0	774.986	0	7.2	4	2.3	4	-1E+10	1	-1E+10	1	-1E+10	1	-1E+10	1	-1E+10	1	-1E+10	1
4902663	32	C	06/15/2024	22:16	-127.917	47.722	0	787.80	0	4.0790	0	34.2950	0	27.223	0	779.728	0	7.2	4	2.3	4	-1E+10	1	-1E+10	1	-1E+10	1	-1E+10	1	-1E+10	1	-1E+10	1
4902663	32	C	06/15/2024	22:16	-127.917	47.722	0	793.10	0	4.0710	0	34.2990	0	27.227	0	784.963	0	7.2	4	2.3	4	-1E+10	1	-1E+10	1	-1E+10	1	-1E+10	1	-1E+10	1	-1E+10	1
4902663	32	C	06/15/2024	22:16	-127.917	47.722	0	797.90	0	4.0660	0	34.3040	0	27.232	0	789.705	0	7.1	4	2.3	4	-1E+10	1	-1E+10	1	-1E+10	1	-1E+10	1	-1E+10	1	-1E+10	1
4902663	32	C	06/15/2024	22:16	-127.917	47.722	0	802.60	0	4.0580	0	34.3050	0	27.234	0	794.348	0	7.1	4	2.2	4	-1E+10	1	-1E+10	1	-1E+10	1	-1E+10	1	-1E+10	1	-1E+10	1
4902663	32	C	06/15/2024	22:16	-127.917	47.722	0	807.70	0	4.0450	0	34.3070	0	27.237	0	799.386	0	7.1	4	2.2	4	-1E+10	1	-1E+10	1	-1E+10	1	-1E+10	1	-1E+10	1	-1E+10	1
4902663	32	C	06/15/2024	22:16	-127.917	47.722	0	812.90	0	4.0270	0	34.3110	0	27.242	0	804.522	0	7.0	4	2.2	4	-1E+10	1	-1E+10	1	-1E+10	1	-1E+10	1	-1E+10	1	-1E+10	1
4902663	32	C	06/15/2024	22:16	-127.917	47.722	0	817.80	0	4.0100	0	34.3140	0	27.246	0	809.362	0	7.0	4	2.2	4	-1E+10	1	-1E+10	1	-1E+10	1	-1E+10	1	-1E+10	1	-1E+10	1
4902663	32	C	06/15/2024	22:16	-127.917	47.722	0	822.70	0	4.0000	0	34.3160	0	27.248	0	814.202	0	6.9	4	2.2	4	-1E+10	1	-1E+10	1	-1E+10	1	-1E+10	1	-1E+10	1	-1E+10	1
4902663	32	C	06/15/2024	22:16	-127.917	47.722	0	828.00	0	3.9810	0	34.3190	0	27.253	0	819.437	0	6.9	4	2.2	4	-1E+10	1	-1E+10	1	-1E+10	1	-1E+10	1	-1E+10	1	-1E+10	1
4902663	32	C	06/15/2024	22:16	-127.917	47.722	0	833.20	0	3.9570	0	34.3230	0	27.258	0	824.573	0	6.9	4	2.2	4	-1E+10	1	-1E+10	1	-1E+10	1	-1E+10	1	-1E+10	1	-1E+10	1
4902663	32	C	06/15/2024	22:16	-127.917	47.722	0	838.00	0	3.9430	0	34.3260	0	27.262	0	829.314	0	6.9	4	2.2	4	-1E+10	1	-1E+10	1	-1E+10	1	-1E+10	1	-1E+10	1	-1E+10	1
4902663	32	C	06/15/2024	22:16	-127.917	47.722	0	842.80	0	3.9330	0	34.3280	0	27.265	0	834.054	0	6.9	4	2.2	4	-1E+10	1	-1E+10	1	-1E+10	1	-1E+10	1	-1E+10	1	-1E+10	1
4902663	32	C	06/15/2024	22:16	-127.917	47.722	0	848.00	0	3.9250	0	34.3290	0	27.267	0	839.190	0	6.9	4	2.2	4	-1E+10	1	-1E+10	1	-1E+10	1	-1E+10	1	-1E+10	1	-1E+10	1
4902663	32	C	06/15/2024	22:16	-127.917	47.722	0	853.00	0	3.9110	0	34.3310	0	27.270	0	844.128	0	6.9	4	2.2	4	-1E+10	1	-1E+10	1	-1E+10	1	-1E+10	1	-1E+10	1	-1E+10	1
4902663	32	C	06/15/2024	22:16	-127.917	47.722	0	858.10	0	3.8920	0	34.3350	0	27.275	0	849.164	0	6.9	4	2.2	4	-1E+10	1	-1E+10	1	-1E+10	1	-1E+10	1	-1E+10	1	-1E+10	1
4902663	32	C	06/15/2024	22:16	-127.917	47.722	0	863.20	0	3.8850	0	34.3370	0	27.277	0	854.201	0	6.9	4	2.2	4	-1E+10	1	-1E+10	1	-1E+10	1	-1E+10	1	-1E+10	1	-1E+10	1
4902663	32	C	06/15/2024	22:16	-127.917	47.722	0	868.00	0	3.8720	0	34.3390	0	27.280	0	858.941	0	6.9	4	2.2	4	-1E+10	1	-1E+10	1	-1E+10	1	-1E+10	1	-1E+10	1	-1E+10	1
4902663	32	C	06/15/2024	22:16	-127.917	47.722	0	872.80	0	3.8590	0	34.3410	0	27.283	0	863.681	0	6.9	4	2.2	4	-1E+10	1	-1E+10	1	-1E+10	1	-1E+10	1	-1E+10	1	-1E+10	1
4902663	32	C	06/15/2024	22:16	-127.917	47.722	0	878.00	0	3.8450	0	34.3430	0	27.286	0	868.816	0	6.9	4	2.2	4	-1E+10	1	-1E+10	1	-1E+10	1	-1E+10	1	-1E+10	1	-1E+10	1
4902663	32	C	06/15/2024	22:16	-127.917	47.722	0	882.80	0	3.8270	0	34.3440	0	27.289	0	873.556	0	6.9	4	2.2	4	-1E+10	1	-1E+10	1	-1E+10	1	-1E+10	1	-1E+10	1	-1E+10	1
4902663	32	C	06/15/2024	22:16	-127.917	47.722	0	887.60	0	3.8150	0	34.3460	0	27.291	0	878.295	0	6.9	4	2.2	4	-1E+10	1	-1E+10	1	-1E+10	1	-1E+10	1	-1E+10	1	-1E+10	1
4902663	32	C	06/15/2024	22:16	-127.917	47.722	0	892.90	0	3.7880	0	34.3490	0	27.297	0	883.529	0	6.9	4	2.2	4	-1E+10	1	-1E+10	1	-1E+10	1	-1E+10	1	-1E+10	1	-1E+10	1
4902663	32	C	06/15/2024	22:16	-127.917	47.722	0	897.80	0	3.7780	0	34.3510	0	27.299	0	888.367	0	7.0	4	2.2	4	-1E+10	1	-1E+10	1	-1E+10	1	-1E+10	1	-1E+10	1	-1E+10	1
4902663	32	C	06/15/2024	22:16	-127.917	47.722	0	902.70	0	3.7580	0	34.3540	0	27.304	0	893.205	0	7.0	4	2.2	4	-1E+10	1	-1E+10	1	-1E+10	1	-1E+10	1	-1E+10	1	-1E+10	1
4902663	32	C	06/15/2024	22:16	-127.917	47.722	0	908.00	0	3.7500	0	34.3570	0	27.307	0	898.438	0	7.0	4	2.2	4	-1E+10	1	-1E+10	1	-1E+10	1	-1E+10	1	-1E+10	1	-1E+10	1
4902663	32	C	06/15/2024	22:16	-127.917	47.722	0	913.00	0	3.7360	0	34.3580	0	27.309	0	903.374	0	7.0	4	2.2	4	-1E+10	1	-1E+10	1	-1E+10	1	-1E+10	1	-1E+10	1	-1E+10	1
4902663	32	C	06/15/2024	22:16	-127.917	47.722	0	918.00	0	3.7310	0	34.3600	0	27.311	0	908.311	0	7.1	4	2.2	4	-1E+10	1	-1E+10	1	-1E+10	1	-1E+10	1	-1E+10	1	-1E+10	1
4902663	32	C	06/15/2024	22:16	-127.917	47.722	0	923.10	0	3.7160	0	34.3610	0	27.313	0	913.346	0	7.2	4	2.3	4	-1E+10	1	-1E+10	1	-1E+10	1	-1E+10	1	-1E+10	1	-1E+10	1
4902663	32	C	06/15/2024	22:16	-127.917	47.722	0	927.80	0	3.6990	0	34.3630	0	27.317	0	917.986	0	7.3	4	2.3	4	-1E+10	1	-1E+10	1	-1E+10	1	-1E+10	1	-1E+10	1	-1E+10	1
4902663	32	C	06/15/2024	22:16	-127.917	47.722	0	933.00	0	3.7000	0	34.3680	0	27.321	0	923.119	0	7.3	4	2.3	4	-1E+10	1	-1E+10	1	-1E+10	1	-1E+10	1	-1E+10	1	-1E+10	1
4902663	32	C	06/15/2024	22:16	-127.917	47.722	0	938.20	0	3.6890	0	34.3700	0	27.323	0	928.253	0	7.4	4	2.3	4	-1E+10	1	-1E+10	1	-1E+10	1	-1E+10	1	-1E+10	1	-1E+10	1
4902663	32	C	06/15/2024	22:16	-127.917	47.722	0	943.00	0	3.6730	0	34.3720	0	27.327	0	932.991	0	7.4	4	2.3	4	-1E+10	1	-1E+10	1	-1E+10	1	-1E+10	1	-1E+10	1	-1E+10	1
4902663	32	C	06/15/2024	22:16	-127.917	47.722	0	947.80	0	3.6580	0	34.3740	0	27.330	0	937.729	0	7.5	4	2.3	4	-1E+10	1	-1E+10	1	-1E+10	1	-1E+10	1	-1E+10	1	-1E+10	1
4902663	32	C	06/15/2024	22:16	-127.917	47.722	0	952.70	0	3.6340	0	34.3760	0	27.334	0	942.566	0	7.5	4	2.4	4	-1E+10	1	-1E+10	1	-1E+10	1	-1E+10	1	-1E+10	1	-1E+10	1
4902663	32	C	06/15/2024	22:16	-127.917	47.722	0	957.70	0	3.6070	0	34.3770	0	27.337	0	947.502	0	7.6	4	2.4	4	-1E+10	1	-1E+10	1	-1E+10	1	-1E+10	1	-1E+10	1	-1E+10	1
4902663	32	C	06/15/2024	22:16	-127.917	47.722	0	962.70	0	3.5690	0	34.3750	0	27.339	0	952.437	0	7.7	4	2.4	4	-1E+10	1	-1E+10	1	-1E+10	1	-1E+10	1	-1E+10	1	-1E+10	1
4902663	32	C	06/15/2024	22:16	-127.917	47.722	0	967.80	0	3.5590	0	34.3790	0	27.343	0	957.471	0	7.8	4	2.4	4	-1E+10	1	-1E+10	1	-1E+10	1	-1E+10	1	-1E+10	1	-1E+10	1
4902663	32	C	06/15/2024	22:16	-127.917	47.722	0	973.00	0	3.5380	0	34.3810	0	27.347	0	962.604	0	7.9	4	2.5	4	-1E+10	1	-1E+10	1	-1E+10	1	-1E+10	1	-1E+10	1	-1E+10	1
4902663	32	C	06/15/2024	22:16	-127.917	47.722	0	978.20	0	3.5250	0	34.3830	0	27.350	0	967.736	0	8.0	4	2.5	4	-1E+10	1	-1E+10	1	-1E+10	1	-1E+10	1	-1E+10	1	-1E+10	1
4902663	32	C	06/15/2024	22:16	-127.917	47.722	0	983.30	0	3.5110	0	34.3840	0	27.352	0	972.770	0	8.0	4	2.5	4	-1E+10	1	-1E+10	1	-1E+10	1	-1E+10	1	-1E+10	1	-1E+10	1
4902663	32	C	06/15/2024	22:16	-127.917	47.722	0	987.90	0	3.5020	0	34.3850	0	27.354	0	977.310	0	8.1	4	2.5	4	-1E+10	1	-1E+10	1	-1E+10	1	-1E+10	1	-1E+10	1	-1E+10	1
4902663	32	C	06/15/2024	22:16	-127.917	47.722	0	992.70	0	3.4950	0	34.3860	0	27.355	0	982.047	0	8.1	4	2.5	4	-1E+10	1	-1E+10	1	-1E+10	1	-1E+10	1	-1E+10	1	-1E+10	1
4902663	32	C	06/15/2024	22:16	-127.917	47.722	0	997.70	0	3.4850	0	34.3880	0	27.358	0	986.982	0	8.2	4	2.6	4	-1E+10	1	-1E+10	1	-1E+10	1	-1E+10	1	-1E+10	1	-1E+10	1
4902663	32	C	06/15/2024	22:16	-127.917	47.722	0	1005.20	0	3.4690	0	34.3900	0	27.361	0	994.383	0	8.3	4	2.6	4	-1E+10	1	-1E+10	1	-1E+10	1	-1E+10	1	-1E+10	1	-1E+10	1
4902663	32	C	06/15/2024	22:16	-127.917	47.722	0	1015.30	0	3.4480	0	34.3940	0	27.366	0	1004.351	0	8.4	4	2.6	4	-1E+10	1	-1E+10	1	-1E+10	1	-1E+10	1	-1E+10	1	-1E+10	1
4902663	32	C	06/15/2024	22:16	-127.917	47.722	0	1025.50	0	3.4280	0	34.3960	0	27.370	0	1014.416	0	8.6	4	2.7	4	-1E+10	1	-1E+10	1	-1E+10	1	-1E+10	1	-1E+10	1	-1E+10	1
4902663	32	C	06/15/2024	22:16	-127.917	47.722	0	1035.30	0	3.4070	0	34.4000	0	27.375	0	1024.086	0	8.8	4	2.7	4	-1E+10	1	-1E+10	1	-1E+10	1	-1E+10	1	-1E+10	1	-1E+10	1
4902663	32	C	06/15/2024	22:16	-127.917	47.722	0	1045.20	0	3.3850	0	34.4040	0	27.380	0	1033.854	0	9.0	4	2.8	4	-1E+10	1	-1E+10	1	-1E+10	1	-1E+10	1	-1E+10	1	-1E+10	1
4902663	32	C	06/15/2024	22:16	-127.917	47.722	0	1055.10	0	3.3480	0	34.4090	0	27.388	0	1043.622	0	9.2	4	2.9	4	-1E+10	1	-1E+10	1	-1E+10	1	-1E+10	1	-1E+10	1	-1E+10	1
4902663	32	C	06/15/2024	22:16	-127.917	47.722	0	1065.10	0	3.3160	0	34.4130	0	27.394	0	1053.488	0	9.4	4	2.9	4	-1E+10	1	-1E+10	1	-1E+10	1	-1E+10	1	-1E+10	1	-1E+10	1
4902663	32	C	06/15/2024	22:16	-127.917	47.722	0	1075.20	0	3.3000	0	34.4160	0	27.398	0	1063.453	0	9.6	4	3.0	4	-1E+10	1	-1E+10	1	-1E+10	1	-1E+10	1	-1E+10	1	-1E+10	1
4902663	32	C	06/15/2024	22:16	-127.917	47.722	0	1085.30	0	3.2850	0	34.4190	0	27.402	0	1073.417	0	9.9	4	3.1	4	-1E+10	1	-1E+10	1	-1E+10	1	-1E+10	1	-1E+10	1	-1E+10	1
4902663	32	C	06/15/2024	22:16	-127.917	47.722	0	1095.40	0	3.2840	0	34.4230	0	27.405	0	1083.380	0	10.2	4	3.2	4	-1E+10	1	-1E+10	1	-1E+10	1	-1E+10	1	-1E+10	1	-1E+10	1
4902663	32	C	06/15/2024	22:16	-127.917	47.722	0	1105.40	0	3.2640	0	34.4270	0	27.411	0	1093.244	0	10.5	4	3.3	4	-1E+10	1	-1E+10	1	-1E+10	1	-1E+10	1	-1E+10	1	-1E+10	1
4902663	32	C	06/15/2024	22:16	-127.917	47.722	0	1115.50	0	3.2390	0	34.4310	0	27.416	0	1103.207	0	10.7	4	3.3	4	-1E+10	1	-1E+10	1	-1E+10	1	-1E+10	1	-1E+10	1	-1E+10	1
4902663	32	C	06/15/2024	22:16	-127.917	47.722	0	1125.60	0	3.2150	0	34.4320	0	27.419	0	1113.169	0	10.9	4	3.4	4	-1E+10	1	-1E+10	1	-1E+10	1	-1E+10	1	-1E+10	1	-1E+10	1
4902663	32	C	06/15/2024	22:16	-127.917	47.722	0	1135.70	0	3.1910	0	34.4350	0	27.424	0	1123.130	0	11.2	4	3.5	4	-1E+10	1	-1E+10	1	-1E+10	1	-1E+10	1	-1E+10	1	-1E+10	1
4902663	32	C	06/15/2024	22:16	-127.917	47.722	0	1145.40	0	3.1750	0	34.4370	0	27.427	0	1132.697	0	11.4	4	3.5	4	-1E+10	1	-1E+10	1	-1E+10	1	-1E+10	1	-1E+10	1	-1E+10	1
4902663	32	C	06/15/2024	22:16	-127.917	47.722	0	1155.50	0	3.1500	0	34.4410	0	27.433	0	1142.657	0	11.8	4	3.7	4	-1E+10	1	-1E+10	1	-1E+10	1	-1E+10	1	-1E+10	1	-1E+10	1
4902663	32	C	06/15/2024	22:16	-127.917	47.722	0	1165.70	0	3.1250	0	34.4450	0	27.438	0	1152.716	0	12.3	4	3.8	4	-1E+10	1	-1E+10	1	-1E+10	1	-1E+10	1	-1E+10	1	-1E+10	1
4902663	32	C	06/15/2024	22:16	-127.917	47.722	0	1175.50	0	3.0980	0	34.4480	0	27.443	0	1162.379	0	12.6	4	3.9	4	-1E+10	1	-1E+10	1	-1E+10	1	-1E+10	1	-1E+10	1	-1E+10	1
4902663	32	C	06/15/2024	22:16	-127.917	47.722	0	1185.20	0	3.0770	0	34.4510	0	27.447	0	1171.944	0	12.9	4	4.0	4	-1E+10	1	-1E+10	1	-1E+10	1	-1E+10	1	-1E+10	1	-1E+10	1
4902663	32	C	06/15/2024	22:16	-127.917	47.722	0	1195.40	0	3.0570	0	34.4540	0	27.452	0	1182.001	0	13.4	4	4.1	4	-1E+10	1	-1E+10	1	-1E+10	1	-1E+10	1	-1E+10	1	-1E+10	1
4902663	32	C	06/15/2024	22:16	-127.917	47.722	0	1205.70	0	3.0410	0	34.4590	0	27.457	0	1192.157	0	13.9	4	4.3	4	-1E+10	1	-1E+10	1	-1E+10	1	-1E+10	1	-1E+10	1	-1E+10	1
4902663	32	C	06/15/2024	22:16	-127.917	47.722	0	1215.60	0	3.0240	0	34.4630	0	27.462	0	1201.917	0	14.2	4	4.4	4	-1E+10	1	-1E+10	1	-1E+10	1	-1E+10	1	-1E+10	1	-1E+10	1
4902663	32	C	06/15/2024	22:16	-127.917	47.722	0	1225.30	0	2.9970	0	34.4650	0	27.466	0	1211.480	0	14.5	4	4.5	4	-1E+10	1	-1E+10	1	-1E+10	1	-1E+10	1	-1E+10	1	-1E+10	1
4902663	32	C	06/15/2024	22:16	-127.917	47.722	0	1235.10	0	2.9700	0	34.4660	0	27.469	0	1221.141	0	14.7	4	4.5	4	-1E+10	1	-1E+10	1	-1E+10	1	-1E+10	1	-1E+10	1	-1E+10	1
4902663	32	C	06/15/2024	22:16	-127.917	47.722	0	1245.50	0	2.9380	0	34.4670	0	27.473	0	1231.393	0	15.0	4	4.6	4	-1E+10	1	-1E+10	1	-1E+10	1	-1E+10	1	-1E+10	1	-1E+10	1
4902663	32	C	06/15/2024	22:16	-127.917	47.722	0	1255.50	0	2.9170	0	34.4690	0	27.477	0	1241.251	0	15.5	4	4.8	4	-1E+10	1	-1E+10	1	-1E+10	1	-1E+10	1	-1E+10	1	-1E+10	1
4902663	32	C	06/15/2024	22:16	-127.917	47.722	0	1265.40	0	2.8910	0	34.4720	0	27.481	0	1251.009	0	15.9	4	4.9	4	-1E+10	1	-1E+10	1	-1E+10	1	-1E+10	1	-1E+10	1	-1E+10	1
4902663	32	C	06/15/2024	22:16	-127.917	47.722	0	1275.60	0	2.8760	0	34.4740	0	27.484	0	1261.062	0	16.3	4	5.0	4	-1E+10	1	-1E+10	1	-1E+10	1	-1E+10	1	-1E+10	1	-1E+10	1
4902663	32	C	06/15/2024	22:16	-127.917	47.722	0	1285.30	0	2.8490	0	34.4760	0	27.488	0	1270.623	0	16.8	4	5.2	4	-1E+10	1	-1E+10	1	-1E+10	1	-1E+10	1	-1E+10	1	-1E+10	1
4902663	32	C	06/15/2024	22:16	-127.917	47.722	0	1295.30	0	2.8230	0	34.4800	0	27.494	0	1280.478	0	17.3	4	5.3	4	-1E+10	1	-1E+10	1	-1E+10	1	-1E+10	1	-1E+10	1	-1E+10	1
4902663	32	C	06/15/2024	22:16	-127.917	47.722	0	1305.30	0	2.7990	0	34.4820	0	27.498	0	1290.333	0	17.7	4	5.4	4	-1E+10	1	-1E+10	1	-1E+10	1	-1E+10	1	-1E+10	1	-1E+10	1
4902663	32	C	06/15/2024	22:16	-127.917	47.722	0	1315.20	0	2.7820	0	34.4840	0	27.501	0	1300.089	0	18.2	4	5.6	4	-1E+10	1	-1E+10	1	-1E+10	1	-1E+10	1	-1E+10	1	-1E+10	1
4902663	32	C	06/15/2024	22:16	-127.917	47.722	0	1325.40	0	2.7540	0	34.4870	0	27.506	0	1310.140	0	18.7	4	5.7	4	-1E+10	1	-1E+10	1	-1E+10	1	-1E+10	1	-1E+10	1	-1E+10	1
4902663	32	C	06/15/2024	22:16	-127.917	47.722	0	1335.40	0	2.7370	0	34.4890	0	27.509	0	1319.994	0	19.0	4	5.8	4	-1E+10	1	-1E+10	1	-1E+10	1	-1E+10	1	-1E+10	1	-1E+10	1
4902663	32	C	06/15/2024	22:16	-127.917	47.722	0	1345.10	0	2.7240	0	34.4910	0	27.512	0	1329.551	0	19.3	4	5.9	4	-1E+10	1	-1E+10	1	-1E+10	1	-1E+10	1	-1E+10	1	-1E+10	1
4902663	32	C	06/15/2024	22:16	-127.917	47.722	0	1355.40	0	2.7070	0	34.4920	0	27.514	0	1339.699	0	19.8	4	6.1	4	-1E+10	1	-1E+10	1	-1E+10	1	-1E+10	1	-1E+10	1	-1E+10	1
4902663	32	C	06/15/2024	22:16	-127.917	47.722	0	1365.40	0	2.6850	0	34.4950	0	27.518	0	1349.551	0	20.3	4	6.2	4	-1E+10	1	-1E+10	1	-1E+10	1	-1E+10	1	-1E+10	1	-1E+10	1
4902663	32	C	06/15/2024	22:16	-127.917	47.722	0	1375.10	0	2.6720	0	34.4960	0	27.520	0	1359.108	0	20.7	4	6.3	4	-1E+10	1	-1E+10	1	-1E+10	1	-1E+10	1	-1E+10	1	-1E+10	1
4902663	32	C	06/15/2024	22:16	-127.917	47.722	0	1385.30	0	2.6520	0	34.4980	0	27.524	0	1369.156	0	21.2	4	6.5	4	-1E+10	1	-1E+10	1	-1E+10	1	-1E+10	1	-1E+10	1	-1E+10	1
4902663	32	C	06/15/2024	22:16	-127.917	47.722	0	1395.60	0	2.6370	0	34.5000	0	27.527	0	1379.302	0	21.6	4	6.6	4	-1E+10	1	-1E+10	1	-1E+10	1	-1E+10	1	-1E+10	1	-1E+10	1
4902663	32	C	06/15/2024	22:16	-127.917	47.722	0	1405.50	0	2.6250	0	34.5010	0	27.528	0	1389.054	0	22.0	4	6.7	4	-1E+10	1	-1E+10	1	-1E+10	1	-1E+10	1	-1E+10	1	-1E+10	1
4902663	32	C	06/15/2024	22:16	-127.917	47.722	0	1415.40	0	2.6130	0	34.5030	0	27.531	0	1398.805	0	22.3	4	6.8	4	-1E+10	1	-1E+10	1	-1E+10	1	-1E+10	1	-1E+10	1	-1E+10	1
4902663	32	C	06/15/2024	22:16	-127.917	47.722	0	1425.20	0	2.5990	0	34.5050	0	27.534	0	1408.458	0	22.8	4	7.0	4	-1E+10	1	-1E+10	1	-1E+10	1	-1E+10	1	-1E+10	1	-1E+10	1
4902663	32	C	06/15/2024	22:16	-127.917	47.722	0	1435.40	0	2.5890	0	34.5060	0	27.536	0	1418.504	0	23.1	4	7.1	4	-1E+10	1	-1E+10	1	-1E+10	1	-1E+10	1	-1E+10	1	-1E+10	1
4902663	32	C	06/15/2024	22:16	-127.917	47.722	0	1445.30	0	2.5730	0	34.5080	0	27.539	0	1428.254	0	23.5	4	7.2	4	-1E+10	1	-1E+10	1	-1E+10	1	-1E+10	1	-1E+10	1	-1E+10	1
4902663	32	C	06/15/2024	22:16	-127.917	47.722	0	1455.20	0	2.5540	0	34.5090	0	27.541	0	1438.003	0	23.7	4	7.2	4	-1E+10	1	-1E+10	1	-1E+10	1	-1E+10	1	-1E+10	1	-1E+10	1
4902663	32	C	06/15/2024	22:16	-127.917	47.722	0	1465.60	0	2.5370	0	34.5100	0	27.543	0	1448.245	0	23.9	4	7.3	4	-1E+10	1	-1E+10	1	-1E+10	1	-1E+10	1	-1E+10	1	-1E+10	1
4902663	32	C	06/15/2024	22:16	-127.917	47.722	0	1475.40	0	2.5170	0	34.5120	0	27.547	0	1457.895	0	24.3	4	7.4	4	-1E+10	1	-1E+10	1	-1E+10	1	-1E+10	1	-1E+10	1	-1E+10	1
4902663	32	C	06/15/2024	22:16	-127.917	47.722	0	1485.10	0	2.5000	0	34.5140	0	27.550	0	1467.446	0	24.8	4	7.6	4	-1E+10	1	-1E+10	1	-1E+10	1	-1E+10	1	-1E+10	1	-1E+10	1
4902663	32	C	06/15/2024	22:16	-127.917	47.722	0	1495.20	0	2.4840	0	34.5150	0	27.552	0	1477.391	0	25.1	4	7.7	4	-1E+10	1	-1E+10	1	-1E+10	1	-1E+10	1	-1E+10	1	-1E+10	1
4902663	32	C	06/15/2024	22:16	-127.917	47.722	0	1505.30	0	2.4620	0	34.5150	0	27.554	0	1487.335	0	25.6	4	7.8	4	-1E+10	1	-1E+10	1	-1E+10	1	-1E+10	1	-1E+10	1	-1E+10	1
4902663	32	C	06/15/2024	22:16	-127.917	47.722	0	1515.20	0	2.4360	0	34.5170	0	27.558	0	1497.082	0	26.2	4	8.0	4	-1E+10	1	-1E+10	1	-1E+10	1	-1E+10	1	-1E+10	1	-1E+10	1
4902663	32	C	06/15/2024	22:16	-127.917	47.722	0	1525.20	0	2.4120	0	34.5190	0	27.561	0	1506.927	0	26.9	4	8.2	4	-1E+10	1	-1E+10	1	-1E+10	1	-1E+10	1	-1E+10	1	-1E+10	1
4902663	32	C	06/15/2024	22:16	-127.917	47.722	0	1535.20	0	2.3920	0	34.5210	0	27.565	0	1516.771	0	27.6	4	8.4	4	-1E+10	1	-1E+10	1	-1E+10	1	-1E+10	1	-1E+10	1	-1E+10	1
4902663	32	C	06/15/2024	22:16	-127.917	47.722	0	1545.00	0	2.3740	0	34.5230	0	27.568	0	1526.418	0	28.1	4	8.5	4	-1E+10	1	-1E+10	1	-1E+10	1	-1E+10	1	-1E+10	1	-1E+10	1
4902663	32	C	06/15/2024	22:16	-127.917	47.722	0	1555.00	0	2.3640	0	34.5250	0	27.570	0	1536.261	0	28.7	4	8.7	4	-1E+10	1	-1E+10	1	-1E+10	1	-1E+10	1	-1E+10	1	-1E+10	1
4902663	32	C	06/15/2024	22:16	-127.917	47.722	0	1565.40	0	2.3480	0	34.5270	0	27.573	0	1546.498	0	29.4	4	8.9	4	-1E+10	1	-1E+10	1	-1E+10	1	-1E+10	1	-1E+10	1	-1E+10	1
4902663	32	C	06/15/2024	22:16	-127.917	47.722	0	1575.20	0	2.3390	0	34.5300	0	27.576	0	1556.144	0	30.3	4	9.2	4	-1E+10	1	-1E+10	1	-1E+10	1	-1E+10	1	-1E+10	1	-1E+10	1
4902663	32	C	06/15/2024	22:16	-127.917	47.722	0	1585.20	0	2.3260	0	34.5330	0	27.580	0	1565.986	0	30.9	4	9.4	4	-1E+10	1	-1E+10	1	-1E+10	1	-1E+10	1	-1E+10	1	-1E+10	1
4902663	32	C	06/15/2024	22:16	-127.917	47.722	0	1595.10	0	2.3070	0	34.5340	0	27.582	0	1575.729	0	31.4	4	9.5	4	-1E+10	1	-1E+10	1	-1E+10	1	-1E+10	1	-1E+10	1	-1E+10	1
4902663	32	C	06/15/2024	22:16	-127.917	47.722	0	1605.40	0	2.2980	0	34.5360	0	27.585	0	1585.865	0	32.0	4	9.7	4	-1E+10	1	-1E+10	1	-1E+10	1	-1E+10	1	-1E+10	1	-1E+10	1
4902663	32	C	06/15/2024	22:16	-127.917	47.722	0	1615.60	0	2.2870	0	34.5380	0	27.587	0	1595.903	0	32.5	4	9.9	4	-1E+10	1	-1E+10	1	-1E+10	1	-1E+10	1	-1E+10	1	-1E+10	1
4902663	32	C	06/15/2024	22:16	-127.917	47.722	0	1625.60	0	2.2790	0	34.5400	0	27.590	0	1605.743	0	33.1	4	10.0	4	-1E+10	1	-1E+10	1	-1E+10	1	-1E+10	1	-1E+10	1	-1E+10	1
4902663	32	C	06/15/2024	22:16	-127.917	47.722	0	1635.50	0	2.2720	0	34.5410	0	27.591	0	1615.484	0	33.7	4	10.2	4	-1E+10	1	-1E+10	1	-1E+10	1	-1E+10	1	-1E+10	1	-1E+10	1
4902663	32	C	06/15/2024	22:16	-127.917	47.722	0	1645.10	0	2.2640	0	34.5430	0	27.593	0	1624.930	0	34.3	4	10.4	4	-1E+10	1	-1E+10	1	-1E+10	1	-1E+10	1	-1E+10	1	-1E+10	1
4902663	32	C	06/15/2024	22:16	-127.917	47.722	0	1655.40	0	2.2460	0	34.5460	0	27.597	0	1635.064	0	35.0	4	10.6	4	-1E+10	1	-1E+10	1	-1E+10	1	-1E+10	1	-1E+10	1	-1E+10	1
4902663	32	C	06/15/2024	22:16	-127.917	47.722	0	1665.90	0	2.2360	0	34.5470	0	27.599	0	1645.394	0	35.4	4	10.7	4	-1E+10	1	-1E+10	1	-1E+10	1	-1E+10	1	-1E+10	1	-1E+10	1
4902663	32	C	06/15/2024	22:16	-127.917	47.722	0	1675.40	0	2.2240	0	34.5470	0	27.600	0	1654.740	0	35.7	4	10.8	4	-1E+10	1	-1E+10	1	-1E+10	1	-1E+10	1	-1E+10	1	-1E+10	1
4902663	32	C	06/15/2024	22:16	-127.917	47.722	0	1685.10	0	2.2100	0	34.5480	0	27.602	0	1664.283	0	36.2	4	11.0	4	-1E+10	1	-1E+10	1	-1E+10	1	-1E+10	1	-1E+10	1	-1E+10	1
4902663	32	C	06/15/2024	22:16	-127.917	47.722	0	1695.40	0	2.2040	0	34.5490	0	27.603	0	1674.415	0	36.7	4	11.1	4	-1E+10	1	-1E+10	1	-1E+10	1	-1E+10	1	-1E+10	1	-1E+10	1
4902663	32	C	06/15/2024	22:16	-127.917	47.722	0	1705.70	0	2.1980	0	34.5510	0	27.605	0	1684.546	0	37.4	4	11.3	4	-1E+10	1	-1E+10	1	-1E+10	1	-1E+10	1	-1E+10	1	-1E+10	1
4902663	32	C	06/15/2024	22:16	-127.917	47.722	0	1715.50	0	2.1870	0	34.5530	0	27.608	0	1694.186	0	38.0	4	11.5	4	-1E+10	1	-1E+10	1	-1E+10	1	-1E+10	1	-1E+10	1	-1E+10	1
4902663	32	C	06/15/2024	22:16	-127.917	47.722	0	1725.30	0	2.1780	0	34.5560	0	27.611	0	1703.825	0	38.7	4	11.7	4	-1E+10	1	-1E+10	1	-1E+10	1	-1E+10	1	-1E+10	1	-1E+10	1
4902663	32	C	06/15/2024	22:16	-127.917	47.722	0	1735.70	0	2.1640	0	34.5570	0	27.613	0	1714.053	0	39.3	4	11.9	4	-1E+10	1	-1E+10	1	-1E+10	1	-1E+10	1	-1E+10	1	-1E+10	1
4902663	32	C	06/15/2024	22:16	-127.917	47.722	0	1745.50	0	2.1500	0	34.5580	0	27.615	0	1723.691	0	40.0	4	12.1	4	-1E+10	1	-1E+10	1	-1E+10	1	-1E+10	1	-1E+10	1	-1E+10	1
4902663	32	C	06/15/2024	22:16	-127.917	47.722	0	1755.40	0	2.1360	0	34.5600	0	27.618	0	1733.427	0	40.6	4	12.3	4	-1E+10	1	-1E+10	1	-1E+10	1	-1E+10	1	-1E+10	1	-1E+10	1
4902663	32	C	06/15/2024	22:16	-127.917	47.722	0	1765.40	0	2.1260	0	34.5620	0	27.620	0	1743.261	0	41.2	4	12.5	4	-1E+10	1	-1E+10	1	-1E+10	1	-1E+10	1	-1E+10	1	-1E+10	1
4902663	32	C	06/15/2024	22:16	-127.917	47.722	0	1775.40	0	2.1150	0	34.5630	0	27.622	0	1753.094	0	41.8	4	12.6	4	-1E+10	1	-1E+10	1	-1E+10	1	-1E+10	1	-1E+10	1	-1E+10	1
4902663	32	C	06/15/2024	22:16	-127.917	47.722	0	1785.40	0	2.1050	0	34.5650	0	27.624	0	1762.927	0	42.4	4	12.8	4	-1E+10	1	-1E+10	1	-1E+10	1	-1E+10	1	-1E+10	1	-1E+10	1
4902663	32	C	06/15/2024	22:16	-127.917	47.722	0	1795.50	0	2.0950	0	34.5660	0	27.626	0	1772.858	0	43.1	4	13.0	4	-1E+10	1	-1E+10	1	-1E+10	1	-1E+10	1	-1E+10	1	-1E+10	1
4902663	32	C	06/15/2024	22:16	-127.917	47.722	0	1805.60	0	2.0830	0	34.5670	0	27.628	0	1782.788	0	43.8	4	13.2	4	-1E+10	1	-1E+10	1	-1E+10	1	-1E+10	1	-1E+10	1	-1E+10	1
4902663	32	C	06/15/2024	22:16	-127.917	47.722	0	1815.30	0	2.0740	0	34.5690	0	27.630	0	1792.325	0	44.3	4	13.4	4	-1E+10	1	-1E+10	1	-1E+10	1	-1E+10	1	-1E+10	1	-1E+10	1
4902663	32	C	06/15/2024	22:16	-127.917	47.722	0	1825.50	0	2.0640	0	34.5700	0	27.632	0	1802.352	0	45.0	4	13.6	4	-1E+10	1	-1E+10	1	-1E+10	1	-1E+10	1	-1E+10	1	-1E+10	1
4902663	32	C	06/15/2024	22:16	-127.917	47.722	0	1835.60	0	2.0520	0	34.5720	0	27.634	0	1812.281	0	45.6	4	13.8	4	-1E+10	1	-1E+10	1	-1E+10	1	-1E+10	1	-1E+10	1	-1E+10	1
4902663	32	C	06/15/2024	22:16	-127.917	47.722	0	1845.30	0	2.0450	0	34.5730	0	27.636	0	1821.816	0	46.1	4	13.9	4	-1E+10	1	-1E+10	1	-1E+10	1	-1E+10	1	-1E+10	1	-1E+10	1
4902663	32	C	06/15/2024	22:16	-127.917	47.722	0	1855.40	0	2.0370	0	34.5750	0	27.638	0	1831.744	0	46.8	4	14.1	4	-1E+10	1	-1E+10	1	-1E+10	1	-1E+10	1	-1E+10	1	-1E+10	1
4902663	32	C	06/15/2024	22:16	-127.917	47.722	0	1865.60	0	2.0280	0	34.5760	0	27.640	0	1841.770	0	47.4	4	14.3	4	-1E+10	1	-1E+10	1	-1E+10	1	-1E+10	1	-1E+10	1	-1E+10	1
4902663	32	C	06/15/2024	22:16	-127.917	47.722	0	1875.60	0	2.0180	0	34.5780	0	27.642	0	1851.599	0	48.0	4	14.5	4	-1E+10	1	-1E+10	1	-1E+10	1	-1E+10	1	-1E+10	1	-1E+10	1
4902663	32	C	06/15/2024	22:16	-127.917	47.722	0	1885.10	0	2.0100	0	34.5790	0	27.644	0	1860.936	0	48.5	4	14.6	4	-1E+10	1	-1E+10	1	-1E+10	1	-1E+10	1	-1E+10	1	-1E+10	1
4902663	32	C	06/15/2024	22:16	-127.917	47.722	0	1895.40	0	2.0020	0	34.5810	0	27.646	0	1871.059	0	49.0	4	14.8	4	-1E+10	1	-1E+10	1	-1E+10	1	-1E+10	1	-1E+10	1	-1E+10	1
4902663	32	C	06/15/2024	22:16	-127.917	47.722	0	1905.70	0	1.9960	0	34.5820	0	27.647	0	1881.181	0	49.5	4	14.9	4	-1E+10	1	-1E+10	1	-1E+10	1	-1E+10	1	-1E+10	1	-1E+10	1
4902663	32	C	06/15/2024	22:16	-127.917	47.722	0	1915.40	0	1.9890	0	34.5830	0	27.649	0	1890.713	0	50.1	4	15.1	4	-1E+10	1	-1E+10	1	-1E+10	1	-1E+10	1	-1E+10	1	-1E+10	1
4902663	32	C	06/15/2024	22:16	-127.917	47.722	0	1925.40	0	1.9820	0	34.5850	0	27.651	0	1900.539	0	50.6	4	15.3	4	-1E+10	1	-1E+10	1	-1E+10	1	-1E+10	1	-1E+10	1	-1E+10	1
4902663	32	C	06/15/2024	22:16	-127.917	47.722	0	1935.50	0	1.9750	0	34.5860	0	27.652	0	1910.464	0	51.2	4	15.4	4	-1E+10	1	-1E+10	1	-1E+10	1	-1E+10	1	-1E+10	1	-1E+10	1
4902663	32	C	06/15/2024	22:16	-127.917	47.722	0	1945.30	0	1.9660	0	34.5870	0	27.654	0	1920.093	0	51.9	4	15.6	4	-1E+10	1	-1E+10	1	-1E+10	1	-1E+10	1	-1E+10	1	-1E+10	1
4902663	32	C	06/15/2024	22:16	-127.917	47.722	0	1955.60	0	1.9560	0	34.5890	0	27.656	0	1930.213	0	52.5	4	15.8	4	-1E+10	1	-1E+10	1	-1E+10	1	-1E+10	1	-1E+10	1	-1E+10	1
4902663	32	C	06/15/2024	22:16	-127.917	47.722	0	1965.50	0	1.9500	0	34.5900	0	27.657	0	1939.939	0	53.1	4	16.0	4	-1E+10	1	-1E+10	1	-1E+10	1	-1E+10	1	-1E+10	1	-1E+10	1
4902663	32	C	06/15/2024	22:16	-127.917	47.722	0	1975.10	0	1.9420	0	34.5920	0	27.660	0	1949.370	0	53.7	4	16.2	4	-1E+10	1	-1E+10	1	-1E+10	1	-1E+10	1	-1E+10	1	-1E+10	1
4902663	32	C	06/15/2024	22:16	-127.917	47.722	0	1985.00	0	1.9330	0	34.5930	0	27.661	0	1959.096	0	54.3	4	16.4	4	-1E+10	1	-1E+10	1	-1E+10	1	-1E+10	1	-1E+10	1	-1E+10	1
4902663	32	C	06/15/2024	22:16	-127.917	47.722	0	1995.20	0	1.9250	0	34.5950	0	27.664	0	1969.116	0	54.9	4	16.5	4	-1E+10	1	-1E+10	1	-1E+10	1	-1E+10	1	-1E+10	1	-1E+10	1
4902663	32	C	06/15/2024	22:16	-127.917	47.722	0	2005.50	0	1.9170	0	34.5960	0	27.665	0	1979.233	0	55.2	4	16.6	4	-1E+10	1	-1E+10	1	-1E+10	1	-1E+10	1	-1E+10	1	-1E+10	1
4902663	32	C	06/15/2024	22:16	-127.917	47.722	0	2014.30	0	1.9130	0	34.5970	0	27.666	0	1987.877	0	54.7	4	16.5	4	-1E+10	1	-1E+10	1	-1E+10	1	-1E+10	1	-1E+10	1	-1E+10	1
4902663	32	C	06/15/2024	22:16	-127.917	47.722	0																										
4902663	33	C	06/25/2024	17:06	-127.644	47.469	0	0.10	0	14.2920	0	31.8860	0	23.722	0	0.099	0	254.7	4	99.2	4	-1E+10	1	-1E+10	1	-1E+10	1	-1E+10	1	-1E+10	1	-1E+10	1
4902663	33	C	06/25/2024	17:06	-127.644	47.469	0	0.20	0	14.2750	0	31.9000	0	23.737	0	0.198	0	248.8	4	96.9	4	-1E+10	1	-1E+10	1	-1E+10	1	-1E+10	1	-1E+10	1	-1E+10	1
4902663	33	C	06/25/2024	17:06	-127.644	47.469	0	1.00	0	14.2710	0	31.8930	0	23.732	0	0.992	0	248.8	4	96.9	4	-1E+10	1	-1E+10	1	-1E+10	1	-1E+10	1	-1E+10	1	-1E+10	1
4902663	33	C	06/25/2024	17:06	-127.644	47.469	0	1.90	0	14.2650	0	31.8950	0	23.735	0	1.884	0	249.0	4	96.9	4	-1E+10	1	-1E+10	1	-1E+10	1	-1E+10	1	-1E+10	1	-1E+10	1
4902663	33	C	06/25/2024	17:06	-127.644	47.469	0	2.70	0	14.2610	0	31.8910	0	23.733	0	2.677	0	249.1	4	97.0	4	-1E+10	1	-1E+10	1	-1E+10	1	-1E+10	1	-1E+10	1	-1E+10	1
4902663	33	C	06/25/2024	17:06	-127.644	47.469	0	3.90	0	14.2510	0	31.9040	0	23.745	0	3.867	0	249.5	4	97.1	4	-1E+10	1	-1E+10	1	-1E+10	1	-1E+10	1	-1E+10	1	-1E+10	1
4902663	33	C	06/25/2024	17:06	-127.644	47.469	0	4.90	0	14.2450	0	31.9230	0	23.761	0	4.859	0	249.9	4	97.3	4	-1E+10	1	-1E+10	1	-1E+10	1	-1E+10	1	-1E+10	1	-1E+10	1
4902663	33	C	06/25/2024	17:06	-127.644	47.469	0	5.90	0	14.1780	0	31.9260	0	23.777	0	5.851	0	250.4	4	97.3	4	-1E+10	1	-1E+10	1	-1E+10	1	-1E+10	1	-1E+10	1	-1E+10	1
4902663	33	C	06/25/2024	17:06	-127.644	47.469	0	7.00	0	14.0340	0	31.9350	0	23.814	0	6.941	0	250.9	4	97.3	4	-1E+10	1	-1E+10	1	-1E+10	1	-1E+10	1	-1E+10	1	-1E+10	1
4902663	33	C	06/25/2024	17:06	-127.644	47.469	0	7.70	0	14.0200	0	31.9330	0	23.815	0	7.636	0	251.1	4	97.3	4	-1E+10	1	-1E+10	1	-1E+10	1	-1E+10	1	-1E+10	1	-1E+10	1
4902663	33	C	06/25/2024	17:06	-127.644	47.469	0	8.80	0	14.0060	0	31.9330	0	23.818	0	8.726	0	251.3	4	97.3	4	-1E+10	1	-1E+10	1	-1E+10	1	-1E+10	1	-1E+10	1	-1E+10	1
4902663	33	C	06/25/2024	17:06	-127.644	47.469	0	10.00	0	13.9930	0	31.9330	0	23.820	0	9.916	0	251.6	4	97.4	4	-1E+10	1	-1E+10	1	-1E+10	1	-1E+10	1	-1E+10	1	-1E+10	1
4902663	33	C	06/25/2024	17:06	-127.644	47.469	0	10.80	0	13.9850	0	31.9330	0	23.822	0	10.710	0	251.8	4	97.5	4	-1E+10	1	-1E+10	1	-1E+10	1	-1E+10	1	-1E+10	1	-1E+10	1
4902663	33	C	06/25/2024	17:06	-127.644	47.469	0	11.90	0	13.9760	0	31.9330	0	23.824	0	11.800	0	252.2	4	97.6	4	-1E+10	1	-1E+10	1	-1E+10	1	-1E+10	1	-1E+10	1	-1E+10	1
4902663	33	C	06/25/2024	17:06	-127.644	47.469	0	13.10	0	13.9710	0	31.9330	0	23.825	0	12.990	0	252.8	4	97.8	4	-1E+10	1	-1E+10	1	-1E+10	1	-1E+10	1	-1E+10	1	-1E+10	1
4902663	33	C	06/25/2024	17:06	-127.644	47.469	0	13.90	0	13.9650	0	31.9330	0	23.826	0	13.784	0	253.3	4	98.0	4	-1E+10	1	-1E+10	1	-1E+10	1	-1E+10	1	-1E+10	1	-1E+10	1
4902663	33	C	06/25/2024	17:06	-127.644	47.469	0	15.00	0	13.9520	0	31.9320	0	23.828	0	14.874	0	254.1	4	98.3	4	-1E+10	1	-1E+10	1	-1E+10	1	-1E+10	1	-1E+10	1	-1E+10	1
4902663	33	C	06/25/2024	17:06	-127.644	47.469	0	16.20	0	13.9400	0	31.9310	0	23.830	0	16.064	0	255.1	4	98.7	4	-1E+10	1	-1E+10	1	-1E+10	1	-1E+10	1	-1E+10	1	-1E+10	1
4902663	33	C	06/25/2024	17:06	-127.644	47.469	0	17.00	0	13.9140	0	31.9320	0	23.836	0	16.857	0	256.2	4	99.0	4	-1E+10	1	-1E+10	1	-1E+10	1	-1E+10	1	-1E+10	1	-1E+10	1
4902663	33	C	06/25/2024	17:06	-127.644	47.469	0	17.80	0	13.8680	0	31.9380	0	23.850	0	17.651	0	257.3	4	99.4	4	-1E+10	1	-1E+10	1	-1E+10	1	-1E+10	1	-1E+10	1	-1E+10	1
4902663	33	C	06/25/2024	17:06	-127.644	47.469	0	18.90	0	13.7460	0	31.9380	0	23.875	0	18.741	0	259.4	4	99.9	4	-1E+10	1	-1E+10	1	-1E+10	1	-1E+10	1	-1E+10	1	-1E+10	1
4902663	33	C	06/25/2024	17:06	-127.644	47.469	0	20.10	0	13.6520	0	31.9470	0	23.901	0	19.931	0	261.2	4	100.4	4	-1E+10	1	-1E+10	1	-1E+10	1	-1E+10	1	-1E+10	1	-1E+10	1
4902663	33	C	06/25/2024	17:06	-127.644	47.469	0	20.90	0	13.4600	0	31.9790	0	23.964	0	20.725	0	262.4	4	100.5	4	-1E+10	1	-1E+10	1	-1E+10	1	-1E+10	1	-1E+10	1	-1E+10	1
4902663	33	C	06/25/2024	17:06	-127.644	47.469	0	21.80	0	13.2300	0	32.0820	0	24.089	0	21.617	0	263.7	4	100.7	4	-1E+10	1	-1E+10	1	-1E+10	1	-1E+10	1	-1E+10	1	-1E+10	1
4902663	33	C	06/25/2024	17:06	-127.644	47.469	0	22.70	0	13.0570	0	32.1020	0	24.139	0	22.509	0	264.3	4	100.5	4	-1E+10	1	-1E+10	1	-1E+10	1	-1E+10	1	-1E+10	1	-1E+10	1
4902663	33	C	06/25/2024	17:06	-127.644	47.469	0	23.60	0	13.0010	0	32.1570	0	24.192	0	23.402	0	264.7	4	100.6	4	-1E+10	1	-1E+10	1	-1E+10	1	-1E+10	1	-1E+10	1	-1E+10	1
4902663	33	C	06/25/2024	17:06	-127.644	47.469	0	24.60	0	12.9130	0	32.1810	0	24.228	0	24.393	0	265.3	4	100.7	4	-1E+10	1	-1E+10	1	-1E+10	1	-1E+10	1	-1E+10	1	-1E+10	1
4902663	33	C	06/25/2024	17:06	-127.644	47.469	0	25.60	0	12.6890	0	32.2460	0	24.322	0	25.385	0	266.1	4	100.6	4	-1E+10	1	-1E+10	1	-1E+10	1	-1E+10	1	-1E+10	1	-1E+10	1
4902663	33	C	06/25/2024	17:06	-127.644	47.469	0	26.60	0	12.5480	0	32.2280	0	24.335	0	26.376	0	266.1	4	100.2	4	-1E+10	1	-1E+10	1	-1E+10	1	-1E+10	1	-1E+10	1	-1E+10	1
4902663	33	C	06/25/2024	17:06	-127.644	47.469	0	27.60	0	12.5200	0	32.2170	0	24.332	0	27.368	0	266.1	4	100.2	4	-1E+10	1	-1E+10	1	-1E+10	1	-1E+10	1	-1E+10	1	-1E+10	1
4902663	33	C	06/25/2024	17:06	-127.644	47.469	0	28.70	0	12.4960	0	32.2170	0	24.336	0	28.459	0	266.2	4	100.2	4	-1E+10	1	-1E+10	1	-1E+10	1	-1E+10	1	-1E+10	1	-1E+10	1
4902663	33	C	06/25/2024	17:06	-127.644	47.469	0	29.70	0	12.4190	0	32.2070	0	24.343	0	29.450	0	266.1	4	100.0	4	-1E+10	1	-1E+10	1	-1E+10	1	-1E+10	1	-1E+10	1	-1E+10	1
4902663	33	C	06/25/2024	17:06	-127.644	47.469	0	30.70	0	12.3860	0	32.1930	0	24.339	0	30.442	0	266.1	4	99.9	4	-1E+10	1	-1E+10	1	-1E+10	1	-1E+10	1	-1E+10	1	-1E+10	1
4902663	33	C	06/25/2024	17:06	-127.644	47.469	0	31.60	0	12.3780	0	32.1910	0	24.339	0	31.334	0	265.9	4	99.8	4	-1E+10	1	-1E+10	1	-1E+10	1	-1E+10	1	-1E+10	1	-1E+10	1
4902663	33	C	06/25/2024	17:06	-127.644	47.469	0	32.60	0	12.2260	0	32.1760	0	24.356	0	32.325	0	266.1	4	99.5	4	-1E+10	1	-1E+10	1	-1E+10	1	-1E+10	1	-1E+10	1	-1E+10	1
4902663	33	C	06/25/2024	17:06	-127.644	47.469	0	33.50	0	12.1410	0	32.1820	0	24.376	0	33.218	0	266.1	4	99.4	4	-1E+10	1	-1E+10	1	-1E+10	1	-1E+10	1	-1E+10	1	-1E+10	1
4902663	33	C	06/25/2024	17:06	-127.644	47.469	0	34.50	0	12.1480	0	32.2020	0	24.391	0	34.209	0	265.9	4	99.3	4	-1E+10	1	-1E+10	1	-1E+10	1	-1E+10	1	-1E+10	1	-1E+10	1
4902663	33	C	06/25/2024	17:06	-127.644	47.469	0	35.50	0	12.1470	0	32.2130	0	24.399	0	35.201	0	265.8	4	99.3	4	-1E+10	1	-1E+10	1	-1E+10	1	-1E+10	1	-1E+10	1	-1E+10	1
4902663	33	C	06/25/2024	17:06	-127.644	47.469	0	36.50	0	12.1420	0	32.2290	0	24.413	0	36.192	0	265.8	4	99.3	4	-1E+10	1	-1E+10	1	-1E+10	1	-1E+10	1	-1E+10	1	-1E+10	1
4902663	33	C	06/25/2024	17:06	-127.644	47.469	0	37.90	0	12.0480	0	32.2220	0	24.425	0	37.580	0	266.0	4	99.2	4	-1E+10	1	-1E+10	1	-1E+10	1	-1E+10	1	-1E+10	1	-1E+10	1
4902663	33	C	06/25/2024	17:06	-127.644	47.469	0	39.30	0	11.8630	0	32.2110	0	24.451	0	38.968	0	266.3	4	98.9	4	-1E+10	1	-1E+10	1	-1E+10	1	-1E+10	1	-1E+10	1	-1E+10	1
4902663	33	C	06/25/2024	17:06	-127.644	47.469	0	40.20	0	11.7660	0	32.2180	0	24.474	0	39.861	0	266.6	4	98.8	4	-1E+10	1	-1E+10	1	-1E+10	1	-1E+10	1	-1E+10	1	-1E+10	1
4902663	33	C	06/25/2024	17:06	-127.644	47.469	0	40.90	0	11.7430	0	32.2370	0	24.493	0	40.555	0	266.9	4	98.9	4	-1E+10	1	-1E+10	1	-1E+10	1	-1E+10	1	-1E+10	1	-1E+10	1
4902663	33	C	06/25/2024	17:06	-127.644	47.469	0	41.80	0	11.5880	0	32.2320	0	24.517	0	41.447	0	267.0	4	98.6	4	-1E+10	1	-1E+10	1	-1E+10	1	-1E+10	1	-1E+10	1	-1E+10	1
4902663	33	C	06/25/2024	17:06	-127.644	47.469	0	43.10	0	11.4320	0	32.2510	0	24.560	0	42.736	0	267.1	4	98.3	4	-1E+10	1	-1E+10	1	-1E+10	1	-1E+10	1	-1E+10	1	-1E+10	1
4902663	33	C	06/25/2024	17:06	-127.644	47.469	0	44.10	0	11.2990	0	32.2600	0	24.591	0	43.727	0	267.1	4	98.1	4	-1E+10	1	-1E+10	1	-1E+10	1	-1E+10	1	-1E+10	1	-1E+10	1
4902663	33	C	06/25/2024	17:06	-127.644	47.469	0	44.80	0	11.2300	0	32.2740	0	24.614	0	44.421	0	267.1	4	97.9	4	-1E+10	1	-1E+10	1	-1E+10	1	-1E+10	1	-1E+10	1	-1E+10	1
4902663	33	C	06/25/2024	17:06	-127.644	47.469	0	45.80	0	11.1250	0	32.3000	0	24.653	0	45.413	0	267.0	4	97.7	4	-1E+10	1	-1E+10	1	-1E+10	1	-1E+10	1	-1E+10	1	-1E+10	1
4902663	33	C	06/25/2024	17:06	-127.644	47.469	0	46.90	0	11.0350	0	32.3010	0	24.670	0	46.503	0	266.9	4	97.5	4	-1E+10	1	-1E+10	1	-1E+10	1	-1E+10	1	-1E+10	1	-1E+10	1
4902663	33	C	06/25/2024	17:06	-127.644	47.469	0	47.90	0	10.9860	0	32.2940	0	24.673	0	47.495	0	266.7	4	97.3	4	-1E+10	1	-1E+10	1	-1E+10	1	-1E+10	1	-1E+10	1	-1E+10	1
4902663	33	C	06/25/2024	17:06	-127.644	47.469	0	48.90	0	10.9180	0	32.2910	0	24.683	0	48.486	0	266.8	4	97.2	4	-1E+10	1	-1E+10	1	-1E+10	1	-1E+10	1	-1E+10	1	-1E+10	1
4902663	33	C	06/25/2024	17:06	-127.644	47.469	0	50.00	0	10.5420	0	32.2810	0	24.740	0	49.577	0	267.1	4	96.5	4	-1E+10	1	-1E+10	1	-1E+10	1	-1E+10	1	-1E+10	1	-1E+10	1
4902663	33	C	06/25/2024	17:06	-127.644	47.469	0	51.10	0	10.2210	0	32.1960	0	24.728	0	50.667	0	267.3	4	95.8	4	-1E+10	1	-1E+10	1	-1E+10	1	-1E+10	1	-1E+10	1	-1E+10	1
4902663	33	C	06/25/2024	17:06	-127.644	47.469	0	51.90	0	10.2150	0	32.2650	0	24.783	0	51.461	0	267.2	4	95.8	4	-1E+10	1	-1E+10	1	-1E+10	1	-1E+10	1	-1E+10	1	-1E+10	1
4902663	33	C	06/25/2024	17:06	-127.644	47.469	0	52.80	0	10.1420	0	32.3240	0	24.841	0	52.353	0	266.9	4	95.6	4	-1E+10	1	-1E+10	1	-1E+10	1	-1E+10	1	-1E+10	1	-1E+10	1
4902663	33	C	06/25/2024	17:06	-127.644	47.469	0	54.00	0	9.9740	0	32.3210	0	24.866	0	53.542	0	266.6	4	95.2	4	-1E+10	1	-1E+10	1	-1E+10	1	-1E+10	1	-1E+10	1	-1E+10	1
4902663	33	C	06/25/2024	17:06	-127.644	47.469	0	55.30	0	9.8650	0	32.3180	0	24.882	0	54.831	0	266.1	4	94.8	4	-1E+10	1	-1E+10	1	-1E+10	1	-1E+10	1	-1E+10	1	-1E+10	1
4902663	33	C	06/25/2024	17:06	-127.644	47.469	0	56.10	0	9.7510	0	32.3230	0	24.905	0	55.624	0	265.7	4	94.4	4	-1E+10	1	-1E+10	1	-1E+10	1	-1E+10	1	-1E+10	1	-1E+10	1
4902663	33	C	06/25/2024	17:06	-127.644	47.469	0	57.00	0	9.6270	0	32.3320	0	24.932	0	56.517	0	265.3	4	94.0	4	-1E+10	1	-1E+10	1	-1E+10	1	-1E+10	1	-1E+10	1	-1E+10	1
4902663	33	C	06/25/2024	17:06	-127.644	47.469	0	58.00	0	9.5370	0	32.3300	0	24.945	0	57.508	0	265.0	4	93.7	4	-1E+10	1	-1E+10	1	-1E+10	1	-1E+10	1	-1E+10	1	-1E+10	1
4902663	33	C	06/25/2024	17:06	-127.644	47.469	0	58.90	0	9.5180	0	32.3250	0	24.944	0	58.400	0	264.3	4	93.4	4	-1E+10	1	-1E+10	1	-1E+10	1	-1E+10	1	-1E+10	1	-1E+10	1
4902663	33	C	06/25/2024	17:06	-127.644	47.469	0	59.80	0	9.4110	0	32.3400	0	24.973	0	59.292	0	263.7	4	93.0	4	-1E+10	1	-1E+10	1	-1E+10	1	-1E+10	1	-1E+10	1	-1E+10	1
4902663	33	C	06/25/2024	17:06	-127.644	47.469	0	60.70	0	9.3120	0	32.3410	0	24.989	0	60.185	0	263.2	4	92.6	4	-1E+10	1	-1E+10	1	-1E+10	1	-1E+10	1	-1E+10	1	-1E+10	1
4902663	33	C	06/25/2024	17:06	-127.644	47.469	0	61.70	0	9.2830	0	32.3380	0	24.991	0	61.176	0	262.6	4	92.4	4	-1E+10	1	-1E+10	1	-1E+10	1	-1E+10	1	-1E+10	1	-1E+10	1
4902663	33	C	06/25/2024	17:06	-127.644	47.469	0	62.60	0	9.2760	0	32.3360	0	24.991	0	62.068	0	261.9	4	92.1	4	-1E+10	1	-1E+10	1	-1E+10	1	-1E+10	1	-1E+10	1	-1E+10	1
4902663	33	C	06/25/2024	17:06	-127.644	47.469	0	63.50	0	9.2630	0	32.3360	0	24.993	0	62.961	0	260.9	4	91.7	4	-1E+10	1	-1E+10	1	-1E+10	1	-1E+10	1	-1E+10	1	-1E+10	1
4902663	33	C	06/25/2024	17:06	-127.644	47.469	0	64.90	0	9.1600	0	32.3400	0	25.012	0	64.348	0	259.9	4	91.2	4	-1E+10	1	-1E+10	1	-1E+10	1	-1E+10	1	-1E+10	1	-1E+10	1
4902663	33	C	06/25/2024	17:06	-127.644	47.469	0	66.40	0	9.0890	0	32.3480	0	25.030	0	65.835	0	258.6	4	90.6	4	-1E+10	1	-1E+10	1	-1E+10	1	-1E+10	1	-1E+10	1	-1E+10	1
4902663	33	C	06/25/2024	17:06	-127.644	47.469	0	67.30	0	9.0200	0	32.3500	0	25.042	0	66.728	0	257.7	4	90.1	4	-1E+10	1	-1E+10	1	-1E+10	1	-1E+10	1	-1E+10	1	-1E+10	1
4902663	33	C	06/25/2024	17:06	-127.644	47.469	0	68.30	0	8.9790	0	32.3540	0	25.051	0	67.719	0	256.8	4	89.7	4	-1E+10	1	-1E+10	1	-1E+10	1	-1E+10	1	-1E+10	1	-1E+10	1
4902663	33	C	06/25/2024	17:06	-127.644	47.469	0	69.30	0	8.8940	0	32.3690	0	25.076	0	68.710	0	256.1	4	89.3	4	-1E+10	1	-1E+10	1	-1E+10	1	-1E+10	1	-1E+10	1	-1E+10	1
4902663	33	C	06/25/2024	17:06	-127.644	47.469	0	70.30	0	8.8800	0	32.3650	0	25.075	0	69.702	0	255.2	4	89.0	4	-1E+10	1	-1E+10	1	-1E+10	1	-1E+10	1	-1E+10	1	-1E+10	1
4902663	33	C	06/25/2024	17:06	-127.644	47.469	0	71.30	0	8.8670	0	32.3670	0	25.079	0	70.693	0	253.7	4	88.4	4	-1E+10	1	-1E+10	1	-1E+10	1	-1E+10	1	-1E+10	1	-1E+10	1
4902663	33	C	06/25/2024	17:06	-127.644	47.469	0	72.40	0	8.8490	0	32.3700	0	25.084	0	71.783	0	252.5	4	88.0	4	-1E+10	1	-1E+10	1	-1E+10	1	-1E+10	1	-1E+10	1	-1E+10	1
4902663	33	C	06/25/2024	17:06	-127.644	47.469	0	73.40	0	8.8390	0	32.3730	0	25.088	0	72.775	0	251.2	4	87.5	4	-1E+10	1	-1E+10	1	-1E+10	1	-1E+10	1	-1E+10	1	-1E+10	1
4902663	33	C	06/25/2024	17:06	-127.644	47.469	0	74.30	0	8.8340	0	32.3740	0	25.089	0	73.667	0	249.6	4	86.9	4	-1E+10	1	-1E+10	1	-1E+10	1	-1E+10	1	-1E+10	1	-1E+10	1
4902663	33	C	06/25/2024	17:06	-127.644	47.469	0	75.30	0	8.7870	0	32.3840	0	25.104	0	74.658	0	248.0	4	86.3	4	-1E+10	1	-1E+10	1	-1E+10	1	-1E+10	1	-1E+10	1	-1E+10	1
4902663	33	C	06/25/2024	17:06	-127.644	47.469	0	76.20	0	8.6660	0	32.4110	0	25.144	0	75.550	0	246.5	4	85.6	4	-1E+10	1	-1E+10	1	-1E+10	1	-1E+10	1	-1E+10	1	-1E+10	1
4902663	33	C	06/25/2024	17:06	-127.644	47.469	0	77.20	0	8.6450	0	32.4170	0	25.152	0	76.542	0	245.1	4	85.0	4	-1E+10	1	-1E+10	1	-1E+10	1	-1E+10	1	-1E+10	1	-1E+10	1
4902663	33	C	06/25/2024	17:06	-127.644	47.469	0	78.20	0	8.6130	0	32.4310	0	25.168	0	77.533	0	243.7	4	84.5	4	-1E+10	1	-1E+10	1	-1E+10	1	-1E+10	1	-1E+10	1	-1E+10	1
4902663	33	C	06/25/2024	17:06	-127.644	47.469	0	79.20	0	8.5700	0	32.4610	0	25.198	0	78.524	0	242.6	4	84.1	4	-1E+10	1	-1E+10	1	-1E+10	1	-1E+10	1	-1E+10	1	-1E+10	1
4902663	33	C	06/25/2024	17:06	-127.644	47.469	0	80.10	0	8.6110	0	32.4840	0	25.210	0	79.416	0	241.2	4	83.7	4	-1E+10	1	-1E+10	1	-1E+10	1	-1E+10	1	-1E+10	1	-1E+10	1
4902663	33	C	06/25/2024	17:06	-127.644	47.469	0	81.20	0	8.6000	0	32.4980	0	25.222	0	80.507	0	240.3	4	83.4	4	-1E+10	1	-1E+10	1	-1E+10	1	-1E+10	1	-1E+10	1	-1E+10	1
4902663	33	C	06/25/2024	17:06	-127.644	47.469	0	81.90	0	8.6080	0	32.4990	0	25.222	0	81.201	0	245.6	4	85.2	4	-1E+10	1	-1E+10	1	-1E+10	1	-1E+10	1	-1E+10	1	-1E+10	1
4902663	33	C	06/25/2024	17:06	-127.644	47.469	0	83.00	0	8.5820	0	32.5080	0	25.233	0	82.291	0	244.2	4	84.7	4	-1E+10	1	-1E+10	1	-1E+10	1	-1E+10	1	-1E+10	1	-1E+10	1
4902663	33	C	06/25/2024	17:06	-127.644	47.469	0	84.10	0	8.5590	0	32.5210	0	25.246	0	83.381	0	242.6	4	84.1	4	-1E+10	1	-1E+10	1	-1E+10	1	-1E+10	1	-1E+10	1	-1E+10	1
4902663	33	C	06/25/2024	17:06	-127.644	47.469	0	84.80	0	8.5490	0	32.5270	0	25.253	0	84.075	0	241.5	4	83.7	4	-1E+10	1	-1E+10	1	-1E+10	1	-1E+10	1	-1E+10	1	-1E+10	1
4902663	33	C	06/25/2024	17:06	-127.644	47.469	0	85.90	0	8.5380	0	32.5300	0	25.257	0	85.166	0	239.6	4	83.0	4	-1E+10	1	-1E+10	1	-1E+10	1	-1E+10	1	-1E+10	1	-1E+10	1
4902663	33	C	06/25/2024	17:06	-127.644	47.469	0	87.10	0	8.5010	0	32.5400	0	25.270	0	86.355	0	237.5	4	82.2	4	-1E+10	1	-1E+10	1	-1E+10	1	-1E+10	1	-1E+10	1	-1E+10	1
4902663	33	C	06/25/2024	17:06	-127.644	47.469	0	87.90	0	8.4430	0	32.5480	0	25.285	0	87.148	0	236.2	4	81.7	4	-1E+10	1	-1E+10	1	-1E+10	1	-1E+10	1	-1E+10	1	-1E+10	1
4902663	33	C	06/25/2024	17:06	-127.644	47.469	0	89.00	0	8.4010	0	32.5630	0	25.303	0	88.238	0	234.2	4	80.9	4	-1E+10	1	-1E+10	1	-1E+10	1	-1E+10	1	-1E+10	1	-1E+10	1
4902663	33	C	06/25/2024	17:06	-127.644	47.469	0	90.20	0	8.3820	0	32.5680	0	25.310	0	89.428	0	231.9	4	80.1	4	-1E+10	1	-1E+10	1	-1E+10	1	-1E+10	1	-1E+10	1	-1E+10	1
4902663	33	C	06/25/2024	17:06	-127.644	47.469	0	91.00	0	8.3660	0	32.5720	0	25.315	0	90.221	0	230.1	4	79.5	4	-1E+10	1	-1E+10	1	-1E+10	1	-1E+10	1	-1E+10	1	-1E+10	1
4902663	33	C	06/25/2024	17:06	-127.644	47.469	0	91.70	0	8.3230	0	32.5850	0	25.332	0	90.915	0	228.5	4	78.8	4	-1E+10	1	-1E+10	1	-1E+10	1	-1E+10	1	-1E+10	1	-1E+10	1
4902663	33	C	06/25/2024	17:06	-127.644	47.469	0	92.90	0	8.2480	0	32.6120	0	25.364	0	92.104	0	225.4	4	77.6	4	-1E+10	1	-1E+10	1	-1E+10	1	-1E+10	1	-1E+10	1	-1E+10	1
4902663	33	C	06/25/2024	17:06	-127.644	47.469	0	94.10	0	8.1820	0	32.6340	0	25.391	0	93.294	0	221.8	4	76.3	4	-1E+10	1	-1E+10	1	-1E+10	1	-1E+10	1	-1E+10	1	-1E+10	1
4902663	33	C	06/25/2024	17:06	-127.644	47.469	0	95.00	0	8.1200	0	32.6660	0	25.425	0	94.186	0	219.7	4	75.5	4	-1E+10	1	-1E+10	1	-1E+10	1	-1E+10	1	-1E+10	1	-1E+10	1
4902663	33	C	06/25/2024	17:06	-127.644	47.469	0	95.80	0	8.0580	0	32.7030	0	25.463	0	94.979	0	218.0	4	74.8	4	-1E+10	1	-1E+10	1	-1E+10	1	-1E+10	1	-1E+10	1	-1E+10	1
4902663	33	C	06/25/2024	17:06	-127.644	47.469	0	96.70	0	7.9620	0	32.7290	0	25.498	0	95.871	0	216.8	4	74.3	4	-1E+10	1	-1E+10	1	-1E+10	1	-1E+10	1	-1E+10	1	-1E+10	1
4902663	33	C	06/25/2024	17:06	-127.644	47.469	0	97.90	0	7.9150	0	32.7480	0	25.519	0	97.060	0	214.6	4	73.5	4	-1E+10	1	-1E+10	1	-1E+10	1	-1E+10	1	-1E+10	1	-1E+10	1
4902663	33	C	06/25/2024	17:06	-127.644	47.469	0	99.30	0	7.8820	0	32.7730	0	25.544	0	98.448	0	212.7	4	72.7	4	-1E+10	1	-1E+10	1	-1E+10	1	-1E+10	1	-1E+10	1	-1E+10	1
4902663	33	C	06/25/2024	17:06	-127.644	47.469	0	100.20	0	7.8810	0	32.7790	0	25.549	0	99.340	0	211.0	4	72.2	4	-1E+10	1	-1E+10	1	-1E+10	1	-1E+10	1	-1E+10	1	-1E+10	1
4902663	33	C	06/25/2024	17:06	-127.644	47.469	0	101.00	0	7.8790	0	32.7950	0	25.562	0	100.133	0	209.6	4	71.7	4	-1E+10	1	-1E+10	1	-1E+10	1	-1E+10	1	-1E+10	1	-1E+10	1
4902663	33	C	06/25/2024	17:06	-127.644	47.469	0	101.90	0	7.8830	0	32.8130	0	25.575	0	101.025	0	208.3	4	71.3	4	-1E+10	1	-1E+10	1	-1E+10	1	-1E+10	1	-1E+10	1	-1E+10	1
4902663	33	C	06/25/2024	17:06	-127.644	47.469	0	102.80	0	7.8860	0	32.8280	0	25.587	0	101.917	0	207.0	4	70.8	4	-1E+10	1	-1E+10	1	-1E+10	1	-1E+10	1	-1E+10	1	-1E+10	1
4902663	33	C	06/25/2024	17:06	-127.644	47.469	0	103.60	0	7.8920	0	32.8380	0	25.594	0	102.710	0	205.6	4	70.4	4	-1E+10	1	-1E+10	1	-1E+10	1	-1E+10	1	-1E+10	1	-1E+10	1
4902663	33	C	06/25/2024	17:06	-127.644	47.469	0	104.90	0	7.8990	0	32.8800	0	25.626	0	103.998	0	203.6	4	69.7	4	-1E+10	1	-1E+10	1	-1E+10	1	-1E+10	1	-1E+10	1	-1E+10	1
4902663	33	C	06/25/2024	17:06	-127.644	47.469	0	106.30	0	7.8240	0	32.9360	0	25.680	0	105.386	0	202.1	4	69.1	4	-1E+10	1	-1E+10	1	-1E+10	1	-1E+10	1	-1E+10	1	-1E+10	1
4902663	33	C	06/25/2024	17:06	-127.644	47.469	0	107.20	0	7.8190	0	32.9540	0	25.695	0	106.278	0	200.9	4	68.7	4	-1E+10	1	-1E+10	1	-1E+10	1	-1E+10	1	-1E+10	1	-1E+10	1
4902663	33	C	06/25/2024	17:06	-127.644	47.469	0	108.10	0	7.7950	0	32.9690	0	25.710	0	107.170	0	199.7	4	68.3	4	-1E+10	1	-1E+10	1	-1E+10	1	-1E+10	1	-1E+10	1	-1E+10	1
4902663	33	C	06/25/2024	17:06	-127.644	47.469	0	109.00	0	7.7820	0	32.9790	0	25.720	0	108.062	0	198.4	4	67.8	4	-1E+10	1	-1E+10	1	-1E+10	1	-1E+10	1	-1E+10	1	-1E+10	1
4902663	33	C	06/25/2024	17:06	-127.644	47.469	0	109.90	0	7.7670	0	33.0050	0	25.743	0	108.954	0	196.8	4	67.3	4	-1E+10	1	-1E+10	1	-1E+10	1	-1E+10	1	-1E+10	1	-1E+10	1
4902663	33	C	06/25/2024	17:06	-127.644	47.469	0	110.80	0	7.7500	0	33.0190	0	25.756	0	109.846	0	195.3	4	66.7	4	-1E+10	1	-1E+10	1	-1E+10	1	-1E+10	1	-1E+10	1	-1E+10	1
4902663	33	C	06/25/2024	17:06	-127.644	47.469	0	111.80	0	7.6770	0	33.0690	0	25.806	0	110.837	0	194.2	4	66.3	4	-1E+10	1	-1E+10	1	-1E+10	1	-1E+10	1	-1E+10	1	-1E+10	1
4902663	33	C	06/25/2024	17:06	-127.644	47.469	0	112.80	0	7.6420	0	33.0970	0	25.833	0	111.828	0	193.5	4	66.0	4	-1E+10	1	-1E+10	1	-1E+10	1	-1E+10	1	-1E+10	1	-1E+10	1
4902663	33	C	06/25/2024	17:06	-127.644	47.469	0	113.80	0	7.6230	0	33.1180	0	25.852	0	112.819	0	192.8	4	65.7	4	-1E+10	1	-1E+10	1	-1E+10	1	-1E+10	1	-1E+10	1	-1E+10	1
4902663	33	C	06/25/2024	17:06	-127.644	47.469	0	114.80	0	7.6230	0	33.1320	0	25.863	0	113.811	0	192.0	4	65.4	4	-1E+10	1	-1E+10	1	-1E+10	1	-1E+10	1	-1E+10	1	-1E+10	1
4902663	33	C	06/25/2024	17:06	-127.644	47.469	0	115.80	0	7.6040	0	33.1600	0	25.888	0	114.802	0	191.1	4	65.1	4	-1E+10	1	-1E+10	1	-1E+10	1	-1E+10	1	-1E+10	1	-1E+10	1
4902663	33	C	06/25/2024	17:06	-127.644	47.469	0	116.80	0	7.6000	0	33.1690	0	25.895	0	115.793	0	190.2	4	64.8	4	-1E+10	1	-1E+10	1	-1E+10	1	-1E+10	1	-1E+10	1	-1E+10	1
4902663	33	C	06/25/2024	17:06	-127.644	47.469	0	117.80	0	7.5930	0	33.1890	0	25.912	0	116.784	0	189.3	4	64.5	4	-1E+10	1	-1E+10	1	-1E+10	1	-1E+10	1	-1E+10	1	-1E+10	1
4902663	33	C	06/25/2024	17:06	-127.644	47.469	0	118.80	0	7.5740	0	33.2050	0	25.927	0	117.775	0	188.4	4	64.2	4	-1E+10	1	-1E+10	1	-1E+10	1	-1E+10	1	-1E+10	1	-1E+10	1
4902663	33	C	06/25/2024	17:06	-127.644	47.469	0	119.90	0	7.5630	0	33.2170	0	25.938	0	118.865	0	187.6	4	63.9	4	-1E+10	1	-1E+10	1	-1E+10	1	-1E+10	1	-1E+10	1	-1E+10	1
4902663	33	C	06/25/2024	17:06	-127.644	47.469	0	120.80	0	7.5620	0	33.2260	0	25.946	0	119.757	0	186.7	4	63.6	4	-1E+10	1	-1E+10	1	-1E+10	1	-1E+10	1	-1E+10	1	-1E+10	1
4902663	33	C	06/25/2024	17:06	-127.644	47.469	0	121.80	0	7.5520	0	33.2410	0	25.959	0	120.748	0	185.7	4	63.2	4	-1E+10	1	-1E+10	1	-1E+10	1	-1E+10	1	-1E+10	1	-1E+10	1
4902663	33	C	06/25/2024	17:06	-127.644	47.469	0	122.90	0	7.5550	0	33.2510	0	25.966	0	121.838	0	184.7	4	62.9	4	-1E+10	1	-1E+10	1	-1E+10	1	-1E+10	1	-1E+10	1	-1E+10	1
4902663	33	C	06/25/2024	17:06	-127.644	47.469	0	124.00	0	7.5550	0	33.2600	0	25.973	0	122.929	0	183.6	4	62.6	4	-1E+10	1	-1E+10	1	-1E+10	1	-1E+10	1	-1E+10	1	-1E+10	1
4902663	33	C	06/25/2024	17:06	-127.644	47.469	0	125.10	0	7.5420	0	33.2700	0	25.983	0	124.019	0	182.3	4	62.1	4	-1E+10	1	-1E+10	1	-1E+10	1	-1E+10	1	-1E+10	1	-1E+10	1
4902663	33	C	06/25/2024	17:06	-127.644	47.469	0	125.80	0	7.5270	0	33.2770	0	25.991	0	124.712	0	181.4	4	61.8	4	-1E+10	1	-1E+10	1	-1E+10	1	-1E+10	1	-1E+10	1	-1E+10	1
4902663	33	C	06/25/2024	17:06	-127.644	47.469	0	127.00	0	7.5010	0	33.3040	0	26.016	0	125.902	0	180.1	4	61.3	4	-1E+10	1	-1E+10	1	-1E+10	1	-1E+10	1	-1E+10	1	-1E+10	1
4902663	33	C	06/25/2024	17:06	-127.644	47.469	0	128.10	0	7.4680	0	33.3380	0	26.047	0	126.992	0	179.1	4	60.9	4	-1E+10	1	-1E+10	1	-1E+10	1	-1E+10	1	-1E+10	1	-1E+10	1
4902663	33	C	06/25/2024	17:06	-127.644	47.469	0	128.90	0	7.4620	0	33.3450	0	26.053	0	127.785	0	178.4	4	60.7	4	-1E+10	1	-1E+10	1	-1E+10	1	-1E+10	1	-1E+10	1	-1E+10	1
4902663	33	C	06/25/2024	17:06	-127.644	47.469	0	130.00	0	7.3690	0	33.3650	0	26.082	0	128.875	0	177.4	4	60.2	4	-1E+10	1	-1E+10	1	-1E+10	1	-1E+10	1	-1E+10	1	-1E+10	1
4902663	33	C	06/25/2024	17:06	-127.644	47.469	0	131.20	0	7.3320	0	33.3820	0	26.101	0	130.064	0	176.4	4	59.9	4	-1E+10	1	-1E+10	1	-1E+10	1	-1E+10	1	-1E+10	1	-1E+10	1
4902663	33	C	06/25/2024	17:06	-127.644	47.469	0	132.00	0	7.3160	0	33.3910	0	26.110	0	130.857	0	175.8	4	59.6	4	-1E+10	1	-1E+10	1	-1E+10	1	-1E+10	1	-1E+10	1	-1E+10	1
4902663	33	C	06/25/2024	17:06	-127.644	47.469	0	132.80	0	7.3060	0	33.3990	0	26.118	0	131.650	0	175.1	4	59.4	4	-1E+10	1	-1E+10	1	-1E+10	1	-1E+10	1	-1E+10	1	-1E+10	1
4902663	33	C	06/25/2024	17:06	-127.644	47.469	0	133.70	0	7.2950	0	33.4090	0	26.127	0	132.542	0	174.4	4	59.1	4	-1E+10	1	-1E+10	1	-1E+10	1	-1E+10	1	-1E+10	1	-1E+10	1
4902663	33	C	06/25/2024	17:06	-127.644	47.469	0	134.90	0	7.2640	0	33.4260	0	26.145	0	133.731	0	173.4	4	58.8	4	-1E+10	1	-1E+10	1	-1E+10	1	-1E+10	1	-1E+10	1	-1E+10	1
4902663	33	C	06/25/2024	17:06	-127.644	47.469	0	136.20	0	7.2150	0	33.4640	0	26.181	0	135.019	0	172.9	4	58.5	4	-1E+10	1	-1E+10	1	-1E+10	1	-1E+10	1	-1E+10	1	-1E+10	1
4902663	33	C	06/25/2024	17:06	-127.644	47.469	0	137.00	0	7.2100	0	33.4670	0	26.184	0	135.812	0	172.6	4	58.4	4	-1E+10	1	-1E+10	1	-1E+10	1	-1E+10	1	-1E+10	1	-1E+10	1
4902663	33	C	06/25/2024	17:06	-127.644	47.469	0	137.90	0	7.1930	0	33.4830	0	26.199	0	136.704	0	172.3	4	58.3	4	-1E+10	1	-1E+10	1	-1E+10	1	-1E+10	1	-1E+10	1	-1E+10	1
4902663	33	C	06/25/2024	17:06	-127.644	47.469	0	138.80	0	7.1680	0	33.5100	0	26.224	0	137.596	0	172.1	4	58.2	4	-1E+10	1	-1E+10	1	-1E+10	1	-1E+10	1	-1E+10	1	-1E+10	1
4902663	33	C	06/25/2024	17:06	-127.644	47.469	0	139.60	0	7.1650	0	33.5120	0	26.226	0	138.389	0	172.0	4	58.2	4	-1E+10	1	-1E+10	1	-1E+10	1	-1E+10	1	-1E+10	1	-1E+10	1
4902663	33	C	06/25/2024	17:06	-127.644	47.469	0	140.90	0	7.1470	0	33.5180	0	26.233	0	139.677	0	171.7	4	58.1	4	-1E+10	1	-1E+10	1	-1E+10	1	-1E+10	1	-1E+10	1	-1E+10	1
4902663	33	C	06/25/2024	17:06	-127.644	47.469	0	142.20	0	7.1390	0	33.5240	0	26.239	0	140.965	0	171.5	4	58.0	4	-1E+10	1	-1E+10	1	-1E+10	1	-1E+10	1	-1E+10	1	-1E+10	1
4902663	33	C	06/25/2024	17:06	-127.644	47.469	0	143.10	0	7.1260	0	33.5420	0	26.255	0	141.857	0	171.5	4	58.0	4	-1E+10	1	-1E+10	1	-1E+10	1	-1E+10	1	-1E+10	1	-1E+10	1
4902663	33	C	06/25/2024	17:06	-127.644	47.469	0	144.00	0	7.1340	0	33.5430	0	26.255	0	142.749	0	171.4	4	58.0	4	-1E+10	1	-1E+10	1	-1E+10	1	-1E+10	1	-1E+10	1	-1E+10	1
4902663	33	C	06/25/2024	17:06	-127.644	47.469	0	144.90	0	7.1460	0	33.5590	0	26.266	0	143.641	0	171.1	4	57.9	4	-1E+10	1	-1E+10	1	-1E+10	1	-1E+10	1	-1E+10	1	-1E+10	1
4902663	33	C	06/25/2024	17:06	-127.644	47.469	0	145.80	0	7.1390	0	33.5680	0	26.274	0	144.533	0	170.8	4	57.8	4	-1E+10	1	-1E+10	1	-1E+10	1	-1E+10	1	-1E+10	1	-1E+10	1
4902663	33	C	06/25/2024	17:06	-127.644	47.469	0	146.60	0	7.1740	0	33.5810	0	26.279	0	145.325	0	170.4	4	57.7	4	-1E+10	1	-1E+10	1	-1E+10	1	-1E+10	1	-1E+10	1	-1E+10	1
4902663	33	C	06/25/2024	17:06	-127.644	47.469	0	147.90	0	7.1980	0	33.5930	0	26.285	0	146.614	0	169.9	4	57.6	4	-1E+10	1	-1E+10	1	-1E+10	1	-1E+10	1	-1E+10	1	-1E+10	1
4902663	33	C	06/25/2024	17:06	-127.644	47.469	0	149.30	0	7.2480	0	33.6170	0	26.297	0	148.001	0	169.3	4	57.4	4	-1E+10	1	-1E+10	1	-1E+10	1	-1E+10	1	-1E+10	1	-1E+10	1
4902663	33	C	06/25/2024	17:06	-127.644	47.469	0	150.20	0	7.2480	0	33.6250	0	26.304	0	148.893	0	169.1	4	57.4	4	-1E+10	1	-1E+10	1	-1E+10	1	-1E+10	1	-1E+10	1	-1E+10	1
4902663	33	C	06/25/2024	17:06	-127.644	47.469	0	151.20	0	7.2390	0	33.6270	0	26.307	0	149.884	0	168.9	4	57.3	4	-1E+10	1	-1E+10	1	-1E+10	1	-1E+10	1	-1E+10	1	-1E+10	1
4902663	33	C	06/25/2024	17:06	-127.644	47.469	0	152.10	0	7.2360	0	33.6330	0	26.312	0	150.775	0	168.6	4	57.2	4	-1E+10	1	-1E+10	1	-1E+10	1	-1E+10	1	-1E+10	1	-1E+10	1
4902663	33	C	06/25/2024	17:06	-127.644	47.469	0	153.10	0	7.2310	0	33.6350	0	26.314	0	151.766	0	168.4	4	57.1	4	-1E+10	1	-1E+10	1	-1E+10	1	-1E+10	1	-1E+10	1	-1E+10	1
4902663	33	C	06/25/2024	17:06	-127.644	47.469	0	154.00	0	7.1490	0	33.6330	0	26.324	0	152.658	0	168.1	4	56.9	4	-1E+10	1	-1E+10	1	-1E+10	1	-1E+10	1	-1E+10	1	-1E+10	1
4902663	33	C	06/25/2024	17:06	-127.644	47.469	0	155.00	0	7.1480	0	33.6420	0	26.331	0	153.649	0	167.6	4	56.7	4	-1E+10	1	-1E+10	1	-1E+10	1	-1E+10	1	-1E+10	1	-1E+10	1
4902663	33	C	06/25/2024	17:06	-127.644	47.469	0	156.00	0	7.1460	0	33.6430	0	26.332	0	154.640	0	167.2	4	56.6	4	-1E+10	1	-1E+10	1	-1E+10	1	-1E+10	1	-1E+10	1	-1E+10	1
4902663	33	C	06/25/2024	17:06	-127.644	47.469	0	156.90	0	7.1490	0	33.6430	0	26.332	0	155.532	0	166.6	4	56.4	4	-1E+10	1	-1E+10	1	-1E+10	1	-1E+10	1	-1E+10	1	-1E+10	1
4902663	33	C	06/25/2024	17:06	-127.644	47.469	0	157.90	0	7.1620	0	33.6450	0	26.331	0	156.523	0	166.0	4	56.2	4	-1E+10	1	-1E+10	1	-1E+10	1	-1E+10	1	-1E+10	1	-1E+10	1
4902663	33	C	06/25/2024	17:06	-127.644	47.469	0	158.90	0	7.1740	0	33.6520	0	26.335	0	157.514	0	165.2	4	56.0	4	-1E+10	1	-1E+10	1	-1E+10	1	-1E+10	1	-1E+10	1	-1E+10	1
4902663	33	C	06/25/2024	17:06	-127.644	47.469	0	159.90	0	7.1670	0	33.6580	0	26.341	0	158.505	0	164.2	4	55.6	4	-1E+10	1	-1E+10	1	-1E+10	1	-1E+10	1	-1E+10	1	-1E+10	1
4902663	33	C	06/25/2024	17:06	-127.644	47.469	0	160.80	0	7.1460	0	33.6700	0	26.353	0	159.396	0	163.2	4	55.3	4	-1E+10	1	-1E+10	1	-1E+10	1	-1E+10	1	-1E+10	1	-1E+10	1
4902663	33	C	06/25/2024	17:06	-127.644	47.469	0	161.80	0	7.1320	0	33.6730	0	26.358	0	160.387	0	162.3	4	54.9	4	-1E+10	1	-1E+10	1	-1E+10	1	-1E+10	1	-1E+10	1	-1E+10	1
4902663	33	C	06/25/2024	17:06	-127.644	47.469	0	162.80	0	7.1270	0	33.6750	0	26.360	0	161.378	0	161.3	4	54.6	4	-1E+10	1	-1E+10	1	-1E+10	1	-1E+10	1	-1E+10	1	-1E+10	1
4902663	33	C	06/25/2024	17:06	-127.644	47.469	0	163.80	0	7.1260	0	33.6780	0	26.362	0	162.369	0	160.2	4	54.2	4	-1E+10	1	-1E+10	1	-1E+10	1	-1E+10	1	-1E+10	1	-1E+10	1
4902663	33	C	06/25/2024	17:06	-127.644	47.469	0	164.80	0	7.1440	0	33.6850	0	26.366	0	163.360	0	159.2	4	53.9	4	-1E+10	1	-1E+10	1	-1E+10	1	-1E+10	1	-1E+10	1	-1E+10	1
4902663	33	C	06/25/2024	17:06	-127.644	47.469	0	165.80	0	7.1710	0	33.6980	0	26.372	0	164.351	0	158.3	4	53.7	4	-1E+10	1	-1E+10	1	-1E+10	1	-1E+10	1	-1E+10	1	-1E+10	1
4902663	33	C	06/25/2024	17:06	-127.644	47.469	0	166.80	0	7.1630	0	33.6990	0	26.374	0	165.342	0	157.5	4	53.4	4	-1E+10	1	-1E+10	1	-1E+10	1	-1E+10	1	-1E+10	1	-1E+10	1
4902663	33	C	06/25/2024	17:06	-127.644	47.469	0	167.80	0	7.1490	0	33.6970	0	26.374	0	166.332	0	156.5	4	53.0	4	-1E+10	1	-1E+10	1	-1E+10	1	-1E+10	1	-1E+10	1	-1E+10	1
4902663	33	C	06/25/2024	17:06	-127.644	47.469	0	168.90	0	7.1540	0	33.7070	0	26.382	0	167.422	0	155.5	4	52.7	4	-1E+10	1	-1E+10	1	-1E+10	1	-1E+10	1	-1E+10	1	-1E+10	1
4902663	33	C	06/25/2024	17:06	-127.644	47.469	0	169.90	0	7.1390	0	33.7210	0	26.395	0	168.413	0	154.8	4	52.4	4	-1E+10	1	-1E+10	1	-1E+10	1	-1E+10	1	-1E+10	1	-1E+10	1
4902663	33	C	06/25/2024	17:06	-127.644	47.469	0	170.90	0	7.1310	0	33.7290	0	26.402	0	169.404	0	154.1	4	52.2	4	-1E+10	1	-1E+10	1	-1E+10	1	-1E+10	1	-1E+10	1	-1E+10	1
4902663	33	C	06/25/2024	17:06	-127.644	47.469	0	172.00	0	7.1230	0	33.7340	0	26.407	0	170.494	0	153.4	4	51.9	4	-1E+10	1	-1E+10	1	-1E+10	1	-1E+10	1	-1E+10	1	-1E+10	1
4902663	33	C	06/25/2024	17:06	-127.644	47.469	0	173.00	0	7.1160	0	33.7400	0	26.413	0	171.485	0	152.7	4	51.7	4	-1E+10	1	-1E+10	1	-1E+10	1	-1E+10	1	-1E+10	1	-1E+10	1
4902663	33	C	06/25/2024	17:06	-127.644	47.469	0	174.10	0	7.1120	0	33.7440	0	26.416	0	172.575	0	152.2	4	51.5	4	-1E+10	1	-1E+10	1	-1E+10	1	-1E+10	1	-1E+10	1	-1E+10	1
4902663	33	C	06/25/2024	17:06	-127.644	47.469	0	175.10	0	7.1100	0	33.7480	0	26.420	0	173.566	0	151.6	4	51.3	4	-1E+10	1	-1E+10	1	-1E+10	1	-1E+10	1	-1E+10	1	-1E+10	1
4902663	33	C	06/25/2024	17:06	-127.644	47.469	0	176.10	0	7.1090	0	33.7500	0	26.422	0	174.556	0	151.3	4	51.2	4	-1E+10	1	-1E+10	1	-1E+10	1	-1E+10	1	-1E+10	1	-1E+10	1
4902663	33	C	06/25/2024	17:06	-127.644	47.469	0	177.10	0	7.1100	0	33.7510	0	26.422	0	175.547	0	150.9	4	51.1	4	-1E+10	1	-1E+10	1	-1E+10	1	-1E+10	1	-1E+10	1	-1E+10	1
4902663	33	C	06/25/2024	17:06	-127.644	47.469	0	178.10	0	7.0960	0	33.7560	0	26.428	0	176.538	0	150.5	4	50.9	4	-1E+10	1	-1E+10	1	-1E+10	1	-1E+10	1	-1E+10	1	-1E+10	1
4902663	33	C	06/25/2024	17:06	-127.644	47.469	0	179.10	0	7.0750	0	33.7540	0	26.429	0	177.529	0	150.0	4	50.7	4	-1E+10	1	-1E+10	1	-1E+10	1	-1E+10	1	-1E+10	1	-1E+10	1
4902663	33	C	06/25/2024	17:06	-127.644	47.469	0	180.20	0	7.0380	0	33.7550	0	26.435	0	178.619	0	149.1	4	50.4	4	-1E+10	1	-1E+10	1	-1E+10	1	-1E+10	1	-1E+10	1	-1E+10	1
4902663	33	C	06/25/2024	17:06	-127.644	47.469	0	181.20	0	7.0370	0	33.7580	0	26.438	0	179.609	0	148.2	4	50.1	4	-1E+10	1	-1E+10	1	-1E+10	1	-1E+10	1	-1E+10	1	-1E+10	1
4902663	33	C	06/25/2024	17:06	-127.644	47.469	0	182.20	0	7.0400	0	33.7610	0	26.440	0	180.600	0	147.3	4	49.8	4	-1E+10	1	-1E+10	1	-1E+10	1	-1E+10	1	-1E+10	1	-1E+10	1
4902663	33	C	06/25/2024	17:06	-127.644	47.469	0	183.30	0	7.0360	0	33.7640	0	26.443	0	181.690	0	146.5	4	49.5	4	-1E+10	1	-1E+10	1	-1E+10	1	-1E+10	1	-1E+10	1	-1E+10	1
4902663	33	C	06/25/2024	17:06	-127.644	47.469	0	184.30	0	7.0080	0	33.7710	0	26.452	0	182.681	0	145.6	4	49.2	4	-1E+10	1	-1E+10	1	-1E+10	1	-1E+10	1	-1E+10	1	-1E+10	1
4902663	33	C	06/25/2024	17:06	-127.644	47.469	0	185.40	0	7.0050	0	33.7730	0	26.454	0	183.771	0	144.8	4	48.9	4	-1E+10	1	-1E+10	1	-1E+10	1	-1E+10	1	-1E+10	1	-1E+10	1
4902663	33	C	06/25/2024	17:06	-127.644	47.469	0	186.40	0	6.9940	0	33.7780	0	26.460	0	184.761	0	144.0	4	48.6	4	-1E+10	1	-1E+10	1	-1E+10	1	-1E+10	1	-1E+10	1	-1E+10	1
4902663	33	C	06/25/2024	17:06	-127.644	47.469	0	187.50	0	6.9960	0	33.7820	0	26.462	0	185.851	0	143.3	4	48.4	4	-1E+10	1	-1E+10	1	-1E+10	1	-1E+10	1	-1E+10	1	-1E+10	1
4902663	33	C	06/25/2024	17:06	-127.644	47.469	0	188.50	0	6.9540	0	33.7910	0	26.475	0	186.842	0	142.6	4	48.1	4	-1E+10	1	-1E+10	1	-1E+10	1	-1E+10	1	-1E+10	1	-1E+10	1
4902663	33	C	06/25/2024	17:06	-127.644	47.469	0	189.60	0	6.9340	0	33.7850	0	26.473	0	187.932	0	141.9	4	47.9	4	-1E+10	1	-1E+10	1	-1E+10	1	-1E+10	1	-1E+10	1	-1E+10	1
4902663	33	C	06/25/2024	17:06	-127.644	47.469	0	190.60	0	6.9260	0	33.7860	0	26.475	0	188.923	0	141.2	4	47.6	4	-1E+10	1	-1E+10	1	-1E+10	1	-1E+10	1	-1E+10	1	-1E+10	1
4902663	33	C	06/25/2024	17:06	-127.644	47.469	0	191.60	0	6.9260	0	33.7890	0	26.477	0	189.913	0	140.6	4	47.4	4	-1E+10	1	-1E+10	1	-1E+10	1	-1E+10	1	-1E+10	1	-1E+10	1
4902663	33	C	06/25/2024	17:06	-127.644	47.469	0	192.60	0	6.9160	0	33.7900	0	26.480	0	190.904	0	140.1	4	47.2	4	-1E+10	1	-1E+10	1	-1E+10	1	-1E+10	1	-1E+10	1	-1E+10	1
4902663	33	C	06/25/2024	17:06	-127.644	47.469	0	193.70	0	6.9170	0	33.7950	0	26.483	0	191.994	0	139.9	4	47.2	4	-1E+10	1	-1E+10	1	-1E+10	1	-1E+10	1	-1E+10	1	-1E+10	1
4902663	33	C	06/25/2024	17:06	-127.644	47.469	0	194.70	0	6.8910	0	33.8000	0	26.491	0	192.985	0	139.9	4	47.1	4	-1E+10	1	-1E+10	1	-1E+10	1	-1E+10	1	-1E+10	1	-1E+10	1
4902663	33	C	06/25/2024	17:06	-127.644	47.469	0	195.80	0	6.8830	0	33.7990	0	26.491	0	194.074	0	140.0	4	47.2	4	-1E+10	1	-1E+10	1	-1E+10	1	-1E+10	1	-1E+10	1	-1E+10	1
4902663	33	C	06/25/2024	17:06	-127.644	47.469	0	196.80	0	6.8840	0	33.7980	0	26.490	0	195.065	0	140.0	4	47.2	4	-1E+10	1	-1E+10	1	-1E+10	1	-1E+10	1	-1E+10	1	-1E+10	1
4902663	33	C	06/25/2024	17:06	-127.644	47.469	0	197.80	0	6.8830	0	33.8020	0	26.494	0	196.056	0	139.9	4	47.1	4	-1E+10	1	-1E+10	1	-1E+10	1	-1E+10	1	-1E+10	1	-1E+10	1
4902663	33	C	06/25/2024	17:06	-127.644	47.469	0	198.90	0	6.8700	0	33.8020	0	26.495	0	197.146	0	139.9	4	47.1	4	-1E+10	1	-1E+10	1	-1E+10	1	-1E+10	1	-1E+10	1	-1E+10	1
4902663	33	C	06/25/2024	17:06	-127.644	47.469	0	199.90	0	6.8560	0	33.8020	0	26.497	0	198.136	0	139.9	4	47.1	4	-1E+10	1	-1E+10	1	-1E+10	1	-1E+10	1	-1E+10	1	-1E+10	1
4902663	33	C	06/25/2024	17:06	-127.644	47.469	0	201.00	0	6.8530	0	33.8020	0	26.498	0	199.226	0	139.9	4	47.1	4	-1E+10	1	-1E+10	1	-1E+10	1	-1E+10	1	-1E+10	1	-1E+10	1
4902663	33	C	06/25/2024	17:06	-127.644	47.469	0	202.00	0	6.8540	0	33.8020	0	26.498	0	200.217	0	139.9	4	47.1	4	-1E+10	1	-1E+10	1	-1E+10	1	-1E+10	1	-1E+10	1	-1E+10	1
4902663	33	C	06/25/2024	17:06	-127.644	47.469	0	203.00	0	6.8440	0	33.8030	0	26.500	0	201.207	0	139.7	4	47.0	4	-1E+10	1	-1E+10	1	-1E+10	1	-1E+10	1	-1E+10	1	-1E+10	1
4902663	33	C	06/25/2024	17:06	-127.644	47.469	0	204.10	0	6.8160	0	33.8060	0	26.506	0	202.297	0	139.4	4	46.9	4	-1E+10	1	-1E+10	1	-1E+10	1	-1E+10	1	-1E+10	1	-1E+10	1
4902663	33	C	06/25/2024	17:06	-127.644	47.469	0	205.10	0	6.8160	0	33.8060	0	26.506	0	203.288	0	139.1	4	46.8	4	-1E+10	1	-1E+10	1	-1E+10	1	-1E+10	1	-1E+10	1	-1E+10	1
4902663	33	C	06/25/2024	17:06	-127.644	47.469	0	206.10	0	6.8040	0	33.8070	0	26.508	0	204.279	0	138.7	4	46.6	4	-1E+10	1	-1E+10	1	-1E+10	1	-1E+10	1	-1E+10	1	-1E+10	1
4902663	33	C	06/25/2024	17:06	-127.644	47.469	0	207.10	0	6.8010	0	33.8080	0	26.509	0	205.269	0	138.1	4	46.5	4	-1E+10	1	-1E+10	1	-1E+10	1	-1E+10	1	-1E+10	1	-1E+10	1
4902663	33	C	06/25/2024	17:06	-127.644	47.469	0	208.20	0	6.7900	0	33.8090	0	26.512	0	206.359	0	137.5	4	46.2	4	-1E+10	1	-1E+10	1	-1E+10	1	-1E+10	1	-1E+10	1	-1E+10	1
4902663	33	C	06/25/2024	17:06	-127.644	47.469	0	209.20	0	6.7810	0	33.8090	0	26.513	0	207.350	0	136.8	4	46.0	4	-1E+10	1	-1E+10	1	-1E+10	1	-1E+10	1	-1E+10	1	-1E+10	1
4902663	33	C	06/25/2024	17:06	-127.644	47.469	0	210.20	0	6.7620	0	33.8110	0	26.517	0	208.340	0	136.0	4	45.7	4	-1E+10	1	-1E+10	1	-1E+10	1	-1E+10	1	-1E+10	1	-1E+10	1
4902663	33	C	06/25/2024	17:06	-127.644	47.469	0	211.20	0	6.7520	0	33.8100	0	26.518	0	209.331	0	135.3	4	45.5	4	-1E+10	1	-1E+10	1	-1E+10	1	-1E+10	1	-1E+10	1	-1E+10	1
4902663	33	C	06/25/2024	17:06	-127.644	47.469	0	212.20	0	6.7430	0	33.8100	0	26.519	0	210.322	0	134.8	4	45.3	4	-1E+10	1	-1E+10	1	-1E+10	1	-1E+10	1	-1E+10	1	-1E+10	1
4902663	33	C	06/25/2024	17:06	-127.644	47.469	0	213.20	0	6.7390	0	33.8110	0	26.520	0	211.312	0	134.2	4	45.1	4	-1E+10	1	-1E+10	1	-1E+10	1	-1E+10	1	-1E+10	1	-1E+10	1
4902663	33	C	06/25/2024	17:06	-127.644	47.469	0	214.20	0	6.7250	0	33.8120	0	26.523	0	212.303	0	133.6	4	44.9	4	-1E+10	1	-1E+10	1	-1E+10	1	-1E+10	1	-1E+10	1	-1E+10	1
4902663	33	C	06/25/2024	17:06	-127.644	47.469	0	215.20	0	6.6990	0	33.8140	0	26.528	0	213.293	0	133.1	4	44.7	4	-1E+10	1	-1E+10	1	-1E+10	1	-1E+10	1	-1E+10	1	-1E+10	1
4902663	33	C	06/25/2024	17:06	-127.644	47.469	0	216.10	0	6.6900	0	33.8140	0	26.529	0	214.185	0	132.3	4	44.4	4	-1E+10	1	-1E+10	1	-1E+10	1	-1E+10	1	-1E+10	1	-1E+10	1
4902663	33	C	06/25/2024	17:06	-127.644	47.469	0	217.10	0	6.6630	0	33.8170	0	26.535	0	215.176	0	131.5	4	44.1	4	-1E+10	1	-1E+10	1	-1E+10	1	-1E+10	1	-1E+10	1	-1E+10	1
4902663	33	C	06/25/2024	17:06	-127.644	47.469	0	218.10	0	6.6570	0	33.8180	0	26.537	0	216.166	0	130.6	4	43.8	4	-1E+10	1	-1E+10	1	-1E+10	1	-1E+10	1	-1E+10	1	-1E+10	1
4902663	33	C	06/25/2024	17:06	-127.644	47.469	0	219.10	0	6.6520	0	33.8180	0	26.537	0	217.157	0	129.5	4	43.4	4	-1E+10	1	-1E+10	1	-1E+10	1	-1E+10	1	-1E+10	1	-1E+10	1
4902663	33	C	06/25/2024	17:06	-127.644	47.469	0	220.10	0	6.6380	0	33.8210	0	26.542	0	218.147	0	128.3	4	43.0	4	-1E+10	1	-1E+10	1	-1E+10	1	-1E+10	1	-1E+10	1	-1E+10	1
4902663	33	C	06/25/2024	17:06	-127.644	47.469	0	221.10	0	6.6310	0	33.8220	0	26.543	0	219.138	0	127.2	4	42.6	4	-1E+10	1	-1E+10	1	-1E+10	1	-1E+10	1	-1E+10	1	-1E+10	1
4902663	33	C	06/25/2024	17:06	-127.644	47.469	0	222.10	0	6.6270	0	33.8250	0	26.546	0	220.129	0	126.4	4	42.3	4	-1E+10	1	-1E+10	1	-1E+10	1	-1E+10	1	-1E+10	1	-1E+10	1
4902663	33	C	06/25/2024	17:06	-127.644	47.469	0	223.20	0	6.6180	0	33.8250	0	26.547	0	221.218	0	125.8	4	42.1	4	-1E+10	1	-1E+10	1	-1E+10	1	-1E+10	1	-1E+10	1	-1E+10	1
4902663	33	C	06/25/2024	17:06	-127.644	47.469	0	224.20	0	6.6130	0	33.8260	0	26.549	0	222.209	0	125.4	4	42.0	4	-1E+10	1	-1E+10	1	-1E+10	1	-1E+10	1	-1E+10	1	-1E+10	1
4902663	33	C	06/25/2024	17:06	-127.644	47.469	0	225.30	0	6.6090	0	33.8260	0	26.549	0	223.298	0	124.9	4	41.8	4	-1E+10	1	-1E+10	1	-1E+10	1	-1E+10	1	-1E+10	1	-1E+10	1
4902663	33	C	06/25/2024	17:06	-127.644	47.469	0	226.30	0	6.6060	0	33.8260	0	26.550	0	224.289	0	124.4	4	41.6	4	-1E+10	1	-1E+10	1	-1E+10	1	-1E+10	1	-1E+10	1	-1E+10	1
4902663	33	C	06/25/2024	17:06	-127.644	47.469	0	227.30	0	6.5970	0	33.8270	0	26.552	0	225.280	0	124.0	4	41.5	4	-1E+10	1	-1E+10	1	-1E+10	1	-1E+10	1	-1E+10	1	-1E+10	1
4902663	33	C	06/25/2024	17:06	-127.644	47.469	0	228.40	0	6.5780	0	33.8280	0	26.555	0	226.369	0	123.7	4	41.4	4	-1E+10	1	-1E+10	1	-1E+10	1	-1E+10	1	-1E+10	1	-1E+10	1
4902663	33	C	06/25/2024	17:06	-127.644	47.469	0	229.40	0	6.5550	0	33.8320	0	26.561	0	227.360	0	123.3	4	41.2	4	-1E+10	1	-1E+10	1	-1E+10	1	-1E+10	1	-1E+10	1	-1E+10	1
4902663	33	C	06/25/2024	17:06	-127.644	47.469	0	230.40	0	6.5500	0	33.8300	0	26.560	0	228.350	0	122.9	4	41.1	4	-1E+10	1	-1E+10	1	-1E+10	1	-1E+10	1	-1E+10	1	-1E+10	1
4902663	33	C	06/25/2024	17:06	-127.644	47.469	0	231.40	0	6.5470	0	33.8290	0	26.560	0	229.341	0	122.5	4	40.9	4	-1E+10	1	-1E+10	1	-1E+10	1	-1E+10	1	-1E+10	1	-1E+10	1
4902663	33	C	06/25/2024	17:06	-127.644	47.469	0	232.40	0	6.5230	0	33.8320	0	26.565	0	230.331	0	122.0	4	40.8	4	-1E+10	1	-1E+10	1	-1E+10	1	-1E+10	1	-1E+10	1	-1E+10	1
4902663	33	C	06/25/2024	17:06	-127.644	47.469	0	233.50	0	6.5080	0	33.8320	0	26.567	0	231.421	0	121.5	4	40.6	4	-1E+10	1	-1E+10	1	-1E+10	1	-1E+10	1	-1E+10	1	-1E+10	1
4902663	33	C	06/25/2024	17:06	-127.644	47.469	0	234.50	0	6.4980	0	33.8330	0	26.570	0	232.412	0	121.0	4	40.4	4	-1E+10	1	-1E+10	1	-1E+10	1	-1E+10	1	-1E+10	1	-1E+10	1
4902663	33	C	06/25/2024	17:06	-127.644	47.469	0	235.50	0	6.4840	0	33.8340	0	26.572	0	233.402	0	120.5	4	40.2	4	-1E+10	1	-1E+10	1	-1E+10	1	-1E+10	1	-1E+10	1	-1E+10	1
4902663	33	C	06/25/2024	17:06	-127.644	47.469	0	236.60	0	6.4710	0	33.8350	0	26.575	0	234.492	0	120.0	4	40.1	4	-1E+10	1	-1E+10	1	-1E+10	1	-1E+10	1	-1E+10	1	-1E+10	1
4902663	33	C	06/25/2024	17:06	-127.644	47.469	0	237.60	0	6.4640	0	33.8360	0	26.576	0	235.482	0	119.4	4	39.9	4	-1E+10	1	-1E+10	1	-1E+10	1	-1E+10	1	-1E+10	1	-1E+10	1
4902663	33	C	06/25/2024	17:06	-127.644	47.469	0	238.70	0	6.4580	0	33.8350	0	26.576	0	236.572	0	118.8	4	39.7	4	-1E+10	1	-1E+10	1	-1E+10	1	-1E+10	1	-1E+10	1	-1E+10	1
4902663	33	C	06/25/2024	17:06	-127.644	47.469	0	239.70	0	6.4300	0	33.8380	0	26.582	0	237.562	0	118.4	4	39.5	4	-1E+10	1	-1E+10	1	-1E+10	1	-1E+10	1	-1E+10	1	-1E+10	1
4902663	33	C	06/25/2024	17:06	-127.644	47.469	0	240.80	0	6.4090	0	33.8390	0	26.586	0	238.652	0	118.0	4	39.3	4	-1E+10	1	-1E+10	1	-1E+10	1	-1E+10	1	-1E+10	1	-1E+10	1
4902663	33	C	06/25/2024	17:06	-127.644	47.469	0	241.90	0	6.3860	0	33.8410	0	26.591	0	239.741	0	117.7	4	39.2	4	-1E+10	1	-1E+10	1	-1E+10	1	-1E+10	1	-1E+10	1	-1E+10	1
4902663	33	C	06/25/2024	17:06	-127.644	47.469	0	242.90	0	6.3750	0	33.8400	0	26.591	0	240.732	0	117.5	4	39.1	4	-1E+10	1	-1E+10	1	-1E+10	1	-1E+10	1	-1E+10	1	-1E+10	1
4902663	33	C	06/25/2024	17:06	-127.644	47.469	0	244.00	0	6.3650	0	33.8410	0	26.593	0	241.821	0	117.2	4	39.0	4	-1E+10	1	-1E+10	1	-1E+10	1	-1E+10	1	-1E+10	1	-1E+10	1
4902663	33	C	06/25/2024	17:06	-127.644	47.469	0	245.00	0	6.3460	0	33.8420	0	26.596	0	242.812	0	116.9	4	38.9	4	-1E+10	1	-1E+10	1	-1E+10	1	-1E+10	1	-1E+10	1	-1E+10	1
4902663	33	C	06/25/2024	17:06	-127.644	47.469	0	246.10	0	6.3280	0	33.8430	0	26.600	0	243.901	0	116.7	4	38.8	4	-1E+10	1	-1E+10	1	-1E+10	1	-1E+10	1	-1E+10	1	-1E+10	1
4902663	33	C	06/25/2024	17:06	-127.644	47.469	0	247.20	0	6.3200	0	33.8430	0	26.601	0	244.991	0	116.6	4	38.8	4	-1E+10	1	-1E+10	1	-1E+10	1	-1E+10	1	-1E+10	1	-1E+10	1
4902663	33	C	06/25/2024	17:06	-127.644	47.469	0	248.40	0	6.2870	0	33.8410	0	26.603	0	246.180	0	116.3	4	38.7	4	-1E+10	1	-1E+10	1	-1E+10	1	-1E+10	1	-1E+10	1	-1E+10	1
4902663	33	C	06/25/2024	17:06	-127.644	47.469	0	249.40	0	6.2630	0	33.8390	0	26.605	0	247.170	0	115.7	4	38.4	4	-1E+10	1	-1E+10	1	-1E+10	1	-1E+10	1	-1E+10	1	-1E+10	1
4902663	33	C	06/25/2024	17:06	-127.644	47.469	0	250.50	0	6.2550	0	33.8410	0	26.607	0	248.259	0	115.0	4	38.2	4	-1E+10	1	-1E+10	1	-1E+10	1	-1E+10	1	-1E+10	1	-1E+10	1
4902663	33	C	06/25/2024	17:06	-127.644	47.469	0	251.60	0	6.2430	0	33.8430	0	26.611	0	249.349	0	114.5	4	38.0	4	-1E+10	1	-1E+10	1	-1E+10	1	-1E+10	1	-1E+10	1	-1E+10	1
4902663	33	C	06/25/2024	17:06	-127.644	47.469	0	252.70	0	6.2550	0	33.8480	0	26.613	0	250.438	0	114.2	4	37.9	4	-1E+10	1	-1E+10	1	-1E+10	1	-1E+10	1	-1E+10	1	-1E+10	1
4902663	33	C	06/25/2024	17:06	-127.644	47.469	0	253.80	0	6.2460	0	33.8460	0	26.613	0	251.528	0	114.0	4	37.9	4	-1E+10	1	-1E+10	1	-1E+10	1	-1E+10	1	-1E+10	1	-1E+10	1
4902663	33	C	06/25/2024	17:06	-127.644	47.469	0	254.90	0	6.2050	0	33.8500	0	26.621	0	252.617	0	113.6	4	37.7	4	-1E+10	1	-1E+10	1	-1E+10	1	-1E+10	1	-1E+10	1	-1E+10	1
4902663	33	C	06/25/2024	17:06	-127.644	47.469	0	256.00	0	6.1670	0	33.8420	0	26.619	0	253.707	0	112.8	4	37.4	4	-1E+10	1	-1E+10	1	-1E+10	1	-1E+10	1	-1E+10	1	-1E+10	1
4902663	33	C	06/25/2024	17:06	-127.644	47.469	0	257.10	0	6.1680	0	33.8430	0	26.620	0	254.796	0	111.8	4	37.1	4	-1E+10	1	-1E+10	1	-1E+10	1	-1E+10	1	-1E+10	1	-1E+10	1
4902663	33	C	06/25/2024	17:06	-127.644	47.469	0	258.20	0	6.1670	0	33.8430	0	26.620	0	255.886	0	110.8	4	36.7	4	-1E+10	1	-1E+10	1	-1E+10	1	-1E+10	1	-1E+10	1	-1E+10	1
4902663	33	C	06/25/2024	17:06	-127.644	47.469	0	259.20	0	6.1580	0	33.8450	0	26.623	0	256.876	0	109.7	4	36.4	4	-1E+10	1	-1E+10	1	-1E+10	1	-1E+10	1	-1E+10	1	-1E+10	1
4902663	33	C	06/25/2024	17:06	-127.644	47.469	0	260.40	0	6.1400	0	33.8480	0	26.628	0	258.065	0	108.7	4	36.0	4	-1E+10	1	-1E+10	1	-1E+10	1	-1E+10	1	-1E+10	1	-1E+10	1
4902663	33	C	06/25/2024	17:06	-127.644	47.469	0	261.50	0	6.1250	0	33.8490	0	26.630	0	259.154	0	107.7	4	35.7	4	-1E+10	1	-1E+10	1	-1E+10	1	-1E+10	1	-1E+10	1	-1E+10	1
4902663	33	C	06/25/2024	17:06	-127.644	47.469	0	262.60	0	6.1140	0	33.8490	0	26.632	0	260.244	0	106.6	4	35.3	4	-1E+10	1	-1E+10	1	-1E+10	1	-1E+10	1	-1E+10	1	-1E+10	1
4902663	33	C	06/25/2024	17:06	-127.644	47.469	0	263.60	0	6.1220	0	33.8510	0	26.632	0	261.234	0	105.6	4	35.0	4	-1E+10	1	-1E+10	1	-1E+10	1	-1E+10	1	-1E+10	1	-1E+10	1
4902663	33	C	06/25/2024	17:06	-127.644	47.469	0	264.70	0	6.1140	0	33.8590	0	26.640	0	262.323	0	104.8	4	34.7	4	-1E+10	1	-1E+10	1	-1E+10	1	-1E+10	1	-1E+10	1	-1E+10	1
4902663	33	C	06/25/2024	17:06	-127.644	47.469	0	265.80	0	6.0970	0	33.8600	0	26.643	0	263.413	0	103.9	4	34.4	4	-1E+10	1	-1E+10	1	-1E+10	1	-1E+10	1	-1E+10	1	-1E+10	1
4902663	33	C	06/25/2024	17:06	-127.644	47.469	0	266.90	0	6.0940	0	33.8570	0	26.641	0	264.502	0	103.0	4	34.1	4	-1E+10	1	-1E+10	1	-1E+10	1	-1E+10	1	-1E+10	1	-1E+10	1
4902663	33	C	06/25/2024	17:06	-127.644	47.469	0	268.00	0	6.0920	0	33.8580	0	26.642	0	265.592	0	102.1	4	33.8	4	-1E+10	1	-1E+10	1	-1E+10	1	-1E+10	1	-1E+10	1	-1E+10	1
4902663	33	C	06/25/2024	17:06	-127.644	47.469	0	269.00	0	6.1080	0	33.8640	0	26.644	0	266.582	0	101.3	4	33.5	4	-1E+10	1	-1E+10	1	-1E+10	1	-1E+10	1	-1E+10	1	-1E+10	1
4902663	33	C	06/25/2024	17:06	-127.644	47.469	0	270.10	0	6.0910	0	33.8660	0	26.648	0	267.672	0	100.7	4	33.3	4	-1E+10	1	-1E+10	1	-1E+10	1	-1E+10	1	-1E+10	1	-1E+10	1
4902663	33	C	06/25/2024	17:06	-127.644	47.469	0	271.20	0	6.0800	0	33.8670	0	26.650	0	268.761	0	100.0	4	33.1	4	-1E+10	1	-1E+10	1	-1E+10	1	-1E+10	1	-1E+10	1	-1E+10	1
4902663	33	C	06/25/2024	17:06	-127.644	47.469	0	272.30	0	6.0690	0	33.8680	0	26.653	0	269.850	0	99.2	4	32.8	4	-1E+10	1	-1E+10	1	-1E+10	1	-1E+10	1	-1E+10	1	-1E+10	1
4902663	33	C	06/25/2024	17:06	-127.644	47.469	0	273.40	0	6.0670	0	33.8680	0	26.653	0	270.940	0	98.3	4	32.5	4	-1E+10	1	-1E+10	1	-1E+10	1	-1E+10	1	-1E+10	1	-1E+10	1
4902663	33	C	06/25/2024	17:06	-127.644	47.469	0	274.50	0	6.0410	0	33.8750	0	26.662	0	272.029	0	97.3	4	32.2	4	-1E+10	1	-1E+10	1	-1E+10	1	-1E+10	1	-1E+10	1	-1E+10	1
4902663	33	C	06/25/2024	17:06	-127.644	47.469	0	275.60	0	6.0580	0	33.8800	0	26.663	0	273.118	0	96.7	4	32.0	4	-1E+10	1	-1E+10	1	-1E+10	1	-1E+10	1	-1E+10	1	-1E+10	1
4902663	33	C	06/25/2024	17:06	-127.644	47.469	0	276.60	0	6.0290	0	33.8800	0	26.667	0	274.109	0	96.1	4	31.8	4	-1E+10	1	-1E+10	1	-1E+10	1	-1E+10	1	-1E+10	1	-1E+10	1
4902663	33	C	06/25/2024	17:06	-127.644	47.469	0	277.70	0	6.0000	0	33.8760	0	26.668	0	275.198	0	95.3	4	31.5	4	-1E+10	1	-1E+10	1	-1E+10	1	-1E+10	1	-1E+10	1	-1E+10	1
4902663	33	C	06/25/2024	17:06	-127.644	47.469	0	278.70	0	6.0010	0	33.8780	0	26.669	0	276.188	0	94.5	4	31.2	4	-1E+10	1	-1E+10	1	-1E+10	1	-1E+10	1	-1E+10	1	-1E+10	1
4902663	33	C	06/25/2024	17:06	-127.644	47.469	0	279.80	0	6.0070	0	33.8800	0	26.670	0	277.278	0	93.8	4	31.0	4	-1E+10	1	-1E+10	1	-1E+10	1	-1E+10	1	-1E+10	1	-1E+10	1
4902663	33	C	06/25/2024	17:06	-127.644	47.469	0	280.80	0	6.0200	0	33.8930	0	26.679	0	278.268	0	93.6	4	30.9	4	-1E+10	1	-1E+10	1	-1E+10	1	-1E+10	1	-1E+10	1	-1E+10	1
4902663	33	C	06/25/2024	17:06	-127.644	47.469	0	281.90	0	5.9870	0	33.8870	0	26.678	0	279.357	0	93.3	4	30.8	4	-1E+10	1	-1E+10	1	-1E+10	1	-1E+10	1	-1E+10	1	-1E+10	1
4902663	33	C	06/25/2024	17:06	-127.644	47.469	0	282.90	0	5.9780	0	33.8880	0	26.680	0	280.348	0	92.9	4	30.7	4	-1E+10	1	-1E+10	1	-1E+10	1	-1E+10	1	-1E+10	1	-1E+10	1
4902663	33	C	06/25/2024	17:06	-127.644	47.469	0	284.00	0	5.9800	0	33.8870	0	26.679	0	281.437	0	92.4	4	30.5	4	-1E+10	1	-1E+10	1	-1E+10	1	-1E+10	1	-1E+10	1	-1E+10	1
4902663	33	C	06/25/2024	17:06	-127.644	47.469	0	285.00	0	5.9800	0	33.8860	0	26.678	0	282.427	0	91.9	4	30.3	4	-1E+10	1	-1E+10	1	-1E+10	1	-1E+10	1	-1E+10	1	-1E+10	1
4902663	33	C	06/25/2024	17:06	-127.644	47.469	0	286.10	0	5.9460	0	33.8900	0	26.685	0	283.517	0	91.4	4	30.1	4	-1E+10	1	-1E+10	1	-1E+10	1	-1E+10	1	-1E+10	1	-1E+10	1
4902663	33	C	06/25/2024	17:06	-127.644	47.469	0	287.10	0	5.9280	0	33.8860	0	26.685	0	284.507	0	90.7	4	29.9	4	-1E+10	1	-1E+10	1	-1E+10	1	-1E+10	1	-1E+10	1	-1E+10	1
4902663	33	C	06/25/2024	17:06	-127.644	47.469	0	288.10	0	5.9000	0	33.8860	0	26.688	0	285.497	0	90.0	4	29.7	4	-1E+10	1	-1E+10	1	-1E+10	1	-1E+10	1	-1E+10	1	-1E+10	1
4902663	33	C	06/25/2024	17:06	-127.644	47.469	0	289.10	0	5.8770	0	33.8880	0	26.692	0	286.488	0	89.3	4	29.4	4	-1E+10	1	-1E+10	1	-1E+10	1	-1E+10	1	-1E+10	1	-1E+10	1
4902663	33	C	06/25/2024	17:06	-127.644	47.469	0	290.20	0	5.8590	0	33.8910	0	26.697	0	287.577	0	88.7	4	29.2	4	-1E+10	1	-1E+10	1	-1E+10	1	-1E+10	1	-1E+10	1	-1E+10	1
4902663	33	C	06/25/2024	17:06	-127.644	47.469	0	291.20	0	5.8400	0	33.8890	0	26.698	0	288.567	0	88.0	4	29.0	4	-1E+10	1	-1E+10	1	-1E+10	1	-1E+10	1	-1E+10	1	-1E+10	1
4902663	33	C	06/25/2024	17:06	-127.644	47.469	0	292.30	0	5.8340	0	33.8880	0	26.698	0	289.656	0	87.3	4	28.7	4	-1E+10	1	-1E+10	1	-1E+10	1	-1E+10	1	-1E+10	1	-1E+10	1
4902663	33	C	06/25/2024	17:06	-127.644	47.469	0	293.30	0	5.8330	0	33.8910	0	26.700	0	290.647	0	86.4	4	28.4	4	-1E+10	1	-1E+10	1	-1E+10	1	-1E+10	1	-1E+10	1	-1E+10	1
4902663	33	C	06/25/2024	17:06	-127.644	47.469	0	294.40	0	5.8360	0	33.8940	0	26.702	0	291.736	0	85.6	4	28.2	4	-1E+10	1	-1E+10	1	-1E+10	1	-1E+10	1	-1E+10	1	-1E+10	1
4902663	33	C	06/25/2024	17:06	-127.644	47.469	0	295.40	0	5.8390	0	33.8940	0	26.702	0	292.726	0	84.8	4	27.9	4	-1E+10	1	-1E+10	1	-1E+10	1	-1E+10	1	-1E+10	1	-1E+10	1
4902663	33	C	06/25/2024	17:06	-127.644	47.469	0	296.90	0	5.8460	0	33.8990	0	26.705	0	294.212	0	83.4	4	27.5	4	-1E+10	1	-1E+10	1	-1E+10	1	-1E+10	1	-1E+10	1	-1E+10	1
4902663	33	C	06/25/2024	17:06	-127.644	47.469	0	298.50	0	5.8620	0	33.9050	0	26.708	0	295.796	0	82.2	4	27.1	4	-1E+10	1	-1E+10	1	-1E+10	1	-1E+10	1	-1E+10	1	-1E+10	1
4902663	33	C	06/25/2024	17:06	-127.644	47.469	0	299.60	0	5.8620	0	33.9080	0	26.710	0	296.885	0	81.5	4	26.8	4	-1E+10	1	-1E+10	1	-1E+10	1	-1E+10	1	-1E+10	1	-1E+10	1
4902663	33	C	06/25/2024	17:06	-127.644	47.469	0	300.60	0	5.8610	0	33.9090	0	26.711	0	297.875	0	80.8	4	26.6	4	-1E+10	1	-1E+10	1	-1E+10	1	-1E+10	1	-1E+10	1	-1E+10	1
4902663	33	C	06/25/2024	17:06	-127.644	47.469	0	301.70	0	5.8590	0	33.9110	0	26.713	0	298.965	0	80.1	4	26.4	4	-1E+10	1	-1E+10	1	-1E+10	1	-1E+10	1	-1E+10	1	-1E+10	1
4902663	33	C	06/25/2024	17:06	-127.644	47.469	0	302.70	0	5.8510	0	33.9130	0	26.716	0	299.955	0	79.4	4	26.1	4	-1E+10	1	-1E+10	1	-1E+10	1	-1E+10	1	-1E+10	1	-1E+10	1
4902663	33	C	06/25/2024	17:06	-127.644	47.469	0	303.80	0	5.8500	0	33.9140	0	26.717	0	301.044	0	78.6	4	25.9	4	-1E+10	1	-1E+10	1	-1E+10	1	-1E+10	1	-1E+10	1	-1E+10	1
4902663	33	C	06/25/2024	17:06	-127.644	47.469	0	304.80	0	5.8430	0	33.9130	0	26.717	0	302.034	0	77.7	4	25.6	4	-1E+10	1	-1E+10	1	-1E+10	1	-1E+10	1	-1E+10	1	-1E+10	1
4902663	33	C	06/25/2024	17:06	-127.644	47.469	0	305.90	0	5.8330	0	33.9150	0	26.719	0	303.123	0	76.8	4	25.3	4	-1E+10	1	-1E+10	1	-1E+10	1	-1E+10	1	-1E+10	1	-1E+10	1
4902663	33	C	06/25/2024	17:06	-127.644	47.469	0	307.00	0	5.7830	0	33.9130	0	26.724	0	304.213	0	75.7	4	24.9	4	-1E+10	1	-1E+10	1	-1E+10	1	-1E+10	1	-1E+10	1	-1E+10	1
4902663	33	C	06/25/2024	17:06	-127.644	47.469	0	308.00	0	5.7960	0	33.9180	0	26.726	0	305.203	0	74.7	4	24.6	4	-1E+10	1	-1E+10	1	-1E+10	1	-1E+10	1	-1E+10	1	-1E+10	1
4902663	33	C	06/25/2024	17:06	-127.644	47.469	0	309.10	0	5.8060	0	33.9230	0	26.729	0	306.292	0	73.6	4	24.2	4	-1E+10	1	-1E+10	1	-1E+10	1	-1E+10	1	-1E+10	1	-1E+10	1
4902663	33	C	06/25/2024	17:06	-127.644	47.469	0	310.10	0	5.7970	0	33.9240	0	26.731	0	307.282	0	72.4	4	23.8	4	-1E+10	1	-1E+10	1	-1E+10	1	-1E+10	1	-1E+10	1	-1E+10	1
4902663	33	C	06/25/2024	17:06	-127.644	47.469	0	311.20	0	5.7780	0	33.9240	0	26.733	0	308.371	0	71.1	4	23.4	4	-1E+10	1	-1E+10	1	-1E+10	1	-1E+10	1	-1E+10	1	-1E+10	1
4902663	33	C	06/25/2024	17:06	-127.644	47.469	0	312.20	0	5.8080	0	33.9190	0	26.726	0	309.362	0	69.8	4	23.0	4	-1E+10	1	-1E+10	1	-1E+10	1	-1E+10	1	-1E+10	1	-1E+10	1
4902663	33	C	06/25/2024	17:06	-127.644	47.469	0	313.30	0	5.8650	0	33.9420	0	26.737	0	310.451	0	68.8	4	22.7	4	-1E+10	1	-1E+10	1	-1E+10	1	-1E+10	1	-1E+10	1	-1E+10	1
4902663	33	C	06/25/2024	17:06	-127.644	47.469	0	314.30	0	5.8230	0	33.9420	0	26.742	0	311.441	0	67.7	4	22.3	4	-1E+10	1	-1E+10	1	-1E+10	1	-1E+10	1	-1E+10	1	-1E+10	1
4902663	33	C	06/25/2024	17:06	-127.644	47.469	0	315.90	0	5.9000	0	33.9570	0	26.744	0	313.025	0	66.6	4	22.0	4	-1E+10	1	-1E+10	1	-1E+10	1	-1E+10	1	-1E+10	1	-1E+10	1
4902663	33	C	06/25/2024	17:06	-127.644	47.469	0	317.10	0	5.9220	0	33.9630	0	26.746	0	314.213	0	66.2	4	21.8	4	-1E+10	1	-1E+10	1	-1E+10	1	-1E+10	1	-1E+10	1	-1E+10	1
4902663	33	C	06/25/2024	17:06	-127.644	47.469	0	317.90	0	5.9210	0	33.9700	0	26.752	0	315.005	0	66.1	4	21.8	4	-1E+10	1	-1E+10	1	-1E+10	1	-1E+10	1	-1E+10	1	-1E+10	1
4902663	33	C	06/25/2024	17:06	-127.644	47.469	0	318.70	0	5.9110	0	33.9670	0	26.751	0	315.798	0	66.0	4	21.8	4	-1E+10	1	-1E+10	1	-1E+10	1	-1E+10	1	-1E+10	1	-1E+10	1
4902663	33	C	06/25/2024	17:06	-127.644	47.469	0	319.90	0	5.8770	0	33.9650	0	26.754	0	316.986	0	65.5	4	21.6	4	-1E+10	1	-1E+10	1	-1E+10	1	-1E+10	1	-1E+10	1	-1E+10	1
4902663	33	C	06/25/2024	17:06	-127.644	47.469	0	321.10	0	5.8550	0	33.9640	0	26.756	0	318.174	0	65.0	4	21.4	4	-1E+10	1	-1E+10	1	-1E+10	1	-1E+10	1	-1E+10	1	-1E+10	1
4902663	33	C	06/25/2024	17:06	-127.644	47.469	0	321.90	0	5.8420	0	33.9650	0	26.758	0	318.966	0	64.6	4	21.3	4	-1E+10	1	-1E+10	1	-1E+10	1	-1E+10	1	-1E+10	1	-1E+10	1
4902663	33	C	06/25/2024	17:06	-127.644	47.469	0	322.80	0	5.8100	0	33.9640	0	26.761	0	319.857	0	64.1	4	21.1	4	-1E+10	1	-1E+10	1	-1E+10	1	-1E+10	1	-1E+10	1	-1E+10	1
4902663	33	C	06/25/2024	17:06	-127.644	47.469	0	324.00	0	5.8130	0	33.9640	0	26.761	0	321.045	0	63.3	4	20.8	4	-1E+10	1	-1E+10	1	-1E+10	1	-1E+10	1	-1E+10	1	-1E+10	1
4902663	33	C	06/25/2024	17:06	-127.644	47.469	0	325.30	0	5.8390	0	33.9700	0	26.762	0	322.332	0	62.4	4	20.5	4	-1E+10	1	-1E+10	1	-1E+10	1	-1E+10	1	-1E+10	1	-1E+10	1
4902663	33	C	06/25/2024	17:06	-127.644	47.469	0	326.10	0	5.8490	0	33.9700	0	26.761	0	323.124	0	61.9	4	20.4	4	-1E+10	1	-1E+10	1	-1E+10	1	-1E+10	1	-1E+10	1	-1E+10	1
4902663	33	C	06/25/2024	17:06	-127.644	47.469	0	327.00	0	5.8960	0	33.9860	0	26.768	0	324.015	0	61.7	4	20.3	4	-1E+10	1	-1E+10	1	-1E+10	1	-1E+10	1	-1E+10	1	-1E+10	1
4902663	33	C	06/25/2024	17:06	-127.644	47.469	0	327.80	0	5.8940	0	33.9870	0	26.769	0	324.807	0	61.6	4	20.3	4	-1E+10	1	-1E+10	1	-1E+10	1	-1E+10	1	-1E+10	1	-1E+10	1
4902663	33	C	06/25/2024	17:06	-127.644	47.469	0	328.70	0	5.8950	0	33.9840	0	26.767	0	325.699	0	61.5	4	20.3	4	-1E+10	1	-1E+10	1	-1E+10	1	-1E+10	1	-1E+10	1	-1E+10	1
4902663	33	C	06/25/2024	17:06	-127.644	47.469	0	329.90	0	5.9050	0	33.9840	0	26.765	0	326.887	0	61.5	4	20.3	4	-1E+10	1	-1E+10	1	-1E+10	1	-1E+10	1	-1E+10	1	-1E+10	1
4902663	33	C	06/25/2024	17:06	-127.644	47.469	0	331.30	0	5.9220	0	33.9880	0	26.766	0	328.273	0	61.9	4	20.4	4	-1E+10	1	-1E+10	1	-1E+10	1	-1E+10	1	-1E+10	1	-1E+10	1
4902663	33	C	06/25/2024	17:06	-127.644	47.469	0	332.20	0	5.9140	0	33.9910	0	26.770	0	329.164	0	62.3	4	20.6	4	-1E+10	1	-1E+10	1	-1E+10	1	-1E+10	1	-1E+10	1	-1E+10	1
4902663	33	C	06/25/2024	17:06	-127.644	47.469	0	333.00	0	5.8630	0	33.9900	0	26.775	0	329.956	0	62.7	4	20.7	4	-1E+10	1	-1E+10	1	-1E+10	1	-1E+10	1	-1E+10	1	-1E+10	1
4902663	33	C	06/25/2024	17:06	-127.644	47.469	0	333.90	0	5.8280	0	33.9800	0	26.772	0	330.847	0	62.9	4	20.7	4	-1E+10	1	-1E+10	1	-1E+10	1	-1E+10	1	-1E+10	1	-1E+10	1
4902663	33	C	06/25/2024	17:06	-127.644	47.469	0	334.70	0	5.7570	0	33.9740	0	26.776	0	331.639	0	62.8	4	20.6	4	-1E+10	1	-1E+10	1	-1E+10	1	-1E+10	1	-1E+10	1	-1E+10	1
4902663	33	C	06/25/2024	17:06	-127.644	47.469	0	335.60	0	5.7500	0	33.9690	0	26.773	0	332.530	0	62.6	4	20.6	4	-1E+10	1	-1E+10	1	-1E+10	1	-1E+10	1	-1E+10	1	-1E+10	1
4902663	33	C	06/25/2024	17:06	-127.644	47.469	0	336.90	0	5.7370	0	33.9690	0	26.774	0	333.817	0	62.2	4	20.4	4	-1E+10	1	-1E+10	1	-1E+10	1	-1E+10	1	-1E+10	1	-1E+10	1
4902663	33	C	06/25/2024	17:06	-127.644	47.469	0	338.20	0	5.7030	0	33.9680	0	26.778	0	335.104	0	61.7	4	20.2	4	-1E+10	1	-1E+10	1	-1E+10	1	-1E+10	1	-1E+10	1	-1E+10	1
4902663	33	C	06/25/2024	17:06	-127.644	47.469	0	339.10	0	5.7010	0	33.9660	0	26.776	0	335.995	0	61.2	4	20.1	4	-1E+10	1	-1E+10	1	-1E+10	1	-1E+10	1	-1E+10	1	-1E+10	1
4902663	33	C	06/25/2024	17:06	-127.644	47.469	0	340.00	0	5.6910	0	33.9680	0	26.779	0	336.886	0	60.8	4	19.9	4	-1E+10	1	-1E+10	1	-1E+10	1	-1E+10	1	-1E+10	1	-1E+10	1
4902663	33	C	06/25/2024	17:06	-127.644	47.469	0	340.90	0	5.7360	0	33.9670	0	26.773	0	337.777	0	60.6	4	19.9	4	-1E+10	1	-1E+10	1	-1E+10	1	-1E+10	1	-1E+10	1	-1E+10	1
4902663	33	C	06/25/2024	17:06	-127.644	47.469	0	341.80	0	5.7350	0	33.9750	0	26.779	0	338.668	0	60.4	4	19.8	4	-1E+10	1	-1E+10	1	-1E+10	1	-1E+10	1	-1E+10	1	-1E+10	1
4902663	33	C	06/25/2024	17:06	-127.644	47.469	0	342.60	0	5.6760	0	33.9720	0	26.784	0	339.460	0	60.1	4	19.7	4	-1E+10	1	-1E+10	1	-1E+10	1	-1E+10	1	-1E+10	1	-1E+10	1
4902663	33	C	06/25/2024	17:06	-127.644	47.469	0	343.50	0	5.6330	0	33.9700	0	26.788	0	340.351	0	59.5	4	19.5	4	-1E+10	1	-1E+10	1	-1E+10	1	-1E+10	1	-1E+10	1	-1E+10	1
4902663	33	C	06/25/2024	17:06	-127.644	47.469	0	344.90	0	5.6270	0	33.9700	0	26.788	0	341.737	0	58.6	4	19.2	4	-1E+10	1	-1E+10	1	-1E+10	1	-1E+10	1	-1E+10	1	-1E+10	1
4902663	33	C	06/25/2024	17:06	-127.644	47.469	0	346.30	0	5.6070	0	33.9720	0	26.792	0	343.123	0	57.5	4	18.8	4	-1E+10	1	-1E+10	1	-1E+10	1	-1E+10	1	-1E+10	1	-1E+10	1
4902663	33	C	06/25/2024	17:06	-127.644	47.469	0	347.20	0	5.6250	0	33.9720	0	26.790	0	344.014	0	56.8	4	18.6	4	-1E+10	1	-1E+10	1	-1E+10	1	-1E+10	1	-1E+10	1	-1E+10	1
4902663	33	C	06/25/2024	17:06	-127.644	47.469	0	348.10	0	5.6200	0	33.9740	0	26.792	0	344.905	0	56.0	4	18.4	4	-1E+10	1	-1E+10	1	-1E+10	1	-1E+10	1	-1E+10	1	-1E+10	1
4902663	33	C	06/25/2024	17:06	-127.644	47.469	0	349.00	0	5.6480	0	33.9810	0	26.795	0	345.796	0	55.3	4	18.1	4	-1E+10	1	-1E+10	1	-1E+10	1	-1E+10	1	-1E+10	1	-1E+10	1
4902663	33	C	06/25/2024	17:06	-127.644	47.469	0	349.90	0	5.6740	0	33.9860	0	26.795	0	346.687	0	54.7	4	18.0	4	-1E+10	1	-1E+10	1	-1E+10	1	-1E+10	1	-1E+10	1	-1E+10	1
4902663	33	C	06/25/2024	17:06	-127.644	47.469	0	352.60	0	5.7060	0	33.9950	0	26.799	0	349.360	0	53.3	4	17.5	4	-1E+10	1	-1E+10	1	-1E+10	1	-1E+10	1	-1E+10	1	-1E+10	1
4902663	33	C	06/25/2024	17:06	-127.644	47.469	0	357.90	0	5.7020	0	34.0070	0	26.809	0	354.607	0	52.8	4	17.3	4	-1E+10	1	-1E+10	1	-1E+10	1	-1E+10	1	-1E+10	1	-1E+10	1
4902663	33	C	06/25/2024	17:06	-127.644	47.469	0	363.30	0	5.6510	0	34.0050	0	26.813	0	359.953	0	52.8	4	17.3	4	-1E+10	1	-1E+10	1	-1E+10	1	-1E+10	1	-1E+10	1	-1E+10	1
4902663	33	C	06/25/2024	17:06	-127.644	47.469	0	368.20	0	5.5840	0	34.0030	0	26.820	0	364.803	0	53.4	4	17.5	4	-1E+10	1	-1E+10	1	-1E+10	1	-1E+10	1	-1E+10	1	-1E+10	1
4902663	33	C	06/25/2024	17:06	-127.644	47.469	0	373.30	0	5.4680	0	33.9910	0	26.824	0	369.852	0	54.1	4	17.7	4	-1E+10	1	-1E+10	1	-1E+10	1	-1E+10	1	-1E+10	1	-1E+10	1
4902663	33	C	06/25/2024	17:06	-127.644	47.469	0	377.90	0	5.3960	0	33.9850	0	26.828	0	374.405	0	53.8	4	17.5	4	-1E+10	1	-1E+10	1	-1E+10	1	-1E+10	1	-1E+10	1	-1E+10	1
4902663	33	C	06/25/2024	17:06	-127.644	47.469	0	382.50	0	5.3930	0	33.9860	0	26.829	0	378.958	0	52.8	4	17.2	4	-1E+10	1	-1E+10	1	-1E+10	1	-1E+10	1	-1E+10	1	-1E+10	1
4902663	33	C	06/25/2024	17:06	-127.644	47.469	0	387.70	0	5.3250	0	33.9850	0	26.837	0	384.105	0	51.5	4	16.7	4	-1E+10	1	-1E+10	1	-1E+10	1	-1E+10	1	-1E+10	1	-1E+10	1
4902663	33	C	06/25/2024	17:06	-127.644	47.469	0	392.60	0	5.2580	0	33.9820	0	26.842	0	388.955	0	48.8	4	15.8	4	-1E+10	1	-1E+10	1	-1E+10	1	-1E+10	1	-1E+10	1	-1E+10	1
4902663	33	C	06/25/2024	17:06	-127.644	47.469	0	397.80	0	5.3340	0	34.0070	0	26.853	0	394.102	0	45.9	4	14.9	4	-1E+10	1	-1E+10	1	-1E+10	1	-1E+10	1	-1E+10	1	-1E+10	1
4902663	33	C	06/25/2024	17:06	-127.644	47.469	0	402.80	0	5.4230	0	34.0250	0	26.857	0	399.051	0	44.2	4	14.4	4	-1E+10	1	-1E+10	1	-1E+10	1	-1E+10	1	-1E+10	1	-1E+10	1
4902663	33	C	06/25/2024	17:06	-127.644	47.469	0	407.90	0	5.3760	0	34.0280	0	26.865	0	404.098	0	43.3	4	14.1	4	-1E+10	1	-1E+10	1	-1E+10	1	-1E+10	1	-1E+10	1	-1E+10	1
4902663	33	C	06/25/2024	17:06	-127.644	47.469	0	413.10	0	5.3400	0	34.0330	0	26.873	0	409.245	0	42.3	4	13.8	4	-1E+10	1	-1E+10	1	-1E+10	1	-1E+10	1	-1E+10	1	-1E+10	1
4902663	33	C	06/25/2024	17:06	-127.644	47.469	0	417.70	0	5.3880	0	34.0320	0	26.867	0	413.797	0	41.7	4	13.6	4	-1E+10	1	-1E+10	1	-1E+10	1	-1E+10	1	-1E+10	1	-1E+10	1
4902663	33	C	06/25/2024	17:06	-127.644	47.469	0	423.00	0	5.3270	0	34.0390	0	26.880	0	419.042	0	42.0	4	13.7	4	-1E+10	1	-1E+10	1	-1E+10	1	-1E+10	1	-1E+10	1	-1E+10	1
4902663	33	C	06/25/2024	17:06	-127.644	47.469	0	428.30	0	5.2860	0	34.0360	0	26.882	0	424.287	0	42.0	4	13.6	4	-1E+10	1	-1E+10	1	-1E+10	1	-1E+10	1	-1E+10	1	-1E+10	1
4902663	33	C	06/25/2024	17:06	-127.644	47.469	0	433.10	0	5.2190	0	34.0330	0	26.887	0	429.037	0	42.4	4	13.8	4	-1E+10	1	-1E+10	1	-1E+10	1	-1E+10	1	-1E+10	1	-1E+10	1
4902663	33	C	06/25/2024	17:06	-127.644	47.469	0	437.80	0	5.1140	0	34.0250	0	26.893	0	433.688	0	42.4	4	13.7	4	-1E+10	1	-1E+10	1	-1E+10	1	-1E+10	1	-1E+10	1	-1E+10	1
4902663	33	C	06/25/2024	17:06	-127.644	47.469	0	442.50	0	5.0430	0	34.0180	0	26.896	0	438.339	0	41.3	4	13.4	4	-1E+10	1	-1E+10	1	-1E+10	1	-1E+10	1	-1E+10	1	-1E+10	1
4902663	33	C	06/25/2024	17:06	-127.644	47.469	0	447.90	0	5.0570	0	34.0280	0	26.902	0	443.683	0	40.0	4	12.9	4	-1E+10	1	-1E+10	1	-1E+10	1	-1E+10	1	-1E+10	1	-1E+10	1
4902663	33	C	06/25/2024	17:06	-127.644	47.469	0	453.20	0	5.0300	0	34.0310	0	26.908	0	448.927	0	39.3	4	12.7	4	-1E+10	1	-1E+10	1	-1E+10	1	-1E+10	1	-1E+10	1	-1E+10	1
4902663	33	C	06/25/2024	17:06	-127.644	47.469	0	457.90	0	4.9910	0	34.0300	0	26.911	0	453.578	0	38.2	4	12.4	4	-1E+10	1	-1E+10	1	-1E+10	1	-1E+10	1	-1E+10	1	-1E+10	1
4902663	33	C	06/25/2024	17:06	-127.644	47.469	0	462.60	0	4.9660	0	34.0300	0	26.914	0	458.228	0	36.6	4	11.8	4	-1E+10	1	-1E+10	1	-1E+10	1	-1E+10	1	-1E+10	1	-1E+10	1
4902663	33	C	06/25/2024	17:06	-127.644	47.469	0	467.90	0	5.0540	0	34.0500	0	26.920	0	463.472	0	34.4	4	11.1	4	-1E+10	1	-1E+10	1	-1E+10	1	-1E+10	1	-1E+10	1	-1E+10	1
4902663	33	C	06/25/2024	17:06	-127.644	47.469	0	473.00	0	5.0890	0	34.0640	0	26.927	0	468.518	0	33.5	4	10.9	4	-1E+10	1	-1E+10	1	-1E+10	1	-1E+10	1	-1E+10	1	-1E+10	1
4902663	33	C	06/25/2024	17:06	-127.644	47.469	0	478.10	0	5.0610	0	34.0650	0	26.931	0	473.564	0	33.0	4	10.7	4	-1E+10	1	-1E+10	1	-1E+10	1	-1E+10	1	-1E+10	1	-1E+10	1
4902663	33	C	06/25/2024	17:06	-127.644	47.469	0	483.20	0	5.0220	0	34.0650	0	26.936	0	478.610	0	32.3	4	10.5	4	-1E+10	1	-1E+10	1	-1E+10	1	-1E+10	1	-1E+10	1	-1E+10	1
4902663	33	C	06/25/2024	17:06	-127.644	47.469	0	488.20	0	5.0130	0	34.0690	0	26.940	0	483.556	0	31.5	4	10.2	4	-1E+10	1	-1E+10	1	-1E+10	1	-1E+10	1	-1E+10	1	-1E+10	1
4902663	33	C	06/25/2024	17:06	-127.644	47.469	0	493.10	0	4.9620	0	34.0710	0	26.948	0	488.404	0	30.8	4	9.9	4	-1E+10	1	-1E+10	1	-1E+10	1	-1E+10	1	-1E+10	1	-1E+10	1
4902663	33	C	06/25/2024	17:06	-127.644	47.469	0	498.00	0	4.9090	0	34.0710	0	26.954	0	493.251	0	29.6	4	9.5	4	-1E+10	1	-1E+10	1	-1E+10	1	-1E+10	1	-1E+10	1	-1E+10	1
4902663	33	C	06/25/2024	17:06	-127.644	47.469	0	502.90	0	4.8930	0	34.0790	0	26.962	0	498.099	0	28.1	4	9.1	4	-1E+10	1	-1E+10	1	-1E+10	1	-1E+10	1	-1E+10	1	-1E+10	1
4902663	33	C	06/25/2024	17:06	-127.644	47.469	0	507.80	0	4.9080	0	34.0870	0	26.967	0	502.946	0	26.7	4	8.6	4	-1E+10	1	-1E+10	1	-1E+10	1	-1E+10	1	-1E+10	1	-1E+10	1
4902663	33	C	06/25/2024	17:06	-127.644	47.469	0	512.70	0	4.9260	0	34.0970	0	26.972	0	507.793	0	25.5	4	8.2	4	-1E+10	1	-1E+10	1	-1E+10	1	-1E+10	1	-1E+10	1	-1E+10	1
4902663	33	C	06/25/2024	17:06	-127.644	47.469	0	517.60	0	4.9030	0	34.1050	0	26.981	0	512.640	0	25.1	4	8.1	4	-1E+10	1	-1E+10	1	-1E+10	1	-1E+10	1	-1E+10	1	-1E+10	1
4902663	33	C	06/25/2024	17:06	-127.644	47.469	0	523.00	0	4.8240	0	34.1010	0	26.987	0	517.982	0	24.8	4	8.0	4	-1E+10	1	-1E+10	1	-1E+10	1	-1E+10	1	-1E+10	1	-1E+10	1
4902663	33	C	06/25/2024	17:06	-127.644	47.469	0	527.80	0	4.7860	0	34.1010	0	26.991	0	522.730	0	24.0	4	7.7	4	-1E+10	1	-1E+10	1	-1E+10	1	-1E+10	1	-1E+10	1	-1E+10	1
4902663	33	C	06/25/2024	17:06	-127.644	47.469	0	533.00	0	4.7820	0	34.1110	0	27.000	0	527.873	0	22.9	4	7.4	4	-1E+10	1	-1E+10	1	-1E+10	1	-1E+10	1	-1E+10	1	-1E+10	1
4902663	33	C	06/25/2024	17:06	-127.644	47.469	0	538.20	0	4.7880	0	34.1180	0	27.005	0	533.017	0	22.7	4	7.3	4	-1E+10	1	-1E+10	1	-1E+10	1	-1E+10	1	-1E+10	1	-1E+10	1
4902663	33	C	06/25/2024	17:06	-127.644	47.469	0	543.10	0	4.7380	0	34.1160	0	27.009	0	537.863	0	22.5	4	7.2	4	-1E+10	1	-1E+10	1	-1E+10	1	-1E+10	1	-1E+10	1	-1E+10	1
4902663	33	C	06/25/2024	17:06	-127.644	47.469	0	547.90	0	4.6830	0	34.1140	0	27.013	0	542.611	0	22.1	4	7.1	4	-1E+10	1	-1E+10	1	-1E+10	1	-1E+10	1	-1E+10	1	-1E+10	1
4902663	33	C	06/25/2024	17:06	-127.644	47.469	0	552.70	0	4.6310	0	34.1180	0	27.022	0	547.358	0	21.4	4	6.9	4	-1E+10	1	-1E+10	1	-1E+10	1	-1E+10	1	-1E+10	1	-1E+10	1
4902663	33	C	06/25/2024	17:06	-127.644	47.469	0	557.60	0	4.6340	0	34.1230	0	27.026	0	552.204	0	20.9	4	6.7	4	-1E+10	1	-1E+10	1	-1E+10	1	-1E+10	1	-1E+10	1	-1E+10	1
4902663	33	C	06/25/2024	17:06	-127.644	47.469	0	562.60	0	4.5990	0	34.1250	0	27.031	0	557.149	0	20.8	4	6.6	4	-1E+10	1	-1E+10	1	-1E+10	1	-1E+10	1	-1E+10	1	-1E+10	1
4902663	33	C	06/25/2024	17:06	-127.644	47.469	0	567.70	0	4.5680	0	34.1260	0	27.036	0	562.193	0	20.4	4	6.5	4	-1E+10	1	-1E+10	1	-1E+10	1	-1E+10	1	-1E+10	1	-1E+10	1
4902663	33	C	06/25/2024	17:06	-127.644	47.469	0	572.90	0	4.5450	0	34.1280	0	27.040	0	567.335	0	19.9	4	6.3	4	-1E+10	1	-1E+10	1	-1E+10	1	-1E+10	1	-1E+10	1	-1E+10	1
4902663	33	C	06/25/2024	17:06	-127.644	47.469	0	578.10	0	4.5370	0	34.1310	0	27.043	0	572.477	0	19.3	4	6.2	4	-1E+10	1	-1E+10	1	-1E+10	1	-1E+10	1	-1E+10	1	-1E+10	1
4902663	33	C	06/25/2024	17:06	-127.644	47.469	0	582.80	0	4.5210	0	34.1350	0	27.048	0	577.125	0	18.5	4	5.9	4	-1E+10	1	-1E+10	1	-1E+10	1	-1E+10	1	-1E+10	1	-1E+10	1
4902663	33	C	06/25/2024	17:06	-127.644	47.469	0	587.60	0	4.5140	0	34.1400	0	27.053	0	581.872	0	17.9	4	5.7	4	-1E+10	1	-1E+10	1	-1E+10	1	-1E+10	1	-1E+10	1	-1E+10	1
4902663	33	C	06/25/2024	17:06	-127.644	47.469	0	592.90	0	4.5080	0	34.1460	0	27.058	0	587.113	0	17.0	4	5.4	4	-1E+10	1	-1E+10	1	-1E+10	1	-1E+10	1	-1E+10	1	-1E+10	1
4902663	33	C	06/25/2024	17:06	-127.644	47.469	0	597.90	0	4.5170	0	34.1520	0	27.062	0	592.057	0	16.7	4	5.3	4	-1E+10	1	-1E+10	1	-1E+10	1	-1E+10	1	-1E+10	1	-1E+10	1
4902663	33	C	06/25/2024	17:06	-127.644	47.469	0	602.90	0	4.5080	0	34.1540	0	27.065	0	597.001	0	16.6	4	5.3	4	-1E+10	1	-1E+10	1	-1E+10	1	-1E+10	1	-1E+10	1	-1E+10	1
4902663	33	C	06/25/2024	17:06	-127.644	47.469	0	608.00	0	4.4540	0	34.1540	0	27.070	0	602.043	0	16.6	4	5.3	4	-1E+10	1	-1E+10	1	-1E+10	1	-1E+10	1	-1E+10	1	-1E+10	1
4902663	33	C	06/25/2024	17:06	-127.644	47.469	0	612.70	0	4.4210	0	34.1540	0	27.074	0	606.691	0	16.1	4	5.1	4	-1E+10	1	-1E+10	1	-1E+10	1	-1E+10	1	-1E+10	1	-1E+10	1
4902663	33	C	06/25/2024	17:06	-127.644	47.469	0	617.50	0	4.4030	0	34.1590	0	27.080	0	611.436	0	15.3	4	4.9	4	-1E+10	1	-1E+10	1	-1E+10	1	-1E+10	1	-1E+10	1	-1E+10	1
4902663	33	C	06/25/2024	17:06	-127.644	47.469	0	622.90	0	4.4190	0	34.1690	0	27.086	0	616.775	0	14.5	4	4.6	4	-1E+10	1	-1E+10	1	-1E+10	1	-1E+10	1	-1E+10	1	-1E+10	1
4902663	33	C	06/25/2024	17:06	-127.644	47.469	0	628.30	0	4.4190	0	34.1750	0	27.091	0	622.114	0	14.1	4	4.5	4	-1E+10	1	-1E+10	1	-1E+10	1	-1E+10	1	-1E+10	1	-1E+10	1
4902663	33	C	06/25/2024	17:06	-127.644	47.469	0	633.20	0	4.3910	0	34.1770	0	27.096	0	626.959	0	13.7	4	4.4	4	-1E+10	1	-1E+10	1	-1E+10	1	-1E+10	1	-1E+10	1	-1E+10	1
4902663	33	C	06/25/2024	17:06	-127.644	47.469	0	638.20	0	4.3850	0	34.1820	0	27.100	0	631.902	0	13.2	4	4.2	4	-1E+10	1	-1E+10	1	-1E+10	1	-1E+10	1	-1E+10	1	-1E+10	1
4902663	33	C	06/25/2024	17:06	-127.644	47.469	0	643.20	0	4.3740	0	34.1870	0	27.105	0	636.845	0	12.8	4	4.1	4	-1E+10	1	-1E+10	1	-1E+10	1	-1E+10	1	-1E+10	1	-1E+10	1
4902663	33	C	06/25/2024	17:06	-127.644	47.469	0	648.20	0	4.3690	0	34.1910	0	27.109	0	641.788	0	12.4	4	4.0	4	-1E+10	1	-1E+10	1	-1E+10	1	-1E+10	1	-1E+10	1	-1E+10	1
4902663	33	C	06/25/2024	17:06	-127.644	47.469	0	653.30	0	4.3560	0	34.1950	0	27.114	0	646.829	0	12.1	4	3.9	4	-1E+10	1	-1E+10	1	-1E+10	1	-1E+10	1	-1E+10	1	-1E+10	1
4902663	33	C	06/25/2024	17:06	-127.644	47.469	0	657.90	0	4.3440	0	34.1980	0	27.117	0	651.377	0	11.9	4	3.8	4	-1E+10	1	-1E+10	1	-1E+10	1	-1E+10	1	-1E+10	1	-1E+10	1
4902663	33	C	06/25/2024	17:06	-127.644	47.469	0	662.60	0	4.3390	0	34.2010	0	27.120	0	656.023	0	11.6	4	3.7	4	-1E+10	1	-1E+10	1	-1E+10	1	-1E+10	1	-1E+10	1	-1E+10	1
4902663	33	C	06/25/2024	17:06	-127.644	47.469	0	667.70	0	4.3070	0	34.2050	0	27.127	0	661.064	0	11.3	4	3.6	4	-1E+10	1	-1E+10	1	-1E+10	1	-1E+10	1	-1E+10	1	-1E+10	1
4902663	33	C	06/25/2024	17:06	-127.644	47.469	0	673.00	0	4.2980	0	34.2100	0	27.132	0	666.303	0	10.9	4	3.5	4	-1E+10	1	-1E+10	1	-1E+10	1	-1E+10	1	-1E+10	1	-1E+10	1
4902663	33	C	06/25/2024	17:06	-127.644	47.469	0	678.20	0	4.2880	0	34.2150	0	27.137	0	671.443	0	10.6	4	3.4	4	-1E+10	1	-1E+10	1	-1E+10	1	-1E+10	1	-1E+10	1	-1E+10	1
4902663	33	C	06/25/2024	17:06	-127.644	47.469	0	683.00	0	4.2760	0	34.2170	0	27.140	0	676.187	0	10.3	4	3.3	4	-1E+10	1	-1E+10	1	-1E+10	1	-1E+10	1	-1E+10	1	-1E+10	1
4902663	33	C	06/25/2024	17:06	-127.644	47.469	0	687.90	0	4.2810	0	34.2250	0	27.146	0	681.030	0	10.0	4	3.2	4	-1E+10	1	-1E+10	1	-1E+10	1	-1E+10	1	-1E+10	1	-1E+10	1
4902663	33	C	06/25/2024	17:06	-127.644	47.469	0	692.70	0	4.2660	0	34.2280	0	27.150	0	685.774	0	9.9	4	3.2	4	-1E+10	1	-1E+10	1	-1E+10	1	-1E+10	1	-1E+10	1	-1E+10	1
4902663	33	C	06/25/2024	17:06	-127.644	47.469	0	697.60	0	4.2540	0	34.2300	0	27.153	0	690.617	0	9.7	4	3.1	4	-1E+10	1	-1E+10	1	-1E+10	1	-1E+10	1	-1E+10	1	-1E+10	1
4902663	33	C	06/25/2024	17:06	-127.644	47.469	0	702.90	0	4.2470	0	34.2340	0	27.157	0	695.855	0	9.4	4	3.0	4	-1E+10	1	-1E+10	1	-1E+10	1	-1E+10	1	-1E+10	1	-1E+10	1
4902663	33	C	06/25/2024	17:06	-127.644	47.469	0	707.80	0	4.2350	0	34.2380	0	27.161	0	700.698	0	9.2	4	2.9	4	-1E+10	1	-1E+10	1	-1E+10	1	-1E+10	1	-1E+10	1	-1E+10	1
4902663	33	C	06/25/2024	17:06	-127.644	47.469	0	712.70	0	4.2220	0	34.2410	0	27.165	0	705.540	0	9.0	4	2.8	4	-1E+10	1	-1E+10	1	-1E+10	1	-1E+10	1	-1E+10	1	-1E+10	1
4902663	33	C	06/25/2024	17:06	-127.644	47.469	0	718.10	0	4.2450	0	34.2500	0	27.170	0	710.877	0	8.7	4	2.8	4	-1E+10	1	-1E+10	1	-1E+10	1	-1E+10	1	-1E+10	1	-1E+10	1
4902663	33	C	06/25/2024	17:06	-127.644	47.469	0	723.00	0	4.2160	0	34.2500	0	27.173	0	715.719	0	8.7	4	2.8	4	-1E+10	1	-1E+10	1	-1E+10	1	-1E+10	1	-1E+10	1	-1E+10	1
4902663	33	C	06/25/2024	17:06	-127.644	47.469	0	727.80	0	4.2090	0	34.2530	0	27.176	0	720.463	0	8.5	4	2.7	4	-1E+10	1	-1E+10	1	-1E+10	1	-1E+10	1	-1E+10	1	-1E+10	1
4902663	33	C	06/25/2024	17:06	-127.644	47.469	0	733.20	0	4.2110	0	34.2580	0	27.180	0	725.799	0	8.4	4	2.7	4	-1E+10	1	-1E+10	1	-1E+10	1	-1E+10	1	-1E+10	1	-1E+10	1
4902663	33	C	06/25/2024	17:06	-127.644	47.469	0	738.30	0	4.1620	0	34.2580	0	27.185	0	730.838	0	8.4	4	2.7	4	-1E+10	1	-1E+10	1	-1E+10	1	-1E+10	1	-1E+10	1	-1E+10	1
4902663	33	C	06/25/2024	17:06	-127.644	47.469	0	742.90	0	4.1440	0	34.2600	0	27.188	0	735.384	0	8.2	4	2.6	4	-1E+10	1	-1E+10	1	-1E+10	1	-1E+10	1	-1E+10	1	-1E+10	1
4902663	33	C	06/25/2024	17:06	-127.644	47.469	0	747.80	0	4.1210	0	34.2630	0	27.193	0	740.226	0	8.1	4	2.6	4	-1E+10	1	-1E+10	1	-1E+10	1	-1E+10	1	-1E+10	1	-1E+10	1
4902663	33	C	06/25/2024	17:06	-127.644	47.469	0	752.60	0	4.1110	0	34.2680	0	27.198	0	744.968	0	7.9	4	2.5	4	-1E+10	1	-1E+10	1	-1E+10	1	-1E+10	1	-1E+10	1	-1E+10	1
4902663	33	C	06/25/2024	17:06	-127.644	47.469	0	757.60	0	4.1030	0	34.2720	0	27.202	0	749.909	0	7.7	4	2.4	4	-1E+10	1	-1E+10	1	-1E+10	1	-1E+10	1	-1E+10	1	-1E+10	1
4902663	33	C	06/25/2024	17:06	-127.644	47.469	0	762.60	0	4.1170	0	34.2790	0	27.206	0	754.849	0	7.5	4	2.4	4	-1E+10	1	-1E+10	1	-1E+10	1	-1E+10	1	-1E+10	1	-1E+10	1
4902663	33	C	06/25/2024	17:06	-127.644	47.469	0	767.70	0	4.1110	0	34.2820	0	27.210	0	759.888	0	7.4	4	2.4	4	-1E+10	1	-1E+10	1	-1E+10	1	-1E+10	1	-1E+10	1	-1E+10	1
4902663	33	C	06/25/2024	17:06	-127.644	47.469	0	772.80	0	4.0960	0	34.2850	0	27.213	0	764.927	0	7.3	4	2.3	4	-1E+10	1	-1E+10	1	-1E+10	1	-1E+10	1	-1E+10	1	-1E+10	1
4902663	33	C	06/25/2024	17:06	-127.644	47.469	0	778.00	0	4.0920	0	34.2890	0	27.217	0	770.064	0	7.2	4	2.3	4	-1E+10	1	-1E+10	1	-1E+10	1	-1E+10	1	-1E+10	1	-1E+10	1
4902663	33	C	06/25/2024	17:06	-127.644	47.469	0	782.90	0	4.0790	0	34.2920	0	27.221	0	774.905	0	7.2	4	2.3	4	-1E+10	1	-1E+10	1	-1E+10	1	-1E+10	1	-1E+10	1	-1E+10	1
4902663	33	C	06/25/2024	17:06	-127.644	47.469	0	787.70	0	4.0630	0	34.2950	0	27.225	0	779.647	0	7.2	4	2.3	4	-1E+10	1	-1E+10	1	-1E+10	1	-1E+10	1	-1E+10	1	-1E+10	1
4902663	33	C	06/25/2024	17:06	-127.644	47.469	0	793.10	0	4.0390	0	34.2960	0	27.228	0	784.982	0	7.1	4	2.3	4	-1E+10	1	-1E+10	1	-1E+10	1	-1E+10	1	-1E+10	1	-1E+10	1
4902663	33	C	06/25/2024	17:06	-127.644	47.469	0	798.00	0	4.0120	0	34.2980	0	27.233	0	789.822	0	7.0	4	2.2	4	-1E+10	1	-1E+10	1	-1E+10	1	-1E+10	1	-1E+10	1	-1E+10	1
4902663	33	C	06/25/2024	17:06	-127.644	47.469	0	802.80	0	4.0230	0	34.3030	0	27.236	0	794.564	0	6.9	4	2.2	4	-1E+10	1	-1E+10	1	-1E+10	1	-1E+10	1	-1E+10	1	-1E+10	1
4902663	33	C	06/25/2024	17:06	-127.644	47.469	0	808.10	0	4.0080	0	34.3070	0	27.240	0	799.799	0	6.9	4	2.2	4	-1E+10	1	-1E+10	1	-1E+10	1	-1E+10	1	-1E+10	1	-1E+10	1
4902663	33	C	06/25/2024	17:06	-127.644	47.469	0	813.10	0	3.9970	0	34.3080	0	27.242	0	804.738	0	6.9	4	2.2	4	-1E+10	1	-1E+10	1	-1E+10	1	-1E+10	1	-1E+10	1	-1E+10	1
4902663	33	C	06/25/2024	17:06	-127.644	47.469	0	818.10	0	3.9800	0	34.3100	0	27.246	0	809.677	0	6.9	4	2.2	4	-1E+10	1	-1E+10	1	-1E+10	1	-1E+10	1	-1E+10	1	-1E+10	1
4902663	33	C	06/25/2024	17:06	-127.644	47.469	0	823.10	0	3.9700	0	34.3120	0	27.248	0	814.616	0	6.9	4	2.2	4	-1E+10	1	-1E+10	1	-1E+10	1	-1E+10	1	-1E+10	1	-1E+10	1
4902663	33	C	06/25/2024	17:06	-127.644	47.469	0	827.70	0	3.9560	0	34.3150	0	27.252	0	819.160	0	6.9	4	2.2	4	-1E+10	1	-1E+10	1	-1E+10	1	-1E+10	1	-1E+10	1	-1E+10	1
4902663	33	C	06/25/2024	17:06	-127.644	47.469	0	832.80	0	3.9370	0	34.3160	0	27.255	0	824.197	0	6.9	4	2.2	4	-1E+10	1	-1E+10	1	-1E+10	1	-1E+10	1	-1E+10	1	-1E+10	1
4902663	33	C	06/25/2024	17:06	-127.644	47.469	0	838.00	0	3.9150	0	34.3190	0	27.260	0	829.333	0	6.9	4	2.2	4	-1E+10	1	-1E+10	1	-1E+10	1	-1E+10	1	-1E+10	1	-1E+10	1
4902663	33	C	06/25/2024	17:06	-127.644	47.469	0	842.70	0	3.9010	0	34.3210	0	27.263	0	833.975	0	6.9	4	2.2	4	-1E+10	1	-1E+10	1	-1E+10	1	-1E+10	1	-1E+10	1	-1E+10	1
4902663	33	C	06/25/2024	17:06	-127.644	47.469	0	847.90	0	3.8940	0	34.3240	0	27.266	0	839.111	0	6.8	4	2.1	4	-1E+10	1	-1E+10	1	-1E+10	1	-1E+10	1	-1E+10	1	-1E+10	1
4902663	33	C	06/25/2024	17:06	-127.644	47.469	0	853.10	0	3.8940	0	34.3270	0	27.268	0	844.246	0	6.8	4	2.1	4	-1E+10	1	-1E+10	1	-1E+10	1	-1E+10	1	-1E+10	1	-1E+10	1
4902663	33	C	06/25/2024	17:06	-127.644	47.469	0	857.90	0	3.8810	0	34.3290	0	27.271	0	848.987	0	6.8	4	2.2	4	-1E+10	1	-1E+10	1	-1E+10	1	-1E+10	1	-1E+10	1	-1E+10	1
4902663	33	C	06/25/2024	17:06	-127.644	47.469	0	862.70	0	3.8680	0	34.3310	0	27.274	0	853.727	0	6.8	4	2.2	4	-1E+10	1	-1E+10	1	-1E+10	1	-1E+10	1	-1E+10	1	-1E+10	1
4902663	33	C	06/25/2024	17:06	-127.644	47.469	0	867.90	0	3.8540	0	34.3330	0	27.277	0	858.862	0	6.9	4	2.2	4	-1E+10	1	-1E+10	1	-1E+10	1	-1E+10	1	-1E+10	1	-1E+10	1
4902663	33	C	06/25/2024	17:06	-127.644	47.469	0	873.10	0	3.8350	0	34.3350	0	27.281	0	863.997	0	6.9	4	2.2	4	-1E+10	1	-1E+10	1	-1E+10	1	-1E+10	1	-1E+10	1	-1E+10	1
4902663	33	C	06/25/2024	17:06	-127.644	47.469	0	877.90	0	3.8290	0	34.3350	0	27.281	0	868.737	0	6.9	4	2.2	4	-1E+10	1	-1E+10	1	-1E+10	1	-1E+10	1	-1E+10	1	-1E+10	1
4902663	33	C	06/25/2024	17:06	-127.644	47.469	0	882.70	0	3.8180	0	34.3380	0	27.285	0	873.477	0	6.9	4	2.2	4	-1E+10	1	-1E+10	1	-1E+10	1	-1E+10	1	-1E+10	1	-1E+10	1
4902663	33	C	06/25/2024	17:06	-127.644	47.469	0	887.60	0	3.8150	0	34.3420	0	27.288	0	878.316	0	6.9	4	2.2	4	-1E+10	1	-1E+10	1	-1E+10	1	-1E+10	1	-1E+10	1	-1E+10	1
4902663	33	C	06/25/2024	17:06	-127.644	47.469	0	892.90	0	3.8020	0	34.3470	0	27.294	0	883.549	0	6.9	4	2.2	4	-1E+10	1	-1E+10	1	-1E+10	1	-1E+10	1	-1E+10	1	-1E+10	1
4902663	33	C	06/25/2024	17:06	-127.644	47.469	0	898.30	0	3.7940	0	34.3500	0	27.297	0	888.881	0	7.0	4	2.2	4	-1E+10	1	-1E+10	1	-1E+10	1	-1E+10	1	-1E+10	1	-1E+10	1
4902663	33	C	06/25/2024	17:06	-127.644	47.469	0	903.20	0	3.7770	0	34.3520	0	27.300	0	893.719	0	7.0	4	2.2	4	-1E+10	1	-1E+10	1	-1E+10	1	-1E+10	1	-1E+10	1	-1E+10	1
4902663	33	C	06/25/2024	17:06	-127.644	47.469	0	908.10	0	3.7690	0	34.3540	0	27.302	0	898.557	0	7.1	4	2.2	4	-1E+10	1	-1E+10	1	-1E+10	1	-1E+10	1	-1E+10	1	-1E+10	1
4902663	33	C	06/25/2024	17:06	-127.644	47.469	0	913.00	0	3.7730	0	34.3600	0	27.307	0	903.395	0	7.1	4	2.2	4	-1E+10	1	-1E+10	1	-1E+10	1	-1E+10	1	-1E+10	1	-1E+10	1
4902663	33	C	06/25/2024	17:06	-127.644	47.469	0	917.90	0	3.7550	0	34.3610	0	27.310	0	908.233	0	7.1	4	2.2	4	-1E+10	1	-1E+10	1	-1E+10	1	-1E+10	1	-1E+10	1	-1E+10	1
4902663	33	C	06/25/2024	17:06	-127.644	47.469	0	922.90	0	3.7400	0	34.3610	0	27.311	0	913.170	0	7.1	4	2.2	4	-1E+10	1	-1E+10	1	-1E+10	1	-1E+10	1	-1E+10	1	-1E+10	1
4902663	33	C	06/25/2024	17:06	-127.644	47.469	0	927.80	0	3.7290	0	34.3620	0	27.313	0	918.007	0	7.2	4	2.3	4	-1E+10	1	-1E+10	1	-1E+10	1	-1E+10	1	-1E+10	1	-1E+10	1
4902663	33	C	06/25/2024	17:06	-127.644	47.469	0	932.70	0	3.7220	0	34.3630	0	27.314	0	922.845	0	7.2	4	2.3	4	-1E+10	1	-1E+10	1	-1E+10	1	-1E+10	1	-1E+10	1	-1E+10	1
4902663	33	C	06/25/2024	17:06	-127.644	47.469	0	937.60	0	3.7130	0	34.3660	0	27.318	0	927.682	0	7.2	4	2.3	4	-1E+10	1	-1E+10	1	-1E+10	1	-1E+10	1	-1E+10	1	-1E+10	1
4902663	33	C	06/25/2024	17:06	-127.644	47.469	0	942.50	0	3.7070	0	34.3670	0	27.319	0	932.519	0	7.3	4	2.3	4	-1E+10	1	-1E+10	1	-1E+10	1	-1E+10	1	-1E+10	1	-1E+10	1
4902663	33	C	06/25/2024	17:06	-127.644	47.469	0	947.90	0	3.6770	0	34.3670	0	27.322	0	937.850	0	7.4	4	2.3	4	-1E+10	1	-1E+10	1	-1E+10	1	-1E+10	1	-1E+10	1	-1E+10	1
4902663	33	C	06/25/2024	17:06	-127.644	47.469	0	953.20	0	3.6270	0	34.3650	0	27.326	0	943.082	0	7.4	4	2.3	4	-1E+10	1	-1E+10	1	-1E+10	1	-1E+10	1	-1E+10	1	-1E+10	1
4902663	33	C	06/25/2024	17:06	-127.644	47.469	0	958.20	0	3.6080	0	34.3660	0	27.328	0	948.018	0	7.5	4	2.4	4	-1E+10	1	-1E+10	1	-1E+10	1	-1E+10	1	-1E+10	1	-1E+10	1
4902663	33	C	06/25/2024	17:06	-127.644	47.469	0	963.10	0	3.5950	0	34.3690	0	27.332	0	952.854	0	7.6	4	2.4	4	-1E+10	1	-1E+10	1	-1E+10	1	-1E+10	1	-1E+10	1	-1E+10	1
4902663	33	C	06/25/2024	17:06	-127.644	47.469	0	968.10	0	3.5880	0	34.3720	0	27.335	0	957.790	0	7.6	4	2.4	4	-1E+10	1	-1E+10	1	-1E+10	1	-1E+10	1	-1E+10	1	-1E+10	1
4902663	33	C	06/25/2024	17:06	-127.644	47.469	0	973.00	0	3.5630	0	34.3740	0	27.339	0	962.626	0	7.7	4	2.4	4	-1E+10	1	-1E+10	1	-1E+10	1	-1E+10	1	-1E+10	1	-1E+10	1
4902663	33	C	06/25/2024	17:06	-127.644	47.469	0	978.00	0	3.5560	0	34.3770	0	27.342	0	967.561	0	7.8	4	2.4	4	-1E+10	1	-1E+10	1	-1E+10	1	-1E+10	1	-1E+10	1	-1E+10	1
4902663	33	C	06/25/2024	17:06	-127.644	47.469	0	983.00	0	3.5390	0	34.3790	0	27.345	0	972.496	0	7.8	4	2.5	4	-1E+10	1	-1E+10	1	-1E+10	1	-1E+10	1	-1E+10	1	-1E+10	1
4902663	33	C	06/25/2024	17:06	-127.644	47.469	0	988.00	0	3.5330	0	34.3810	0	27.348	0	977.431	0	7.9	4	2.5	4	-1E+10	1	-1E+10	1	-1E+10	1	-1E+10	1	-1E+10	1	-1E+10	1
4902663	33	C	06/25/2024	17:06	-127.644	47.469	0	993.00	0	3.5090	0	34.3830	0	27.352	0	982.366	0	8.0	4	2.5	4	-1E+10	1	-1E+10	1	-1E+10	1	-1E+10	1	-1E+10	1	-1E+10	1
4902663	33	C	06/25/2024	17:06	-127.644	47.469	0	998.00	0	3.4860	0	34.3860	0	27.356	0	987.301	0	8.1	4	2.5	4	-1E+10	1	-1E+10	1	-1E+10	1	-1E+10	1	-1E+10	1	-1E+10	1
4902663	33	C	06/25/2024	17:06	-127.644	47.469	0	1005.60	0	3.4700	0	34.3880	0	27.359	0	994.801	0	8.3	4	2.6	4	-1E+10	1	-1E+10	1	-1E+10	1	-1E+10	1	-1E+10	1	-1E+10	1
4902663	33	C	06/25/2024	17:06	-127.644	47.469	0	1015.80	0	3.4500	0	34.3960	0	27.368	0	1004.867	0	8.7	4	2.7	4	-1E+10	1	-1E+10	1	-1E+10	1	-1E+10	1	-1E+10	1	-1E+10	1
4902663	33	C	06/25/2024	17:06	-127.644	47.469	0	1025.50	0	3.4580	0	34.4050	0	27.374	0	1014.440	0	9.0	4	2.8	4	-1E+10	1	-1E+10	1	-1E+10	1	-1E+10	1	-1E+10	1	-1E+10	1
4902663	33	C	06/25/2024	17:06	-127.644	47.469	0	1035.20	0	3.4550	0	34.4120	0	27.380	0	1024.011	0	9.2	4	2.9	4	-1E+10	1	-1E+10	1	-1E+10	1	-1E+10	1	-1E+10	1	-1E+10	1
4902663	33	C	06/25/2024	17:06	-127.644	47.469	0	1045.20	0	3.4400	0	34.4140	0	27.383	0	1033.878	0	9.4	4	2.9	4	-1E+10	1	-1E+10	1	-1E+10	1	-1E+10	1	-1E+10	1	-1E+10	1
4902663	33	C	06/25/2024	17:06	-127.644	47.469	0	1055.50	0	3.4160	0	34.4180	0	27.389	0	1044.041	0	9.6	4	3.0	4	-1E+10	1	-1E+10	1	-1E+10	1	-1E+10	1	-1E+10	1	-1E+10	1
4902663	33	C	06/25/2024	17:06	-127.644	47.469	0	1065.70	0	3.3970	0	34.4200	0	27.392	0	1054.105	0	9.8	4	3.1	4	-1E+10	1	-1E+10	1	-1E+10	1	-1E+10	1	-1E+10	1	-1E+10	1
4902663	33	C	06/25/2024	17:06	-127.644	47.469	0	1075.70	0	3.3750	0	34.4220	0	27.396	0	1063.971	0	9.9	4	3.1	4	-1E+10	1	-1E+10	1	-1E+10	1	-1E+10	1	-1E+10	1	-1E+10	1
4902663	33	C	06/25/2024	17:06	-127.644	47.469	0	1085.40	0	3.3490	0	34.4240	0	27.400	0	1073.540	0	10.1	4	3.2	4	-1E+10	1	-1E+10	1	-1E+10	1	-1E+10	1	-1E+10	1	-1E+10	1
4902663	33	C	06/25/2024	17:06	-127.644	47.469	0	1095.40	0	3.3290	0	34.4260	0	27.404	0	1083.405	0	10.4	4	3.2	4	-1E+10	1	-1E+10	1	-1E+10	1	-1E+10	1	-1E+10	1	-1E+10	1
4902663	33	C	06/25/2024	17:06	-127.644	47.469	0	1105.50	0	3.3150	0	34.4290	0	27.407	0	1093.368	0	10.5	4	3.3	4	-1E+10	1	-1E+10	1	-1E+10	1	-1E+10	1	-1E+10	1	-1E+10	1
4902663	33	C	06/25/2024	17:06	-127.644	47.469	0	1115.40	0	3.2880	0	34.4300	0	27.411	0	1103.134	0	10.6	4	3.3	4	-1E+10	1	-1E+10	1	-1E+10	1	-1E+10	1	-1E+10	1	-1E+10	1
4902663	33	C	06/25/2024	17:06	-127.644	47.469	0	1125.30	0	3.2650	0	34.4310	0	27.414	0	1112.899	0	10.9	4	3.4	4	-1E+10	1	-1E+10	1	-1E+10	1	-1E+10	1	-1E+10	1	-1E+10	1
4902663	33	C	06/25/2024	17:06	-127.644	47.469	0	1135.20	0	3.2690	0	34.4360	0	27.418	0	1122.663	0	11.2	4	3.5	4	-1E+10	1	-1E+10	1	-1E+10	1	-1E+10	1	-1E+10	1	-1E+10	1
4902663	33	C	06/25/2024	17:06	-127.644	47.469	0	1145.20	0	3.2400	0	34.4380	0	27.422	0	1132.526	0	11.5	4	3.6	4	-1E+10	1	-1E+10	1	-1E+10	1	-1E+10	1	-1E+10	1	-1E+10	1
4902663	33	C	06/25/2024	17:06	-127.644	47.469	0	1155.20	0	3.2210	0	34.4410	0	27.426	0	1142.388	0	11.8	4	3.7	4	-1E+10	1	-1E+10	1	-1E+10	1	-1E+10	1	-1E+10	1	-1E+10	1
4902663	33	C	06/25/2024	17:06	-127.644	47.469	0	1165.20	0	3.1930	0	34.4440	0	27.431	0	1152.249	0	12.1	4	3.7	4	-1E+10	1	-1E+10	1	-1E+10	1	-1E+10	1	-1E+10	1	-1E+10	1
4902663	33	C	06/25/2024	17:06	-127.644	47.469	0	1175.20	0	3.1570	0	34.4450	0	27.435	0	1162.111	0	12.3	4	3.8	4	-1E+10	1	-1E+10	1	-1E+10	1	-1E+10	1	-1E+10	1	-1E+10	1
4902663	33	C	06/25/2024	17:06	-127.644	47.469	0	1185.10	0	3.1280	0	34.4470	0	27.440	0	1171.873	0	12.5	4	3.9	4	-1E+10	1	-1E+10	1	-1E+10	1	-1E+10	1	-1E+10	1	-1E+10	1
4902663	33	C	06/25/2024	17:06	-127.644	47.469	0	1195.40	0	3.0980	0	34.4490	0	27.444	0	1182.029	0	12.8	4	4.0	4	-1E+10	1	-1E+10	1	-1E+10	1	-1E+10	1	-1E+10	1	-1E+10	1
4902663	33	C	06/25/2024	17:06	-127.644	47.469	0	1205.60	0	3.0890	0	34.4530	0	27.448	0	1192.086	0	13.2	4	4.1	4	-1E+10	1	-1E+10	1	-1E+10	1	-1E+10	1	-1E+10	1	-1E+10	1
4902663	33	C	06/25/2024	17:06	-127.644	47.469	0	1215.30	0	3.0790	0	34.4560	0	27.451	0	1201.650	0	13.5	4	4.2	4	-1E+10	1	-1E+10	1	-1E+10	1	-1E+10	1	-1E+10	1	-1E+10	1
4902663	33	C	06/25/2024	17:06	-127.644	47.469	0	1225.50	0	3.0540	0	34.4590	0	27.456	0	1211.706	0	13.9	4	4.3	4	-1E+10	1	-1E+10	1	-1E+10	1	-1E+10	1	-1E+10	1	-1E+10	1
4902663	33	C	06/25/2024	17:06	-127.644	47.469	0	1235.60	0	3.0290	0	34.4610	0	27.460	0	1221.663	0	14.2	4	4.4	4	-1E+10	1	-1E+10	1	-1E+10	1	-1E+10	1	-1E+10	1	-1E+10	1
4902663	33	C	06/25/2024	17:06	-127.644	47.469	0	1245.30	0	2.9970	0	34.4620	0	27.464	0	1231.225	0	14.5	4	4.5	4	-1E+10	1	-1E+10	1	-1E+10	1	-1E+10	1	-1E+10	1	-1E+10	1
4902663	33	C	06/25/2024	17:06	-127.644	47.469	0	1255.50	0	2.9850	0	34.4650	0	27.467	0	1241.279	0	14.9	4	4.6	4	-1E+10	1	-1E+10	1	-1E+10	1	-1E+10	1	-1E+10	1	-1E+10	1
4902663	33	C	06/25/2024	17:06	-127.644	47.469	0	1265.70	0	2.9710	0	34.4690	0	27.472	0	1251.334	0	15.2	4	4.7	4	-1E+10	1	-1E+10	1	-1E+10	1	-1E+10	1	-1E+10	1	-1E+10	1
4902663	33	C	06/25/2024	17:06	-127.644	47.469	0	1275.60	0	2.9450	0	34.4700	0	27.475	0	1261.092	0	15.4	4	4.8	4	-1E+10	1	-1E+10	1	-1E+10	1	-1E+10	1	-1E+10	1	-1E+10	1
4902663	33	C	06/25/2024	17:06	-127.644	47.469	0	1285.50	0	2.9270	0	34.4710	0	27.478	0	1270.849	0	15.7	4	4.8	4	-1E+10	1	-1E+10	1	-1E+10	1	-1E+10	1	-1E+10	1	-1E+10	1
4902663	33	C	06/25/2024	17:06	-127.644	47.469	0	1295.40	0	2.8990	0	34.4720	0	27.481	0	1280.606	0	16.1	4	5.0	4	-1E+10	1	-1E+10	1	-1E+10	1	-1E+10	1	-1E+10	1	-1E+10	1
4902663	33	C	06/25/2024	17:06	-127.644	47.469	0	1305.60	0	2.8700	0	34.4760	0	27.487	0	1290.659	0	16.6	4	5.1	4	-1E+10	1	-1E+10	1	-1E+10	1	-1E+10	1	-1E+10	1	-1E+10	1
4902663	33	C	06/25/2024	17:06	-127.644	47.469	0	1315.30	0	2.8480	0	34.4790	0	27.491	0	1300.218	0	17.1	4	5.3	4	-1E+10	1	-1E+10	1	-1E+10	1	-1E+10	1	-1E+10	1	-1E+10	1
4902663	33	C	06/25/2024	17:06	-127.644	47.469	0	1325.10	0	2.8270	0	34.4820	0	27.495	0	1309.875	0	17.5	4	5.4	4	-1E+10	1	-1E+10	1	-1E+10	1	-1E+10	1	-1E+10	1	-1E+10	1
4902663	33	C	06/25/2024	17:06	-127.644	47.469	0	1335.40	0	2.8060	0	34.4840	0	27.499	0	1320.024	0	18.0	4	5.5	4	-1E+10	1	-1E+10	1	-1E+10	1	-1E+10	1	-1E+10	1	-1E+10	1
4902663	33	C	06/25/2024	17:06	-127.644	47.469	0	1345.60	0	2.7870	0	34.4860	0	27.502	0	1330.075	0	18.4	4	5.6	4	-1E+10	1	-1E+10	1	-1E+10	1	-1E+10	1	-1E+10	1	-1E+10	1
4902663	33	C	06/25/2024	17:06	-127.644	47.469	0	1355.30	0	2.7650	0	34.4890	0	27.507	0	1339.632	0	18.7	4	5.8	4	-1E+10	1	-1E+10	1	-1E+10	1	-1E+10	1	-1E+10	1	-1E+10	1
4902663	33	C	06/25/2024	17:06	-127.644	47.469	0	1365.30	0	2.7420	0	34.4910	0	27.510	0	1349.484	0	19.2	4	5.9	4	-1E+10	1	-1E+10	1	-1E+10	1	-1E+10	1	-1E+10	1	-1E+10	1
4902663	33	C	06/25/2024	17:06	-127.644	47.469	0	1375.40	0	2.7180	0	34.4930	0	27.514	0	1359.435	0	20.0	4	6.1	4	-1E+10	1	-1E+10	1	-1E+10	1	-1E+10	1	-1E+10	1	-1E+10	1
4902663	33	C	06/25/2024	17:06	-127.644	47.469	0	1385.50	0	2.7020	0	34.4970	0	27.519	0	1369.385	0	20.8	4	6.4	4	-1E+10	1	-1E+10	1	-1E+10	1	-1E+10	1	-1E+10	1	-1E+10	1
4902663	33	C	06/25/2024	17:06	-127.644	47.469	0	1395.80	0	2.6890	0	34.5000	0	27.522	0	1379.531	0	21.3	4	6.5	4	-1E+10	1	-1E+10	1	-1E+10	1	-1E+10	1	-1E+10	1	-1E+10	1
4902663	33	C	06/25/2024	17:06	-127.644	47.469	0	1405.50	0	2.6680	0	34.5020	0	27.526	0	1389.086	0	21.8	4	6.7	4	-1E+10	1	-1E+10	1	-1E+10	1	-1E+10	1	-1E+10	1	-1E+10	1
4902663	33	C	06/25/2024	17:06	-127.644	47.469	0	1415.40	0	2.6560	0	34.5030	0	27.527	0	1398.838	0	22.1	4	6.8	4	-1E+10	1	-1E+10	1	-1E+10	1	-1E+10	1	-1E+10	1	-1E+10	1
4902663	33	C	06/25/2024	17:06	-127.644	47.469	0	1425.40	0	2.6370	0	34.5050	0	27.531	0	1408.688	0	22.6	4	6.9	4	-1E+10	1	-1E+10	1	-1E+10	1	-1E+10	1	-1E+10	1	-1E+10	1
4902663	33	C	06/25/2024	17:06	-127.644	47.469	0	1435.50	0	2.6190	0	34.5070	0	27.534	0	1418.635	0	23.0	4	7.0	4	-1E+10	1	-1E+10	1	-1E+10	1	-1E+10	1	-1E+10	1	-1E+10	1
4902663	33	C	06/25/2024	17:06	-127.644	47.469	0	1445.70	0	2.6030	0	34.5080	0	27.536	0	1428.681	0	23.5	4	7.2	4	-1E+10	1	-1E+10	1	-1E+10	1	-1E+10	1	-1E+10	1	-1E+10	1
4902663	33	C	06/25/2024	17:06	-127.644	47.469	0	1455.50	0	2.5800	0	34.5100	0	27.540	0	1438.332	0	23.8	4	7.3	4	-1E+10	1	-1E+10	1	-1E+10	1	-1E+10	1	-1E+10	1	-1E+10	1
4902663	33	C	06/25/2024	17:06	-127.644	47.469	0	1465.30	0	2.5530	0	34.5090	0	27.541	0	1447.983	0	23.4	4	7.1	4	-1E+10	1	-1E+10	1	-1E+10	1	-1E+10	1	-1E+10	1	-1E+10	1
4902663	33	C	06/25/2024	17:06	-127.644	47.469	0	1475.10	0	2.5140	0	34.5070	0	27.543	0	1457.633	0	23.4	4	7.1	4	-1E+10	1	-1E+10	1	-1E+10	1	-1E+10	1	-1E+10	1	-1E+10	1
4902663	33	C	06/25/2024	17:06	-127.644	47.469	0	1485.40	0	2.5020	0	34.5090	0	27.546	0	1467.776	0	24.0	4	7.3	4	-1E+10	1	-1E+10	1	-1E+10	1	-1E+10	1	-1E+10	1	-1E+10	1
4902663	33	C	06/25/2024	17:06	-127.644	47.469	0	1495.70	0	2.4940	0	34.5120	0	27.549	0	1477.917	0	24.7	4	7.5	4	-1E+10	1	-1E+10	1	-1E+10	1	-1E+10	1	-1E+10	1	-1E+10	1
4902663	33	C	06/25/2024	17:06	-127.644	47.469	0	1505.70	0	2.4720	0	34.5130	0	27.552	0	1487.763	0	25.2	4	7.7	4	-1E+10	1	-1E+10	1	-1E+10	1	-1E+10	1	-1E+10	1	-1E+10	1
4902663	33	C	06/25/2024	17:06	-127.644	47.469	0	1515.70	0	2.4590	0	34.5160	0	27.555	0	1497.609	0	25.8	4	7.9	4	-1E+10	1	-1E+10	1	-1E+10	1	-1E+10	1	-1E+10	1	-1E+10	1
4902663	33	C	06/25/2024	17:06	-127.644	47.469	0	1525.40	0	2.4480	0	34.5180	0	27.558	0	1507.159	0	26.6	4	8.1	4	-1E+10	1	-1E+10	1	-1E+10	1	-1E+10	1	-1E+10	1	-1E+10	1
4902663	33	C	06/25/2024	17:06	-127.644	47.469	0	1535.20	0	2.4380	0	34.5230	0	27.563	0	1516.806	0	27.6	4	8.4	4	-1E+10	1	-1E+10	1	-1E+10	1	-1E+10	1	-1E+10	1	-1E+10	1
4902663	33	C	06/25/2024	17:06	-127.644	47.469	0	1545.40	0	2.4200	0	34.5260	0	27.566	0	1526.847	0	28.3	4	8.6	4	-1E+10	1	-1E+10	1	-1E+10	1	-1E+10	1	-1E+10	1	-1E+10	1
4902663	33	C	06/25/2024	17:06	-127.644	47.469	0	1555.20	0	2.4080	0	34.5280	0	27.569	0	1536.494	0	28.9	4	8.8	4	-1E+10	1	-1E+10	1	-1E+10	1	-1E+10	1	-1E+10	1	-1E+10	1
4902663	33	C	06/25/2024	17:06	-127.644	47.469	0	1565.30	0	2.3880	0	34.5300	0	27.572	0	1546.436	0	29.5	4	9.0	4	-1E+10	1	-1E+10	1	-1E+10	1	-1E+10	1	-1E+10	1	-1E+10	1
4902663	33	C	06/25/2024	17:06	-127.644	47.469	0	1575.40	0	2.3700	0	34.5320	0	27.576	0	1556.377	0	30.0	4	9.1	4	-1E+10	1	-1E+10	1	-1E+10	1	-1E+10	1	-1E+10	1	-1E+10	1
4902663	33	C	06/25/2024	17:06	-127.644	47.469	0	1585.30	0	2.3600	0	34.5330	0	27.577	0	1566.121	0	30.3	4	9.2	4	-1E+10	1	-1E+10	1	-1E+10	1	-1E+10	1	-1E+10	1	-1E+10	1
4902663	33	C	06/25/2024	17:06	-127.644	47.469	0	1595.20	0	2.3380	0	34.5330	0	27.579	0	1575.864	0	30.7	4	9.3	4	-1E+10	1	-1E+10	1	-1E+10	1	-1E+10	1	-1E+10	1	-1E+10	1
4902663	33	C	06/25/2024	17:06	-127.644	47.469	0	1605.10	0	2.3100	0	34.5330	0	27.581	0	1585.607	0	31.3	4	9.5	4	-1E+10	1	-1E+10	1	-1E+10	1	-1E+10	1	-1E+10	1	-1E+10	1
4902663	33	C	06/25/2024	17:06	-127.644	47.469	0	1615.10	0	2.2960	0	34.5350	0	27.584	0	1595.448	0	31.9	4	9.7	4	-1E+10	1	-1E+10	1	-1E+10	1	-1E+10	1	-1E+10	1	-1E+10	1
4902663	33	C	06/25/2024	17:06	-127.644	47.469	0	1625.20	0	2.2810	0	34.5380	0	27.588	0	1605.387	0	32.7	4	9.9	4	-1E+10	1	-1E+10	1	-1E+10	1	-1E+10	1	-1E+10	1	-1E+10	1
4902663	33	C	06/25/2024	17:06	-127.644	47.469	0	1635.40	0	2.2790	0	34.5420	0	27.591	0	1615.423	0	33.4	4	10.1	4	-1E+10	1	-1E+10	1	-1E+10	1	-1E+10	1	-1E+10	1	-1E+10	1
4902663	33	C	06/25/2024	17:06	-127.644	47.469	0	1645.30	0	2.2630	0	34.5430	0	27.593	0	1625.165	0	33.9	4	10.3	4	-1E+10	1	-1E+10	1	-1E+10	1	-1E+10	1	-1E+10	1	-1E+10	1
4902663	33	C	06/25/2024	17:06	-127.644	47.469	0	1655.30	0	2.2410	0	34.5430	0	27.595	0	1635.004	0	34.4	4	10.4	4	-1E+10	1	-1E+10	1	-1E+10	1	-1E+10	1	-1E+10	1	-1E+10	1
4902663	33	C	06/25/2024	17:06	-127.644	47.469	0	1665.70	0	2.2320	0	34.5440	0	27.597	0	1645.236	0	35.0	4	10.6	4	-1E+10	1	-1E+10	1	-1E+10	1	-1E+10	1	-1E+10	1	-1E+10	1
4902663	33	C	06/25/2024	17:06	-127.644	47.469	0	1675.70	0	2.2210	0	34.5450	0	27.599	0	1655.074	0	35.6	4	10.8	4	-1E+10	1	-1E+10	1	-1E+10	1	-1E+10	1	-1E+10	1	-1E+10	1
4902663	33	C	06/25/2024	17:06	-127.644	47.469	0	1685.30	0	2.2090	0	34.5470	0	27.601	0	1664.518	0	36.1	4	11.0	4	-1E+10	1	-1E+10	1	-1E+10	1	-1E+10	1	-1E+10	1	-1E+10	1
4902663	33	C	06/25/2024	17:06	-127.644	47.469	0	1695.10	0	2.1990	0	34.5480	0	27.603	0	1674.159	0	36.7	4	11.1	4	-1E+10	1	-1E+10	1	-1E+10	1	-1E+10	1	-1E+10	1	-1E+10	1
4902663	33	C	06/25/2024	17:06	-127.644	47.469	0	1705.20	0	2.1860	0	34.5500	0	27.606	0	1684.094	0	37.3	4	11.3	4	-1E+10	1	-1E+10	1	-1E+10	1	-1E+10	1	-1E+10	1	-1E+10	1
4902663	33	C	06/25/2024	17:06	-127.644	47.469	0	1715.00	0	2.1790	0	34.5520	0	27.608	0	1693.733	0	38.1	4	11.5	4	-1E+10	1	-1E+10	1	-1E+10	1	-1E+10	1	-1E+10	1	-1E+10	1
4902663	33	C	06/25/2024	17:06	-127.644	47.469	0	1725.00	0	2.1800	0	34.5560	0	27.611	0	1703.569	0	38.9	4	11.8	4	-1E+10	1	-1E+10	1	-1E+10	1	-1E+10	1	-1E+10	1	-1E+10	1
4902663	33	C	06/25/2024	17:06	-127.644	47.469	0	1735.10	0	2.1690	0	34.5570	0	27.613	0	1713.503	0	39.4	4	11.9	4	-1E+10	1	-1E+10	1	-1E+10	1	-1E+10	1	-1E+10	1	-1E+10	1
4902663	33	C	06/25/2024	17:06	-127.644	47.469	0	1745.40	0	2.1510	0	34.5580	0	27.615	0	1723.633	0	39.9	4	12.1	4	-1E+10	1	-1E+10	1	-1E+10	1	-1E+10	1	-1E+10	1	-1E+10	1
4902663	33	C	06/25/2024	17:06	-127.644	47.469	0	1755.20	0	2.1380	0	34.5590	0	27.617	0	1733.271	0	40.4	4	12.2	4	-1E+10	1	-1E+10	1	-1E+10	1	-1E+10	1	-1E+10	1	-1E+10	1
4902663	33	C	06/25/2024	17:06	-127.644	47.469	0	1765.10	0	2.1320	0	34.5600	0	27.618	0	1743.006	0	40.8	4	12.3	4	-1E+10	1	-1E+10	1	-1E+10	1	-1E+10	1	-1E+10	1	-1E+10	1
4902663	33	C	06/25/2024	17:06	-127.644	47.469	0	1775.30	0	2.1240	0	34.5610	0	27.620	0	1753.037	0	41.3	4	12.5	4	-1E+10	1	-1E+10	1	-1E+10	1	-1E+10	1	-1E+10	1	-1E+10	1
4902663	33	C	06/25/2024	17:06	-127.644	47.469	0	1785.30	0	2.1130	0	34.5630	0	27.622	0	1762.870	0	41.9	4	12.7	4	-1E+10	1	-1E+10	1	-1E+10	1	-1E+10	1	-1E+10	1	-1E+10	1
4902663	33	C	06/25/2024	17:06	-127.644	47.469	0	1795.00	0	2.1110	0	34.5640	0	27.623	0	1772.407	0	42.4	4	12.8	4	-1E+10	1	-1E+10	1	-1E+10	1	-1E+10	1	-1E+10	1	-1E+10	1
4902663	33	C	06/25/2024	17:06	-127.644	47.469	0	1805.10	0	2.0990	0	34.5660	0	27.626	0	1782.338	0	43.1	4	13.0	4	-1E+10	1	-1E+10	1	-1E+10	1	-1E+10	1	-1E+10	1	-1E+10	1
4902663	33	C	06/25/2024	17:06	-127.644	47.469	0	1815.30	0	2.0910	0	34.5680	0	27.628	0	1792.366	0	43.7	4	13.2	4	-1E+10	1	-1E+10	1	-1E+10	1	-1E+10	1	-1E+10	1	-1E+10	1
4902663	33	C	06/25/2024	17:06	-127.644	47.469	0	1825.40	0	2.0820	0	34.5690	0	27.630	0	1802.296	0	44.2	4	13.4	4	-1E+10	1	-1E+10	1	-1E+10	1	-1E+10	1	-1E+10	1	-1E+10	1
4902663	33	C	06/25/2024	17:06	-127.644	47.469	0	1835.30	0	2.0750	0	34.5700	0	27.631	0	1812.028	0	44.7	4	13.5	4	-1E+10	1	-1E+10	1	-1E+10	1	-1E+10	1	-1E+10	1	-1E+10	1
4902663	33	C	06/25/2024	17:06	-127.644	47.469	0	1845.30	0	2.0650	0	34.5720	0	27.633	0	1821.859	0	45.4	4	13.7	4	-1E+10	1	-1E+10	1	-1E+10	1	-1E+10	1	-1E+10	1	-1E+10	1
4902663	33	C	06/25/2024	17:06	-127.644	47.469	0	1855.40	0	2.0520	0	34.5740	0	27.636	0	1831.787	0	46.0	4	13.9	4	-1E+10	1	-1E+10	1	-1E+10	1	-1E+10	1	-1E+10	1	-1E+10	1
4902663	33	C	06/25/2024	17:06	-127.644	47.469	0	1865.60	0	2.0430	0	34.5750	0	27.638	0	1841.813	0	46.6	4	14.1	4	-1E+10	1	-1E+10	1	-1E+10	1	-1E+10	1	-1E+10	1	-1E+10	1
4902663	33	C	06/25/2024	17:06	-127.644	47.469	0	1875.40	0	2.0350	0	34.5760	0	27.639	0	1851.445	0	47.2	4	14.2	4	-1E+10	1	-1E+10	1	-1E+10	1	-1E+10	1	-1E+10	1	-1E+10	1
4902663	33	C	06/25/2024	17:06	-127.644	47.469	0	1885.30	0	2.0250	0	34.5780	0	27.642	0	1861.176	0	47.8	4	14.4	4	-1E+10	1	-1E+10	1	-1E+10	1	-1E+10	1	-1E+10	1	-1E+10	1
4902663	33	C	06/25/2024	17:06	-127.644	47.469	0	1895.30	0	2.0150	0	34.5790	0	27.643	0	1871.004	0	48.3	4	14.6	4	-1E+10	1	-1E+10	1	-1E+10	1	-1E+10	1	-1E+10	1	-1E+10	1
4902663	33	C	06/25/2024	17:06	-127.644	47.469	0	1905.20	0	2.0120	0	34.5800	0	27.644	0	1880.733	0	48.7	4	14.7	4	-1E+10	1	-1E+10	1	-1E+10	1	-1E+10	1	-1E+10	1	-1E+10	1
4902663	33	C	06/25/2024	17:06	-127.644	47.469	0	1915.50	0	2.0040	0	34.5810	0	27.646	0	1890.855	0	49.3	4	14.9	4	-1E+10	1	-1E+10	1	-1E+10	1	-1E+10	1	-1E+10	1	-1E+10	1
4902663	33	C	06/25/2024	17:06	-127.644	47.469	0	1925.70	0	1.9950	0	34.5830	0	27.648	0	1900.878	0	49.9	4	15.0	4	-1E+10	1	-1E+10	1	-1E+10	1	-1E+10	1	-1E+10	1	-1E+10	1
4902663	33	C	06/25/2024	17:06	-127.644	47.469	0	1935.50	0	1.9860	0	34.5840	0	27.650	0	1910.508	0	50.5	4	15.2	4	-1E+10	1	-1E+10	1	-1E+10	1	-1E+10	1	-1E+10	1	-1E+10	1
4902663	33	C	06/25/2024	17:06	-127.644	47.469	0	1945.40	0	1.9760	0	34.5860	0	27.652	0	1920.236	0	51.1	4	15.4	4	-1E+10	1	-1E+10	1	-1E+10	1	-1E+10	1	-1E+10	1	-1E+10	1
4902663	33	C	06/25/2024	17:06	-127.644	47.469	0	1955.50	0	1.9690	0	34.5870	0	27.654	0	1930.159	0	51.6	4	15.5	4	-1E+10	1	-1E+10	1	-1E+10	1	-1E+10	1	-1E+10	1	-1E+10	1
4902663	33	C	06/25/2024	17:06	-127.644	47.469	0	1965.30	0	1.9630	0	34.5880	0	27.655	0	1939.788	0	52.1	4	15.7	4	-1E+10	1	-1E+10	1	-1E+10	1	-1E+10	1	-1E+10	1	-1E+10	1
4902663	33	C	06/25/2024	17:06	-127.644	47.469	0	1975.10	0	1.9570	0	34.5900	0	27.657	0	1949.416	0	52.5	4	15.8	4	-1E+10	1	-1E+10	1	-1E+10	1	-1E+10	1	-1E+10	1	-1E+10	1
4902663	33	C	06/25/2024	17:06	-127.644	47.469	0	1985.40	0	1.9500	0	34.5910	0	27.658	0	1959.534	0	53.0	4	16.0	4	-1E+10	1	-1E+10	1	-1E+10	1	-1E+10	1	-1E+10	1	-1E+10	1
4902663	33	C	06/25/2024	17:06	-127.644	47.469	0	1995.60	0	1.9420	0	34.5920	0	27.660	0	1969.554	0	53.4	4	16.1	4	-1E+10	1	-1E+10	1	-1E+10	1	-1E+10	1	-1E+10	1	-1E+10	1
4902663	33	C	06/25/2024	17:06	-127.644	47.469	0	2005.00	0	1.9370	0	34.5930	0	27.661	0	1978.788	0	53.4	4	16.1	4	-1E+10	1	-1E+10	1	-1E+10	1	-1E+10	1	-1E+10	1	-1E+10	1
4902663	33	C	06/25/2024	17:06	-127.644	47.469	0																										
4902663	34	C	07/05/2024	12:12	-127.302	47.248	0	0.10	0	14.9330	0	32.0650	0	23.725	0	0.099	0	247.8	4	97.9	4	-1E+10	1	-1E+10	1	-1E+10	1	-1E+10	1	-1E+10	1	-1E+10	1
4902663	34	C	07/05/2024	12:12	-127.302	47.248	0	0.20	0	14.9330	0	32.0649	0	23.725	0	0.198	0	247.8	4	97.9	4	-1E+10	1	-1E+10	1	-1E+10	1	-1E+10	1	-1E+10	1	-1E+10	1
4902663	34	C	07/05/2024	12:12	-127.302	47.248	0	0.90	0	14.9330	0	32.0640	0	23.725	0	0.893	0	247.8	4	97.9	4	-1E+10	1	-1E+10	1	-1E+10	1	-1E+10	1	-1E+10	1	-1E+10	1
4902663	34	C	07/05/2024	12:12	-127.302	47.248	0	1.80	0	14.9320	0	32.0650	0	23.726	0	1.785	0	247.9	4	97.9	4	-1E+10	1	-1E+10	1	-1E+10	1	-1E+10	1	-1E+10	1	-1E+10	1
4902663	34	C	07/05/2024	12:12	-127.302	47.248	0	2.90	0	14.9330	0	32.0650	0	23.725	0	2.876	0	247.9	4	97.9	4	-1E+10	1	-1E+10	1	-1E+10	1	-1E+10	1	-1E+10	1	-1E+10	1
4902663	34	C	07/05/2024	12:12	-127.302	47.248	0	4.10	0	14.9340	0	32.0680	0	23.728	0	4.066	0	247.9	4	97.9	4	-1E+10	1	-1E+10	1	-1E+10	1	-1E+10	1	-1E+10	1	-1E+10	1
4902663	34	C	07/05/2024	12:12	-127.302	47.248	0	5.00	0	14.9330	0	32.0690	0	23.729	0	4.958	0	248.0	4	97.9	4	-1E+10	1	-1E+10	1	-1E+10	1	-1E+10	1	-1E+10	1	-1E+10	1
4902663	34	C	07/05/2024	12:12	-127.302	47.248	0	5.80	0	14.9330	0	32.0690	0	23.729	0	5.752	0	248.0	4	97.9	4	-1E+10	1	-1E+10	1	-1E+10	1	-1E+10	1	-1E+10	1	-1E+10	1
4902663	34	C	07/05/2024	12:12	-127.302	47.248	0	6.70	0	14.9330	0	32.0690	0	23.729	0	6.644	0	248.1	4	98.0	4	-1E+10	1	-1E+10	1	-1E+10	1	-1E+10	1	-1E+10	1	-1E+10	1
4902663	34	C	07/05/2024	12:12	-127.302	47.248	0	7.90	0	14.9330	0	32.0680	0	23.728	0	7.834	0	248.3	4	98.1	4	-1E+10	1	-1E+10	1	-1E+10	1	-1E+10	1	-1E+10	1	-1E+10	1
4902663	34	C	07/05/2024	12:12	-127.302	47.248	0	9.30	0	14.9330	0	32.0680	0	23.728	0	9.222	0	248.6	4	98.2	4	-1E+10	1	-1E+10	1	-1E+10	1	-1E+10	1	-1E+10	1	-1E+10	1
4902663	34	C	07/05/2024	12:12	-127.302	47.248	0	10.30	0	14.9350	0	32.0680	0	23.728	0	10.214	0	248.7	4	98.2	4	-1E+10	1	-1E+10	1	-1E+10	1	-1E+10	1	-1E+10	1	-1E+10	1
4902663	34	C	07/05/2024	12:12	-127.302	47.248	0	11.20	0	14.9350	0	32.0680	0	23.728	0	11.106	0	249.0	4	98.3	4	-1E+10	1	-1E+10	1	-1E+10	1	-1E+10	1	-1E+10	1	-1E+10	1
4902663	34	C	07/05/2024	12:12	-127.302	47.248	0	12.20	0	14.9340	0	32.0670	0	23.727	0	12.098	0	249.3	4	98.5	4	-1E+10	1	-1E+10	1	-1E+10	1	-1E+10	1	-1E+10	1	-1E+10	1
4902663	34	C	07/05/2024	12:12	-127.302	47.248	0	13.30	0	14.9240	0	32.0720	0	23.733	0	13.189	0	249.8	4	98.6	4	-1E+10	1	-1E+10	1	-1E+10	1	-1E+10	1	-1E+10	1	-1E+10	1
4902663	34	C	07/05/2024	12:12	-127.302	47.248	0	14.40	0	14.9070	0	32.0780	0	23.741	0	14.280	0	250.2	4	98.8	4	-1E+10	1	-1E+10	1	-1E+10	1	-1E+10	1	-1E+10	1	-1E+10	1
4902663	34	C	07/05/2024	12:12	-127.302	47.248	0	15.50	0	14.8450	0	32.0940	0	23.767	0	15.370	0	250.7	4	98.8	4	-1E+10	1	-1E+10	1	-1E+10	1	-1E+10	1	-1E+10	1	-1E+10	1
4902663	34	C	07/05/2024	12:12	-127.302	47.248	0	16.50	0	14.8300	0	32.0920	0	23.769	0	16.362	0	251.2	4	99.0	4	-1E+10	1	-1E+10	1	-1E+10	1	-1E+10	1	-1E+10	1	-1E+10	1
4902663	34	C	07/05/2024	12:12	-127.302	47.248	0	18.00	0	14.7330	0	32.1090	0	23.802	0	17.849	0	252.3	4	99.3	4	-1E+10	1	-1E+10	1	-1E+10	1	-1E+10	1	-1E+10	1	-1E+10	1
4902663	34	C	07/05/2024	12:12	-127.302	47.248	0	19.10	0	14.7220	0	32.1090	0	23.805	0	18.940	0	253.4	4	99.7	4	-1E+10	1	-1E+10	1	-1E+10	1	-1E+10	1	-1E+10	1	-1E+10	1
4902663	34	C	07/05/2024	12:12	-127.302	47.248	0	19.80	0	14.7040	0	32.1100	0	23.809	0	19.634	0	254.2	4	100.0	4	-1E+10	1	-1E+10	1	-1E+10	1	-1E+10	1	-1E+10	1	-1E+10	1
4902663	34	C	07/05/2024	12:12	-127.302	47.248	0	20.80	0	14.6930	0	32.1060	0	23.809	0	20.626	0	255.6	4	100.5	4	-1E+10	1	-1E+10	1	-1E+10	1	-1E+10	1	-1E+10	1	-1E+10	1
4902663	34	C	07/05/2024	12:12	-127.302	47.248	0	21.90	0	14.6840	0	32.1030	0	23.808	0	21.717	0	257.6	4	101.3	4	-1E+10	1	-1E+10	1	-1E+10	1	-1E+10	1	-1E+10	1	-1E+10	1
4902663	34	C	07/05/2024	12:12	-127.302	47.248	0	22.90	0	14.6470	0	32.0980	0	23.812	0	22.708	0	260.2	4	102.2	4	-1E+10	1	-1E+10	1	-1E+10	1	-1E+10	1	-1E+10	1	-1E+10	1
4902663	34	C	07/05/2024	12:12	-127.302	47.248	0	24.10	0	14.2770	0	32.1730	0	23.948	0	23.898	0	263.7	4	102.9	4	-1E+10	1	-1E+10	1	-1E+10	1	-1E+10	1	-1E+10	1	-1E+10	1
4902663	34	C	07/05/2024	12:12	-127.302	47.248	0	25.00	0	13.5520	0	32.2880	0	24.185	0	24.790	0	266.7	4	102.6	4	-1E+10	1	-1E+10	1	-1E+10	1	-1E+10	1	-1E+10	1	-1E+10	1
4902663	34	C	07/05/2024	12:12	-127.302	47.248	0	25.90	0	13.3650	0	32.2700	0	24.208	0	25.683	0	268.3	4	102.8	4	-1E+10	1	-1E+10	1	-1E+10	1	-1E+10	1	-1E+10	1	-1E+10	1
4902663	34	C	07/05/2024	12:12	-127.302	47.248	0	26.90	0	13.2350	0	32.2700	0	24.234	0	26.674	0	269.0	4	102.8	4	-1E+10	1	-1E+10	1	-1E+10	1	-1E+10	1	-1E+10	1	-1E+10	1
4902663	34	C	07/05/2024	12:12	-127.302	47.248	0	27.80	0	13.1610	0	32.2720	0	24.250	0	27.567	0	269.7	4	102.9	4	-1E+10	1	-1E+10	1	-1E+10	1	-1E+10	1	-1E+10	1	-1E+10	1
4902663	34	C	07/05/2024	12:12	-127.302	47.248	0	28.70	0	13.1060	0	32.2640	0	24.255	0	28.459	0	269.7	4	102.8	4	-1E+10	1	-1E+10	1	-1E+10	1	-1E+10	1	-1E+10	1	-1E+10	1
4902663	34	C	07/05/2024	12:12	-127.302	47.248	0	29.60	0	13.0500	0	32.2660	0	24.267	0	29.352	0	269.9	4	102.8	4	-1E+10	1	-1E+10	1	-1E+10	1	-1E+10	1	-1E+10	1	-1E+10	1
4902663	34	C	07/05/2024	12:12	-127.302	47.248	0	30.60	0	12.9720	0	32.2630	0	24.280	0	30.343	0	270.2	4	102.7	4	-1E+10	1	-1E+10	1	-1E+10	1	-1E+10	1	-1E+10	1	-1E+10	1
4902663	34	C	07/05/2024	12:12	-127.302	47.248	0	31.50	0	12.9220	0	32.2650	0	24.292	0	31.235	0	270.2	4	102.6	4	-1E+10	1	-1E+10	1	-1E+10	1	-1E+10	1	-1E+10	1	-1E+10	1
4902663	34	C	07/05/2024	12:12	-127.302	47.248	0	32.90	0	12.8110	0	32.2630	0	24.312	0	32.624	0	270.0	4	102.3	4	-1E+10	1	-1E+10	1	-1E+10	1	-1E+10	1	-1E+10	1	-1E+10	1
4902663	34	C	07/05/2024	12:12	-127.302	47.248	0	34.40	0	12.6950	0	32.2650	0	24.336	0	34.111	0	269.9	4	102.0	4	-1E+10	1	-1E+10	1	-1E+10	1	-1E+10	1	-1E+10	1	-1E+10	1
4902663	34	C	07/05/2024	12:12	-127.302	47.248	0	35.30	0	12.6440	0	32.2650	0	24.345	0	35.003	0	269.6	4	101.8	4	-1E+10	1	-1E+10	1	-1E+10	1	-1E+10	1	-1E+10	1	-1E+10	1
4902663	34	C	07/05/2024	12:12	-127.302	47.248	0	36.30	0	12.5510	0	32.2670	0	24.365	0	35.995	0	269.6	4	101.6	4	-1E+10	1	-1E+10	1	-1E+10	1	-1E+10	1	-1E+10	1	-1E+10	1
4902663	34	C	07/05/2024	12:12	-127.302	47.248	0	37.30	0	12.4450	0	32.2580	0	24.378	0	36.986	0	269.7	4	101.4	4	-1E+10	1	-1E+10	1	-1E+10	1	-1E+10	1	-1E+10	1	-1E+10	1
4902663	34	C	07/05/2024	12:12	-127.302	47.248	0	38.20	0	12.4100	0	32.2570	0	24.384	0	37.879	0	269.7	4	101.3	4	-1E+10	1	-1E+10	1	-1E+10	1	-1E+10	1	-1E+10	1	-1E+10	1
4902663	34	C	07/05/2024	12:12	-127.302	47.248	0	39.20	0	12.3560	0	32.2600	0	24.397	0	38.870	0	269.7	4	101.2	4	-1E+10	1	-1E+10	1	-1E+10	1	-1E+10	1	-1E+10	1	-1E+10	1
4902663	34	C	07/05/2024	12:12	-127.302	47.248	0	40.10	0	12.2470	0	32.2600	0	24.417	0	39.762	0	269.9	4	101.1	4	-1E+10	1	-1E+10	1	-1E+10	1	-1E+10	1	-1E+10	1	-1E+10	1
4902663	34	C	07/05/2024	12:12	-127.302	47.248	0	41.00	0	12.0350	0	32.2810	0	24.473	0	40.655	0	270.0	4	100.7	4	-1E+10	1	-1E+10	1	-1E+10	1	-1E+10	1	-1E+10	1	-1E+10	1
4902663	34	C	07/05/2024	12:12	-127.302	47.248	0	41.90	0	11.8580	0	32.2650	0	24.493	0	41.547	0	270.5	4	100.5	4	-1E+10	1	-1E+10	1	-1E+10	1	-1E+10	1	-1E+10	1	-1E+10	1
4902663	34	C	07/05/2024	12:12	-127.302	47.248	0	42.90	0	11.6510	0	32.2640	0	24.531	0	42.539	0	270.9	4	100.2	4	-1E+10	1	-1E+10	1	-1E+10	1	-1E+10	1	-1E+10	1	-1E+10	1
4902663	34	C	07/05/2024	12:12	-127.302	47.248	0	43.90	0	11.4930	0	32.2810	0	24.572	0	43.530	0	270.9	4	99.9	4	-1E+10	1	-1E+10	1	-1E+10	1	-1E+10	1	-1E+10	1	-1E+10	1
4902663	34	C	07/05/2024	12:12	-127.302	47.248	0	44.80	0	11.3180	0	32.2770	0	24.601	0	44.422	0	271.2	4	99.6	4	-1E+10	1	-1E+10	1	-1E+10	1	-1E+10	1	-1E+10	1	-1E+10	1
4902663	34	C	07/05/2024	12:12	-127.302	47.248	0	45.80	0	11.2020	0	32.2740	0	24.619	0	45.414	0	271.1	4	99.3	4	-1E+10	1	-1E+10	1	-1E+10	1	-1E+10	1	-1E+10	1	-1E+10	1
4902663	34	C	07/05/2024	12:12	-127.302	47.248	0	46.80	0	11.0600	0	32.2790	0	24.648	0	46.405	0	271.0	4	99.0	4	-1E+10	1	-1E+10	1	-1E+10	1	-1E+10	1	-1E+10	1	-1E+10	1
4902663	34	C	07/05/2024	12:12	-127.302	47.248	0	47.70	0	10.9690	0	32.2890	0	24.672	0	47.298	0	270.6	4	98.7	4	-1E+10	1	-1E+10	1	-1E+10	1	-1E+10	1	-1E+10	1	-1E+10	1
4902663	34	C	07/05/2024	12:12	-127.302	47.248	0	48.60	0	10.8130	0	32.2920	0	24.702	0	48.190	0	270.1	4	98.2	4	-1E+10	1	-1E+10	1	-1E+10	1	-1E+10	1	-1E+10	1	-1E+10	1
4902663	34	C	07/05/2024	12:12	-127.302	47.248	0	49.90	0	10.6590	0	32.2920	0	24.728	0	49.479	0	269.6	4	97.7	4	-1E+10	1	-1E+10	1	-1E+10	1	-1E+10	1	-1E+10	1	-1E+10	1
4902663	34	C	07/05/2024	12:12	-127.302	47.248	0	51.00	0	10.4910	0	32.2970	0	24.761	0	50.569	0	268.9	4	97.0	4	-1E+10	1	-1E+10	1	-1E+10	1	-1E+10	1	-1E+10	1	-1E+10	1
4902663	34	C	07/05/2024	12:12	-127.302	47.248	0	52.00	0	10.4110	0	32.2960	0	24.774	0	51.561	0	267.9	4	96.5	4	-1E+10	1	-1E+10	1	-1E+10	1	-1E+10	1	-1E+10	1	-1E+10	1
4902663	34	C	07/05/2024	12:12	-127.302	47.248	0	53.10	0	10.3550	0	32.2990	0	24.786	0	52.651	0	266.7	4	96.0	4	-1E+10	1	-1E+10	1	-1E+10	1	-1E+10	1	-1E+10	1	-1E+10	1
4902663	34	C	07/05/2024	12:12	-127.302	47.248	0	53.90	0	10.2770	0	32.2990	0	24.799	0	53.444	0	266.1	4	95.6	4	-1E+10	1	-1E+10	1	-1E+10	1	-1E+10	1	-1E+10	1	-1E+10	1
4902663	34	C	07/05/2024	12:12	-127.302	47.248	0	55.00	0	10.0970	0	32.3070	0	24.835	0	54.535	0	265.3	4	95.0	4	-1E+10	1	-1E+10	1	-1E+10	1	-1E+10	1	-1E+10	1	-1E+10	1
4902663	34	C	07/05/2024	12:12	-127.302	47.248	0	56.20	0	9.9490	0	32.3130	0	24.864	0	55.725	0	264.3	4	94.3	4	-1E+10	1	-1E+10	1	-1E+10	1	-1E+10	1	-1E+10	1	-1E+10	1
4902663	34	C	07/05/2024	12:12	-127.302	47.248	0	57.00	0	9.8630	0	32.3230	0	24.886	0	56.518	0	263.6	4	93.9	4	-1E+10	1	-1E+10	1	-1E+10	1	-1E+10	1	-1E+10	1	-1E+10	1
4902663	34	C	07/05/2024	12:12	-127.302	47.248	0	57.80	0	9.8440	0	32.3160	0	24.884	0	57.311	0	262.9	4	93.6	4	-1E+10	1	-1E+10	1	-1E+10	1	-1E+10	1	-1E+10	1	-1E+10	1
4902663	34	C	07/05/2024	12:12	-127.302	47.248	0	58.60	0	9.8170	0	32.3170	0	24.889	0	58.104	0	262.1	4	93.3	4	-1E+10	1	-1E+10	1	-1E+10	1	-1E+10	1	-1E+10	1	-1E+10	1
4902663	34	C	07/05/2024	12:12	-127.302	47.248	0	59.90	0	9.7310	0	32.3210	0	24.906	0	59.393	0	260.7	4	92.6	4	-1E+10	1	-1E+10	1	-1E+10	1	-1E+10	1	-1E+10	1	-1E+10	1
4902663	34	C	07/05/2024	12:12	-127.302	47.248	0	61.10	0	9.6540	0	32.3250	0	24.922	0	60.582	0	259.3	4	91.9	4	-1E+10	1	-1E+10	1	-1E+10	1	-1E+10	1	-1E+10	1	-1E+10	1
4902663	34	C	07/05/2024	12:12	-127.302	47.248	0	62.00	0	9.6060	0	32.3280	0	24.932	0	61.475	0	258.3	4	91.5	4	-1E+10	1	-1E+10	1	-1E+10	1	-1E+10	1	-1E+10	1	-1E+10	1
4902663	34	C	07/05/2024	12:12	-127.302	47.248	0	62.80	0	9.6040	0	32.3240	0	24.929	0	62.268	0	256.9	4	91.0	4	-1E+10	1	-1E+10	1	-1E+10	1	-1E+10	1	-1E+10	1	-1E+10	1
4902663	34	C	07/05/2024	12:12	-127.302	47.248	0	63.70	0	9.5990	0	32.3240	0	24.930	0	63.160	0	255.3	4	90.4	4	-1E+10	1	-1E+10	1	-1E+10	1	-1E+10	1	-1E+10	1	-1E+10	1
4902663	34	C	07/05/2024	12:12	-127.302	47.248	0	64.60	0	9.4890	0	32.3330	0	24.955	0	64.052	0	254.0	4	89.7	4	-1E+10	1	-1E+10	1	-1E+10	1	-1E+10	1	-1E+10	1	-1E+10	1
4902663	34	C	07/05/2024	12:12	-127.302	47.248	0	65.90	0	9.4230	0	32.3360	0	24.968	0	65.341	0	252.3	4	89.0	4	-1E+10	1	-1E+10	1	-1E+10	1	-1E+10	1	-1E+10	1	-1E+10	1
4902663	34	C	07/05/2024	12:12	-127.302	47.248	0	67.30	0	9.3460	0	32.3420	0	24.985	0	66.729	0	250.4	4	88.2	4	-1E+10	1	-1E+10	1	-1E+10	1	-1E+10	1	-1E+10	1	-1E+10	1
4902663	34	C	07/05/2024	12:12	-127.302	47.248	0	68.20	0	9.2790	0	32.3510	0	25.002	0	67.621	0	249.0	4	87.6	4	-1E+10	1	-1E+10	1	-1E+10	1	-1E+10	1	-1E+10	1	-1E+10	1
4902663	34	C	07/05/2024	12:12	-127.302	47.248	0	69.10	0	9.1570	0	32.3680	0	25.035	0	68.513	0	247.7	4	86.9	4	-1E+10	1	-1E+10	1	-1E+10	1	-1E+10	1	-1E+10	1	-1E+10	1
4902663	34	C	07/05/2024	12:12	-127.302	47.248	0	70.00	0	9.0970	0	32.3760	0	25.050	0	69.406	0	246.3	4	86.3	4	-1E+10	1	-1E+10	1	-1E+10	1	-1E+10	1	-1E+10	1	-1E+10	1
4902663	34	C	07/05/2024	12:12	-127.302	47.248	0	70.90	0	9.0720	0	32.3810	0	25.058	0	70.298	0	244.9	4	85.8	4	-1E+10	1	-1E+10	1	-1E+10	1	-1E+10	1	-1E+10	1	-1E+10	1
4902663	34	C	07/05/2024	12:12	-127.302	47.248	0	71.90	0	9.0220	0	32.3910	0	25.074	0	71.289	0	243.7	4	85.2	4	-1E+10	1	-1E+10	1	-1E+10	1	-1E+10	1	-1E+10	1	-1E+10	1
4902663	34	C	07/05/2024	12:12	-127.302	47.248	0	72.90	0	8.9490	0	32.4070	0	25.098	0	72.280	0	242.8	4	84.8	4	-1E+10	1	-1E+10	1	-1E+10	1	-1E+10	1	-1E+10	1	-1E+10	1
4902663	34	C	07/05/2024	12:12	-127.302	47.248	0	73.90	0	8.8830	0	32.4200	0	25.118	0	73.272	0	241.8	4	84.3	4	-1E+10	1	-1E+10	1	-1E+10	1	-1E+10	1	-1E+10	1	-1E+10	1
4902663	34	C	07/05/2024	12:12	-127.302	47.248	0	74.90	0	8.8490	0	32.4280	0	25.129	0	74.263	0	240.6	4	83.9	4	-1E+10	1	-1E+10	1	-1E+10	1	-1E+10	1	-1E+10	1	-1E+10	1
4902663	34	C	07/05/2024	12:12	-127.302	47.248	0	75.80	0	8.8470	0	32.4320	0	25.133	0	75.155	0	239.4	4	83.5	4	-1E+10	1	-1E+10	1	-1E+10	1	-1E+10	1	-1E+10	1	-1E+10	1
4902663	34	C	07/05/2024	12:12	-127.302	47.248	0	76.80	0	8.8190	0	32.4380	0	25.142	0	76.147	0	238.2	4	83.0	4	-1E+10	1	-1E+10	1	-1E+10	1	-1E+10	1	-1E+10	1	-1E+10	1
4902663	34	C	07/05/2024	12:12	-127.302	47.248	0	77.80	0	8.8000	0	32.4500	0	25.154	0	77.138	0	236.9	4	82.5	4	-1E+10	1	-1E+10	1	-1E+10	1	-1E+10	1	-1E+10	1	-1E+10	1
4902663	34	C	07/05/2024	12:12	-127.302	47.248	0	78.70	0	8.7750	0	32.4570	0	25.164	0	78.030	0	235.5	4	82.0	4	-1E+10	1	-1E+10	1	-1E+10	1	-1E+10	1	-1E+10	1	-1E+10	1
4902663	34	C	07/05/2024	12:12	-127.302	47.248	0	79.60	0	8.7540	0	32.4700	0	25.177	0	78.922	0	233.8	4	81.4	4	-1E+10	1	-1E+10	1	-1E+10	1	-1E+10	1	-1E+10	1	-1E+10	1
4902663	34	C	07/05/2024	12:12	-127.302	47.248	0	80.90	0	8.7120	0	32.4900	0	25.199	0	80.211	0	231.9	4	80.6	4	-1E+10	1	-1E+10	1	-1E+10	1	-1E+10	1	-1E+10	1	-1E+10	1
4902663	34	C	07/05/2024	12:12	-127.302	47.248	0	81.90	0	8.6580	0	32.5170	0	25.228	0	81.202	0	230.6	4	80.1	4	-1E+10	1	-1E+10	1	-1E+10	1	-1E+10	1	-1E+10	1	-1E+10	1
4902663	34	C	07/05/2024	12:12	-127.302	47.248	0	82.90	0	8.6310	0	32.5180	0	25.233	0	82.194	0	229.1	4	79.5	4	-1E+10	1	-1E+10	1	-1E+10	1	-1E+10	1	-1E+10	1	-1E+10	1
4902663	34	C	07/05/2024	12:12	-127.302	47.248	0	83.80	0	8.5870	0	32.5270	0	25.247	0	83.086	0	233.2	4	80.9	4	-1E+10	1	-1E+10	1	-1E+10	1	-1E+10	1	-1E+10	1	-1E+10	1
4902663	34	C	07/05/2024	12:12	-127.302	47.248	0	84.80	0	8.5330	0	32.5410	0	25.266	0	84.077	0	231.2	4	80.1	4	-1E+10	1	-1E+10	1	-1E+10	1	-1E+10	1	-1E+10	1	-1E+10	1
4902663	34	C	07/05/2024	12:12	-127.302	47.248	0	85.80	0	8.4470	0	32.5400	0	25.278	0	85.068	0	228.2	4	78.9	4	-1E+10	1	-1E+10	1	-1E+10	1	-1E+10	1	-1E+10	1	-1E+10	1
4902663	34	C	07/05/2024	12:12	-127.302	47.248	0	86.80	0	8.4370	0	32.5550	0	25.291	0	86.059	0	225.0	4	77.8	4	-1E+10	1	-1E+10	1	-1E+10	1	-1E+10	1	-1E+10	1	-1E+10	1
4902663	34	C	07/05/2024	12:12	-127.302	47.248	0	88.00	0	8.4360	0	32.5810	0	25.312	0	87.249	0	221.8	4	76.7	4	-1E+10	1	-1E+10	1	-1E+10	1	-1E+10	1	-1E+10	1	-1E+10	1
4902663	34	C	07/05/2024	12:12	-127.302	47.248	0	88.70	0	8.3610	0	32.5870	0	25.328	0	87.943	0	219.4	4	75.7	4	-1E+10	1	-1E+10	1	-1E+10	1	-1E+10	1	-1E+10	1	-1E+10	1
4902663	34	C	07/05/2024	12:12	-127.302	47.248	0	89.80	0	8.3170	0	32.6280	0	25.367	0	89.033	0	215.6	4	74.4	4	-1E+10	1	-1E+10	1	-1E+10	1	-1E+10	1	-1E+10	1	-1E+10	1
4902663	34	C	07/05/2024	12:12	-127.302	47.248	0	91.00	0	8.3150	0	32.6870	0	25.413	0	90.223	0	212.1	4	73.2	4	-1E+10	1	-1E+10	1	-1E+10	1	-1E+10	1	-1E+10	1	-1E+10	1
4902663	34	C	07/05/2024	12:12	-127.302	47.248	0	91.80	0	8.3120	0	32.7140	0	25.435	0	91.016	0	210.2	4	72.5	4	-1E+10	1	-1E+10	1	-1E+10	1	-1E+10	1	-1E+10	1	-1E+10	1
4902663	34	C	07/05/2024	12:12	-127.302	47.248	0	93.00	0	8.3030	0	32.7450	0	25.460	0	92.205	0	207.5	4	71.6	4	-1E+10	1	-1E+10	1	-1E+10	1	-1E+10	1	-1E+10	1	-1E+10	1
4902663	34	C	07/05/2024	12:12	-127.302	47.248	0	94.20	0	8.2840	0	32.7550	0	25.471	0	93.395	0	204.8	4	70.7	4	-1E+10	1	-1E+10	1	-1E+10	1	-1E+10	1	-1E+10	1	-1E+10	1
4902663	34	C	07/05/2024	12:12	-127.302	47.248	0	95.00	0	8.2710	0	32.7630	0	25.479	0	94.188	0	202.9	4	70.0	4	-1E+10	1	-1E+10	1	-1E+10	1	-1E+10	1	-1E+10	1	-1E+10	1
4902663	34	C	07/05/2024	12:12	-127.302	47.248	0	95.80	0	8.2270	0	32.7930	0	25.509	0	94.981	0	200.6	4	69.2	4	-1E+10	1	-1E+10	1	-1E+10	1	-1E+10	1	-1E+10	1	-1E+10	1
4902663	34	C	07/05/2024	12:12	-127.302	47.248	0	96.70	0	8.2860	0	32.8470	0	25.543	0	95.873	0	198.7	4	68.6	4	-1E+10	1	-1E+10	1	-1E+10	1	-1E+10	1	-1E+10	1	-1E+10	1
4902663	34	C	07/05/2024	12:12	-127.302	47.248	0	97.60	0	8.2670	0	32.8640	0	25.559	0	96.765	0	197.1	4	68.1	4	-1E+10	1	-1E+10	1	-1E+10	1	-1E+10	1	-1E+10	1	-1E+10	1
4902663	34	C	07/05/2024	12:12	-127.302	47.248	0	98.90	0	8.2450	0	32.8850	0	25.579	0	98.053	0	194.9	4	67.3	4	-1E+10	1	-1E+10	1	-1E+10	1	-1E+10	1	-1E+10	1	-1E+10	1
4902663	34	C	07/05/2024	12:12	-127.302	47.248	0	100.20	0	8.2340	0	32.9070	0	25.598	0	99.342	0	192.8	4	66.5	4	-1E+10	1	-1E+10	1	-1E+10	1	-1E+10	1	-1E+10	1	-1E+10	1
4902663	34	C	07/05/2024	12:12	-127.302	47.248	0	101.20	0	8.2310	0	32.9150	0	25.605	0	100.333	0	191.2	4	66.0	4	-1E+10	1	-1E+10	1	-1E+10	1	-1E+10	1	-1E+10	1	-1E+10	1
4902663	34	C	07/05/2024	12:12	-127.302	47.248	0	102.10	0	8.2160	0	32.9350	0	25.622	0	101.225	0	189.7	4	65.4	4	-1E+10	1	-1E+10	1	-1E+10	1	-1E+10	1	-1E+10	1	-1E+10	1
4902663	34	C	07/05/2024	12:12	-127.302	47.248	0	103.00	0	8.2090	0	32.9650	0	25.647	0	102.117	0	188.4	4	65.0	4	-1E+10	1	-1E+10	1	-1E+10	1	-1E+10	1	-1E+10	1	-1E+10	1
4902663	34	C	07/05/2024	12:12	-127.302	47.248	0	103.90	0	8.2100	0	32.9830	0	25.661	0	103.009	0	187.3	4	64.6	4	-1E+10	1	-1E+10	1	-1E+10	1	-1E+10	1	-1E+10	1	-1E+10	1
4902663	34	C	07/05/2024	12:12	-127.302	47.248	0	104.80	0	8.1990	0	32.9930	0	25.670	0	103.901	0	186.0	4	64.2	4	-1E+10	1	-1E+10	1	-1E+10	1	-1E+10	1	-1E+10	1	-1E+10	1
4902663	34	C	07/05/2024	12:12	-127.302	47.248	0	105.80	0	8.1810	0	33.0150	0	25.690	0	104.893	0	184.8	4	63.7	4	-1E+10	1	-1E+10	1	-1E+10	1	-1E+10	1	-1E+10	1	-1E+10	1
4902663	34	C	07/05/2024	12:12	-127.302	47.248	0	106.70	0	8.1790	0	33.0510	0	25.719	0	105.785	0	183.7	4	63.4	4	-1E+10	1	-1E+10	1	-1E+10	1	-1E+10	1	-1E+10	1	-1E+10	1
4902663	34	C	07/05/2024	12:12	-127.302	47.248	0	107.70	0	8.1770	0	33.0670	0	25.732	0	106.776	0	183.0	4	63.1	4	-1E+10	1	-1E+10	1	-1E+10	1	-1E+10	1	-1E+10	1	-1E+10	1
4902663	34	C	07/05/2024	12:12	-127.302	47.248	0	108.60	0	8.1790	0	33.0770	0	25.739	0	107.668	0	182.3	4	62.9	4	-1E+10	1	-1E+10	1	-1E+10	1	-1E+10	1	-1E+10	1	-1E+10	1
4902663	34	C	07/05/2024	12:12	-127.302	47.248	0	109.60	0	8.1280	0	33.1120	0	25.774	0	108.659	0	182.0	4	62.8	4	-1E+10	1	-1E+10	1	-1E+10	1	-1E+10	1	-1E+10	1	-1E+10	1
4902663	34	C	07/05/2024	12:12	-127.302	47.248	0	110.60	0	8.0600	0	33.1250	0	25.795	0	109.650	0	181.9	4	62.6	4	-1E+10	1	-1E+10	1	-1E+10	1	-1E+10	1	-1E+10	1	-1E+10	1
4902663	34	C	07/05/2024	12:12	-127.302	47.248	0	111.60	0	8.0490	0	33.1400	0	25.808	0	110.641	0	181.8	4	62.6	4	-1E+10	1	-1E+10	1	-1E+10	1	-1E+10	1	-1E+10	1	-1E+10	1
4902663	34	C	07/05/2024	12:12	-127.302	47.248	0	112.60	0	8.0170	0	33.1580	0	25.827	0	111.632	0	181.6	4	62.5	4	-1E+10	1	-1E+10	1	-1E+10	1	-1E+10	1	-1E+10	1	-1E+10	1
4902663	34	C	07/05/2024	12:12	-127.302	47.248	0	113.50	0	8.0620	0	33.1670	0	25.827	0	112.524	0	181.6	4	62.6	4	-1E+10	1	-1E+10	1	-1E+10	1	-1E+10	1	-1E+10	1	-1E+10	1
4902663	34	C	07/05/2024	12:12	-127.302	47.248	0	114.90	0	8.0390	0	33.1910	0	25.850	0	113.912	0	181.9	4	62.6	4	-1E+10	1	-1E+10	1	-1E+10	1	-1E+10	1	-1E+10	1	-1E+10	1
4902663	34	C	07/05/2024	12:12	-127.302	47.248	0	116.40	0	8.0210	0	33.1910	0	25.852	0	115.399	0	182.5	4	62.8	4	-1E+10	1	-1E+10	1	-1E+10	1	-1E+10	1	-1E+10	1	-1E+10	1
4902663	34	C	07/05/2024	12:12	-127.302	47.248	0	117.40	0	7.8800	0	33.2290	0	25.903	0	116.390	0	182.9	4	62.8	4	-1E+10	1	-1E+10	1	-1E+10	1	-1E+10	1	-1E+10	1	-1E+10	1
4902663	34	C	07/05/2024	12:12	-127.302	47.248	0	118.30	0	7.7300	0	33.2450	0	25.937	0	117.282	0	182.9	4	62.5	4	-1E+10	1	-1E+10	1	-1E+10	1	-1E+10	1	-1E+10	1	-1E+10	1
4902663	34	C	07/05/2024	12:12	-127.302	47.248	0	119.30	0	7.7020	0	33.2730	0	25.963	0	118.273	0	182.1	4	62.2	4	-1E+10	1	-1E+10	1	-1E+10	1	-1E+10	1	-1E+10	1	-1E+10	1
4902663	34	C	07/05/2024	12:12	-127.302	47.248	0	120.20	0	7.7070	0	33.2850	0	25.971	0	119.165	0	181.2	4	62.0	4	-1E+10	1	-1E+10	1	-1E+10	1	-1E+10	1	-1E+10	1	-1E+10	1
4902663	34	C	07/05/2024	12:12	-127.302	47.248	0	121.20	0	7.6980	0	33.3040	0	25.988	0	120.156	0	180.6	4	61.7	4	-1E+10	1	-1E+10	1	-1E+10	1	-1E+10	1	-1E+10	1	-1E+10	1
4902663	34	C	07/05/2024	12:12	-127.302	47.248	0	121.90	0	7.7010	0	33.3070	0	25.990	0	120.850	0	180.0	4	61.5	4	-1E+10	1	-1E+10	1	-1E+10	1	-1E+10	1	-1E+10	1	-1E+10	1
4902663	34	C	07/05/2024	12:12	-127.302	47.248	0	122.90	0	7.6750	0	33.3390	0	26.018	0	121.841	0	179.3	4	61.3	4	-1E+10	1	-1E+10	1	-1E+10	1	-1E+10	1	-1E+10	1	-1E+10	1
4902663	34	C	07/05/2024	12:12	-127.302	47.248	0	124.00	0	7.5600	0	33.3470	0	26.041	0	122.931	0	177.7	4	60.6	4	-1E+10	1	-1E+10	1	-1E+10	1	-1E+10	1	-1E+10	1	-1E+10	1
4902663	34	C	07/05/2024	12:12	-127.302	47.248	0	124.70	0	7.5220	0	33.3480	0	26.047	0	123.625	0	175.7	4	59.9	4	-1E+10	1	-1E+10	1	-1E+10	1	-1E+10	1	-1E+10	1	-1E+10	1
4902663	34	C	07/05/2024	12:12	-127.302	47.248	0	125.80	0	7.5500	0	33.3700	0	26.061	0	124.715	0	172.7	4	58.9	4	-1E+10	1	-1E+10	1	-1E+10	1	-1E+10	1	-1E+10	1	-1E+10	1
4902663	34	C	07/05/2024	12:12	-127.302	47.248	0	127.00	0	7.5430	0	33.3920	0	26.079	0	125.904	0	170.1	4	58.0	4	-1E+10	1	-1E+10	1	-1E+10	1	-1E+10	1	-1E+10	1	-1E+10	1
4902663	34	C	07/05/2024	12:12	-127.302	47.248	0	127.80	0	7.5320	0	33.3960	0	26.084	0	126.697	0	168.1	4	57.3	4	-1E+10	1	-1E+10	1	-1E+10	1	-1E+10	1	-1E+10	1	-1E+10	1
4902663	34	C	07/05/2024	12:12	-127.302	47.248	0	128.90	0	7.5760	0	33.4180	0	26.095	0	127.787	0	165.1	4	56.3	4	-1E+10	1	-1E+10	1	-1E+10	1	-1E+10	1	-1E+10	1	-1E+10	1
4902663	34	C	07/05/2024	12:12	-127.302	47.248	0	130.10	0	7.6060	0	33.4400	0	26.108	0	128.977	0	162.3	4	55.4	4	-1E+10	1	-1E+10	1	-1E+10	1	-1E+10	1	-1E+10	1	-1E+10	1
4902663	34	C	07/05/2024	12:12	-127.302	47.248	0	130.90	0	7.5960	0	33.4440	0	26.112	0	129.769	0	160.5	4	54.8	4	-1E+10	1	-1E+10	1	-1E+10	1	-1E+10	1	-1E+10	1	-1E+10	1
4902663	34	C	07/05/2024	12:12	-127.302	47.248	0	131.70	0	7.6110	0	33.4520	0	26.116	0	130.562	0	158.5	4	54.1	4	-1E+10	1	-1E+10	1	-1E+10	1	-1E+10	1	-1E+10	1	-1E+10	1
4902663	34	C	07/05/2024	12:12	-127.302	47.248	0	132.90	0	7.6420	0	33.4720	0	26.128	0	131.751	0	155.8	4	53.3	4	-1E+10	1	-1E+10	1	-1E+10	1	-1E+10	1	-1E+10	1	-1E+10	1
4902663	34	C	07/05/2024	12:12	-127.302	47.248	0	134.10	0	7.6380	0	33.4890	0	26.142	0	132.941	0	153.2	4	52.4	4	-1E+10	1	-1E+10	1	-1E+10	1	-1E+10	1	-1E+10	1	-1E+10	1
4902663	34	C	07/05/2024	12:12	-127.302	47.248	0	135.00	0	7.6380	0	33.4930	0	26.145	0	133.833	0	151.1	4	51.7	4	-1E+10	1	-1E+10	1	-1E+10	1	-1E+10	1	-1E+10	1	-1E+10	1
4902663	34	C	07/05/2024	12:12	-127.302	47.248	0	135.80	0	7.6260	0	33.4970	0	26.150	0	134.625	0	148.5	4	50.8	4	-1E+10	1	-1E+10	1	-1E+10	1	-1E+10	1	-1E+10	1	-1E+10	1
4902663	34	C	07/05/2024	12:12	-127.302	47.248	0	136.70	0	7.6350	0	33.5060	0	26.156	0	135.517	0	145.4	4	49.7	4	-1E+10	1	-1E+10	1	-1E+10	1	-1E+10	1	-1E+10	1	-1E+10	1
4902663	34	C	07/05/2024	12:12	-127.302	47.248	0	137.90	0	7.7640	0	33.5650	0	26.183	0	136.707	0	142.7	4	49.0	4	-1E+10	1	-1E+10	1	-1E+10	1	-1E+10	1	-1E+10	1	-1E+10	1
4902663	34	C	07/05/2024	12:12	-127.302	47.248	0	139.30	0	7.7930	0	33.5750	0	26.187	0	138.094	0	141.4	4	48.5	4	-1E+10	1	-1E+10	1	-1E+10	1	-1E+10	1	-1E+10	1	-1E+10	1
4902663	34	C	07/05/2024	12:12	-127.302	47.248	0	140.20	0	7.8100	0	33.5830	0	26.191	0	138.986	0	140.6	4	48.3	4	-1E+10	1	-1E+10	1	-1E+10	1	-1E+10	1	-1E+10	1	-1E+10	1
4902663	34	C	07/05/2024	12:12	-127.302	47.248	0	141.10	0	7.8950	0	33.6220	0	26.209	0	139.878	0	140.6	4	48.4	4	-1E+10	1	-1E+10	1	-1E+10	1	-1E+10	1	-1E+10	1	-1E+10	1
4902663	34	C	07/05/2024	12:12	-127.302	47.248	0	142.00	0	7.8970	0	33.6300	0	26.215	0	140.770	0	140.9	4	48.5	4	-1E+10	1	-1E+10	1	-1E+10	1	-1E+10	1	-1E+10	1	-1E+10	1
4902663	34	C	07/05/2024	12:12	-127.302	47.248	0	142.80	0	7.8860	0	33.6400	0	26.225	0	141.563	0	141.5	4	48.7	4	-1E+10	1	-1E+10	1	-1E+10	1	-1E+10	1	-1E+10	1	-1E+10	1
4902663	34	C	07/05/2024	12:12	-127.302	47.248	0	143.70	0	7.8770	0	33.6470	0	26.232	0	142.454	0	142.3	4	49.0	4	-1E+10	1	-1E+10	1	-1E+10	1	-1E+10	1	-1E+10	1	-1E+10	1
4902663	34	C	07/05/2024	12:12	-127.302	47.248	0	144.70	0	7.8090	0	33.6470	0	26.242	0	143.445	0	142.8	4	49.1	4	-1E+10	1	-1E+10	1	-1E+10	1	-1E+10	1	-1E+10	1	-1E+10	1
4902663	34	C	07/05/2024	12:12	-127.302	47.248	0	145.60	0	7.7180	0	33.6460	0	26.254	0	144.337	0	142.7	4	48.9	4	-1E+10	1	-1E+10	1	-1E+10	1	-1E+10	1	-1E+10	1	-1E+10	1
4902663	34	C	07/05/2024	12:12	-127.302	47.248	0	146.90	0	7.6720	0	33.6510	0	26.264	0	145.626	0	142.1	4	48.7	4	-1E+10	1	-1E+10	1	-1E+10	1	-1E+10	1	-1E+10	1	-1E+10	1
4902663	34	C	07/05/2024	12:12	-127.302	47.248	0	148.40	0	7.6490	0	33.6590	0	26.274	0	147.112	0	141.4	4	48.4	4	-1E+10	1	-1E+10	1	-1E+10	1	-1E+10	1	-1E+10	1	-1E+10	1
4902663	34	C	07/05/2024	12:12	-127.302	47.248	0	149.30	0	7.6310	0	33.6600	0	26.277	0	148.004	0	140.8	4	48.2	4	-1E+10	1	-1E+10	1	-1E+10	1	-1E+10	1	-1E+10	1	-1E+10	1
4902663	34	C	07/05/2024	12:12	-127.302	47.248	0	150.20	0	7.6230	0	33.6620	0	26.280	0	148.896	0	140.0	4	47.9	4	-1E+10	1	-1E+10	1	-1E+10	1	-1E+10	1	-1E+10	1	-1E+10	1
4902663	34	C	07/05/2024	12:12	-127.302	47.248	0	151.20	0	7.6090	0	33.6630	0	26.283	0	149.887	0	139.0	4	47.6	4	-1E+10	1	-1E+10	1	-1E+10	1	-1E+10	1	-1E+10	1	-1E+10	1
4902663	34	C	07/05/2024	12:12	-127.302	47.248	0	152.10	0	7.6030	0	33.6640	0	26.285	0	150.779	0	137.8	4	47.1	4	-1E+10	1	-1E+10	1	-1E+10	1	-1E+10	1	-1E+10	1	-1E+10	1
4902663	34	C	07/05/2024	12:12	-127.302	47.248	0	153.00	0	7.5780	0	33.6770	0	26.298	0	151.670	0	136.4	4	46.6	4	-1E+10	1	-1E+10	1	-1E+10	1	-1E+10	1	-1E+10	1	-1E+10	1
4902663	34	C	07/05/2024	12:12	-127.302	47.248	0	154.00	0	7.5810	0	33.6790	0	26.300	0	152.661	0	134.7	4	46.1	4	-1E+10	1	-1E+10	1	-1E+10	1	-1E+10	1	-1E+10	1	-1E+10	1
4902663	34	C	07/05/2024	12:12	-127.302	47.248	0	154.90	0	7.5910	0	33.6910	0	26.308	0	153.553	0	133.2	4	45.6	4	-1E+10	1	-1E+10	1	-1E+10	1	-1E+10	1	-1E+10	1	-1E+10	1
4902663	34	C	07/05/2024	12:12	-127.302	47.248	0	155.90	0	7.5990	0	33.6960	0	26.310	0	154.544	0	131.8	4	45.1	4	-1E+10	1	-1E+10	1	-1E+10	1	-1E+10	1	-1E+10	1	-1E+10	1
4902663	34	C	07/05/2024	12:12	-127.302	47.248	0	156.80	0	7.6330	0	33.7100	0	26.317	0	155.436	0	130.8	4	44.8	4	-1E+10	1	-1E+10	1	-1E+10	1	-1E+10	1	-1E+10	1	-1E+10	1
4902663	34	C	07/05/2024	12:12	-127.302	47.248	0	157.70	0	7.6350	0	33.7170	0	26.322	0	156.328	0	129.9	4	44.5	4	-1E+10	1	-1E+10	1	-1E+10	1	-1E+10	1	-1E+10	1	-1E+10	1
4902663	34	C	07/05/2024	12:12	-127.302	47.248	0	158.70	0	7.6720	0	33.7390	0	26.334	0	157.319	0	129.3	4	44.3	4	-1E+10	1	-1E+10	1	-1E+10	1	-1E+10	1	-1E+10	1	-1E+10	1
4902663	34	C	07/05/2024	12:12	-127.302	47.248	0	159.60	0	7.6980	0	33.7470	0	26.336	0	158.210	0	129.4	4	44.4	4	-1E+10	1	-1E+10	1	-1E+10	1	-1E+10	1	-1E+10	1	-1E+10	1
4902663	34	C	07/05/2024	12:12	-127.302	47.248	0	160.50	0	7.7080	0	33.7550	0	26.341	0	159.102	0	129.7	4	44.5	4	-1E+10	1	-1E+10	1	-1E+10	1	-1E+10	1	-1E+10	1	-1E+10	1
4902663	34	C	07/05/2024	12:12	-127.302	47.248	0	161.90	0	7.6800	0	33.7610	0	26.350	0	160.490	0	130.4	4	44.7	4	-1E+10	1	-1E+10	1	-1E+10	1	-1E+10	1	-1E+10	1	-1E+10	1
4902663	34	C	07/05/2024	12:12	-127.302	47.248	0	163.40	0	7.6300	0	33.7600	0	26.356	0	161.976	0	131.1	4	44.9	4	-1E+10	1	-1E+10	1	-1E+10	1	-1E+10	1	-1E+10	1	-1E+10	1
4902663	34	C	07/05/2024	12:12	-127.302	47.248	0	164.30	0	7.6250	0	33.7590	0	26.356	0	162.868	0	131.3	4	45.0	4	-1E+10	1	-1E+10	1	-1E+10	1	-1E+10	1	-1E+10	1	-1E+10	1
4902663	34	C	07/05/2024	12:12	-127.302	47.248	0	165.20	0	7.5650	0	33.7650	0	26.370	0	163.760	0	131.6	4	45.0	4	-1E+10	1	-1E+10	1	-1E+10	1	-1E+10	1	-1E+10	1	-1E+10	1
4902663	34	C	07/05/2024	12:12	-127.302	47.248	0	166.20	0	7.4630	0	33.7550	0	26.376	0	164.750	0	131.3	4	44.8	4	-1E+10	1	-1E+10	1	-1E+10	1	-1E+10	1	-1E+10	1	-1E+10	1
4902663	34	C	07/05/2024	12:12	-127.302	47.248	0	167.10	0	7.4430	0	33.7450	0	26.371	0	165.642	0	130.4	4	44.5	4	-1E+10	1	-1E+10	1	-1E+10	1	-1E+10	1	-1E+10	1	-1E+10	1
4902663	34	C	07/05/2024	12:12	-127.302	47.248	0	168.00	0	7.4360	0	33.7480	0	26.375	0	166.534	0	129.1	4	44.0	4	-1E+10	1	-1E+10	1	-1E+10	1	-1E+10	1	-1E+10	1	-1E+10	1
4902663	34	C	07/05/2024	12:12	-127.302	47.248	0	169.00	0	7.4640	0	33.7630	0	26.382	0	167.525	0	127.7	4	43.6	4	-1E+10	1	-1E+10	1	-1E+10	1	-1E+10	1	-1E+10	1	-1E+10	1
4902663	34	C	07/05/2024	12:12	-127.302	47.248	0	169.90	0	7.4840	0	33.7720	0	26.387	0	168.417	0	127.1	4	43.4	4	-1E+10	1	-1E+10	1	-1E+10	1	-1E+10	1	-1E+10	1	-1E+10	1
4902663	34	C	07/05/2024	12:12	-127.302	47.248	0	170.80	0	7.4970	0	33.7870	0	26.397	0	169.308	0	126.8	4	43.3	4	-1E+10	1	-1E+10	1	-1E+10	1	-1E+10	1	-1E+10	1	-1E+10	1
4902663	34	C	07/05/2024	12:12	-127.302	47.248	0	171.70	0	7.4830	0	33.7850	0	26.397	0	170.200	0	126.5	4	43.2	4	-1E+10	1	-1E+10	1	-1E+10	1	-1E+10	1	-1E+10	1	-1E+10	1
4902663	34	C	07/05/2024	12:12	-127.302	47.248	0	172.70	0	7.4780	0	33.7880	0	26.400	0	171.191	0	126.1	4	43.1	4	-1E+10	1	-1E+10	1	-1E+10	1	-1E+10	1	-1E+10	1	-1E+10	1
4902663	34	C	07/05/2024	12:12	-127.302	47.248	0	173.60	0	7.4960	0	33.8000	0	26.407	0	172.083	0	126.1	4	43.1	4	-1E+10	1	-1E+10	1	-1E+10	1	-1E+10	1	-1E+10	1	-1E+10	1
4902663	34	C	07/05/2024	12:12	-127.302	47.248	0	174.60	0	7.4850	0	33.8030	0	26.411	0	173.074	0	126.3	4	43.1	4	-1E+10	1	-1E+10	1	-1E+10	1	-1E+10	1	-1E+10	1	-1E+10	1
4902663	34	C	07/05/2024	12:12	-127.302	47.248	0	175.50	0	7.4760	0	33.8040	0	26.413	0	173.965	0	126.6	4	43.2	4	-1E+10	1	-1E+10	1	-1E+10	1	-1E+10	1	-1E+10	1	-1E+10	1
4902663	34	C	07/05/2024	12:12	-127.302	47.248	0	176.90	0	7.4230	0	33.8060	0	26.422	0	175.353	0	126.9	4	43.3	4	-1E+10	1	-1E+10	1	-1E+10	1	-1E+10	1	-1E+10	1	-1E+10	1
4902663	34	C	07/05/2024	12:12	-127.302	47.248	0	178.30	0	7.4040	0	33.8080	0	26.426	0	176.740	0	126.9	4	43.3	4	-1E+10	1	-1E+10	1	-1E+10	1	-1E+10	1	-1E+10	1	-1E+10	1
4902663	34	C	07/05/2024	12:12	-127.302	47.248	0	179.30	0	7.3760	0	33.8080	0	26.430	0	177.731	0	126.9	4	43.2	4	-1E+10	1	-1E+10	1	-1E+10	1	-1E+10	1	-1E+10	1	-1E+10	1
4902663	34	C	07/05/2024	12:12	-127.302	47.248	0	180.20	0	7.3600	0	33.8120	0	26.436	0	178.622	0	126.9	4	43.2	4	-1E+10	1	-1E+10	1	-1E+10	1	-1E+10	1	-1E+10	1	-1E+10	1
4902663	34	C	07/05/2024	12:12	-127.302	47.248	0	181.10	0	7.3520	0	33.8140	0	26.438	0	179.514	0	127.0	4	43.2	4	-1E+10	1	-1E+10	1	-1E+10	1	-1E+10	1	-1E+10	1	-1E+10	1
4902663	34	C	07/05/2024	12:12	-127.302	47.248	0	182.00	0	7.3560	0	33.8190	0	26.442	0	180.406	0	127.4	4	43.4	4	-1E+10	1	-1E+10	1	-1E+10	1	-1E+10	1	-1E+10	1	-1E+10	1
4902663	34	C	07/05/2024	12:12	-127.302	47.248	0	183.00	0	7.3290	0	33.8270	0	26.452	0	181.396	0	128.0	4	43.6	4	-1E+10	1	-1E+10	1	-1E+10	1	-1E+10	1	-1E+10	1	-1E+10	1
4902663	34	C	07/05/2024	12:12	-127.302	47.248	0	184.00	0	7.2790	0	33.8220	0	26.455	0	182.387	0	128.5	4	43.7	4	-1E+10	1	-1E+10	1	-1E+10	1	-1E+10	1	-1E+10	1	-1E+10	1
4902663	34	C	07/05/2024	12:12	-127.302	47.248	0	184.90	0	7.2520	0	33.8220	0	26.459	0	183.279	0	129.0	4	43.8	4	-1E+10	1	-1E+10	1	-1E+10	1	-1E+10	1	-1E+10	1	-1E+10	1
4902663	34	C	07/05/2024	12:12	-127.302	47.248	0	185.90	0	7.2340	0	33.8240	0	26.463	0	184.270	0	129.4	4	44.0	4	-1E+10	1	-1E+10	1	-1E+10	1	-1E+10	1	-1E+10	1	-1E+10	1
4902663	34	C	07/05/2024	12:12	-127.302	47.248	0	186.90	0	7.2160	0	33.8210	0	26.463	0	185.261	0	129.8	4	44.1	4	-1E+10	1	-1E+10	1	-1E+10	1	-1E+10	1	-1E+10	1	-1E+10	1
4902663	34	C	07/05/2024	12:12	-127.302	47.248	0	187.90	0	7.1790	0	33.8190	0	26.466	0	186.251	0	129.9	4	44.1	4	-1E+10	1	-1E+10	1	-1E+10	1	-1E+10	1	-1E+10	1	-1E+10	1
4902663	34	C	07/05/2024	12:12	-127.302	47.248	0	188.90	0	7.1750	0	33.8170	0	26.465	0	187.242	0	129.8	4	44.0	4	-1E+10	1	-1E+10	1	-1E+10	1	-1E+10	1	-1E+10	1	-1E+10	1
4902663	34	C	07/05/2024	12:12	-127.302	47.248	0	189.90	0	7.1370	0	33.8180	0	26.472	0	188.233	0	129.6	4	43.9	4	-1E+10	1	-1E+10	1	-1E+10	1	-1E+10	1	-1E+10	1	-1E+10	1
4902663	34	C	07/05/2024	12:12	-127.302	47.248	0	190.90	0	7.1100	0	33.8170	0	26.474	0	189.224	0	129.1	4	43.7	4	-1E+10	1	-1E+10	1	-1E+10	1	-1E+10	1	-1E+10	1	-1E+10	1
4902663	34	C	07/05/2024	12:12	-127.302	47.248	0	191.90	0	7.0950	0	33.8160	0	26.476	0	190.214	0	128.4	4	43.5	4	-1E+10	1	-1E+10	1	-1E+10	1	-1E+10	1	-1E+10	1	-1E+10	1
4902663	34	C	07/05/2024	12:12	-127.302	47.248	0	193.00	0	7.0910	0	33.8160	0	26.476	0	191.304	0	127.7	4	43.2	4	-1E+10	1	-1E+10	1	-1E+10	1	-1E+10	1	-1E+10	1	-1E+10	1
4902663	34	C	07/05/2024	12:12	-127.302	47.248	0	194.00	0	7.0900	0	33.8240	0	26.483	0	192.295	0	127.3	4	43.1	4	-1E+10	1	-1E+10	1	-1E+10	1	-1E+10	1	-1E+10	1	-1E+10	1
4902663	34	C	07/05/2024	12:12	-127.302	47.248	0	195.00	0	7.0920	0	33.8260	0	26.484	0	193.286	0	127.1	4	43.0	4	-1E+10	1	-1E+10	1	-1E+10	1	-1E+10	1	-1E+10	1	-1E+10	1
4902663	34	C	07/05/2024	12:12	-127.302	47.248	0	196.00	0	7.0900	0	33.8320	0	26.489	0	194.276	0	127.2	4	43.1	4	-1E+10	1	-1E+10	1	-1E+10	1	-1E+10	1	-1E+10	1	-1E+10	1
4902663	34	C	07/05/2024	12:12	-127.302	47.248	0	197.10	0	7.0640	0	33.8320	0	26.493	0	195.366	0	127.2	4	43.0	4	-1E+10	1	-1E+10	1	-1E+10	1	-1E+10	1	-1E+10	1	-1E+10	1
4902663	34	C	07/05/2024	12:12	-127.302	47.248	0	198.10	0	7.0390	0	33.8330	0	26.497	0	196.357	0	127.1	4	43.0	4	-1E+10	1	-1E+10	1	-1E+10	1	-1E+10	1	-1E+10	1	-1E+10	1
4902663	34	C	07/05/2024	12:12	-127.302	47.248	0	199.20	0	7.0100	0	33.8320	0	26.500	0	197.447	0	126.7	4	42.8	4	-1E+10	1	-1E+10	1	-1E+10	1	-1E+10	1	-1E+10	1	-1E+10	1
4902663	34	C	07/05/2024	12:12	-127.302	47.248	0	200.30	0	6.9710	0	33.8320	0	26.505	0	198.537	0	125.9	4	42.5	4	-1E+10	1	-1E+10	1	-1E+10	1	-1E+10	1	-1E+10	1	-1E+10	1
4902663	34	C	07/05/2024	12:12	-127.302	47.248	0	201.40	0	6.9420	0	33.8290	0	26.507	0	199.626	0	125.1	4	42.2	4	-1E+10	1	-1E+10	1	-1E+10	1	-1E+10	1	-1E+10	1	-1E+10	1
4902663	34	C	07/05/2024	12:12	-127.302	47.248	0	202.50	0	6.9330	0	33.8330	0	26.511	0	200.716	0	124.4	4	42.0	4	-1E+10	1	-1E+10	1	-1E+10	1	-1E+10	1	-1E+10	1	-1E+10	1
4902663	34	C	07/05/2024	12:12	-127.302	47.248	0	203.50	0	6.9320	0	33.8320	0	26.511	0	201.707	0	123.4	4	41.6	4	-1E+10	1	-1E+10	1	-1E+10	1	-1E+10	1	-1E+10	1	-1E+10	1
4902663	34	C	07/05/2024	12:12	-127.302	47.248	0	204.60	0	6.8990	0	33.8330	0	26.516	0	202.797	0	122.2	4	41.2	4	-1E+10	1	-1E+10	1	-1E+10	1	-1E+10	1	-1E+10	1	-1E+10	1
4902663	34	C	07/05/2024	12:12	-127.302	47.248	0	205.70	0	6.9090	0	33.8320	0	26.514	0	203.886	0	120.9	4	40.8	4	-1E+10	1	-1E+10	1	-1E+10	1	-1E+10	1	-1E+10	1	-1E+10	1
4902663	34	C	07/05/2024	12:12	-127.302	47.248	0	206.80	0	6.9190	0	33.8460	0	26.524	0	204.976	0	120.2	4	40.6	4	-1E+10	1	-1E+10	1	-1E+10	1	-1E+10	1	-1E+10	1	-1E+10	1
4902663	34	C	07/05/2024	12:12	-127.302	47.248	0	207.80	0	6.9100	0	33.8480	0	26.526	0	205.967	0	119.6	4	40.3	4	-1E+10	1	-1E+10	1	-1E+10	1	-1E+10	1	-1E+10	1	-1E+10	1
4902663	34	C	07/05/2024	12:12	-127.302	47.248	0	208.90	0	6.8910	0	33.8480	0	26.529	0	207.057	0	118.8	4	40.0	4	-1E+10	1	-1E+10	1	-1E+10	1	-1E+10	1	-1E+10	1	-1E+10	1
4902663	34	C	07/05/2024	12:12	-127.302	47.248	0	210.00	0	6.8770	0	33.8490	0	26.532	0	208.146	0	117.9	4	39.7	4	-1E+10	1	-1E+10	1	-1E+10	1	-1E+10	1	-1E+10	1	-1E+10	1
4902663	34	C	07/05/2024	12:12	-127.302	47.248	0	211.10	0	6.8800	0	33.8500	0	26.532	0	209.236	0	117.2	4	39.5	4	-1E+10	1	-1E+10	1	-1E+10	1	-1E+10	1	-1E+10	1	-1E+10	1
4902663	34	C	07/05/2024	12:12	-127.302	47.248	0	212.20	0	6.8840	0	33.8590	0	26.539	0	210.326	0	116.8	4	39.4	4	-1E+10	1	-1E+10	1	-1E+10	1	-1E+10	1	-1E+10	1	-1E+10	1
4902663	34	C	07/05/2024	12:12	-127.302	47.248	0	213.30	0	6.8830	0	33.8580	0	26.538	0	211.416	0	116.6	4	39.3	4	-1E+10	1	-1E+10	1	-1E+10	1	-1E+10	1	-1E+10	1	-1E+10	1
4902663	34	C	07/05/2024	12:12	-127.302	47.248	0	214.40	0	6.8670	0	33.8610	0	26.542	0	212.505	0	116.4	4	39.2	4	-1E+10	1	-1E+10	1	-1E+10	1	-1E+10	1	-1E+10	1	-1E+10	1
4902663	34	C	07/05/2024	12:12	-127.302	47.248	0	215.50	0	6.8380	0	33.8620	0	26.547	0	213.595	0	116.2	4	39.1	4	-1E+10	1	-1E+10	1	-1E+10	1	-1E+10	1	-1E+10	1	-1E+10	1
4902663	34	C	07/05/2024	12:12	-127.302	47.248	0	216.60	0	6.8220	0	33.8630	0	26.550	0	214.685	0	116.1	4	39.1	4	-1E+10	1	-1E+10	1	-1E+10	1	-1E+10	1	-1E+10	1	-1E+10	1
4902663	34	C	07/05/2024	12:12	-127.302	47.248	0	217.70	0	6.8100	0	33.8690	0	26.556	0	215.774	0	116.2	4	39.1	4	-1E+10	1	-1E+10	1	-1E+10	1	-1E+10	1	-1E+10	1	-1E+10	1
4902663	34	C	07/05/2024	12:12	-127.302	47.248	0	218.80	0	6.8000	0	33.8650	0	26.555	0	216.864	0	116.2	4	39.1	4	-1E+10	1	-1E+10	1	-1E+10	1	-1E+10	1	-1E+10	1	-1E+10	1
4902663	34	C	07/05/2024	12:12	-127.302	47.248	0	219.90	0	6.7920	0	33.8650	0	26.556	0	217.954	0	116.2	4	39.1	4	-1E+10	1	-1E+10	1	-1E+10	1	-1E+10	1	-1E+10	1	-1E+10	1
4902663	34	C	07/05/2024	12:12	-127.302	47.248	0	221.00	0	6.7840	0	33.8630	0	26.555	0	219.043	0	116.1	4	39.0	4	-1E+10	1	-1E+10	1	-1E+10	1	-1E+10	1	-1E+10	1	-1E+10	1
4902663	34	C	07/05/2024	12:12	-127.302	47.248	0	222.10	0	6.7430	0	33.8640	0	26.562	0	220.133	0	115.8	4	38.9	4	-1E+10	1	-1E+10	1	-1E+10	1	-1E+10	1	-1E+10	1	-1E+10	1
4902663	34	C	07/05/2024	12:12	-127.302	47.248	0	223.20	0	6.7440	0	33.8600	0	26.558	0	221.223	0	115.4	4	38.8	4	-1E+10	1	-1E+10	1	-1E+10	1	-1E+10	1	-1E+10	1	-1E+10	1
4902663	34	C	07/05/2024	12:12	-127.302	47.248	0	224.30	0	6.7410	0	33.8610	0	26.559	0	222.312	0	114.9	4	38.6	4	-1E+10	1	-1E+10	1	-1E+10	1	-1E+10	1	-1E+10	1	-1E+10	1
4902663	34	C	07/05/2024	12:12	-127.302	47.248	0	225.40	0	6.7640	0	33.8650	0	26.560	0	223.402	0	114.6	4	38.5	4	-1E+10	1	-1E+10	1	-1E+10	1	-1E+10	1	-1E+10	1	-1E+10	1
4902663	34	C	07/05/2024	12:12	-127.302	47.248	0	226.40	0	6.7520	0	33.8660	0	26.562	0	224.393	0	114.6	4	38.5	4	-1E+10	1	-1E+10	1	-1E+10	1	-1E+10	1	-1E+10	1	-1E+10	1
4902663	34	C	07/05/2024	12:12	-127.302	47.248	0	227.50	0	6.7450	0	33.8650	0	26.562	0	225.482	0	114.5	4	38.5	4	-1E+10	1	-1E+10	1	-1E+10	1	-1E+10	1	-1E+10	1	-1E+10	1
4902663	34	C	07/05/2024	12:12	-127.302	47.248	0	228.60	0	6.7040	0	33.8650	0	26.568	0	226.572	0	114.2	4	38.3	4	-1E+10	1	-1E+10	1	-1E+10	1	-1E+10	1	-1E+10	1	-1E+10	1
4902663	34	C	07/05/2024	12:12	-127.302	47.248	0	229.70	0	6.6640	0	33.8630	0	26.571	0	227.662	0	113.7	4	38.1	4	-1E+10	1	-1E+10	1	-1E+10	1	-1E+10	1	-1E+10	1	-1E+10	1
4902663	34	C	07/05/2024	12:12	-127.302	47.248	0	230.70	0	6.6400	0	33.8630	0	26.575	0	228.652	0	113.1	4	37.9	4	-1E+10	1	-1E+10	1	-1E+10	1	-1E+10	1	-1E+10	1	-1E+10	1
4902663	34	C	07/05/2024	12:12	-127.302	47.248	0	231.80	0	6.6280	0	33.8600	0	26.574	0	229.742	0	112.2	4	37.6	4	-1E+10	1	-1E+10	1	-1E+10	1	-1E+10	1	-1E+10	1	-1E+10	1
4902663	34	C	07/05/2024	12:12	-127.302	47.248	0	232.90	0	6.6010	0	33.8650	0	26.581	0	230.831	0	111.1	4	37.2	4	-1E+10	1	-1E+10	1	-1E+10	1	-1E+10	1	-1E+10	1	-1E+10	1
4902663	34	C	07/05/2024	12:12	-127.302	47.248	0	234.00	0	6.5750	0	33.8600	0	26.581	0	231.921	0	110.0	4	36.8	4	-1E+10	1	-1E+10	1	-1E+10	1	-1E+10	1	-1E+10	1	-1E+10	1
4902663	34	C	07/05/2024	12:12	-127.302	47.248	0	235.10	0	6.5630	0	33.8650	0	26.586	0	233.011	0	108.9	4	36.4	4	-1E+10	1	-1E+10	1	-1E+10	1	-1E+10	1	-1E+10	1	-1E+10	1
4902663	34	C	07/05/2024	12:12	-127.302	47.248	0	236.20	0	6.5680	0	33.8710	0	26.590	0	234.100	0	108.0	4	36.1	4	-1E+10	1	-1E+10	1	-1E+10	1	-1E+10	1	-1E+10	1	-1E+10	1
4902663	34	C	07/05/2024	12:12	-127.302	47.248	0	237.20	0	6.5670	0	33.8720	0	26.591	0	235.091	0	107.2	4	35.9	4	-1E+10	1	-1E+10	1	-1E+10	1	-1E+10	1	-1E+10	1	-1E+10	1
4902663	34	C	07/05/2024	12:12	-127.302	47.248	0	238.30	0	6.5630	0	33.8730	0	26.593	0	236.180	0	106.4	4	35.6	4	-1E+10	1	-1E+10	1	-1E+10	1	-1E+10	1	-1E+10	1	-1E+10	1
4902663	34	C	07/05/2024	12:12	-127.302	47.248	0	239.40	0	6.5610	0	33.8730	0	26.593	0	237.270	0	105.5	4	35.3	4	-1E+10	1	-1E+10	1	-1E+10	1	-1E+10	1	-1E+10	1	-1E+10	1
4902663	34	C	07/05/2024	12:12	-127.302	47.248	0	240.50	0	6.5490	0	33.8770	0	26.598	0	238.360	0	104.7	4	35.0	4	-1E+10	1	-1E+10	1	-1E+10	1	-1E+10	1	-1E+10	1	-1E+10	1
4902663	34	C	07/05/2024	12:12	-127.302	47.248	0	241.60	0	6.5370	0	33.8790	0	26.601	0	239.449	0	104.0	4	34.8	4	-1E+10	1	-1E+10	1	-1E+10	1	-1E+10	1	-1E+10	1	-1E+10	1
4902663	34	C	07/05/2024	12:12	-127.302	47.248	0	242.70	0	6.5160	0	33.8810	0	26.605	0	240.539	0	103.4	4	34.6	4	-1E+10	1	-1E+10	1	-1E+10	1	-1E+10	1	-1E+10	1	-1E+10	1
4902663	34	C	07/05/2024	12:12	-127.302	47.248	0	243.70	0	6.5080	0	33.8820	0	26.607	0	241.529	0	102.7	4	34.3	4	-1E+10	1	-1E+10	1	-1E+10	1	-1E+10	1	-1E+10	1	-1E+10	1
4902663	34	C	07/05/2024	12:12	-127.302	47.248	0	244.80	0	6.4980	0	33.8800	0	26.607	0	242.619	0	101.9	4	34.0	4	-1E+10	1	-1E+10	1	-1E+10	1	-1E+10	1	-1E+10	1	-1E+10	1
4902663	34	C	07/05/2024	12:12	-127.302	47.248	0	245.90	0	6.4990	0	33.8840	0	26.610	0	243.708	0	101.2	4	33.8	4	-1E+10	1	-1E+10	1	-1E+10	1	-1E+10	1	-1E+10	1	-1E+10	1
4902663	34	C	07/05/2024	12:12	-127.302	47.248	0	246.90	0	6.4790	0	33.8870	0	26.615	0	244.699	0	100.7	4	33.6	4	-1E+10	1	-1E+10	1	-1E+10	1	-1E+10	1	-1E+10	1	-1E+10	1
4902663	34	C	07/05/2024	12:12	-127.302	47.248	0	248.00	0	6.4670	0	33.8870	0	26.616	0	245.788	0	100.2	4	33.5	4	-1E+10	1	-1E+10	1	-1E+10	1	-1E+10	1	-1E+10	1	-1E+10	1
4902663	34	C	07/05/2024	12:12	-127.302	47.248	0	249.10	0	6.4640	0	33.8870	0	26.617	0	246.878	0	99.7	4	33.3	4	-1E+10	1	-1E+10	1	-1E+10	1	-1E+10	1	-1E+10	1	-1E+10	1
4902663	34	C	07/05/2024	12:12	-127.302	47.248	0	250.10	0	6.4600	0	33.8900	0	26.620	0	247.868	0	99.2	4	33.1	4	-1E+10	1	-1E+10	1	-1E+10	1	-1E+10	1	-1E+10	1	-1E+10	1
4902663	34	C	07/05/2024	12:12	-127.302	47.248	0	251.20	0	6.4460	0	33.8910	0	26.622	0	248.958	0	98.9	4	33.0	4	-1E+10	1	-1E+10	1	-1E+10	1	-1E+10	1	-1E+10	1	-1E+10	1
4902663	34	C	07/05/2024	12:12	-127.302	47.248	0	252.20	0	6.4380	0	33.8910	0	26.623	0	249.948	0	98.5	4	32.9	4	-1E+10	1	-1E+10	1	-1E+10	1	-1E+10	1	-1E+10	1	-1E+10	1
4902663	34	C	07/05/2024	12:12	-127.302	47.248	0	253.30	0	6.4340	0	33.8900	0	26.623	0	251.038	0	98.0	4	32.7	4	-1E+10	1	-1E+10	1	-1E+10	1	-1E+10	1	-1E+10	1	-1E+10	1
4902663	34	C	07/05/2024	12:12	-127.302	47.248	0	254.30	0	6.4140	0	33.8910	0	26.626	0	252.028	0	97.4	4	32.5	4	-1E+10	1	-1E+10	1	-1E+10	1	-1E+10	1	-1E+10	1	-1E+10	1
4902663	34	C	07/05/2024	12:12	-127.302	47.248	0	255.30	0	6.4100	0	33.8930	0	26.629	0	253.019	0	96.9	4	32.3	4	-1E+10	1	-1E+10	1	-1E+10	1	-1E+10	1	-1E+10	1	-1E+10	1
4902663	34	C	07/05/2024	12:12	-127.302	47.248	0	256.40	0	6.3970	0	33.8950	0	26.632	0	254.108	0	96.3	4	32.1	4	-1E+10	1	-1E+10	1	-1E+10	1	-1E+10	1	-1E+10	1	-1E+10	1
4902663	34	C	07/05/2024	12:12	-127.302	47.248	0	257.40	0	6.3880	0	33.8970	0	26.635	0	255.099	0	95.6	4	31.9	4	-1E+10	1	-1E+10	1	-1E+10	1	-1E+10	1	-1E+10	1	-1E+10	1
4902663	34	C	07/05/2024	12:12	-127.302	47.248	0	258.50	0	6.3780	0	33.8980	0	26.637	0	256.188	0	95.1	4	31.7	4	-1E+10	1	-1E+10	1	-1E+10	1	-1E+10	1	-1E+10	1	-1E+10	1
4902663	34	C	07/05/2024	12:12	-127.302	47.248	0	259.50	0	6.3750	0	33.9000	0	26.639	0	257.179	0	94.6	4	31.5	4	-1E+10	1	-1E+10	1	-1E+10	1	-1E+10	1	-1E+10	1	-1E+10	1
4902663	34	C	07/05/2024	12:12	-127.302	47.248	0	260.60	0	6.3610	0	33.9040	0	26.644	0	258.268	0	94.4	4	31.4	4	-1E+10	1	-1E+10	1	-1E+10	1	-1E+10	1	-1E+10	1	-1E+10	1
4902663	34	C	07/05/2024	12:12	-127.302	47.248	0	261.60	0	6.3490	0	33.9050	0	26.646	0	259.259	0	94.2	4	31.4	4	-1E+10	1	-1E+10	1	-1E+10	1	-1E+10	1	-1E+10	1	-1E+10	1
4902663	34	C	07/05/2024	12:12	-127.302	47.248	0	262.70	0	6.3450	0	33.9040	0	26.646	0	260.348	0	94.1	4	31.3	4	-1E+10	1	-1E+10	1	-1E+10	1	-1E+10	1	-1E+10	1	-1E+10	1
4902663	34	C	07/05/2024	12:12	-127.302	47.248	0	263.70	0	6.3430	0	33.9050	0	26.647	0	261.338	0	93.9	4	31.3	4	-1E+10	1	-1E+10	1	-1E+10	1	-1E+10	1	-1E+10	1	-1E+10	1
4902663	34	C	07/05/2024	12:12	-127.302	47.248	0	264.80	0	6.3360	0	33.9060	0	26.649	0	262.428	0	93.9	4	31.3	4	-1E+10	1	-1E+10	1	-1E+10	1	-1E+10	1	-1E+10	1	-1E+10	1
4902663	34	C	07/05/2024	12:12	-127.302	47.248	0	265.80	0	6.3240	0	33.9070	0	26.651	0	263.418	0	93.9	4	31.2	4	-1E+10	1	-1E+10	1	-1E+10	1	-1E+10	1	-1E+10	1	-1E+10	1
4902663	34	C	07/05/2024	12:12	-127.302	47.248	0	266.90	0	6.3180	0	33.9070	0	26.652	0	264.508	0	93.9	4	31.2	4	-1E+10	1	-1E+10	1	-1E+10	1	-1E+10	1	-1E+10	1	-1E+10	1
4902663	34	C	07/05/2024	12:12	-127.302	47.248	0	267.90	0	6.2840	0	33.9070	0	26.656	0	265.498	0	94.0	4	31.2	4	-1E+10	1	-1E+10	1	-1E+10	1	-1E+10	1	-1E+10	1	-1E+10	1
4902663	34	C	07/05/2024	12:12	-127.302	47.248	0	269.00	0	6.2800	0	33.9050	0	26.655	0	266.588	0	94.0	4	31.3	4	-1E+10	1	-1E+10	1	-1E+10	1	-1E+10	1	-1E+10	1	-1E+10	1
4902663	34	C	07/05/2024	12:12	-127.302	47.248	0	270.00	0	6.2790	0	33.9060	0	26.656	0	267.578	0	94.1	4	31.3	4	-1E+10	1	-1E+10	1	-1E+10	1	-1E+10	1	-1E+10	1	-1E+10	1
4902663	34	C	07/05/2024	12:12	-127.302	47.248	0	271.10	0	6.2640	0	33.9050	0	26.657	0	268.667	0	94.3	4	31.3	4	-1E+10	1	-1E+10	1	-1E+10	1	-1E+10	1	-1E+10	1	-1E+10	1
4902663	34	C	07/05/2024	12:12	-127.302	47.248	0	272.20	0	6.2060	0	33.9000	0	26.661	0	269.757	0	94.3	4	31.3	4	-1E+10	1	-1E+10	1	-1E+10	1	-1E+10	1	-1E+10	1	-1E+10	1
4902663	34	C	07/05/2024	12:12	-127.302	47.248	0	273.20	0	6.1920	0	33.9000	0	26.662	0	270.747	0	94.2	4	31.3	4	-1E+10	1	-1E+10	1	-1E+10	1	-1E+10	1	-1E+10	1	-1E+10	1
4902663	34	C	07/05/2024	12:12	-127.302	47.248	0	274.30	0	6.1860	0	33.9010	0	26.664	0	271.837	0	94.1	4	31.2	4	-1E+10	1	-1E+10	1	-1E+10	1	-1E+10	1	-1E+10	1	-1E+10	1
4902663	34	C	07/05/2024	12:12	-127.302	47.248	0	275.40	0	6.1740	0	33.9000	0	26.665	0	272.926	0	94.1	4	31.2	4	-1E+10	1	-1E+10	1	-1E+10	1	-1E+10	1	-1E+10	1	-1E+10	1
4902663	34	C	07/05/2024	12:12	-127.302	47.248	0	276.40	0	6.1680	0	33.8990	0	26.665	0	273.916	0	94.1	4	31.2	4	-1E+10	1	-1E+10	1	-1E+10	1	-1E+10	1	-1E+10	1	-1E+10	1
4902663	34	C	07/05/2024	12:12	-127.302	47.248	0	277.50	0	6.1680	0	33.9000	0	26.665	0	275.006	0	94.2	4	31.2	4	-1E+10	1	-1E+10	1	-1E+10	1	-1E+10	1	-1E+10	1	-1E+10	1
4902663	34	C	07/05/2024	12:12	-127.302	47.248	0	278.50	0	6.1590	0	33.9010	0	26.667	0	275.996	0	94.3	4	31.3	4	-1E+10	1	-1E+10	1	-1E+10	1	-1E+10	1	-1E+10	1	-1E+10	1
4902663	34	C	07/05/2024	12:12	-127.302	47.248	0	279.50	0	6.1430	0	33.9010	0	26.669	0	276.986	0	94.6	4	31.4	4	-1E+10	1	-1E+10	1	-1E+10	1	-1E+10	1	-1E+10	1	-1E+10	1
4902663	34	C	07/05/2024	12:12	-127.302	47.248	0	280.60	0	6.1210	0	33.9000	0	26.671	0	278.076	0	94.8	4	31.4	4	-1E+10	1	-1E+10	1	-1E+10	1	-1E+10	1	-1E+10	1	-1E+10	1
4902663	34	C	07/05/2024	12:12	-127.302	47.248	0	281.60	0	6.0880	0	33.8950	0	26.672	0	279.066	0	95.1	4	31.5	4	-1E+10	1	-1E+10	1	-1E+10	1	-1E+10	1	-1E+10	1	-1E+10	1
4902663	34	C	07/05/2024	12:12	-127.302	47.248	0	282.70	0	6.0550	0	33.8950	0	26.676	0	280.155	0	95.3	4	31.5	4	-1E+10	1	-1E+10	1	-1E+10	1	-1E+10	1	-1E+10	1	-1E+10	1
4902663	34	C	07/05/2024	12:12	-127.302	47.248	0	283.70	0	6.0130	0	33.8910	0	26.678	0	281.146	0	95.4	4	31.5	4	-1E+10	1	-1E+10	1	-1E+10	1	-1E+10	1	-1E+10	1	-1E+10	1
4902663	34	C	07/05/2024	12:12	-127.302	47.248	0	284.80	0	6.0310	0	33.8910	0	26.676	0	282.235	0	95.6	4	31.6	4	-1E+10	1	-1E+10	1	-1E+10	1	-1E+10	1	-1E+10	1	-1E+10	1
4902663	34	C	07/05/2024	12:12	-127.302	47.248	0	285.80	0	5.9640	0	33.8940	0	26.686	0	283.225	0	95.7	4	31.6	4	-1E+10	1	-1E+10	1	-1E+10	1	-1E+10	1	-1E+10	1	-1E+10	1
4902663	34	C	07/05/2024	12:12	-127.302	47.248	0	286.80	0	5.8840	0	33.8840	0	26.688	0	284.216	0	95.7	4	31.5	4	-1E+10	1	-1E+10	1	-1E+10	1	-1E+10	1	-1E+10	1	-1E+10	1
4902663	34	C	07/05/2024	12:12	-127.302	47.248	0	287.80	0	5.8600	0	33.8790	0	26.687	0	285.206	0	95.5	4	31.4	4	-1E+10	1	-1E+10	1	-1E+10	1	-1E+10	1	-1E+10	1	-1E+10	1
4902663	34	C	07/05/2024	12:12	-127.302	47.248	0	288.90	0	5.8480	0	33.8800	0	26.690	0	286.295	0	95.0	4	31.3	4	-1E+10	1	-1E+10	1	-1E+10	1	-1E+10	1	-1E+10	1	-1E+10	1
4902663	34	C	07/05/2024	12:12	-127.302	47.248	0	289.90	0	5.8880	0	33.8870	0	26.690	0	287.286	0	94.8	4	31.2	4	-1E+10	1	-1E+10	1	-1E+10	1	-1E+10	1	-1E+10	1	-1E+10	1
4902663	34	C	07/05/2024	12:12	-127.302	47.248	0	291.00	0	5.8630	0	33.8830	0	26.690	0	288.375	0	94.7	4	31.2	4	-1E+10	1	-1E+10	1	-1E+10	1	-1E+10	1	-1E+10	1	-1E+10	1
4902663	34	C	07/05/2024	12:12	-127.302	47.248	0	292.00	0	5.8330	0	33.8820	0	26.693	0	289.365	0	94.6	4	31.1	4	-1E+10	1	-1E+10	1	-1E+10	1	-1E+10	1	-1E+10	1	-1E+10	1
4902663	34	C	07/05/2024	12:12	-127.302	47.248	0	293.10	0	5.8170	0	33.8810	0	26.694	0	290.454	0	94.3	4	31.0	4	-1E+10	1	-1E+10	1	-1E+10	1	-1E+10	1	-1E+10	1	-1E+10	1
4902663	34	C	07/05/2024	12:12	-127.302	47.248	0	294.10	0	5.8170	0	33.8820	0	26.695	0	291.445	0	93.9	4	30.9	4	-1E+10	1	-1E+10	1	-1E+10	1	-1E+10	1	-1E+10	1	-1E+10	1
4902663	34	C	07/05/2024	12:12	-127.302	47.248	0	295.10	0	5.8430	0	33.8880	0	26.697	0	292.435	0	93.9	4	30.9	4	-1E+10	1	-1E+10	1	-1E+10	1	-1E+10	1	-1E+10	1	-1E+10	1
4902663	34	C	07/05/2024	12:12	-127.302	47.248	0	296.20	0	5.8320	0	33.8880	0	26.698	0	293.524	0	94.0	4	30.9	4	-1E+10	1	-1E+10	1	-1E+10	1	-1E+10	1	-1E+10	1	-1E+10	1
4902663	34	C	07/05/2024	12:12	-127.302	47.248	0	297.20	0	5.7860	0	33.8850	0	26.701	0	294.515	0	94.1	4	30.9	4	-1E+10	1	-1E+10	1	-1E+10	1	-1E+10	1	-1E+10	1	-1E+10	1
4902663	34	C	07/05/2024	12:12	-127.302	47.248	0	298.20	0	5.7600	0	33.8820	0	26.702	0	295.505	0	93.9	4	30.9	4	-1E+10	1	-1E+10	1	-1E+10	1	-1E+10	1	-1E+10	1	-1E+10	1
4902663	34	C	07/05/2024	12:12	-127.302	47.248	0	299.20	0	5.7440	0	33.8780	0	26.701	0	296.495	0	93.6	4	30.7	4	-1E+10	1	-1E+10	1	-1E+10	1	-1E+10	1	-1E+10	1	-1E+10	1
4902663	34	C	07/05/2024	12:12	-127.302	47.248	0	300.20	0	5.7280	0	33.8780	0	26.703	0	297.485	0	93.2	4	30.6	4	-1E+10	1	-1E+10	1	-1E+10	1	-1E+10	1	-1E+10	1	-1E+10	1
4902663	34	C	07/05/2024	12:12	-127.302	47.248	0	301.30	0	5.7210	0	33.8770	0	26.703	0	298.575	0	92.7	4	30.4	4	-1E+10	1	-1E+10	1	-1E+10	1	-1E+10	1	-1E+10	1	-1E+10	1
4902663	34	C	07/05/2024	12:12	-127.302	47.248	0	302.30	0	5.7200	0	33.8770	0	26.703	0	299.565	0	92.1	4	30.2	4	-1E+10	1	-1E+10	1	-1E+10	1	-1E+10	1	-1E+10	1	-1E+10	1
4902663	34	C	07/05/2024	12:12	-127.302	47.248	0	303.40	0	5.7100	0	33.8780	0	26.705	0	300.654	0	91.5	4	30.0	4	-1E+10	1	-1E+10	1	-1E+10	1	-1E+10	1	-1E+10	1	-1E+10	1
4902663	34	C	07/05/2024	12:12	-127.302	47.248	0	304.40	0	5.7010	0	33.8780	0	26.706	0	301.644	0	90.9	4	29.8	4	-1E+10	1	-1E+10	1	-1E+10	1	-1E+10	1	-1E+10	1	-1E+10	1
4902663	34	C	07/05/2024	12:12	-127.302	47.248	0	305.40	0	5.6960	0	33.8780	0	26.707	0	302.634	0	90.1	4	29.6	4	-1E+10	1	-1E+10	1	-1E+10	1	-1E+10	1	-1E+10	1	-1E+10	1
4902663	34	C	07/05/2024	12:12	-127.302	47.248	0	306.40	0	5.6850	0	33.8800	0	26.710	0	303.625	0	89.3	4	29.3	4	-1E+10	1	-1E+10	1	-1E+10	1	-1E+10	1	-1E+10	1	-1E+10	1
4902663	34	C	07/05/2024	12:12	-127.302	47.248	0	307.50	0	5.6610	0	33.8770	0	26.710	0	304.714	0	88.4	4	29.0	4	-1E+10	1	-1E+10	1	-1E+10	1	-1E+10	1	-1E+10	1	-1E+10	1
4902663	34	C	07/05/2024	12:12	-127.302	47.248	0	308.50	0	5.6590	0	33.8800	0	26.713	0	305.704	0	87.6	4	28.7	4	-1E+10	1	-1E+10	1	-1E+10	1	-1E+10	1	-1E+10	1	-1E+10	1
4902663	34	C	07/05/2024	12:12	-127.302	47.248	0	309.50	0	5.7120	0	33.8930	0	26.717	0	306.694	0	87.5	4	28.7	4	-1E+10	1	-1E+10	1	-1E+10	1	-1E+10	1	-1E+10	1	-1E+10	1
4902663	34	C	07/05/2024	12:12	-127.302	47.248	0	310.60	0	5.7100	0	33.8920	0	26.716	0	307.784	0	87.4	4	28.7	4	-1E+10	1	-1E+10	1	-1E+10	1	-1E+10	1	-1E+10	1	-1E+10	1
4902663	34	C	07/05/2024	12:12	-127.302	47.248	0	311.60	0	5.6790	0	33.8890	0	26.718	0	308.774	0	87.3	4	28.6	4	-1E+10	1	-1E+10	1	-1E+10	1	-1E+10	1	-1E+10	1	-1E+10	1
4902663	34	C	07/05/2024	12:12	-127.302	47.248	0	312.60	0	5.6150	0	33.8840	0	26.722	0	309.764	0	86.7	4	28.4	4	-1E+10	1	-1E+10	1	-1E+10	1	-1E+10	1	-1E+10	1	-1E+10	1
4902663	34	C	07/05/2024	12:12	-127.302	47.248	0	313.70	0	5.6090	0	33.8860	0	26.724	0	310.853	0	86.0	4	28.2	4	-1E+10	1	-1E+10	1	-1E+10	1	-1E+10	1	-1E+10	1	-1E+10	1
4902663	34	C	07/05/2024	12:12	-127.302	47.248	0	314.70	0	5.5950	0	33.8860	0	26.726	0	311.843	0	85.2	4	27.9	4	-1E+10	1	-1E+10	1	-1E+10	1	-1E+10	1	-1E+10	1	-1E+10	1
4902663	34	C	07/05/2024	12:12	-127.302	47.248	0	315.80	0	5.6020	0	33.8880	0	26.726	0	312.932	0	84.3	4	27.6	4	-1E+10	1	-1E+10	1	-1E+10	1	-1E+10	1	-1E+10	1	-1E+10	1
4902663	34	C	07/05/2024	12:12	-127.302	47.248	0	316.80	0	5.6240	0	33.8950	0	26.729	0	313.923	0	83.7	4	27.4	4	-1E+10	1	-1E+10	1	-1E+10	1	-1E+10	1	-1E+10	1	-1E+10	1
4902663	34	C	07/05/2024	12:12	-127.302	47.248	0	317.80	0	5.6290	0	33.8960	0	26.729	0	314.913	0	83.2	4	27.2	4	-1E+10	1	-1E+10	1	-1E+10	1	-1E+10	1	-1E+10	1	-1E+10	1
4902663	34	C	07/05/2024	12:12	-127.302	47.248	0	318.90	0	5.6340	0	33.8980	0	26.730	0	316.002	0	82.8	4	27.1	4	-1E+10	1	-1E+10	1	-1E+10	1	-1E+10	1	-1E+10	1	-1E+10	1
4902663	34	C	07/05/2024	12:12	-127.302	47.248	0	319.90	0	5.6360	0	33.8990	0	26.731	0	316.992	0	82.3	4	26.9	4	-1E+10	1	-1E+10	1	-1E+10	1	-1E+10	1	-1E+10	1	-1E+10	1
4902663	34	C	07/05/2024	12:12	-127.302	47.248	0	320.90	0	5.6310	0	33.8990	0	26.732	0	317.982	0	81.8	4	26.8	4	-1E+10	1	-1E+10	1	-1E+10	1	-1E+10	1	-1E+10	1	-1E+10	1
4902663	34	C	07/05/2024	12:12	-127.302	47.248	0	321.90	0	5.6290	0	33.9000	0	26.733	0	318.972	0	81.2	4	26.6	4	-1E+10	1	-1E+10	1	-1E+10	1	-1E+10	1	-1E+10	1	-1E+10	1
4902663	34	C	07/05/2024	12:12	-127.302	47.248	0	322.90	0	5.6400	0	33.9030	0	26.734	0	319.963	0	80.6	4	26.4	4	-1E+10	1	-1E+10	1	-1E+10	1	-1E+10	1	-1E+10	1	-1E+10	1
4902663	34	C	07/05/2024	12:12	-127.302	47.248	0	324.00	0	5.6400	0	33.9030	0	26.734	0	321.052	0	80.0	4	26.2	4	-1E+10	1	-1E+10	1	-1E+10	1	-1E+10	1	-1E+10	1	-1E+10	1
4902663	34	C	07/05/2024	12:12	-127.302	47.248	0	324.80	0	5.6360	0	33.9040	0	26.735	0	321.844	0	79.5	4	26.0	4	-1E+10	1	-1E+10	1	-1E+10	1	-1E+10	1	-1E+10	1	-1E+10	1
4902663	34	C	07/05/2024	12:12	-127.302	47.248	0	325.90	0	5.6290	0	33.9050	0	26.737	0	322.933	0	78.7	4	25.8	4	-1E+10	1	-1E+10	1	-1E+10	1	-1E+10	1	-1E+10	1	-1E+10	1
4902663	34	C	07/05/2024	12:12	-127.302	47.248	0	327.10	0	5.6260	0	33.9090	0	26.740	0	324.121	0	78.0	4	25.5	4	-1E+10	1	-1E+10	1	-1E+10	1	-1E+10	1	-1E+10	1	-1E+10	1
4902663	34	C	07/05/2024	12:12	-127.302	47.248	0	327.90	0	5.6250	0	33.9100	0	26.741	0	324.913	0	77.5	4	25.4	4	-1E+10	1	-1E+10	1	-1E+10	1	-1E+10	1	-1E+10	1	-1E+10	1
4902663	34	C	07/05/2024	12:12	-127.302	47.248	0	329.00	0	5.6140	0	33.9110	0	26.743	0	326.002	0	76.9	4	25.2	4	-1E+10	1	-1E+10	1	-1E+10	1	-1E+10	1	-1E+10	1	-1E+10	1
4902663	34	C	07/05/2024	12:12	-127.302	47.248	0	330.20	0	5.6030	0	33.9130	0	26.746	0	327.190	0	76.4	4	25.0	4	-1E+10	1	-1E+10	1	-1E+10	1	-1E+10	1	-1E+10	1	-1E+10	1
4902663	34	C	07/05/2024	12:12	-127.302	47.248	0	331.00	0	5.5780	0	33.9150	0	26.751	0	327.982	0	76.1	4	24.9	4	-1E+10	1	-1E+10	1	-1E+10	1	-1E+10	1	-1E+10	1	-1E+10	1
4902663	34	C	07/05/2024	12:12	-127.302	47.248	0	331.80	0	5.5730	0	33.9170	0	26.753	0	328.774	0	75.9	4	24.8	4	-1E+10	1	-1E+10	1	-1E+10	1	-1E+10	1	-1E+10	1	-1E+10	1
4902663	34	C	07/05/2024	12:12	-127.302	47.248	0	332.90	0	5.5690	0	33.9190	0	26.755	0	329.864	0	75.6	4	24.7	4	-1E+10	1	-1E+10	1	-1E+10	1	-1E+10	1	-1E+10	1	-1E+10	1
4902663	34	C	07/05/2024	12:12	-127.302	47.248	0	334.10	0	5.5650	0	33.9190	0	26.755	0	331.052	0	75.3	4	24.6	4	-1E+10	1	-1E+10	1	-1E+10	1	-1E+10	1	-1E+10	1	-1E+10	1
4902663	34	C	07/05/2024	12:12	-127.302	47.248	0	334.90	0	5.5650	0	33.9190	0	26.755	0	331.844	0	75.1	4	24.6	4	-1E+10	1	-1E+10	1	-1E+10	1	-1E+10	1	-1E+10	1	-1E+10	1
4902663	34	C	07/05/2024	12:12	-127.302	47.248	0	336.00	0	5.5550	0	33.9190	0	26.757	0	332.933	0	74.8	4	24.4	4	-1E+10	1	-1E+10	1	-1E+10	1	-1E+10	1	-1E+10	1	-1E+10	1
4902663	34	C	07/05/2024	12:12	-127.302	47.248	0	337.20	0	5.5470	0	33.9200	0	26.758	0	334.121	0	74.4	4	24.3	4	-1E+10	1	-1E+10	1	-1E+10	1	-1E+10	1	-1E+10	1	-1E+10	1
4902663	34	C	07/05/2024	12:12	-127.302	47.248	0	338.00	0	5.5440	0	33.9200	0	26.759	0	334.913	0	74.1	4	24.2	4	-1E+10	1	-1E+10	1	-1E+10	1	-1E+10	1	-1E+10	1	-1E+10	1
4902663	34	C	07/05/2024	12:12	-127.302	47.248	0	338.80	0	5.5390	0	33.9200	0	26.759	0	335.705	0	73.9	4	24.2	4	-1E+10	1	-1E+10	1	-1E+10	1	-1E+10	1	-1E+10	1	-1E+10	1
4902663	34	C	07/05/2024	12:12	-127.302	47.248	0	340.00	0	5.5330	0	33.9200	0	26.760	0	336.893	0	73.5	4	24.0	4	-1E+10	1	-1E+10	1	-1E+10	1	-1E+10	1	-1E+10	1	-1E+10	1
4902663	34	C	07/05/2024	12:12	-127.302	47.248	0	341.30	0	5.5170	0	33.9220	0	26.764	0	338.180	0	73.1	4	23.9	4	-1E+10	1	-1E+10	1	-1E+10	1	-1E+10	1	-1E+10	1	-1E+10	1
4902663	34	C	07/05/2024	12:12	-127.302	47.248	0	342.10	0	5.5050	0	33.9230	0	26.766	0	338.972	0	72.8	4	23.8	4	-1E+10	1	-1E+10	1	-1E+10	1	-1E+10	1	-1E+10	1	-1E+10	1
4902663	34	C	07/05/2024	12:12	-127.302	47.248	0	342.90	0	5.4960	0	33.9230	0	26.767	0	339.764	0	72.6	4	23.7	4	-1E+10	1	-1E+10	1	-1E+10	1	-1E+10	1	-1E+10	1	-1E+10	1
4902663	34	C	07/05/2024	12:12	-127.302	47.248	0	343.70	0	5.4940	0	33.9230	0	26.767	0	340.556	0	72.3	4	23.6	4	-1E+10	1	-1E+10	1	-1E+10	1	-1E+10	1	-1E+10	1	-1E+10	1
4902663	34	C	07/05/2024	12:12	-127.302	47.248	0	344.90	0	5.4880	0	33.9250	0	26.769	0	341.744	0	72.0	4	23.5	4	-1E+10	1	-1E+10	1	-1E+10	1	-1E+10	1	-1E+10	1	-1E+10	1
4902663	34	C	07/05/2024	12:12	-127.302	47.248	0	346.20	0	5.4770	0	33.9240	0	26.770	0	343.031	0	71.5	4	23.3	4	-1E+10	1	-1E+10	1	-1E+10	1	-1E+10	1	-1E+10	1	-1E+10	1
4902663	34	C	07/05/2024	12:12	-127.302	47.248	0	347.00	0	5.4680	0	33.9260	0	26.773	0	343.823	0	71.2	4	23.2	4	-1E+10	1	-1E+10	1	-1E+10	1	-1E+10	1	-1E+10	1	-1E+10	1
4902663	34	C	07/05/2024	12:12	-127.302	47.248	0	347.80	0	5.4600	0	33.9260	0	26.774	0	344.615	0	71.0	4	23.2	4	-1E+10	1	-1E+10	1	-1E+10	1	-1E+10	1	-1E+10	1	-1E+10	1
4902663	34	C	07/05/2024	12:12	-127.302	47.248	0	348.70	0	5.4500	0	33.9260	0	26.775	0	345.506	0	70.6	4	23.0	4	-1E+10	1	-1E+10	1	-1E+10	1	-1E+10	1	-1E+10	1	-1E+10	1
4902663	34	C	07/05/2024	12:12	-127.302	47.248	0	349.90	0	5.4480	0	33.9270	0	26.776	0	346.694	0	70.2	4	22.9	4	-1E+10	1	-1E+10	1	-1E+10	1	-1E+10	1	-1E+10	1	-1E+10	1
4902663	34	C	07/05/2024	12:12	-127.302	47.248	0	353.20	0	5.4300	0	33.9290	0	26.780	0	349.961	0	68.5	4	22.3	4	-1E+10	1	-1E+10	1	-1E+10	1	-1E+10	1	-1E+10	1	-1E+10	1
4902663	34	C	07/05/2024	12:12	-127.302	47.248	0	358.30	0	5.3990	0	33.9350	0	26.788	0	355.010	0	65.3	4	21.3	4	-1E+10	1	-1E+10	1	-1E+10	1	-1E+10	1	-1E+10	1	-1E+10	1
4902663	34	C	07/05/2024	12:12	-127.302	47.248	0	363.00	0	5.4150	0	33.9490	0	26.797	0	359.663	0	62.5	4	20.4	4	-1E+10	1	-1E+10	1	-1E+10	1	-1E+10	1	-1E+10	1	-1E+10	1
4902663	34	C	07/05/2024	12:12	-127.302	47.248	0	367.90	0	5.3620	0	33.9520	0	26.806	0	364.514	0	60.9	4	19.8	4	-1E+10	1	-1E+10	1	-1E+10	1	-1E+10	1	-1E+10	1	-1E+10	1
4902663	34	C	07/05/2024	12:12	-127.302	47.248	0	372.80	0	5.2990	0	33.9560	0	26.817	0	369.364	0	58.8	4	19.1	4	-1E+10	1	-1E+10	1	-1E+10	1	-1E+10	1	-1E+10	1	-1E+10	1
4902663	34	C	07/05/2024	12:12	-127.302	47.248	0	377.80	0	5.2650	0	33.9610	0	26.825	0	374.314	0	56.1	4	18.2	4	-1E+10	1	-1E+10	1	-1E+10	1	-1E+10	1	-1E+10	1	-1E+10	1
4902663	34	C	07/05/2024	12:12	-127.302	47.248	0	382.90	0	5.2810	0	33.9740	0	26.833	0	379.362	0	53.4	4	17.4	4	-1E+10	1	-1E+10	1	-1E+10	1	-1E+10	1	-1E+10	1	-1E+10	1
4902663	34	C	07/05/2024	12:12	-127.302	47.248	0	387.60	0	5.2790	0	33.9830	0	26.840	0	384.014	0	51.4	4	16.7	4	-1E+10	1	-1E+10	1	-1E+10	1	-1E+10	1	-1E+10	1	-1E+10	1
4902663	34	C	07/05/2024	12:12	-127.302	47.248	0	392.90	0	5.2800	0	33.9920	0	26.848	0	389.260	0	49.2	4	16.0	4	-1E+10	1	-1E+10	1	-1E+10	1	-1E+10	1	-1E+10	1	-1E+10	1
4902663	34	C	07/05/2024	12:12	-127.302	47.248	0	398.30	0	5.2880	0	34.0020	0	26.855	0	394.605	0	46.8	4	15.2	4	-1E+10	1	-1E+10	1	-1E+10	1	-1E+10	1	-1E+10	1	-1E+10	1
4902663	34	C	07/05/2024	12:12	-127.302	47.248	0	403.30	0	5.3210	0	34.0130	0	26.859	0	399.554	0	45.4	4	14.8	4	-1E+10	1	-1E+10	1	-1E+10	1	-1E+10	1	-1E+10	1	-1E+10	1
4902663	34	C	07/05/2024	12:12	-127.302	47.248	0	408.30	0	5.3070	0	34.0190	0	26.866	0	404.502	0	43.6	4	14.2	4	-1E+10	1	-1E+10	1	-1E+10	1	-1E+10	1	-1E+10	1	-1E+10	1
4902663	34	C	07/05/2024	12:12	-127.302	47.248	0	413.00	0	5.3030	0	34.0260	0	26.872	0	409.154	0	42.4	4	13.8	4	-1E+10	1	-1E+10	1	-1E+10	1	-1E+10	1	-1E+10	1	-1E+10	1
4902663	34	C	07/05/2024	12:12	-127.302	47.248	0	417.60	0	5.2630	0	34.0320	0	26.881	0	413.707	0	41.2	4	13.4	4	-1E+10	1	-1E+10	1	-1E+10	1	-1E+10	1	-1E+10	1	-1E+10	1
4902663	34	C	07/05/2024	12:12	-127.302	47.248	0	422.80	0	5.2480	0	34.0380	0	26.888	0	418.853	0	40.1	4	13.0	4	-1E+10	1	-1E+10	1	-1E+10	1	-1E+10	1	-1E+10	1	-1E+10	1
4902663	34	C	07/05/2024	12:12	-127.302	47.248	0	428.10	0	5.2040	0	34.0380	0	26.893	0	424.098	0	39.6	4	12.8	4	-1E+10	1	-1E+10	1	-1E+10	1	-1E+10	1	-1E+10	1	-1E+10	1
4902663	34	C	07/05/2024	12:12	-127.302	47.248	0	433.30	0	5.1760	0	34.0410	0	26.899	0	429.244	0	38.8	4	12.6	4	-1E+10	1	-1E+10	1	-1E+10	1	-1E+10	1	-1E+10	1	-1E+10	1
4902663	34	C	07/05/2024	12:12	-127.302	47.248	0	438.00	0	5.1200	0	34.0400	0	26.905	0	433.895	0	38.5	4	12.5	4	-1E+10	1	-1E+10	1	-1E+10	1	-1E+10	1	-1E+10	1	-1E+10	1
4902663	34	C	07/05/2024	12:12	-127.302	47.248	0	442.70	0	5.0710	0	34.0390	0	26.909	0	438.546	0	37.7	4	12.2	4	-1E+10	1	-1E+10	1	-1E+10	1	-1E+10	1	-1E+10	1	-1E+10	1
4902663	34	C	07/05/2024	12:12	-127.302	47.248	0	447.90	0	5.0350	0	34.0420	0	26.916	0	443.692	0	36.6	4	11.8	4	-1E+10	1	-1E+10	1	-1E+10	1	-1E+10	1	-1E+10	1	-1E+10	1
4902663	34	C	07/05/2024	12:12	-127.302	47.248	0	453.10	0	4.9850	0	34.0440	0	26.923	0	448.837	0	35.4	4	11.4	4	-1E+10	1	-1E+10	1	-1E+10	1	-1E+10	1	-1E+10	1	-1E+10	1
4902663	34	C	07/05/2024	12:12	-127.302	47.248	0	457.90	0	5.0160	0	34.0540	0	26.928	0	453.587	0	33.8	4	10.9	4	-1E+10	1	-1E+10	1	-1E+10	1	-1E+10	1	-1E+10	1	-1E+10	1
4902663	34	C	07/05/2024	12:12	-127.302	47.248	0	462.60	0	5.0480	0	34.0680	0	26.935	0	458.237	0	33.1	4	10.7	4	-1E+10	1	-1E+10	1	-1E+10	1	-1E+10	1	-1E+10	1	-1E+10	1
4902663	34	C	07/05/2024	12:12	-127.302	47.248	0	467.80	0	5.0150	0	34.0670	0	26.938	0	463.382	0	33.1	4	10.7	4	-1E+10	1	-1E+10	1	-1E+10	1	-1E+10	1	-1E+10	1	-1E+10	1
4902663	34	C	07/05/2024	12:12	-127.302	47.248	0	473.00	0	4.9390	0	34.0650	0	26.945	0	468.528	0	32.9	4	10.6	4	-1E+10	1	-1E+10	1	-1E+10	1	-1E+10	1	-1E+10	1	-1E+10	1
4902663	34	C	07/05/2024	12:12	-127.302	47.248	0	477.80	0	4.8810	0	34.0620	0	26.949	0	473.277	0	32.5	4	10.5	4	-1E+10	1	-1E+10	1	-1E+10	1	-1E+10	1	-1E+10	1	-1E+10	1
4902663	34	C	07/05/2024	12:12	-127.302	47.248	0	482.60	0	4.8640	0	34.0640	0	26.953	0	478.026	0	32.0	4	10.3	4	-1E+10	1	-1E+10	1	-1E+10	1	-1E+10	1	-1E+10	1	-1E+10	1
4902663	34	C	07/05/2024	12:12	-127.302	47.248	0	488.00	0	4.8320	0	34.0640	0	26.957	0	483.368	0	31.3	4	10.1	4	-1E+10	1	-1E+10	1	-1E+10	1	-1E+10	1	-1E+10	1	-1E+10	1
4902663	34	C	07/05/2024	12:12	-127.302	47.248	0	492.90	0	4.8120	0	34.0680	0	26.962	0	488.216	0	30.7	4	9.9	4	-1E+10	1	-1E+10	1	-1E+10	1	-1E+10	1	-1E+10	1	-1E+10	1
4902663	34	C	07/05/2024	12:12	-127.302	47.248	0	497.80	0	4.7560	0	34.0680	0	26.968	0	493.064	0	29.9	4	9.6	4	-1E+10	1	-1E+10	1	-1E+10	1	-1E+10	1	-1E+10	1	-1E+10	1
4902663	34	C	07/05/2024	12:12	-127.302	47.248	0	502.70	0	4.7440	0	34.0710	0	26.972	0	497.911	0	28.3	4	9.1	4	-1E+10	1	-1E+10	1	-1E+10	1	-1E+10	1	-1E+10	1	-1E+10	1
4902663	34	C	07/05/2024	12:12	-127.302	47.248	0	507.60	0	4.7880	0	34.0830	0	26.977	0	502.759	0	26.1	4	8.4	4	-1E+10	1	-1E+10	1	-1E+10	1	-1E+10	1	-1E+10	1	-1E+10	1
4902663	34	C	07/05/2024	12:12	-127.302	47.248	0	512.80	0	4.8370	0	34.1010	0	26.986	0	507.903	0	24.3	4	7.8	4	-1E+10	1	-1E+10	1	-1E+10	1	-1E+10	1	-1E+10	1	-1E+10	1
4902663	34	C	07/05/2024	12:12	-127.302	47.248	0	518.10	0	4.8280	0	34.1100	0	26.994	0	513.145	0	22.5	4	7.3	4	-1E+10	1	-1E+10	1	-1E+10	1	-1E+10	1	-1E+10	1	-1E+10	1
4902663	34	C	07/05/2024	12:12	-127.302	47.248	0	523.00	0	4.8450	0	34.1210	0	27.001	0	517.992	0	21.4	4	6.9	4	-1E+10	1	-1E+10	1	-1E+10	1	-1E+10	1	-1E+10	1	-1E+10	1
4902663	34	C	07/05/2024	12:12	-127.302	47.248	0	527.90	0	4.8170	0	34.1260	0	27.008	0	522.839	0	20.7	4	6.7	4	-1E+10	1	-1E+10	1	-1E+10	1	-1E+10	1	-1E+10	1	-1E+10	1
4902663	34	C	07/05/2024	12:12	-127.302	47.248	0	532.80	0	4.7870	0	34.1300	0	27.014	0	527.686	0	20.1	4	6.5	4	-1E+10	1	-1E+10	1	-1E+10	1	-1E+10	1	-1E+10	1	-1E+10	1
4902663	34	C	07/05/2024	12:12	-127.302	47.248	0	537.80	0	4.7720	0	34.1330	0	27.018	0	532.632	0	19.6	4	6.3	4	-1E+10	1	-1E+10	1	-1E+10	1	-1E+10	1	-1E+10	1	-1E+10	1
4902663	34	C	07/05/2024	12:12	-127.302	47.248	0	542.90	0	4.7540	0	34.1360	0	27.023	0	537.676	0	19.2	4	6.2	4	-1E+10	1	-1E+10	1	-1E+10	1	-1E+10	1	-1E+10	1	-1E+10	1
4902663	34	C	07/05/2024	12:12	-127.302	47.248	0	548.00	0	4.7350	0	34.1390	0	27.027	0	542.720	0	18.8	4	6.0	4	-1E+10	1	-1E+10	1	-1E+10	1	-1E+10	1	-1E+10	1	-1E+10	1
4902663	34	C	07/05/2024	12:12	-127.302	47.248	0	553.00	0	4.7060	0	34.1400	0	27.031	0	547.666	0	18.3	4	5.9	4	-1E+10	1	-1E+10	1	-1E+10	1	-1E+10	1	-1E+10	1	-1E+10	1
4902663	34	C	07/05/2024	12:12	-127.302	47.248	0	558.10	0	4.6740	0	34.1420	0	27.037	0	552.710	0	17.8	4	5.7	4	-1E+10	1	-1E+10	1	-1E+10	1	-1E+10	1	-1E+10	1	-1E+10	1
4902663	34	C	07/05/2024	12:12	-127.302	47.248	0	562.90	0	4.6560	0	34.1470	0	27.043	0	557.457	0	17.3	4	5.6	4	-1E+10	1	-1E+10	1	-1E+10	1	-1E+10	1	-1E+10	1	-1E+10	1
4902663	34	C	07/05/2024	12:12	-127.302	47.248	0	567.60	0	4.6450	0	34.1490	0	27.045	0	562.105	0	16.8	4	5.4	4	-1E+10	1	-1E+10	1	-1E+10	1	-1E+10	1	-1E+10	1	-1E+10	1
4902663	34	C	07/05/2024	12:12	-127.302	47.248	0	572.90	0	4.6310	0	34.1550	0	27.052	0	567.347	0	16.4	4	5.2	4	-1E+10	1	-1E+10	1	-1E+10	1	-1E+10	1	-1E+10	1	-1E+10	1
4902663	34	C	07/05/2024	12:12	-127.302	47.248	0	577.90	0	4.6260	0	34.1580	0	27.055	0	572.291	0	16.0	4	5.1	4	-1E+10	1	-1E+10	1	-1E+10	1	-1E+10	1	-1E+10	1	-1E+10	1
4902663	34	C	07/05/2024	12:12	-127.302	47.248	0	582.90	0	4.6100	0	34.1600	0	27.058	0	577.236	0	15.8	4	5.1	4	-1E+10	1	-1E+10	1	-1E+10	1	-1E+10	1	-1E+10	1	-1E+10	1
4902663	34	C	07/05/2024	12:12	-127.302	47.248	0	587.90	0	4.5900	0	34.1620	0	27.062	0	582.180	0	15.4	4	4.9	4	-1E+10	1	-1E+10	1	-1E+10	1	-1E+10	1	-1E+10	1	-1E+10	1
4902663	34	C	07/05/2024	12:12	-127.302	47.248	0	593.00	0	4.5670	0	34.1650	0	27.067	0	587.223	0	15.0	4	4.8	4	-1E+10	1	-1E+10	1	-1E+10	1	-1E+10	1	-1E+10	1	-1E+10	1
4902663	34	C	07/05/2024	12:12	-127.302	47.248	0	598.00	0	4.5470	0	34.1690	0	27.072	0	592.168	0	14.6	4	4.7	4	-1E+10	1	-1E+10	1	-1E+10	1	-1E+10	1	-1E+10	1	-1E+10	1
4902663	34	C	07/05/2024	12:12	-127.302	47.248	0	602.70	0	4.5460	0	34.1730	0	27.076	0	596.815	0	14.3	4	4.6	4	-1E+10	1	-1E+10	1	-1E+10	1	-1E+10	1	-1E+10	1	-1E+10	1
4902663	34	C	07/05/2024	12:12	-127.302	47.248	0	607.80	0	4.5140	0	34.1760	0	27.081	0	601.858	0	14.0	4	4.5	4	-1E+10	1	-1E+10	1	-1E+10	1	-1E+10	1	-1E+10	1	-1E+10	1
4902663	34	C	07/05/2024	12:12	-127.302	47.248	0	613.10	0	4.5000	0	34.1770	0	27.084	0	607.098	0	13.8	4	4.4	4	-1E+10	1	-1E+10	1	-1E+10	1	-1E+10	1	-1E+10	1	-1E+10	1
4902663	34	C	07/05/2024	12:12	-127.302	47.248	0	617.90	0	4.4810	0	34.1790	0	27.087	0	611.844	0	13.4	4	4.3	4	-1E+10	1	-1E+10	1	-1E+10	1	-1E+10	1	-1E+10	1	-1E+10	1
4902663	34	C	07/05/2024	12:12	-127.302	47.248	0	622.70	0	4.4630	0	34.1840	0	27.093	0	616.590	0	13.1	4	4.2	4	-1E+10	1	-1E+10	1	-1E+10	1	-1E+10	1	-1E+10	1	-1E+10	1
4902663	34	C	07/05/2024	12:12	-127.302	47.248	0	628.00	0	4.4660	0	34.1880	0	27.096	0	621.830	0	12.7	4	4.1	4	-1E+10	1	-1E+10	1	-1E+10	1	-1E+10	1	-1E+10	1	-1E+10	1
4902663	34	C	07/05/2024	12:12	-127.302	47.248	0	633.30	0	4.4590	0	34.1900	0	27.099	0	627.070	0	12.4	4	4.0	4	-1E+10	1	-1E+10	1	-1E+10	1	-1E+10	1	-1E+10	1	-1E+10	1
4902663	34	C	07/05/2024	12:12	-127.302	47.248	0	638.00	0	4.4460	0	34.1940	0	27.103	0	631.717	0	12.1	4	3.9	4	-1E+10	1	-1E+10	1	-1E+10	1	-1E+10	1	-1E+10	1	-1E+10	1
4902663	34	C	07/05/2024	12:12	-127.302	47.248	0	642.80	0	4.4370	0	34.1970	0	27.107	0	636.462	0	11.8	4	3.8	4	-1E+10	1	-1E+10	1	-1E+10	1	-1E+10	1	-1E+10	1	-1E+10	1
4902663	34	C	07/05/2024	12:12	-127.302	47.248	0	647.60	0	4.4230	0	34.2020	0	27.112	0	641.208	0	11.5	4	3.7	4	-1E+10	1	-1E+10	1	-1E+10	1	-1E+10	1	-1E+10	1	-1E+10	1
4902663	34	C	07/05/2024	12:12	-127.302	47.248	0	652.90	0	4.3940	0	34.2040	0	27.117	0	646.447	0	11.4	4	3.6	4	-1E+10	1	-1E+10	1	-1E+10	1	-1E+10	1	-1E+10	1	-1E+10	1
4902663	34	C	07/05/2024	12:12	-127.302	47.248	0	658.20	0	4.3690	0	34.2070	0	27.122	0	651.686	0	11.2	4	3.6	4	-1E+10	1	-1E+10	1	-1E+10	1	-1E+10	1	-1E+10	1	-1E+10	1
4902663	34	C	07/05/2024	12:12	-127.302	47.248	0	663.10	0	4.3490	0	34.2080	0	27.125	0	656.530	0	10.9	4	3.5	4	-1E+10	1	-1E+10	1	-1E+10	1	-1E+10	1	-1E+10	1	-1E+10	1
4902663	34	C	07/05/2024	12:12	-127.302	47.248	0	667.90	0	4.3300	0	34.2120	0	27.130	0	661.275	0	10.7	4	3.4	4	-1E+10	1	-1E+10	1	-1E+10	1	-1E+10	1	-1E+10	1	-1E+10	1
4902663	34	C	07/05/2024	12:12	-127.302	47.248	0	672.80	0	4.3170	0	34.2150	0	27.134	0	666.119	0	10.4	4	3.3	4	-1E+10	1	-1E+10	1	-1E+10	1	-1E+10	1	-1E+10	1	-1E+10	1
4902663	34	C	07/05/2024	12:12	-127.302	47.248	0	677.70	0	4.3110	0	34.2200	0	27.139	0	670.962	0	10.2	4	3.3	4	-1E+10	1	-1E+10	1	-1E+10	1	-1E+10	1	-1E+10	1	-1E+10	1
4902663	34	C	07/05/2024	12:12	-127.302	47.248	0	682.70	0	4.3040	0	34.2230	0	27.142	0	675.904	0	10.0	4	3.2	4	-1E+10	1	-1E+10	1	-1E+10	1	-1E+10	1	-1E+10	1	-1E+10	1
4902663	34	C	07/05/2024	12:12	-127.302	47.248	0	687.60	0	4.2820	0	34.2260	0	27.147	0	680.747	0	9.8	4	3.1	4	-1E+10	1	-1E+10	1	-1E+10	1	-1E+10	1	-1E+10	1	-1E+10	1
4902663	34	C	07/05/2024	12:12	-127.302	47.248	0	692.70	0	4.2750	0	34.2300	0	27.150	0	685.788	0	9.6	4	3.0	4	-1E+10	1	-1E+10	1	-1E+10	1	-1E+10	1	-1E+10	1	-1E+10	1
4902663	34	C	07/05/2024	12:12	-127.302	47.248	0	697.80	0	4.2720	0	34.2350	0	27.155	0	690.829	0	9.4	4	3.0	4	-1E+10	1	-1E+10	1	-1E+10	1	-1E+10	1	-1E+10	1	-1E+10	1
4902663	34	C	07/05/2024	12:12	-127.302	47.248	0	702.90	0	4.2620	0	34.2370	0	27.158	0	695.869	0	9.2	4	2.9	4	-1E+10	1	-1E+10	1	-1E+10	1	-1E+10	1	-1E+10	1	-1E+10	1
4902663	34	C	07/05/2024	12:12	-127.302	47.248	0	708.10	0	4.2510	0	34.2400	0	27.161	0	701.009	0	9.1	4	2.9	4	-1E+10	1	-1E+10	1	-1E+10	1	-1E+10	1	-1E+10	1	-1E+10	1
4902663	34	C	07/05/2024	12:12	-127.302	47.248	0	713.30	0	4.2300	0	34.2440	0	27.167	0	706.148	0	8.9	4	2.8	4	-1E+10	1	-1E+10	1	-1E+10	1	-1E+10	1	-1E+10	1	-1E+10	1
4902663	34	C	07/05/2024	12:12	-127.302	47.248	0	718.30	0	4.2250	0	34.2470	0	27.169	0	711.089	0	8.8	4	2.8	4	-1E+10	1	-1E+10	1	-1E+10	1	-1E+10	1	-1E+10	1	-1E+10	1
4902663	34	C	07/05/2024	12:12	-127.302	47.248	0	723.00	0	4.2150	0	34.2500	0	27.173	0	715.734	0	8.7	4	2.7	4	-1E+10	1	-1E+10	1	-1E+10	1	-1E+10	1	-1E+10	1	-1E+10	1
4902663	34	C	07/05/2024	12:12	-127.302	47.248	0	727.60	0	4.2030	0	34.2530	0	27.177	0	720.280	0	8.6	4	2.7	4	-1E+10	1	-1E+10	1	-1E+10	1	-1E+10	1	-1E+10	1	-1E+10	1
4902663	34	C	07/05/2024	12:12	-127.302	47.248	0	732.70	0	4.1720	0	34.2550	0	27.181	0	725.320	0	8.5	4	2.7	4	-1E+10	1	-1E+10	1	-1E+10	1	-1E+10	1	-1E+10	1	-1E+10	1
4902663	34	C	07/05/2024	12:12	-127.302	47.248	0	737.90	0	4.1480	0	34.2560	0	27.185	0	730.458	0	8.5	4	2.7	4	-1E+10	1	-1E+10	1	-1E+10	1	-1E+10	1	-1E+10	1	-1E+10	1
4902663	34	C	07/05/2024	12:12	-127.302	47.248	0	743.00	0	4.1250	0	34.2560	0	27.187	0	735.498	0	8.4	4	2.7	4	-1E+10	1	-1E+10	1	-1E+10	1	-1E+10	1	-1E+10	1	-1E+10	1
4902663	34	C	07/05/2024	12:12	-127.302	47.248	0	748.10	0	4.1240	0	34.2600	0	27.191	0	740.537	0	8.3	4	2.6	4	-1E+10	1	-1E+10	1	-1E+10	1	-1E+10	1	-1E+10	1	-1E+10	1
4902663	34	C	07/05/2024	12:12	-127.302	47.248	0	752.80	0	4.1030	0	34.2630	0	27.195	0	745.181	0	8.1	4	2.6	4	-1E+10	1	-1E+10	1	-1E+10	1	-1E+10	1	-1E+10	1	-1E+10	1
4902663	34	C	07/05/2024	12:12	-127.302	47.248	0	757.50	0	4.1070	0	34.2670	0	27.198	0	749.825	0	7.9	4	2.5	4	-1E+10	1	-1E+10	1	-1E+10	1	-1E+10	1	-1E+10	1	-1E+10	1
4902663	34	C	07/05/2024	12:12	-127.302	47.248	0	762.70	0	4.1270	0	34.2740	0	27.201	0	754.963	0	7.7	4	2.4	4	-1E+10	1	-1E+10	1	-1E+10	1	-1E+10	1	-1E+10	1	-1E+10	1
4902663	34	C	07/05/2024	12:12	-127.302	47.248	0	768.00	0	4.1220	0	34.2770	0	27.204	0	760.200	0	7.6	4	2.4	4	-1E+10	1	-1E+10	1	-1E+10	1	-1E+10	1	-1E+10	1	-1E+10	1
4902663	34	C	07/05/2024	12:12	-127.302	47.248	0	773.20	0	4.1120	0	34.2800	0	27.208	0	765.337	0	7.6	4	2.4	4	-1E+10	1	-1E+10	1	-1E+10	1	-1E+10	1	-1E+10	1	-1E+10	1
4902663	34	C	07/05/2024	12:12	-127.302	47.248	0	778.00	0	4.0700	0	34.2810	0	27.213	0	770.080	0	7.5	4	2.4	4	-1E+10	1	-1E+10	1	-1E+10	1	-1E+10	1	-1E+10	1	-1E+10	1
4902663	34	C	07/05/2024	12:12	-127.302	47.248	0	782.90	0	4.0520	0	34.2850	0	27.218	0	774.921	0	7.4	4	2.4	4	-1E+10	1	-1E+10	1	-1E+10	1	-1E+10	1	-1E+10	1	-1E+10	1
4902663	34	C	07/05/2024	12:12	-127.302	47.248	0	787.80	0	4.0390	0	34.2860	0	27.220	0	779.762	0	7.4	4	2.3	4	-1E+10	1	-1E+10	1	-1E+10	1	-1E+10	1	-1E+10	1	-1E+10	1
4902663	34	C	07/05/2024	12:12	-127.302	47.248	0	792.80	0	4.0170	0	34.2890	0	27.225	0	784.701	0	7.4	4	2.3	4	-1E+10	1	-1E+10	1	-1E+10	1	-1E+10	1	-1E+10	1	-1E+10	1
4902663	34	C	07/05/2024	12:12	-127.302	47.248	0	797.90	0	4.0090	0	34.2920	0	27.228	0	789.740	0	7.4	4	2.3	4	-1E+10	1	-1E+10	1	-1E+10	1	-1E+10	1	-1E+10	1	-1E+10	1
4902663	34	C	07/05/2024	12:12	-127.302	47.248	0	803.00	0	3.9840	0	34.2920	0	27.231	0	794.778	0	7.4	4	2.3	4	-1E+10	1	-1E+10	1	-1E+10	1	-1E+10	1	-1E+10	1	-1E+10	1
4902663	34	C	07/05/2024	12:12	-127.302	47.248	0	808.20	0	3.9650	0	34.2920	0	27.233	0	799.914	0	7.4	4	2.3	4	-1E+10	1	-1E+10	1	-1E+10	1	-1E+10	1	-1E+10	1	-1E+10	1
4902663	34	C	07/05/2024	12:12	-127.302	47.248	0	813.20	0	3.9590	0	34.2970	0	27.237	0	804.854	0	7.3	4	2.3	4	-1E+10	1	-1E+10	1	-1E+10	1	-1E+10	1	-1E+10	1	-1E+10	1
4902663	34	C	07/05/2024	12:12	-127.302	47.248	0	818.00	0	3.9410	0	34.2980	0	27.240	0	809.595	0	7.3	4	2.3	4	-1E+10	1	-1E+10	1	-1E+10	1	-1E+10	1	-1E+10	1	-1E+10	1
4902663	34	C	07/05/2024	12:12	-127.302	47.248	0	822.80	0	3.9270	0	34.2990	0	27.242	0	814.336	0	7.3	4	2.3	4	-1E+10	1	-1E+10	1	-1E+10	1	-1E+10	1	-1E+10	1	-1E+10	1
4902663	34	C	07/05/2024	12:12	-127.302	47.248	0	828.00	0	3.9230	0	34.3030	0	27.246	0	819.473	0	7.2	4	2.3	4	-1E+10	1	-1E+10	1	-1E+10	1	-1E+10	1	-1E+10	1	-1E+10	1
4902663	34	C	07/05/2024	12:12	-127.302	47.248	0	833.10	0	3.9150	0	34.3060	0	27.249	0	824.510	0	7.1	4	2.3	4	-1E+10	1	-1E+10	1	-1E+10	1	-1E+10	1	-1E+10	1	-1E+10	1
4902663	34	C	07/05/2024	12:12	-127.302	47.248	0	837.90	0	3.8990	0	34.3070	0	27.252	0	829.251	0	7.1	4	2.2	4	-1E+10	1	-1E+10	1	-1E+10	1	-1E+10	1	-1E+10	1	-1E+10	1
4902663	34	C	07/05/2024	12:12	-127.302	47.248	0	842.60	0	3.8890	0	34.3100	0	27.255	0	833.893	0	7.0	4	2.2	4	-1E+10	1	-1E+10	1	-1E+10	1	-1E+10	1	-1E+10	1	-1E+10	1
4902663	34	C	07/05/2024	12:12	-127.302	47.248	0	847.70	0	3.8750	0	34.3140	0	27.260	0	838.930	0	7.0	4	2.2	4	-1E+10	1	-1E+10	1	-1E+10	1	-1E+10	1	-1E+10	1	-1E+10	1
4902663	34	C	07/05/2024	12:12	-127.302	47.248	0	852.90	0	3.8660	0	34.3170	0	27.263	0	844.066	0	7.0	4	2.2	4	-1E+10	1	-1E+10	1	-1E+10	1	-1E+10	1	-1E+10	1	-1E+10	1
4902663	34	C	07/05/2024	12:12	-127.302	47.248	0	858.20	0	3.8600	0	34.3200	0	27.266	0	849.300	0	6.9	4	2.2	4	-1E+10	1	-1E+10	1	-1E+10	1	-1E+10	1	-1E+10	1	-1E+10	1
4902663	34	C	07/05/2024	12:12	-127.302	47.248	0	863.00	0	3.8580	0	34.3220	0	27.268	0	854.041	0	7.0	4	2.2	4	-1E+10	1	-1E+10	1	-1E+10	1	-1E+10	1	-1E+10	1	-1E+10	1
4902663	34	C	07/05/2024	12:12	-127.302	47.248	0	867.90	0	3.8300	0	34.3230	0	27.271	0	858.880	0	7.0	4	2.2	4	-1E+10	1	-1E+10	1	-1E+10	1	-1E+10	1	-1E+10	1	-1E+10	1
4902663	34	C	07/05/2024	12:12	-127.302	47.248	0	872.80	0	3.7900	0	34.3220	0	27.275	0	863.719	0	7.0	4	2.2	4	-1E+10	1	-1E+10	1	-1E+10	1	-1E+10	1	-1E+10	1	-1E+10	1
4902663	34	C	07/05/2024	12:12	-127.302	47.248	0	877.70	0	3.8000	0	34.3280	0	27.278	0	868.558	0	7.0	4	2.2	4	-1E+10	1	-1E+10	1	-1E+10	1	-1E+10	1	-1E+10	1	-1E+10	1
4902663	34	C	07/05/2024	12:12	-127.302	47.248	0	882.70	0	3.7920	0	34.3330	0	27.283	0	873.495	0	7.1	4	2.2	4	-1E+10	1	-1E+10	1	-1E+10	1	-1E+10	1	-1E+10	1	-1E+10	1
4902663	34	C	07/05/2024	12:12	-127.302	47.248	0	887.60	0	3.7470	0	34.3290	0	27.285	0	878.334	0	7.1	4	2.2	4	-1E+10	1	-1E+10	1	-1E+10	1	-1E+10	1	-1E+10	1	-1E+10	1
4902663	34	C	07/05/2024	12:12	-127.302	47.248	0	893.00	0	3.7280	0	34.3310	0	27.288	0	883.666	0	7.1	4	2.2	4	-1E+10	1	-1E+10	1	-1E+10	1	-1E+10	1	-1E+10	1	-1E+10	1
4902663	34	C	07/05/2024	12:12	-127.302	47.248	0	898.10	0	3.7240	0	34.3350	0	27.292	0	888.702	0	7.1	4	2.2	4	-1E+10	1	-1E+10	1	-1E+10	1	-1E+10	1	-1E+10	1	-1E+10	1
4902663	34	C	07/05/2024	12:12	-127.302	47.248	0	902.70	0	3.7120	0	34.3370	0	27.295	0	893.244	0	7.1	4	2.2	4	-1E+10	1	-1E+10	1	-1E+10	1	-1E+10	1	-1E+10	1	-1E+10	1
4902663	34	C	07/05/2024	12:12	-127.302	47.248	0	907.70	0	3.7160	0	34.3410	0	27.297	0	898.181	0	7.1	4	2.2	4	-1E+10	1	-1E+10	1	-1E+10	1	-1E+10	1	-1E+10	1	-1E+10	1
4902663	34	C	07/05/2024	12:12	-127.302	47.248	0	912.80	0	3.6880	0	34.3420	0	27.301	0	903.216	0	7.1	4	2.2	4	-1E+10	1	-1E+10	1	-1E+10	1	-1E+10	1	-1E+10	1	-1E+10	1
4902663	34	C	07/05/2024	12:12	-127.302	47.248	0	917.80	0	3.6830	0	34.3440	0	27.303	0	908.153	0	7.1	4	2.2	4	-1E+10	1	-1E+10	1	-1E+10	1	-1E+10	1	-1E+10	1	-1E+10	1
4902663	34	C	07/05/2024	12:12	-127.302	47.248	0	922.90	0	3.6760	0	34.3460	0	27.305	0	913.188	0	7.2	4	2.2	4	-1E+10	1	-1E+10	1	-1E+10	1	-1E+10	1	-1E+10	1	-1E+10	1
4902663	34	C	07/05/2024	12:12	-127.302	47.248	0	927.60	0	3.6750	0	34.3500	0	27.309	0	917.828	0	7.2	4	2.3	4	-1E+10	1	-1E+10	1	-1E+10	1	-1E+10	1	-1E+10	1	-1E+10	1
4902663	34	C	07/05/2024	12:12	-127.302	47.248	0	932.80	0	3.6530	0	34.3520	0	27.312	0	922.962	0	7.2	4	2.3	4	-1E+10	1	-1E+10	1	-1E+10	1	-1E+10	1	-1E+10	1	-1E+10	1
4902663	34	C	07/05/2024	12:12	-127.302	47.248	0	938.00	0	3.6490	0	34.3550	0	27.315	0	928.096	0	7.2	4	2.3	4	-1E+10	1	-1E+10	1	-1E+10	1	-1E+10	1	-1E+10	1	-1E+10	1
4902663	34	C	07/05/2024	12:12	-127.302	47.248	0	942.80	0	3.6640	0	34.3630	0	27.320	0	932.834	0	7.3	4	2.3	4	-1E+10	1	-1E+10	1	-1E+10	1	-1E+10	1	-1E+10	1	-1E+10	1
4902663	34	C	07/05/2024	12:12	-127.302	47.248	0	947.50	0	3.6540	0	34.3650	0	27.323	0	937.474	0	7.4	4	2.3	4	-1E+10	1	-1E+10	1	-1E+10	1	-1E+10	1	-1E+10	1	-1E+10	1
4902663	34	C	07/05/2024	12:12	-127.302	47.248	0	952.80	0	3.6260	0	34.3660	0	27.326	0	942.706	0	7.4	4	2.3	4	-1E+10	1	-1E+10	1	-1E+10	1	-1E+10	1	-1E+10	1	-1E+10	1
4902663	34	C	07/05/2024	12:12	-127.302	47.248	0	958.20	0	3.6150	0	34.3680	0	27.329	0	948.037	0	7.5	4	2.3	4	-1E+10	1	-1E+10	1	-1E+10	1	-1E+10	1	-1E+10	1	-1E+10	1
4902663	34	C	07/05/2024	12:12	-127.302	47.248	0	963.00	0	3.6040	0	34.3700	0	27.332	0	952.775	0	7.5	4	2.4	4	-1E+10	1	-1E+10	1	-1E+10	1	-1E+10	1	-1E+10	1	-1E+10	1
4902663	34	C	07/05/2024	12:12	-127.302	47.248	0	967.90	0	3.5910	0	34.3730	0	27.336	0	957.612	0	7.6	4	2.4	4	-1E+10	1	-1E+10	1	-1E+10	1	-1E+10	1	-1E+10	1	-1E+10	1
4902663	34	C	07/05/2024	12:12	-127.302	47.248	0	972.80	0	3.5750	0	34.3750	0	27.339	0	962.448	0	7.6	4	2.4	4	-1E+10	1	-1E+10	1	-1E+10	1	-1E+10	1	-1E+10	1	-1E+10	1
4902663	34	C	07/05/2024	12:12	-127.302	47.248	0	977.70	0	3.5630	0	34.3750	0	27.340	0	967.285	0	7.7	4	2.4	4	-1E+10	1	-1E+10	1	-1E+10	1	-1E+10	1	-1E+10	1	-1E+10	1
4902663	34	C	07/05/2024	12:12	-127.302	47.248	0	982.60	0	3.5560	0	34.3780	0	27.343	0	972.121	0	7.7	4	2.4	4	-1E+10	1	-1E+10	1	-1E+10	1	-1E+10	1	-1E+10	1	-1E+10	1
4902663	34	C	07/05/2024	12:12	-127.302	47.248	0	987.60	0	3.5480	0	34.3800	0	27.345	0	977.056	0	7.8	4	2.4	4	-1E+10	1	-1E+10	1	-1E+10	1	-1E+10	1	-1E+10	1	-1E+10	1
4902663	34	C	07/05/2024	12:12	-127.302	47.248	0	992.50	0	3.5340	0	34.3810	0	27.348	0	981.893	0	7.8	4	2.5	4	-1E+10	1	-1E+10	1	-1E+10	1	-1E+10	1	-1E+10	1	-1E+10	1
4902663	34	C	07/05/2024	12:12	-127.302	47.248	0	997.50	0	3.5290	0	34.3820	0	27.349	0	986.827	0	7.9	4	2.5	4	-1E+10	1	-1E+10	1	-1E+10	1	-1E+10	1	-1E+10	1	-1E+10	1
4902663	34	C	07/05/2024	12:12	-127.302	47.248	0	1005.20	0	3.5120	0	34.3850	0	27.353	0	994.427	0	8.0	4	2.5	4	-1E+10	1	-1E+10	1	-1E+10	1	-1E+10	1	-1E+10	1	-1E+10	1
4902663	34	C	07/05/2024	12:12	-127.302	47.248	0	1015.30	0	3.4880	0	34.3870	0	27.357	0	1004.394	0	8.2	4	2.6	4	-1E+10	1	-1E+10	1	-1E+10	1	-1E+10	1	-1E+10	1	-1E+10	1
4902663	34	C	07/05/2024	12:12	-127.302	47.248	0	1025.60	0	3.4790	0	34.3940	0	27.363	0	1014.559	0	8.5	4	2.7	4	-1E+10	1	-1E+10	1	-1E+10	1	-1E+10	1	-1E+10	1	-1E+10	1
4902663	34	C	07/05/2024	12:12	-127.302	47.248	0	1035.40	0	3.4880	0	34.4030	0	27.370	0	1024.229	0	8.8	4	2.8	4	-1E+10	1	-1E+10	1	-1E+10	1	-1E+10	1	-1E+10	1	-1E+10	1
4902663	34	C	07/05/2024	12:12	-127.302	47.248	0	1045.40	0	3.4700	0	34.4090	0	27.376	0	1034.097	0	9.1	4	2.8	4	-1E+10	1	-1E+10	1	-1E+10	1	-1E+10	1	-1E+10	1	-1E+10	1
4902663	34	C	07/05/2024	12:12	-127.302	47.248	0	1055.30	0	3.4490	0	34.4130	0	27.382	0	1043.865	0	9.3	4	2.9	4	-1E+10	1	-1E+10	1	-1E+10	1	-1E+10	1	-1E+10	1	-1E+10	1
4902663	34	C	07/05/2024	12:12	-127.302	47.248	0	1065.20	0	3.4210	0	34.4160	0	27.387	0	1053.633	0	9.4	4	2.9	4	-1E+10	1	-1E+10	1	-1E+10	1	-1E+10	1	-1E+10	1	-1E+10	1
4902663	34	C	07/05/2024	12:12	-127.302	47.248	0	1075.30	0	3.3870	0	34.4150	0	27.389	0	1063.598	0	9.5	4	3.0	4	-1E+10	1	-1E+10	1	-1E+10	1	-1E+10	1	-1E+10	1	-1E+10	1
4902663	34	C	07/05/2024	12:12	-127.302	47.248	0	1085.20	0	3.3470	0	34.4200	0	27.397	0	1073.365	0	9.9	4	3.1	4	-1E+10	1	-1E+10	1	-1E+10	1	-1E+10	1	-1E+10	1	-1E+10	1
4902663	34	C	07/05/2024	12:12	-127.302	47.248	0	1095.30	0	3.3370	0	34.4240	0	27.401	0	1083.329	0	10.1	4	3.1	4	-1E+10	1	-1E+10	1	-1E+10	1	-1E+10	1	-1E+10	1	-1E+10	1
4902663	34	C	07/05/2024	12:12	-127.302	47.248	0	1105.50	0	3.3330	0	34.4260	0	27.403	0	1093.391	0	10.4	4	3.2	4	-1E+10	1	-1E+10	1	-1E+10	1	-1E+10	1	-1E+10	1	-1E+10	1
4902663	34	C	07/05/2024	12:12	-127.302	47.248	0	1115.50	0	3.3150	0	34.4280	0	27.407	0	1103.255	0	10.6	4	3.3	4	-1E+10	1	-1E+10	1	-1E+10	1	-1E+10	1	-1E+10	1	-1E+10	1
4902663	34	C	07/05/2024	12:12	-127.302	47.248	0	1125.70	0	3.2960	0	34.4300	0	27.410	0	1113.316	0	10.8	4	3.4	4	-1E+10	1	-1E+10	1	-1E+10	1	-1E+10	1	-1E+10	1	-1E+10	1
4902663	34	C	07/05/2024	12:12	-127.302	47.248	0	1135.50	0	3.2730	0	34.4330	0	27.415	0	1122.982	0	11.1	4	3.5	4	-1E+10	1	-1E+10	1	-1E+10	1	-1E+10	1	-1E+10	1	-1E+10	1
4902663	34	C	07/05/2024	12:12	-127.302	47.248	0	1145.40	0	3.2510	0	34.4350	0	27.418	0	1132.746	0	11.3	4	3.5	4	-1E+10	1	-1E+10	1	-1E+10	1	-1E+10	1	-1E+10	1	-1E+10	1
4902663	34	C	07/05/2024	12:12	-127.302	47.248	0	1155.40	0	3.2310	0	34.4370	0	27.422	0	1142.608	0	11.6	4	3.6	4	-1E+10	1	-1E+10	1	-1E+10	1	-1E+10	1	-1E+10	1	-1E+10	1
4902663	34	C	07/05/2024	12:12	-127.302	47.248	0	1165.20	0	3.2040	0	34.4400	0	27.427	0	1152.273	0	11.9	4	3.7	4	-1E+10	1	-1E+10	1	-1E+10	1	-1E+10	1	-1E+10	1	-1E+10	1
4902663	34	C	07/05/2024	12:12	-127.302	47.248	0	1175.60	0	3.1750	0	34.4420	0	27.431	0	1162.529	0	12.2	4	3.8	4	-1E+10	1	-1E+10	1	-1E+10	1	-1E+10	1	-1E+10	1	-1E+10	1
4902663	34	C	07/05/2024	12:12	-127.302	47.248	0	1185.50	0	3.1570	0	34.4450	0	27.435	0	1172.291	0	12.5	4	3.9	4	-1E+10	1	-1E+10	1	-1E+10	1	-1E+10	1	-1E+10	1	-1E+10	1
4902663	34	C	07/05/2024	12:12	-127.302	47.248	0	1195.30	0	3.1330	0	34.4480	0	27.440	0	1181.954	0	12.9	4	4.0	4	-1E+10	1	-1E+10	1	-1E+10	1	-1E+10	1	-1E+10	1	-1E+10	1
4902663	34	C	07/05/2024	12:12	-127.302	47.248	0	1205.30	0	3.1000	0	34.4510	0	27.445	0	1191.814	0	13.3	4	4.1	4	-1E+10	1	-1E+10	1	-1E+10	1	-1E+10	1	-1E+10	1	-1E+10	1
4902663	34	C	07/05/2024	12:12	-127.302	47.248	0	1215.30	0	3.0780	0	34.4550	0	27.451	0	1201.674	0	13.6	4	4.2	4	-1E+10	1	-1E+10	1	-1E+10	1	-1E+10	1	-1E+10	1	-1E+10	1
4902663	34	C	07/05/2024	12:12	-127.302	47.248	0	1225.30	0	3.0510	0	34.4570	0	27.455	0	1211.533	0	13.8	4	4.3	4	-1E+10	1	-1E+10	1	-1E+10	1	-1E+10	1	-1E+10	1	-1E+10	1
4902663	34	C	07/05/2024	12:12	-127.302	47.248	0	1235.30	0	3.0160	0	34.4610	0	27.461	0	1221.392	0	14.1	4	4.4	4	-1E+10	1	-1E+10	1	-1E+10	1	-1E+10	1	-1E+10	1	-1E+10	1
4902663	34	C	07/05/2024	12:12	-127.302	47.248	0	1245.60	0	2.9940	0	34.4630	0	27.465	0	1231.546	0	14.3	4	4.4	4	-1E+10	1	-1E+10	1	-1E+10	1	-1E+10	1	-1E+10	1	-1E+10	1
4902663	34	C	07/05/2024	12:12	-127.302	47.248	0	1255.60	0	2.9710	0	34.4640	0	27.468	0	1241.403	0	14.4	4	4.4	4	-1E+10	1	-1E+10	1	-1E+10	1	-1E+10	1	-1E+10	1	-1E+10	1
4902663	34	C	07/05/2024	12:12	-127.302	47.248	0	1265.70	0	2.9380	0	34.4660	0	27.472	0	1251.359	0	14.7	4	4.5	4	-1E+10	1	-1E+10	1	-1E+10	1	-1E+10	1	-1E+10	1	-1E+10	1
4902663	34	C	07/05/2024	12:12	-127.302	47.248	0	1275.40	0	2.9170	0	34.4690	0	27.477	0	1260.920	0	15.2	4	4.7	4	-1E+10	1	-1E+10	1	-1E+10	1	-1E+10	1	-1E+10	1	-1E+10	1
4902663	34	C	07/05/2024	12:12	-127.302	47.248	0	1285.40	0	2.9100	0	34.4730	0	27.481	0	1270.776	0	15.7	4	4.8	4	-1E+10	1	-1E+10	1	-1E+10	1	-1E+10	1	-1E+10	1	-1E+10	1
4902663	34	C	07/05/2024	12:12	-127.302	47.248	0	1295.30	0	2.8830	0	34.4740	0	27.484	0	1280.534	0	15.8	4	4.9	4	-1E+10	1	-1E+10	1	-1E+10	1	-1E+10	1	-1E+10	1	-1E+10	1
4902663	34	C	07/05/2024	12:12	-127.302	47.248	0	1305.30	0	2.8540	0	34.4750	0	27.487	0	1290.389	0	16.1	4	4.9	4	-1E+10	1	-1E+10	1	-1E+10	1	-1E+10	1	-1E+10	1	-1E+10	1
4902663	34	C	07/05/2024	12:12	-127.302	47.248	0	1315.30	0	2.8340	0	34.4760	0	27.490	0	1300.244	0	16.4	4	5.0	4	-1E+10	1	-1E+10	1	-1E+10	1	-1E+10	1	-1E+10	1	-1E+10	1
4902663	34	C	07/05/2024	12:12	-127.302	47.248	0	1325.10	0	2.8100	0	34.4780	0	27.494	0	1309.901	0	16.8	4	5.2	4	-1E+10	1	-1E+10	1	-1E+10	1	-1E+10	1	-1E+10	1	-1E+10	1
4902663	34	C	07/05/2024	12:12	-127.302	47.248	0	1335.10	0	2.7820	0	34.4800	0	27.498	0	1319.755	0	17.4	4	5.4	4	-1E+10	1	-1E+10	1	-1E+10	1	-1E+10	1	-1E+10	1	-1E+10	1
4902663	34	C	07/05/2024	12:12	-127.302	47.248	0	1345.30	0	2.7660	0	34.4840	0	27.502	0	1329.806	0	17.9	4	5.5	4	-1E+10	1	-1E+10	1	-1E+10	1	-1E+10	1	-1E+10	1	-1E+10	1
4902663	34	C	07/05/2024	12:12	-127.302	47.248	0	1355.60	0	2.7280	0	34.4850	0	27.507	0	1339.955	0	18.0	4	5.5	4	-1E+10	1	-1E+10	1	-1E+10	1	-1E+10	1	-1E+10	1	-1E+10	1
4902663	34	C	07/05/2024	12:12	-127.302	47.248	0	1365.50	0	2.7050	0	34.4860	0	27.509	0	1349.709	0	18.4	4	5.6	4	-1E+10	1	-1E+10	1	-1E+10	1	-1E+10	1	-1E+10	1	-1E+10	1
4902663	34	C	07/05/2024	12:12	-127.302	47.248	0	1375.40	0	2.6820	0	34.4880	0	27.513	0	1359.462	0	18.8	4	5.8	4	-1E+10	1	-1E+10	1	-1E+10	1	-1E+10	1	-1E+10	1	-1E+10	1
4902663	34	C	07/05/2024	12:12	-127.302	47.248	0	1385.50	0	2.6650	0	34.4900	0	27.516	0	1369.413	0	19.3	4	5.9	4	-1E+10	1	-1E+10	1	-1E+10	1	-1E+10	1	-1E+10	1	-1E+10	1
4902663	34	C	07/05/2024	12:12	-127.302	47.248	0	1395.20	0	2.6480	0	34.4930	0	27.520	0	1378.968	0	19.9	4	6.1	4	-1E+10	1	-1E+10	1	-1E+10	1	-1E+10	1	-1E+10	1	-1E+10	1
4902663	34	C	07/05/2024	12:12	-127.302	47.248	0	1405.10	0	2.6370	0	34.4950	0	27.523	0	1388.721	0	20.4	4	6.3	4	-1E+10	1	-1E+10	1	-1E+10	1	-1E+10	1	-1E+10	1	-1E+10	1
4902663	34	C	07/05/2024	12:12	-127.302	47.248	0	1415.10	0	2.6330	0	34.4980	0	27.525	0	1398.571	0	21.0	4	6.4	4	-1E+10	1	-1E+10	1	-1E+10	1	-1E+10	1	-1E+10	1	-1E+10	1
4902663	34	C	07/05/2024	12:12	-127.302	47.248	0	1425.00	0	2.6220	0	34.5000	0	27.528	0	1408.322	0	21.3	4	6.5	4	-1E+10	1	-1E+10	1	-1E+10	1	-1E+10	1	-1E+10	1	-1E+10	1
4902663	34	C	07/05/2024	12:12	-127.302	47.248	0	1435.00	0	2.6050	0	34.5020	0	27.531	0	1418.172	0	21.9	4	6.7	4	-1E+10	1	-1E+10	1	-1E+10	1	-1E+10	1	-1E+10	1	-1E+10	1
4902663	34	C	07/05/2024	12:12	-127.302	47.248	0	1445.10	0	2.5810	0	34.5040	0	27.535	0	1428.119	0	22.4	4	6.9	4	-1E+10	1	-1E+10	1	-1E+10	1	-1E+10	1	-1E+10	1	-1E+10	1
4902663	34	C	07/05/2024	12:12	-127.302	47.248	0	1455.20	0	2.5560	0	34.5060	0	27.539	0	1438.066	0	22.9	4	7.0	4	-1E+10	1	-1E+10	1	-1E+10	1	-1E+10	1	-1E+10	1	-1E+10	1
4902663	34	C	07/05/2024	12:12	-127.302	47.248	0	1465.50	0	2.5430	0	34.5080	0	27.541	0	1448.209	0	23.6	4	7.2	4	-1E+10	1	-1E+10	1	-1E+10	1	-1E+10	1	-1E+10	1	-1E+10	1
4902663	34	C	07/05/2024	12:12	-127.302	47.248	0	1475.40	0	2.5200	0	34.5100	0	27.545	0	1457.958	0	24.3	4	7.4	4	-1E+10	1	-1E+10	1	-1E+10	1	-1E+10	1	-1E+10	1	-1E+10	1
4902663	34	C	07/05/2024	12:12	-127.302	47.248	0	1485.50	0	2.5180	0	34.5140	0	27.548	0	1467.904	0	24.9	4	7.6	4	-1E+10	1	-1E+10	1	-1E+10	1	-1E+10	1	-1E+10	1	-1E+10	1
4902663	34	C	07/05/2024	12:12	-127.302	47.248	0	1495.50	0	2.4940	0	34.5140	0	27.550	0	1477.751	0	25.4	4	7.7	4	-1E+10	1	-1E+10	1	-1E+10	1	-1E+10	1	-1E+10	1	-1E+10	1
4902663	34	C	07/05/2024	12:12	-127.302	47.248	0	1505.60	0	2.4720	0	34.5160	0	27.554	0	1487.695	0	26.1	4	7.9	4	-1E+10	1	-1E+10	1	-1E+10	1	-1E+10	1	-1E+10	1	-1E+10	1
4902663	34	C	07/05/2024	12:12	-127.302	47.248	0	1515.50	0	2.4610	0	34.5190	0	27.557	0	1497.442	0	26.7	4	8.2	4	-1E+10	1	-1E+10	1	-1E+10	1	-1E+10	1	-1E+10	1	-1E+10	1
4902663	34	C	07/05/2024	12:12	-127.302	47.248	0	1525.10	0	2.4560	0	34.5220	0	27.560	0	1506.894	0	27.4	4	8.3	4	-1E+10	1	-1E+10	1	-1E+10	1	-1E+10	1	-1E+10	1	-1E+10	1
4902663	34	C	07/05/2024	12:12	-127.302	47.248	0	1535.30	0	2.4430	0	34.5240	0	27.563	0	1516.936	0	27.9	4	8.5	4	-1E+10	1	-1E+10	1	-1E+10	1	-1E+10	1	-1E+10	1	-1E+10	1
4902663	34	C	07/05/2024	12:12	-127.302	47.248	0	1545.60	0	2.4310	0	34.5260	0	27.566	0	1527.075	0	28.3	4	8.6	4	-1E+10	1	-1E+10	1	-1E+10	1	-1E+10	1	-1E+10	1	-1E+10	1
4902663	34	C	07/05/2024	12:12	-127.302	47.248	0	1555.30	0	2.4180	0	34.5260	0	27.567	0	1536.624	0	28.7	4	8.7	4	-1E+10	1	-1E+10	1	-1E+10	1	-1E+10	1	-1E+10	1	-1E+10	1
4902663	34	C	07/05/2024	12:12	-127.302	47.248	0	1565.50	0	2.4080	0	34.5280	0	27.569	0	1546.664	0	29.3	4	8.9	4	-1E+10	1	-1E+10	1	-1E+10	1	-1E+10	1	-1E+10	1	-1E+10	1
4902663	34	C	07/05/2024	12:12	-127.302	47.248	0	1575.90	0	2.3970	0	34.5310	0	27.573	0	1556.901	0	30.0	4	9.1	4	-1E+10	1	-1E+10	1	-1E+10	1	-1E+10	1	-1E+10	1	-1E+10	1
4902663	34	C	07/05/2024	12:12	-127.302	47.248	0	1585.90	0	2.3840	0	34.5320	0	27.574	0	1566.743	0	30.4	4	9.3	4	-1E+10	1	-1E+10	1	-1E+10	1	-1E+10	1	-1E+10	1	-1E+10	1
4902663	34	C	07/05/2024	12:12	-127.302	47.248	0	1595.40	0	2.3560	0	34.5330	0	27.578	0	1576.093	0	30.6	4	9.3	4	-1E+10	1	-1E+10	1	-1E+10	1	-1E+10	1	-1E+10	1	-1E+10	1
4902663	34	C	07/05/2024	12:12	-127.302	47.248	0	1605.10	0	2.3320	0	34.5330	0	27.580	0	1585.639	0	30.9	4	9.4	4	-1E+10	1	-1E+10	1	-1E+10	1	-1E+10	1	-1E+10	1	-1E+10	1
4902663	34	C	07/05/2024	12:12	-127.302	47.248	0	1615.60	0	2.3270	0	34.5350	0	27.582	0	1595.972	0	31.6	4	9.6	4	-1E+10	1	-1E+10	1	-1E+10	1	-1E+10	1	-1E+10	1	-1E+10	1
4902663	34	C	07/05/2024	12:12	-127.302	47.248	0	1625.60	0	2.3180	0	34.5380	0	27.585	0	1605.813	0	32.2	4	9.8	4	-1E+10	1	-1E+10	1	-1E+10	1	-1E+10	1	-1E+10	1	-1E+10	1
4902663	34	C	07/05/2024	12:12	-127.302	47.248	0	1635.10	0	2.3050	0	34.5390	0	27.587	0	1615.161	0	32.7	4	9.9	4	-1E+10	1	-1E+10	1	-1E+10	1	-1E+10	1	-1E+10	1	-1E+10	1
4902663	34	C	07/05/2024	12:12	-127.302	47.248	0	1645.30	0	2.2880	0	34.5410	0	27.590	0	1625.198	0	33.3	4	10.1	4	-1E+10	1	-1E+10	1	-1E+10	1	-1E+10	1	-1E+10	1	-1E+10	1
4902663	34	C	07/05/2024	12:12	-127.302	47.248	0	1655.50	0	2.2780	0	34.5430	0	27.592	0	1635.234	0	33.9	4	10.3	4	-1E+10	1	-1E+10	1	-1E+10	1	-1E+10	1	-1E+10	1	-1E+10	1
4902663	34	C	07/05/2024	12:12	-127.302	47.248	0	1665.50	0	2.2610	0	34.5450	0	27.595	0	1645.072	0	34.7	4	10.5	4	-1E+10	1	-1E+10	1	-1E+10	1	-1E+10	1	-1E+10	1	-1E+10	1
4902663	34	C	07/05/2024	12:12	-127.302	47.248	0	1675.40	0	2.2460	0	34.5470	0	27.598	0	1654.812	0	35.3	4	10.7	4	-1E+10	1	-1E+10	1	-1E+10	1	-1E+10	1	-1E+10	1	-1E+10	1
4902663	34	C	07/05/2024	12:12	-127.302	47.248	0	1685.40	0	2.2330	0	34.5490	0	27.601	0	1664.650	0	35.9	4	10.9	4	-1E+10	1	-1E+10	1	-1E+10	1	-1E+10	1	-1E+10	1	-1E+10	1
4902663	34	C	07/05/2024	12:12	-127.302	47.248	0	1695.20	0	2.2200	0	34.5500	0	27.603	0	1674.291	0	36.5	4	11.1	4	-1E+10	1	-1E+10	1	-1E+10	1	-1E+10	1	-1E+10	1	-1E+10	1
4902663	34	C	07/05/2024	12:12	-127.302	47.248	0	1705.20	0	2.2070	0	34.5520	0	27.605	0	1684.128	0	36.9	4	11.2	4	-1E+10	1	-1E+10	1	-1E+10	1	-1E+10	1	-1E+10	1	-1E+10	1
4902663	34	C	07/05/2024	12:12	-127.302	47.248	0	1715.40	0	2.1980	0	34.5530	0	27.607	0	1694.161	0	37.4	4	11.3	4	-1E+10	1	-1E+10	1	-1E+10	1	-1E+10	1	-1E+10	1	-1E+10	1
4902663	34	C	07/05/2024	12:12	-127.302	47.248	0	1725.10	0	2.1850	0	34.5540	0	27.609	0	1703.702	0	38.0	4	11.5	4	-1E+10	1	-1E+10	1	-1E+10	1	-1E+10	1	-1E+10	1	-1E+10	1
4902663	34	C	07/05/2024	12:12	-127.302	47.248	0	1735.40	0	2.1770	0	34.5560	0	27.611	0	1713.833	0	38.7	4	11.7	4	-1E+10	1	-1E+10	1	-1E+10	1	-1E+10	1	-1E+10	1	-1E+10	1
4902663	34	C	07/05/2024	12:12	-127.302	47.248	0	1745.40	0	2.1640	0	34.5570	0	27.613	0	1723.668	0	39.3	4	11.9	4	-1E+10	1	-1E+10	1	-1E+10	1	-1E+10	1	-1E+10	1	-1E+10	1
4902663	34	C	07/05/2024	12:12	-127.302	47.248	0	1755.00	0	2.1520	0	34.5580	0	27.615	0	1733.109	0	39.9	4	12.1	4	-1E+10	1	-1E+10	1	-1E+10	1	-1E+10	1	-1E+10	1	-1E+10	1
4902663	34	C	07/05/2024	12:12	-127.302	47.248	0	1765.00	0	2.1410	0	34.5600	0	27.617	0	1742.943	0	40.4	4	12.2	4	-1E+10	1	-1E+10	1	-1E+10	1	-1E+10	1	-1E+10	1	-1E+10	1
4902663	34	C	07/05/2024	12:12	-127.302	47.248	0	1775.10	0	2.1310	0	34.5610	0	27.619	0	1752.876	0	41.0	4	12.4	4	-1E+10	1	-1E+10	1	-1E+10	1	-1E+10	1	-1E+10	1	-1E+10	1
4902663	34	C	07/05/2024	12:12	-127.302	47.248	0	1785.20	0	2.1210	0	34.5630	0	27.622	0	1762.807	0	41.7	4	12.6	4	-1E+10	1	-1E+10	1	-1E+10	1	-1E+10	1	-1E+10	1	-1E+10	1
4902663	34	C	07/05/2024	12:12	-127.302	47.248	0	1795.40	0	2.1060	0	34.5640	0	27.624	0	1772.837	0	42.4	4	12.8	4	-1E+10	1	-1E+10	1	-1E+10	1	-1E+10	1	-1E+10	1	-1E+10	1
4902663	34	C	07/05/2024	12:12	-127.302	47.248	0	1805.30	0	2.0930	0	34.5650	0	27.625	0	1782.571	0	43.0	4	13.0	4	-1E+10	1	-1E+10	1	-1E+10	1	-1E+10	1	-1E+10	1	-1E+10	1
4902663	34	C	07/05/2024	12:12	-127.302	47.248	0	1815.40	0	2.0850	0	34.5670	0	27.628	0	1792.501	0	43.5	4	13.1	4	-1E+10	1	-1E+10	1	-1E+10	1	-1E+10	1	-1E+10	1	-1E+10	1
4902663	34	C	07/05/2024	12:12	-127.302	47.248	0	1825.50	0	2.0760	0	34.5680	0	27.629	0	1802.431	0	44.0	4	13.3	4	-1E+10	1	-1E+10	1	-1E+10	1	-1E+10	1	-1E+10	1	-1E+10	1
4902663	34	C	07/05/2024	12:12	-127.302	47.248	0	1835.50	0	2.0690	0	34.5690	0	27.631	0	1812.262	0	44.6	4	13.5	4	-1E+10	1	-1E+10	1	-1E+10	1	-1E+10	1	-1E+10	1	-1E+10	1
4902663	34	C	07/05/2024	12:12	-127.302	47.248	0	1845.50	0	2.0600	0	34.5700	0	27.632	0	1822.092	0	45.2	4	13.7	4	-1E+10	1	-1E+10	1	-1E+10	1	-1E+10	1	-1E+10	1	-1E+10	1
4902663	34	C	07/05/2024	12:12	-127.302	47.248	0	1855.40	0	2.0470	0	34.5720	0	27.635	0	1831.824	0	46.0	4	13.9	4	-1E+10	1	-1E+10	1	-1E+10	1	-1E+10	1	-1E+10	1	-1E+10	1
4902663	34	C	07/05/2024	12:12	-127.302	47.248	0	1865.40	0	2.0350	0	34.5740	0	27.638	0	1841.654	0	46.7	4	14.1	4	-1E+10	1	-1E+10	1	-1E+10	1	-1E+10	1	-1E+10	1	-1E+10	1
4902663	34	C	07/05/2024	12:12	-127.302	47.248	0	1875.50	0	2.0270	0	34.5750	0	27.639	0	1851.581	0	47.4	4	14.3	4	-1E+10	1	-1E+10	1	-1E+10	1	-1E+10	1	-1E+10	1	-1E+10	1
4902663	34	C	07/05/2024	12:12	-127.302	47.248	0	1885.50	0	2.0170	0	34.5770	0	27.641	0	1861.410	0	48.1	4	14.5	4	-1E+10	1	-1E+10	1	-1E+10	1	-1E+10	1	-1E+10	1	-1E+10	1
4902663	34	C	07/05/2024	12:12	-127.302	47.248	0	1895.80	0	2.0070	0	34.5790	0	27.644	0	1871.533	0	48.8	4	14.7	4	-1E+10	1	-1E+10	1	-1E+10	1	-1E+10	1	-1E+10	1	-1E+10	1
4902663	34	C	07/05/2024	12:12	-127.302	47.248	0	1905.60	0	1.9990	0	34.5800	0	27.645	0	1881.164	0	49.4	4	14.9	4	-1E+10	1	-1E+10	1	-1E+10	1	-1E+10	1	-1E+10	1	-1E+10	1
4902663	34	C	07/05/2024	12:12	-127.302	47.248	0	1915.50	0	1.9910	0	34.5820	0	27.648	0	1890.894	0	50.0	4	15.1	4	-1E+10	1	-1E+10	1	-1E+10	1	-1E+10	1	-1E+10	1	-1E+10	1
4902663	34	C	07/05/2024	12:12	-127.302	47.248	0	1925.80	0	1.9840	0	34.5830	0	27.649	0	1901.015	0	50.4	4	15.2	4	-1E+10	1	-1E+10	1	-1E+10	1	-1E+10	1	-1E+10	1	-1E+10	1
4902663	34	C	07/05/2024	12:12	-127.302	47.248	0	1935.50	0	1.9780	0	34.5850	0	27.651	0	1910.547	0	51.0	4	15.4	4	-1E+10	1	-1E+10	1	-1E+10	1	-1E+10	1	-1E+10	1	-1E+10	1
4902663	34	C	07/05/2024	12:12	-127.302	47.248	0	1945.50	0	1.9700	0	34.5860	0	27.653	0	1920.373	0	51.5	4	15.5	4	-1E+10	1	-1E+10	1	-1E+10	1	-1E+10	1	-1E+10	1	-1E+10	1
4902663	34	C	07/05/2024	12:12	-127.302	47.248	0	1955.60	0	1.9620	0	34.5870	0	27.654	0	1930.297	0	52.2	4	15.7	4	-1E+10	1	-1E+10	1	-1E+10	1	-1E+10	1	-1E+10	1	-1E+10	1
4902663	34	C	07/05/2024	12:12	-127.302	47.248	0	1965.40	0	1.9550	0	34.5880	0	27.655	0	1939.925	0	52.7	4	15.9	4	-1E+10	1	-1E+10	1	-1E+10	1	-1E+10	1	-1E+10	1	-1E+10	1
4902663	34	C	07/05/2024	12:12	-127.302	47.248	0	1975.20	0	1.9490	0	34.5900	0	27.658	0	1949.553	0	53.1	4	16.0	4	-1E+10	1	-1E+10	1	-1E+10	1	-1E+10	1	-1E+10	1	-1E+10	1
4902663	34	C	07/05/2024	12:12	-127.302	47.248	0	1985.60	0	1.9430	0	34.5910	0	27.659	0	1959.771	0	53.5	4	16.1	4	-1E+10	1	-1E+10	1	-1E+10	1	-1E+10	1	-1E+10	1	-1E+10	1
4902663	34	C	07/05/2024	12:12	-127.302	47.248	0	1995.60	0	1.9370	0	34.5920	0	27.660	0	1969.594	0	53.9	4	16.2	4	-1E+10	1	-1E+10	1	-1E+10	1	-1E+10	1	-1E+10	1	-1E+10	1
4902663	34	C	07/05/2024	12:12	-127.302	47.248	0	2005.20	0	1.9320	0	34.5930	0	27.661	0	1979.025	0	54.2	4	16.3	4	-1E+10	1	-1E+10	1	-1E+10	1	-1E+10	1	-1E+10	1	-1E+10	1
4902663	34	C	07/05/2024	12:12	-127.302	47.248	0	2015.80	0	1.9260	0	34.5950	0	27.664	0	1989.437	0	54.3	4	16.3	4	-1E+10	1	-1E+10	1	-1E+10	1	-1E+10	1	-1E+10	1	-1E+10	1
4902663	34	C	07/05/2024	12:12	-127.302	47.248	0	2020.90	0	1.9250	0	34.5950	0	27.664	0	1994.446	0	53.9	4	16.2	4	-1E+10	1	-1E+10	1	-1E+10	1	-1E+10	1	-1E+10	1	-1E+10	1
4902663	34	C	07/05/2024	12:12	-127.302	47.248	0																										
4902663	35	C	07/15/2024	07:13	-127.027	47.185	0	0.10	0	15.8590	0	32.0390	0	23.503	0	0.099	0	246.2	4	99.0	4	-1E+10	1	-1E+10	1	-1E+10	1	-1E+10	1	-1E+10	1	-1E+10	1
4902663	35	C	07/15/2024	07:13	-127.027	47.185	0	0.20	0	15.8590	0	32.0090	0	23.480	0	0.198	0	246.3	4	99.0	4	-1E+10	1	-1E+10	1	-1E+10	1	-1E+10	1	-1E+10	1	-1E+10	1
4902663	35	C	07/15/2024	07:13	-127.027	47.185	0	0.30	0	15.8580	0	32.0360	0	23.501	0	0.298	0	-1e10	1	-1e10	1	-1E+10	1	-1E+10	1	-1E+10	1	-1E+10	1	-1E+10	1	-1E+10	1
4902663	35	C	07/15/2024	07:13	-127.027	47.185	0	0.40	0	15.8630	0	32.0440	0	23.506	0	0.397	0	240.6	4	96.7	4	-1E+10	1	-1E+10	1	-1E+10	1	-1E+10	1	-1E+10	1	-1E+10	1
4902663	35	C	07/15/2024	07:13	-127.027	47.185	0	0.90	0	15.8640	0	32.0430	0	23.505	0	0.893	0	240.5	4	96.7	4	-1E+10	1	-1E+10	1	-1E+10	1	-1E+10	1	-1E+10	1	-1E+10	1
4902663	35	C	07/15/2024	07:13	-127.027	47.185	0	1.80	0	15.8680	0	32.0420	0	23.504	0	1.785	0	240.5	4	96.7	4	-1E+10	1	-1E+10	1	-1E+10	1	-1E+10	1	-1E+10	1	-1E+10	1
4902663	35	C	07/15/2024	07:13	-127.027	47.185	0	3.00	0	15.8690	0	32.0410	0	23.503	0	2.975	0	240.5	4	96.7	4	-1E+10	1	-1E+10	1	-1E+10	1	-1E+10	1	-1E+10	1	-1E+10	1
4902663	35	C	07/15/2024	07:13	-127.027	47.185	0	3.80	0	15.8690	0	32.0420	0	23.504	0	3.768	0	240.6	4	96.8	4	-1E+10	1	-1E+10	1	-1E+10	1	-1E+10	1	-1E+10	1	-1E+10	1
4902663	35	C	07/15/2024	07:13	-127.027	47.185	0	4.70	0	15.8700	0	32.0440	0	23.505	0	4.661	0	240.6	4	96.8	4	-1E+10	1	-1E+10	1	-1E+10	1	-1E+10	1	-1E+10	1	-1E+10	1
4902663	35	C	07/15/2024	07:13	-127.027	47.185	0	5.90	0	15.8700	0	32.0430	0	23.504	0	5.851	0	240.7	4	96.8	4	-1E+10	1	-1E+10	1	-1E+10	1	-1E+10	1	-1E+10	1	-1E+10	1
4902663	35	C	07/15/2024	07:13	-127.027	47.185	0	7.20	0	15.8700	0	32.0430	0	23.504	0	7.140	0	240.7	4	96.8	4	-1E+10	1	-1E+10	1	-1E+10	1	-1E+10	1	-1E+10	1	-1E+10	1
4902663	35	C	07/15/2024	07:13	-127.027	47.185	0	8.00	0	15.8700	0	32.0430	0	23.504	0	7.933	0	240.8	4	96.8	4	-1E+10	1	-1E+10	1	-1E+10	1	-1E+10	1	-1E+10	1	-1E+10	1
4902663	35	C	07/15/2024	07:13	-127.027	47.185	0	9.00	0	15.8700	0	32.0430	0	23.504	0	8.925	0	240.8	4	96.9	4	-1E+10	1	-1E+10	1	-1E+10	1	-1E+10	1	-1E+10	1	-1E+10	1
4902663	35	C	07/15/2024	07:13	-127.027	47.185	0	9.90	0	15.8700	0	32.0430	0	23.504	0	9.817	0	240.9	4	96.9	4	-1E+10	1	-1E+10	1	-1E+10	1	-1E+10	1	-1E+10	1	-1E+10	1
4902663	35	C	07/15/2024	07:13	-127.027	47.185	0	11.00	0	15.8710	0	32.0440	0	23.505	0	10.908	0	241.0	4	96.9	4	-1E+10	1	-1E+10	1	-1E+10	1	-1E+10	1	-1E+10	1	-1E+10	1
4902663	35	C	07/15/2024	07:13	-127.027	47.185	0	12.00	0	15.8710	0	32.0440	0	23.505	0	11.900	0	241.2	4	97.0	4	-1E+10	1	-1E+10	1	-1E+10	1	-1E+10	1	-1E+10	1	-1E+10	1
4902663	35	C	07/15/2024	07:13	-127.027	47.185	0	13.10	0	15.8700	0	32.0440	0	23.505	0	12.991	0	241.4	4	97.1	4	-1E+10	1	-1E+10	1	-1E+10	1	-1E+10	1	-1E+10	1	-1E+10	1
4902663	35	C	07/15/2024	07:13	-127.027	47.185	0	14.20	0	15.8700	0	32.0430	0	23.505	0	14.081	0	241.5	4	97.2	4	-1E+10	1	-1E+10	1	-1E+10	1	-1E+10	1	-1E+10	1	-1E+10	1
4902663	35	C	07/15/2024	07:13	-127.027	47.185	0	15.30	0	15.8720	0	32.0430	0	23.504	0	15.172	0	241.8	4	97.3	4	-1E+10	1	-1E+10	1	-1E+10	1	-1E+10	1	-1E+10	1	-1E+10	1
4902663	35	C	07/15/2024	07:13	-127.027	47.185	0	16.40	0	15.8720	0	32.0430	0	23.504	0	16.263	0	242.0	4	97.4	4	-1E+10	1	-1E+10	1	-1E+10	1	-1E+10	1	-1E+10	1	-1E+10	1
4902663	35	C	07/15/2024	07:13	-127.027	47.185	0	17.50	0	15.8710	0	32.0430	0	23.504	0	17.354	0	242.4	4	97.5	4	-1E+10	1	-1E+10	1	-1E+10	1	-1E+10	1	-1E+10	1	-1E+10	1
4902663	35	C	07/15/2024	07:13	-127.027	47.185	0	18.60	0	15.8660	0	32.0430	0	23.506	0	18.444	0	242.8	4	97.7	4	-1E+10	1	-1E+10	1	-1E+10	1	-1E+10	1	-1E+10	1	-1E+10	1
4902663	35	C	07/15/2024	07:13	-127.027	47.185	0	19.80	0	15.8660	0	32.0420	0	23.505	0	19.634	0	243.4	4	97.9	4	-1E+10	1	-1E+10	1	-1E+10	1	-1E+10	1	-1E+10	1	-1E+10	1
4902663	35	C	07/15/2024	07:13	-127.027	47.185	0	20.90	0	15.8680	0	32.0420	0	23.505	0	20.725	0	244.4	4	98.3	4	-1E+10	1	-1E+10	1	-1E+10	1	-1E+10	1	-1E+10	1	-1E+10	1
4902663	35	C	07/15/2024	07:13	-127.027	47.185	0	22.10	0	15.8690	0	32.0410	0	23.504	0	21.915	0	245.6	4	98.8	4	-1E+10	1	-1E+10	1	-1E+10	1	-1E+10	1	-1E+10	1	-1E+10	1
4902663	35	C	07/15/2024	07:13	-127.027	47.185	0	22.80	0	15.8600	0	32.0410	0	23.506	0	22.609	0	246.6	4	99.2	4	-1E+10	1	-1E+10	1	-1E+10	1	-1E+10	1	-1E+10	1	-1E+10	1
4902663	35	C	07/15/2024	07:13	-127.027	47.185	0	23.80	0	15.8580	0	32.0400	0	23.505	0	23.601	0	248.6	4	99.9	4	-1E+10	1	-1E+10	1	-1E+10	1	-1E+10	1	-1E+10	1	-1E+10	1
4902663	35	C	07/15/2024	07:13	-127.027	47.185	0	25.10	0	15.8560	0	32.0370	0	23.503	0	24.890	0	252.0	4	101.3	4	-1E+10	1	-1E+10	1	-1E+10	1	-1E+10	1	-1E+10	1	-1E+10	1
4902663	35	C	07/15/2024	07:13	-127.027	47.185	0	26.00	0	15.8310	0	32.0420	0	23.513	0	25.782	0	255.0	4	102.5	4	-1E+10	1	-1E+10	1	-1E+10	1	-1E+10	1	-1E+10	1	-1E+10	1
4902663	35	C	07/15/2024	07:13	-127.027	47.185	0	26.70	0	15.8200	0	32.0270	0	23.504	0	26.476	0	259.9	4	104.4	4	-1E+10	1	-1E+10	1	-1E+10	1	-1E+10	1	-1E+10	1	-1E+10	1
4902663	35	C	07/15/2024	07:13	-127.027	47.185	0	27.80	0	15.6500	0	32.0220	0	23.538	0	27.567	0	268.8	4	107.6	4	-1E+10	1	-1E+10	1	-1E+10	1	-1E+10	1	-1E+10	1	-1E+10	1
4902663	35	C	07/15/2024	07:13	-127.027	47.185	0	28.80	0	14.0580	0	32.2270	0	24.035	0	28.558	0	278.3	4	108.1	4	-1E+10	1	-1E+10	1	-1E+10	1	-1E+10	1	-1E+10	1	-1E+10	1
4902663	35	C	07/15/2024	07:13	-127.027	47.185	0	29.70	0	13.5330	0	32.3370	0	24.226	0	29.451	0	279.4	4	107.5	4	-1E+10	1	-1E+10	1	-1E+10	1	-1E+10	1	-1E+10	1	-1E+10	1
4902663	35	C	07/15/2024	07:13	-127.027	47.185	0	30.60	0	13.2330	0	32.3290	0	24.280	0	30.343	0	279.6	4	106.9	4	-1E+10	1	-1E+10	1	-1E+10	1	-1E+10	1	-1E+10	1	-1E+10	1
4902663	35	C	07/15/2024	07:13	-127.027	47.185	0	31.90	0	13.1240	0	32.3310	0	24.303	0	31.632	0	277.3	4	105.8	4	-1E+10	1	-1E+10	1	-1E+10	1	-1E+10	1	-1E+10	1	-1E+10	1
4902663	35	C	07/15/2024	07:13	-127.027	47.185	0	33.30	0	12.9800	0	32.3340	0	24.334	0	33.020	0	275.2	4	104.7	4	-1E+10	1	-1E+10	1	-1E+10	1	-1E+10	1	-1E+10	1	-1E+10	1
4902663	35	C	07/15/2024	07:13	-127.027	47.185	0	34.30	0	12.7860	0	32.3450	0	24.380	0	34.012	0	274.2	4	103.9	4	-1E+10	1	-1E+10	1	-1E+10	1	-1E+10	1	-1E+10	1	-1E+10	1
4902663	35	C	07/15/2024	07:13	-127.027	47.185	0	35.20	0	12.6480	0	32.3340	0	24.398	0	34.904	0	273.7	4	103.4	4	-1E+10	1	-1E+10	1	-1E+10	1	-1E+10	1	-1E+10	1	-1E+10	1
4902663	35	C	07/15/2024	07:13	-127.027	47.185	0	36.00	0	12.6160	0	32.3310	0	24.402	0	35.697	0	272.8	4	103.0	4	-1E+10	1	-1E+10	1	-1E+10	1	-1E+10	1	-1E+10	1	-1E+10	1
4902663	35	C	07/15/2024	07:13	-127.027	47.185	0	36.80	0	12.5770	0	32.3320	0	24.410	0	36.491	0	271.5	4	102.4	4	-1E+10	1	-1E+10	1	-1E+10	1	-1E+10	1	-1E+10	1	-1E+10	1
4902663	35	C	07/15/2024	07:13	-127.027	47.185	0	38.00	0	12.4570	0	32.3290	0	24.431	0	37.680	0	270.4	4	101.8	4	-1E+10	1	-1E+10	1	-1E+10	1	-1E+10	1	-1E+10	1	-1E+10	1
4902663	35	C	07/15/2024	07:13	-127.027	47.185	0	39.00	0	12.2820	0	32.3280	0	24.463	0	38.672	0	269.8	4	101.2	4	-1E+10	1	-1E+10	1	-1E+10	1	-1E+10	1	-1E+10	1	-1E+10	1
4902663	35	C	07/15/2024	07:13	-127.027	47.185	0	40.00	0	12.0080	0	32.3290	0	24.515	0	39.663	0	269.5	4	100.5	4	-1E+10	1	-1E+10	1	-1E+10	1	-1E+10	1	-1E+10	1	-1E+10	1
4902663	35	C	07/15/2024	07:13	-127.027	47.185	0	41.10	0	11.9160	0	32.3230	0	24.528	0	40.754	0	269.1	4	100.1	4	-1E+10	1	-1E+10	1	-1E+10	1	-1E+10	1	-1E+10	1	-1E+10	1
4902663	35	C	07/15/2024	07:13	-127.027	47.185	0	41.80	0	11.8690	0	32.3250	0	24.538	0	41.448	0	268.8	4	99.9	4	-1E+10	1	-1E+10	1	-1E+10	1	-1E+10	1	-1E+10	1	-1E+10	1
4902663	35	C	07/15/2024	07:13	-127.027	47.185	0	42.80	0	11.6040	0	32.3280	0	24.589	0	42.440	0	269.1	4	99.5	4	-1E+10	1	-1E+10	1	-1E+10	1	-1E+10	1	-1E+10	1	-1E+10	1
4902663	35	C	07/15/2024	07:13	-127.027	47.185	0	44.00	0	11.2440	0	32.3220	0	24.649	0	43.629	0	269.5	4	98.9	4	-1E+10	1	-1E+10	1	-1E+10	1	-1E+10	1	-1E+10	1	-1E+10	1
4902663	35	C	07/15/2024	07:13	-127.027	47.185	0	44.80	0	11.0560	0	32.3230	0	24.683	0	44.423	0	269.6	4	98.5	4	-1E+10	1	-1E+10	1	-1E+10	1	-1E+10	1	-1E+10	1	-1E+10	1
4902663	35	C	07/15/2024	07:13	-127.027	47.185	0	46.00	0	10.7170	0	32.3280	0	24.746	0	45.612	0	269.5	4	97.8	4	-1E+10	1	-1E+10	1	-1E+10	1	-1E+10	1	-1E+10	1	-1E+10	1
4902663	35	C	07/15/2024	07:13	-127.027	47.185	0	47.30	0	10.5050	0	32.3230	0	24.779	0	46.901	0	269.1	4	97.2	4	-1E+10	1	-1E+10	1	-1E+10	1	-1E+10	1	-1E+10	1	-1E+10	1
4902663	35	C	07/15/2024	07:13	-127.027	47.185	0	48.10	0	10.4480	0	32.3040	0	24.774	0	47.694	0	268.4	4	96.8	4	-1E+10	1	-1E+10	1	-1E+10	1	-1E+10	1	-1E+10	1	-1E+10	1
4902663	35	C	07/15/2024	07:13	-127.027	47.185	0	49.00	0	10.1210	0	32.3480	0	24.863	0	48.587	0	268.0	4	96.0	4	-1E+10	1	-1E+10	1	-1E+10	1	-1E+10	1	-1E+10	1	-1E+10	1
4902663	35	C	07/15/2024	07:13	-127.027	47.185	0	50.00	0	9.9960	0	32.3290	0	24.869	0	49.578	0	267.5	4	95.6	4	-1E+10	1	-1E+10	1	-1E+10	1	-1E+10	1	-1E+10	1	-1E+10	1
4902663	35	C	07/15/2024	07:13	-127.027	47.185	0	50.90	0	9.9260	0	32.3300	0	24.881	0	50.470	0	267.3	4	95.3	4	-1E+10	1	-1E+10	1	-1E+10	1	-1E+10	1	-1E+10	1	-1E+10	1
4902663	35	C	07/15/2024	07:13	-127.027	47.185	0	51.90	0	9.8930	0	32.3280	0	24.885	0	51.462	0	266.8	4	95.1	4	-1E+10	1	-1E+10	1	-1E+10	1	-1E+10	1	-1E+10	1	-1E+10	1
4902663	35	C	07/15/2024	07:13	-127.027	47.185	0	52.80	0	9.8570	0	32.3280	0	24.891	0	52.354	0	266.3	4	94.8	4	-1E+10	1	-1E+10	1	-1E+10	1	-1E+10	1	-1E+10	1	-1E+10	1
4902663	35	C	07/15/2024	07:13	-127.027	47.185	0	53.70	0	9.8310	0	32.3270	0	24.895	0	53.246	0	265.8	4	94.6	4	-1E+10	1	-1E+10	1	-1E+10	1	-1E+10	1	-1E+10	1	-1E+10	1
4902663	35	C	07/15/2024	07:13	-127.027	47.185	0	54.70	0	9.8290	0	32.3260	0	24.894	0	54.238	0	265.4	4	94.4	4	-1E+10	1	-1E+10	1	-1E+10	1	-1E+10	1	-1E+10	1	-1E+10	1
4902663	35	C	07/15/2024	07:13	-127.027	47.185	0	55.70	0	9.7410	0	32.3310	0	24.912	0	55.229	0	264.8	4	94.1	4	-1E+10	1	-1E+10	1	-1E+10	1	-1E+10	1	-1E+10	1	-1E+10	1
4902663	35	C	07/15/2024	07:13	-127.027	47.185	0	56.60	0	9.7070	0	32.3300	0	24.917	0	56.122	0	264.3	4	93.8	4	-1E+10	1	-1E+10	1	-1E+10	1	-1E+10	1	-1E+10	1	-1E+10	1
4902663	35	C	07/15/2024	07:13	-127.027	47.185	0	57.60	0	9.6530	0	32.3340	0	24.929	0	57.113	0	263.8	4	93.6	4	-1E+10	1	-1E+10	1	-1E+10	1	-1E+10	1	-1E+10	1	-1E+10	1
4902663	35	C	07/15/2024	07:13	-127.027	47.185	0	58.60	0	9.6170	0	32.3320	0	24.933	0	58.104	0	263.5	4	93.3	4	-1E+10	1	-1E+10	1	-1E+10	1	-1E+10	1	-1E+10	1	-1E+10	1
4902663	35	C	07/15/2024	07:13	-127.027	47.185	0	59.60	0	9.6080	0	32.3330	0	24.936	0	59.096	0	262.9	4	93.1	4	-1E+10	1	-1E+10	1	-1E+10	1	-1E+10	1	-1E+10	1	-1E+10	1
4902663	35	C	07/15/2024	07:13	-127.027	47.185	0	60.50	0	9.5920	0	32.3320	0	24.937	0	59.988	0	262.2	4	92.8	4	-1E+10	1	-1E+10	1	-1E+10	1	-1E+10	1	-1E+10	1	-1E+10	1
4902663	35	C	07/15/2024	07:13	-127.027	47.185	0	61.50	0	9.5570	0	32.3340	0	24.945	0	60.979	0	261.6	4	92.6	4	-1E+10	1	-1E+10	1	-1E+10	1	-1E+10	1	-1E+10	1	-1E+10	1
4902663	35	C	07/15/2024	07:13	-127.027	47.185	0	62.50	0	9.5240	0	32.3350	0	24.951	0	61.971	0	261.1	4	92.3	4	-1E+10	1	-1E+10	1	-1E+10	1	-1E+10	1	-1E+10	1	-1E+10	1
4902663	35	C	07/15/2024	07:13	-127.027	47.185	0	63.50	0	9.5070	0	32.3340	0	24.953	0	62.962	0	260.6	4	92.1	4	-1E+10	1	-1E+10	1	-1E+10	1	-1E+10	1	-1E+10	1	-1E+10	1
4902663	35	C	07/15/2024	07:13	-127.027	47.185	0	64.50	0	9.4640	0	32.3350	0	24.960	0	63.954	0	260.1	4	91.8	4	-1E+10	1	-1E+10	1	-1E+10	1	-1E+10	1	-1E+10	1	-1E+10	1
4902663	35	C	07/15/2024	07:13	-127.027	47.185	0	65.60	0	9.4070	0	32.3380	0	24.972	0	65.044	0	259.5	4	91.5	4	-1E+10	1	-1E+10	1	-1E+10	1	-1E+10	1	-1E+10	1	-1E+10	1
4902663	35	C	07/15/2024	07:13	-127.027	47.185	0	66.60	0	9.3820	0	32.3390	0	24.977	0	66.035	0	258.8	4	91.2	4	-1E+10	1	-1E+10	1	-1E+10	1	-1E+10	1	-1E+10	1	-1E+10	1
4902663	35	C	07/15/2024	07:13	-127.027	47.185	0	67.60	0	9.3670	0	32.3390	0	24.979	0	67.027	0	257.8	4	90.9	4	-1E+10	1	-1E+10	1	-1E+10	1	-1E+10	1	-1E+10	1	-1E+10	1
4902663	35	C	07/15/2024	07:13	-127.027	47.185	0	68.60	0	9.3410	0	32.3410	0	24.985	0	68.018	0	256.9	4	90.5	4	-1E+10	1	-1E+10	1	-1E+10	1	-1E+10	1	-1E+10	1	-1E+10	1
4902663	35	C	07/15/2024	07:13	-127.027	47.185	0	69.60	0	9.2950	0	32.3440	0	24.994	0	69.009	0	255.8	4	90.0	4	-1E+10	1	-1E+10	1	-1E+10	1	-1E+10	1	-1E+10	1	-1E+10	1
4902663	35	C	07/15/2024	07:13	-127.027	47.185	0	70.60	0	9.2540	0	32.3470	0	25.003	0	70.001	0	254.5	4	89.5	4	-1E+10	1	-1E+10	1	-1E+10	1	-1E+10	1	-1E+10	1	-1E+10	1
4902663	35	C	07/15/2024	07:13	-127.027	47.185	0	71.70	0	9.2320	0	32.3450	0	25.005	0	71.091	0	253.1	4	88.9	4	-1E+10	1	-1E+10	1	-1E+10	1	-1E+10	1	-1E+10	1	-1E+10	1
4902663	35	C	07/15/2024	07:13	-127.027	47.185	0	72.70	0	9.1060	0	32.3630	0	25.039	0	72.083	0	251.7	4	88.2	4	-1E+10	1	-1E+10	1	-1E+10	1	-1E+10	1	-1E+10	1	-1E+10	1
4902663	35	C	07/15/2024	07:13	-127.027	47.185	0	73.80	0	9.0370	0	32.3650	0	25.051	0	73.173	0	250.5	4	87.6	4	-1E+10	1	-1E+10	1	-1E+10	1	-1E+10	1	-1E+10	1	-1E+10	1
4902663	35	C	07/15/2024	07:13	-127.027	47.185	0	74.90	0	9.0080	0	32.3680	0	25.058	0	74.264	0	248.8	4	87.0	4	-1E+10	1	-1E+10	1	-1E+10	1	-1E+10	1	-1E+10	1	-1E+10	1
4902663	35	C	07/15/2024	07:13	-127.027	47.185	0	75.90	0	8.9960	0	32.3670	0	25.059	0	75.255	0	247.3	4	86.4	4	-1E+10	1	-1E+10	1	-1E+10	1	-1E+10	1	-1E+10	1	-1E+10	1
4902663	35	C	07/15/2024	07:13	-127.027	47.185	0	76.90	0	8.9690	0	32.3690	0	25.065	0	76.246	0	245.5	4	85.8	4	-1E+10	1	-1E+10	1	-1E+10	1	-1E+10	1	-1E+10	1	-1E+10	1
4902663	35	C	07/15/2024	07:13	-127.027	47.185	0	77.90	0	8.9020	0	32.3860	0	25.088	0	77.238	0	243.4	4	84.9	4	-1E+10	1	-1E+10	1	-1E+10	1	-1E+10	1	-1E+10	1	-1E+10	1
4902663	35	C	07/15/2024	07:13	-127.027	47.185	0	79.00	0	8.8280	0	32.3890	0	25.102	0	78.328	0	241.5	4	84.1	4	-1E+10	1	-1E+10	1	-1E+10	1	-1E+10	1	-1E+10	1	-1E+10	1
4902663	35	C	07/15/2024	07:13	-127.027	47.185	0	80.00	0	8.7700	0	32.4020	0	25.121	0	79.319	0	239.9	4	83.5	4	-1E+10	1	-1E+10	1	-1E+10	1	-1E+10	1	-1E+10	1	-1E+10	1
4902663	35	C	07/15/2024	07:13	-127.027	47.185	0	81.00	0	8.6740	0	32.4220	0	25.152	0	80.311	0	238.1	4	82.7	4	-1E+10	1	-1E+10	1	-1E+10	1	-1E+10	1	-1E+10	1	-1E+10	1
4902663	35	C	07/15/2024	07:13	-127.027	47.185	0	82.10	0	8.6280	0	32.4280	0	25.163	0	81.401	0	236.6	4	82.1	4	-1E+10	1	-1E+10	1	-1E+10	1	-1E+10	1	-1E+10	1	-1E+10	1
4902663	35	C	07/15/2024	07:13	-127.027	47.185	0	83.10	0	8.5730	0	32.4500	0	25.189	0	82.392	0	235.1	4	81.5	4	-1E+10	1	-1E+10	1	-1E+10	1	-1E+10	1	-1E+10	1	-1E+10	1
4902663	35	C	07/15/2024	07:13	-127.027	47.185	0	84.20	0	8.5590	0	32.4590	0	25.198	0	83.483	0	239.3	4	82.9	4	-1E+10	1	-1E+10	1	-1E+10	1	-1E+10	1	-1E+10	1	-1E+10	1
4902663	35	C	07/15/2024	07:13	-127.027	47.185	0	85.10	0	8.5570	0	32.4600	0	25.199	0	84.375	0	237.3	4	82.2	4	-1E+10	1	-1E+10	1	-1E+10	1	-1E+10	1	-1E+10	1	-1E+10	1
4902663	35	C	07/15/2024	07:13	-127.027	47.185	0	86.10	0	8.5170	0	32.4740	0	25.216	0	85.366	0	235.1	4	81.4	4	-1E+10	1	-1E+10	1	-1E+10	1	-1E+10	1	-1E+10	1	-1E+10	1
4902663	35	C	07/15/2024	07:13	-127.027	47.185	0	87.10	0	8.4690	0	32.4960	0	25.240	0	86.357	0	232.3	4	80.3	4	-1E+10	1	-1E+10	1	-1E+10	1	-1E+10	1	-1E+10	1	-1E+10	1
4902663	35	C	07/15/2024	07:13	-127.027	47.185	0	88.00	0	8.4000	0	32.5120	0	25.263	0	87.249	0	229.8	4	79.4	4	-1E+10	1	-1E+10	1	-1E+10	1	-1E+10	1	-1E+10	1	-1E+10	1
4902663	35	C	07/15/2024	07:13	-127.027	47.185	0	89.00	0	8.3770	0	32.5220	0	25.275	0	88.241	0	227.2	4	78.4	4	-1E+10	1	-1E+10	1	-1E+10	1	-1E+10	1	-1E+10	1	-1E+10	1
4902663	35	C	07/15/2024	07:13	-127.027	47.185	0	89.80	0	8.3800	0	32.5420	0	25.290	0	89.034	0	224.5	4	77.5	4	-1E+10	1	-1E+10	1	-1E+10	1	-1E+10	1	-1E+10	1	-1E+10	1
4902663	35	C	07/15/2024	07:13	-127.027	47.185	0	90.70	0	8.3980	0	32.5740	0	25.312	0	89.926	0	222.3	4	76.8	4	-1E+10	1	-1E+10	1	-1E+10	1	-1E+10	1	-1E+10	1	-1E+10	1
4902663	35	C	07/15/2024	07:13	-127.027	47.185	0	91.90	0	8.3930	0	32.6240	0	25.352	0	91.115	0	219.8	4	75.9	4	-1E+10	1	-1E+10	1	-1E+10	1	-1E+10	1	-1E+10	1	-1E+10	1
4902663	35	C	07/15/2024	07:13	-127.027	47.185	0	93.40	0	8.2700	0	32.6710	0	25.407	0	92.602	0	218.3	4	75.3	4	-1E+10	1	-1E+10	1	-1E+10	1	-1E+10	1	-1E+10	1	-1E+10	1
4902663	35	C	07/15/2024	07:13	-127.027	47.185	0	94.30	0	8.1090	0	32.6900	0	25.446	0	93.494	0	216.7	4	74.4	4	-1E+10	1	-1E+10	1	-1E+10	1	-1E+10	1	-1E+10	1	-1E+10	1
4902663	35	C	07/15/2024	07:13	-127.027	47.185	0	95.20	0	8.1010	0	32.7230	0	25.473	0	94.386	0	214.5	4	73.7	4	-1E+10	1	-1E+10	1	-1E+10	1	-1E+10	1	-1E+10	1	-1E+10	1
4902663	35	C	07/15/2024	07:13	-127.027	47.185	0	96.10	0	8.0940	0	32.7300	0	25.479	0	95.279	0	212.3	4	72.9	4	-1E+10	1	-1E+10	1	-1E+10	1	-1E+10	1	-1E+10	1	-1E+10	1
4902663	35	C	07/15/2024	07:13	-127.027	47.185	0	96.90	0	8.0960	0	32.7450	0	25.491	0	96.071	0	210.2	4	72.2	4	-1E+10	1	-1E+10	1	-1E+10	1	-1E+10	1	-1E+10	1	-1E+10	1
4902663	35	C	07/15/2024	07:13	-127.027	47.185	0	97.80	0	8.0810	0	32.7670	0	25.510	0	96.964	0	208.0	4	71.4	4	-1E+10	1	-1E+10	1	-1E+10	1	-1E+10	1	-1E+10	1	-1E+10	1
4902663	35	C	07/15/2024	07:13	-127.027	47.185	0	99.00	0	8.0670	0	32.7740	0	25.518	0	98.153	0	203.6	4	69.9	4	-1E+10	1	-1E+10	1	-1E+10	1	-1E+10	1	-1E+10	1	-1E+10	1
4902663	35	C	07/15/2024	07:13	-127.027	47.185	0	100.20	0	7.9930	0	32.8340	0	25.576	0	99.342	0	197.9	4	67.9	4	-1E+10	1	-1E+10	1	-1E+10	1	-1E+10	1	-1E+10	1	-1E+10	1
4902663	35	C	07/15/2024	07:13	-127.027	47.185	0	101.10	0	7.9600	0	32.8920	0	25.626	0	100.235	0	194.8	4	66.8	4	-1E+10	1	-1E+10	1	-1E+10	1	-1E+10	1	-1E+10	1	-1E+10	1
4902663	35	C	07/15/2024	07:13	-127.027	47.185	0	101.90	0	7.9160	0	32.9170	0	25.652	0	101.028	0	191.5	4	65.6	4	-1E+10	1	-1E+10	1	-1E+10	1	-1E+10	1	-1E+10	1	-1E+10	1
4902663	35	C	07/15/2024	07:13	-127.027	47.185	0	102.80	0	7.8840	0	32.9500	0	25.683	0	101.920	0	188.0	4	64.4	4	-1E+10	1	-1E+10	1	-1E+10	1	-1E+10	1	-1E+10	1	-1E+10	1
4902663	35	C	07/15/2024	07:13	-127.027	47.185	0	104.00	0	7.8210	0	32.9930	0	25.725	0	103.109	0	181.6	4	62.1	4	-1E+10	1	-1E+10	1	-1E+10	1	-1E+10	1	-1E+10	1	-1E+10	1
4902663	35	C	07/15/2024	07:13	-127.027	47.185	0	105.00	0	7.8010	0	33.0540	0	25.776	0	104.100	0	176.0	4	60.2	4	-1E+10	1	-1E+10	1	-1E+10	1	-1E+10	1	-1E+10	1	-1E+10	1
4902663	35	C	07/15/2024	07:13	-127.027	47.185	0	105.70	0	7.8300	0	33.0960	0	25.805	0	104.794	0	171.7	4	58.8	4	-1E+10	1	-1E+10	1	-1E+10	1	-1E+10	1	-1E+10	1	-1E+10	1
4902663	35	C	07/15/2024	07:13	-127.027	47.185	0	106.90	0	7.9880	0	33.1820	0	25.850	0	105.983	0	168.2	4	57.8	4	-1E+10	1	-1E+10	1	-1E+10	1	-1E+10	1	-1E+10	1	-1E+10	1
4902663	35	C	07/15/2024	07:13	-127.027	47.185	0	108.10	0	8.0540	0	33.2100	0	25.862	0	107.173	0	166.6	4	57.4	4	-1E+10	1	-1E+10	1	-1E+10	1	-1E+10	1	-1E+10	1	-1E+10	1
4902663	35	C	07/15/2024	07:13	-127.027	47.185	0	108.90	0	8.0850	0	33.2150	0	25.862	0	107.966	0	165.5	4	57.1	4	-1E+10	1	-1E+10	1	-1E+10	1	-1E+10	1	-1E+10	1	-1E+10	1
4902663	35	C	07/15/2024	07:13	-127.027	47.185	0	109.70	0	8.0980	0	33.2260	0	25.868	0	108.759	0	164.7	4	56.8	4	-1E+10	1	-1E+10	1	-1E+10	1	-1E+10	1	-1E+10	1	-1E+10	1
4902663	35	C	07/15/2024	07:13	-127.027	47.185	0	110.90	0	8.1060	0	33.2330	0	25.873	0	109.948	0	163.3	4	56.3	4	-1E+10	1	-1E+10	1	-1E+10	1	-1E+10	1	-1E+10	1	-1E+10	1
4902663	35	C	07/15/2024	07:13	-127.027	47.185	0	112.10	0	8.1190	0	33.2420	0	25.878	0	111.137	0	161.7	4	55.8	4	-1E+10	1	-1E+10	1	-1E+10	1	-1E+10	1	-1E+10	1	-1E+10	1
4902663	35	C	07/15/2024	07:13	-127.027	47.185	0	113.00	0	8.1080	0	33.2930	0	25.919	0	112.029	0	161.2	4	55.6	4	-1E+10	1	-1E+10	1	-1E+10	1	-1E+10	1	-1E+10	1	-1E+10	1
4902663	35	C	07/15/2024	07:13	-127.027	47.185	0	113.90	0	8.1010	0	33.3260	0	25.946	0	112.922	0	161.3	4	55.7	4	-1E+10	1	-1E+10	1	-1E+10	1	-1E+10	1	-1E+10	1	-1E+10	1
4902663	35	C	07/15/2024	07:13	-127.027	47.185	0	115.10	0	8.0590	0	33.3330	0	25.958	0	114.111	0	161.6	4	55.7	4	-1E+10	1	-1E+10	1	-1E+10	1	-1E+10	1	-1E+10	1	-1E+10	1
4902663	35	C	07/15/2024	07:13	-127.027	47.185	0	115.80	0	8.0590	0	33.3490	0	25.971	0	114.805	0	162.0	4	55.8	4	-1E+10	1	-1E+10	1	-1E+10	1	-1E+10	1	-1E+10	1	-1E+10	1
4902663	35	C	07/15/2024	07:13	-127.027	47.185	0	116.90	0	7.8970	0	33.3620	0	26.004	0	115.895	0	162.5	4	55.8	4	-1E+10	1	-1E+10	1	-1E+10	1	-1E+10	1	-1E+10	1	-1E+10	1
4902663	35	C	07/15/2024	07:13	-127.027	47.185	0	118.10	0	7.8810	0	33.3760	0	26.018	0	117.084	0	162.6	4	55.8	4	-1E+10	1	-1E+10	1	-1E+10	1	-1E+10	1	-1E+10	1	-1E+10	1
4902663	35	C	07/15/2024	07:13	-127.027	47.185	0	118.90	0	7.8180	0	33.3690	0	26.021	0	117.877	0	162.3	4	55.7	4	-1E+10	1	-1E+10	1	-1E+10	1	-1E+10	1	-1E+10	1	-1E+10	1
4902663	35	C	07/15/2024	07:13	-127.027	47.185	0	119.70	0	7.7400	0	33.3830	0	26.044	0	118.670	0	161.9	4	55.4	4	-1E+10	1	-1E+10	1	-1E+10	1	-1E+10	1	-1E+10	1	-1E+10	1
4902663	35	C	07/15/2024	07:13	-127.027	47.185	0	121.00	0	7.7520	0	33.4200	0	26.071	0	119.958	0	161.9	4	55.5	4	-1E+10	1	-1E+10	1	-1E+10	1	-1E+10	1	-1E+10	1	-1E+10	1
4902663	35	C	07/15/2024	07:13	-127.027	47.185	0	122.30	0	7.6730	0	33.4150	0	26.078	0	121.247	0	161.4	4	55.2	4	-1E+10	1	-1E+10	1	-1E+10	1	-1E+10	1	-1E+10	1	-1E+10	1
4902663	35	C	07/15/2024	07:13	-127.027	47.185	0	123.20	0	7.6120	0	33.4130	0	26.086	0	122.139	0	160.6	4	54.9	4	-1E+10	1	-1E+10	1	-1E+10	1	-1E+10	1	-1E+10	1	-1E+10	1
4902663	35	C	07/15/2024	07:13	-127.027	47.185	0	124.10	0	7.5390	0	33.4190	0	26.101	0	123.031	0	159.4	4	54.4	4	-1E+10	1	-1E+10	1	-1E+10	1	-1E+10	1	-1E+10	1	-1E+10	1
4902663	35	C	07/15/2024	07:13	-127.027	47.185	0	125.00	0	7.5410	0	33.4170	0	26.099	0	123.923	0	157.8	4	53.8	4	-1E+10	1	-1E+10	1	-1E+10	1	-1E+10	1	-1E+10	1	-1E+10	1
4902663	35	C	07/15/2024	07:13	-127.027	47.185	0	126.00	0	7.6370	0	33.4400	0	26.103	0	124.914	0	156.8	4	53.6	4	-1E+10	1	-1E+10	1	-1E+10	1	-1E+10	1	-1E+10	1	-1E+10	1
4902663	35	C	07/15/2024	07:13	-127.027	47.185	0	126.90	0	7.7190	0	33.4750	0	26.119	0	125.806	0	156.8	4	53.7	4	-1E+10	1	-1E+10	1	-1E+10	1	-1E+10	1	-1E+10	1	-1E+10	1
4902663	35	C	07/15/2024	07:13	-127.027	47.185	0	127.80	0	7.7170	0	33.4970	0	26.137	0	126.698	0	157.2	4	53.8	4	-1E+10	1	-1E+10	1	-1E+10	1	-1E+10	1	-1E+10	1	-1E+10	1
4902663	35	C	07/15/2024	07:13	-127.027	47.185	0	128.80	0	7.6940	0	33.4910	0	26.135	0	127.689	0	157.8	4	54.0	4	-1E+10	1	-1E+10	1	-1E+10	1	-1E+10	1	-1E+10	1	-1E+10	1
4902663	35	C	07/15/2024	07:13	-127.027	47.185	0	129.60	0	7.6740	0	33.4930	0	26.140	0	128.482	0	158.2	4	54.2	4	-1E+10	1	-1E+10	1	-1E+10	1	-1E+10	1	-1E+10	1	-1E+10	1
4902663	35	C	07/15/2024	07:13	-127.027	47.185	0	130.60	0	7.6410	0	33.4910	0	26.143	0	129.473	0	158.6	4	54.2	4	-1E+10	1	-1E+10	1	-1E+10	1	-1E+10	1	-1E+10	1	-1E+10	1
4902663	35	C	07/15/2024	07:13	-127.027	47.185	0	131.50	0	7.6020	0	33.4910	0	26.148	0	130.365	0	158.8	4	54.2	4	-1E+10	1	-1E+10	1	-1E+10	1	-1E+10	1	-1E+10	1	-1E+10	1
4902663	35	C	07/15/2024	07:13	-127.027	47.185	0	132.50	0	7.5420	0	33.4880	0	26.155	0	131.356	0	158.6	4	54.1	4	-1E+10	1	-1E+10	1	-1E+10	1	-1E+10	1	-1E+10	1	-1E+10	1
4902663	35	C	07/15/2024	07:13	-127.027	47.185	0	133.90	0	7.5040	0	33.4880	0	26.160	0	132.743	0	158.2	4	53.9	4	-1E+10	1	-1E+10	1	-1E+10	1	-1E+10	1	-1E+10	1	-1E+10	1
4902663	35	C	07/15/2024	07:13	-127.027	47.185	0	135.40	0	7.4610	0	33.4900	0	26.168	0	134.230	0	157.2	4	53.6	4	-1E+10	1	-1E+10	1	-1E+10	1	-1E+10	1	-1E+10	1	-1E+10	1
4902663	35	C	07/15/2024	07:13	-127.027	47.185	0	136.40	0	7.4740	0	33.5150	0	26.185	0	135.221	0	156.9	4	53.4	4	-1E+10	1	-1E+10	1	-1E+10	1	-1E+10	1	-1E+10	1	-1E+10	1
4902663	35	C	07/15/2024	07:13	-127.027	47.185	0	137.30	0	7.4800	0	33.5370	0	26.202	0	136.113	0	156.8	4	53.5	4	-1E+10	1	-1E+10	1	-1E+10	1	-1E+10	1	-1E+10	1	-1E+10	1
4902663	35	C	07/15/2024	07:13	-127.027	47.185	0	138.30	0	7.4640	0	33.5420	0	26.208	0	137.104	0	156.9	4	53.4	4	-1E+10	1	-1E+10	1	-1E+10	1	-1E+10	1	-1E+10	1	-1E+10	1
4902663	35	C	07/15/2024	07:13	-127.027	47.185	0	139.30	0	7.4530	0	33.5420	0	26.210	0	138.095	0	156.8	4	53.4	4	-1E+10	1	-1E+10	1	-1E+10	1	-1E+10	1	-1E+10	1	-1E+10	1
4902663	35	C	07/15/2024	07:13	-127.027	47.185	0	140.20	0	7.4300	0	33.5460	0	26.216	0	138.987	0	156.8	4	53.4	4	-1E+10	1	-1E+10	1	-1E+10	1	-1E+10	1	-1E+10	1	-1E+10	1
4902663	35	C	07/15/2024	07:13	-127.027	47.185	0	141.20	0	7.3790	0	33.5520	0	26.228	0	139.978	0	156.4	4	53.2	4	-1E+10	1	-1E+10	1	-1E+10	1	-1E+10	1	-1E+10	1	-1E+10	1
4902663	35	C	07/15/2024	07:13	-127.027	47.185	0	142.10	0	7.3800	0	33.5560	0	26.231	0	140.870	0	156.0	4	53.1	4	-1E+10	1	-1E+10	1	-1E+10	1	-1E+10	1	-1E+10	1	-1E+10	1
4902663	35	C	07/15/2024	07:13	-127.027	47.185	0	143.10	0	7.3640	0	33.5800	0	26.252	0	141.861	0	155.2	4	52.8	4	-1E+10	1	-1E+10	1	-1E+10	1	-1E+10	1	-1E+10	1	-1E+10	1
4902663	35	C	07/15/2024	07:13	-127.027	47.185	0	144.00	0	7.2920	0	33.5820	0	26.264	0	142.753	0	154.1	4	52.3	4	-1E+10	1	-1E+10	1	-1E+10	1	-1E+10	1	-1E+10	1	-1E+10	1
4902663	35	C	07/15/2024	07:13	-127.027	47.185	0	144.90	0	7.2610	0	33.5830	0	26.269	0	143.644	0	152.6	4	51.8	4	-1E+10	1	-1E+10	1	-1E+10	1	-1E+10	1	-1E+10	1	-1E+10	1
4902663	35	C	07/15/2024	07:13	-127.027	47.185	0	145.80	0	7.2680	0	33.5890	0	26.273	0	144.536	0	150.8	4	51.2	4	-1E+10	1	-1E+10	1	-1E+10	1	-1E+10	1	-1E+10	1	-1E+10	1
4902663	35	C	07/15/2024	07:13	-127.027	47.185	0	146.80	0	7.2890	0	33.6100	0	26.286	0	145.527	0	149.1	4	50.6	4	-1E+10	1	-1E+10	1	-1E+10	1	-1E+10	1	-1E+10	1	-1E+10	1
4902663	35	C	07/15/2024	07:13	-127.027	47.185	0	147.70	0	7.4240	0	33.6030	0	26.262	0	146.419	0	148.3	4	50.5	4	-1E+10	1	-1E+10	1	-1E+10	1	-1E+10	1	-1E+10	1	-1E+10	1
4902663	35	C	07/15/2024	07:13	-127.027	47.185	0	148.70	0	7.3830	0	33.6660	0	26.317	0	147.410	0	147.6	4	50.2	4	-1E+10	1	-1E+10	1	-1E+10	1	-1E+10	1	-1E+10	1	-1E+10	1
4902663	35	C	07/15/2024	07:13	-127.027	47.185	0	149.60	0	7.3740	0	33.6690	0	26.321	0	148.302	0	146.7	4	49.9	4	-1E+10	1	-1E+10	1	-1E+10	1	-1E+10	1	-1E+10	1	-1E+10	1
4902663	35	C	07/15/2024	07:13	-127.027	47.185	0	150.60	0	7.3870	0	33.6760	0	26.325	0	149.293	0	145.8	4	49.6	4	-1E+10	1	-1E+10	1	-1E+10	1	-1E+10	1	-1E+10	1	-1E+10	1
4902663	35	C	07/15/2024	07:13	-127.027	47.185	0	151.50	0	7.3690	0	33.6770	0	26.328	0	150.185	0	144.7	4	49.3	4	-1E+10	1	-1E+10	1	-1E+10	1	-1E+10	1	-1E+10	1	-1E+10	1
4902663	35	C	07/15/2024	07:13	-127.027	47.185	0	152.90	0	7.3800	0	33.7030	0	26.347	0	151.572	0	143.8	4	48.9	4	-1E+10	1	-1E+10	1	-1E+10	1	-1E+10	1	-1E+10	1	-1E+10	1
4902663	35	C	07/15/2024	07:13	-127.027	47.185	0	154.40	0	7.4320	0	33.7300	0	26.361	0	153.059	0	143.3	4	48.9	4	-1E+10	1	-1E+10	1	-1E+10	1	-1E+10	1	-1E+10	1	-1E+10	1
4902663	35	C	07/15/2024	07:13	-127.027	47.185	0	155.30	0	7.4090	0	33.7400	0	26.372	0	153.950	0	143.9	4	49.0	4	-1E+10	1	-1E+10	1	-1E+10	1	-1E+10	1	-1E+10	1	-1E+10	1
4902663	35	C	07/15/2024	07:13	-127.027	47.185	0	156.30	0	7.3000	0	33.7330	0	26.382	0	154.941	0	144.0	4	48.9	4	-1E+10	1	-1E+10	1	-1E+10	1	-1E+10	1	-1E+10	1	-1E+10	1
4902663	35	C	07/15/2024	07:13	-127.027	47.185	0	157.20	0	7.2680	0	33.7330	0	26.386	0	155.833	0	143.6	4	48.8	4	-1E+10	1	-1E+10	1	-1E+10	1	-1E+10	1	-1E+10	1	-1E+10	1
4902663	35	C	07/15/2024	07:13	-127.027	47.185	0	158.20	0	7.2240	0	33.7310	0	26.391	0	156.824	0	143.1	4	48.6	4	-1E+10	1	-1E+10	1	-1E+10	1	-1E+10	1	-1E+10	1	-1E+10	1
4902663	35	C	07/15/2024	07:13	-127.027	47.185	0	159.10	0	7.2170	0	33.7380	0	26.397	0	157.716	0	142.2	4	48.3	4	-1E+10	1	-1E+10	1	-1E+10	1	-1E+10	1	-1E+10	1	-1E+10	1
4902663	35	C	07/15/2024	07:13	-127.027	47.185	0	160.10	0	7.2360	0	33.7430	0	26.398	0	158.707	0	141.3	4	48.0	4	-1E+10	1	-1E+10	1	-1E+10	1	-1E+10	1	-1E+10	1	-1E+10	1
4902663	35	C	07/15/2024	07:13	-127.027	47.185	0	161.00	0	7.2350	0	33.7560	0	26.409	0	159.599	0	141.1	4	47.9	4	-1E+10	1	-1E+10	1	-1E+10	1	-1E+10	1	-1E+10	1	-1E+10	1
4902663	35	C	07/15/2024	07:13	-127.027	47.185	0	162.00	0	7.2350	0	33.7560	0	26.409	0	160.590	0	140.8	4	47.8	4	-1E+10	1	-1E+10	1	-1E+10	1	-1E+10	1	-1E+10	1	-1E+10	1
4902663	35	C	07/15/2024	07:13	-127.027	47.185	0	162.90	0	7.2140	0	33.7600	0	26.415	0	161.481	0	140.5	4	47.7	4	-1E+10	1	-1E+10	1	-1E+10	1	-1E+10	1	-1E+10	1	-1E+10	1
4902663	35	C	07/15/2024	07:13	-127.027	47.185	0	163.80	0	7.2190	0	33.7630	0	26.417	0	162.373	0	140.4	4	47.6	4	-1E+10	1	-1E+10	1	-1E+10	1	-1E+10	1	-1E+10	1	-1E+10	1
4902663	35	C	07/15/2024	07:13	-127.027	47.185	0	164.80	0	7.2440	0	33.7750	0	26.423	0	163.364	0	140.4	4	47.7	4	-1E+10	1	-1E+10	1	-1E+10	1	-1E+10	1	-1E+10	1	-1E+10	1
4902663	35	C	07/15/2024	07:13	-127.027	47.185	0	165.80	0	7.2390	0	33.7770	0	26.425	0	164.355	0	140.7	4	47.8	4	-1E+10	1	-1E+10	1	-1E+10	1	-1E+10	1	-1E+10	1	-1E+10	1
4902663	35	C	07/15/2024	07:13	-127.027	47.185	0	166.70	0	7.2250	0	33.7830	0	26.432	0	165.247	0	141.0	4	47.9	4	-1E+10	1	-1E+10	1	-1E+10	1	-1E+10	1	-1E+10	1	-1E+10	1
4902663	35	C	07/15/2024	07:13	-127.027	47.185	0	167.70	0	7.1980	0	33.7810	0	26.434	0	166.238	0	141.1	4	47.9	4	-1E+10	1	-1E+10	1	-1E+10	1	-1E+10	1	-1E+10	1	-1E+10	1
4902663	35	C	07/15/2024	07:13	-127.027	47.185	0	168.60	0	7.1810	0	33.7800	0	26.435	0	167.129	0	141.1	4	47.8	4	-1E+10	1	-1E+10	1	-1E+10	1	-1E+10	1	-1E+10	1	-1E+10	1
4902663	35	C	07/15/2024	07:13	-127.027	47.185	0	169.60	0	7.1800	0	33.7800	0	26.435	0	168.120	0	141.0	4	47.8	4	-1E+10	1	-1E+10	1	-1E+10	1	-1E+10	1	-1E+10	1	-1E+10	1
4902663	35	C	07/15/2024	07:13	-127.027	47.185	0	170.60	0	7.1760	0	33.7810	0	26.437	0	169.111	0	140.9	4	47.8	4	-1E+10	1	-1E+10	1	-1E+10	1	-1E+10	1	-1E+10	1	-1E+10	1
4902663	35	C	07/15/2024	07:13	-127.027	47.185	0	171.60	0	7.1530	0	33.7840	0	26.442	0	170.102	0	140.8	4	47.7	4	-1E+10	1	-1E+10	1	-1E+10	1	-1E+10	1	-1E+10	1	-1E+10	1
4902663	35	C	07/15/2024	07:13	-127.027	47.185	0	172.50	0	7.1230	0	33.7810	0	26.444	0	170.994	0	140.6	4	47.6	4	-1E+10	1	-1E+10	1	-1E+10	1	-1E+10	1	-1E+10	1	-1E+10	1
4902663	35	C	07/15/2024	07:13	-127.027	47.185	0	173.50	0	7.1160	0	33.7850	0	26.448	0	171.985	0	140.2	4	47.5	4	-1E+10	1	-1E+10	1	-1E+10	1	-1E+10	1	-1E+10	1	-1E+10	1
4902663	35	C	07/15/2024	07:13	-127.027	47.185	0	174.90	0	7.1080	0	33.7890	0	26.452	0	173.372	0	140.0	4	47.4	4	-1E+10	1	-1E+10	1	-1E+10	1	-1E+10	1	-1E+10	1	-1E+10	1
4902663	35	C	07/15/2024	07:13	-127.027	47.185	0	176.40	0	7.1000	0	33.7930	0	26.457	0	174.858	0	139.8	4	47.3	4	-1E+10	1	-1E+10	1	-1E+10	1	-1E+10	1	-1E+10	1	-1E+10	1
4902663	35	C	07/15/2024	07:13	-127.027	47.185	0	177.40	0	7.0910	0	33.7960	0	26.460	0	175.849	0	139.8	4	47.3	4	-1E+10	1	-1E+10	1	-1E+10	1	-1E+10	1	-1E+10	1	-1E+10	1
4902663	35	C	07/15/2024	07:13	-127.027	47.185	0	178.30	0	7.0810	0	33.7970	0	26.463	0	176.741	0	139.8	4	47.3	4	-1E+10	1	-1E+10	1	-1E+10	1	-1E+10	1	-1E+10	1	-1E+10	1
4902663	35	C	07/15/2024	07:13	-127.027	47.185	0	179.30	0	7.0740	0	33.7960	0	26.463	0	177.732	0	139.8	4	47.3	4	-1E+10	1	-1E+10	1	-1E+10	1	-1E+10	1	-1E+10	1	-1E+10	1
4902663	35	C	07/15/2024	07:13	-127.027	47.185	0	180.30	0	7.0600	0	33.7980	0	26.466	0	178.722	0	139.7	4	47.2	4	-1E+10	1	-1E+10	1	-1E+10	1	-1E+10	1	-1E+10	1	-1E+10	1
4902663	35	C	07/15/2024	07:13	-127.027	47.185	0	181.20	0	7.0560	0	33.7970	0	26.466	0	179.614	0	139.6	4	47.2	4	-1E+10	1	-1E+10	1	-1E+10	1	-1E+10	1	-1E+10	1	-1E+10	1
4902663	35	C	07/15/2024	07:13	-127.027	47.185	0	182.20	0	7.0450	0	33.8020	0	26.471	0	180.605	0	139.6	4	47.2	4	-1E+10	1	-1E+10	1	-1E+10	1	-1E+10	1	-1E+10	1	-1E+10	1
4902663	35	C	07/15/2024	07:13	-127.027	47.185	0	183.20	0	7.0430	0	33.8020	0	26.472	0	181.596	0	139.8	4	47.3	4	-1E+10	1	-1E+10	1	-1E+10	1	-1E+10	1	-1E+10	1	-1E+10	1
4902663	35	C	07/15/2024	07:13	-127.027	47.185	0	184.20	0	7.0310	0	33.8030	0	26.474	0	182.586	0	140.0	4	47.3	4	-1E+10	1	-1E+10	1	-1E+10	1	-1E+10	1	-1E+10	1	-1E+10	1
4902663	35	C	07/15/2024	07:13	-127.027	47.185	0	185.20	0	6.9920	0	33.8020	0	26.479	0	183.577	0	140.2	4	47.4	4	-1E+10	1	-1E+10	1	-1E+10	1	-1E+10	1	-1E+10	1	-1E+10	1
4902663	35	C	07/15/2024	07:13	-127.027	47.185	0	186.20	0	6.9770	0	33.8010	0	26.480	0	184.568	0	140.2	4	47.3	4	-1E+10	1	-1E+10	1	-1E+10	1	-1E+10	1	-1E+10	1	-1E+10	1
4902663	35	C	07/15/2024	07:13	-127.027	47.185	0	187.20	0	6.9540	0	33.8090	0	26.489	0	185.559	0	140.5	4	47.4	4	-1E+10	1	-1E+10	1	-1E+10	1	-1E+10	1	-1E+10	1	-1E+10	1
4902663	35	C	07/15/2024	07:13	-127.027	47.185	0	188.20	0	6.9430	0	33.8090	0	26.491	0	186.550	0	140.7	4	47.5	4	-1E+10	1	-1E+10	1	-1E+10	1	-1E+10	1	-1E+10	1	-1E+10	1
4902663	35	C	07/15/2024	07:13	-127.027	47.185	0	189.20	0	6.8910	0	33.8060	0	26.496	0	187.540	0	140.7	4	47.4	4	-1E+10	1	-1E+10	1	-1E+10	1	-1E+10	1	-1E+10	1	-1E+10	1
4902663	35	C	07/15/2024	07:13	-127.027	47.185	0	190.20	0	6.8770	0	33.8060	0	26.497	0	188.531	0	140.4	4	47.3	4	-1E+10	1	-1E+10	1	-1E+10	1	-1E+10	1	-1E+10	1	-1E+10	1
4902663	35	C	07/15/2024	07:13	-127.027	47.185	0	191.20	0	6.8660	0	33.8060	0	26.499	0	189.522	0	140.1	4	47.2	4	-1E+10	1	-1E+10	1	-1E+10	1	-1E+10	1	-1E+10	1	-1E+10	1
4902663	35	C	07/15/2024	07:13	-127.027	47.185	0	192.10	0	6.8550	0	33.8070	0	26.501	0	190.414	0	139.7	4	47.0	4	-1E+10	1	-1E+10	1	-1E+10	1	-1E+10	1	-1E+10	1	-1E+10	1
4902663	35	C	07/15/2024	07:13	-127.027	47.185	0	193.10	0	6.8460	0	33.8100	0	26.505	0	191.404	0	139.2	4	46.8	4	-1E+10	1	-1E+10	1	-1E+10	1	-1E+10	1	-1E+10	1	-1E+10	1
4902663	35	C	07/15/2024	07:13	-127.027	47.185	0	194.20	0	6.8240	0	33.8050	0	26.504	0	192.494	0	138.4	4	46.6	4	-1E+10	1	-1E+10	1	-1E+10	1	-1E+10	1	-1E+10	1	-1E+10	1
4902663	35	C	07/15/2024	07:13	-127.027	47.185	0	195.20	0	6.8190	0	33.8070	0	26.506	0	193.485	0	137.4	4	46.2	4	-1E+10	1	-1E+10	1	-1E+10	1	-1E+10	1	-1E+10	1	-1E+10	1
4902663	35	C	07/15/2024	07:13	-127.027	47.185	0	196.20	0	6.8080	0	33.8070	0	26.508	0	194.476	0	136.3	4	45.8	4	-1E+10	1	-1E+10	1	-1E+10	1	-1E+10	1	-1E+10	1	-1E+10	1
4902663	35	C	07/15/2024	07:13	-127.027	47.185	0	197.20	0	6.8090	0	33.8120	0	26.511	0	195.466	0	135.4	4	45.6	4	-1E+10	1	-1E+10	1	-1E+10	1	-1E+10	1	-1E+10	1	-1E+10	1
4902663	35	C	07/15/2024	07:13	-127.027	47.185	0	198.20	0	6.7990	0	33.8150	0	26.515	0	196.457	0	134.7	4	45.3	4	-1E+10	1	-1E+10	1	-1E+10	1	-1E+10	1	-1E+10	1	-1E+10	1
4902663	35	C	07/15/2024	07:13	-127.027	47.185	0	199.20	0	6.7830	0	33.8140	0	26.517	0	197.448	0	133.8	4	45.0	4	-1E+10	1	-1E+10	1	-1E+10	1	-1E+10	1	-1E+10	1	-1E+10	1
4902663	35	C	07/15/2024	07:13	-127.027	47.185	0	200.30	0	6.7830	0	33.8250	0	26.525	0	198.538	0	133.3	4	44.8	4	-1E+10	1	-1E+10	1	-1E+10	1	-1E+10	1	-1E+10	1	-1E+10	1
4902663	35	C	07/15/2024	07:13	-127.027	47.185	0	201.30	0	6.7770	0	33.8230	0	26.524	0	199.528	0	133.1	4	44.7	4	-1E+10	1	-1E+10	1	-1E+10	1	-1E+10	1	-1E+10	1	-1E+10	1
4902663	35	C	07/15/2024	07:13	-127.027	47.185	0	202.30	0	6.7640	0	33.8250	0	26.528	0	200.519	0	132.8	4	44.6	4	-1E+10	1	-1E+10	1	-1E+10	1	-1E+10	1	-1E+10	1	-1E+10	1
4902663	35	C	07/15/2024	07:13	-127.027	47.185	0	203.40	0	6.7510	0	33.8230	0	26.528	0	201.609	0	132.3	4	44.4	4	-1E+10	1	-1E+10	1	-1E+10	1	-1E+10	1	-1E+10	1	-1E+10	1
4902663	35	C	07/15/2024	07:13	-127.027	47.185	0	204.40	0	6.7270	0	33.8220	0	26.530	0	202.600	0	131.7	4	44.2	4	-1E+10	1	-1E+10	1	-1E+10	1	-1E+10	1	-1E+10	1	-1E+10	1
4902663	35	C	07/15/2024	07:13	-127.027	47.185	0	205.40	0	6.7350	0	33.8240	0	26.531	0	203.590	0	131.1	4	44.0	4	-1E+10	1	-1E+10	1	-1E+10	1	-1E+10	1	-1E+10	1	-1E+10	1
4902663	35	C	07/15/2024	07:13	-127.027	47.185	0	206.50	0	6.7100	0	33.8270	0	26.537	0	204.680	0	130.5	4	43.8	4	-1E+10	1	-1E+10	1	-1E+10	1	-1E+10	1	-1E+10	1	-1E+10	1
4902663	35	C	07/15/2024	07:13	-127.027	47.185	0	207.60	0	6.6970	0	33.8260	0	26.538	0	205.770	0	130.1	4	43.6	4	-1E+10	1	-1E+10	1	-1E+10	1	-1E+10	1	-1E+10	1	-1E+10	1
4902663	35	C	07/15/2024	07:13	-127.027	47.185	0	208.60	0	6.6800	0	33.8340	0	26.546	0	206.761	0	129.8	4	43.6	4	-1E+10	1	-1E+10	1	-1E+10	1	-1E+10	1	-1E+10	1	-1E+10	1
4902663	35	C	07/15/2024	07:13	-127.027	47.185	0	209.70	0	6.6290	0	33.8280	0	26.548	0	207.850	0	129.3	4	43.3	4	-1E+10	1	-1E+10	1	-1E+10	1	-1E+10	1	-1E+10	1	-1E+10	1
4902663	35	C	07/15/2024	07:13	-127.027	47.185	0	210.70	0	6.6010	0	33.8280	0	26.552	0	208.841	0	128.7	4	43.1	4	-1E+10	1	-1E+10	1	-1E+10	1	-1E+10	1	-1E+10	1	-1E+10	1
4902663	35	C	07/15/2024	07:13	-127.027	47.185	0	211.80	0	6.6010	0	33.8310	0	26.554	0	209.931	0	128.2	4	42.9	4	-1E+10	1	-1E+10	1	-1E+10	1	-1E+10	1	-1E+10	1	-1E+10	1
4902663	35	C	07/15/2024	07:13	-127.027	47.185	0	212.80	0	6.5750	0	33.8310	0	26.558	0	210.921	0	127.5	4	42.7	4	-1E+10	1	-1E+10	1	-1E+10	1	-1E+10	1	-1E+10	1	-1E+10	1
4902663	35	C	07/15/2024	07:13	-127.027	47.185	0	213.80	0	6.5690	0	33.8320	0	26.559	0	211.912	0	126.7	4	42.4	4	-1E+10	1	-1E+10	1	-1E+10	1	-1E+10	1	-1E+10	1	-1E+10	1
4902663	35	C	07/15/2024	07:13	-127.027	47.185	0	214.80	0	6.5450	0	33.8320	0	26.562	0	212.903	0	125.8	4	42.1	4	-1E+10	1	-1E+10	1	-1E+10	1	-1E+10	1	-1E+10	1	-1E+10	1
4902663	35	C	07/15/2024	07:13	-127.027	47.185	0	215.90	0	6.5410	0	33.8320	0	26.563	0	213.992	0	124.7	4	41.7	4	-1E+10	1	-1E+10	1	-1E+10	1	-1E+10	1	-1E+10	1	-1E+10	1
4902663	35	C	07/15/2024	07:13	-127.027	47.185	0	216.70	0	6.5370	0	33.8320	0	26.563	0	214.785	0	123.8	4	41.4	4	-1E+10	1	-1E+10	1	-1E+10	1	-1E+10	1	-1E+10	1	-1E+10	1
4902663	35	C	07/15/2024	07:13	-127.027	47.185	0	217.90	0	6.5330	0	33.8360	0	26.567	0	215.974	0	122.5	4	41.0	4	-1E+10	1	-1E+10	1	-1E+10	1	-1E+10	1	-1E+10	1	-1E+10	1
4902663	35	C	07/15/2024	07:13	-127.027	47.185	0	219.10	0	6.4990	0	33.8390	0	26.574	0	217.162	0	121.5	4	40.6	4	-1E+10	1	-1E+10	1	-1E+10	1	-1E+10	1	-1E+10	1	-1E+10	1
4902663	35	C	07/15/2024	07:13	-127.027	47.185	0	219.80	0	6.4960	0	33.8370	0	26.573	0	217.856	0	120.6	4	40.3	4	-1E+10	1	-1E+10	1	-1E+10	1	-1E+10	1	-1E+10	1	-1E+10	1
4902663	35	C	07/15/2024	07:13	-127.027	47.185	0	221.00	0	6.4940	0	33.8420	0	26.577	0	219.045	0	119.3	4	39.8	4	-1E+10	1	-1E+10	1	-1E+10	1	-1E+10	1	-1E+10	1	-1E+10	1
4902663	35	C	07/15/2024	07:13	-127.027	47.185	0	222.20	0	6.4650	0	33.8420	0	26.581	0	220.233	0	118.1	4	39.4	4	-1E+10	1	-1E+10	1	-1E+10	1	-1E+10	1	-1E+10	1	-1E+10	1
4902663	35	C	07/15/2024	07:13	-127.027	47.185	0	223.00	0	6.5130	0	33.8300	0	26.565	0	221.026	0	117.7	4	39.3	4	-1E+10	1	-1E+10	1	-1E+10	1	-1E+10	1	-1E+10	1	-1E+10	1
4902663	35	C	07/15/2024	07:13	-127.027	47.185	0	223.80	0	6.5020	0	33.8550	0	26.586	0	221.818	0	117.5	4	39.3	4	-1E+10	1	-1E+10	1	-1E+10	1	-1E+10	1	-1E+10	1	-1E+10	1
4902663	35	C	07/15/2024	07:13	-127.027	47.185	0	225.00	0	6.4650	0	33.8500	0	26.587	0	223.007	0	117.3	4	39.2	4	-1E+10	1	-1E+10	1	-1E+10	1	-1E+10	1	-1E+10	1	-1E+10	1
4902663	35	C	07/15/2024	07:13	-127.027	47.185	0	226.20	0	6.4500	0	33.8500	0	26.589	0	224.196	0	117.1	4	39.1	4	-1E+10	1	-1E+10	1	-1E+10	1	-1E+10	1	-1E+10	1	-1E+10	1
4902663	35	C	07/15/2024	07:13	-127.027	47.185	0	227.00	0	6.4240	0	33.8500	0	26.593	0	224.988	0	116.9	4	39.0	4	-1E+10	1	-1E+10	1	-1E+10	1	-1E+10	1	-1E+10	1	-1E+10	1
4902663	35	C	07/15/2024	07:13	-127.027	47.185	0	227.80	0	6.4080	0	33.8480	0	26.593	0	225.781	0	116.7	4	38.9	4	-1E+10	1	-1E+10	1	-1E+10	1	-1E+10	1	-1E+10	1	-1E+10	1
4902663	35	C	07/15/2024	07:13	-127.027	47.185	0	228.70	0	6.4000	0	33.8460	0	26.592	0	226.672	0	116.4	4	38.8	4	-1E+10	1	-1E+10	1	-1E+10	1	-1E+10	1	-1E+10	1	-1E+10	1
4902663	35	C	07/15/2024	07:13	-127.027	47.185	0	229.90	0	6.3890	0	33.8530	0	26.599	0	227.861	0	116.1	4	38.7	4	-1E+10	1	-1E+10	1	-1E+10	1	-1E+10	1	-1E+10	1	-1E+10	1
4902663	35	C	07/15/2024	07:13	-127.027	47.185	0	231.10	0	6.3830	0	33.8530	0	26.600	0	229.050	0	116.0	4	38.7	4	-1E+10	1	-1E+10	1	-1E+10	1	-1E+10	1	-1E+10	1	-1E+10	1
4902663	35	C	07/15/2024	07:13	-127.027	47.185	0	232.00	0	6.3740	0	33.8510	0	26.600	0	229.941	0	115.9	4	38.6	4	-1E+10	1	-1E+10	1	-1E+10	1	-1E+10	1	-1E+10	1	-1E+10	1
4902663	35	C	07/15/2024	07:13	-127.027	47.185	0	232.80	0	6.3730	0	33.8500	0	26.599	0	230.734	0	115.8	4	38.6	4	-1E+10	1	-1E+10	1	-1E+10	1	-1E+10	1	-1E+10	1	-1E+10	1
4902663	35	C	07/15/2024	07:13	-127.027	47.185	0	233.60	0	6.3560	0	33.8530	0	26.604	0	231.526	0	115.7	4	38.5	4	-1E+10	1	-1E+10	1	-1E+10	1	-1E+10	1	-1E+10	1	-1E+10	1
4902663	35	C	07/15/2024	07:13	-127.027	47.185	0	234.90	0	6.3420	0	33.8500	0	26.603	0	232.814	0	115.5	4	38.4	4	-1E+10	1	-1E+10	1	-1E+10	1	-1E+10	1	-1E+10	1	-1E+10	1
4902663	35	C	07/15/2024	07:13	-127.027	47.185	0	236.20	0	6.3280	0	33.8490	0	26.604	0	234.102	0	115.3	4	38.4	4	-1E+10	1	-1E+10	1	-1E+10	1	-1E+10	1	-1E+10	1	-1E+10	1
4902663	35	C	07/15/2024	07:13	-127.027	47.185	0	237.00	0	6.3120	0	33.8480	0	26.606	0	234.894	0	115.1	4	38.3	4	-1E+10	1	-1E+10	1	-1E+10	1	-1E+10	1	-1E+10	1	-1E+10	1
4902663	35	C	07/15/2024	07:13	-127.027	47.185	0	237.80	0	6.2900	0	33.8480	0	26.608	0	235.686	0	114.9	4	38.2	4	-1E+10	1	-1E+10	1	-1E+10	1	-1E+10	1	-1E+10	1	-1E+10	1
4902663	35	C	07/15/2024	07:13	-127.027	47.185	0	238.70	0	6.2760	0	33.8480	0	26.610	0	236.578	0	114.7	4	38.1	4	-1E+10	1	-1E+10	1	-1E+10	1	-1E+10	1	-1E+10	1	-1E+10	1
4902663	35	C	07/15/2024	07:13	-127.027	47.185	0	239.90	0	6.2660	0	33.8470	0	26.611	0	237.767	0	114.3	4	38.0	4	-1E+10	1	-1E+10	1	-1E+10	1	-1E+10	1	-1E+10	1	-1E+10	1
4902663	35	C	07/15/2024	07:13	-127.027	47.185	0	241.20	0	6.2610	0	33.8470	0	26.611	0	239.054	0	113.7	4	37.8	4	-1E+10	1	-1E+10	1	-1E+10	1	-1E+10	1	-1E+10	1	-1E+10	1
4902663	35	C	07/15/2024	07:13	-127.027	47.185	0	242.10	0	6.2560	0	33.8460	0	26.611	0	239.946	0	113.3	4	37.6	4	-1E+10	1	-1E+10	1	-1E+10	1	-1E+10	1	-1E+10	1	-1E+10	1
4902663	35	C	07/15/2024	07:13	-127.027	47.185	0	242.90	0	6.2520	0	33.8460	0	26.612	0	240.738	0	112.8	4	37.5	4	-1E+10	1	-1E+10	1	-1E+10	1	-1E+10	1	-1E+10	1	-1E+10	1
4902663	35	C	07/15/2024	07:13	-127.027	47.185	0	243.80	0	6.2500	0	33.8470	0	26.613	0	241.630	0	112.3	4	37.3	4	-1E+10	1	-1E+10	1	-1E+10	1	-1E+10	1	-1E+10	1	-1E+10	1
4902663	35	C	07/15/2024	07:13	-127.027	47.185	0	244.60	0	6.2360	0	33.8490	0	26.616	0	242.422	0	111.8	4	37.1	4	-1E+10	1	-1E+10	1	-1E+10	1	-1E+10	1	-1E+10	1	-1E+10	1
4902663	35	C	07/15/2024	07:13	-127.027	47.185	0	245.90	0	6.2330	0	33.8490	0	26.617	0	243.710	0	111.0	4	36.8	4	-1E+10	1	-1E+10	1	-1E+10	1	-1E+10	1	-1E+10	1	-1E+10	1
4902663	35	C	07/15/2024	07:13	-127.027	47.185	0	247.20	0	6.2290	0	33.8500	0	26.618	0	244.997	0	110.0	4	36.5	4	-1E+10	1	-1E+10	1	-1E+10	1	-1E+10	1	-1E+10	1	-1E+10	1
4902663	35	C	07/15/2024	07:13	-127.027	47.185	0	248.00	0	6.2310	0	33.8500	0	26.618	0	245.790	0	109.4	4	36.3	4	-1E+10	1	-1E+10	1	-1E+10	1	-1E+10	1	-1E+10	1	-1E+10	1
4902663	35	C	07/15/2024	07:13	-127.027	47.185	0	248.90	0	6.2190	0	33.8510	0	26.620	0	246.681	0	108.7	4	36.1	4	-1E+10	1	-1E+10	1	-1E+10	1	-1E+10	1	-1E+10	1	-1E+10	1
4902663	35	C	07/15/2024	07:13	-127.027	47.185	0	249.70	0	6.2020	0	33.8530	0	26.624	0	247.474	0	108.1	4	35.9	4	-1E+10	1	-1E+10	1	-1E+10	1	-1E+10	1	-1E+10	1	-1E+10	1
4902663	35	C	07/15/2024	07:13	-127.027	47.185	0	251.00	0	6.1880	0	33.8560	0	26.628	0	248.761	0	107.3	4	35.6	4	-1E+10	1	-1E+10	1	-1E+10	1	-1E+10	1	-1E+10	1	-1E+10	1
4902663	35	C	07/15/2024	07:13	-127.027	47.185	0	252.30	0	6.2120	0	33.8670	0	26.633	0	250.049	0	106.8	4	35.4	4	-1E+10	1	-1E+10	1	-1E+10	1	-1E+10	1	-1E+10	1	-1E+10	1
4902663	35	C	07/15/2024	07:13	-127.027	47.185	0	253.20	0	6.2110	0	33.8660	0	26.633	0	250.940	0	106.6	4	35.4	4	-1E+10	1	-1E+10	1	-1E+10	1	-1E+10	1	-1E+10	1	-1E+10	1
4902663	35	C	07/15/2024	07:13	-127.027	47.185	0	254.10	0	6.2110	0	33.8660	0	26.633	0	251.832	0	106.4	4	35.3	4	-1E+10	1	-1E+10	1	-1E+10	1	-1E+10	1	-1E+10	1	-1E+10	1
4902663	35	C	07/15/2024	07:13	-127.027	47.185	0	255.00	0	6.2080	0	33.8660	0	26.633	0	252.723	0	106.2	4	35.2	4	-1E+10	1	-1E+10	1	-1E+10	1	-1E+10	1	-1E+10	1	-1E+10	1
4902663	35	C	07/15/2024	07:13	-127.027	47.185	0	255.90	0	6.1990	0	33.8670	0	26.635	0	253.614	0	106.0	4	35.2	4	-1E+10	1	-1E+10	1	-1E+10	1	-1E+10	1	-1E+10	1	-1E+10	1
4902663	35	C	07/15/2024	07:13	-127.027	47.185	0	256.70	0	6.1960	0	33.8670	0	26.636	0	254.407	0	105.9	4	35.1	4	-1E+10	1	-1E+10	1	-1E+10	1	-1E+10	1	-1E+10	1	-1E+10	1
4902663	35	C	07/15/2024	07:13	-127.027	47.185	0	257.60	0	6.1830	0	33.8670	0	26.637	0	255.298	0	105.7	4	35.1	4	-1E+10	1	-1E+10	1	-1E+10	1	-1E+10	1	-1E+10	1	-1E+10	1
4902663	35	C	07/15/2024	07:13	-127.027	47.185	0	258.90	0	6.1640	0	33.8660	0	26.639	0	256.586	0	105.3	4	34.9	4	-1E+10	1	-1E+10	1	-1E+10	1	-1E+10	1	-1E+10	1	-1E+10	1
4902663	35	C	07/15/2024	07:13	-127.027	47.185	0	260.30	0	6.1520	0	33.8650	0	26.640	0	257.972	0	104.7	4	34.7	4	-1E+10	1	-1E+10	1	-1E+10	1	-1E+10	1	-1E+10	1	-1E+10	1
4902663	35	C	07/15/2024	07:13	-127.027	47.185	0	261.10	0	6.1360	0	33.8650	0	26.642	0	258.765	0	104.2	4	34.5	4	-1E+10	1	-1E+10	1	-1E+10	1	-1E+10	1	-1E+10	1	-1E+10	1
4902663	35	C	07/15/2024	07:13	-127.027	47.185	0	262.00	0	6.1190	0	33.8610	0	26.641	0	259.656	0	103.8	4	34.4	4	-1E+10	1	-1E+10	1	-1E+10	1	-1E+10	1	-1E+10	1	-1E+10	1
4902663	35	C	07/15/2024	07:13	-127.027	47.185	0	262.90	0	6.1170	0	33.8610	0	26.641	0	260.548	0	103.3	4	34.2	4	-1E+10	1	-1E+10	1	-1E+10	1	-1E+10	1	-1E+10	1	-1E+10	1
4902663	35	C	07/15/2024	07:13	-127.027	47.185	0	263.80	0	6.1090	0	33.8630	0	26.643	0	261.439	0	102.7	4	34.0	4	-1E+10	1	-1E+10	1	-1E+10	1	-1E+10	1	-1E+10	1	-1E+10	1
4902663	35	C	07/15/2024	07:13	-127.027	47.185	0	264.70	0	6.1000	0	33.8630	0	26.645	0	262.330	0	102.2	4	33.8	4	-1E+10	1	-1E+10	1	-1E+10	1	-1E+10	1	-1E+10	1	-1E+10	1
4902663	35	C	07/15/2024	07:13	-127.027	47.185	0	265.90	0	6.0940	0	33.8630	0	26.645	0	263.519	0	101.3	4	33.5	4	-1E+10	1	-1E+10	1	-1E+10	1	-1E+10	1	-1E+10	1	-1E+10	1
4902663	35	C	07/15/2024	07:13	-127.027	47.185	0	267.30	0	6.0920	0	33.8640	0	26.646	0	264.905	0	100.4	4	33.2	4	-1E+10	1	-1E+10	1	-1E+10	1	-1E+10	1	-1E+10	1	-1E+10	1
4902663	35	C	07/15/2024	07:13	-127.027	47.185	0	268.10	0	6.0890	0	33.8670	0	26.649	0	265.698	0	99.9	4	33.1	4	-1E+10	1	-1E+10	1	-1E+10	1	-1E+10	1	-1E+10	1	-1E+10	1
4902663	35	C	07/15/2024	07:13	-127.027	47.185	0	269.00	0	6.0870	0	33.8680	0	26.650	0	266.589	0	99.3	4	32.9	4	-1E+10	1	-1E+10	1	-1E+10	1	-1E+10	1	-1E+10	1	-1E+10	1
4902663	35	C	07/15/2024	07:13	-127.027	47.185	0	269.90	0	6.0840	0	33.8710	0	26.653	0	267.480	0	98.9	4	32.7	4	-1E+10	1	-1E+10	1	-1E+10	1	-1E+10	1	-1E+10	1	-1E+10	1
4902663	35	C	07/15/2024	07:13	-127.027	47.185	0	270.70	0	6.0840	0	33.8700	0	26.652	0	268.273	0	98.5	4	32.6	4	-1E+10	1	-1E+10	1	-1E+10	1	-1E+10	1	-1E+10	1	-1E+10	1
4902663	35	C	07/15/2024	07:13	-127.027	47.185	0	271.60	0	6.0820	0	33.8710	0	26.653	0	269.164	0	97.9	4	32.4	4	-1E+10	1	-1E+10	1	-1E+10	1	-1E+10	1	-1E+10	1	-1E+10	1
4902663	35	C	07/15/2024	07:13	-127.027	47.185	0	272.90	0	6.0680	0	33.8710	0	26.655	0	270.452	0	97.3	4	32.2	4	-1E+10	1	-1E+10	1	-1E+10	1	-1E+10	1	-1E+10	1	-1E+10	1
4902663	35	C	07/15/2024	07:13	-127.027	47.185	0	274.30	0	6.0610	0	33.8750	0	26.659	0	271.838	0	96.7	4	32.0	4	-1E+10	1	-1E+10	1	-1E+10	1	-1E+10	1	-1E+10	1	-1E+10	1
4902663	35	C	07/15/2024	07:13	-127.027	47.185	0	275.20	0	6.0590	0	33.8740	0	26.659	0	272.729	0	96.3	4	31.9	4	-1E+10	1	-1E+10	1	-1E+10	1	-1E+10	1	-1E+10	1	-1E+10	1
4902663	35	C	07/15/2024	07:13	-127.027	47.185	0	276.10	0	6.0550	0	33.8750	0	26.660	0	273.621	0	95.9	4	31.7	4	-1E+10	1	-1E+10	1	-1E+10	1	-1E+10	1	-1E+10	1	-1E+10	1
4902663	35	C	07/15/2024	07:13	-127.027	47.185	0	276.90	0	6.0420	0	33.8760	0	26.662	0	274.413	0	95.5	4	31.6	4	-1E+10	1	-1E+10	1	-1E+10	1	-1E+10	1	-1E+10	1	-1E+10	1
4902663	35	C	07/15/2024	07:13	-127.027	47.185	0	277.80	0	6.0340	0	33.8760	0	26.663	0	275.304	0	95.1	4	31.4	4	-1E+10	1	-1E+10	1	-1E+10	1	-1E+10	1	-1E+10	1	-1E+10	1
4902663	35	C	07/15/2024	07:13	-127.027	47.185	0	278.70	0	6.0290	0	33.8770	0	26.665	0	276.196	0	94.7	4	31.3	4	-1E+10	1	-1E+10	1	-1E+10	1	-1E+10	1	-1E+10	1	-1E+10	1
4902663	35	C	07/15/2024	07:13	-127.027	47.185	0	280.00	0	6.0140	0	33.8780	0	26.667	0	277.483	0	94.1	4	31.1	4	-1E+10	1	-1E+10	1	-1E+10	1	-1E+10	1	-1E+10	1	-1E+10	1
4902663	35	C	07/15/2024	07:13	-127.027	47.185	0	281.30	0	6.0100	0	33.8790	0	26.669	0	278.771	0	93.5	4	30.9	4	-1E+10	1	-1E+10	1	-1E+10	1	-1E+10	1	-1E+10	1	-1E+10	1
4902663	35	C	07/15/2024	07:13	-127.027	47.185	0	282.20	0	6.0000	0	33.8800	0	26.671	0	279.662	0	93.1	4	30.7	4	-1E+10	1	-1E+10	1	-1E+10	1	-1E+10	1	-1E+10	1	-1E+10	1
4902663	35	C	07/15/2024	07:13	-127.027	47.185	0	283.10	0	5.9950	0	33.8810	0	26.672	0	280.553	0	92.6	4	30.6	4	-1E+10	1	-1E+10	1	-1E+10	1	-1E+10	1	-1E+10	1	-1E+10	1
4902663	35	C	07/15/2024	07:13	-127.027	47.185	0	284.20	0	5.9920	0	33.8810	0	26.673	0	281.643	0	92.1	4	30.4	4	-1E+10	1	-1E+10	1	-1E+10	1	-1E+10	1	-1E+10	1	-1E+10	1
4902663	35	C	07/15/2024	07:13	-127.027	47.185	0	285.10	0	5.9890	0	33.8820	0	26.674	0	282.534	0	91.5	4	30.2	4	-1E+10	1	-1E+10	1	-1E+10	1	-1E+10	1	-1E+10	1	-1E+10	1
4902663	35	C	07/15/2024	07:13	-127.027	47.185	0	285.80	0	5.9820	0	33.8830	0	26.675	0	283.227	0	91.1	4	30.1	4	-1E+10	1	-1E+10	1	-1E+10	1	-1E+10	1	-1E+10	1	-1E+10	1
4902663	35	C	07/15/2024	07:13	-127.027	47.185	0	286.60	0	5.9740	0	33.8850	0	26.678	0	284.019	0	90.7	4	29.9	4	-1E+10	1	-1E+10	1	-1E+10	1	-1E+10	1	-1E+10	1	-1E+10	1
4902663	35	C	07/15/2024	07:13	-127.027	47.185	0	287.90	0	5.9710	0	33.8850	0	26.678	0	285.307	0	89.8	4	29.6	4	-1E+10	1	-1E+10	1	-1E+10	1	-1E+10	1	-1E+10	1	-1E+10	1
4902663	35	C	07/15/2024	07:13	-127.027	47.185	0	289.30	0	5.9650	0	33.8870	0	26.681	0	286.693	0	88.9	4	29.3	4	-1E+10	1	-1E+10	1	-1E+10	1	-1E+10	1	-1E+10	1	-1E+10	1
4902663	35	C	07/15/2024	07:13	-127.027	47.185	0	290.10	0	5.9690	0	33.8880	0	26.681	0	287.485	0	88.3	4	29.2	4	-1E+10	1	-1E+10	1	-1E+10	1	-1E+10	1	-1E+10	1	-1E+10	1
4902663	35	C	07/15/2024	07:13	-127.027	47.185	0	291.00	0	5.9680	0	33.8920	0	26.684	0	288.377	0	87.9	4	29.0	4	-1E+10	1	-1E+10	1	-1E+10	1	-1E+10	1	-1E+10	1	-1E+10	1
4902663	35	C	07/15/2024	07:13	-127.027	47.185	0	291.90	0	5.9670	0	33.8950	0	26.687	0	289.268	0	87.5	4	28.9	4	-1E+10	1	-1E+10	1	-1E+10	1	-1E+10	1	-1E+10	1	-1E+10	1
4902663	35	C	07/15/2024	07:13	-127.027	47.185	0	292.70	0	5.9610	0	33.8970	0	26.689	0	290.060	0	87.1	4	28.8	4	-1E+10	1	-1E+10	1	-1E+10	1	-1E+10	1	-1E+10	1	-1E+10	1
4902663	35	C	07/15/2024	07:13	-127.027	47.185	0	293.60	0	5.9590	0	33.8970	0	26.689	0	290.951	0	86.7	4	28.6	4	-1E+10	1	-1E+10	1	-1E+10	1	-1E+10	1	-1E+10	1	-1E+10	1
4902663	35	C	07/15/2024	07:13	-127.027	47.185	0	294.90	0	5.9420	0	33.8970	0	26.692	0	292.239	0	86.2	4	28.4	4	-1E+10	1	-1E+10	1	-1E+10	1	-1E+10	1	-1E+10	1	-1E+10	1
4902663	35	C	07/15/2024	07:13	-127.027	47.185	0	296.40	0	5.8980	0	33.9000	0	26.699	0	293.724	0	85.5	4	28.2	4	-1E+10	1	-1E+10	1	-1E+10	1	-1E+10	1	-1E+10	1	-1E+10	1
4902663	35	C	07/15/2024	07:13	-127.027	47.185	0	297.20	0	5.8690	0	33.8980	0	26.701	0	294.516	0	85.1	4	28.0	4	-1E+10	1	-1E+10	1	-1E+10	1	-1E+10	1	-1E+10	1	-1E+10	1
4902663	35	C	07/15/2024	07:13	-127.027	47.185	0	298.10	0	5.8610	0	33.8990	0	26.703	0	295.408	0	84.6	4	27.9	4	-1E+10	1	-1E+10	1	-1E+10	1	-1E+10	1	-1E+10	1	-1E+10	1
4902663	35	C	07/15/2024	07:13	-127.027	47.185	0	299.00	0	5.8620	0	33.8990	0	26.703	0	296.299	0	84.1	4	27.7	4	-1E+10	1	-1E+10	1	-1E+10	1	-1E+10	1	-1E+10	1	-1E+10	1
4902663	35	C	07/15/2024	07:13	-127.027	47.185	0	299.80	0	5.8610	0	33.9000	0	26.704	0	297.091	0	83.5	4	27.5	4	-1E+10	1	-1E+10	1	-1E+10	1	-1E+10	1	-1E+10	1	-1E+10	1
4902663	35	C	07/15/2024	07:13	-127.027	47.185	0	301.00	0	5.8630	0	33.8980	0	26.702	0	298.279	0	82.6	4	27.2	4	-1E+10	1	-1E+10	1	-1E+10	1	-1E+10	1	-1E+10	1	-1E+10	1
4902663	35	C	07/15/2024	07:13	-127.027	47.185	0	302.10	0	5.8600	0	33.9050	0	26.708	0	299.368	0	81.8	4	26.9	4	-1E+10	1	-1E+10	1	-1E+10	1	-1E+10	1	-1E+10	1	-1E+10	1
4902663	35	C	07/15/2024	07:13	-127.027	47.185	0	303.10	0	5.8410	0	33.9060	0	26.711	0	300.359	0	81.2	4	26.7	4	-1E+10	1	-1E+10	1	-1E+10	1	-1E+10	1	-1E+10	1	-1E+10	1
4902663	35	C	07/15/2024	07:13	-127.027	47.185	0	303.90	0	5.8320	0	33.9080	0	26.714	0	301.151	0	80.6	4	26.5	4	-1E+10	1	-1E+10	1	-1E+10	1	-1E+10	1	-1E+10	1	-1E+10	1
4902663	35	C	07/15/2024	07:13	-127.027	47.185	0	304.80	0	5.8280	0	33.9100	0	26.716	0	302.042	0	80.0	4	26.3	4	-1E+10	1	-1E+10	1	-1E+10	1	-1E+10	1	-1E+10	1	-1E+10	1
4902663	35	C	07/15/2024	07:13	-127.027	47.185	0	306.00	0	5.8260	0	33.9110	0	26.717	0	303.230	0	79.1	4	26.0	4	-1E+10	1	-1E+10	1	-1E+10	1	-1E+10	1	-1E+10	1	-1E+10	1
4902663	35	C	07/15/2024	07:13	-127.027	47.185	0	307.30	0	5.8430	0	33.9080	0	26.713	0	304.518	0	78.2	4	25.7	4	-1E+10	1	-1E+10	1	-1E+10	1	-1E+10	1	-1E+10	1	-1E+10	1
4902663	35	C	07/15/2024	07:13	-127.027	47.185	0	308.10	0	5.8610	0	33.9220	0	26.722	0	305.310	0	77.7	4	25.6	4	-1E+10	1	-1E+10	1	-1E+10	1	-1E+10	1	-1E+10	1	-1E+10	1
4902663	35	C	07/15/2024	07:13	-127.027	47.185	0	308.90	0	5.8640	0	33.9220	0	26.721	0	306.102	0	77.3	4	25.5	4	-1E+10	1	-1E+10	1	-1E+10	1	-1E+10	1	-1E+10	1	-1E+10	1
4902663	35	C	07/15/2024	07:13	-127.027	47.185	0	309.80	0	5.8780	0	33.9280	0	26.724	0	306.993	0	77.1	4	25.4	4	-1E+10	1	-1E+10	1	-1E+10	1	-1E+10	1	-1E+10	1	-1E+10	1
4902663	35	C	07/15/2024	07:13	-127.027	47.185	0	310.60	0	5.8840	0	33.9290	0	26.724	0	307.785	0	76.9	4	25.3	4	-1E+10	1	-1E+10	1	-1E+10	1	-1E+10	1	-1E+10	1	-1E+10	1
4902663	35	C	07/15/2024	07:13	-127.027	47.185	0	311.90	0	5.8760	0	33.9310	0	26.727	0	309.073	0	76.8	4	25.3	4	-1E+10	1	-1E+10	1	-1E+10	1	-1E+10	1	-1E+10	1	-1E+10	1
4902663	35	C	07/15/2024	07:13	-127.027	47.185	0	313.10	0	5.8590	0	33.9290	0	26.727	0	310.261	0	76.7	4	25.3	4	-1E+10	1	-1E+10	1	-1E+10	1	-1E+10	1	-1E+10	1	-1E+10	1
4902663	35	C	07/15/2024	07:13	-127.027	47.185	0	314.00	0	5.8480	0	33.9280	0	26.728	0	311.152	0	76.6	4	25.2	4	-1E+10	1	-1E+10	1	-1E+10	1	-1E+10	1	-1E+10	1	-1E+10	1
4902663	35	C	07/15/2024	07:13	-127.027	47.185	0	314.80	0	5.8400	0	33.9260	0	26.727	0	311.944	0	76.4	4	25.1	4	-1E+10	1	-1E+10	1	-1E+10	1	-1E+10	1	-1E+10	1	-1E+10	1
4902663	35	C	07/15/2024	07:13	-127.027	47.185	0	315.70	0	5.8190	0	33.9250	0	26.729	0	312.835	0	76.2	4	25.1	4	-1E+10	1	-1E+10	1	-1E+10	1	-1E+10	1	-1E+10	1	-1E+10	1
4902663	35	C	07/15/2024	07:13	-127.027	47.185	0	316.90	0	5.7760	0	33.9250	0	26.734	0	314.023	0	75.8	4	24.9	4	-1E+10	1	-1E+10	1	-1E+10	1	-1E+10	1	-1E+10	1	-1E+10	1
4902663	35	C	07/15/2024	07:13	-127.027	47.185	0	318.20	0	5.7310	0	33.9210	0	26.737	0	315.311	0	75.3	4	24.7	4	-1E+10	1	-1E+10	1	-1E+10	1	-1E+10	1	-1E+10	1	-1E+10	1
4902663	35	C	07/15/2024	07:13	-127.027	47.185	0	319.00	0	5.7300	0	33.9230	0	26.738	0	316.103	0	74.8	4	24.6	4	-1E+10	1	-1E+10	1	-1E+10	1	-1E+10	1	-1E+10	1	-1E+10	1
4902663	35	C	07/15/2024	07:13	-127.027	47.185	0	319.90	0	5.7230	0	33.9260	0	26.742	0	316.994	0	74.3	4	24.4	4	-1E+10	1	-1E+10	1	-1E+10	1	-1E+10	1	-1E+10	1	-1E+10	1
4902663	35	C	07/15/2024	07:13	-127.027	47.185	0	320.70	0	5.7220	0	33.9220	0	26.739	0	317.786	0	73.8	4	24.2	4	-1E+10	1	-1E+10	1	-1E+10	1	-1E+10	1	-1E+10	1	-1E+10	1
4902663	35	C	07/15/2024	07:13	-127.027	47.185	0	322.00	0	5.7260	0	33.9300	0	26.745	0	319.073	0	73.3	4	24.1	4	-1E+10	1	-1E+10	1	-1E+10	1	-1E+10	1	-1E+10	1	-1E+10	1
4902663	35	C	07/15/2024	07:13	-127.027	47.185	0	323.30	0	5.7080	0	33.9320	0	26.748	0	320.360	0	73.0	4	23.9	4	-1E+10	1	-1E+10	1	-1E+10	1	-1E+10	1	-1E+10	1	-1E+10	1
4902663	35	C	07/15/2024	07:13	-127.027	47.185	0	324.10	0	5.6940	0	33.9310	0	26.749	0	321.153	0	72.7	4	23.8	4	-1E+10	1	-1E+10	1	-1E+10	1	-1E+10	1	-1E+10	1	-1E+10	1
4902663	35	C	07/15/2024	07:13	-127.027	47.185	0	325.00	0	5.6890	0	33.9310	0	26.750	0	322.044	0	72.4	4	23.8	4	-1E+10	1	-1E+10	1	-1E+10	1	-1E+10	1	-1E+10	1	-1E+10	1
4902663	35	C	07/15/2024	07:13	-127.027	47.185	0	325.90	0	5.6900	0	33.9340	0	26.752	0	322.935	0	72.2	4	23.7	4	-1E+10	1	-1E+10	1	-1E+10	1	-1E+10	1	-1E+10	1	-1E+10	1
4902663	35	C	07/15/2024	07:13	-127.027	47.185	0	326.80	0	5.6870	0	33.9340	0	26.753	0	323.826	0	72.0	4	23.6	4	-1E+10	1	-1E+10	1	-1E+10	1	-1E+10	1	-1E+10	1	-1E+10	1
4902663	35	C	07/15/2024	07:13	-127.027	47.185	0	327.60	0	5.6830	0	33.9340	0	26.753	0	324.618	0	71.7	4	23.5	4	-1E+10	1	-1E+10	1	-1E+10	1	-1E+10	1	-1E+10	1	-1E+10	1
4902663	35	C	07/15/2024	07:13	-127.027	47.185	0	328.90	0	5.6920	0	33.9340	0	26.752	0	325.905	0	71.4	4	23.4	4	-1E+10	1	-1E+10	1	-1E+10	1	-1E+10	1	-1E+10	1	-1E+10	1
4902663	35	C	07/15/2024	07:13	-127.027	47.185	0	330.30	0	5.6420	0	33.9350	0	26.759	0	327.291	0	71.1	4	23.3	4	-1E+10	1	-1E+10	1	-1E+10	1	-1E+10	1	-1E+10	1	-1E+10	1
4902663	35	C	07/15/2024	07:13	-127.027	47.185	0	331.20	0	5.6260	0	33.9330	0	26.759	0	328.182	0	70.8	4	23.2	4	-1E+10	1	-1E+10	1	-1E+10	1	-1E+10	1	-1E+10	1	-1E+10	1
4902663	35	C	07/15/2024	07:13	-127.027	47.185	0	332.10	0	5.5970	0	33.9310	0	26.761	0	329.073	0	70.4	4	23.1	4	-1E+10	1	-1E+10	1	-1E+10	1	-1E+10	1	-1E+10	1	-1E+10	1
4902663	35	C	07/15/2024	07:13	-127.027	47.185	0	333.00	0	5.5910	0	33.9320	0	26.763	0	329.964	0	70.0	4	22.9	4	-1E+10	1	-1E+10	1	-1E+10	1	-1E+10	1	-1E+10	1	-1E+10	1
4902663	35	C	07/15/2024	07:13	-127.027	47.185	0	333.90	0	5.5620	0	33.9300	0	26.764	0	330.856	0	69.4	4	22.7	4	-1E+10	1	-1E+10	1	-1E+10	1	-1E+10	1	-1E+10	1	-1E+10	1
4902663	35	C	07/15/2024	07:13	-127.027	47.185	0	334.80	0	5.5620	0	33.9290	0	26.764	0	331.747	0	68.8	4	22.5	4	-1E+10	1	-1E+10	1	-1E+10	1	-1E+10	1	-1E+10	1	-1E+10	1
4902663	35	C	07/15/2024	07:13	-127.027	47.185	0	335.70	0	5.5650	0	33.9310	0	26.765	0	332.638	0	68.2	4	22.3	4	-1E+10	1	-1E+10	1	-1E+10	1	-1E+10	1	-1E+10	1	-1E+10	1
4902663	35	C	07/15/2024	07:13	-127.027	47.185	0	336.60	0	5.5680	0	33.9330	0	26.766	0	333.529	0	67.5	4	22.1	4	-1E+10	1	-1E+10	1	-1E+10	1	-1E+10	1	-1E+10	1	-1E+10	1
4902663	35	C	07/15/2024	07:13	-127.027	47.185	0	337.90	0	5.5760	0	33.9370	0	26.768	0	334.816	0	66.6	4	21.8	4	-1E+10	1	-1E+10	1	-1E+10	1	-1E+10	1	-1E+10	1	-1E+10	1
4902663	35	C	07/15/2024	07:13	-127.027	47.185	0	339.30	0	5.5750	0	33.9400	0	26.771	0	336.202	0	65.7	4	21.5	4	-1E+10	1	-1E+10	1	-1E+10	1	-1E+10	1	-1E+10	1	-1E+10	1
4902663	35	C	07/15/2024	07:13	-127.027	47.185	0	340.20	0	5.5690	0	33.9430	0	26.774	0	337.093	0	65.1	4	21.3	4	-1E+10	1	-1E+10	1	-1E+10	1	-1E+10	1	-1E+10	1	-1E+10	1
4902663	35	C	07/15/2024	07:13	-127.027	47.185	0	341.20	0	5.5530	0	33.9500	0	26.781	0	338.083	0	64.7	4	21.2	4	-1E+10	1	-1E+10	1	-1E+10	1	-1E+10	1	-1E+10	1	-1E+10	1
4902663	35	C	07/15/2024	07:13	-127.027	47.185	0	342.10	0	5.5370	0	33.9480	0	26.782	0	338.974	0	64.1	4	21.0	4	-1E+10	1	-1E+10	1	-1E+10	1	-1E+10	1	-1E+10	1	-1E+10	1
4902663	35	C	07/15/2024	07:13	-127.027	47.185	0	343.00	0	5.5360	0	33.9470	0	26.781	0	339.865	0	63.6	4	20.8	4	-1E+10	1	-1E+10	1	-1E+10	1	-1E+10	1	-1E+10	1	-1E+10	1
4902663	35	C	07/15/2024	07:13	-127.027	47.185	0	344.00	0	5.5560	0	33.9530	0	26.784	0	340.855	0	63.2	4	20.7	4	-1E+10	1	-1E+10	1	-1E+10	1	-1E+10	1	-1E+10	1	-1E+10	1
4902663	35	C	07/15/2024	07:13	-127.027	47.185	0	344.90	0	5.5590	0	33.9560	0	26.786	0	341.746	0	62.8	4	20.5	4	-1E+10	1	-1E+10	1	-1E+10	1	-1E+10	1	-1E+10	1	-1E+10	1
4902663	35	C	07/15/2024	07:13	-127.027	47.185	0	345.90	0	5.5560	0	33.9550	0	26.785	0	342.736	0	62.4	4	20.4	4	-1E+10	1	-1E+10	1	-1E+10	1	-1E+10	1	-1E+10	1	-1E+10	1
4902663	35	C	07/15/2024	07:13	-127.027	47.185	0	346.90	0	5.5570	0	33.9580	0	26.787	0	343.726	0	62.1	4	20.3	4	-1E+10	1	-1E+10	1	-1E+10	1	-1E+10	1	-1E+10	1	-1E+10	1
4902663	35	C	07/15/2024	07:13	-127.027	47.185	0	347.80	0	5.5550	0	33.9580	0	26.788	0	344.617	0	61.7	4	20.2	4	-1E+10	1	-1E+10	1	-1E+10	1	-1E+10	1	-1E+10	1	-1E+10	1
4902663	35	C	07/15/2024	07:13	-127.027	47.185	0	348.80	0	5.5630	0	33.9620	0	26.790	0	345.607	0	61.4	4	20.1	4	-1E+10	1	-1E+10	1	-1E+10	1	-1E+10	1	-1E+10	1	-1E+10	1
4902663	35	C	07/15/2024	07:13	-127.027	47.185	0	349.80	0	5.5700	0	33.9630	0	26.790	0	346.597	0	61.1	4	20.0	4	-1E+10	1	-1E+10	1	-1E+10	1	-1E+10	1	-1E+10	1	-1E+10	1
4902663	35	C	07/15/2024	07:13	-127.027	47.185	0	352.70	0	5.5550	0	33.9640	0	26.792	0	349.468	0	60.3	4	19.7	4	-1E+10	1	-1E+10	1	-1E+10	1	-1E+10	1	-1E+10	1	-1E+10	1
4902663	35	C	07/15/2024	07:13	-127.027	47.185	0	357.60	0	5.5500	0	33.9710	0	26.799	0	354.319	0	58.5	4	19.1	4	-1E+10	1	-1E+10	1	-1E+10	1	-1E+10	1	-1E+10	1	-1E+10	1
4902663	35	C	07/15/2024	07:13	-127.027	47.185	0	362.60	0	5.5700	0	33.9800	0	26.803	0	359.269	0	57.3	4	18.7	4	-1E+10	1	-1E+10	1	-1E+10	1	-1E+10	1	-1E+10	1	-1E+10	1
4902663	35	C	07/15/2024	07:13	-127.027	47.185	0	367.70	0	5.4940	0	33.9780	0	26.811	0	364.318	0	56.9	4	18.6	4	-1E+10	1	-1E+10	1	-1E+10	1	-1E+10	1	-1E+10	1	-1E+10	1
4902663	35	C	07/15/2024	07:13	-127.027	47.185	0	372.70	0	5.4220	0	33.9740	0	26.816	0	369.267	0	55.9	4	18.2	4	-1E+10	1	-1E+10	1	-1E+10	1	-1E+10	1	-1E+10	1	-1E+10	1
4902663	35	C	07/15/2024	07:13	-127.027	47.185	0	377.90	0	5.3990	0	33.9780	0	26.822	0	374.415	0	54.6	4	17.8	4	-1E+10	1	-1E+10	1	-1E+10	1	-1E+10	1	-1E+10	1	-1E+10	1
4902663	35	C	07/15/2024	07:13	-127.027	47.185	0	383.10	0	5.3750	0	33.9820	0	26.828	0	379.562	0	53.4	4	17.4	4	-1E+10	1	-1E+10	1	-1E+10	1	-1E+10	1	-1E+10	1	-1E+10	1
4902663	35	C	07/15/2024	07:13	-127.027	47.185	0	387.90	0	5.3650	0	33.9870	0	26.834	0	384.313	0	52.2	4	17.0	4	-1E+10	1	-1E+10	1	-1E+10	1	-1E+10	1	-1E+10	1	-1E+10	1
4902663	35	C	07/15/2024	07:13	-127.027	47.185	0	392.70	0	5.3320	0	33.9880	0	26.838	0	389.064	0	51.2	4	16.6	4	-1E+10	1	-1E+10	1	-1E+10	1	-1E+10	1	-1E+10	1	-1E+10	1
4902663	35	C	07/15/2024	07:13	-127.027	47.185	0	398.00	0	5.2710	0	33.9910	0	26.848	0	394.310	0	50.0	4	16.2	4	-1E+10	1	-1E+10	1	-1E+10	1	-1E+10	1	-1E+10	1	-1E+10	1
4902663	35	C	07/15/2024	07:13	-127.027	47.185	0	403.20	0	5.2210	0	33.9940	0	26.856	0	399.457	0	48.9	4	15.9	4	-1E+10	1	-1E+10	1	-1E+10	1	-1E+10	1	-1E+10	1	-1E+10	1
4902663	35	C	07/15/2024	07:13	-127.027	47.185	0	408.00	0	5.2020	0	33.9970	0	26.861	0	404.208	0	47.7	4	15.5	4	-1E+10	1	-1E+10	1	-1E+10	1	-1E+10	1	-1E+10	1	-1E+10	1
4902663	35	C	07/15/2024	07:13	-127.027	47.185	0	412.80	0	5.2060	0	34.0020	0	26.864	0	408.958	0	46.8	4	15.2	4	-1E+10	1	-1E+10	1	-1E+10	1	-1E+10	1	-1E+10	1	-1E+10	1
4902663	35	C	07/15/2024	07:13	-127.027	47.185	0	418.00	0	5.2070	0	34.0080	0	26.869	0	414.105	0	45.7	4	14.8	4	-1E+10	1	-1E+10	1	-1E+10	1	-1E+10	1	-1E+10	1	-1E+10	1
4902663	35	C	07/15/2024	07:13	-127.027	47.185	0	423.20	0	5.1860	0	34.0110	0	26.874	0	419.251	0	44.7	4	14.5	4	-1E+10	1	-1E+10	1	-1E+10	1	-1E+10	1	-1E+10	1	-1E+10	1
4902663	35	C	07/15/2024	07:13	-127.027	47.185	0	428.30	0	5.1510	0	34.0130	0	26.879	0	424.298	0	43.7	4	14.2	4	-1E+10	1	-1E+10	1	-1E+10	1	-1E+10	1	-1E+10	1	-1E+10	1
4902663	35	C	07/15/2024	07:13	-127.027	47.185	0	433.00	0	5.1470	0	34.0170	0	26.883	0	428.950	0	42.5	4	13.8	4	-1E+10	1	-1E+10	1	-1E+10	1	-1E+10	1	-1E+10	1	-1E+10	1
4902663	35	C	07/15/2024	07:13	-127.027	47.185	0	437.50	0	5.1310	0	34.0200	0	26.887	0	433.403	0	41.2	4	13.4	4	-1E+10	1	-1E+10	1	-1E+10	1	-1E+10	1	-1E+10	1	-1E+10	1
4902663	35	C	07/15/2024	07:13	-127.027	47.185	0	442.50	0	5.1170	0	34.0290	0	26.896	0	438.351	0	39.8	4	12.9	4	-1E+10	1	-1E+10	1	-1E+10	1	-1E+10	1	-1E+10	1	-1E+10	1
4902663	35	C	07/15/2024	07:13	-127.027	47.185	0	447.60	0	5.1020	0	34.0350	0	26.903	0	443.397	0	38.4	4	12.4	4	-1E+10	1	-1E+10	1	-1E+10	1	-1E+10	1	-1E+10	1	-1E+10	1
4902663	35	C	07/15/2024	07:13	-127.027	47.185	0	452.60	0	5.0940	0	34.0420	0	26.909	0	448.345	0	37.4	4	12.1	4	-1E+10	1	-1E+10	1	-1E+10	1	-1E+10	1	-1E+10	1	-1E+10	1
4902663	35	C	07/15/2024	07:13	-127.027	47.185	0	457.60	0	5.0390	0	34.0450	0	26.918	0	453.293	0	36.6	4	11.8	4	-1E+10	1	-1E+10	1	-1E+10	1	-1E+10	1	-1E+10	1	-1E+10	1
4902663	35	C	07/15/2024	07:13	-127.027	47.185	0	462.60	0	4.9910	0	34.0460	0	26.924	0	458.240	0	35.7	4	11.5	4	-1E+10	1	-1E+10	1	-1E+10	1	-1E+10	1	-1E+10	1	-1E+10	1
4902663	35	C	07/15/2024	07:13	-127.027	47.185	0	467.70	0	4.9860	0	34.0500	0	26.928	0	463.286	0	34.5	4	11.1	4	-1E+10	1	-1E+10	1	-1E+10	1	-1E+10	1	-1E+10	1	-1E+10	1
4902663	35	C	07/15/2024	07:13	-127.027	47.185	0	472.70	0	4.9900	0	34.0580	0	26.934	0	468.233	0	32.9	4	10.6	4	-1E+10	1	-1E+10	1	-1E+10	1	-1E+10	1	-1E+10	1	-1E+10	1
4902663	35	C	07/15/2024	07:13	-127.027	47.185	0	477.70	0	4.9910	0	34.0660	0	26.940	0	473.180	0	31.5	4	10.2	4	-1E+10	1	-1E+10	1	-1E+10	1	-1E+10	1	-1E+10	1	-1E+10	1
4902663	35	C	07/15/2024	07:13	-127.027	47.185	0	482.70	0	5.0000	0	34.0740	0	26.946	0	478.127	0	30.5	4	9.8	4	-1E+10	1	-1E+10	1	-1E+10	1	-1E+10	1	-1E+10	1	-1E+10	1
4902663	35	C	07/15/2024	07:13	-127.027	47.185	0	487.80	0	4.9540	0	34.0750	0	26.952	0	483.173	0	29.7	4	9.6	4	-1E+10	1	-1E+10	1	-1E+10	1	-1E+10	1	-1E+10	1	-1E+10	1
4902663	35	C	07/15/2024	07:13	-127.027	47.185	0	493.00	0	4.9180	0	34.0780	0	26.958	0	488.318	0	28.7	4	9.3	4	-1E+10	1	-1E+10	1	-1E+10	1	-1E+10	1	-1E+10	1	-1E+10	1
4902663	35	C	07/15/2024	07:13	-127.027	47.185	0	498.20	0	4.8830	0	34.0820	0	26.965	0	493.462	0	27.6	4	8.9	4	-1E+10	1	-1E+10	1	-1E+10	1	-1E+10	1	-1E+10	1	-1E+10	1
4902663	35	C	07/15/2024	07:13	-127.027	47.185	0	503.00	0	4.8650	0	34.0910	0	26.974	0	498.211	0	26.4	4	8.5	4	-1E+10	1	-1E+10	1	-1E+10	1	-1E+10	1	-1E+10	1	-1E+10	1
4902663	35	C	07/15/2024	07:13	-127.027	47.185	0	507.60	0	4.8530	0	34.0950	0	26.979	0	502.761	0	25.5	4	8.2	4	-1E+10	1	-1E+10	1	-1E+10	1	-1E+10	1	-1E+10	1	-1E+10	1
4902663	35	C	07/15/2024	07:13	-127.027	47.185	0	512.70	0	4.8580	0	34.1030	0	26.985	0	507.807	0	25.5	4	8.2	4	-1E+10	1	-1E+10	1	-1E+10	1	-1E+10	1	-1E+10	1	-1E+10	1
4902663	35	C	07/15/2024	07:13	-127.027	47.185	0	517.90	0	4.7360	0	34.0940	0	26.991	0	512.951	0	25.3	4	8.1	4	-1E+10	1	-1E+10	1	-1E+10	1	-1E+10	1	-1E+10	1	-1E+10	1
4902663	35	C	07/15/2024	07:13	-127.027	47.185	0	523.20	0	4.6820	0	34.0960	0	26.999	0	518.193	0	24.1	4	7.7	4	-1E+10	1	-1E+10	1	-1E+10	1	-1E+10	1	-1E+10	1	-1E+10	1
4902663	35	C	07/15/2024	07:13	-127.027	47.185	0	527.90	0	4.6920	0	34.1040	0	27.004	0	522.842	0	23.2	4	7.4	4	-1E+10	1	-1E+10	1	-1E+10	1	-1E+10	1	-1E+10	1	-1E+10	1
4902663	35	C	07/15/2024	07:13	-127.027	47.185	0	532.70	0	4.6750	0	34.1090	0	27.010	0	527.590	0	22.5	4	7.2	4	-1E+10	1	-1E+10	1	-1E+10	1	-1E+10	1	-1E+10	1	-1E+10	1
4902663	35	C	07/15/2024	07:13	-127.027	47.185	0	537.90	0	4.6860	0	34.1160	0	27.014	0	532.734	0	22.1	4	7.1	4	-1E+10	1	-1E+10	1	-1E+10	1	-1E+10	1	-1E+10	1	-1E+10	1
4902663	35	C	07/15/2024	07:13	-127.027	47.185	0	543.10	0	4.6510	0	34.1160	0	27.018	0	537.877	0	21.7	4	7.0	4	-1E+10	1	-1E+10	1	-1E+10	1	-1E+10	1	-1E+10	1	-1E+10	1
4902663	35	C	07/15/2024	07:13	-127.027	47.185	0	547.90	0	4.6230	0	34.1190	0	27.024	0	542.625	0	21.2	4	6.8	4	-1E+10	1	-1E+10	1	-1E+10	1	-1E+10	1	-1E+10	1	-1E+10	1
4902663	35	C	07/15/2024	07:13	-127.027	47.185	0	552.80	0	4.6020	0	34.1200	0	27.027	0	547.471	0	20.6	4	6.6	4	-1E+10	1	-1E+10	1	-1E+10	1	-1E+10	1	-1E+10	1	-1E+10	1
4902663	35	C	07/15/2024	07:13	-127.027	47.185	0	557.80	0	4.5920	0	34.1230	0	27.030	0	552.416	0	19.7	4	6.3	4	-1E+10	1	-1E+10	1	-1E+10	1	-1E+10	1	-1E+10	1	-1E+10	1
4902663	35	C	07/15/2024	07:13	-127.027	47.185	0	562.80	0	4.6170	0	34.1320	0	27.035	0	557.361	0	18.9	4	6.1	4	-1E+10	1	-1E+10	1	-1E+10	1	-1E+10	1	-1E+10	1	-1E+10	1
4902663	35	C	07/15/2024	07:13	-127.027	47.185	0	568.00	0	4.6230	0	34.1370	0	27.038	0	562.504	0	18.3	4	5.9	4	-1E+10	1	-1E+10	1	-1E+10	1	-1E+10	1	-1E+10	1	-1E+10	1
4902663	35	C	07/15/2024	07:13	-127.027	47.185	0	573.20	0	4.5990	0	34.1410	0	27.044	0	567.647	0	17.8	4	5.7	4	-1E+10	1	-1E+10	1	-1E+10	1	-1E+10	1	-1E+10	1	-1E+10	1
4902663	35	C	07/15/2024	07:13	-127.027	47.185	0	578.00	0	4.5910	0	34.1450	0	27.048	0	572.394	0	17.3	4	5.5	4	-1E+10	1	-1E+10	1	-1E+10	1	-1E+10	1	-1E+10	1	-1E+10	1
4902663	35	C	07/15/2024	07:13	-127.027	47.185	0	583.00	0	4.5850	0	34.1490	0	27.052	0	577.338	0	17.1	4	5.5	4	-1E+10	1	-1E+10	1	-1E+10	1	-1E+10	1	-1E+10	1	-1E+10	1
4902663	35	C	07/15/2024	07:13	-127.027	47.185	0	587.90	0	4.5440	0	34.1500	0	27.057	0	582.184	0	17.0	4	5.4	4	-1E+10	1	-1E+10	1	-1E+10	1	-1E+10	1	-1E+10	1	-1E+10	1
4902663	35	C	07/15/2024	07:13	-127.027	47.185	0	592.90	0	4.5040	0	34.1480	0	27.060	0	587.128	0	16.7	4	5.3	4	-1E+10	1	-1E+10	1	-1E+10	1	-1E+10	1	-1E+10	1	-1E+10	1
4902663	35	C	07/15/2024	07:13	-127.027	47.185	0	597.90	0	4.5090	0	34.1540	0	27.064	0	592.072	0	16.1	4	5.1	4	-1E+10	1	-1E+10	1	-1E+10	1	-1E+10	1	-1E+10	1	-1E+10	1
4902663	35	C	07/15/2024	07:13	-127.027	47.185	0	603.00	0	4.4940	0	34.1570	0	27.068	0	597.115	0	15.6	4	5.0	4	-1E+10	1	-1E+10	1	-1E+10	1	-1E+10	1	-1E+10	1	-1E+10	1
4902663	35	C	07/15/2024	07:13	-127.027	47.185	0	608.00	0	4.4960	0	34.1620	0	27.072	0	602.059	0	15.0	4	4.8	4	-1E+10	1	-1E+10	1	-1E+10	1	-1E+10	1	-1E+10	1	-1E+10	1
4902663	35	C	07/15/2024	07:13	-127.027	47.185	0	613.10	0	4.4810	0	34.1660	0	27.077	0	607.102	0	14.5	4	4.6	4	-1E+10	1	-1E+10	1	-1E+10	1	-1E+10	1	-1E+10	1	-1E+10	1
4902663	35	C	07/15/2024	07:13	-127.027	47.185	0	618.10	0	4.4830	0	34.1720	0	27.082	0	612.046	0	14.1	4	4.5	4	-1E+10	1	-1E+10	1	-1E+10	1	-1E+10	1	-1E+10	1	-1E+10	1
4902663	35	C	07/15/2024	07:13	-127.027	47.185	0	623.10	0	4.4720	0	34.1760	0	27.086	0	616.989	0	13.7	4	4.4	4	-1E+10	1	-1E+10	1	-1E+10	1	-1E+10	1	-1E+10	1	-1E+10	1
4902663	35	C	07/15/2024	07:13	-127.027	47.185	0	628.00	0	4.4640	0	34.1800	0	27.090	0	621.834	0	13.3	4	4.3	4	-1E+10	1	-1E+10	1	-1E+10	1	-1E+10	1	-1E+10	1	-1E+10	1
4902663	35	C	07/15/2024	07:13	-127.027	47.185	0	633.00	0	4.4730	0	34.1850	0	27.093	0	626.777	0	13.0	4	4.2	4	-1E+10	1	-1E+10	1	-1E+10	1	-1E+10	1	-1E+10	1	-1E+10	1
4902663	35	C	07/15/2024	07:13	-127.027	47.185	0	637.90	0	4.4670	0	34.1880	0	27.096	0	631.622	0	12.8	4	4.1	4	-1E+10	1	-1E+10	1	-1E+10	1	-1E+10	1	-1E+10	1	-1E+10	1
4902663	35	C	07/15/2024	07:13	-127.027	47.185	0	642.90	0	4.4400	0	34.1880	0	27.099	0	636.565	0	12.4	4	4.0	4	-1E+10	1	-1E+10	1	-1E+10	1	-1E+10	1	-1E+10	1	-1E+10	1
4902663	35	C	07/15/2024	07:13	-127.027	47.185	0	648.20	0	4.4490	0	34.1970	0	27.105	0	641.804	0	12.0	4	3.8	4	-1E+10	1	-1E+10	1	-1E+10	1	-1E+10	1	-1E+10	1	-1E+10	1
4902663	35	C	07/15/2024	07:13	-127.027	47.185	0	653.10	0	4.4530	0	34.2020	0	27.109	0	646.648	0	11.7	4	3.7	4	-1E+10	1	-1E+10	1	-1E+10	1	-1E+10	1	-1E+10	1	-1E+10	1
4902663	35	C	07/15/2024	07:13	-127.027	47.185	0	657.80	0	4.4530	0	34.2050	0	27.111	0	651.295	0	11.5	4	3.7	4	-1E+10	1	-1E+10	1	-1E+10	1	-1E+10	1	-1E+10	1	-1E+10	1
4902663	35	C	07/15/2024	07:13	-127.027	47.185	0	663.00	0	4.4120	0	34.2060	0	27.117	0	656.435	0	11.4	4	3.6	4	-1E+10	1	-1E+10	1	-1E+10	1	-1E+10	1	-1E+10	1	-1E+10	1
4902663	35	C	07/15/2024	07:13	-127.027	47.185	0	668.10	0	4.4040	0	34.2100	0	27.121	0	661.476	0	11.2	4	3.6	4	-1E+10	1	-1E+10	1	-1E+10	1	-1E+10	1	-1E+10	1	-1E+10	1
4902663	35	C	07/15/2024	07:13	-127.027	47.185	0	673.10	0	4.3820	0	34.2110	0	27.124	0	666.419	0	11.1	4	3.5	4	-1E+10	1	-1E+10	1	-1E+10	1	-1E+10	1	-1E+10	1	-1E+10	1
4902663	35	C	07/15/2024	07:13	-127.027	47.185	0	678.10	0	4.3360	0	34.2110	0	27.129	0	671.361	0	10.9	4	3.5	4	-1E+10	1	-1E+10	1	-1E+10	1	-1E+10	1	-1E+10	1	-1E+10	1
4902663	35	C	07/15/2024	07:13	-127.027	47.185	0	683.10	0	4.3190	0	34.2130	0	27.132	0	676.303	0	10.7	4	3.4	4	-1E+10	1	-1E+10	1	-1E+10	1	-1E+10	1	-1E+10	1	-1E+10	1
4902663	35	C	07/15/2024	07:13	-127.027	47.185	0	688.00	0	4.3050	0	34.2150	0	27.135	0	681.147	0	10.5	4	3.3	4	-1E+10	1	-1E+10	1	-1E+10	1	-1E+10	1	-1E+10	1	-1E+10	1
4902663	35	C	07/15/2024	07:13	-127.027	47.185	0	692.80	0	4.2830	0	34.2180	0	27.140	0	685.891	0	10.2	4	3.2	4	-1E+10	1	-1E+10	1	-1E+10	1	-1E+10	1	-1E+10	1	-1E+10	1
4902663	35	C	07/15/2024	07:13	-127.027	47.185	0	697.60	0	4.2780	0	34.2240	0	27.145	0	690.635	0	9.8	4	3.1	4	-1E+10	1	-1E+10	1	-1E+10	1	-1E+10	1	-1E+10	1	-1E+10	1
4902663	35	C	07/15/2024	07:13	-127.027	47.185	0	702.90	0	4.2770	0	34.2320	0	27.152	0	695.873	0	9.5	4	3.0	4	-1E+10	1	-1E+10	1	-1E+10	1	-1E+10	1	-1E+10	1	-1E+10	1
4902663	35	C	07/15/2024	07:13	-127.027	47.185	0	708.20	0	4.2780	0	34.2380	0	27.157	0	701.112	0	9.3	4	3.0	4	-1E+10	1	-1E+10	1	-1E+10	1	-1E+10	1	-1E+10	1	-1E+10	1
4902663	35	C	07/15/2024	07:13	-127.027	47.185	0	713.00	0	4.2620	0	34.2390	0	27.159	0	705.855	0	9.2	4	2.9	4	-1E+10	1	-1E+10	1	-1E+10	1	-1E+10	1	-1E+10	1	-1E+10	1
4902663	35	C	07/15/2024	07:13	-127.027	47.185	0	717.80	0	4.2620	0	34.2430	0	27.162	0	710.599	0	9.0	4	2.9	4	-1E+10	1	-1E+10	1	-1E+10	1	-1E+10	1	-1E+10	1	-1E+10	1
4902663	35	C	07/15/2024	07:13	-127.027	47.185	0	722.60	0	4.2370	0	34.2470	0	27.168	0	715.343	0	8.8	4	2.8	4	-1E+10	1	-1E+10	1	-1E+10	1	-1E+10	1	-1E+10	1	-1E+10	1
4902663	35	C	07/15/2024	07:13	-127.027	47.185	0	727.90	0	4.2130	0	34.2500	0	27.173	0	720.580	0	8.7	4	2.8	4	-1E+10	1	-1E+10	1	-1E+10	1	-1E+10	1	-1E+10	1	-1E+10	1
4902663	35	C	07/15/2024	07:13	-127.027	47.185	0	733.20	0	4.1830	0	34.2510	0	27.177	0	725.818	0	8.5	4	2.7	4	-1E+10	1	-1E+10	1	-1E+10	1	-1E+10	1	-1E+10	1	-1E+10	1
4902663	35	C	07/15/2024	07:13	-127.027	47.185	0	738.10	0	4.1750	0	34.2540	0	27.180	0	730.660	0	8.4	4	2.7	4	-1E+10	1	-1E+10	1	-1E+10	1	-1E+10	1	-1E+10	1	-1E+10	1
4902663	35	C	07/15/2024	07:13	-127.027	47.185	0	742.90	0	4.1560	0	34.2580	0	27.186	0	735.403	0	8.2	4	2.6	4	-1E+10	1	-1E+10	1	-1E+10	1	-1E+10	1	-1E+10	1	-1E+10	1
4902663	35	C	07/15/2024	07:13	-127.027	47.185	0	747.80	0	4.1500	0	34.2630	0	27.190	0	740.245	0	8.0	4	2.5	4	-1E+10	1	-1E+10	1	-1E+10	1	-1E+10	1	-1E+10	1	-1E+10	1
4902663	35	C	07/15/2024	07:13	-127.027	47.185	0	752.70	0	4.1440	0	34.2680	0	27.195	0	745.087	0	8.0	4	2.5	4	-1E+10	1	-1E+10	1	-1E+10	1	-1E+10	1	-1E+10	1	-1E+10	1
4902663	35	C	07/15/2024	07:13	-127.027	47.185	0	757.60	0	4.1310	0	34.2690	0	27.197	0	749.928	0	8.0	4	2.5	4	-1E+10	1	-1E+10	1	-1E+10	1	-1E+10	1	-1E+10	1	-1E+10	1
4902663	35	C	07/15/2024	07:13	-127.027	47.185	0	762.90	0	4.0890	0	34.2730	0	27.205	0	755.165	0	8.0	4	2.5	4	-1E+10	1	-1E+10	1	-1E+10	1	-1E+10	1	-1E+10	1	-1E+10	1
4902663	35	C	07/15/2024	07:13	-127.027	47.185	0	767.80	0	4.0720	0	34.2730	0	27.206	0	760.006	0	7.9	4	2.5	4	-1E+10	1	-1E+10	1	-1E+10	1	-1E+10	1	-1E+10	1	-1E+10	1
4902663	35	C	07/15/2024	07:13	-127.027	47.185	0	772.80	0	4.0540	0	34.2750	0	27.210	0	764.947	0	7.8	4	2.5	4	-1E+10	1	-1E+10	1	-1E+10	1	-1E+10	1	-1E+10	1	-1E+10	1
4902663	35	C	07/15/2024	07:13	-127.027	47.185	0	778.00	0	4.0440	0	34.2780	0	27.213	0	770.084	0	7.8	4	2.5	4	-1E+10	1	-1E+10	1	-1E+10	1	-1E+10	1	-1E+10	1	-1E+10	1
4902663	35	C	07/15/2024	07:13	-127.027	47.185	0	782.90	0	4.0210	0	34.2780	0	27.216	0	774.925	0	7.7	4	2.4	4	-1E+10	1	-1E+10	1	-1E+10	1	-1E+10	1	-1E+10	1	-1E+10	1
4902663	35	C	07/15/2024	07:13	-127.027	47.185	0	788.00	0	4.0210	0	34.2830	0	27.220	0	779.964	0	7.5	4	2.4	4	-1E+10	1	-1E+10	1	-1E+10	1	-1E+10	1	-1E+10	1	-1E+10	1
4902663	35	C	07/15/2024	07:13	-127.027	47.185	0	793.10	0	4.0110	0	34.2870	0	27.224	0	785.002	0	7.3	4	2.3	4	-1E+10	1	-1E+10	1	-1E+10	1	-1E+10	1	-1E+10	1	-1E+10	1
4902663	35	C	07/15/2024	07:13	-127.027	47.185	0	797.90	0	4.0190	0	34.2940	0	27.229	0	789.744	0	7.1	4	2.2	4	-1E+10	1	-1E+10	1	-1E+10	1	-1E+10	1	-1E+10	1	-1E+10	1
4902663	35	C	07/15/2024	07:13	-127.027	47.185	0	802.70	0	4.0310	0	34.3010	0	27.233	0	794.486	0	7.0	4	2.2	4	-1E+10	1	-1E+10	1	-1E+10	1	-1E+10	1	-1E+10	1	-1E+10	1
4902663	35	C	07/15/2024	07:13	-127.027	47.185	0	807.70	0	4.0440	0	34.3070	0	27.237	0	799.425	0	6.9	4	2.2	4	-1E+10	1	-1E+10	1	-1E+10	1	-1E+10	1	-1E+10	1	-1E+10	1
4902663	35	C	07/15/2024	07:13	-127.027	47.185	0	812.70	0	4.0350	0	34.3100	0	27.240	0	804.364	0	6.9	4	2.2	4	-1E+10	1	-1E+10	1	-1E+10	1	-1E+10	1	-1E+10	1	-1E+10	1
4902663	35	C	07/15/2024	07:13	-127.027	47.185	0	817.70	0	4.0090	0	34.3120	0	27.244	0	809.303	0	7.0	4	2.2	4	-1E+10	1	-1E+10	1	-1E+10	1	-1E+10	1	-1E+10	1	-1E+10	1
4902663	35	C	07/15/2024	07:13	-127.027	47.185	0	822.90	0	3.9530	0	34.3080	0	27.247	0	814.440	0	7.0	4	2.2	4	-1E+10	1	-1E+10	1	-1E+10	1	-1E+10	1	-1E+10	1	-1E+10	1
4902663	35	C	07/15/2024	07:13	-127.027	47.185	0	828.10	0	3.9400	0	34.3100	0	27.250	0	819.576	0	7.0	4	2.2	4	-1E+10	1	-1E+10	1	-1E+10	1	-1E+10	1	-1E+10	1	-1E+10	1
4902663	35	C	07/15/2024	07:13	-127.027	47.185	0	832.90	0	3.9220	0	34.3130	0	27.254	0	824.317	0	6.9	4	2.2	4	-1E+10	1	-1E+10	1	-1E+10	1	-1E+10	1	-1E+10	1	-1E+10	1
4902663	35	C	07/15/2024	07:13	-127.027	47.185	0	837.80	0	3.9260	0	34.3160	0	27.256	0	829.157	0	6.9	4	2.2	4	-1E+10	1	-1E+10	1	-1E+10	1	-1E+10	1	-1E+10	1	-1E+10	1
4902663	35	C	07/15/2024	07:13	-127.027	47.185	0	842.70	0	3.9170	0	34.3210	0	27.261	0	833.997	0	6.8	4	2.2	4	-1E+10	1	-1E+10	1	-1E+10	1	-1E+10	1	-1E+10	1	-1E+10	1
4902663	35	C	07/15/2024	07:13	-127.027	47.185	0	847.60	0	3.9130	0	34.3230	0	27.263	0	838.836	0	6.8	4	2.2	4	-1E+10	1	-1E+10	1	-1E+10	1	-1E+10	1	-1E+10	1	-1E+10	1
4902663	35	C	07/15/2024	07:13	-127.027	47.185	0	852.90	0	3.9180	0	34.3280	0	27.266	0	844.071	0	6.8	4	2.2	4	-1E+10	1	-1E+10	1	-1E+10	1	-1E+10	1	-1E+10	1	-1E+10	1
4902663	35	C	07/15/2024	07:13	-127.027	47.185	0	858.30	0	3.8930	0	34.3280	0	27.269	0	849.404	0	6.9	4	2.2	4	-1E+10	1	-1E+10	1	-1E+10	1	-1E+10	1	-1E+10	1	-1E+10	1
4902663	35	C	07/15/2024	07:13	-127.027	47.185	0	863.30	0	3.8540	0	34.3270	0	27.272	0	854.342	0	6.9	4	2.2	4	-1E+10	1	-1E+10	1	-1E+10	1	-1E+10	1	-1E+10	1	-1E+10	1
4902663	35	C	07/15/2024	07:13	-127.027	47.185	0	868.30	0	3.8310	0	34.3280	0	27.275	0	859.280	0	7.0	4	2.2	4	-1E+10	1	-1E+10	1	-1E+10	1	-1E+10	1	-1E+10	1	-1E+10	1
4902663	35	C	07/15/2024	07:13	-127.027	47.185	0	873.30	0	3.8070	0	34.3270	0	27.277	0	864.217	0	7.0	4	2.2	4	-1E+10	1	-1E+10	1	-1E+10	1	-1E+10	1	-1E+10	1	-1E+10	1
4902663	35	C	07/15/2024	07:13	-127.027	47.185	0	878.30	0	3.7820	0	34.3270	0	27.279	0	869.155	0	7.0	4	2.2	4	-1E+10	1	-1E+10	1	-1E+10	1	-1E+10	1	-1E+10	1	-1E+10	1
4902663	35	C	07/15/2024	07:13	-127.027	47.185	0	883.10	0	3.7760	0	34.3280	0	27.281	0	873.895	0	7.0	4	2.2	4	-1E+10	1	-1E+10	1	-1E+10	1	-1E+10	1	-1E+10	1	-1E+10	1
4902663	35	C	07/15/2024	07:13	-127.027	47.185	0	888.00	0	3.7630	0	34.3310	0	27.285	0	878.734	0	7.0	4	2.2	4	-1E+10	1	-1E+10	1	-1E+10	1	-1E+10	1	-1E+10	1	-1E+10	1
4902663	35	C	07/15/2024	07:13	-127.027	47.185	0	892.70	0	3.7580	0	34.3330	0	27.287	0	883.375	0	7.0	4	2.2	4	-1E+10	1	-1E+10	1	-1E+10	1	-1E+10	1	-1E+10	1	-1E+10	1
4902663	35	C	07/15/2024	07:13	-127.027	47.185	0	897.90	0	3.7450	0	34.3350	0	27.290	0	888.509	0	7.0	4	2.2	4	-1E+10	1	-1E+10	1	-1E+10	1	-1E+10	1	-1E+10	1	-1E+10	1
4902663	35	C	07/15/2024	07:13	-127.027	47.185	0	903.10	0	3.7290	0	34.3380	0	27.294	0	893.644	0	7.0	4	2.2	4	-1E+10	1	-1E+10	1	-1E+10	1	-1E+10	1	-1E+10	1	-1E+10	1
4902663	35	C	07/15/2024	07:13	-127.027	47.185	0	907.70	0	3.7340	0	34.3420	0	27.296	0	898.186	0	7.0	4	2.2	4	-1E+10	1	-1E+10	1	-1E+10	1	-1E+10	1	-1E+10	1	-1E+10	1
4902663	35	C	07/15/2024	07:13	-127.027	47.185	0	912.80	0	3.7350	0	34.3470	0	27.300	0	903.221	0	7.0	4	2.2	4	-1E+10	1	-1E+10	1	-1E+10	1	-1E+10	1	-1E+10	1	-1E+10	1
4902663	35	C	07/15/2024	07:13	-127.027	47.185	0	917.90	0	3.7350	0	34.3520	0	27.304	0	908.257	0	7.0	4	2.2	4	-1E+10	1	-1E+10	1	-1E+10	1	-1E+10	1	-1E+10	1	-1E+10	1
4902663	35	C	07/15/2024	07:13	-127.027	47.185	0	922.90	0	3.7260	0	34.3550	0	27.308	0	913.193	0	7.1	4	2.2	4	-1E+10	1	-1E+10	1	-1E+10	1	-1E+10	1	-1E+10	1	-1E+10	1
4902663	35	C	07/15/2024	07:13	-127.027	47.185	0	928.00	0	3.7210	0	34.3560	0	27.309	0	918.229	0	7.1	4	2.2	4	-1E+10	1	-1E+10	1	-1E+10	1	-1E+10	1	-1E+10	1	-1E+10	1
4902663	35	C	07/15/2024	07:13	-127.027	47.185	0	933.00	0	3.7060	0	34.3580	0	27.312	0	923.165	0	7.1	4	2.2	4	-1E+10	1	-1E+10	1	-1E+10	1	-1E+10	1	-1E+10	1	-1E+10	1
4902663	35	C	07/15/2024	07:13	-127.027	47.185	0	938.10	0	3.6910	0	34.3590	0	27.314	0	928.200	0	7.2	4	2.3	4	-1E+10	1	-1E+10	1	-1E+10	1	-1E+10	1	-1E+10	1	-1E+10	1
4902663	35	C	07/15/2024	07:13	-127.027	47.185	0	943.00	0	3.6790	0	34.3610	0	27.317	0	933.037	0	7.2	4	2.3	4	-1E+10	1	-1E+10	1	-1E+10	1	-1E+10	1	-1E+10	1	-1E+10	1
4902663	35	C	07/15/2024	07:13	-127.027	47.185	0	948.00	0	3.6790	0	34.3660	0	27.321	0	937.973	0	7.3	4	2.3	4	-1E+10	1	-1E+10	1	-1E+10	1	-1E+10	1	-1E+10	1	-1E+10	1
4902663	35	C	07/15/2024	07:13	-127.027	47.185	0	953.00	0	3.6430	0	34.3660	0	27.325	0	942.909	0	7.4	4	2.3	4	-1E+10	1	-1E+10	1	-1E+10	1	-1E+10	1	-1E+10	1	-1E+10	1
4902663	35	C	07/15/2024	07:13	-127.027	47.185	0	958.10	0	3.6340	0	34.3670	0	27.326	0	947.944	0	7.4	4	2.3	4	-1E+10	1	-1E+10	1	-1E+10	1	-1E+10	1	-1E+10	1	-1E+10	1
4902663	35	C	07/15/2024	07:13	-127.027	47.185	0	963.10	0	3.6220	0	34.3690	0	27.329	0	952.879	0	7.5	4	2.3	4	-1E+10	1	-1E+10	1	-1E+10	1	-1E+10	1	-1E+10	1	-1E+10	1
4902663	35	C	07/15/2024	07:13	-127.027	47.185	0	968.10	0	3.6090	0	34.3720	0	27.333	0	957.815	0	7.6	4	2.4	4	-1E+10	1	-1E+10	1	-1E+10	1	-1E+10	1	-1E+10	1	-1E+10	1
4902663	35	C	07/15/2024	07:13	-127.027	47.185	0	973.10	0	3.6170	0	34.3770	0	27.336	0	962.750	0	7.7	4	2.4	4	-1E+10	1	-1E+10	1	-1E+10	1	-1E+10	1	-1E+10	1	-1E+10	1
4902663	35	C	07/15/2024	07:13	-127.027	47.185	0	978.00	0	3.6140	0	34.3810	0	27.340	0	967.587	0	7.7	4	2.4	4	-1E+10	1	-1E+10	1	-1E+10	1	-1E+10	1	-1E+10	1	-1E+10	1
4902663	35	C	07/15/2024	07:13	-127.027	47.185	0	982.90	0	3.5620	0	34.3800	0	27.344	0	972.423	0	7.8	4	2.4	4	-1E+10	1	-1E+10	1	-1E+10	1	-1E+10	1	-1E+10	1	-1E+10	1
4902663	35	C	07/15/2024	07:13	-127.027	47.185	0	987.80	0	3.5520	0	34.3810	0	27.346	0	977.259	0	7.9	4	2.5	4	-1E+10	1	-1E+10	1	-1E+10	1	-1E+10	1	-1E+10	1	-1E+10	1
4902663	35	C	07/15/2024	07:13	-127.027	47.185	0	992.70	0	3.5340	0	34.3840	0	27.350	0	982.096	0	8.0	4	2.5	4	-1E+10	1	-1E+10	1	-1E+10	1	-1E+10	1	-1E+10	1	-1E+10	1
4902663	35	C	07/15/2024	07:13	-127.027	47.185	0	997.80	0	3.5220	0	34.3860	0	27.353	0	987.129	0	8.1	4	2.5	4	-1E+10	1	-1E+10	1	-1E+10	1	-1E+10	1	-1E+10	1	-1E+10	1
4902663	35	C	07/15/2024	07:13	-127.027	47.185	0	1005.10	0	3.5190	0	34.3930	0	27.359	0	994.334	0	8.3	4	2.6	4	-1E+10	1	-1E+10	1	-1E+10	1	-1E+10	1	-1E+10	1	-1E+10	1
4902663	35	C	07/15/2024	07:13	-127.027	47.185	0	1015.50	0	3.4950	0	34.3980	0	27.365	0	1004.598	0	8.5	4	2.7	4	-1E+10	1	-1E+10	1	-1E+10	1	-1E+10	1	-1E+10	1	-1E+10	1
4902663	35	C	07/15/2024	07:13	-127.027	47.185	0	1025.50	0	3.4660	0	34.4010	0	27.370	0	1014.466	0	8.8	4	2.7	4	-1E+10	1	-1E+10	1	-1E+10	1	-1E+10	1	-1E+10	1	-1E+10	1
4902663	35	C	07/15/2024	07:13	-127.027	47.185	0	1035.30	0	3.4670	0	34.4090	0	27.377	0	1024.137	0	9.0	4	2.8	4	-1E+10	1	-1E+10	1	-1E+10	1	-1E+10	1	-1E+10	1	-1E+10	1
4902663	35	C	07/15/2024	07:13	-127.027	47.185	0	1045.30	0	3.4400	0	34.4110	0	27.381	0	1034.004	0	9.1	4	2.8	4	-1E+10	1	-1E+10	1	-1E+10	1	-1E+10	1	-1E+10	1	-1E+10	1
4902663	35	C	07/15/2024	07:13	-127.027	47.185	0	1055.40	0	3.3770	0	34.4080	0	27.384	0	1043.970	0	9.2	4	2.9	4	-1E+10	1	-1E+10	1	-1E+10	1	-1E+10	1	-1E+10	1	-1E+10	1
4902663	35	C	07/15/2024	07:13	-127.027	47.185	0	1065.40	0	3.3680	0	34.4140	0	27.390	0	1053.836	0	9.5	4	3.0	4	-1E+10	1	-1E+10	1	-1E+10	1	-1E+10	1	-1E+10	1	-1E+10	1
4902663	35	C	07/15/2024	07:13	-127.027	47.185	0	1075.20	0	3.3420	0	34.4180	0	27.396	0	1063.505	0	9.9	4	3.1	4	-1E+10	1	-1E+10	1	-1E+10	1	-1E+10	1	-1E+10	1	-1E+10	1
4902663	35	C	07/15/2024	07:13	-127.027	47.185	0	1085.30	0	3.3300	0	34.4250	0	27.403	0	1073.470	0	10.3	4	3.2	4	-1E+10	1	-1E+10	1	-1E+10	1	-1E+10	1	-1E+10	1	-1E+10	1
4902663	35	C	07/15/2024	07:13	-127.027	47.185	0	1095.30	0	3.3180	0	34.4280	0	27.406	0	1083.335	0	10.5	4	3.3	4	-1E+10	1	-1E+10	1	-1E+10	1	-1E+10	1	-1E+10	1	-1E+10	1
4902663	35	C	07/15/2024	07:13	-127.027	47.185	0	1105.20	0	3.3070	0	34.4320	0	27.411	0	1093.101	0	10.8	4	3.4	4	-1E+10	1	-1E+10	1	-1E+10	1	-1E+10	1	-1E+10	1	-1E+10	1
4902663	35	C	07/15/2024	07:13	-127.027	47.185	0	1115.50	0	3.2820	0	34.4340	0	27.415	0	1103.261	0	10.9	4	3.4	4	-1E+10	1	-1E+10	1	-1E+10	1	-1E+10	1	-1E+10	1	-1E+10	1
4902663	35	C	07/15/2024	07:13	-127.027	47.185	0	1125.40	0	3.2560	0	34.4360	0	27.419	0	1113.026	0	11.2	4	3.5	4	-1E+10	1	-1E+10	1	-1E+10	1	-1E+10	1	-1E+10	1	-1E+10	1
4902663	35	C	07/15/2024	07:13	-127.027	47.185	0	1135.30	0	3.2380	0	34.4380	0	27.422	0	1122.791	0	11.4	4	3.5	4	-1E+10	1	-1E+10	1	-1E+10	1	-1E+10	1	-1E+10	1	-1E+10	1
4902663	35	C	07/15/2024	07:13	-127.027	47.185	0	1145.30	0	3.2060	0	34.4390	0	27.426	0	1132.654	0	11.6	4	3.6	4	-1E+10	1	-1E+10	1	-1E+10	1	-1E+10	1	-1E+10	1	-1E+10	1
4902663	35	C	07/15/2024	07:13	-127.027	47.185	0	1155.20	0	3.1770	0	34.4410	0	27.430	0	1142.418	0	11.8	4	3.7	4	-1E+10	1	-1E+10	1	-1E+10	1	-1E+10	1	-1E+10	1	-1E+10	1
4902663	35	C	07/15/2024	07:13	-127.027	47.185	0	1165.60	0	3.1500	0	34.4440	0	27.435	0	1152.674	0	12.1	4	3.7	4	-1E+10	1	-1E+10	1	-1E+10	1	-1E+10	1	-1E+10	1	-1E+10	1
4902663	35	C	07/15/2024	07:13	-127.027	47.185	0	1175.60	0	3.1220	0	34.4460	0	27.439	0	1162.535	0	12.4	4	3.8	4	-1E+10	1	-1E+10	1	-1E+10	1	-1E+10	1	-1E+10	1	-1E+10	1
4902663	35	C	07/15/2024	07:13	-127.027	47.185	0	1185.60	0	3.0950	0	34.4490	0	27.444	0	1172.396	0	12.7	4	3.9	4	-1E+10	1	-1E+10	1	-1E+10	1	-1E+10	1	-1E+10	1	-1E+10	1
4902663	35	C	07/15/2024	07:13	-127.027	47.185	0	1195.60	0	3.0800	0	34.4530	0	27.449	0	1182.257	0	12.9	4	4.0	4	-1E+10	1	-1E+10	1	-1E+10	1	-1E+10	1	-1E+10	1	-1E+10	1
4902663	35	C	07/15/2024	07:13	-127.027	47.185	0	1205.40	0	3.0640	0	34.4550	0	27.452	0	1191.920	0	13.4	4	4.1	4	-1E+10	1	-1E+10	1	-1E+10	1	-1E+10	1	-1E+10	1	-1E+10	1
4902663	35	C	07/15/2024	07:13	-127.027	47.185	0	1215.30	0	3.0420	0	34.4600	0	27.458	0	1201.681	0	13.7	4	4.2	4	-1E+10	1	-1E+10	1	-1E+10	1	-1E+10	1	-1E+10	1	-1E+10	1
4902663	35	C	07/15/2024	07:13	-127.027	47.185	0	1225.40	0	2.9890	0	34.4590	0	27.462	0	1211.639	0	13.8	4	4.3	4	-1E+10	1	-1E+10	1	-1E+10	1	-1E+10	1	-1E+10	1	-1E+10	1
4902663	35	C	07/15/2024	07:13	-127.027	47.185	0	1235.60	0	2.9550	0	34.4610	0	27.467	0	1221.694	0	14.3	4	4.4	4	-1E+10	1	-1E+10	1	-1E+10	1	-1E+10	1	-1E+10	1	-1E+10	1
4902663	35	C	07/15/2024	07:13	-127.027	47.185	0	1245.40	0	2.9310	0	34.4640	0	27.471	0	1231.356	0	14.7	4	4.5	4	-1E+10	1	-1E+10	1	-1E+10	1	-1E+10	1	-1E+10	1	-1E+10	1
4902663	35	C	07/15/2024	07:13	-127.027	47.185	0	1255.30	0	2.9100	0	34.4670	0	27.476	0	1241.115	0	15.1	4	4.7	4	-1E+10	1	-1E+10	1	-1E+10	1	-1E+10	1	-1E+10	1	-1E+10	1
4902663	35	C	07/15/2024	07:13	-127.027	47.185	0	1265.30	0	2.8920	0	34.4700	0	27.480	0	1250.972	0	15.6	4	4.8	4	-1E+10	1	-1E+10	1	-1E+10	1	-1E+10	1	-1E+10	1	-1E+10	1
4902663	35	C	07/15/2024	07:13	-127.027	47.185	0	1275.40	0	2.8730	0	34.4720	0	27.483	0	1260.927	0	16.0	4	4.9	4	-1E+10	1	-1E+10	1	-1E+10	1	-1E+10	1	-1E+10	1	-1E+10	1
4902663	35	C	07/15/2024	07:13	-127.027	47.185	0	1285.50	0	2.8510	0	34.4750	0	27.487	0	1270.882	0	16.3	4	5.0	4	-1E+10	1	-1E+10	1	-1E+10	1	-1E+10	1	-1E+10	1	-1E+10	1
4902663	35	C	07/15/2024	07:13	-127.027	47.185	0	1295.50	0	2.8340	0	34.4760	0	27.490	0	1280.738	0	16.7	4	5.1	4	-1E+10	1	-1E+10	1	-1E+10	1	-1E+10	1	-1E+10	1	-1E+10	1
4902663	35	C	07/15/2024	07:13	-127.027	47.185	0	1305.60	0	2.8160	0	34.4790	0	27.494	0	1290.692	0	17.1	4	5.3	4	-1E+10	1	-1E+10	1	-1E+10	1	-1E+10	1	-1E+10	1	-1E+10	1
4902663	35	C	07/15/2024	07:13	-127.027	47.185	0	1315.50	0	2.8000	0	34.4810	0	27.497	0	1300.449	0	17.5	4	5.4	4	-1E+10	1	-1E+10	1	-1E+10	1	-1E+10	1	-1E+10	1	-1E+10	1
4902663	35	C	07/15/2024	07:13	-127.027	47.185	0	1325.30	0	2.7790	0	34.4830	0	27.500	0	1310.106	0	17.8	4	5.5	4	-1E+10	1	-1E+10	1	-1E+10	1	-1E+10	1	-1E+10	1	-1E+10	1
4902663	35	C	07/15/2024	07:13	-127.027	47.185	0	1335.40	0	2.7580	0	34.4860	0	27.505	0	1320.059	0	18.0	4	5.5	4	-1E+10	1	-1E+10	1	-1E+10	1	-1E+10	1	-1E+10	1	-1E+10	1
4902663	35	C	07/15/2024	07:13	-127.027	47.185	0	1345.60	0	2.7420	0	34.4880	0	27.508	0	1330.109	0	18.4	4	5.6	4	-1E+10	1	-1E+10	1	-1E+10	1	-1E+10	1	-1E+10	1	-1E+10	1
4902663	35	C	07/15/2024	07:13	-127.027	47.185	0	1355.60	0	2.7290	0	34.4900	0	27.510	0	1339.962	0	18.8	4	5.8	4	-1E+10	1	-1E+10	1	-1E+10	1	-1E+10	1	-1E+10	1	-1E+10	1
4902663	35	C	07/15/2024	07:13	-127.027	47.185	0	1365.60	0	2.7170	0	34.4920	0	27.513	0	1349.815	0	19.2	4	5.9	4	-1E+10	1	-1E+10	1	-1E+10	1	-1E+10	1	-1E+10	1	-1E+10	1
4902663	35	C	07/15/2024	07:13	-127.027	47.185	0	1375.50	0	2.6930	0	34.4940	0	27.517	0	1359.569	0	19.8	4	6.1	4	-1E+10	1	-1E+10	1	-1E+10	1	-1E+10	1	-1E+10	1	-1E+10	1
4902663	35	C	07/15/2024	07:13	-127.027	47.185	0	1385.30	0	2.6750	0	34.4970	0	27.521	0	1369.223	0	20.2	4	6.2	4	-1E+10	1	-1E+10	1	-1E+10	1	-1E+10	1	-1E+10	1	-1E+10	1
4902663	35	C	07/15/2024	07:13	-127.027	47.185	0	1395.50	0	2.6540	0	34.4990	0	27.524	0	1379.272	0	20.8	4	6.4	4	-1E+10	1	-1E+10	1	-1E+10	1	-1E+10	1	-1E+10	1	-1E+10	1
4902663	35	C	07/15/2024	07:13	-127.027	47.185	0	1405.60	0	2.6340	0	34.5020	0	27.528	0	1389.221	0	21.2	4	6.5	4	-1E+10	1	-1E+10	1	-1E+10	1	-1E+10	1	-1E+10	1	-1E+10	1
4902663	35	C	07/15/2024	07:13	-127.027	47.185	0	1415.60	0	2.6150	0	34.5030	0	27.531	0	1399.071	0	21.9	4	6.7	4	-1E+10	1	-1E+10	1	-1E+10	1	-1E+10	1	-1E+10	1	-1E+10	1
4902663	35	C	07/15/2024	07:13	-127.027	47.185	0	1425.50	0	2.5970	0	34.5070	0	27.536	0	1408.823	0	22.7	4	6.9	4	-1E+10	1	-1E+10	1	-1E+10	1	-1E+10	1	-1E+10	1	-1E+10	1
4902663	35	C	07/15/2024	07:13	-127.027	47.185	0	1435.50	0	2.5750	0	34.5080	0	27.538	0	1418.672	0	23.2	4	7.1	4	-1E+10	1	-1E+10	1	-1E+10	1	-1E+10	1	-1E+10	1	-1E+10	1
4902663	35	C	07/15/2024	07:13	-127.027	47.185	0	1445.70	0	2.5580	0	34.5100	0	27.542	0	1428.718	0	23.7	4	7.2	4	-1E+10	1	-1E+10	1	-1E+10	1	-1E+10	1	-1E+10	1	-1E+10	1
4902663	35	C	07/15/2024	07:13	-127.027	47.185	0	1455.20	0	2.5370	0	34.5110	0	27.544	0	1438.074	0	24.2	4	7.4	4	-1E+10	1	-1E+10	1	-1E+10	1	-1E+10	1	-1E+10	1	-1E+10	1
4902663	35	C	07/15/2024	07:13	-127.027	47.185	0	1465.20	0	2.5070	0	34.5130	0	27.548	0	1447.922	0	24.8	4	7.6	4	-1E+10	1	-1E+10	1	-1E+10	1	-1E+10	1	-1E+10	1	-1E+10	1
4902663	35	C	07/15/2024	07:13	-127.027	47.185	0	1475.30	0	2.4800	0	34.5140	0	27.551	0	1457.868	0	25.3	4	7.7	4	-1E+10	1	-1E+10	1	-1E+10	1	-1E+10	1	-1E+10	1	-1E+10	1
4902663	35	C	07/15/2024	07:13	-127.027	47.185	0	1485.30	0	2.4590	0	34.5160	0	27.555	0	1467.716	0	25.8	4	7.9	4	-1E+10	1	-1E+10	1	-1E+10	1	-1E+10	1	-1E+10	1	-1E+10	1
4902663	35	C	07/15/2024	07:13	-127.027	47.185	0	1495.70	0	2.4430	0	34.5170	0	27.557	0	1477.956	0	26.2	4	8.0	4	-1E+10	1	-1E+10	1	-1E+10	1	-1E+10	1	-1E+10	1	-1E+10	1
4902663	35	C	07/15/2024	07:13	-127.027	47.185	0	1505.40	0	2.4310	0	34.5190	0	27.560	0	1487.507	0	26.9	4	8.2	4	-1E+10	1	-1E+10	1	-1E+10	1	-1E+10	1	-1E+10	1	-1E+10	1
4902663	35	C	07/15/2024	07:13	-127.027	47.185	0	1515.40	0	2.4140	0	34.5210	0	27.563	0	1497.353	0	27.4	4	8.3	4	-1E+10	1	-1E+10	1	-1E+10	1	-1E+10	1	-1E+10	1	-1E+10	1
4902663	35	C	07/15/2024	07:13	-127.027	47.185	0	1525.40	0	2.3960	0	34.5220	0	27.565	0	1507.198	0	28.0	4	8.5	4	-1E+10	1	-1E+10	1	-1E+10	1	-1E+10	1	-1E+10	1	-1E+10	1
4902663	35	C	07/15/2024	07:13	-127.027	47.185	0	1535.30	0	2.3770	0	34.5250	0	27.569	0	1516.944	0	28.7	4	8.7	4	-1E+10	1	-1E+10	1	-1E+10	1	-1E+10	1	-1E+10	1	-1E+10	1
4902663	35	C	07/15/2024	07:13	-127.027	47.185	0	1545.20	0	2.3590	0	34.5270	0	27.572	0	1526.690	0	29.2	4	8.9	4	-1E+10	1	-1E+10	1	-1E+10	1	-1E+10	1	-1E+10	1	-1E+10	1
4902663	35	C	07/15/2024	07:13	-127.027	47.185	0	1555.20	0	2.3540	0	34.5290	0	27.574	0	1536.534	0	29.8	4	9.0	4	-1E+10	1	-1E+10	1	-1E+10	1	-1E+10	1	-1E+10	1	-1E+10	1
4902663	35	C	07/15/2024	07:13	-127.027	47.185	0	1565.50	0	2.3420	0	34.5310	0	27.577	0	1546.673	0	30.4	4	9.2	4	-1E+10	1	-1E+10	1	-1E+10	1	-1E+10	1	-1E+10	1	-1E+10	1
4902663	35	C	07/15/2024	07:13	-127.027	47.185	0	1575.40	0	2.3190	0	34.5330	0	27.580	0	1556.417	0	30.9	4	9.4	4	-1E+10	1	-1E+10	1	-1E+10	1	-1E+10	1	-1E+10	1	-1E+10	1
4902663	35	C	07/15/2024	07:13	-127.027	47.185	0	1585.40	0	2.3000	0	34.5330	0	27.582	0	1566.260	0	31.4	4	9.5	4	-1E+10	1	-1E+10	1	-1E+10	1	-1E+10	1	-1E+10	1	-1E+10	1
4902663	35	C	07/15/2024	07:13	-127.027	47.185	0	1595.50	0	2.2870	0	34.5350	0	27.585	0	1576.200	0	31.8	4	9.7	4	-1E+10	1	-1E+10	1	-1E+10	1	-1E+10	1	-1E+10	1	-1E+10	1
4902663	35	C	07/15/2024	07:13	-127.027	47.185	0	1605.20	0	2.2800	0	34.5350	0	27.585	0	1585.747	0	32.2	4	9.8	4	-1E+10	1	-1E+10	1	-1E+10	1	-1E+10	1	-1E+10	1	-1E+10	1
4902663	35	C	07/15/2024	07:13	-127.027	47.185	0	1615.00	0	2.2720	0	34.5370	0	27.588	0	1595.391	0	32.7	4	9.9	4	-1E+10	1	-1E+10	1	-1E+10	1	-1E+10	1	-1E+10	1	-1E+10	1
4902663	35	C	07/15/2024	07:13	-127.027	47.185	0	1625.00	0	2.2570	0	34.5380	0	27.590	0	1605.232	0	33.3	4	10.1	4	-1E+10	1	-1E+10	1	-1E+10	1	-1E+10	1	-1E+10	1	-1E+10	1
4902663	35	C	07/15/2024	07:13	-127.027	47.185	0	1635.40	0	2.2480	0	34.5400	0	27.592	0	1615.466	0	33.9	4	10.3	4	-1E+10	1	-1E+10	1	-1E+10	1	-1E+10	1	-1E+10	1	-1E+10	1
4902663	35	C	07/15/2024	07:13	-127.027	47.185	0	1645.80	0	2.2370	0	34.5430	0	27.595	0	1625.699	0	34.6	4	10.5	4	-1E+10	1	-1E+10	1	-1E+10	1	-1E+10	1	-1E+10	1	-1E+10	1
4902663	35	C	07/15/2024	07:13	-127.027	47.185	0	1655.60	0	2.2270	0	34.5440	0	27.597	0	1635.341	0	35.5	4	10.8	4	-1E+10	1	-1E+10	1	-1E+10	1	-1E+10	1	-1E+10	1	-1E+10	1
4902663	35	C	07/15/2024	07:13	-127.027	47.185	0	1665.30	0	2.2040	0	34.5480	0	27.602	0	1644.885	0	36.1	4	10.9	4	-1E+10	1	-1E+10	1	-1E+10	1	-1E+10	1	-1E+10	1	-1E+10	1
4902663	35	C	07/15/2024	07:13	-127.027	47.185	0	1675.50	0	2.2010	0	34.5480	0	27.603	0	1654.920	0	36.5	4	11.0	4	-1E+10	1	-1E+10	1	-1E+10	1	-1E+10	1	-1E+10	1	-1E+10	1
4902663	35	C	07/15/2024	07:13	-127.027	47.185	0	1685.60	0	2.1900	0	34.5500	0	27.605	0	1664.857	0	37.1	4	11.2	4	-1E+10	1	-1E+10	1	-1E+10	1	-1E+10	1	-1E+10	1	-1E+10	1
4902663	35	C	07/15/2024	07:13	-127.027	47.185	0	1695.20	0	2.1830	0	34.5510	0	27.606	0	1674.301	0	37.4	4	11.3	4	-1E+10	1	-1E+10	1	-1E+10	1	-1E+10	1	-1E+10	1	-1E+10	1
4902663	35	C	07/15/2024	07:13	-127.027	47.185	0	1705.40	0	2.1760	0	34.5520	0	27.608	0	1684.334	0	38.1	4	11.5	4	-1E+10	1	-1E+10	1	-1E+10	1	-1E+10	1	-1E+10	1	-1E+10	1
4902663	35	C	07/15/2024	07:13	-127.027	47.185	0	1715.80	0	2.1640	0	34.5550	0	27.611	0	1694.564	0	38.9	4	11.8	4	-1E+10	1	-1E+10	1	-1E+10	1	-1E+10	1	-1E+10	1	-1E+10	1
4902663	35	C	07/15/2024	07:13	-127.027	47.185	0	1725.60	0	2.1510	0	34.5570	0	27.614	0	1704.204	0	39.6	4	12.0	4	-1E+10	1	-1E+10	1	-1E+10	1	-1E+10	1	-1E+10	1	-1E+10	1
4902663	35	C	07/15/2024	07:13	-127.027	47.185	0	1735.30	0	2.1400	0	34.5590	0	27.617	0	1713.744	0	40.2	4	12.2	4	-1E+10	1	-1E+10	1	-1E+10	1	-1E+10	1	-1E+10	1	-1E+10	1
4902663	35	C	07/15/2024	07:13	-127.027	47.185	0	1745.30	0	2.1360	0	34.5610	0	27.619	0	1723.580	0	40.8	4	12.3	4	-1E+10	1	-1E+10	1	-1E+10	1	-1E+10	1	-1E+10	1	-1E+10	1
4902663	35	C	07/15/2024	07:13	-127.027	47.185	0	1755.30	0	2.1280	0	34.5630	0	27.621	0	1733.414	0	41.5	4	12.5	4	-1E+10	1	-1E+10	1	-1E+10	1	-1E+10	1	-1E+10	1	-1E+10	1
4902663	35	C	07/15/2024	07:13	-127.027	47.185	0	1765.40	0	2.1160	0	34.5650	0	27.623	0	1743.347	0	42.2	4	12.8	4	-1E+10	1	-1E+10	1	-1E+10	1	-1E+10	1	-1E+10	1	-1E+10	1
4902663	35	C	07/15/2024	07:13	-127.027	47.185	0	1775.60	0	2.1020	0	34.5660	0	27.625	0	1753.377	0	43.0	4	13.0	4	-1E+10	1	-1E+10	1	-1E+10	1	-1E+10	1	-1E+10	1	-1E+10	1
4902663	35	C	07/15/2024	07:13	-127.027	47.185	0	1785.40	0	2.0890	0	34.5680	0	27.628	0	1763.014	0	43.6	4	13.2	4	-1E+10	1	-1E+10	1	-1E+10	1	-1E+10	1	-1E+10	1	-1E+10	1
4902663	35	C	07/15/2024	07:13	-127.027	47.185	0	1795.40	0	2.0820	0	34.5690	0	27.629	0	1772.847	0	44.1	4	13.3	4	-1E+10	1	-1E+10	1	-1E+10	1	-1E+10	1	-1E+10	1	-1E+10	1
4902663	35	C	07/15/2024	07:13	-127.027	47.185	0	1805.40	0	2.0710	0	34.5710	0	27.632	0	1782.679	0	44.8	4	13.5	4	-1E+10	1	-1E+10	1	-1E+10	1	-1E+10	1	-1E+10	1	-1E+10	1
4902663	35	C	07/15/2024	07:13	-127.027	47.185	0	1815.60	0	2.0560	0	34.5720	0	27.634	0	1792.708	0	45.5	4	13.7	4	-1E+10	1	-1E+10	1	-1E+10	1	-1E+10	1	-1E+10	1	-1E+10	1
4902663	35	C	07/15/2024	07:13	-127.027	47.185	0	1825.90	0	2.0470	0	34.5740	0	27.636	0	1802.834	0	46.1	4	13.9	4	-1E+10	1	-1E+10	1	-1E+10	1	-1E+10	1	-1E+10	1	-1E+10	1
4902663	35	C	07/15/2024	07:13	-127.027	47.185	0	1835.40	0	2.0400	0	34.5750	0	27.638	0	1812.174	0	46.7	4	14.1	4	-1E+10	1	-1E+10	1	-1E+10	1	-1E+10	1	-1E+10	1	-1E+10	1
4902663	35	C	07/15/2024	07:13	-127.027	47.185	0	1845.20	0	2.0320	0	34.5760	0	27.639	0	1821.808	0	47.2	4	14.2	4	-1E+10	1	-1E+10	1	-1E+10	1	-1E+10	1	-1E+10	1	-1E+10	1
4902663	35	C	07/15/2024	07:13	-127.027	47.185	0	1855.10	0	2.0280	0	34.5780	0	27.641	0	1831.540	0	47.8	4	14.4	4	-1E+10	1	-1E+10	1	-1E+10	1	-1E+10	1	-1E+10	1	-1E+10	1
4902663	35	C	07/15/2024	07:13	-127.027	47.185	0	1865.10	0	2.0170	0	34.5790	0	27.643	0	1841.370	0	48.3	4	14.6	4	-1E+10	1	-1E+10	1	-1E+10	1	-1E+10	1	-1E+10	1	-1E+10	1
4902663	35	C	07/15/2024	07:13	-127.027	47.185	0	1875.10	0	2.0080	0	34.5810	0	27.645	0	1851.199	0	48.8	4	14.7	4	-1E+10	1	-1E+10	1	-1E+10	1	-1E+10	1	-1E+10	1	-1E+10	1
4902663	35	C	07/15/2024	07:13	-127.027	47.185	0	1885.20	0	1.9990	0	34.5820	0	27.647	0	1861.126	0	49.6	4	15.0	4	-1E+10	1	-1E+10	1	-1E+10	1	-1E+10	1	-1E+10	1	-1E+10	1
4902663	35	C	07/15/2024	07:13	-127.027	47.185	0	1895.40	0	1.9850	0	34.5840	0	27.650	0	1871.151	0	50.5	4	15.2	4	-1E+10	1	-1E+10	1	-1E+10	1	-1E+10	1	-1E+10	1	-1E+10	1
4902663	35	C	07/15/2024	07:13	-127.027	47.185	0	1905.40	0	1.9760	0	34.5860	0	27.652	0	1880.979	0	51.2	4	15.4	4	-1E+10	1	-1E+10	1	-1E+10	1	-1E+10	1	-1E+10	1	-1E+10	1
4902663	35	C	07/15/2024	07:13	-127.027	47.185	0	1915.60	0	1.9650	0	34.5870	0	27.654	0	1891.003	0	52.0	4	15.7	4	-1E+10	1	-1E+10	1	-1E+10	1	-1E+10	1	-1E+10	1	-1E+10	1
4902663	35	C	07/15/2024	07:13	-127.027	47.185	0	1925.70	0	1.9550	0	34.5890	0	27.656	0	1900.928	0	52.6	4	15.9	4	-1E+10	1	-1E+10	1	-1E+10	1	-1E+10	1	-1E+10	1	-1E+10	1
4902663	35	C	07/15/2024	07:13	-127.027	47.185	0	1935.60	0	1.9470	0	34.5910	0	27.658	0	1910.656	0	53.2	4	16.0	4	-1E+10	1	-1E+10	1	-1E+10	1	-1E+10	1	-1E+10	1	-1E+10	1
4902663	35	C	07/15/2024	07:13	-127.027	47.185	0	1945.40	0	1.9390	0	34.5920	0	27.660	0	1920.286	0	53.7	4	16.2	4	-1E+10	1	-1E+10	1	-1E+10	1	-1E+10	1	-1E+10	1	-1E+10	1
4902663	35	C	07/15/2024	07:13	-127.027	47.185	0	1955.30	0	1.9330	0	34.5930	0	27.661	0	1930.013	0	54.1	4	16.3	4	-1E+10	1	-1E+10	1	-1E+10	1	-1E+10	1	-1E+10	1	-1E+10	1
4902663	35	C	07/15/2024	07:13	-127.027	47.185	0	1965.40	0	1.9270	0	34.5940	0	27.662	0	1939.937	0	54.6	4	16.4	4	-1E+10	1	-1E+10	1	-1E+10	1	-1E+10	1	-1E+10	1	-1E+10	1
4902663	35	C	07/15/2024	07:13	-127.027	47.185	0	1975.50	0	1.9210	0	34.5950	0	27.664	0	1949.859	0	55.2	4	16.6	4	-1E+10	1	-1E+10	1	-1E+10	1	-1E+10	1	-1E+10	1	-1E+10	1
4902663	35	C	07/15/2024	07:13	-127.027	47.185	0	1985.60	0	1.9120	0	34.5970	0	27.666	0	1959.782	0	55.7	4	16.7	4	-1E+10	1	-1E+10	1	-1E+10	1	-1E+10	1	-1E+10	1	-1E+10	1
4902663	35	C	07/15/2024	07:13	-127.027	47.185	0	1996.10	0	1.9040	0	34.5990	0	27.668	0	1970.097	0	55.7	4	16.7	4	-1E+10	1	-1E+10	1	-1E+10	1	-1E+10	1	-1E+10	1	-1E+10	1
4902663	35	C	07/15/2024	07:13	-127.027	47.185	0	2000.90	0	1.9020	0	34.6000	0	27.669	0	1974.812	0	55.2	4	16.6	4	-1E+10	1	-1E+10	1	-1E+10	1	-1E+10	1	-1E+10	1	-1E+10	1
4902663	35	C	07/15/2024	07:13	-127.027	47.185	0																										
4902663	36	C	07/25/2024	02:14	-126.920	47.228	0	0.10	0	17.0810	0	31.9590	0	23.164	0	0.099	0	240.5	4	98.9	4	-1E+10	1	-1E+10	1	-1E+10	1	-1E+10	1	-1E+10	1	-1E+10	1
4902663	36	C	07/25/2024	02:14	-126.920	47.228	0	0.20	0	17.0780	0	31.9560	0	23.162	0	0.198	0	-1e10	1	-1e10	1	-1E+10	1	-1E+10	1	-1E+10	1	-1E+10	1	-1E+10	1	-1E+10	1
4902663	36	C	07/25/2024	02:14	-126.920	47.228	0	0.30	0	17.0840	0	31.8640	0	23.090	0	0.298	0	235.0	4	96.6	4	-1E+10	1	-1E+10	1	-1E+10	1	-1E+10	1	-1E+10	1	-1E+10	1
4902663	36	C	07/25/2024	02:14	-126.920	47.228	0	1.00	0	17.0870	0	31.9640	0	23.166	0	0.992	0	234.8	4	96.6	4	-1E+10	1	-1E+10	1	-1E+10	1	-1E+10	1	-1E+10	1	-1E+10	1
4902663	36	C	07/25/2024	02:14	-126.920	47.228	0	2.00	0	17.0860	0	31.9650	0	23.167	0	1.983	0	234.8	4	96.6	4	-1E+10	1	-1E+10	1	-1E+10	1	-1E+10	1	-1E+10	1	-1E+10	1
4902663	36	C	07/25/2024	02:14	-126.920	47.228	0	3.10	0	17.0880	0	31.9630	0	23.165	0	3.074	0	234.8	4	96.6	4	-1E+10	1	-1E+10	1	-1E+10	1	-1E+10	1	-1E+10	1	-1E+10	1
4902663	36	C	07/25/2024	02:14	-126.920	47.228	0	3.90	0	17.0870	0	31.9680	0	23.169	0	3.868	0	234.8	4	96.6	4	-1E+10	1	-1E+10	1	-1E+10	1	-1E+10	1	-1E+10	1	-1E+10	1
4902663	36	C	07/25/2024	02:14	-126.920	47.228	0	5.10	0	17.0870	0	31.9790	0	23.178	0	5.058	0	234.8	4	96.7	4	-1E+10	1	-1E+10	1	-1E+10	1	-1E+10	1	-1E+10	1	-1E+10	1
4902663	36	C	07/25/2024	02:14	-126.920	47.228	0	6.10	0	17.0820	0	31.9780	0	23.178	0	6.049	0	234.9	4	96.7	4	-1E+10	1	-1E+10	1	-1E+10	1	-1E+10	1	-1E+10	1	-1E+10	1
4902663	36	C	07/25/2024	02:14	-126.920	47.228	0	6.80	0	17.0820	0	31.9790	0	23.179	0	6.743	0	235.0	4	96.7	4	-1E+10	1	-1E+10	1	-1E+10	1	-1E+10	1	-1E+10	1	-1E+10	1
4902663	36	C	07/25/2024	02:14	-126.920	47.228	0	7.60	0	17.0880	0	31.9750	0	23.175	0	7.537	0	235.1	4	96.8	4	-1E+10	1	-1E+10	1	-1E+10	1	-1E+10	1	-1E+10	1	-1E+10	1
4902663	36	C	07/25/2024	02:14	-126.920	47.228	0	8.90	0	17.0690	0	31.9710	0	23.176	0	8.826	0	235.4	4	96.9	4	-1E+10	1	-1E+10	1	-1E+10	1	-1E+10	1	-1E+10	1	-1E+10	1
4902663	36	C	07/25/2024	02:14	-126.920	47.228	0	10.20	0	16.9970	0	31.9750	0	23.196	0	10.115	0	236.2	4	97.1	4	-1E+10	1	-1E+10	1	-1E+10	1	-1E+10	1	-1E+10	1	-1E+10	1
4902663	36	C	07/25/2024	02:14	-126.920	47.228	0	11.10	0	16.8560	0	31.9650	0	23.221	0	11.007	0	237.1	4	97.2	4	-1E+10	1	-1E+10	1	-1E+10	1	-1E+10	1	-1E+10	1	-1E+10	1
4902663	36	C	07/25/2024	02:14	-126.920	47.228	0	12.10	0	16.8170	0	31.9600	0	23.226	0	11.999	0	238.4	4	97.6	4	-1E+10	1	-1E+10	1	-1E+10	1	-1E+10	1	-1E+10	1	-1E+10	1
4902663	36	C	07/25/2024	02:14	-126.920	47.228	0	13.10	0	16.7430	0	31.9610	0	23.244	0	12.991	0	239.7	4	98.0	4	-1E+10	1	-1E+10	1	-1E+10	1	-1E+10	1	-1E+10	1	-1E+10	1
4902663	36	C	07/25/2024	02:14	-126.920	47.228	0	14.10	0	15.7040	0	31.9150	0	23.443	0	13.982	0	242.7	4	97.2	4	-1E+10	1	-1E+10	1	-1E+10	1	-1E+10	1	-1E+10	1	-1E+10	1
4902663	36	C	07/25/2024	02:14	-126.920	47.228	0	15.20	0	15.5400	0	31.8750	0	23.448	0	15.073	0	243.5	4	97.2	4	-1E+10	1	-1E+10	1	-1E+10	1	-1E+10	1	-1E+10	1	-1E+10	1
4902663	36	C	07/25/2024	02:14	-126.920	47.228	0	16.30	0	15.5140	0	31.8750	0	23.454	0	16.164	0	243.9	4	97.3	4	-1E+10	1	-1E+10	1	-1E+10	1	-1E+10	1	-1E+10	1	-1E+10	1
4902663	36	C	07/25/2024	02:14	-126.920	47.228	0	17.40	0	15.4330	0	31.8790	0	23.475	0	17.254	0	244.2	4	97.3	4	-1E+10	1	-1E+10	1	-1E+10	1	-1E+10	1	-1E+10	1	-1E+10	1
4902663	36	C	07/25/2024	02:14	-126.920	47.228	0	18.50	0	15.3870	0	31.8750	0	23.482	0	18.345	0	244.5	4	97.3	4	-1E+10	1	-1E+10	1	-1E+10	1	-1E+10	1	-1E+10	1	-1E+10	1
4902663	36	C	07/25/2024	02:14	-126.920	47.228	0	19.60	0	15.3670	0	31.8750	0	23.486	0	19.436	0	244.8	4	97.4	4	-1E+10	1	-1E+10	1	-1E+10	1	-1E+10	1	-1E+10	1	-1E+10	1
4902663	36	C	07/25/2024	02:14	-126.920	47.228	0	20.70	0	15.3450	0	31.8740	0	23.490	0	20.527	0	245.4	4	97.6	4	-1E+10	1	-1E+10	1	-1E+10	1	-1E+10	1	-1E+10	1	-1E+10	1
4902663	36	C	07/25/2024	02:14	-126.920	47.228	0	21.80	0	15.3250	0	31.8760	0	23.496	0	21.617	0	246.2	4	97.8	4	-1E+10	1	-1E+10	1	-1E+10	1	-1E+10	1	-1E+10	1	-1E+10	1
4902663	36	C	07/25/2024	02:14	-126.920	47.228	0	22.90	0	15.2940	0	31.8750	0	23.502	0	22.708	0	246.8	4	98.0	4	-1E+10	1	-1E+10	1	-1E+10	1	-1E+10	1	-1E+10	1	-1E+10	1
4902663	36	C	07/25/2024	02:14	-126.920	47.228	0	24.00	0	15.2640	0	31.8740	0	23.508	0	23.799	0	247.7	4	98.3	4	-1E+10	1	-1E+10	1	-1E+10	1	-1E+10	1	-1E+10	1	-1E+10	1
4902663	36	C	07/25/2024	02:14	-126.920	47.228	0	25.00	0	15.2460	0	31.8740	0	23.512	0	24.790	0	248.7	4	98.7	4	-1E+10	1	-1E+10	1	-1E+10	1	-1E+10	1	-1E+10	1	-1E+10	1
4902663	36	C	07/25/2024	02:14	-126.920	47.228	0	26.00	0	15.2330	0	31.8730	0	23.514	0	25.782	0	249.7	4	99.1	4	-1E+10	1	-1E+10	1	-1E+10	1	-1E+10	1	-1E+10	1	-1E+10	1
4902663	36	C	07/25/2024	02:14	-126.920	47.228	0	26.90	0	15.2230	0	31.8700	0	23.514	0	26.674	0	251.4	4	99.7	4	-1E+10	1	-1E+10	1	-1E+10	1	-1E+10	1	-1E+10	1	-1E+10	1
4902663	36	C	07/25/2024	02:14	-126.920	47.228	0	27.90	0	15.1960	0	31.8630	0	23.514	0	27.666	0	254.2	4	100.8	4	-1E+10	1	-1E+10	1	-1E+10	1	-1E+10	1	-1E+10	1	-1E+10	1
4902663	36	C	07/25/2024	02:14	-126.920	47.228	0	28.90	0	15.1220	0	31.8590	0	23.527	0	28.658	0	257.3	4	101.9	4	-1E+10	1	-1E+10	1	-1E+10	1	-1E+10	1	-1E+10	1	-1E+10	1
4902663	36	C	07/25/2024	02:14	-126.920	47.228	0	29.90	0	14.6100	0	31.9120	0	23.677	0	29.649	0	260.2	4	102.0	4	-1E+10	1	-1E+10	1	-1E+10	1	-1E+10	1	-1E+10	1	-1E+10	1
4902663	36	C	07/25/2024	02:14	-126.920	47.228	0	31.00	0	14.1980	0	31.9210	0	23.770	0	30.740	0	263.6	4	102.5	4	-1E+10	1	-1E+10	1	-1E+10	1	-1E+10	1	-1E+10	1	-1E+10	1
4902663	36	C	07/25/2024	02:14	-126.920	47.228	0	31.70	0	13.9490	0	31.9680	0	23.857	0	31.434	0	265.9	4	102.9	4	-1E+10	1	-1E+10	1	-1E+10	1	-1E+10	1	-1E+10	1	-1E+10	1
4902663	36	C	07/25/2024	02:14	-126.920	47.228	0	32.80	0	13.5250	0	31.9970	0	23.965	0	32.524	0	269.7	4	103.5	4	-1E+10	1	-1E+10	1	-1E+10	1	-1E+10	1	-1E+10	1	-1E+10	1
4902663	36	C	07/25/2024	02:14	-126.920	47.228	0	34.10	0	13.0150	0	32.0300	0	24.092	0	33.813	0	273.2	4	103.8	4	-1E+10	1	-1E+10	1	-1E+10	1	-1E+10	1	-1E+10	1	-1E+10	1
4902663	36	C	07/25/2024	02:14	-126.920	47.228	0	34.90	0	12.9780	0	32.0210	0	24.092	0	34.607	0	274.0	4	104.0	4	-1E+10	1	-1E+10	1	-1E+10	1	-1E+10	1	-1E+10	1	-1E+10	1
4902663	36	C	07/25/2024	02:14	-126.920	47.228	0	35.70	0	12.9530	0	32.0250	0	24.100	0	35.400	0	275.1	4	104.4	4	-1E+10	1	-1E+10	1	-1E+10	1	-1E+10	1	-1E+10	1	-1E+10	1
4902663	36	C	07/25/2024	02:14	-126.920	47.228	0	36.90	0	12.8780	0	32.0340	0	24.121	0	36.590	0	277.1	4	105.0	4	-1E+10	1	-1E+10	1	-1E+10	1	-1E+10	1	-1E+10	1	-1E+10	1
4902663	36	C	07/25/2024	02:14	-126.920	47.228	0	38.10	0	12.6310	0	32.0920	0	24.214	0	37.779	0	279.3	4	105.3	4	-1E+10	1	-1E+10	1	-1E+10	1	-1E+10	1	-1E+10	1	-1E+10	1
4902663	36	C	07/25/2024	02:14	-126.920	47.228	0	38.90	0	12.4640	0	32.1620	0	24.300	0	38.573	0	280.2	4	105.3	4	-1E+10	1	-1E+10	1	-1E+10	1	-1E+10	1	-1E+10	1	-1E+10	1
4902663	36	C	07/25/2024	02:14	-126.920	47.228	0	39.80	0	12.3440	0	32.1590	0	24.320	0	39.465	0	280.8	4	105.3	4	-1E+10	1	-1E+10	1	-1E+10	1	-1E+10	1	-1E+10	1	-1E+10	1
4902663	36	C	07/25/2024	02:14	-126.920	47.228	0	40.60	0	12.2140	0	32.1620	0	24.347	0	40.258	0	281.2	4	105.2	4	-1E+10	1	-1E+10	1	-1E+10	1	-1E+10	1	-1E+10	1	-1E+10	1
4902663	36	C	07/25/2024	02:14	-126.920	47.228	0	41.90	0	12.0020	0	32.1590	0	24.385	0	41.547	0	281.7	4	104.9	4	-1E+10	1	-1E+10	1	-1E+10	1	-1E+10	1	-1E+10	1	-1E+10	1
4902663	36	C	07/25/2024	02:14	-126.920	47.228	0	43.30	0	11.8710	0	32.1660	0	24.414	0	42.935	0	282.1	4	104.8	4	-1E+10	1	-1E+10	1	-1E+10	1	-1E+10	1	-1E+10	1	-1E+10	1
4902663	36	C	07/25/2024	02:14	-126.920	47.228	0	44.20	0	11.8000	0	32.1700	0	24.430	0	43.828	0	282.3	4	104.7	4	-1E+10	1	-1E+10	1	-1E+10	1	-1E+10	1	-1E+10	1	-1E+10	1
4902663	36	C	07/25/2024	02:14	-126.920	47.228	0	44.80	0	11.7390	0	32.1730	0	24.444	0	44.422	0	281.8	4	104.3	4	-1E+10	1	-1E+10	1	-1E+10	1	-1E+10	1	-1E+10	1	-1E+10	1
4902663	36	C	07/25/2024	02:14	-126.920	47.228	0	46.10	0	11.5200	0	32.1750	0	24.485	0	45.711	0	281.6	4	103.8	4	-1E+10	1	-1E+10	1	-1E+10	1	-1E+10	1	-1E+10	1	-1E+10	1
4902663	36	C	07/25/2024	02:14	-126.920	47.228	0	47.00	0	11.3120	0	32.1830	0	24.529	0	46.604	0	280.5	4	102.9	4	-1E+10	1	-1E+10	1	-1E+10	1	-1E+10	1	-1E+10	1	-1E+10	1
4902663	36	C	07/25/2024	02:14	-126.920	47.228	0	48.00	0	11.1300	0	32.1800	0	24.559	0	47.595	0	277.7	4	101.5	4	-1E+10	1	-1E+10	1	-1E+10	1	-1E+10	1	-1E+10	1	-1E+10	1
4902663	36	C	07/25/2024	02:14	-126.920	47.228	0	49.00	0	10.8060	0	32.1730	0	24.610	0	48.586	0	275.4	4	100.0	4	-1E+10	1	-1E+10	1	-1E+10	1	-1E+10	1	-1E+10	1	-1E+10	1
4902663	36	C	07/25/2024	02:14	-126.920	47.228	0	50.00	0	10.6650	0	32.2080	0	24.662	0	49.578	0	271.7	4	98.4	4	-1E+10	1	-1E+10	1	-1E+10	1	-1E+10	1	-1E+10	1	-1E+10	1
4902663	36	C	07/25/2024	02:14	-126.920	47.228	0	51.20	0	10.4630	0	32.2550	0	24.733	0	50.768	0	269.2	4	97.1	4	-1E+10	1	-1E+10	1	-1E+10	1	-1E+10	1	-1E+10	1	-1E+10	1
4902663	36	C	07/25/2024	02:14	-126.920	47.228	0	52.00	0	10.4010	0	32.2670	0	24.753	0	51.561	0	267.9	4	96.5	4	-1E+10	1	-1E+10	1	-1E+10	1	-1E+10	1	-1E+10	1	-1E+10	1
4902663	36	C	07/25/2024	02:14	-126.920	47.228	0	52.80	0	10.3520	0	32.2660	0	24.760	0	52.354	0	266.4	4	95.9	4	-1E+10	1	-1E+10	1	-1E+10	1	-1E+10	1	-1E+10	1	-1E+10	1
4902663	36	C	07/25/2024	02:14	-126.920	47.228	0	53.70	0	10.2640	0	32.2720	0	24.780	0	53.246	0	264.9	4	95.2	4	-1E+10	1	-1E+10	1	-1E+10	1	-1E+10	1	-1E+10	1	-1E+10	1
4902663	36	C	07/25/2024	02:14	-126.920	47.228	0	54.90	0	10.1690	0	32.2770	0	24.800	0	54.436	0	263.0	4	94.3	4	-1E+10	1	-1E+10	1	-1E+10	1	-1E+10	1	-1E+10	1	-1E+10	1
4902663	36	C	07/25/2024	02:14	-126.920	47.228	0	56.20	0	10.0640	0	32.2890	0	24.827	0	55.725	0	261.0	4	93.3	4	-1E+10	1	-1E+10	1	-1E+10	1	-1E+10	1	-1E+10	1	-1E+10	1
4902663	36	C	07/25/2024	02:14	-126.920	47.228	0	57.20	0	10.0080	0	32.2880	0	24.835	0	56.716	0	259.9	4	92.8	4	-1E+10	1	-1E+10	1	-1E+10	1	-1E+10	1	-1E+10	1	-1E+10	1
4902663	36	C	07/25/2024	02:14	-126.920	47.228	0	58.10	0	9.9940	0	32.2900	0	24.839	0	57.608	0	258.5	4	92.3	4	-1E+10	1	-1E+10	1	-1E+10	1	-1E+10	1	-1E+10	1	-1E+10	1
4902663	36	C	07/25/2024	02:14	-126.920	47.228	0	59.00	0	9.9010	0	32.2950	0	24.858	0	58.501	0	257.7	4	91.8	4	-1E+10	1	-1E+10	1	-1E+10	1	-1E+10	1	-1E+10	1	-1E+10	1
4902663	36	C	07/25/2024	02:14	-126.920	47.228	0	59.90	0	9.8290	0	32.2970	0	24.872	0	59.393	0	256.8	4	91.4	4	-1E+10	1	-1E+10	1	-1E+10	1	-1E+10	1	-1E+10	1	-1E+10	1
4902663	36	C	07/25/2024	02:14	-126.920	47.228	0	60.90	0	9.8160	0	32.2980	0	24.874	0	60.384	0	256.1	4	91.1	4	-1E+10	1	-1E+10	1	-1E+10	1	-1E+10	1	-1E+10	1	-1E+10	1
4902663	36	C	07/25/2024	02:14	-126.920	47.228	0	61.80	0	9.7990	0	32.3000	0	24.879	0	61.277	0	255.2	4	90.7	4	-1E+10	1	-1E+10	1	-1E+10	1	-1E+10	1	-1E+10	1	-1E+10	1
4902663	36	C	07/25/2024	02:14	-126.920	47.228	0	62.70	0	9.7920	0	32.3030	0	24.882	0	62.169	0	254.2	4	90.4	4	-1E+10	1	-1E+10	1	-1E+10	1	-1E+10	1	-1E+10	1	-1E+10	1
4902663	36	C	07/25/2024	02:14	-126.920	47.228	0	63.60	0	9.7720	0	32.3050	0	24.887	0	63.061	0	253.2	4	90.0	4	-1E+10	1	-1E+10	1	-1E+10	1	-1E+10	1	-1E+10	1	-1E+10	1
4902663	36	C	07/25/2024	02:14	-126.920	47.228	0	64.90	0	9.7510	0	32.3060	0	24.891	0	64.350	0	251.4	4	89.3	4	-1E+10	1	-1E+10	1	-1E+10	1	-1E+10	1	-1E+10	1	-1E+10	1
4902663	36	C	07/25/2024	02:14	-126.920	47.228	0	66.30	0	9.7360	0	32.3060	0	24.894	0	65.738	0	249.5	4	88.6	4	-1E+10	1	-1E+10	1	-1E+10	1	-1E+10	1	-1E+10	1	-1E+10	1
4902663	36	C	07/25/2024	02:14	-126.920	47.228	0	67.10	0	9.7210	0	32.3080	0	24.898	0	66.531	0	248.1	4	88.1	4	-1E+10	1	-1E+10	1	-1E+10	1	-1E+10	1	-1E+10	1	-1E+10	1
4902663	36	C	07/25/2024	02:14	-126.920	47.228	0	68.00	0	9.6880	0	32.3090	0	24.904	0	67.423	0	246.8	4	87.6	4	-1E+10	1	-1E+10	1	-1E+10	1	-1E+10	1	-1E+10	1	-1E+10	1
4902663	36	C	07/25/2024	02:14	-126.920	47.228	0	68.80	0	9.6360	0	32.3180	0	24.919	0	68.216	0	245.2	4	86.9	4	-1E+10	1	-1E+10	1	-1E+10	1	-1E+10	1	-1E+10	1	-1E+10	1
4902663	36	C	07/25/2024	02:14	-126.920	47.228	0	69.70	0	9.5850	0	32.3220	0	24.931	0	69.108	0	243.5	4	86.2	4	-1E+10	1	-1E+10	1	-1E+10	1	-1E+10	1	-1E+10	1	-1E+10	1
4902663	36	C	07/25/2024	02:14	-126.920	47.228	0	70.90	0	9.5000	0	32.3320	0	24.952	0	70.298	0	240.9	4	85.1	4	-1E+10	1	-1E+10	1	-1E+10	1	-1E+10	1	-1E+10	1	-1E+10	1
4902663	36	C	07/25/2024	02:14	-126.920	47.228	0	72.20	0	9.4150	0	32.3430	0	24.974	0	71.587	0	238.3	4	84.1	4	-1E+10	1	-1E+10	1	-1E+10	1	-1E+10	1	-1E+10	1	-1E+10	1
4902663	36	C	07/25/2024	02:14	-126.920	47.228	0	73.00	0	9.3860	0	32.3380	0	24.975	0	72.380	0	235.9	4	83.2	4	-1E+10	1	-1E+10	1	-1E+10	1	-1E+10	1	-1E+10	1	-1E+10	1
4902663	36	C	07/25/2024	02:14	-126.920	47.228	0	73.80	0	9.3100	0	32.3470	0	24.994	0	73.173	0	233.1	4	82.0	4	-1E+10	1	-1E+10	1	-1E+10	1	-1E+10	1	-1E+10	1	-1E+10	1
4902663	36	C	07/25/2024	02:14	-126.920	47.228	0	74.60	0	9.1360	0	32.3690	0	25.039	0	73.966	0	230.6	4	80.9	4	-1E+10	1	-1E+10	1	-1E+10	1	-1E+10	1	-1E+10	1	-1E+10	1
4902663	36	C	07/25/2024	02:14	-126.920	47.228	0	75.90	0	9.0170	0	32.3860	0	25.071	0	75.255	0	227.3	4	79.5	4	-1E+10	1	-1E+10	1	-1E+10	1	-1E+10	1	-1E+10	1	-1E+10	1
4902663	36	C	07/25/2024	02:14	-126.920	47.228	0	77.20	0	8.9070	0	32.4190	0	25.114	0	76.543	0	224.1	4	78.2	4	-1E+10	1	-1E+10	1	-1E+10	1	-1E+10	1	-1E+10	1	-1E+10	1
4902663	36	C	07/25/2024	02:14	-126.920	47.228	0	78.00	0	8.8890	0	32.4510	0	25.141	0	77.336	0	221.6	4	77.3	4	-1E+10	1	-1E+10	1	-1E+10	1	-1E+10	1	-1E+10	1	-1E+10	1
4902663	36	C	07/25/2024	02:14	-126.920	47.228	0	78.90	0	8.9070	0	32.4680	0	25.152	0	78.229	0	219.6	4	76.7	4	-1E+10	1	-1E+10	1	-1E+10	1	-1E+10	1	-1E+10	1	-1E+10	1
4902663	36	C	07/25/2024	02:14	-126.920	47.228	0	79.80	0	8.7630	0	32.4910	0	25.192	0	79.121	0	217.4	4	75.7	4	-1E+10	1	-1E+10	1	-1E+10	1	-1E+10	1	-1E+10	1	-1E+10	1
4902663	36	C	07/25/2024	02:14	-126.920	47.228	0	80.70	0	8.6680	0	32.5030	0	25.216	0	80.013	0	215.6	4	74.9	4	-1E+10	1	-1E+10	1	-1E+10	1	-1E+10	1	-1E+10	1	-1E+10	1
4902663	36	C	07/25/2024	02:14	-126.920	47.228	0	81.60	0	8.6640	0	32.5500	0	25.253	0	80.905	0	213.7	4	74.2	4	-1E+10	1	-1E+10	1	-1E+10	1	-1E+10	1	-1E+10	1	-1E+10	1
4902663	36	C	07/25/2024	02:14	-126.920	47.228	0	82.90	0	8.6060	0	32.5630	0	25.272	0	82.194	0	210.1	4	72.9	4	-1E+10	1	-1E+10	1	-1E+10	1	-1E+10	1	-1E+10	1	-1E+10	1
4902663	36	C	07/25/2024	02:14	-126.920	47.228	0	84.30	0	8.6270	0	32.5760	0	25.279	0	83.581	0	211.3	4	73.4	4	-1E+10	1	-1E+10	1	-1E+10	1	-1E+10	1	-1E+10	1	-1E+10	1
4902663	36	C	07/25/2024	02:14	-126.920	47.228	0	85.00	0	8.6720	0	32.5900	0	25.283	0	84.275	0	208.0	4	72.3	4	-1E+10	1	-1E+10	1	-1E+10	1	-1E+10	1	-1E+10	1	-1E+10	1
4902663	36	C	07/25/2024	02:14	-126.920	47.228	0	85.90	0	8.6880	0	32.6110	0	25.298	0	85.167	0	203.7	4	70.8	4	-1E+10	1	-1E+10	1	-1E+10	1	-1E+10	1	-1E+10	1	-1E+10	1
4902663	36	C	07/25/2024	02:14	-126.920	47.228	0	86.80	0	8.6440	0	32.6470	0	25.332	0	86.060	0	198.7	4	69.1	4	-1E+10	1	-1E+10	1	-1E+10	1	-1E+10	1	-1E+10	1	-1E+10	1
4902663	36	C	07/25/2024	02:14	-126.920	47.228	0	88.10	0	8.5570	0	32.7080	0	25.393	0	87.348	0	191.9	4	66.6	4	-1E+10	1	-1E+10	1	-1E+10	1	-1E+10	1	-1E+10	1	-1E+10	1
4902663	36	C	07/25/2024	02:14	-126.920	47.228	0	89.10	0	8.4890	0	32.7710	0	25.453	0	88.340	0	186.5	4	64.7	4	-1E+10	1	-1E+10	1	-1E+10	1	-1E+10	1	-1E+10	1	-1E+10	1
4902663	36	C	07/25/2024	02:14	-126.920	47.228	0	89.80	0	8.4170	0	32.8390	0	25.517	0	89.033	0	182.9	4	63.4	4	-1E+10	1	-1E+10	1	-1E+10	1	-1E+10	1	-1E+10	1	-1E+10	1
4902663	36	C	07/25/2024	02:14	-126.920	47.228	0	90.90	0	8.2980	0	32.9170	0	25.596	0	90.124	0	177.8	4	61.4	4	-1E+10	1	-1E+10	1	-1E+10	1	-1E+10	1	-1E+10	1	-1E+10	1
4902663	36	C	07/25/2024	02:14	-126.920	47.228	0	92.10	0	8.3450	0	32.9500	0	25.615	0	91.313	0	172.8	4	59.8	4	-1E+10	1	-1E+10	1	-1E+10	1	-1E+10	1	-1E+10	1	-1E+10	1
4902663	36	C	07/25/2024	02:14	-126.920	47.228	0	92.90	0	8.4100	0	33.0190	0	25.659	0	92.106	0	170.1	4	59.0	4	-1E+10	1	-1E+10	1	-1E+10	1	-1E+10	1	-1E+10	1	-1E+10	1
4902663	36	C	07/25/2024	02:14	-126.920	47.228	0	93.60	0	8.3830	0	33.0400	0	25.680	0	92.800	0	167.7	4	58.1	4	-1E+10	1	-1E+10	1	-1E+10	1	-1E+10	1	-1E+10	1	-1E+10	1
4902663	36	C	07/25/2024	02:14	-126.920	47.228	0	94.90	0	8.3240	0	33.0740	0	25.715	0	94.089	0	164.1	4	56.8	4	-1E+10	1	-1E+10	1	-1E+10	1	-1E+10	1	-1E+10	1	-1E+10	1
4902663	36	C	07/25/2024	02:14	-126.920	47.228	0	96.20	0	8.3290	0	33.1580	0	25.780	0	95.377	0	160.9	4	55.7	4	-1E+10	1	-1E+10	1	-1E+10	1	-1E+10	1	-1E+10	1	-1E+10	1
4902663	36	C	07/25/2024	02:14	-126.920	47.228	0	97.10	0	8.3320	0	33.1960	0	25.810	0	96.269	0	159.4	4	55.2	4	-1E+10	1	-1E+10	1	-1E+10	1	-1E+10	1	-1E+10	1	-1E+10	1
4902663	36	C	07/25/2024	02:14	-126.920	47.228	0	98.10	0	8.3140	0	33.2300	0	25.839	0	97.261	0	158.3	4	54.8	4	-1E+10	1	-1E+10	1	-1E+10	1	-1E+10	1	-1E+10	1	-1E+10	1
4902663	36	C	07/25/2024	02:14	-126.920	47.228	0	99.00	0	8.2890	0	33.2530	0	25.861	0	98.153	0	157.2	4	54.5	4	-1E+10	1	-1E+10	1	-1E+10	1	-1E+10	1	-1E+10	1	-1E+10	1
4902663	36	C	07/25/2024	02:14	-126.920	47.228	0	100.00	0	8.2810	0	33.2570	0	25.865	0	99.144	0	156.1	4	54.1	4	-1E+10	1	-1E+10	1	-1E+10	1	-1E+10	1	-1E+10	1	-1E+10	1
4902663	36	C	07/25/2024	02:14	-126.920	47.228	0	101.00	0	8.2510	0	33.2820	0	25.889	0	100.135	0	155.0	4	53.7	4	-1E+10	1	-1E+10	1	-1E+10	1	-1E+10	1	-1E+10	1	-1E+10	1
4902663	36	C	07/25/2024	02:14	-126.920	47.228	0	102.00	0	8.2390	0	33.2940	0	25.901	0	101.126	0	154.0	4	53.3	4	-1E+10	1	-1E+10	1	-1E+10	1	-1E+10	1	-1E+10	1	-1E+10	1
4902663	36	C	07/25/2024	02:14	-126.920	47.228	0	103.00	0	8.2210	0	33.3130	0	25.918	0	102.117	0	153.0	4	53.0	4	-1E+10	1	-1E+10	1	-1E+10	1	-1E+10	1	-1E+10	1	-1E+10	1
4902663	36	C	07/25/2024	02:14	-126.920	47.228	0	103.90	0	8.2360	0	33.3370	0	25.935	0	103.010	0	152.2	4	52.7	4	-1E+10	1	-1E+10	1	-1E+10	1	-1E+10	1	-1E+10	1	-1E+10	1
4902663	36	C	07/25/2024	02:14	-126.920	47.228	0	104.90	0	8.2330	0	33.3470	0	25.943	0	104.001	0	151.4	4	52.4	4	-1E+10	1	-1E+10	1	-1E+10	1	-1E+10	1	-1E+10	1	-1E+10	1
4902663	36	C	07/25/2024	02:14	-126.920	47.228	0	106.00	0	8.2010	0	33.3550	0	25.954	0	105.091	0	150.8	4	52.2	4	-1E+10	1	-1E+10	1	-1E+10	1	-1E+10	1	-1E+10	1	-1E+10	1
4902663	36	C	07/25/2024	02:14	-126.920	47.228	0	106.80	0	8.2110	0	33.3620	0	25.958	0	105.884	0	150.1	4	52.0	4	-1E+10	1	-1E+10	1	-1E+10	1	-1E+10	1	-1E+10	1	-1E+10	1
4902663	36	C	07/25/2024	02:14	-126.920	47.228	0	107.80	0	8.1920	0	33.3770	0	25.973	0	106.875	0	149.1	4	51.6	4	-1E+10	1	-1E+10	1	-1E+10	1	-1E+10	1	-1E+10	1	-1E+10	1
4902663	36	C	07/25/2024	02:14	-126.920	47.228	0	109.00	0	8.1930	0	33.3780	0	25.974	0	108.064	0	148.1	4	51.2	4	-1E+10	1	-1E+10	1	-1E+10	1	-1E+10	1	-1E+10	1	-1E+10	1
4902663	36	C	07/25/2024	02:14	-126.920	47.228	0	109.70	0	8.1950	0	33.3860	0	25.979	0	108.758	0	147.2	4	50.9	4	-1E+10	1	-1E+10	1	-1E+10	1	-1E+10	1	-1E+10	1	-1E+10	1
4902663	36	C	07/25/2024	02:14	-126.920	47.228	0	110.80	0	8.1790	0	33.3960	0	25.990	0	109.849	0	145.9	4	50.5	4	-1E+10	1	-1E+10	1	-1E+10	1	-1E+10	1	-1E+10	1	-1E+10	1
4902663	36	C	07/25/2024	02:14	-126.920	47.228	0	112.00	0	8.1660	0	33.4150	0	26.007	0	111.038	0	144.6	4	50.0	4	-1E+10	1	-1E+10	1	-1E+10	1	-1E+10	1	-1E+10	1	-1E+10	1
4902663	36	C	07/25/2024	02:14	-126.920	47.228	0	112.80	0	8.1630	0	33.4300	0	26.019	0	111.831	0	143.9	4	49.8	4	-1E+10	1	-1E+10	1	-1E+10	1	-1E+10	1	-1E+10	1	-1E+10	1
4902663	36	C	07/25/2024	02:14	-126.920	47.228	0	113.60	0	8.1330	0	33.4550	0	26.043	0	112.624	0	143.3	4	49.5	4	-1E+10	1	-1E+10	1	-1E+10	1	-1E+10	1	-1E+10	1	-1E+10	1
4902663	36	C	07/25/2024	02:14	-126.920	47.228	0	114.90	0	8.1160	0	33.4720	0	26.059	0	113.912	0	142.4	4	49.2	4	-1E+10	1	-1E+10	1	-1E+10	1	-1E+10	1	-1E+10	1	-1E+10	1
4902663	36	C	07/25/2024	02:14	-126.920	47.228	0	116.10	0	8.1140	0	33.4850	0	26.069	0	115.102	0	141.6	4	48.9	4	-1E+10	1	-1E+10	1	-1E+10	1	-1E+10	1	-1E+10	1	-1E+10	1
4902663	36	C	07/25/2024	02:14	-126.920	47.228	0	117.00	0	8.0880	0	33.4930	0	26.079	0	115.994	0	141.1	4	48.7	4	-1E+10	1	-1E+10	1	-1E+10	1	-1E+10	1	-1E+10	1	-1E+10	1
4902663	36	C	07/25/2024	02:14	-126.920	47.228	0	117.80	0	8.0870	0	33.5020	0	26.087	0	116.786	0	140.6	4	48.6	4	-1E+10	1	-1E+10	1	-1E+10	1	-1E+10	1	-1E+10	1	-1E+10	1
4902663	36	C	07/25/2024	02:14	-126.920	47.228	0	118.70	0	8.0860	0	33.5100	0	26.093	0	117.678	0	140.1	4	48.4	4	-1E+10	1	-1E+10	1	-1E+10	1	-1E+10	1	-1E+10	1	-1E+10	1
4902663	36	C	07/25/2024	02:14	-126.920	47.228	0	120.00	0	8.0860	0	33.5130	0	26.095	0	118.967	0	139.3	4	48.1	4	-1E+10	1	-1E+10	1	-1E+10	1	-1E+10	1	-1E+10	1	-1E+10	1
4902663	36	C	07/25/2024	02:14	-126.920	47.228	0	121.30	0	8.0810	0	33.5210	0	26.102	0	120.255	0	138.3	4	47.8	4	-1E+10	1	-1E+10	1	-1E+10	1	-1E+10	1	-1E+10	1	-1E+10	1
4902663	36	C	07/25/2024	02:14	-126.920	47.228	0	122.20	0	8.0760	0	33.5290	0	26.110	0	121.147	0	137.6	4	47.5	4	-1E+10	1	-1E+10	1	-1E+10	1	-1E+10	1	-1E+10	1	-1E+10	1
4902663	36	C	07/25/2024	02:14	-126.920	47.228	0	123.10	0	8.0770	0	33.5350	0	26.114	0	122.039	0	137.0	4	47.3	4	-1E+10	1	-1E+10	1	-1E+10	1	-1E+10	1	-1E+10	1	-1E+10	1
4902663	36	C	07/25/2024	02:14	-126.920	47.228	0	124.00	0	8.0760	0	33.5410	0	26.119	0	122.931	0	136.4	4	47.1	4	-1E+10	1	-1E+10	1	-1E+10	1	-1E+10	1	-1E+10	1	-1E+10	1
4902663	36	C	07/25/2024	02:14	-126.920	47.228	0	124.90	0	8.0710	0	33.5460	0	26.124	0	123.823	0	135.8	4	46.9	4	-1E+10	1	-1E+10	1	-1E+10	1	-1E+10	1	-1E+10	1	-1E+10	1
4902663	36	C	07/25/2024	02:14	-126.920	47.228	0	125.80	0	8.0560	0	33.5620	0	26.138	0	124.715	0	135.3	4	46.7	4	-1E+10	1	-1E+10	1	-1E+10	1	-1E+10	1	-1E+10	1	-1E+10	1
4902663	36	C	07/25/2024	02:14	-126.920	47.228	0	126.70	0	8.0570	0	33.5640	0	26.140	0	125.607	0	134.7	4	46.5	4	-1E+10	1	-1E+10	1	-1E+10	1	-1E+10	1	-1E+10	1	-1E+10	1
4902663	36	C	07/25/2024	02:14	-126.920	47.228	0	127.70	0	8.0600	0	33.5770	0	26.150	0	126.598	0	134.2	4	46.3	4	-1E+10	1	-1E+10	1	-1E+10	1	-1E+10	1	-1E+10	1	-1E+10	1
4902663	36	C	07/25/2024	02:14	-126.920	47.228	0	128.60	0	8.0450	0	33.5850	0	26.158	0	127.490	0	133.7	4	46.2	4	-1E+10	1	-1E+10	1	-1E+10	1	-1E+10	1	-1E+10	1	-1E+10	1
4902663	36	C	07/25/2024	02:14	-126.920	47.228	0	129.60	0	8.0340	0	33.5910	0	26.164	0	128.481	0	133.3	4	46.0	4	-1E+10	1	-1E+10	1	-1E+10	1	-1E+10	1	-1E+10	1	-1E+10	1
4902663	36	C	07/25/2024	02:14	-126.920	47.228	0	130.60	0	8.0240	0	33.5960	0	26.170	0	129.472	0	132.9	4	45.9	4	-1E+10	1	-1E+10	1	-1E+10	1	-1E+10	1	-1E+10	1	-1E+10	1
4902663	36	C	07/25/2024	02:14	-126.920	47.228	0	131.50	0	8.0040	0	33.6050	0	26.180	0	130.364	0	132.5	4	45.7	4	-1E+10	1	-1E+10	1	-1E+10	1	-1E+10	1	-1E+10	1	-1E+10	1
4902663	36	C	07/25/2024	02:14	-126.920	47.228	0	132.90	0	8.0010	0	33.6060	0	26.181	0	131.752	0	131.7	4	45.5	4	-1E+10	1	-1E+10	1	-1E+10	1	-1E+10	1	-1E+10	1	-1E+10	1
4902663	36	C	07/25/2024	02:14	-126.920	47.228	0	134.40	0	7.9910	0	33.6110	0	26.187	0	133.238	0	130.8	4	45.1	4	-1E+10	1	-1E+10	1	-1E+10	1	-1E+10	1	-1E+10	1	-1E+10	1
4902663	36	C	07/25/2024	02:14	-126.920	47.228	0	135.40	0	7.9690	0	33.6300	0	26.205	0	134.229	0	130.3	4	44.9	4	-1E+10	1	-1E+10	1	-1E+10	1	-1E+10	1	-1E+10	1	-1E+10	1
4902663	36	C	07/25/2024	02:14	-126.920	47.228	0	136.30	0	7.9660	0	33.6340	0	26.208	0	135.121	0	129.8	4	44.8	4	-1E+10	1	-1E+10	1	-1E+10	1	-1E+10	1	-1E+10	1	-1E+10	1
4902663	36	C	07/25/2024	02:14	-126.920	47.228	0	137.30	0	7.9610	0	33.6360	0	26.211	0	136.112	0	129.2	4	44.5	4	-1E+10	1	-1E+10	1	-1E+10	1	-1E+10	1	-1E+10	1	-1E+10	1
4902663	36	C	07/25/2024	02:14	-126.920	47.228	0	138.20	0	7.9540	0	33.6380	0	26.213	0	137.004	0	128.6	4	44.3	4	-1E+10	1	-1E+10	1	-1E+10	1	-1E+10	1	-1E+10	1	-1E+10	1
4902663	36	C	07/25/2024	02:14	-126.920	47.228	0	139.20	0	7.9230	0	33.6510	0	26.228	0	137.995	0	127.8	4	44.0	4	-1E+10	1	-1E+10	1	-1E+10	1	-1E+10	1	-1E+10	1	-1E+10	1
4902663	36	C	07/25/2024	02:14	-126.920	47.228	0	140.20	0	7.9010	0	33.6590	0	26.238	0	138.986	0	127.0	4	43.8	4	-1E+10	1	-1E+10	1	-1E+10	1	-1E+10	1	-1E+10	1	-1E+10	1
4902663	36	C	07/25/2024	02:14	-126.920	47.228	0	141.20	0	7.8980	0	33.6620	0	26.240	0	139.977	0	126.2	4	43.5	4	-1E+10	1	-1E+10	1	-1E+10	1	-1E+10	1	-1E+10	1	-1E+10	1
4902663	36	C	07/25/2024	02:14	-126.920	47.228	0	142.20	0	7.8750	0	33.6730	0	26.252	0	140.968	0	125.4	4	43.2	4	-1E+10	1	-1E+10	1	-1E+10	1	-1E+10	1	-1E+10	1	-1E+10	1
4902663	36	C	07/25/2024	02:14	-126.920	47.228	0	143.20	0	7.8630	0	33.6810	0	26.260	0	141.959	0	124.6	4	42.9	4	-1E+10	1	-1E+10	1	-1E+10	1	-1E+10	1	-1E+10	1	-1E+10	1
4902663	36	C	07/25/2024	02:14	-126.920	47.228	0	144.20	0	7.8580	0	33.6830	0	26.263	0	142.950	0	123.9	4	42.6	4	-1E+10	1	-1E+10	1	-1E+10	1	-1E+10	1	-1E+10	1	-1E+10	1
4902663	36	C	07/25/2024	02:14	-126.920	47.228	0	145.30	0	7.8440	0	33.6930	0	26.273	0	144.040	0	123.2	4	42.4	4	-1E+10	1	-1E+10	1	-1E+10	1	-1E+10	1	-1E+10	1	-1E+10	1
4902663	36	C	07/25/2024	02:14	-126.920	47.228	0	146.30	0	7.8210	0	33.7140	0	26.292	0	145.031	0	122.7	4	42.2	4	-1E+10	1	-1E+10	1	-1E+10	1	-1E+10	1	-1E+10	1	-1E+10	1
4902663	36	C	07/25/2024	02:14	-126.920	47.228	0	147.40	0	7.8090	0	33.7220	0	26.300	0	146.121	0	122.2	4	42.0	4	-1E+10	1	-1E+10	1	-1E+10	1	-1E+10	1	-1E+10	1	-1E+10	1
4902663	36	C	07/25/2024	02:14	-126.920	47.228	0	148.40	0	7.8110	0	33.7370	0	26.312	0	147.112	0	121.8	4	41.9	4	-1E+10	1	-1E+10	1	-1E+10	1	-1E+10	1	-1E+10	1	-1E+10	1
4902663	36	C	07/25/2024	02:14	-126.920	47.228	0	149.50	0	7.8050	0	33.7460	0	26.320	0	148.202	0	121.3	4	41.7	4	-1E+10	1	-1E+10	1	-1E+10	1	-1E+10	1	-1E+10	1	-1E+10	1
4902663	36	C	07/25/2024	02:14	-126.920	47.228	0	150.50	0	7.7790	0	33.7540	0	26.330	0	149.193	0	120.9	4	41.6	4	-1E+10	1	-1E+10	1	-1E+10	1	-1E+10	1	-1E+10	1	-1E+10	1
4902663	36	C	07/25/2024	02:14	-126.920	47.228	0	151.60	0	7.7670	0	33.7600	0	26.336	0	150.283	0	120.6	4	41.4	4	-1E+10	1	-1E+10	1	-1E+10	1	-1E+10	1	-1E+10	1	-1E+10	1
4902663	36	C	07/25/2024	02:14	-126.920	47.228	0	152.70	0	7.7620	0	33.7640	0	26.340	0	151.373	0	120.3	4	41.3	4	-1E+10	1	-1E+10	1	-1E+10	1	-1E+10	1	-1E+10	1	-1E+10	1
4902663	36	C	07/25/2024	02:14	-126.920	47.228	0	153.80	0	7.7460	0	33.7740	0	26.351	0	152.463	0	120.0	4	41.2	4	-1E+10	1	-1E+10	1	-1E+10	1	-1E+10	1	-1E+10	1	-1E+10	1
4902663	36	C	07/25/2024	02:14	-126.920	47.228	0	154.80	0	7.7380	0	33.7780	0	26.355	0	153.454	0	119.7	4	41.1	4	-1E+10	1	-1E+10	1	-1E+10	1	-1E+10	1	-1E+10	1	-1E+10	1
4902663	36	C	07/25/2024	02:14	-126.920	47.228	0	155.90	0	7.7310	0	33.7820	0	26.359	0	154.544	0	119.4	4	41.0	4	-1E+10	1	-1E+10	1	-1E+10	1	-1E+10	1	-1E+10	1	-1E+10	1
4902663	36	C	07/25/2024	02:14	-126.920	47.228	0	157.00	0	7.7270	0	33.7850	0	26.362	0	155.634	0	119.1	4	40.9	4	-1E+10	1	-1E+10	1	-1E+10	1	-1E+10	1	-1E+10	1	-1E+10	1
4902663	36	C	07/25/2024	02:14	-126.920	47.228	0	158.10	0	7.7250	0	33.7860	0	26.363	0	156.724	0	118.8	4	40.8	4	-1E+10	1	-1E+10	1	-1E+10	1	-1E+10	1	-1E+10	1	-1E+10	1
4902663	36	C	07/25/2024	02:14	-126.920	47.228	0	159.30	0	7.7210	0	33.7880	0	26.365	0	157.914	0	118.6	4	40.7	4	-1E+10	1	-1E+10	1	-1E+10	1	-1E+10	1	-1E+10	1	-1E+10	1
4902663	36	C	07/25/2024	02:14	-126.920	47.228	0	160.30	0	7.7140	0	33.7910	0	26.369	0	158.904	0	118.3	4	40.6	4	-1E+10	1	-1E+10	1	-1E+10	1	-1E+10	1	-1E+10	1	-1E+10	1
4902663	36	C	07/25/2024	02:14	-126.920	47.228	0	161.40	0	7.7060	0	33.7960	0	26.374	0	159.994	0	118.0	4	40.5	4	-1E+10	1	-1E+10	1	-1E+10	1	-1E+10	1	-1E+10	1	-1E+10	1
4902663	36	C	07/25/2024	02:14	-126.920	47.228	0	162.50	0	7.7020	0	33.7960	0	26.374	0	161.084	0	117.7	4	40.4	4	-1E+10	1	-1E+10	1	-1E+10	1	-1E+10	1	-1E+10	1	-1E+10	1
4902663	36	C	07/25/2024	02:14	-126.920	47.228	0	163.60	0	7.7010	0	33.7960	0	26.374	0	162.174	0	117.3	4	40.3	4	-1E+10	1	-1E+10	1	-1E+10	1	-1E+10	1	-1E+10	1	-1E+10	1
4902663	36	C	07/25/2024	02:14	-126.920	47.228	0	164.70	0	7.6940	0	33.7980	0	26.377	0	163.264	0	116.9	4	40.1	4	-1E+10	1	-1E+10	1	-1E+10	1	-1E+10	1	-1E+10	1	-1E+10	1
4902663	36	C	07/25/2024	02:14	-126.920	47.228	0	165.80	0	7.6850	0	33.8010	0	26.381	0	164.354	0	116.6	4	40.0	4	-1E+10	1	-1E+10	1	-1E+10	1	-1E+10	1	-1E+10	1	-1E+10	1
4902663	36	C	07/25/2024	02:14	-126.920	47.228	0	166.90	0	7.6780	0	33.8060	0	26.386	0	165.444	0	116.3	4	39.9	4	-1E+10	1	-1E+10	1	-1E+10	1	-1E+10	1	-1E+10	1	-1E+10	1
4902663	36	C	07/25/2024	02:14	-126.920	47.228	0	168.00	0	7.6570	0	33.8160	0	26.397	0	166.534	0	115.9	4	39.8	4	-1E+10	1	-1E+10	1	-1E+10	1	-1E+10	1	-1E+10	1	-1E+10	1
4902663	36	C	07/25/2024	02:14	-126.920	47.228	0	169.00	0	7.6290	0	33.8140	0	26.399	0	167.525	0	115.5	4	39.6	4	-1E+10	1	-1E+10	1	-1E+10	1	-1E+10	1	-1E+10	1	-1E+10	1
4902663	36	C	07/25/2024	02:14	-126.920	47.228	0	170.10	0	7.6180	0	33.8150	0	26.401	0	168.615	0	114.9	4	39.4	4	-1E+10	1	-1E+10	1	-1E+10	1	-1E+10	1	-1E+10	1	-1E+10	1
4902663	36	C	07/25/2024	02:14	-126.920	47.228	0	171.20	0	7.6070	0	33.8170	0	26.405	0	169.705	0	114.3	4	39.2	4	-1E+10	1	-1E+10	1	-1E+10	1	-1E+10	1	-1E+10	1	-1E+10	1
4902663	36	C	07/25/2024	02:14	-126.920	47.228	0	172.30	0	7.6000	0	33.8210	0	26.409	0	170.795	0	113.8	4	39.0	4	-1E+10	1	-1E+10	1	-1E+10	1	-1E+10	1	-1E+10	1	-1E+10	1
4902663	36	C	07/25/2024	02:14	-126.920	47.228	0	173.40	0	7.5980	0	33.8260	0	26.413	0	171.885	0	113.3	4	38.8	4	-1E+10	1	-1E+10	1	-1E+10	1	-1E+10	1	-1E+10	1	-1E+10	1
4902663	36	C	07/25/2024	02:14	-126.920	47.228	0	174.50	0	7.5990	0	33.8290	0	26.415	0	172.975	0	112.9	4	38.7	4	-1E+10	1	-1E+10	1	-1E+10	1	-1E+10	1	-1E+10	1	-1E+10	1
4902663	36	C	07/25/2024	02:14	-126.920	47.228	0	175.50	0	7.5680	0	33.8350	0	26.424	0	173.966	0	112.5	4	38.5	4	-1E+10	1	-1E+10	1	-1E+10	1	-1E+10	1	-1E+10	1	-1E+10	1
4902663	36	C	07/25/2024	02:14	-126.920	47.228	0	176.60	0	7.5590	0	33.8360	0	26.426	0	175.056	0	111.9	4	38.3	4	-1E+10	1	-1E+10	1	-1E+10	1	-1E+10	1	-1E+10	1	-1E+10	1
4902663	36	C	07/25/2024	02:14	-126.920	47.228	0	177.60	0	7.5550	0	33.8400	0	26.430	0	176.046	0	111.3	4	38.1	4	-1E+10	1	-1E+10	1	-1E+10	1	-1E+10	1	-1E+10	1	-1E+10	1
4902663	36	C	07/25/2024	02:14	-126.920	47.228	0	178.60	0	7.5420	0	33.8460	0	26.437	0	177.037	0	110.8	4	37.9	4	-1E+10	1	-1E+10	1	-1E+10	1	-1E+10	1	-1E+10	1	-1E+10	1
4902663	36	C	07/25/2024	02:14	-126.920	47.228	0	179.70	0	7.5280	0	33.8510	0	26.443	0	178.127	0	110.2	4	37.7	4	-1E+10	1	-1E+10	1	-1E+10	1	-1E+10	1	-1E+10	1	-1E+10	1
4902663	36	C	07/25/2024	02:14	-126.920	47.228	0	180.80	0	7.4930	0	33.8600	0	26.455	0	179.217	0	109.7	4	37.5	4	-1E+10	1	-1E+10	1	-1E+10	1	-1E+10	1	-1E+10	1	-1E+10	1
4902663	36	C	07/25/2024	02:14	-126.920	47.228	0	181.80	0	7.4740	0	33.8600	0	26.457	0	180.208	0	109.1	4	37.3	4	-1E+10	1	-1E+10	1	-1E+10	1	-1E+10	1	-1E+10	1	-1E+10	1
4902663	36	C	07/25/2024	02:14	-126.920	47.228	0	182.80	0	7.4660	0	33.8620	0	26.460	0	181.199	0	108.6	4	37.1	4	-1E+10	1	-1E+10	1	-1E+10	1	-1E+10	1	-1E+10	1	-1E+10	1
4902663	36	C	07/25/2024	02:14	-126.920	47.228	0	183.90	0	7.4570	0	33.8680	0	26.466	0	182.289	0	108.2	4	37.0	4	-1E+10	1	-1E+10	1	-1E+10	1	-1E+10	1	-1E+10	1	-1E+10	1
4902663	36	C	07/25/2024	02:14	-126.920	47.228	0	184.90	0	7.4480	0	33.8700	0	26.469	0	183.279	0	107.8	4	36.8	4	-1E+10	1	-1E+10	1	-1E+10	1	-1E+10	1	-1E+10	1	-1E+10	1
4902663	36	C	07/25/2024	02:14	-126.920	47.228	0	185.90	0	7.4160	0	33.8730	0	26.476	0	184.270	0	107.4	4	36.6	4	-1E+10	1	-1E+10	1	-1E+10	1	-1E+10	1	-1E+10	1	-1E+10	1
4902663	36	C	07/25/2024	02:14	-126.920	47.228	0	186.90	0	7.3870	0	33.8750	0	26.482	0	185.261	0	106.9	4	36.5	4	-1E+10	1	-1E+10	1	-1E+10	1	-1E+10	1	-1E+10	1	-1E+10	1
4902663	36	C	07/25/2024	02:14	-126.920	47.228	0	187.90	0	7.3880	0	33.8750	0	26.481	0	186.252	0	106.5	4	36.3	4	-1E+10	1	-1E+10	1	-1E+10	1	-1E+10	1	-1E+10	1	-1E+10	1
4902663	36	C	07/25/2024	02:14	-126.920	47.228	0	189.00	0	7.3830	0	33.8770	0	26.484	0	187.342	0	106.0	4	36.1	4	-1E+10	1	-1E+10	1	-1E+10	1	-1E+10	1	-1E+10	1	-1E+10	1
4902663	36	C	07/25/2024	02:14	-126.920	47.228	0	189.90	0	7.3450	0	33.8810	0	26.492	0	188.233	0	105.6	4	36.0	4	-1E+10	1	-1E+10	1	-1E+10	1	-1E+10	1	-1E+10	1	-1E+10	1
4902663	36	C	07/25/2024	02:14	-126.920	47.228	0	190.90	0	7.3170	0	33.8810	0	26.496	0	189.224	0	105.3	4	35.8	4	-1E+10	1	-1E+10	1	-1E+10	1	-1E+10	1	-1E+10	1	-1E+10	1
4902663	36	C	07/25/2024	02:14	-126.920	47.228	0	192.00	0	7.3030	0	33.8790	0	26.497	0	190.314	0	104.8	4	35.6	4	-1E+10	1	-1E+10	1	-1E+10	1	-1E+10	1	-1E+10	1	-1E+10	1
4902663	36	C	07/25/2024	02:14	-126.920	47.228	0	193.00	0	7.2690	0	33.8790	0	26.501	0	191.305	0	104.2	4	35.4	4	-1E+10	1	-1E+10	1	-1E+10	1	-1E+10	1	-1E+10	1	-1E+10	1
4902663	36	C	07/25/2024	02:14	-126.920	47.228	0	194.00	0	7.2590	0	33.8840	0	26.507	0	192.295	0	103.7	4	35.3	4	-1E+10	1	-1E+10	1	-1E+10	1	-1E+10	1	-1E+10	1	-1E+10	1
4902663	36	C	07/25/2024	02:14	-126.920	47.228	0	194.90	0	7.2620	0	33.8920	0	26.513	0	193.187	0	103.5	4	35.2	4	-1E+10	1	-1E+10	1	-1E+10	1	-1E+10	1	-1E+10	1	-1E+10	1
4902663	36	C	07/25/2024	02:14	-126.920	47.228	0	195.90	0	7.2490	0	33.8950	0	26.517	0	194.178	0	103.3	4	35.1	4	-1E+10	1	-1E+10	1	-1E+10	1	-1E+10	1	-1E+10	1	-1E+10	1
4902663	36	C	07/25/2024	02:14	-126.920	47.228	0	196.80	0	7.2370	0	33.8970	0	26.520	0	195.069	0	103.1	4	35.0	4	-1E+10	1	-1E+10	1	-1E+10	1	-1E+10	1	-1E+10	1	-1E+10	1
4902663	36	C	07/25/2024	02:14	-126.920	47.228	0	197.80	0	7.2340	0	33.8950	0	26.519	0	196.060	0	102.9	4	35.0	4	-1E+10	1	-1E+10	1	-1E+10	1	-1E+10	1	-1E+10	1	-1E+10	1
4902663	36	C	07/25/2024	02:14	-126.920	47.228	0	198.70	0	7.2320	0	33.8950	0	26.519	0	196.952	0	102.6	4	34.9	4	-1E+10	1	-1E+10	1	-1E+10	1	-1E+10	1	-1E+10	1	-1E+10	1
4902663	36	C	07/25/2024	02:14	-126.920	47.228	0	199.70	0	7.2280	0	33.8930	0	26.518	0	197.943	0	102.5	4	34.8	4	-1E+10	1	-1E+10	1	-1E+10	1	-1E+10	1	-1E+10	1	-1E+10	1
4902663	36	C	07/25/2024	02:14	-126.920	47.228	0	200.70	0	7.2030	0	33.8940	0	26.522	0	198.933	0	102.1	4	34.7	4	-1E+10	1	-1E+10	1	-1E+10	1	-1E+10	1	-1E+10	1	-1E+10	1
4902663	36	C	07/25/2024	02:14	-126.920	47.228	0	201.60	0	7.1810	0	33.8930	0	26.525	0	199.825	0	101.7	4	34.5	4	-1E+10	1	-1E+10	1	-1E+10	1	-1E+10	1	-1E+10	1	-1E+10	1
4902663	36	C	07/25/2024	02:14	-126.920	47.228	0	202.60	0	7.1670	0	33.8930	0	26.527	0	200.816	0	101.3	4	34.4	4	-1E+10	1	-1E+10	1	-1E+10	1	-1E+10	1	-1E+10	1	-1E+10	1
4902663	36	C	07/25/2024	02:14	-126.920	47.228	0	203.50	0	7.1620	0	33.8930	0	26.527	0	201.707	0	100.6	4	34.1	4	-1E+10	1	-1E+10	1	-1E+10	1	-1E+10	1	-1E+10	1	-1E+10	1
4902663	36	C	07/25/2024	02:14	-126.920	47.228	0	204.90	0	7.1430	0	33.8970	0	26.533	0	203.094	0	99.8	4	33.8	4	-1E+10	1	-1E+10	1	-1E+10	1	-1E+10	1	-1E+10	1	-1E+10	1
4902663	36	C	07/25/2024	02:14	-126.920	47.228	0	206.30	0	7.1240	0	33.9000	0	26.538	0	204.481	0	99.1	4	33.6	4	-1E+10	1	-1E+10	1	-1E+10	1	-1E+10	1	-1E+10	1	-1E+10	1
4902663	36	C	07/25/2024	02:14	-126.920	47.228	0	207.20	0	7.1190	0	33.9000	0	26.539	0	205.373	0	98.6	4	33.4	4	-1E+10	1	-1E+10	1	-1E+10	1	-1E+10	1	-1E+10	1	-1E+10	1
4902663	36	C	07/25/2024	02:14	-126.920	47.228	0	208.20	0	7.1060	0	33.9030	0	26.543	0	206.363	0	98.1	4	33.2	4	-1E+10	1	-1E+10	1	-1E+10	1	-1E+10	1	-1E+10	1	-1E+10	1
4902663	36	C	07/25/2024	02:14	-126.920	47.228	0	209.10	0	7.1070	0	33.9060	0	26.545	0	207.255	0	97.8	4	33.1	4	-1E+10	1	-1E+10	1	-1E+10	1	-1E+10	1	-1E+10	1	-1E+10	1
4902663	36	C	07/25/2024	02:14	-126.920	47.228	0	210.00	0	7.1050	0	33.9070	0	26.546	0	208.147	0	97.4	4	33.0	4	-1E+10	1	-1E+10	1	-1E+10	1	-1E+10	1	-1E+10	1	-1E+10	1
4902663	36	C	07/25/2024	02:14	-126.920	47.228	0	211.00	0	7.0910	0	33.9080	0	26.549	0	209.137	0	97.1	4	32.9	4	-1E+10	1	-1E+10	1	-1E+10	1	-1E+10	1	-1E+10	1	-1E+10	1
4902663	36	C	07/25/2024	02:14	-126.920	47.228	0	211.90	0	7.0840	0	33.9100	0	26.552	0	210.029	0	96.7	4	32.8	4	-1E+10	1	-1E+10	1	-1E+10	1	-1E+10	1	-1E+10	1	-1E+10	1
4902663	36	C	07/25/2024	02:14	-126.920	47.228	0	212.90	0	7.0810	0	33.9110	0	26.553	0	211.020	0	96.4	4	32.6	4	-1E+10	1	-1E+10	1	-1E+10	1	-1E+10	1	-1E+10	1	-1E+10	1
4902663	36	C	07/25/2024	02:14	-126.920	47.228	0	213.80	0	7.0580	0	33.9140	0	26.558	0	211.911	0	96.1	4	32.5	4	-1E+10	1	-1E+10	1	-1E+10	1	-1E+10	1	-1E+10	1	-1E+10	1
4902663	36	C	07/25/2024	02:14	-126.920	47.228	0	214.80	0	7.0480	0	33.9140	0	26.560	0	212.902	0	95.9	4	32.4	4	-1E+10	1	-1E+10	1	-1E+10	1	-1E+10	1	-1E+10	1	-1E+10	1
4902663	36	C	07/25/2024	02:14	-126.920	47.228	0	215.70	0	7.0370	0	33.9150	0	26.562	0	213.793	0	95.7	4	32.4	4	-1E+10	1	-1E+10	1	-1E+10	1	-1E+10	1	-1E+10	1	-1E+10	1
4902663	36	C	07/25/2024	02:14	-126.920	47.228	0	216.60	0	7.0120	0	33.9150	0	26.565	0	214.685	0	95.4	4	32.3	4	-1E+10	1	-1E+10	1	-1E+10	1	-1E+10	1	-1E+10	1	-1E+10	1
4902663	36	C	07/25/2024	02:14	-126.920	47.228	0	217.60	0	7.0060	0	33.9150	0	26.566	0	215.676	0	95.2	4	32.2	4	-1E+10	1	-1E+10	1	-1E+10	1	-1E+10	1	-1E+10	1	-1E+10	1
4902663	36	C	07/25/2024	02:14	-126.920	47.228	0	218.90	0	6.9830	0	33.9170	0	26.571	0	216.963	0	95.0	4	32.1	4	-1E+10	1	-1E+10	1	-1E+10	1	-1E+10	1	-1E+10	1	-1E+10	1
4902663	36	C	07/25/2024	02:14	-126.920	47.228	0	220.40	0	6.9720	0	33.9170	0	26.572	0	218.449	0	94.7	4	32.0	4	-1E+10	1	-1E+10	1	-1E+10	1	-1E+10	1	-1E+10	1	-1E+10	1
4902663	36	C	07/25/2024	02:14	-126.920	47.228	0	221.30	0	6.9640	0	33.9180	0	26.574	0	219.341	0	94.5	4	31.9	4	-1E+10	1	-1E+10	1	-1E+10	1	-1E+10	1	-1E+10	1	-1E+10	1
4902663	36	C	07/25/2024	02:14	-126.920	47.228	0	222.20	0	6.8910	0	33.9140	0	26.581	0	220.233	0	94.3	4	31.8	4	-1E+10	1	-1E+10	1	-1E+10	1	-1E+10	1	-1E+10	1	-1E+10	1
4902663	36	C	07/25/2024	02:14	-126.920	47.228	0	223.20	0	6.8900	0	33.9140	0	26.581	0	221.223	0	94.1	4	31.7	4	-1E+10	1	-1E+10	1	-1E+10	1	-1E+10	1	-1E+10	1	-1E+10	1
4902663	36	C	07/25/2024	02:14	-126.920	47.228	0	224.10	0	6.8810	0	33.9140	0	26.582	0	222.115	0	93.8	4	31.6	4	-1E+10	1	-1E+10	1	-1E+10	1	-1E+10	1	-1E+10	1	-1E+10	1
4902663	36	C	07/25/2024	02:14	-126.920	47.228	0	225.10	0	6.8740	0	33.9160	0	26.585	0	223.105	0	93.5	4	31.5	4	-1E+10	1	-1E+10	1	-1E+10	1	-1E+10	1	-1E+10	1	-1E+10	1
4902663	36	C	07/25/2024	02:14	-126.920	47.228	0	226.00	0	6.8570	0	33.9160	0	26.587	0	223.997	0	93.2	4	31.4	4	-1E+10	1	-1E+10	1	-1E+10	1	-1E+10	1	-1E+10	1	-1E+10	1
4902663	36	C	07/25/2024	02:14	-126.920	47.228	0	227.00	0	6.8490	0	33.9180	0	26.590	0	224.987	0	92.9	4	31.3	4	-1E+10	1	-1E+10	1	-1E+10	1	-1E+10	1	-1E+10	1	-1E+10	1
4902663	36	C	07/25/2024	02:14	-126.920	47.228	0	227.90	0	6.8380	0	33.9170	0	26.591	0	225.879	0	92.7	4	31.2	4	-1E+10	1	-1E+10	1	-1E+10	1	-1E+10	1	-1E+10	1	-1E+10	1
4902663	36	C	07/25/2024	02:14	-126.920	47.228	0	228.90	0	6.8330	0	33.9160	0	26.591	0	226.870	0	92.3	4	31.1	4	-1E+10	1	-1E+10	1	-1E+10	1	-1E+10	1	-1E+10	1	-1E+10	1
4902663	36	C	07/25/2024	02:14	-126.920	47.228	0	229.90	0	6.8290	0	33.9170	0	26.592	0	227.860	0	91.9	4	31.0	4	-1E+10	1	-1E+10	1	-1E+10	1	-1E+10	1	-1E+10	1	-1E+10	1
4902663	36	C	07/25/2024	02:14	-126.920	47.228	0	230.90	0	6.8220	0	33.9180	0	26.594	0	228.851	0	91.6	4	30.9	4	-1E+10	1	-1E+10	1	-1E+10	1	-1E+10	1	-1E+10	1	-1E+10	1
4902663	36	C	07/25/2024	02:14	-126.920	47.228	0	231.80	0	6.8110	0	33.9180	0	26.595	0	229.742	0	91.3	4	30.7	4	-1E+10	1	-1E+10	1	-1E+10	1	-1E+10	1	-1E+10	1	-1E+10	1
4902663	36	C	07/25/2024	02:14	-126.920	47.228	0	232.50	0	6.8090	0	33.9180	0	26.595	0	230.436	0	91.0	4	30.6	4	-1E+10	1	-1E+10	1	-1E+10	1	-1E+10	1	-1E+10	1	-1E+10	1
4902663	36	C	07/25/2024	02:14	-126.920	47.228	0	233.90	0	6.8080	0	33.9190	0	26.596	0	231.822	0	90.5	4	30.5	4	-1E+10	1	-1E+10	1	-1E+10	1	-1E+10	1	-1E+10	1	-1E+10	1
4902663	36	C	07/25/2024	02:14	-126.920	47.228	0	234.90	0	6.8050	0	33.9210	0	26.598	0	232.813	0	90.0	4	30.3	4	-1E+10	1	-1E+10	1	-1E+10	1	-1E+10	1	-1E+10	1	-1E+10	1
4902663	36	C	07/25/2024	02:14	-126.920	47.228	0	235.90	0	6.8020	0	33.9220	0	26.600	0	233.803	0	89.3	4	30.1	4	-1E+10	1	-1E+10	1	-1E+10	1	-1E+10	1	-1E+10	1	-1E+10	1
4902663	36	C	07/25/2024	02:14	-126.920	47.228	0	237.00	0	6.8010	0	33.9230	0	26.600	0	234.893	0	88.6	4	29.8	4	-1E+10	1	-1E+10	1	-1E+10	1	-1E+10	1	-1E+10	1	-1E+10	1
4902663	36	C	07/25/2024	02:14	-126.920	47.228	0	237.70	0	6.8000	0	33.9240	0	26.601	0	235.586	0	88.1	4	29.7	4	-1E+10	1	-1E+10	1	-1E+10	1	-1E+10	1	-1E+10	1	-1E+10	1
4902663	36	C	07/25/2024	02:14	-126.920	47.228	0	238.80	0	6.7940	0	33.9270	0	26.605	0	236.676	0	87.5	4	29.4	4	-1E+10	1	-1E+10	1	-1E+10	1	-1E+10	1	-1E+10	1	-1E+10	1
4902663	36	C	07/25/2024	02:14	-126.920	47.228	0	240.00	0	6.7900	0	33.9280	0	26.606	0	237.865	0	86.7	4	29.2	4	-1E+10	1	-1E+10	1	-1E+10	1	-1E+10	1	-1E+10	1	-1E+10	1
4902663	36	C	07/25/2024	02:14	-126.920	47.228	0	240.70	0	6.7870	0	33.9280	0	26.606	0	238.558	0	86.4	4	29.1	4	-1E+10	1	-1E+10	1	-1E+10	1	-1E+10	1	-1E+10	1	-1E+10	1
4902663	36	C	07/25/2024	02:14	-126.920	47.228	0	241.90	0	6.7800	0	33.9330	0	26.611	0	239.747	0	85.9	4	28.9	4	-1E+10	1	-1E+10	1	-1E+10	1	-1E+10	1	-1E+10	1	-1E+10	1
4902663	36	C	07/25/2024	02:14	-126.920	47.228	0	243.10	0	6.7630	0	33.9370	0	26.617	0	240.935	0	85.5	4	28.8	4	-1E+10	1	-1E+10	1	-1E+10	1	-1E+10	1	-1E+10	1	-1E+10	1
4902663	36	C	07/25/2024	02:14	-126.920	47.228	0	243.80	0	6.7630	0	33.9370	0	26.617	0	241.629	0	85.3	4	28.7	4	-1E+10	1	-1E+10	1	-1E+10	1	-1E+10	1	-1E+10	1	-1E+10	1
4902663	36	C	07/25/2024	02:14	-126.920	47.228	0	244.70	0	6.7610	0	33.9370	0	26.617	0	242.520	0	85.1	4	28.6	4	-1E+10	1	-1E+10	1	-1E+10	1	-1E+10	1	-1E+10	1	-1E+10	1
4902663	36	C	07/25/2024	02:14	-126.920	47.228	0	245.90	0	6.7590	0	33.9390	0	26.619	0	243.709	0	84.8	4	28.5	4	-1E+10	1	-1E+10	1	-1E+10	1	-1E+10	1	-1E+10	1	-1E+10	1
4902663	36	C	07/25/2024	02:14	-126.920	47.228	0	247.10	0	6.7370	0	33.9420	0	26.624	0	244.897	0	84.5	4	28.4	4	-1E+10	1	-1E+10	1	-1E+10	1	-1E+10	1	-1E+10	1	-1E+10	1
4902663	36	C	07/25/2024	02:14	-126.920	47.228	0	247.90	0	6.7240	0	33.9390	0	26.624	0	245.690	0	84.3	4	28.3	4	-1E+10	1	-1E+10	1	-1E+10	1	-1E+10	1	-1E+10	1	-1E+10	1
4902663	36	C	07/25/2024	02:14	-126.920	47.228	0	248.70	0	6.7180	0	33.9390	0	26.624	0	246.482	0	84.1	4	28.2	4	-1E+10	1	-1E+10	1	-1E+10	1	-1E+10	1	-1E+10	1	-1E+10	1
4902663	36	C	07/25/2024	02:14	-126.920	47.228	0	250.00	0	6.6920	0	33.9370	0	26.626	0	247.770	0	83.6	4	28.1	4	-1E+10	1	-1E+10	1	-1E+10	1	-1E+10	1	-1E+10	1	-1E+10	1
4902663	36	C	07/25/2024	02:14	-126.920	47.228	0	251.30	0	6.6680	0	33.9360	0	26.629	0	249.057	0	83.1	4	27.9	4	-1E+10	1	-1E+10	1	-1E+10	1	-1E+10	1	-1E+10	1	-1E+10	1
4902663	36	C	07/25/2024	02:14	-126.920	47.228	0	252.10	0	6.6520	0	33.9370	0	26.632	0	249.850	0	82.7	4	27.7	4	-1E+10	1	-1E+10	1	-1E+10	1	-1E+10	1	-1E+10	1	-1E+10	1
4902663	36	C	07/25/2024	02:14	-126.920	47.228	0	253.00	0	6.6510	0	33.9390	0	26.633	0	250.741	0	82.3	4	27.6	4	-1E+10	1	-1E+10	1	-1E+10	1	-1E+10	1	-1E+10	1	-1E+10	1
4902663	36	C	07/25/2024	02:14	-126.920	47.228	0	253.80	0	6.6470	0	33.9400	0	26.635	0	251.534	0	81.9	4	27.5	4	-1E+10	1	-1E+10	1	-1E+10	1	-1E+10	1	-1E+10	1	-1E+10	1
4902663	36	C	07/25/2024	02:14	-126.920	47.228	0	254.70	0	6.6420	0	33.9410	0	26.636	0	252.425	0	81.5	4	27.3	4	-1E+10	1	-1E+10	1	-1E+10	1	-1E+10	1	-1E+10	1	-1E+10	1
4902663	36	C	07/25/2024	02:14	-126.920	47.228	0	255.90	0	6.6140	0	33.9430	0	26.641	0	253.614	0	81.1	4	27.2	4	-1E+10	1	-1E+10	1	-1E+10	1	-1E+10	1	-1E+10	1	-1E+10	1
4902663	36	C	07/25/2024	02:14	-126.920	47.228	0	257.30	0	6.6090	0	33.9450	0	26.644	0	255.000	0	80.6	4	27.0	4	-1E+10	1	-1E+10	1	-1E+10	1	-1E+10	1	-1E+10	1	-1E+10	1
4902663	36	C	07/25/2024	02:14	-126.920	47.228	0	258.20	0	6.6040	0	33.9450	0	26.644	0	255.892	0	80.3	4	26.9	4	-1E+10	1	-1E+10	1	-1E+10	1	-1E+10	1	-1E+10	1	-1E+10	1
4902663	36	C	07/25/2024	02:14	-126.920	47.228	0	259.10	0	6.5970	0	33.9420	0	26.643	0	256.783	0	80.1	4	26.8	4	-1E+10	1	-1E+10	1	-1E+10	1	-1E+10	1	-1E+10	1	-1E+10	1
4902663	36	C	07/25/2024	02:14	-126.920	47.228	0	259.90	0	6.6070	0	33.9490	0	26.647	0	257.575	0	79.9	4	26.8	4	-1E+10	1	-1E+10	1	-1E+10	1	-1E+10	1	-1E+10	1	-1E+10	1
4902663	36	C	07/25/2024	02:14	-126.920	47.228	0	260.80	0	6.6000	0	33.9490	0	26.648	0	258.467	0	79.7	4	26.7	4	-1E+10	1	-1E+10	1	-1E+10	1	-1E+10	1	-1E+10	1	-1E+10	1
4902663	36	C	07/25/2024	02:14	-126.920	47.228	0	261.70	0	6.5910	0	33.9480	0	26.648	0	259.358	0	79.5	4	26.6	4	-1E+10	1	-1E+10	1	-1E+10	1	-1E+10	1	-1E+10	1	-1E+10	1
4902663	36	C	07/25/2024	02:14	-126.920	47.228	0	262.60	0	6.5730	0	33.9500	0	26.652	0	260.249	0	79.3	4	26.5	4	-1E+10	1	-1E+10	1	-1E+10	1	-1E+10	1	-1E+10	1	-1E+10	1
4902663	36	C	07/25/2024	02:14	-126.920	47.228	0	263.90	0	6.5470	0	33.9480	0	26.654	0	261.537	0	78.9	4	26.4	4	-1E+10	1	-1E+10	1	-1E+10	1	-1E+10	1	-1E+10	1	-1E+10	1
4902663	36	C	07/25/2024	02:14	-126.920	47.228	0	265.30	0	6.5320	0	33.9480	0	26.656	0	262.924	0	78.5	4	26.2	4	-1E+10	1	-1E+10	1	-1E+10	1	-1E+10	1	-1E+10	1	-1E+10	1
4902663	36	C	07/25/2024	02:14	-126.920	47.228	0	266.20	0	6.5250	0	33.9490	0	26.658	0	263.815	0	78.2	4	26.2	4	-1E+10	1	-1E+10	1	-1E+10	1	-1E+10	1	-1E+10	1	-1E+10	1
4902663	36	C	07/25/2024	02:14	-126.920	47.228	0	267.10	0	6.5200	0	33.9500	0	26.659	0	264.706	0	77.9	4	26.0	4	-1E+10	1	-1E+10	1	-1E+10	1	-1E+10	1	-1E+10	1	-1E+10	1
4902663	36	C	07/25/2024	02:14	-126.920	47.228	0	268.00	0	6.5130	0	33.9510	0	26.661	0	265.598	0	77.6	4	26.0	4	-1E+10	1	-1E+10	1	-1E+10	1	-1E+10	1	-1E+10	1	-1E+10	1
4902663	36	C	07/25/2024	02:14	-126.920	47.228	0	269.00	0	6.5030	0	33.9510	0	26.662	0	266.588	0	77.4	4	25.9	4	-1E+10	1	-1E+10	1	-1E+10	1	-1E+10	1	-1E+10	1	-1E+10	1
4902663	36	C	07/25/2024	02:14	-126.920	47.228	0	269.80	0	6.4990	0	33.9520	0	26.664	0	267.380	0	77.2	4	25.8	4	-1E+10	1	-1E+10	1	-1E+10	1	-1E+10	1	-1E+10	1	-1E+10	1
4902663	36	C	07/25/2024	02:14	-126.920	47.228	0	270.70	0	6.4990	0	33.9540	0	26.665	0	268.272	0	76.9	4	25.7	4	-1E+10	1	-1E+10	1	-1E+10	1	-1E+10	1	-1E+10	1	-1E+10	1
4902663	36	C	07/25/2024	02:14	-126.920	47.228	0	271.60	0	6.4800	0	33.9540	0	26.668	0	269.163	0	76.6	4	25.6	4	-1E+10	1	-1E+10	1	-1E+10	1	-1E+10	1	-1E+10	1	-1E+10	1
4902663	36	C	07/25/2024	02:14	-126.920	47.228	0	272.90	0	6.4700	0	33.9550	0	26.670	0	270.451	0	76.3	4	25.5	4	-1E+10	1	-1E+10	1	-1E+10	1	-1E+10	1	-1E+10	1	-1E+10	1
4902663	36	C	07/25/2024	02:14	-126.920	47.228	0	274.30	0	6.4630	0	33.9550	0	26.671	0	271.837	0	75.9	4	25.4	4	-1E+10	1	-1E+10	1	-1E+10	1	-1E+10	1	-1E+10	1	-1E+10	1
4902663	36	C	07/25/2024	02:14	-126.920	47.228	0	275.20	0	6.4560	0	33.9550	0	26.672	0	272.728	0	75.6	4	25.2	4	-1E+10	1	-1E+10	1	-1E+10	1	-1E+10	1	-1E+10	1	-1E+10	1
4902663	36	C	07/25/2024	02:14	-126.920	47.228	0	276.10	0	6.4540	0	33.9550	0	26.672	0	273.620	0	75.3	4	25.2	4	-1E+10	1	-1E+10	1	-1E+10	1	-1E+10	1	-1E+10	1	-1E+10	1
4902663	36	C	07/25/2024	02:14	-126.920	47.228	0	277.00	0	6.4490	0	33.9560	0	26.674	0	274.511	0	75.0	4	25.0	4	-1E+10	1	-1E+10	1	-1E+10	1	-1E+10	1	-1E+10	1	-1E+10	1
4902663	36	C	07/25/2024	02:14	-126.920	47.228	0	277.90	0	6.4430	0	33.9560	0	26.674	0	275.402	0	74.6	4	24.9	4	-1E+10	1	-1E+10	1	-1E+10	1	-1E+10	1	-1E+10	1	-1E+10	1
4902663	36	C	07/25/2024	02:14	-126.920	47.228	0	278.80	0	6.4350	0	33.9590	0	26.678	0	276.294	0	74.3	4	24.8	4	-1E+10	1	-1E+10	1	-1E+10	1	-1E+10	1	-1E+10	1	-1E+10	1
4902663	36	C	07/25/2024	02:14	-126.920	47.228	0	279.60	0	6.4310	0	33.9570	0	26.677	0	277.086	0	73.9	4	24.7	4	-1E+10	1	-1E+10	1	-1E+10	1	-1E+10	1	-1E+10	1	-1E+10	1
4902663	36	C	07/25/2024	02:14	-126.920	47.228	0	280.90	0	6.4140	0	33.9590	0	26.680	0	278.373	0	73.4	4	24.5	4	-1E+10	1	-1E+10	1	-1E+10	1	-1E+10	1	-1E+10	1	-1E+10	1
4902663	36	C	07/25/2024	02:14	-126.920	47.228	0	282.30	0	6.4080	0	33.9610	0	26.683	0	279.760	0	73.0	4	24.4	4	-1E+10	1	-1E+10	1	-1E+10	1	-1E+10	1	-1E+10	1	-1E+10	1
4902663	36	C	07/25/2024	02:14	-126.920	47.228	0	283.30	0	6.4050	0	33.9620	0	26.684	0	280.750	0	72.8	4	24.3	4	-1E+10	1	-1E+10	1	-1E+10	1	-1E+10	1	-1E+10	1	-1E+10	1
4902663	36	C	07/25/2024	02:14	-126.920	47.228	0	284.20	0	6.4030	0	33.9630	0	26.685	0	281.641	0	72.5	4	24.2	4	-1E+10	1	-1E+10	1	-1E+10	1	-1E+10	1	-1E+10	1	-1E+10	1
4902663	36	C	07/25/2024	02:14	-126.920	47.228	0	285.10	0	6.3950	0	33.9630	0	26.686	0	282.533	0	72.2	4	24.1	4	-1E+10	1	-1E+10	1	-1E+10	1	-1E+10	1	-1E+10	1	-1E+10	1
4902663	36	C	07/25/2024	02:14	-126.920	47.228	0	286.00	0	6.3760	0	33.9640	0	26.689	0	283.424	0	71.9	4	24.0	4	-1E+10	1	-1E+10	1	-1E+10	1	-1E+10	1	-1E+10	1	-1E+10	1
4902663	36	C	07/25/2024	02:14	-126.920	47.228	0	286.90	0	6.3740	0	33.9630	0	26.689	0	284.315	0	71.6	4	23.9	4	-1E+10	1	-1E+10	1	-1E+10	1	-1E+10	1	-1E+10	1	-1E+10	1
4902663	36	C	07/25/2024	02:14	-126.920	47.228	0	287.80	0	6.3670	0	33.9640	0	26.691	0	285.206	0	71.3	4	23.8	4	-1E+10	1	-1E+10	1	-1E+10	1	-1E+10	1	-1E+10	1	-1E+10	1
4902663	36	C	07/25/2024	02:14	-126.920	47.228	0	288.70	0	6.3480	0	33.9660	0	26.695	0	286.098	0	71.1	4	23.7	4	-1E+10	1	-1E+10	1	-1E+10	1	-1E+10	1	-1E+10	1	-1E+10	1
4902663	36	C	07/25/2024	02:14	-126.920	47.228	0	289.60	0	6.3410	0	33.9660	0	26.696	0	286.989	0	70.8	4	23.6	4	-1E+10	1	-1E+10	1	-1E+10	1	-1E+10	1	-1E+10	1	-1E+10	1
4902663	36	C	07/25/2024	02:14	-126.920	47.228	0	290.50	0	6.3350	0	33.9660	0	26.696	0	287.880	0	70.5	4	23.5	4	-1E+10	1	-1E+10	1	-1E+10	1	-1E+10	1	-1E+10	1	-1E+10	1
4902663	36	C	07/25/2024	02:14	-126.920	47.228	0	291.90	0	6.3270	0	33.9670	0	26.698	0	289.267	0	70.2	4	23.4	4	-1E+10	1	-1E+10	1	-1E+10	1	-1E+10	1	-1E+10	1	-1E+10	1
4902663	36	C	07/25/2024	02:14	-126.920	47.228	0	293.30	0	6.3220	0	33.9660	0	26.698	0	290.653	0	69.8	4	23.3	4	-1E+10	1	-1E+10	1	-1E+10	1	-1E+10	1	-1E+10	1	-1E+10	1
4902663	36	C	07/25/2024	02:14	-126.920	47.228	0	294.20	0	6.3210	0	33.9660	0	26.698	0	291.544	0	69.6	4	23.2	4	-1E+10	1	-1E+10	1	-1E+10	1	-1E+10	1	-1E+10	1	-1E+10	1
4902663	36	C	07/25/2024	02:14	-126.920	47.228	0	295.20	0	6.3090	0	33.9680	0	26.701	0	292.535	0	69.3	4	23.1	4	-1E+10	1	-1E+10	1	-1E+10	1	-1E+10	1	-1E+10	1	-1E+10	1
4902663	36	C	07/25/2024	02:14	-126.920	47.228	0	296.10	0	6.3070	0	33.9680	0	26.702	0	293.426	0	69.0	4	23.0	4	-1E+10	1	-1E+10	1	-1E+10	1	-1E+10	1	-1E+10	1	-1E+10	1
4902663	36	C	07/25/2024	02:14	-126.920	47.228	0	297.00	0	6.3040	0	33.9680	0	26.702	0	294.317	0	68.7	4	22.9	4	-1E+10	1	-1E+10	1	-1E+10	1	-1E+10	1	-1E+10	1	-1E+10	1
4902663	36	C	07/25/2024	02:14	-126.920	47.228	0	298.00	0	6.2980	0	33.9680	0	26.703	0	295.307	0	68.4	4	22.8	4	-1E+10	1	-1E+10	1	-1E+10	1	-1E+10	1	-1E+10	1	-1E+10	1
4902663	36	C	07/25/2024	02:14	-126.920	47.228	0	298.90	0	6.2850	0	33.9700	0	26.706	0	296.199	0	68.1	4	22.7	4	-1E+10	1	-1E+10	1	-1E+10	1	-1E+10	1	-1E+10	1	-1E+10	1
4902663	36	C	07/25/2024	02:14	-126.920	47.228	0	299.80	0	6.2730	0	33.9710	0	26.708	0	297.090	0	67.8	4	22.6	4	-1E+10	1	-1E+10	1	-1E+10	1	-1E+10	1	-1E+10	1	-1E+10	1
4902663	36	C	07/25/2024	02:14	-126.920	47.228	0	300.70	0	6.2650	0	33.9710	0	26.709	0	297.981	0	67.5	4	22.5	4	-1E+10	1	-1E+10	1	-1E+10	1	-1E+10	1	-1E+10	1	-1E+10	1
4902663	36	C	07/25/2024	02:14	-126.920	47.228	0	301.70	0	6.2710	0	33.9720	0	26.709	0	298.971	0	67.2	4	22.3	4	-1E+10	1	-1E+10	1	-1E+10	1	-1E+10	1	-1E+10	1	-1E+10	1
4902663	36	C	07/25/2024	02:14	-126.920	47.228	0	302.60	0	6.2660	0	33.9720	0	26.710	0	299.862	0	67.0	4	22.3	4	-1E+10	1	-1E+10	1	-1E+10	1	-1E+10	1	-1E+10	1	-1E+10	1
4902663	36	C	07/25/2024	02:14	-126.920	47.228	0	303.90	0	6.2380	0	33.9720	0	26.714	0	301.150	0	66.5	4	22.1	4	-1E+10	1	-1E+10	1	-1E+10	1	-1E+10	1	-1E+10	1	-1E+10	1
4902663	36	C	07/25/2024	02:14	-126.920	47.228	0	305.30	0	6.2080	0	33.9700	0	26.716	0	302.536	0	66.0	4	21.9	4	-1E+10	1	-1E+10	1	-1E+10	1	-1E+10	1	-1E+10	1	-1E+10	1
4902663	36	C	07/25/2024	02:14	-126.920	47.228	0	306.30	0	6.2060	0	33.9700	0	26.716	0	303.526	0	65.5	4	21.8	4	-1E+10	1	-1E+10	1	-1E+10	1	-1E+10	1	-1E+10	1	-1E+10	1
4902663	36	C	07/25/2024	02:14	-126.920	47.228	0	307.20	0	6.2090	0	33.9730	0	26.718	0	304.417	0	65.2	4	21.7	4	-1E+10	1	-1E+10	1	-1E+10	1	-1E+10	1	-1E+10	1	-1E+10	1
4902663	36	C	07/25/2024	02:14	-126.920	47.228	0	308.10	0	6.1840	0	33.9760	0	26.724	0	305.309	0	64.9	4	21.5	4	-1E+10	1	-1E+10	1	-1E+10	1	-1E+10	1	-1E+10	1	-1E+10	1
4902663	36	C	07/25/2024	02:14	-126.920	47.228	0	309.00	0	6.1710	0	33.9730	0	26.723	0	306.200	0	64.4	4	21.4	4	-1E+10	1	-1E+10	1	-1E+10	1	-1E+10	1	-1E+10	1	-1E+10	1
4902663	36	C	07/25/2024	02:14	-126.920	47.228	0	309.90	0	6.1620	0	33.9740	0	26.725	0	307.091	0	64.0	4	21.2	4	-1E+10	1	-1E+10	1	-1E+10	1	-1E+10	1	-1E+10	1	-1E+10	1
4902663	36	C	07/25/2024	02:14	-126.920	47.228	0	310.80	0	6.1460	0	33.9750	0	26.728	0	307.982	0	63.7	4	21.1	4	-1E+10	1	-1E+10	1	-1E+10	1	-1E+10	1	-1E+10	1	-1E+10	1
4902663	36	C	07/25/2024	02:14	-126.920	47.228	0	311.70	0	6.1260	0	33.9760	0	26.731	0	308.873	0	63.5	4	21.0	4	-1E+10	1	-1E+10	1	-1E+10	1	-1E+10	1	-1E+10	1	-1E+10	1
4902663	36	C	07/25/2024	02:14	-126.920	47.228	0	312.70	0	6.1240	0	33.9770	0	26.732	0	309.864	0	63.2	4	20.9	4	-1E+10	1	-1E+10	1	-1E+10	1	-1E+10	1	-1E+10	1	-1E+10	1
4902663	36	C	07/25/2024	02:14	-126.920	47.228	0	313.60	0	6.1190	0	33.9790	0	26.734	0	310.755	0	62.9	4	20.9	4	-1E+10	1	-1E+10	1	-1E+10	1	-1E+10	1	-1E+10	1	-1E+10	1
4902663	36	C	07/25/2024	02:14	-126.920	47.228	0	314.90	0	6.1020	0	33.9770	0	26.735	0	312.042	0	62.5	4	20.7	4	-1E+10	1	-1E+10	1	-1E+10	1	-1E+10	1	-1E+10	1	-1E+10	1
4902663	36	C	07/25/2024	02:14	-126.920	47.228	0	316.30	0	6.0860	0	33.9780	0	26.738	0	313.428	0	62.1	4	20.6	4	-1E+10	1	-1E+10	1	-1E+10	1	-1E+10	1	-1E+10	1	-1E+10	1
4902663	36	C	07/25/2024	02:14	-126.920	47.228	0	317.20	0	6.0720	0	33.9780	0	26.740	0	314.319	0	61.7	4	20.4	4	-1E+10	1	-1E+10	1	-1E+10	1	-1E+10	1	-1E+10	1	-1E+10	1
4902663	36	C	07/25/2024	02:14	-126.920	47.228	0	318.10	0	6.0910	0	33.9850	0	26.743	0	315.210	0	61.4	4	20.3	4	-1E+10	1	-1E+10	1	-1E+10	1	-1E+10	1	-1E+10	1	-1E+10	1
4902663	36	C	07/25/2024	02:14	-126.920	47.228	0	318.90	0	6.0830	0	33.9890	0	26.747	0	316.003	0	61.2	4	20.3	4	-1E+10	1	-1E+10	1	-1E+10	1	-1E+10	1	-1E+10	1	-1E+10	1
4902663	36	C	07/25/2024	02:14	-126.920	47.228	0	319.80	0	6.0700	0	33.9870	0	26.747	0	316.894	0	61.1	4	20.2	4	-1E+10	1	-1E+10	1	-1E+10	1	-1E+10	1	-1E+10	1	-1E+10	1
4902663	36	C	07/25/2024	02:14	-126.920	47.228	0	320.70	0	6.0650	0	33.9870	0	26.748	0	317.785	0	60.9	4	20.2	4	-1E+10	1	-1E+10	1	-1E+10	1	-1E+10	1	-1E+10	1	-1E+10	1
4902663	36	C	07/25/2024	02:14	-126.920	47.228	0	321.60	0	6.0610	0	33.9880	0	26.749	0	318.676	0	60.8	4	20.1	4	-1E+10	1	-1E+10	1	-1E+10	1	-1E+10	1	-1E+10	1	-1E+10	1
4902663	36	C	07/25/2024	02:14	-126.920	47.228	0	322.90	0	6.0560	0	33.9870	0	26.749	0	319.963	0	60.5	4	20.0	4	-1E+10	1	-1E+10	1	-1E+10	1	-1E+10	1	-1E+10	1	-1E+10	1
4902663	36	C	07/25/2024	02:14	-126.920	47.228	0	324.20	0	6.0430	0	33.9870	0	26.750	0	321.250	0	60.2	4	19.9	4	-1E+10	1	-1E+10	1	-1E+10	1	-1E+10	1	-1E+10	1	-1E+10	1
4902663	36	C	07/25/2024	02:14	-126.920	47.228	0	325.10	0	6.0330	0	33.9870	0	26.752	0	322.141	0	59.9	4	19.8	4	-1E+10	1	-1E+10	1	-1E+10	1	-1E+10	1	-1E+10	1	-1E+10	1
4902663	36	C	07/25/2024	02:14	-126.920	47.228	0	326.00	0	6.0370	0	33.9890	0	26.753	0	323.032	0	59.7	4	19.8	4	-1E+10	1	-1E+10	1	-1E+10	1	-1E+10	1	-1E+10	1	-1E+10	1
4902663	36	C	07/25/2024	02:14	-126.920	47.228	0	326.90	0	6.0330	0	33.9900	0	26.754	0	323.924	0	59.5	4	19.7	4	-1E+10	1	-1E+10	1	-1E+10	1	-1E+10	1	-1E+10	1	-1E+10	1
4902663	36	C	07/25/2024	02:14	-126.920	47.228	0	327.80	0	6.0230	0	33.9910	0	26.756	0	324.815	0	59.3	4	19.6	4	-1E+10	1	-1E+10	1	-1E+10	1	-1E+10	1	-1E+10	1	-1E+10	1
4902663	36	C	07/25/2024	02:14	-126.920	47.228	0	328.70	0	6.0120	0	33.9910	0	26.758	0	325.706	0	59.1	4	19.5	4	-1E+10	1	-1E+10	1	-1E+10	1	-1E+10	1	-1E+10	1	-1E+10	1
4902663	36	C	07/25/2024	02:14	-126.920	47.228	0	329.60	0	6.0070	0	33.9920	0	26.759	0	326.597	0	58.9	4	19.5	4	-1E+10	1	-1E+10	1	-1E+10	1	-1E+10	1	-1E+10	1	-1E+10	1
4902663	36	C	07/25/2024	02:14	-126.920	47.228	0	330.90	0	6.0000	0	33.9910	0	26.759	0	327.884	0	58.7	4	19.4	4	-1E+10	1	-1E+10	1	-1E+10	1	-1E+10	1	-1E+10	1	-1E+10	1
4902663	36	C	07/25/2024	02:14	-126.920	47.228	0	332.20	0	5.9950	0	33.9920	0	26.760	0	329.171	0	58.4	4	19.3	4	-1E+10	1	-1E+10	1	-1E+10	1	-1E+10	1	-1E+10	1	-1E+10	1
4902663	36	C	07/25/2024	02:14	-126.920	47.228	0	333.20	0	5.9910	0	33.9920	0	26.761	0	330.161	0	58.2	4	19.2	4	-1E+10	1	-1E+10	1	-1E+10	1	-1E+10	1	-1E+10	1	-1E+10	1
4902663	36	C	07/25/2024	02:14	-126.920	47.228	0	334.00	0	5.9870	0	33.9920	0	26.762	0	330.953	0	57.9	4	19.1	4	-1E+10	1	-1E+10	1	-1E+10	1	-1E+10	1	-1E+10	1	-1E+10	1
4902663	36	C	07/25/2024	02:14	-126.920	47.228	0	334.90	0	5.9830	0	33.9920	0	26.762	0	331.844	0	57.7	4	19.1	4	-1E+10	1	-1E+10	1	-1E+10	1	-1E+10	1	-1E+10	1	-1E+10	1
4902663	36	C	07/25/2024	02:14	-126.920	47.228	0	335.80	0	5.9750	0	33.9920	0	26.763	0	332.735	0	57.4	4	19.0	4	-1E+10	1	-1E+10	1	-1E+10	1	-1E+10	1	-1E+10	1	-1E+10	1
4902663	36	C	07/25/2024	02:14	-126.920	47.228	0	336.70	0	5.9610	0	33.9930	0	26.766	0	333.626	0	57.2	4	18.9	4	-1E+10	1	-1E+10	1	-1E+10	1	-1E+10	1	-1E+10	1	-1E+10	1
4902663	36	C	07/25/2024	02:14	-126.920	47.228	0	337.60	0	5.9530	0	33.9920	0	26.766	0	334.518	0	56.9	4	18.8	4	-1E+10	1	-1E+10	1	-1E+10	1	-1E+10	1	-1E+10	1	-1E+10	1
4902663	36	C	07/25/2024	02:14	-126.920	47.228	0	338.90	0	5.9510	0	33.9920	0	26.766	0	335.805	0	56.6	4	18.7	4	-1E+10	1	-1E+10	1	-1E+10	1	-1E+10	1	-1E+10	1	-1E+10	1
4902663	36	C	07/25/2024	02:14	-126.920	47.228	0	340.30	0	5.9390	0	33.9940	0	26.769	0	337.191	0	56.1	4	18.5	4	-1E+10	1	-1E+10	1	-1E+10	1	-1E+10	1	-1E+10	1	-1E+10	1
4902663	36	C	07/25/2024	02:14	-126.920	47.228	0	341.20	0	5.9160	0	33.9930	0	26.771	0	338.082	0	55.9	4	18.5	4	-1E+10	1	-1E+10	1	-1E+10	1	-1E+10	1	-1E+10	1	-1E+10	1
4902663	36	C	07/25/2024	02:14	-126.920	47.228	0	342.10	0	5.9150	0	33.9950	0	26.773	0	338.973	0	55.7	4	18.4	4	-1E+10	1	-1E+10	1	-1E+10	1	-1E+10	1	-1E+10	1	-1E+10	1
4902663	36	C	07/25/2024	02:14	-126.920	47.228	0	343.00	0	5.9050	0	33.9970	0	26.776	0	339.864	0	55.5	4	18.3	4	-1E+10	1	-1E+10	1	-1E+10	1	-1E+10	1	-1E+10	1	-1E+10	1
4902663	36	C	07/25/2024	02:14	-126.920	47.228	0	343.80	0	5.8950	0	33.9960	0	26.776	0	340.656	0	55.3	4	18.2	4	-1E+10	1	-1E+10	1	-1E+10	1	-1E+10	1	-1E+10	1	-1E+10	1
4902663	36	C	07/25/2024	02:14	-126.920	47.228	0	344.70	0	5.8830	0	33.9970	0	26.779	0	341.547	0	55.0	4	18.1	4	-1E+10	1	-1E+10	1	-1E+10	1	-1E+10	1	-1E+10	1	-1E+10	1
4902663	36	C	07/25/2024	02:14	-126.920	47.228	0	345.60	0	5.8720	0	33.9970	0	26.780	0	342.438	0	54.8	4	18.1	4	-1E+10	1	-1E+10	1	-1E+10	1	-1E+10	1	-1E+10	1	-1E+10	1
4902663	36	C	07/25/2024	02:14	-126.920	47.228	0	346.90	0	5.8650	0	33.9980	0	26.782	0	343.725	0	54.4	4	17.9	4	-1E+10	1	-1E+10	1	-1E+10	1	-1E+10	1	-1E+10	1	-1E+10	1
4902663	36	C	07/25/2024	02:14	-126.920	47.228	0	348.20	0	5.8630	0	33.9980	0	26.782	0	345.012	0	54.0	4	17.8	4	-1E+10	1	-1E+10	1	-1E+10	1	-1E+10	1	-1E+10	1	-1E+10	1
4902663	36	C	07/25/2024	02:14	-126.920	47.228	0	349.10	0	5.8620	0	33.9980	0	26.782	0	345.903	0	53.7	4	17.7	4	-1E+10	1	-1E+10	1	-1E+10	1	-1E+10	1	-1E+10	1	-1E+10	1
4902663	36	C	07/25/2024	02:14	-126.920	47.228	0	350.00	0	5.8630	0	34.0000	0	26.783	0	346.794	0	53.5	4	17.6	4	-1E+10	1	-1E+10	1	-1E+10	1	-1E+10	1	-1E+10	1	-1E+10	1
4902663	36	C	07/25/2024	02:14	-126.920	47.228	0	353.10	0	5.8250	0	34.0020	0	26.790	0	349.863	0	52.7	4	17.4	4	-1E+10	1	-1E+10	1	-1E+10	1	-1E+10	1	-1E+10	1	-1E+10	1
4902663	36	C	07/25/2024	02:14	-126.920	47.228	0	358.20	0	5.7820	0	34.0050	0	26.797	0	354.912	0	51.7	4	17.0	4	-1E+10	1	-1E+10	1	-1E+10	1	-1E+10	1	-1E+10	1	-1E+10	1
4902663	36	C	07/25/2024	02:14	-126.920	47.228	0	362.80	0	5.7510	0	34.0070	0	26.803	0	359.466	0	50.8	4	16.7	4	-1E+10	1	-1E+10	1	-1E+10	1	-1E+10	1	-1E+10	1	-1E+10	1
4902663	36	C	07/25/2024	02:14	-126.920	47.228	0	368.00	0	5.7070	0	34.0090	0	26.810	0	364.613	0	49.7	4	16.3	4	-1E+10	1	-1E+10	1	-1E+10	1	-1E+10	1	-1E+10	1	-1E+10	1
4902663	36	C	07/25/2024	02:14	-126.920	47.228	0	373.20	0	5.6690	0	34.0110	0	26.816	0	369.761	0	48.3	4	15.8	4	-1E+10	1	-1E+10	1	-1E+10	1	-1E+10	1	-1E+10	1	-1E+10	1
4902663	36	C	07/25/2024	02:14	-126.920	47.228	0	378.00	0	5.6490	0	34.0140	0	26.821	0	374.512	0	47.1	4	15.4	4	-1E+10	1	-1E+10	1	-1E+10	1	-1E+10	1	-1E+10	1	-1E+10	1
4902663	36	C	07/25/2024	02:14	-126.920	47.228	0	382.80	0	5.6310	0	34.0190	0	26.827	0	379.263	0	45.7	4	15.0	4	-1E+10	1	-1E+10	1	-1E+10	1	-1E+10	1	-1E+10	1	-1E+10	1
4902663	36	C	07/25/2024	02:14	-126.920	47.228	0	387.70	0	5.6040	0	34.0240	0	26.834	0	384.114	0	44.5	4	14.6	4	-1E+10	1	-1E+10	1	-1E+10	1	-1E+10	1	-1E+10	1	-1E+10	1
4902663	36	C	07/25/2024	02:14	-126.920	47.228	0	392.70	0	5.5810	0	34.0270	0	26.840	0	389.063	0	43.5	4	14.2	4	-1E+10	1	-1E+10	1	-1E+10	1	-1E+10	1	-1E+10	1	-1E+10	1
4902663	36	C	07/25/2024	02:14	-126.920	47.228	0	397.60	0	5.5530	0	34.0310	0	26.846	0	393.913	0	42.7	4	14.0	4	-1E+10	1	-1E+10	1	-1E+10	1	-1E+10	1	-1E+10	1	-1E+10	1
4902663	36	C	07/25/2024	02:14	-126.920	47.228	0	402.50	0	5.5370	0	34.0330	0	26.850	0	398.763	0	41.7	4	13.7	4	-1E+10	1	-1E+10	1	-1E+10	1	-1E+10	1	-1E+10	1	-1E+10	1
4902663	36	C	07/25/2024	02:14	-126.920	47.228	0	407.50	0	5.5160	0	34.0360	0	26.855	0	403.711	0	40.8	4	13.3	4	-1E+10	1	-1E+10	1	-1E+10	1	-1E+10	1	-1E+10	1	-1E+10	1
4902663	36	C	07/25/2024	02:14	-126.920	47.228	0	412.70	0	5.4860	0	34.0400	0	26.861	0	408.858	0	39.9	4	13.0	4	-1E+10	1	-1E+10	1	-1E+10	1	-1E+10	1	-1E+10	1	-1E+10	1
4902663	36	C	07/25/2024	02:14	-126.920	47.228	0	417.70	0	5.4550	0	34.0440	0	26.868	0	413.806	0	39.0	4	12.7	4	-1E+10	1	-1E+10	1	-1E+10	1	-1E+10	1	-1E+10	1	-1E+10	1
4902663	36	C	07/25/2024	02:14	-126.920	47.228	0	422.60	0	5.4310	0	34.0450	0	26.872	0	418.656	0	37.8	4	12.3	4	-1E+10	1	-1E+10	1	-1E+10	1	-1E+10	1	-1E+10	1	-1E+10	1
4902663	36	C	07/25/2024	02:14	-126.920	47.228	0	427.50	0	5.4140	0	34.0530	0	26.880	0	423.505	0	36.6	4	12.0	4	-1E+10	1	-1E+10	1	-1E+10	1	-1E+10	1	-1E+10	1	-1E+10	1
4902663	36	C	07/25/2024	02:14	-126.920	47.228	0	432.50	0	5.3840	0	34.0580	0	26.888	0	428.453	0	35.9	4	11.7	4	-1E+10	1	-1E+10	1	-1E+10	1	-1E+10	1	-1E+10	1	-1E+10	1
4902663	36	C	07/25/2024	02:14	-126.920	47.228	0	437.90	0	5.3630	0	34.0610	0	26.893	0	433.797	0	35.2	4	11.5	4	-1E+10	1	-1E+10	1	-1E+10	1	-1E+10	1	-1E+10	1	-1E+10	1
4902663	36	C	07/25/2024	02:14	-126.920	47.228	0	443.40	0	5.3450	0	34.0640	0	26.897	0	439.240	0	34.4	4	11.2	4	-1E+10	1	-1E+10	1	-1E+10	1	-1E+10	1	-1E+10	1	-1E+10	1
4902663	36	C	07/25/2024	02:14	-126.920	47.228	0	448.30	0	5.3270	0	34.0660	0	26.901	0	444.088	0	33.5	4	10.9	4	-1E+10	1	-1E+10	1	-1E+10	1	-1E+10	1	-1E+10	1	-1E+10	1
4902663	36	C	07/25/2024	02:14	-126.920	47.228	0	453.30	0	5.3050	0	34.0710	0	26.908	0	449.036	0	32.6	4	10.6	4	-1E+10	1	-1E+10	1	-1E+10	1	-1E+10	1	-1E+10	1	-1E+10	1
4902663	36	C	07/25/2024	02:14	-126.920	47.228	0	458.20	0	5.2870	0	34.0740	0	26.912	0	453.885	0	31.8	4	10.3	4	-1E+10	1	-1E+10	1	-1E+10	1	-1E+10	1	-1E+10	1	-1E+10	1
4902663	36	C	07/25/2024	02:14	-126.920	47.228	0	463.30	0	5.2610	0	34.0780	0	26.919	0	458.931	0	30.9	4	10.0	4	-1E+10	1	-1E+10	1	-1E+10	1	-1E+10	1	-1E+10	1	-1E+10	1
4902663	36	C	07/25/2024	02:14	-126.920	47.228	0	467.90	0	5.2410	0	34.0810	0	26.923	0	463.482	0	30.1	4	9.8	4	-1E+10	1	-1E+10	1	-1E+10	1	-1E+10	1	-1E+10	1	-1E+10	1
4902663	36	C	07/25/2024	02:14	-126.920	47.228	0	472.50	0	5.2180	0	34.0840	0	26.928	0	468.034	0	29.2	4	9.5	4	-1E+10	1	-1E+10	1	-1E+10	1	-1E+10	1	-1E+10	1	-1E+10	1
4902663	36	C	07/25/2024	02:14	-126.920	47.228	0	478.00	0	5.1890	0	34.0900	0	26.937	0	473.475	0	28.1	4	9.1	4	-1E+10	1	-1E+10	1	-1E+10	1	-1E+10	1	-1E+10	1	-1E+10	1
4902663	36	C	07/25/2024	02:14	-126.920	47.228	0	483.00	0	5.1580	0	34.0970	0	26.946	0	478.422	0	27.3	4	8.9	4	-1E+10	1	-1E+10	1	-1E+10	1	-1E+10	1	-1E+10	1	-1E+10	1
4902663	36	C	07/25/2024	02:14	-126.920	47.228	0	487.70	0	5.1500	0	34.0990	0	26.948	0	483.072	0	26.8	4	8.7	4	-1E+10	1	-1E+10	1	-1E+10	1	-1E+10	1	-1E+10	1	-1E+10	1
4902663	36	C	07/25/2024	02:14	-126.920	47.228	0	492.90	0	5.1310	0	34.1020	0	26.953	0	488.217	0	26.2	4	8.5	4	-1E+10	1	-1E+10	1	-1E+10	1	-1E+10	1	-1E+10	1	-1E+10	1
4902663	36	C	07/25/2024	02:14	-126.920	47.228	0	498.20	0	5.1140	0	34.1030	0	26.956	0	493.460	0	25.5	4	8.3	4	-1E+10	1	-1E+10	1	-1E+10	1	-1E+10	1	-1E+10	1	-1E+10	1
4902663	36	C	07/25/2024	02:14	-126.920	47.228	0	503.20	0	5.0920	0	34.1070	0	26.961	0	498.407	0	24.8	4	8.0	4	-1E+10	1	-1E+10	1	-1E+10	1	-1E+10	1	-1E+10	1	-1E+10	1
4902663	36	C	07/25/2024	02:14	-126.920	47.228	0	507.90	0	5.0440	0	34.1090	0	26.969	0	503.056	0	24.0	4	7.8	4	-1E+10	1	-1E+10	1	-1E+10	1	-1E+10	1	-1E+10	1	-1E+10	1
4902663	36	C	07/25/2024	02:14	-126.920	47.228	0	512.60	0	5.0230	0	34.1150	0	26.976	0	507.706	0	23.2	4	7.5	4	-1E+10	1	-1E+10	1	-1E+10	1	-1E+10	1	-1E+10	1	-1E+10	1
4902663	36	C	07/25/2024	02:14	-126.920	47.228	0	517.80	0	4.9990	0	34.1190	0	26.982	0	512.850	0	22.5	4	7.3	4	-1E+10	1	-1E+10	1	-1E+10	1	-1E+10	1	-1E+10	1	-1E+10	1
4902663	36	C	07/25/2024	02:14	-126.920	47.228	0	523.10	0	4.9810	0	34.1210	0	26.985	0	518.092	0	21.7	4	7.0	4	-1E+10	1	-1E+10	1	-1E+10	1	-1E+10	1	-1E+10	1	-1E+10	1
4902663	36	C	07/25/2024	02:14	-126.920	47.228	0	527.90	0	4.9660	0	34.1280	0	26.993	0	522.840	0	20.7	4	6.7	4	-1E+10	1	-1E+10	1	-1E+10	1	-1E+10	1	-1E+10	1	-1E+10	1
4902663	36	C	07/25/2024	02:14	-126.920	47.228	0	532.80	0	4.9610	0	34.1340	0	26.998	0	527.687	0	20.2	4	6.5	4	-1E+10	1	-1E+10	1	-1E+10	1	-1E+10	1	-1E+10	1	-1E+10	1
4902663	36	C	07/25/2024	02:14	-126.920	47.228	0	537.70	0	4.9140	0	34.1350	0	27.004	0	532.534	0	19.7	4	6.4	4	-1E+10	1	-1E+10	1	-1E+10	1	-1E+10	1	-1E+10	1	-1E+10	1
4902663	36	C	07/25/2024	02:14	-126.920	47.228	0	542.70	0	4.8580	0	34.1360	0	27.011	0	537.479	0	19.0	4	6.1	4	-1E+10	1	-1E+10	1	-1E+10	1	-1E+10	1	-1E+10	1	-1E+10	1
4902663	36	C	07/25/2024	02:14	-126.920	47.228	0	548.20	0	4.8670	0	34.1450	0	27.017	0	542.919	0	18.2	4	5.9	4	-1E+10	1	-1E+10	1	-1E+10	1	-1E+10	1	-1E+10	1	-1E+10	1
4902663	36	C	07/25/2024	02:14	-126.920	47.228	0	553.10	0	4.8520	0	34.1490	0	27.022	0	547.766	0	17.7	4	5.7	4	-1E+10	1	-1E+10	1	-1E+10	1	-1E+10	1	-1E+10	1	-1E+10	1
4902663	36	C	07/25/2024	02:14	-126.920	47.228	0	557.90	0	4.8230	0	34.1530	0	27.029	0	552.513	0	17.3	4	5.6	4	-1E+10	1	-1E+10	1	-1E+10	1	-1E+10	1	-1E+10	1	-1E+10	1
4902663	36	C	07/25/2024	02:14	-126.920	47.228	0	562.80	0	4.8030	0	34.1550	0	27.033	0	557.359	0	17.0	4	5.5	4	-1E+10	1	-1E+10	1	-1E+10	1	-1E+10	1	-1E+10	1	-1E+10	1
4902663	36	C	07/25/2024	02:14	-126.920	47.228	0	567.70	0	4.7410	0	34.1540	0	27.039	0	562.205	0	16.5	4	5.3	4	-1E+10	1	-1E+10	1	-1E+10	1	-1E+10	1	-1E+10	1	-1E+10	1
4902663	36	C	07/25/2024	02:14	-126.920	47.228	0	573.00	0	4.7360	0	34.1580	0	27.043	0	567.447	0	15.8	4	5.1	4	-1E+10	1	-1E+10	1	-1E+10	1	-1E+10	1	-1E+10	1	-1E+10	1
4902663	36	C	07/25/2024	02:14	-126.920	47.228	0	578.10	0	4.7250	0	34.1660	0	27.050	0	572.490	0	15.2	4	4.9	4	-1E+10	1	-1E+10	1	-1E+10	1	-1E+10	1	-1E+10	1	-1E+10	1
4902663	36	C	07/25/2024	02:14	-126.920	47.228	0	583.30	0	4.6950	0	34.1700	0	27.057	0	577.632	0	14.7	4	4.7	4	-1E+10	1	-1E+10	1	-1E+10	1	-1E+10	1	-1E+10	1	-1E+10	1
4902663	36	C	07/25/2024	02:14	-126.920	47.228	0	587.90	0	4.6730	0	34.1740	0	27.062	0	582.181	0	14.3	4	4.6	4	-1E+10	1	-1E+10	1	-1E+10	1	-1E+10	1	-1E+10	1	-1E+10	1
4902663	36	C	07/25/2024	02:14	-126.920	47.228	0	592.60	0	4.6690	0	34.1780	0	27.066	0	586.829	0	13.8	4	4.4	4	-1E+10	1	-1E+10	1	-1E+10	1	-1E+10	1	-1E+10	1	-1E+10	1
4902663	36	C	07/25/2024	02:14	-126.920	47.228	0	597.70	0	4.6440	0	34.1830	0	27.073	0	591.872	0	13.5	4	4.3	4	-1E+10	1	-1E+10	1	-1E+10	1	-1E+10	1	-1E+10	1	-1E+10	1
4902663	36	C	07/25/2024	02:14	-126.920	47.228	0	602.70	0	4.6080	0	34.1860	0	27.079	0	596.816	0	13.1	4	4.2	4	-1E+10	1	-1E+10	1	-1E+10	1	-1E+10	1	-1E+10	1	-1E+10	1
4902663	36	C	07/25/2024	02:14	-126.920	47.228	0	607.60	0	4.5550	0	34.1870	0	27.086	0	601.661	0	12.8	4	4.1	4	-1E+10	1	-1E+10	1	-1E+10	1	-1E+10	1	-1E+10	1	-1E+10	1
4902663	36	C	07/25/2024	02:14	-126.920	47.228	0	612.90	0	4.5200	0	34.1910	0	27.093	0	606.902	0	12.3	4	3.9	4	-1E+10	1	-1E+10	1	-1E+10	1	-1E+10	1	-1E+10	1	-1E+10	1
4902663	36	C	07/25/2024	02:14	-126.920	47.228	0	618.30	0	4.4900	0	34.1970	0	27.101	0	612.241	0	11.9	4	3.8	4	-1E+10	1	-1E+10	1	-1E+10	1	-1E+10	1	-1E+10	1	-1E+10	1
4902663	36	C	07/25/2024	02:14	-126.920	47.228	0	622.90	0	4.4750	0	34.2010	0	27.106	0	616.789	0	11.6	4	3.7	4	-1E+10	1	-1E+10	1	-1E+10	1	-1E+10	1	-1E+10	1	-1E+10	1
4902663	36	C	07/25/2024	02:14	-126.920	47.228	0	627.70	0	4.4620	0	34.2040	0	27.109	0	621.535	0	11.3	4	3.6	4	-1E+10	1	-1E+10	1	-1E+10	1	-1E+10	1	-1E+10	1	-1E+10	1
4902663	36	C	07/25/2024	02:14	-126.920	47.228	0	633.00	0	4.4500	0	34.2090	0	27.115	0	626.775	0	11.0	4	3.5	4	-1E+10	1	-1E+10	1	-1E+10	1	-1E+10	1	-1E+10	1	-1E+10	1
4902663	36	C	07/25/2024	02:14	-126.920	47.228	0	638.00	0	4.4270	0	34.2130	0	27.120	0	631.718	0	10.7	4	3.4	4	-1E+10	1	-1E+10	1	-1E+10	1	-1E+10	1	-1E+10	1	-1E+10	1
4902663	36	C	07/25/2024	02:14	-126.920	47.228	0	643.00	0	4.4110	0	34.2160	0	27.125	0	636.661	0	10.5	4	3.4	4	-1E+10	1	-1E+10	1	-1E+10	1	-1E+10	1	-1E+10	1	-1E+10	1
4902663	36	C	07/25/2024	02:14	-126.920	47.228	0	648.10	0	4.4000	0	34.2190	0	27.128	0	641.703	0	10.3	4	3.3	4	-1E+10	1	-1E+10	1	-1E+10	1	-1E+10	1	-1E+10	1	-1E+10	1
4902663	36	C	07/25/2024	02:14	-126.920	47.228	0	652.80	0	4.3990	0	34.2210	0	27.130	0	646.349	0	10.1	4	3.2	4	-1E+10	1	-1E+10	1	-1E+10	1	-1E+10	1	-1E+10	1	-1E+10	1
4902663	36	C	07/25/2024	02:14	-126.920	47.228	0	657.60	0	4.4000	0	34.2250	0	27.133	0	651.094	0	10.0	4	3.2	4	-1E+10	1	-1E+10	1	-1E+10	1	-1E+10	1	-1E+10	1	-1E+10	1
4902663	36	C	07/25/2024	02:14	-126.920	47.228	0	662.60	0	4.3910	0	34.2270	0	27.136	0	656.037	0	9.8	4	3.1	4	-1E+10	1	-1E+10	1	-1E+10	1	-1E+10	1	-1E+10	1	-1E+10	1
4902663	36	C	07/25/2024	02:14	-126.920	47.228	0	667.50	0	4.3790	0	34.2290	0	27.138	0	660.881	0	9.6	4	3.1	4	-1E+10	1	-1E+10	1	-1E+10	1	-1E+10	1	-1E+10	1	-1E+10	1
4902663	36	C	07/25/2024	02:14	-126.920	47.228	0	672.50	0	4.3660	0	34.2300	0	27.141	0	665.823	0	9.4	4	3.0	4	-1E+10	1	-1E+10	1	-1E+10	1	-1E+10	1	-1E+10	1	-1E+10	1
4902663	36	C	07/25/2024	02:14	-126.920	47.228	0	677.60	0	4.3650	0	34.2360	0	27.146	0	670.864	0	9.1	4	2.9	4	-1E+10	1	-1E+10	1	-1E+10	1	-1E+10	1	-1E+10	1	-1E+10	1
4902663	36	C	07/25/2024	02:14	-126.920	47.228	0	682.80	0	4.3610	0	34.2420	0	27.151	0	676.004	0	8.9	4	2.8	4	-1E+10	1	-1E+10	1	-1E+10	1	-1E+10	1	-1E+10	1	-1E+10	1
4902663	36	C	07/25/2024	02:14	-126.920	47.228	0	688.00	0	4.3430	0	34.2460	0	27.156	0	681.144	0	8.7	4	2.8	4	-1E+10	1	-1E+10	1	-1E+10	1	-1E+10	1	-1E+10	1	-1E+10	1
4902663	36	C	07/25/2024	02:14	-126.920	47.228	0	693.00	0	4.3310	0	34.2500	0	27.160	0	686.086	0	8.6	4	2.7	4	-1E+10	1	-1E+10	1	-1E+10	1	-1E+10	1	-1E+10	1	-1E+10	1
4902663	36	C	07/25/2024	02:14	-126.920	47.228	0	698.00	0	4.3140	0	34.2540	0	27.166	0	691.028	0	8.4	4	2.7	4	-1E+10	1	-1E+10	1	-1E+10	1	-1E+10	1	-1E+10	1	-1E+10	1
4902663	36	C	07/25/2024	02:14	-126.920	47.228	0	703.00	0	4.2980	0	34.2570	0	27.170	0	695.970	0	8.2	4	2.6	4	-1E+10	1	-1E+10	1	-1E+10	1	-1E+10	1	-1E+10	1	-1E+10	1
4902663	36	C	07/25/2024	02:14	-126.920	47.228	0	707.80	0	4.2790	0	34.2590	0	27.173	0	700.713	0	8.1	4	2.6	4	-1E+10	1	-1E+10	1	-1E+10	1	-1E+10	1	-1E+10	1	-1E+10	1
4902663	36	C	07/25/2024	02:14	-126.920	47.228	0	712.70	0	4.2640	0	34.2630	0	27.178	0	705.556	0	8.0	4	2.5	4	-1E+10	1	-1E+10	1	-1E+10	1	-1E+10	1	-1E+10	1	-1E+10	1
4902663	36	C	07/25/2024	02:14	-126.920	47.228	0	717.60	0	4.2460	0	34.2650	0	27.182	0	710.399	0	7.9	4	2.5	4	-1E+10	1	-1E+10	1	-1E+10	1	-1E+10	1	-1E+10	1	-1E+10	1
4902663	36	C	07/25/2024	02:14	-126.920	47.228	0	722.80	0	4.2290	0	34.2680	0	27.186	0	715.538	0	7.8	4	2.5	4	-1E+10	1	-1E+10	1	-1E+10	1	-1E+10	1	-1E+10	1	-1E+10	1
4902663	36	C	07/25/2024	02:14	-126.920	47.228	0	728.00	0	4.2140	0	34.2700	0	27.189	0	720.676	0	7.7	4	2.5	4	-1E+10	1	-1E+10	1	-1E+10	1	-1E+10	1	-1E+10	1	-1E+10	1
4902663	36	C	07/25/2024	02:14	-126.920	47.228	0	732.90	0	4.2010	0	34.2720	0	27.192	0	725.519	0	7.6	4	2.4	4	-1E+10	1	-1E+10	1	-1E+10	1	-1E+10	1	-1E+10	1	-1E+10	1
4902663	36	C	07/25/2024	02:14	-126.920	47.228	0	737.80	0	4.1880	0	34.2750	0	27.196	0	730.361	0	7.5	4	2.4	4	-1E+10	1	-1E+10	1	-1E+10	1	-1E+10	1	-1E+10	1	-1E+10	1
4902663	36	C	07/25/2024	02:14	-126.920	47.228	0	742.80	0	4.1760	0	34.2770	0	27.199	0	735.301	0	7.5	4	2.4	4	-1E+10	1	-1E+10	1	-1E+10	1	-1E+10	1	-1E+10	1	-1E+10	1
4902663	36	C	07/25/2024	02:14	-126.920	47.228	0	747.90	0	4.1640	0	34.2800	0	27.202	0	740.341	0	7.4	4	2.3	4	-1E+10	1	-1E+10	1	-1E+10	1	-1E+10	1	-1E+10	1	-1E+10	1
4902663	36	C	07/25/2024	02:14	-126.920	47.228	0	753.00	0	4.1510	0	34.2830	0	27.206	0	745.380	0	7.3	4	2.3	4	-1E+10	1	-1E+10	1	-1E+10	1	-1E+10	1	-1E+10	1	-1E+10	1
4902663	36	C	07/25/2024	02:14	-126.920	47.228	0	757.70	0	4.1460	0	34.2840	0	27.207	0	750.024	0	7.3	4	2.3	4	-1E+10	1	-1E+10	1	-1E+10	1	-1E+10	1	-1E+10	1	-1E+10	1
4902663	36	C	07/25/2024	02:14	-126.920	47.228	0	762.90	0	4.1380	0	34.2860	0	27.210	0	755.162	0	7.3	4	2.3	4	-1E+10	1	-1E+10	1	-1E+10	1	-1E+10	1	-1E+10	1	-1E+10	1
4902663	36	C	07/25/2024	02:14	-126.920	47.228	0	768.20	0	4.1350	0	34.2880	0	27.212	0	760.399	0	7.2	4	2.3	4	-1E+10	1	-1E+10	1	-1E+10	1	-1E+10	1	-1E+10	1	-1E+10	1
4902663	36	C	07/25/2024	02:14	-126.920	47.228	0	773.00	0	4.1260	0	34.2900	0	27.214	0	765.141	0	7.1	4	2.3	4	-1E+10	1	-1E+10	1	-1E+10	1	-1E+10	1	-1E+10	1	-1E+10	1
4902663	36	C	07/25/2024	02:14	-126.920	47.228	0	777.90	0	4.1160	0	34.2930	0	27.218	0	769.982	0	7.1	4	2.2	4	-1E+10	1	-1E+10	1	-1E+10	1	-1E+10	1	-1E+10	1	-1E+10	1
4902663	36	C	07/25/2024	02:14	-126.920	47.228	0	782.80	0	4.1030	0	34.2950	0	27.221	0	774.823	0	7.0	4	2.2	4	-1E+10	1	-1E+10	1	-1E+10	1	-1E+10	1	-1E+10	1	-1E+10	1
4902663	36	C	07/25/2024	02:14	-126.920	47.228	0	787.70	0	4.0950	0	34.2990	0	27.225	0	779.664	0	7.0	4	2.2	4	-1E+10	1	-1E+10	1	-1E+10	1	-1E+10	1	-1E+10	1	-1E+10	1
4902663	36	C	07/25/2024	02:14	-126.920	47.228	0	792.70	0	4.0760	0	34.3000	0	27.228	0	784.604	0	6.9	4	2.2	4	-1E+10	1	-1E+10	1	-1E+10	1	-1E+10	1	-1E+10	1	-1E+10	1
4902663	36	C	07/25/2024	02:14	-126.920	47.228	0	797.70	0	4.0600	0	34.3030	0	27.232	0	789.543	0	6.9	4	2.2	4	-1E+10	1	-1E+10	1	-1E+10	1	-1E+10	1	-1E+10	1	-1E+10	1
4902663	36	C	07/25/2024	02:14	-126.920	47.228	0	802.60	0	4.0520	0	34.3060	0	27.235	0	794.384	0	6.8	4	2.2	4	-1E+10	1	-1E+10	1	-1E+10	1	-1E+10	1	-1E+10	1	-1E+10	1
4902663	36	C	07/25/2024	02:14	-126.920	47.228	0	807.50	0	4.0390	0	34.3090	0	27.239	0	799.224	0	6.8	4	2.2	4	-1E+10	1	-1E+10	1	-1E+10	1	-1E+10	1	-1E+10	1	-1E+10	1
4902663	36	C	07/25/2024	02:14	-126.920	47.228	0	812.90	0	4.0230	0	34.3110	0	27.242	0	804.559	0	6.8	4	2.1	4	-1E+10	1	-1E+10	1	-1E+10	1	-1E+10	1	-1E+10	1	-1E+10	1
4902663	36	C	07/25/2024	02:14	-126.920	47.228	0	818.20	0	4.0130	0	34.3130	0	27.245	0	809.794	0	6.8	4	2.1	4	-1E+10	1	-1E+10	1	-1E+10	1	-1E+10	1	-1E+10	1	-1E+10	1
4902663	36	C	07/25/2024	02:14	-126.920	47.228	0	823.00	0	4.0010	0	34.3150	0	27.247	0	814.535	0	6.8	4	2.1	4	-1E+10	1	-1E+10	1	-1E+10	1	-1E+10	1	-1E+10	1	-1E+10	1
4902663	36	C	07/25/2024	02:14	-126.920	47.228	0	827.80	0	3.9900	0	34.3180	0	27.251	0	819.277	0	6.7	4	2.1	4	-1E+10	1	-1E+10	1	-1E+10	1	-1E+10	1	-1E+10	1	-1E+10	1
4902663	36	C	07/25/2024	02:14	-126.920	47.228	0	832.60	0	3.9780	0	34.3200	0	27.254	0	824.018	0	6.7	4	2.1	4	-1E+10	1	-1E+10	1	-1E+10	1	-1E+10	1	-1E+10	1	-1E+10	1
4902663	36	C	07/25/2024	02:14	-126.920	47.228	0	837.90	0	3.9670	0	34.3230	0	27.257	0	829.253	0	6.7	4	2.1	4	-1E+10	1	-1E+10	1	-1E+10	1	-1E+10	1	-1E+10	1	-1E+10	1
4902663	36	C	07/25/2024	02:14	-126.920	47.228	0	843.10	0	3.9610	0	34.3270	0	27.261	0	834.389	0	6.7	4	2.1	4	-1E+10	1	-1E+10	1	-1E+10	1	-1E+10	1	-1E+10	1	-1E+10	1
4902663	36	C	07/25/2024	02:14	-126.920	47.228	0	847.80	0	3.9550	0	34.3280	0	27.263	0	839.031	0	6.7	4	2.1	4	-1E+10	1	-1E+10	1	-1E+10	1	-1E+10	1	-1E+10	1	-1E+10	1
4902663	36	C	07/25/2024	02:14	-126.920	47.228	0	852.90	0	3.9370	0	34.3310	0	27.267	0	844.068	0	6.7	4	2.1	4	-1E+10	1	-1E+10	1	-1E+10	1	-1E+10	1	-1E+10	1	-1E+10	1
4902663	36	C	07/25/2024	02:14	-126.920	47.228	0	858.10	0	3.9210	0	34.3340	0	27.271	0	849.203	0	6.8	4	2.1	4	-1E+10	1	-1E+10	1	-1E+10	1	-1E+10	1	-1E+10	1	-1E+10	1
4902663	36	C	07/25/2024	02:14	-126.920	47.228	0	862.70	0	3.8990	0	34.3370	0	27.276	0	853.746	0	6.8	4	2.1	4	-1E+10	1	-1E+10	1	-1E+10	1	-1E+10	1	-1E+10	1	-1E+10	1
4902663	36	C	07/25/2024	02:14	-126.920	47.228	0	867.80	0	3.8730	0	34.3410	0	27.281	0	858.783	0	6.8	4	2.1	4	-1E+10	1	-1E+10	1	-1E+10	1	-1E+10	1	-1E+10	1	-1E+10	1
4902663	36	C	07/25/2024	02:14	-126.920	47.228	0	872.80	0	3.8490	0	34.3430	0	27.286	0	863.720	0	6.8	4	2.1	4	-1E+10	1	-1E+10	1	-1E+10	1	-1E+10	1	-1E+10	1	-1E+10	1
4902663	36	C	07/25/2024	02:14	-126.920	47.228	0	877.80	0	3.8410	0	34.3460	0	27.289	0	868.658	0	6.8	4	2.2	4	-1E+10	1	-1E+10	1	-1E+10	1	-1E+10	1	-1E+10	1	-1E+10	1
4902663	36	C	07/25/2024	02:14	-126.920	47.228	0	882.90	0	3.8340	0	34.3470	0	27.290	0	873.694	0	6.8	4	2.2	4	-1E+10	1	-1E+10	1	-1E+10	1	-1E+10	1	-1E+10	1	-1E+10	1
4902663	36	C	07/25/2024	02:14	-126.920	47.228	0	887.80	0	3.8230	0	34.3500	0	27.294	0	878.533	0	6.9	4	2.2	4	-1E+10	1	-1E+10	1	-1E+10	1	-1E+10	1	-1E+10	1	-1E+10	1
4902663	36	C	07/25/2024	02:14	-126.920	47.228	0	892.80	0	3.8130	0	34.3520	0	27.296	0	883.470	0	6.9	4	2.2	4	-1E+10	1	-1E+10	1	-1E+10	1	-1E+10	1	-1E+10	1	-1E+10	1
4902663	36	C	07/25/2024	02:14	-126.920	47.228	0	897.60	0	3.7910	0	34.3520	0	27.299	0	888.210	0	6.9	4	2.2	4	-1E+10	1	-1E+10	1	-1E+10	1	-1E+10	1	-1E+10	1	-1E+10	1
4902663	36	C	07/25/2024	02:14	-126.920	47.228	0	902.90	0	3.7720	0	34.3530	0	27.301	0	893.443	0	7.0	4	2.2	4	-1E+10	1	-1E+10	1	-1E+10	1	-1E+10	1	-1E+10	1	-1E+10	1
4902663	36	C	07/25/2024	02:14	-126.920	47.228	0	908.20	0	3.7690	0	34.3550	0	27.303	0	898.676	0	7.0	4	2.2	4	-1E+10	1	-1E+10	1	-1E+10	1	-1E+10	1	-1E+10	1	-1E+10	1
4902663	36	C	07/25/2024	02:14	-126.920	47.228	0	913.10	0	3.7630	0	34.3590	0	27.307	0	903.514	0	7.1	4	2.2	4	-1E+10	1	-1E+10	1	-1E+10	1	-1E+10	1	-1E+10	1	-1E+10	1
4902663	36	C	07/25/2024	02:14	-126.920	47.228	0	918.00	0	3.7510	0	34.3630	0	27.312	0	908.352	0	7.2	4	2.2	4	-1E+10	1	-1E+10	1	-1E+10	1	-1E+10	1	-1E+10	1	-1E+10	1
4902663	36	C	07/25/2024	02:14	-126.920	47.228	0	923.00	0	3.7380	0	34.3650	0	27.314	0	913.289	0	7.2	4	2.3	4	-1E+10	1	-1E+10	1	-1E+10	1	-1E+10	1	-1E+10	1	-1E+10	1
4902663	36	C	07/25/2024	02:14	-126.920	47.228	0	927.80	0	3.7210	0	34.3680	0	27.319	0	918.028	0	7.3	4	2.3	4	-1E+10	1	-1E+10	1	-1E+10	1	-1E+10	1	-1E+10	1	-1E+10	1
4902663	36	C	07/25/2024	02:14	-126.920	47.228	0	932.80	0	3.7120	0	34.3700	0	27.321	0	922.964	0	7.3	4	2.3	4	-1E+10	1	-1E+10	1	-1E+10	1	-1E+10	1	-1E+10	1	-1E+10	1
4902663	36	C	07/25/2024	02:14	-126.920	47.228	0	937.70	0	3.6960	0	34.3720	0	27.324	0	927.801	0	7.4	4	2.3	4	-1E+10	1	-1E+10	1	-1E+10	1	-1E+10	1	-1E+10	1	-1E+10	1
4902663	36	C	07/25/2024	02:14	-126.920	47.228	0	942.80	0	3.6850	0	34.3740	0	27.327	0	932.836	0	7.5	4	2.4	4	-1E+10	1	-1E+10	1	-1E+10	1	-1E+10	1	-1E+10	1	-1E+10	1
4902663	36	C	07/25/2024	02:14	-126.920	47.228	0	947.80	0	3.6720	0	34.3760	0	27.330	0	937.772	0	7.6	4	2.4	4	-1E+10	1	-1E+10	1	-1E+10	1	-1E+10	1	-1E+10	1	-1E+10	1
4902663	36	C	07/25/2024	02:14	-126.920	47.228	0	952.90	0	3.6500	0	34.3800	0	27.335	0	942.807	0	7.7	4	2.4	4	-1E+10	1	-1E+10	1	-1E+10	1	-1E+10	1	-1E+10	1	-1E+10	1
4902663	36	C	07/25/2024	02:14	-126.920	47.228	0	958.00	0	3.6380	0	34.3810	0	27.337	0	947.841	0	7.8	4	2.4	4	-1E+10	1	-1E+10	1	-1E+10	1	-1E+10	1	-1E+10	1	-1E+10	1
4902663	36	C	07/25/2024	02:14	-126.920	47.228	0	963.20	0	3.6300	0	34.3840	0	27.340	0	952.974	0	7.9	4	2.5	4	-1E+10	1	-1E+10	1	-1E+10	1	-1E+10	1	-1E+10	1	-1E+10	1
4902663	36	C	07/25/2024	02:14	-126.920	47.228	0	968.00	0	3.6160	0	34.3860	0	27.343	0	957.712	0	7.9	4	2.5	4	-1E+10	1	-1E+10	1	-1E+10	1	-1E+10	1	-1E+10	1	-1E+10	1
4902663	36	C	07/25/2024	02:14	-126.920	47.228	0	972.80	0	3.5910	0	34.3880	0	27.348	0	962.450	0	8.0	4	2.5	4	-1E+10	1	-1E+10	1	-1E+10	1	-1E+10	1	-1E+10	1	-1E+10	1
4902663	36	C	07/25/2024	02:14	-126.920	47.228	0	977.60	0	3.5740	0	34.3880	0	27.349	0	967.188	0	8.1	4	2.5	4	-1E+10	1	-1E+10	1	-1E+10	1	-1E+10	1	-1E+10	1	-1E+10	1
4902663	36	C	07/25/2024	02:14	-126.920	47.228	0	982.90	0	3.5470	0	34.3900	0	27.353	0	972.419	0	8.2	4	2.6	4	-1E+10	1	-1E+10	1	-1E+10	1	-1E+10	1	-1E+10	1	-1E+10	1
4902663	36	C	07/25/2024	02:14	-126.920	47.228	0	988.30	0	3.5280	0	34.3930	0	27.358	0	977.749	0	8.3	4	2.6	4	-1E+10	1	-1E+10	1	-1E+10	1	-1E+10	1	-1E+10	1	-1E+10	1
4902663	36	C	07/25/2024	02:14	-126.920	47.228	0	993.30	0	3.5070	0	34.3940	0	27.361	0	982.684	0	8.3	4	2.6	4	-1E+10	1	-1E+10	1	-1E+10	1	-1E+10	1	-1E+10	1	-1E+10	1
4902663	36	C	07/25/2024	02:14	-126.920	47.228	0	998.30	0	3.4900	0	34.3940	0	27.362	0	987.619	0	8.4	4	2.6	4	-1E+10	1	-1E+10	1	-1E+10	1	-1E+10	1	-1E+10	1	-1E+10	1
4902663	36	C	07/25/2024	02:14	-126.920	47.228	0	1005.40	0	3.4580	0	34.3960	0	27.367	0	994.626	0	8.5	4	2.6	4	-1E+10	1	-1E+10	1	-1E+10	1	-1E+10	1	-1E+10	1	-1E+10	1
4902663	36	C	07/25/2024	02:14	-126.920	47.228	0	1015.40	0	3.4190	0	34.3980	0	27.372	0	1004.495	0	8.7	4	2.7	4	-1E+10	1	-1E+10	1	-1E+10	1	-1E+10	1	-1E+10	1	-1E+10	1
4902663	36	C	07/25/2024	02:14	-126.920	47.228	0	1025.30	0	3.4010	0	34.4010	0	27.376	0	1014.265	0	8.9	4	2.8	4	-1E+10	1	-1E+10	1	-1E+10	1	-1E+10	1	-1E+10	1	-1E+10	1
4902663	36	C	07/25/2024	02:14	-126.920	47.228	0	1035.20	0	3.3970	0	34.4070	0	27.382	0	1024.034	0	9.3	4	2.9	4	-1E+10	1	-1E+10	1	-1E+10	1	-1E+10	1	-1E+10	1	-1E+10	1
4902663	36	C	07/25/2024	02:14	-126.920	47.228	0	1045.40	0	3.3940	0	34.4140	0	27.388	0	1034.099	0	9.6	4	3.0	4	-1E+10	1	-1E+10	1	-1E+10	1	-1E+10	1	-1E+10	1	-1E+10	1
4902663	36	C	07/25/2024	02:14	-126.920	47.228	0	1055.50	0	3.3800	0	34.4180	0	27.392	0	1044.064	0	9.7	4	3.0	4	-1E+10	1	-1E+10	1	-1E+10	1	-1E+10	1	-1E+10	1	-1E+10	1
4902663	36	C	07/25/2024	02:14	-126.920	47.228	0	1065.30	0	3.3740	0	34.4200	0	27.394	0	1053.734	0	9.9	4	3.1	4	-1E+10	1	-1E+10	1	-1E+10	1	-1E+10	1	-1E+10	1	-1E+10	1
4902663	36	C	07/25/2024	02:14	-126.920	47.228	0	1075.20	0	3.3560	0	34.4220	0	27.398	0	1063.501	0	10.1	4	3.1	4	-1E+10	1	-1E+10	1	-1E+10	1	-1E+10	1	-1E+10	1	-1E+10	1
4902663	36	C	07/25/2024	02:14	-126.920	47.228	0	1085.40	0	3.3240	0	34.4250	0	27.403	0	1073.564	0	10.3	4	3.2	4	-1E+10	1	-1E+10	1	-1E+10	1	-1E+10	1	-1E+10	1	-1E+10	1
4902663	36	C	07/25/2024	02:14	-126.920	47.228	0	1095.60	0	3.3020	0	34.4280	0	27.408	0	1083.627	0	10.6	4	3.3	4	-1E+10	1	-1E+10	1	-1E+10	1	-1E+10	1	-1E+10	1	-1E+10	1
4902663	36	C	07/25/2024	02:14	-126.920	47.228	0	1105.20	0	3.2860	0	34.4310	0	27.412	0	1093.097	0	10.8	4	3.4	4	-1E+10	1	-1E+10	1	-1E+10	1	-1E+10	1	-1E+10	1	-1E+10	1
4902663	36	C	07/25/2024	02:14	-126.920	47.228	0	1115.50	0	3.2610	0	34.4340	0	27.417	0	1103.257	0	11.2	4	3.5	4	-1E+10	1	-1E+10	1	-1E+10	1	-1E+10	1	-1E+10	1	-1E+10	1
4902663	36	C	07/25/2024	02:14	-126.920	47.228	0	1125.70	0	3.2270	0	34.4370	0	27.422	0	1113.318	0	11.4	4	3.5	4	-1E+10	1	-1E+10	1	-1E+10	1	-1E+10	1	-1E+10	1	-1E+10	1
4902663	36	C	07/25/2024	02:14	-126.920	47.228	0	1135.30	0	3.1950	0	34.4390	0	27.427	0	1122.787	0	11.6	4	3.6	4	-1E+10	1	-1E+10	1	-1E+10	1	-1E+10	1	-1E+10	1	-1E+10	1
4902663	36	C	07/25/2024	02:14	-126.920	47.228	0	1145.20	0	3.1660	0	34.4420	0	27.432	0	1132.551	0	12.0	4	3.7	4	-1E+10	1	-1E+10	1	-1E+10	1	-1E+10	1	-1E+10	1	-1E+10	1
4902663	36	C	07/25/2024	02:14	-126.920	47.228	0	1155.60	0	3.1350	0	34.4450	0	27.437	0	1142.808	0	12.3	4	3.8	4	-1E+10	1	-1E+10	1	-1E+10	1	-1E+10	1	-1E+10	1	-1E+10	1
4902663	36	C	07/25/2024	02:14	-126.920	47.228	0	1165.50	0	3.1060	0	34.4480	0	27.442	0	1152.571	0	12.5	4	3.9	4	-1E+10	1	-1E+10	1	-1E+10	1	-1E+10	1	-1E+10	1	-1E+10	1
4902663	36	C	07/25/2024	02:14	-126.920	47.228	0	1175.40	0	3.0960	0	34.4500	0	27.445	0	1162.334	0	12.8	4	4.0	4	-1E+10	1	-1E+10	1	-1E+10	1	-1E+10	1	-1E+10	1	-1E+10	1
4902663	36	C	07/25/2024	02:14	-126.920	47.228	0	1185.70	0	3.0740	0	34.4530	0	27.449	0	1172.490	0	13.1	4	4.0	4	-1E+10	1	-1E+10	1	-1E+10	1	-1E+10	1	-1E+10	1	-1E+10	1
4902663	36	C	07/25/2024	02:14	-126.920	47.228	0	1195.50	0	3.0440	0	34.4550	0	27.454	0	1182.154	0	13.3	4	4.1	4	-1E+10	1	-1E+10	1	-1E+10	1	-1E+10	1	-1E+10	1	-1E+10	1
4902663	36	C	07/25/2024	02:14	-126.920	47.228	0	1205.20	0	3.0250	0	34.4580	0	27.458	0	1191.718	0	13.6	4	4.2	4	-1E+10	1	-1E+10	1	-1E+10	1	-1E+10	1	-1E+10	1	-1E+10	1
4902663	36	C	07/25/2024	02:14	-126.920	47.228	0	1215.60	0	3.0030	0	34.4610	0	27.462	0	1201.972	0	14.0	4	4.3	4	-1E+10	1	-1E+10	1	-1E+10	1	-1E+10	1	-1E+10	1	-1E+10	1
4902663	36	C	07/25/2024	02:14	-126.920	47.228	0	1225.50	0	2.9830	0	34.4640	0	27.467	0	1211.733	0	14.3	4	4.4	4	-1E+10	1	-1E+10	1	-1E+10	1	-1E+10	1	-1E+10	1	-1E+10	1
4902663	36	C	07/25/2024	02:14	-126.920	47.228	0	1235.60	0	2.9600	0	34.4650	0	27.469	0	1221.690	0	14.6	4	4.5	4	-1E+10	1	-1E+10	1	-1E+10	1	-1E+10	1	-1E+10	1	-1E+10	1
4902663	36	C	07/25/2024	02:14	-126.920	47.228	0	1245.70	0	2.9490	0	34.4680	0	27.473	0	1231.646	0	14.9	4	4.6	4	-1E+10	1	-1E+10	1	-1E+10	1	-1E+10	1	-1E+10	1	-1E+10	1
4902663	36	C	07/25/2024	02:14	-126.920	47.228	0	1255.60	0	2.9310	0	34.4690	0	27.475	0	1241.406	0	15.2	4	4.7	4	-1E+10	1	-1E+10	1	-1E+10	1	-1E+10	1	-1E+10	1	-1E+10	1
4902663	36	C	07/25/2024	02:14	-126.920	47.228	0	1265.30	0	2.9020	0	34.4700	0	27.479	0	1250.967	0	15.4	4	4.8	4	-1E+10	1	-1E+10	1	-1E+10	1	-1E+10	1	-1E+10	1	-1E+10	1
4902663	36	C	07/25/2024	02:14	-126.920	47.228	0	1275.40	0	2.8830	0	34.4720	0	27.482	0	1260.923	0	15.7	4	4.8	4	-1E+10	1	-1E+10	1	-1E+10	1	-1E+10	1	-1E+10	1	-1E+10	1
4902663	36	C	07/25/2024	02:14	-126.920	47.228	0	1285.30	0	2.8600	0	34.4730	0	27.485	0	1270.680	0	16.1	4	5.0	4	-1E+10	1	-1E+10	1	-1E+10	1	-1E+10	1	-1E+10	1	-1E+10	1
4902663	36	C	07/25/2024	02:14	-126.920	47.228	0	1295.40	0	2.8390	0	34.4750	0	27.489	0	1280.635	0	16.7	4	5.1	4	-1E+10	1	-1E+10	1	-1E+10	1	-1E+10	1	-1E+10	1	-1E+10	1
4902663	36	C	07/25/2024	02:14	-126.920	47.228	0	1305.40	0	2.8120	0	34.4790	0	27.494	0	1290.490	0	17.2	4	5.3	4	-1E+10	1	-1E+10	1	-1E+10	1	-1E+10	1	-1E+10	1	-1E+10	1
4902663	36	C	07/25/2024	02:14	-126.920	47.228	0	1315.40	0	2.7930	0	34.4810	0	27.497	0	1300.345	0	17.5	4	5.4	4	-1E+10	1	-1E+10	1	-1E+10	1	-1E+10	1	-1E+10	1	-1E+10	1
4902663	36	C	07/25/2024	02:14	-126.920	47.228	0	1325.60	0	2.7750	0	34.4840	0	27.501	0	1310.397	0	18.0	4	5.5	4	-1E+10	1	-1E+10	1	-1E+10	1	-1E+10	1	-1E+10	1	-1E+10	1
4902663	36	C	07/25/2024	02:14	-126.920	47.228	0	1335.60	0	2.7520	0	34.4860	0	27.505	0	1320.251	0	18.4	4	5.7	4	-1E+10	1	-1E+10	1	-1E+10	1	-1E+10	1	-1E+10	1	-1E+10	1
4902663	36	C	07/25/2024	02:14	-126.920	47.228	0	1345.30	0	2.7380	0	34.4870	0	27.507	0	1329.809	0	18.7	4	5.7	4	-1E+10	1	-1E+10	1	-1E+10	1	-1E+10	1	-1E+10	1	-1E+10	1
4902663	36	C	07/25/2024	02:14	-126.920	47.228	0	1355.20	0	2.7250	0	34.4890	0	27.510	0	1339.563	0	18.9	4	5.8	4	-1E+10	1	-1E+10	1	-1E+10	1	-1E+10	1	-1E+10	1	-1E+10	1
4902663	36	C	07/25/2024	02:14	-126.920	47.228	0	1365.20	0	2.7140	0	34.4910	0	27.513	0	1349.416	0	19.2	4	5.9	4	-1E+10	1	-1E+10	1	-1E+10	1	-1E+10	1	-1E+10	1	-1E+10	1
4902663	36	C	07/25/2024	02:14	-126.920	47.228	0	1375.20	0	2.6960	0	34.4930	0	27.516	0	1359.268	0	19.7	4	6.0	4	-1E+10	1	-1E+10	1	-1E+10	1	-1E+10	1	-1E+10	1	-1E+10	1
4902663	36	C	07/25/2024	02:14	-126.920	47.228	0	1385.20	0	2.6830	0	34.4950	0	27.519	0	1369.120	0	20.1	4	6.2	4	-1E+10	1	-1E+10	1	-1E+10	1	-1E+10	1	-1E+10	1	-1E+10	1
4902663	36	C	07/25/2024	02:14	-126.920	47.228	0	1395.30	0	2.6630	0	34.4970	0	27.522	0	1379.069	0	20.5	4	6.3	4	-1E+10	1	-1E+10	1	-1E+10	1	-1E+10	1	-1E+10	1	-1E+10	1
4902663	36	C	07/25/2024	02:14	-126.920	47.228	0	1405.40	0	2.6480	0	34.4990	0	27.525	0	1389.019	0	20.8	4	6.4	4	-1E+10	1	-1E+10	1	-1E+10	1	-1E+10	1	-1E+10	1	-1E+10	1
4902663	36	C	07/25/2024	02:14	-126.920	47.228	0	1415.50	0	2.6360	0	34.5010	0	27.528	0	1398.967	0	21.2	4	6.5	4	-1E+10	1	-1E+10	1	-1E+10	1	-1E+10	1	-1E+10	1	-1E+10	1
4902663	36	C	07/25/2024	02:14	-126.920	47.228	0	1425.50	0	2.6190	0	34.5030	0	27.531	0	1408.817	0	21.6	4	6.6	4	-1E+10	1	-1E+10	1	-1E+10	1	-1E+10	1	-1E+10	1	-1E+10	1
4902663	36	C	07/25/2024	02:14	-126.920	47.228	0	1435.40	0	2.5970	0	34.5050	0	27.534	0	1418.568	0	22.1	4	6.8	4	-1E+10	1	-1E+10	1	-1E+10	1	-1E+10	1	-1E+10	1	-1E+10	1
4902663	36	C	07/25/2024	02:14	-126.920	47.228	0	1445.20	0	2.5790	0	34.5070	0	27.537	0	1428.220	0	22.5	4	6.9	4	-1E+10	1	-1E+10	1	-1E+10	1	-1E+10	1	-1E+10	1	-1E+10	1
4902663	36	C	07/25/2024	02:14	-126.920	47.228	0	1455.30	0	2.5660	0	34.5090	0	27.540	0	1438.167	0	23.1	4	7.1	4	-1E+10	1	-1E+10	1	-1E+10	1	-1E+10	1	-1E+10	1	-1E+10	1
4902663	36	C	07/25/2024	02:14	-126.920	47.228	0	1465.70	0	2.5530	0	34.5110	0	27.543	0	1448.409	0	23.6	4	7.2	4	-1E+10	1	-1E+10	1	-1E+10	1	-1E+10	1	-1E+10	1	-1E+10	1
4902663	36	C	07/25/2024	02:14	-126.920	47.228	0	1475.60	0	2.5420	0	34.5120	0	27.545	0	1458.158	0	24.3	4	7.4	4	-1E+10	1	-1E+10	1	-1E+10	1	-1E+10	1	-1E+10	1	-1E+10	1
4902663	36	C	07/25/2024	02:14	-126.920	47.228	0	1485.30	0	2.5300	0	34.5140	0	27.547	0	1467.710	0	24.8	4	7.6	4	-1E+10	1	-1E+10	1	-1E+10	1	-1E+10	1	-1E+10	1	-1E+10	1
4902663	36	C	07/25/2024	02:14	-126.920	47.228	0	1495.70	0	2.5170	0	34.5160	0	27.550	0	1477.950	0	25.3	4	7.7	4	-1E+10	1	-1E+10	1	-1E+10	1	-1E+10	1	-1E+10	1	-1E+10	1
4902663	36	C	07/25/2024	02:14	-126.920	47.228	0	1505.50	0	2.5030	0	34.5180	0	27.553	0	1487.599	0	26.0	4	7.9	4	-1E+10	1	-1E+10	1	-1E+10	1	-1E+10	1	-1E+10	1	-1E+10	1
4902663	36	C	07/25/2024	02:14	-126.920	47.228	0	1515.50	0	2.4760	0	34.5200	0	27.557	0	1497.445	0	26.6	4	8.1	4	-1E+10	1	-1E+10	1	-1E+10	1	-1E+10	1	-1E+10	1	-1E+10	1
4902663	36	C	07/25/2024	02:14	-126.920	47.228	0	1525.80	0	2.4490	0	34.5210	0	27.560	0	1507.586	0	27.1	4	8.3	4	-1E+10	1	-1E+10	1	-1E+10	1	-1E+10	1	-1E+10	1	-1E+10	1
4902663	36	C	07/25/2024	02:14	-126.920	47.228	0	1535.70	0	2.4330	0	34.5230	0	27.563	0	1517.332	0	27.6	4	8.4	4	-1E+10	1	-1E+10	1	-1E+10	1	-1E+10	1	-1E+10	1	-1E+10	1
4902663	36	C	07/25/2024	02:14	-126.920	47.228	0	1545.60	0	2.4180	0	34.5250	0	27.566	0	1527.078	0	27.9	4	8.5	4	-1E+10	1	-1E+10	1	-1E+10	1	-1E+10	1	-1E+10	1	-1E+10	1
4902663	36	C	07/25/2024	02:14	-126.920	47.228	0	1555.70	0	2.3960	0	34.5250	0	27.568	0	1537.020	0	28.4	4	8.6	4	-1E+10	1	-1E+10	1	-1E+10	1	-1E+10	1	-1E+10	1	-1E+10	1
4902663	36	C	07/25/2024	02:14	-126.920	47.228	0	1565.80	0	2.3750	0	34.5270	0	27.571	0	1546.962	0	29.1	4	8.9	4	-1E+10	1	-1E+10	1	-1E+10	1	-1E+10	1	-1E+10	1	-1E+10	1
4902663	36	C	07/25/2024	02:14	-126.920	47.228	0	1575.80	0	2.3570	0	34.5290	0	27.574	0	1556.805	0	29.8	4	9.1	4	-1E+10	1	-1E+10	1	-1E+10	1	-1E+10	1	-1E+10	1	-1E+10	1
4902663	36	C	07/25/2024	02:14	-126.920	47.228	0	1585.40	0	2.3400	0	34.5310	0	27.577	0	1566.254	0	30.3	4	9.2	4	-1E+10	1	-1E+10	1	-1E+10	1	-1E+10	1	-1E+10	1	-1E+10	1
4902663	36	C	07/25/2024	02:14	-126.920	47.228	0	1595.10	0	2.3210	0	34.5320	0	27.580	0	1575.801	0	30.7	4	9.3	4	-1E+10	1	-1E+10	1	-1E+10	1	-1E+10	1	-1E+10	1	-1E+10	1
4902663	36	C	07/25/2024	02:14	-126.920	47.228	0	1605.40	0	2.3050	0	34.5340	0	27.583	0	1585.937	0	31.4	4	9.5	4	-1E+10	1	-1E+10	1	-1E+10	1	-1E+10	1	-1E+10	1	-1E+10	1
4902663	36	C	07/25/2024	02:14	-126.920	47.228	0	1615.70	0	2.2940	0	34.5360	0	27.585	0	1596.074	0	32.0	4	9.7	4	-1E+10	1	-1E+10	1	-1E+10	1	-1E+10	1	-1E+10	1	-1E+10	1
4902663	36	C	07/25/2024	02:14	-126.920	47.228	0	1625.30	0	2.2820	0	34.5370	0	27.587	0	1605.521	0	32.6	4	9.9	4	-1E+10	1	-1E+10	1	-1E+10	1	-1E+10	1	-1E+10	1	-1E+10	1
4902663	36	C	07/25/2024	02:14	-126.920	47.228	0	1635.00	0	2.2710	0	34.5390	0	27.589	0	1615.066	0	33.1	4	10.0	4	-1E+10	1	-1E+10	1	-1E+10	1	-1E+10	1	-1E+10	1	-1E+10	1
4902663	36	C	07/25/2024	02:14	-126.920	47.228	0	1645.30	0	2.2620	0	34.5400	0	27.591	0	1625.201	0	33.5	4	10.2	4	-1E+10	1	-1E+10	1	-1E+10	1	-1E+10	1	-1E+10	1	-1E+10	1
4902663	36	C	07/25/2024	02:14	-126.920	47.228	0	1655.30	0	2.2550	0	34.5410	0	27.593	0	1635.040	0	33.9	4	10.3	4	-1E+10	1	-1E+10	1	-1E+10	1	-1E+10	1	-1E+10	1	-1E+10	1
4902663	36	C	07/25/2024	02:14	-126.920	47.228	0	1665.30	0	2.2520	0	34.5430	0	27.594	0	1644.879	0	34.4	4	10.4	4	-1E+10	1	-1E+10	1	-1E+10	1	-1E+10	1	-1E+10	1	-1E+10	1
4902663	36	C	07/25/2024	02:14	-126.920	47.228	0	1675.60	0	2.2380	0	34.5450	0	27.597	0	1655.012	0	35.1	4	10.7	4	-1E+10	1	-1E+10	1	-1E+10	1	-1E+10	1	-1E+10	1	-1E+10	1
4902663	36	C	07/25/2024	02:14	-126.920	47.228	0	1685.40	0	2.2310	0	34.5470	0	27.599	0	1664.653	0	35.8	4	10.9	4	-1E+10	1	-1E+10	1	-1E+10	1	-1E+10	1	-1E+10	1	-1E+10	1
4902663	36	C	07/25/2024	02:14	-126.920	47.228	0	1695.20	0	2.2180	0	34.5500	0	27.603	0	1674.294	0	36.5	4	11.1	4	-1E+10	1	-1E+10	1	-1E+10	1	-1E+10	1	-1E+10	1	-1E+10	1
4902663	36	C	07/25/2024	02:14	-126.920	47.228	0	1705.10	0	2.2030	0	34.5520	0	27.606	0	1684.033	0	37.1	4	11.2	4	-1E+10	1	-1E+10	1	-1E+10	1	-1E+10	1	-1E+10	1	-1E+10	1
4902663	36	C	07/25/2024	02:14	-126.920	47.228	0	1715.50	0	2.1920	0	34.5530	0	27.608	0	1694.263	0	37.8	4	11.4	4	-1E+10	1	-1E+10	1	-1E+10	1	-1E+10	1	-1E+10	1	-1E+10	1
4902663	36	C	07/25/2024	02:14	-126.920	47.228	0	1725.80	0	2.1770	0	34.5550	0	27.610	0	1704.394	0	38.5	4	11.7	4	-1E+10	1	-1E+10	1	-1E+10	1	-1E+10	1	-1E+10	1	-1E+10	1
4902663	36	C	07/25/2024	02:14	-126.920	47.228	0	1735.70	0	2.1680	0	34.5560	0	27.612	0	1714.131	0	39.0	4	11.8	4	-1E+10	1	-1E+10	1	-1E+10	1	-1E+10	1	-1E+10	1	-1E+10	1
4902663	36	C	07/25/2024	02:14	-126.920	47.228	0	1745.70	0	2.1570	0	34.5580	0	27.614	0	1723.966	0	39.6	4	12.0	4	-1E+10	1	-1E+10	1	-1E+10	1	-1E+10	1	-1E+10	1	-1E+10	1
4902663	36	C	07/25/2024	02:14	-126.920	47.228	0	1755.70	0	2.1480	0	34.5590	0	27.616	0	1733.801	0	40.0	4	12.1	4	-1E+10	1	-1E+10	1	-1E+10	1	-1E+10	1	-1E+10	1	-1E+10	1
4902663	36	C	07/25/2024	02:14	-126.920	47.228	0	1765.70	0	2.1400	0	34.5600	0	27.618	0	1743.635	0	40.5	4	12.3	4	-1E+10	1	-1E+10	1	-1E+10	1	-1E+10	1	-1E+10	1	-1E+10	1
4902663	36	C	07/25/2024	02:14	-126.920	47.228	0	1775.70	0	2.1300	0	34.5620	0	27.620	0	1753.469	0	41.1	4	12.4	4	-1E+10	1	-1E+10	1	-1E+10	1	-1E+10	1	-1E+10	1	-1E+10	1
4902663	36	C	07/25/2024	02:14	-126.920	47.228	0	1785.70	0	2.1210	0	34.5630	0	27.622	0	1763.302	0	41.6	4	12.6	4	-1E+10	1	-1E+10	1	-1E+10	1	-1E+10	1	-1E+10	1	-1E+10	1
4902663	36	C	07/25/2024	02:14	-126.920	47.228	0	1795.70	0	2.1110	0	34.5650	0	27.624	0	1773.135	0	42.3	4	12.8	4	-1E+10	1	-1E+10	1	-1E+10	1	-1E+10	1	-1E+10	1	-1E+10	1
4902663	36	C	07/25/2024	02:14	-126.920	47.228	0	1805.70	0	2.1010	0	34.5660	0	27.626	0	1782.967	0	42.8	4	12.9	4	-1E+10	1	-1E+10	1	-1E+10	1	-1E+10	1	-1E+10	1	-1E+10	1
4902663	36	C	07/25/2024	02:14	-126.920	47.228	0	1815.70	0	2.0950	0	34.5670	0	27.627	0	1792.799	0	43.4	4	13.1	4	-1E+10	1	-1E+10	1	-1E+10	1	-1E+10	1	-1E+10	1	-1E+10	1
4902663	36	C	07/25/2024	02:14	-126.920	47.228	0	1825.70	0	2.0900	0	34.5690	0	27.629	0	1802.631	0	44.3	4	13.4	4	-1E+10	1	-1E+10	1	-1E+10	1	-1E+10	1	-1E+10	1	-1E+10	1
4902663	36	C	07/25/2024	02:14	-126.920	47.228	0	1835.70	0	2.0830	0	34.5730	0	27.633	0	1812.462	0	45.3	4	13.7	4	-1E+10	1	-1E+10	1	-1E+10	1	-1E+10	1	-1E+10	1	-1E+10	1
4902663	36	C	07/25/2024	02:14	-126.920	47.228	0	1845.70	0	2.0710	0	34.5740	0	27.635	0	1822.292	0	45.8	4	13.8	4	-1E+10	1	-1E+10	1	-1E+10	1	-1E+10	1	-1E+10	1	-1E+10	1
4902663	36	C	07/25/2024	02:14	-126.920	47.228	0	1855.30	0	2.0560	0	34.5750	0	27.637	0	1831.729	0	46.3	4	14.0	4	-1E+10	1	-1E+10	1	-1E+10	1	-1E+10	1	-1E+10	1	-1E+10	1
4902663	36	C	07/25/2024	02:14	-126.920	47.228	0	1865.00	0	2.0370	0	34.5760	0	27.639	0	1841.264	0	47.1	4	14.2	4	-1E+10	1	-1E+10	1	-1E+10	1	-1E+10	1	-1E+10	1	-1E+10	1
4902663	36	C	07/25/2024	02:14	-126.920	47.228	0	1875.40	0	2.0290	0	34.5780	0	27.641	0	1851.487	0	47.9	4	14.4	4	-1E+10	1	-1E+10	1	-1E+10	1	-1E+10	1	-1E+10	1	-1E+10	1
4902663	36	C	07/25/2024	02:14	-126.920	47.228	0	1885.40	0	2.0190	0	34.5800	0	27.644	0	1861.315	0	48.5	4	14.6	4	-1E+10	1	-1E+10	1	-1E+10	1	-1E+10	1	-1E+10	1	-1E+10	1
4902663	36	C	07/25/2024	02:14	-126.920	47.228	0	1895.30	0	2.0120	0	34.5820	0	27.646	0	1871.045	0	49.3	4	14.9	4	-1E+10	1	-1E+10	1	-1E+10	1	-1E+10	1	-1E+10	1	-1E+10	1
4902663	36	C	07/25/2024	02:14	-126.920	47.228	0	1905.40	0	2.0020	0	34.5840	0	27.648	0	1880.971	0	50.1	4	15.1	4	-1E+10	1	-1E+10	1	-1E+10	1	-1E+10	1	-1E+10	1	-1E+10	1
4902663	36	C	07/25/2024	02:14	-126.920	47.228	0	1915.30	0	1.9890	0	34.5850	0	27.650	0	1890.701	0	50.7	4	15.3	4	-1E+10	1	-1E+10	1	-1E+10	1	-1E+10	1	-1E+10	1	-1E+10	1
4902663	36	C	07/25/2024	02:14	-126.920	47.228	0	1925.40	0	1.9810	0	34.5870	0	27.652	0	1900.626	0	51.3	4	15.5	4	-1E+10	1	-1E+10	1	-1E+10	1	-1E+10	1	-1E+10	1	-1E+10	1
4902663	36	C	07/25/2024	02:14	-126.920	47.228	0	1935.80	0	1.9780	0	34.5890	0	27.654	0	1910.845	0	51.9	4	15.6	4	-1E+10	1	-1E+10	1	-1E+10	1	-1E+10	1	-1E+10	1	-1E+10	1
4902663	36	C	07/25/2024	02:14	-126.920	47.228	0	1945.80	0	1.9620	0	34.5900	0	27.656	0	1920.671	0	52.5	4	15.8	4	-1E+10	1	-1E+10	1	-1E+10	1	-1E+10	1	-1E+10	1	-1E+10	1
4902663	36	C	07/25/2024	02:14	-126.920	47.228	0	1955.80	0	1.9550	0	34.5920	0	27.659	0	1930.497	0	53.0	4	16.0	4	-1E+10	1	-1E+10	1	-1E+10	1	-1E+10	1	-1E+10	1	-1E+10	1
4902663	36	C	07/25/2024	02:14	-126.920	47.228	0	1965.40	0	1.9440	0	34.5920	0	27.660	0	1939.929	0	53.5	4	16.1	4	-1E+10	1	-1E+10	1	-1E+10	1	-1E+10	1	-1E+10	1	-1E+10	1
4902663	36	C	07/25/2024	02:14	-126.920	47.228	0	1975.20	0	1.9380	0	34.5930	0	27.661	0	1949.557	0	54.0	4	16.2	4	-1E+10	1	-1E+10	1	-1E+10	1	-1E+10	1	-1E+10	1	-1E+10	1
4902663	36	C	07/25/2024	02:14	-126.920	47.228	0	1985.50	0	1.9280	0	34.5950	0	27.663	0	1959.676	0	54.6	4	16.4	4	-1E+10	1	-1E+10	1	-1E+10	1	-1E+10	1	-1E+10	1	-1E+10	1
4902663	36	C	07/25/2024	02:14	-126.920	47.228	0	1996.10	0	1.9200	0	34.5960	0	27.665	0	1970.089	0	54.7	4	16.5	4	-1E+10	1	-1E+10	1	-1E+10	1	-1E+10	1	-1E+10	1	-1E+10	1
4902663	36	C	07/25/2024	02:14	-126.920	47.228	0	2002.60	0	1.9160	0	34.5970	0	27.666	0	1976.474	0	54.3	4	16.3	4	-1E+10	1	-1E+10	1	-1E+10	1	-1E+10	1	-1E+10	1	-1E+10	1
4902663	36	C	07/25/2024	02:14	-126.920	47.228	0																										
4902663	37	C	08/03/2024	21:21	-126.772	47.295	0	0.10	0	17.7060	0	31.9280	0	22.992	0	0.099	0	231.5	4	96.4	4	-1E+10	1	-1E+10	1	-1E+10	1	-1E+10	1	-1E+10	1	-1E+10	1
4902663	37	C	08/03/2024	21:21	-126.772	47.295	0	0.90	0	17.7080	0	31.9860	0	23.036	0	0.893	0	231.3	4	96.3	4	-1E+10	1	-1E+10	1	-1E+10	1	-1E+10	1	-1E+10	1	-1E+10	1
4902663	37	C	08/03/2024	21:21	-126.772	47.295	0	2.10	0	17.7100	0	31.9780	0	23.030	0	2.083	0	231.5	4	96.4	4	-1E+10	1	-1E+10	1	-1E+10	1	-1E+10	1	-1E+10	1	-1E+10	1
4902663	37	C	08/03/2024	21:21	-126.772	47.295	0	3.00	0	17.7090	0	31.9840	0	23.035	0	2.975	0	231.7	4	96.5	4	-1E+10	1	-1E+10	1	-1E+10	1	-1E+10	1	-1E+10	1	-1E+10	1
4902663	37	C	08/03/2024	21:21	-126.772	47.295	0	4.00	0	17.7050	0	31.9900	0	23.040	0	3.967	0	231.6	4	96.5	4	-1E+10	1	-1E+10	1	-1E+10	1	-1E+10	1	-1E+10	1	-1E+10	1
4902663	37	C	08/03/2024	21:21	-126.772	47.295	0	5.10	0	17.7000	0	32.0000	0	23.049	0	5.057	0	232.0	4	96.6	4	-1E+10	1	-1E+10	1	-1E+10	1	-1E+10	1	-1E+10	1	-1E+10	1
4902663	37	C	08/03/2024	21:21	-126.772	47.295	0	5.80	0	17.6710	0	31.9970	0	23.054	0	5.752	0	232.3	4	96.7	4	-1E+10	1	-1E+10	1	-1E+10	1	-1E+10	1	-1E+10	1	-1E+10	1
4902663	37	C	08/03/2024	21:21	-126.772	47.295	0	6.90	0	17.6680	0	31.9990	0	23.056	0	6.842	0	232.4	4	96.7	4	-1E+10	1	-1E+10	1	-1E+10	1	-1E+10	1	-1E+10	1	-1E+10	1
4902663	37	C	08/03/2024	21:21	-126.772	47.295	0	8.00	0	17.6700	0	32.0010	0	23.057	0	7.933	0	232.6	4	96.8	4	-1E+10	1	-1E+10	1	-1E+10	1	-1E+10	1	-1E+10	1	-1E+10	1
4902663	37	C	08/03/2024	21:21	-126.772	47.295	0	9.00	0	17.6530	0	31.9960	0	23.058	0	8.925	0	233.4	4	97.1	4	-1E+10	1	-1E+10	1	-1E+10	1	-1E+10	1	-1E+10	1	-1E+10	1
4902663	37	C	08/03/2024	21:21	-126.772	47.295	0	10.10	0	17.6330	0	31.9920	0	23.059	0	10.016	0	234.2	4	97.4	4	-1E+10	1	-1E+10	1	-1E+10	1	-1E+10	1	-1E+10	1	-1E+10	1
4902663	37	C	08/03/2024	21:21	-126.772	47.295	0	11.10	0	17.6250	0	31.9880	0	23.058	0	11.007	0	235.7	4	98.0	4	-1E+10	1	-1E+10	1	-1E+10	1	-1E+10	1	-1E+10	1	-1E+10	1
4902663	37	C	08/03/2024	21:21	-126.772	47.295	0	12.20	0	17.6060	0	31.9950	0	23.068	0	12.098	0	237.6	4	98.8	4	-1E+10	1	-1E+10	1	-1E+10	1	-1E+10	1	-1E+10	1	-1E+10	1
4902663	37	C	08/03/2024	21:21	-126.772	47.295	0	12.90	0	17.2780	0	31.9800	0	23.134	0	12.792	0	239.3	4	98.9	4	-1E+10	1	-1E+10	1	-1E+10	1	-1E+10	1	-1E+10	1	-1E+10	1
4902663	37	C	08/03/2024	21:21	-126.772	47.295	0	13.90	0	17.0760	0	31.9400	0	23.151	0	13.784	0	241.7	4	99.4	4	-1E+10	1	-1E+10	1	-1E+10	1	-1E+10	1	-1E+10	1	-1E+10	1
4902663	37	C	08/03/2024	21:21	-126.772	47.295	0	15.10	0	16.3400	0	31.9340	0	23.315	0	14.974	0	245.1	4	99.4	4	-1E+10	1	-1E+10	1	-1E+10	1	-1E+10	1	-1E+10	1	-1E+10	1
4902663	37	C	08/03/2024	21:21	-126.772	47.295	0	16.00	0	16.0750	0	31.9450	0	23.384	0	15.866	0	246.0	4	99.3	4	-1E+10	1	-1E+10	1	-1E+10	1	-1E+10	1	-1E+10	1	-1E+10	1
4902663	37	C	08/03/2024	21:21	-126.772	47.295	0	16.80	0	15.8280	0	31.9370	0	23.433	0	16.659	0	247.1	4	99.2	4	-1E+10	1	-1E+10	1	-1E+10	1	-1E+10	1	-1E+10	1	-1E+10	1
4902663	37	C	08/03/2024	21:21	-126.772	47.295	0	18.00	0	15.6390	0	31.9290	0	23.468	0	17.849	0	248.2	4	99.3	4	-1E+10	1	-1E+10	1	-1E+10	1	-1E+10	1	-1E+10	1	-1E+10	1
4902663	37	C	08/03/2024	21:21	-126.772	47.295	0	19.20	0	15.6030	0	31.9420	0	23.486	0	19.039	0	249.0	4	99.6	4	-1E+10	1	-1E+10	1	-1E+10	1	-1E+10	1	-1E+10	1	-1E+10	1
4902663	37	C	08/03/2024	21:21	-126.772	47.295	0	20.10	0	15.5530	0	31.9690	0	23.518	0	19.932	0	249.8	4	99.8	4	-1E+10	1	-1E+10	1	-1E+10	1	-1E+10	1	-1E+10	1	-1E+10	1
4902663	37	C	08/03/2024	21:21	-126.772	47.295	0	20.90	0	15.4770	0	31.9770	0	23.541	0	20.725	0	250.4	4	99.9	4	-1E+10	1	-1E+10	1	-1E+10	1	-1E+10	1	-1E+10	1	-1E+10	1
4902663	37	C	08/03/2024	21:21	-126.772	47.295	0	21.60	0	15.4460	0	32.0010	0	23.566	0	21.419	0	251.1	4	100.2	4	-1E+10	1	-1E+10	1	-1E+10	1	-1E+10	1	-1E+10	1	-1E+10	1
4902663	37	C	08/03/2024	21:21	-126.772	47.295	0	22.70	0	15.4590	0	32.0320	0	23.587	0	22.510	0	252.9	4	100.9	4	-1E+10	1	-1E+10	1	-1E+10	1	-1E+10	1	-1E+10	1	-1E+10	1
4902663	37	C	08/03/2024	21:21	-126.772	47.295	0	23.90	0	14.9910	0	31.9910	0	23.657	0	23.700	0	255.1	4	100.8	4	-1E+10	1	-1E+10	1	-1E+10	1	-1E+10	1	-1E+10	1	-1E+10	1
4902663	37	C	08/03/2024	21:21	-126.772	47.295	0	25.00	0	14.5850	0	32.0020	0	23.751	0	24.790	0	257.5	4	101.0	4	-1E+10	1	-1E+10	1	-1E+10	1	-1E+10	1	-1E+10	1	-1E+10	1
4902663	37	C	08/03/2024	21:21	-126.772	47.295	0	26.00	0	14.3810	0	31.9730	0	23.772	0	25.782	0	258.6	4	101.0	4	-1E+10	1	-1E+10	1	-1E+10	1	-1E+10	1	-1E+10	1	-1E+10	1
4902663	37	C	08/03/2024	21:21	-126.772	47.295	0	27.00	0	14.3120	0	31.9650	0	23.780	0	26.773	0	259.5	4	101.2	4	-1E+10	1	-1E+10	1	-1E+10	1	-1E+10	1	-1E+10	1	-1E+10	1
4902663	37	C	08/03/2024	21:21	-126.772	47.295	0	28.00	0	14.2730	0	31.9620	0	23.786	0	27.765	0	260.8	4	101.6	4	-1E+10	1	-1E+10	1	-1E+10	1	-1E+10	1	-1E+10	1	-1E+10	1
4902663	37	C	08/03/2024	21:21	-126.772	47.295	0	28.80	0	13.9920	0	31.9910	0	23.866	0	28.558	0	261.9	4	101.5	4	-1E+10	1	-1E+10	1	-1E+10	1	-1E+10	1	-1E+10	1	-1E+10	1
4902663	37	C	08/03/2024	21:21	-126.772	47.295	0	29.80	0	13.8220	0	31.9960	0	23.905	0	29.550	0	263.7	4	101.8	4	-1E+10	1	-1E+10	1	-1E+10	1	-1E+10	1	-1E+10	1	-1E+10	1
4902663	37	C	08/03/2024	21:21	-126.772	47.295	0	31.00	0	13.5350	0	32.0210	0	23.982	0	30.740	0	265.8	4	102.0	4	-1E+10	1	-1E+10	1	-1E+10	1	-1E+10	1	-1E+10	1	-1E+10	1
4902663	37	C	08/03/2024	21:21	-126.772	47.295	0	31.80	0	13.3610	0	32.0430	0	24.033	0	31.533	0	266.5	4	102.0	4	-1E+10	1	-1E+10	1	-1E+10	1	-1E+10	1	-1E+10	1	-1E+10	1
4902663	37	C	08/03/2024	21:21	-126.772	47.295	0	33.00	0	13.0030	0	32.0780	0	24.131	0	32.723	0	267.6	4	101.6	4	-1E+10	1	-1E+10	1	-1E+10	1	-1E+10	1	-1E+10	1	-1E+10	1
4902663	37	C	08/03/2024	21:21	-126.772	47.295	0	34.20	0	12.6560	0	32.0920	0	24.209	0	33.912	0	268.9	4	101.5	4	-1E+10	1	-1E+10	1	-1E+10	1	-1E+10	1	-1E+10	1	-1E+10	1
4902663	37	C	08/03/2024	21:21	-126.772	47.295	0	34.90	0	12.5740	0	32.1110	0	24.239	0	34.606	0	269.6	4	101.5	4	-1E+10	1	-1E+10	1	-1E+10	1	-1E+10	1	-1E+10	1	-1E+10	1
4902663	37	C	08/03/2024	21:21	-126.772	47.295	0	35.70	0	12.3850	0	32.1200	0	24.282	0	35.400	0	270.5	4	101.5	4	-1E+10	1	-1E+10	1	-1E+10	1	-1E+10	1	-1E+10	1	-1E+10	1
4902663	37	C	08/03/2024	21:21	-126.772	47.295	0	36.60	0	12.2910	0	32.1150	0	24.296	0	36.292	0	271.4	4	101.6	4	-1E+10	1	-1E+10	1	-1E+10	1	-1E+10	1	-1E+10	1	-1E+10	1
4902663	37	C	08/03/2024	21:21	-126.772	47.295	0	37.90	0	12.1500	0	32.2110	0	24.397	0	37.581	0	271.3	4	101.4	4	-1E+10	1	-1E+10	1	-1E+10	1	-1E+10	1	-1E+10	1	-1E+10	1
4902663	37	C	08/03/2024	21:21	-126.772	47.295	0	39.30	0	12.0920	0	32.2590	0	24.445	0	38.969	0	270.2	4	100.9	4	-1E+10	1	-1E+10	1	-1E+10	1	-1E+10	1	-1E+10	1	-1E+10	1
4902663	37	C	08/03/2024	21:21	-126.772	47.295	0	40.30	0	11.9790	0	32.2550	0	24.463	0	39.961	0	269.6	4	100.4	4	-1E+10	1	-1E+10	1	-1E+10	1	-1E+10	1	-1E+10	1	-1E+10	1
4902663	37	C	08/03/2024	21:21	-126.772	47.295	0	41.20	0	11.9240	0	32.2550	0	24.473	0	40.853	0	268.8	4	100.0	4	-1E+10	1	-1E+10	1	-1E+10	1	-1E+10	1	-1E+10	1	-1E+10	1
4902663	37	C	08/03/2024	21:21	-126.772	47.295	0	42.10	0	11.8900	0	32.2590	0	24.483	0	41.745	0	267.9	4	99.6	4	-1E+10	1	-1E+10	1	-1E+10	1	-1E+10	1	-1E+10	1	-1E+10	1
4902663	37	C	08/03/2024	21:21	-126.772	47.295	0	43.10	0	11.7240	0	32.2740	0	24.525	0	42.737	0	266.9	4	98.9	4	-1E+10	1	-1E+10	1	-1E+10	1	-1E+10	1	-1E+10	1	-1E+10	1
4902663	37	C	08/03/2024	21:21	-126.772	47.295	0	44.00	0	11.5800	0	32.2510	0	24.533	0	43.629	0	266.4	4	98.4	4	-1E+10	1	-1E+10	1	-1E+10	1	-1E+10	1	-1E+10	1	-1E+10	1
4902663	37	C	08/03/2024	21:21	-126.772	47.295	0	45.00	0	11.2990	0	32.2640	0	24.594	0	44.620	0	266.1	4	97.7	4	-1E+10	1	-1E+10	1	-1E+10	1	-1E+10	1	-1E+10	1	-1E+10	1
4902663	37	C	08/03/2024	21:21	-126.772	47.295	0	45.90	0	11.2210	0	32.2740	0	24.616	0	45.513	0	265.3	4	97.2	4	-1E+10	1	-1E+10	1	-1E+10	1	-1E+10	1	-1E+10	1	-1E+10	1
4902663	37	C	08/03/2024	21:21	-126.772	47.295	0	46.90	0	11.1240	0	32.2530	0	24.617	0	46.504	0	265.3	4	97.0	4	-1E+10	1	-1E+10	1	-1E+10	1	-1E+10	1	-1E+10	1	-1E+10	1
4902663	37	C	08/03/2024	21:21	-126.772	47.295	0	47.80	0	11.1000	0	32.2850	0	24.646	0	47.396	0	264.8	4	96.8	4	-1E+10	1	-1E+10	1	-1E+10	1	-1E+10	1	-1E+10	1	-1E+10	1
4902663	37	C	08/03/2024	21:21	-126.772	47.295	0	48.80	0	10.8540	0	32.3020	0	24.702	0	48.388	0	264.9	4	96.4	4	-1E+10	1	-1E+10	1	-1E+10	1	-1E+10	1	-1E+10	1	-1E+10	1
4902663	37	C	08/03/2024	21:21	-126.772	47.295	0	49.80	0	10.7390	0	32.3020	0	24.722	0	49.379	0	264.7	4	96.1	4	-1E+10	1	-1E+10	1	-1E+10	1	-1E+10	1	-1E+10	1	-1E+10	1
4902663	37	C	08/03/2024	21:21	-126.772	47.295	0	50.70	0	10.5110	0	32.3230	0	24.778	0	50.272	0	264.6	4	95.6	4	-1E+10	1	-1E+10	1	-1E+10	1	-1E+10	1	-1E+10	1	-1E+10	1
4902663	37	C	08/03/2024	21:21	-126.772	47.295	0	52.00	0	10.3180	0	32.3260	0	24.813	0	51.560	0	264.4	4	95.1	4	-1E+10	1	-1E+10	1	-1E+10	1	-1E+10	1	-1E+10	1	-1E+10	1
4902663	37	C	08/03/2024	21:21	-126.772	47.295	0	53.20	0	10.1300	0	32.3270	0	24.845	0	52.750	0	263.6	4	94.4	4	-1E+10	1	-1E+10	1	-1E+10	1	-1E+10	1	-1E+10	1	-1E+10	1
4902663	37	C	08/03/2024	21:21	-126.772	47.295	0	53.90	0	9.9130	0	32.3260	0	24.880	0	53.444	0	263.4	4	93.9	4	-1E+10	1	-1E+10	1	-1E+10	1	-1E+10	1	-1E+10	1	-1E+10	1
4902663	37	C	08/03/2024	21:21	-126.772	47.295	0	55.00	0	9.7970	0	32.3320	0	24.904	0	54.535	0	262.9	4	93.5	4	-1E+10	1	-1E+10	1	-1E+10	1	-1E+10	1	-1E+10	1	-1E+10	1
4902663	37	C	08/03/2024	21:21	-126.772	47.295	0	56.20	0	9.7050	0	32.3370	0	24.923	0	55.724	0	262.4	4	93.1	4	-1E+10	1	-1E+10	1	-1E+10	1	-1E+10	1	-1E+10	1	-1E+10	1
4902663	37	C	08/03/2024	21:21	-126.772	47.295	0	57.00	0	9.6790	0	32.3380	0	24.928	0	56.518	0	261.8	4	92.9	4	-1E+10	1	-1E+10	1	-1E+10	1	-1E+10	1	-1E+10	1	-1E+10	1
4902663	37	C	08/03/2024	21:21	-126.772	47.295	0	57.80	0	9.6670	0	32.3390	0	24.931	0	57.311	0	261.1	4	92.6	4	-1E+10	1	-1E+10	1	-1E+10	1	-1E+10	1	-1E+10	1	-1E+10	1
4902663	37	C	08/03/2024	21:21	-126.772	47.295	0	59.00	0	9.5880	0	32.3430	0	24.947	0	58.500	0	259.8	4	92.0	4	-1E+10	1	-1E+10	1	-1E+10	1	-1E+10	1	-1E+10	1	-1E+10	1
4902663	37	C	08/03/2024	21:21	-126.772	47.295	0	60.20	0	9.5700	0	32.3420	0	24.949	0	59.690	0	258.1	4	91.4	4	-1E+10	1	-1E+10	1	-1E+10	1	-1E+10	1	-1E+10	1	-1E+10	1
4902663	37	C	08/03/2024	21:21	-126.772	47.295	0	61.10	0	9.5510	0	32.3430	0	24.953	0	60.582	0	256.9	4	90.9	4	-1E+10	1	-1E+10	1	-1E+10	1	-1E+10	1	-1E+10	1	-1E+10	1
4902663	37	C	08/03/2024	21:21	-126.772	47.295	0	61.90	0	9.5320	0	32.3440	0	24.956	0	61.375	0	255.7	4	90.4	4	-1E+10	1	-1E+10	1	-1E+10	1	-1E+10	1	-1E+10	1	-1E+10	1
4902663	37	C	08/03/2024	21:21	-126.772	47.295	0	62.70	0	9.4990	0	32.3450	0	24.962	0	62.168	0	254.4	4	89.9	4	-1E+10	1	-1E+10	1	-1E+10	1	-1E+10	1	-1E+10	1	-1E+10	1
4902663	37	C	08/03/2024	21:21	-126.772	47.295	0	63.90	0	9.4460	0	32.3470	0	24.973	0	63.358	0	252.4	4	89.1	4	-1E+10	1	-1E+10	1	-1E+10	1	-1E+10	1	-1E+10	1	-1E+10	1
4902663	37	C	08/03/2024	21:21	-126.772	47.295	0	65.20	0	9.3150	0	32.3510	0	24.996	0	64.647	0	250.6	4	88.2	4	-1E+10	1	-1E+10	1	-1E+10	1	-1E+10	1	-1E+10	1	-1E+10	1
4902663	37	C	08/03/2024	21:21	-126.772	47.295	0	66.10	0	9.2490	0	32.3500	0	25.006	0	65.539	0	250.0	4	87.9	4	-1E+10	1	-1E+10	1	-1E+10	1	-1E+10	1	-1E+10	1	-1E+10	1
4902663	37	C	08/03/2024	21:21	-126.772	47.295	0	66.90	0	9.2240	0	32.3530	0	25.012	0	66.332	0	249.2	4	87.6	4	-1E+10	1	-1E+10	1	-1E+10	1	-1E+10	1	-1E+10	1	-1E+10	1
4902663	37	C	08/03/2024	21:21	-126.772	47.295	0	67.80	0	9.1860	0	32.3570	0	25.022	0	67.224	0	248.4	4	87.2	4	-1E+10	1	-1E+10	1	-1E+10	1	-1E+10	1	-1E+10	1	-1E+10	1
4902663	37	C	08/03/2024	21:21	-126.772	47.295	0	69.00	0	9.1560	0	32.3600	0	25.029	0	68.414	0	247.6	4	86.9	4	-1E+10	1	-1E+10	1	-1E+10	1	-1E+10	1	-1E+10	1	-1E+10	1
4902663	37	C	08/03/2024	21:21	-126.772	47.295	0	70.30	0	9.1070	0	32.3660	0	25.041	0	69.703	0	246.7	4	86.4	4	-1E+10	1	-1E+10	1	-1E+10	1	-1E+10	1	-1E+10	1	-1E+10	1
4902663	37	C	08/03/2024	21:21	-126.772	47.295	0	71.10	0	9.0820	0	32.3620	0	25.042	0	70.496	0	246.0	4	86.2	4	-1E+10	1	-1E+10	1	-1E+10	1	-1E+10	1	-1E+10	1	-1E+10	1
4902663	37	C	08/03/2024	21:21	-126.772	47.295	0	71.90	0	9.0480	0	32.3740	0	25.056	0	71.289	0	245.0	4	85.7	4	-1E+10	1	-1E+10	1	-1E+10	1	-1E+10	1	-1E+10	1	-1E+10	1
4902663	37	C	08/03/2024	21:21	-126.772	47.295	0	72.70	0	8.9540	0	32.3790	0	25.075	0	72.082	0	243.9	4	85.2	4	-1E+10	1	-1E+10	1	-1E+10	1	-1E+10	1	-1E+10	1	-1E+10	1
4902663	37	C	08/03/2024	21:21	-126.772	47.295	0	73.90	0	8.8630	0	32.3820	0	25.091	0	73.271	0	242.2	4	84.4	4	-1E+10	1	-1E+10	1	-1E+10	1	-1E+10	1	-1E+10	1	-1E+10	1
4902663	37	C	08/03/2024	21:21	-126.772	47.295	0	75.10	0	8.8120	0	32.3880	0	25.104	0	74.461	0	240.0	4	83.6	4	-1E+10	1	-1E+10	1	-1E+10	1	-1E+10	1	-1E+10	1	-1E+10	1
4902663	37	C	08/03/2024	21:21	-126.772	47.295	0	76.00	0	8.8100	0	32.3960	0	25.110	0	75.353	0	238.6	4	83.1	4	-1E+10	1	-1E+10	1	-1E+10	1	-1E+10	1	-1E+10	1	-1E+10	1
4902663	37	C	08/03/2024	21:21	-126.772	47.295	0	76.80	0	8.7330	0	32.3980	0	25.124	0	76.146	0	237.2	4	82.4	4	-1E+10	1	-1E+10	1	-1E+10	1	-1E+10	1	-1E+10	1	-1E+10	1
4902663	37	C	08/03/2024	21:21	-126.772	47.295	0	78.00	0	8.6490	0	32.3980	0	25.136	0	77.336	0	233.6	4	81.0	4	-1E+10	1	-1E+10	1	-1E+10	1	-1E+10	1	-1E+10	1	-1E+10	1
4902663	37	C	08/03/2024	21:21	-126.772	47.295	0	79.20	0	8.6490	0	32.4360	0	25.166	0	78.525	0	229.3	4	79.6	4	-1E+10	1	-1E+10	1	-1E+10	1	-1E+10	1	-1E+10	1	-1E+10	1
4902663	37	C	08/03/2024	21:21	-126.772	47.295	0	80.00	0	8.5770	0	32.4560	0	25.193	0	79.318	0	226.6	4	78.5	4	-1E+10	1	-1E+10	1	-1E+10	1	-1E+10	1	-1E+10	1	-1E+10	1
4902663	37	C	08/03/2024	21:21	-126.772	47.295	0	81.10	0	8.5210	0	32.4970	0	25.233	0	80.409	0	223.1	4	77.2	4	-1E+10	1	-1E+10	1	-1E+10	1	-1E+10	1	-1E+10	1	-1E+10	1
4902663	37	C	08/03/2024	21:21	-126.772	47.295	0	81.90	0	8.4680	0	32.5300	0	25.267	0	81.202	0	220.8	4	76.4	4	-1E+10	1	-1E+10	1	-1E+10	1	-1E+10	1	-1E+10	1	-1E+10	1
4902663	37	C	08/03/2024	21:21	-126.772	47.295	0	82.80	0	8.4400	0	32.5470	0	25.285	0	82.094	0	217.7	4	75.3	4	-1E+10	1	-1E+10	1	-1E+10	1	-1E+10	1	-1E+10	1	-1E+10	1
4902663	37	C	08/03/2024	21:21	-126.772	47.295	0	84.00	0	8.4080	0	32.5700	0	25.307	0	83.284	0	217.7	4	75.2	4	-1E+10	1	-1E+10	1	-1E+10	1	-1E+10	1	-1E+10	1	-1E+10	1
4902663	37	C	08/03/2024	21:21	-126.772	47.295	0	85.00	0	8.3780	0	32.6180	0	25.350	0	84.275	0	214.2	4	74.0	4	-1E+10	1	-1E+10	1	-1E+10	1	-1E+10	1	-1E+10	1	-1E+10	1
4902663	37	C	08/03/2024	21:21	-126.772	47.295	0	86.00	0	8.3210	0	32.6760	0	25.404	0	85.266	0	211.1	4	72.9	4	-1E+10	1	-1E+10	1	-1E+10	1	-1E+10	1	-1E+10	1	-1E+10	1
4902663	37	C	08/03/2024	21:21	-126.772	47.295	0	87.10	0	8.2720	0	32.6920	0	25.423	0	86.356	0	208.3	4	71.8	4	-1E+10	1	-1E+10	1	-1E+10	1	-1E+10	1	-1E+10	1	-1E+10	1
4902663	37	C	08/03/2024	21:21	-126.772	47.295	0	87.80	0	8.2420	0	32.7190	0	25.449	0	87.050	0	206.5	4	71.2	4	-1E+10	1	-1E+10	1	-1E+10	1	-1E+10	1	-1E+10	1	-1E+10	1
4902663	37	C	08/03/2024	21:21	-126.772	47.295	0	88.90	0	8.2530	0	32.7540	0	25.475	0	88.141	0	204.0	4	70.3	4	-1E+10	1	-1E+10	1	-1E+10	1	-1E+10	1	-1E+10	1	-1E+10	1
4902663	37	C	08/03/2024	21:21	-126.772	47.295	0	90.10	0	8.2170	0	32.7780	0	25.499	0	89.330	0	201.3	4	69.4	4	-1E+10	1	-1E+10	1	-1E+10	1	-1E+10	1	-1E+10	1	-1E+10	1
4902663	37	C	08/03/2024	21:21	-126.772	47.295	0	90.90	0	8.2040	0	32.8320	0	25.543	0	90.123	0	199.6	4	68.8	4	-1E+10	1	-1E+10	1	-1E+10	1	-1E+10	1	-1E+10	1	-1E+10	1
4902663	37	C	08/03/2024	21:21	-126.772	47.295	0	91.70	0	8.1920	0	32.8630	0	25.569	0	90.916	0	198.4	4	68.4	4	-1E+10	1	-1E+10	1	-1E+10	1	-1E+10	1	-1E+10	1	-1E+10	1
4902663	37	C	08/03/2024	21:21	-126.772	47.295	0	92.90	0	8.1170	0	32.8700	0	25.586	0	92.106	0	196.3	4	67.5	4	-1E+10	1	-1E+10	1	-1E+10	1	-1E+10	1	-1E+10	1	-1E+10	1
4902663	37	C	08/03/2024	21:21	-126.772	47.295	0	94.30	0	8.0600	0	32.9010	0	25.619	0	93.493	0	193.7	4	66.6	4	-1E+10	1	-1E+10	1	-1E+10	1	-1E+10	1	-1E+10	1	-1E+10	1
4902663	37	C	08/03/2024	21:21	-126.772	47.295	0	95.20	0	8.0570	0	32.9120	0	25.628	0	94.385	0	191.6	4	65.9	4	-1E+10	1	-1E+10	1	-1E+10	1	-1E+10	1	-1E+10	1	-1E+10	1
4902663	37	C	08/03/2024	21:21	-126.772	47.295	0	96.00	0	8.0630	0	32.9260	0	25.638	0	95.178	0	189.4	4	65.1	4	-1E+10	1	-1E+10	1	-1E+10	1	-1E+10	1	-1E+10	1	-1E+10	1
4902663	37	C	08/03/2024	21:21	-126.772	47.295	0	96.90	0	8.0410	0	32.9600	0	25.668	0	96.071	0	187.2	4	64.4	4	-1E+10	1	-1E+10	1	-1E+10	1	-1E+10	1	-1E+10	1	-1E+10	1
4902663	37	C	08/03/2024	21:21	-126.772	47.295	0	97.90	0	8.0550	0	32.9690	0	25.673	0	97.062	0	184.9	4	63.6	4	-1E+10	1	-1E+10	1	-1E+10	1	-1E+10	1	-1E+10	1	-1E+10	1
4902663	37	C	08/03/2024	21:21	-126.772	47.295	0	98.80	0	8.0560	0	33.0150	0	25.709	0	97.954	0	183.1	4	63.0	4	-1E+10	1	-1E+10	1	-1E+10	1	-1E+10	1	-1E+10	1	-1E+10	1
4902663	37	C	08/03/2024	21:21	-126.772	47.295	0	99.80	0	8.1160	0	33.0480	0	25.726	0	98.945	0	181.9	4	62.7	4	-1E+10	1	-1E+10	1	-1E+10	1	-1E+10	1	-1E+10	1	-1E+10	1
4902663	37	C	08/03/2024	21:21	-126.772	47.295	0	100.80	0	8.1100	0	33.0550	0	25.732	0	99.936	0	180.9	4	62.3	4	-1E+10	1	-1E+10	1	-1E+10	1	-1E+10	1	-1E+10	1	-1E+10	1
4902663	37	C	08/03/2024	21:21	-126.772	47.295	0	101.70	0	8.0990	0	33.0600	0	25.738	0	100.828	0	179.7	4	61.9	4	-1E+10	1	-1E+10	1	-1E+10	1	-1E+10	1	-1E+10	1	-1E+10	1
4902663	37	C	08/03/2024	21:21	-126.772	47.295	0	102.70	0	8.1220	0	33.0760	0	25.747	0	101.819	0	178.8	4	61.6	4	-1E+10	1	-1E+10	1	-1E+10	1	-1E+10	1	-1E+10	1	-1E+10	1
4902663	37	C	08/03/2024	21:21	-126.772	47.295	0	103.60	0	8.0450	0	33.1430	0	25.811	0	102.712	0	178.2	4	61.3	4	-1E+10	1	-1E+10	1	-1E+10	1	-1E+10	1	-1E+10	1	-1E+10	1
4902663	37	C	08/03/2024	21:21	-126.772	47.295	0	104.60	0	8.0230	0	33.1350	0	25.808	0	103.703	0	177.3	4	61.0	4	-1E+10	1	-1E+10	1	-1E+10	1	-1E+10	1	-1E+10	1	-1E+10	1
4902663	37	C	08/03/2024	21:21	-126.772	47.295	0	105.60	0	8.0120	0	33.1460	0	25.818	0	104.694	0	176.4	4	60.7	4	-1E+10	1	-1E+10	1	-1E+10	1	-1E+10	1	-1E+10	1	-1E+10	1
4902663	37	C	08/03/2024	21:21	-126.772	47.295	0	106.50	0	7.9810	0	33.1630	0	25.836	0	105.586	0	175.3	4	60.3	4	-1E+10	1	-1E+10	1	-1E+10	1	-1E+10	1	-1E+10	1	-1E+10	1
4902663	37	C	08/03/2024	21:21	-126.772	47.295	0	107.90	0	7.9460	0	33.1950	0	25.866	0	106.974	0	173.7	4	59.7	4	-1E+10	1	-1E+10	1	-1E+10	1	-1E+10	1	-1E+10	1	-1E+10	1
4902663	37	C	08/03/2024	21:21	-126.772	47.295	0	109.30	0	7.9770	0	33.2190	0	25.880	0	108.361	0	172.5	4	59.3	4	-1E+10	1	-1E+10	1	-1E+10	1	-1E+10	1	-1E+10	1	-1E+10	1
4902663	37	C	08/03/2024	21:21	-126.772	47.295	0	110.30	0	7.9660	0	33.2320	0	25.892	0	109.352	0	172.0	4	59.1	4	-1E+10	1	-1E+10	1	-1E+10	1	-1E+10	1	-1E+10	1	-1E+10	1
4902663	37	C	08/03/2024	21:21	-126.772	47.295	0	111.20	0	7.9530	0	33.2330	0	25.895	0	110.244	0	171.3	4	58.9	4	-1E+10	1	-1E+10	1	-1E+10	1	-1E+10	1	-1E+10	1	-1E+10	1
4902663	37	C	08/03/2024	21:21	-126.772	47.295	0	112.10	0	7.9150	0	33.2370	0	25.904	0	111.136	0	170.2	4	58.4	4	-1E+10	1	-1E+10	1	-1E+10	1	-1E+10	1	-1E+10	1	-1E+10	1
4902663	37	C	08/03/2024	21:21	-126.772	47.295	0	113.10	0	7.8790	0	33.2580	0	25.925	0	112.127	0	168.7	4	57.9	4	-1E+10	1	-1E+10	1	-1E+10	1	-1E+10	1	-1E+10	1	-1E+10	1
4902663	37	C	08/03/2024	21:21	-126.772	47.295	0	114.00	0	7.8620	0	33.2760	0	25.942	0	113.019	0	167.6	4	57.5	4	-1E+10	1	-1E+10	1	-1E+10	1	-1E+10	1	-1E+10	1	-1E+10	1
4902663	37	C	08/03/2024	21:21	-126.772	47.295	0	114.90	0	7.8990	0	33.2960	0	25.952	0	113.911	0	166.5	4	57.2	4	-1E+10	1	-1E+10	1	-1E+10	1	-1E+10	1	-1E+10	1	-1E+10	1
4902663	37	C	08/03/2024	21:21	-126.772	47.295	0	115.90	0	7.8840	0	33.3050	0	25.962	0	114.903	0	165.9	4	57.0	4	-1E+10	1	-1E+10	1	-1E+10	1	-1E+10	1	-1E+10	1	-1E+10	1
4902663	37	C	08/03/2024	21:21	-126.772	47.295	0	116.90	0	7.8990	0	33.3450	0	25.991	0	115.894	0	165.6	4	56.9	4	-1E+10	1	-1E+10	1	-1E+10	1	-1E+10	1	-1E+10	1	-1E+10	1
4902663	37	C	08/03/2024	21:21	-126.772	47.295	0	117.80	0	7.8590	0	33.3620	0	26.010	0	116.786	0	165.3	4	56.7	4	-1E+10	1	-1E+10	1	-1E+10	1	-1E+10	1	-1E+10	1	-1E+10	1
4902663	37	C	08/03/2024	21:21	-126.772	47.295	0	118.80	0	7.7850	0	33.3630	0	26.021	0	117.777	0	164.5	4	56.4	4	-1E+10	1	-1E+10	1	-1E+10	1	-1E+10	1	-1E+10	1	-1E+10	1
4902663	37	C	08/03/2024	21:21	-126.772	47.295	0	119.80	0	7.7090	0	33.3640	0	26.033	0	118.768	0	163.2	4	55.8	4	-1E+10	1	-1E+10	1	-1E+10	1	-1E+10	1	-1E+10	1	-1E+10	1
4902663	37	C	08/03/2024	21:21	-126.772	47.295	0	120.80	0	7.6960	0	33.3700	0	26.040	0	119.759	0	161.5	4	55.2	4	-1E+10	1	-1E+10	1	-1E+10	1	-1E+10	1	-1E+10	1	-1E+10	1
4902663	37	C	08/03/2024	21:21	-126.772	47.295	0	121.80	0	7.7100	0	33.3780	0	26.044	0	120.750	0	159.5	4	54.6	4	-1E+10	1	-1E+10	1	-1E+10	1	-1E+10	1	-1E+10	1	-1E+10	1
4902663	37	C	08/03/2024	21:21	-126.772	47.295	0	122.80	0	7.7210	0	33.3800	0	26.044	0	121.741	0	157.2	4	53.8	4	-1E+10	1	-1E+10	1	-1E+10	1	-1E+10	1	-1E+10	1	-1E+10	1
4902663	37	C	08/03/2024	21:21	-126.772	47.295	0	123.70	0	7.7410	0	33.3800	0	26.041	0	122.633	0	154.9	4	53.0	4	-1E+10	1	-1E+10	1	-1E+10	1	-1E+10	1	-1E+10	1	-1E+10	1
4902663	37	C	08/03/2024	21:21	-126.772	47.295	0	124.60	0	7.7530	0	33.4210	0	26.072	0	123.525	0	152.8	4	52.4	4	-1E+10	1	-1E+10	1	-1E+10	1	-1E+10	1	-1E+10	1	-1E+10	1
4902663	37	C	08/03/2024	21:21	-126.772	47.295	0	125.60	0	7.7660	0	33.4340	0	26.080	0	124.516	0	150.4	4	51.6	4	-1E+10	1	-1E+10	1	-1E+10	1	-1E+10	1	-1E+10	1	-1E+10	1
4902663	37	C	08/03/2024	21:21	-126.772	47.295	0	126.60	0	7.8110	0	33.4530	0	26.089	0	125.507	0	148.5	4	51.0	4	-1E+10	1	-1E+10	1	-1E+10	1	-1E+10	1	-1E+10	1	-1E+10	1
4902663	37	C	08/03/2024	21:21	-126.772	47.295	0	127.60	0	7.8770	0	33.4860	0	26.105	0	126.498	0	147.5	4	50.7	4	-1E+10	1	-1E+10	1	-1E+10	1	-1E+10	1	-1E+10	1	-1E+10	1
4902663	37	C	08/03/2024	21:21	-126.772	47.295	0	128.60	0	7.9090	0	33.5170	0	26.125	0	127.489	0	147.3	4	50.7	4	-1E+10	1	-1E+10	1	-1E+10	1	-1E+10	1	-1E+10	1	-1E+10	1
4902663	37	C	08/03/2024	21:21	-126.772	47.295	0	129.60	0	7.8560	0	33.5290	0	26.142	0	128.480	0	147.2	4	50.6	4	-1E+10	1	-1E+10	1	-1E+10	1	-1E+10	1	-1E+10	1	-1E+10	1
4902663	37	C	08/03/2024	21:21	-126.772	47.295	0	130.60	0	7.8170	0	33.5240	0	26.144	0	129.471	0	146.7	4	50.4	4	-1E+10	1	-1E+10	1	-1E+10	1	-1E+10	1	-1E+10	1	-1E+10	1
4902663	37	C	08/03/2024	21:21	-126.772	47.295	0	131.60	0	7.8060	0	33.5400	0	26.158	0	130.463	0	146.4	4	50.3	4	-1E+10	1	-1E+10	1	-1E+10	1	-1E+10	1	-1E+10	1	-1E+10	1
4902663	37	C	08/03/2024	21:21	-126.772	47.295	0	132.50	0	7.8140	0	33.5460	0	26.161	0	131.354	0	146.1	4	50.2	4	-1E+10	1	-1E+10	1	-1E+10	1	-1E+10	1	-1E+10	1	-1E+10	1
4902663	37	C	08/03/2024	21:21	-126.772	47.295	0	133.80	0	7.8120	0	33.5590	0	26.172	0	132.643	0	146.1	4	50.2	4	-1E+10	1	-1E+10	1	-1E+10	1	-1E+10	1	-1E+10	1	-1E+10	1
4902663	37	C	08/03/2024	21:21	-126.772	47.295	0	134.90	0	7.8080	0	33.5610	0	26.174	0	133.733	0	146.0	4	50.2	4	-1E+10	1	-1E+10	1	-1E+10	1	-1E+10	1	-1E+10	1	-1E+10	1
4902663	37	C	08/03/2024	21:21	-126.772	47.295	0	135.90	0	7.7990	0	33.5630	0	26.177	0	134.724	0	146.0	4	50.1	4	-1E+10	1	-1E+10	1	-1E+10	1	-1E+10	1	-1E+10	1	-1E+10	1
4902663	37	C	08/03/2024	21:21	-126.772	47.295	0	137.00	0	7.8060	0	33.5880	0	26.195	0	135.814	0	146.2	4	50.2	4	-1E+10	1	-1E+10	1	-1E+10	1	-1E+10	1	-1E+10	1	-1E+10	1
4902663	37	C	08/03/2024	21:21	-126.772	47.295	0	137.80	0	7.8090	0	33.5960	0	26.201	0	136.607	0	146.8	4	50.4	4	-1E+10	1	-1E+10	1	-1E+10	1	-1E+10	1	-1E+10	1	-1E+10	1
4902663	37	C	08/03/2024	21:21	-126.772	47.295	0	138.90	0	7.8060	0	33.6060	0	26.210	0	137.697	0	148.1	4	50.9	4	-1E+10	1	-1E+10	1	-1E+10	1	-1E+10	1	-1E+10	1	-1E+10	1
4902663	37	C	08/03/2024	21:21	-126.772	47.295	0	140.00	0	7.7560	0	33.6130	0	26.222	0	138.787	0	149.7	4	51.4	4	-1E+10	1	-1E+10	1	-1E+10	1	-1E+10	1	-1E+10	1	-1E+10	1
4902663	37	C	08/03/2024	21:21	-126.772	47.295	0	140.70	0	7.7770	0	33.6170	0	26.223	0	139.481	0	151.3	4	51.9	4	-1E+10	1	-1E+10	1	-1E+10	1	-1E+10	1	-1E+10	1	-1E+10	1
4902663	37	C	08/03/2024	21:21	-126.772	47.295	0	141.80	0	7.7000	0	33.6250	0	26.240	0	140.571	0	153.4	4	52.6	4	-1E+10	1	-1E+10	1	-1E+10	1	-1E+10	1	-1E+10	1	-1E+10	1
4902663	37	C	08/03/2024	21:21	-126.772	47.295	0	143.00	0	7.4740	0	33.6330	0	26.278	0	141.760	0	154.5	4	52.7	4	-1E+10	1	-1E+10	1	-1E+10	1	-1E+10	1	-1E+10	1	-1E+10	1
4902663	37	C	08/03/2024	21:21	-126.772	47.295	0	143.80	0	7.3830	0	33.6140	0	26.276	0	142.553	0	154.3	4	52.5	4	-1E+10	1	-1E+10	1	-1E+10	1	-1E+10	1	-1E+10	1	-1E+10	1
4902663	37	C	08/03/2024	21:21	-126.772	47.295	0	144.90	0	7.4200	0	33.6250	0	26.280	0	143.643	0	154.2	4	52.5	4	-1E+10	1	-1E+10	1	-1E+10	1	-1E+10	1	-1E+10	1	-1E+10	1
4902663	37	C	08/03/2024	21:21	-126.772	47.295	0	146.10	0	7.3970	0	33.6370	0	26.292	0	144.832	0	154.1	4	52.5	4	-1E+10	1	-1E+10	1	-1E+10	1	-1E+10	1	-1E+10	1	-1E+10	1
4902663	37	C	08/03/2024	21:21	-126.772	47.295	0	146.90	0	7.3750	0	33.6320	0	26.292	0	145.625	0	153.9	4	52.4	4	-1E+10	1	-1E+10	1	-1E+10	1	-1E+10	1	-1E+10	1	-1E+10	1
4902663	37	C	08/03/2024	21:21	-126.772	47.295	0	147.70	0	7.2520	0	33.6370	0	26.313	0	146.418	0	153.4	4	52.0	4	-1E+10	1	-1E+10	1	-1E+10	1	-1E+10	1	-1E+10	1	-1E+10	1
4902663	37	C	08/03/2024	21:21	-126.772	47.295	0	148.90	0	7.2120	0	33.6390	0	26.320	0	147.607	0	152.4	4	51.7	4	-1E+10	1	-1E+10	1	-1E+10	1	-1E+10	1	-1E+10	1	-1E+10	1
4902663	37	C	08/03/2024	21:21	-126.772	47.295	0	150.20	0	7.2410	0	33.6550	0	26.328	0	148.895	0	151.4	4	51.4	4	-1E+10	1	-1E+10	1	-1E+10	1	-1E+10	1	-1E+10	1	-1E+10	1
4902663	37	C	08/03/2024	21:21	-126.772	47.295	0	151.00	0	7.2540	0	33.6580	0	26.329	0	149.688	0	150.8	4	51.2	4	-1E+10	1	-1E+10	1	-1E+10	1	-1E+10	1	-1E+10	1	-1E+10	1
4902663	37	C	08/03/2024	21:21	-126.772	47.295	0	151.90	0	7.2570	0	33.6600	0	26.330	0	150.580	0	150.1	4	50.9	4	-1E+10	1	-1E+10	1	-1E+10	1	-1E+10	1	-1E+10	1	-1E+10	1
4902663	37	C	08/03/2024	21:21	-126.772	47.295	0	152.70	0	7.1960	0	33.6680	0	26.345	0	151.372	0	149.2	4	50.6	4	-1E+10	1	-1E+10	1	-1E+10	1	-1E+10	1	-1E+10	1	-1E+10	1
4902663	37	C	08/03/2024	21:21	-126.772	47.295	0	154.00	0	7.1870	0	33.6740	0	26.351	0	152.661	0	148.0	4	50.1	4	-1E+10	1	-1E+10	1	-1E+10	1	-1E+10	1	-1E+10	1	-1E+10	1
4902663	37	C	08/03/2024	21:21	-126.772	47.295	0	155.20	0	7.1900	0	33.6810	0	26.356	0	153.850	0	146.8	4	49.7	4	-1E+10	1	-1E+10	1	-1E+10	1	-1E+10	1	-1E+10	1	-1E+10	1
4902663	37	C	08/03/2024	21:21	-126.772	47.295	0	156.10	0	7.1860	0	33.6960	0	26.368	0	154.742	0	145.9	4	49.5	4	-1E+10	1	-1E+10	1	-1E+10	1	-1E+10	1	-1E+10	1	-1E+10	1
4902663	37	C	08/03/2024	21:21	-126.772	47.295	0	157.00	0	7.1920	0	33.7100	0	26.378	0	155.633	0	145.4	4	49.3	4	-1E+10	1	-1E+10	1	-1E+10	1	-1E+10	1	-1E+10	1	-1E+10	1
4902663	37	C	08/03/2024	21:21	-126.772	47.295	0	157.80	0	7.1670	0	33.7130	0	26.384	0	156.426	0	144.9	4	49.1	4	-1E+10	1	-1E+10	1	-1E+10	1	-1E+10	1	-1E+10	1	-1E+10	1
4902663	37	C	08/03/2024	21:21	-126.772	47.295	0	158.70	0	7.1670	0	33.7170	0	26.387	0	157.318	0	144.5	4	49.0	4	-1E+10	1	-1E+10	1	-1E+10	1	-1E+10	1	-1E+10	1	-1E+10	1
4902663	37	C	08/03/2024	21:21	-126.772	47.295	0	159.90	0	7.1490	0	33.7250	0	26.396	0	158.507	0	143.8	4	48.7	4	-1E+10	1	-1E+10	1	-1E+10	1	-1E+10	1	-1E+10	1	-1E+10	1
4902663	37	C	08/03/2024	21:21	-126.772	47.295	0	161.30	0	7.1220	0	33.7280	0	26.402	0	159.894	0	143.2	4	48.5	4	-1E+10	1	-1E+10	1	-1E+10	1	-1E+10	1	-1E+10	1	-1E+10	1
4902663	37	C	08/03/2024	21:21	-126.772	47.295	0	162.20	0	7.1500	0	33.7340	0	26.403	0	160.786	0	142.8	4	48.4	4	-1E+10	1	-1E+10	1	-1E+10	1	-1E+10	1	-1E+10	1	-1E+10	1
4902663	37	C	08/03/2024	21:21	-126.772	47.295	0	163.10	0	7.0990	0	33.7330	0	26.409	0	161.678	0	142.4	4	48.2	4	-1E+10	1	-1E+10	1	-1E+10	1	-1E+10	1	-1E+10	1	-1E+10	1
4902663	37	C	08/03/2024	21:21	-126.772	47.295	0	164.00	0	7.0860	0	33.7390	0	26.416	0	162.570	0	142.0	4	48.0	4	-1E+10	1	-1E+10	1	-1E+10	1	-1E+10	1	-1E+10	1	-1E+10	1
4902663	37	C	08/03/2024	21:21	-126.772	47.295	0	164.90	0	7.0590	0	33.7440	0	26.424	0	163.462	0	141.6	4	47.9	4	-1E+10	1	-1E+10	1	-1E+10	1	-1E+10	1	-1E+10	1	-1E+10	1
4902663	37	C	08/03/2024	21:21	-126.772	47.295	0	165.80	0	7.0540	0	33.7420	0	26.423	0	164.353	0	141.1	4	47.7	4	-1E+10	1	-1E+10	1	-1E+10	1	-1E+10	1	-1E+10	1	-1E+10	1
4902663	37	C	08/03/2024	21:21	-126.772	47.295	0	166.70	0	7.0390	0	33.7430	0	26.426	0	165.245	0	140.6	4	47.5	4	-1E+10	1	-1E+10	1	-1E+10	1	-1E+10	1	-1E+10	1	-1E+10	1
4902663	37	C	08/03/2024	21:21	-126.772	47.295	0	167.70	0	7.0420	0	33.7470	0	26.428	0	166.236	0	140.0	4	47.3	4	-1E+10	1	-1E+10	1	-1E+10	1	-1E+10	1	-1E+10	1	-1E+10	1
4902663	37	C	08/03/2024	21:21	-126.772	47.295	0	168.60	0	7.0380	0	33.7550	0	26.435	0	167.128	0	139.6	4	47.2	4	-1E+10	1	-1E+10	1	-1E+10	1	-1E+10	1	-1E+10	1	-1E+10	1
4902663	37	C	08/03/2024	21:21	-126.772	47.295	0	169.50	0	7.0290	0	33.7580	0	26.439	0	168.020	0	139.1	4	47.0	4	-1E+10	1	-1E+10	1	-1E+10	1	-1E+10	1	-1E+10	1	-1E+10	1
4902663	37	C	08/03/2024	21:21	-126.772	47.295	0	170.90	0	7.0080	0	33.7610	0	26.444	0	169.407	0	138.4	4	46.8	4	-1E+10	1	-1E+10	1	-1E+10	1	-1E+10	1	-1E+10	1	-1E+10	1
4902663	37	C	08/03/2024	21:21	-126.772	47.295	0	172.30	0	6.9870	0	33.7640	0	26.449	0	170.794	0	137.6	4	46.5	4	-1E+10	1	-1E+10	1	-1E+10	1	-1E+10	1	-1E+10	1	-1E+10	1
4902663	37	C	08/03/2024	21:21	-126.772	47.295	0	173.30	0	6.9740	0	33.7680	0	26.454	0	171.785	0	137.0	4	46.3	4	-1E+10	1	-1E+10	1	-1E+10	1	-1E+10	1	-1E+10	1	-1E+10	1
4902663	37	C	08/03/2024	21:21	-126.772	47.295	0	174.20	0	6.9680	0	33.7700	0	26.457	0	172.677	0	136.3	4	46.0	4	-1E+10	1	-1E+10	1	-1E+10	1	-1E+10	1	-1E+10	1	-1E+10	1
4902663	37	C	08/03/2024	21:21	-126.772	47.295	0	175.20	0	6.9530	0	33.7760	0	26.463	0	173.667	0	135.7	4	45.8	4	-1E+10	1	-1E+10	1	-1E+10	1	-1E+10	1	-1E+10	1	-1E+10	1
4902663	37	C	08/03/2024	21:21	-126.772	47.295	0	176.10	0	6.9420	0	33.7770	0	26.466	0	174.559	0	135.0	4	45.5	4	-1E+10	1	-1E+10	1	-1E+10	1	-1E+10	1	-1E+10	1	-1E+10	1
4902663	37	C	08/03/2024	21:21	-126.772	47.295	0	177.10	0	6.9360	0	33.7810	0	26.470	0	175.550	0	134.4	4	45.3	4	-1E+10	1	-1E+10	1	-1E+10	1	-1E+10	1	-1E+10	1	-1E+10	1
4902663	37	C	08/03/2024	21:21	-126.772	47.295	0	178.10	0	6.9450	0	33.7880	0	26.474	0	176.541	0	133.9	4	45.2	4	-1E+10	1	-1E+10	1	-1E+10	1	-1E+10	1	-1E+10	1	-1E+10	1
4902663	37	C	08/03/2024	21:21	-126.772	47.295	0	179.00	0	6.9220	0	33.7940	0	26.482	0	177.432	0	133.4	4	45.0	4	-1E+10	1	-1E+10	1	-1E+10	1	-1E+10	1	-1E+10	1	-1E+10	1
4902663	37	C	08/03/2024	21:21	-126.772	47.295	0	180.00	0	6.9130	0	33.7950	0	26.484	0	178.423	0	133.0	4	44.8	4	-1E+10	1	-1E+10	1	-1E+10	1	-1E+10	1	-1E+10	1	-1E+10	1
4902663	37	C	08/03/2024	21:21	-126.772	47.295	0	181.00	0	6.9100	0	33.7960	0	26.485	0	179.414	0	132.4	4	44.6	4	-1E+10	1	-1E+10	1	-1E+10	1	-1E+10	1	-1E+10	1	-1E+10	1
4902663	37	C	08/03/2024	21:21	-126.772	47.295	0	182.00	0	6.9070	0	33.7970	0	26.486	0	180.405	0	131.9	4	44.5	4	-1E+10	1	-1E+10	1	-1E+10	1	-1E+10	1	-1E+10	1	-1E+10	1
4902663	37	C	08/03/2024	21:21	-126.772	47.295	0	183.00	0	6.9010	0	33.7980	0	26.488	0	181.396	0	131.2	4	44.2	4	-1E+10	1	-1E+10	1	-1E+10	1	-1E+10	1	-1E+10	1	-1E+10	1
4902663	37	C	08/03/2024	21:21	-126.772	47.295	0	184.00	0	6.8840	0	33.8010	0	26.493	0	182.386	0	130.6	4	44.0	4	-1E+10	1	-1E+10	1	-1E+10	1	-1E+10	1	-1E+10	1	-1E+10	1
4902663	37	C	08/03/2024	21:21	-126.772	47.295	0	185.00	0	6.8780	0	33.8010	0	26.493	0	183.377	0	129.8	4	43.7	4	-1E+10	1	-1E+10	1	-1E+10	1	-1E+10	1	-1E+10	1	-1E+10	1
4902663	37	C	08/03/2024	21:21	-126.772	47.295	0	186.00	0	6.8720	0	33.8020	0	26.495	0	184.368	0	129.0	4	43.5	4	-1E+10	1	-1E+10	1	-1E+10	1	-1E+10	1	-1E+10	1	-1E+10	1
4902663	37	C	08/03/2024	21:21	-126.772	47.295	0	187.10	0	6.8540	0	33.8020	0	26.497	0	185.458	0	128.1	4	43.1	4	-1E+10	1	-1E+10	1	-1E+10	1	-1E+10	1	-1E+10	1	-1E+10	1
4902663	37	C	08/03/2024	21:21	-126.772	47.295	0	188.10	0	6.8690	0	33.8060	0	26.499	0	186.449	0	127.2	4	42.8	4	-1E+10	1	-1E+10	1	-1E+10	1	-1E+10	1	-1E+10	1	-1E+10	1
4902663	37	C	08/03/2024	21:21	-126.772	47.295	0	189.10	0	6.8970	0	33.8170	0	26.503	0	187.439	0	126.6	4	42.7	4	-1E+10	1	-1E+10	1	-1E+10	1	-1E+10	1	-1E+10	1	-1E+10	1
4902663	37	C	08/03/2024	21:21	-126.772	47.295	0	190.10	0	6.8960	0	33.8200	0	26.506	0	188.430	0	126.2	4	42.5	4	-1E+10	1	-1E+10	1	-1E+10	1	-1E+10	1	-1E+10	1	-1E+10	1
4902663	37	C	08/03/2024	21:21	-126.772	47.295	0	191.20	0	6.8850	0	33.8230	0	26.510	0	189.520	0	126.0	4	42.5	4	-1E+10	1	-1E+10	1	-1E+10	1	-1E+10	1	-1E+10	1	-1E+10	1
4902663	37	C	08/03/2024	21:21	-126.772	47.295	0	192.20	0	6.8800	0	33.8250	0	26.512	0	190.511	0	125.8	4	42.4	4	-1E+10	1	-1E+10	1	-1E+10	1	-1E+10	1	-1E+10	1	-1E+10	1
4902663	37	C	08/03/2024	21:21	-126.772	47.295	0	193.20	0	6.8780	0	33.8270	0	26.514	0	191.502	0	125.7	4	42.4	4	-1E+10	1	-1E+10	1	-1E+10	1	-1E+10	1	-1E+10	1	-1E+10	1
4902663	37	C	08/03/2024	21:21	-126.772	47.295	0	194.20	0	6.8650	0	33.8260	0	26.515	0	192.492	0	125.5	4	42.3	4	-1E+10	1	-1E+10	1	-1E+10	1	-1E+10	1	-1E+10	1	-1E+10	1
4902663	37	C	08/03/2024	21:21	-126.772	47.295	0	195.30	0	6.8440	0	33.8260	0	26.518	0	193.582	0	125.0	4	42.1	4	-1E+10	1	-1E+10	1	-1E+10	1	-1E+10	1	-1E+10	1	-1E+10	1
4902663	37	C	08/03/2024	21:21	-126.772	47.295	0	196.30	0	6.7890	0	33.8250	0	26.524	0	194.573	0	124.5	4	41.9	4	-1E+10	1	-1E+10	1	-1E+10	1	-1E+10	1	-1E+10	1	-1E+10	1
4902663	37	C	08/03/2024	21:21	-126.772	47.295	0	197.30	0	6.7800	0	33.8240	0	26.525	0	195.564	0	123.9	4	41.6	4	-1E+10	1	-1E+10	1	-1E+10	1	-1E+10	1	-1E+10	1	-1E+10	1
4902663	37	C	08/03/2024	21:21	-126.772	47.295	0	198.40	0	6.7840	0	33.8270	0	26.527	0	196.653	0	123.3	4	41.4	4	-1E+10	1	-1E+10	1	-1E+10	1	-1E+10	1	-1E+10	1	-1E+10	1
4902663	37	C	08/03/2024	21:21	-126.772	47.295	0	199.40	0	6.7550	0	33.8290	0	26.532	0	197.644	0	122.7	4	41.2	4	-1E+10	1	-1E+10	1	-1E+10	1	-1E+10	1	-1E+10	1	-1E+10	1
4902663	37	C	08/03/2024	21:21	-126.772	47.295	0	200.50	0	6.7420	0	33.8290	0	26.534	0	198.734	0	122.1	4	41.0	4	-1E+10	1	-1E+10	1	-1E+10	1	-1E+10	1	-1E+10	1	-1E+10	1
4902663	37	C	08/03/2024	21:21	-126.772	47.295	0	201.50	0	6.7300	0	33.8290	0	26.535	0	199.725	0	121.6	4	40.8	4	-1E+10	1	-1E+10	1	-1E+10	1	-1E+10	1	-1E+10	1	-1E+10	1
4902663	37	C	08/03/2024	21:21	-126.772	47.295	0	202.50	0	6.7520	0	33.8360	0	26.538	0	200.715	0	121.2	4	40.7	4	-1E+10	1	-1E+10	1	-1E+10	1	-1E+10	1	-1E+10	1	-1E+10	1
4902663	37	C	08/03/2024	21:21	-126.772	47.295	0	203.50	0	6.7120	0	33.8360	0	26.543	0	201.706	0	120.7	4	40.5	4	-1E+10	1	-1E+10	1	-1E+10	1	-1E+10	1	-1E+10	1	-1E+10	1
4902663	37	C	08/03/2024	21:21	-126.772	47.295	0	204.60	0	6.7080	0	33.8370	0	26.545	0	202.796	0	120.2	4	40.3	4	-1E+10	1	-1E+10	1	-1E+10	1	-1E+10	1	-1E+10	1	-1E+10	1
4902663	37	C	08/03/2024	21:21	-126.772	47.295	0	205.60	0	6.6900	0	33.8360	0	26.546	0	203.786	0	119.5	4	40.1	4	-1E+10	1	-1E+10	1	-1E+10	1	-1E+10	1	-1E+10	1	-1E+10	1
4902663	37	C	08/03/2024	21:21	-126.772	47.295	0	206.60	0	6.6740	0	33.8350	0	26.548	0	204.777	0	118.7	4	39.8	4	-1E+10	1	-1E+10	1	-1E+10	1	-1E+10	1	-1E+10	1	-1E+10	1
4902663	37	C	08/03/2024	21:21	-126.772	47.295	0	207.70	0	6.6860	0	33.8370	0	26.548	0	205.867	0	118.1	4	39.6	4	-1E+10	1	-1E+10	1	-1E+10	1	-1E+10	1	-1E+10	1	-1E+10	1
4902663	37	C	08/03/2024	21:21	-126.772	47.295	0	208.70	0	6.6940	0	33.8470	0	26.555	0	206.858	0	117.7	4	39.5	4	-1E+10	1	-1E+10	1	-1E+10	1	-1E+10	1	-1E+10	1	-1E+10	1
4902663	37	C	08/03/2024	21:21	-126.772	47.295	0	209.70	0	6.6680	0	33.8450	0	26.556	0	207.848	0	117.4	4	39.4	4	-1E+10	1	-1E+10	1	-1E+10	1	-1E+10	1	-1E+10	1	-1E+10	1
4902663	37	C	08/03/2024	21:21	-126.772	47.295	0	210.70	0	6.6640	0	33.8470	0	26.559	0	208.839	0	117.1	4	39.3	4	-1E+10	1	-1E+10	1	-1E+10	1	-1E+10	1	-1E+10	1	-1E+10	1
4902663	37	C	08/03/2024	21:21	-126.772	47.295	0	211.70	0	6.6500	0	33.8480	0	26.561	0	209.830	0	116.7	4	39.1	4	-1E+10	1	-1E+10	1	-1E+10	1	-1E+10	1	-1E+10	1	-1E+10	1
4902663	37	C	08/03/2024	21:21	-126.772	47.295	0	212.70	0	6.6180	0	33.8510	0	26.568	0	210.820	0	116.2	4	38.9	4	-1E+10	1	-1E+10	1	-1E+10	1	-1E+10	1	-1E+10	1	-1E+10	1
4902663	37	C	08/03/2024	21:21	-126.772	47.295	0	213.80	0	6.6000	0	33.8450	0	26.565	0	211.910	0	115.5	4	38.7	4	-1E+10	1	-1E+10	1	-1E+10	1	-1E+10	1	-1E+10	1	-1E+10	1
4902663	37	C	08/03/2024	21:21	-126.772	47.295	0	214.80	0	6.5940	0	33.8460	0	26.567	0	212.901	0	115.0	4	38.5	4	-1E+10	1	-1E+10	1	-1E+10	1	-1E+10	1	-1E+10	1	-1E+10	1
4902663	37	C	08/03/2024	21:21	-126.772	47.295	0	215.80	0	6.6090	0	33.8540	0	26.571	0	213.891	0	114.6	4	38.4	4	-1E+10	1	-1E+10	1	-1E+10	1	-1E+10	1	-1E+10	1	-1E+10	1
4902663	37	C	08/03/2024	21:21	-126.772	47.295	0	216.90	0	6.5900	0	33.8540	0	26.574	0	214.981	0	114.2	4	38.2	4	-1E+10	1	-1E+10	1	-1E+10	1	-1E+10	1	-1E+10	1	-1E+10	1
4902663	37	C	08/03/2024	21:21	-126.772	47.295	0	217.90	0	6.5930	0	33.8540	0	26.573	0	215.972	0	113.9	4	38.1	4	-1E+10	1	-1E+10	1	-1E+10	1	-1E+10	1	-1E+10	1	-1E+10	1
4902663	37	C	08/03/2024	21:21	-126.772	47.295	0	218.90	0	6.6000	0	33.8570	0	26.575	0	216.962	0	113.5	4	38.0	4	-1E+10	1	-1E+10	1	-1E+10	1	-1E+10	1	-1E+10	1	-1E+10	1
4902663	37	C	08/03/2024	21:21	-126.772	47.295	0	219.90	0	6.5990	0	33.8590	0	26.577	0	217.953	0	113.2	4	37.9	4	-1E+10	1	-1E+10	1	-1E+10	1	-1E+10	1	-1E+10	1	-1E+10	1
4902663	37	C	08/03/2024	21:21	-126.772	47.295	0	220.90	0	6.5720	0	33.8560	0	26.578	0	218.943	0	112.8	4	37.8	4	-1E+10	1	-1E+10	1	-1E+10	1	-1E+10	1	-1E+10	1	-1E+10	1
4902663	37	C	08/03/2024	21:21	-126.772	47.295	0	221.90	0	6.5940	0	33.8640	0	26.581	0	219.934	0	112.7	4	37.7	4	-1E+10	1	-1E+10	1	-1E+10	1	-1E+10	1	-1E+10	1	-1E+10	1
4902663	37	C	08/03/2024	21:21	-126.772	47.295	0	222.90	0	6.5950	0	33.8630	0	26.580	0	220.925	0	112.6	4	37.7	4	-1E+10	1	-1E+10	1	-1E+10	1	-1E+10	1	-1E+10	1	-1E+10	1
4902663	37	C	08/03/2024	21:21	-126.772	47.295	0	223.90	0	6.5980	0	33.8600	0	26.578	0	221.915	0	112.5	4	37.7	4	-1E+10	1	-1E+10	1	-1E+10	1	-1E+10	1	-1E+10	1	-1E+10	1
4902663	37	C	08/03/2024	21:21	-126.772	47.295	0	225.00	0	6.5390	0	33.8610	0	26.586	0	223.005	0	112.3	4	37.5	4	-1E+10	1	-1E+10	1	-1E+10	1	-1E+10	1	-1E+10	1	-1E+10	1
4902663	37	C	08/03/2024	21:21	-126.772	47.295	0	226.00	0	6.5240	0	33.8570	0	26.585	0	223.995	0	112.0	4	37.4	4	-1E+10	1	-1E+10	1	-1E+10	1	-1E+10	1	-1E+10	1	-1E+10	1
4902663	37	C	08/03/2024	21:21	-126.772	47.295	0	227.00	0	6.5250	0	33.8630	0	26.590	0	224.986	0	111.8	4	37.4	4	-1E+10	1	-1E+10	1	-1E+10	1	-1E+10	1	-1E+10	1	-1E+10	1
4902663	37	C	08/03/2024	21:21	-126.772	47.295	0	228.00	0	6.5240	0	33.8630	0	26.590	0	225.977	0	111.6	4	37.3	4	-1E+10	1	-1E+10	1	-1E+10	1	-1E+10	1	-1E+10	1	-1E+10	1
4902663	37	C	08/03/2024	21:21	-126.772	47.295	0	229.00	0	6.5150	0	33.8620	0	26.590	0	226.967	0	111.4	4	37.2	4	-1E+10	1	-1E+10	1	-1E+10	1	-1E+10	1	-1E+10	1	-1E+10	1
4902663	37	C	08/03/2024	21:21	-126.772	47.295	0	230.00	0	6.4680	0	33.8600	0	26.595	0	227.958	0	110.9	4	37.0	4	-1E+10	1	-1E+10	1	-1E+10	1	-1E+10	1	-1E+10	1	-1E+10	1
4902663	37	C	08/03/2024	21:21	-126.772	47.295	0	231.00	0	6.4440	0	33.8630	0	26.600	0	228.948	0	110.4	4	36.8	4	-1E+10	1	-1E+10	1	-1E+10	1	-1E+10	1	-1E+10	1	-1E+10	1
4902663	37	C	08/03/2024	21:21	-126.772	47.295	0	232.00	0	6.4070	0	33.8540	0	26.598	0	229.939	0	109.6	4	36.5	4	-1E+10	1	-1E+10	1	-1E+10	1	-1E+10	1	-1E+10	1	-1E+10	1
4902663	37	C	08/03/2024	21:21	-126.772	47.295	0	233.00	0	6.3910	0	33.8570	0	26.602	0	230.929	0	108.8	4	36.2	4	-1E+10	1	-1E+10	1	-1E+10	1	-1E+10	1	-1E+10	1	-1E+10	1
4902663	37	C	08/03/2024	21:21	-126.772	47.295	0	234.00	0	6.4450	0	33.8650	0	26.602	0	231.920	0	108.2	4	36.1	4	-1E+10	1	-1E+10	1	-1E+10	1	-1E+10	1	-1E+10	1	-1E+10	1
4902663	37	C	08/03/2024	21:21	-126.772	47.295	0	235.00	0	6.4610	0	33.8670	0	26.601	0	232.911	0	108.0	4	36.1	4	-1E+10	1	-1E+10	1	-1E+10	1	-1E+10	1	-1E+10	1	-1E+10	1
4902663	37	C	08/03/2024	21:21	-126.772	47.295	0	235.90	0	6.4340	0	33.8720	0	26.609	0	233.802	0	107.9	4	36.0	4	-1E+10	1	-1E+10	1	-1E+10	1	-1E+10	1	-1E+10	1	-1E+10	1
4902663	37	C	08/03/2024	21:21	-126.772	47.295	0	237.00	0	6.4280	0	33.8700	0	26.608	0	234.892	0	107.7	4	35.9	4	-1E+10	1	-1E+10	1	-1E+10	1	-1E+10	1	-1E+10	1	-1E+10	1
4902663	37	C	08/03/2024	21:21	-126.772	47.295	0	238.00	0	6.4110	0	33.8740	0	26.613	0	235.882	0	107.5	4	35.9	4	-1E+10	1	-1E+10	1	-1E+10	1	-1E+10	1	-1E+10	1	-1E+10	1
4902663	37	C	08/03/2024	21:21	-126.772	47.295	0	239.00	0	6.3570	0	33.8660	0	26.614	0	236.873	0	107.1	4	35.7	4	-1E+10	1	-1E+10	1	-1E+10	1	-1E+10	1	-1E+10	1	-1E+10	1
4902663	37	C	08/03/2024	21:21	-126.772	47.295	0	239.90	0	6.3400	0	33.8640	0	26.615	0	237.764	0	106.6	4	35.5	4	-1E+10	1	-1E+10	1	-1E+10	1	-1E+10	1	-1E+10	1	-1E+10	1
4902663	37	C	08/03/2024	21:21	-126.772	47.295	0	240.90	0	6.3360	0	33.8650	0	26.616	0	238.755	0	106.0	4	35.3	4	-1E+10	1	-1E+10	1	-1E+10	1	-1E+10	1	-1E+10	1	-1E+10	1
4902663	37	C	08/03/2024	21:21	-126.772	47.295	0	241.90	0	6.3280	0	33.8640	0	26.616	0	239.745	0	105.5	4	35.1	4	-1E+10	1	-1E+10	1	-1E+10	1	-1E+10	1	-1E+10	1	-1E+10	1
4902663	37	C	08/03/2024	21:21	-126.772	47.295	0	242.90	0	6.3280	0	33.8640	0	26.616	0	240.736	0	104.9	4	34.9	4	-1E+10	1	-1E+10	1	-1E+10	1	-1E+10	1	-1E+10	1	-1E+10	1
4902663	37	C	08/03/2024	21:21	-126.772	47.295	0	243.80	0	6.3290	0	33.8660	0	26.618	0	241.627	0	104.2	4	34.7	4	-1E+10	1	-1E+10	1	-1E+10	1	-1E+10	1	-1E+10	1	-1E+10	1
4902663	37	C	08/03/2024	21:21	-126.772	47.295	0	244.80	0	6.3230	0	33.8640	0	26.617	0	242.618	0	103.6	4	34.5	4	-1E+10	1	-1E+10	1	-1E+10	1	-1E+10	1	-1E+10	1	-1E+10	1
4902663	37	C	08/03/2024	21:21	-126.772	47.295	0	245.80	0	6.3480	0	33.8760	0	26.623	0	243.608	0	103.3	4	34.4	4	-1E+10	1	-1E+10	1	-1E+10	1	-1E+10	1	-1E+10	1	-1E+10	1
4902663	37	C	08/03/2024	21:21	-126.772	47.295	0	246.80	0	6.2920	0	33.8740	0	26.629	0	244.599	0	102.9	4	34.2	4	-1E+10	1	-1E+10	1	-1E+10	1	-1E+10	1	-1E+10	1	-1E+10	1
4902663	37	C	08/03/2024	21:21	-126.772	47.295	0	247.80	0	6.2720	0	33.8730	0	26.631	0	245.589	0	102.4	4	34.0	4	-1E+10	1	-1E+10	1	-1E+10	1	-1E+10	1	-1E+10	1	-1E+10	1
4902663	37	C	08/03/2024	21:21	-126.772	47.295	0	248.80	0	6.2540	0	33.8700	0	26.630	0	246.580	0	101.8	4	33.8	4	-1E+10	1	-1E+10	1	-1E+10	1	-1E+10	1	-1E+10	1	-1E+10	1
4902663	37	C	08/03/2024	21:21	-126.772	47.295	0	249.80	0	6.2500	0	33.8720	0	26.633	0	247.570	0	101.2	4	33.6	4	-1E+10	1	-1E+10	1	-1E+10	1	-1E+10	1	-1E+10	1	-1E+10	1
4902663	37	C	08/03/2024	21:21	-126.772	47.295	0	250.80	0	6.2360	0	33.8710	0	26.634	0	248.561	0	100.6	4	33.4	4	-1E+10	1	-1E+10	1	-1E+10	1	-1E+10	1	-1E+10	1	-1E+10	1
4902663	37	C	08/03/2024	21:21	-126.772	47.295	0	251.80	0	6.2090	0	33.8710	0	26.637	0	249.551	0	99.8	4	33.1	4	-1E+10	1	-1E+10	1	-1E+10	1	-1E+10	1	-1E+10	1	-1E+10	1
4902663	37	C	08/03/2024	21:21	-126.772	47.295	0	252.80	0	6.2210	0	33.8690	0	26.634	0	250.542	0	99.2	4	32.9	4	-1E+10	1	-1E+10	1	-1E+10	1	-1E+10	1	-1E+10	1	-1E+10	1
4902663	37	C	08/03/2024	21:21	-126.772	47.295	0	253.80	0	6.2640	0	33.8860	0	26.642	0	251.532	0	98.8	4	32.8	4	-1E+10	1	-1E+10	1	-1E+10	1	-1E+10	1	-1E+10	1	-1E+10	1
4902663	37	C	08/03/2024	21:21	-126.772	47.295	0	254.80	0	6.2630	0	33.8850	0	26.641	0	252.522	0	98.5	4	32.7	4	-1E+10	1	-1E+10	1	-1E+10	1	-1E+10	1	-1E+10	1	-1E+10	1
4902663	37	C	08/03/2024	21:21	-126.772	47.295	0	255.80	0	6.2700	0	33.8820	0	26.638	0	253.513	0	98.2	4	32.6	4	-1E+10	1	-1E+10	1	-1E+10	1	-1E+10	1	-1E+10	1	-1E+10	1
4902663	37	C	08/03/2024	21:21	-126.772	47.295	0	256.80	0	6.2630	0	33.8860	0	26.642	0	254.503	0	97.8	4	32.5	4	-1E+10	1	-1E+10	1	-1E+10	1	-1E+10	1	-1E+10	1	-1E+10	1
4902663	37	C	08/03/2024	21:21	-126.772	47.295	0	257.80	0	6.2560	0	33.8850	0	26.642	0	255.494	0	97.5	4	32.4	4	-1E+10	1	-1E+10	1	-1E+10	1	-1E+10	1	-1E+10	1	-1E+10	1
4902663	37	C	08/03/2024	21:21	-126.772	47.295	0	258.80	0	6.2600	0	33.8850	0	26.642	0	256.484	0	97.1	4	32.3	4	-1E+10	1	-1E+10	1	-1E+10	1	-1E+10	1	-1E+10	1	-1E+10	1
4902663	37	C	08/03/2024	21:21	-126.772	47.295	0	259.80	0	6.2660	0	33.8870	0	26.642	0	257.475	0	96.8	4	32.2	4	-1E+10	1	-1E+10	1	-1E+10	1	-1E+10	1	-1E+10	1	-1E+10	1
4902663	37	C	08/03/2024	21:21	-126.772	47.295	0	260.80	0	6.2440	0	33.8870	0	26.645	0	258.465	0	96.5	4	32.1	4	-1E+10	1	-1E+10	1	-1E+10	1	-1E+10	1	-1E+10	1	-1E+10	1
4902663	37	C	08/03/2024	21:21	-126.772	47.295	0	261.80	0	6.1840	0	33.8850	0	26.651	0	259.455	0	96.2	4	31.9	4	-1E+10	1	-1E+10	1	-1E+10	1	-1E+10	1	-1E+10	1	-1E+10	1
4902663	37	C	08/03/2024	21:21	-126.772	47.295	0	262.90	0	6.1670	0	33.8860	0	26.654	0	260.545	0	95.7	4	31.7	4	-1E+10	1	-1E+10	1	-1E+10	1	-1E+10	1	-1E+10	1	-1E+10	1
4902663	37	C	08/03/2024	21:21	-126.772	47.295	0	263.90	0	6.1370	0	33.8810	0	26.654	0	261.535	0	95.1	4	31.5	4	-1E+10	1	-1E+10	1	-1E+10	1	-1E+10	1	-1E+10	1	-1E+10	1
4902663	37	C	08/03/2024	21:21	-126.772	47.295	0	265.00	0	6.1390	0	33.8870	0	26.659	0	262.625	0	94.6	4	31.3	4	-1E+10	1	-1E+10	1	-1E+10	1	-1E+10	1	-1E+10	1	-1E+10	1
4902663	37	C	08/03/2024	21:21	-126.772	47.295	0	266.00	0	6.1330	0	33.8860	0	26.659	0	263.615	0	94.0	4	31.2	4	-1E+10	1	-1E+10	1	-1E+10	1	-1E+10	1	-1E+10	1	-1E+10	1
4902663	37	C	08/03/2024	21:21	-126.772	47.295	0	267.10	0	6.1260	0	33.8860	0	26.660	0	264.705	0	93.5	4	31.0	4	-1E+10	1	-1E+10	1	-1E+10	1	-1E+10	1	-1E+10	1	-1E+10	1
4902663	37	C	08/03/2024	21:21	-126.772	47.295	0	268.10	0	6.1300	0	33.8900	0	26.662	0	265.695	0	93.0	4	30.8	4	-1E+10	1	-1E+10	1	-1E+10	1	-1E+10	1	-1E+10	1	-1E+10	1
4902663	37	C	08/03/2024	21:21	-126.772	47.295	0	269.10	0	6.1290	0	33.8900	0	26.662	0	266.685	0	92.5	4	30.6	4	-1E+10	1	-1E+10	1	-1E+10	1	-1E+10	1	-1E+10	1	-1E+10	1
4902663	37	C	08/03/2024	21:21	-126.772	47.295	0	270.20	0	6.1180	0	33.8920	0	26.665	0	267.775	0	91.9	4	30.4	4	-1E+10	1	-1E+10	1	-1E+10	1	-1E+10	1	-1E+10	1	-1E+10	1
4902663	37	C	08/03/2024	21:21	-126.772	47.295	0	271.20	0	6.1110	0	33.8920	0	26.666	0	268.765	0	91.4	4	30.3	4	-1E+10	1	-1E+10	1	-1E+10	1	-1E+10	1	-1E+10	1	-1E+10	1
4902663	37	C	08/03/2024	21:21	-126.772	47.295	0	272.30	0	6.1070	0	33.8940	0	26.668	0	269.855	0	90.8	4	30.1	4	-1E+10	1	-1E+10	1	-1E+10	1	-1E+10	1	-1E+10	1	-1E+10	1
4902663	37	C	08/03/2024	21:21	-126.772	47.295	0	273.30	0	6.1100	0	33.8940	0	26.668	0	270.845	0	90.3	4	29.9	4	-1E+10	1	-1E+10	1	-1E+10	1	-1E+10	1	-1E+10	1	-1E+10	1
4902663	37	C	08/03/2024	21:21	-126.772	47.295	0	274.40	0	6.1300	0	33.8960	0	26.667	0	271.934	0	89.8	4	29.8	4	-1E+10	1	-1E+10	1	-1E+10	1	-1E+10	1	-1E+10	1	-1E+10	1
4902663	37	C	08/03/2024	21:21	-126.772	47.295	0	275.50	0	6.1390	0	33.9040	0	26.672	0	273.024	0	89.5	4	29.7	4	-1E+10	1	-1E+10	1	-1E+10	1	-1E+10	1	-1E+10	1	-1E+10	1
4902663	37	C	08/03/2024	21:21	-126.772	47.295	0	276.50	0	6.1090	0	33.9010	0	26.674	0	274.014	0	89.2	4	29.5	4	-1E+10	1	-1E+10	1	-1E+10	1	-1E+10	1	-1E+10	1	-1E+10	1
4902663	37	C	08/03/2024	21:21	-126.772	47.295	0	277.60	0	6.1060	0	33.9010	0	26.674	0	275.103	0	88.8	4	29.4	4	-1E+10	1	-1E+10	1	-1E+10	1	-1E+10	1	-1E+10	1	-1E+10	1
4902663	37	C	08/03/2024	21:21	-126.772	47.295	0	278.60	0	6.0740	0	33.9010	0	26.678	0	276.094	0	88.3	4	29.2	4	-1E+10	1	-1E+10	1	-1E+10	1	-1E+10	1	-1E+10	1	-1E+10	1
4902663	37	C	08/03/2024	21:21	-126.772	47.295	0	279.70	0	6.0160	0	33.8950	0	26.681	0	277.183	0	87.6	4	29.0	4	-1E+10	1	-1E+10	1	-1E+10	1	-1E+10	1	-1E+10	1	-1E+10	1
4902663	37	C	08/03/2024	21:21	-126.772	47.295	0	280.70	0	6.0050	0	33.8950	0	26.682	0	278.174	0	86.9	4	28.7	4	-1E+10	1	-1E+10	1	-1E+10	1	-1E+10	1	-1E+10	1	-1E+10	1
4902663	37	C	08/03/2024	21:21	-126.772	47.295	0	281.70	0	6.0370	0	33.9060	0	26.687	0	279.164	0	86.4	4	28.6	4	-1E+10	1	-1E+10	1	-1E+10	1	-1E+10	1	-1E+10	1	-1E+10	1
4902663	37	C	08/03/2024	21:21	-126.772	47.295	0	282.90	0	6.0270	0	33.9080	0	26.690	0	280.352	0	85.9	4	28.4	4	-1E+10	1	-1E+10	1	-1E+10	1	-1E+10	1	-1E+10	1	-1E+10	1
4902663	37	C	08/03/2024	21:21	-126.772	47.295	0	284.00	0	6.0270	0	33.9090	0	26.690	0	281.442	0	85.4	4	28.2	4	-1E+10	1	-1E+10	1	-1E+10	1	-1E+10	1	-1E+10	1	-1E+10	1
4902663	37	C	08/03/2024	21:21	-126.772	47.295	0	285.20	0	6.0400	0	33.9120	0	26.691	0	282.630	0	85.1	4	28.2	4	-1E+10	1	-1E+10	1	-1E+10	1	-1E+10	1	-1E+10	1	-1E+10	1
4902663	37	C	08/03/2024	21:21	-126.772	47.295	0	286.00	0	6.0250	0	33.9290	0	26.706	0	283.422	0	84.9	4	28.1	4	-1E+10	1	-1E+10	1	-1E+10	1	-1E+10	1	-1E+10	1	-1E+10	1
4902663	37	C	08/03/2024	21:21	-126.772	47.295	0	286.80	0	6.0030	0	33.9120	0	26.696	0	284.214	0	84.8	4	28.0	4	-1E+10	1	-1E+10	1	-1E+10	1	-1E+10	1	-1E+10	1	-1E+10	1
4902663	37	C	08/03/2024	21:21	-126.772	47.295	0	288.00	0	5.9970	0	33.9130	0	26.697	0	285.403	0	84.4	4	27.9	4	-1E+10	1	-1E+10	1	-1E+10	1	-1E+10	1	-1E+10	1	-1E+10	1
4902663	37	C	08/03/2024	21:21	-126.772	47.295	0	289.20	0	6.0140	0	33.9160	0	26.698	0	286.591	0	84.1	4	27.8	4	-1E+10	1	-1E+10	1	-1E+10	1	-1E+10	1	-1E+10	1	-1E+10	1
4902663	37	C	08/03/2024	21:21	-126.772	47.295	0	289.90	0	6.0200	0	33.9170	0	26.698	0	287.284	0	84.0	4	27.8	4	-1E+10	1	-1E+10	1	-1E+10	1	-1E+10	1	-1E+10	1	-1E+10	1
4902663	37	C	08/03/2024	21:21	-126.772	47.295	0	290.70	0	6.0210	0	33.9180	0	26.698	0	288.077	0	83.9	4	27.7	4	-1E+10	1	-1E+10	1	-1E+10	1	-1E+10	1	-1E+10	1	-1E+10	1
4902663	37	C	08/03/2024	21:21	-126.772	47.295	0	291.90	0	5.9860	0	33.9180	0	26.703	0	289.265	0	83.9	4	27.7	4	-1E+10	1	-1E+10	1	-1E+10	1	-1E+10	1	-1E+10	1	-1E+10	1
4902663	37	C	08/03/2024	21:21	-126.772	47.295	0	293.10	0	5.9550	0	33.9170	0	26.706	0	290.453	0	83.7	4	27.6	4	-1E+10	1	-1E+10	1	-1E+10	1	-1E+10	1	-1E+10	1	-1E+10	1
4902663	37	C	08/03/2024	21:21	-126.772	47.295	0	293.90	0	5.9440	0	33.9150	0	26.706	0	291.245	0	83.6	4	27.6	4	-1E+10	1	-1E+10	1	-1E+10	1	-1E+10	1	-1E+10	1	-1E+10	1
4902663	37	C	08/03/2024	21:21	-126.772	47.295	0	294.70	0	5.9370	0	33.9140	0	26.706	0	292.038	0	83.5	4	27.5	4	-1E+10	1	-1E+10	1	-1E+10	1	-1E+10	1	-1E+10	1	-1E+10	1
4902663	37	C	08/03/2024	21:21	-126.772	47.295	0	295.90	0	5.9130	0	33.9110	0	26.706	0	293.226	0	83.3	4	27.5	4	-1E+10	1	-1E+10	1	-1E+10	1	-1E+10	1	-1E+10	1	-1E+10	1
4902663	37	C	08/03/2024	21:21	-126.772	47.295	0	297.00	0	5.8750	0	33.9090	0	26.709	0	294.315	0	83.0	4	27.3	4	-1E+10	1	-1E+10	1	-1E+10	1	-1E+10	1	-1E+10	1	-1E+10	1
4902663	37	C	08/03/2024	21:21	-126.772	47.295	0	297.80	0	5.8800	0	33.9070	0	26.707	0	295.107	0	82.9	4	27.3	4	-1E+10	1	-1E+10	1	-1E+10	1	-1E+10	1	-1E+10	1	-1E+10	1
4902663	37	C	08/03/2024	21:21	-126.772	47.295	0	299.00	0	5.8990	0	33.9140	0	26.710	0	296.296	0	82.9	4	27.3	4	-1E+10	1	-1E+10	1	-1E+10	1	-1E+10	1	-1E+10	1	-1E+10	1
4902663	37	C	08/03/2024	21:21	-126.772	47.295	0	300.30	0	5.7950	0	33.9180	0	26.726	0	297.583	0	83.0	4	27.3	4	-1E+10	1	-1E+10	1	-1E+10	1	-1E+10	1	-1E+10	1	-1E+10	1
4902663	37	C	08/03/2024	21:21	-126.772	47.295	0	301.00	0	5.7600	0	33.9060	0	26.721	0	298.276	0	82.9	4	27.2	4	-1E+10	1	-1E+10	1	-1E+10	1	-1E+10	1	-1E+10	1	-1E+10	1
4902663	37	C	08/03/2024	21:21	-126.772	47.295	0	301.80	0	5.7590	0	33.9030	0	26.719	0	299.068	0	82.7	4	27.2	4	-1E+10	1	-1E+10	1	-1E+10	1	-1E+10	1	-1E+10	1	-1E+10	1
4902663	37	C	08/03/2024	21:21	-126.772	47.295	0	302.70	0	5.7540	0	33.9030	0	26.720	0	299.960	0	82.5	4	27.1	4	-1E+10	1	-1E+10	1	-1E+10	1	-1E+10	1	-1E+10	1	-1E+10	1
4902663	37	C	08/03/2024	21:21	-126.772	47.295	0	303.90	0	5.7380	0	33.9020	0	26.721	0	301.148	0	82.3	4	27.0	4	-1E+10	1	-1E+10	1	-1E+10	1	-1E+10	1	-1E+10	1	-1E+10	1
4902663	37	C	08/03/2024	21:21	-126.772	47.295	0	305.10	0	5.7360	0	33.9040	0	26.723	0	302.336	0	82.0	4	26.9	4	-1E+10	1	-1E+10	1	-1E+10	1	-1E+10	1	-1E+10	1	-1E+10	1
4902663	37	C	08/03/2024	21:21	-126.772	47.295	0	305.90	0	5.7080	0	33.9010	0	26.724	0	303.128	0	81.8	4	26.8	4	-1E+10	1	-1E+10	1	-1E+10	1	-1E+10	1	-1E+10	1	-1E+10	1
4902663	37	C	08/03/2024	21:21	-126.772	47.295	0	306.70	0	5.6820	0	33.9000	0	26.726	0	303.920	0	81.5	4	26.7	4	-1E+10	1	-1E+10	1	-1E+10	1	-1E+10	1	-1E+10	1	-1E+10	1
4902663	37	C	08/03/2024	21:21	-126.772	47.295	0	307.90	0	5.6460	0	33.8980	0	26.729	0	305.109	0	80.8	4	26.5	4	-1E+10	1	-1E+10	1	-1E+10	1	-1E+10	1	-1E+10	1	-1E+10	1
4902663	37	C	08/03/2024	21:21	-126.772	47.295	0	309.10	0	5.6350	0	33.8950	0	26.728	0	306.297	0	80.0	4	26.2	4	-1E+10	1	-1E+10	1	-1E+10	1	-1E+10	1	-1E+10	1	-1E+10	1
4902663	37	C	08/03/2024	21:21	-126.772	47.295	0	309.90	0	5.6450	0	33.8980	0	26.729	0	307.089	0	79.5	4	26.0	4	-1E+10	1	-1E+10	1	-1E+10	1	-1E+10	1	-1E+10	1	-1E+10	1
4902663	37	C	08/03/2024	21:21	-126.772	47.295	0	310.80	0	5.6540	0	33.9030	0	26.732	0	307.980	0	79.1	4	25.9	4	-1E+10	1	-1E+10	1	-1E+10	1	-1E+10	1	-1E+10	1	-1E+10	1
4902663	37	C	08/03/2024	21:21	-126.772	47.295	0	312.00	0	5.6460	0	33.9050	0	26.734	0	309.168	0	78.7	4	25.8	4	-1E+10	1	-1E+10	1	-1E+10	1	-1E+10	1	-1E+10	1	-1E+10	1
4902663	37	C	08/03/2024	21:21	-126.772	47.295	0	313.30	0	5.6360	0	33.9070	0	26.737	0	310.456	0	78.4	4	25.7	4	-1E+10	1	-1E+10	1	-1E+10	1	-1E+10	1	-1E+10	1	-1E+10	1
4902663	37	C	08/03/2024	21:21	-126.772	47.295	0	314.10	0	5.6200	0	33.9070	0	26.739	0	311.248	0	78.1	4	25.6	4	-1E+10	1	-1E+10	1	-1E+10	1	-1E+10	1	-1E+10	1	-1E+10	1
4902663	37	C	08/03/2024	21:21	-126.772	47.295	0	314.90	0	5.6100	0	33.9080	0	26.741	0	312.040	0	77.9	4	25.5	4	-1E+10	1	-1E+10	1	-1E+10	1	-1E+10	1	-1E+10	1	-1E+10	1
4902663	37	C	08/03/2024	21:21	-126.772	47.295	0	315.80	0	5.6060	0	33.9050	0	26.739	0	312.931	0	77.6	4	25.4	4	-1E+10	1	-1E+10	1	-1E+10	1	-1E+10	1	-1E+10	1	-1E+10	1
4902663	37	C	08/03/2024	21:21	-126.772	47.295	0	316.60	0	5.5780	0	33.9050	0	26.743	0	313.723	0	77.3	4	25.3	4	-1E+10	1	-1E+10	1	-1E+10	1	-1E+10	1	-1E+10	1	-1E+10	1
4902663	37	C	08/03/2024	21:21	-126.772	47.295	0	317.90	0	5.5710	0	33.9050	0	26.743	0	315.010	0	76.9	4	25.1	4	-1E+10	1	-1E+10	1	-1E+10	1	-1E+10	1	-1E+10	1	-1E+10	1
4902663	37	C	08/03/2024	21:21	-126.772	47.295	0	319.20	0	5.5610	0	33.9070	0	26.746	0	316.298	0	76.4	4	25.0	4	-1E+10	1	-1E+10	1	-1E+10	1	-1E+10	1	-1E+10	1	-1E+10	1
4902663	37	C	08/03/2024	21:21	-126.772	47.295	0	320.00	0	5.5550	0	33.9070	0	26.747	0	317.090	0	76.1	4	24.9	4	-1E+10	1	-1E+10	1	-1E+10	1	-1E+10	1	-1E+10	1	-1E+10	1
4902663	37	C	08/03/2024	21:21	-126.772	47.295	0	320.90	0	5.5520	0	33.9080	0	26.748	0	317.981	0	75.8	4	24.8	4	-1E+10	1	-1E+10	1	-1E+10	1	-1E+10	1	-1E+10	1	-1E+10	1
4902663	37	C	08/03/2024	21:21	-126.772	47.295	0	321.70	0	5.5390	0	33.9080	0	26.750	0	318.773	0	75.4	4	24.7	4	-1E+10	1	-1E+10	1	-1E+10	1	-1E+10	1	-1E+10	1	-1E+10	1
4902663	37	C	08/03/2024	21:21	-126.772	47.295	0	323.00	0	5.5110	0	33.9070	0	26.752	0	320.060	0	74.7	4	24.4	4	-1E+10	1	-1E+10	1	-1E+10	1	-1E+10	1	-1E+10	1	-1E+10	1
4902663	37	C	08/03/2024	21:21	-126.772	47.295	0	324.30	0	5.4770	0	33.9040	0	26.754	0	321.347	0	73.9	4	24.1	4	-1E+10	1	-1E+10	1	-1E+10	1	-1E+10	1	-1E+10	1	-1E+10	1
4902663	37	C	08/03/2024	21:21	-126.772	47.295	0	325.10	0	5.4780	0	33.9040	0	26.754	0	322.139	0	73.1	4	23.9	4	-1E+10	1	-1E+10	1	-1E+10	1	-1E+10	1	-1E+10	1	-1E+10	1
4902663	37	C	08/03/2024	21:21	-126.772	47.295	0	326.00	0	5.4590	0	33.9060	0	26.758	0	323.030	0	72.2	4	23.6	4	-1E+10	1	-1E+10	1	-1E+10	1	-1E+10	1	-1E+10	1	-1E+10	1
4902663	37	C	08/03/2024	21:21	-126.772	47.295	0	326.90	0	5.5000	0	33.9130	0	26.758	0	323.922	0	71.5	4	23.3	4	-1E+10	1	-1E+10	1	-1E+10	1	-1E+10	1	-1E+10	1	-1E+10	1
4902663	37	C	08/03/2024	21:21	-126.772	47.295	0	327.70	0	5.5120	0	33.9190	0	26.762	0	324.714	0	70.9	4	23.2	4	-1E+10	1	-1E+10	1	-1E+10	1	-1E+10	1	-1E+10	1	-1E+10	1
4902663	37	C	08/03/2024	21:21	-126.772	47.295	0	328.60	0	5.5320	0	33.9220	0	26.762	0	325.605	0	70.4	4	23.0	4	-1E+10	1	-1E+10	1	-1E+10	1	-1E+10	1	-1E+10	1	-1E+10	1
4902663	37	C	08/03/2024	21:21	-126.772	47.295	0	329.90	0	5.5180	0	33.9230	0	26.764	0	326.892	0	69.7	4	22.8	4	-1E+10	1	-1E+10	1	-1E+10	1	-1E+10	1	-1E+10	1	-1E+10	1
4902663	37	C	08/03/2024	21:21	-126.772	47.295	0	331.20	0	5.5500	0	33.9210	0	26.759	0	328.179	0	68.9	4	22.5	4	-1E+10	1	-1E+10	1	-1E+10	1	-1E+10	1	-1E+10	1	-1E+10	1
4902663	37	C	08/03/2024	21:21	-126.772	47.295	0	332.10	0	5.5840	0	33.9350	0	26.766	0	329.070	0	68.6	4	22.5	4	-1E+10	1	-1E+10	1	-1E+10	1	-1E+10	1	-1E+10	1	-1E+10	1
4902663	37	C	08/03/2024	21:21	-126.772	47.295	0	333.00	0	5.5920	0	33.9400	0	26.769	0	329.961	0	68.4	4	22.4	4	-1E+10	1	-1E+10	1	-1E+10	1	-1E+10	1	-1E+10	1	-1E+10	1
4902663	37	C	08/03/2024	21:21	-126.772	47.295	0	333.90	0	5.5880	0	33.9410	0	26.770	0	330.852	0	68.1	4	22.3	4	-1E+10	1	-1E+10	1	-1E+10	1	-1E+10	1	-1E+10	1	-1E+10	1
4902663	37	C	08/03/2024	21:21	-126.772	47.295	0	334.80	0	5.5910	0	33.9410	0	26.770	0	331.743	0	67.9	4	22.2	4	-1E+10	1	-1E+10	1	-1E+10	1	-1E+10	1	-1E+10	1	-1E+10	1
4902663	37	C	08/03/2024	21:21	-126.772	47.295	0	335.70	0	5.5830	0	33.9410	0	26.771	0	332.634	0	67.6	4	22.1	4	-1E+10	1	-1E+10	1	-1E+10	1	-1E+10	1	-1E+10	1	-1E+10	1
4902663	37	C	08/03/2024	21:21	-126.772	47.295	0	336.90	0	5.5660	0	33.9390	0	26.771	0	333.822	0	67.2	4	22.0	4	-1E+10	1	-1E+10	1	-1E+10	1	-1E+10	1	-1E+10	1	-1E+10	1
4902663	37	C	08/03/2024	21:21	-126.772	47.295	0	338.30	0	5.5610	0	33.9410	0	26.773	0	335.208	0	66.9	4	21.9	4	-1E+10	1	-1E+10	1	-1E+10	1	-1E+10	1	-1E+10	1	-1E+10	1
4902663	37	C	08/03/2024	21:21	-126.772	47.295	0	339.20	0	5.5740	0	33.9470	0	26.777	0	336.100	0	66.8	4	21.9	4	-1E+10	1	-1E+10	1	-1E+10	1	-1E+10	1	-1E+10	1	-1E+10	1
4902663	37	C	08/03/2024	21:21	-126.772	47.295	0	340.00	0	5.5560	0	33.9460	0	26.778	0	336.892	0	66.7	4	21.8	4	-1E+10	1	-1E+10	1	-1E+10	1	-1E+10	1	-1E+10	1	-1E+10	1
4902663	37	C	08/03/2024	21:21	-126.772	47.295	0	340.90	0	5.5250	0	33.9420	0	26.778	0	337.783	0	66.5	4	21.7	4	-1E+10	1	-1E+10	1	-1E+10	1	-1E+10	1	-1E+10	1	-1E+10	1
4902663	37	C	08/03/2024	21:21	-126.772	47.295	0	341.80	0	5.4920	0	33.9470	0	26.786	0	338.674	0	66.2	4	21.6	4	-1E+10	1	-1E+10	1	-1E+10	1	-1E+10	1	-1E+10	1	-1E+10	1
4902663	37	C	08/03/2024	21:21	-126.772	47.295	0	342.70	0	5.4670	0	33.9390	0	26.783	0	339.565	0	65.9	4	21.5	4	-1E+10	1	-1E+10	1	-1E+10	1	-1E+10	1	-1E+10	1	-1E+10	1
4902663	37	C	08/03/2024	21:21	-126.772	47.295	0	343.60	0	5.4790	0	33.9390	0	26.782	0	340.456	0	65.6	4	21.4	4	-1E+10	1	-1E+10	1	-1E+10	1	-1E+10	1	-1E+10	1	-1E+10	1
4902663	37	C	08/03/2024	21:21	-126.772	47.295	0	344.90	0	5.4560	0	33.9390	0	26.784	0	341.743	0	65.0	4	21.2	4	-1E+10	1	-1E+10	1	-1E+10	1	-1E+10	1	-1E+10	1	-1E+10	1
4902663	37	C	08/03/2024	21:21	-126.772	47.295	0	346.30	0	5.4300	0	33.9400	0	26.788	0	343.129	0	64.4	4	21.0	4	-1E+10	1	-1E+10	1	-1E+10	1	-1E+10	1	-1E+10	1	-1E+10	1
4902663	37	C	08/03/2024	21:21	-126.772	47.295	0	347.20	0	5.4280	0	33.9410	0	26.789	0	344.020	0	64.1	4	20.9	4	-1E+10	1	-1E+10	1	-1E+10	1	-1E+10	1	-1E+10	1	-1E+10	1
4902663	37	C	08/03/2024	21:21	-126.772	47.295	0	348.10	0	5.4240	0	33.9410	0	26.790	0	344.911	0	63.6	4	20.7	4	-1E+10	1	-1E+10	1	-1E+10	1	-1E+10	1	-1E+10	1	-1E+10	1
4902663	37	C	08/03/2024	21:21	-126.772	47.295	0	349.00	0	5.4150	0	33.9400	0	26.790	0	345.802	0	63.2	4	20.6	4	-1E+10	1	-1E+10	1	-1E+10	1	-1E+10	1	-1E+10	1	-1E+10	1
4902663	37	C	08/03/2024	21:21	-126.772	47.295	0	349.90	0	5.4200	0	33.9410	0	26.790	0	346.693	0	62.7	4	20.4	4	-1E+10	1	-1E+10	1	-1E+10	1	-1E+10	1	-1E+10	1	-1E+10	1
4902663	37	C	08/03/2024	21:21	-126.772	47.295	0	353.00	0	5.4080	0	33.9480	0	26.797	0	349.762	0	61.4	4	20.0	4	-1E+10	1	-1E+10	1	-1E+10	1	-1E+10	1	-1E+10	1	-1E+10	1
4902663	37	C	08/03/2024	21:21	-126.772	47.295	0	358.00	0	5.3950	0	33.9550	0	26.804	0	354.712	0	59.5	4	19.4	4	-1E+10	1	-1E+10	1	-1E+10	1	-1E+10	1	-1E+10	1	-1E+10	1
4902663	37	C	08/03/2024	21:21	-126.772	47.295	0	363.00	0	5.3490	0	33.9580	0	26.812	0	359.661	0	57.4	4	18.7	4	-1E+10	1	-1E+10	1	-1E+10	1	-1E+10	1	-1E+10	1	-1E+10	1
4902663	37	C	08/03/2024	21:21	-126.772	47.295	0	368.10	0	5.3620	0	33.9700	0	26.820	0	364.710	0	56.1	4	18.3	4	-1E+10	1	-1E+10	1	-1E+10	1	-1E+10	1	-1E+10	1	-1E+10	1
4902663	37	C	08/03/2024	21:21	-126.772	47.295	0	372.70	0	5.2780	0	33.9670	0	26.828	0	369.264	0	55.2	4	17.9	4	-1E+10	1	-1E+10	1	-1E+10	1	-1E+10	1	-1E+10	1	-1E+10	1
4902663	37	C	08/03/2024	21:21	-126.772	47.295	0	377.80	0	5.2440	0	33.9690	0	26.833	0	374.312	0	53.9	4	17.5	4	-1E+10	1	-1E+10	1	-1E+10	1	-1E+10	1	-1E+10	1	-1E+10	1
4902663	37	C	08/03/2024	21:21	-126.772	47.295	0	383.10	0	5.2350	0	33.9780	0	26.842	0	379.558	0	53.1	4	17.2	4	-1E+10	1	-1E+10	1	-1E+10	1	-1E+10	1	-1E+10	1	-1E+10	1
4902663	37	C	08/03/2024	21:21	-126.772	47.295	0	387.90	0	5.1800	0	33.9730	0	26.844	0	384.309	0	52.5	4	17.0	4	-1E+10	1	-1E+10	1	-1E+10	1	-1E+10	1	-1E+10	1	-1E+10	1
4902663	37	C	08/03/2024	21:21	-126.772	47.295	0	392.70	0	5.1360	0	33.9770	0	26.852	0	389.060	0	51.5	4	16.7	4	-1E+10	1	-1E+10	1	-1E+10	1	-1E+10	1	-1E+10	1	-1E+10	1
4902663	37	C	08/03/2024	21:21	-126.772	47.295	0	397.60	0	5.0920	0	33.9790	0	26.859	0	393.910	0	50.9	4	16.5	4	-1E+10	1	-1E+10	1	-1E+10	1	-1E+10	1	-1E+10	1	-1E+10	1
4902663	37	C	08/03/2024	21:21	-126.772	47.295	0	402.50	0	5.0590	0	33.9800	0	26.864	0	398.760	0	49.9	4	16.1	4	-1E+10	1	-1E+10	1	-1E+10	1	-1E+10	1	-1E+10	1	-1E+10	1
4902663	37	C	08/03/2024	21:21	-126.772	47.295	0	407.50	0	5.0340	0	33.9830	0	26.869	0	403.709	0	48.7	4	15.7	4	-1E+10	1	-1E+10	1	-1E+10	1	-1E+10	1	-1E+10	1	-1E+10	1
4902663	37	C	08/03/2024	21:21	-126.772	47.295	0	412.60	0	5.0310	0	33.9850	0	26.871	0	408.756	0	46.9	4	15.2	4	-1E+10	1	-1E+10	1	-1E+10	1	-1E+10	1	-1E+10	1	-1E+10	1
4902663	37	C	08/03/2024	21:21	-126.772	47.295	0	417.70	0	5.0580	0	33.9970	0	26.877	0	413.804	0	45.1	4	14.6	4	-1E+10	1	-1E+10	1	-1E+10	1	-1E+10	1	-1E+10	1	-1E+10	1
4902663	37	C	08/03/2024	21:21	-126.772	47.295	0	422.80	0	5.0510	0	34.0030	0	26.883	0	418.851	0	43.6	4	14.1	4	-1E+10	1	-1E+10	1	-1E+10	1	-1E+10	1	-1E+10	1	-1E+10	1
4902663	37	C	08/03/2024	21:21	-126.772	47.295	0	427.90	0	5.0520	0	34.0130	0	26.891	0	423.898	0	42.3	4	13.7	4	-1E+10	1	-1E+10	1	-1E+10	1	-1E+10	1	-1E+10	1	-1E+10	1
4902663	37	C	08/03/2024	21:21	-126.772	47.295	0	433.10	0	5.0430	0	34.0160	0	26.894	0	429.044	0	41.4	4	13.4	4	-1E+10	1	-1E+10	1	-1E+10	1	-1E+10	1	-1E+10	1	-1E+10	1
4902663	37	C	08/03/2024	21:21	-126.772	47.295	0	437.80	0	4.9810	0	34.0140	0	26.900	0	433.695	0	40.2	4	13.0	4	-1E+10	1	-1E+10	1	-1E+10	1	-1E+10	1	-1E+10	1	-1E+10	1
4902663	37	C	08/03/2024	21:21	-126.772	47.295	0	442.60	0	4.9920	0	34.0230	0	26.906	0	438.445	0	38.6	4	12.5	4	-1E+10	1	-1E+10	1	-1E+10	1	-1E+10	1	-1E+10	1	-1E+10	1
4902663	37	C	08/03/2024	21:21	-126.772	47.295	0	447.90	0	5.0080	0	34.0330	0	26.912	0	443.690	0	37.5	4	12.1	4	-1E+10	1	-1E+10	1	-1E+10	1	-1E+10	1	-1E+10	1	-1E+10	1
4902663	37	C	08/03/2024	21:21	-126.772	47.295	0	453.20	0	4.9930	0	34.0360	0	26.916	0	448.934	0	36.6	4	11.8	4	-1E+10	1	-1E+10	1	-1E+10	1	-1E+10	1	-1E+10	1	-1E+10	1
4902663	37	C	08/03/2024	21:21	-126.772	47.295	0	457.90	0	4.9750	0	34.0400	0	26.921	0	453.585	0	35.9	4	11.6	4	-1E+10	1	-1E+10	1	-1E+10	1	-1E+10	1	-1E+10	1	-1E+10	1
4902663	37	C	08/03/2024	21:21	-126.772	47.295	0	462.60	0	4.9540	0	34.0420	0	26.925	0	458.235	0	35.2	4	11.4	4	-1E+10	1	-1E+10	1	-1E+10	1	-1E+10	1	-1E+10	1	-1E+10	1
4902663	37	C	08/03/2024	21:21	-126.772	47.295	0	467.90	0	4.9030	0	34.0420	0	26.931	0	463.479	0	34.2	4	11.0	4	-1E+10	1	-1E+10	1	-1E+10	1	-1E+10	1	-1E+10	1	-1E+10	1
4902663	37	C	08/03/2024	21:21	-126.772	47.295	0	473.10	0	4.9160	0	34.0500	0	26.936	0	468.624	0	33.5	4	10.8	4	-1E+10	1	-1E+10	1	-1E+10	1	-1E+10	1	-1E+10	1	-1E+10	1
4902663	37	C	08/03/2024	21:21	-126.772	47.295	0	477.90	0	4.8460	0	34.0490	0	26.943	0	473.374	0	32.8	4	10.5	4	-1E+10	1	-1E+10	1	-1E+10	1	-1E+10	1	-1E+10	1	-1E+10	1
4902663	37	C	08/03/2024	21:21	-126.772	47.295	0	482.70	0	4.8290	0	34.0510	0	26.947	0	478.123	0	31.6	4	10.2	4	-1E+10	1	-1E+10	1	-1E+10	1	-1E+10	1	-1E+10	1	-1E+10	1
4902663	37	C	08/03/2024	21:21	-126.772	47.295	0	488.00	0	4.8180	0	34.0560	0	26.952	0	483.366	0	30.6	4	9.8	4	-1E+10	1	-1E+10	1	-1E+10	1	-1E+10	1	-1E+10	1	-1E+10	1
4902663	37	C	08/03/2024	21:21	-126.772	47.295	0	492.80	0	4.7880	0	34.0580	0	26.957	0	488.115	0	29.5	4	9.5	4	-1E+10	1	-1E+10	1	-1E+10	1	-1E+10	1	-1E+10	1	-1E+10	1
4902663	37	C	08/03/2024	21:21	-126.772	47.295	0	497.50	0	4.7570	0	34.0630	0	26.964	0	492.765	0	28.2	4	9.1	4	-1E+10	1	-1E+10	1	-1E+10	1	-1E+10	1	-1E+10	1	-1E+10	1
4902663	37	C	08/03/2024	21:21	-126.772	47.295	0	502.80	0	4.7780	0	34.0720	0	26.969	0	498.008	0	26.9	4	8.7	4	-1E+10	1	-1E+10	1	-1E+10	1	-1E+10	1	-1E+10	1	-1E+10	1
4902663	37	C	08/03/2024	21:21	-126.772	47.295	0	508.10	0	4.7710	0	34.0820	0	26.978	0	503.251	0	25.9	4	8.3	4	-1E+10	1	-1E+10	1	-1E+10	1	-1E+10	1	-1E+10	1	-1E+10	1
4902663	37	C	08/03/2024	21:21	-126.772	47.295	0	512.90	0	4.7870	0	34.0890	0	26.982	0	507.999	0	25.0	4	8.0	4	-1E+10	1	-1E+10	1	-1E+10	1	-1E+10	1	-1E+10	1	-1E+10	1
4902663	37	C	08/03/2024	21:21	-126.772	47.295	0	517.70	0	4.7560	0	34.0950	0	26.990	0	512.748	0	24.5	4	7.9	4	-1E+10	1	-1E+10	1	-1E+10	1	-1E+10	1	-1E+10	1	-1E+10	1
4902663	37	C	08/03/2024	21:21	-126.772	47.295	0	523.00	0	4.6730	0	34.0900	0	26.995	0	517.990	0	23.6	4	7.6	4	-1E+10	1	-1E+10	1	-1E+10	1	-1E+10	1	-1E+10	1	-1E+10	1
4902663	37	C	08/03/2024	21:21	-126.772	47.295	0	527.80	0	4.6540	0	34.0900	0	26.997	0	522.738	0	22.3	4	7.2	4	-1E+10	1	-1E+10	1	-1E+10	1	-1E+10	1	-1E+10	1	-1E+10	1
4902663	37	C	08/03/2024	21:21	-126.772	47.295	0	532.70	0	4.6790	0	34.1060	0	27.007	0	527.585	0	21.1	4	6.8	4	-1E+10	1	-1E+10	1	-1E+10	1	-1E+10	1	-1E+10	1	-1E+10	1
4902663	37	C	08/03/2024	21:21	-126.772	47.295	0	538.10	0	4.7100	0	34.1170	0	27.013	0	532.926	0	19.6	4	6.3	4	-1E+10	1	-1E+10	1	-1E+10	1	-1E+10	1	-1E+10	1	-1E+10	1
4902663	37	C	08/03/2024	21:21	-126.772	47.295	0	542.90	0	4.7580	0	34.1330	0	27.020	0	537.674	0	18.5	4	5.9	4	-1E+10	1	-1E+10	1	-1E+10	1	-1E+10	1	-1E+10	1	-1E+10	1
4902663	37	C	08/03/2024	21:21	-126.772	47.295	0	547.70	0	4.7730	0	34.1420	0	27.026	0	542.421	0	17.6	4	5.7	4	-1E+10	1	-1E+10	1	-1E+10	1	-1E+10	1	-1E+10	1	-1E+10	1
4902663	37	C	08/03/2024	21:21	-126.772	47.295	0	553.00	0	4.7390	0	34.1450	0	27.032	0	547.663	0	16.6	4	5.3	4	-1E+10	1	-1E+10	1	-1E+10	1	-1E+10	1	-1E+10	1	-1E+10	1
4902663	37	C	08/03/2024	21:21	-126.772	47.295	0	558.10	0	4.7360	0	34.1550	0	27.040	0	552.707	0	15.8	4	5.1	4	-1E+10	1	-1E+10	1	-1E+10	1	-1E+10	1	-1E+10	1	-1E+10	1
4902663	37	C	08/03/2024	21:21	-126.772	47.295	0	562.90	0	4.7260	0	34.1640	0	27.048	0	557.455	0	15.4	4	4.9	4	-1E+10	1	-1E+10	1	-1E+10	1	-1E+10	1	-1E+10	1	-1E+10	1
4902663	37	C	08/03/2024	21:21	-126.772	47.295	0	567.70	0	4.7230	0	34.1710	0	27.054	0	562.202	0	14.7	4	4.7	4	-1E+10	1	-1E+10	1	-1E+10	1	-1E+10	1	-1E+10	1	-1E+10	1
4902663	37	C	08/03/2024	21:21	-126.772	47.295	0	572.60	0	4.7210	0	34.1770	0	27.059	0	567.047	0	14.4	4	4.6	4	-1E+10	1	-1E+10	1	-1E+10	1	-1E+10	1	-1E+10	1	-1E+10	1
4902663	37	C	08/03/2024	21:21	-126.772	47.295	0	577.60	0	4.7040	0	34.1790	0	27.063	0	571.992	0	14.0	4	4.5	4	-1E+10	1	-1E+10	1	-1E+10	1	-1E+10	1	-1E+10	1	-1E+10	1
4902663	37	C	08/03/2024	21:21	-126.772	47.295	0	582.70	0	4.6760	0	34.1820	0	27.068	0	577.036	0	13.7	4	4.4	4	-1E+10	1	-1E+10	1	-1E+10	1	-1E+10	1	-1E+10	1	-1E+10	1
4902663	37	C	08/03/2024	21:21	-126.772	47.295	0	587.90	0	4.6570	0	34.1870	0	27.074	0	582.178	0	13.2	4	4.2	4	-1E+10	1	-1E+10	1	-1E+10	1	-1E+10	1	-1E+10	1	-1E+10	1
4902663	37	C	08/03/2024	21:21	-126.772	47.295	0	592.80	0	4.6390	0	34.1900	0	27.079	0	587.023	0	13.0	4	4.2	4	-1E+10	1	-1E+10	1	-1E+10	1	-1E+10	1	-1E+10	1	-1E+10	1
4902663	37	C	08/03/2024	21:21	-126.772	47.295	0	597.60	0	4.6250	0	34.1930	0	27.083	0	591.770	0	12.6	4	4.0	4	-1E+10	1	-1E+10	1	-1E+10	1	-1E+10	1	-1E+10	1	-1E+10	1
4902663	37	C	08/03/2024	21:21	-126.772	47.295	0	603.00	0	4.6060	0	34.1970	0	27.088	0	597.109	0	12.2	4	3.9	4	-1E+10	1	-1E+10	1	-1E+10	1	-1E+10	1	-1E+10	1	-1E+10	1
4902663	37	C	08/03/2024	21:21	-126.772	47.295	0	607.90	0	4.5850	0	34.2020	0	27.094	0	601.954	0	11.8	4	3.8	4	-1E+10	1	-1E+10	1	-1E+10	1	-1E+10	1	-1E+10	1	-1E+10	1
4902663	37	C	08/03/2024	21:21	-126.772	47.295	0	612.80	0	4.5800	0	34.2060	0	27.098	0	606.799	0	11.6	4	3.7	4	-1E+10	1	-1E+10	1	-1E+10	1	-1E+10	1	-1E+10	1	-1E+10	1
4902663	37	C	08/03/2024	21:21	-126.772	47.295	0	617.90	0	4.5620	0	34.2090	0	27.103	0	611.842	0	11.3	4	3.6	4	-1E+10	1	-1E+10	1	-1E+10	1	-1E+10	1	-1E+10	1	-1E+10	1
4902663	37	C	08/03/2024	21:21	-126.772	47.295	0	622.90	0	4.5460	0	34.2110	0	27.106	0	616.785	0	11.1	4	3.6	4	-1E+10	1	-1E+10	1	-1E+10	1	-1E+10	1	-1E+10	1	-1E+10	1
4902663	37	C	08/03/2024	21:21	-126.772	47.295	0	627.90	0	4.5380	0	34.2150	0	27.110	0	621.729	0	10.8	4	3.5	4	-1E+10	1	-1E+10	1	-1E+10	1	-1E+10	1	-1E+10	1	-1E+10	1
4902663	37	C	08/03/2024	21:21	-126.772	47.295	0	633.00	0	4.5160	0	34.2190	0	27.116	0	626.771	0	10.5	4	3.4	4	-1E+10	1	-1E+10	1	-1E+10	1	-1E+10	1	-1E+10	1	-1E+10	1
4902663	37	C	08/03/2024	21:21	-126.772	47.295	0	638.10	0	4.4940	0	34.2220	0	27.120	0	631.813	0	10.3	4	3.3	4	-1E+10	1	-1E+10	1	-1E+10	1	-1E+10	1	-1E+10	1	-1E+10	1
4902663	37	C	08/03/2024	21:21	-126.772	47.295	0	642.80	0	4.4820	0	34.2240	0	27.123	0	636.459	0	10.1	4	3.2	4	-1E+10	1	-1E+10	1	-1E+10	1	-1E+10	1	-1E+10	1	-1E+10	1
4902663	37	C	08/03/2024	21:21	-126.772	47.295	0	648.00	0	4.4790	0	34.2280	0	27.127	0	641.600	0	10.0	4	3.2	4	-1E+10	1	-1E+10	1	-1E+10	1	-1E+10	1	-1E+10	1	-1E+10	1
4902663	37	C	08/03/2024	21:21	-126.772	47.295	0	653.30	0	4.4660	0	34.2290	0	27.129	0	646.840	0	9.8	4	3.1	4	-1E+10	1	-1E+10	1	-1E+10	1	-1E+10	1	-1E+10	1	-1E+10	1
4902663	37	C	08/03/2024	21:21	-126.772	47.295	0	658.00	0	4.4470	0	34.2330	0	27.134	0	651.486	0	9.6	4	3.1	4	-1E+10	1	-1E+10	1	-1E+10	1	-1E+10	1	-1E+10	1	-1E+10	1
4902663	37	C	08/03/2024	21:21	-126.772	47.295	0	662.90	0	4.4360	0	34.2360	0	27.138	0	656.330	0	9.4	4	3.0	4	-1E+10	1	-1E+10	1	-1E+10	1	-1E+10	1	-1E+10	1	-1E+10	1
4902663	37	C	08/03/2024	21:21	-126.772	47.295	0	667.70	0	4.4190	0	34.2390	0	27.142	0	661.074	0	9.3	4	3.0	4	-1E+10	1	-1E+10	1	-1E+10	1	-1E+10	1	-1E+10	1	-1E+10	1
4902663	37	C	08/03/2024	21:21	-126.772	47.295	0	672.60	0	4.4030	0	34.2410	0	27.146	0	665.918	0	9.1	4	2.9	4	-1E+10	1	-1E+10	1	-1E+10	1	-1E+10	1	-1E+10	1	-1E+10	1
4902663	37	C	08/03/2024	21:21	-126.772	47.295	0	677.50	0	4.3860	0	34.2440	0	27.150	0	670.761	0	9.0	4	2.9	4	-1E+10	1	-1E+10	1	-1E+10	1	-1E+10	1	-1E+10	1	-1E+10	1
4902663	37	C	08/03/2024	21:21	-126.772	47.295	0	682.50	0	4.3690	0	34.2450	0	27.152	0	675.704	0	8.9	4	2.8	4	-1E+10	1	-1E+10	1	-1E+10	1	-1E+10	1	-1E+10	1	-1E+10	1
4902663	37	C	08/03/2024	21:21	-126.772	47.295	0	687.50	0	4.3430	0	34.2470	0	27.157	0	680.646	0	8.8	4	2.8	4	-1E+10	1	-1E+10	1	-1E+10	1	-1E+10	1	-1E+10	1	-1E+10	1
4902663	37	C	08/03/2024	21:21	-126.772	47.295	0	692.60	0	4.3220	0	34.2480	0	27.160	0	685.686	0	8.7	4	2.8	4	-1E+10	1	-1E+10	1	-1E+10	1	-1E+10	1	-1E+10	1	-1E+10	1
4902663	37	C	08/03/2024	21:21	-126.772	47.295	0	697.70	0	4.3000	0	34.2520	0	27.165	0	690.727	0	8.5	4	2.7	4	-1E+10	1	-1E+10	1	-1E+10	1	-1E+10	1	-1E+10	1	-1E+10	1
4902663	37	C	08/03/2024	21:21	-126.772	47.295	0	702.80	0	4.2670	0	34.2540	0	27.170	0	695.768	0	8.4	4	2.7	4	-1E+10	1	-1E+10	1	-1E+10	1	-1E+10	1	-1E+10	1	-1E+10	1
4902663	37	C	08/03/2024	21:21	-126.772	47.295	0	708.00	0	4.2400	0	34.2550	0	27.174	0	700.907	0	8.3	4	2.6	4	-1E+10	1	-1E+10	1	-1E+10	1	-1E+10	1	-1E+10	1	-1E+10	1
4902663	37	C	08/03/2024	21:21	-126.772	47.295	0	713.10	0	4.2320	0	34.2580	0	27.177	0	705.947	0	8.2	4	2.6	4	-1E+10	1	-1E+10	1	-1E+10	1	-1E+10	1	-1E+10	1	-1E+10	1
4902663	37	C	08/03/2024	21:21	-126.772	47.295	0	718.30	0	4.2300	0	34.2620	0	27.181	0	711.086	0	8.0	4	2.5	4	-1E+10	1	-1E+10	1	-1E+10	1	-1E+10	1	-1E+10	1	-1E+10	1
4902663	37	C	08/03/2024	21:21	-126.772	47.295	0	722.90	0	4.2250	0	34.2660	0	27.185	0	715.632	0	7.9	4	2.5	4	-1E+10	1	-1E+10	1	-1E+10	1	-1E+10	1	-1E+10	1	-1E+10	1
4902663	37	C	08/03/2024	21:21	-126.772	47.295	0	727.60	0	4.2240	0	34.2710	0	27.189	0	720.277	0	7.7	4	2.5	4	-1E+10	1	-1E+10	1	-1E+10	1	-1E+10	1	-1E+10	1	-1E+10	1
4902663	37	C	08/03/2024	21:21	-126.772	47.295	0	732.80	0	4.2110	0	34.2760	0	27.194	0	725.415	0	7.6	4	2.4	4	-1E+10	1	-1E+10	1	-1E+10	1	-1E+10	1	-1E+10	1	-1E+10	1
4902663	37	C	08/03/2024	21:21	-126.772	47.295	0	738.10	0	4.2040	0	34.2790	0	27.197	0	730.652	0	7.5	4	2.4	4	-1E+10	1	-1E+10	1	-1E+10	1	-1E+10	1	-1E+10	1	-1E+10	1
4902663	37	C	08/03/2024	21:21	-126.772	47.295	0	743.30	0	4.1970	0	34.2830	0	27.201	0	735.791	0	7.4	4	2.4	4	-1E+10	1	-1E+10	1	-1E+10	1	-1E+10	1	-1E+10	1	-1E+10	1
4902663	37	C	08/03/2024	21:21	-126.772	47.295	0	748.00	0	4.1920	0	34.2850	0	27.203	0	740.435	0	7.3	4	2.3	4	-1E+10	1	-1E+10	1	-1E+10	1	-1E+10	1	-1E+10	1	-1E+10	1
4902663	37	C	08/03/2024	21:21	-126.772	47.295	0	752.80	0	4.1580	0	34.2880	0	27.209	0	745.178	0	7.2	4	2.3	4	-1E+10	1	-1E+10	1	-1E+10	1	-1E+10	1	-1E+10	1	-1E+10	1
4902663	37	C	08/03/2024	21:21	-126.772	47.295	0	758.00	0	4.1380	0	34.2940	0	27.216	0	750.316	0	7.1	4	2.3	4	-1E+10	1	-1E+10	1	-1E+10	1	-1E+10	1	-1E+10	1	-1E+10	1
4902663	37	C	08/03/2024	21:21	-126.772	47.295	0	763.20	0	4.1260	0	34.2970	0	27.220	0	755.454	0	7.1	4	2.2	4	-1E+10	1	-1E+10	1	-1E+10	1	-1E+10	1	-1E+10	1	-1E+10	1
4902663	37	C	08/03/2024	21:21	-126.772	47.295	0	768.00	0	4.1140	0	34.2990	0	27.223	0	760.196	0	7.1	4	2.2	4	-1E+10	1	-1E+10	1	-1E+10	1	-1E+10	1	-1E+10	1	-1E+10	1
4902663	37	C	08/03/2024	21:21	-126.772	47.295	0	772.60	0	4.1090	0	34.3000	0	27.224	0	764.741	0	7.0	4	2.2	4	-1E+10	1	-1E+10	1	-1E+10	1	-1E+10	1	-1E+10	1	-1E+10	1
4902663	37	C	08/03/2024	21:21	-126.772	47.295	0	777.80	0	4.1030	0	34.3020	0	27.226	0	769.879	0	7.0	4	2.2	4	-1E+10	1	-1E+10	1	-1E+10	1	-1E+10	1	-1E+10	1	-1E+10	1
4902663	37	C	08/03/2024	21:21	-126.772	47.295	0	782.90	0	4.0880	0	34.3050	0	27.230	0	774.917	0	6.9	4	2.2	4	-1E+10	1	-1E+10	1	-1E+10	1	-1E+10	1	-1E+10	1	-1E+10	1
4902663	37	C	08/03/2024	21:21	-126.772	47.295	0	788.10	0	4.0610	0	34.3090	0	27.236	0	780.055	0	6.9	4	2.2	4	-1E+10	1	-1E+10	1	-1E+10	1	-1E+10	1	-1E+10	1	-1E+10	1
4902663	37	C	08/03/2024	21:21	-126.772	47.295	0	793.20	0	4.0290	0	34.3100	0	27.240	0	785.093	0	6.8	4	2.2	4	-1E+10	1	-1E+10	1	-1E+10	1	-1E+10	1	-1E+10	1	-1E+10	1
4902663	37	C	08/03/2024	21:21	-126.772	47.295	0	797.90	0	4.0120	0	34.3120	0	27.244	0	789.736	0	6.8	4	2.1	4	-1E+10	1	-1E+10	1	-1E+10	1	-1E+10	1	-1E+10	1	-1E+10	1
4902663	37	C	08/03/2024	21:21	-126.772	47.295	0	802.90	0	3.9970	0	34.3150	0	27.248	0	794.675	0	6.8	4	2.1	4	-1E+10	1	-1E+10	1	-1E+10	1	-1E+10	1	-1E+10	1	-1E+10	1
4902663	37	C	08/03/2024	21:21	-126.772	47.295	0	807.90	0	3.9870	0	34.3160	0	27.250	0	799.615	0	6.7	4	2.1	4	-1E+10	1	-1E+10	1	-1E+10	1	-1E+10	1	-1E+10	1	-1E+10	1
4902663	37	C	08/03/2024	21:21	-126.772	47.295	0	812.60	0	3.9800	0	34.3200	0	27.254	0	804.257	0	6.7	4	2.1	4	-1E+10	1	-1E+10	1	-1E+10	1	-1E+10	1	-1E+10	1	-1E+10	1
4902663	37	C	08/03/2024	21:21	-126.772	47.295	0	817.80	0	3.9660	0	34.3220	0	27.257	0	809.394	0	6.7	4	2.1	4	-1E+10	1	-1E+10	1	-1E+10	1	-1E+10	1	-1E+10	1	-1E+10	1
4902663	37	C	08/03/2024	21:21	-126.772	47.295	0	823.10	0	3.9470	0	34.3260	0	27.262	0	814.629	0	6.7	4	2.1	4	-1E+10	1	-1E+10	1	-1E+10	1	-1E+10	1	-1E+10	1	-1E+10	1
4902663	37	C	08/03/2024	21:21	-126.772	47.295	0	828.00	0	3.9360	0	34.3290	0	27.265	0	819.469	0	6.7	4	2.1	4	-1E+10	1	-1E+10	1	-1E+10	1	-1E+10	1	-1E+10	1	-1E+10	1
4902663	37	C	08/03/2024	21:21	-126.772	47.295	0	832.90	0	3.9250	0	34.3310	0	27.268	0	824.309	0	6.7	4	2.1	4	-1E+10	1	-1E+10	1	-1E+10	1	-1E+10	1	-1E+10	1	-1E+10	1
4902663	37	C	08/03/2024	21:21	-126.772	47.295	0	837.70	0	3.9030	0	34.3340	0	27.273	0	829.050	0	6.7	4	2.1	4	-1E+10	1	-1E+10	1	-1E+10	1	-1E+10	1	-1E+10	1	-1E+10	1
4902663	37	C	08/03/2024	21:21	-126.772	47.295	0	842.80	0	3.8900	0	34.3360	0	27.276	0	834.087	0	6.7	4	2.1	4	-1E+10	1	-1E+10	1	-1E+10	1	-1E+10	1	-1E+10	1	-1E+10	1
4902663	37	C	08/03/2024	21:21	-126.772	47.295	0	847.80	0	3.8750	0	34.3390	0	27.280	0	839.025	0	6.7	4	2.1	4	-1E+10	1	-1E+10	1	-1E+10	1	-1E+10	1	-1E+10	1	-1E+10	1
4902663	37	C	08/03/2024	21:21	-126.772	47.295	0	853.00	0	3.8640	0	34.3410	0	27.282	0	844.161	0	6.7	4	2.1	4	-1E+10	1	-1E+10	1	-1E+10	1	-1E+10	1	-1E+10	1	-1E+10	1
4902663	37	C	08/03/2024	21:21	-126.772	47.295	0	858.10	0	3.8540	0	34.3430	0	27.285	0	849.198	0	6.7	4	2.1	4	-1E+10	1	-1E+10	1	-1E+10	1	-1E+10	1	-1E+10	1	-1E+10	1
4902663	37	C	08/03/2024	21:21	-126.772	47.295	0	862.80	0	3.8490	0	34.3440	0	27.286	0	853.839	0	6.8	4	2.1	4	-1E+10	1	-1E+10	1	-1E+10	1	-1E+10	1	-1E+10	1	-1E+10	1
4902663	37	C	08/03/2024	21:21	-126.772	47.295	0	867.70	0	3.8360	0	34.3460	0	27.289	0	858.679	0	6.8	4	2.1	4	-1E+10	1	-1E+10	1	-1E+10	1	-1E+10	1	-1E+10	1	-1E+10	1
4902663	37	C	08/03/2024	21:21	-126.772	47.295	0	873.00	0	3.8200	0	34.3490	0	27.293	0	863.912	0	6.9	4	2.2	4	-1E+10	1	-1E+10	1	-1E+10	1	-1E+10	1	-1E+10	1	-1E+10	1
4902663	37	C	08/03/2024	21:21	-126.772	47.295	0	878.00	0	3.8010	0	34.3520	0	27.297	0	868.850	0	6.9	4	2.2	4	-1E+10	1	-1E+10	1	-1E+10	1	-1E+10	1	-1E+10	1	-1E+10	1
4902663	37	C	08/03/2024	21:21	-126.772	47.295	0	883.00	0	3.7920	0	34.3540	0	27.300	0	873.788	0	6.9	4	2.2	4	-1E+10	1	-1E+10	1	-1E+10	1	-1E+10	1	-1E+10	1	-1E+10	1
4902663	37	C	08/03/2024	21:21	-126.772	47.295	0	888.20	0	3.7800	0	34.3550	0	27.302	0	878.922	0	6.9	4	2.2	4	-1E+10	1	-1E+10	1	-1E+10	1	-1E+10	1	-1E+10	1	-1E+10	1
4902663	37	C	08/03/2024	21:21	-126.772	47.295	0	892.90	0	3.7740	0	34.3570	0	27.304	0	883.563	0	7.0	4	2.2	4	-1E+10	1	-1E+10	1	-1E+10	1	-1E+10	1	-1E+10	1	-1E+10	1
4902663	37	C	08/03/2024	21:21	-126.772	47.295	0	897.70	0	3.7690	0	34.3590	0	27.306	0	888.303	0	7.0	4	2.2	4	-1E+10	1	-1E+10	1	-1E+10	1	-1E+10	1	-1E+10	1	-1E+10	1
4902663	37	C	08/03/2024	21:21	-126.772	47.295	0	902.60	0	3.7560	0	34.3620	0	27.310	0	893.141	0	7.1	4	2.2	4	-1E+10	1	-1E+10	1	-1E+10	1	-1E+10	1	-1E+10	1	-1E+10	1
4902663	37	C	08/03/2024	21:21	-126.772	47.295	0	907.50	0	3.7430	0	34.3640	0	27.313	0	897.979	0	7.1	4	2.2	4	-1E+10	1	-1E+10	1	-1E+10	1	-1E+10	1	-1E+10	1	-1E+10	1
4902663	37	C	08/03/2024	21:21	-126.772	47.295	0	912.50	0	3.7300	0	34.3670	0	27.317	0	902.916	0	7.2	4	2.3	4	-1E+10	1	-1E+10	1	-1E+10	1	-1E+10	1	-1E+10	1	-1E+10	1
4902663	37	C	08/03/2024	21:21	-126.772	47.295	0	917.50	0	3.7220	0	34.3690	0	27.319	0	907.853	0	7.2	4	2.3	4	-1E+10	1	-1E+10	1	-1E+10	1	-1E+10	1	-1E+10	1	-1E+10	1
4902663	37	C	08/03/2024	21:21	-126.772	47.295	0	922.50	0	3.7050	0	34.3690	0	27.321	0	912.789	0	7.3	4	2.3	4	-1E+10	1	-1E+10	1	-1E+10	1	-1E+10	1	-1E+10	1	-1E+10	1
4902663	37	C	08/03/2024	21:21	-126.772	47.295	0	927.70	0	3.6960	0	34.3710	0	27.323	0	917.923	0	7.4	4	2.3	4	-1E+10	1	-1E+10	1	-1E+10	1	-1E+10	1	-1E+10	1	-1E+10	1
4902663	37	C	08/03/2024	21:21	-126.772	47.295	0	932.90	0	3.6790	0	34.3720	0	27.326	0	923.057	0	7.4	4	2.3	4	-1E+10	1	-1E+10	1	-1E+10	1	-1E+10	1	-1E+10	1	-1E+10	1
4902663	37	C	08/03/2024	21:21	-126.772	47.295	0	938.10	0	3.6620	0	34.3750	0	27.330	0	928.190	0	7.5	4	2.4	4	-1E+10	1	-1E+10	1	-1E+10	1	-1E+10	1	-1E+10	1	-1E+10	1
4902663	37	C	08/03/2024	21:21	-126.772	47.295	0	942.90	0	3.6390	0	34.3760	0	27.333	0	932.929	0	7.5	4	2.4	4	-1E+10	1	-1E+10	1	-1E+10	1	-1E+10	1	-1E+10	1	-1E+10	1
4902663	37	C	08/03/2024	21:21	-126.772	47.295	0	947.70	0	3.6410	0	34.3780	0	27.334	0	937.668	0	7.6	4	2.4	4	-1E+10	1	-1E+10	1	-1E+10	1	-1E+10	1	-1E+10	1	-1E+10	1
4902663	37	C	08/03/2024	21:21	-126.772	47.295	0	953.00	0	3.6350	0	34.3800	0	27.337	0	942.900	0	7.7	4	2.4	4	-1E+10	1	-1E+10	1	-1E+10	1	-1E+10	1	-1E+10	1	-1E+10	1
4902663	37	C	08/03/2024	21:21	-126.772	47.295	0	957.90	0	3.6110	0	34.3800	0	27.339	0	947.737	0	7.7	4	2.4	4	-1E+10	1	-1E+10	1	-1E+10	1	-1E+10	1	-1E+10	1	-1E+10	1
4902663	37	C	08/03/2024	21:21	-126.772	47.295	0	962.70	0	3.6180	0	34.3840	0	27.342	0	952.475	0	7.8	4	2.4	4	-1E+10	1	-1E+10	1	-1E+10	1	-1E+10	1	-1E+10	1	-1E+10	1
4902663	37	C	08/03/2024	21:21	-126.772	47.295	0	968.20	0	3.6040	0	34.3860	0	27.345	0	957.904	0	7.9	4	2.5	4	-1E+10	1	-1E+10	1	-1E+10	1	-1E+10	1	-1E+10	1	-1E+10	1
4902663	37	C	08/03/2024	21:21	-126.772	47.295	0	973.00	0	3.5890	0	34.3880	0	27.348	0	962.642	0	7.9	4	2.5	4	-1E+10	1	-1E+10	1	-1E+10	1	-1E+10	1	-1E+10	1	-1E+10	1
4902663	37	C	08/03/2024	21:21	-126.772	47.295	0	977.90	0	3.5590	0	34.3870	0	27.350	0	967.478	0	7.9	4	2.5	4	-1E+10	1	-1E+10	1	-1E+10	1	-1E+10	1	-1E+10	1	-1E+10	1
4902663	37	C	08/03/2024	21:21	-126.772	47.295	0	982.80	0	3.5320	0	34.3860	0	27.352	0	972.315	0	8.0	4	2.5	4	-1E+10	1	-1E+10	1	-1E+10	1	-1E+10	1	-1E+10	1	-1E+10	1
4902663	37	C	08/03/2024	21:21	-126.772	47.295	0	987.70	0	3.4980	0	34.3850	0	27.354	0	977.151	0	8.0	4	2.5	4	-1E+10	1	-1E+10	1	-1E+10	1	-1E+10	1	-1E+10	1	-1E+10	1
4902663	37	C	08/03/2024	21:21	-126.772	47.295	0	993.10	0	3.4760	0	34.3860	0	27.357	0	982.481	0	8.1	4	2.5	4	-1E+10	1	-1E+10	1	-1E+10	1	-1E+10	1	-1E+10	1	-1E+10	1
4902663	37	C	08/03/2024	21:21	-126.772	47.295	0	998.00	0	3.4590	0	34.3870	0	27.360	0	987.317	0	8.2	4	2.6	4	-1E+10	1	-1E+10	1	-1E+10	1	-1E+10	1	-1E+10	1	-1E+10	1
4902663	37	C	08/03/2024	21:21	-126.772	47.295	0	1005.20	0	3.4710	0	34.3930	0	27.363	0	994.422	0	8.5	4	2.6	4	-1E+10	1	-1E+10	1	-1E+10	1	-1E+10	1	-1E+10	1	-1E+10	1
4902663	37	C	08/03/2024	21:21	-126.772	47.295	0	1015.00	0	3.4810	0	34.4020	0	27.370	0	1004.094	0	8.7	4	2.7	4	-1E+10	1	-1E+10	1	-1E+10	1	-1E+10	1	-1E+10	1	-1E+10	1
4902663	37	C	08/03/2024	21:21	-126.772	47.295	0	1025.40	0	3.4540	0	34.4040	0	27.374	0	1014.357	0	8.9	4	2.8	4	-1E+10	1	-1E+10	1	-1E+10	1	-1E+10	1	-1E+10	1	-1E+10	1
4902663	37	C	08/03/2024	21:21	-126.772	47.295	0	1035.70	0	3.4390	0	34.4100	0	27.380	0	1024.521	0	9.1	4	2.8	4	-1E+10	1	-1E+10	1	-1E+10	1	-1E+10	1	-1E+10	1	-1E+10	1
4902663	37	C	08/03/2024	21:21	-126.772	47.295	0	1045.50	0	3.4090	0	34.4120	0	27.385	0	1034.191	0	9.3	4	2.9	4	-1E+10	1	-1E+10	1	-1E+10	1	-1E+10	1	-1E+10	1	-1E+10	1
4902663	37	C	08/03/2024	21:21	-126.772	47.295	0	1055.20	0	3.3990	0	34.4160	0	27.389	0	1043.762	0	9.6	4	3.0	4	-1E+10	1	-1E+10	1	-1E+10	1	-1E+10	1	-1E+10	1	-1E+10	1
4902663	37	C	08/03/2024	21:21	-126.772	47.295	0	1065.30	0	3.3760	0	34.4200	0	27.394	0	1053.727	0	9.7	4	3.0	4	-1E+10	1	-1E+10	1	-1E+10	1	-1E+10	1	-1E+10	1	-1E+10	1
4902663	37	C	08/03/2024	21:21	-126.772	47.295	0	1075.30	0	3.3410	0	34.4210	0	27.398	0	1063.593	0	9.9	4	3.1	4	-1E+10	1	-1E+10	1	-1E+10	1	-1E+10	1	-1E+10	1	-1E+10	1
4902663	37	C	08/03/2024	21:21	-126.772	47.295	0	1085.10	0	3.3100	0	34.4220	0	27.402	0	1073.261	0	10.1	4	3.1	4	-1E+10	1	-1E+10	1	-1E+10	1	-1E+10	1	-1E+10	1	-1E+10	1
4902663	37	C	08/03/2024	21:21	-126.772	47.295	0	1095.30	0	3.2940	0	34.4270	0	27.408	0	1083.324	0	10.5	4	3.3	4	-1E+10	1	-1E+10	1	-1E+10	1	-1E+10	1	-1E+10	1	-1E+10	1
4902663	37	C	08/03/2024	21:21	-126.772	47.295	0	1105.20	0	3.2720	0	34.4320	0	27.414	0	1093.090	0	10.8	4	3.4	4	-1E+10	1	-1E+10	1	-1E+10	1	-1E+10	1	-1E+10	1	-1E+10	1
4902663	37	C	08/03/2024	21:21	-126.772	47.295	0	1115.20	0	3.2560	0	34.4340	0	27.417	0	1102.954	0	11.0	4	3.4	4	-1E+10	1	-1E+10	1	-1E+10	1	-1E+10	1	-1E+10	1	-1E+10	1
4902663	37	C	08/03/2024	21:21	-126.772	47.295	0	1125.20	0	3.2300	0	34.4360	0	27.421	0	1112.818	0	11.2	4	3.5	4	-1E+10	1	-1E+10	1	-1E+10	1	-1E+10	1	-1E+10	1	-1E+10	1
4902663	37	C	08/03/2024	21:21	-126.772	47.295	0	1135.20	0	3.1910	0	34.4380	0	27.426	0	1122.681	0	11.4	4	3.5	4	-1E+10	1	-1E+10	1	-1E+10	1	-1E+10	1	-1E+10	1	-1E+10	1
4902663	37	C	08/03/2024	21:21	-126.772	47.295	0	1145.70	0	3.1720	0	34.4400	0	27.430	0	1133.037	0	11.6	4	3.6	4	-1E+10	1	-1E+10	1	-1E+10	1	-1E+10	1	-1E+10	1	-1E+10	1
4902663	37	C	08/03/2024	21:21	-126.772	47.295	0	1155.40	0	3.1380	0	34.4420	0	27.434	0	1142.603	0	11.9	4	3.7	4	-1E+10	1	-1E+10	1	-1E+10	1	-1E+10	1	-1E+10	1	-1E+10	1
4902663	37	C	08/03/2024	21:21	-126.772	47.295	0	1165.50	0	3.1150	0	34.4450	0	27.439	0	1152.564	0	12.1	4	3.8	4	-1E+10	1	-1E+10	1	-1E+10	1	-1E+10	1	-1E+10	1	-1E+10	1
4902663	37	C	08/03/2024	21:21	-126.772	47.295	0	1175.20	0	3.0910	0	34.4470	0	27.443	0	1162.129	0	12.4	4	3.8	4	-1E+10	1	-1E+10	1	-1E+10	1	-1E+10	1	-1E+10	1	-1E+10	1
4902663	37	C	08/03/2024	21:21	-126.772	47.295	0	1185.40	0	3.0610	0	34.4500	0	27.448	0	1172.187	0	12.7	4	3.9	4	-1E+10	1	-1E+10	1	-1E+10	1	-1E+10	1	-1E+10	1	-1E+10	1
4902663	37	C	08/03/2024	21:21	-126.772	47.295	0	1195.80	0	3.0330	0	34.4520	0	27.452	0	1182.442	0	13.1	4	4.0	4	-1E+10	1	-1E+10	1	-1E+10	1	-1E+10	1	-1E+10	1	-1E+10	1
4902663	37	C	08/03/2024	21:21	-126.772	47.295	0	1205.50	0	3.0120	0	34.4550	0	27.457	0	1192.006	0	13.4	4	4.1	4	-1E+10	1	-1E+10	1	-1E+10	1	-1E+10	1	-1E+10	1	-1E+10	1
4902663	37	C	08/03/2024	21:21	-126.772	47.295	0	1215.40	0	2.9940	0	34.4580	0	27.461	0	1201.767	0	13.9	4	4.3	4	-1E+10	1	-1E+10	1	-1E+10	1	-1E+10	1	-1E+10	1	-1E+10	1
4902663	37	C	08/03/2024	21:21	-126.772	47.295	0	1225.50	0	2.9720	0	34.4610	0	27.465	0	1211.725	0	14.4	4	4.4	4	-1E+10	1	-1E+10	1	-1E+10	1	-1E+10	1	-1E+10	1	-1E+10	1
4902663	37	C	08/03/2024	21:21	-126.772	47.295	0	1235.10	0	2.9470	0	34.4650	0	27.471	0	1221.189	0	14.9	4	4.6	4	-1E+10	1	-1E+10	1	-1E+10	1	-1E+10	1	-1E+10	1	-1E+10	1
4902663	37	C	08/03/2024	21:21	-126.772	47.295	0	1244.90	0	2.9250	0	34.4680	0	27.475	0	1230.850	0	15.3	4	4.7	4	-1E+10	1	-1E+10	1	-1E+10	1	-1E+10	1	-1E+10	1	-1E+10	1
4902663	37	C	08/03/2024	21:21	-126.772	47.295	0	1255.10	0	2.9120	0	34.4700	0	27.478	0	1240.905	0	15.6	4	4.8	4	-1E+10	1	-1E+10	1	-1E+10	1	-1E+10	1	-1E+10	1	-1E+10	1
4902663	37	C	08/03/2024	21:21	-126.772	47.295	0	1265.30	0	2.8970	0	34.4720	0	27.481	0	1250.959	0	15.9	4	4.9	4	-1E+10	1	-1E+10	1	-1E+10	1	-1E+10	1	-1E+10	1	-1E+10	1
4902663	37	C	08/03/2024	21:21	-126.772	47.295	0	1275.70	0	2.8740	0	34.4740	0	27.485	0	1261.210	0	16.3	4	5.0	4	-1E+10	1	-1E+10	1	-1E+10	1	-1E+10	1	-1E+10	1	-1E+10	1
4902663	37	C	08/03/2024	21:21	-126.772	47.295	0	1285.80	0	2.8590	0	34.4760	0	27.487	0	1271.165	0	16.6	4	5.1	4	-1E+10	1	-1E+10	1	-1E+10	1	-1E+10	1	-1E+10	1	-1E+10	1
4902663	37	C	08/03/2024	21:21	-126.772	47.295	0	1295.10	0	2.8350	0	34.4780	0	27.491	0	1280.331	0	17.1	4	5.3	4	-1E+10	1	-1E+10	1	-1E+10	1	-1E+10	1	-1E+10	1	-1E+10	1
4902663	37	C	08/03/2024	21:21	-126.772	47.295	0	1305.00	0	2.8000	0	34.4810	0	27.497	0	1290.088	0	17.5	4	5.4	4	-1E+10	1	-1E+10	1	-1E+10	1	-1E+10	1	-1E+10	1	-1E+10	1
4902663	37	C	08/03/2024	21:21	-126.772	47.295	0	1315.10	0	2.7770	0	34.4830	0	27.500	0	1300.041	0	17.7	4	5.4	4	-1E+10	1	-1E+10	1	-1E+10	1	-1E+10	1	-1E+10	1	-1E+10	1
4902663	37	C	08/03/2024	21:21	-126.772	47.295	0	1325.30	0	2.7540	0	34.4830	0	27.502	0	1310.093	0	17.8	4	5.5	4	-1E+10	1	-1E+10	1	-1E+10	1	-1E+10	1	-1E+10	1	-1E+10	1
4902663	37	C	08/03/2024	21:21	-126.772	47.295	0	1335.30	0	2.7330	0	34.4840	0	27.505	0	1319.947	0	18.1	4	5.5	4	-1E+10	1	-1E+10	1	-1E+10	1	-1E+10	1	-1E+10	1	-1E+10	1
4902663	37	C	08/03/2024	21:21	-126.772	47.295	0	1345.40	0	2.7190	0	34.4860	0	27.508	0	1329.899	0	18.5	4	5.7	4	-1E+10	1	-1E+10	1	-1E+10	1	-1E+10	1	-1E+10	1	-1E+10	1
4902663	37	C	08/03/2024	21:21	-126.772	47.295	0	1355.40	0	2.7010	0	34.4890	0	27.512	0	1339.752	0	19.0	4	5.8	4	-1E+10	1	-1E+10	1	-1E+10	1	-1E+10	1	-1E+10	1	-1E+10	1
4902663	37	C	08/03/2024	21:21	-126.772	47.295	0	1365.40	0	2.6750	0	34.4900	0	27.515	0	1349.604	0	19.4	4	6.0	4	-1E+10	1	-1E+10	1	-1E+10	1	-1E+10	1	-1E+10	1	-1E+10	1
4902663	37	C	08/03/2024	21:21	-126.772	47.295	0	1375.60	0	2.6500	0	34.4930	0	27.520	0	1359.653	0	20.0	4	6.1	4	-1E+10	1	-1E+10	1	-1E+10	1	-1E+10	1	-1E+10	1	-1E+10	1
4902663	37	C	08/03/2024	21:21	-126.772	47.295	0	1385.40	0	2.6390	0	34.4960	0	27.523	0	1369.308	0	20.7	4	6.3	4	-1E+10	1	-1E+10	1	-1E+10	1	-1E+10	1	-1E+10	1	-1E+10	1
4902663	37	C	08/03/2024	21:21	-126.772	47.295	0	1395.50	0	2.6310	0	34.5010	0	27.528	0	1379.258	0	21.4	4	6.5	4	-1E+10	1	-1E+10	1	-1E+10	1	-1E+10	1	-1E+10	1	-1E+10	1
4902663	37	C	08/03/2024	21:21	-126.772	47.295	0	1405.60	0	2.6060	0	34.5030	0	27.532	0	1389.207	0	21.7	4	6.6	4	-1E+10	1	-1E+10	1	-1E+10	1	-1E+10	1	-1E+10	1	-1E+10	1
4902663	37	C	08/03/2024	21:21	-126.772	47.295	0	1415.60	0	2.5880	0	34.5030	0	27.533	0	1399.057	0	22.2	4	6.8	4	-1E+10	1	-1E+10	1	-1E+10	1	-1E+10	1	-1E+10	1	-1E+10	1
4902663	37	C	08/03/2024	21:21	-126.772	47.295	0	1425.80	0	2.5790	0	34.5070	0	27.537	0	1409.104	0	22.8	4	7.0	4	-1E+10	1	-1E+10	1	-1E+10	1	-1E+10	1	-1E+10	1	-1E+10	1
4902663	37	C	08/03/2024	21:21	-126.772	47.295	0	1435.50	0	2.5640	0	34.5090	0	27.540	0	1418.658	0	23.2	4	7.1	4	-1E+10	1	-1E+10	1	-1E+10	1	-1E+10	1	-1E+10	1	-1E+10	1
4902663	37	C	08/03/2024	21:21	-126.772	47.295	0	1445.30	0	2.5520	0	34.5100	0	27.542	0	1428.310	0	23.5	4	7.2	4	-1E+10	1	-1E+10	1	-1E+10	1	-1E+10	1	-1E+10	1	-1E+10	1
4902663	37	C	08/03/2024	21:21	-126.772	47.295	0	1455.30	0	2.5320	0	34.5110	0	27.545	0	1438.158	0	23.9	4	7.3	4	-1E+10	1	-1E+10	1	-1E+10	1	-1E+10	1	-1E+10	1	-1E+10	1
4902663	37	C	08/03/2024	21:21	-126.772	47.295	0	1465.40	0	2.5130	0	34.5120	0	27.547	0	1448.105	0	24.2	4	7.4	4	-1E+10	1	-1E+10	1	-1E+10	1	-1E+10	1	-1E+10	1	-1E+10	1
4902663	37	C	08/03/2024	21:21	-126.772	47.295	0	1475.50	0	2.4950	0	34.5130	0	27.549	0	1458.051	0	24.6	4	7.5	4	-1E+10	1	-1E+10	1	-1E+10	1	-1E+10	1	-1E+10	1	-1E+10	1
4902663	37	C	08/03/2024	21:21	-126.772	47.295	0	1485.40	0	2.4760	0	34.5140	0	27.552	0	1467.799	0	25.2	4	7.7	4	-1E+10	1	-1E+10	1	-1E+10	1	-1E+10	1	-1E+10	1	-1E+10	1
4902663	37	C	08/03/2024	21:21	-126.772	47.295	0	1495.50	0	2.4550	0	34.5160	0	27.555	0	1477.744	0	25.9	4	7.9	4	-1E+10	1	-1E+10	1	-1E+10	1	-1E+10	1	-1E+10	1	-1E+10	1
4902663	37	C	08/03/2024	21:21	-126.772	47.295	0	1505.50	0	2.4370	0	34.5190	0	27.559	0	1487.590	0	26.7	4	8.1	4	-1E+10	1	-1E+10	1	-1E+10	1	-1E+10	1	-1E+10	1	-1E+10	1
4902663	37	C	08/03/2024	21:21	-126.772	47.295	0	1515.20	0	2.4200	0	34.5220	0	27.563	0	1497.140	0	27.2	4	8.3	4	-1E+10	1	-1E+10	1	-1E+10	1	-1E+10	1	-1E+10	1	-1E+10	1
4902663	37	C	08/03/2024	21:21	-126.772	47.295	0	1525.10	0	2.4100	0	34.5230	0	27.565	0	1506.887	0	27.5	4	8.4	4	-1E+10	1	-1E+10	1	-1E+10	1	-1E+10	1	-1E+10	1	-1E+10	1
4902663	37	C	08/03/2024	21:21	-126.772	47.295	0	1535.30	0	2.3990	0	34.5240	0	27.566	0	1516.929	0	27.8	4	8.5	4	-1E+10	1	-1E+10	1	-1E+10	1	-1E+10	1	-1E+10	1	-1E+10	1
4902663	37	C	08/03/2024	21:21	-126.772	47.295	0	1545.40	0	2.3840	0	34.5250	0	27.569	0	1526.872	0	28.4	4	8.6	4	-1E+10	1	-1E+10	1	-1E+10	1	-1E+10	1	-1E+10	1	-1E+10	1
4902663	37	C	08/03/2024	21:21	-126.772	47.295	0	1555.70	0	2.3690	0	34.5280	0	27.572	0	1537.011	0	29.2	4	8.9	4	-1E+10	1	-1E+10	1	-1E+10	1	-1E+10	1	-1E+10	1	-1E+10	1
4902663	37	C	08/03/2024	21:21	-126.772	47.295	0	1565.90	0	2.3500	0	34.5290	0	27.575	0	1547.051	0	29.7	4	9.0	4	-1E+10	1	-1E+10	1	-1E+10	1	-1E+10	1	-1E+10	1	-1E+10	1
4902663	37	C	08/03/2024	21:21	-126.772	47.295	0	1575.30	0	2.3420	0	34.5310	0	27.577	0	1556.303	0	30.3	4	9.2	4	-1E+10	1	-1E+10	1	-1E+10	1	-1E+10	1	-1E+10	1	-1E+10	1
4902663	37	C	08/03/2024	21:21	-126.772	47.295	0	1585.30	0	2.3250	0	34.5330	0	27.580	0	1566.146	0	31.2	4	9.5	4	-1E+10	1	-1E+10	1	-1E+10	1	-1E+10	1	-1E+10	1	-1E+10	1
4902663	37	C	08/03/2024	21:21	-126.772	47.295	0	1595.60	0	2.3110	0	34.5360	0	27.584	0	1576.283	0	31.9	4	9.7	4	-1E+10	1	-1E+10	1	-1E+10	1	-1E+10	1	-1E+10	1	-1E+10	1
4902663	37	C	08/03/2024	21:21	-126.772	47.295	0	1605.40	0	2.2940	0	34.5370	0	27.586	0	1585.927	0	32.5	4	9.9	4	-1E+10	1	-1E+10	1	-1E+10	1	-1E+10	1	-1E+10	1	-1E+10	1
4902663	37	C	08/03/2024	21:21	-126.772	47.295	0	1615.40	0	2.2800	0	34.5390	0	27.589	0	1595.769	0	33.1	4	10.0	4	-1E+10	1	-1E+10	1	-1E+10	1	-1E+10	1	-1E+10	1	-1E+10	1
4902663	37	C	08/03/2024	21:21	-126.772	47.295	0	1625.70	0	2.2670	0	34.5400	0	27.591	0	1605.904	0	33.7	4	10.2	4	-1E+10	1	-1E+10	1	-1E+10	1	-1E+10	1	-1E+10	1	-1E+10	1
4902663	37	C	08/03/2024	21:21	-126.772	47.295	0	1635.70	0	2.2560	0	34.5420	0	27.593	0	1615.744	0	34.2	4	10.4	4	-1E+10	1	-1E+10	1	-1E+10	1	-1E+10	1	-1E+10	1	-1E+10	1
4902663	37	C	08/03/2024	21:21	-126.772	47.295	0	1645.50	0	2.2460	0	34.5430	0	27.595	0	1625.387	0	34.6	4	10.5	4	-1E+10	1	-1E+10	1	-1E+10	1	-1E+10	1	-1E+10	1	-1E+10	1
4902663	37	C	08/03/2024	21:21	-126.772	47.295	0	1655.40	0	2.2380	0	34.5440	0	27.596	0	1635.128	0	35.1	4	10.7	4	-1E+10	1	-1E+10	1	-1E+10	1	-1E+10	1	-1E+10	1	-1E+10	1
4902663	37	C	08/03/2024	21:21	-126.772	47.295	0	1665.30	0	2.2280	0	34.5460	0	27.599	0	1644.869	0	35.6	4	10.8	4	-1E+10	1	-1E+10	1	-1E+10	1	-1E+10	1	-1E+10	1	-1E+10	1
4902663	37	C	08/03/2024	21:21	-126.772	47.295	0	1675.30	0	2.2230	0	34.5470	0	27.600	0	1654.707	0	36.0	4	10.9	4	-1E+10	1	-1E+10	1	-1E+10	1	-1E+10	1	-1E+10	1	-1E+10	1
4902663	37	C	08/03/2024	21:21	-126.772	47.295	0	1685.40	0	2.2110	0	34.5480	0	27.602	0	1664.643	0	36.4	4	11.0	4	-1E+10	1	-1E+10	1	-1E+10	1	-1E+10	1	-1E+10	1	-1E+10	1
4902663	37	C	08/03/2024	21:21	-126.772	47.295	0	1695.40	0	2.2030	0	34.5490	0	27.603	0	1674.480	0	37.0	4	11.2	4	-1E+10	1	-1E+10	1	-1E+10	1	-1E+10	1	-1E+10	1	-1E+10	1
4902663	37	C	08/03/2024	21:21	-126.772	47.295	0	1705.30	0	2.1870	0	34.5510	0	27.606	0	1684.219	0	37.6	4	11.4	4	-1E+10	1	-1E+10	1	-1E+10	1	-1E+10	1	-1E+10	1	-1E+10	1
4902663	37	C	08/03/2024	21:21	-126.772	47.295	0	1715.10	0	2.1840	0	34.5540	0	27.609	0	1693.859	0	38.4	4	11.6	4	-1E+10	1	-1E+10	1	-1E+10	1	-1E+10	1	-1E+10	1	-1E+10	1
4902663	37	C	08/03/2024	21:21	-126.772	47.295	0	1725.10	0	2.1690	0	34.5550	0	27.611	0	1703.695	0	39.0	4	11.8	4	-1E+10	1	-1E+10	1	-1E+10	1	-1E+10	1	-1E+10	1	-1E+10	1
4902663	37	C	08/03/2024	21:21	-126.772	47.295	0	1735.10	0	2.1540	0	34.5570	0	27.614	0	1713.530	0	39.5	4	12.0	4	-1E+10	1	-1E+10	1	-1E+10	1	-1E+10	1	-1E+10	1	-1E+10	1
4902663	37	C	08/03/2024	21:21	-126.772	47.295	0	1745.40	0	2.1460	0	34.5590	0	27.616	0	1723.660	0	40.2	4	12.2	4	-1E+10	1	-1E+10	1	-1E+10	1	-1E+10	1	-1E+10	1	-1E+10	1
4902663	37	C	08/03/2024	21:21	-126.772	47.295	0	1755.80	0	2.1350	0	34.5610	0	27.619	0	1733.888	0	41.1	4	12.4	4	-1E+10	1	-1E+10	1	-1E+10	1	-1E+10	1	-1E+10	1	-1E+10	1
4902663	37	C	08/03/2024	21:21	-126.772	47.295	0	1765.70	0	2.1250	0	34.5640	0	27.622	0	1743.624	0	42.2	4	12.8	4	-1E+10	1	-1E+10	1	-1E+10	1	-1E+10	1	-1E+10	1	-1E+10	1
4902663	37	C	08/03/2024	21:21	-126.772	47.295	0	1775.70	0	2.1130	0	34.5660	0	27.625	0	1753.458	0	42.9	4	13.0	4	-1E+10	1	-1E+10	1	-1E+10	1	-1E+10	1	-1E+10	1	-1E+10	1
4902663	37	C	08/03/2024	21:21	-126.772	47.295	0	1785.70	0	2.0910	0	34.5680	0	27.628	0	1763.291	0	43.5	4	13.2	4	-1E+10	1	-1E+10	1	-1E+10	1	-1E+10	1	-1E+10	1	-1E+10	1
4902663	37	C	08/03/2024	21:21	-126.772	47.295	0	1795.80	0	2.0770	0	34.5690	0	27.630	0	1773.222	0	44.2	4	13.4	4	-1E+10	1	-1E+10	1	-1E+10	1	-1E+10	1	-1E+10	1	-1E+10	1
4902663	37	C	08/03/2024	21:21	-126.772	47.295	0	1805.50	0	2.0650	0	34.5710	0	27.632	0	1782.760	0	44.8	4	13.5	4	-1E+10	1	-1E+10	1	-1E+10	1	-1E+10	1	-1E+10	1	-1E+10	1
4902663	37	C	08/03/2024	21:21	-126.772	47.295	0	1815.30	0	2.0560	0	34.5720	0	27.634	0	1792.395	0	45.4	4	13.7	4	-1E+10	1	-1E+10	1	-1E+10	1	-1E+10	1	-1E+10	1	-1E+10	1
4902663	37	C	08/03/2024	21:21	-126.772	47.295	0	1825.30	0	2.0460	0	34.5740	0	27.636	0	1802.226	0	46.2	4	13.9	4	-1E+10	1	-1E+10	1	-1E+10	1	-1E+10	1	-1E+10	1	-1E+10	1
4902663	37	C	08/03/2024	21:21	-126.772	47.295	0	1835.10	0	2.0350	0	34.5760	0	27.639	0	1811.861	0	47.0	4	14.2	4	-1E+10	1	-1E+10	1	-1E+10	1	-1E+10	1	-1E+10	1	-1E+10	1
4902663	37	C	08/03/2024	21:21	-126.772	47.295	0	1845.00	0	2.0250	0	34.5770	0	27.641	0	1821.593	0	47.5	4	14.3	4	-1E+10	1	-1E+10	1	-1E+10	1	-1E+10	1	-1E+10	1	-1E+10	1
4902663	37	C	08/03/2024	21:21	-126.772	47.295	0	1855.00	0	2.0180	0	34.5790	0	27.643	0	1831.423	0	48.2	4	14.5	4	-1E+10	1	-1E+10	1	-1E+10	1	-1E+10	1	-1E+10	1	-1E+10	1
4902663	37	C	08/03/2024	21:21	-126.772	47.295	0	1865.00	0	2.0080	0	34.5800	0	27.644	0	1841.253	0	48.9	4	14.7	4	-1E+10	1	-1E+10	1	-1E+10	1	-1E+10	1	-1E+10	1	-1E+10	1
4902663	37	C	08/03/2024	21:21	-126.772	47.295	0	1875.10	0	1.9980	0	34.5820	0	27.647	0	1851.180	0	49.6	4	14.9	4	-1E+10	1	-1E+10	1	-1E+10	1	-1E+10	1	-1E+10	1	-1E+10	1
4902663	37	C	08/03/2024	21:21	-126.772	47.295	0	1885.70	0	1.9860	0	34.5840	0	27.649	0	1861.598	0	50.2	4	15.1	4	-1E+10	1	-1E+10	1	-1E+10	1	-1E+10	1	-1E+10	1	-1E+10	1
4902663	37	C	08/03/2024	21:21	-126.772	47.295	0	1895.60	0	1.9790	0	34.5850	0	27.651	0	1871.328	0	51.0	4	15.4	4	-1E+10	1	-1E+10	1	-1E+10	1	-1E+10	1	-1E+10	1	-1E+10	1
4902663	37	C	08/03/2024	21:21	-126.772	47.295	0	1905.50	0	1.9680	0	34.5870	0	27.653	0	1881.058	0	51.7	4	15.6	4	-1E+10	1	-1E+10	1	-1E+10	1	-1E+10	1	-1E+10	1	-1E+10	1
4902663	37	C	08/03/2024	21:21	-126.772	47.295	0	1915.20	0	1.9580	0	34.5890	0	27.656	0	1890.590	0	52.4	4	15.8	4	-1E+10	1	-1E+10	1	-1E+10	1	-1E+10	1	-1E+10	1	-1E+10	1
4902663	37	C	08/03/2024	21:21	-126.772	47.295	0	1925.30	0	1.9500	0	34.5900	0	27.657	0	1900.516	0	52.9	4	15.9	4	-1E+10	1	-1E+10	1	-1E+10	1	-1E+10	1	-1E+10	1	-1E+10	1
4902663	37	C	08/03/2024	21:21	-126.772	47.295	0	1935.60	0	1.9440	0	34.5910	0	27.659	0	1910.637	0	53.4	4	16.1	4	-1E+10	1	-1E+10	1	-1E+10	1	-1E+10	1	-1E+10	1	-1E+10	1
4902663	37	C	08/03/2024	21:21	-126.772	47.295	0	1945.50	0	1.9380	0	34.5920	0	27.660	0	1920.365	0	53.9	4	16.2	4	-1E+10	1	-1E+10	1	-1E+10	1	-1E+10	1	-1E+10	1	-1E+10	1
4902663	37	C	08/03/2024	21:21	-126.772	47.295	0	1955.30	0	1.9320	0	34.5940	0	27.662	0	1929.994	0	54.4	4	16.4	4	-1E+10	1	-1E+10	1	-1E+10	1	-1E+10	1	-1E+10	1	-1E+10	1
4902663	37	C	08/03/2024	21:21	-126.772	47.295	0	1965.20	0	1.9260	0	34.5950	0	27.663	0	1939.720	0	54.9	4	16.5	4	-1E+10	1	-1E+10	1	-1E+10	1	-1E+10	1	-1E+10	1	-1E+10	1
4902663	37	C	08/03/2024	21:21	-126.772	47.295	0	1975.30	0	1.9220	0	34.5970	0	27.665	0	1949.643	0	55.4	4	16.7	4	-1E+10	1	-1E+10	1	-1E+10	1	-1E+10	1	-1E+10	1	-1E+10	1
4902663	37	C	08/03/2024	21:21	-126.772	47.295	0	1985.50	0	1.9150	0	34.5980	0	27.667	0	1959.664	0	55.9	4	16.8	4	-1E+10	1	-1E+10	1	-1E+10	1	-1E+10	1	-1E+10	1	-1E+10	1
4902663	37	C	08/03/2024	21:21	-126.772	47.295	0	1995.80	0	1.9080	0	34.5990	0	27.668	0	1969.782	0	56.4	4	17.0	4	-1E+10	1	-1E+10	1	-1E+10	1	-1E+10	1	-1E+10	1	-1E+10	1
4902663	37	C	08/03/2024	21:21	-126.772	47.295	0	2005.70	0	1.9030	0	34.6000	0	27.669	0	1979.507	0	56.8	4	17.1	4	-1E+10	1	-1E+10	1	-1E+10	1	-1E+10	1	-1E+10	1	-1E+10	1
4902663	37	C	08/03/2024	21:21	-126.772	47.295	0	2015.60	0	1.8980	0	34.6010	0	27.671	0	1989.232	0	57.2	4	17.2	4	-1E+10	1	-1E+10	1	-1E+10	1	-1E+10	1	-1E+10	1	-1E+10	1
4902663	37	C	08/03/2024	21:21	-126.772	47.295	0	2025.70	0	1.8910	0	34.6020	0	27.672	0	1999.152	0	57.3	4	17.2	4	-1E+10	1	-1E+10	1	-1E+10	1	-1E+10	1	-1E+10	1	-1E+10	1
4902663	37	C	08/03/2024	21:21	-126.772	47.295	0	2032.90	0	1.8870	0	34.6030	0	27.673	0	2006.224	0	56.9	4	17.1	4	-1E+10	1	-1E+10	1	-1E+10	1	-1E+10	1	-1E+10	1	-1E+10	1
4902663	37	C	08/03/2024	21:21	-126.772	47.295	0																										
4902663	38	C	08/13/2024	16:04	-126.656	47.531	0	0.00	0	17.2350	0	31.9670	0	23.134	0	0.000	0	230.6	4	95.2	4	-1E+10	1	-1E+10	1	-1E+10	1	-1E+10	1	-1E+10	1	-1E+10	1
4902663	38	C	08/13/2024	16:04	-126.656	47.531	0	0.10	0	17.2349	0	31.9670	0	23.134	0	0.099	0	230.6	4	95.2	4	-1E+10	1	-1E+10	1	-1E+10	1	-1E+10	1	-1E+10	1	-1E+10	1
4902663	38	C	08/13/2024	16:04	-126.656	47.531	0	1.00	0	17.2340	0	31.9670	0	23.134	0	0.992	0	230.7	4	95.2	4	-1E+10	1	-1E+10	1	-1E+10	1	-1E+10	1	-1E+10	1	-1E+10	1
4902663	38	C	08/13/2024	16:04	-126.656	47.531	0	2.30	0	17.2340	0	31.9680	0	23.135	0	2.281	0	230.8	4	95.2	4	-1E+10	1	-1E+10	1	-1E+10	1	-1E+10	1	-1E+10	1	-1E+10	1
4902663	38	C	08/13/2024	16:04	-126.656	47.531	0	3.10	0	17.2330	0	31.9690	0	23.136	0	3.074	0	230.6	4	95.2	4	-1E+10	1	-1E+10	1	-1E+10	1	-1E+10	1	-1E+10	1	-1E+10	1
4902663	38	C	08/13/2024	16:04	-126.656	47.531	0	3.90	0	17.2320	0	31.9710	0	23.138	0	3.867	0	230.8	4	95.3	4	-1E+10	1	-1E+10	1	-1E+10	1	-1E+10	1	-1E+10	1	-1E+10	1
4902663	38	C	08/13/2024	16:04	-126.656	47.531	0	4.80	0	17.2320	0	31.9730	0	23.139	0	4.760	0	230.7	4	95.2	4	-1E+10	1	-1E+10	1	-1E+10	1	-1E+10	1	-1E+10	1	-1E+10	1
4902663	38	C	08/13/2024	16:04	-126.656	47.531	0	5.60	0	17.2330	0	31.9720	0	23.138	0	5.553	0	230.8	4	95.2	4	-1E+10	1	-1E+10	1	-1E+10	1	-1E+10	1	-1E+10	1	-1E+10	1
4902663	38	C	08/13/2024	16:04	-126.656	47.531	0	6.90	0	17.2330	0	31.9720	0	23.138	0	6.842	0	230.8	4	95.3	4	-1E+10	1	-1E+10	1	-1E+10	1	-1E+10	1	-1E+10	1	-1E+10	1
4902663	38	C	08/13/2024	16:04	-126.656	47.531	0	8.20	0	17.2340	0	31.9720	0	23.138	0	8.131	0	230.9	4	95.3	4	-1E+10	1	-1E+10	1	-1E+10	1	-1E+10	1	-1E+10	1	-1E+10	1
4902663	38	C	08/13/2024	16:04	-126.656	47.531	0	9.10	0	17.2330	0	31.9720	0	23.138	0	9.024	0	231.0	4	95.3	4	-1E+10	1	-1E+10	1	-1E+10	1	-1E+10	1	-1E+10	1	-1E+10	1
4902663	38	C	08/13/2024	16:04	-126.656	47.531	0	9.90	0	17.2330	0	31.9720	0	23.139	0	9.817	0	231.0	4	95.3	4	-1E+10	1	-1E+10	1	-1E+10	1	-1E+10	1	-1E+10	1	-1E+10	1
4902663	38	C	08/13/2024	16:04	-126.656	47.531	0	10.80	0	17.2340	0	31.9720	0	23.138	0	10.710	0	231.1	4	95.4	4	-1E+10	1	-1E+10	1	-1E+10	1	-1E+10	1	-1E+10	1	-1E+10	1
4902663	38	C	08/13/2024	16:04	-126.656	47.531	0	11.70	0	17.2330	0	31.9720	0	23.139	0	11.602	0	231.2	4	95.4	4	-1E+10	1	-1E+10	1	-1E+10	1	-1E+10	1	-1E+10	1	-1E+10	1
4902663	38	C	08/13/2024	16:04	-126.656	47.531	0	12.60	0	17.2310	0	31.9720	0	23.139	0	12.494	0	231.3	4	95.5	4	-1E+10	1	-1E+10	1	-1E+10	1	-1E+10	1	-1E+10	1	-1E+10	1
4902663	38	C	08/13/2024	16:04	-126.656	47.531	0	13.60	0	17.2290	0	31.9720	0	23.140	0	13.486	0	231.6	4	95.6	4	-1E+10	1	-1E+10	1	-1E+10	1	-1E+10	1	-1E+10	1	-1E+10	1
4902663	38	C	08/13/2024	16:04	-126.656	47.531	0	14.50	0	17.2280	0	31.9720	0	23.140	0	14.378	0	231.8	4	95.7	4	-1E+10	1	-1E+10	1	-1E+10	1	-1E+10	1	-1E+10	1	-1E+10	1
4902663	38	C	08/13/2024	16:04	-126.656	47.531	0	15.50	0	17.2280	0	31.9720	0	23.140	0	15.370	0	232.0	4	95.8	4	-1E+10	1	-1E+10	1	-1E+10	1	-1E+10	1	-1E+10	1	-1E+10	1
4902663	38	C	08/13/2024	16:04	-126.656	47.531	0	16.50	0	17.2250	0	31.9700	0	23.139	0	16.362	0	232.4	4	95.9	4	-1E+10	1	-1E+10	1	-1E+10	1	-1E+10	1	-1E+10	1	-1E+10	1
4902663	38	C	08/13/2024	16:04	-126.656	47.531	0	17.90	0	17.2290	0	31.9700	0	23.138	0	17.750	0	233.1	4	96.2	4	-1E+10	1	-1E+10	1	-1E+10	1	-1E+10	1	-1E+10	1	-1E+10	1
4902663	38	C	08/13/2024	16:04	-126.656	47.531	0	19.30	0	17.2290	0	31.9700	0	23.138	0	19.138	0	233.9	4	96.5	4	-1E+10	1	-1E+10	1	-1E+10	1	-1E+10	1	-1E+10	1	-1E+10	1
4902663	38	C	08/13/2024	16:04	-126.656	47.531	0	20.20	0	17.2230	0	31.9690	0	23.139	0	20.030	0	234.5	4	96.8	4	-1E+10	1	-1E+10	1	-1E+10	1	-1E+10	1	-1E+10	1	-1E+10	1
4902663	38	C	08/13/2024	16:04	-126.656	47.531	0	21.00	0	17.2150	0	31.9680	0	23.140	0	20.824	0	235.4	4	97.1	4	-1E+10	1	-1E+10	1	-1E+10	1	-1E+10	1	-1E+10	1	-1E+10	1
4902663	38	C	08/13/2024	16:04	-126.656	47.531	0	21.90	0	17.2040	0	31.9660	0	23.141	0	21.716	0	236.9	4	97.7	4	-1E+10	1	-1E+10	1	-1E+10	1	-1E+10	1	-1E+10	1	-1E+10	1
4902663	38	C	08/13/2024	16:04	-126.656	47.531	0	22.90	0	17.1930	0	31.9580	0	23.138	0	22.708	0	241.1	4	99.4	4	-1E+10	1	-1E+10	1	-1E+10	1	-1E+10	1	-1E+10	1	-1E+10	1
4902663	38	C	08/13/2024	16:04	-126.656	47.531	0	23.90	0	16.8840	0	31.9360	0	23.193	0	23.699	0	248.4	4	101.8	4	-1E+10	1	-1E+10	1	-1E+10	1	-1E+10	1	-1E+10	1	-1E+10	1
4902663	38	C	08/13/2024	16:04	-126.656	47.531	0	24.80	0	16.0350	0	31.9580	0	23.403	0	24.591	0	254.2	4	102.5	4	-1E+10	1	-1E+10	1	-1E+10	1	-1E+10	1	-1E+10	1	-1E+10	1
4902663	38	C	08/13/2024	16:04	-126.656	47.531	0	25.80	0	14.7920	0	31.9510	0	23.668	0	25.583	0	258.6	4	101.8	4	-1E+10	1	-1E+10	1	-1E+10	1	-1E+10	1	-1E+10	1	-1E+10	1
4902663	38	C	08/13/2024	16:04	-126.656	47.531	0	26.80	0	14.3240	0	31.9510	0	23.767	0	26.575	0	260.6	4	101.6	4	-1E+10	1	-1E+10	1	-1E+10	1	-1E+10	1	-1E+10	1	-1E+10	1
4902663	38	C	08/13/2024	16:04	-126.656	47.531	0	27.80	0	14.0220	0	31.9370	0	23.818	0	27.566	0	261.9	4	101.5	4	-1E+10	1	-1E+10	1	-1E+10	1	-1E+10	1	-1E+10	1	-1E+10	1
4902663	38	C	08/13/2024	16:04	-126.656	47.531	0	28.90	0	13.7290	0	31.9560	0	23.892	0	28.657	0	262.8	4	101.3	4	-1E+10	1	-1E+10	1	-1E+10	1	-1E+10	1	-1E+10	1	-1E+10	1
4902663	38	C	08/13/2024	16:04	-126.656	47.531	0	30.00	0	13.6220	0	31.9590	0	23.916	0	29.747	0	263.1	4	101.1	4	-1E+10	1	-1E+10	1	-1E+10	1	-1E+10	1	-1E+10	1	-1E+10	1
4902663	38	C	08/13/2024	16:04	-126.656	47.531	0	31.20	0	13.5590	0	31.9680	0	23.936	0	30.937	0	263.0	4	101.0	4	-1E+10	1	-1E+10	1	-1E+10	1	-1E+10	1	-1E+10	1	-1E+10	1
4902663	38	C	08/13/2024	16:04	-126.656	47.531	0	31.90	0	13.2630	0	31.9580	0	23.987	0	31.631	0	263.2	4	100.4	4	-1E+10	1	-1E+10	1	-1E+10	1	-1E+10	1	-1E+10	1	-1E+10	1
4902663	38	C	08/13/2024	16:04	-126.656	47.531	0	32.70	0	13.2050	0	31.9680	0	24.006	0	32.424	0	262.4	4	100.0	4	-1E+10	1	-1E+10	1	-1E+10	1	-1E+10	1	-1E+10	1	-1E+10	1
4902663	38	C	08/13/2024	16:04	-126.656	47.531	0	33.90	0	12.7900	0	32.0230	0	24.130	0	33.614	0	261.8	4	99.0	4	-1E+10	1	-1E+10	1	-1E+10	1	-1E+10	1	-1E+10	1	-1E+10	1
4902663	38	C	08/13/2024	16:04	-126.656	47.531	0	35.20	0	12.4820	0	32.0580	0	24.216	0	34.903	0	261.1	4	98.1	4	-1E+10	1	-1E+10	1	-1E+10	1	-1E+10	1	-1E+10	1	-1E+10	1
4902663	38	C	08/13/2024	16:04	-126.656	47.531	0	36.10	0	12.3110	0	32.0520	0	24.244	0	35.795	0	260.5	4	97.6	4	-1E+10	1	-1E+10	1	-1E+10	1	-1E+10	1	-1E+10	1	-1E+10	1
4902663	38	C	08/13/2024	16:04	-126.656	47.531	0	37.00	0	12.0280	0	32.0870	0	24.324	0	36.688	0	260.0	4	96.8	4	-1E+10	1	-1E+10	1	-1E+10	1	-1E+10	1	-1E+10	1	-1E+10	1
4902663	38	C	08/13/2024	16:04	-126.656	47.531	0	37.80	0	11.9620	0	32.0900	0	24.338	0	37.481	0	259.2	4	96.4	4	-1E+10	1	-1E+10	1	-1E+10	1	-1E+10	1	-1E+10	1	-1E+10	1
4902663	38	C	08/13/2024	16:04	-126.656	47.531	0	39.00	0	11.8270	0	32.1030	0	24.373	0	38.671	0	258.7	4	95.9	4	-1E+10	1	-1E+10	1	-1E+10	1	-1E+10	1	-1E+10	1	-1E+10	1
4902663	38	C	08/13/2024	16:04	-126.656	47.531	0	39.90	0	11.7710	0	32.1090	0	24.388	0	39.563	0	257.9	4	95.5	4	-1E+10	1	-1E+10	1	-1E+10	1	-1E+10	1	-1E+10	1	-1E+10	1
4902663	38	C	08/13/2024	16:04	-126.656	47.531	0	40.90	0	11.6190	0	32.1290	0	24.432	0	40.555	0	257.8	4	95.2	4	-1E+10	1	-1E+10	1	-1E+10	1	-1E+10	1	-1E+10	1	-1E+10	1
4902663	38	C	08/13/2024	16:04	-126.656	47.531	0	42.00	0	11.3910	0	32.1450	0	24.485	0	41.645	0	258.8	4	95.1	4	-1E+10	1	-1E+10	1	-1E+10	1	-1E+10	1	-1E+10	1	-1E+10	1
4902663	38	C	08/13/2024	16:04	-126.656	47.531	0	42.80	0	11.3370	0	32.1680	0	24.513	0	42.438	0	259.1	4	95.1	4	-1E+10	1	-1E+10	1	-1E+10	1	-1E+10	1	-1E+10	1	-1E+10	1
4902663	38	C	08/13/2024	16:04	-126.656	47.531	0	43.80	0	11.2320	0	32.1680	0	24.531	0	43.430	0	259.7	4	95.1	4	-1E+10	1	-1E+10	1	-1E+10	1	-1E+10	1	-1E+10	1	-1E+10	1
4902663	38	C	08/13/2024	16:04	-126.656	47.531	0	45.00	0	11.1110	0	32.1820	0	24.564	0	44.619	0	260.1	4	95.1	4	-1E+10	1	-1E+10	1	-1E+10	1	-1E+10	1	-1E+10	1	-1E+10	1
4902663	38	C	08/13/2024	16:04	-126.656	47.531	0	45.70	0	11.0040	0	32.2040	0	24.600	0	45.313	0	260.4	4	95.0	4	-1E+10	1	-1E+10	1	-1E+10	1	-1E+10	1	-1E+10	1	-1E+10	1
4902663	38	C	08/13/2024	16:04	-126.656	47.531	0	46.90	0	10.8710	0	32.2220	0	24.637	0	46.503	0	260.0	4	94.6	4	-1E+10	1	-1E+10	1	-1E+10	1	-1E+10	1	-1E+10	1	-1E+10	1
4902663	38	C	08/13/2024	16:04	-126.656	47.531	0	48.10	0	10.7130	0	32.2420	0	24.680	0	47.693	0	259.1	4	93.9	4	-1E+10	1	-1E+10	1	-1E+10	1	-1E+10	1	-1E+10	1	-1E+10	1
4902663	38	C	08/13/2024	16:04	-126.656	47.531	0	48.90	0	10.6570	0	32.2460	0	24.693	0	48.486	0	257.8	4	93.3	4	-1E+10	1	-1E+10	1	-1E+10	1	-1E+10	1	-1E+10	1	-1E+10	1
4902663	38	C	08/13/2024	16:04	-126.656	47.531	0	49.70	0	10.6170	0	32.2590	0	24.710	0	49.279	0	256.3	4	92.7	4	-1E+10	1	-1E+10	1	-1E+10	1	-1E+10	1	-1E+10	1	-1E+10	1
4902663	38	C	08/13/2024	16:04	-126.656	47.531	0	50.90	0	10.5180	0	32.2630	0	24.730	0	50.469	0	254.1	4	91.8	4	-1E+10	1	-1E+10	1	-1E+10	1	-1E+10	1	-1E+10	1	-1E+10	1
4902663	38	C	08/13/2024	16:04	-126.656	47.531	0	52.10	0	10.3750	0	32.2510	0	24.745	0	51.659	0	254.2	4	91.5	4	-1E+10	1	-1E+10	1	-1E+10	1	-1E+10	1	-1E+10	1	-1E+10	1
4902663	38	C	08/13/2024	16:04	-126.656	47.531	0	52.90	0	10.2850	0	32.2590	0	24.766	0	52.452	0	254.6	4	91.5	4	-1E+10	1	-1E+10	1	-1E+10	1	-1E+10	1	-1E+10	1	-1E+10	1
4902663	38	C	08/13/2024	16:04	-126.656	47.531	0	53.70	0	10.1540	0	32.2660	0	24.794	0	53.245	0	254.8	4	91.3	4	-1E+10	1	-1E+10	1	-1E+10	1	-1E+10	1	-1E+10	1	-1E+10	1
4902663	38	C	08/13/2024	16:04	-126.656	47.531	0	54.90	0	10.0920	0	32.2700	0	24.807	0	54.434	0	253.9	4	90.9	4	-1E+10	1	-1E+10	1	-1E+10	1	-1E+10	1	-1E+10	1	-1E+10	1
4902663	38	C	08/13/2024	16:04	-126.656	47.531	0	56.10	0	9.9290	0	32.3030	0	24.860	0	55.624	0	252.4	4	90.0	4	-1E+10	1	-1E+10	1	-1E+10	1	-1E+10	1	-1E+10	1	-1E+10	1
4902663	38	C	08/13/2024	16:04	-126.656	47.531	0	56.90	0	9.8730	0	32.2940	0	24.862	0	56.417	0	251.4	4	89.5	4	-1E+10	1	-1E+10	1	-1E+10	1	-1E+10	1	-1E+10	1	-1E+10	1
4902663	38	C	08/13/2024	16:04	-126.656	47.531	0	58.00	0	9.7920	0	32.3000	0	24.880	0	57.508	0	249.8	4	88.8	4	-1E+10	1	-1E+10	1	-1E+10	1	-1E+10	1	-1E+10	1	-1E+10	1
4902663	38	C	08/13/2024	16:04	-126.656	47.531	0	59.30	0	9.7420	0	32.3040	0	24.891	0	58.796	0	247.9	4	88.0	4	-1E+10	1	-1E+10	1	-1E+10	1	-1E+10	1	-1E+10	1	-1E+10	1
4902663	38	C	08/13/2024	16:04	-126.656	47.531	0	60.10	0	9.7010	0	32.3050	0	24.899	0	59.590	0	246.4	4	87.5	4	-1E+10	1	-1E+10	1	-1E+10	1	-1E+10	1	-1E+10	1	-1E+10	1
4902663	38	C	08/13/2024	16:04	-126.656	47.531	0	60.90	0	9.5810	0	32.3230	0	24.932	0	60.383	0	245.3	4	86.9	4	-1E+10	1	-1E+10	1	-1E+10	1	-1E+10	1	-1E+10	1	-1E+10	1
4902663	38	C	08/13/2024	16:04	-126.656	47.531	0	61.80	0	9.5520	0	32.3240	0	24.938	0	61.275	0	244.3	4	86.4	4	-1E+10	1	-1E+10	1	-1E+10	1	-1E+10	1	-1E+10	1	-1E+10	1
4902663	38	C	08/13/2024	16:04	-126.656	47.531	0	63.00	0	9.4640	0	32.3390	0	24.963	0	62.464	0	242.9	4	85.8	4	-1E+10	1	-1E+10	1	-1E+10	1	-1E+10	1	-1E+10	1	-1E+10	1
4902663	38	C	08/13/2024	16:04	-126.656	47.531	0	64.30	0	9.3800	0	32.3480	0	24.984	0	63.753	0	241.5	4	85.1	4	-1E+10	1	-1E+10	1	-1E+10	1	-1E+10	1	-1E+10	1	-1E+10	1
4902663	38	C	08/13/2024	16:04	-126.656	47.531	0	65.10	0	9.3440	0	32.3510	0	24.992	0	64.546	0	240.8	4	84.8	4	-1E+10	1	-1E+10	1	-1E+10	1	-1E+10	1	-1E+10	1	-1E+10	1
4902663	38	C	08/13/2024	16:04	-126.656	47.531	0	65.90	0	9.2760	0	32.3600	0	25.010	0	65.339	0	239.8	4	84.3	4	-1E+10	1	-1E+10	1	-1E+10	1	-1E+10	1	-1E+10	1	-1E+10	1
4902663	38	C	08/13/2024	16:04	-126.656	47.531	0	66.80	0	9.2500	0	32.3630	0	25.016	0	66.232	0	238.9	4	84.0	4	-1E+10	1	-1E+10	1	-1E+10	1	-1E+10	1	-1E+10	1	-1E+10	1
4902663	38	C	08/13/2024	16:04	-126.656	47.531	0	68.00	0	9.2060	0	32.3700	0	25.029	0	67.421	0	237.3	4	83.3	4	-1E+10	1	-1E+10	1	-1E+10	1	-1E+10	1	-1E+10	1	-1E+10	1
4902663	38	C	08/13/2024	16:04	-126.656	47.531	0	69.30	0	9.1760	0	32.3740	0	25.036	0	68.710	0	235.3	4	82.6	4	-1E+10	1	-1E+10	1	-1E+10	1	-1E+10	1	-1E+10	1	-1E+10	1
4902663	38	C	08/13/2024	16:04	-126.656	47.531	0	70.00	0	9.1460	0	32.3810	0	25.047	0	69.404	0	234.0	4	82.1	4	-1E+10	1	-1E+10	1	-1E+10	1	-1E+10	1	-1E+10	1	-1E+10	1
4902663	38	C	08/13/2024	16:04	-126.656	47.531	0	70.80	0	9.0940	0	32.3940	0	25.065	0	70.197	0	232.4	4	81.5	4	-1E+10	1	-1E+10	1	-1E+10	1	-1E+10	1	-1E+10	1	-1E+10	1
4902663	38	C	08/13/2024	16:04	-126.656	47.531	0	71.60	0	9.0520	0	32.4050	0	25.080	0	70.990	0	230.9	4	80.9	4	-1E+10	1	-1E+10	1	-1E+10	1	-1E+10	1	-1E+10	1	-1E+10	1
4902663	38	C	08/13/2024	16:04	-126.656	47.531	0	72.90	0	8.9690	0	32.4290	0	25.112	0	72.279	0	228.7	4	79.9	4	-1E+10	1	-1E+10	1	-1E+10	1	-1E+10	1	-1E+10	1	-1E+10	1
4902663	38	C	08/13/2024	16:04	-126.656	47.531	0	74.20	0	8.8810	0	32.4580	0	25.148	0	73.567	0	226.5	4	79.0	4	-1E+10	1	-1E+10	1	-1E+10	1	-1E+10	1	-1E+10	1	-1E+10	1
4902663	38	C	08/13/2024	16:04	-126.656	47.531	0	75.00	0	8.8530	0	32.4660	0	25.159	0	74.360	0	225.3	4	78.6	4	-1E+10	1	-1E+10	1	-1E+10	1	-1E+10	1	-1E+10	1	-1E+10	1
4902663	38	C	08/13/2024	16:04	-126.656	47.531	0	75.70	0	8.8310	0	32.4720	0	25.167	0	75.054	0	223.9	4	78.1	4	-1E+10	1	-1E+10	1	-1E+10	1	-1E+10	1	-1E+10	1	-1E+10	1
4902663	38	C	08/13/2024	16:04	-126.656	47.531	0	76.70	0	8.6780	0	32.4940	0	25.207	0	76.046	0	221.7	4	77.0	4	-1E+10	1	-1E+10	1	-1E+10	1	-1E+10	1	-1E+10	1	-1E+10	1
4902663	38	C	08/13/2024	16:04	-126.656	47.531	0	77.80	0	8.5760	0	32.5040	0	25.231	0	77.136	0	218.3	4	75.7	4	-1E+10	1	-1E+10	1	-1E+10	1	-1E+10	1	-1E+10	1	-1E+10	1
4902663	38	C	08/13/2024	16:04	-126.656	47.531	0	79.10	0	8.5510	0	32.5450	0	25.266	0	78.425	0	214.3	4	74.3	4	-1E+10	1	-1E+10	1	-1E+10	1	-1E+10	1	-1E+10	1	-1E+10	1
4902663	38	C	08/13/2024	16:04	-126.656	47.531	0	80.00	0	8.5410	0	32.5630	0	25.282	0	79.317	0	211.0	4	73.1	4	-1E+10	1	-1E+10	1	-1E+10	1	-1E+10	1	-1E+10	1	-1E+10	1
4902663	38	C	08/13/2024	16:04	-126.656	47.531	0	81.00	0	8.5400	0	32.5970	0	25.309	0	80.308	0	208.0	4	72.1	4	-1E+10	1	-1E+10	1	-1E+10	1	-1E+10	1	-1E+10	1	-1E+10	1
4902663	38	C	08/13/2024	16:04	-126.656	47.531	0	82.10	0	8.5250	0	32.6280	0	25.335	0	81.398	0	205.6	4	71.3	4	-1E+10	1	-1E+10	1	-1E+10	1	-1E+10	1	-1E+10	1	-1E+10	1
4902663	38	C	08/13/2024	16:04	-126.656	47.531	0	82.90	0	8.5080	0	32.6370	0	25.345	0	82.191	0	209.5	4	72.6	4	-1E+10	1	-1E+10	1	-1E+10	1	-1E+10	1	-1E+10	1	-1E+10	1
4902663	38	C	08/13/2024	16:04	-126.656	47.531	0	83.70	0	8.4970	0	32.6670	0	25.370	0	82.984	0	208.3	4	72.2	4	-1E+10	1	-1E+10	1	-1E+10	1	-1E+10	1	-1E+10	1	-1E+10	1
4902663	38	C	08/13/2024	16:04	-126.656	47.531	0	84.90	0	8.4700	0	32.6830	0	25.387	0	84.174	0	206.2	4	71.4	4	-1E+10	1	-1E+10	1	-1E+10	1	-1E+10	1	-1E+10	1	-1E+10	1
4902663	38	C	08/13/2024	16:04	-126.656	47.531	0	86.10	0	8.4690	0	32.6950	0	25.396	0	85.363	0	204.2	4	70.7	4	-1E+10	1	-1E+10	1	-1E+10	1	-1E+10	1	-1E+10	1	-1E+10	1
4902663	38	C	08/13/2024	16:04	-126.656	47.531	0	87.00	0	8.3690	0	32.7420	0	25.448	0	86.255	0	202.3	4	69.9	4	-1E+10	1	-1E+10	1	-1E+10	1	-1E+10	1	-1E+10	1	-1E+10	1
4902663	38	C	08/13/2024	16:04	-126.656	47.531	0	87.90	0	8.2110	0	32.7640	0	25.489	0	87.148	0	200.3	4	69.0	4	-1E+10	1	-1E+10	1	-1E+10	1	-1E+10	1	-1E+10	1	-1E+10	1
4902663	38	C	08/13/2024	16:04	-126.656	47.531	0	88.70	0	8.1970	0	32.8090	0	25.526	0	87.941	0	198.3	4	68.3	4	-1E+10	1	-1E+10	1	-1E+10	1	-1E+10	1	-1E+10	1	-1E+10	1
4902663	38	C	08/13/2024	16:04	-126.656	47.531	0	89.60	0	8.2110	0	32.8550	0	25.560	0	88.833	0	196.0	4	67.6	4	-1E+10	1	-1E+10	1	-1E+10	1	-1E+10	1	-1E+10	1	-1E+10	1
4902663	38	C	08/13/2024	16:04	-126.656	47.531	0	90.50	0	8.1660	0	32.8640	0	25.574	0	89.725	0	194.2	4	66.9	4	-1E+10	1	-1E+10	1	-1E+10	1	-1E+10	1	-1E+10	1	-1E+10	1
4902663	38	C	08/13/2024	16:04	-126.656	47.531	0	91.90	0	8.1510	0	32.8820	0	25.590	0	91.112	0	191.4	4	65.9	4	-1E+10	1	-1E+10	1	-1E+10	1	-1E+10	1	-1E+10	1	-1E+10	1
4902663	38	C	08/13/2024	16:04	-126.656	47.531	0	93.30	0	8.0970	0	32.9180	0	25.626	0	92.500	0	188.2	4	64.8	4	-1E+10	1	-1E+10	1	-1E+10	1	-1E+10	1	-1E+10	1	-1E+10	1
4902663	38	C	08/13/2024	16:04	-126.656	47.531	0	94.20	0	8.1210	0	32.9510	0	25.649	0	93.392	0	186.3	4	64.1	4	-1E+10	1	-1E+10	1	-1E+10	1	-1E+10	1	-1E+10	1	-1E+10	1
4902663	38	C	08/13/2024	16:04	-126.656	47.531	0	95.10	0	8.1380	0	32.9900	0	25.677	0	94.284	0	184.6	4	63.6	4	-1E+10	1	-1E+10	1	-1E+10	1	-1E+10	1	-1E+10	1	-1E+10	1
4902663	38	C	08/13/2024	16:04	-126.656	47.531	0	96.10	0	8.1250	0	33.0300	0	25.710	0	95.275	0	183.5	4	63.2	4	-1E+10	1	-1E+10	1	-1E+10	1	-1E+10	1	-1E+10	1	-1E+10	1
4902663	38	C	08/13/2024	16:04	-126.656	47.531	0	97.00	0	8.1270	0	33.0380	0	25.716	0	96.168	0	182.4	4	62.9	4	-1E+10	1	-1E+10	1	-1E+10	1	-1E+10	1	-1E+10	1	-1E+10	1
4902663	38	C	08/13/2024	16:04	-126.656	47.531	0	98.00	0	8.1480	0	33.0590	0	25.730	0	97.159	0	181.7	4	62.7	4	-1E+10	1	-1E+10	1	-1E+10	1	-1E+10	1	-1E+10	1	-1E+10	1
4902663	38	C	08/13/2024	16:04	-126.656	47.531	0	98.90	0	8.1520	0	33.0720	0	25.739	0	98.051	0	181.5	4	62.6	4	-1E+10	1	-1E+10	1	-1E+10	1	-1E+10	1	-1E+10	1	-1E+10	1
4902663	38	C	08/13/2024	16:04	-126.656	47.531	0	99.90	0	8.1400	0	33.0910	0	25.756	0	99.042	0	181.5	4	62.6	4	-1E+10	1	-1E+10	1	-1E+10	1	-1E+10	1	-1E+10	1	-1E+10	1
4902663	38	C	08/13/2024	16:04	-126.656	47.531	0	100.80	0	8.1120	0	33.1000	0	25.767	0	99.934	0	181.5	4	62.5	4	-1E+10	1	-1E+10	1	-1E+10	1	-1E+10	1	-1E+10	1	-1E+10	1
4902663	38	C	08/13/2024	16:04	-126.656	47.531	0	101.70	0	7.9040	0	33.1250	0	25.817	0	100.826	0	180.8	4	62.0	4	-1E+10	1	-1E+10	1	-1E+10	1	-1E+10	1	-1E+10	1	-1E+10	1
4902663	38	C	08/13/2024	16:04	-126.656	47.531	0	102.60	0	7.8660	0	33.1290	0	25.826	0	101.718	0	179.4	4	61.5	4	-1E+10	1	-1E+10	1	-1E+10	1	-1E+10	1	-1E+10	1	-1E+10	1
4902663	38	C	08/13/2024	16:04	-126.656	47.531	0	103.90	0	7.8660	0	33.1740	0	25.861	0	103.007	0	177.5	4	60.9	4	-1E+10	1	-1E+10	1	-1E+10	1	-1E+10	1	-1E+10	1	-1E+10	1
4902663	38	C	08/13/2024	16:04	-126.656	47.531	0	105.20	0	7.8350	0	33.1920	0	25.880	0	104.295	0	175.4	4	60.1	4	-1E+10	1	-1E+10	1	-1E+10	1	-1E+10	1	-1E+10	1	-1E+10	1
4902663	38	C	08/13/2024	16:04	-126.656	47.531	0	106.10	0	7.8290	0	33.1980	0	25.885	0	105.187	0	173.6	4	59.5	4	-1E+10	1	-1E+10	1	-1E+10	1	-1E+10	1	-1E+10	1	-1E+10	1
4902663	38	C	08/13/2024	16:04	-126.656	47.531	0	107.00	0	7.8220	0	33.2120	0	25.897	0	106.079	0	171.6	4	58.8	4	-1E+10	1	-1E+10	1	-1E+10	1	-1E+10	1	-1E+10	1	-1E+10	1
4902663	38	C	08/13/2024	16:04	-126.656	47.531	0	107.90	0	7.8160	0	33.2220	0	25.906	0	106.971	0	169.7	4	58.1	4	-1E+10	1	-1E+10	1	-1E+10	1	-1E+10	1	-1E+10	1	-1E+10	1
4902663	38	C	08/13/2024	16:04	-126.656	47.531	0	108.80	0	7.7990	0	33.2480	0	25.929	0	107.863	0	167.8	4	57.5	4	-1E+10	1	-1E+10	1	-1E+10	1	-1E+10	1	-1E+10	1	-1E+10	1
4902663	38	C	08/13/2024	16:04	-126.656	47.531	0	109.80	0	7.8100	0	33.2910	0	25.961	0	108.854	0	166.3	4	57.0	4	-1E+10	1	-1E+10	1	-1E+10	1	-1E+10	1	-1E+10	1	-1E+10	1
4902663	38	C	08/13/2024	16:04	-126.656	47.531	0	110.70	0	7.8700	0	33.3070	0	25.965	0	109.746	0	165.2	4	56.7	4	-1E+10	1	-1E+10	1	-1E+10	1	-1E+10	1	-1E+10	1	-1E+10	1
4902663	38	C	08/13/2024	16:04	-126.656	47.531	0	111.70	0	7.9090	0	33.3190	0	25.969	0	110.737	0	164.6	4	56.5	4	-1E+10	1	-1E+10	1	-1E+10	1	-1E+10	1	-1E+10	1	-1E+10	1
4902663	38	C	08/13/2024	16:04	-126.656	47.531	0	112.60	0	7.8800	0	33.3230	0	25.976	0	111.629	0	164.0	4	56.3	4	-1E+10	1	-1E+10	1	-1E+10	1	-1E+10	1	-1E+10	1	-1E+10	1
4902663	38	C	08/13/2024	16:04	-126.656	47.531	0	113.50	0	7.8830	0	33.3690	0	26.012	0	112.521	0	163.6	4	56.2	4	-1E+10	1	-1E+10	1	-1E+10	1	-1E+10	1	-1E+10	1	-1E+10	1
4902663	38	C	08/13/2024	16:04	-126.656	47.531	0	114.90	0	7.7180	0	33.3700	0	26.037	0	113.909	0	161.9	4	55.4	4	-1E+10	1	-1E+10	1	-1E+10	1	-1E+10	1	-1E+10	1	-1E+10	1
4902663	38	C	08/13/2024	16:04	-126.656	47.531	0	116.30	0	7.6500	0	33.4010	0	26.071	0	115.297	0	159.7	4	54.6	4	-1E+10	1	-1E+10	1	-1E+10	1	-1E+10	1	-1E+10	1	-1E+10	1
4902663	38	C	08/13/2024	16:04	-126.656	47.531	0	117.30	0	7.6210	0	33.4380	0	26.104	0	116.288	0	158.6	4	54.2	4	-1E+10	1	-1E+10	1	-1E+10	1	-1E+10	1	-1E+10	1	-1E+10	1
4902663	38	C	08/13/2024	16:04	-126.656	47.531	0	118.00	0	7.6350	0	33.4480	0	26.110	0	116.981	0	157.6	4	53.9	4	-1E+10	1	-1E+10	1	-1E+10	1	-1E+10	1	-1E+10	1	-1E+10	1
4902663	38	C	08/13/2024	16:04	-126.656	47.531	0	119.00	0	7.6400	0	33.4690	0	26.126	0	117.972	0	156.1	4	53.4	4	-1E+10	1	-1E+10	1	-1E+10	1	-1E+10	1	-1E+10	1	-1E+10	1
4902663	38	C	08/13/2024	16:04	-126.656	47.531	0	120.10	0	7.6360	0	33.4760	0	26.132	0	119.063	0	154.2	4	52.7	4	-1E+10	1	-1E+10	1	-1E+10	1	-1E+10	1	-1E+10	1	-1E+10	1
4902663	38	C	08/13/2024	16:04	-126.656	47.531	0	120.90	0	7.6430	0	33.4840	0	26.137	0	119.856	0	153.0	4	52.3	4	-1E+10	1	-1E+10	1	-1E+10	1	-1E+10	1	-1E+10	1	-1E+10	1
4902663	38	C	08/13/2024	16:04	-126.656	47.531	0	121.90	0	7.6630	0	33.5100	0	26.155	0	120.847	0	151.3	4	51.8	4	-1E+10	1	-1E+10	1	-1E+10	1	-1E+10	1	-1E+10	1	-1E+10	1
4902663	38	C	08/13/2024	16:04	-126.656	47.531	0	123.10	0	7.6430	0	33.5160	0	26.162	0	122.036	0	149.2	4	51.0	4	-1E+10	1	-1E+10	1	-1E+10	1	-1E+10	1	-1E+10	1	-1E+10	1
4902663	38	C	08/13/2024	16:04	-126.656	47.531	0	123.90	0	7.6440	0	33.5160	0	26.162	0	122.829	0	147.4	4	50.4	4	-1E+10	1	-1E+10	1	-1E+10	1	-1E+10	1	-1E+10	1	-1E+10	1
4902663	38	C	08/13/2024	16:04	-126.656	47.531	0	124.70	0	7.6550	0	33.5240	0	26.167	0	123.622	0	145.3	4	49.7	4	-1E+10	1	-1E+10	1	-1E+10	1	-1E+10	1	-1E+10	1	-1E+10	1
4902663	38	C	08/13/2024	16:04	-126.656	47.531	0	125.90	0	7.6980	0	33.5180	0	26.156	0	124.811	0	142.6	4	48.8	4	-1E+10	1	-1E+10	1	-1E+10	1	-1E+10	1	-1E+10	1	-1E+10	1
4902663	38	C	08/13/2024	16:04	-126.656	47.531	0	127.10	0	7.7410	0	33.5170	0	26.149	0	126.000	0	140.4	4	48.1	4	-1E+10	1	-1E+10	1	-1E+10	1	-1E+10	1	-1E+10	1	-1E+10	1
4902663	38	C	08/13/2024	16:04	-126.656	47.531	0	127.90	0	7.7590	0	33.5530	0	26.175	0	126.793	0	139.2	4	47.8	4	-1E+10	1	-1E+10	1	-1E+10	1	-1E+10	1	-1E+10	1	-1E+10	1
4902663	38	C	08/13/2024	16:04	-126.656	47.531	0	128.80	0	7.8210	0	33.5700	0	26.179	0	127.685	0	138.5	4	47.6	4	-1E+10	1	-1E+10	1	-1E+10	1	-1E+10	1	-1E+10	1	-1E+10	1
4902663	38	C	08/13/2024	16:04	-126.656	47.531	0	130.00	0	7.8450	0	33.5900	0	26.191	0	128.874	0	137.9	4	47.4	4	-1E+10	1	-1E+10	1	-1E+10	1	-1E+10	1	-1E+10	1	-1E+10	1
4902663	38	C	08/13/2024	16:04	-126.656	47.531	0	131.30	0	7.8260	0	33.6000	0	26.202	0	130.162	0	137.2	4	47.1	4	-1E+10	1	-1E+10	1	-1E+10	1	-1E+10	1	-1E+10	1	-1E+10	1
4902663	38	C	08/13/2024	16:04	-126.656	47.531	0	132.20	0	7.8170	0	33.6110	0	26.212	0	131.054	0	136.7	4	47.0	4	-1E+10	1	-1E+10	1	-1E+10	1	-1E+10	1	-1E+10	1	-1E+10	1
4902663	38	C	08/13/2024	16:04	-126.656	47.531	0	133.00	0	7.8110	0	33.6130	0	26.214	0	131.847	0	136.2	4	46.8	4	-1E+10	1	-1E+10	1	-1E+10	1	-1E+10	1	-1E+10	1	-1E+10	1
4902663	38	C	08/13/2024	16:04	-126.656	47.531	0	133.90	0	7.8060	0	33.6150	0	26.217	0	132.739	0	135.6	4	46.6	4	-1E+10	1	-1E+10	1	-1E+10	1	-1E+10	1	-1E+10	1	-1E+10	1
4902663	38	C	08/13/2024	16:04	-126.656	47.531	0	134.70	0	7.8030	0	33.6140	0	26.216	0	133.532	0	135.0	4	46.4	4	-1E+10	1	-1E+10	1	-1E+10	1	-1E+10	1	-1E+10	1	-1E+10	1
4902663	38	C	08/13/2024	16:04	-126.656	47.531	0	135.60	0	7.7730	0	33.6270	0	26.231	0	134.424	0	134.3	4	46.1	4	-1E+10	1	-1E+10	1	-1E+10	1	-1E+10	1	-1E+10	1	-1E+10	1
4902663	38	C	08/13/2024	16:04	-126.656	47.531	0	136.90	0	7.7380	0	33.6370	0	26.244	0	135.712	0	132.9	4	45.6	4	-1E+10	1	-1E+10	1	-1E+10	1	-1E+10	1	-1E+10	1	-1E+10	1
4902663	38	C	08/13/2024	16:04	-126.656	47.531	0	138.30	0	7.6540	0	33.6590	0	26.273	0	137.099	0	130.9	4	44.8	4	-1E+10	1	-1E+10	1	-1E+10	1	-1E+10	1	-1E+10	1	-1E+10	1
4902663	38	C	08/13/2024	16:04	-126.656	47.531	0	139.30	0	7.6600	0	33.6380	0	26.256	0	138.090	0	129.3	4	44.3	4	-1E+10	1	-1E+10	1	-1E+10	1	-1E+10	1	-1E+10	1	-1E+10	1
4902663	38	C	08/13/2024	16:04	-126.656	47.531	0	140.20	0	7.7050	0	33.6730	0	26.277	0	138.982	0	128.0	4	43.9	4	-1E+10	1	-1E+10	1	-1E+10	1	-1E+10	1	-1E+10	1	-1E+10	1
4902663	38	C	08/13/2024	16:04	-126.656	47.531	0	141.10	0	7.7060	0	33.6860	0	26.287	0	139.874	0	127.0	4	43.5	4	-1E+10	1	-1E+10	1	-1E+10	1	-1E+10	1	-1E+10	1	-1E+10	1
4902663	38	C	08/13/2024	16:04	-126.656	47.531	0	142.10	0	7.7080	0	33.6970	0	26.295	0	140.865	0	126.2	4	43.3	4	-1E+10	1	-1E+10	1	-1E+10	1	-1E+10	1	-1E+10	1	-1E+10	1
4902663	38	C	08/13/2024	16:04	-126.656	47.531	0	143.00	0	7.7160	0	33.7190	0	26.311	0	141.757	0	125.7	4	43.1	4	-1E+10	1	-1E+10	1	-1E+10	1	-1E+10	1	-1E+10	1	-1E+10	1
4902663	38	C	08/13/2024	16:04	-126.656	47.531	0	143.90	0	7.7060	0	33.7300	0	26.322	0	142.649	0	125.3	4	43.0	4	-1E+10	1	-1E+10	1	-1E+10	1	-1E+10	1	-1E+10	1	-1E+10	1
4902663	38	C	08/13/2024	16:04	-126.656	47.531	0	144.90	0	7.6870	0	33.7380	0	26.331	0	143.640	0	125.0	4	42.9	4	-1E+10	1	-1E+10	1	-1E+10	1	-1E+10	1	-1E+10	1	-1E+10	1
4902663	38	C	08/13/2024	16:04	-126.656	47.531	0	145.80	0	7.6510	0	33.7490	0	26.344	0	144.532	0	124.7	4	42.7	4	-1E+10	1	-1E+10	1	-1E+10	1	-1E+10	1	-1E+10	1	-1E+10	1
4902663	38	C	08/13/2024	16:04	-126.656	47.531	0	146.80	0	7.6070	0	33.7640	0	26.363	0	145.523	0	124.4	4	42.6	4	-1E+10	1	-1E+10	1	-1E+10	1	-1E+10	1	-1E+10	1	-1E+10	1
4902663	38	C	08/13/2024	16:04	-126.656	47.531	0	147.70	0	7.5980	0	33.7650	0	26.365	0	146.414	0	124.0	4	42.5	4	-1E+10	1	-1E+10	1	-1E+10	1	-1E+10	1	-1E+10	1	-1E+10	1
4902663	38	C	08/13/2024	16:04	-126.656	47.531	0	148.70	0	7.5900	0	33.7670	0	26.367	0	147.405	0	123.5	4	42.3	4	-1E+10	1	-1E+10	1	-1E+10	1	-1E+10	1	-1E+10	1	-1E+10	1
4902663	38	C	08/13/2024	16:04	-126.656	47.531	0	149.70	0	7.5860	0	33.7680	0	26.369	0	148.396	0	123.0	4	42.1	4	-1E+10	1	-1E+10	1	-1E+10	1	-1E+10	1	-1E+10	1	-1E+10	1
4902663	38	C	08/13/2024	16:04	-126.656	47.531	0	150.70	0	7.5820	0	33.7720	0	26.372	0	149.387	0	122.5	4	41.9	4	-1E+10	1	-1E+10	1	-1E+10	1	-1E+10	1	-1E+10	1	-1E+10	1
4902663	38	C	08/13/2024	16:04	-126.656	47.531	0	151.70	0	7.5790	0	33.7750	0	26.375	0	150.378	0	122.1	4	41.8	4	-1E+10	1	-1E+10	1	-1E+10	1	-1E+10	1	-1E+10	1	-1E+10	1
4902663	38	C	08/13/2024	16:04	-126.656	47.531	0	152.70	0	7.5770	0	33.7740	0	26.375	0	151.369	0	121.6	4	41.6	4	-1E+10	1	-1E+10	1	-1E+10	1	-1E+10	1	-1E+10	1	-1E+10	1
4902663	38	C	08/13/2024	16:04	-126.656	47.531	0	153.70	0	7.5700	0	33.7780	0	26.379	0	152.360	0	121.0	4	41.4	4	-1E+10	1	-1E+10	1	-1E+10	1	-1E+10	1	-1E+10	1	-1E+10	1
4902663	38	C	08/13/2024	16:04	-126.656	47.531	0	154.60	0	7.5400	0	33.7860	0	26.389	0	153.252	0	120.4	4	41.2	4	-1E+10	1	-1E+10	1	-1E+10	1	-1E+10	1	-1E+10	1	-1E+10	1
4902663	38	C	08/13/2024	16:04	-126.656	47.531	0	155.60	0	7.5170	0	33.7900	0	26.396	0	154.243	0	119.6	4	40.9	4	-1E+10	1	-1E+10	1	-1E+10	1	-1E+10	1	-1E+10	1	-1E+10	1
4902663	38	C	08/13/2024	16:04	-126.656	47.531	0	156.60	0	7.5030	0	33.7960	0	26.403	0	155.234	0	119.0	4	40.7	4	-1E+10	1	-1E+10	1	-1E+10	1	-1E+10	1	-1E+10	1	-1E+10	1
4902663	38	C	08/13/2024	16:04	-126.656	47.531	0	157.60	0	7.4970	0	33.8040	0	26.410	0	156.225	0	118.5	4	40.5	4	-1E+10	1	-1E+10	1	-1E+10	1	-1E+10	1	-1E+10	1	-1E+10	1
4902663	38	C	08/13/2024	16:04	-126.656	47.531	0	158.70	0	7.4920	0	33.8120	0	26.417	0	157.315	0	118.2	4	40.4	4	-1E+10	1	-1E+10	1	-1E+10	1	-1E+10	1	-1E+10	1	-1E+10	1
4902663	38	C	08/13/2024	16:04	-126.656	47.531	0	159.70	0	7.4730	0	33.8220	0	26.427	0	158.305	0	118.0	4	40.3	4	-1E+10	1	-1E+10	1	-1E+10	1	-1E+10	1	-1E+10	1	-1E+10	1
4902663	38	C	08/13/2024	16:04	-126.656	47.531	0	160.70	0	7.4660	0	33.8220	0	26.428	0	159.296	0	117.8	4	40.2	4	-1E+10	1	-1E+10	1	-1E+10	1	-1E+10	1	-1E+10	1	-1E+10	1
4902663	38	C	08/13/2024	16:04	-126.656	47.531	0	161.80	0	7.4580	0	33.8210	0	26.429	0	160.386	0	117.5	4	40.1	4	-1E+10	1	-1E+10	1	-1E+10	1	-1E+10	1	-1E+10	1	-1E+10	1
4902663	38	C	08/13/2024	16:04	-126.656	47.531	0	162.80	0	7.4550	0	33.8210	0	26.429	0	161.377	0	117.2	4	40.0	4	-1E+10	1	-1E+10	1	-1E+10	1	-1E+10	1	-1E+10	1	-1E+10	1
4902663	38	C	08/13/2024	16:04	-126.656	47.531	0	163.80	0	7.4380	0	33.8250	0	26.435	0	162.368	0	116.8	4	39.9	4	-1E+10	1	-1E+10	1	-1E+10	1	-1E+10	1	-1E+10	1	-1E+10	1
4902663	38	C	08/13/2024	16:04	-126.656	47.531	0	164.80	0	7.4290	0	33.8240	0	26.435	0	163.359	0	116.2	4	39.7	4	-1E+10	1	-1E+10	1	-1E+10	1	-1E+10	1	-1E+10	1	-1E+10	1
4902663	38	C	08/13/2024	16:04	-126.656	47.531	0	165.80	0	7.3910	0	33.8230	0	26.440	0	164.350	0	115.5	4	39.4	4	-1E+10	1	-1E+10	1	-1E+10	1	-1E+10	1	-1E+10	1	-1E+10	1
4902663	38	C	08/13/2024	16:04	-126.656	47.531	0	166.80	0	7.3760	0	33.8360	0	26.452	0	165.341	0	115.0	4	39.2	4	-1E+10	1	-1E+10	1	-1E+10	1	-1E+10	1	-1E+10	1	-1E+10	1
4902663	38	C	08/13/2024	16:04	-126.656	47.531	0	167.90	0	7.3570	0	33.8390	0	26.457	0	166.431	0	114.7	4	39.1	4	-1E+10	1	-1E+10	1	-1E+10	1	-1E+10	1	-1E+10	1	-1E+10	1
4902663	38	C	08/13/2024	16:04	-126.656	47.531	0	168.90	0	7.3340	0	33.8390	0	26.460	0	167.421	0	114.3	4	38.9	4	-1E+10	1	-1E+10	1	-1E+10	1	-1E+10	1	-1E+10	1	-1E+10	1
4902663	38	C	08/13/2024	16:04	-126.656	47.531	0	169.90	0	7.3170	0	33.8430	0	26.466	0	168.412	0	113.8	4	38.7	4	-1E+10	1	-1E+10	1	-1E+10	1	-1E+10	1	-1E+10	1	-1E+10	1
4902663	38	C	08/13/2024	16:04	-126.656	47.531	0	170.90	0	7.2920	0	33.8440	0	26.470	0	169.403	0	113.4	4	38.6	4	-1E+10	1	-1E+10	1	-1E+10	1	-1E+10	1	-1E+10	1	-1E+10	1
4902663	38	C	08/13/2024	16:04	-126.656	47.531	0	171.90	0	7.2830	0	33.8460	0	26.473	0	170.394	0	112.9	4	38.4	4	-1E+10	1	-1E+10	1	-1E+10	1	-1E+10	1	-1E+10	1	-1E+10	1
4902663	38	C	08/13/2024	16:04	-126.656	47.531	0	172.90	0	7.2720	0	33.8490	0	26.477	0	171.385	0	112.6	4	38.3	4	-1E+10	1	-1E+10	1	-1E+10	1	-1E+10	1	-1E+10	1	-1E+10	1
4902663	38	C	08/13/2024	16:04	-126.656	47.531	0	173.90	0	7.2480	0	33.8540	0	26.484	0	172.376	0	112.4	4	38.2	4	-1E+10	1	-1E+10	1	-1E+10	1	-1E+10	1	-1E+10	1	-1E+10	1
4902663	38	C	08/13/2024	16:04	-126.656	47.531	0	174.90	0	7.2380	0	33.8540	0	26.486	0	173.366	0	112.1	4	38.1	4	-1E+10	1	-1E+10	1	-1E+10	1	-1E+10	1	-1E+10	1	-1E+10	1
4902663	38	C	08/13/2024	16:04	-126.656	47.531	0	175.90	0	7.2150	0	33.8570	0	26.491	0	174.357	0	111.8	4	38.0	4	-1E+10	1	-1E+10	1	-1E+10	1	-1E+10	1	-1E+10	1	-1E+10	1
4902663	38	C	08/13/2024	16:04	-126.656	47.531	0	177.00	0	7.1840	0	33.8570	0	26.496	0	175.447	0	111.4	4	37.8	4	-1E+10	1	-1E+10	1	-1E+10	1	-1E+10	1	-1E+10	1	-1E+10	1
4902663	38	C	08/13/2024	16:04	-126.656	47.531	0	178.00	0	7.1730	0	33.8560	0	26.496	0	176.438	0	111.0	4	37.7	4	-1E+10	1	-1E+10	1	-1E+10	1	-1E+10	1	-1E+10	1	-1E+10	1
4902663	38	C	08/13/2024	16:04	-126.656	47.531	0	179.00	0	7.1540	0	33.8580	0	26.501	0	177.429	0	110.6	4	37.5	4	-1E+10	1	-1E+10	1	-1E+10	1	-1E+10	1	-1E+10	1	-1E+10	1
4902663	38	C	08/13/2024	16:04	-126.656	47.531	0	180.10	0	7.1290	0	33.8630	0	26.508	0	178.519	0	110.1	4	37.3	4	-1E+10	1	-1E+10	1	-1E+10	1	-1E+10	1	-1E+10	1	-1E+10	1
4902663	38	C	08/13/2024	16:04	-126.656	47.531	0	181.10	0	7.1050	0	33.8620	0	26.510	0	179.509	0	109.7	4	37.2	4	-1E+10	1	-1E+10	1	-1E+10	1	-1E+10	1	-1E+10	1	-1E+10	1
4902663	38	C	08/13/2024	16:04	-126.656	47.531	0	182.20	0	7.0820	0	33.8670	0	26.518	0	180.599	0	109.3	4	37.0	4	-1E+10	1	-1E+10	1	-1E+10	1	-1E+10	1	-1E+10	1	-1E+10	1
4902663	38	C	08/13/2024	16:04	-126.656	47.531	0	183.20	0	7.0700	0	33.8670	0	26.519	0	181.590	0	108.9	4	36.9	4	-1E+10	1	-1E+10	1	-1E+10	1	-1E+10	1	-1E+10	1	-1E+10	1
4902663	38	C	08/13/2024	16:04	-126.656	47.531	0	184.20	0	7.0610	0	33.8690	0	26.522	0	182.581	0	108.6	4	36.7	4	-1E+10	1	-1E+10	1	-1E+10	1	-1E+10	1	-1E+10	1	-1E+10	1
4902663	38	C	08/13/2024	16:04	-126.656	47.531	0	185.30	0	7.0490	0	33.8690	0	26.524	0	183.671	0	108.2	4	36.6	4	-1E+10	1	-1E+10	1	-1E+10	1	-1E+10	1	-1E+10	1	-1E+10	1
4902663	38	C	08/13/2024	16:04	-126.656	47.531	0	186.30	0	7.0410	0	33.8690	0	26.525	0	184.661	0	107.9	4	36.5	4	-1E+10	1	-1E+10	1	-1E+10	1	-1E+10	1	-1E+10	1	-1E+10	1
4902663	38	C	08/13/2024	16:04	-126.656	47.531	0	187.40	0	7.0380	0	33.8720	0	26.528	0	185.751	0	107.5	4	36.4	4	-1E+10	1	-1E+10	1	-1E+10	1	-1E+10	1	-1E+10	1	-1E+10	1
4902663	38	C	08/13/2024	16:04	-126.656	47.531	0	188.40	0	7.0370	0	33.8720	0	26.528	0	186.742	0	107.1	4	36.2	4	-1E+10	1	-1E+10	1	-1E+10	1	-1E+10	1	-1E+10	1	-1E+10	1
4902663	38	C	08/13/2024	16:04	-126.656	47.531	0	189.50	0	7.0330	0	33.8730	0	26.529	0	187.832	0	106.6	4	36.1	4	-1E+10	1	-1E+10	1	-1E+10	1	-1E+10	1	-1E+10	1	-1E+10	1
4902663	38	C	08/13/2024	16:04	-126.656	47.531	0	190.50	0	7.0220	0	33.8730	0	26.531	0	188.822	0	106.1	4	35.9	4	-1E+10	1	-1E+10	1	-1E+10	1	-1E+10	1	-1E+10	1	-1E+10	1
4902663	38	C	08/13/2024	16:04	-126.656	47.531	0	191.50	0	7.0150	0	33.8750	0	26.533	0	189.813	0	105.7	4	35.7	4	-1E+10	1	-1E+10	1	-1E+10	1	-1E+10	1	-1E+10	1	-1E+10	1
4902663	38	C	08/13/2024	16:04	-126.656	47.531	0	192.60	0	7.0050	0	33.8760	0	26.535	0	190.903	0	105.2	4	35.6	4	-1E+10	1	-1E+10	1	-1E+10	1	-1E+10	1	-1E+10	1	-1E+10	1
4902663	38	C	08/13/2024	16:04	-126.656	47.531	0	193.70	0	7.0000	0	33.8770	0	26.537	0	191.993	0	104.7	4	35.4	4	-1E+10	1	-1E+10	1	-1E+10	1	-1E+10	1	-1E+10	1	-1E+10	1
4902663	38	C	08/13/2024	16:04	-126.656	47.531	0	194.70	0	6.9860	0	33.8820	0	26.543	0	192.983	0	104.3	4	35.2	4	-1E+10	1	-1E+10	1	-1E+10	1	-1E+10	1	-1E+10	1	-1E+10	1
4902663	38	C	08/13/2024	16:04	-126.656	47.531	0	195.80	0	6.9670	0	33.8860	0	26.548	0	194.073	0	104.0	4	35.1	4	-1E+10	1	-1E+10	1	-1E+10	1	-1E+10	1	-1E+10	1	-1E+10	1
4902663	38	C	08/13/2024	16:04	-126.656	47.531	0	196.90	0	6.9490	0	33.8850	0	26.550	0	195.163	0	103.7	4	35.0	4	-1E+10	1	-1E+10	1	-1E+10	1	-1E+10	1	-1E+10	1	-1E+10	1
4902663	38	C	08/13/2024	16:04	-126.656	47.531	0	197.90	0	6.9480	0	33.8850	0	26.550	0	196.154	0	103.4	4	34.9	4	-1E+10	1	-1E+10	1	-1E+10	1	-1E+10	1	-1E+10	1	-1E+10	1
4902663	38	C	08/13/2024	16:04	-126.656	47.531	0	199.00	0	6.9490	0	33.8850	0	26.550	0	197.244	0	103.1	4	34.8	4	-1E+10	1	-1E+10	1	-1E+10	1	-1E+10	1	-1E+10	1	-1E+10	1
4902663	38	C	08/13/2024	16:04	-126.656	47.531	0	200.00	0	6.9490	0	33.8840	0	26.549	0	198.234	0	102.6	4	34.6	4	-1E+10	1	-1E+10	1	-1E+10	1	-1E+10	1	-1E+10	1	-1E+10	1
4902663	38	C	08/13/2024	16:04	-126.656	47.531	0	201.10	0	6.9500	0	33.8840	0	26.549	0	199.324	0	102.1	4	34.5	4	-1E+10	1	-1E+10	1	-1E+10	1	-1E+10	1	-1E+10	1	-1E+10	1
4902663	38	C	08/13/2024	16:04	-126.656	47.531	0	202.20	0	6.9390	0	33.8880	0	26.554	0	200.414	0	101.5	4	34.3	4	-1E+10	1	-1E+10	1	-1E+10	1	-1E+10	1	-1E+10	1	-1E+10	1
4902663	38	C	08/13/2024	16:04	-126.656	47.531	0	203.20	0	6.9300	0	33.8880	0	26.555	0	201.404	0	101.0	4	34.1	4	-1E+10	1	-1E+10	1	-1E+10	1	-1E+10	1	-1E+10	1	-1E+10	1
4902663	38	C	08/13/2024	16:04	-126.656	47.531	0	204.30	0	6.9180	0	33.8890	0	26.558	0	202.494	0	100.6	4	33.9	4	-1E+10	1	-1E+10	1	-1E+10	1	-1E+10	1	-1E+10	1	-1E+10	1
4902663	38	C	08/13/2024	16:04	-126.656	47.531	0	205.30	0	6.9140	0	33.8890	0	26.558	0	203.485	0	100.0	4	33.7	4	-1E+10	1	-1E+10	1	-1E+10	1	-1E+10	1	-1E+10	1	-1E+10	1
4902663	38	C	08/13/2024	16:04	-126.656	47.531	0	206.40	0	6.9070	0	33.8930	0	26.562	0	204.575	0	99.4	4	33.5	4	-1E+10	1	-1E+10	1	-1E+10	1	-1E+10	1	-1E+10	1	-1E+10	1
4902663	38	C	08/13/2024	16:04	-126.656	47.531	0	207.50	0	6.8970	0	33.8920	0	26.563	0	205.664	0	98.6	4	33.3	4	-1E+10	1	-1E+10	1	-1E+10	1	-1E+10	1	-1E+10	1	-1E+10	1
4902663	38	C	08/13/2024	16:04	-126.656	47.531	0	208.50	0	6.8900	0	33.8910	0	26.563	0	206.655	0	97.9	4	33.0	4	-1E+10	1	-1E+10	1	-1E+10	1	-1E+10	1	-1E+10	1	-1E+10	1
4902663	38	C	08/13/2024	16:04	-126.656	47.531	0	209.60	0	6.8780	0	33.8940	0	26.567	0	207.745	0	97.0	4	32.7	4	-1E+10	1	-1E+10	1	-1E+10	1	-1E+10	1	-1E+10	1	-1E+10	1
4902663	38	C	08/13/2024	16:04	-126.656	47.531	0	210.60	0	6.8840	0	33.8930	0	26.565	0	208.735	0	96.2	4	32.4	4	-1E+10	1	-1E+10	1	-1E+10	1	-1E+10	1	-1E+10	1	-1E+10	1
4902663	38	C	08/13/2024	16:04	-126.656	47.531	0	211.70	0	6.8780	0	33.9020	0	26.573	0	209.825	0	95.6	4	32.2	4	-1E+10	1	-1E+10	1	-1E+10	1	-1E+10	1	-1E+10	1	-1E+10	1
4902663	38	C	08/13/2024	16:04	-126.656	47.531	0	212.80	0	6.8700	0	33.9040	0	26.576	0	210.915	0	95.1	4	32.0	4	-1E+10	1	-1E+10	1	-1E+10	1	-1E+10	1	-1E+10	1	-1E+10	1
4902663	38	C	08/13/2024	16:04	-126.656	47.531	0	213.90	0	6.8570	0	33.9050	0	26.578	0	212.004	0	94.6	4	31.9	4	-1E+10	1	-1E+10	1	-1E+10	1	-1E+10	1	-1E+10	1	-1E+10	1
4902663	38	C	08/13/2024	16:04	-126.656	47.531	0	215.00	0	6.8360	0	33.9100	0	26.585	0	213.094	0	94.0	4	31.7	4	-1E+10	1	-1E+10	1	-1E+10	1	-1E+10	1	-1E+10	1	-1E+10	1
4902663	38	C	08/13/2024	16:04	-126.656	47.531	0	216.00	0	6.8230	0	33.9060	0	26.584	0	214.085	0	93.5	4	31.5	4	-1E+10	1	-1E+10	1	-1E+10	1	-1E+10	1	-1E+10	1	-1E+10	1
4902663	38	C	08/13/2024	16:04	-126.656	47.531	0	217.10	0	6.8170	0	33.9110	0	26.589	0	215.174	0	93.1	4	31.3	4	-1E+10	1	-1E+10	1	-1E+10	1	-1E+10	1	-1E+10	1	-1E+10	1
4902663	38	C	08/13/2024	16:04	-126.656	47.531	0	218.20	0	6.7810	0	33.9100	0	26.593	0	216.264	0	92.7	4	31.2	4	-1E+10	1	-1E+10	1	-1E+10	1	-1E+10	1	-1E+10	1	-1E+10	1
4902663	38	C	08/13/2024	16:04	-126.656	47.531	0	219.20	0	6.7650	0	33.9100	0	26.595	0	217.255	0	92.1	4	31.0	4	-1E+10	1	-1E+10	1	-1E+10	1	-1E+10	1	-1E+10	1	-1E+10	1
4902663	38	C	08/13/2024	16:04	-126.656	47.531	0	220.30	0	6.7580	0	33.9110	0	26.597	0	218.344	0	91.6	4	30.8	4	-1E+10	1	-1E+10	1	-1E+10	1	-1E+10	1	-1E+10	1	-1E+10	1
4902663	38	C	08/13/2024	16:04	-126.656	47.531	0	221.30	0	6.7490	0	33.9130	0	26.599	0	219.335	0	91.1	4	30.6	4	-1E+10	1	-1E+10	1	-1E+10	1	-1E+10	1	-1E+10	1	-1E+10	1
4902663	38	C	08/13/2024	16:04	-126.656	47.531	0	222.40	0	6.7540	0	33.9190	0	26.603	0	220.425	0	90.7	4	30.5	4	-1E+10	1	-1E+10	1	-1E+10	1	-1E+10	1	-1E+10	1	-1E+10	1
4902663	38	C	08/13/2024	16:04	-126.656	47.531	0	223.50	0	6.7430	0	33.9190	0	26.605	0	221.514	0	90.5	4	30.4	4	-1E+10	1	-1E+10	1	-1E+10	1	-1E+10	1	-1E+10	1	-1E+10	1
4902663	38	C	08/13/2024	16:04	-126.656	47.531	0	224.50	0	6.7160	0	33.9190	0	26.609	0	222.505	0	90.2	4	30.3	4	-1E+10	1	-1E+10	1	-1E+10	1	-1E+10	1	-1E+10	1	-1E+10	1
4902663	38	C	08/13/2024	16:04	-126.656	47.531	0	225.60	0	6.7000	0	33.9200	0	26.611	0	223.594	0	89.9	4	30.2	4	-1E+10	1	-1E+10	1	-1E+10	1	-1E+10	1	-1E+10	1	-1E+10	1
4902663	38	C	08/13/2024	16:04	-126.656	47.531	0	226.70	0	6.6920	0	33.9220	0	26.614	0	224.684	0	89.6	4	30.1	4	-1E+10	1	-1E+10	1	-1E+10	1	-1E+10	1	-1E+10	1	-1E+10	1
4902663	38	C	08/13/2024	16:04	-126.656	47.531	0	227.80	0	6.6900	0	33.9200	0	26.613	0	225.774	0	89.2	4	30.0	4	-1E+10	1	-1E+10	1	-1E+10	1	-1E+10	1	-1E+10	1	-1E+10	1
4902663	38	C	08/13/2024	16:04	-126.656	47.531	0	228.80	0	6.6860	0	33.9200	0	26.613	0	226.764	0	88.9	4	29.8	4	-1E+10	1	-1E+10	1	-1E+10	1	-1E+10	1	-1E+10	1	-1E+10	1
4902663	38	C	08/13/2024	16:04	-126.656	47.531	0	229.90	0	6.6980	0	33.9220	0	26.613	0	227.854	0	88.7	4	29.8	4	-1E+10	1	-1E+10	1	-1E+10	1	-1E+10	1	-1E+10	1	-1E+10	1
4902663	38	C	08/13/2024	16:04	-126.656	47.531	0	231.00	0	6.6720	0	33.9280	0	26.622	0	228.943	0	88.4	4	29.7	4	-1E+10	1	-1E+10	1	-1E+10	1	-1E+10	1	-1E+10	1	-1E+10	1
4902663	38	C	08/13/2024	16:04	-126.656	47.531	0	232.00	0	6.6560	0	33.9250	0	26.621	0	229.934	0	88.0	4	29.5	4	-1E+10	1	-1E+10	1	-1E+10	1	-1E+10	1	-1E+10	1	-1E+10	1
4902663	38	C	08/13/2024	16:04	-126.656	47.531	0	233.10	0	6.6320	0	33.9220	0	26.622	0	231.024	0	87.7	4	29.4	4	-1E+10	1	-1E+10	1	-1E+10	1	-1E+10	1	-1E+10	1	-1E+10	1
4902663	38	C	08/13/2024	16:04	-126.656	47.531	0	234.20	0	6.5990	0	33.9210	0	26.626	0	232.113	0	87.2	4	29.2	4	-1E+10	1	-1E+10	1	-1E+10	1	-1E+10	1	-1E+10	1	-1E+10	1
4902663	38	C	08/13/2024	16:04	-126.656	47.531	0	235.20	0	6.5850	0	33.9200	0	26.627	0	233.104	0	86.7	4	29.0	4	-1E+10	1	-1E+10	1	-1E+10	1	-1E+10	1	-1E+10	1	-1E+10	1
4902663	38	C	08/13/2024	16:04	-126.656	47.531	0	236.30	0	6.5750	0	33.9200	0	26.628	0	234.193	0	86.3	4	28.9	4	-1E+10	1	-1E+10	1	-1E+10	1	-1E+10	1	-1E+10	1	-1E+10	1
4902663	38	C	08/13/2024	16:04	-126.656	47.531	0	237.40	0	6.5760	0	33.9210	0	26.629	0	235.283	0	85.8	4	28.7	4	-1E+10	1	-1E+10	1	-1E+10	1	-1E+10	1	-1E+10	1	-1E+10	1
4902663	38	C	08/13/2024	16:04	-126.656	47.531	0	238.40	0	6.5440	0	33.9290	0	26.639	0	236.273	0	85.3	4	28.5	4	-1E+10	1	-1E+10	1	-1E+10	1	-1E+10	1	-1E+10	1	-1E+10	1
4902663	38	C	08/13/2024	16:04	-126.656	47.531	0	239.50	0	6.5180	0	33.9230	0	26.638	0	237.363	0	84.5	4	28.3	4	-1E+10	1	-1E+10	1	-1E+10	1	-1E+10	1	-1E+10	1	-1E+10	1
4902663	38	C	08/13/2024	16:04	-126.656	47.531	0	240.50	0	6.5070	0	33.9240	0	26.640	0	238.353	0	83.7	4	28.0	4	-1E+10	1	-1E+10	1	-1E+10	1	-1E+10	1	-1E+10	1	-1E+10	1
4902663	38	C	08/13/2024	16:04	-126.656	47.531	0	241.60	0	6.5040	0	33.9210	0	26.638	0	239.443	0	82.7	4	27.6	4	-1E+10	1	-1E+10	1	-1E+10	1	-1E+10	1	-1E+10	1	-1E+10	1
4902663	38	C	08/13/2024	16:04	-126.656	47.531	0	242.60	0	6.5380	0	33.9370	0	26.646	0	240.433	0	82.0	4	27.4	4	-1E+10	1	-1E+10	1	-1E+10	1	-1E+10	1	-1E+10	1	-1E+10	1
4902663	38	C	08/13/2024	16:04	-126.656	47.531	0	243.70	0	6.5210	0	33.9450	0	26.655	0	241.523	0	81.6	4	27.3	4	-1E+10	1	-1E+10	1	-1E+10	1	-1E+10	1	-1E+10	1	-1E+10	1
4902663	38	C	08/13/2024	16:04	-126.656	47.531	0	244.70	0	6.4970	0	33.9330	0	26.649	0	242.513	0	81.1	4	27.1	4	-1E+10	1	-1E+10	1	-1E+10	1	-1E+10	1	-1E+10	1	-1E+10	1
4902663	38	C	08/13/2024	16:04	-126.656	47.531	0	245.80	0	6.5030	0	33.9320	0	26.647	0	243.603	0	80.5	4	26.9	4	-1E+10	1	-1E+10	1	-1E+10	1	-1E+10	1	-1E+10	1	-1E+10	1
4902663	38	C	08/13/2024	16:04	-126.656	47.531	0	246.90	0	6.5160	0	33.9420	0	26.653	0	244.692	0	80.1	4	26.8	4	-1E+10	1	-1E+10	1	-1E+10	1	-1E+10	1	-1E+10	1	-1E+10	1
4902663	38	C	08/13/2024	16:04	-126.656	47.531	0	247.90	0	6.5040	0	33.9420	0	26.655	0	245.683	0	79.9	4	26.7	4	-1E+10	1	-1E+10	1	-1E+10	1	-1E+10	1	-1E+10	1	-1E+10	1
4902663	38	C	08/13/2024	16:04	-126.656	47.531	0	249.00	0	6.4860	0	33.9420	0	26.657	0	246.772	0	79.5	4	26.6	4	-1E+10	1	-1E+10	1	-1E+10	1	-1E+10	1	-1E+10	1	-1E+10	1
4902663	38	C	08/13/2024	16:04	-126.656	47.531	0	250.00	0	6.4690	0	33.9450	0	26.662	0	247.763	0	79.1	4	26.4	4	-1E+10	1	-1E+10	1	-1E+10	1	-1E+10	1	-1E+10	1	-1E+10	1
4902663	38	C	08/13/2024	16:04	-126.656	47.531	0	251.10	0	6.4450	0	33.9390	0	26.660	0	248.852	0	78.7	4	26.3	4	-1E+10	1	-1E+10	1	-1E+10	1	-1E+10	1	-1E+10	1	-1E+10	1
4902663	38	C	08/13/2024	16:04	-126.656	47.531	0	252.20	0	6.4410	0	33.9440	0	26.665	0	249.942	0	78.4	4	26.2	4	-1E+10	1	-1E+10	1	-1E+10	1	-1E+10	1	-1E+10	1	-1E+10	1
4902663	38	C	08/13/2024	16:04	-126.656	47.531	0	253.20	0	6.4330	0	33.9460	0	26.667	0	250.932	0	78.1	4	26.1	4	-1E+10	1	-1E+10	1	-1E+10	1	-1E+10	1	-1E+10	1	-1E+10	1
4902663	38	C	08/13/2024	16:04	-126.656	47.531	0	254.30	0	6.4220	0	33.9450	0	26.668	0	252.022	0	77.9	4	26.0	4	-1E+10	1	-1E+10	1	-1E+10	1	-1E+10	1	-1E+10	1	-1E+10	1
4902663	38	C	08/13/2024	16:04	-126.656	47.531	0	255.40	0	6.4260	0	33.9480	0	26.670	0	253.111	0	77.8	4	26.0	4	-1E+10	1	-1E+10	1	-1E+10	1	-1E+10	1	-1E+10	1	-1E+10	1
4902663	38	C	08/13/2024	16:04	-126.656	47.531	0	256.40	0	6.4260	0	33.9500	0	26.672	0	254.102	0	77.8	4	26.0	4	-1E+10	1	-1E+10	1	-1E+10	1	-1E+10	1	-1E+10	1	-1E+10	1
4902663	38	C	08/13/2024	16:04	-126.656	47.531	0	257.50	0	6.3950	0	33.9460	0	26.672	0	255.191	0	77.8	4	26.0	4	-1E+10	1	-1E+10	1	-1E+10	1	-1E+10	1	-1E+10	1	-1E+10	1
4902663	38	C	08/13/2024	16:04	-126.656	47.531	0	258.50	0	6.3930	0	33.9460	0	26.673	0	256.182	0	77.8	4	26.0	4	-1E+10	1	-1E+10	1	-1E+10	1	-1E+10	1	-1E+10	1	-1E+10	1
4902663	38	C	08/13/2024	16:04	-126.656	47.531	0	259.50	0	6.3580	0	33.9470	0	26.678	0	257.172	0	77.8	4	25.9	4	-1E+10	1	-1E+10	1	-1E+10	1	-1E+10	1	-1E+10	1	-1E+10	1
4902663	38	C	08/13/2024	16:04	-126.656	47.531	0	260.70	0	6.2900	0	33.9430	0	26.684	0	258.360	0	77.7	4	25.9	4	-1E+10	1	-1E+10	1	-1E+10	1	-1E+10	1	-1E+10	1	-1E+10	1
4902663	38	C	08/13/2024	16:04	-126.656	47.531	0	261.90	0	6.2760	0	33.9410	0	26.684	0	259.549	0	77.3	4	25.7	4	-1E+10	1	-1E+10	1	-1E+10	1	-1E+10	1	-1E+10	1	-1E+10	1
4902663	38	C	08/13/2024	16:04	-126.656	47.531	0	263.10	0	6.2790	0	33.9410	0	26.683	0	260.737	0	76.8	4	25.5	4	-1E+10	1	-1E+10	1	-1E+10	1	-1E+10	1	-1E+10	1	-1E+10	1
4902663	38	C	08/13/2024	16:04	-126.656	47.531	0	263.90	0	6.2690	0	33.9420	0	26.686	0	261.530	0	76.4	4	25.4	4	-1E+10	1	-1E+10	1	-1E+10	1	-1E+10	1	-1E+10	1	-1E+10	1
4902663	38	C	08/13/2024	16:04	-126.656	47.531	0	264.70	0	6.2470	0	33.9440	0	26.690	0	262.322	0	75.9	4	25.2	4	-1E+10	1	-1E+10	1	-1E+10	1	-1E+10	1	-1E+10	1	-1E+10	1
4902663	38	C	08/13/2024	16:04	-126.656	47.531	0	265.90	0	6.2190	0	33.9400	0	26.690	0	263.510	0	75.0	4	24.9	4	-1E+10	1	-1E+10	1	-1E+10	1	-1E+10	1	-1E+10	1	-1E+10	1
4902663	38	C	08/13/2024	16:04	-126.656	47.531	0	267.20	0	6.2290	0	33.9400	0	26.689	0	264.798	0	74.2	4	24.7	4	-1E+10	1	-1E+10	1	-1E+10	1	-1E+10	1	-1E+10	1	-1E+10	1
4902663	38	C	08/13/2024	16:04	-126.656	47.531	0	268.00	0	6.2490	0	33.9480	0	26.693	0	265.590	0	73.8	4	24.5	4	-1E+10	1	-1E+10	1	-1E+10	1	-1E+10	1	-1E+10	1	-1E+10	1
4902663	38	C	08/13/2024	16:04	-126.656	47.531	0	268.80	0	6.2530	0	33.9500	0	26.694	0	266.382	0	73.4	4	24.4	4	-1E+10	1	-1E+10	1	-1E+10	1	-1E+10	1	-1E+10	1	-1E+10	1
4902663	38	C	08/13/2024	16:04	-126.656	47.531	0	270.00	0	6.2650	0	33.9540	0	26.696	0	267.571	0	73.0	4	24.3	4	-1E+10	1	-1E+10	1	-1E+10	1	-1E+10	1	-1E+10	1	-1E+10	1
4902663	38	C	08/13/2024	16:04	-126.656	47.531	0	271.20	0	6.2650	0	33.9570	0	26.698	0	268.759	0	72.8	4	24.2	4	-1E+10	1	-1E+10	1	-1E+10	1	-1E+10	1	-1E+10	1	-1E+10	1
4902663	38	C	08/13/2024	16:04	-126.656	47.531	0	272.00	0	6.2610	0	33.9570	0	26.699	0	269.552	0	72.6	4	24.1	4	-1E+10	1	-1E+10	1	-1E+10	1	-1E+10	1	-1E+10	1	-1E+10	1
4902663	38	C	08/13/2024	16:04	-126.656	47.531	0	272.90	0	6.2550	0	33.9570	0	26.699	0	270.443	0	72.5	4	24.1	4	-1E+10	1	-1E+10	1	-1E+10	1	-1E+10	1	-1E+10	1	-1E+10	1
4902663	38	C	08/13/2024	16:04	-126.656	47.531	0	273.70	0	6.2460	0	33.9570	0	26.700	0	271.235	0	72.3	4	24.0	4	-1E+10	1	-1E+10	1	-1E+10	1	-1E+10	1	-1E+10	1	-1E+10	1
4902663	38	C	08/13/2024	16:04	-126.656	47.531	0	274.90	0	6.2330	0	33.9570	0	26.702	0	272.424	0	72.1	4	23.9	4	-1E+10	1	-1E+10	1	-1E+10	1	-1E+10	1	-1E+10	1	-1E+10	1
4902663	38	C	08/13/2024	16:04	-126.656	47.531	0	276.20	0	6.2180	0	33.9550	0	26.702	0	273.711	0	71.8	4	23.8	4	-1E+10	1	-1E+10	1	-1E+10	1	-1E+10	1	-1E+10	1	-1E+10	1
4902663	38	C	08/13/2024	16:04	-126.656	47.531	0	277.00	0	6.2110	0	33.9580	0	26.706	0	274.503	0	71.6	4	23.8	4	-1E+10	1	-1E+10	1	-1E+10	1	-1E+10	1	-1E+10	1	-1E+10	1
4902663	38	C	08/13/2024	16:04	-126.656	47.531	0	277.80	0	6.1860	0	33.9570	0	26.708	0	275.296	0	71.4	4	23.7	4	-1E+10	1	-1E+10	1	-1E+10	1	-1E+10	1	-1E+10	1	-1E+10	1
4902663	38	C	08/13/2024	16:04	-126.656	47.531	0	278.70	0	6.1670	0	33.9570	0	26.711	0	276.187	0	71.1	4	23.6	4	-1E+10	1	-1E+10	1	-1E+10	1	-1E+10	1	-1E+10	1	-1E+10	1
4902663	38	C	08/13/2024	16:04	-126.656	47.531	0	279.90	0	6.1740	0	33.9570	0	26.710	0	277.375	0	70.9	4	23.5	4	-1E+10	1	-1E+10	1	-1E+10	1	-1E+10	1	-1E+10	1	-1E+10	1
4902663	38	C	08/13/2024	16:04	-126.656	47.531	0	281.20	0	6.1780	0	33.9570	0	26.709	0	278.663	0	70.8	4	23.5	4	-1E+10	1	-1E+10	1	-1E+10	1	-1E+10	1	-1E+10	1	-1E+10	1
4902663	38	C	08/13/2024	16:04	-126.656	47.531	0	282.00	0	6.1050	0	33.9560	0	26.718	0	279.455	0	70.6	4	23.4	4	-1E+10	1	-1E+10	1	-1E+10	1	-1E+10	1	-1E+10	1	-1E+10	1
4902663	38	C	08/13/2024	16:04	-126.656	47.531	0	282.90	0	6.0870	0	33.9530	0	26.718	0	280.346	0	70.2	4	23.3	4	-1E+10	1	-1E+10	1	-1E+10	1	-1E+10	1	-1E+10	1	-1E+10	1
4902663	38	C	08/13/2024	16:04	-126.656	47.531	0	283.70	0	6.0880	0	33.9510	0	26.716	0	281.138	0	69.8	4	23.1	4	-1E+10	1	-1E+10	1	-1E+10	1	-1E+10	1	-1E+10	1	-1E+10	1
4902663	38	C	08/13/2024	16:04	-126.656	47.531	0	285.00	0	6.1040	0	33.9560	0	26.718	0	282.426	0	69.2	4	22.9	4	-1E+10	1	-1E+10	1	-1E+10	1	-1E+10	1	-1E+10	1	-1E+10	1
4902663	38	C	08/13/2024	16:04	-126.656	47.531	0	286.30	0	6.1000	0	33.9580	0	26.720	0	283.713	0	68.6	4	22.7	4	-1E+10	1	-1E+10	1	-1E+10	1	-1E+10	1	-1E+10	1	-1E+10	1
4902663	38	C	08/13/2024	16:04	-126.656	47.531	0	287.20	0	6.0940	0	33.9600	0	26.722	0	284.604	0	68.3	4	22.6	4	-1E+10	1	-1E+10	1	-1E+10	1	-1E+10	1	-1E+10	1	-1E+10	1
4902663	38	C	08/13/2024	16:04	-126.656	47.531	0	288.00	0	6.0820	0	33.9590	0	26.723	0	285.397	0	67.8	4	22.5	4	-1E+10	1	-1E+10	1	-1E+10	1	-1E+10	1	-1E+10	1	-1E+10	1
4902663	38	C	08/13/2024	16:04	-126.656	47.531	0	288.80	0	6.0720	0	33.9610	0	26.726	0	286.189	0	67.4	4	22.3	4	-1E+10	1	-1E+10	1	-1E+10	1	-1E+10	1	-1E+10	1	-1E+10	1
4902663	38	C	08/13/2024	16:04	-126.656	47.531	0	289.70	0	6.0640	0	33.9610	0	26.727	0	287.080	0	66.7	4	22.1	4	-1E+10	1	-1E+10	1	-1E+10	1	-1E+10	1	-1E+10	1	-1E+10	1
4902663	38	C	08/13/2024	16:04	-126.656	47.531	0	290.90	0	6.0980	0	33.9650	0	26.726	0	288.268	0	66.0	4	21.9	4	-1E+10	1	-1E+10	1	-1E+10	1	-1E+10	1	-1E+10	1	-1E+10	1
4902663	38	C	08/13/2024	16:04	-126.656	47.531	0	292.30	0	6.1140	0	33.9670	0	26.725	0	289.655	0	65.4	4	21.7	4	-1E+10	1	-1E+10	1	-1E+10	1	-1E+10	1	-1E+10	1	-1E+10	1
4902663	38	C	08/13/2024	16:04	-126.656	47.531	0	293.10	0	6.1090	0	33.9720	0	26.730	0	290.447	0	65.2	4	21.6	4	-1E+10	1	-1E+10	1	-1E+10	1	-1E+10	1	-1E+10	1	-1E+10	1
4902663	38	C	08/13/2024	16:04	-126.656	47.531	0	294.00	0	6.1030	0	33.9730	0	26.731	0	291.338	0	64.8	4	21.5	4	-1E+10	1	-1E+10	1	-1E+10	1	-1E+10	1	-1E+10	1	-1E+10	1
4902663	38	C	08/13/2024	16:04	-126.656	47.531	0	294.80	0	6.0990	0	33.9730	0	26.732	0	292.130	0	64.5	4	21.4	4	-1E+10	1	-1E+10	1	-1E+10	1	-1E+10	1	-1E+10	1	-1E+10	1
4902663	38	C	08/13/2024	16:04	-126.656	47.531	0	295.70	0	6.1070	0	33.9740	0	26.732	0	293.022	0	64.2	4	21.3	4	-1E+10	1	-1E+10	1	-1E+10	1	-1E+10	1	-1E+10	1	-1E+10	1
4902663	38	C	08/13/2024	16:04	-126.656	47.531	0	297.00	0	6.1030	0	33.9680	0	26.728	0	294.309	0	63.8	4	21.1	4	-1E+10	1	-1E+10	1	-1E+10	1	-1E+10	1	-1E+10	1	-1E+10	1
4902663	38	C	08/13/2024	16:04	-126.656	47.531	0	298.30	0	6.0980	0	33.9740	0	26.733	0	295.596	0	63.4	4	21.0	4	-1E+10	1	-1E+10	1	-1E+10	1	-1E+10	1	-1E+10	1	-1E+10	1
4902663	38	C	08/13/2024	16:04	-126.656	47.531	0	299.20	0	6.0950	0	33.9750	0	26.734	0	296.487	0	63.2	4	20.9	4	-1E+10	1	-1E+10	1	-1E+10	1	-1E+10	1	-1E+10	1	-1E+10	1
4902663	38	C	08/13/2024	16:04	-126.656	47.531	0	300.00	0	6.0910	0	33.9770	0	26.736	0	297.280	0	63.0	4	20.9	4	-1E+10	1	-1E+10	1	-1E+10	1	-1E+10	1	-1E+10	1	-1E+10	1
4902663	38	C	08/13/2024	16:04	-126.656	47.531	0	300.90	0	6.0790	0	33.9790	0	26.739	0	298.171	0	62.8	4	20.8	4	-1E+10	1	-1E+10	1	-1E+10	1	-1E+10	1	-1E+10	1	-1E+10	1
4902663	38	C	08/13/2024	16:04	-126.656	47.531	0	301.80	0	6.0720	0	33.9800	0	26.741	0	299.062	0	62.6	4	20.7	4	-1E+10	1	-1E+10	1	-1E+10	1	-1E+10	1	-1E+10	1	-1E+10	1
4902663	38	C	08/13/2024	16:04	-126.656	47.531	0	302.70	0	6.0630	0	33.9800	0	26.742	0	299.953	0	62.3	4	20.6	4	-1E+10	1	-1E+10	1	-1E+10	1	-1E+10	1	-1E+10	1	-1E+10	1
4902663	38	C	08/13/2024	16:04	-126.656	47.531	0	303.60	0	6.0600	0	33.9800	0	26.743	0	300.844	0	62.1	4	20.6	4	-1E+10	1	-1E+10	1	-1E+10	1	-1E+10	1	-1E+10	1	-1E+10	1
4902663	38	C	08/13/2024	16:04	-126.656	47.531	0	304.90	0	6.0550	0	33.9790	0	26.742	0	302.132	0	61.7	4	20.4	4	-1E+10	1	-1E+10	1	-1E+10	1	-1E+10	1	-1E+10	1	-1E+10	1
4902663	38	C	08/13/2024	16:04	-126.656	47.531	0	306.30	0	6.0490	0	33.9810	0	26.745	0	303.518	0	61.3	4	20.3	4	-1E+10	1	-1E+10	1	-1E+10	1	-1E+10	1	-1E+10	1	-1E+10	1
4902663	38	C	08/13/2024	16:04	-126.656	47.531	0	307.10	0	6.0410	0	33.9790	0	26.744	0	304.310	0	60.9	4	20.2	4	-1E+10	1	-1E+10	1	-1E+10	1	-1E+10	1	-1E+10	1	-1E+10	1
4902663	38	C	08/13/2024	16:04	-126.656	47.531	0	308.00	0	6.0460	0	33.9810	0	26.745	0	305.201	0	60.7	4	20.1	4	-1E+10	1	-1E+10	1	-1E+10	1	-1E+10	1	-1E+10	1	-1E+10	1
4902663	38	C	08/13/2024	16:04	-126.656	47.531	0	308.90	0	6.0210	0	33.9820	0	26.749	0	306.092	0	60.5	4	20.0	4	-1E+10	1	-1E+10	1	-1E+10	1	-1E+10	1	-1E+10	1	-1E+10	1
4902663	38	C	08/13/2024	16:04	-126.656	47.531	0	309.80	0	6.0160	0	33.9830	0	26.751	0	306.983	0	60.3	4	19.9	4	-1E+10	1	-1E+10	1	-1E+10	1	-1E+10	1	-1E+10	1	-1E+10	1
4902663	38	C	08/13/2024	16:04	-126.656	47.531	0	310.70	0	6.0150	0	33.9820	0	26.750	0	307.875	0	60.1	4	19.9	4	-1E+10	1	-1E+10	1	-1E+10	1	-1E+10	1	-1E+10	1	-1E+10	1
4902663	38	C	08/13/2024	16:04	-126.656	47.531	0	311.60	0	6.0120	0	33.9820	0	26.750	0	308.766	0	60.0	4	19.8	4	-1E+10	1	-1E+10	1	-1E+10	1	-1E+10	1	-1E+10	1	-1E+10	1
4902663	38	C	08/13/2024	16:04	-126.656	47.531	0	312.90	0	6.0010	0	33.9850	0	26.754	0	310.053	0	59.7	4	19.7	4	-1E+10	1	-1E+10	1	-1E+10	1	-1E+10	1	-1E+10	1	-1E+10	1
4902663	38	C	08/13/2024	16:04	-126.656	47.531	0	314.20	0	5.9910	0	33.9880	0	26.758	0	311.340	0	59.5	4	19.6	4	-1E+10	1	-1E+10	1	-1E+10	1	-1E+10	1	-1E+10	1	-1E+10	1
4902663	38	C	08/13/2024	16:04	-126.656	47.531	0	315.10	0	5.9890	0	33.9890	0	26.759	0	312.231	0	59.3	4	19.6	4	-1E+10	1	-1E+10	1	-1E+10	1	-1E+10	1	-1E+10	1	-1E+10	1
4902663	38	C	08/13/2024	16:04	-126.656	47.531	0	316.00	0	5.9860	0	33.9870	0	26.757	0	313.122	0	59.2	4	19.5	4	-1E+10	1	-1E+10	1	-1E+10	1	-1E+10	1	-1E+10	1	-1E+10	1
4902663	38	C	08/13/2024	16:04	-126.656	47.531	0	316.90	0	5.9840	0	33.9900	0	26.760	0	314.013	0	59.0	4	19.5	4	-1E+10	1	-1E+10	1	-1E+10	1	-1E+10	1	-1E+10	1	-1E+10	1
4902663	38	C	08/13/2024	16:04	-126.656	47.531	0	317.80	0	5.9810	0	33.9900	0	26.761	0	314.905	0	58.8	4	19.4	4	-1E+10	1	-1E+10	1	-1E+10	1	-1E+10	1	-1E+10	1	-1E+10	1
4902663	38	C	08/13/2024	16:04	-126.656	47.531	0	318.70	0	5.9770	0	33.9910	0	26.762	0	315.796	0	58.6	4	19.4	4	-1E+10	1	-1E+10	1	-1E+10	1	-1E+10	1	-1E+10	1	-1E+10	1
4902663	38	C	08/13/2024	16:04	-126.656	47.531	0	319.60	0	5.9680	0	33.9930	0	26.765	0	316.687	0	58.4	4	19.3	4	-1E+10	1	-1E+10	1	-1E+10	1	-1E+10	1	-1E+10	1	-1E+10	1
4902663	38	C	08/13/2024	16:04	-126.656	47.531	0	320.90	0	5.9540	0	33.9920	0	26.765	0	317.974	0	58.3	4	19.2	4	-1E+10	1	-1E+10	1	-1E+10	1	-1E+10	1	-1E+10	1	-1E+10	1
4902663	38	C	08/13/2024	16:04	-126.656	47.531	0	322.30	0	5.9470	0	33.9930	0	26.767	0	319.360	0	58.1	4	19.2	4	-1E+10	1	-1E+10	1	-1E+10	1	-1E+10	1	-1E+10	1	-1E+10	1
4902663	38	C	08/13/2024	16:04	-126.656	47.531	0	323.20	0	5.9450	0	33.9930	0	26.767	0	320.251	0	58.0	4	19.2	4	-1E+10	1	-1E+10	1	-1E+10	1	-1E+10	1	-1E+10	1	-1E+10	1
4902663	38	C	08/13/2024	16:04	-126.656	47.531	0	324.10	0	5.9380	0	33.9940	0	26.769	0	321.142	0	57.9	4	19.1	4	-1E+10	1	-1E+10	1	-1E+10	1	-1E+10	1	-1E+10	1	-1E+10	1
4902663	38	C	08/13/2024	16:04	-126.656	47.531	0	325.10	0	5.9270	0	33.9940	0	26.770	0	322.132	0	57.9	4	19.1	4	-1E+10	1	-1E+10	1	-1E+10	1	-1E+10	1	-1E+10	1	-1E+10	1
4902663	38	C	08/13/2024	16:04	-126.656	47.531	0	326.00	0	5.9190	0	33.9940	0	26.771	0	323.023	0	57.8	4	19.1	4	-1E+10	1	-1E+10	1	-1E+10	1	-1E+10	1	-1E+10	1	-1E+10	1
4902663	38	C	08/13/2024	16:04	-126.656	47.531	0	326.90	0	5.9060	0	33.9940	0	26.773	0	323.915	0	57.7	4	19.0	4	-1E+10	1	-1E+10	1	-1E+10	1	-1E+10	1	-1E+10	1	-1E+10	1
4902663	38	C	08/13/2024	16:04	-126.656	47.531	0	327.80	0	5.8950	0	33.9930	0	26.774	0	324.806	0	57.7	4	19.0	4	-1E+10	1	-1E+10	1	-1E+10	1	-1E+10	1	-1E+10	1	-1E+10	1
4902663	38	C	08/13/2024	16:04	-126.656	47.531	0	328.70	0	5.8860	0	33.9950	0	26.776	0	325.697	0	57.5	4	19.0	4	-1E+10	1	-1E+10	1	-1E+10	1	-1E+10	1	-1E+10	1	-1E+10	1
4902663	38	C	08/13/2024	16:04	-126.656	47.531	0	329.60	0	5.8760	0	33.9920	0	26.775	0	326.588	0	57.3	4	18.9	4	-1E+10	1	-1E+10	1	-1E+10	1	-1E+10	1	-1E+10	1	-1E+10	1
4902663	38	C	08/13/2024	16:04	-126.656	47.531	0	330.50	0	5.8850	0	33.9980	0	26.779	0	327.479	0	57.2	4	18.9	4	-1E+10	1	-1E+10	1	-1E+10	1	-1E+10	1	-1E+10	1	-1E+10	1
4902663	38	C	08/13/2024	16:04	-126.656	47.531	0	331.90	0	5.8830	0	33.9960	0	26.778	0	328.865	0	57.3	4	18.9	4	-1E+10	1	-1E+10	1	-1E+10	1	-1E+10	1	-1E+10	1	-1E+10	1
4902663	38	C	08/13/2024	16:04	-126.656	47.531	0	333.30	0	5.8810	0	33.9970	0	26.779	0	330.251	0	57.3	4	18.9	4	-1E+10	1	-1E+10	1	-1E+10	1	-1E+10	1	-1E+10	1	-1E+10	1
4902663	38	C	08/13/2024	16:04	-126.656	47.531	0	334.20	0	5.8790	0	33.9960	0	26.778	0	331.142	0	57.4	4	18.9	4	-1E+10	1	-1E+10	1	-1E+10	1	-1E+10	1	-1E+10	1	-1E+10	1
4902663	38	C	08/13/2024	16:04	-126.656	47.531	0	335.20	0	5.8720	0	33.9970	0	26.780	0	332.132	0	57.6	4	19.0	4	-1E+10	1	-1E+10	1	-1E+10	1	-1E+10	1	-1E+10	1	-1E+10	1
4902663	38	C	08/13/2024	16:04	-126.656	47.531	0	336.10	0	5.8620	0	33.9980	0	26.782	0	333.023	0	57.8	4	19.0	4	-1E+10	1	-1E+10	1	-1E+10	1	-1E+10	1	-1E+10	1	-1E+10	1
4902663	38	C	08/13/2024	16:04	-126.656	47.531	0	337.00	0	5.8570	0	33.9960	0	26.781	0	333.914	0	58.0	4	19.1	4	-1E+10	1	-1E+10	1	-1E+10	1	-1E+10	1	-1E+10	1	-1E+10	1
4902663	38	C	08/13/2024	16:04	-126.656	47.531	0	337.90	0	5.8500	0	33.9940	0	26.780	0	334.805	0	58.3	4	19.2	4	-1E+10	1	-1E+10	1	-1E+10	1	-1E+10	1	-1E+10	1	-1E+10	1
4902663	38	C	08/13/2024	16:04	-126.656	47.531	0	338.90	0	5.8320	0	33.9940	0	26.782	0	335.795	0	58.5	4	19.3	4	-1E+10	1	-1E+10	1	-1E+10	1	-1E+10	1	-1E+10	1	-1E+10	1
4902663	38	C	08/13/2024	16:04	-126.656	47.531	0	339.80	0	5.8060	0	34.0000	0	26.790	0	336.686	0	58.7	4	19.3	4	-1E+10	1	-1E+10	1	-1E+10	1	-1E+10	1	-1E+10	1	-1E+10	1
4902663	38	C	08/13/2024	16:04	-126.656	47.531	0	340.70	0	5.7440	0	33.9790	0	26.781	0	337.577	0	58.6	4	19.3	4	-1E+10	1	-1E+10	1	-1E+10	1	-1E+10	1	-1E+10	1	-1E+10	1
4902663	38	C	08/13/2024	16:04	-126.656	47.531	0	341.60	0	5.6770	0	33.9770	0	26.788	0	338.468	0	58.4	4	19.1	4	-1E+10	1	-1E+10	1	-1E+10	1	-1E+10	1	-1E+10	1	-1E+10	1
4902663	38	C	08/13/2024	16:04	-126.656	47.531	0	342.90	0	5.6740	0	33.9760	0	26.787	0	339.755	0	57.8	4	19.0	4	-1E+10	1	-1E+10	1	-1E+10	1	-1E+10	1	-1E+10	1	-1E+10	1
4902663	38	C	08/13/2024	16:04	-126.656	47.531	0	344.40	0	5.6950	0	33.9820	0	26.790	0	341.240	0	57.3	4	18.8	4	-1E+10	1	-1E+10	1	-1E+10	1	-1E+10	1	-1E+10	1	-1E+10	1
4902663	38	C	08/13/2024	16:04	-126.656	47.531	0	345.30	0	5.6930	0	33.9830	0	26.791	0	342.131	0	57.1	4	18.7	4	-1E+10	1	-1E+10	1	-1E+10	1	-1E+10	1	-1E+10	1	-1E+10	1
4902663	38	C	08/13/2024	16:04	-126.656	47.531	0	346.20	0	5.6950	0	33.9850	0	26.792	0	343.022	0	56.9	4	18.7	4	-1E+10	1	-1E+10	1	-1E+10	1	-1E+10	1	-1E+10	1	-1E+10	1
4902663	38	C	08/13/2024	16:04	-126.656	47.531	0	347.10	0	5.6800	0	33.9850	0	26.794	0	343.913	0	56.8	4	18.6	4	-1E+10	1	-1E+10	1	-1E+10	1	-1E+10	1	-1E+10	1	-1E+10	1
4902663	38	C	08/13/2024	16:04	-126.656	47.531	0	348.00	0	5.6540	0	33.9830	0	26.795	0	344.804	0	56.5	4	18.5	4	-1E+10	1	-1E+10	1	-1E+10	1	-1E+10	1	-1E+10	1	-1E+10	1
4902663	38	C	08/13/2024	16:04	-126.656	47.531	0	349.00	0	5.6280	0	33.9800	0	26.796	0	345.794	0	56.2	4	18.4	4	-1E+10	1	-1E+10	1	-1E+10	1	-1E+10	1	-1E+10	1	-1E+10	1
4902663	38	C	08/13/2024	16:04	-126.656	47.531	0	349.90	0	5.5810	0	33.9750	0	26.798	0	346.685	0	55.6	4	18.2	4	-1E+10	1	-1E+10	1	-1E+10	1	-1E+10	1	-1E+10	1	-1E+10	1
4902663	38	C	08/13/2024	16:04	-126.656	47.531	0	352.70	0	5.5520	0	33.9780	0	26.804	0	349.457	0	52.8	4	17.3	4	-1E+10	1	-1E+10	1	-1E+10	1	-1E+10	1	-1E+10	1	-1E+10	1
4902663	38	C	08/13/2024	16:04	-126.656	47.531	0	357.90	0	5.6680	0	34.0070	0	26.813	0	354.605	0	49.8	4	16.3	4	-1E+10	1	-1E+10	1	-1E+10	1	-1E+10	1	-1E+10	1	-1E+10	1
4902663	38	C	08/13/2024	16:04	-126.656	47.531	0	363.20	0	5.6490	0	34.0130	0	26.820	0	359.852	0	48.2	4	15.8	4	-1E+10	1	-1E+10	1	-1E+10	1	-1E+10	1	-1E+10	1	-1E+10	1
4902663	38	C	08/13/2024	16:04	-126.656	47.531	0	368.00	0	5.6150	0	34.0200	0	26.830	0	364.603	0	47.1	4	15.4	4	-1E+10	1	-1E+10	1	-1E+10	1	-1E+10	1	-1E+10	1	-1E+10	1
4902663	38	C	08/13/2024	16:04	-126.656	47.531	0	372.80	0	5.6060	0	34.0240	0	26.834	0	369.354	0	46.4	4	15.2	4	-1E+10	1	-1E+10	1	-1E+10	1	-1E+10	1	-1E+10	1	-1E+10	1
4902663	38	C	08/13/2024	16:04	-126.656	47.531	0	377.70	0	5.5610	0	34.0240	0	26.839	0	374.205	0	46.0	4	15.0	4	-1E+10	1	-1E+10	1	-1E+10	1	-1E+10	1	-1E+10	1	-1E+10	1
4902663	38	C	08/13/2024	16:04	-126.656	47.531	0	382.70	0	5.5560	0	34.0260	0	26.842	0	379.154	0	45.0	4	14.7	4	-1E+10	1	-1E+10	1	-1E+10	1	-1E+10	1	-1E+10	1	-1E+10	1
4902663	38	C	08/13/2024	16:04	-126.656	47.531	0	387.70	0	5.5500	0	34.0290	0	26.845	0	384.103	0	44.3	4	14.5	4	-1E+10	1	-1E+10	1	-1E+10	1	-1E+10	1	-1E+10	1	-1E+10	1
4902663	38	C	08/13/2024	16:04	-126.656	47.531	0	392.50	0	5.5140	0	34.0290	0	26.849	0	388.854	0	43.4	4	14.2	4	-1E+10	1	-1E+10	1	-1E+10	1	-1E+10	1	-1E+10	1	-1E+10	1
4902663	38	C	08/13/2024	16:04	-126.656	47.531	0	397.50	0	5.4830	0	34.0350	0	26.858	0	393.803	0	42.2	4	13.8	4	-1E+10	1	-1E+10	1	-1E+10	1	-1E+10	1	-1E+10	1	-1E+10	1
4902663	38	C	08/13/2024	16:04	-126.656	47.531	0	402.60	0	5.4570	0	34.0390	0	26.864	0	398.850	0	41.7	4	13.6	4	-1E+10	1	-1E+10	1	-1E+10	1	-1E+10	1	-1E+10	1	-1E+10	1
4902663	38	C	08/13/2024	16:04	-126.656	47.531	0	407.60	0	5.3990	0	34.0390	0	26.871	0	403.799	0	41.4	4	13.5	4	-1E+10	1	-1E+10	1	-1E+10	1	-1E+10	1	-1E+10	1	-1E+10	1
4902663	38	C	08/13/2024	16:04	-126.656	47.531	0	412.70	0	5.3770	0	34.0390	0	26.874	0	408.846	0	41.1	4	13.4	4	-1E+10	1	-1E+10	1	-1E+10	1	-1E+10	1	-1E+10	1	-1E+10	1
4902663	38	C	08/13/2024	16:04	-126.656	47.531	0	417.70	0	5.3310	0	34.0380	0	26.878	0	413.795	0	41.1	4	13.4	4	-1E+10	1	-1E+10	1	-1E+10	1	-1E+10	1	-1E+10	1	-1E+10	1
4902663	38	C	08/13/2024	16:04	-126.656	47.531	0	422.80	0	5.2740	0	34.0350	0	26.883	0	418.842	0	40.2	4	13.1	4	-1E+10	1	-1E+10	1	-1E+10	1	-1E+10	1	-1E+10	1	-1E+10	1
4902663	38	C	08/13/2024	16:04	-126.656	47.531	0	427.90	0	5.2850	0	34.0410	0	26.886	0	423.889	0	39.2	4	12.8	4	-1E+10	1	-1E+10	1	-1E+10	1	-1E+10	1	-1E+10	1	-1E+10	1
4902663	38	C	08/13/2024	16:04	-126.656	47.531	0	433.00	0	5.2400	0	34.0420	0	26.892	0	428.936	0	38.4	4	12.5	4	-1E+10	1	-1E+10	1	-1E+10	1	-1E+10	1	-1E+10	1	-1E+10	1
4902663	38	C	08/13/2024	16:04	-126.656	47.531	0	438.10	0	5.2180	0	34.0460	0	26.898	0	433.983	0	36.8	4	12.0	4	-1E+10	1	-1E+10	1	-1E+10	1	-1E+10	1	-1E+10	1	-1E+10	1
4902663	38	C	08/13/2024	16:04	-126.656	47.531	0	443.20	0	5.2120	0	34.0540	0	26.905	0	439.029	0	35.8	4	11.6	4	-1E+10	1	-1E+10	1	-1E+10	1	-1E+10	1	-1E+10	1	-1E+10	1
4902663	38	C	08/13/2024	16:04	-126.656	47.531	0	448.20	0	5.1630	0	34.0560	0	26.912	0	443.977	0	35.2	4	11.4	4	-1E+10	1	-1E+10	1	-1E+10	1	-1E+10	1	-1E+10	1	-1E+10	1
4902663	38	C	08/13/2024	16:04	-126.656	47.531	0	453.30	0	5.1280	0	34.0580	0	26.918	0	449.023	0	34.1	4	11.1	4	-1E+10	1	-1E+10	1	-1E+10	1	-1E+10	1	-1E+10	1	-1E+10	1
4902663	38	C	08/13/2024	16:04	-126.656	47.531	0	457.90	0	5.0970	0	34.0630	0	26.926	0	453.575	0	33.1	4	10.7	4	-1E+10	1	-1E+10	1	-1E+10	1	-1E+10	1	-1E+10	1	-1E+10	1
4902663	38	C	08/13/2024	16:04	-126.656	47.531	0	462.50	0	5.0770	0	34.0660	0	26.930	0	458.126	0	32.2	4	10.4	4	-1E+10	1	-1E+10	1	-1E+10	1	-1E+10	1	-1E+10	1	-1E+10	1
4902663	38	C	08/13/2024	16:04	-126.656	47.531	0	467.60	0	5.0530	0	34.0700	0	26.936	0	463.173	0	31.0	4	10.0	4	-1E+10	1	-1E+10	1	-1E+10	1	-1E+10	1	-1E+10	1	-1E+10	1
4902663	38	C	08/13/2024	16:04	-126.656	47.531	0	472.70	0	5.0350	0	34.0770	0	26.944	0	468.219	0	30.0	4	9.7	4	-1E+10	1	-1E+10	1	-1E+10	1	-1E+10	1	-1E+10	1	-1E+10	1
4902663	38	C	08/13/2024	16:04	-126.656	47.531	0	477.90	0	5.0110	0	34.0810	0	26.950	0	473.363	0	28.9	4	9.3	4	-1E+10	1	-1E+10	1	-1E+10	1	-1E+10	1	-1E+10	1	-1E+10	1
4902663	38	C	08/13/2024	16:04	-126.656	47.531	0	483.10	0	4.9960	0	34.0860	0	26.956	0	478.508	0	27.8	4	9.0	4	-1E+10	1	-1E+10	1	-1E+10	1	-1E+10	1	-1E+10	1	-1E+10	1
4902663	38	C	08/13/2024	16:04	-126.656	47.531	0	488.30	0	4.9830	0	34.0910	0	26.961	0	483.652	0	26.8	4	8.7	4	-1E+10	1	-1E+10	1	-1E+10	1	-1E+10	1	-1E+10	1	-1E+10	1
4902663	38	C	08/13/2024	16:04	-126.656	47.531	0	493.00	0	4.9480	0	34.0960	0	26.969	0	488.302	0	25.8	4	8.3	4	-1E+10	1	-1E+10	1	-1E+10	1	-1E+10	1	-1E+10	1	-1E+10	1
4902663	38	C	08/13/2024	16:04	-126.656	47.531	0	497.70	0	4.9520	0	34.1020	0	26.973	0	492.952	0	24.6	4	7.9	4	-1E+10	1	-1E+10	1	-1E+10	1	-1E+10	1	-1E+10	1	-1E+10	1
4902663	38	C	08/13/2024	16:04	-126.656	47.531	0	503.10	0	4.9420	0	34.1100	0	26.981	0	498.294	0	23.8	4	7.7	4	-1E+10	1	-1E+10	1	-1E+10	1	-1E+10	1	-1E+10	1	-1E+10	1
4902663	38	C	08/13/2024	16:04	-126.656	47.531	0	507.90	0	4.9420	0	34.1160	0	26.986	0	503.042	0	23.3	4	7.5	4	-1E+10	1	-1E+10	1	-1E+10	1	-1E+10	1	-1E+10	1	-1E+10	1
4902663	38	C	08/13/2024	16:04	-126.656	47.531	0	513.10	0	4.9160	0	34.1180	0	26.990	0	508.186	0	23.0	4	7.4	4	-1E+10	1	-1E+10	1	-1E+10	1	-1E+10	1	-1E+10	1	-1E+10	1
4902663	38	C	08/13/2024	16:04	-126.656	47.531	0	518.10	0	4.8930	0	34.1190	0	26.994	0	513.132	0	22.7	4	7.3	4	-1E+10	1	-1E+10	1	-1E+10	1	-1E+10	1	-1E+10	1	-1E+10	1
4902663	38	C	08/13/2024	16:04	-126.656	47.531	0	523.00	0	4.8180	0	34.1140	0	26.998	0	517.979	0	22.8	4	7.3	4	-1E+10	1	-1E+10	1	-1E+10	1	-1E+10	1	-1E+10	1	-1E+10	1
4902663	38	C	08/13/2024	16:04	-126.656	47.531	0	527.90	0	4.6940	0	34.1080	0	27.007	0	522.826	0	22.1	4	7.1	4	-1E+10	1	-1E+10	1	-1E+10	1	-1E+10	1	-1E+10	1	-1E+10	1
4902663	38	C	08/13/2024	16:04	-126.656	47.531	0	532.80	0	4.7040	0	34.1160	0	27.012	0	527.672	0	21.2	4	6.8	4	-1E+10	1	-1E+10	1	-1E+10	1	-1E+10	1	-1E+10	1	-1E+10	1
4902663	38	C	08/13/2024	16:04	-126.656	47.531	0	537.80	0	4.7350	0	34.1290	0	27.019	0	532.618	0	20.1	4	6.5	4	-1E+10	1	-1E+10	1	-1E+10	1	-1E+10	1	-1E+10	1	-1E+10	1
4902663	38	C	08/13/2024	16:04	-126.656	47.531	0	542.80	0	4.7230	0	34.1310	0	27.022	0	537.563	0	19.1	4	6.1	4	-1E+10	1	-1E+10	1	-1E+10	1	-1E+10	1	-1E+10	1	-1E+10	1
4902663	38	C	08/13/2024	16:04	-126.656	47.531	0	547.80	0	4.7780	0	34.1430	0	27.026	0	542.509	0	18.2	4	5.8	4	-1E+10	1	-1E+10	1	-1E+10	1	-1E+10	1	-1E+10	1	-1E+10	1
4902663	38	C	08/13/2024	16:04	-126.656	47.531	0	552.70	0	4.7880	0	34.1520	0	27.032	0	547.355	0	17.7	4	5.7	4	-1E+10	1	-1E+10	1	-1E+10	1	-1E+10	1	-1E+10	1	-1E+10	1
4902663	38	C	08/13/2024	16:04	-126.656	47.531	0	557.70	0	4.7480	0	34.1520	0	27.036	0	552.300	0	17.5	4	5.6	4	-1E+10	1	-1E+10	1	-1E+10	1	-1E+10	1	-1E+10	1	-1E+10	1
4902663	38	C	08/13/2024	16:04	-126.656	47.531	0	562.70	0	4.6960	0	34.1510	0	27.041	0	557.245	0	17.0	4	5.4	4	-1E+10	1	-1E+10	1	-1E+10	1	-1E+10	1	-1E+10	1	-1E+10	1
4902663	38	C	08/13/2024	16:04	-126.656	47.531	0	567.70	0	4.7090	0	34.1600	0	27.047	0	562.189	0	16.4	4	5.3	4	-1E+10	1	-1E+10	1	-1E+10	1	-1E+10	1	-1E+10	1	-1E+10	1
4902663	38	C	08/13/2024	16:04	-126.656	47.531	0	572.70	0	4.6850	0	34.1620	0	27.051	0	567.134	0	16.7	4	5.3	4	-1E+10	1	-1E+10	1	-1E+10	1	-1E+10	1	-1E+10	1	-1E+10	1
4902663	38	C	08/13/2024	16:04	-126.656	47.531	0	577.90	0	4.5280	0	34.1500	0	27.059	0	572.276	0	16.5	4	5.3	4	-1E+10	1	-1E+10	1	-1E+10	1	-1E+10	1	-1E+10	1	-1E+10	1
4902663	38	C	08/13/2024	16:04	-126.656	47.531	0	583.00	0	4.5190	0	34.1560	0	27.065	0	577.320	0	15.9	4	5.1	4	-1E+10	1	-1E+10	1	-1E+10	1	-1E+10	1	-1E+10	1	-1E+10	1
4902663	38	C	08/13/2024	16:04	-126.656	47.531	0	587.90	0	4.5090	0	34.1600	0	27.069	0	582.165	0	15.3	4	4.9	4	-1E+10	1	-1E+10	1	-1E+10	1	-1E+10	1	-1E+10	1	-1E+10	1
4902663	38	C	08/13/2024	16:04	-126.656	47.531	0	592.80	0	4.5120	0	34.1650	0	27.073	0	587.010	0	14.7	4	4.7	4	-1E+10	1	-1E+10	1	-1E+10	1	-1E+10	1	-1E+10	1	-1E+10	1
4902663	38	C	08/13/2024	16:04	-126.656	47.531	0	597.90	0	4.5360	0	34.1720	0	27.076	0	592.053	0	13.8	4	4.4	4	-1E+10	1	-1E+10	1	-1E+10	1	-1E+10	1	-1E+10	1	-1E+10	1
4902663	38	C	08/13/2024	16:04	-126.656	47.531	0	603.00	0	4.5390	0	34.1810	0	27.083	0	597.096	0	13.2	4	4.2	4	-1E+10	1	-1E+10	1	-1E+10	1	-1E+10	1	-1E+10	1	-1E+10	1
4902663	38	C	08/13/2024	16:04	-126.656	47.531	0	608.20	0	4.5440	0	34.1900	0	27.089	0	602.238	0	12.7	4	4.1	4	-1E+10	1	-1E+10	1	-1E+10	1	-1E+10	1	-1E+10	1	-1E+10	1
4902663	38	C	08/13/2024	16:04	-126.656	47.531	0	613.00	0	4.5400	0	34.1940	0	27.093	0	606.984	0	12.4	4	4.0	4	-1E+10	1	-1E+10	1	-1E+10	1	-1E+10	1	-1E+10	1	-1E+10	1
4902663	38	C	08/13/2024	16:04	-126.656	47.531	0	617.90	0	4.4850	0	34.1950	0	27.100	0	611.828	0	12.2	4	3.9	4	-1E+10	1	-1E+10	1	-1E+10	1	-1E+10	1	-1E+10	1	-1E+10	1
4902663	38	C	08/13/2024	16:04	-126.656	47.531	0	622.70	0	4.4600	0	34.1960	0	27.103	0	616.574	0	11.7	4	3.7	4	-1E+10	1	-1E+10	1	-1E+10	1	-1E+10	1	-1E+10	1	-1E+10	1
4902663	38	C	08/13/2024	16:04	-126.656	47.531	0	627.70	0	4.4570	0	34.2050	0	27.111	0	621.517	0	11.2	4	3.6	4	-1E+10	1	-1E+10	1	-1E+10	1	-1E+10	1	-1E+10	1	-1E+10	1
4902663	38	C	08/13/2024	16:04	-126.656	47.531	0	632.60	0	4.4480	0	34.2110	0	27.117	0	626.362	0	10.9	4	3.5	4	-1E+10	1	-1E+10	1	-1E+10	1	-1E+10	1	-1E+10	1	-1E+10	1
4902663	38	C	08/13/2024	16:04	-126.656	47.531	0	637.60	0	4.4460	0	34.2140	0	27.119	0	631.305	0	10.7	4	3.4	4	-1E+10	1	-1E+10	1	-1E+10	1	-1E+10	1	-1E+10	1	-1E+10	1
4902663	38	C	08/13/2024	16:04	-126.656	47.531	0	642.60	0	4.4180	0	34.2170	0	27.125	0	636.248	0	10.4	4	3.3	4	-1E+10	1	-1E+10	1	-1E+10	1	-1E+10	1	-1E+10	1	-1E+10	1
4902663	38	C	08/13/2024	16:04	-126.656	47.531	0	647.60	0	4.4170	0	34.2230	0	27.130	0	641.191	0	10.1	4	3.2	4	-1E+10	1	-1E+10	1	-1E+10	1	-1E+10	1	-1E+10	1	-1E+10	1
4902663	38	C	08/13/2024	16:04	-126.656	47.531	0	652.60	0	4.3950	0	34.2270	0	27.135	0	646.134	0	10.0	4	3.2	4	-1E+10	1	-1E+10	1	-1E+10	1	-1E+10	1	-1E+10	1	-1E+10	1
4902663	38	C	08/13/2024	16:04	-126.656	47.531	0	657.80	0	4.3940	0	34.2310	0	27.138	0	651.274	0	10.0	4	3.2	4	-1E+10	1	-1E+10	1	-1E+10	1	-1E+10	1	-1E+10	1	-1E+10	1
4902663	38	C	08/13/2024	16:04	-126.656	47.531	0	662.90	0	4.3540	0	34.2290	0	27.141	0	656.315	0	10.0	4	3.2	4	-1E+10	1	-1E+10	1	-1E+10	1	-1E+10	1	-1E+10	1	-1E+10	1
4902663	38	C	08/13/2024	16:04	-126.656	47.531	0	668.00	0	4.3030	0	34.2270	0	27.145	0	661.357	0	10.0	4	3.2	4	-1E+10	1	-1E+10	1	-1E+10	1	-1E+10	1	-1E+10	1	-1E+10	1
4902663	38	C	08/13/2024	16:04	-126.656	47.531	0	673.20	0	4.2680	0	34.2260	0	27.148	0	666.497	0	9.9	4	3.2	4	-1E+10	1	-1E+10	1	-1E+10	1	-1E+10	1	-1E+10	1	-1E+10	1
4902663	38	C	08/13/2024	16:04	-126.656	47.531	0	677.90	0	4.2640	0	34.2280	0	27.150	0	671.142	0	9.6	4	3.0	4	-1E+10	1	-1E+10	1	-1E+10	1	-1E+10	1	-1E+10	1	-1E+10	1
4902663	38	C	08/13/2024	16:04	-126.656	47.531	0	682.60	0	4.2850	0	34.2360	0	27.154	0	675.788	0	9.3	4	3.0	4	-1E+10	1	-1E+10	1	-1E+10	1	-1E+10	1	-1E+10	1	-1E+10	1
4902663	38	C	08/13/2024	16:04	-126.656	47.531	0	687.90	0	4.2570	0	34.2380	0	27.159	0	681.026	0	9.1	4	2.9	4	-1E+10	1	-1E+10	1	-1E+10	1	-1E+10	1	-1E+10	1	-1E+10	1
4902663	38	C	08/13/2024	16:04	-126.656	47.531	0	693.20	0	4.2670	0	34.2440	0	27.162	0	686.265	0	8.8	4	2.8	4	-1E+10	1	-1E+10	1	-1E+10	1	-1E+10	1	-1E+10	1	-1E+10	1
4902663	38	C	08/13/2024	16:04	-126.656	47.531	0	698.10	0	4.2730	0	34.2480	0	27.165	0	691.107	0	8.7	4	2.8	4	-1E+10	1	-1E+10	1	-1E+10	1	-1E+10	1	-1E+10	1	-1E+10	1
4902663	38	C	08/13/2024	16:04	-126.656	47.531	0	703.00	0	4.2350	0	34.2490	0	27.170	0	695.950	0	8.7	4	2.8	4	-1E+10	1	-1E+10	1	-1E+10	1	-1E+10	1	-1E+10	1	-1E+10	1
4902663	38	C	08/13/2024	16:04	-126.656	47.531	0	708.00	0	4.1940	0	34.2510	0	27.176	0	700.892	0	8.5	4	2.7	4	-1E+10	1	-1E+10	1	-1E+10	1	-1E+10	1	-1E+10	1	-1E+10	1
4902663	38	C	08/13/2024	16:04	-126.656	47.531	0	713.00	0	4.1930	0	34.2580	0	27.181	0	705.833	0	8.4	4	2.7	4	-1E+10	1	-1E+10	1	-1E+10	1	-1E+10	1	-1E+10	1	-1E+10	1
4902663	38	C	08/13/2024	16:04	-126.656	47.531	0	717.90	0	4.1770	0	34.2590	0	27.184	0	710.675	0	8.3	4	2.6	4	-1E+10	1	-1E+10	1	-1E+10	1	-1E+10	1	-1E+10	1	-1E+10	1
4902663	38	C	08/13/2024	16:04	-126.656	47.531	0	722.80	0	4.1620	0	34.2600	0	27.186	0	715.518	0	8.2	4	2.6	4	-1E+10	1	-1E+10	1	-1E+10	1	-1E+10	1	-1E+10	1	-1E+10	1
4902663	38	C	08/13/2024	16:04	-126.656	47.531	0	727.70	0	4.1550	0	34.2630	0	27.190	0	720.360	0	8.1	4	2.6	4	-1E+10	1	-1E+10	1	-1E+10	1	-1E+10	1	-1E+10	1	-1E+10	1
4902663	38	C	08/13/2024	16:04	-126.656	47.531	0	732.60	0	4.1320	0	34.2650	0	27.194	0	725.202	0	8.0	4	2.5	4	-1E+10	1	-1E+10	1	-1E+10	1	-1E+10	1	-1E+10	1	-1E+10	1
4902663	38	C	08/13/2024	16:04	-126.656	47.531	0	738.10	0	4.1150	0	34.2690	0	27.199	0	730.637	0	7.9	4	2.5	4	-1E+10	1	-1E+10	1	-1E+10	1	-1E+10	1	-1E+10	1	-1E+10	1
4902663	38	C	08/13/2024	16:04	-126.656	47.531	0	743.00	0	4.0760	0	34.2710	0	27.204	0	735.478	0	7.7	4	2.4	4	-1E+10	1	-1E+10	1	-1E+10	1	-1E+10	1	-1E+10	1	-1E+10	1
4902663	38	C	08/13/2024	16:04	-126.656	47.531	0	747.90	0	4.1100	0	34.2800	0	27.208	0	740.320	0	7.4	4	2.3	4	-1E+10	1	-1E+10	1	-1E+10	1	-1E+10	1	-1E+10	1	-1E+10	1
4902663	38	C	08/13/2024	16:04	-126.656	47.531	0	753.30	0	4.1050	0	34.2860	0	27.213	0	745.656	0	7.3	4	2.3	4	-1E+10	1	-1E+10	1	-1E+10	1	-1E+10	1	-1E+10	1	-1E+10	1
4902663	38	C	08/13/2024	16:04	-126.656	47.531	0	758.10	0	4.0890	0	34.2890	0	27.217	0	750.398	0	7.3	4	2.3	4	-1E+10	1	-1E+10	1	-1E+10	1	-1E+10	1	-1E+10	1	-1E+10	1
4902663	38	C	08/13/2024	16:04	-126.656	47.531	0	762.90	0	4.0650	0	34.2900	0	27.221	0	755.141	0	7.2	4	2.3	4	-1E+10	1	-1E+10	1	-1E+10	1	-1E+10	1	-1E+10	1	-1E+10	1
4902663	38	C	08/13/2024	16:04	-126.656	47.531	0	768.20	0	4.0740	0	34.2960	0	27.224	0	760.378	0	7.1	4	2.2	4	-1E+10	1	-1E+10	1	-1E+10	1	-1E+10	1	-1E+10	1	-1E+10	1
4902663	38	C	08/13/2024	16:04	-126.656	47.531	0	773.00	0	4.0740	0	34.3010	0	27.228	0	765.120	0	7.0	4	2.2	4	-1E+10	1	-1E+10	1	-1E+10	1	-1E+10	1	-1E+10	1	-1E+10	1
4902663	38	C	08/13/2024	16:04	-126.656	47.531	0	777.70	0	4.0660	0	34.3020	0	27.230	0	769.763	0	7.0	4	2.2	4	-1E+10	1	-1E+10	1	-1E+10	1	-1E+10	1	-1E+10	1	-1E+10	1
4902663	38	C	08/13/2024	16:04	-126.656	47.531	0	783.00	0	4.0590	0	34.3050	0	27.233	0	774.999	0	7.0	4	2.2	4	-1E+10	1	-1E+10	1	-1E+10	1	-1E+10	1	-1E+10	1	-1E+10	1
4902663	38	C	08/13/2024	16:04	-126.656	47.531	0	787.90	0	4.0450	0	34.3070	0	27.236	0	779.840	0	7.0	4	2.2	4	-1E+10	1	-1E+10	1	-1E+10	1	-1E+10	1	-1E+10	1	-1E+10	1
4902663	38	C	08/13/2024	16:04	-126.656	47.531	0	792.60	0	4.0180	0	34.3100	0	27.242	0	784.483	0	6.9	4	2.2	4	-1E+10	1	-1E+10	1	-1E+10	1	-1E+10	1	-1E+10	1	-1E+10	1
4902663	38	C	08/13/2024	16:04	-126.656	47.531	0	797.90	0	4.0010	0	34.3110	0	27.244	0	789.719	0	6.9	4	2.2	4	-1E+10	1	-1E+10	1	-1E+10	1	-1E+10	1	-1E+10	1	-1E+10	1
4902663	38	C	08/13/2024	16:04	-126.656	47.531	0	803.20	0	4.0070	0	34.3170	0	27.248	0	794.955	0	6.8	4	2.2	4	-1E+10	1	-1E+10	1	-1E+10	1	-1E+10	1	-1E+10	1	-1E+10	1
4902663	38	C	08/13/2024	16:04	-126.656	47.531	0	808.10	0	4.0060	0	34.3190	0	27.250	0	799.795	0	6.8	4	2.2	4	-1E+10	1	-1E+10	1	-1E+10	1	-1E+10	1	-1E+10	1	-1E+10	1
4902663	38	C	08/13/2024	16:04	-126.656	47.531	0	812.60	0	4.0020	0	34.3230	0	27.254	0	804.240	0	6.8	4	2.2	4	-1E+10	1	-1E+10	1	-1E+10	1	-1E+10	1	-1E+10	1	-1E+10	1
4902663	38	C	08/13/2024	16:04	-126.656	47.531	0	817.60	0	3.9760	0	34.3240	0	27.257	0	809.179	0	6.8	4	2.2	4	-1E+10	1	-1E+10	1	-1E+10	1	-1E+10	1	-1E+10	1	-1E+10	1
4902663	38	C	08/13/2024	16:04	-126.656	47.531	0	822.70	0	3.9620	0	34.3260	0	27.260	0	814.216	0	6.8	4	2.1	4	-1E+10	1	-1E+10	1	-1E+10	1	-1E+10	1	-1E+10	1	-1E+10	1
4902663	38	C	08/13/2024	16:04	-126.656	47.531	0	827.70	0	3.9480	0	34.3300	0	27.265	0	819.155	0	6.8	4	2.1	4	-1E+10	1	-1E+10	1	-1E+10	1	-1E+10	1	-1E+10	1	-1E+10	1
4902663	38	C	08/13/2024	16:04	-126.656	47.531	0	832.90	0	3.9380	0	34.3320	0	27.267	0	824.291	0	6.8	4	2.1	4	-1E+10	1	-1E+10	1	-1E+10	1	-1E+10	1	-1E+10	1	-1E+10	1
4902663	38	C	08/13/2024	16:04	-126.656	47.531	0	837.80	0	3.9290	0	34.3340	0	27.270	0	829.131	0	6.7	4	2.1	4	-1E+10	1	-1E+10	1	-1E+10	1	-1E+10	1	-1E+10	1	-1E+10	1
4902663	38	C	08/13/2024	16:04	-126.656	47.531	0	842.70	0	3.9100	0	34.3360	0	27.274	0	833.970	0	6.7	4	2.1	4	-1E+10	1	-1E+10	1	-1E+10	1	-1E+10	1	-1E+10	1	-1E+10	1
4902663	38	C	08/13/2024	16:04	-126.656	47.531	0	847.70	0	3.8940	0	34.3370	0	27.276	0	838.908	0	6.7	4	2.1	4	-1E+10	1	-1E+10	1	-1E+10	1	-1E+10	1	-1E+10	1	-1E+10	1
4902663	38	C	08/13/2024	16:04	-126.656	47.531	0	852.80	0	3.8780	0	34.3410	0	27.281	0	843.945	0	6.7	4	2.1	4	-1E+10	1	-1E+10	1	-1E+10	1	-1E+10	1	-1E+10	1	-1E+10	1
4902663	38	C	08/13/2024	16:04	-126.656	47.531	0	858.10	0	3.8590	0	34.3430	0	27.284	0	849.179	0	6.8	4	2.1	4	-1E+10	1	-1E+10	1	-1E+10	1	-1E+10	1	-1E+10	1	-1E+10	1
4902663	38	C	08/13/2024	16:04	-126.656	47.531	0	862.90	0	3.8450	0	34.3440	0	27.287	0	853.920	0	6.8	4	2.1	4	-1E+10	1	-1E+10	1	-1E+10	1	-1E+10	1	-1E+10	1	-1E+10	1
4902663	38	C	08/13/2024	16:04	-126.656	47.531	0	867.70	0	3.8300	0	34.3470	0	27.291	0	858.660	0	6.8	4	2.1	4	-1E+10	1	-1E+10	1	-1E+10	1	-1E+10	1	-1E+10	1	-1E+10	1
4902663	38	C	08/13/2024	16:04	-126.656	47.531	0	872.70	0	3.8160	0	34.3490	0	27.294	0	863.598	0	6.8	4	2.1	4	-1E+10	1	-1E+10	1	-1E+10	1	-1E+10	1	-1E+10	1	-1E+10	1
4902663	38	C	08/13/2024	16:04	-126.656	47.531	0	877.70	0	3.8080	0	34.3510	0	27.296	0	868.535	0	6.8	4	2.2	4	-1E+10	1	-1E+10	1	-1E+10	1	-1E+10	1	-1E+10	1	-1E+10	1
4902663	38	C	08/13/2024	16:04	-126.656	47.531	0	882.70	0	3.7950	0	34.3530	0	27.299	0	873.472	0	6.9	4	2.2	4	-1E+10	1	-1E+10	1	-1E+10	1	-1E+10	1	-1E+10	1	-1E+10	1
4902663	38	C	08/13/2024	16:04	-126.656	47.531	0	887.70	0	3.7740	0	34.3550	0	27.303	0	878.410	0	6.9	4	2.2	4	-1E+10	1	-1E+10	1	-1E+10	1	-1E+10	1	-1E+10	1	-1E+10	1
4902663	38	C	08/13/2024	16:04	-126.656	47.531	0	892.80	0	3.7650	0	34.3580	0	27.306	0	883.445	0	7.0	4	2.2	4	-1E+10	1	-1E+10	1	-1E+10	1	-1E+10	1	-1E+10	1	-1E+10	1
4902663	38	C	08/13/2024	16:04	-126.656	47.531	0	897.90	0	3.7490	0	34.3590	0	27.308	0	888.481	0	7.0	4	2.2	4	-1E+10	1	-1E+10	1	-1E+10	1	-1E+10	1	-1E+10	1	-1E+10	1
4902663	38	C	08/13/2024	16:04	-126.656	47.531	0	903.10	0	3.7330	0	34.3610	0	27.312	0	893.615	0	7.1	4	2.2	4	-1E+10	1	-1E+10	1	-1E+10	1	-1E+10	1	-1E+10	1	-1E+10	1
4902663	38	C	08/13/2024	16:04	-126.656	47.531	0	907.80	0	3.6990	0	34.3600	0	27.314	0	898.256	0	7.1	4	2.2	4	-1E+10	1	-1E+10	1	-1E+10	1	-1E+10	1	-1E+10	1	-1E+10	1
4902663	38	C	08/13/2024	16:04	-126.656	47.531	0	912.60	0	3.6860	0	34.3600	0	27.315	0	902.995	0	7.2	4	2.3	4	-1E+10	1	-1E+10	1	-1E+10	1	-1E+10	1	-1E+10	1	-1E+10	1
4902663	38	C	08/13/2024	16:04	-126.656	47.531	0	917.90	0	3.6710	0	34.3610	0	27.318	0	908.228	0	7.2	4	2.3	4	-1E+10	1	-1E+10	1	-1E+10	1	-1E+10	1	-1E+10	1	-1E+10	1
4902663	38	C	08/13/2024	16:04	-126.656	47.531	0	922.70	0	3.6690	0	34.3630	0	27.320	0	912.967	0	7.2	4	2.3	4	-1E+10	1	-1E+10	1	-1E+10	1	-1E+10	1	-1E+10	1	-1E+10	1
4902663	38	C	08/13/2024	16:04	-126.656	47.531	0	927.60	0	3.6660	0	34.3650	0	27.322	0	917.804	0	7.3	4	2.3	4	-1E+10	1	-1E+10	1	-1E+10	1	-1E+10	1	-1E+10	1	-1E+10	1
4902663	38	C	08/13/2024	16:04	-126.656	47.531	0	932.90	0	3.6610	0	34.3680	0	27.324	0	923.037	0	7.4	4	2.3	4	-1E+10	1	-1E+10	1	-1E+10	1	-1E+10	1	-1E+10	1	-1E+10	1
4902663	38	C	08/13/2024	16:04	-126.656	47.531	0	938.20	0	3.6570	0	34.3710	0	27.327	0	928.269	0	7.4	4	2.3	4	-1E+10	1	-1E+10	1	-1E+10	1	-1E+10	1	-1E+10	1	-1E+10	1
4902663	38	C	08/13/2024	16:04	-126.656	47.531	0	943.00	0	3.6400	0	34.3740	0	27.331	0	933.008	0	7.5	4	2.3	4	-1E+10	1	-1E+10	1	-1E+10	1	-1E+10	1	-1E+10	1	-1E+10	1
4902663	38	C	08/13/2024	16:04	-126.656	47.531	0	947.70	0	3.6400	0	34.3750	0	27.332	0	937.647	0	7.5	4	2.4	4	-1E+10	1	-1E+10	1	-1E+10	1	-1E+10	1	-1E+10	1	-1E+10	1
4902663	38	C	08/13/2024	16:04	-126.656	47.531	0	953.10	0	3.6370	0	34.3780	0	27.335	0	942.978	0	7.6	4	2.4	4	-1E+10	1	-1E+10	1	-1E+10	1	-1E+10	1	-1E+10	1	-1E+10	1
4902663	38	C	08/13/2024	16:04	-126.656	47.531	0	958.30	0	3.6250	0	34.3810	0	27.339	0	948.111	0	7.7	4	2.4	4	-1E+10	1	-1E+10	1	-1E+10	1	-1E+10	1	-1E+10	1	-1E+10	1
4902663	38	C	08/13/2024	16:04	-126.656	47.531	0	963.00	0	3.6160	0	34.3820	0	27.340	0	952.750	0	7.8	4	2.4	4	-1E+10	1	-1E+10	1	-1E+10	1	-1E+10	1	-1E+10	1	-1E+10	1
4902663	38	C	08/13/2024	16:04	-126.656	47.531	0	967.70	0	3.6090	0	34.3840	0	27.343	0	957.389	0	7.8	4	2.5	4	-1E+10	1	-1E+10	1	-1E+10	1	-1E+10	1	-1E+10	1	-1E+10	1
4902663	38	C	08/13/2024	16:04	-126.656	47.531	0	972.90	0	3.5940	0	34.3870	0	27.346	0	962.522	0	7.9	4	2.5	4	-1E+10	1	-1E+10	1	-1E+10	1	-1E+10	1	-1E+10	1	-1E+10	1
4902663	38	C	08/13/2024	16:04	-126.656	47.531	0	978.00	0	3.5810	0	34.3890	0	27.349	0	967.556	0	8.0	4	2.5	4	-1E+10	1	-1E+10	1	-1E+10	1	-1E+10	1	-1E+10	1	-1E+10	1
4902663	38	C	08/13/2024	16:04	-126.656	47.531	0	983.00	0	3.5640	0	34.3910	0	27.353	0	972.491	0	8.1	4	2.5	4	-1E+10	1	-1E+10	1	-1E+10	1	-1E+10	1	-1E+10	1	-1E+10	1
4902663	38	C	08/13/2024	16:04	-126.656	47.531	0	988.00	0	3.5500	0	34.3930	0	27.356	0	977.426	0	8.2	4	2.6	4	-1E+10	1	-1E+10	1	-1E+10	1	-1E+10	1	-1E+10	1	-1E+10	1
4902663	38	C	08/13/2024	16:04	-126.656	47.531	0	993.10	0	3.5330	0	34.3940	0	27.358	0	982.459	0	8.2	4	2.6	4	-1E+10	1	-1E+10	1	-1E+10	1	-1E+10	1	-1E+10	1	-1E+10	1
4902663	38	C	08/13/2024	16:04	-126.656	47.531	0	998.10	0	3.5200	0	34.3950	0	27.360	0	987.394	0	8.3	4	2.6	4	-1E+10	1	-1E+10	1	-1E+10	1	-1E+10	1	-1E+10	1	-1E+10	1
4902663	38	C	08/13/2024	16:04	-126.656	47.531	0	1005.40	0	3.4980	0	34.3970	0	27.364	0	994.598	0	8.4	4	2.6	4	-1E+10	1	-1E+10	1	-1E+10	1	-1E+10	1	-1E+10	1	-1E+10	1
4902663	38	C	08/13/2024	16:04	-126.656	47.531	0	1015.00	0	3.4550	0	34.3990	0	27.370	0	1004.072	0	8.6	4	2.7	4	-1E+10	1	-1E+10	1	-1E+10	1	-1E+10	1	-1E+10	1	-1E+10	1
4902663	38	C	08/13/2024	16:04	-126.656	47.531	0	1025.30	0	3.4500	0	34.4040	0	27.374	0	1014.236	0	8.8	4	2.8	4	-1E+10	1	-1E+10	1	-1E+10	1	-1E+10	1	-1E+10	1	-1E+10	1
4902663	38	C	08/13/2024	16:04	-126.656	47.531	0	1035.60	0	3.4440	0	34.4090	0	27.379	0	1024.400	0	9.0	4	2.8	4	-1E+10	1	-1E+10	1	-1E+10	1	-1E+10	1	-1E+10	1	-1E+10	1
4902663	38	C	08/13/2024	16:04	-126.656	47.531	0	1045.40	0	3.4300	0	34.4120	0	27.383	0	1034.070	0	9.3	4	2.9	4	-1E+10	1	-1E+10	1	-1E+10	1	-1E+10	1	-1E+10	1	-1E+10	1
4902663	38	C	08/13/2024	16:04	-126.656	47.531	0	1055.20	0	3.4010	0	34.4160	0	27.389	0	1043.739	0	9.5	4	3.0	4	-1E+10	1	-1E+10	1	-1E+10	1	-1E+10	1	-1E+10	1	-1E+10	1
4902663	38	C	08/13/2024	16:04	-126.656	47.531	0	1065.00	0	3.3720	0	34.4190	0	27.394	0	1053.408	0	9.7	4	3.0	4	-1E+10	1	-1E+10	1	-1E+10	1	-1E+10	1	-1E+10	1	-1E+10	1
4902663	38	C	08/13/2024	16:04	-126.656	47.531	0	1074.90	0	3.3390	0	34.4220	0	27.399	0	1063.176	0	10.1	4	3.1	4	-1E+10	1	-1E+10	1	-1E+10	1	-1E+10	1	-1E+10	1	-1E+10	1
4902663	38	C	08/13/2024	16:04	-126.656	47.531	0	1085.40	0	3.3030	0	34.4270	0	27.407	0	1073.534	0	10.4	4	3.2	4	-1E+10	1	-1E+10	1	-1E+10	1	-1E+10	1	-1E+10	1	-1E+10	1
4902663	38	C	08/13/2024	16:04	-126.656	47.531	0	1095.40	0	3.2720	0	34.4290	0	27.411	0	1083.399	0	10.6	4	3.3	4	-1E+10	1	-1E+10	1	-1E+10	1	-1E+10	1	-1E+10	1	-1E+10	1
4902663	38	C	08/13/2024	16:04	-126.656	47.531	0	1105.30	0	3.2450	0	34.4330	0	27.417	0	1093.165	0	10.9	4	3.4	4	-1E+10	1	-1E+10	1	-1E+10	1	-1E+10	1	-1E+10	1	-1E+10	1
4902663	38	C	08/13/2024	16:04	-126.656	47.531	0	1115.10	0	3.2210	0	34.4340	0	27.420	0	1102.831	0	11.1	4	3.4	4	-1E+10	1	-1E+10	1	-1E+10	1	-1E+10	1	-1E+10	1	-1E+10	1
4902663	38	C	08/13/2024	16:04	-126.656	47.531	0	1124.90	0	3.1930	0	34.4360	0	27.424	0	1112.498	0	11.3	4	3.5	4	-1E+10	1	-1E+10	1	-1E+10	1	-1E+10	1	-1E+10	1	-1E+10	1
4902663	38	C	08/13/2024	16:04	-126.656	47.531	0	1135.10	0	3.1670	0	34.4390	0	27.429	0	1122.558	0	11.6	4	3.6	4	-1E+10	1	-1E+10	1	-1E+10	1	-1E+10	1	-1E+10	1	-1E+10	1
4902663	38	C	08/13/2024	16:04	-126.656	47.531	0	1145.20	0	3.1450	0	34.4410	0	27.433	0	1132.519	0	11.9	4	3.7	4	-1E+10	1	-1E+10	1	-1E+10	1	-1E+10	1	-1E+10	1	-1E+10	1
4902663	38	C	08/13/2024	16:04	-126.656	47.531	0	1155.10	0	3.1210	0	34.4450	0	27.438	0	1142.283	0	12.2	4	3.8	4	-1E+10	1	-1E+10	1	-1E+10	1	-1E+10	1	-1E+10	1	-1E+10	1
4902663	38	C	08/13/2024	16:04	-126.656	47.531	0	1165.50	0	3.0870	0	34.4470	0	27.443	0	1152.539	0	12.3	4	3.8	4	-1E+10	1	-1E+10	1	-1E+10	1	-1E+10	1	-1E+10	1	-1E+10	1
4902663	38	C	08/13/2024	16:04	-126.656	47.531	0	1175.40	0	3.0600	0	34.4480	0	27.446	0	1162.301	0	12.5	4	3.9	4	-1E+10	1	-1E+10	1	-1E+10	1	-1E+10	1	-1E+10	1	-1E+10	1
4902663	38	C	08/13/2024	16:04	-126.656	47.531	0	1185.00	0	3.0420	0	34.4500	0	27.450	0	1171.768	0	12.7	4	3.9	4	-1E+10	1	-1E+10	1	-1E+10	1	-1E+10	1	-1E+10	1	-1E+10	1
4902663	38	C	08/13/2024	16:04	-126.656	47.531	0	1195.30	0	3.0260	0	34.4520	0	27.453	0	1181.924	0	13.0	4	4.0	4	-1E+10	1	-1E+10	1	-1E+10	1	-1E+10	1	-1E+10	1	-1E+10	1
4902663	38	C	08/13/2024	16:04	-126.656	47.531	0	1205.80	0	3.0060	0	34.4540	0	27.456	0	1192.276	0	13.4	4	4.1	4	-1E+10	1	-1E+10	1	-1E+10	1	-1E+10	1	-1E+10	1	-1E+10	1
4902663	38	C	08/13/2024	16:04	-126.656	47.531	0	1215.60	0	2.9790	0	34.4580	0	27.462	0	1201.938	0	13.7	4	4.2	4	-1E+10	1	-1E+10	1	-1E+10	1	-1E+10	1	-1E+10	1	-1E+10	1
4902663	38	C	08/13/2024	16:04	-126.656	47.531	0	1225.60	0	2.9650	0	34.4600	0	27.465	0	1211.797	0	13.9	4	4.3	4	-1E+10	1	-1E+10	1	-1E+10	1	-1E+10	1	-1E+10	1	-1E+10	1
4902663	38	C	08/13/2024	16:04	-126.656	47.531	0	1235.50	0	2.9520	0	34.4620	0	27.468	0	1221.557	0	14.2	4	4.4	4	-1E+10	1	-1E+10	1	-1E+10	1	-1E+10	1	-1E+10	1	-1E+10	1
4902663	38	C	08/13/2024	16:04	-126.656	47.531	0	1245.50	0	2.9370	0	34.4630	0	27.470	0	1231.415	0	14.5	4	4.5	4	-1E+10	1	-1E+10	1	-1E+10	1	-1E+10	1	-1E+10	1	-1E+10	1
4902663	38	C	08/13/2024	16:04	-126.656	47.531	0	1255.40	0	2.9180	0	34.4660	0	27.474	0	1241.174	0	14.8	4	4.6	4	-1E+10	1	-1E+10	1	-1E+10	1	-1E+10	1	-1E+10	1	-1E+10	1
4902663	38	C	08/13/2024	16:04	-126.656	47.531	0	1265.20	0	2.9020	0	34.4680	0	27.477	0	1250.834	0	15.0	4	4.6	4	-1E+10	1	-1E+10	1	-1E+10	1	-1E+10	1	-1E+10	1	-1E+10	1
4902663	38	C	08/13/2024	16:04	-126.656	47.531	0	1275.50	0	2.8870	0	34.4690	0	27.479	0	1260.986	0	15.3	4	4.7	4	-1E+10	1	-1E+10	1	-1E+10	1	-1E+10	1	-1E+10	1	-1E+10	1
4902663	38	C	08/13/2024	16:04	-126.656	47.531	0	1285.60	0	2.8730	0	34.4710	0	27.482	0	1270.940	0	15.7	4	4.8	4	-1E+10	1	-1E+10	1	-1E+10	1	-1E+10	1	-1E+10	1	-1E+10	1
4902663	38	C	08/13/2024	16:04	-126.656	47.531	0	1295.50	0	2.8550	0	34.4740	0	27.486	0	1280.697	0	16.1	4	4.9	4	-1E+10	1	-1E+10	1	-1E+10	1	-1E+10	1	-1E+10	1	-1E+10	1
4902663	38	C	08/13/2024	16:04	-126.656	47.531	0	1305.30	0	2.8390	0	34.4750	0	27.489	0	1290.356	0	16.4	4	5.0	4	-1E+10	1	-1E+10	1	-1E+10	1	-1E+10	1	-1E+10	1	-1E+10	1
4902663	38	C	08/13/2024	16:04	-126.656	47.531	0	1315.10	0	2.8160	0	34.4780	0	27.493	0	1300.013	0	16.8	4	5.2	4	-1E+10	1	-1E+10	1	-1E+10	1	-1E+10	1	-1E+10	1	-1E+10	1
4902663	38	C	08/13/2024	16:04	-126.656	47.531	0	1325.20	0	2.7880	0	34.4800	0	27.497	0	1309.966	0	17.2	4	5.3	4	-1E+10	1	-1E+10	1	-1E+10	1	-1E+10	1	-1E+10	1	-1E+10	1
4902663	38	C	08/13/2024	16:04	-126.656	47.531	0	1335.40	0	2.7660	0	34.4820	0	27.501	0	1320.017	0	17.6	4	5.4	4	-1E+10	1	-1E+10	1	-1E+10	1	-1E+10	1	-1E+10	1	-1E+10	1
4902663	38	C	08/13/2024	16:04	-126.656	47.531	0	1345.80	0	2.7430	0	34.4850	0	27.505	0	1330.264	0	18.1	4	5.6	4	-1E+10	1	-1E+10	1	-1E+10	1	-1E+10	1	-1E+10	1	-1E+10	1
4902663	38	C	08/13/2024	16:04	-126.656	47.531	0	1355.50	0	2.7160	0	34.4860	0	27.508	0	1339.821	0	18.4	4	5.7	4	-1E+10	1	-1E+10	1	-1E+10	1	-1E+10	1	-1E+10	1	-1E+10	1
4902663	38	C	08/13/2024	16:04	-126.656	47.531	0	1365.50	0	2.7000	0	34.4880	0	27.511	0	1349.674	0	18.9	4	5.8	4	-1E+10	1	-1E+10	1	-1E+10	1	-1E+10	1	-1E+10	1	-1E+10	1
4902663	38	C	08/13/2024	16:04	-126.656	47.531	0	1375.80	0	2.6800	0	34.4910	0	27.516	0	1359.821	0	19.5	4	6.0	4	-1E+10	1	-1E+10	1	-1E+10	1	-1E+10	1	-1E+10	1	-1E+10	1
4902663	38	C	08/13/2024	16:04	-126.656	47.531	0	1385.50	0	2.6630	0	34.4940	0	27.519	0	1369.377	0	20.1	4	6.2	4	-1E+10	1	-1E+10	1	-1E+10	1	-1E+10	1	-1E+10	1	-1E+10	1
4902663	38	C	08/13/2024	16:04	-126.656	47.531	0	1395.40	0	2.6470	0	34.4980	0	27.524	0	1379.129	0	20.7	4	6.3	4	-1E+10	1	-1E+10	1	-1E+10	1	-1E+10	1	-1E+10	1	-1E+10	1
4902663	38	C	08/13/2024	16:04	-126.656	47.531	0	1405.60	0	2.6270	0	34.5000	0	27.527	0	1389.177	0	21.1	4	6.5	4	-1E+10	1	-1E+10	1	-1E+10	1	-1E+10	1	-1E+10	1	-1E+10	1
4902663	38	C	08/13/2024	16:04	-126.656	47.531	0	1415.60	0	2.6070	0	34.5010	0	27.530	0	1399.027	0	21.6	4	6.6	4	-1E+10	1	-1E+10	1	-1E+10	1	-1E+10	1	-1E+10	1	-1E+10	1
4902663	38	C	08/13/2024	16:04	-126.656	47.531	0	1425.40	0	2.5880	0	34.5040	0	27.534	0	1408.680	0	22.2	4	6.8	4	-1E+10	1	-1E+10	1	-1E+10	1	-1E+10	1	-1E+10	1	-1E+10	1
4902663	38	C	08/13/2024	16:04	-126.656	47.531	0	1435.50	0	2.5680	0	34.5050	0	27.537	0	1418.627	0	22.6	4	6.9	4	-1E+10	1	-1E+10	1	-1E+10	1	-1E+10	1	-1E+10	1	-1E+10	1
4902663	38	C	08/13/2024	16:04	-126.656	47.531	0	1445.90	0	2.5480	0	34.5060	0	27.539	0	1428.870	0	23.0	4	7.0	4	-1E+10	1	-1E+10	1	-1E+10	1	-1E+10	1	-1E+10	1	-1E+10	1
4902663	38	C	08/13/2024	16:04	-126.656	47.531	0	1455.50	0	2.5320	0	34.5070	0	27.541	0	1438.324	0	23.4	4	7.1	4	-1E+10	1	-1E+10	1	-1E+10	1	-1E+10	1	-1E+10	1	-1E+10	1
4902663	38	C	08/13/2024	16:04	-126.656	47.531	0	1465.30	0	2.5240	0	34.5080	0	27.543	0	1447.975	0	23.8	4	7.3	4	-1E+10	1	-1E+10	1	-1E+10	1	-1E+10	1	-1E+10	1	-1E+10	1
4902663	38	C	08/13/2024	16:04	-126.656	47.531	0	1475.30	0	2.5160	0	34.5110	0	27.546	0	1457.822	0	24.4	4	7.5	4	-1E+10	1	-1E+10	1	-1E+10	1	-1E+10	1	-1E+10	1	-1E+10	1
4902663	38	C	08/13/2024	16:04	-126.656	47.531	0	1485.40	0	2.4960	0	34.5140	0	27.550	0	1467.767	0	25.0	4	7.6	4	-1E+10	1	-1E+10	1	-1E+10	1	-1E+10	1	-1E+10	1	-1E+10	1
4902663	38	C	08/13/2024	16:04	-126.656	47.531	0	1495.60	0	2.4750	0	34.5160	0	27.554	0	1477.811	0	25.6	4	7.8	4	-1E+10	1	-1E+10	1	-1E+10	1	-1E+10	1	-1E+10	1	-1E+10	1
4902663	38	C	08/13/2024	16:04	-126.656	47.531	0	1505.30	0	2.4610	0	34.5180	0	27.556	0	1487.361	0	26.2	4	8.0	4	-1E+10	1	-1E+10	1	-1E+10	1	-1E+10	1	-1E+10	1	-1E+10	1
4902663	38	C	08/13/2024	16:04	-126.656	47.531	0	1515.20	0	2.4530	0	34.5200	0	27.559	0	1497.108	0	26.9	4	8.2	4	-1E+10	1	-1E+10	1	-1E+10	1	-1E+10	1	-1E+10	1	-1E+10	1
4902663	38	C	08/13/2024	16:04	-126.656	47.531	0	1525.00	0	2.4490	0	34.5240	0	27.562	0	1506.756	0	27.7	4	8.5	4	-1E+10	1	-1E+10	1	-1E+10	1	-1E+10	1	-1E+10	1	-1E+10	1
4902663	38	C	08/13/2024	16:04	-126.656	47.531	0	1535.40	0	2.4490	0	34.5270	0	27.565	0	1516.994	0	28.3	4	8.6	4	-1E+10	1	-1E+10	1	-1E+10	1	-1E+10	1	-1E+10	1	-1E+10	1
4902663	38	C	08/13/2024	16:04	-126.656	47.531	0	1545.80	0	2.4410	0	34.5280	0	27.566	0	1527.232	0	28.8	4	8.8	4	-1E+10	1	-1E+10	1	-1E+10	1	-1E+10	1	-1E+10	1	-1E+10	1
4902663	38	C	08/13/2024	16:04	-126.656	47.531	0	1555.50	0	2.4350	0	34.5300	0	27.568	0	1536.780	0	29.0	4	8.8	4	-1E+10	1	-1E+10	1	-1E+10	1	-1E+10	1	-1E+10	1	-1E+10	1
4902663	38	C	08/13/2024	16:04	-126.656	47.531	0	1565.20	0	2.4090	0	34.5300	0	27.571	0	1546.328	0	29.1	4	8.9	4	-1E+10	1	-1E+10	1	-1E+10	1	-1E+10	1	-1E+10	1	-1E+10	1
4902663	38	C	08/13/2024	16:04	-126.656	47.531	0	1575.30	0	2.3950	0	34.5300	0	27.572	0	1556.269	0	29.8	4	9.1	4	-1E+10	1	-1E+10	1	-1E+10	1	-1E+10	1	-1E+10	1	-1E+10	1
4902663	38	C	08/13/2024	16:04	-126.656	47.531	0	1585.30	0	2.3830	0	34.5320	0	27.575	0	1566.112	0	30.4	4	9.2	4	-1E+10	1	-1E+10	1	-1E+10	1	-1E+10	1	-1E+10	1	-1E+10	1
4902663	38	C	08/13/2024	16:04	-126.656	47.531	0	1595.10	0	2.3780	0	34.5340	0	27.577	0	1575.757	0	31.1	4	9.5	4	-1E+10	1	-1E+10	1	-1E+10	1	-1E+10	1	-1E+10	1	-1E+10	1
4902663	38	C	08/13/2024	16:04	-126.656	47.531	0	1605.50	0	2.3710	0	34.5380	0	27.580	0	1585.991	0	32.0	4	9.7	4	-1E+10	1	-1E+10	1	-1E+10	1	-1E+10	1	-1E+10	1	-1E+10	1
4902663	38	C	08/13/2024	16:04	-126.656	47.531	0	1615.70	0	2.3590	0	34.5400	0	27.583	0	1596.029	0	32.7	4	9.9	4	-1E+10	1	-1E+10	1	-1E+10	1	-1E+10	1	-1E+10	1	-1E+10	1
4902663	38	C	08/13/2024	16:04	-126.656	47.531	0	1625.60	0	2.3430	0	34.5420	0	27.586	0	1605.771	0	33.3	4	10.1	4	-1E+10	1	-1E+10	1	-1E+10	1	-1E+10	1	-1E+10	1	-1E+10	1
4902663	38	C	08/13/2024	16:04	-126.656	47.531	0	1635.30	0	2.3270	0	34.5440	0	27.589	0	1615.316	0	33.9	4	10.3	4	-1E+10	1	-1E+10	1	-1E+10	1	-1E+10	1	-1E+10	1	-1E+10	1
4902663	38	C	08/13/2024	16:04	-126.656	47.531	0	1645.60	0	2.3150	0	34.5450	0	27.591	0	1625.450	0	34.4	4	10.5	4	-1E+10	1	-1E+10	1	-1E+10	1	-1E+10	1	-1E+10	1	-1E+10	1
4902663	38	C	08/13/2024	16:04	-126.656	47.531	0	1655.80	0	2.3000	0	34.5460	0	27.593	0	1635.486	0	35.1	4	10.7	4	-1E+10	1	-1E+10	1	-1E+10	1	-1E+10	1	-1E+10	1	-1E+10	1
4902663	38	C	08/13/2024	16:04	-126.656	47.531	0	1665.40	0	2.2830	0	34.5480	0	27.596	0	1644.931	0	35.8	4	10.9	4	-1E+10	1	-1E+10	1	-1E+10	1	-1E+10	1	-1E+10	1	-1E+10	1
4902663	38	C	08/13/2024	16:04	-126.656	47.531	0	1675.40	0	2.2650	0	34.5500	0	27.599	0	1654.769	0	36.6	4	11.1	4	-1E+10	1	-1E+10	1	-1E+10	1	-1E+10	1	-1E+10	1	-1E+10	1
4902663	38	C	08/13/2024	16:04	-126.656	47.531	0	1685.20	0	2.2440	0	34.5530	0	27.603	0	1664.410	0	37.8	4	11.5	4	-1E+10	1	-1E+10	1	-1E+10	1	-1E+10	1	-1E+10	1	-1E+10	1
4902663	38	C	08/13/2024	16:04	-126.656	47.531	0	1695.30	0	2.2120	0	34.5570	0	27.609	0	1674.346	0	39.2	4	11.9	4	-1E+10	1	-1E+10	1	-1E+10	1	-1E+10	1	-1E+10	1	-1E+10	1
4902663	38	C	08/13/2024	16:04	-126.656	47.531	0	1705.50	0	2.1860	0	34.5600	0	27.614	0	1684.379	0	40.2	4	12.2	4	-1E+10	1	-1E+10	1	-1E+10	1	-1E+10	1	-1E+10	1	-1E+10	1
4902663	38	C	08/13/2024	16:04	-126.656	47.531	0	1715.60	0	2.1680	0	34.5630	0	27.617	0	1694.314	0	41.0	4	12.4	4	-1E+10	1	-1E+10	1	-1E+10	1	-1E+10	1	-1E+10	1	-1E+10	1
4902663	38	C	08/13/2024	16:04	-126.656	47.531	0	1725.60	0	2.1560	0	34.5640	0	27.619	0	1704.149	0	41.5	4	12.6	4	-1E+10	1	-1E+10	1	-1E+10	1	-1E+10	1	-1E+10	1	-1E+10	1
4902663	38	C	08/13/2024	16:04	-126.656	47.531	0	1735.30	0	2.1470	0	34.5650	0	27.621	0	1713.690	0	42.1	4	12.7	4	-1E+10	1	-1E+10	1	-1E+10	1	-1E+10	1	-1E+10	1	-1E+10	1
4902663	38	C	08/13/2024	16:04	-126.656	47.531	0	1745.10	0	2.1350	0	34.5670	0	27.623	0	1723.328	0	42.6	4	12.9	4	-1E+10	1	-1E+10	1	-1E+10	1	-1E+10	1	-1E+10	1	-1E+10	1
4902663	38	C	08/13/2024	16:04	-126.656	47.531	0	1755.00	0	2.1280	0	34.5680	0	27.625	0	1733.064	0	43.1	4	13.0	4	-1E+10	1	-1E+10	1	-1E+10	1	-1E+10	1	-1E+10	1	-1E+10	1
4902663	38	C	08/13/2024	16:04	-126.656	47.531	0	1765.10	0	2.1180	0	34.5700	0	27.627	0	1742.996	0	43.7	4	13.2	4	-1E+10	1	-1E+10	1	-1E+10	1	-1E+10	1	-1E+10	1	-1E+10	1
4902663	38	C	08/13/2024	16:04	-126.656	47.531	0	1775.20	0	2.1070	0	34.5710	0	27.629	0	1752.928	0	44.4	4	13.4	4	-1E+10	1	-1E+10	1	-1E+10	1	-1E+10	1	-1E+10	1	-1E+10	1
4902663	38	C	08/13/2024	16:04	-126.656	47.531	0	1785.60	0	2.0940	0	34.5730	0	27.632	0	1763.155	0	45.1	4	13.6	4	-1E+10	1	-1E+10	1	-1E+10	1	-1E+10	1	-1E+10	1	-1E+10	1
4902663	38	C	08/13/2024	16:04	-126.656	47.531	0	1795.70	0	2.0800	0	34.5750	0	27.634	0	1773.085	0	45.9	4	13.9	4	-1E+10	1	-1E+10	1	-1E+10	1	-1E+10	1	-1E+10	1	-1E+10	1
4902663	38	C	08/13/2024	16:04	-126.656	47.531	0	1805.70	0	2.0680	0	34.5760	0	27.636	0	1782.918	0	46.6	4	14.1	4	-1E+10	1	-1E+10	1	-1E+10	1	-1E+10	1	-1E+10	1	-1E+10	1
4902663	38	C	08/13/2024	16:04	-126.656	47.531	0	1815.70	0	2.0400	0	34.5770	0	27.639	0	1792.749	0	47.2	4	14.3	4	-1E+10	1	-1E+10	1	-1E+10	1	-1E+10	1	-1E+10	1	-1E+10	1
4902663	38	C	08/13/2024	16:04	-126.656	47.531	0	1825.40	0	2.0290	0	34.5790	0	27.642	0	1802.286	0	48.0	4	14.5	4	-1E+10	1	-1E+10	1	-1E+10	1	-1E+10	1	-1E+10	1	-1E+10	1
4902663	38	C	08/13/2024	16:04	-126.656	47.531	0	1835.30	0	2.0230	0	34.5810	0	27.644	0	1812.018	0	48.5	4	14.6	4	-1E+10	1	-1E+10	1	-1E+10	1	-1E+10	1	-1E+10	1	-1E+10	1
4902663	38	C	08/13/2024	16:04	-126.656	47.531	0	1845.30	0	2.0170	0	34.5820	0	27.645	0	1821.848	0	48.9	4	14.8	4	-1E+10	1	-1E+10	1	-1E+10	1	-1E+10	1	-1E+10	1	-1E+10	1
4902663	38	C	08/13/2024	16:04	-126.656	47.531	0	1855.50	0	2.0060	0	34.5830	0	27.647	0	1831.875	0	49.5	4	14.9	4	-1E+10	1	-1E+10	1	-1E+10	1	-1E+10	1	-1E+10	1	-1E+10	1
4902663	38	C	08/13/2024	16:04	-126.656	47.531	0	1865.90	0	1.9960	0	34.5840	0	27.649	0	1842.097	0	50.0	4	15.1	4	-1E+10	1	-1E+10	1	-1E+10	1	-1E+10	1	-1E+10	1	-1E+10	1
4902663	38	C	08/13/2024	16:04	-126.656	47.531	0	1875.40	0	1.9890	0	34.5850	0	27.650	0	1851.435	0	50.5	4	15.2	4	-1E+10	1	-1E+10	1	-1E+10	1	-1E+10	1	-1E+10	1	-1E+10	1
4902663	38	C	08/13/2024	16:04	-126.656	47.531	0	1885.10	0	1.9830	0	34.5860	0	27.651	0	1860.968	0	50.9	4	15.3	4	-1E+10	1	-1E+10	1	-1E+10	1	-1E+10	1	-1E+10	1	-1E+10	1
4902663	38	C	08/13/2024	16:04	-126.656	47.531	0	1895.10	0	1.9790	0	34.5870	0	27.652	0	1870.796	0	51.4	4	15.5	4	-1E+10	1	-1E+10	1	-1E+10	1	-1E+10	1	-1E+10	1	-1E+10	1
4902663	38	C	08/13/2024	16:04	-126.656	47.531	0	1905.10	0	1.9720	0	34.5890	0	27.655	0	1880.624	0	51.9	4	15.6	4	-1E+10	1	-1E+10	1	-1E+10	1	-1E+10	1	-1E+10	1	-1E+10	1
4902663	38	C	08/13/2024	16:04	-126.656	47.531	0	1915.00	0	1.9630	0	34.5900	0	27.656	0	1890.353	0	52.5	4	15.8	4	-1E+10	1	-1E+10	1	-1E+10	1	-1E+10	1	-1E+10	1	-1E+10	1
4902663	38	C	08/13/2024	16:04	-126.656	47.531	0	1925.40	0	1.9530	0	34.5920	0	27.659	0	1900.573	0	53.2	4	16.0	4	-1E+10	1	-1E+10	1	-1E+10	1	-1E+10	1	-1E+10	1	-1E+10	1
4902663	38	C	08/13/2024	16:04	-126.656	47.531	0	1935.70	0	1.9420	0	34.5930	0	27.660	0	1910.694	0	53.9	4	16.2	4	-1E+10	1	-1E+10	1	-1E+10	1	-1E+10	1	-1E+10	1	-1E+10	1
4902663	38	C	08/13/2024	16:04	-126.656	47.531	0	1945.40	0	1.9360	0	34.5940	0	27.662	0	1920.225	0	54.3	4	16.4	4	-1E+10	1	-1E+10	1	-1E+10	1	-1E+10	1	-1E+10	1	-1E+10	1
4902663	38	C	08/13/2024	16:04	-126.656	47.531	0	1955.20	0	1.9310	0	34.5960	0	27.664	0	1929.853	0	54.8	4	16.5	4	-1E+10	1	-1E+10	1	-1E+10	1	-1E+10	1	-1E+10	1	-1E+10	1
4902663	38	C	08/13/2024	16:04	-126.656	47.531	0	1965.20	0	1.9200	0	34.5970	0	27.665	0	1939.678	0	55.4	4	16.7	4	-1E+10	1	-1E+10	1	-1E+10	1	-1E+10	1	-1E+10	1	-1E+10	1
4902663	38	C	08/13/2024	16:04	-126.656	47.531	0	1975.10	0	1.9170	0	34.5990	0	27.667	0	1949.404	0	55.8	4	16.8	4	-1E+10	1	-1E+10	1	-1E+10	1	-1E+10	1	-1E+10	1	-1E+10	1
4902663	38	C	08/13/2024	16:04	-126.656	47.531	0	1985.00	0	1.9110	0	34.6000	0	27.669	0	1959.130	0	56.1	4	16.9	4	-1E+10	1	-1E+10	1	-1E+10	1	-1E+10	1	-1E+10	1	-1E+10	1
4902663	38	C	08/13/2024	16:04	-126.656	47.531	0	1995.10	0	1.9040	0	34.6010	0	27.670	0	1969.052	0	56.5	4	17.0	4	-1E+10	1	-1E+10	1	-1E+10	1	-1E+10	1	-1E+10	1	-1E+10	1
4902663	38	C	08/13/2024	16:04	-126.656	47.531	0	2003.60	0	1.8980	0	34.6020	0	27.671	0	1977.402	0	56.3	4	16.9	4	-1E+10	1	-1E+10	1	-1E+10	1	-1E+10	1	-1E+10	1	-1E+10	1
4902663	38	C	08/13/2024	16:04	-126.656	47.531	0																										
4902663	39	C	08/23/2024	11:10	-126.937	47.820	0	0.00	0	17.5880	0	31.8690	0	22.975	0	0.000	0	231.6	4	96.2	4	-1E+10	1	-1E+10	1	-1E+10	1	-1E+10	1	-1E+10	1	-1E+10	1
4902663	39	C	08/23/2024	11:10	-126.937	47.820	0	0.80	0	17.5910	0	31.8670	0	22.973	0	0.793	0	231.6	4	96.2	4	-1E+10	1	-1E+10	1	-1E+10	1	-1E+10	1	-1E+10	1	-1E+10	1
4902663	39	C	08/23/2024	11:10	-126.937	47.820	0	2.00	0	17.5950	0	31.8360	0	22.949	0	1.983	0	231.9	4	96.3	4	-1E+10	1	-1E+10	1	-1E+10	1	-1E+10	1	-1E+10	1	-1E+10	1
4902663	39	C	08/23/2024	11:10	-126.937	47.820	0	3.00	0	17.5920	0	31.8290	0	22.944	0	2.975	0	232.0	4	96.3	4	-1E+10	1	-1E+10	1	-1E+10	1	-1E+10	1	-1E+10	1	-1E+10	1
4902663	39	C	08/23/2024	11:10	-126.937	47.820	0	3.90	0	17.5500	0	31.8670	0	22.983	0	3.867	0	232.3	4	96.4	4	-1E+10	1	-1E+10	1	-1E+10	1	-1E+10	1	-1E+10	1	-1E+10	1
4902663	39	C	08/23/2024	11:10	-126.937	47.820	0	5.00	0	17.5070	0	31.8920	0	23.012	0	4.958	0	232.6	4	96.4	4	-1E+10	1	-1E+10	1	-1E+10	1	-1E+10	1	-1E+10	1	-1E+10	1
4902663	39	C	08/23/2024	11:10	-126.937	47.820	0	5.80	0	17.4380	0	31.8860	0	23.024	0	5.751	0	232.7	4	96.4	4	-1E+10	1	-1E+10	1	-1E+10	1	-1E+10	1	-1E+10	1	-1E+10	1
4902663	39	C	08/23/2024	11:10	-126.937	47.820	0	6.90	0	17.3840	0	31.8860	0	23.037	0	6.842	0	233.1	4	96.4	4	-1E+10	1	-1E+10	1	-1E+10	1	-1E+10	1	-1E+10	1	-1E+10	1
4902663	39	C	08/23/2024	11:10	-126.937	47.820	0	8.00	0	17.3490	0	31.8840	0	23.044	0	7.933	0	233.3	4	96.4	4	-1E+10	1	-1E+10	1	-1E+10	1	-1E+10	1	-1E+10	1	-1E+10	1
4902663	39	C	08/23/2024	11:10	-126.937	47.820	0	8.80	0	17.3360	0	31.8830	0	23.046	0	8.726	0	233.5	4	96.5	4	-1E+10	1	-1E+10	1	-1E+10	1	-1E+10	1	-1E+10	1	-1E+10	1
4902663	39	C	08/23/2024	11:10	-126.937	47.820	0	10.00	0	17.3260	0	31.8830	0	23.048	0	9.916	0	233.9	4	96.6	4	-1E+10	1	-1E+10	1	-1E+10	1	-1E+10	1	-1E+10	1	-1E+10	1
4902663	39	C	08/23/2024	11:10	-126.937	47.820	0	11.20	0	17.3200	0	31.8820	0	23.049	0	11.106	0	234.2	4	96.8	4	-1E+10	1	-1E+10	1	-1E+10	1	-1E+10	1	-1E+10	1	-1E+10	1
4902663	39	C	08/23/2024	11:10	-126.937	47.820	0	12.00	0	17.3110	0	31.8830	0	23.052	0	11.899	0	234.6	4	96.9	4	-1E+10	1	-1E+10	1	-1E+10	1	-1E+10	1	-1E+10	1	-1E+10	1
4902663	39	C	08/23/2024	11:10	-126.937	47.820	0	12.80	0	17.2980	0	31.8830	0	23.055	0	12.692	0	235.1	4	97.1	4	-1E+10	1	-1E+10	1	-1E+10	1	-1E+10	1	-1E+10	1	-1E+10	1
4902663	39	C	08/23/2024	11:10	-126.937	47.820	0	13.90	0	17.2500	0	31.8850	0	23.068	0	13.783	0	236.0	4	97.4	4	-1E+10	1	-1E+10	1	-1E+10	1	-1E+10	1	-1E+10	1	-1E+10	1
4902663	39	C	08/23/2024	11:10	-126.937	47.820	0	15.00	0	17.1970	0	31.8830	0	23.079	0	14.874	0	236.9	4	97.7	4	-1E+10	1	-1E+10	1	-1E+10	1	-1E+10	1	-1E+10	1	-1E+10	1
4902663	39	C	08/23/2024	11:10	-126.937	47.820	0	15.90	0	17.1440	0	31.8830	0	23.091	0	15.766	0	238.2	4	98.1	4	-1E+10	1	-1E+10	1	-1E+10	1	-1E+10	1	-1E+10	1	-1E+10	1
4902663	39	C	08/23/2024	11:10	-126.937	47.820	0	16.90	0	17.0710	0	31.8750	0	23.102	0	16.758	0	240.3	4	98.8	4	-1E+10	1	-1E+10	1	-1E+10	1	-1E+10	1	-1E+10	1	-1E+10	1
4902663	39	C	08/23/2024	11:10	-126.937	47.820	0	17.90	0	17.0190	0	31.8720	0	23.112	0	17.749	0	243.2	4	99.9	4	-1E+10	1	-1E+10	1	-1E+10	1	-1E+10	1	-1E+10	1	-1E+10	1
4902663	39	C	08/23/2024	11:10	-126.937	47.820	0	19.10	0	16.8160	0	31.8600	0	23.150	0	18.939	0	247.9	4	101.4	4	-1E+10	1	-1E+10	1	-1E+10	1	-1E+10	1	-1E+10	1	-1E+10	1
4902663	39	C	08/23/2024	11:10	-126.937	47.820	0	19.80	0	16.4640	0	31.8790	0	23.245	0	19.633	0	251.6	4	102.3	4	-1E+10	1	-1E+10	1	-1E+10	1	-1E+10	1	-1E+10	1	-1E+10	1
4902663	39	C	08/23/2024	11:10	-126.937	47.820	0	21.00	0	15.6410	0	31.9250	0	23.465	0	20.823	0	256.2	4	102.5	4	-1E+10	1	-1E+10	1	-1E+10	1	-1E+10	1	-1E+10	1	-1E+10	1
4902663	39	C	08/23/2024	11:10	-126.937	47.820	0	22.10	0	15.1810	0	31.9630	0	23.594	0	21.914	0	259.1	4	102.8	4	-1E+10	1	-1E+10	1	-1E+10	1	-1E+10	1	-1E+10	1	-1E+10	1
4902663	39	C	08/23/2024	11:10	-126.937	47.820	0	22.90	0	15.0160	0	31.9720	0	23.637	0	22.707	0	260.6	4	103.0	4	-1E+10	1	-1E+10	1	-1E+10	1	-1E+10	1	-1E+10	1	-1E+10	1
4902663	39	C	08/23/2024	11:10	-126.937	47.820	0	24.00	0	14.6440	0	31.9840	0	23.725	0	23.798	0	262.7	4	103.1	4	-1E+10	1	-1E+10	1	-1E+10	1	-1E+10	1	-1E+10	1	-1E+10	1
4902663	39	C	08/23/2024	11:10	-126.937	47.820	0	25.20	0	14.5420	0	31.9910	0	23.752	0	24.987	0	264.1	4	103.4	4	-1E+10	1	-1E+10	1	-1E+10	1	-1E+10	1	-1E+10	1	-1E+10	1
4902663	39	C	08/23/2024	11:10	-126.937	47.820	0	26.00	0	14.4680	0	31.9950	0	23.771	0	25.781	0	265.1	4	103.7	4	-1E+10	1	-1E+10	1	-1E+10	1	-1E+10	1	-1E+10	1	-1E+10	1
4902663	39	C	08/23/2024	11:10	-126.937	47.820	0	26.70	0	14.4600	0	31.9980	0	23.775	0	26.475	0	266.0	4	104.0	4	-1E+10	1	-1E+10	1	-1E+10	1	-1E+10	1	-1E+10	1	-1E+10	1
4902663	39	C	08/23/2024	11:10	-126.937	47.820	0	27.90	0	14.4520	0	31.9960	0	23.775	0	27.664	0	267.7	4	104.7	4	-1E+10	1	-1E+10	1	-1E+10	1	-1E+10	1	-1E+10	1	-1E+10	1
4902663	39	C	08/23/2024	11:10	-126.937	47.820	0	29.00	0	14.0770	0	32.0480	0	23.893	0	28.755	0	269.9	4	104.8	4	-1E+10	1	-1E+10	1	-1E+10	1	-1E+10	1	-1E+10	1	-1E+10	1
4902663	39	C	08/23/2024	11:10	-126.937	47.820	0	29.80	0	13.8660	0	32.0380	0	23.928	0	29.548	0	272.0	4	105.1	4	-1E+10	1	-1E+10	1	-1E+10	1	-1E+10	1	-1E+10	1	-1E+10	1
4902663	39	C	08/23/2024	11:10	-126.937	47.820	0	31.00	0	13.5800	0	32.0520	0	23.997	0	30.738	0	273.2	4	105.0	4	-1E+10	1	-1E+10	1	-1E+10	1	-1E+10	1	-1E+10	1	-1E+10	1
4902663	39	C	08/23/2024	11:10	-126.937	47.820	0	32.20	0	13.2950	0	32.0260	0	24.033	0	31.928	0	274.6	4	104.9	4	-1E+10	1	-1E+10	1	-1E+10	1	-1E+10	1	-1E+10	1	-1E+10	1
4902663	39	C	08/23/2024	11:10	-126.937	47.820	0	33.00	0	13.2120	0	32.0310	0	24.054	0	32.721	0	274.8	4	104.8	4	-1E+10	1	-1E+10	1	-1E+10	1	-1E+10	1	-1E+10	1	-1E+10	1
4902663	39	C	08/23/2024	11:10	-126.937	47.820	0	33.80	0	13.1370	0	32.0370	0	24.073	0	33.514	0	275.3	4	104.9	4	-1E+10	1	-1E+10	1	-1E+10	1	-1E+10	1	-1E+10	1	-1E+10	1
4902663	39	C	08/23/2024	11:10	-126.937	47.820	0	34.60	0	12.6440	0	32.0280	0	24.162	0	34.307	0	276.5	4	104.2	4	-1E+10	1	-1E+10	1	-1E+10	1	-1E+10	1	-1E+10	1	-1E+10	1
4902663	39	C	08/23/2024	11:10	-126.937	47.820	0	35.60	0	12.4030	0	32.0520	0	24.226	0	35.299	0	276.7	4	103.8	4	-1E+10	1	-1E+10	1	-1E+10	1	-1E+10	1	-1E+10	1	-1E+10	1
4902663	39	C	08/23/2024	11:10	-126.937	47.820	0	36.50	0	12.1470	0	32.0800	0	24.296	0	36.191	0	276.2	4	103.1	4	-1E+10	1	-1E+10	1	-1E+10	1	-1E+10	1	-1E+10	1	-1E+10	1
4902663	39	C	08/23/2024	11:10	-126.937	47.820	0	37.90	0	11.8610	0	32.1200	0	24.380	0	37.579	0	275.1	4	102.1	4	-1E+10	1	-1E+10	1	-1E+10	1	-1E+10	1	-1E+10	1	-1E+10	1
4902663	39	C	08/23/2024	11:10	-126.937	47.820	0	39.40	0	11.6930	0	32.1200	0	24.411	0	39.066	0	273.9	4	101.3	4	-1E+10	1	-1E+10	1	-1E+10	1	-1E+10	1	-1E+10	1	-1E+10	1
4902663	39	C	08/23/2024	11:10	-126.937	47.820	0	40.30	0	11.4810	0	32.1580	0	24.479	0	39.959	0	272.7	4	100.4	4	-1E+10	1	-1E+10	1	-1E+10	1	-1E+10	1	-1E+10	1	-1E+10	1
4902663	39	C	08/23/2024	11:10	-126.937	47.820	0	41.20	0	11.4520	0	32.1770	0	24.499	0	40.851	0	271.9	4	100.1	4	-1E+10	1	-1E+10	1	-1E+10	1	-1E+10	1	-1E+10	1	-1E+10	1
4902663	39	C	08/23/2024	11:10	-126.937	47.820	0	41.90	0	11.3730	0	32.2290	0	24.554	0	41.545	0	271.2	4	99.7	4	-1E+10	1	-1E+10	1	-1E+10	1	-1E+10	1	-1E+10	1	-1E+10	1
4902663	39	C	08/23/2024	11:10	-126.937	47.820	0	43.00	0	11.3730	0	32.2500	0	24.570	0	42.635	0	269.6	4	99.1	4	-1E+10	1	-1E+10	1	-1E+10	1	-1E+10	1	-1E+10	1	-1E+10	1
4902663	39	C	08/23/2024	11:10	-126.937	47.820	0	44.20	0	11.2580	0	32.3120	0	24.639	0	43.825	0	268.3	4	98.5	4	-1E+10	1	-1E+10	1	-1E+10	1	-1E+10	1	-1E+10	1	-1E+10	1
4902663	39	C	08/23/2024	11:10	-126.937	47.820	0	44.90	0	11.1850	0	32.3270	0	24.663	0	44.519	0	267.6	4	98.1	4	-1E+10	1	-1E+10	1	-1E+10	1	-1E+10	1	-1E+10	1	-1E+10	1
4902663	39	C	08/23/2024	11:10	-126.937	47.820	0	46.00	0	11.1050	0	32.3200	0	24.672	0	45.610	0	266.6	4	97.5	4	-1E+10	1	-1E+10	1	-1E+10	1	-1E+10	1	-1E+10	1	-1E+10	1
4902663	39	C	08/23/2024	11:10	-126.937	47.820	0	47.20	0	10.9740	0	32.3180	0	24.694	0	46.799	0	265.2	4	96.7	4	-1E+10	1	-1E+10	1	-1E+10	1	-1E+10	1	-1E+10	1	-1E+10	1
4902663	39	C	08/23/2024	11:10	-126.937	47.820	0	48.00	0	10.8300	0	32.3260	0	24.725	0	47.592	0	264.5	4	96.2	4	-1E+10	1	-1E+10	1	-1E+10	1	-1E+10	1	-1E+10	1	-1E+10	1
4902663	39	C	08/23/2024	11:10	-126.937	47.820	0	48.80	0	10.7210	0	32.3240	0	24.742	0	48.386	0	263.7	4	95.7	4	-1E+10	1	-1E+10	1	-1E+10	1	-1E+10	1	-1E+10	1	-1E+10	1
4902663	39	C	08/23/2024	11:10	-126.937	47.820	0	50.00	0	10.5600	0	32.3280	0	24.773	0	49.575	0	262.9	4	95.1	4	-1E+10	1	-1E+10	1	-1E+10	1	-1E+10	1	-1E+10	1	-1E+10	1
4902663	39	C	08/23/2024	11:10	-126.937	47.820	0	51.20	0	10.3070	0	32.3290	0	24.817	0	50.765	0	262.0	4	94.2	4	-1E+10	1	-1E+10	1	-1E+10	1	-1E+10	1	-1E+10	1	-1E+10	1
4902663	39	C	08/23/2024	11:10	-126.937	47.820	0	52.10	0	10.1050	0	32.3400	0	24.859	0	51.657	0	261.4	4	93.6	4	-1E+10	1	-1E+10	1	-1E+10	1	-1E+10	1	-1E+10	1	-1E+10	1
4902663	39	C	08/23/2024	11:10	-126.937	47.820	0	53.00	0	9.9020	0	32.3400	0	24.893	0	52.549	0	261.0	4	93.1	4	-1E+10	1	-1E+10	1	-1E+10	1	-1E+10	1	-1E+10	1	-1E+10	1
4902663	39	C	08/23/2024	11:10	-126.937	47.820	0	53.90	0	9.8110	0	32.3360	0	24.905	0	53.442	0	260.5	4	92.7	4	-1E+10	1	-1E+10	1	-1E+10	1	-1E+10	1	-1E+10	1	-1E+10	1
4902663	39	C	08/23/2024	11:10	-126.937	47.820	0	54.70	0	9.7930	0	32.3370	0	24.909	0	54.235	0	259.6	4	92.3	4	-1E+10	1	-1E+10	1	-1E+10	1	-1E+10	1	-1E+10	1	-1E+10	1
4902663	39	C	08/23/2024	11:10	-126.937	47.820	0	55.60	0	9.7380	0	32.3380	0	24.918	0	55.127	0	258.9	4	92.0	4	-1E+10	1	-1E+10	1	-1E+10	1	-1E+10	1	-1E+10	1	-1E+10	1
4902663	39	C	08/23/2024	11:10	-126.937	47.820	0	56.90	0	9.6870	0	32.3400	0	24.928	0	56.416	0	257.6	4	91.4	4	-1E+10	1	-1E+10	1	-1E+10	1	-1E+10	1	-1E+10	1	-1E+10	1
4902663	39	C	08/23/2024	11:10	-126.937	47.820	0	58.20	0	9.6320	0	32.3380	0	24.936	0	57.704	0	256.1	4	90.8	4	-1E+10	1	-1E+10	1	-1E+10	1	-1E+10	1	-1E+10	1	-1E+10	1
4902663	39	C	08/23/2024	11:10	-126.937	47.820	0	59.00	0	9.5930	0	32.3420	0	24.945	0	58.498	0	254.9	4	90.3	4	-1E+10	1	-1E+10	1	-1E+10	1	-1E+10	1	-1E+10	1	-1E+10	1
4902663	39	C	08/23/2024	11:10	-126.937	47.820	0	59.90	0	9.4660	0	32.3740	0	24.990	0	59.390	0	253.6	4	89.6	4	-1E+10	1	-1E+10	1	-1E+10	1	-1E+10	1	-1E+10	1	-1E+10	1
4902663	39	C	08/23/2024	11:10	-126.937	47.820	0	60.80	0	9.3860	0	32.3510	0	24.985	0	60.282	0	252.3	4	89.0	4	-1E+10	1	-1E+10	1	-1E+10	1	-1E+10	1	-1E+10	1	-1E+10	1
4902663	39	C	08/23/2024	11:10	-126.937	47.820	0	61.70	0	9.3280	0	32.3600	0	25.001	0	61.174	0	250.7	4	88.3	4	-1E+10	1	-1E+10	1	-1E+10	1	-1E+10	1	-1E+10	1	-1E+10	1
4902663	39	C	08/23/2024	11:10	-126.937	47.820	0	62.60	0	9.2310	0	32.3700	0	25.025	0	62.066	0	249.2	4	87.6	4	-1E+10	1	-1E+10	1	-1E+10	1	-1E+10	1	-1E+10	1	-1E+10	1
4902663	39	C	08/23/2024	11:10	-126.937	47.820	0	63.90	0	9.1140	0	32.3720	0	25.044	0	63.355	0	247.1	4	86.6	4	-1E+10	1	-1E+10	1	-1E+10	1	-1E+10	1	-1E+10	1	-1E+10	1
4902663	39	C	08/23/2024	11:10	-126.937	47.820	0	65.30	0	9.0490	0	32.3750	0	25.057	0	64.743	0	244.8	4	85.7	4	-1E+10	1	-1E+10	1	-1E+10	1	-1E+10	1	-1E+10	1	-1E+10	1
4902663	39	C	08/23/2024	11:10	-126.937	47.820	0	66.10	0	8.9260	0	32.3820	0	25.081	0	65.536	0	243.1	4	84.9	4	-1E+10	1	-1E+10	1	-1E+10	1	-1E+10	1	-1E+10	1	-1E+10	1
4902663	39	C	08/23/2024	11:10	-126.937	47.820	0	67.00	0	8.8690	0	32.3930	0	25.099	0	66.428	0	240.7	4	83.9	4	-1E+10	1	-1E+10	1	-1E+10	1	-1E+10	1	-1E+10	1	-1E+10	1
4902663	39	C	08/23/2024	11:10	-126.937	47.820	0	67.90	0	8.8280	0	32.4120	0	25.120	0	67.320	0	238.0	4	82.9	4	-1E+10	1	-1E+10	1	-1E+10	1	-1E+10	1	-1E+10	1	-1E+10	1
4902663	39	C	08/23/2024	11:10	-126.937	47.820	0	68.80	0	8.8320	0	32.4190	0	25.125	0	68.212	0	235.3	4	82.0	4	-1E+10	1	-1E+10	1	-1E+10	1	-1E+10	1	-1E+10	1	-1E+10	1
4902663	39	C	08/23/2024	11:10	-126.937	47.820	0	69.70	0	8.8370	0	32.4350	0	25.137	0	69.105	0	232.8	4	81.1	4	-1E+10	1	-1E+10	1	-1E+10	1	-1E+10	1	-1E+10	1	-1E+10	1
4902663	39	C	08/23/2024	11:10	-126.937	47.820	0	70.90	0	8.8280	0	32.4700	0	25.165	0	70.294	0	228.4	4	79.6	4	-1E+10	1	-1E+10	1	-1E+10	1	-1E+10	1	-1E+10	1	-1E+10	1
4902663	39	C	08/23/2024	11:10	-126.937	47.820	0	72.30	0	8.7950	0	32.5070	0	25.200	0	71.682	0	224.4	4	78.2	4	-1E+10	1	-1E+10	1	-1E+10	1	-1E+10	1	-1E+10	1	-1E+10	1
4902663	39	C	08/23/2024	11:10	-126.937	47.820	0	73.20	0	8.7670	0	32.5260	0	25.219	0	72.574	0	221.7	4	77.2	4	-1E+10	1	-1E+10	1	-1E+10	1	-1E+10	1	-1E+10	1	-1E+10	1
4902663	39	C	08/23/2024	11:10	-126.937	47.820	0	74.10	0	8.7220	0	32.5670	0	25.258	0	73.466	0	219.3	4	76.3	4	-1E+10	1	-1E+10	1	-1E+10	1	-1E+10	1	-1E+10	1	-1E+10	1
4902663	39	C	08/23/2024	11:10	-126.937	47.820	0	74.90	0	8.7000	0	32.5700	0	25.263	0	74.259	0	216.9	4	75.4	4	-1E+10	1	-1E+10	1	-1E+10	1	-1E+10	1	-1E+10	1	-1E+10	1
4902663	39	C	08/23/2024	11:10	-126.937	47.820	0	75.70	0	8.6780	0	32.5760	0	25.271	0	75.052	0	214.5	4	74.6	4	-1E+10	1	-1E+10	1	-1E+10	1	-1E+10	1	-1E+10	1	-1E+10	1
4902663	39	C	08/23/2024	11:10	-126.937	47.820	0	77.00	0	8.6240	0	32.5960	0	25.295	0	76.341	0	210.3	4	73.0	4	-1E+10	1	-1E+10	1	-1E+10	1	-1E+10	1	-1E+10	1	-1E+10	1
4902663	39	C	08/23/2024	11:10	-126.937	47.820	0	78.30	0	8.5220	0	32.6140	0	25.325	0	77.629	0	205.9	4	71.3	4	-1E+10	1	-1E+10	1	-1E+10	1	-1E+10	1	-1E+10	1	-1E+10	1
4902663	39	C	08/23/2024	11:10	-126.937	47.820	0	79.00	0	8.4990	0	32.6400	0	25.349	0	78.323	0	202.6	4	70.2	4	-1E+10	1	-1E+10	1	-1E+10	1	-1E+10	1	-1E+10	1	-1E+10	1
4902663	39	C	08/23/2024	11:10	-126.937	47.820	0	79.80	0	8.4560	0	32.6900	0	25.394	0	79.116	0	200.6	4	69.5	4	-1E+10	1	-1E+10	1	-1E+10	1	-1E+10	1	-1E+10	1	-1E+10	1
4902663	39	C	08/23/2024	11:10	-126.937	47.820	0	80.90	0	8.4470	0	32.7010	0	25.404	0	80.207	0	197.7	4	68.4	4	-1E+10	1	-1E+10	1	-1E+10	1	-1E+10	1	-1E+10	1	-1E+10	1
4902663	39	C	08/23/2024	11:10	-126.937	47.820	0	82.00	0	8.4400	0	32.7070	0	25.410	0	81.297	0	199.3	4	69.0	4	-1E+10	1	-1E+10	1	-1E+10	1	-1E+10	1	-1E+10	1	-1E+10	1
4902663	39	C	08/23/2024	11:10	-126.937	47.820	0	83.00	0	8.4100	0	32.7300	0	25.433	0	82.288	0	196.1	4	67.8	4	-1E+10	1	-1E+10	1	-1E+10	1	-1E+10	1	-1E+10	1	-1E+10	1
4902663	39	C	08/23/2024	11:10	-126.937	47.820	0	83.90	0	8.3750	0	32.7540	0	25.457	0	83.180	0	193.6	4	66.9	4	-1E+10	1	-1E+10	1	-1E+10	1	-1E+10	1	-1E+10	1	-1E+10	1
4902663	39	C	08/23/2024	11:10	-126.937	47.820	0	84.80	0	8.3600	0	32.7610	0	25.464	0	84.073	0	190.2	4	65.8	4	-1E+10	1	-1E+10	1	-1E+10	1	-1E+10	1	-1E+10	1	-1E+10	1
4902663	39	C	08/23/2024	11:10	-126.937	47.820	0	86.00	0	8.3340	0	32.7990	0	25.498	0	85.262	0	186.0	4	64.3	4	-1E+10	1	-1E+10	1	-1E+10	1	-1E+10	1	-1E+10	1	-1E+10	1
4902663	39	C	08/23/2024	11:10	-126.937	47.820	0	87.00	0	8.3050	0	32.8310	0	25.527	0	86.253	0	182.4	4	63.0	4	-1E+10	1	-1E+10	1	-1E+10	1	-1E+10	1	-1E+10	1	-1E+10	1
4902663	39	C	08/23/2024	11:10	-126.937	47.820	0	87.80	0	8.2700	0	32.8460	0	25.544	0	87.046	0	179.8	4	62.1	4	-1E+10	1	-1E+10	1	-1E+10	1	-1E+10	1	-1E+10	1	-1E+10	1
4902663	39	C	08/23/2024	11:10	-126.937	47.820	0	88.90	0	8.2910	0	32.9000	0	25.584	0	88.136	0	176.3	4	60.9	4	-1E+10	1	-1E+10	1	-1E+10	1	-1E+10	1	-1E+10	1	-1E+10	1
4902663	39	C	08/23/2024	11:10	-126.937	47.820	0	90.20	0	8.2790	0	32.9520	0	25.626	0	89.425	0	172.6	4	59.6	4	-1E+10	1	-1E+10	1	-1E+10	1	-1E+10	1	-1E+10	1	-1E+10	1
4902663	39	C	08/23/2024	11:10	-126.937	47.820	0	91.00	0	8.2430	0	32.9810	0	25.654	0	90.218	0	169.8	4	58.6	4	-1E+10	1	-1E+10	1	-1E+10	1	-1E+10	1	-1E+10	1	-1E+10	1
4902663	39	C	08/23/2024	11:10	-126.937	47.820	0	91.90	0	8.2190	0	33.0240	0	25.692	0	91.110	0	167.4	4	57.8	4	-1E+10	1	-1E+10	1	-1E+10	1	-1E+10	1	-1E+10	1	-1E+10	1
4902663	39	C	08/23/2024	11:10	-126.937	47.820	0	92.80	0	8.2150	0	33.0400	0	25.705	0	92.002	0	165.2	4	57.0	4	-1E+10	1	-1E+10	1	-1E+10	1	-1E+10	1	-1E+10	1	-1E+10	1
4902663	39	C	08/23/2024	11:10	-126.937	47.820	0	93.70	0	8.2150	0	33.0660	0	25.725	0	92.894	0	162.5	4	56.1	4	-1E+10	1	-1E+10	1	-1E+10	1	-1E+10	1	-1E+10	1	-1E+10	1
4902663	39	C	08/23/2024	11:10	-126.937	47.820	0	94.70	0	8.2200	0	33.0990	0	25.750	0	93.885	0	159.6	4	55.1	4	-1E+10	1	-1E+10	1	-1E+10	1	-1E+10	1	-1E+10	1	-1E+10	1
4902663	39	C	08/23/2024	11:10	-126.937	47.820	0	95.60	0	8.2310	0	33.1460	0	25.786	0	94.777	0	157.8	4	54.5	4	-1E+10	1	-1E+10	1	-1E+10	1	-1E+10	1	-1E+10	1	-1E+10	1
4902663	39	C	08/23/2024	11:10	-126.937	47.820	0	96.60	0	8.2350	0	33.1540	0	25.791	0	95.769	0	156.2	4	54.0	4	-1E+10	1	-1E+10	1	-1E+10	1	-1E+10	1	-1E+10	1	-1E+10	1
4902663	39	C	08/23/2024	11:10	-126.937	47.820	0	97.60	0	8.2430	0	33.1690	0	25.802	0	96.760	0	154.3	4	53.3	4	-1E+10	1	-1E+10	1	-1E+10	1	-1E+10	1	-1E+10	1	-1E+10	1
4902663	39	C	08/23/2024	11:10	-126.937	47.820	0	98.60	0	8.2590	0	33.2050	0	25.828	0	97.751	0	152.6	4	52.8	4	-1E+10	1	-1E+10	1	-1E+10	1	-1E+10	1	-1E+10	1	-1E+10	1
4902663	39	C	08/23/2024	11:10	-126.937	47.820	0	99.60	0	8.2550	0	33.2120	0	25.834	0	98.742	0	150.9	4	52.2	4	-1E+10	1	-1E+10	1	-1E+10	1	-1E+10	1	-1E+10	1	-1E+10	1
4902663	39	C	08/23/2024	11:10	-126.937	47.820	0	100.60	0	8.2570	0	33.2320	0	25.849	0	99.733	0	149.3	4	51.7	4	-1E+10	1	-1E+10	1	-1E+10	1	-1E+10	1	-1E+10	1	-1E+10	1
4902663	39	C	08/23/2024	11:10	-126.937	47.820	0	101.60	0	8.2540	0	33.2590	0	25.871	0	100.724	0	147.9	4	51.2	4	-1E+10	1	-1E+10	1	-1E+10	1	-1E+10	1	-1E+10	1	-1E+10	1
4902663	39	C	08/23/2024	11:10	-126.937	47.820	0	102.70	0	8.2470	0	33.2720	0	25.882	0	101.815	0	146.6	4	50.7	4	-1E+10	1	-1E+10	1	-1E+10	1	-1E+10	1	-1E+10	1	-1E+10	1
4902663	39	C	08/23/2024	11:10	-126.937	47.820	0	103.70	0	8.1890	0	33.3230	0	25.931	0	102.806	0	145.6	4	50.3	4	-1E+10	1	-1E+10	1	-1E+10	1	-1E+10	1	-1E+10	1	-1E+10	1
4902663	39	C	08/23/2024	11:10	-126.937	47.820	0	104.70	0	8.1540	0	33.3430	0	25.952	0	103.797	0	144.5	4	49.9	4	-1E+10	1	-1E+10	1	-1E+10	1	-1E+10	1	-1E+10	1	-1E+10	1
4902663	39	C	08/23/2024	11:10	-126.937	47.820	0	105.70	0	8.1810	0	33.3610	0	25.962	0	104.788	0	143.4	4	49.6	4	-1E+10	1	-1E+10	1	-1E+10	1	-1E+10	1	-1E+10	1	-1E+10	1
4902663	39	C	08/23/2024	11:10	-126.937	47.820	0	106.80	0	8.1450	0	33.3760	0	25.979	0	105.878	0	142.5	4	49.3	4	-1E+10	1	-1E+10	1	-1E+10	1	-1E+10	1	-1E+10	1	-1E+10	1
4902663	39	C	08/23/2024	11:10	-126.937	47.820	0	107.80	0	8.0860	0	33.4020	0	26.008	0	106.869	0	141.6	4	48.9	4	-1E+10	1	-1E+10	1	-1E+10	1	-1E+10	1	-1E+10	1	-1E+10	1
4902663	39	C	08/23/2024	11:10	-126.937	47.820	0	108.80	0	8.0860	0	33.4190	0	26.021	0	107.860	0	140.6	4	48.5	4	-1E+10	1	-1E+10	1	-1E+10	1	-1E+10	1	-1E+10	1	-1E+10	1
4902663	39	C	08/23/2024	11:10	-126.937	47.820	0	109.80	0	8.0890	0	33.4440	0	26.041	0	108.851	0	139.9	4	48.3	4	-1E+10	1	-1E+10	1	-1E+10	1	-1E+10	1	-1E+10	1	-1E+10	1
4902663	39	C	08/23/2024	11:10	-126.937	47.820	0	110.80	0	8.0260	0	33.4550	0	26.059	0	109.843	0	138.8	4	47.9	4	-1E+10	1	-1E+10	1	-1E+10	1	-1E+10	1	-1E+10	1	-1E+10	1
4902663	39	C	08/23/2024	11:10	-126.937	47.820	0	111.90	0	8.0210	0	33.4640	0	26.066	0	110.933	0	137.1	4	47.3	4	-1E+10	1	-1E+10	1	-1E+10	1	-1E+10	1	-1E+10	1	-1E+10	1
4902663	39	C	08/23/2024	11:10	-126.937	47.820	0	112.90	0	8.0420	0	33.4960	0	26.088	0	111.924	0	136.1	4	47.0	4	-1E+10	1	-1E+10	1	-1E+10	1	-1E+10	1	-1E+10	1	-1E+10	1
4902663	39	C	08/23/2024	11:10	-126.937	47.820	0	114.00	0	8.0510	0	33.5350	0	26.118	0	113.014	0	135.7	4	46.9	4	-1E+10	1	-1E+10	1	-1E+10	1	-1E+10	1	-1E+10	1	-1E+10	1
4902663	39	C	08/23/2024	11:10	-126.937	47.820	0	114.70	0	7.9810	0	33.5390	0	26.131	0	113.708	0	135.5	4	46.7	4	-1E+10	1	-1E+10	1	-1E+10	1	-1E+10	1	-1E+10	1	-1E+10	1
4902663	39	C	08/23/2024	11:10	-126.937	47.820	0	115.90	0	7.9270	0	33.5480	0	26.146	0	114.897	0	134.3	4	46.3	4	-1E+10	1	-1E+10	1	-1E+10	1	-1E+10	1	-1E+10	1	-1E+10	1
4902663	39	C	08/23/2024	11:10	-126.937	47.820	0	117.00	0	7.9100	0	33.5590	0	26.157	0	115.987	0	133.2	4	45.9	4	-1E+10	1	-1E+10	1	-1E+10	1	-1E+10	1	-1E+10	1	-1E+10	1
4902663	39	C	08/23/2024	11:10	-126.937	47.820	0	117.80	0	7.9080	0	33.5860	0	26.179	0	116.780	0	132.5	4	45.6	4	-1E+10	1	-1E+10	1	-1E+10	1	-1E+10	1	-1E+10	1	-1E+10	1
4902663	39	C	08/23/2024	11:10	-126.937	47.820	0	119.00	0	7.8890	0	33.5960	0	26.189	0	117.969	0	131.4	4	45.2	4	-1E+10	1	-1E+10	1	-1E+10	1	-1E+10	1	-1E+10	1	-1E+10	1
4902663	39	C	08/23/2024	11:10	-126.937	47.820	0	120.20	0	7.8640	0	33.6110	0	26.205	0	119.159	0	130.4	4	44.8	4	-1E+10	1	-1E+10	1	-1E+10	1	-1E+10	1	-1E+10	1	-1E+10	1
4902663	39	C	08/23/2024	11:10	-126.937	47.820	0	120.90	0	7.8660	0	33.6180	0	26.210	0	119.852	0	129.9	4	44.7	4	-1E+10	1	-1E+10	1	-1E+10	1	-1E+10	1	-1E+10	1	-1E+10	1
4902663	39	C	08/23/2024	11:10	-126.937	47.820	0	121.70	0	7.8500	0	33.6310	0	26.223	0	120.645	0	129.5	4	44.5	4	-1E+10	1	-1E+10	1	-1E+10	1	-1E+10	1	-1E+10	1	-1E+10	1
4902663	39	C	08/23/2024	11:10	-126.937	47.820	0	122.90	0	7.8410	0	33.6370	0	26.229	0	121.834	0	128.9	4	44.3	4	-1E+10	1	-1E+10	1	-1E+10	1	-1E+10	1	-1E+10	1	-1E+10	1
4902663	39	C	08/23/2024	11:10	-126.937	47.820	0	124.20	0	7.8520	0	33.6640	0	26.248	0	123.123	0	128.7	4	44.3	4	-1E+10	1	-1E+10	1	-1E+10	1	-1E+10	1	-1E+10	1	-1E+10	1
4902663	39	C	08/23/2024	11:10	-126.937	47.820	0	125.00	0	7.8270	0	33.6680	0	26.255	0	123.916	0	128.6	4	44.2	4	-1E+10	1	-1E+10	1	-1E+10	1	-1E+10	1	-1E+10	1	-1E+10	1
4902663	39	C	08/23/2024	11:10	-126.937	47.820	0	125.80	0	7.8210	0	33.6710	0	26.258	0	124.708	0	128.3	4	44.1	4	-1E+10	1	-1E+10	1	-1E+10	1	-1E+10	1	-1E+10	1	-1E+10	1
4902663	39	C	08/23/2024	11:10	-126.937	47.820	0	127.00	0	7.8010	0	33.6750	0	26.264	0	125.898	0	127.6	4	43.8	4	-1E+10	1	-1E+10	1	-1E+10	1	-1E+10	1	-1E+10	1	-1E+10	1
4902663	39	C	08/23/2024	11:10	-126.937	47.820	0	128.30	0	7.7940	0	33.6930	0	26.280	0	127.186	0	127.1	4	43.7	4	-1E+10	1	-1E+10	1	-1E+10	1	-1E+10	1	-1E+10	1	-1E+10	1
4902663	39	C	08/23/2024	11:10	-126.937	47.820	0	129.20	0	7.7790	0	33.7010	0	26.288	0	128.078	0	126.8	4	43.5	4	-1E+10	1	-1E+10	1	-1E+10	1	-1E+10	1	-1E+10	1	-1E+10	1
4902663	39	C	08/23/2024	11:10	-126.937	47.820	0	130.10	0	7.7660	0	33.7050	0	26.293	0	128.970	0	126.3	4	43.4	4	-1E+10	1	-1E+10	1	-1E+10	1	-1E+10	1	-1E+10	1	-1E+10	1
4902663	39	C	08/23/2024	11:10	-126.937	47.820	0	130.90	0	7.7580	0	33.7100	0	26.298	0	129.763	0	125.9	4	43.2	4	-1E+10	1	-1E+10	1	-1E+10	1	-1E+10	1	-1E+10	1	-1E+10	1
4902663	39	C	08/23/2024	11:10	-126.937	47.820	0	131.80	0	7.7530	0	33.7130	0	26.301	0	130.654	0	125.3	4	43.0	4	-1E+10	1	-1E+10	1	-1E+10	1	-1E+10	1	-1E+10	1	-1E+10	1
4902663	39	C	08/23/2024	11:10	-126.937	47.820	0	132.70	0	7.7410	0	33.7220	0	26.310	0	131.546	0	124.7	4	42.8	4	-1E+10	1	-1E+10	1	-1E+10	1	-1E+10	1	-1E+10	1	-1E+10	1
4902663	39	C	08/23/2024	11:10	-126.937	47.820	0	133.60	0	7.7280	0	33.7300	0	26.318	0	132.438	0	124.3	4	42.7	4	-1E+10	1	-1E+10	1	-1E+10	1	-1E+10	1	-1E+10	1	-1E+10	1
4902663	39	C	08/23/2024	11:10	-126.937	47.820	0	134.50	0	7.7230	0	33.7330	0	26.321	0	133.330	0	123.7	4	42.5	4	-1E+10	1	-1E+10	1	-1E+10	1	-1E+10	1	-1E+10	1	-1E+10	1
4902663	39	C	08/23/2024	11:10	-126.937	47.820	0	135.90	0	7.7030	0	33.7460	0	26.334	0	134.717	0	123.2	4	42.3	4	-1E+10	1	-1E+10	1	-1E+10	1	-1E+10	1	-1E+10	1	-1E+10	1
4902663	39	C	08/23/2024	11:10	-126.937	47.820	0	137.30	0	7.6690	0	33.7530	0	26.345	0	136.105	0	122.6	4	42.0	4	-1E+10	1	-1E+10	1	-1E+10	1	-1E+10	1	-1E+10	1	-1E+10	1
4902663	39	C	08/23/2024	11:10	-126.937	47.820	0	138.20	0	7.6550	0	33.7550	0	26.348	0	136.997	0	122.1	4	41.9	4	-1E+10	1	-1E+10	1	-1E+10	1	-1E+10	1	-1E+10	1	-1E+10	1
4902663	39	C	08/23/2024	11:10	-126.937	47.820	0	139.10	0	7.6500	0	33.7610	0	26.354	0	137.889	0	121.7	4	41.7	4	-1E+10	1	-1E+10	1	-1E+10	1	-1E+10	1	-1E+10	1	-1E+10	1
4902663	39	C	08/23/2024	11:10	-126.937	47.820	0	140.00	0	7.6510	0	33.7610	0	26.354	0	138.780	0	121.1	4	41.5	4	-1E+10	1	-1E+10	1	-1E+10	1	-1E+10	1	-1E+10	1	-1E+10	1
4902663	39	C	08/23/2024	11:10	-126.937	47.820	0	140.90	0	7.6460	0	33.7670	0	26.359	0	139.672	0	120.6	4	41.3	4	-1E+10	1	-1E+10	1	-1E+10	1	-1E+10	1	-1E+10	1	-1E+10	1
4902663	39	C	08/23/2024	11:10	-126.937	47.820	0	141.80	0	7.6040	0	33.7760	0	26.372	0	140.564	0	120.0	4	41.1	4	-1E+10	1	-1E+10	1	-1E+10	1	-1E+10	1	-1E+10	1	-1E+10	1
4902663	39	C	08/23/2024	11:10	-126.937	47.820	0	142.70	0	7.5960	0	33.7830	0	26.379	0	141.456	0	119.3	4	40.8	4	-1E+10	1	-1E+10	1	-1E+10	1	-1E+10	1	-1E+10	1	-1E+10	1
4902663	39	C	08/23/2024	11:10	-126.937	47.820	0	143.60	0	7.5630	0	33.7800	0	26.381	0	142.348	0	118.4	4	40.5	4	-1E+10	1	-1E+10	1	-1E+10	1	-1E+10	1	-1E+10	1	-1E+10	1
4902663	39	C	08/23/2024	11:10	-126.937	47.820	0	144.60	0	7.5760	0	33.7970	0	26.393	0	143.339	0	117.9	4	40.3	4	-1E+10	1	-1E+10	1	-1E+10	1	-1E+10	1	-1E+10	1	-1E+10	1
4902663	39	C	08/23/2024	11:10	-126.937	47.820	0	145.50	0	7.5720	0	33.8010	0	26.397	0	144.231	0	117.3	4	40.2	4	-1E+10	1	-1E+10	1	-1E+10	1	-1E+10	1	-1E+10	1	-1E+10	1
4902663	39	C	08/23/2024	11:10	-126.937	47.820	0	146.90	0	7.5270	0	33.8090	0	26.409	0	145.618	0	116.6	4	39.8	4	-1E+10	1	-1E+10	1	-1E+10	1	-1E+10	1	-1E+10	1	-1E+10	1
4902663	39	C	08/23/2024	11:10	-126.937	47.820	0	148.30	0	7.4800	0	33.8170	0	26.422	0	147.005	0	115.5	4	39.4	4	-1E+10	1	-1E+10	1	-1E+10	1	-1E+10	1	-1E+10	1	-1E+10	1
4902663	39	C	08/23/2024	11:10	-126.937	47.820	0	149.30	0	7.4930	0	33.8230	0	26.425	0	147.996	0	114.9	4	39.3	4	-1E+10	1	-1E+10	1	-1E+10	1	-1E+10	1	-1E+10	1	-1E+10	1
4902663	39	C	08/23/2024	11:10	-126.937	47.820	0	150.20	0	7.5120	0	33.8350	0	26.432	0	148.888	0	114.5	4	39.1	4	-1E+10	1	-1E+10	1	-1E+10	1	-1E+10	1	-1E+10	1	-1E+10	1
4902663	39	C	08/23/2024	11:10	-126.937	47.820	0	151.20	0	7.4810	0	33.8380	0	26.439	0	149.879	0	114.2	4	39.0	4	-1E+10	1	-1E+10	1	-1E+10	1	-1E+10	1	-1E+10	1	-1E+10	1
4902663	39	C	08/23/2024	11:10	-126.937	47.820	0	152.10	0	7.4540	0	33.8390	0	26.443	0	150.771	0	113.8	4	38.8	4	-1E+10	1	-1E+10	1	-1E+10	1	-1E+10	1	-1E+10	1	-1E+10	1
4902663	39	C	08/23/2024	11:10	-126.937	47.820	0	153.00	0	7.4540	0	33.8420	0	26.446	0	151.662	0	113.4	4	38.7	4	-1E+10	1	-1E+10	1	-1E+10	1	-1E+10	1	-1E+10	1	-1E+10	1
4902663	39	C	08/23/2024	11:10	-126.937	47.820	0	154.00	0	7.4390	0	33.8510	0	26.455	0	152.653	0	113.3	4	38.7	4	-1E+10	1	-1E+10	1	-1E+10	1	-1E+10	1	-1E+10	1	-1E+10	1
4902663	39	C	08/23/2024	11:10	-126.937	47.820	0	154.90	0	7.3870	0	33.8520	0	26.463	0	153.545	0	113.1	4	38.6	4	-1E+10	1	-1E+10	1	-1E+10	1	-1E+10	1	-1E+10	1	-1E+10	1
4902663	39	C	08/23/2024	11:10	-126.937	47.820	0	155.80	0	7.3810	0	33.8510	0	26.463	0	154.437	0	112.8	4	38.5	4	-1E+10	1	-1E+10	1	-1E+10	1	-1E+10	1	-1E+10	1	-1E+10	1
4902663	39	C	08/23/2024	11:10	-126.937	47.820	0	156.70	0	7.3720	0	33.8530	0	26.466	0	155.329	0	112.4	4	38.3	4	-1E+10	1	-1E+10	1	-1E+10	1	-1E+10	1	-1E+10	1	-1E+10	1
4902663	39	C	08/23/2024	11:10	-126.937	47.820	0	157.60	0	7.3860	0	33.8580	0	26.468	0	156.220	0	112.3	4	38.3	4	-1E+10	1	-1E+10	1	-1E+10	1	-1E+10	1	-1E+10	1	-1E+10	1
4902663	39	C	08/23/2024	11:10	-126.937	47.820	0	158.60	0	7.3780	0	33.8610	0	26.471	0	157.211	0	112.2	4	38.2	4	-1E+10	1	-1E+10	1	-1E+10	1	-1E+10	1	-1E+10	1	-1E+10	1
4902663	39	C	08/23/2024	11:10	-126.937	47.820	0	159.90	0	7.3640	0	33.8610	0	26.473	0	158.499	0	112.0	4	38.2	4	-1E+10	1	-1E+10	1	-1E+10	1	-1E+10	1	-1E+10	1	-1E+10	1
4902663	39	C	08/23/2024	11:10	-126.937	47.820	0	161.30	0	7.3410	0	33.8620	0	26.477	0	159.887	0	111.8	4	38.1	4	-1E+10	1	-1E+10	1	-1E+10	1	-1E+10	1	-1E+10	1	-1E+10	1
4902663	39	C	08/23/2024	11:10	-126.937	47.820	0	162.30	0	7.3210	0	33.8620	0	26.480	0	160.877	0	111.5	4	38.0	4	-1E+10	1	-1E+10	1	-1E+10	1	-1E+10	1	-1E+10	1	-1E+10	1
4902663	39	C	08/23/2024	11:10	-126.937	47.820	0	163.20	0	7.2930	0	33.8590	0	26.482	0	161.769	0	111.2	4	37.8	4	-1E+10	1	-1E+10	1	-1E+10	1	-1E+10	1	-1E+10	1	-1E+10	1
4902663	39	C	08/23/2024	11:10	-126.937	47.820	0	164.10	0	7.2830	0	33.8600	0	26.484	0	162.661	0	110.7	4	37.6	4	-1E+10	1	-1E+10	1	-1E+10	1	-1E+10	1	-1E+10	1	-1E+10	1
4902663	39	C	08/23/2024	11:10	-126.937	47.820	0	165.00	0	7.2790	0	33.8640	0	26.488	0	163.553	0	110.3	4	37.5	4	-1E+10	1	-1E+10	1	-1E+10	1	-1E+10	1	-1E+10	1	-1E+10	1
4902663	39	C	08/23/2024	11:10	-126.937	47.820	0	165.90	0	7.2720	0	33.8660	0	26.490	0	164.444	0	110.0	4	37.4	4	-1E+10	1	-1E+10	1	-1E+10	1	-1E+10	1	-1E+10	1	-1E+10	1
4902663	39	C	08/23/2024	11:10	-126.937	47.820	0	166.80	0	7.2710	0	33.8660	0	26.490	0	165.336	0	109.7	4	37.3	4	-1E+10	1	-1E+10	1	-1E+10	1	-1E+10	1	-1E+10	1	-1E+10	1
4902663	39	C	08/23/2024	11:10	-126.937	47.820	0	167.70	0	7.2510	0	33.8680	0	26.495	0	166.228	0	109.5	4	37.2	4	-1E+10	1	-1E+10	1	-1E+10	1	-1E+10	1	-1E+10	1	-1E+10	1
4902663	39	C	08/23/2024	11:10	-126.937	47.820	0	168.60	0	7.2490	0	33.8700	0	26.497	0	167.120	0	109.3	4	37.2	4	-1E+10	1	-1E+10	1	-1E+10	1	-1E+10	1	-1E+10	1	-1E+10	1
4902663	39	C	08/23/2024	11:10	-126.937	47.820	0	169.90	0	7.2460	0	33.8720	0	26.499	0	168.408	0	109.0	4	37.1	4	-1E+10	1	-1E+10	1	-1E+10	1	-1E+10	1	-1E+10	1	-1E+10	1
4902663	39	C	08/23/2024	11:10	-126.937	47.820	0	171.30	0	7.2430	0	33.8730	0	26.500	0	169.795	0	108.8	4	37.0	4	-1E+10	1	-1E+10	1	-1E+10	1	-1E+10	1	-1E+10	1	-1E+10	1
4902663	39	C	08/23/2024	11:10	-126.937	47.820	0	172.30	0	7.2390	0	33.8730	0	26.500	0	170.786	0	108.6	4	36.9	4	-1E+10	1	-1E+10	1	-1E+10	1	-1E+10	1	-1E+10	1	-1E+10	1
4902663	39	C	08/23/2024	11:10	-126.937	47.820	0	173.20	0	7.2360	0	33.8740	0	26.502	0	171.677	0	108.4	4	36.8	4	-1E+10	1	-1E+10	1	-1E+10	1	-1E+10	1	-1E+10	1	-1E+10	1
4902663	39	C	08/23/2024	11:10	-126.937	47.820	0	174.10	0	7.2030	0	33.8750	0	26.507	0	172.569	0	108.3	4	36.8	4	-1E+10	1	-1E+10	1	-1E+10	1	-1E+10	1	-1E+10	1	-1E+10	1
4902663	39	C	08/23/2024	11:10	-126.937	47.820	0	175.00	0	7.2000	0	33.8760	0	26.508	0	173.461	0	108.1	4	36.7	4	-1E+10	1	-1E+10	1	-1E+10	1	-1E+10	1	-1E+10	1	-1E+10	1
4902663	39	C	08/23/2024	11:10	-126.937	47.820	0	175.90	0	7.1930	0	33.8740	0	26.508	0	174.353	0	107.9	4	36.6	4	-1E+10	1	-1E+10	1	-1E+10	1	-1E+10	1	-1E+10	1	-1E+10	1
4902663	39	C	08/23/2024	11:10	-126.937	47.820	0	176.90	0	7.1690	0	33.8750	0	26.512	0	175.343	0	107.7	4	36.5	4	-1E+10	1	-1E+10	1	-1E+10	1	-1E+10	1	-1E+10	1	-1E+10	1
4902663	39	C	08/23/2024	11:10	-126.937	47.820	0	177.80	0	7.1670	0	33.8740	0	26.511	0	176.235	0	107.4	4	36.4	4	-1E+10	1	-1E+10	1	-1E+10	1	-1E+10	1	-1E+10	1	-1E+10	1
4902663	39	C	08/23/2024	11:10	-126.937	47.820	0	178.70	0	7.1660	0	33.8750	0	26.512	0	177.127	0	107.1	4	36.3	4	-1E+10	1	-1E+10	1	-1E+10	1	-1E+10	1	-1E+10	1	-1E+10	1
4902663	39	C	08/23/2024	11:10	-126.937	47.820	0	179.70	0	7.1510	0	33.8780	0	26.517	0	178.117	0	106.7	4	36.2	4	-1E+10	1	-1E+10	1	-1E+10	1	-1E+10	1	-1E+10	1	-1E+10	1
4902663	39	C	08/23/2024	11:10	-126.937	47.820	0	180.60	0	7.1240	0	33.8770	0	26.520	0	179.009	0	106.4	4	36.0	4	-1E+10	1	-1E+10	1	-1E+10	1	-1E+10	1	-1E+10	1	-1E+10	1
4902663	39	C	08/23/2024	11:10	-126.937	47.820	0	181.60	0	7.1140	0	33.8770	0	26.521	0	180.000	0	106.0	4	35.9	4	-1E+10	1	-1E+10	1	-1E+10	1	-1E+10	1	-1E+10	1	-1E+10	1
4902663	39	C	08/23/2024	11:10	-126.937	47.820	0	182.60	0	7.1070	0	33.8770	0	26.522	0	180.991	0	105.6	4	35.8	4	-1E+10	1	-1E+10	1	-1E+10	1	-1E+10	1	-1E+10	1	-1E+10	1
4902663	39	C	08/23/2024	11:10	-126.937	47.820	0	183.50	0	7.1000	0	33.8780	0	26.524	0	181.882	0	105.1	4	35.6	4	-1E+10	1	-1E+10	1	-1E+10	1	-1E+10	1	-1E+10	1	-1E+10	1
4902663	39	C	08/23/2024	11:10	-126.937	47.820	0	184.50	0	7.0960	0	33.8800	0	26.526	0	182.873	0	104.8	4	35.5	4	-1E+10	1	-1E+10	1	-1E+10	1	-1E+10	1	-1E+10	1	-1E+10	1
4902663	39	C	08/23/2024	11:10	-126.937	47.820	0	185.90	0	7.0750	0	33.8830	0	26.531	0	184.260	0	104.3	4	35.3	4	-1E+10	1	-1E+10	1	-1E+10	1	-1E+10	1	-1E+10	1	-1E+10	1
4902663	39	C	08/23/2024	11:10	-126.937	47.820	0	187.40	0	7.0530	0	33.8850	0	26.536	0	185.746	0	104.0	4	35.2	4	-1E+10	1	-1E+10	1	-1E+10	1	-1E+10	1	-1E+10	1	-1E+10	1
4902663	39	C	08/23/2024	11:10	-126.937	47.820	0	188.30	0	7.0510	0	33.8850	0	26.536	0	186.638	0	103.6	4	35.1	4	-1E+10	1	-1E+10	1	-1E+10	1	-1E+10	1	-1E+10	1	-1E+10	1
4902663	39	C	08/23/2024	11:10	-126.937	47.820	0	189.30	0	7.0280	0	33.8850	0	26.539	0	187.629	0	103.2	4	34.9	4	-1E+10	1	-1E+10	1	-1E+10	1	-1E+10	1	-1E+10	1	-1E+10	1
4902663	39	C	08/23/2024	11:10	-126.937	47.820	0	190.30	0	7.0030	0	33.8840	0	26.542	0	188.619	0	102.7	4	34.7	4	-1E+10	1	-1E+10	1	-1E+10	1	-1E+10	1	-1E+10	1	-1E+10	1
4902663	39	C	08/23/2024	11:10	-126.937	47.820	0	191.30	0	6.9640	0	33.8860	0	26.549	0	189.610	0	102.2	4	34.5	4	-1E+10	1	-1E+10	1	-1E+10	1	-1E+10	1	-1E+10	1	-1E+10	1
4902663	39	C	08/23/2024	11:10	-126.937	47.820	0	192.30	0	6.9490	0	33.8860	0	26.551	0	190.601	0	101.7	4	34.3	4	-1E+10	1	-1E+10	1	-1E+10	1	-1E+10	1	-1E+10	1	-1E+10	1
4902663	39	C	08/23/2024	11:10	-126.937	47.820	0	193.30	0	6.9470	0	33.8860	0	26.551	0	191.591	0	101.1	4	34.1	4	-1E+10	1	-1E+10	1	-1E+10	1	-1E+10	1	-1E+10	1	-1E+10	1
4902663	39	C	08/23/2024	11:10	-126.937	47.820	0	194.40	0	6.9430	0	33.8860	0	26.552	0	192.681	0	100.5	4	33.9	4	-1E+10	1	-1E+10	1	-1E+10	1	-1E+10	1	-1E+10	1	-1E+10	1
4902663	39	C	08/23/2024	11:10	-126.937	47.820	0	195.40	0	6.9380	0	33.8880	0	26.554	0	193.672	0	99.7	4	33.7	4	-1E+10	1	-1E+10	1	-1E+10	1	-1E+10	1	-1E+10	1	-1E+10	1
4902663	39	C	08/23/2024	11:10	-126.937	47.820	0	196.40	0	6.9390	0	33.8930	0	26.558	0	194.663	0	99.0	4	33.4	4	-1E+10	1	-1E+10	1	-1E+10	1	-1E+10	1	-1E+10	1	-1E+10	1
4902663	39	C	08/23/2024	11:10	-126.937	47.820	0	197.40	0	6.9400	0	33.8960	0	26.560	0	195.653	0	98.5	4	33.2	4	-1E+10	1	-1E+10	1	-1E+10	1	-1E+10	1	-1E+10	1	-1E+10	1
4902663	39	C	08/23/2024	11:10	-126.937	47.820	0	198.50	0	6.9360	0	33.8980	0	26.562	0	196.743	0	97.9	4	33.0	4	-1E+10	1	-1E+10	1	-1E+10	1	-1E+10	1	-1E+10	1	-1E+10	1
4902663	39	C	08/23/2024	11:10	-126.937	47.820	0	199.60	0	6.9360	0	33.8980	0	26.562	0	197.833	0	97.4	4	32.9	4	-1E+10	1	-1E+10	1	-1E+10	1	-1E+10	1	-1E+10	1	-1E+10	1
4902663	39	C	08/23/2024	11:10	-126.937	47.820	0	200.60	0	6.9380	0	33.8970	0	26.561	0	198.823	0	96.8	4	32.7	4	-1E+10	1	-1E+10	1	-1E+10	1	-1E+10	1	-1E+10	1	-1E+10	1
4902663	39	C	08/23/2024	11:10	-126.937	47.820	0	201.70	0	6.9410	0	33.9040	0	26.566	0	199.913	0	96.3	4	32.5	4	-1E+10	1	-1E+10	1	-1E+10	1	-1E+10	1	-1E+10	1	-1E+10	1
4902663	39	C	08/23/2024	11:10	-126.937	47.820	0	202.80	0	6.9250	0	33.9070	0	26.571	0	201.003	0	95.9	4	32.4	4	-1E+10	1	-1E+10	1	-1E+10	1	-1E+10	1	-1E+10	1	-1E+10	1
4902663	39	C	08/23/2024	11:10	-126.937	47.820	0	203.80	0	6.9100	0	33.9060	0	26.572	0	201.993	0	95.6	4	32.2	4	-1E+10	1	-1E+10	1	-1E+10	1	-1E+10	1	-1E+10	1	-1E+10	1
4902663	39	C	08/23/2024	11:10	-126.937	47.820	0	204.90	0	6.8960	0	33.9050	0	26.573	0	203.083	0	95.1	4	32.1	4	-1E+10	1	-1E+10	1	-1E+10	1	-1E+10	1	-1E+10	1	-1E+10	1
4902663	39	C	08/23/2024	11:10	-126.937	47.820	0	206.00	0	6.8890	0	33.9080	0	26.576	0	204.173	0	94.7	4	31.9	4	-1E+10	1	-1E+10	1	-1E+10	1	-1E+10	1	-1E+10	1	-1E+10	1
4902663	39	C	08/23/2024	11:10	-126.937	47.820	0	207.00	0	6.8450	0	33.9090	0	26.583	0	205.163	0	94.5	4	31.8	4	-1E+10	1	-1E+10	1	-1E+10	1	-1E+10	1	-1E+10	1	-1E+10	1
4902663	39	C	08/23/2024	11:10	-126.937	47.820	0	208.10	0	6.8330	0	33.9100	0	26.586	0	206.253	0	94.1	4	31.7	4	-1E+10	1	-1E+10	1	-1E+10	1	-1E+10	1	-1E+10	1	-1E+10	1
4902663	39	C	08/23/2024	11:10	-126.937	47.820	0	209.20	0	6.8280	0	33.9110	0	26.587	0	207.343	0	93.7	4	31.6	4	-1E+10	1	-1E+10	1	-1E+10	1	-1E+10	1	-1E+10	1	-1E+10	1
4902663	39	C	08/23/2024	11:10	-126.937	47.820	0	210.30	0	6.8040	0	33.9110	0	26.590	0	208.433	0	93.3	4	31.4	4	-1E+10	1	-1E+10	1	-1E+10	1	-1E+10	1	-1E+10	1	-1E+10	1
4902663	39	C	08/23/2024	11:10	-126.937	47.820	0	211.40	0	6.8040	0	33.9080	0	26.588	0	209.522	0	92.9	4	31.3	4	-1E+10	1	-1E+10	1	-1E+10	1	-1E+10	1	-1E+10	1	-1E+10	1
4902663	39	C	08/23/2024	11:10	-126.937	47.820	0	212.50	0	6.8050	0	33.9150	0	26.593	0	210.612	0	92.6	4	31.2	4	-1E+10	1	-1E+10	1	-1E+10	1	-1E+10	1	-1E+10	1	-1E+10	1
4902663	39	C	08/23/2024	11:10	-126.937	47.820	0	213.60	0	6.8020	0	33.9160	0	26.595	0	211.702	0	92.3	4	31.1	4	-1E+10	1	-1E+10	1	-1E+10	1	-1E+10	1	-1E+10	1	-1E+10	1
4902663	39	C	08/23/2024	11:10	-126.937	47.820	0	214.70	0	6.8030	0	33.9170	0	26.595	0	212.791	0	92.0	4	31.0	4	-1E+10	1	-1E+10	1	-1E+10	1	-1E+10	1	-1E+10	1	-1E+10	1
4902663	39	C	08/23/2024	11:10	-126.937	47.820	0	215.80	0	6.8030	0	33.9170	0	26.595	0	213.881	0	91.7	4	30.9	4	-1E+10	1	-1E+10	1	-1E+10	1	-1E+10	1	-1E+10	1	-1E+10	1
4902663	39	C	08/23/2024	11:10	-126.937	47.820	0	216.90	0	6.8010	0	33.9190	0	26.597	0	214.971	0	91.4	4	30.8	4	-1E+10	1	-1E+10	1	-1E+10	1	-1E+10	1	-1E+10	1	-1E+10	1
4902663	39	C	08/23/2024	11:10	-126.937	47.820	0	218.00	0	6.7930	0	33.9180	0	26.597	0	216.060	0	91.1	4	30.7	4	-1E+10	1	-1E+10	1	-1E+10	1	-1E+10	1	-1E+10	1	-1E+10	1
4902663	39	C	08/23/2024	11:10	-126.937	47.820	0	219.10	0	6.7670	0	33.9260	0	26.607	0	217.150	0	90.8	4	30.5	4	-1E+10	1	-1E+10	1	-1E+10	1	-1E+10	1	-1E+10	1	-1E+10	1
4902663	39	C	08/23/2024	11:10	-126.937	47.820	0	220.20	0	6.7470	0	33.9210	0	26.606	0	218.239	0	90.6	4	30.4	4	-1E+10	1	-1E+10	1	-1E+10	1	-1E+10	1	-1E+10	1	-1E+10	1
4902663	39	C	08/23/2024	11:10	-126.937	47.820	0	221.40	0	6.7370	0	33.9200	0	26.606	0	219.428	0	90.3	4	30.3	4	-1E+10	1	-1E+10	1	-1E+10	1	-1E+10	1	-1E+10	1	-1E+10	1
4902663	39	C	08/23/2024	11:10	-126.937	47.820	0	222.50	0	6.7230	0	33.9230	0	26.611	0	220.518	0	90.0	4	30.2	4	-1E+10	1	-1E+10	1	-1E+10	1	-1E+10	1	-1E+10	1	-1E+10	1
4902663	39	C	08/23/2024	11:10	-126.937	47.820	0	223.60	0	6.7000	0	33.9210	0	26.612	0	221.607	0	89.7	4	30.1	4	-1E+10	1	-1E+10	1	-1E+10	1	-1E+10	1	-1E+10	1	-1E+10	1
4902663	39	C	08/23/2024	11:10	-126.937	47.820	0	224.70	0	6.6930	0	33.9220	0	26.614	0	222.697	0	89.3	4	30.0	4	-1E+10	1	-1E+10	1	-1E+10	1	-1E+10	1	-1E+10	1	-1E+10	1
4902663	39	C	08/23/2024	11:10	-126.937	47.820	0	225.90	0	6.7190	0	33.9220	0	26.611	0	223.886	0	89.0	4	29.9	4	-1E+10	1	-1E+10	1	-1E+10	1	-1E+10	1	-1E+10	1	-1E+10	1
4902663	39	C	08/23/2024	11:10	-126.937	47.820	0	227.00	0	6.7160	0	33.9260	0	26.614	0	224.975	0	88.9	4	29.9	4	-1E+10	1	-1E+10	1	-1E+10	1	-1E+10	1	-1E+10	1	-1E+10	1
4902663	39	C	08/23/2024	11:10	-126.937	47.820	0	228.20	0	6.7110	0	33.9250	0	26.614	0	226.164	0	88.7	4	29.8	4	-1E+10	1	-1E+10	1	-1E+10	1	-1E+10	1	-1E+10	1	-1E+10	1
4902663	39	C	08/23/2024	11:10	-126.937	47.820	0	229.30	0	6.6860	0	33.9260	0	26.618	0	227.253	0	88.5	4	29.7	4	-1E+10	1	-1E+10	1	-1E+10	1	-1E+10	1	-1E+10	1	-1E+10	1
4902663	39	C	08/23/2024	11:10	-126.937	47.820	0	230.40	0	6.6610	0	33.9220	0	26.618	0	228.343	0	88.1	4	29.5	4	-1E+10	1	-1E+10	1	-1E+10	1	-1E+10	1	-1E+10	1	-1E+10	1
4902663	39	C	08/23/2024	11:10	-126.937	47.820	0	231.50	0	6.6440	0	33.9210	0	26.620	0	229.433	0	87.6	4	29.4	4	-1E+10	1	-1E+10	1	-1E+10	1	-1E+10	1	-1E+10	1	-1E+10	1
4902663	39	C	08/23/2024	11:10	-126.937	47.820	0	232.70	0	6.6500	0	33.9230	0	26.621	0	230.621	0	87.0	4	29.2	4	-1E+10	1	-1E+10	1	-1E+10	1	-1E+10	1	-1E+10	1	-1E+10	1
4902663	39	C	08/23/2024	11:10	-126.937	47.820	0	233.70	0	6.6580	0	33.9250	0	26.621	0	231.612	0	86.5	4	29.0	4	-1E+10	1	-1E+10	1	-1E+10	1	-1E+10	1	-1E+10	1	-1E+10	1
4902663	39	C	08/23/2024	11:10	-126.937	47.820	0	234.80	0	6.6470	0	33.9270	0	26.624	0	232.701	0	86.0	4	28.8	4	-1E+10	1	-1E+10	1	-1E+10	1	-1E+10	1	-1E+10	1	-1E+10	1
4902663	39	C	08/23/2024	11:10	-126.937	47.820	0	235.90	0	6.6530	0	33.9290	0	26.625	0	233.791	0	85.5	4	28.7	4	-1E+10	1	-1E+10	1	-1E+10	1	-1E+10	1	-1E+10	1	-1E+10	1
4902663	39	C	08/23/2024	11:10	-126.937	47.820	0	237.00	0	6.6520	0	33.9320	0	26.627	0	234.880	0	85.1	4	28.5	4	-1E+10	1	-1E+10	1	-1E+10	1	-1E+10	1	-1E+10	1	-1E+10	1
4902663	39	C	08/23/2024	11:10	-126.937	47.820	0	238.00	0	6.6330	0	33.9340	0	26.632	0	235.871	0	84.7	4	28.4	4	-1E+10	1	-1E+10	1	-1E+10	1	-1E+10	1	-1E+10	1	-1E+10	1
4902663	39	C	08/23/2024	11:10	-126.937	47.820	0	239.20	0	6.6110	0	33.9330	0	26.634	0	237.059	0	84.4	4	28.3	4	-1E+10	1	-1E+10	1	-1E+10	1	-1E+10	1	-1E+10	1	-1E+10	1
4902663	39	C	08/23/2024	11:10	-126.937	47.820	0	240.30	0	6.5900	0	33.9330	0	26.636	0	238.149	0	84.1	4	28.2	4	-1E+10	1	-1E+10	1	-1E+10	1	-1E+10	1	-1E+10	1	-1E+10	1
4902663	39	C	08/23/2024	11:10	-126.937	47.820	0	241.40	0	6.5850	0	33.9330	0	26.637	0	239.238	0	83.7	4	28.0	4	-1E+10	1	-1E+10	1	-1E+10	1	-1E+10	1	-1E+10	1	-1E+10	1
4902663	39	C	08/23/2024	11:10	-126.937	47.820	0	242.50	0	6.5840	0	33.9340	0	26.638	0	240.328	0	83.3	4	27.9	4	-1E+10	1	-1E+10	1	-1E+10	1	-1E+10	1	-1E+10	1	-1E+10	1
4902663	39	C	08/23/2024	11:10	-126.937	47.820	0	243.60	0	6.5790	0	33.9360	0	26.640	0	241.417	0	82.8	4	27.7	4	-1E+10	1	-1E+10	1	-1E+10	1	-1E+10	1	-1E+10	1	-1E+10	1
4902663	39	C	08/23/2024	11:10	-126.937	47.820	0	244.80	0	6.5660	0	33.9350	0	26.641	0	242.606	0	82.4	4	27.6	4	-1E+10	1	-1E+10	1	-1E+10	1	-1E+10	1	-1E+10	1	-1E+10	1
4902663	39	C	08/23/2024	11:10	-126.937	47.820	0	245.90	0	6.5640	0	33.9360	0	26.642	0	243.695	0	81.9	4	27.4	4	-1E+10	1	-1E+10	1	-1E+10	1	-1E+10	1	-1E+10	1	-1E+10	1
4902663	39	C	08/23/2024	11:10	-126.937	47.820	0	247.00	0	6.5570	0	33.9400	0	26.646	0	244.785	0	81.5	4	27.3	4	-1E+10	1	-1E+10	1	-1E+10	1	-1E+10	1	-1E+10	1	-1E+10	1
4902663	39	C	08/23/2024	11:10	-126.937	47.820	0	248.10	0	6.5470	0	33.9390	0	26.647	0	245.874	0	81.2	4	27.2	4	-1E+10	1	-1E+10	1	-1E+10	1	-1E+10	1	-1E+10	1	-1E+10	1
4902663	39	C	08/23/2024	11:10	-126.937	47.820	0	249.20	0	6.5390	0	33.9400	0	26.649	0	246.964	0	80.7	4	27.0	4	-1E+10	1	-1E+10	1	-1E+10	1	-1E+10	1	-1E+10	1	-1E+10	1
4902663	39	C	08/23/2024	11:10	-126.937	47.820	0	250.30	0	6.5350	0	33.9400	0	26.649	0	248.053	0	80.3	4	26.9	4	-1E+10	1	-1E+10	1	-1E+10	1	-1E+10	1	-1E+10	1	-1E+10	1
4902663	39	C	08/23/2024	11:10	-126.937	47.820	0	251.40	0	6.5300	0	33.9420	0	26.652	0	249.143	0	79.9	4	26.7	4	-1E+10	1	-1E+10	1	-1E+10	1	-1E+10	1	-1E+10	1	-1E+10	1
4902663	39	C	08/23/2024	11:10	-126.937	47.820	0	252.50	0	6.5230	0	33.9430	0	26.653	0	250.232	0	79.5	4	26.6	4	-1E+10	1	-1E+10	1	-1E+10	1	-1E+10	1	-1E+10	1	-1E+10	1
4902663	39	C	08/23/2024	11:10	-126.937	47.820	0	253.60	0	6.5200	0	33.9430	0	26.654	0	251.322	0	79.0	4	26.4	4	-1E+10	1	-1E+10	1	-1E+10	1	-1E+10	1	-1E+10	1	-1E+10	1
4902663	39	C	08/23/2024	11:10	-126.937	47.820	0	254.70	0	6.5080	0	33.9440	0	26.656	0	252.411	0	78.5	4	26.3	4	-1E+10	1	-1E+10	1	-1E+10	1	-1E+10	1	-1E+10	1	-1E+10	1
4902663	39	C	08/23/2024	11:10	-126.937	47.820	0	255.80	0	6.4960	0	33.9450	0	26.658	0	253.501	0	78.1	4	26.1	4	-1E+10	1	-1E+10	1	-1E+10	1	-1E+10	1	-1E+10	1	-1E+10	1
4902663	39	C	08/23/2024	11:10	-126.937	47.820	0	256.90	0	6.4860	0	33.9460	0	26.661	0	254.590	0	77.6	4	25.9	4	-1E+10	1	-1E+10	1	-1E+10	1	-1E+10	1	-1E+10	1	-1E+10	1
4902663	39	C	08/23/2024	11:10	-126.937	47.820	0	258.00	0	6.4780	0	33.9450	0	26.661	0	255.680	0	77.1	4	25.8	4	-1E+10	1	-1E+10	1	-1E+10	1	-1E+10	1	-1E+10	1	-1E+10	1
4902663	39	C	08/23/2024	11:10	-126.937	47.820	0	259.00	0	6.4610	0	33.9440	0	26.662	0	256.670	0	76.5	4	25.6	4	-1E+10	1	-1E+10	1	-1E+10	1	-1E+10	1	-1E+10	1	-1E+10	1
4902663	39	C	08/23/2024	11:10	-126.937	47.820	0	260.10	0	6.4470	0	33.9490	0	26.668	0	257.759	0	76.1	4	25.4	4	-1E+10	1	-1E+10	1	-1E+10	1	-1E+10	1	-1E+10	1	-1E+10	1
4902663	39	C	08/23/2024	11:10	-126.937	47.820	0	261.20	0	6.4440	0	33.9490	0	26.668	0	258.849	0	75.6	4	25.2	4	-1E+10	1	-1E+10	1	-1E+10	1	-1E+10	1	-1E+10	1	-1E+10	1
4902663	39	C	08/23/2024	11:10	-126.937	47.820	0	262.30	0	6.4340	0	33.9540	0	26.674	0	259.938	0	75.2	4	25.1	4	-1E+10	1	-1E+10	1	-1E+10	1	-1E+10	1	-1E+10	1	-1E+10	1
4902663	39	C	08/23/2024	11:10	-126.937	47.820	0	263.30	0	6.4190	0	33.9550	0	26.676	0	260.928	0	74.9	4	25.0	4	-1E+10	1	-1E+10	1	-1E+10	1	-1E+10	1	-1E+10	1	-1E+10	1
4902663	39	C	08/23/2024	11:10	-126.937	47.820	0	264.40	0	6.4150	0	33.9550	0	26.677	0	262.018	0	74.6	4	24.9	4	-1E+10	1	-1E+10	1	-1E+10	1	-1E+10	1	-1E+10	1	-1E+10	1
4902663	39	C	08/23/2024	11:10	-126.937	47.820	0	265.40	0	6.4080	0	33.9550	0	26.678	0	263.008	0	74.3	4	24.8	4	-1E+10	1	-1E+10	1	-1E+10	1	-1E+10	1	-1E+10	1	-1E+10	1
4902663	39	C	08/23/2024	11:10	-126.937	47.820	0	266.50	0	6.4000	0	33.9560	0	26.680	0	264.098	0	74.0	4	24.7	4	-1E+10	1	-1E+10	1	-1E+10	1	-1E+10	1	-1E+10	1	-1E+10	1
4902663	39	C	08/23/2024	11:10	-126.937	47.820	0	267.50	0	6.3950	0	33.9580	0	26.682	0	265.088	0	73.6	4	24.6	4	-1E+10	1	-1E+10	1	-1E+10	1	-1E+10	1	-1E+10	1	-1E+10	1
4902663	39	C	08/23/2024	11:10	-126.937	47.820	0	268.60	0	6.3910	0	33.9570	0	26.682	0	266.177	0	73.3	4	24.4	4	-1E+10	1	-1E+10	1	-1E+10	1	-1E+10	1	-1E+10	1	-1E+10	1
4902663	39	C	08/23/2024	11:10	-126.937	47.820	0	269.60	0	6.3710	0	33.9600	0	26.687	0	267.168	0	72.9	4	24.3	4	-1E+10	1	-1E+10	1	-1E+10	1	-1E+10	1	-1E+10	1	-1E+10	1
4902663	39	C	08/23/2024	11:10	-126.937	47.820	0	270.70	0	6.3520	0	33.9600	0	26.689	0	268.257	0	72.6	4	24.2	4	-1E+10	1	-1E+10	1	-1E+10	1	-1E+10	1	-1E+10	1	-1E+10	1
4902663	39	C	08/23/2024	11:10	-126.937	47.820	0	271.80	0	6.3480	0	33.9600	0	26.690	0	269.346	0	72.4	4	24.1	4	-1E+10	1	-1E+10	1	-1E+10	1	-1E+10	1	-1E+10	1	-1E+10	1
4902663	39	C	08/23/2024	11:10	-126.937	47.820	0	272.80	0	6.3340	0	33.9610	0	26.692	0	270.337	0	72.1	4	24.0	4	-1E+10	1	-1E+10	1	-1E+10	1	-1E+10	1	-1E+10	1	-1E+10	1
4902663	39	C	08/23/2024	11:10	-126.937	47.820	0	273.90	0	6.3180	0	33.9640	0	26.697	0	271.426	0	71.9	4	23.9	4	-1E+10	1	-1E+10	1	-1E+10	1	-1E+10	1	-1E+10	1	-1E+10	1
4902663	39	C	08/23/2024	11:10	-126.937	47.820	0	274.90	0	6.3080	0	33.9620	0	26.696	0	272.416	0	71.6	4	23.8	4	-1E+10	1	-1E+10	1	-1E+10	1	-1E+10	1	-1E+10	1	-1E+10	1
4902663	39	C	08/23/2024	11:10	-126.937	47.820	0	275.90	0	6.3000	0	33.9610	0	26.697	0	273.407	0	71.3	4	23.7	4	-1E+10	1	-1E+10	1	-1E+10	1	-1E+10	1	-1E+10	1	-1E+10	1
4902663	39	C	08/23/2024	11:10	-126.937	47.820	0	277.00	0	6.2950	0	33.9610	0	26.697	0	274.496	0	71.0	4	23.6	4	-1E+10	1	-1E+10	1	-1E+10	1	-1E+10	1	-1E+10	1	-1E+10	1
4902663	39	C	08/23/2024	11:10	-126.937	47.820	0	278.00	0	6.2960	0	33.9630	0	26.699	0	275.486	0	70.6	4	23.5	4	-1E+10	1	-1E+10	1	-1E+10	1	-1E+10	1	-1E+10	1	-1E+10	1
4902663	39	C	08/23/2024	11:10	-126.937	47.820	0	279.10	0	6.2990	0	33.9630	0	26.698	0	276.576	0	70.2	4	23.3	4	-1E+10	1	-1E+10	1	-1E+10	1	-1E+10	1	-1E+10	1	-1E+10	1
4902663	39	C	08/23/2024	11:10	-126.937	47.820	0	280.10	0	6.2960	0	33.9640	0	26.700	0	277.566	0	69.7	4	23.2	4	-1E+10	1	-1E+10	1	-1E+10	1	-1E+10	1	-1E+10	1	-1E+10	1
4902663	39	C	08/23/2024	11:10	-126.937	47.820	0	281.20	0	6.2730	0	33.9660	0	26.704	0	278.655	0	69.4	4	23.1	4	-1E+10	1	-1E+10	1	-1E+10	1	-1E+10	1	-1E+10	1	-1E+10	1
4902663	39	C	08/23/2024	11:10	-126.937	47.820	0	282.20	0	6.2650	0	33.9650	0	26.704	0	279.646	0	69.0	4	22.9	4	-1E+10	1	-1E+10	1	-1E+10	1	-1E+10	1	-1E+10	1	-1E+10	1
4902663	39	C	08/23/2024	11:10	-126.937	47.820	0	283.30	0	6.2520	0	33.9680	0	26.708	0	280.735	0	68.7	4	22.8	4	-1E+10	1	-1E+10	1	-1E+10	1	-1E+10	1	-1E+10	1	-1E+10	1
4902663	39	C	08/23/2024	11:10	-126.937	47.820	0	284.30	0	6.2450	0	33.9680	0	26.709	0	281.725	0	68.3	4	22.7	4	-1E+10	1	-1E+10	1	-1E+10	1	-1E+10	1	-1E+10	1	-1E+10	1
4902663	39	C	08/23/2024	11:10	-126.937	47.820	0	285.30	0	6.2360	0	33.9710	0	26.713	0	282.715	0	68.1	4	22.6	4	-1E+10	1	-1E+10	1	-1E+10	1	-1E+10	1	-1E+10	1	-1E+10	1
4902663	39	C	08/23/2024	11:10	-126.937	47.820	0	286.30	0	6.2300	0	33.9720	0	26.714	0	283.706	0	67.9	4	22.6	4	-1E+10	1	-1E+10	1	-1E+10	1	-1E+10	1	-1E+10	1	-1E+10	1
4902663	39	C	08/23/2024	11:10	-126.937	47.820	0	287.30	0	6.2280	0	33.9710	0	26.714	0	284.696	0	67.7	4	22.5	4	-1E+10	1	-1E+10	1	-1E+10	1	-1E+10	1	-1E+10	1	-1E+10	1
4902663	39	C	08/23/2024	11:10	-126.937	47.820	0	288.30	0	6.2190	0	33.9720	0	26.716	0	285.686	0	67.4	4	22.4	4	-1E+10	1	-1E+10	1	-1E+10	1	-1E+10	1	-1E+10	1	-1E+10	1
4902663	39	C	08/23/2024	11:10	-126.937	47.820	0	289.90	0	6.2110	0	33.9720	0	26.717	0	287.270	0	67.1	4	22.3	4	-1E+10	1	-1E+10	1	-1E+10	1	-1E+10	1	-1E+10	1	-1E+10	1
4902663	39	C	08/23/2024	11:10	-126.937	47.820	0	291.00	0	6.1900	0	33.9740	0	26.721	0	288.360	0	66.8	4	22.2	4	-1E+10	1	-1E+10	1	-1E+10	1	-1E+10	1	-1E+10	1	-1E+10	1
4902663	39	C	08/23/2024	11:10	-126.937	47.820	0	291.80	0	6.1850	0	33.9730	0	26.721	0	289.152	0	66.6	4	22.1	4	-1E+10	1	-1E+10	1	-1E+10	1	-1E+10	1	-1E+10	1	-1E+10	1
4902663	39	C	08/23/2024	11:10	-126.937	47.820	0	293.00	0	6.1790	0	33.9730	0	26.722	0	290.340	0	66.3	4	22.0	4	-1E+10	1	-1E+10	1	-1E+10	1	-1E+10	1	-1E+10	1	-1E+10	1
4902663	39	C	08/23/2024	11:10	-126.937	47.820	0	294.20	0	6.1770	0	33.9740	0	26.723	0	291.528	0	66.0	4	21.9	4	-1E+10	1	-1E+10	1	-1E+10	1	-1E+10	1	-1E+10	1	-1E+10	1
4902663	39	C	08/23/2024	11:10	-126.937	47.820	0	295.00	0	6.1680	0	33.9750	0	26.725	0	292.321	0	65.8	4	21.8	4	-1E+10	1	-1E+10	1	-1E+10	1	-1E+10	1	-1E+10	1	-1E+10	1
4902663	39	C	08/23/2024	11:10	-126.937	47.820	0	295.80	0	6.1640	0	33.9740	0	26.725	0	293.113	0	65.6	4	21.8	4	-1E+10	1	-1E+10	1	-1E+10	1	-1E+10	1	-1E+10	1	-1E+10	1
4902663	39	C	08/23/2024	11:10	-126.937	47.820	0	297.00	0	6.1650	0	33.9760	0	26.726	0	294.301	0	65.3	4	21.7	4	-1E+10	1	-1E+10	1	-1E+10	1	-1E+10	1	-1E+10	1	-1E+10	1
4902663	39	C	08/23/2024	11:10	-126.937	47.820	0	298.20	0	6.1550	0	33.9760	0	26.727	0	295.489	0	65.0	4	21.6	4	-1E+10	1	-1E+10	1	-1E+10	1	-1E+10	1	-1E+10	1	-1E+10	1
4902663	39	C	08/23/2024	11:10	-126.937	47.820	0	299.00	0	6.1490	0	33.9770	0	26.729	0	296.281	0	64.8	4	21.5	4	-1E+10	1	-1E+10	1	-1E+10	1	-1E+10	1	-1E+10	1	-1E+10	1
4902663	39	C	08/23/2024	11:10	-126.937	47.820	0	299.80	0	6.1320	0	33.9780	0	26.732	0	297.074	0	64.6	4	21.4	4	-1E+10	1	-1E+10	1	-1E+10	1	-1E+10	1	-1E+10	1	-1E+10	1
4902663	39	C	08/23/2024	11:10	-126.937	47.820	0	301.00	0	6.1280	0	33.9780	0	26.732	0	298.262	0	64.3	4	21.3	4	-1E+10	1	-1E+10	1	-1E+10	1	-1E+10	1	-1E+10	1	-1E+10	1
4902663	39	C	08/23/2024	11:10	-126.937	47.820	0	302.20	0	6.1270	0	33.9780	0	26.732	0	299.450	0	64.0	4	21.2	4	-1E+10	1	-1E+10	1	-1E+10	1	-1E+10	1	-1E+10	1	-1E+10	1
4902663	39	C	08/23/2024	11:10	-126.937	47.820	0	303.00	0	6.1260	0	33.9780	0	26.733	0	300.242	0	63.7	4	21.1	4	-1E+10	1	-1E+10	1	-1E+10	1	-1E+10	1	-1E+10	1	-1E+10	1
4902663	39	C	08/23/2024	11:10	-126.937	47.820	0	303.90	0	6.1240	0	33.9780	0	26.733	0	301.133	0	63.4	4	21.0	4	-1E+10	1	-1E+10	1	-1E+10	1	-1E+10	1	-1E+10	1	-1E+10	1
4902663	39	C	08/23/2024	11:10	-126.937	47.820	0	304.70	0	6.1200	0	33.9780	0	26.733	0	301.925	0	63.0	4	20.9	4	-1E+10	1	-1E+10	1	-1E+10	1	-1E+10	1	-1E+10	1	-1E+10	1
4902663	39	C	08/23/2024	11:10	-126.937	47.820	0	306.00	0	6.1060	0	33.9790	0	26.736	0	303.213	0	62.5	4	20.7	4	-1E+10	1	-1E+10	1	-1E+10	1	-1E+10	1	-1E+10	1	-1E+10	1
4902663	39	C	08/23/2024	11:10	-126.937	47.820	0	307.30	0	6.0870	0	33.9840	0	26.742	0	304.500	0	62.2	4	20.6	4	-1E+10	1	-1E+10	1	-1E+10	1	-1E+10	1	-1E+10	1	-1E+10	1
4902663	39	C	08/23/2024	11:10	-126.937	47.820	0	308.10	0	6.0820	0	33.9830	0	26.742	0	305.292	0	62.0	4	20.5	4	-1E+10	1	-1E+10	1	-1E+10	1	-1E+10	1	-1E+10	1	-1E+10	1
4902663	39	C	08/23/2024	11:10	-126.937	47.820	0	309.00	0	6.0770	0	33.9830	0	26.743	0	306.183	0	61.8	4	20.5	4	-1E+10	1	-1E+10	1	-1E+10	1	-1E+10	1	-1E+10	1	-1E+10	1
4902663	39	C	08/23/2024	11:10	-126.937	47.820	0	309.80	0	6.0700	0	33.9840	0	26.745	0	306.975	0	61.5	4	20.4	4	-1E+10	1	-1E+10	1	-1E+10	1	-1E+10	1	-1E+10	1	-1E+10	1
4902663	39	C	08/23/2024	11:10	-126.937	47.820	0	310.70	0	6.0700	0	33.9840	0	26.745	0	307.866	0	61.3	4	20.3	4	-1E+10	1	-1E+10	1	-1E+10	1	-1E+10	1	-1E+10	1	-1E+10	1
4902663	39	C	08/23/2024	11:10	-126.937	47.820	0	311.90	0	6.0660	0	33.9840	0	26.745	0	309.055	0	61.0	4	20.2	4	-1E+10	1	-1E+10	1	-1E+10	1	-1E+10	1	-1E+10	1	-1E+10	1
4902663	39	C	08/23/2024	11:10	-126.937	47.820	0	313.20	0	6.0530	0	33.9860	0	26.748	0	310.342	0	60.6	4	20.1	4	-1E+10	1	-1E+10	1	-1E+10	1	-1E+10	1	-1E+10	1	-1E+10	1
4902663	39	C	08/23/2024	11:10	-126.937	47.820	0	314.10	0	6.0380	0	33.9880	0	26.752	0	311.233	0	60.4	4	20.0	4	-1E+10	1	-1E+10	1	-1E+10	1	-1E+10	1	-1E+10	1	-1E+10	1
4902663	39	C	08/23/2024	11:10	-126.937	47.820	0	315.00	0	6.0240	0	33.9880	0	26.754	0	312.124	0	60.2	4	19.9	4	-1E+10	1	-1E+10	1	-1E+10	1	-1E+10	1	-1E+10	1	-1E+10	1
4902663	39	C	08/23/2024	11:10	-126.937	47.820	0	315.90	0	6.0200	0	33.9870	0	26.753	0	313.015	0	60.1	4	19.9	4	-1E+10	1	-1E+10	1	-1E+10	1	-1E+10	1	-1E+10	1	-1E+10	1
4902663	39	C	08/23/2024	11:10	-126.937	47.820	0	316.70	0	6.0050	0	33.9910	0	26.758	0	313.807	0	60.0	4	19.8	4	-1E+10	1	-1E+10	1	-1E+10	1	-1E+10	1	-1E+10	1	-1E+10	1
4902663	39	C	08/23/2024	11:10	-126.937	47.820	0	317.60	0	5.9960	0	33.9890	0	26.758	0	314.698	0	59.9	4	19.8	4	-1E+10	1	-1E+10	1	-1E+10	1	-1E+10	1	-1E+10	1	-1E+10	1
4902663	39	C	08/23/2024	11:10	-126.937	47.820	0	319.00	0	5.9610	0	33.9860	0	26.760	0	316.084	0	59.7	4	19.7	4	-1E+10	1	-1E+10	1	-1E+10	1	-1E+10	1	-1E+10	1	-1E+10	1
4902663	39	C	08/23/2024	11:10	-126.937	47.820	0	320.30	0	5.9630	0	33.9870	0	26.760	0	317.371	0	59.4	4	19.6	4	-1E+10	1	-1E+10	1	-1E+10	1	-1E+10	1	-1E+10	1	-1E+10	1
4902663	39	C	08/23/2024	11:10	-126.937	47.820	0	321.20	0	5.9630	0	33.9870	0	26.760	0	318.263	0	59.2	4	19.6	4	-1E+10	1	-1E+10	1	-1E+10	1	-1E+10	1	-1E+10	1	-1E+10	1
4902663	39	C	08/23/2024	11:10	-126.937	47.820	0	322.10	0	5.9620	0	33.9860	0	26.760	0	319.154	0	59.0	4	19.5	4	-1E+10	1	-1E+10	1	-1E+10	1	-1E+10	1	-1E+10	1	-1E+10	1
4902663	39	C	08/23/2024	11:10	-126.937	47.820	0	323.00	0	5.9410	0	33.9840	0	26.761	0	320.045	0	58.8	4	19.4	4	-1E+10	1	-1E+10	1	-1E+10	1	-1E+10	1	-1E+10	1	-1E+10	1
4902663	39	C	08/23/2024	11:10	-126.937	47.820	0	323.90	0	5.9340	0	33.9910	0	26.767	0	320.936	0	58.7	4	19.4	4	-1E+10	1	-1E+10	1	-1E+10	1	-1E+10	1	-1E+10	1	-1E+10	1
4902663	39	C	08/23/2024	11:10	-126.937	47.820	0	324.90	0	5.9380	0	33.9920	0	26.768	0	321.926	0	58.8	4	19.4	4	-1E+10	1	-1E+10	1	-1E+10	1	-1E+10	1	-1E+10	1	-1E+10	1
4902663	39	C	08/23/2024	11:10	-126.937	47.820	0	325.80	0	5.9230	0	33.9920	0	26.769	0	322.817	0	58.8	4	19.4	4	-1E+10	1	-1E+10	1	-1E+10	1	-1E+10	1	-1E+10	1	-1E+10	1
4902663	39	C	08/23/2024	11:10	-126.937	47.820	0	326.70	0	5.9100	0	33.9920	0	26.771	0	323.708	0	58.9	4	19.4	4	-1E+10	1	-1E+10	1	-1E+10	1	-1E+10	1	-1E+10	1	-1E+10	1
4902663	39	C	08/23/2024	11:10	-126.937	47.820	0	327.60	0	5.8940	0	33.9910	0	26.772	0	324.599	0	59.0	4	19.4	4	-1E+10	1	-1E+10	1	-1E+10	1	-1E+10	1	-1E+10	1	-1E+10	1
4902663	39	C	08/23/2024	11:10	-126.937	47.820	0	328.90	0	5.8780	0	33.9880	0	26.772	0	325.886	0	59.1	4	19.5	4	-1E+10	1	-1E+10	1	-1E+10	1	-1E+10	1	-1E+10	1	-1E+10	1
4902663	39	C	08/23/2024	11:10	-126.937	47.820	0	330.30	0	5.8220	0	33.9930	0	26.783	0	327.272	0	59.1	4	19.4	4	-1E+10	1	-1E+10	1	-1E+10	1	-1E+10	1	-1E+10	1	-1E+10	1
4902663	39	C	08/23/2024	11:10	-126.937	47.820	0	331.20	0	5.8250	0	33.9830	0	26.774	0	328.163	0	59.0	4	19.4	4	-1E+10	1	-1E+10	1	-1E+10	1	-1E+10	1	-1E+10	1	-1E+10	1
4902663	39	C	08/23/2024	11:10	-126.937	47.820	0	332.10	0	5.7990	0	33.9830	0	26.778	0	329.054	0	58.9	4	19.4	4	-1E+10	1	-1E+10	1	-1E+10	1	-1E+10	1	-1E+10	1	-1E+10	1
4902663	39	C	08/23/2024	11:10	-126.937	47.820	0	333.00	0	5.7880	0	33.9850	0	26.781	0	329.945	0	58.7	4	19.3	4	-1E+10	1	-1E+10	1	-1E+10	1	-1E+10	1	-1E+10	1	-1E+10	1
4902663	39	C	08/23/2024	11:10	-126.937	47.820	0	334.10	0	5.7620	0	33.9820	0	26.781	0	331.034	0	58.5	4	19.2	4	-1E+10	1	-1E+10	1	-1E+10	1	-1E+10	1	-1E+10	1	-1E+10	1
4902663	39	C	08/23/2024	11:10	-126.937	47.820	0	334.80	0	5.7630	0	33.9790	0	26.779	0	331.727	0	58.3	4	19.2	4	-1E+10	1	-1E+10	1	-1E+10	1	-1E+10	1	-1E+10	1	-1E+10	1
4902663	39	C	08/23/2024	11:10	-126.937	47.820	0	335.70	0	5.7610	0	33.9820	0	26.782	0	332.618	0	58.1	4	19.1	4	-1E+10	1	-1E+10	1	-1E+10	1	-1E+10	1	-1E+10	1	-1E+10	1
4902663	39	C	08/23/2024	11:10	-126.937	47.820	0	336.60	0	5.7590	0	33.9820	0	26.782	0	333.509	0	57.8	4	19.0	4	-1E+10	1	-1E+10	1	-1E+10	1	-1E+10	1	-1E+10	1	-1E+10	1
4902663	39	C	08/23/2024	11:10	-126.937	47.820	0	337.50	0	5.7200	0	33.9800	0	26.785	0	334.400	0	57.4	4	18.9	4	-1E+10	1	-1E+10	1	-1E+10	1	-1E+10	1	-1E+10	1	-1E+10	1
4902663	39	C	08/23/2024	11:10	-126.937	47.820	0	338.90	0	5.7230	0	33.9830	0	26.787	0	335.786	0	56.8	4	18.6	4	-1E+10	1	-1E+10	1	-1E+10	1	-1E+10	1	-1E+10	1	-1E+10	1
4902663	39	C	08/23/2024	11:10	-126.937	47.820	0	340.20	0	5.7380	0	33.9870	0	26.788	0	337.073	0	56.4	4	18.5	4	-1E+10	1	-1E+10	1	-1E+10	1	-1E+10	1	-1E+10	1	-1E+10	1
4902663	39	C	08/23/2024	11:10	-126.937	47.820	0	341.20	0	5.6980	0	33.9880	0	26.794	0	338.063	0	56.1	4	18.4	4	-1E+10	1	-1E+10	1	-1E+10	1	-1E+10	1	-1E+10	1	-1E+10	1
4902663	39	C	08/23/2024	11:10	-126.937	47.820	0	342.10	0	5.6560	0	33.9740	0	26.788	0	338.954	0	55.7	4	18.3	4	-1E+10	1	-1E+10	1	-1E+10	1	-1E+10	1	-1E+10	1	-1E+10	1
4902663	39	C	08/23/2024	11:10	-126.937	47.820	0	343.00	0	5.6210	0	33.9980	0	26.811	0	339.845	0	55.2	4	18.1	4	-1E+10	1	-1E+10	1	-1E+10	1	-1E+10	1	-1E+10	1	-1E+10	1
4902663	39	C	08/23/2024	11:10	-126.937	47.820	0	343.90	0	5.5800	0	33.9770	0	26.800	0	340.736	0	54.6	4	17.9	4	-1E+10	1	-1E+10	1	-1E+10	1	-1E+10	1	-1E+10	1	-1E+10	1
4902663	39	C	08/23/2024	11:10	-126.937	47.820	0	344.90	0	5.6850	0	33.9950	0	26.801	0	341.726	0	54.3	4	17.8	4	-1E+10	1	-1E+10	1	-1E+10	1	-1E+10	1	-1E+10	1	-1E+10	1
4902663	39	C	08/23/2024	11:10	-126.937	47.820	0	345.80	0	5.6550	0	33.9920	0	26.802	0	342.617	0	54.1	4	17.8	4	-1E+10	1	-1E+10	1	-1E+10	1	-1E+10	1	-1E+10	1	-1E+10	1
4902663	39	C	08/23/2024	11:10	-126.937	47.820	0	346.70	0	5.6430	0	33.9920	0	26.804	0	343.508	0	53.9	4	17.7	4	-1E+10	1	-1E+10	1	-1E+10	1	-1E+10	1	-1E+10	1	-1E+10	1
4902663	39	C	08/23/2024	11:10	-126.937	47.820	0	347.80	0	5.6300	0	33.9910	0	26.805	0	344.597	0	53.5	4	17.5	4	-1E+10	1	-1E+10	1	-1E+10	1	-1E+10	1	-1E+10	1	-1E+10	1
4902663	39	C	08/23/2024	11:10	-126.937	47.820	0	348.80	0	5.6160	0	33.9910	0	26.806	0	345.587	0	53.1	4	17.4	4	-1E+10	1	-1E+10	1	-1E+10	1	-1E+10	1	-1E+10	1	-1E+10	1
4902663	39	C	08/23/2024	11:10	-126.937	47.820	0	349.50	0	5.6140	0	33.9900	0	26.806	0	346.280	0	52.7	4	17.3	4	-1E+10	1	-1E+10	1	-1E+10	1	-1E+10	1	-1E+10	1	-1E+10	1
4902663	39	C	08/23/2024	11:10	-126.937	47.820	0	352.80	0	5.6660	0	33.9990	0	26.807	0	349.547	0	51.1	4	16.8	4	-1E+10	1	-1E+10	1	-1E+10	1	-1E+10	1	-1E+10	1	-1E+10	1
4902663	39	C	08/23/2024	11:10	-126.937	47.820	0	358.00	0	5.6520	0	34.0090	0	26.816	0	354.694	0	49.9	4	16.4	4	-1E+10	1	-1E+10	1	-1E+10	1	-1E+10	1	-1E+10	1	-1E+10	1
4902663	39	C	08/23/2024	11:10	-126.937	47.820	0	362.80	0	5.6260	0	34.0130	0	26.823	0	359.446	0	49.1	4	16.1	4	-1E+10	1	-1E+10	1	-1E+10	1	-1E+10	1	-1E+10	1	-1E+10	1
4902663	39	C	08/23/2024	11:10	-126.937	47.820	0	367.60	0	5.5820	0	34.0160	0	26.830	0	364.197	0	49.2	4	16.1	4	-1E+10	1	-1E+10	1	-1E+10	1	-1E+10	1	-1E+10	1	-1E+10	1
4902663	39	C	08/23/2024	11:10	-126.937	47.820	0	372.80	0	5.4950	0	34.0100	0	26.836	0	369.345	0	50.4	4	16.5	4	-1E+10	1	-1E+10	1	-1E+10	1	-1E+10	1	-1E+10	1	-1E+10	1
4902663	39	C	08/23/2024	11:10	-126.937	47.820	0	378.20	0	5.3540	0	33.9950	0	26.841	0	374.690	0	50.2	4	16.3	4	-1E+10	1	-1E+10	1	-1E+10	1	-1E+10	1	-1E+10	1	-1E+10	1
4902663	39	C	08/23/2024	11:10	-126.937	47.820	0	383.00	0	5.3360	0	33.9990	0	26.846	0	379.441	0	49.2	4	16.0	4	-1E+10	1	-1E+10	1	-1E+10	1	-1E+10	1	-1E+10	1	-1E+10	1
4902663	39	C	08/23/2024	11:10	-126.937	47.820	0	387.90	0	5.2820	0	33.9980	0	26.852	0	384.291	0	47.5	4	15.5	4	-1E+10	1	-1E+10	1	-1E+10	1	-1E+10	1	-1E+10	1	-1E+10	1
4902663	39	C	08/23/2024	11:10	-126.937	47.820	0	392.70	0	5.2790	0	33.9990	0	26.853	0	389.042	0	45.1	4	14.7	4	-1E+10	1	-1E+10	1	-1E+10	1	-1E+10	1	-1E+10	1	-1E+10	1
4902663	39	C	08/23/2024	11:10	-126.937	47.820	0	398.00	0	5.3280	0	34.0210	0	26.865	0	394.287	0	43.6	4	14.2	4	-1E+10	1	-1E+10	1	-1E+10	1	-1E+10	1	-1E+10	1	-1E+10	1
4902663	39	C	08/23/2024	11:10	-126.937	47.820	0	403.30	0	5.3070	0	34.0290	0	26.874	0	399.533	0	43.1	4	14.0	4	-1E+10	1	-1E+10	1	-1E+10	1	-1E+10	1	-1E+10	1	-1E+10	1
4902663	39	C	08/23/2024	11:10	-126.937	47.820	0	408.10	0	5.2080	0	34.0200	0	26.878	0	404.283	0	42.5	4	13.8	4	-1E+10	1	-1E+10	1	-1E+10	1	-1E+10	1	-1E+10	1	-1E+10	1
4902663	39	C	08/23/2024	11:10	-126.937	47.820	0	412.90	0	5.1150	0	34.0180	0	26.887	0	409.033	0	40.2	4	13.0	4	-1E+10	1	-1E+10	1	-1E+10	1	-1E+10	1	-1E+10	1	-1E+10	1
4902663	39	C	08/23/2024	11:10	-126.937	47.820	0	417.80	0	5.2440	0	34.0420	0	26.892	0	413.883	0	37.5	4	12.2	4	-1E+10	1	-1E+10	1	-1E+10	1	-1E+10	1	-1E+10	1	-1E+10	1
4902663	39	C	08/23/2024	11:10	-126.937	47.820	0	422.60	0	5.3110	0	34.0590	0	26.897	0	418.633	0	37.1	4	12.1	4	-1E+10	1	-1E+10	1	-1E+10	1	-1E+10	1	-1E+10	1	-1E+10	1
4902663	39	C	08/23/2024	11:10	-126.937	47.820	0	427.90	0	5.2280	0	34.0510	0	26.901	0	423.878	0	38.1	4	12.4	4	-1E+10	1	-1E+10	1	-1E+10	1	-1E+10	1	-1E+10	1	-1E+10	1
4902663	39	C	08/23/2024	11:10	-126.937	47.820	0	433.10	0	5.1150	0	34.0400	0	26.905	0	429.023	0	37.6	4	12.2	4	-1E+10	1	-1E+10	1	-1E+10	1	-1E+10	1	-1E+10	1	-1E+10	1
4902663	39	C	08/23/2024	11:10	-126.937	47.820	0	437.90	0	5.0730	0	34.0420	0	26.911	0	433.773	0	36.7	4	11.9	4	-1E+10	1	-1E+10	1	-1E+10	1	-1E+10	1	-1E+10	1	-1E+10	1
4902663	39	C	08/23/2024	11:10	-126.937	47.820	0	443.10	0	5.0780	0	34.0480	0	26.916	0	438.919	0	35.2	4	11.4	4	-1E+10	1	-1E+10	1	-1E+10	1	-1E+10	1	-1E+10	1	-1E+10	1
4902663	39	C	08/23/2024	11:10	-126.937	47.820	0	448.30	0	5.1230	0	34.0580	0	26.919	0	444.064	0	33.7	4	10.9	4	-1E+10	1	-1E+10	1	-1E+10	1	-1E+10	1	-1E+10	1	-1E+10	1
4902663	39	C	08/23/2024	11:10	-126.937	47.820	0	453.00	0	5.0980	0	34.0620	0	26.925	0	448.715	0	32.9	4	10.6	4	-1E+10	1	-1E+10	1	-1E+10	1	-1E+10	1	-1E+10	1	-1E+10	1
4902663	39	C	08/23/2024	11:10	-126.937	47.820	0	457.70	0	5.0670	0	34.0690	0	26.934	0	453.365	0	31.8	4	10.3	4	-1E+10	1	-1E+10	1	-1E+10	1	-1E+10	1	-1E+10	1	-1E+10	1
4902663	39	C	08/23/2024	11:10	-126.937	47.820	0	462.50	0	5.0360	0	34.0720	0	26.940	0	458.114	0	31.1	4	10.1	4	-1E+10	1	-1E+10	1	-1E+10	1	-1E+10	1	-1E+10	1	-1E+10	1
4902663	39	C	08/23/2024	11:10	-126.937	47.820	0	467.90	0	4.9770	0	34.0730	0	26.947	0	463.457	0	30.1	4	9.7	4	-1E+10	1	-1E+10	1	-1E+10	1	-1E+10	1	-1E+10	1	-1E+10	1
4902663	39	C	08/23/2024	11:10	-126.937	47.820	0	472.90	0	4.9610	0	34.0790	0	26.954	0	468.404	0	28.9	4	9.3	4	-1E+10	1	-1E+10	1	-1E+10	1	-1E+10	1	-1E+10	1	-1E+10	1
4902663	39	C	08/23/2024	11:10	-126.937	47.820	0	477.50	0	4.9700	0	34.0840	0	26.957	0	472.955	0	28.1	4	9.1	4	-1E+10	1	-1E+10	1	-1E+10	1	-1E+10	1	-1E+10	1	-1E+10	1
4902663	39	C	08/23/2024	11:10	-126.937	47.820	0	482.70	0	4.9720	0	34.0890	0	26.961	0	478.100	0	27.4	4	8.8	4	-1E+10	1	-1E+10	1	-1E+10	1	-1E+10	1	-1E+10	1	-1E+10	1
4902663	39	C	08/23/2024	11:10	-126.937	47.820	0	487.90	0	4.9260	0	34.0900	0	26.967	0	483.244	0	26.4	4	8.5	4	-1E+10	1	-1E+10	1	-1E+10	1	-1E+10	1	-1E+10	1	-1E+10	1
4902663	39	C	08/23/2024	11:10	-126.937	47.820	0	493.00	0	4.9190	0	34.0960	0	26.972	0	488.289	0	25.2	4	8.1	4	-1E+10	1	-1E+10	1	-1E+10	1	-1E+10	1	-1E+10	1	-1E+10	1
4902663	39	C	08/23/2024	11:10	-126.937	47.820	0	497.80	0	4.9380	0	34.1060	0	26.978	0	493.038	0	24.0	4	7.7	4	-1E+10	1	-1E+10	1	-1E+10	1	-1E+10	1	-1E+10	1	-1E+10	1
4902663	39	C	08/23/2024	11:10	-126.937	47.820	0	502.60	0	4.9620	0	34.1150	0	26.983	0	497.786	0	23.4	4	7.6	4	-1E+10	1	-1E+10	1	-1E+10	1	-1E+10	1	-1E+10	1	-1E+10	1
4902663	39	C	08/23/2024	11:10	-126.937	47.820	0	507.90	0	4.9420	0	34.1160	0	26.986	0	503.029	0	23.1	4	7.5	4	-1E+10	1	-1E+10	1	-1E+10	1	-1E+10	1	-1E+10	1	-1E+10	1
4902663	39	C	08/23/2024	11:10	-126.937	47.820	0	513.00	0	4.8960	0	34.1130	0	26.989	0	508.074	0	22.5	4	7.2	4	-1E+10	1	-1E+10	1	-1E+10	1	-1E+10	1	-1E+10	1	-1E+10	1
4902663	39	C	08/23/2024	11:10	-126.937	47.820	0	517.80	0	4.9250	0	34.1230	0	26.993	0	512.822	0	21.5	4	6.9	4	-1E+10	1	-1E+10	1	-1E+10	1	-1E+10	1	-1E+10	1	-1E+10	1
4902663	39	C	08/23/2024	11:10	-126.937	47.820	0	523.00	0	4.9070	0	34.1280	0	26.999	0	517.965	0	21.0	4	6.8	4	-1E+10	1	-1E+10	1	-1E+10	1	-1E+10	1	-1E+10	1	-1E+10	1
4902663	39	C	08/23/2024	11:10	-126.937	47.820	0	528.20	0	4.8800	0	34.1300	0	27.004	0	523.109	0	20.5	4	6.6	4	-1E+10	1	-1E+10	1	-1E+10	1	-1E+10	1	-1E+10	1	-1E+10	1
4902663	39	C	08/23/2024	11:10	-126.937	47.820	0	532.90	0	4.8400	0	34.1320	0	27.010	0	527.757	0	19.9	4	6.4	4	-1E+10	1	-1E+10	1	-1E+10	1	-1E+10	1	-1E+10	1	-1E+10	1
4902663	39	C	08/23/2024	11:10	-126.937	47.820	0	537.60	0	4.8190	0	34.1350	0	27.015	0	532.406	0	19.4	4	6.3	4	-1E+10	1	-1E+10	1	-1E+10	1	-1E+10	1	-1E+10	1	-1E+10	1
4902663	39	C	08/23/2024	11:10	-126.937	47.820	0	542.70	0	4.8010	0	34.1380	0	27.019	0	537.450	0	18.9	4	6.1	4	-1E+10	1	-1E+10	1	-1E+10	1	-1E+10	1	-1E+10	1	-1E+10	1
4902663	39	C	08/23/2024	11:10	-126.937	47.820	0	547.90	0	4.7930	0	34.1420	0	27.023	0	542.593	0	18.3	4	5.9	4	-1E+10	1	-1E+10	1	-1E+10	1	-1E+10	1	-1E+10	1	-1E+10	1
4902663	39	C	08/23/2024	11:10	-126.937	47.820	0	553.10	0	4.7760	0	34.1460	0	27.028	0	547.736	0	17.7	4	5.7	4	-1E+10	1	-1E+10	1	-1E+10	1	-1E+10	1	-1E+10	1	-1E+10	1
4902663	39	C	08/23/2024	11:10	-126.937	47.820	0	558.20	0	4.7600	0	34.1510	0	27.034	0	552.780	0	17.1	4	5.5	4	-1E+10	1	-1E+10	1	-1E+10	1	-1E+10	1	-1E+10	1	-1E+10	1
4902663	39	C	08/23/2024	11:10	-126.937	47.820	0	563.00	0	4.7410	0	34.1560	0	27.040	0	557.527	0	16.6	4	5.3	4	-1E+10	1	-1E+10	1	-1E+10	1	-1E+10	1	-1E+10	1	-1E+10	1
4902663	39	C	08/23/2024	11:10	-126.937	47.820	0	567.80	0	4.7200	0	34.1590	0	27.045	0	562.273	0	16.2	4	5.2	4	-1E+10	1	-1E+10	1	-1E+10	1	-1E+10	1	-1E+10	1	-1E+10	1
4902663	39	C	08/23/2024	11:10	-126.937	47.820	0	573.00	0	4.7050	0	34.1620	0	27.049	0	567.416	0	15.9	4	5.1	4	-1E+10	1	-1E+10	1	-1E+10	1	-1E+10	1	-1E+10	1	-1E+10	1
4902663	39	C	08/23/2024	11:10	-126.937	47.820	0	578.10	0	4.6820	0	34.1650	0	27.054	0	572.459	0	15.4	4	4.9	4	-1E+10	1	-1E+10	1	-1E+10	1	-1E+10	1	-1E+10	1	-1E+10	1
4902663	39	C	08/23/2024	11:10	-126.937	47.820	0	583.20	0	4.6580	0	34.1690	0	27.060	0	577.502	0	15.0	4	4.8	4	-1E+10	1	-1E+10	1	-1E+10	1	-1E+10	1	-1E+10	1	-1E+10	1
4902663	39	C	08/23/2024	11:10	-126.937	47.820	0	588.20	0	4.6390	0	34.1710	0	27.064	0	582.446	0	14.7	4	4.7	4	-1E+10	1	-1E+10	1	-1E+10	1	-1E+10	1	-1E+10	1	-1E+10	1
4902663	39	C	08/23/2024	11:10	-126.937	47.820	0	593.30	0	4.6240	0	34.1750	0	27.069	0	587.489	0	14.2	4	4.6	4	-1E+10	1	-1E+10	1	-1E+10	1	-1E+10	1	-1E+10	1	-1E+10	1
4902663	39	C	08/23/2024	11:10	-126.937	47.820	0	598.30	0	4.6010	0	34.1790	0	27.074	0	592.433	0	13.8	4	4.4	4	-1E+10	1	-1E+10	1	-1E+10	1	-1E+10	1	-1E+10	1	-1E+10	1
4902663	39	C	08/23/2024	11:10	-126.937	47.820	0	603.30	0	4.5980	0	34.1840	0	27.079	0	597.377	0	13.3	4	4.3	4	-1E+10	1	-1E+10	1	-1E+10	1	-1E+10	1	-1E+10	1	-1E+10	1
4902663	39	C	08/23/2024	11:10	-126.937	47.820	0	608.30	0	4.6030	0	34.1880	0	27.081	0	602.321	0	12.9	4	4.1	4	-1E+10	1	-1E+10	1	-1E+10	1	-1E+10	1	-1E+10	1	-1E+10	1
4902663	39	C	08/23/2024	11:10	-126.937	47.820	0	613.30	0	4.5800	0	34.1930	0	27.088	0	607.264	0	12.4	4	4.0	4	-1E+10	1	-1E+10	1	-1E+10	1	-1E+10	1	-1E+10	1	-1E+10	1
4902663	39	C	08/23/2024	11:10	-126.937	47.820	0	617.90	0	4.5720	0	34.2000	0	27.094	0	611.812	0	11.9	4	3.8	4	-1E+10	1	-1E+10	1	-1E+10	1	-1E+10	1	-1E+10	1	-1E+10	1
4902663	39	C	08/23/2024	11:10	-126.937	47.820	0	622.60	0	4.5640	0	34.2060	0	27.100	0	616.459	0	11.7	4	3.7	4	-1E+10	1	-1E+10	1	-1E+10	1	-1E+10	1	-1E+10	1	-1E+10	1
4902663	39	C	08/23/2024	11:10	-126.937	47.820	0	627.80	0	4.5280	0	34.2060	0	27.104	0	621.600	0	11.4	4	3.6	4	-1E+10	1	-1E+10	1	-1E+10	1	-1E+10	1	-1E+10	1	-1E+10	1
4902663	39	C	08/23/2024	11:10	-126.937	47.820	0	632.70	0	4.5060	0	34.2100	0	27.110	0	626.444	0	11.1	4	3.5	4	-1E+10	1	-1E+10	1	-1E+10	1	-1E+10	1	-1E+10	1	-1E+10	1
4902663	39	C	08/23/2024	11:10	-126.937	47.820	0	637.70	0	4.4920	0	34.2140	0	27.114	0	631.387	0	10.8	4	3.5	4	-1E+10	1	-1E+10	1	-1E+10	1	-1E+10	1	-1E+10	1	-1E+10	1
4902663	39	C	08/23/2024	11:10	-126.937	47.820	0	642.80	0	4.4850	0	34.2180	0	27.118	0	636.429	0	10.6	4	3.4	4	-1E+10	1	-1E+10	1	-1E+10	1	-1E+10	1	-1E+10	1	-1E+10	1
4902663	39	C	08/23/2024	11:10	-126.937	47.820	0	647.90	0	4.4690	0	34.2200	0	27.122	0	641.470	0	10.4	4	3.3	4	-1E+10	1	-1E+10	1	-1E+10	1	-1E+10	1	-1E+10	1	-1E+10	1
4902663	39	C	08/23/2024	11:10	-126.937	47.820	0	653.20	0	4.4380	0	34.2250	0	27.129	0	646.710	0	10.1	4	3.2	4	-1E+10	1	-1E+10	1	-1E+10	1	-1E+10	1	-1E+10	1	-1E+10	1
4902663	39	C	08/23/2024	11:10	-126.937	47.820	0	658.10	0	4.4180	0	34.2270	0	27.133	0	651.553	0	9.9	4	3.2	4	-1E+10	1	-1E+10	1	-1E+10	1	-1E+10	1	-1E+10	1	-1E+10	1
4902663	39	C	08/23/2024	11:10	-126.937	47.820	0	663.10	0	4.4040	0	34.2310	0	27.137	0	656.496	0	9.7	4	3.1	4	-1E+10	1	-1E+10	1	-1E+10	1	-1E+10	1	-1E+10	1	-1E+10	1
4902663	39	C	08/23/2024	11:10	-126.937	47.820	0	668.20	0	4.3930	0	34.2330	0	27.140	0	661.537	0	9.5	4	3.0	4	-1E+10	1	-1E+10	1	-1E+10	1	-1E+10	1	-1E+10	1	-1E+10	1
4902663	39	C	08/23/2024	11:10	-126.937	47.820	0	672.90	0	4.3800	0	34.2370	0	27.145	0	666.182	0	9.4	4	3.0	4	-1E+10	1	-1E+10	1	-1E+10	1	-1E+10	1	-1E+10	1	-1E+10	1
4902663	39	C	08/23/2024	11:10	-126.937	47.820	0	677.60	0	4.3740	0	34.2390	0	27.147	0	670.828	0	9.2	4	2.9	4	-1E+10	1	-1E+10	1	-1E+10	1	-1E+10	1	-1E+10	1	-1E+10	1
4902663	39	C	08/23/2024	11:10	-126.937	47.820	0	682.80	0	4.3610	0	34.2430	0	27.152	0	675.967	0	9.1	4	2.9	4	-1E+10	1	-1E+10	1	-1E+10	1	-1E+10	1	-1E+10	1	-1E+10	1
4902663	39	C	08/23/2024	11:10	-126.937	47.820	0	688.10	0	4.3400	0	34.2460	0	27.156	0	681.206	0	8.9	4	2.8	4	-1E+10	1	-1E+10	1	-1E+10	1	-1E+10	1	-1E+10	1	-1E+10	1
4902663	39	C	08/23/2024	11:10	-126.937	47.820	0	693.00	0	4.3240	0	34.2450	0	27.157	0	686.049	0	8.8	4	2.8	4	-1E+10	1	-1E+10	1	-1E+10	1	-1E+10	1	-1E+10	1	-1E+10	1
4902663	39	C	08/23/2024	11:10	-126.937	47.820	0	697.80	0	4.3200	0	34.2500	0	27.162	0	690.792	0	8.6	4	2.8	4	-1E+10	1	-1E+10	1	-1E+10	1	-1E+10	1	-1E+10	1	-1E+10	1
4902663	39	C	08/23/2024	11:10	-126.937	47.820	0	702.70	0	4.3080	0	34.2540	0	27.166	0	695.635	0	8.5	4	2.7	4	-1E+10	1	-1E+10	1	-1E+10	1	-1E+10	1	-1E+10	1	-1E+10	1
4902663	39	C	08/23/2024	11:10	-126.937	47.820	0	707.60	0	4.2960	0	34.2580	0	27.171	0	700.478	0	8.3	4	2.6	4	-1E+10	1	-1E+10	1	-1E+10	1	-1E+10	1	-1E+10	1	-1E+10	1
4902663	39	C	08/23/2024	11:10	-126.937	47.820	0	713.00	0	4.2850	0	34.2620	0	27.175	0	705.814	0	8.2	4	2.6	4	-1E+10	1	-1E+10	1	-1E+10	1	-1E+10	1	-1E+10	1	-1E+10	1
4902663	39	C	08/23/2024	11:10	-126.937	47.820	0	717.80	0	4.2640	0	34.2640	0	27.179	0	710.558	0	8.1	4	2.6	4	-1E+10	1	-1E+10	1	-1E+10	1	-1E+10	1	-1E+10	1	-1E+10	1
4902663	39	C	08/23/2024	11:10	-126.937	47.820	0	722.70	0	4.2390	0	34.2640	0	27.182	0	715.400	0	8.0	4	2.6	4	-1E+10	1	-1E+10	1	-1E+10	1	-1E+10	1	-1E+10	1	-1E+10	1
4902663	39	C	08/23/2024	11:10	-126.937	47.820	0	728.10	0	4.2420	0	34.2690	0	27.185	0	720.736	0	8.0	4	2.5	4	-1E+10	1	-1E+10	1	-1E+10	1	-1E+10	1	-1E+10	1	-1E+10	1
4902663	39	C	08/23/2024	11:10	-126.937	47.820	0	732.90	0	4.2150	0	34.2710	0	27.190	0	725.479	0	8.0	4	2.5	4	-1E+10	1	-1E+10	1	-1E+10	1	-1E+10	1	-1E+10	1	-1E+10	1
4902663	39	C	08/23/2024	11:10	-126.937	47.820	0	737.80	0	4.1780	0	34.2680	0	27.191	0	730.321	0	8.1	4	2.6	4	-1E+10	1	-1E+10	1	-1E+10	1	-1E+10	1	-1E+10	1	-1E+10	1
4902663	39	C	08/23/2024	11:10	-126.937	47.820	0	743.10	0	4.1330	0	34.2650	0	27.194	0	735.558	0	8.1	4	2.6	4	-1E+10	1	-1E+10	1	-1E+10	1	-1E+10	1	-1E+10	1	-1E+10	1
4902663	39	C	08/23/2024	11:10	-126.937	47.820	0	747.80	0	4.1030	0	34.2640	0	27.196	0	740.202	0	8.0	4	2.5	4	-1E+10	1	-1E+10	1	-1E+10	1	-1E+10	1	-1E+10	1	-1E+10	1
4902663	39	C	08/23/2024	11:10	-126.937	47.820	0	752.60	0	4.0900	0	34.2670	0	27.200	0	744.944	0	7.8	4	2.5	4	-1E+10	1	-1E+10	1	-1E+10	1	-1E+10	1	-1E+10	1	-1E+10	1
4902663	39	C	08/23/2024	11:10	-126.937	47.820	0	757.80	0	4.0870	0	34.2720	0	27.204	0	750.082	0	7.6	4	2.4	4	-1E+10	1	-1E+10	1	-1E+10	1	-1E+10	1	-1E+10	1	-1E+10	1
4902663	39	C	08/23/2024	11:10	-126.937	47.820	0	763.10	0	4.1170	0	34.2820	0	27.209	0	755.319	0	7.4	4	2.3	4	-1E+10	1	-1E+10	1	-1E+10	1	-1E+10	1	-1E+10	1	-1E+10	1
4902663	39	C	08/23/2024	11:10	-126.937	47.820	0	768.30	0	4.1170	0	34.2900	0	27.215	0	760.456	0	7.2	4	2.3	4	-1E+10	1	-1E+10	1	-1E+10	1	-1E+10	1	-1E+10	1	-1E+10	1
4902663	39	C	08/23/2024	11:10	-126.937	47.820	0	773.00	0	4.0850	0	34.2910	0	27.219	0	765.099	0	7.2	4	2.3	4	-1E+10	1	-1E+10	1	-1E+10	1	-1E+10	1	-1E+10	1	-1E+10	1
4902663	39	C	08/23/2024	11:10	-126.937	47.820	0	777.60	0	4.0720	0	34.2960	0	27.225	0	769.644	0	7.1	4	2.2	4	-1E+10	1	-1E+10	1	-1E+10	1	-1E+10	1	-1E+10	1	-1E+10	1
4902663	39	C	08/23/2024	11:10	-126.937	47.820	0	782.90	0	4.0720	0	34.3010	0	27.229	0	774.880	0	7.0	4	2.2	4	-1E+10	1	-1E+10	1	-1E+10	1	-1E+10	1	-1E+10	1	-1E+10	1
4902663	39	C	08/23/2024	11:10	-126.937	47.820	0	788.00	0	4.0550	0	34.3030	0	27.232	0	779.918	0	7.0	4	2.2	4	-1E+10	1	-1E+10	1	-1E+10	1	-1E+10	1	-1E+10	1	-1E+10	1
4902663	39	C	08/23/2024	11:10	-126.937	47.820	0	793.20	0	4.0460	0	34.3080	0	27.237	0	785.055	0	6.9	4	2.2	4	-1E+10	1	-1E+10	1	-1E+10	1	-1E+10	1	-1E+10	1	-1E+10	1
4902663	39	C	08/23/2024	11:10	-126.937	47.820	0	798.30	0	4.0380	0	34.3130	0	27.242	0	790.093	0	6.9	4	2.2	4	-1E+10	1	-1E+10	1	-1E+10	1	-1E+10	1	-1E+10	1	-1E+10	1
4902663	39	C	08/23/2024	11:10	-126.937	47.820	0	802.90	0	4.0240	0	34.3150	0	27.245	0	794.637	0	6.8	4	2.2	4	-1E+10	1	-1E+10	1	-1E+10	1	-1E+10	1	-1E+10	1	-1E+10	1
4902663	39	C	08/23/2024	11:10	-126.937	47.820	0	807.60	0	4.0220	0	34.3190	0	27.248	0	799.280	0	6.8	4	2.2	4	-1E+10	1	-1E+10	1	-1E+10	1	-1E+10	1	-1E+10	1	-1E+10	1
4902663	39	C	08/23/2024	11:10	-126.937	47.820	0	812.70	0	4.0070	0	34.3200	0	27.251	0	804.317	0	6.8	4	2.2	4	-1E+10	1	-1E+10	1	-1E+10	1	-1E+10	1	-1E+10	1	-1E+10	1
4902663	39	C	08/23/2024	11:10	-126.937	47.820	0	817.80	0	3.9740	0	34.3190	0	27.253	0	809.355	0	6.9	4	2.2	4	-1E+10	1	-1E+10	1	-1E+10	1	-1E+10	1	-1E+10	1	-1E+10	1
4902663	39	C	08/23/2024	11:10	-126.937	47.820	0	823.00	0	3.9510	0	34.3200	0	27.257	0	814.491	0	6.9	4	2.2	4	-1E+10	1	-1E+10	1	-1E+10	1	-1E+10	1	-1E+10	1	-1E+10	1
4902663	39	C	08/23/2024	11:10	-126.937	47.820	0	828.10	0	3.9110	0	34.3210	0	27.261	0	819.528	0	6.8	4	2.2	4	-1E+10	1	-1E+10	1	-1E+10	1	-1E+10	1	-1E+10	1	-1E+10	1
4902663	39	C	08/23/2024	11:10	-126.937	47.820	0	832.80	0	3.9030	0	34.3230	0	27.264	0	824.170	0	6.9	4	2.2	4	-1E+10	1	-1E+10	1	-1E+10	1	-1E+10	1	-1E+10	1	-1E+10	1
4902663	39	C	08/23/2024	11:10	-126.937	47.820	0	837.50	0	3.8950	0	34.3250	0	27.266	0	828.812	0	6.9	4	2.2	4	-1E+10	1	-1E+10	1	-1E+10	1	-1E+10	1	-1E+10	1	-1E+10	1
4902663	39	C	08/23/2024	11:10	-126.937	47.820	0	842.60	0	3.8840	0	34.3270	0	27.269	0	833.849	0	6.9	4	2.2	4	-1E+10	1	-1E+10	1	-1E+10	1	-1E+10	1	-1E+10	1	-1E+10	1
4902663	39	C	08/23/2024	11:10	-126.937	47.820	0	847.60	0	3.8750	0	34.3300	0	27.272	0	838.787	0	6.8	4	2.2	4	-1E+10	1	-1E+10	1	-1E+10	1	-1E+10	1	-1E+10	1	-1E+10	1
4902663	39	C	08/23/2024	11:10	-126.937	47.820	0	852.90	0	3.8790	0	34.3340	0	27.275	0	844.022	0	6.8	4	2.2	4	-1E+10	1	-1E+10	1	-1E+10	1	-1E+10	1	-1E+10	1	-1E+10	1
4902663	39	C	08/23/2024	11:10	-126.937	47.820	0	858.30	0	3.8540	0	34.3360	0	27.279	0	849.354	0	6.8	4	2.2	4	-1E+10	1	-1E+10	1	-1E+10	1	-1E+10	1	-1E+10	1	-1E+10	1
4902663	39	C	08/23/2024	11:10	-126.937	47.820	0	863.20	0	3.8390	0	34.3390	0	27.283	0	854.193	0	6.9	4	2.2	4	-1E+10	1	-1E+10	1	-1E+10	1	-1E+10	1	-1E+10	1	-1E+10	1
4902663	39	C	08/23/2024	11:10	-126.937	47.820	0	868.20	0	3.8220	0	34.3430	0	27.288	0	859.131	0	6.9	4	2.2	4	-1E+10	1	-1E+10	1	-1E+10	1	-1E+10	1	-1E+10	1	-1E+10	1
4902663	39	C	08/23/2024	11:10	-126.937	47.820	0	873.20	0	3.8130	0	34.3470	0	27.292	0	864.068	0	6.9	4	2.2	4	-1E+10	1	-1E+10	1	-1E+10	1	-1E+10	1	-1E+10	1	-1E+10	1
4902663	39	C	08/23/2024	11:10	-126.937	47.820	0	878.00	0	3.8060	0	34.3510	0	27.296	0	868.808	0	7.0	4	2.2	4	-1E+10	1	-1E+10	1	-1E+10	1	-1E+10	1	-1E+10	1	-1E+10	1
4902663	39	C	08/23/2024	11:10	-126.937	47.820	0	882.80	0	3.7890	0	34.3530	0	27.300	0	873.548	0	7.0	4	2.2	4	-1E+10	1	-1E+10	1	-1E+10	1	-1E+10	1	-1E+10	1	-1E+10	1
4902663	39	C	08/23/2024	11:10	-126.937	47.820	0	888.10	0	3.7730	0	34.3580	0	27.305	0	878.781	0	7.0	4	2.2	4	-1E+10	1	-1E+10	1	-1E+10	1	-1E+10	1	-1E+10	1	-1E+10	1
4902663	39	C	08/23/2024	11:10	-126.937	47.820	0	893.00	0	3.7540	0	34.3610	0	27.309	0	883.619	0	7.1	4	2.2	4	-1E+10	1	-1E+10	1	-1E+10	1	-1E+10	1	-1E+10	1	-1E+10	1
4902663	39	C	08/23/2024	11:10	-126.937	47.820	0	897.90	0	3.7410	0	34.3620	0	27.312	0	888.458	0	7.1	4	2.2	4	-1E+10	1	-1E+10	1	-1E+10	1	-1E+10	1	-1E+10	1	-1E+10	1
4902663	39	C	08/23/2024	11:10	-126.937	47.820	0	903.00	0	3.7260	0	34.3640	0	27.315	0	893.493	0	7.1	4	2.2	4	-1E+10	1	-1E+10	1	-1E+10	1	-1E+10	1	-1E+10	1	-1E+10	1
4902663	39	C	08/23/2024	11:10	-126.937	47.820	0	908.00	0	3.6840	0	34.3620	0	27.317	0	898.430	0	7.2	4	2.3	4	-1E+10	1	-1E+10	1	-1E+10	1	-1E+10	1	-1E+10	1	-1E+10	1
4902663	39	C	08/23/2024	11:10	-126.937	47.820	0	913.10	0	3.6540	0	34.3620	0	27.320	0	903.465	0	7.2	4	2.3	4	-1E+10	1	-1E+10	1	-1E+10	1	-1E+10	1	-1E+10	1	-1E+10	1
4902663	39	C	08/23/2024	11:10	-126.937	47.820	0	917.80	0	3.6460	0	34.3670	0	27.325	0	908.105	0	7.3	4	2.3	4	-1E+10	1	-1E+10	1	-1E+10	1	-1E+10	1	-1E+10	1	-1E+10	1
4902663	39	C	08/23/2024	11:10	-126.937	47.820	0	922.60	0	3.6560	0	34.3680	0	27.325	0	912.844	0	7.3	4	2.3	4	-1E+10	1	-1E+10	1	-1E+10	1	-1E+10	1	-1E+10	1	-1E+10	1
4902663	39	C	08/23/2024	11:10	-126.937	47.820	0	927.60	0	3.6400	0	34.3700	0	27.328	0	917.780	0	7.4	4	2.3	4	-1E+10	1	-1E+10	1	-1E+10	1	-1E+10	1	-1E+10	1	-1E+10	1
4902663	39	C	08/23/2024	11:10	-126.937	47.820	0	932.60	0	3.6390	0	34.3730	0	27.331	0	922.716	0	7.5	4	2.3	4	-1E+10	1	-1E+10	1	-1E+10	1	-1E+10	1	-1E+10	1	-1E+10	1
4902663	39	C	08/23/2024	11:10	-126.937	47.820	0	937.60	0	3.6330	0	34.3770	0	27.334	0	927.652	0	7.5	4	2.4	4	-1E+10	1	-1E+10	1	-1E+10	1	-1E+10	1	-1E+10	1	-1E+10	1
4902663	39	C	08/23/2024	11:10	-126.937	47.820	0	942.70	0	3.5780	0	34.3740	0	27.337	0	932.687	0	7.6	4	2.4	4	-1E+10	1	-1E+10	1	-1E+10	1	-1E+10	1	-1E+10	1	-1E+10	1
4902663	39	C	08/23/2024	11:10	-126.937	47.820	0	947.70	0	3.5610	0	34.3740	0	27.339	0	937.622	0	7.6	4	2.4	4	-1E+10	1	-1E+10	1	-1E+10	1	-1E+10	1	-1E+10	1	-1E+10	1
4902663	39	C	08/23/2024	11:10	-126.937	47.820	0	952.70	0	3.5760	0	34.3800	0	27.342	0	942.558	0	7.7	4	2.4	4	-1E+10	1	-1E+10	1	-1E+10	1	-1E+10	1	-1E+10	1	-1E+10	1
4902663	39	C	08/23/2024	11:10	-126.937	47.820	0	957.90	0	3.5740	0	34.3810	0	27.343	0	947.691	0	7.8	4	2.4	4	-1E+10	1	-1E+10	1	-1E+10	1	-1E+10	1	-1E+10	1	-1E+10	1
4902663	39	C	08/23/2024	11:10	-126.937	47.820	0	963.00	0	3.5720	0	34.3830	0	27.345	0	952.725	0	7.9	4	2.5	4	-1E+10	1	-1E+10	1	-1E+10	1	-1E+10	1	-1E+10	1	-1E+10	1
4902663	39	C	08/23/2024	11:10	-126.937	47.820	0	968.10	0	3.5700	0	34.3870	0	27.349	0	957.759	0	7.9	4	2.5	4	-1E+10	1	-1E+10	1	-1E+10	1	-1E+10	1	-1E+10	1	-1E+10	1
4902663	39	C	08/23/2024	11:10	-126.937	47.820	0	973.10	0	3.5670	0	34.3900	0	27.351	0	962.694	0	8.0	4	2.5	4	-1E+10	1	-1E+10	1	-1E+10	1	-1E+10	1	-1E+10	1	-1E+10	1
4902663	39	C	08/23/2024	11:10	-126.937	47.820	0	978.20	0	3.5540	0	34.3910	0	27.354	0	967.728	0	8.0	4	2.5	4	-1E+10	1	-1E+10	1	-1E+10	1	-1E+10	1	-1E+10	1	-1E+10	1
4902663	39	C	08/23/2024	11:10	-126.937	47.820	0	983.30	0	3.5450	0	34.3910	0	27.354	0	972.761	0	8.1	4	2.5	4	-1E+10	1	-1E+10	1	-1E+10	1	-1E+10	1	-1E+10	1	-1E+10	1
4902663	39	C	08/23/2024	11:10	-126.937	47.820	0	988.30	0	3.5320	0	34.3930	0	27.357	0	977.696	0	8.2	4	2.6	4	-1E+10	1	-1E+10	1	-1E+10	1	-1E+10	1	-1E+10	1	-1E+10	1
4902663	39	C	08/23/2024	11:10	-126.937	47.820	0	992.90	0	3.5220	0	34.3940	0	27.359	0	982.236	0	8.2	4	2.6	4	-1E+10	1	-1E+10	1	-1E+10	1	-1E+10	1	-1E+10	1	-1E+10	1
4902663	39	C	08/23/2024	11:10	-126.937	47.820	0	997.50	0	3.4920	0	34.3930	0	27.361	0	986.776	0	8.3	4	2.6	4	-1E+10	1	-1E+10	1	-1E+10	1	-1E+10	1	-1E+10	1	-1E+10	1
4902663	39	C	08/23/2024	11:10	-126.937	47.820	0	1005.20	0	3.4770	0	34.3960	0	27.365	0	994.374	0	8.5	4	2.7	4	-1E+10	1	-1E+10	1	-1E+10	1	-1E+10	1	-1E+10	1	-1E+10	1
4902663	39	C	08/23/2024	11:10	-126.937	47.820	0	1015.20	0	3.4640	0	34.4030	0	27.372	0	1004.243	0	8.8	4	2.7	4	-1E+10	1	-1E+10	1	-1E+10	1	-1E+10	1	-1E+10	1	-1E+10	1
4902663	39	C	08/23/2024	11:10	-126.937	47.820	0	1025.20	0	3.4460	0	34.4070	0	27.377	0	1014.111	0	8.9	4	2.8	4	-1E+10	1	-1E+10	1	-1E+10	1	-1E+10	1	-1E+10	1	-1E+10	1
4902663	39	C	08/23/2024	11:10	-126.937	47.820	0	1035.30	0	3.4350	0	34.4110	0	27.381	0	1024.077	0	9.1	4	2.8	4	-1E+10	1	-1E+10	1	-1E+10	1	-1E+10	1	-1E+10	1	-1E+10	1
4902663	39	C	08/23/2024	11:10	-126.937	47.820	0	1045.20	0	3.4240	0	34.4120	0	27.383	0	1033.845	0	9.2	4	2.9	4	-1E+10	1	-1E+10	1	-1E+10	1	-1E+10	1	-1E+10	1	-1E+10	1
4902663	39	C	08/23/2024	11:10	-126.937	47.820	0	1055.10	0	3.3960	0	34.4150	0	27.388	0	1043.613	0	9.5	4	3.0	4	-1E+10	1	-1E+10	1	-1E+10	1	-1E+10	1	-1E+10	1	-1E+10	1
4902663	39	C	08/23/2024	11:10	-126.937	47.820	0	1065.10	0	3.3700	0	34.4180	0	27.393	0	1053.479	0	9.8	4	3.0	4	-1E+10	1	-1E+10	1	-1E+10	1	-1E+10	1	-1E+10	1	-1E+10	1
4902663	39	C	08/23/2024	11:10	-126.937	47.820	0	1075.10	0	3.3500	0	34.4230	0	27.399	0	1063.345	0	10.1	4	3.1	4	-1E+10	1	-1E+10	1	-1E+10	1	-1E+10	1	-1E+10	1	-1E+10	1
4902663	39	C	08/23/2024	11:10	-126.937	47.820	0	1085.20	0	3.3190	0	34.4260	0	27.405	0	1073.308	0	10.2	4	3.2	4	-1E+10	1	-1E+10	1	-1E+10	1	-1E+10	1	-1E+10	1	-1E+10	1
4902663	39	C	08/23/2024	11:10	-126.937	47.820	0	1095.20	0	3.3060	0	34.4270	0	27.407	0	1083.173	0	10.4	4	3.2	4	-1E+10	1	-1E+10	1	-1E+10	1	-1E+10	1	-1E+10	1	-1E+10	1
4902663	39	C	08/23/2024	11:10	-126.937	47.820	0	1105.20	0	3.2760	0	34.4290	0	27.411	0	1093.037	0	10.6	4	3.3	4	-1E+10	1	-1E+10	1	-1E+10	1	-1E+10	1	-1E+10	1	-1E+10	1
4902663	39	C	08/23/2024	11:10	-126.937	47.820	0	1115.50	0	3.2480	0	34.4320	0	27.416	0	1103.197	0	10.8	4	3.4	4	-1E+10	1	-1E+10	1	-1E+10	1	-1E+10	1	-1E+10	1	-1E+10	1
4902663	39	C	08/23/2024	11:10	-126.937	47.820	0	1125.70	0	3.2280	0	34.4350	0	27.420	0	1113.257	0	11.1	4	3.4	4	-1E+10	1	-1E+10	1	-1E+10	1	-1E+10	1	-1E+10	1	-1E+10	1
4902663	39	C	08/23/2024	11:10	-126.937	47.820	0	1135.50	0	3.1990	0	34.4380	0	27.426	0	1122.923	0	11.3	4	3.5	4	-1E+10	1	-1E+10	1	-1E+10	1	-1E+10	1	-1E+10	1	-1E+10	1
4902663	39	C	08/23/2024	11:10	-126.937	47.820	0	1145.10	0	3.1610	0	34.4390	0	27.430	0	1132.390	0	11.5	4	3.6	4	-1E+10	1	-1E+10	1	-1E+10	1	-1E+10	1	-1E+10	1	-1E+10	1
4902663	39	C	08/23/2024	11:10	-126.937	47.820	0	1155.00	0	3.1370	0	34.4410	0	27.434	0	1142.154	0	11.7	4	3.6	4	-1E+10	1	-1E+10	1	-1E+10	1	-1E+10	1	-1E+10	1	-1E+10	1
4902663	39	C	08/23/2024	11:10	-126.937	47.820	0	1165.40	0	3.1210	0	34.4420	0	27.436	0	1152.410	0	11.9	4	3.7	4	-1E+10	1	-1E+10	1	-1E+10	1	-1E+10	1	-1E+10	1	-1E+10	1
4902663	39	C	08/23/2024	11:10	-126.937	47.820	0	1175.60	0	3.0960	0	34.4450	0	27.441	0	1162.468	0	12.3	4	3.8	4	-1E+10	1	-1E+10	1	-1E+10	1	-1E+10	1	-1E+10	1	-1E+10	1
4902663	39	C	08/23/2024	11:10	-126.937	47.820	0	1185.50	0	3.0890	0	34.4510	0	27.446	0	1172.229	0	12.8	4	4.0	4	-1E+10	1	-1E+10	1	-1E+10	1	-1E+10	1	-1E+10	1	-1E+10	1
4902663	39	C	08/23/2024	11:10	-126.937	47.820	0	1195.40	0	3.0620	0	34.4540	0	27.451	0	1181.991	0	13.1	4	4.0	4	-1E+10	1	-1E+10	1	-1E+10	1	-1E+10	1	-1E+10	1	-1E+10	1
4902663	39	C	08/23/2024	11:10	-126.937	47.820	0	1205.40	0	3.0380	0	34.4560	0	27.455	0	1191.850	0	13.1	4	4.1	4	-1E+10	1	-1E+10	1	-1E+10	1	-1E+10	1	-1E+10	1	-1E+10	1
4902663	39	C	08/23/2024	11:10	-126.937	47.820	0	1215.70	0	2.9870	0	34.4530	0	27.457	0	1202.005	0	13.1	4	4.0	4	-1E+10	1	-1E+10	1	-1E+10	1	-1E+10	1	-1E+10	1	-1E+10	1
4902663	39	C	08/23/2024	11:10	-126.937	47.820	0	1225.60	0	2.9640	0	34.4550	0	27.461	0	1211.765	0	13.3	4	4.1	4	-1E+10	1	-1E+10	1	-1E+10	1	-1E+10	1	-1E+10	1	-1E+10	1
4902663	39	C	08/23/2024	11:10	-126.937	47.820	0	1235.40	0	2.9410	0	34.4560	0	27.464	0	1221.426	0	13.7	4	4.2	4	-1E+10	1	-1E+10	1	-1E+10	1	-1E+10	1	-1E+10	1	-1E+10	1
4902663	39	C	08/23/2024	11:10	-126.937	47.820	0	1245.30	0	2.9200	0	34.4590	0	27.468	0	1231.185	0	14.1	4	4.3	4	-1E+10	1	-1E+10	1	-1E+10	1	-1E+10	1	-1E+10	1	-1E+10	1
4902663	39	C	08/23/2024	11:10	-126.937	47.820	0	1255.30	0	2.8980	0	34.4620	0	27.473	0	1241.042	0	14.5	4	4.5	4	-1E+10	1	-1E+10	1	-1E+10	1	-1E+10	1	-1E+10	1	-1E+10	1
4902663	39	C	08/23/2024	11:10	-126.937	47.820	0	1265.70	0	2.8730	0	34.4650	0	27.477	0	1251.293	0	14.9	4	4.6	4	-1E+10	1	-1E+10	1	-1E+10	1	-1E+10	1	-1E+10	1	-1E+10	1
4902663	39	C	08/23/2024	11:10	-126.937	47.820	0	1275.50	0	2.8490	0	34.4680	0	27.482	0	1260.952	0	15.4	4	4.7	4	-1E+10	1	-1E+10	1	-1E+10	1	-1E+10	1	-1E+10	1	-1E+10	1
4902663	39	C	08/23/2024	11:10	-126.937	47.820	0	1285.30	0	2.8250	0	34.4710	0	27.486	0	1270.611	0	15.8	4	4.9	4	-1E+10	1	-1E+10	1	-1E+10	1	-1E+10	1	-1E+10	1	-1E+10	1
4902663	39	C	08/23/2024	11:10	-126.937	47.820	0	1295.70	0	2.8100	0	34.4730	0	27.489	0	1280.861	0	16.2	4	5.0	4	-1E+10	1	-1E+10	1	-1E+10	1	-1E+10	1	-1E+10	1	-1E+10	1
4902663	39	C	08/23/2024	11:10	-126.937	47.820	0	1305.50	0	2.7870	0	34.4760	0	27.494	0	1290.518	0	16.7	4	5.1	4	-1E+10	1	-1E+10	1	-1E+10	1	-1E+10	1	-1E+10	1	-1E+10	1
4902663	39	C	08/23/2024	11:10	-126.937	47.820	0	1315.30	0	2.7660	0	34.4790	0	27.498	0	1300.176	0	17.1	4	5.3	4	-1E+10	1	-1E+10	1	-1E+10	1	-1E+10	1	-1E+10	1	-1E+10	1
4902663	39	C	08/23/2024	11:10	-126.937	47.820	0	1325.50	0	2.7460	0	34.4810	0	27.502	0	1310.227	0	17.6	4	5.4	4	-1E+10	1	-1E+10	1	-1E+10	1	-1E+10	1	-1E+10	1	-1E+10	1
4902663	39	C	08/23/2024	11:10	-126.937	47.820	0	1335.30	0	2.7220	0	34.4830	0	27.505	0	1319.883	0	18.2	4	5.6	4	-1E+10	1	-1E+10	1	-1E+10	1	-1E+10	1	-1E+10	1	-1E+10	1
4902663	39	C	08/23/2024	11:10	-126.937	47.820	0	1345.10	0	2.6960	0	34.4860	0	27.510	0	1329.539	0	18.7	4	5.7	4	-1E+10	1	-1E+10	1	-1E+10	1	-1E+10	1	-1E+10	1	-1E+10	1
4902663	39	C	08/23/2024	11:10	-126.937	47.820	0	1355.40	0	2.6700	0	34.4890	0	27.515	0	1339.687	0	19.3	4	5.9	4	-1E+10	1	-1E+10	1	-1E+10	1	-1E+10	1	-1E+10	1	-1E+10	1
4902663	39	C	08/23/2024	11:10	-126.937	47.820	0	1365.70	0	2.6500	0	34.4910	0	27.518	0	1349.835	0	19.8	4	6.1	4	-1E+10	1	-1E+10	1	-1E+10	1	-1E+10	1	-1E+10	1	-1E+10	1
4902663	39	C	08/23/2024	11:10	-126.937	47.820	0	1375.40	0	2.6280	0	34.4940	0	27.522	0	1359.391	0	20.4	4	6.3	4	-1E+10	1	-1E+10	1	-1E+10	1	-1E+10	1	-1E+10	1	-1E+10	1
4902663	39	C	08/23/2024	11:10	-126.937	47.820	0	1385.20	0	2.6120	0	34.4970	0	27.526	0	1369.045	0	21.0	4	6.4	4	-1E+10	1	-1E+10	1	-1E+10	1	-1E+10	1	-1E+10	1	-1E+10	1
4902663	39	C	08/23/2024	11:10	-126.937	47.820	0	1395.40	0	2.6020	0	34.5020	0	27.531	0	1379.093	0	21.6	4	6.6	4	-1E+10	1	-1E+10	1	-1E+10	1	-1E+10	1	-1E+10	1	-1E+10	1
4902663	39	C	08/23/2024	11:10	-126.937	47.820	0	1405.80	0	2.5880	0	34.5030	0	27.533	0	1389.337	0	22.1	4	6.8	4	-1E+10	1	-1E+10	1	-1E+10	1	-1E+10	1	-1E+10	1	-1E+10	1
4902663	39	C	08/23/2024	11:10	-126.937	47.820	0	1415.40	0	2.5850	0	34.5080	0	27.537	0	1398.793	0	23.3	4	7.1	4	-1E+10	1	-1E+10	1	-1E+10	1	-1E+10	1	-1E+10	1	-1E+10	1
4902663	39	C	08/23/2024	11:10	-126.937	47.820	0	1425.30	0	2.5760	0	34.5120	0	27.542	0	1408.544	0	24.1	4	7.4	4	-1E+10	1	-1E+10	1	-1E+10	1	-1E+10	1	-1E+10	1	-1E+10	1
4902663	39	C	08/23/2024	11:10	-126.937	47.820	0	1435.20	0	2.5540	0	34.5150	0	27.546	0	1418.294	0	24.6	4	7.5	4	-1E+10	1	-1E+10	1	-1E+10	1	-1E+10	1	-1E+10	1	-1E+10	1
4902663	39	C	08/23/2024	11:10	-126.937	47.820	0	1445.10	0	2.5300	0	34.5150	0	27.548	0	1428.044	0	24.8	4	7.6	4	-1E+10	1	-1E+10	1	-1E+10	1	-1E+10	1	-1E+10	1	-1E+10	1
4902663	39	C	08/23/2024	11:10	-126.937	47.820	0	1455.20	0	2.5040	0	34.5150	0	27.550	0	1437.990	0	24.9	4	7.6	4	-1E+10	1	-1E+10	1	-1E+10	1	-1E+10	1	-1E+10	1	-1E+10	1
4902663	39	C	08/23/2024	11:10	-126.937	47.820	0	1465.60	0	2.4870	0	34.5150	0	27.552	0	1448.232	0	25.2	4	7.7	4	-1E+10	1	-1E+10	1	-1E+10	1	-1E+10	1	-1E+10	1	-1E+10	1
4902663	39	C	08/23/2024	11:10	-126.937	47.820	0	1475.70	0	2.4690	0	34.5170	0	27.555	0	1458.177	0	25.6	4	7.8	4	-1E+10	1	-1E+10	1	-1E+10	1	-1E+10	1	-1E+10	1	-1E+10	1
4902663	39	C	08/23/2024	11:10	-126.937	47.820	0	1485.40	0	2.4590	0	34.5180	0	27.556	0	1467.728	0	26.1	4	7.9	4	-1E+10	1	-1E+10	1	-1E+10	1	-1E+10	1	-1E+10	1	-1E+10	1
4902663	39	C	08/23/2024	11:10	-126.937	47.820	0	1495.20	0	2.4400	0	34.5200	0	27.560	0	1477.377	0	26.5	4	8.1	4	-1E+10	1	-1E+10	1	-1E+10	1	-1E+10	1	-1E+10	1	-1E+10	1
4902663	39	C	08/23/2024	11:10	-126.937	47.820	0	1505.00	0	2.4300	0	34.5210	0	27.561	0	1487.026	0	27.0	4	8.2	4	-1E+10	1	-1E+10	1	-1E+10	1	-1E+10	1	-1E+10	1	-1E+10	1
4902663	39	C	08/23/2024	11:10	-126.937	47.820	0	1515.00	0	2.4150	0	34.5230	0	27.564	0	1496.871	0	27.5	4	8.4	4	-1E+10	1	-1E+10	1	-1E+10	1	-1E+10	1	-1E+10	1	-1E+10	1
4902663	39	C	08/23/2024	11:10	-126.937	47.820	0	1525.00	0	2.3980	0	34.5240	0	27.567	0	1506.716	0	28.1	4	8.6	4	-1E+10	1	-1E+10	1	-1E+10	1	-1E+10	1	-1E+10	1	-1E+10	1
4902663	39	C	08/23/2024	11:10	-126.937	47.820	0	1535.00	0	2.3850	0	34.5260	0	27.569	0	1516.560	0	28.7	4	8.7	4	-1E+10	1	-1E+10	1	-1E+10	1	-1E+10	1	-1E+10	1	-1E+10	1
4902663	39	C	08/23/2024	11:10	-126.937	47.820	0	1545.50	0	2.3720	0	34.5280	0	27.572	0	1526.896	0	29.2	4	8.9	4	-1E+10	1	-1E+10	1	-1E+10	1	-1E+10	1	-1E+10	1	-1E+10	1
4902663	39	C	08/23/2024	11:10	-126.937	47.820	0	1555.50	0	2.3630	0	34.5300	0	27.574	0	1536.740	0	29.7	4	9.0	4	-1E+10	1	-1E+10	1	-1E+10	1	-1E+10	1	-1E+10	1	-1E+10	1
4902663	39	C	08/23/2024	11:10	-126.937	47.820	0	1565.40	0	2.3580	0	34.5310	0	27.576	0	1546.484	0	30.5	4	9.3	4	-1E+10	1	-1E+10	1	-1E+10	1	-1E+10	1	-1E+10	1	-1E+10	1
4902663	39	C	08/23/2024	11:10	-126.937	47.820	0	1575.30	0	2.3430	0	34.5340	0	27.579	0	1556.228	0	31.5	4	9.6	4	-1E+10	1	-1E+10	1	-1E+10	1	-1E+10	1	-1E+10	1	-1E+10	1
4902663	39	C	08/23/2024	11:10	-126.937	47.820	0	1585.20	0	2.3370	0	34.5380	0	27.583	0	1565.972	0	32.4	4	9.9	4	-1E+10	1	-1E+10	1	-1E+10	1	-1E+10	1	-1E+10	1	-1E+10	1
4902663	39	C	08/23/2024	11:10	-126.937	47.820	0	1595.20	0	2.3300	0	34.5410	0	27.586	0	1575.813	0	33.3	4	10.1	4	-1E+10	1	-1E+10	1	-1E+10	1	-1E+10	1	-1E+10	1	-1E+10	1
4902663	39	C	08/23/2024	11:10	-126.937	47.820	0	1605.20	0	2.3300	0	34.5440	0	27.589	0	1585.654	0	34.1	4	10.4	4	-1E+10	1	-1E+10	1	-1E+10	1	-1E+10	1	-1E+10	1	-1E+10	1
4902663	39	C	08/23/2024	11:10	-126.937	47.820	0	1615.30	0	2.3230	0	34.5460	0	27.591	0	1595.593	0	34.6	4	10.5	4	-1E+10	1	-1E+10	1	-1E+10	1	-1E+10	1	-1E+10	1	-1E+10	1
4902663	39	C	08/23/2024	11:10	-126.937	47.820	0	1625.30	0	2.3090	0	34.5470	0	27.593	0	1605.433	0	35.4	4	10.7	4	-1E+10	1	-1E+10	1	-1E+10	1	-1E+10	1	-1E+10	1	-1E+10	1
4902663	39	C	08/23/2024	11:10	-126.937	47.820	0	1635.60	0	2.2960	0	34.5500	0	27.596	0	1615.568	0	36.1	4	11.0	4	-1E+10	1	-1E+10	1	-1E+10	1	-1E+10	1	-1E+10	1	-1E+10	1
4902663	39	C	08/23/2024	11:10	-126.937	47.820	0	1645.60	0	2.2870	0	34.5510	0	27.598	0	1625.407	0	36.8	4	11.2	4	-1E+10	1	-1E+10	1	-1E+10	1	-1E+10	1	-1E+10	1	-1E+10	1
4902663	39	C	08/23/2024	11:10	-126.937	47.820	0	1655.50	0	2.2790	0	34.5540	0	27.601	0	1635.148	0	37.5	4	11.4	4	-1E+10	1	-1E+10	1	-1E+10	1	-1E+10	1	-1E+10	1	-1E+10	1
4902663	39	C	08/23/2024	11:10	-126.937	47.820	0	1665.30	0	2.2650	0	34.5550	0	27.603	0	1644.789	0	37.9	4	11.5	4	-1E+10	1	-1E+10	1	-1E+10	1	-1E+10	1	-1E+10	1	-1E+10	1
4902663	39	C	08/23/2024	11:10	-126.937	47.820	0	1675.10	0	2.2570	0	34.5560	0	27.604	0	1654.430	0	38.4	4	11.6	4	-1E+10	1	-1E+10	1	-1E+10	1	-1E+10	1	-1E+10	1	-1E+10	1
4902663	39	C	08/23/2024	11:10	-126.937	47.820	0	1685.00	0	2.2450	0	34.5580	0	27.607	0	1664.169	0	38.9	4	11.8	4	-1E+10	1	-1E+10	1	-1E+10	1	-1E+10	1	-1E+10	1	-1E+10	1
4902663	39	C	08/23/2024	11:10	-126.937	47.820	0	1695.10	0	2.2400	0	34.5590	0	27.608	0	1674.104	0	39.4	4	11.9	4	-1E+10	1	-1E+10	1	-1E+10	1	-1E+10	1	-1E+10	1	-1E+10	1
4902663	39	C	08/23/2024	11:10	-126.937	47.820	0	1705.20	0	2.2300	0	34.5600	0	27.610	0	1684.039	0	39.9	4	12.1	4	-1E+10	1	-1E+10	1	-1E+10	1	-1E+10	1	-1E+10	1	-1E+10	1
4902663	39	C	08/23/2024	11:10	-126.937	47.820	0	1715.40	0	2.2190	0	34.5620	0	27.613	0	1694.072	0	40.4	4	12.2	4	-1E+10	1	-1E+10	1	-1E+10	1	-1E+10	1	-1E+10	1	-1E+10	1
4902663	39	C	08/23/2024	11:10	-126.937	47.820	0	1725.60	0	2.2030	0	34.5630	0	27.615	0	1704.104	0	40.9	4	12.4	4	-1E+10	1	-1E+10	1	-1E+10	1	-1E+10	1	-1E+10	1	-1E+10	1
4902663	39	C	08/23/2024	11:10	-126.937	47.820	0	1735.50	0	2.1930	0	34.5650	0	27.617	0	1713.841	0	41.8	4	12.7	4	-1E+10	1	-1E+10	1	-1E+10	1	-1E+10	1	-1E+10	1	-1E+10	1
4902663	39	C	08/23/2024	11:10	-126.937	47.820	0	1745.20	0	2.1830	0	34.5660	0	27.619	0	1723.380	0	42.3	4	12.8	4	-1E+10	1	-1E+10	1	-1E+10	1	-1E+10	1	-1E+10	1	-1E+10	1
4902663	39	C	08/23/2024	11:10	-126.937	47.820	0	1755.20	0	2.1700	0	34.5670	0	27.621	0	1733.215	0	42.7	4	12.9	4	-1E+10	1	-1E+10	1	-1E+10	1	-1E+10	1	-1E+10	1	-1E+10	1
4902663	39	C	08/23/2024	11:10	-126.937	47.820	0	1765.30	0	2.1600	0	34.5680	0	27.622	0	1743.147	0	43.3	4	13.1	4	-1E+10	1	-1E+10	1	-1E+10	1	-1E+10	1	-1E+10	1	-1E+10	1
4902663	39	C	08/23/2024	11:10	-126.937	47.820	0	1775.60	0	2.1500	0	34.5700	0	27.625	0	1753.275	0	43.9	4	13.3	4	-1E+10	1	-1E+10	1	-1E+10	1	-1E+10	1	-1E+10	1	-1E+10	1
4902663	39	C	08/23/2024	11:10	-126.937	47.820	0	1785.40	0	2.1410	0	34.5710	0	27.626	0	1762.911	0	44.7	4	13.5	4	-1E+10	1	-1E+10	1	-1E+10	1	-1E+10	1	-1E+10	1	-1E+10	1
4902663	39	C	08/23/2024	11:10	-126.937	47.820	0	1795.40	0	2.1300	0	34.5740	0	27.630	0	1772.743	0	45.5	4	13.8	4	-1E+10	1	-1E+10	1	-1E+10	1	-1E+10	1	-1E+10	1	-1E+10	1
4902663	39	C	08/23/2024	11:10	-126.937	47.820	0	1805.40	0	2.1150	0	34.5760	0	27.633	0	1782.575	0	46.1	4	13.9	4	-1E+10	1	-1E+10	1	-1E+10	1	-1E+10	1	-1E+10	1	-1E+10	1
4902663	39	C	08/23/2024	11:10	-126.937	47.820	0	1815.60	0	2.1050	0	34.5770	0	27.634	0	1792.603	0	46.3	4	14.0	4	-1E+10	1	-1E+10	1	-1E+10	1	-1E+10	1	-1E+10	1	-1E+10	1
4902663	39	C	08/23/2024	11:10	-126.937	47.820	0	1825.50	0	2.0980	0	34.5770	0	27.635	0	1802.336	0	46.8	4	14.1	4	-1E+10	1	-1E+10	1	-1E+10	1	-1E+10	1	-1E+10	1	-1E+10	1
4902663	39	C	08/23/2024	11:10	-126.937	47.820	0	1835.20	0	2.0910	0	34.5790	0	27.637	0	1811.872	0	47.0	4	14.2	4	-1E+10	1	-1E+10	1	-1E+10	1	-1E+10	1	-1E+10	1	-1E+10	1
4902663	39	C	08/23/2024	11:10	-126.937	47.820	0	1845.10	0	2.0830	0	34.5790	0	27.638	0	1821.603	0	47.1	4	14.2	4	-1E+10	1	-1E+10	1	-1E+10	1	-1E+10	1	-1E+10	1	-1E+10	1
4902663	39	C	08/23/2024	11:10	-126.937	47.820	0	1855.20	0	2.0630	0	34.5790	0	27.639	0	1831.531	0	47.6	4	14.4	4	-1E+10	1	-1E+10	1	-1E+10	1	-1E+10	1	-1E+10	1	-1E+10	1
4902663	39	C	08/23/2024	11:10	-126.937	47.820	0	1865.60	0	2.0530	0	34.5810	0	27.642	0	1841.754	0	48.2	4	14.6	4	-1E+10	1	-1E+10	1	-1E+10	1	-1E+10	1	-1E+10	1	-1E+10	1
4902663	39	C	08/23/2024	11:10	-126.937	47.820	0	1875.50	0	2.0440	0	34.5820	0	27.643	0	1851.484	0	48.8	4	14.7	4	-1E+10	1	-1E+10	1	-1E+10	1	-1E+10	1	-1E+10	1	-1E+10	1
4902663	39	C	08/23/2024	11:10	-126.937	47.820	0	1885.50	0	2.0340	0	34.5840	0	27.646	0	1861.312	0	49.6	4	15.0	4	-1E+10	1	-1E+10	1	-1E+10	1	-1E+10	1	-1E+10	1	-1E+10	1
4902663	39	C	08/23/2024	11:10	-126.937	47.820	0	1895.70	0	2.0240	0	34.5860	0	27.648	0	1871.336	0	50.1	4	15.1	4	-1E+10	1	-1E+10	1	-1E+10	1	-1E+10	1	-1E+10	1	-1E+10	1
4902663	39	C	08/23/2024	11:10	-126.937	47.820	0	1905.40	0	2.0140	0	34.5870	0	27.650	0	1880.869	0	50.6	4	15.3	4	-1E+10	1	-1E+10	1	-1E+10	1	-1E+10	1	-1E+10	1	-1E+10	1
4902663	39	C	08/23/2024	11:10	-126.937	47.820	0	1915.20	0	2.0060	0	34.5880	0	27.651	0	1890.499	0	51.1	4	15.4	4	-1E+10	1	-1E+10	1	-1E+10	1	-1E+10	1	-1E+10	1	-1E+10	1
4902663	39	C	08/23/2024	11:10	-126.937	47.820	0	1925.10	0	2.0000	0	34.5890	0	27.653	0	1900.227	0	51.8	4	15.6	4	-1E+10	1	-1E+10	1	-1E+10	1	-1E+10	1	-1E+10	1	-1E+10	1
4902663	39	C	08/23/2024	11:10	-126.937	47.820	0	1935.20	0	1.9970	0	34.5910	0	27.654	0	1910.152	0	52.4	4	15.8	4	-1E+10	1	-1E+10	1	-1E+10	1	-1E+10	1	-1E+10	1	-1E+10	1
4902663	39	C	08/23/2024	11:10	-126.937	47.820	0	1945.40	0	1.9900	0	34.5920	0	27.656	0	1920.174	0	53.1	4	16.0	4	-1E+10	1	-1E+10	1	-1E+10	1	-1E+10	1	-1E+10	1	-1E+10	1
4902663	39	C	08/23/2024	11:10	-126.937	47.820	0	1955.70	0	1.9780	0	34.5940	0	27.658	0	1930.293	0	53.5	4	16.1	4	-1E+10	1	-1E+10	1	-1E+10	1	-1E+10	1	-1E+10	1	-1E+10	1
4902663	39	C	08/23/2024	11:10	-126.937	47.820	0	1965.40	0	1.9690	0	34.5950	0	27.660	0	1939.823	0	54.0	4	16.3	4	-1E+10	1	-1E+10	1	-1E+10	1	-1E+10	1	-1E+10	1	-1E+10	1
4902663	39	C	08/23/2024	11:10	-126.937	47.820	0	1975.10	0	1.9600	0	34.5960	0	27.662	0	1949.353	0	54.5	4	16.4	4	-1E+10	1	-1E+10	1	-1E+10	1	-1E+10	1	-1E+10	1	-1E+10	1
4902663	39	C	08/23/2024	11:10	-126.937	47.820	0	1985.40	0	1.9510	0	34.5980	0	27.664	0	1959.471	0	54.9	4	16.5	4	-1E+10	1	-1E+10	1	-1E+10	1	-1E+10	1	-1E+10	1	-1E+10	1
4902663	39	C	08/23/2024	11:10	-126.937	47.820	0	1995.80	0	1.9430	0	34.5990	0	27.665	0	1969.687	0	55.0	4	16.6	4	-1E+10	1	-1E+10	1	-1E+10	1	-1E+10	1	-1E+10	1	-1E+10	1
4902663	39	C	08/23/2024	11:10	-126.937	47.820	0	2001.90	0	1.9410	0	34.6000	0	27.666	0	1975.679	0	54.8	4	16.5	4	-1E+10	1	-1E+10	1	-1E+10	1	-1E+10	1	-1E+10	1	-1E+10	1
4902663	39	C	08/23/2024	11:10	-126.937	47.820	0																										
4902663	40	C	09/02/2024	06:11	-127.331	47.905	0	0.10	0	16.4670	0	31.9460	0	23.295	0	0.099	0	236.5	4	96.2	4	-1E+10	1	-1E+10	1	-1E+10	1	-1E+10	1	-1E+10	1	-1E+10	1
4902663	40	C	09/02/2024	06:11	-127.331	47.905	0	0.20	0	16.4675	0	31.9459	0	23.295	0	0.198	0	236.5	4	96.2	4	-1E+10	1	-1E+10	1	-1E+10	1	-1E+10	1	-1E+10	1	-1E+10	1
4902663	40	C	09/02/2024	06:11	-127.331	47.905	0	0.90	0	16.4710	0	31.9450	0	23.294	0	0.892	0	236.5	4	96.2	4	-1E+10	1	-1E+10	1	-1E+10	1	-1E+10	1	-1E+10	1	-1E+10	1
4902663	40	C	09/02/2024	06:11	-127.331	47.905	0	1.80	0	16.4720	0	31.9430	0	23.292	0	1.785	0	236.6	4	96.2	4	-1E+10	1	-1E+10	1	-1E+10	1	-1E+10	1	-1E+10	1	-1E+10	1
4902663	40	C	09/02/2024	06:11	-127.331	47.905	0	2.70	0	16.4720	0	31.9440	0	23.293	0	2.677	0	236.6	4	96.2	4	-1E+10	1	-1E+10	1	-1E+10	1	-1E+10	1	-1E+10	1	-1E+10	1
4902663	40	C	09/02/2024	06:11	-127.331	47.905	0	3.90	0	16.4710	0	31.9470	0	23.295	0	3.867	0	236.7	4	96.3	4	-1E+10	1	-1E+10	1	-1E+10	1	-1E+10	1	-1E+10	1	-1E+10	1
4902663	40	C	09/02/2024	06:11	-127.331	47.905	0	5.00	0	16.4720	0	31.9470	0	23.295	0	4.958	0	236.7	4	96.2	4	-1E+10	1	-1E+10	1	-1E+10	1	-1E+10	1	-1E+10	1	-1E+10	1
4902663	40	C	09/02/2024	06:11	-127.331	47.905	0	6.10	0	16.4730	0	31.9460	0	23.294	0	6.049	0	236.8	4	96.3	4	-1E+10	1	-1E+10	1	-1E+10	1	-1E+10	1	-1E+10	1	-1E+10	1
4902663	40	C	09/02/2024	06:11	-127.331	47.905	0	7.20	0	16.4740	0	31.9460	0	23.294	0	7.140	0	236.9	4	96.4	4	-1E+10	1	-1E+10	1	-1E+10	1	-1E+10	1	-1E+10	1	-1E+10	1
4902663	40	C	09/02/2024	06:11	-127.331	47.905	0	8.30	0	16.4720	0	31.9470	0	23.295	0	8.230	0	237.1	4	96.4	4	-1E+10	1	-1E+10	1	-1E+10	1	-1E+10	1	-1E+10	1	-1E+10	1
4902663	40	C	09/02/2024	06:11	-127.331	47.905	0	9.40	0	16.4710	0	31.9460	0	23.295	0	9.321	0	237.3	4	96.5	4	-1E+10	1	-1E+10	1	-1E+10	1	-1E+10	1	-1E+10	1	-1E+10	1
4902663	40	C	09/02/2024	06:11	-127.331	47.905	0	10.40	0	16.4700	0	31.9470	0	23.296	0	10.313	0	237.6	4	96.6	4	-1E+10	1	-1E+10	1	-1E+10	1	-1E+10	1	-1E+10	1	-1E+10	1
4902663	40	C	09/02/2024	06:11	-127.331	47.905	0	11.70	0	16.4720	0	31.9470	0	23.295	0	11.602	0	238.0	4	96.8	4	-1E+10	1	-1E+10	1	-1E+10	1	-1E+10	1	-1E+10	1	-1E+10	1
4902663	40	C	09/02/2024	06:11	-127.331	47.905	0	12.90	0	16.4710	0	31.9470	0	23.296	0	12.791	0	238.4	4	97.0	4	-1E+10	1	-1E+10	1	-1E+10	1	-1E+10	1	-1E+10	1	-1E+10	1
4902663	40	C	09/02/2024	06:11	-127.331	47.905	0	14.10	0	16.4710	0	31.9470	0	23.296	0	13.981	0	239.1	4	97.2	4	-1E+10	1	-1E+10	1	-1E+10	1	-1E+10	1	-1E+10	1	-1E+10	1
4902663	40	C	09/02/2024	06:11	-127.331	47.905	0	15.00	0	16.4720	0	31.9470	0	23.295	0	14.874	0	239.7	4	97.5	4	-1E+10	1	-1E+10	1	-1E+10	1	-1E+10	1	-1E+10	1	-1E+10	1
4902663	40	C	09/02/2024	06:11	-127.331	47.905	0	15.70	0	16.4730	0	31.9460	0	23.294	0	15.568	0	240.3	4	97.7	4	-1E+10	1	-1E+10	1	-1E+10	1	-1E+10	1	-1E+10	1	-1E+10	1
4902663	40	C	09/02/2024	06:11	-127.331	47.905	0	16.80	0	16.4740	0	31.9450	0	23.294	0	16.658	0	241.7	4	98.3	4	-1E+10	1	-1E+10	1	-1E+10	1	-1E+10	1	-1E+10	1	-1E+10	1
4902663	40	C	09/02/2024	06:11	-127.331	47.905	0	17.90	0	16.4760	0	31.9450	0	23.293	0	17.749	0	243.5	4	99.0	4	-1E+10	1	-1E+10	1	-1E+10	1	-1E+10	1	-1E+10	1	-1E+10	1
4902663	40	C	09/02/2024	06:11	-127.331	47.905	0	18.90	0	16.4600	0	31.9470	0	23.298	0	18.741	0	246.3	4	100.1	4	-1E+10	1	-1E+10	1	-1E+10	1	-1E+10	1	-1E+10	1	-1E+10	1
4902663	40	C	09/02/2024	06:11	-127.331	47.905	0	20.00	0	16.4330	0	31.9430	0	23.301	0	19.831	0	251.6	4	102.2	4	-1E+10	1	-1E+10	1	-1E+10	1	-1E+10	1	-1E+10	1	-1E+10	1
4902663	40	C	09/02/2024	06:11	-127.331	47.905	0	21.10	0	16.2980	0	31.9570	0	23.343	0	20.922	0	260.3	4	105.5	4	-1E+10	1	-1E+10	1	-1E+10	1	-1E+10	1	-1E+10	1	-1E+10	1
4902663	40	C	09/02/2024	06:11	-127.331	47.905	0	21.70	0	16.1020	0	31.9300	0	23.366	0	21.517	0	267.8	4	108.1	4	-1E+10	1	-1E+10	1	-1E+10	1	-1E+10	1	-1E+10	1	-1E+10	1
4902663	40	C	09/02/2024	06:11	-127.331	47.905	0	22.90	0	14.8860	0	32.0450	0	23.721	0	22.707	0	277.5	4	109.5	4	-1E+10	1	-1E+10	1	-1E+10	1	-1E+10	1	-1E+10	1	-1E+10	1
4902663	40	C	09/02/2024	06:11	-127.331	47.905	0	23.90	0	14.0980	0	32.1310	0	23.952	0	23.698	0	280.6	4	109.0	4	-1E+10	1	-1E+10	1	-1E+10	1	-1E+10	1	-1E+10	1	-1E+10	1
4902663	40	C	09/02/2024	06:11	-127.331	47.905	0	24.90	0	13.7490	0	32.1000	0	24.000	0	24.690	0	281.8	4	108.7	4	-1E+10	1	-1E+10	1	-1E+10	1	-1E+10	1	-1E+10	1	-1E+10	1
4902663	40	C	09/02/2024	06:11	-127.331	47.905	0	26.00	0	13.5720	0	32.0980	0	24.034	0	25.780	0	283.0	4	108.8	4	-1E+10	1	-1E+10	1	-1E+10	1	-1E+10	1	-1E+10	1	-1E+10	1
4902663	40	C	09/02/2024	06:11	-127.331	47.905	0	26.80	0	13.4080	0	32.1020	0	24.070	0	26.574	0	284.0	4	108.8	4	-1E+10	1	-1E+10	1	-1E+10	1	-1E+10	1	-1E+10	1	-1E+10	1
4902663	40	C	09/02/2024	06:11	-127.331	47.905	0	27.60	0	12.7670	0	32.1230	0	24.212	0	27.367	0	285.6	4	108.0	4	-1E+10	1	-1E+10	1	-1E+10	1	-1E+10	1	-1E+10	1	-1E+10	1
4902663	40	C	09/02/2024	06:11	-127.331	47.905	0	28.90	0	12.3630	0	32.1520	0	24.311	0	28.656	0	284.3	4	106.6	4	-1E+10	1	-1E+10	1	-1E+10	1	-1E+10	1	-1E+10	1	-1E+10	1
4902663	40	C	09/02/2024	06:11	-127.331	47.905	0	30.40	0	12.1460	0	32.1700	0	24.366	0	30.143	0	282.5	4	105.5	4	-1E+10	1	-1E+10	1	-1E+10	1	-1E+10	1	-1E+10	1	-1E+10	1
4902663	40	C	09/02/2024	06:11	-127.331	47.905	0	31.50	0	11.9350	0	32.1810	0	24.414	0	31.234	0	281.0	4	104.5	4	-1E+10	1	-1E+10	1	-1E+10	1	-1E+10	1	-1E+10	1	-1E+10	1
4902663	40	C	09/02/2024	06:11	-127.331	47.905	0	32.50	0	11.8940	0	32.1820	0	24.422	0	32.225	0	278.9	4	103.6	4	-1E+10	1	-1E+10	1	-1E+10	1	-1E+10	1	-1E+10	1	-1E+10	1
4902663	40	C	09/02/2024	06:11	-127.331	47.905	0	33.60	0	11.8560	0	32.1820	0	24.429	0	33.316	0	276.1	4	102.5	4	-1E+10	1	-1E+10	1	-1E+10	1	-1E+10	1	-1E+10	1	-1E+10	1
4902663	40	C	09/02/2024	06:11	-127.331	47.905	0	34.60	0	11.8320	0	32.1830	0	24.434	0	34.307	0	273.0	4	101.3	4	-1E+10	1	-1E+10	1	-1E+10	1	-1E+10	1	-1E+10	1	-1E+10	1
4902663	40	C	09/02/2024	06:11	-127.331	47.905	0	35.70	0	11.7260	0	32.1910	0	24.460	0	35.398	0	269.7	4	99.8	4	-1E+10	1	-1E+10	1	-1E+10	1	-1E+10	1	-1E+10	1	-1E+10	1
4902663	40	C	09/02/2024	06:11	-127.331	47.905	0	36.70	0	11.5240	0	32.1950	0	24.500	0	36.389	0	267.0	4	98.4	4	-1E+10	1	-1E+10	1	-1E+10	1	-1E+10	1	-1E+10	1	-1E+10	1
4902663	40	C	09/02/2024	06:11	-127.331	47.905	0	37.70	0	11.4010	0	32.1980	0	24.524	0	37.381	0	264.1	4	97.1	4	-1E+10	1	-1E+10	1	-1E+10	1	-1E+10	1	-1E+10	1	-1E+10	1
4902663	40	C	09/02/2024	06:11	-127.331	47.905	0	38.80	0	11.1990	0	32.2190	0	24.577	0	38.471	0	261.9	4	95.9	4	-1E+10	1	-1E+10	1	-1E+10	1	-1E+10	1	-1E+10	1	-1E+10	1
4902663	40	C	09/02/2024	06:11	-127.331	47.905	0	39.80	0	11.1140	0	32.2040	0	24.580	0	39.463	0	258.3	4	94.4	4	-1E+10	1	-1E+10	1	-1E+10	1	-1E+10	1	-1E+10	1	-1E+10	1
4902663	40	C	09/02/2024	06:11	-127.331	47.905	0	40.80	0	11.0630	0	32.2130	0	24.596	0	40.454	0	255.7	4	93.4	4	-1E+10	1	-1E+10	1	-1E+10	1	-1E+10	1	-1E+10	1	-1E+10	1
4902663	40	C	09/02/2024	06:11	-127.331	47.905	0	41.80	0	10.9450	0	32.2210	0	24.623	0	41.445	0	253.8	4	92.4	4	-1E+10	1	-1E+10	1	-1E+10	1	-1E+10	1	-1E+10	1	-1E+10	1
4902663	40	C	09/02/2024	06:11	-127.331	47.905	0	42.70	0	10.8500	0	32.2110	0	24.632	0	42.338	0	252.0	4	91.6	4	-1E+10	1	-1E+10	1	-1E+10	1	-1E+10	1	-1E+10	1	-1E+10	1
4902663	40	C	09/02/2024	06:11	-127.331	47.905	0	43.70	0	10.7320	0	32.2220	0	24.661	0	43.329	0	250.0	4	90.7	4	-1E+10	1	-1E+10	1	-1E+10	1	-1E+10	1	-1E+10	1	-1E+10	1
4902663	40	C	09/02/2024	06:11	-127.331	47.905	0	44.60	0	10.5980	0	32.2210	0	24.683	0	44.221	0	248.5	4	89.9	4	-1E+10	1	-1E+10	1	-1E+10	1	-1E+10	1	-1E+10	1	-1E+10	1
4902663	40	C	09/02/2024	06:11	-127.331	47.905	0	45.90	0	10.3210	0	32.2500	0	24.753	0	45.510	0	247.5	4	89.0	4	-1E+10	1	-1E+10	1	-1E+10	1	-1E+10	1	-1E+10	1	-1E+10	1
4902663	40	C	09/02/2024	06:11	-127.331	47.905	0	47.40	0	10.1250	0	32.2510	0	24.787	0	46.997	0	247.1	4	88.5	4	-1E+10	1	-1E+10	1	-1E+10	1	-1E+10	1	-1E+10	1	-1E+10	1
4902663	40	C	09/02/2024	06:11	-127.331	47.905	0	48.30	0	10.1030	0	32.2530	0	24.792	0	47.890	0	246.5	4	88.2	4	-1E+10	1	-1E+10	1	-1E+10	1	-1E+10	1	-1E+10	1	-1E+10	1
4902663	40	C	09/02/2024	06:11	-127.331	47.905	0	49.10	0	10.0520	0	32.2620	0	24.807	0	48.683	0	245.4	4	87.7	4	-1E+10	1	-1E+10	1	-1E+10	1	-1E+10	1	-1E+10	1	-1E+10	1
4902663	40	C	09/02/2024	06:11	-127.331	47.905	0	50.00	0	9.9130	0	32.2660	0	24.833	0	49.575	0	244.7	4	87.2	4	-1E+10	1	-1E+10	1	-1E+10	1	-1E+10	1	-1E+10	1	-1E+10	1
4902663	40	C	09/02/2024	06:11	-127.331	47.905	0	50.90	0	9.8370	0	32.2800	0	24.857	0	50.467	0	243.3	4	86.6	4	-1E+10	1	-1E+10	1	-1E+10	1	-1E+10	1	-1E+10	1	-1E+10	1
4902663	40	C	09/02/2024	06:11	-127.331	47.905	0	51.90	0	9.7050	0	32.2930	0	24.888	0	51.458	0	242.0	4	85.9	4	-1E+10	1	-1E+10	1	-1E+10	1	-1E+10	1	-1E+10	1	-1E+10	1
4902663	40	C	09/02/2024	06:11	-127.331	47.905	0	52.90	0	9.5620	0	32.3090	0	24.924	0	52.450	0	240.9	4	85.2	4	-1E+10	1	-1E+10	1	-1E+10	1	-1E+10	1	-1E+10	1	-1E+10	1
4902663	40	C	09/02/2024	06:11	-127.331	47.905	0	53.90	0	9.4420	0	32.3130	0	24.946	0	53.441	0	239.9	4	84.7	4	-1E+10	1	-1E+10	1	-1E+10	1	-1E+10	1	-1E+10	1	-1E+10	1
4902663	40	C	09/02/2024	06:11	-127.331	47.905	0	54.90	0	9.3430	0	32.3260	0	24.972	0	54.433	0	238.7	4	84.1	4	-1E+10	1	-1E+10	1	-1E+10	1	-1E+10	1	-1E+10	1	-1E+10	1
4902663	40	C	09/02/2024	06:11	-127.331	47.905	0	56.10	0	9.2930	0	32.3280	0	24.982	0	55.622	0	237.2	4	83.5	4	-1E+10	1	-1E+10	1	-1E+10	1	-1E+10	1	-1E+10	1	-1E+10	1
4902663	40	C	09/02/2024	06:11	-127.331	47.905	0	56.70	0	9.2040	0	32.3520	0	25.015	0	56.217	0	236.0	4	82.9	4	-1E+10	1	-1E+10	1	-1E+10	1	-1E+10	1	-1E+10	1	-1E+10	1
4902663	40	C	09/02/2024	06:11	-127.331	47.905	0	57.80	0	9.0330	0	32.3770	0	25.061	0	57.307	0	234.7	4	82.1	4	-1E+10	1	-1E+10	1	-1E+10	1	-1E+10	1	-1E+10	1	-1E+10	1
4902663	40	C	09/02/2024	06:11	-127.331	47.905	0	58.90	0	9.0110	0	32.3880	0	25.073	0	58.398	0	233.2	4	81.6	4	-1E+10	1	-1E+10	1	-1E+10	1	-1E+10	1	-1E+10	1	-1E+10	1
4902663	40	C	09/02/2024	06:11	-127.331	47.905	0	59.70	0	8.9850	0	32.4070	0	25.092	0	59.191	0	232.5	4	81.3	4	-1E+10	1	-1E+10	1	-1E+10	1	-1E+10	1	-1E+10	1	-1E+10	1
4902663	40	C	09/02/2024	06:11	-127.331	47.905	0	60.90	0	8.9150	0	32.4240	0	25.116	0	60.381	0	231.2	4	80.7	4	-1E+10	1	-1E+10	1	-1E+10	1	-1E+10	1	-1E+10	1	-1E+10	1
4902663	40	C	09/02/2024	06:11	-127.331	47.905	0	62.30	0	8.8730	0	32.4320	0	25.129	0	61.768	0	229.5	4	80.0	4	-1E+10	1	-1E+10	1	-1E+10	1	-1E+10	1	-1E+10	1	-1E+10	1
4902663	40	C	09/02/2024	06:11	-127.331	47.905	0	63.20	0	8.8590	0	32.4370	0	25.135	0	62.661	0	228.0	4	79.5	4	-1E+10	1	-1E+10	1	-1E+10	1	-1E+10	1	-1E+10	1	-1E+10	1
4902663	40	C	09/02/2024	06:11	-127.331	47.905	0	64.10	0	8.8460	0	32.4410	0	25.140	0	63.553	0	226.5	4	79.0	4	-1E+10	1	-1E+10	1	-1E+10	1	-1E+10	1	-1E+10	1	-1E+10	1
4902663	40	C	09/02/2024	06:11	-127.331	47.905	0	65.10	0	8.8360	0	32.4420	0	25.142	0	64.544	0	224.9	4	78.4	4	-1E+10	1	-1E+10	1	-1E+10	1	-1E+10	1	-1E+10	1	-1E+10	1
4902663	40	C	09/02/2024	06:11	-127.331	47.905	0	66.00	0	8.8240	0	32.4440	0	25.146	0	65.436	0	223.1	4	77.7	4	-1E+10	1	-1E+10	1	-1E+10	1	-1E+10	1	-1E+10	1	-1E+10	1
4902663	40	C	09/02/2024	06:11	-127.331	47.905	0	66.90	0	8.8050	0	32.4500	0	25.153	0	66.328	0	220.8	4	76.9	4	-1E+10	1	-1E+10	1	-1E+10	1	-1E+10	1	-1E+10	1	-1E+10	1
4902663	40	C	09/02/2024	06:11	-127.331	47.905	0	67.80	0	8.7470	0	32.4790	0	25.185	0	67.221	0	218.7	4	76.1	4	-1E+10	1	-1E+10	1	-1E+10	1	-1E+10	1	-1E+10	1	-1E+10	1
4902663	40	C	09/02/2024	06:11	-127.331	47.905	0	68.70	0	8.7180	0	32.4960	0	25.203	0	68.113	0	216.5	4	75.3	4	-1E+10	1	-1E+10	1	-1E+10	1	-1E+10	1	-1E+10	1	-1E+10	1
4902663	40	C	09/02/2024	06:11	-127.331	47.905	0	69.70	0	8.6800	0	32.5190	0	25.226	0	69.104	0	214.4	4	74.5	4	-1E+10	1	-1E+10	1	-1E+10	1	-1E+10	1	-1E+10	1	-1E+10	1
4902663	40	C	09/02/2024	06:11	-127.331	47.905	0	70.70	0	8.6430	0	32.5370	0	25.246	0	70.095	0	212.9	4	74.0	4	-1E+10	1	-1E+10	1	-1E+10	1	-1E+10	1	-1E+10	1	-1E+10	1
4902663	40	C	09/02/2024	06:11	-127.331	47.905	0	71.70	0	8.6000	0	32.5600	0	25.271	0	71.087	0	211.1	4	73.3	4	-1E+10	1	-1E+10	1	-1E+10	1	-1E+10	1	-1E+10	1	-1E+10	1
4902663	40	C	09/02/2024	06:11	-127.331	47.905	0	72.70	0	8.5750	0	32.5740	0	25.285	0	72.078	0	209.1	4	72.5	4	-1E+10	1	-1E+10	1	-1E+10	1	-1E+10	1	-1E+10	1	-1E+10	1
4902663	40	C	09/02/2024	06:11	-127.331	47.905	0	73.80	0	8.5530	0	32.5870	0	25.299	0	73.168	0	207.0	4	71.8	4	-1E+10	1	-1E+10	1	-1E+10	1	-1E+10	1	-1E+10	1	-1E+10	1
4902663	40	C	09/02/2024	06:11	-127.331	47.905	0	74.80	0	8.5380	0	32.5940	0	25.307	0	74.160	0	204.4	4	70.9	4	-1E+10	1	-1E+10	1	-1E+10	1	-1E+10	1	-1E+10	1	-1E+10	1
4902663	40	C	09/02/2024	06:11	-127.331	47.905	0	75.80	0	8.4820	0	32.6360	0	25.348	0	75.151	0	201.9	4	69.9	4	-1E+10	1	-1E+10	1	-1E+10	1	-1E+10	1	-1E+10	1	-1E+10	1
4902663	40	C	09/02/2024	06:11	-127.331	47.905	0	76.90	0	8.4360	0	32.6420	0	25.360	0	76.241	0	199.6	4	69.1	4	-1E+10	1	-1E+10	1	-1E+10	1	-1E+10	1	-1E+10	1	-1E+10	1
4902663	40	C	09/02/2024	06:11	-127.331	47.905	0	77.90	0	8.4340	0	32.6690	0	25.381	0	77.232	0	197.4	4	68.3	4	-1E+10	1	-1E+10	1	-1E+10	1	-1E+10	1	-1E+10	1	-1E+10	1
4902663	40	C	09/02/2024	06:11	-127.331	47.905	0	79.00	0	8.4250	0	32.6770	0	25.389	0	78.323	0	194.9	4	67.4	4	-1E+10	1	-1E+10	1	-1E+10	1	-1E+10	1	-1E+10	1	-1E+10	1
4902663	40	C	09/02/2024	06:11	-127.331	47.905	0	80.00	0	8.3950	0	32.6990	0	25.410	0	79.314	0	191.8	4	66.3	4	-1E+10	1	-1E+10	1	-1E+10	1	-1E+10	1	-1E+10	1	-1E+10	1
4902663	40	C	09/02/2024	06:11	-127.331	47.905	0	81.10	0	8.3570	0	32.7370	0	25.446	0	80.404	0	189.2	4	65.4	4	-1E+10	1	-1E+10	1	-1E+10	1	-1E+10	1	-1E+10	1	-1E+10	1
4902663	40	C	09/02/2024	06:11	-127.331	47.905	0	82.20	0	8.3440	0	32.7480	0	25.457	0	81.495	0	186.9	4	64.6	4	-1E+10	1	-1E+10	1	-1E+10	1	-1E+10	1	-1E+10	1	-1E+10	1
4902663	40	C	09/02/2024	06:11	-127.331	47.905	0	83.30	0	8.3130	0	32.7850	0	25.490	0	82.585	0	184.8	4	63.8	4	-1E+10	1	-1E+10	1	-1E+10	1	-1E+10	1	-1E+10	1	-1E+10	1
4902663	40	C	09/02/2024	06:11	-127.331	47.905	0	84.30	0	8.2910	0	32.8180	0	25.519	0	83.576	0	182.8	4	63.1	4	-1E+10	1	-1E+10	1	-1E+10	1	-1E+10	1	-1E+10	1	-1E+10	1
4902663	40	C	09/02/2024	06:11	-127.331	47.905	0	85.30	0	8.2840	0	32.8320	0	25.531	0	84.567	0	185.1	4	63.9	4	-1E+10	1	-1E+10	1	-1E+10	1	-1E+10	1	-1E+10	1	-1E+10	1
4902663	40	C	09/02/2024	06:11	-127.331	47.905	0	86.30	0	8.2650	0	32.8570	0	25.554	0	85.559	0	182.5	4	63.0	4	-1E+10	1	-1E+10	1	-1E+10	1	-1E+10	1	-1E+10	1	-1E+10	1
4902663	40	C	09/02/2024	06:11	-127.331	47.905	0	87.30	0	8.2530	0	32.9480	0	25.627	0	86.550	0	180.4	4	62.3	4	-1E+10	1	-1E+10	1	-1E+10	1	-1E+10	1	-1E+10	1	-1E+10	1
4902663	40	C	09/02/2024	06:11	-127.331	47.905	0	88.30	0	8.2390	0	32.9650	0	25.642	0	87.541	0	178.6	4	61.7	4	-1E+10	1	-1E+10	1	-1E+10	1	-1E+10	1	-1E+10	1	-1E+10	1
4902663	40	C	09/02/2024	06:11	-127.331	47.905	0	89.30	0	8.1780	0	32.9840	0	25.666	0	88.532	0	175.8	4	60.6	4	-1E+10	1	-1E+10	1	-1E+10	1	-1E+10	1	-1E+10	1	-1E+10	1
4902663	40	C	09/02/2024	06:11	-127.331	47.905	0	90.30	0	8.1630	0	32.9940	0	25.676	0	89.523	0	172.7	4	59.5	4	-1E+10	1	-1E+10	1	-1E+10	1	-1E+10	1	-1E+10	1	-1E+10	1
4902663	40	C	09/02/2024	06:11	-127.331	47.905	0	91.30	0	8.1360	0	33.0260	0	25.705	0	90.515	0	169.4	4	58.4	4	-1E+10	1	-1E+10	1	-1E+10	1	-1E+10	1	-1E+10	1	-1E+10	1
4902663	40	C	09/02/2024	06:11	-127.331	47.905	0	92.20	0	8.1170	0	33.0570	0	25.733	0	91.407	0	166.7	4	57.4	4	-1E+10	1	-1E+10	1	-1E+10	1	-1E+10	1	-1E+10	1	-1E+10	1
4902663	40	C	09/02/2024	06:11	-127.331	47.905	0	93.40	0	8.1070	0	33.0970	0	25.765	0	92.596	0	165.0	4	56.8	4	-1E+10	1	-1E+10	1	-1E+10	1	-1E+10	1	-1E+10	1	-1E+10	1
4902663	40	C	09/02/2024	06:11	-127.331	47.905	0	94.10	0	8.0890	0	33.1330	0	25.796	0	93.290	0	164.9	4	56.8	4	-1E+10	1	-1E+10	1	-1E+10	1	-1E+10	1	-1E+10	1	-1E+10	1
4902663	40	C	09/02/2024	06:11	-127.331	47.905	0	94.90	0	8.0840	0	33.1370	0	25.800	0	94.083	0	164.5	4	56.7	4	-1E+10	1	-1E+10	1	-1E+10	1	-1E+10	1	-1E+10	1	-1E+10	1
4902663	40	C	09/02/2024	06:11	-127.331	47.905	0	96.00	0	8.0630	0	33.1710	0	25.830	0	95.173	0	163.1	4	56.2	4	-1E+10	1	-1E+10	1	-1E+10	1	-1E+10	1	-1E+10	1	-1E+10	1
4902663	40	C	09/02/2024	06:11	-127.331	47.905	0	97.10	0	8.0460	0	33.2080	0	25.862	0	96.263	0	161.2	4	55.5	4	-1E+10	1	-1E+10	1	-1E+10	1	-1E+10	1	-1E+10	1	-1E+10	1
4902663	40	C	09/02/2024	06:11	-127.331	47.905	0	97.90	0	8.0410	0	33.2160	0	25.869	0	97.056	0	160.6	4	55.3	4	-1E+10	1	-1E+10	1	-1E+10	1	-1E+10	1	-1E+10	1	-1E+10	1
4902663	40	C	09/02/2024	06:11	-127.331	47.905	0	98.90	0	8.0200	0	33.2490	0	25.898	0	98.047	0	159.9	4	55.0	4	-1E+10	1	-1E+10	1	-1E+10	1	-1E+10	1	-1E+10	1	-1E+10	1
4902663	40	C	09/02/2024	06:11	-127.331	47.905	0	100.00	0	7.9810	0	33.3020	0	25.945	0	99.138	0	158.8	4	54.7	4	-1E+10	1	-1E+10	1	-1E+10	1	-1E+10	1	-1E+10	1	-1E+10	1
4902663	40	C	09/02/2024	06:11	-127.331	47.905	0	101.00	0	7.9480	0	33.3310	0	25.973	0	100.129	0	157.8	4	54.3	4	-1E+10	1	-1E+10	1	-1E+10	1	-1E+10	1	-1E+10	1	-1E+10	1
4902663	40	C	09/02/2024	06:11	-127.331	47.905	0	102.00	0	7.9420	0	33.3510	0	25.989	0	101.120	0	157.0	4	54.0	4	-1E+10	1	-1E+10	1	-1E+10	1	-1E+10	1	-1E+10	1	-1E+10	1
4902663	40	C	09/02/2024	06:11	-127.331	47.905	0	103.10	0	7.9060	0	33.3660	0	26.006	0	102.210	0	155.4	4	53.4	4	-1E+10	1	-1E+10	1	-1E+10	1	-1E+10	1	-1E+10	1	-1E+10	1
4902663	40	C	09/02/2024	06:11	-127.331	47.905	0	104.10	0	7.8660	0	33.3810	0	26.024	0	103.201	0	153.8	4	52.8	4	-1E+10	1	-1E+10	1	-1E+10	1	-1E+10	1	-1E+10	1	-1E+10	1
4902663	40	C	09/02/2024	06:11	-127.331	47.905	0	105.10	0	7.8670	0	33.3890	0	26.030	0	104.192	0	151.7	4	52.1	4	-1E+10	1	-1E+10	1	-1E+10	1	-1E+10	1	-1E+10	1	-1E+10	1
4902663	40	C	09/02/2024	06:11	-127.331	47.905	0	106.00	0	7.8640	0	33.3990	0	26.038	0	105.084	0	150.0	4	51.5	4	-1E+10	1	-1E+10	1	-1E+10	1	-1E+10	1	-1E+10	1	-1E+10	1
4902663	40	C	09/02/2024	06:11	-127.331	47.905	0	106.90	0	7.8610	0	33.4190	0	26.054	0	105.976	0	147.9	4	50.8	4	-1E+10	1	-1E+10	1	-1E+10	1	-1E+10	1	-1E+10	1	-1E+10	1
4902663	40	C	09/02/2024	06:11	-127.331	47.905	0	108.10	0	7.8650	0	33.4370	0	26.068	0	107.166	0	145.2	4	49.9	4	-1E+10	1	-1E+10	1	-1E+10	1	-1E+10	1	-1E+10	1	-1E+10	1
4902663	40	C	09/02/2024	06:11	-127.331	47.905	0	109.10	0	7.8610	0	33.4520	0	26.080	0	108.157	0	143.4	4	49.3	4	-1E+10	1	-1E+10	1	-1E+10	1	-1E+10	1	-1E+10	1	-1E+10	1
4902663	40	C	09/02/2024	06:11	-127.331	47.905	0	110.00	0	7.8600	0	33.4790	0	26.102	0	109.049	0	142.0	4	48.8	4	-1E+10	1	-1E+10	1	-1E+10	1	-1E+10	1	-1E+10	1	-1E+10	1
4902663	40	C	09/02/2024	06:11	-127.331	47.905	0	111.10	0	7.8550	0	33.4910	0	26.112	0	110.139	0	140.4	4	48.3	4	-1E+10	1	-1E+10	1	-1E+10	1	-1E+10	1	-1E+10	1	-1E+10	1
4902663	40	C	09/02/2024	06:11	-127.331	47.905	0	111.90	0	7.8450	0	33.5070	0	26.126	0	110.932	0	139.4	4	47.9	4	-1E+10	1	-1E+10	1	-1E+10	1	-1E+10	1	-1E+10	1	-1E+10	1
4902663	40	C	09/02/2024	06:11	-127.331	47.905	0	113.00	0	7.8450	0	33.5200	0	26.136	0	112.022	0	138.0	4	47.4	4	-1E+10	1	-1E+10	1	-1E+10	1	-1E+10	1	-1E+10	1	-1E+10	1
4902663	40	C	09/02/2024	06:11	-127.331	47.905	0	114.30	0	7.8360	0	33.5330	0	26.148	0	113.310	0	136.6	4	46.9	4	-1E+10	1	-1E+10	1	-1E+10	1	-1E+10	1	-1E+10	1	-1E+10	1
4902663	40	C	09/02/2024	06:11	-127.331	47.905	0	115.10	0	7.8250	0	33.5520	0	26.164	0	114.103	0	135.8	4	46.7	4	-1E+10	1	-1E+10	1	-1E+10	1	-1E+10	1	-1E+10	1	-1E+10	1
4902663	40	C	09/02/2024	06:11	-127.331	47.905	0	116.00	0	7.8260	0	33.5610	0	26.171	0	114.995	0	135.1	4	46.4	4	-1E+10	1	-1E+10	1	-1E+10	1	-1E+10	1	-1E+10	1	-1E+10	1
4902663	40	C	09/02/2024	06:11	-127.331	47.905	0	116.80	0	7.8260	0	33.5620	0	26.172	0	115.788	0	134.4	4	46.2	4	-1E+10	1	-1E+10	1	-1E+10	1	-1E+10	1	-1E+10	1	-1E+10	1
4902663	40	C	09/02/2024	06:11	-127.331	47.905	0	117.70	0	7.8290	0	33.5660	0	26.175	0	116.680	0	133.7	4	45.9	4	-1E+10	1	-1E+10	1	-1E+10	1	-1E+10	1	-1E+10	1	-1E+10	1
4902663	40	C	09/02/2024	06:11	-127.331	47.905	0	118.60	0	7.8220	0	33.5760	0	26.183	0	117.572	0	133.1	4	45.7	4	-1E+10	1	-1E+10	1	-1E+10	1	-1E+10	1	-1E+10	1	-1E+10	1
4902663	40	C	09/02/2024	06:11	-127.331	47.905	0	119.90	0	7.8100	0	33.6000	0	26.204	0	118.860	0	132.3	4	45.4	4	-1E+10	1	-1E+10	1	-1E+10	1	-1E+10	1	-1E+10	1	-1E+10	1
4902663	40	C	09/02/2024	06:11	-127.331	47.905	0	121.40	0	7.8060	0	33.6170	0	26.218	0	120.347	0	131.4	4	45.1	4	-1E+10	1	-1E+10	1	-1E+10	1	-1E+10	1	-1E+10	1	-1E+10	1
4902663	40	C	09/02/2024	06:11	-127.331	47.905	0	122.30	0	7.8030	0	33.6250	0	26.225	0	121.239	0	130.8	4	44.9	4	-1E+10	1	-1E+10	1	-1E+10	1	-1E+10	1	-1E+10	1	-1E+10	1
4902663	40	C	09/02/2024	06:11	-127.331	47.905	0	123.20	0	7.8010	0	33.6280	0	26.227	0	122.131	0	130.2	4	44.7	4	-1E+10	1	-1E+10	1	-1E+10	1	-1E+10	1	-1E+10	1	-1E+10	1
4902663	40	C	09/02/2024	06:11	-127.331	47.905	0	124.20	0	7.7990	0	33.6320	0	26.231	0	123.122	0	129.7	4	44.5	4	-1E+10	1	-1E+10	1	-1E+10	1	-1E+10	1	-1E+10	1	-1E+10	1
4902663	40	C	09/02/2024	06:11	-127.331	47.905	0	125.10	0	7.7890	0	33.6490	0	26.246	0	124.014	0	129.1	4	44.4	4	-1E+10	1	-1E+10	1	-1E+10	1	-1E+10	1	-1E+10	1	-1E+10	1
4902663	40	C	09/02/2024	06:11	-127.331	47.905	0	126.10	0	7.7830	0	33.6560	0	26.252	0	125.005	0	128.5	4	44.2	4	-1E+10	1	-1E+10	1	-1E+10	1	-1E+10	1	-1E+10	1	-1E+10	1
4902663	40	C	09/02/2024	06:11	-127.331	47.905	0	127.10	0	7.7730	0	33.6650	0	26.261	0	125.996	0	127.9	4	43.9	4	-1E+10	1	-1E+10	1	-1E+10	1	-1E+10	1	-1E+10	1	-1E+10	1
4902663	40	C	09/02/2024	06:11	-127.331	47.905	0	128.00	0	7.7690	0	33.6700	0	26.265	0	126.888	0	127.4	4	43.7	4	-1E+10	1	-1E+10	1	-1E+10	1	-1E+10	1	-1E+10	1	-1E+10	1
4902663	40	C	09/02/2024	06:11	-127.331	47.905	0	129.00	0	7.7700	0	33.6750	0	26.269	0	127.879	0	126.8	4	43.6	4	-1E+10	1	-1E+10	1	-1E+10	1	-1E+10	1	-1E+10	1	-1E+10	1
4902663	40	C	09/02/2024	06:11	-127.331	47.905	0	129.90	0	7.7770	0	33.6800	0	26.272	0	128.771	0	126.2	4	43.3	4	-1E+10	1	-1E+10	1	-1E+10	1	-1E+10	1	-1E+10	1	-1E+10	1
4902663	40	C	09/02/2024	06:11	-127.331	47.905	0	130.90	0	7.7850	0	33.6870	0	26.276	0	129.762	0	125.5	4	43.1	4	-1E+10	1	-1E+10	1	-1E+10	1	-1E+10	1	-1E+10	1	-1E+10	1
4902663	40	C	09/02/2024	06:11	-127.331	47.905	0	131.80	0	7.7810	0	33.6900	0	26.279	0	130.653	0	124.9	4	42.9	4	-1E+10	1	-1E+10	1	-1E+10	1	-1E+10	1	-1E+10	1	-1E+10	1
4902663	40	C	09/02/2024	06:11	-127.331	47.905	0	132.80	0	7.7700	0	33.6950	0	26.285	0	131.644	0	124.2	4	42.7	4	-1E+10	1	-1E+10	1	-1E+10	1	-1E+10	1	-1E+10	1	-1E+10	1
4902663	40	C	09/02/2024	06:11	-127.331	47.905	0	133.70	0	7.7680	0	33.7010	0	26.290	0	132.536	0	123.5	4	42.4	4	-1E+10	1	-1E+10	1	-1E+10	1	-1E+10	1	-1E+10	1	-1E+10	1
4902663	40	C	09/02/2024	06:11	-127.331	47.905	0	134.60	0	7.7640	0	33.7130	0	26.300	0	133.428	0	122.9	4	42.2	4	-1E+10	1	-1E+10	1	-1E+10	1	-1E+10	1	-1E+10	1	-1E+10	1
4902663	40	C	09/02/2024	06:11	-127.331	47.905	0	135.50	0	7.7650	0	33.7220	0	26.307	0	134.320	0	122.2	4	42.0	4	-1E+10	1	-1E+10	1	-1E+10	1	-1E+10	1	-1E+10	1	-1E+10	1
4902663	40	C	09/02/2024	06:11	-127.331	47.905	0	136.90	0	7.7560	0	33.7330	0	26.317	0	135.707	0	121.1	4	41.6	4	-1E+10	1	-1E+10	1	-1E+10	1	-1E+10	1	-1E+10	1	-1E+10	1
4902663	40	C	09/02/2024	06:11	-127.331	47.905	0	138.40	0	7.7450	0	33.7390	0	26.323	0	137.194	0	120.1	4	41.2	4	-1E+10	1	-1E+10	1	-1E+10	1	-1E+10	1	-1E+10	1	-1E+10	1
4902663	40	C	09/02/2024	06:11	-127.331	47.905	0	139.30	0	7.7700	0	33.7590	0	26.335	0	138.086	0	119.6	4	41.1	4	-1E+10	1	-1E+10	1	-1E+10	1	-1E+10	1	-1E+10	1	-1E+10	1
4902663	40	C	09/02/2024	06:11	-127.331	47.905	0	140.30	0	7.7790	0	33.7620	0	26.336	0	139.077	0	119.2	4	41.0	4	-1E+10	1	-1E+10	1	-1E+10	1	-1E+10	1	-1E+10	1	-1E+10	1
4902663	40	C	09/02/2024	06:11	-127.331	47.905	0	141.30	0	7.7620	0	33.7780	0	26.351	0	140.068	0	118.9	4	40.8	4	-1E+10	1	-1E+10	1	-1E+10	1	-1E+10	1	-1E+10	1	-1E+10	1
4902663	40	C	09/02/2024	06:11	-127.331	47.905	0	142.20	0	7.7380	0	33.7730	0	26.351	0	140.959	0	118.5	4	40.7	4	-1E+10	1	-1E+10	1	-1E+10	1	-1E+10	1	-1E+10	1	-1E+10	1
4902663	40	C	09/02/2024	06:11	-127.331	47.905	0	143.20	0	7.7380	0	33.7740	0	26.352	0	141.950	0	118.0	4	40.5	4	-1E+10	1	-1E+10	1	-1E+10	1	-1E+10	1	-1E+10	1	-1E+10	1
4902663	40	C	09/02/2024	06:11	-127.331	47.905	0	144.20	0	7.7430	0	33.7780	0	26.354	0	142.941	0	117.4	4	40.3	4	-1E+10	1	-1E+10	1	-1E+10	1	-1E+10	1	-1E+10	1	-1E+10	1
4902663	40	C	09/02/2024	06:11	-127.331	47.905	0	145.10	0	7.7420	0	33.7780	0	26.354	0	143.833	0	116.9	4	40.2	4	-1E+10	1	-1E+10	1	-1E+10	1	-1E+10	1	-1E+10	1	-1E+10	1
4902663	40	C	09/02/2024	06:11	-127.331	47.905	0	146.10	0	7.7590	0	33.7870	0	26.359	0	144.824	0	116.5	4	40.0	4	-1E+10	1	-1E+10	1	-1E+10	1	-1E+10	1	-1E+10	1	-1E+10	1
4902663	40	C	09/02/2024	06:11	-127.331	47.905	0	147.00	0	7.7490	0	33.7910	0	26.363	0	145.716	0	116.0	4	39.8	4	-1E+10	1	-1E+10	1	-1E+10	1	-1E+10	1	-1E+10	1	-1E+10	1
4902663	40	C	09/02/2024	06:11	-127.331	47.905	0	147.90	0	7.7290	0	33.7900	0	26.365	0	146.608	0	115.3	4	39.6	4	-1E+10	1	-1E+10	1	-1E+10	1	-1E+10	1	-1E+10	1	-1E+10	1
4902663	40	C	09/02/2024	06:11	-127.331	47.905	0	148.90	0	7.7030	0	33.8020	0	26.379	0	147.599	0	114.6	4	39.3	4	-1E+10	1	-1E+10	1	-1E+10	1	-1E+10	1	-1E+10	1	-1E+10	1
4902663	40	C	09/02/2024	06:11	-127.331	47.905	0	149.80	0	7.6950	0	33.8040	0	26.381	0	148.490	0	113.9	4	39.1	4	-1E+10	1	-1E+10	1	-1E+10	1	-1E+10	1	-1E+10	1	-1E+10	1
4902663	40	C	09/02/2024	06:11	-127.331	47.905	0	150.70	0	7.6930	0	33.8040	0	26.382	0	149.382	0	113.2	4	38.8	4	-1E+10	1	-1E+10	1	-1E+10	1	-1E+10	1	-1E+10	1	-1E+10	1
4902663	40	C	09/02/2024	06:11	-127.331	47.905	0	151.70	0	7.6970	0	33.8120	0	26.387	0	150.373	0	112.6	4	38.6	4	-1E+10	1	-1E+10	1	-1E+10	1	-1E+10	1	-1E+10	1	-1E+10	1
4902663	40	C	09/02/2024	06:11	-127.331	47.905	0	152.60	0	7.6500	0	33.8160	0	26.397	0	151.265	0	112.0	4	38.4	4	-1E+10	1	-1E+10	1	-1E+10	1	-1E+10	1	-1E+10	1	-1E+10	1
4902663	40	C	09/02/2024	06:11	-127.331	47.905	0	153.60	0	7.6210	0	33.8170	0	26.402	0	152.256	0	111.8	4	38.3	4	-1E+10	1	-1E+10	1	-1E+10	1	-1E+10	1	-1E+10	1	-1E+10	1
4902663	40	C	09/02/2024	06:11	-127.331	47.905	0	154.90	0	7.5940	0	33.8190	0	26.408	0	153.544	0	111.4	4	38.1	4	-1E+10	1	-1E+10	1	-1E+10	1	-1E+10	1	-1E+10	1	-1E+10	1
4902663	40	C	09/02/2024	06:11	-127.331	47.905	0	156.40	0	7.5690	0	33.8220	0	26.414	0	155.030	0	110.8	4	37.9	4	-1E+10	1	-1E+10	1	-1E+10	1	-1E+10	1	-1E+10	1	-1E+10	1
4902663	40	C	09/02/2024	06:11	-127.331	47.905	0	157.40	0	7.5610	0	33.8220	0	26.415	0	156.021	0	110.3	4	37.7	4	-1E+10	1	-1E+10	1	-1E+10	1	-1E+10	1	-1E+10	1	-1E+10	1
4902663	40	C	09/02/2024	06:11	-127.331	47.905	0	158.30	0	7.5430	0	33.8240	0	26.419	0	156.913	0	109.8	4	37.6	4	-1E+10	1	-1E+10	1	-1E+10	1	-1E+10	1	-1E+10	1	-1E+10	1
4902663	40	C	09/02/2024	06:11	-127.331	47.905	0	159.30	0	7.5300	0	33.8240	0	26.421	0	157.904	0	109.3	4	37.4	4	-1E+10	1	-1E+10	1	-1E+10	1	-1E+10	1	-1E+10	1	-1E+10	1
4902663	40	C	09/02/2024	06:11	-127.331	47.905	0	160.20	0	7.5290	0	33.8230	0	26.420	0	158.795	0	108.6	4	37.1	4	-1E+10	1	-1E+10	1	-1E+10	1	-1E+10	1	-1E+10	1	-1E+10	1
4902663	40	C	09/02/2024	06:11	-127.331	47.905	0	161.20	0	7.5180	0	33.8250	0	26.423	0	159.786	0	107.8	4	36.9	4	-1E+10	1	-1E+10	1	-1E+10	1	-1E+10	1	-1E+10	1	-1E+10	1
4902663	40	C	09/02/2024	06:11	-127.331	47.905	0	162.10	0	7.4940	0	33.8260	0	26.428	0	160.678	0	106.8	4	36.5	4	-1E+10	1	-1E+10	1	-1E+10	1	-1E+10	1	-1E+10	1	-1E+10	1
4902663	40	C	09/02/2024	06:11	-127.331	47.905	0	163.10	0	7.4960	0	33.8350	0	26.434	0	161.669	0	105.6	4	36.1	4	-1E+10	1	-1E+10	1	-1E+10	1	-1E+10	1	-1E+10	1	-1E+10	1
4902663	40	C	09/02/2024	06:11	-127.331	47.905	0	164.00	0	7.5180	0	33.8490	0	26.442	0	162.561	0	104.7	4	35.8	4	-1E+10	1	-1E+10	1	-1E+10	1	-1E+10	1	-1E+10	1	-1E+10	1
4902663	40	C	09/02/2024	06:11	-127.331	47.905	0	165.00	0	7.4990	0	33.8500	0	26.446	0	163.551	0	104.1	4	35.6	4	-1E+10	1	-1E+10	1	-1E+10	1	-1E+10	1	-1E+10	1	-1E+10	1
4902663	40	C	09/02/2024	06:11	-127.331	47.905	0	166.00	0	7.4880	0	33.8490	0	26.447	0	164.542	0	103.4	4	35.3	4	-1E+10	1	-1E+10	1	-1E+10	1	-1E+10	1	-1E+10	1	-1E+10	1
4902663	40	C	09/02/2024	06:11	-127.331	47.905	0	166.90	0	7.4370	0	33.8450	0	26.451	0	165.434	0	103.0	4	35.2	4	-1E+10	1	-1E+10	1	-1E+10	1	-1E+10	1	-1E+10	1	-1E+10	1
4902663	40	C	09/02/2024	06:11	-127.331	47.905	0	167.90	0	7.3550	0	33.8490	0	26.465	0	166.425	0	103.1	4	35.1	4	-1E+10	1	-1E+10	1	-1E+10	1	-1E+10	1	-1E+10	1	-1E+10	1
4902663	40	C	09/02/2024	06:11	-127.331	47.905	0	168.80	0	7.3390	0	33.8420	0	26.462	0	167.317	0	103.3	4	35.2	4	-1E+10	1	-1E+10	1	-1E+10	1	-1E+10	1	-1E+10	1	-1E+10	1
4902663	40	C	09/02/2024	06:11	-127.331	47.905	0	169.80	0	7.3560	0	33.8520	0	26.468	0	168.307	0	103.1	4	35.1	4	-1E+10	1	-1E+10	1	-1E+10	1	-1E+10	1	-1E+10	1	-1E+10	1
4902663	40	C	09/02/2024	06:11	-127.331	47.905	0	170.70	0	7.3290	0	33.8500	0	26.470	0	169.199	0	102.9	4	35.0	4	-1E+10	1	-1E+10	1	-1E+10	1	-1E+10	1	-1E+10	1	-1E+10	1
4902663	40	C	09/02/2024	06:11	-127.331	47.905	0	171.70	0	7.3200	0	33.8480	0	26.470	0	170.190	0	102.6	4	34.9	4	-1E+10	1	-1E+10	1	-1E+10	1	-1E+10	1	-1E+10	1	-1E+10	1
4902663	40	C	09/02/2024	06:11	-127.331	47.905	0	172.70	0	7.2620	0	33.8580	0	26.485	0	171.181	0	102.2	4	34.7	4	-1E+10	1	-1E+10	1	-1E+10	1	-1E+10	1	-1E+10	1	-1E+10	1
4902663	40	C	09/02/2024	06:11	-127.331	47.905	0	173.60	0	7.2230	0	33.8520	0	26.486	0	172.072	0	102.0	4	34.6	4	-1E+10	1	-1E+10	1	-1E+10	1	-1E+10	1	-1E+10	1	-1E+10	1
4902663	40	C	09/02/2024	06:11	-127.331	47.905	0	174.60	0	7.2070	0	33.8560	0	26.492	0	173.063	0	101.8	4	34.6	4	-1E+10	1	-1E+10	1	-1E+10	1	-1E+10	1	-1E+10	1	-1E+10	1
4902663	40	C	09/02/2024	06:11	-127.331	47.905	0	175.60	0	7.1840	0	33.8590	0	26.497	0	174.054	0	101.1	4	34.3	4	-1E+10	1	-1E+10	1	-1E+10	1	-1E+10	1	-1E+10	1	-1E+10	1
4902663	40	C	09/02/2024	06:11	-127.331	47.905	0	176.60	0	7.1850	0	33.8640	0	26.501	0	175.045	0	100.4	4	34.1	4	-1E+10	1	-1E+10	1	-1E+10	1	-1E+10	1	-1E+10	1	-1E+10	1
4902663	40	C	09/02/2024	06:11	-127.331	47.905	0	177.60	0	7.1320	0	33.8670	0	26.511	0	176.035	0	100.0	4	33.9	4	-1E+10	1	-1E+10	1	-1E+10	1	-1E+10	1	-1E+10	1	-1E+10	1
4902663	40	C	09/02/2024	06:11	-127.331	47.905	0	178.60	0	7.1030	0	33.8660	0	26.514	0	177.026	0	98.6	4	33.4	4	-1E+10	1	-1E+10	1	-1E+10	1	-1E+10	1	-1E+10	1	-1E+10	1
4902663	40	C	09/02/2024	06:11	-127.331	47.905	0	179.60	0	7.1010	0	33.8550	0	26.505	0	178.017	0	97.0	4	32.9	4	-1E+10	1	-1E+10	1	-1E+10	1	-1E+10	1	-1E+10	1	-1E+10	1
4902663	40	C	09/02/2024	06:11	-127.331	47.905	0	180.60	0	7.1170	0	33.8720	0	26.517	0	179.008	0	96.9	4	32.8	4	-1E+10	1	-1E+10	1	-1E+10	1	-1E+10	1	-1E+10	1	-1E+10	1
4902663	40	C	09/02/2024	06:11	-127.331	47.905	0	181.50	0	7.1170	0	33.8760	0	26.520	0	179.899	0	96.6	4	32.8	4	-1E+10	1	-1E+10	1	-1E+10	1	-1E+10	1	-1E+10	1	-1E+10	1
4902663	40	C	09/02/2024	06:11	-127.331	47.905	0	182.50	0	7.1100	0	33.8760	0	26.521	0	180.890	0	96.7	4	32.8	4	-1E+10	1	-1E+10	1	-1E+10	1	-1E+10	1	-1E+10	1	-1E+10	1
4902663	40	C	09/02/2024	06:11	-127.331	47.905	0	183.50	0	7.0940	0	33.8810	0	26.527	0	181.881	0	97.1	4	32.9	4	-1E+10	1	-1E+10	1	-1E+10	1	-1E+10	1	-1E+10	1	-1E+10	1
4902663	40	C	09/02/2024	06:11	-127.331	47.905	0	184.90	0	7.0620	0	33.8780	0	26.529	0	183.268	0	98.8	4	33.4	4	-1E+10	1	-1E+10	1	-1E+10	1	-1E+10	1	-1E+10	1	-1E+10	1
4902663	40	C	09/02/2024	06:11	-127.331	47.905	0	186.40	0	7.0420	0	33.8810	0	26.534	0	184.754	0	101.2	4	34.2	4	-1E+10	1	-1E+10	1	-1E+10	1	-1E+10	1	-1E+10	1	-1E+10	1
4902663	40	C	09/02/2024	06:11	-127.331	47.905	0	187.30	0	7.0140	0	33.8810	0	26.538	0	185.646	0	102.0	4	34.5	4	-1E+10	1	-1E+10	1	-1E+10	1	-1E+10	1	-1E+10	1	-1E+10	1
4902663	40	C	09/02/2024	06:11	-127.331	47.905	0	188.30	0	6.9920	0	33.8780	0	26.539	0	186.636	0	102.1	4	34.5	4	-1E+10	1	-1E+10	1	-1E+10	1	-1E+10	1	-1E+10	1	-1E+10	1
4902663	40	C	09/02/2024	06:11	-127.331	47.905	0	189.20	0	6.9930	0	33.8790	0	26.539	0	187.528	0	102.3	4	34.6	4	-1E+10	1	-1E+10	1	-1E+10	1	-1E+10	1	-1E+10	1	-1E+10	1
4902663	40	C	09/02/2024	06:11	-127.331	47.905	0	190.20	0	6.9630	0	33.8760	0	26.541	0	188.519	0	102.4	4	34.6	4	-1E+10	1	-1E+10	1	-1E+10	1	-1E+10	1	-1E+10	1	-1E+10	1
4902663	40	C	09/02/2024	06:11	-127.331	47.905	0	191.10	0	6.9500	0	33.8790	0	26.545	0	189.410	0	102.3	4	34.6	4	-1E+10	1	-1E+10	1	-1E+10	1	-1E+10	1	-1E+10	1	-1E+10	1
4902663	40	C	09/02/2024	06:11	-127.331	47.905	0	192.10	0	6.9550	0	33.8800	0	26.545	0	190.401	0	102.5	4	34.6	4	-1E+10	1	-1E+10	1	-1E+10	1	-1E+10	1	-1E+10	1	-1E+10	1
4902663	40	C	09/02/2024	06:11	-127.331	47.905	0	193.10	0	6.9500	0	33.8810	0	26.547	0	191.392	0	103.2	4	34.9	4	-1E+10	1	-1E+10	1	-1E+10	1	-1E+10	1	-1E+10	1	-1E+10	1
4902663	40	C	09/02/2024	06:11	-127.331	47.905	0	194.00	0	6.9110	0	33.8790	0	26.550	0	192.283	0	103.6	4	35.0	4	-1E+10	1	-1E+10	1	-1E+10	1	-1E+10	1	-1E+10	1	-1E+10	1
4902663	40	C	09/02/2024	06:11	-127.331	47.905	0	195.00	0	6.8950	0	33.8770	0	26.551	0	193.274	0	103.7	4	35.0	4	-1E+10	1	-1E+10	1	-1E+10	1	-1E+10	1	-1E+10	1	-1E+10	1
4902663	40	C	09/02/2024	06:11	-127.331	47.905	0	196.00	0	6.8750	0	33.8770	0	26.554	0	194.265	0	103.5	4	34.9	4	-1E+10	1	-1E+10	1	-1E+10	1	-1E+10	1	-1E+10	1	-1E+10	1
4902663	40	C	09/02/2024	06:11	-127.331	47.905	0	196.90	0	6.9010	0	33.8850	0	26.557	0	195.156	0	104.5	4	35.2	4	-1E+10	1	-1E+10	1	-1E+10	1	-1E+10	1	-1E+10	1	-1E+10	1
4902663	40	C	09/02/2024	06:11	-127.331	47.905	0	197.90	0	6.8590	0	33.8920	0	26.568	0	196.147	0	105.5	4	35.5	4	-1E+10	1	-1E+10	1	-1E+10	1	-1E+10	1	-1E+10	1	-1E+10	1
4902663	40	C	09/02/2024	06:11	-127.331	47.905	0	198.90	0	6.7630	0	33.8770	0	26.569	0	197.138	0	105.3	4	35.4	4	-1E+10	1	-1E+10	1	-1E+10	1	-1E+10	1	-1E+10	1	-1E+10	1
4902663	40	C	09/02/2024	06:11	-127.331	47.905	0	199.90	0	6.7540	0	33.8730	0	26.567	0	198.128	0	104.7	4	35.2	4	-1E+10	1	-1E+10	1	-1E+10	1	-1E+10	1	-1E+10	1	-1E+10	1
4902663	40	C	09/02/2024	06:11	-127.331	47.905	0	200.90	0	6.7510	0	33.8760	0	26.570	0	199.119	0	104.0	4	35.0	4	-1E+10	1	-1E+10	1	-1E+10	1	-1E+10	1	-1E+10	1	-1E+10	1
4902663	40	C	09/02/2024	06:11	-127.331	47.905	0	201.80	0	6.7650	0	33.8800	0	26.571	0	200.011	0	103.3	4	34.7	4	-1E+10	1	-1E+10	1	-1E+10	1	-1E+10	1	-1E+10	1	-1E+10	1
4902663	40	C	09/02/2024	06:11	-127.331	47.905	0	202.80	0	6.7820	0	33.8870	0	26.574	0	201.001	0	103.0	4	34.6	4	-1E+10	1	-1E+10	1	-1E+10	1	-1E+10	1	-1E+10	1	-1E+10	1
4902663	40	C	09/02/2024	06:11	-127.331	47.905	0	203.80	0	6.7680	0	33.8880	0	26.577	0	201.992	0	102.8	4	34.6	4	-1E+10	1	-1E+10	1	-1E+10	1	-1E+10	1	-1E+10	1	-1E+10	1
4902663	40	C	09/02/2024	06:11	-127.331	47.905	0	204.80	0	6.7660	0	33.8870	0	26.576	0	202.983	0	102.6	4	34.5	4	-1E+10	1	-1E+10	1	-1E+10	1	-1E+10	1	-1E+10	1	-1E+10	1
4902663	40	C	09/02/2024	06:11	-127.331	47.905	0	205.80	0	6.7690	0	33.8890	0	26.578	0	203.973	0	102.4	4	34.4	4	-1E+10	1	-1E+10	1	-1E+10	1	-1E+10	1	-1E+10	1	-1E+10	1
4902663	40	C	09/02/2024	06:11	-127.331	47.905	0	206.70	0	6.7510	0	33.8880	0	26.579	0	204.865	0	102.2	4	34.3	4	-1E+10	1	-1E+10	1	-1E+10	1	-1E+10	1	-1E+10	1	-1E+10	1
4902663	40	C	09/02/2024	06:11	-127.331	47.905	0	207.70	0	6.7290	0	33.8880	0	26.582	0	205.855	0	101.9	4	34.2	4	-1E+10	1	-1E+10	1	-1E+10	1	-1E+10	1	-1E+10	1	-1E+10	1
4902663	40	C	09/02/2024	06:11	-127.331	47.905	0	208.70	0	6.7040	0	33.8890	0	26.586	0	206.846	0	101.5	4	34.1	4	-1E+10	1	-1E+10	1	-1E+10	1	-1E+10	1	-1E+10	1	-1E+10	1
4902663	40	C	09/02/2024	06:11	-127.331	47.905	0	209.80	0	6.6830	0	33.8850	0	26.586	0	207.936	0	101.0	4	33.9	4	-1E+10	1	-1E+10	1	-1E+10	1	-1E+10	1	-1E+10	1	-1E+10	1
4902663	40	C	09/02/2024	06:11	-127.331	47.905	0	210.80	0	6.6730	0	33.8850	0	26.587	0	208.926	0	100.4	4	33.7	4	-1E+10	1	-1E+10	1	-1E+10	1	-1E+10	1	-1E+10	1	-1E+10	1
4902663	40	C	09/02/2024	06:11	-127.331	47.905	0	211.80	0	6.6680	0	33.8860	0	26.589	0	209.917	0	99.8	4	33.5	4	-1E+10	1	-1E+10	1	-1E+10	1	-1E+10	1	-1E+10	1	-1E+10	1
4902663	40	C	09/02/2024	06:11	-127.331	47.905	0	212.80	0	6.6650	0	33.8910	0	26.593	0	210.907	0	99.2	4	33.3	4	-1E+10	1	-1E+10	1	-1E+10	1	-1E+10	1	-1E+10	1	-1E+10	1
4902663	40	C	09/02/2024	06:11	-127.331	47.905	0	213.80	0	6.6780	0	33.8950	0	26.595	0	211.898	0	98.8	4	33.1	4	-1E+10	1	-1E+10	1	-1E+10	1	-1E+10	1	-1E+10	1	-1E+10	1
4902663	40	C	09/02/2024	06:11	-127.331	47.905	0	214.80	0	6.6750	0	33.8940	0	26.594	0	212.889	0	98.4	4	33.0	4	-1E+10	1	-1E+10	1	-1E+10	1	-1E+10	1	-1E+10	1	-1E+10	1
4902663	40	C	09/02/2024	06:11	-127.331	47.905	0	215.80	0	6.6670	0	33.8970	0	26.598	0	213.879	0	98.0	4	32.9	4	-1E+10	1	-1E+10	1	-1E+10	1	-1E+10	1	-1E+10	1	-1E+10	1
4902663	40	C	09/02/2024	06:11	-127.331	47.905	0	216.90	0	6.6920	0	33.9020	0	26.598	0	214.969	0	98.0	4	32.9	4	-1E+10	1	-1E+10	1	-1E+10	1	-1E+10	1	-1E+10	1	-1E+10	1
4902663	40	C	09/02/2024	06:11	-127.331	47.905	0	217.90	0	6.6910	0	33.9030	0	26.599	0	215.959	0	98.0	4	32.9	4	-1E+10	1	-1E+10	1	-1E+10	1	-1E+10	1	-1E+10	1	-1E+10	1
4902663	40	C	09/02/2024	06:11	-127.331	47.905	0	218.90	0	6.6490	0	33.8980	0	26.601	0	216.950	0	98.0	4	32.9	4	-1E+10	1	-1E+10	1	-1E+10	1	-1E+10	1	-1E+10	1	-1E+10	1
4902663	40	C	09/02/2024	06:11	-127.331	47.905	0	219.90	0	6.6370	0	33.9010	0	26.605	0	217.941	0	98.0	4	32.8	4	-1E+10	1	-1E+10	1	-1E+10	1	-1E+10	1	-1E+10	1	-1E+10	1
4902663	40	C	09/02/2024	06:11	-127.331	47.905	0	221.00	0	6.6250	0	33.9000	0	26.606	0	219.030	0	98.0	4	32.9	4	-1E+10	1	-1E+10	1	-1E+10	1	-1E+10	1	-1E+10	1	-1E+10	1
4902663	40	C	09/02/2024	06:11	-127.331	47.905	0	222.00	0	6.6060	0	33.9020	0	26.610	0	220.021	0	98.1	4	32.9	4	-1E+10	1	-1E+10	1	-1E+10	1	-1E+10	1	-1E+10	1	-1E+10	1
4902663	40	C	09/02/2024	06:11	-127.331	47.905	0	223.10	0	6.5740	0	33.8980	0	26.611	0	221.110	0	98.1	4	32.8	4	-1E+10	1	-1E+10	1	-1E+10	1	-1E+10	1	-1E+10	1	-1E+10	1
4902663	40	C	09/02/2024	06:11	-127.331	47.905	0	224.20	0	6.5800	0	33.9030	0	26.614	0	222.200	0	98.1	4	32.8	4	-1E+10	1	-1E+10	1	-1E+10	1	-1E+10	1	-1E+10	1	-1E+10	1
4902663	40	C	09/02/2024	06:11	-127.331	47.905	0	225.20	0	6.5410	0	33.8960	0	26.614	0	223.190	0	98.1	4	32.8	4	-1E+10	1	-1E+10	1	-1E+10	1	-1E+10	1	-1E+10	1	-1E+10	1
4902663	40	C	09/02/2024	06:11	-127.331	47.905	0	226.30	0	6.5390	0	33.8980	0	26.615	0	224.280	0	98.0	4	32.8	4	-1E+10	1	-1E+10	1	-1E+10	1	-1E+10	1	-1E+10	1	-1E+10	1
4902663	40	C	09/02/2024	06:11	-127.331	47.905	0	227.40	0	6.5440	0	33.8980	0	26.615	0	225.370	0	97.9	4	32.8	4	-1E+10	1	-1E+10	1	-1E+10	1	-1E+10	1	-1E+10	1	-1E+10	1
4902663	40	C	09/02/2024	06:11	-127.331	47.905	0	228.40	0	6.5470	0	33.8990	0	26.615	0	226.360	0	98.0	4	32.8	4	-1E+10	1	-1E+10	1	-1E+10	1	-1E+10	1	-1E+10	1	-1E+10	1
4902663	40	C	09/02/2024	06:11	-127.331	47.905	0	229.50	0	6.5390	0	33.8980	0	26.615	0	227.450	0	98.0	4	32.8	4	-1E+10	1	-1E+10	1	-1E+10	1	-1E+10	1	-1E+10	1	-1E+10	1
4902663	40	C	09/02/2024	06:11	-127.331	47.905	0	230.60	0	6.4970	0	33.8930	0	26.617	0	228.539	0	97.9	4	32.7	4	-1E+10	1	-1E+10	1	-1E+10	1	-1E+10	1	-1E+10	1	-1E+10	1
4902663	40	C	09/02/2024	06:11	-127.331	47.905	0	231.60	0	6.4750	0	33.8920	0	26.619	0	229.530	0	97.5	4	32.6	4	-1E+10	1	-1E+10	1	-1E+10	1	-1E+10	1	-1E+10	1	-1E+10	1
4902663	40	C	09/02/2024	06:11	-127.331	47.905	0	232.70	0	6.4530	0	33.8890	0	26.620	0	230.619	0	97.0	4	32.4	4	-1E+10	1	-1E+10	1	-1E+10	1	-1E+10	1	-1E+10	1	-1E+10	1
4902663	40	C	09/02/2024	06:11	-127.331	47.905	0	233.80	0	6.4260	0	33.8900	0	26.624	0	231.709	0	96.4	4	32.2	4	-1E+10	1	-1E+10	1	-1E+10	1	-1E+10	1	-1E+10	1	-1E+10	1
4902663	40	C	09/02/2024	06:11	-127.331	47.905	0	234.80	0	6.4340	0	33.8920	0	26.624	0	232.699	0	95.8	4	32.0	4	-1E+10	1	-1E+10	1	-1E+10	1	-1E+10	1	-1E+10	1	-1E+10	1
4902663	40	C	09/02/2024	06:11	-127.331	47.905	0	235.90	0	6.4160	0	33.8910	0	26.626	0	233.789	0	95.1	4	31.7	4	-1E+10	1	-1E+10	1	-1E+10	1	-1E+10	1	-1E+10	1	-1E+10	1
4902663	40	C	09/02/2024	06:11	-127.331	47.905	0	237.00	0	6.4370	0	33.9030	0	26.633	0	234.878	0	94.7	4	31.6	4	-1E+10	1	-1E+10	1	-1E+10	1	-1E+10	1	-1E+10	1	-1E+10	1
4902663	40	C	09/02/2024	06:11	-127.331	47.905	0	238.00	0	6.4230	0	33.8990	0	26.631	0	235.869	0	94.4	4	31.5	4	-1E+10	1	-1E+10	1	-1E+10	1	-1E+10	1	-1E+10	1	-1E+10	1
4902663	40	C	09/02/2024	06:11	-127.331	47.905	0	239.10	0	6.4020	0	33.9000	0	26.635	0	236.958	0	94.0	4	31.4	4	-1E+10	1	-1E+10	1	-1E+10	1	-1E+10	1	-1E+10	1	-1E+10	1
4902663	40	C	09/02/2024	06:11	-127.331	47.905	0	240.20	0	6.3860	0	33.8980	0	26.635	0	238.048	0	93.5	4	31.2	4	-1E+10	1	-1E+10	1	-1E+10	1	-1E+10	1	-1E+10	1	-1E+10	1
4902663	40	C	09/02/2024	06:11	-127.331	47.905	0	241.30	0	6.3780	0	33.8990	0	26.637	0	239.138	0	93.0	4	31.0	4	-1E+10	1	-1E+10	1	-1E+10	1	-1E+10	1	-1E+10	1	-1E+10	1
4902663	40	C	09/02/2024	06:11	-127.331	47.905	0	242.30	0	6.3860	0	33.9020	0	26.639	0	240.128	0	92.6	4	30.9	4	-1E+10	1	-1E+10	1	-1E+10	1	-1E+10	1	-1E+10	1	-1E+10	1
4902663	40	C	09/02/2024	06:11	-127.331	47.905	0	243.40	0	6.3940	0	33.9050	0	26.640	0	241.217	0	92.3	4	30.8	4	-1E+10	1	-1E+10	1	-1E+10	1	-1E+10	1	-1E+10	1	-1E+10	1
4902663	40	C	09/02/2024	06:11	-127.331	47.905	0	244.50	0	6.3890	0	33.9060	0	26.641	0	242.307	0	92.0	4	30.7	4	-1E+10	1	-1E+10	1	-1E+10	1	-1E+10	1	-1E+10	1	-1E+10	1
4902663	40	C	09/02/2024	06:11	-127.331	47.905	0	245.60	0	6.3880	0	33.9060	0	26.642	0	243.396	0	91.8	4	30.6	4	-1E+10	1	-1E+10	1	-1E+10	1	-1E+10	1	-1E+10	1	-1E+10	1
4902663	40	C	09/02/2024	06:11	-127.331	47.905	0	246.70	0	6.3860	0	33.9050	0	26.641	0	244.486	0	91.4	4	30.5	4	-1E+10	1	-1E+10	1	-1E+10	1	-1E+10	1	-1E+10	1	-1E+10	1
4902663	40	C	09/02/2024	06:11	-127.331	47.905	0	247.80	0	6.3750	0	33.9080	0	26.645	0	245.575	0	91.1	4	30.4	4	-1E+10	1	-1E+10	1	-1E+10	1	-1E+10	1	-1E+10	1	-1E+10	1
4902663	40	C	09/02/2024	06:11	-127.331	47.905	0	248.90	0	6.3430	0	33.9070	0	26.648	0	246.665	0	90.8	4	30.2	4	-1E+10	1	-1E+10	1	-1E+10	1	-1E+10	1	-1E+10	1	-1E+10	1
4902663	40	C	09/02/2024	06:11	-127.331	47.905	0	250.00	0	6.3370	0	33.9080	0	26.650	0	247.754	0	90.5	4	30.1	4	-1E+10	1	-1E+10	1	-1E+10	1	-1E+10	1	-1E+10	1	-1E+10	1
4902663	40	C	09/02/2024	06:11	-127.331	47.905	0	251.10	0	6.3200	0	33.9090	0	26.653	0	248.844	0	90.2	4	30.0	4	-1E+10	1	-1E+10	1	-1E+10	1	-1E+10	1	-1E+10	1	-1E+10	1
4902663	40	C	09/02/2024	06:11	-127.331	47.905	0	252.20	0	6.3100	0	33.9080	0	26.653	0	249.933	0	89.9	4	29.9	4	-1E+10	1	-1E+10	1	-1E+10	1	-1E+10	1	-1E+10	1	-1E+10	1
4902663	40	C	09/02/2024	06:11	-127.331	47.905	0	253.30	0	6.2590	0	33.9060	0	26.658	0	251.023	0	89.5	4	29.7	4	-1E+10	1	-1E+10	1	-1E+10	1	-1E+10	1	-1E+10	1	-1E+10	1
4902663	40	C	09/02/2024	06:11	-127.331	47.905	0	254.40	0	6.2640	0	33.9070	0	26.658	0	252.112	0	89.1	4	29.6	4	-1E+10	1	-1E+10	1	-1E+10	1	-1E+10	1	-1E+10	1	-1E+10	1
4902663	40	C	09/02/2024	06:11	-127.331	47.905	0	255.40	0	6.2790	0	33.9110	0	26.660	0	253.103	0	88.8	4	29.5	4	-1E+10	1	-1E+10	1	-1E+10	1	-1E+10	1	-1E+10	1	-1E+10	1
4902663	40	C	09/02/2024	06:11	-127.331	47.905	0	256.50	0	6.2620	0	33.9150	0	26.665	0	254.192	0	88.6	4	29.5	4	-1E+10	1	-1E+10	1	-1E+10	1	-1E+10	1	-1E+10	1	-1E+10	1
4902663	40	C	09/02/2024	06:11	-127.331	47.905	0	257.60	0	6.2200	0	33.9100	0	26.666	0	255.281	0	88.5	4	29.4	4	-1E+10	1	-1E+10	1	-1E+10	1	-1E+10	1	-1E+10	1	-1E+10	1
4902663	40	C	09/02/2024	06:11	-127.331	47.905	0	259.00	0	6.1890	0	33.9070	0	26.668	0	256.668	0	87.8	4	29.1	4	-1E+10	1	-1E+10	1	-1E+10	1	-1E+10	1	-1E+10	1	-1E+10	1
4902663	40	C	09/02/2024	06:11	-127.331	47.905	0	261.00	0	6.1730	0	33.9080	0	26.671	0	258.649	0	86.7	4	28.8	4	-1E+10	1	-1E+10	1	-1E+10	1	-1E+10	1	-1E+10	1	-1E+10	1
4902663	40	C	09/02/2024	06:11	-127.331	47.905	0	262.30	0	6.1740	0	33.9110	0	26.673	0	259.936	0	86.0	4	28.5	4	-1E+10	1	-1E+10	1	-1E+10	1	-1E+10	1	-1E+10	1	-1E+10	1
4902663	40	C	09/02/2024	06:11	-127.331	47.905	0	263.10	0	6.1730	0	33.9120	0	26.674	0	260.728	0	85.5	4	28.4	4	-1E+10	1	-1E+10	1	-1E+10	1	-1E+10	1	-1E+10	1	-1E+10	1
4902663	40	C	09/02/2024	06:11	-127.331	47.905	0	263.90	0	6.1710	0	33.9120	0	26.674	0	261.521	0	85.0	4	28.2	4	-1E+10	1	-1E+10	1	-1E+10	1	-1E+10	1	-1E+10	1	-1E+10	1
4902663	40	C	09/02/2024	06:11	-127.331	47.905	0	264.70	0	6.1710	0	33.9130	0	26.675	0	262.313	0	84.5	4	28.0	4	-1E+10	1	-1E+10	1	-1E+10	1	-1E+10	1	-1E+10	1	-1E+10	1
4902663	40	C	09/02/2024	06:11	-127.331	47.905	0	265.90	0	6.1770	0	33.9180	0	26.678	0	263.501	0	84.0	4	27.9	4	-1E+10	1	-1E+10	1	-1E+10	1	-1E+10	1	-1E+10	1	-1E+10	1
4902663	40	C	09/02/2024	06:11	-127.331	47.905	0	267.20	0	6.1570	0	33.9180	0	26.681	0	264.789	0	83.5	4	27.7	4	-1E+10	1	-1E+10	1	-1E+10	1	-1E+10	1	-1E+10	1	-1E+10	1
4902663	40	C	09/02/2024	06:11	-127.331	47.905	0	268.00	0	6.1640	0	33.9200	0	26.682	0	265.581	0	83.1	4	27.6	4	-1E+10	1	-1E+10	1	-1E+10	1	-1E+10	1	-1E+10	1	-1E+10	1
4902663	40	C	09/02/2024	06:11	-127.331	47.905	0	268.80	0	6.1710	0	33.9210	0	26.682	0	266.373	0	82.8	4	27.5	4	-1E+10	1	-1E+10	1	-1E+10	1	-1E+10	1	-1E+10	1	-1E+10	1
4902663	40	C	09/02/2024	06:11	-127.331	47.905	0	270.00	0	6.1620	0	33.9220	0	26.683	0	267.562	0	82.2	4	27.3	4	-1E+10	1	-1E+10	1	-1E+10	1	-1E+10	1	-1E+10	1	-1E+10	1
4902663	40	C	09/02/2024	06:11	-127.331	47.905	0	271.20	0	6.1670	0	33.9250	0	26.685	0	268.750	0	81.7	4	27.1	4	-1E+10	1	-1E+10	1	-1E+10	1	-1E+10	1	-1E+10	1	-1E+10	1
4902663	40	C	09/02/2024	06:11	-127.331	47.905	0	272.10	0	6.1830	0	33.9260	0	26.684	0	269.641	0	81.3	4	27.0	4	-1E+10	1	-1E+10	1	-1E+10	1	-1E+10	1	-1E+10	1	-1E+10	1
4902663	40	C	09/02/2024	06:11	-127.331	47.905	0	272.80	0	6.1820	0	33.9290	0	26.686	0	270.335	0	81.1	4	26.9	4	-1E+10	1	-1E+10	1	-1E+10	1	-1E+10	1	-1E+10	1	-1E+10	1
4902663	40	C	09/02/2024	06:11	-127.331	47.905	0	273.60	0	6.1700	0	33.9270	0	26.686	0	271.127	0	80.7	4	26.8	4	-1E+10	1	-1E+10	1	-1E+10	1	-1E+10	1	-1E+10	1	-1E+10	1
4902663	40	C	09/02/2024	06:11	-127.331	47.905	0	274.90	0	6.1590	0	33.9260	0	26.687	0	272.414	0	80.2	4	26.6	4	-1E+10	1	-1E+10	1	-1E+10	1	-1E+10	1	-1E+10	1	-1E+10	1
4902663	40	C	09/02/2024	06:11	-127.331	47.905	0	276.10	0	6.1680	0	33.9320	0	26.691	0	273.603	0	79.7	4	26.4	4	-1E+10	1	-1E+10	1	-1E+10	1	-1E+10	1	-1E+10	1	-1E+10	1
4902663	40	C	09/02/2024	06:11	-127.331	47.905	0	276.90	0	6.1720	0	33.9330	0	26.691	0	274.395	0	79.6	4	26.4	4	-1E+10	1	-1E+10	1	-1E+10	1	-1E+10	1	-1E+10	1	-1E+10	1
4902663	40	C	09/02/2024	06:11	-127.331	47.905	0	277.80	0	6.1620	0	33.9340	0	26.693	0	275.286	0	79.3	4	26.3	4	-1E+10	1	-1E+10	1	-1E+10	1	-1E+10	1	-1E+10	1	-1E+10	1
4902663	40	C	09/02/2024	06:11	-127.331	47.905	0	279.00	0	6.1500	0	33.9330	0	26.694	0	276.474	0	78.9	4	26.2	4	-1E+10	1	-1E+10	1	-1E+10	1	-1E+10	1	-1E+10	1	-1E+10	1
4902663	40	C	09/02/2024	06:11	-127.331	47.905	0	280.20	0	6.1460	0	33.9280	0	26.690	0	277.663	0	78.5	4	26.0	4	-1E+10	1	-1E+10	1	-1E+10	1	-1E+10	1	-1E+10	1	-1E+10	1
4902663	40	C	09/02/2024	06:11	-127.331	47.905	0	281.10	0	6.1400	0	33.9350	0	26.697	0	278.554	0	78.3	4	25.9	4	-1E+10	1	-1E+10	1	-1E+10	1	-1E+10	1	-1E+10	1	-1E+10	1
4902663	40	C	09/02/2024	06:11	-127.331	47.905	0	281.90	0	6.1290	0	33.9360	0	26.699	0	279.346	0	78.0	4	25.9	4	-1E+10	1	-1E+10	1	-1E+10	1	-1E+10	1	-1E+10	1	-1E+10	1
4902663	40	C	09/02/2024	06:11	-127.331	47.905	0	282.70	0	6.1240	0	33.9360	0	26.699	0	280.138	0	77.8	4	25.8	4	-1E+10	1	-1E+10	1	-1E+10	1	-1E+10	1	-1E+10	1	-1E+10	1
4902663	40	C	09/02/2024	06:11	-127.331	47.905	0	283.90	0	6.1130	0	33.9350	0	26.700	0	281.327	0	77.5	4	25.7	4	-1E+10	1	-1E+10	1	-1E+10	1	-1E+10	1	-1E+10	1	-1E+10	1
4902663	40	C	09/02/2024	06:11	-127.331	47.905	0	285.10	0	6.0990	0	33.9370	0	26.703	0	282.515	0	77.1	4	25.5	4	-1E+10	1	-1E+10	1	-1E+10	1	-1E+10	1	-1E+10	1	-1E+10	1
4902663	40	C	09/02/2024	06:11	-127.331	47.905	0	286.00	0	6.0950	0	33.9370	0	26.704	0	283.406	0	76.8	4	25.4	4	-1E+10	1	-1E+10	1	-1E+10	1	-1E+10	1	-1E+10	1	-1E+10	1
4902663	40	C	09/02/2024	06:11	-127.331	47.905	0	286.80	0	6.0930	0	33.9370	0	26.704	0	284.199	0	76.4	4	25.3	4	-1E+10	1	-1E+10	1	-1E+10	1	-1E+10	1	-1E+10	1	-1E+10	1
4902663	40	C	09/02/2024	06:11	-127.331	47.905	0	287.60	0	6.0900	0	33.9370	0	26.705	0	284.991	0	76.0	4	25.2	4	-1E+10	1	-1E+10	1	-1E+10	1	-1E+10	1	-1E+10	1	-1E+10	1
4902663	40	C	09/02/2024	06:11	-127.331	47.905	0	288.90	0	6.0820	0	33.9380	0	26.706	0	286.278	0	75.6	4	25.0	4	-1E+10	1	-1E+10	1	-1E+10	1	-1E+10	1	-1E+10	1	-1E+10	1
4902663	40	C	09/02/2024	06:11	-127.331	47.905	0	290.20	0	6.0720	0	33.9410	0	26.710	0	287.565	0	75.2	4	24.9	4	-1E+10	1	-1E+10	1	-1E+10	1	-1E+10	1	-1E+10	1	-1E+10	1
4902663	40	C	09/02/2024	06:11	-127.331	47.905	0	291.10	0	6.0520	0	33.9420	0	26.713	0	288.457	0	75.0	4	24.8	4	-1E+10	1	-1E+10	1	-1E+10	1	-1E+10	1	-1E+10	1	-1E+10	1
4902663	40	C	09/02/2024	06:11	-127.331	47.905	0	291.90	0	6.0300	0	33.9400	0	26.715	0	289.249	0	74.8	4	24.7	4	-1E+10	1	-1E+10	1	-1E+10	1	-1E+10	1	-1E+10	1	-1E+10	1
4902663	40	C	09/02/2024	06:11	-127.331	47.905	0	292.70	0	6.0290	0	33.9380	0	26.713	0	290.041	0	74.5	4	24.6	4	-1E+10	1	-1E+10	1	-1E+10	1	-1E+10	1	-1E+10	1	-1E+10	1
4902663	40	C	09/02/2024	06:11	-127.331	47.905	0	294.00	0	6.0130	0	33.9400	0	26.717	0	291.328	0	74.2	4	24.5	4	-1E+10	1	-1E+10	1	-1E+10	1	-1E+10	1	-1E+10	1	-1E+10	1
4902663	40	C	09/02/2024	06:11	-127.331	47.905	0	295.20	0	6.0110	0	33.9470	0	26.723	0	292.516	0	73.9	4	24.4	4	-1E+10	1	-1E+10	1	-1E+10	1	-1E+10	1	-1E+10	1	-1E+10	1
4902663	40	C	09/02/2024	06:11	-127.331	47.905	0	296.10	0	5.9700	0	33.9440	0	26.725	0	293.408	0	73.7	4	24.3	4	-1E+10	1	-1E+10	1	-1E+10	1	-1E+10	1	-1E+10	1	-1E+10	1
4902663	40	C	09/02/2024	06:11	-127.331	47.905	0	296.90	0	5.9570	0	33.9410	0	26.725	0	294.200	0	73.4	4	24.2	4	-1E+10	1	-1E+10	1	-1E+10	1	-1E+10	1	-1E+10	1	-1E+10	1
4902663	40	C	09/02/2024	06:11	-127.331	47.905	0	297.80	0	5.9480	0	33.9420	0	26.726	0	295.091	0	73.2	4	24.1	4	-1E+10	1	-1E+10	1	-1E+10	1	-1E+10	1	-1E+10	1	-1E+10	1
4902663	40	C	09/02/2024	06:11	-127.331	47.905	0	299.00	0	5.9430	0	33.9420	0	26.727	0	296.279	0	72.8	4	24.0	4	-1E+10	1	-1E+10	1	-1E+10	1	-1E+10	1	-1E+10	1	-1E+10	1
4902663	40	C	09/02/2024	06:11	-127.331	47.905	0	300.30	0	5.9370	0	33.9420	0	26.728	0	297.566	0	72.4	4	23.9	4	-1E+10	1	-1E+10	1	-1E+10	1	-1E+10	1	-1E+10	1	-1E+10	1
4902663	40	C	09/02/2024	06:11	-127.331	47.905	0	301.10	0	5.9090	0	33.9430	0	26.732	0	298.359	0	72.1	4	23.8	4	-1E+10	1	-1E+10	1	-1E+10	1	-1E+10	1	-1E+10	1	-1E+10	1
4902663	40	C	09/02/2024	06:11	-127.331	47.905	0	302.00	0	5.8890	0	33.9440	0	26.735	0	299.250	0	71.9	4	23.7	4	-1E+10	1	-1E+10	1	-1E+10	1	-1E+10	1	-1E+10	1	-1E+10	1
4902663	40	C	09/02/2024	06:11	-127.331	47.905	0	302.80	0	5.8810	0	33.9420	0	26.735	0	300.042	0	71.7	4	23.6	4	-1E+10	1	-1E+10	1	-1E+10	1	-1E+10	1	-1E+10	1	-1E+10	1
4902663	40	C	09/02/2024	06:11	-127.331	47.905	0	303.70	0	5.8620	0	33.9430	0	26.738	0	300.933	0	71.5	4	23.5	4	-1E+10	1	-1E+10	1	-1E+10	1	-1E+10	1	-1E+10	1	-1E+10	1
4902663	40	C	09/02/2024	06:11	-127.331	47.905	0	304.90	0	5.8490	0	33.9440	0	26.740	0	302.121	0	71.1	4	23.4	4	-1E+10	1	-1E+10	1	-1E+10	1	-1E+10	1	-1E+10	1	-1E+10	1
4902663	40	C	09/02/2024	06:11	-127.331	47.905	0	306.20	0	5.8520	0	33.9480	0	26.743	0	303.408	0	70.9	4	23.4	4	-1E+10	1	-1E+10	1	-1E+10	1	-1E+10	1	-1E+10	1	-1E+10	1
4902663	40	C	09/02/2024	06:11	-127.331	47.905	0	307.00	0	5.8470	0	33.9480	0	26.744	0	304.200	0	70.9	4	23.3	4	-1E+10	1	-1E+10	1	-1E+10	1	-1E+10	1	-1E+10	1	-1E+10	1
4902663	40	C	09/02/2024	06:11	-127.331	47.905	0	307.90	0	5.8440	0	33.9480	0	26.744	0	305.092	0	70.8	4	23.3	4	-1E+10	1	-1E+10	1	-1E+10	1	-1E+10	1	-1E+10	1	-1E+10	1
4902663	40	C	09/02/2024	06:11	-127.331	47.905	0	308.70	0	5.8360	0	33.9470	0	26.744	0	305.884	0	70.7	4	23.3	4	-1E+10	1	-1E+10	1	-1E+10	1	-1E+10	1	-1E+10	1	-1E+10	1
4902663	40	C	09/02/2024	06:11	-127.331	47.905	0	309.90	0	5.8160	0	33.9460	0	26.746	0	307.072	0	70.6	4	23.2	4	-1E+10	1	-1E+10	1	-1E+10	1	-1E+10	1	-1E+10	1	-1E+10	1
4902663	40	C	09/02/2024	06:11	-127.331	47.905	0	311.30	0	5.7900	0	33.9450	0	26.748	0	308.458	0	70.2	4	23.1	4	-1E+10	1	-1E+10	1	-1E+10	1	-1E+10	1	-1E+10	1	-1E+10	1
4902663	40	C	09/02/2024	06:11	-127.331	47.905	0	312.10	0	5.7680	0	33.9410	0	26.748	0	309.250	0	69.9	4	23.0	4	-1E+10	1	-1E+10	1	-1E+10	1	-1E+10	1	-1E+10	1	-1E+10	1
4902663	40	C	09/02/2024	06:11	-127.331	47.905	0	313.00	0	5.7490	0	33.9410	0	26.750	0	310.141	0	69.5	4	22.8	4	-1E+10	1	-1E+10	1	-1E+10	1	-1E+10	1	-1E+10	1	-1E+10	1
4902663	40	C	09/02/2024	06:11	-127.331	47.905	0	313.80	0	5.7340	0	33.9400	0	26.751	0	310.933	0	69.2	4	22.7	4	-1E+10	1	-1E+10	1	-1E+10	1	-1E+10	1	-1E+10	1	-1E+10	1
4902663	40	C	09/02/2024	06:11	-127.331	47.905	0	314.70	0	5.7260	0	33.9420	0	26.754	0	311.824	0	68.7	4	22.6	4	-1E+10	1	-1E+10	1	-1E+10	1	-1E+10	1	-1E+10	1	-1E+10	1
4902663	40	C	09/02/2024	06:11	-127.331	47.905	0	316.00	0	5.7050	0	33.9430	0	26.757	0	313.112	0	68.1	4	22.4	4	-1E+10	1	-1E+10	1	-1E+10	1	-1E+10	1	-1E+10	1	-1E+10	1
4902663	40	C	09/02/2024	06:11	-127.331	47.905	0	317.30	0	5.6780	0	33.9450	0	26.762	0	314.399	0	67.6	4	22.2	4	-1E+10	1	-1E+10	1	-1E+10	1	-1E+10	1	-1E+10	1	-1E+10	1
4902663	40	C	09/02/2024	06:11	-127.331	47.905	0	318.10	0	5.6810	0	33.9440	0	26.761	0	315.191	0	67.4	4	22.1	4	-1E+10	1	-1E+10	1	-1E+10	1	-1E+10	1	-1E+10	1	-1E+10	1
4902663	40	C	09/02/2024	06:11	-127.331	47.905	0	319.00	0	5.6860	0	33.9510	0	26.766	0	316.082	0	67.2	4	22.1	4	-1E+10	1	-1E+10	1	-1E+10	1	-1E+10	1	-1E+10	1	-1E+10	1
4902663	40	C	09/02/2024	06:11	-127.331	47.905	0	319.90	0	5.6560	0	33.9510	0	26.770	0	316.973	0	67.1	4	22.0	4	-1E+10	1	-1E+10	1	-1E+10	1	-1E+10	1	-1E+10	1	-1E+10	1
4902663	40	C	09/02/2024	06:11	-127.331	47.905	0	320.70	0	5.6580	0	33.9510	0	26.769	0	317.765	0	66.8	4	21.9	4	-1E+10	1	-1E+10	1	-1E+10	1	-1E+10	1	-1E+10	1	-1E+10	1
4902663	40	C	09/02/2024	06:11	-127.331	47.905	0	321.60	0	5.6260	0	33.9540	0	26.776	0	318.656	0	66.5	4	21.8	4	-1E+10	1	-1E+10	1	-1E+10	1	-1E+10	1	-1E+10	1	-1E+10	1
4902663	40	C	09/02/2024	06:11	-127.331	47.905	0	322.90	0	5.6340	0	33.9490	0	26.771	0	319.943	0	65.9	4	21.6	4	-1E+10	1	-1E+10	1	-1E+10	1	-1E+10	1	-1E+10	1	-1E+10	1
4902663	40	C	09/02/2024	06:11	-127.331	47.905	0	324.20	0	5.6370	0	33.9540	0	26.774	0	321.230	0	65.6	4	21.5	4	-1E+10	1	-1E+10	1	-1E+10	1	-1E+10	1	-1E+10	1	-1E+10	1
4902663	40	C	09/02/2024	06:11	-127.331	47.905	0	325.00	0	5.6300	0	33.9540	0	26.775	0	322.022	0	65.4	4	21.4	4	-1E+10	1	-1E+10	1	-1E+10	1	-1E+10	1	-1E+10	1	-1E+10	1
4902663	40	C	09/02/2024	06:11	-127.331	47.905	0	325.90	0	5.6280	0	33.9550	0	26.776	0	322.913	0	65.3	4	21.4	4	-1E+10	1	-1E+10	1	-1E+10	1	-1E+10	1	-1E+10	1	-1E+10	1
4902663	40	C	09/02/2024	06:11	-127.331	47.905	0	326.70	0	5.6240	0	33.9550	0	26.777	0	323.705	0	65.1	4	21.3	4	-1E+10	1	-1E+10	1	-1E+10	1	-1E+10	1	-1E+10	1	-1E+10	1
4902663	40	C	09/02/2024	06:11	-127.331	47.905	0	327.60	0	5.6160	0	33.9540	0	26.777	0	324.596	0	64.9	4	21.3	4	-1E+10	1	-1E+10	1	-1E+10	1	-1E+10	1	-1E+10	1	-1E+10	1
4902663	40	C	09/02/2024	06:11	-127.331	47.905	0	328.90	0	5.5910	0	33.9580	0	26.783	0	325.884	0	64.6	4	21.1	4	-1E+10	1	-1E+10	1	-1E+10	1	-1E+10	1	-1E+10	1	-1E+10	1
4902663	40	C	09/02/2024	06:11	-127.331	47.905	0	330.20	0	5.5670	0	33.9540	0	26.783	0	327.171	0	64.2	4	21.0	4	-1E+10	1	-1E+10	1	-1E+10	1	-1E+10	1	-1E+10	1	-1E+10	1
4902663	40	C	09/02/2024	06:11	-127.331	47.905	0	331.00	0	5.5970	0	33.9410	0	26.769	0	327.963	0	64.0	4	20.9	4	-1E+10	1	-1E+10	1	-1E+10	1	-1E+10	1	-1E+10	1	-1E+10	1
4902663	40	C	09/02/2024	06:11	-127.331	47.905	0	331.80	0	5.5940	0	33.9570	0	26.782	0	328.755	0	63.8	4	20.9	4	-1E+10	1	-1E+10	1	-1E+10	1	-1E+10	1	-1E+10	1	-1E+10	1
4902663	40	C	09/02/2024	06:11	-127.331	47.905	0	332.70	0	5.5520	0	33.9550	0	26.785	0	329.646	0	63.6	4	20.8	4	-1E+10	1	-1E+10	1	-1E+10	1	-1E+10	1	-1E+10	1	-1E+10	1
4902663	40	C	09/02/2024	06:11	-127.331	47.905	0	333.90	0	5.5370	0	33.9550	0	26.787	0	330.834	0	63.2	4	20.7	4	-1E+10	1	-1E+10	1	-1E+10	1	-1E+10	1	-1E+10	1	-1E+10	1
4902663	40	C	09/02/2024	06:11	-127.331	47.905	0	335.30	0	5.5300	0	33.9550	0	26.788	0	332.220	0	62.6	4	20.5	4	-1E+10	1	-1E+10	1	-1E+10	1	-1E+10	1	-1E+10	1	-1E+10	1
4902663	40	C	09/02/2024	06:11	-127.331	47.905	0	336.10	0	5.5290	0	33.9550	0	26.788	0	333.012	0	62.2	4	20.3	4	-1E+10	1	-1E+10	1	-1E+10	1	-1E+10	1	-1E+10	1	-1E+10	1
4902663	40	C	09/02/2024	06:11	-127.331	47.905	0	337.00	0	5.5330	0	33.9570	0	26.789	0	333.903	0	61.8	4	20.2	4	-1E+10	1	-1E+10	1	-1E+10	1	-1E+10	1	-1E+10	1	-1E+10	1
4902663	40	C	09/02/2024	06:11	-127.331	47.905	0	337.90	0	5.5590	0	33.9650	0	26.793	0	334.794	0	61.5	4	20.1	4	-1E+10	1	-1E+10	1	-1E+10	1	-1E+10	1	-1E+10	1	-1E+10	1
4902663	40	C	09/02/2024	06:11	-127.331	47.905	0	338.70	0	5.5590	0	33.9640	0	26.792	0	335.586	0	61.4	4	20.1	4	-1E+10	1	-1E+10	1	-1E+10	1	-1E+10	1	-1E+10	1	-1E+10	1
4902663	40	C	09/02/2024	06:11	-127.331	47.905	0	340.00	0	5.5390	0	33.9640	0	26.794	0	336.873	0	61.1	4	20.0	4	-1E+10	1	-1E+10	1	-1E+10	1	-1E+10	1	-1E+10	1	-1E+10	1
4902663	40	C	09/02/2024	06:11	-127.331	47.905	0	341.30	0	5.5220	0	33.9630	0	26.795	0	338.160	0	60.7	4	19.8	4	-1E+10	1	-1E+10	1	-1E+10	1	-1E+10	1	-1E+10	1	-1E+10	1
4902663	40	C	09/02/2024	06:11	-127.331	47.905	0	342.20	0	5.5200	0	33.9640	0	26.797	0	339.051	0	60.3	4	19.7	4	-1E+10	1	-1E+10	1	-1E+10	1	-1E+10	1	-1E+10	1	-1E+10	1
4902663	40	C	09/02/2024	06:11	-127.331	47.905	0	343.00	0	5.5220	0	33.9650	0	26.797	0	339.843	0	60.1	4	19.7	4	-1E+10	1	-1E+10	1	-1E+10	1	-1E+10	1	-1E+10	1	-1E+10	1
4902663	40	C	09/02/2024	06:11	-127.331	47.905	0	343.90	0	5.5140	0	33.9660	0	26.799	0	340.734	0	59.9	4	19.6	4	-1E+10	1	-1E+10	1	-1E+10	1	-1E+10	1	-1E+10	1	-1E+10	1
4902663	40	C	09/02/2024	06:11	-127.331	47.905	0	344.70	0	5.5120	0	33.9660	0	26.799	0	341.526	0	59.7	4	19.5	4	-1E+10	1	-1E+10	1	-1E+10	1	-1E+10	1	-1E+10	1	-1E+10	1
4902663	40	C	09/02/2024	06:11	-127.331	47.905	0	346.00	0	5.4910	0	33.9690	0	26.804	0	342.813	0	59.5	4	19.4	4	-1E+10	1	-1E+10	1	-1E+10	1	-1E+10	1	-1E+10	1	-1E+10	1
4902663	40	C	09/02/2024	06:11	-127.331	47.905	0	347.20	0	5.4690	0	33.9670	0	26.805	0	344.001	0	59.2	4	19.3	4	-1E+10	1	-1E+10	1	-1E+10	1	-1E+10	1	-1E+10	1	-1E+10	1
4902663	40	C	09/02/2024	06:11	-127.331	47.905	0	348.10	0	5.4520	0	33.9660	0	26.806	0	344.891	0	59.0	4	19.2	4	-1E+10	1	-1E+10	1	-1E+10	1	-1E+10	1	-1E+10	1	-1E+10	1
4902663	40	C	09/02/2024	06:11	-127.331	47.905	0	349.00	0	5.4330	0	33.9680	0	26.810	0	345.782	0	58.8	4	19.2	4	-1E+10	1	-1E+10	1	-1E+10	1	-1E+10	1	-1E+10	1	-1E+10	1
4902663	40	C	09/02/2024	06:11	-127.331	47.905	0	349.80	0	5.4130	0	33.9610	0	26.807	0	346.574	0	58.5	4	19.1	4	-1E+10	1	-1E+10	1	-1E+10	1	-1E+10	1	-1E+10	1	-1E+10	1
4902663	40	C	09/02/2024	06:11	-127.331	47.905	0	352.70	0	5.3740	0	33.9650	0	26.815	0	349.445	0	57.0	4	18.6	4	-1E+10	1	-1E+10	1	-1E+10	1	-1E+10	1	-1E+10	1	-1E+10	1
4902663	40	C	09/02/2024	06:11	-127.331	47.905	0	357.80	0	5.3750	0	33.9760	0	26.823	0	354.494	0	54.3	4	17.7	4	-1E+10	1	-1E+10	1	-1E+10	1	-1E+10	1	-1E+10	1	-1E+10	1
4902663	40	C	09/02/2024	06:11	-127.331	47.905	0	363.00	0	5.3690	0	33.9850	0	26.831	0	359.641	0	52.9	4	17.2	4	-1E+10	1	-1E+10	1	-1E+10	1	-1E+10	1	-1E+10	1	-1E+10	1
4902663	40	C	09/02/2024	06:11	-127.331	47.905	0	367.80	0	5.3300	0	33.9870	0	26.837	0	364.393	0	51.9	4	16.9	4	-1E+10	1	-1E+10	1	-1E+10	1	-1E+10	1	-1E+10	1	-1E+10	1
4902663	40	C	09/02/2024	06:11	-127.331	47.905	0	372.70	0	5.2800	0	33.9880	0	26.844	0	369.243	0	51.3	4	16.7	4	-1E+10	1	-1E+10	1	-1E+10	1	-1E+10	1	-1E+10	1	-1E+10	1
4902663	40	C	09/02/2024	06:11	-127.331	47.905	0	377.70	0	5.2100	0	33.9850	0	26.850	0	374.192	0	50.4	4	16.3	4	-1E+10	1	-1E+10	1	-1E+10	1	-1E+10	1	-1E+10	1	-1E+10	1
4902663	40	C	09/02/2024	06:11	-127.331	47.905	0	382.80	0	5.1610	0	33.9870	0	26.857	0	379.240	0	48.4	4	15.7	4	-1E+10	1	-1E+10	1	-1E+10	1	-1E+10	1	-1E+10	1	-1E+10	1
4902663	40	C	09/02/2024	06:11	-127.331	47.905	0	388.10	0	5.1810	0	33.9970	0	26.863	0	384.486	0	46.0	4	14.9	4	-1E+10	1	-1E+10	1	-1E+10	1	-1E+10	1	-1E+10	1	-1E+10	1
4902663	40	C	09/02/2024	06:11	-127.331	47.905	0	393.10	0	5.1850	0	34.0070	0	26.870	0	389.434	0	44.4	4	14.4	4	-1E+10	1	-1E+10	1	-1E+10	1	-1E+10	1	-1E+10	1	-1E+10	1
4902663	40	C	09/02/2024	06:11	-127.331	47.905	0	398.10	0	5.1920	0	34.0160	0	26.877	0	394.383	0	43.2	4	14.0	4	-1E+10	1	-1E+10	1	-1E+10	1	-1E+10	1	-1E+10	1	-1E+10	1
4902663	40	C	09/02/2024	06:11	-127.331	47.905	0	403.10	0	5.1950	0	34.0220	0	26.881	0	399.332	0	42.5	4	13.8	4	-1E+10	1	-1E+10	1	-1E+10	1	-1E+10	1	-1E+10	1	-1E+10	1
4902663	40	C	09/02/2024	06:11	-127.331	47.905	0	408.20	0	5.1690	0	34.0230	0	26.885	0	404.379	0	41.8	4	13.6	4	-1E+10	1	-1E+10	1	-1E+10	1	-1E+10	1	-1E+10	1	-1E+10	1
4902663	40	C	09/02/2024	06:11	-127.331	47.905	0	413.30	0	5.1600	0	34.0250	0	26.888	0	409.426	0	40.9	4	13.3	4	-1E+10	1	-1E+10	1	-1E+10	1	-1E+10	1	-1E+10	1	-1E+10	1
4902663	40	C	09/02/2024	06:11	-127.331	47.905	0	417.90	0	5.1420	0	34.0280	0	26.892	0	413.978	0	40.1	4	13.0	4	-1E+10	1	-1E+10	1	-1E+10	1	-1E+10	1	-1E+10	1	-1E+10	1
4902663	40	C	09/02/2024	06:11	-127.331	47.905	0	422.60	0	5.1000	0	34.0290	0	26.898	0	418.630	0	39.0	4	12.6	4	-1E+10	1	-1E+10	1	-1E+10	1	-1E+10	1	-1E+10	1	-1E+10	1
4902663	40	C	09/02/2024	06:11	-127.331	47.905	0	427.80	0	5.0830	0	34.0360	0	26.905	0	423.775	0	37.3	4	12.1	4	-1E+10	1	-1E+10	1	-1E+10	1	-1E+10	1	-1E+10	1	-1E+10	1
4902663	40	C	09/02/2024	06:11	-127.331	47.905	0	432.90	0	5.1410	0	34.0520	0	26.912	0	428.822	0	36.5	4	11.8	4	-1E+10	1	-1E+10	1	-1E+10	1	-1E+10	1	-1E+10	1	-1E+10	1
4902663	40	C	09/02/2024	06:11	-127.331	47.905	0	438.10	0	5.0410	0	34.0450	0	26.918	0	433.968	0	35.9	4	11.6	4	-1E+10	1	-1E+10	1	-1E+10	1	-1E+10	1	-1E+10	1	-1E+10	1
4902663	40	C	09/02/2024	06:11	-127.331	47.905	0	443.20	0	5.0430	0	34.0500	0	26.921	0	439.014	0	34.8	4	11.3	4	-1E+10	1	-1E+10	1	-1E+10	1	-1E+10	1	-1E+10	1	-1E+10	1
4902663	40	C	09/02/2024	06:11	-127.331	47.905	0	448.30	0	4.9850	0	34.0490	0	26.927	0	444.061	0	33.8	4	10.9	4	-1E+10	1	-1E+10	1	-1E+10	1	-1E+10	1	-1E+10	1	-1E+10	1
4902663	40	C	09/02/2024	06:11	-127.331	47.905	0	453.00	0	4.9560	0	34.0550	0	26.935	0	448.711	0	32.5	4	10.5	4	-1E+10	1	-1E+10	1	-1E+10	1	-1E+10	1	-1E+10	1	-1E+10	1
4902663	40	C	09/02/2024	06:11	-127.331	47.905	0	457.70	0	4.9620	0	34.0630	0	26.941	0	453.362	0	31.3	4	10.1	4	-1E+10	1	-1E+10	1	-1E+10	1	-1E+10	1	-1E+10	1	-1E+10	1
4902663	40	C	09/02/2024	06:11	-127.331	47.905	0	462.90	0	4.9700	0	34.0710	0	26.946	0	458.506	0	30.5	4	9.9	4	-1E+10	1	-1E+10	1	-1E+10	1	-1E+10	1	-1E+10	1	-1E+10	1
4902663	40	C	09/02/2024	06:11	-127.331	47.905	0	468.10	0	4.9430	0	34.0730	0	26.951	0	463.651	0	29.7	4	9.6	4	-1E+10	1	-1E+10	1	-1E+10	1	-1E+10	1	-1E+10	1	-1E+10	1
4902663	40	C	09/02/2024	06:11	-127.331	47.905	0	473.30	0	4.9400	0	34.0780	0	26.955	0	468.796	0	28.7	4	9.3	4	-1E+10	1	-1E+10	1	-1E+10	1	-1E+10	1	-1E+10	1	-1E+10	1
4902663	40	C	09/02/2024	06:11	-127.331	47.905	0	478.00	0	4.9450	0	34.0830	0	26.959	0	473.446	0	28.1	4	9.1	4	-1E+10	1	-1E+10	1	-1E+10	1	-1E+10	1	-1E+10	1	-1E+10	1
4902663	40	C	09/02/2024	06:11	-127.331	47.905	0	482.60	0	4.9030	0	34.0830	0	26.964	0	477.997	0	27.6	4	8.9	4	-1E+10	1	-1E+10	1	-1E+10	1	-1E+10	1	-1E+10	1	-1E+10	1
4902663	40	C	09/02/2024	06:11	-127.331	47.905	0	487.80	0	4.8530	0	34.0850	0	26.971	0	483.141	0	26.3	4	8.5	4	-1E+10	1	-1E+10	1	-1E+10	1	-1E+10	1	-1E+10	1	-1E+10	1
4902663	40	C	09/02/2024	06:11	-127.331	47.905	0	493.00	0	4.8710	0	34.0950	0	26.977	0	488.285	0	25.2	4	8.1	4	-1E+10	1	-1E+10	1	-1E+10	1	-1E+10	1	-1E+10	1	-1E+10	1
4902663	40	C	09/02/2024	06:11	-127.331	47.905	0	498.20	0	4.8690	0	34.1010	0	26.982	0	493.430	0	24.4	4	7.9	4	-1E+10	1	-1E+10	1	-1E+10	1	-1E+10	1	-1E+10	1	-1E+10	1
4902663	40	C	09/02/2024	06:11	-127.331	47.905	0	502.90	0	4.8460	0	34.1060	0	26.988	0	498.079	0	23.8	4	7.7	4	-1E+10	1	-1E+10	1	-1E+10	1	-1E+10	1	-1E+10	1	-1E+10	1
4902663	40	C	09/02/2024	06:11	-127.331	47.905	0	507.60	0	4.8130	0	34.1090	0	26.995	0	502.728	0	23.5	4	7.6	4	-1E+10	1	-1E+10	1	-1E+10	1	-1E+10	1	-1E+10	1	-1E+10	1
4902663	40	C	09/02/2024	06:11	-127.331	47.905	0	512.70	0	4.7340	0	34.1050	0	27.000	0	507.773	0	22.8	4	7.3	4	-1E+10	1	-1E+10	1	-1E+10	1	-1E+10	1	-1E+10	1	-1E+10	1
4902663	40	C	09/02/2024	06:11	-127.331	47.905	0	517.80	0	4.7470	0	34.1160	0	27.008	0	512.818	0	22.1	4	7.1	4	-1E+10	1	-1E+10	1	-1E+10	1	-1E+10	1	-1E+10	1	-1E+10	1
4902663	40	C	09/02/2024	06:11	-127.331	47.905	0	522.70	0	4.7100	0	34.1150	0	27.011	0	517.664	0	21.7	4	7.0	4	-1E+10	1	-1E+10	1	-1E+10	1	-1E+10	1	-1E+10	1	-1E+10	1
4902663	40	C	09/02/2024	06:11	-127.331	47.905	0	527.90	0	4.6580	0	34.1160	0	27.017	0	522.808	0	21.2	4	6.8	4	-1E+10	1	-1E+10	1	-1E+10	1	-1E+10	1	-1E+10	1	-1E+10	1
4902663	40	C	09/02/2024	06:11	-127.331	47.905	0	533.00	0	4.6290	0	34.1180	0	27.022	0	527.852	0	20.6	4	6.6	4	-1E+10	1	-1E+10	1	-1E+10	1	-1E+10	1	-1E+10	1	-1E+10	1
4902663	40	C	09/02/2024	06:11	-127.331	47.905	0	538.30	0	4.6160	0	34.1220	0	27.027	0	533.094	0	19.6	4	6.3	4	-1E+10	1	-1E+10	1	-1E+10	1	-1E+10	1	-1E+10	1	-1E+10	1
4902663	40	C	09/02/2024	06:11	-127.331	47.905	0	543.10	0	4.6200	0	34.1300	0	27.033	0	537.842	0	18.6	4	5.9	4	-1E+10	1	-1E+10	1	-1E+10	1	-1E+10	1	-1E+10	1	-1E+10	1
4902663	40	C	09/02/2024	06:11	-127.331	47.905	0	548.10	0	4.6060	0	34.1350	0	27.038	0	542.787	0	17.9	4	5.7	4	-1E+10	1	-1E+10	1	-1E+10	1	-1E+10	1	-1E+10	1	-1E+10	1
4902663	40	C	09/02/2024	06:11	-127.331	47.905	0	553.00	0	4.6210	0	34.1460	0	27.046	0	547.633	0	16.4	4	5.3	4	-1E+10	1	-1E+10	1	-1E+10	1	-1E+10	1	-1E+10	1	-1E+10	1
4902663	40	C	09/02/2024	06:11	-127.331	47.905	0	558.00	0	4.6600	0	34.1590	0	27.052	0	552.578	0	15.7	4	5.0	4	-1E+10	1	-1E+10	1	-1E+10	1	-1E+10	1	-1E+10	1	-1E+10	1
4902663	40	C	09/02/2024	06:11	-127.331	47.905	0	563.00	0	4.6570	0	34.1660	0	27.058	0	557.522	0	15.2	4	4.9	4	-1E+10	1	-1E+10	1	-1E+10	1	-1E+10	1	-1E+10	1	-1E+10	1
4902663	40	C	09/02/2024	06:11	-127.331	47.905	0	567.80	0	4.6490	0	34.1700	0	27.062	0	562.269	0	14.9	4	4.8	4	-1E+10	1	-1E+10	1	-1E+10	1	-1E+10	1	-1E+10	1	-1E+10	1
4902663	40	C	09/02/2024	06:11	-127.331	47.905	0	572.60	0	4.6160	0	34.1710	0	27.066	0	567.016	0	14.8	4	4.7	4	-1E+10	1	-1E+10	1	-1E+10	1	-1E+10	1	-1E+10	1	-1E+10	1
4902663	40	C	09/02/2024	06:11	-127.331	47.905	0	578.00	0	4.5800	0	34.1710	0	27.070	0	572.356	0	14.5	4	4.7	4	-1E+10	1	-1E+10	1	-1E+10	1	-1E+10	1	-1E+10	1	-1E+10	1
4902663	40	C	09/02/2024	06:11	-127.331	47.905	0	583.10	0	4.5670	0	34.1730	0	27.073	0	577.399	0	14.2	4	4.6	4	-1E+10	1	-1E+10	1	-1E+10	1	-1E+10	1	-1E+10	1	-1E+10	1
4902663	40	C	09/02/2024	06:11	-127.331	47.905	0	587.80	0	4.5510	0	34.1760	0	27.077	0	582.046	0	13.9	4	4.4	4	-1E+10	1	-1E+10	1	-1E+10	1	-1E+10	1	-1E+10	1	-1E+10	1
4902663	40	C	09/02/2024	06:11	-127.331	47.905	0	592.60	0	4.5410	0	34.1790	0	27.081	0	586.792	0	13.6	4	4.4	4	-1E+10	1	-1E+10	1	-1E+10	1	-1E+10	1	-1E+10	1	-1E+10	1
4902663	40	C	09/02/2024	06:11	-127.331	47.905	0	597.80	0	4.5440	0	34.1830	0	27.084	0	591.934	0	13.4	4	4.3	4	-1E+10	1	-1E+10	1	-1E+10	1	-1E+10	1	-1E+10	1	-1E+10	1
4902663	40	C	09/02/2024	06:11	-127.331	47.905	0	603.20	0	4.5190	0	34.1840	0	27.087	0	597.273	0	13.2	4	4.2	4	-1E+10	1	-1E+10	1	-1E+10	1	-1E+10	1	-1E+10	1	-1E+10	1
4902663	40	C	09/02/2024	06:11	-127.331	47.905	0	608.10	0	4.4740	0	34.1830	0	27.091	0	602.118	0	12.8	4	4.1	4	-1E+10	1	-1E+10	1	-1E+10	1	-1E+10	1	-1E+10	1	-1E+10	1
4902663	40	C	09/02/2024	06:11	-127.331	47.905	0	613.10	0	4.4800	0	34.1900	0	27.096	0	607.062	0	12.4	4	3.9	4	-1E+10	1	-1E+10	1	-1E+10	1	-1E+10	1	-1E+10	1	-1E+10	1
4902663	40	C	09/02/2024	06:11	-127.331	47.905	0	618.00	0	4.4870	0	34.1940	0	27.099	0	611.906	0	12.0	4	3.8	4	-1E+10	1	-1E+10	1	-1E+10	1	-1E+10	1	-1E+10	1	-1E+10	1
4902663	40	C	09/02/2024	06:11	-127.331	47.905	0	623.10	0	4.4790	0	34.1990	0	27.104	0	616.948	0	11.8	4	3.8	4	-1E+10	1	-1E+10	1	-1E+10	1	-1E+10	1	-1E+10	1	-1E+10	1
4902663	40	C	09/02/2024	06:11	-127.331	47.905	0	628.10	0	4.4510	0	34.2010	0	27.108	0	621.892	0	11.6	4	3.7	4	-1E+10	1	-1E+10	1	-1E+10	1	-1E+10	1	-1E+10	1	-1E+10	1
4902663	40	C	09/02/2024	06:11	-127.331	47.905	0	633.20	0	4.4220	0	34.2030	0	27.113	0	626.934	0	11.4	4	3.6	4	-1E+10	1	-1E+10	1	-1E+10	1	-1E+10	1	-1E+10	1	-1E+10	1
4902663	40	C	09/02/2024	06:11	-127.331	47.905	0	638.30	0	4.4090	0	34.2050	0	27.116	0	631.975	0	11.3	4	3.6	4	-1E+10	1	-1E+10	1	-1E+10	1	-1E+10	1	-1E+10	1	-1E+10	1
4902663	40	C	09/02/2024	06:11	-127.331	47.905	0	642.90	0	4.3870	0	34.2060	0	27.119	0	636.523	0	11.1	4	3.6	4	-1E+10	1	-1E+10	1	-1E+10	1	-1E+10	1	-1E+10	1	-1E+10	1
4902663	40	C	09/02/2024	06:11	-127.331	47.905	0	647.50	0	4.3690	0	34.2070	0	27.122	0	641.070	0	10.9	4	3.5	4	-1E+10	1	-1E+10	1	-1E+10	1	-1E+10	1	-1E+10	1	-1E+10	1
4902663	40	C	09/02/2024	06:11	-127.331	47.905	0	652.60	0	4.3830	0	34.2120	0	27.124	0	646.111	0	10.6	4	3.4	4	-1E+10	1	-1E+10	1	-1E+10	1	-1E+10	1	-1E+10	1	-1E+10	1
4902663	40	C	09/02/2024	06:11	-127.331	47.905	0	657.60	0	4.3770	0	34.2150	0	27.127	0	651.054	0	10.3	4	3.3	4	-1E+10	1	-1E+10	1	-1E+10	1	-1E+10	1	-1E+10	1	-1E+10	1
4902663	40	C	09/02/2024	06:11	-127.331	47.905	0	662.80	0	4.3560	0	34.2200	0	27.134	0	656.194	0	10.1	4	3.2	4	-1E+10	1	-1E+10	1	-1E+10	1	-1E+10	1	-1E+10	1	-1E+10	1
4902663	40	C	09/02/2024	06:11	-127.331	47.905	0	668.00	0	4.3460	0	34.2220	0	27.136	0	661.334	0	10.0	4	3.2	4	-1E+10	1	-1E+10	1	-1E+10	1	-1E+10	1	-1E+10	1	-1E+10	1
4902663	40	C	09/02/2024	06:11	-127.331	47.905	0	673.30	0	4.3350	0	34.2240	0	27.139	0	666.573	0	9.9	4	3.1	4	-1E+10	1	-1E+10	1	-1E+10	1	-1E+10	1	-1E+10	1	-1E+10	1
4902663	40	C	09/02/2024	06:11	-127.331	47.905	0	678.00	0	4.3260	0	34.2260	0	27.142	0	671.218	0	9.7	4	3.1	4	-1E+10	1	-1E+10	1	-1E+10	1	-1E+10	1	-1E+10	1	-1E+10	1
4902663	40	C	09/02/2024	06:11	-127.331	47.905	0	682.70	0	4.3150	0	34.2290	0	27.145	0	675.863	0	9.5	4	3.0	4	-1E+10	1	-1E+10	1	-1E+10	1	-1E+10	1	-1E+10	1	-1E+10	1
4902663	40	C	09/02/2024	06:11	-127.331	47.905	0	687.90	0	4.3040	0	34.2320	0	27.149	0	681.003	0	9.4	4	3.0	4	-1E+10	1	-1E+10	1	-1E+10	1	-1E+10	1	-1E+10	1	-1E+10	1
4902663	40	C	09/02/2024	06:11	-127.331	47.905	0	693.20	0	4.2930	0	34.2340	0	27.152	0	686.241	0	9.2	4	2.9	4	-1E+10	1	-1E+10	1	-1E+10	1	-1E+10	1	-1E+10	1	-1E+10	1
4902663	40	C	09/02/2024	06:11	-127.331	47.905	0	697.90	0	4.2690	0	34.2370	0	27.157	0	690.886	0	9.1	4	2.9	4	-1E+10	1	-1E+10	1	-1E+10	1	-1E+10	1	-1E+10	1	-1E+10	1
4902663	40	C	09/02/2024	06:11	-127.331	47.905	0	702.60	0	4.2530	0	34.2400	0	27.161	0	695.531	0	9.0	4	2.9	4	-1E+10	1	-1E+10	1	-1E+10	1	-1E+10	1	-1E+10	1	-1E+10	1
4902663	40	C	09/02/2024	06:11	-127.331	47.905	0	707.80	0	4.2510	0	34.2420	0	27.163	0	700.670	0	8.8	4	2.8	4	-1E+10	1	-1E+10	1	-1E+10	1	-1E+10	1	-1E+10	1	-1E+10	1
4902663	40	C	09/02/2024	06:11	-127.331	47.905	0	713.10	0	4.2430	0	34.2460	0	27.167	0	705.907	0	8.7	4	2.8	4	-1E+10	1	-1E+10	1	-1E+10	1	-1E+10	1	-1E+10	1	-1E+10	1
4902663	40	C	09/02/2024	06:11	-127.331	47.905	0	718.30	0	4.2320	0	34.2480	0	27.170	0	711.046	0	8.5	4	2.7	4	-1E+10	1	-1E+10	1	-1E+10	1	-1E+10	1	-1E+10	1	-1E+10	1
4902663	40	C	09/02/2024	06:11	-127.331	47.905	0	723.00	0	4.2250	0	34.2530	0	27.174	0	715.691	0	8.4	4	2.7	4	-1E+10	1	-1E+10	1	-1E+10	1	-1E+10	1	-1E+10	1	-1E+10	1
4902663	40	C	09/02/2024	06:11	-127.331	47.905	0	727.80	0	4.2170	0	34.2550	0	27.177	0	720.434	0	8.3	4	2.6	4	-1E+10	1	-1E+10	1	-1E+10	1	-1E+10	1	-1E+10	1	-1E+10	1
4902663	40	C	09/02/2024	06:11	-127.331	47.905	0	733.00	0	4.2020	0	34.2570	0	27.180	0	725.572	0	8.2	4	2.6	4	-1E+10	1	-1E+10	1	-1E+10	1	-1E+10	1	-1E+10	1	-1E+10	1
4902663	40	C	09/02/2024	06:11	-127.331	47.905	0	738.30	0	4.1800	0	34.2600	0	27.185	0	730.809	0	8.1	4	2.6	4	-1E+10	1	-1E+10	1	-1E+10	1	-1E+10	1	-1E+10	1	-1E+10	1
4902663	40	C	09/02/2024	06:11	-127.331	47.905	0	743.00	0	4.1620	0	34.2620	0	27.188	0	735.453	0	8.1	4	2.6	4	-1E+10	1	-1E+10	1	-1E+10	1	-1E+10	1	-1E+10	1	-1E+10	1
4902663	40	C	09/02/2024	06:11	-127.331	47.905	0	747.60	0	4.1430	0	34.2630	0	27.191	0	739.998	0	8.0	4	2.5	4	-1E+10	1	-1E+10	1	-1E+10	1	-1E+10	1	-1E+10	1	-1E+10	1
4902663	40	C	09/02/2024	06:11	-127.331	47.905	0	752.90	0	4.1210	0	34.2670	0	27.196	0	745.235	0	7.8	4	2.5	4	-1E+10	1	-1E+10	1	-1E+10	1	-1E+10	1	-1E+10	1	-1E+10	1
4902663	40	C	09/02/2024	06:11	-127.331	47.905	0	758.20	0	4.1100	0	34.2710	0	27.201	0	750.472	0	7.7	4	2.4	4	-1E+10	1	-1E+10	1	-1E+10	1	-1E+10	1	-1E+10	1	-1E+10	1
4902663	40	C	09/02/2024	06:11	-127.331	47.905	0	762.90	0	4.1000	0	34.2750	0	27.205	0	755.115	0	7.6	4	2.4	4	-1E+10	1	-1E+10	1	-1E+10	1	-1E+10	1	-1E+10	1	-1E+10	1
4902663	40	C	09/02/2024	06:11	-127.331	47.905	0	767.60	0	4.1040	0	34.2780	0	27.207	0	759.759	0	7.5	4	2.4	4	-1E+10	1	-1E+10	1	-1E+10	1	-1E+10	1	-1E+10	1	-1E+10	1
4902663	40	C	09/02/2024	06:11	-127.331	47.905	0	772.80	0	4.0950	0	34.2810	0	27.210	0	764.896	0	7.4	4	2.4	4	-1E+10	1	-1E+10	1	-1E+10	1	-1E+10	1	-1E+10	1	-1E+10	1
4902663	40	C	09/02/2024	06:11	-127.331	47.905	0	778.20	0	4.0740	0	34.2840	0	27.215	0	770.231	0	7.4	4	2.4	4	-1E+10	1	-1E+10	1	-1E+10	1	-1E+10	1	-1E+10	1	-1E+10	1
4902663	40	C	09/02/2024	06:11	-127.331	47.905	0	783.30	0	4.0520	0	34.2850	0	27.218	0	775.269	0	7.4	4	2.3	4	-1E+10	1	-1E+10	1	-1E+10	1	-1E+10	1	-1E+10	1	-1E+10	1
4902663	40	C	09/02/2024	06:11	-127.331	47.905	0	788.00	0	4.0360	0	34.2860	0	27.221	0	779.912	0	7.4	4	2.3	4	-1E+10	1	-1E+10	1	-1E+10	1	-1E+10	1	-1E+10	1	-1E+10	1
4902663	40	C	09/02/2024	06:11	-127.331	47.905	0	792.60	0	4.0180	0	34.2860	0	27.222	0	784.456	0	7.4	4	2.3	4	-1E+10	1	-1E+10	1	-1E+10	1	-1E+10	1	-1E+10	1	-1E+10	1
4902663	40	C	09/02/2024	06:11	-127.331	47.905	0	797.80	0	4.0070	0	34.2900	0	27.227	0	789.593	0	7.3	4	2.3	4	-1E+10	1	-1E+10	1	-1E+10	1	-1E+10	1	-1E+10	1	-1E+10	1
4902663	40	C	09/02/2024	06:11	-127.331	47.905	0	803.00	0	3.9940	0	34.2930	0	27.231	0	794.730	0	7.2	4	2.3	4	-1E+10	1	-1E+10	1	-1E+10	1	-1E+10	1	-1E+10	1	-1E+10	1
4902663	40	C	09/02/2024	06:11	-127.331	47.905	0	808.10	0	3.9800	0	34.2950	0	27.234	0	799.767	0	7.2	4	2.3	4	-1E+10	1	-1E+10	1	-1E+10	1	-1E+10	1	-1E+10	1	-1E+10	1
4902663	40	C	09/02/2024	06:11	-127.331	47.905	0	813.20	0	3.9760	0	34.2980	0	27.236	0	804.805	0	7.1	4	2.2	4	-1E+10	1	-1E+10	1	-1E+10	1	-1E+10	1	-1E+10	1	-1E+10	1
4902663	40	C	09/02/2024	06:11	-127.331	47.905	0	818.30	0	3.9560	0	34.3020	0	27.242	0	809.842	0	7.0	4	2.2	4	-1E+10	1	-1E+10	1	-1E+10	1	-1E+10	1	-1E+10	1	-1E+10	1
4902663	40	C	09/02/2024	06:11	-127.331	47.905	0	823.40	0	3.9500	0	34.3060	0	27.246	0	814.880	0	6.9	4	2.2	4	-1E+10	1	-1E+10	1	-1E+10	1	-1E+10	1	-1E+10	1	-1E+10	1
4902663	40	C	09/02/2024	06:11	-127.331	47.905	0	828.10	0	3.9450	0	34.3080	0	27.248	0	819.522	0	6.9	4	2.2	4	-1E+10	1	-1E+10	1	-1E+10	1	-1E+10	1	-1E+10	1	-1E+10	1
4902663	40	C	09/02/2024	06:11	-127.331	47.905	0	832.90	0	3.9240	0	34.3110	0	27.252	0	824.263	0	6.9	4	2.2	4	-1E+10	1	-1E+10	1	-1E+10	1	-1E+10	1	-1E+10	1	-1E+10	1
4902663	40	C	09/02/2024	06:11	-127.331	47.905	0	837.70	0	3.8940	0	34.3140	0	27.258	0	829.003	0	6.9	4	2.2	4	-1E+10	1	-1E+10	1	-1E+10	1	-1E+10	1	-1E+10	1	-1E+10	1
4902663	40	C	09/02/2024	06:11	-127.331	47.905	0	842.50	0	3.8900	0	34.3170	0	27.260	0	833.744	0	6.8	4	2.2	4	-1E+10	1	-1E+10	1	-1E+10	1	-1E+10	1	-1E+10	1	-1E+10	1
4902663	40	C	09/02/2024	06:11	-127.331	47.905	0	847.60	0	3.8890	0	34.3210	0	27.264	0	838.781	0	6.8	4	2.2	4	-1E+10	1	-1E+10	1	-1E+10	1	-1E+10	1	-1E+10	1	-1E+10	1
4902663	40	C	09/02/2024	06:11	-127.331	47.905	0	852.70	0	3.8740	0	34.3230	0	27.267	0	843.817	0	6.8	4	2.2	4	-1E+10	1	-1E+10	1	-1E+10	1	-1E+10	1	-1E+10	1	-1E+10	1
4902663	40	C	09/02/2024	06:11	-127.331	47.905	0	857.90	0	3.8580	0	34.3250	0	27.270	0	848.953	0	6.9	4	2.2	4	-1E+10	1	-1E+10	1	-1E+10	1	-1E+10	1	-1E+10	1	-1E+10	1
4902663	40	C	09/02/2024	06:11	-127.331	47.905	0	863.20	0	3.8270	0	34.3260	0	27.274	0	854.187	0	6.9	4	2.2	4	-1E+10	1	-1E+10	1	-1E+10	1	-1E+10	1	-1E+10	1	-1E+10	1
4902663	40	C	09/02/2024	06:11	-127.331	47.905	0	868.10	0	3.7970	0	34.3270	0	27.278	0	859.025	0	6.9	4	2.2	4	-1E+10	1	-1E+10	1	-1E+10	1	-1E+10	1	-1E+10	1	-1E+10	1
4902663	40	C	09/02/2024	06:11	-127.331	47.905	0	872.60	0	3.7850	0	34.3300	0	27.282	0	863.469	0	6.9	4	2.2	4	-1E+10	1	-1E+10	1	-1E+10	1	-1E+10	1	-1E+10	1	-1E+10	1
4902663	40	C	09/02/2024	06:11	-127.331	47.905	0	877.70	0	3.7800	0	34.3300	0	27.282	0	868.505	0	6.9	4	2.2	4	-1E+10	1	-1E+10	1	-1E+10	1	-1E+10	1	-1E+10	1	-1E+10	1
4902663	40	C	09/02/2024	06:11	-127.331	47.905	0	882.90	0	3.7720	0	34.3330	0	27.285	0	873.640	0	6.9	4	2.2	4	-1E+10	1	-1E+10	1	-1E+10	1	-1E+10	1	-1E+10	1	-1E+10	1
4902663	40	C	09/02/2024	06:11	-127.331	47.905	0	887.60	0	3.7630	0	34.3350	0	27.288	0	878.281	0	6.9	4	2.2	4	-1E+10	1	-1E+10	1	-1E+10	1	-1E+10	1	-1E+10	1	-1E+10	1
4902663	40	C	09/02/2024	06:11	-127.331	47.905	0	892.90	0	3.7560	0	34.3380	0	27.291	0	883.514	0	6.9	4	2.2	4	-1E+10	1	-1E+10	1	-1E+10	1	-1E+10	1	-1E+10	1	-1E+10	1
4902663	40	C	09/02/2024	06:11	-127.331	47.905	0	898.20	0	3.7460	0	34.3420	0	27.295	0	888.747	0	6.9	4	2.2	4	-1E+10	1	-1E+10	1	-1E+10	1	-1E+10	1	-1E+10	1	-1E+10	1
4902663	40	C	09/02/2024	06:11	-127.331	47.905	0	903.00	0	3.7350	0	34.3440	0	27.298	0	893.486	0	7.0	4	2.2	4	-1E+10	1	-1E+10	1	-1E+10	1	-1E+10	1	-1E+10	1	-1E+10	1
4902663	40	C	09/02/2024	06:11	-127.331	47.905	0	907.90	0	3.7300	0	34.3460	0	27.300	0	898.324	0	7.0	4	2.2	4	-1E+10	1	-1E+10	1	-1E+10	1	-1E+10	1	-1E+10	1	-1E+10	1
4902663	40	C	09/02/2024	06:11	-127.331	47.905	0	912.80	0	3.7230	0	34.3500	0	27.304	0	903.162	0	7.0	4	2.2	4	-1E+10	1	-1E+10	1	-1E+10	1	-1E+10	1	-1E+10	1	-1E+10	1
4902663	40	C	09/02/2024	06:11	-127.331	47.905	0	917.70	0	3.7190	0	34.3510	0	27.305	0	907.999	0	7.0	4	2.2	4	-1E+10	1	-1E+10	1	-1E+10	1	-1E+10	1	-1E+10	1	-1E+10	1
4902663	40	C	09/02/2024	06:11	-127.331	47.905	0	922.70	0	3.7080	0	34.3530	0	27.308	0	912.936	0	7.1	4	2.2	4	-1E+10	1	-1E+10	1	-1E+10	1	-1E+10	1	-1E+10	1	-1E+10	1
4902663	40	C	09/02/2024	06:11	-127.331	47.905	0	927.70	0	3.6830	0	34.3550	0	27.312	0	917.872	0	7.1	4	2.2	4	-1E+10	1	-1E+10	1	-1E+10	1	-1E+10	1	-1E+10	1	-1E+10	1
4902663	40	C	09/02/2024	06:11	-127.331	47.905	0	932.70	0	3.6720	0	34.3560	0	27.314	0	922.808	0	7.2	4	2.2	4	-1E+10	1	-1E+10	1	-1E+10	1	-1E+10	1	-1E+10	1	-1E+10	1
4902663	40	C	09/02/2024	06:11	-127.331	47.905	0	937.70	0	3.6630	0	34.3590	0	27.317	0	927.744	0	7.2	4	2.3	4	-1E+10	1	-1E+10	1	-1E+10	1	-1E+10	1	-1E+10	1	-1E+10	1
4902663	40	C	09/02/2024	06:11	-127.331	47.905	0	942.70	0	3.6540	0	34.3610	0	27.320	0	932.679	0	7.3	4	2.3	4	-1E+10	1	-1E+10	1	-1E+10	1	-1E+10	1	-1E+10	1	-1E+10	1
4902663	40	C	09/02/2024	06:11	-127.331	47.905	0	947.70	0	3.6350	0	34.3640	0	27.324	0	937.615	0	7.3	4	2.3	4	-1E+10	1	-1E+10	1	-1E+10	1	-1E+10	1	-1E+10	1	-1E+10	1
4902663	40	C	09/02/2024	06:11	-127.331	47.905	0	952.70	0	3.6140	0	34.3640	0	27.326	0	942.551	0	7.3	4	2.3	4	-1E+10	1	-1E+10	1	-1E+10	1	-1E+10	1	-1E+10	1	-1E+10	1
4902663	40	C	09/02/2024	06:11	-127.331	47.905	0	957.80	0	3.5960	0	34.3660	0	27.329	0	947.585	0	7.4	4	2.3	4	-1E+10	1	-1E+10	1	-1E+10	1	-1E+10	1	-1E+10	1	-1E+10	1
4902663	40	C	09/02/2024	06:11	-127.331	47.905	0	962.90	0	3.5850	0	34.3670	0	27.331	0	952.619	0	7.5	4	2.3	4	-1E+10	1	-1E+10	1	-1E+10	1	-1E+10	1	-1E+10	1	-1E+10	1
4902663	40	C	09/02/2024	06:11	-127.331	47.905	0	967.90	0	3.5670	0	34.3700	0	27.335	0	957.554	0	7.5	4	2.4	4	-1E+10	1	-1E+10	1	-1E+10	1	-1E+10	1	-1E+10	1	-1E+10	1
4902663	40	C	09/02/2024	06:11	-127.331	47.905	0	973.00	0	3.5550	0	34.3720	0	27.338	0	962.588	0	7.6	4	2.4	4	-1E+10	1	-1E+10	1	-1E+10	1	-1E+10	1	-1E+10	1	-1E+10	1
4902663	40	C	09/02/2024	06:11	-127.331	47.905	0	978.10	0	3.5550	0	34.3760	0	27.341	0	967.621	0	7.7	4	2.4	4	-1E+10	1	-1E+10	1	-1E+10	1	-1E+10	1	-1E+10	1	-1E+10	1
4902663	40	C	09/02/2024	06:11	-127.331	47.905	0	983.20	0	3.5600	0	34.3790	0	27.343	0	972.655	0	7.8	4	2.4	4	-1E+10	1	-1E+10	1	-1E+10	1	-1E+10	1	-1E+10	1	-1E+10	1
4902663	40	C	09/02/2024	06:11	-127.331	47.905	0	988.30	0	3.5470	0	34.3820	0	27.347	0	977.688	0	7.9	4	2.5	4	-1E+10	1	-1E+10	1	-1E+10	1	-1E+10	1	-1E+10	1	-1E+10	1
4902663	40	C	09/02/2024	06:11	-127.331	47.905	0	993.00	0	3.5370	0	34.3860	0	27.351	0	982.327	0	8.1	4	2.5	4	-1E+10	1	-1E+10	1	-1E+10	1	-1E+10	1	-1E+10	1	-1E+10	1
4902663	40	C	09/02/2024	06:11	-127.331	47.905	0	997.70	0	3.5270	0	34.3890	0	27.355	0	986.965	0	8.2	4	2.6	4	-1E+10	1	-1E+10	1	-1E+10	1	-1E+10	1	-1E+10	1	-1E+10	1
4902663	40	C	09/02/2024	06:11	-127.331	47.905	0	1005.60	0	3.5290	0	34.3930	0	27.358	0	994.761	0	8.3	4	2.6	4	-1E+10	1	-1E+10	1	-1E+10	1	-1E+10	1	-1E+10	1	-1E+10	1
4902663	40	C	09/02/2024	06:11	-127.331	47.905	0	1015.70	0	3.5160	0	34.3990	0	27.364	0	1004.728	0	8.5	4	2.7	4	-1E+10	1	-1E+10	1	-1E+10	1	-1E+10	1	-1E+10	1	-1E+10	1
4902663	40	C	09/02/2024	06:11	-127.331	47.905	0	1025.60	0	3.4980	0	34.4030	0	27.369	0	1014.498	0	8.8	4	2.7	4	-1E+10	1	-1E+10	1	-1E+10	1	-1E+10	1	-1E+10	1	-1E+10	1
4902663	40	C	09/02/2024	06:11	-127.331	47.905	0	1035.50	0	3.4790	0	34.4070	0	27.374	0	1024.266	0	8.9	4	2.8	4	-1E+10	1	-1E+10	1	-1E+10	1	-1E+10	1	-1E+10	1	-1E+10	1
4902663	40	C	09/02/2024	06:11	-127.331	47.905	0	1045.30	0	3.4450	0	34.4090	0	27.379	0	1033.936	0	9.1	4	2.8	4	-1E+10	1	-1E+10	1	-1E+10	1	-1E+10	1	-1E+10	1	-1E+10	1
4902663	40	C	09/02/2024	06:11	-127.331	47.905	0	1055.20	0	3.4140	0	34.4120	0	27.384	0	1043.703	0	9.3	4	2.9	4	-1E+10	1	-1E+10	1	-1E+10	1	-1E+10	1	-1E+10	1	-1E+10	1
4902663	40	C	09/02/2024	06:11	-127.331	47.905	0	1065.20	0	3.3860	0	34.4160	0	27.390	0	1053.569	0	9.5	4	3.0	4	-1E+10	1	-1E+10	1	-1E+10	1	-1E+10	1	-1E+10	1	-1E+10	1
4902663	40	C	09/02/2024	06:11	-127.331	47.905	0	1075.40	0	3.3580	0	34.4200	0	27.396	0	1063.632	0	9.8	4	3.1	4	-1E+10	1	-1E+10	1	-1E+10	1	-1E+10	1	-1E+10	1	-1E+10	1
4902663	40	C	09/02/2024	06:11	-127.331	47.905	0	1085.60	0	3.3380	0	34.4230	0	27.400	0	1073.695	0	10.1	4	3.1	4	-1E+10	1	-1E+10	1	-1E+10	1	-1E+10	1	-1E+10	1	-1E+10	1
4902663	40	C	09/02/2024	06:11	-127.331	47.905	0	1095.70	0	3.3130	0	34.4250	0	27.404	0	1083.658	0	10.3	4	3.2	4	-1E+10	1	-1E+10	1	-1E+10	1	-1E+10	1	-1E+10	1	-1E+10	1
4902663	40	C	09/02/2024	06:11	-127.331	47.905	0	1105.40	0	3.2850	0	34.4290	0	27.410	0	1093.226	0	10.5	4	3.3	4	-1E+10	1	-1E+10	1	-1E+10	1	-1E+10	1	-1E+10	1	-1E+10	1
4902663	40	C	09/02/2024	06:11	-127.331	47.905	0	1115.50	0	3.2550	0	34.4310	0	27.415	0	1103.188	0	10.7	4	3.3	4	-1E+10	1	-1E+10	1	-1E+10	1	-1E+10	1	-1E+10	1	-1E+10	1
4902663	40	C	09/02/2024	06:11	-127.331	47.905	0	1125.70	0	3.2280	0	34.4330	0	27.419	0	1113.248	0	11.0	4	3.4	4	-1E+10	1	-1E+10	1	-1E+10	1	-1E+10	1	-1E+10	1	-1E+10	1
4902663	40	C	09/02/2024	06:11	-127.331	47.905	0	1135.70	0	3.2020	0	34.4370	0	27.424	0	1123.111	0	11.2	4	3.5	4	-1E+10	1	-1E+10	1	-1E+10	1	-1E+10	1	-1E+10	1	-1E+10	1
4902663	40	C	09/02/2024	06:11	-127.331	47.905	0	1145.70	0	3.1660	0	34.4390	0	27.429	0	1132.973	0	11.4	4	3.5	4	-1E+10	1	-1E+10	1	-1E+10	1	-1E+10	1	-1E+10	1	-1E+10	1
4902663	40	C	09/02/2024	06:11	-127.331	47.905	0	1155.40	0	3.1480	0	34.4420	0	27.434	0	1142.539	0	11.6	4	3.6	4	-1E+10	1	-1E+10	1	-1E+10	1	-1E+10	1	-1E+10	1	-1E+10	1
4902663	40	C	09/02/2024	06:11	-127.331	47.905	0	1165.30	0	3.1230	0	34.4420	0	27.436	0	1152.302	0	11.9	4	3.7	4	-1E+10	1	-1E+10	1	-1E+10	1	-1E+10	1	-1E+10	1	-1E+10	1
4902663	40	C	09/02/2024	06:11	-127.331	47.905	0	1175.60	0	3.1040	0	34.4470	0	27.442	0	1162.459	0	12.3	4	3.8	4	-1E+10	1	-1E+10	1	-1E+10	1	-1E+10	1	-1E+10	1	-1E+10	1
4902663	40	C	09/02/2024	06:11	-127.331	47.905	0	1185.60	0	3.0870	0	34.4500	0	27.446	0	1172.319	0	12.6	4	3.9	4	-1E+10	1	-1E+10	1	-1E+10	1	-1E+10	1	-1E+10	1	-1E+10	1
4902663	40	C	09/02/2024	06:11	-127.331	47.905	0	1195.30	0	3.0580	0	34.4520	0	27.450	0	1181.883	0	12.8	4	4.0	4	-1E+10	1	-1E+10	1	-1E+10	1	-1E+10	1	-1E+10	1	-1E+10	1
4902663	40	C	09/02/2024	06:11	-127.331	47.905	0	1205.20	0	3.0260	0	34.4540	0	27.455	0	1191.644	0	13.1	4	4.1	4	-1E+10	1	-1E+10	1	-1E+10	1	-1E+10	1	-1E+10	1	-1E+10	1
4902663	40	C	09/02/2024	06:11	-127.331	47.905	0	1215.40	0	2.9940	0	34.4560	0	27.459	0	1201.700	0	13.4	4	4.1	4	-1E+10	1	-1E+10	1	-1E+10	1	-1E+10	1	-1E+10	1	-1E+10	1
4902663	40	C	09/02/2024	06:11	-127.331	47.905	0	1225.30	0	2.9600	0	34.4580	0	27.464	0	1211.460	0	13.7	4	4.2	4	-1E+10	1	-1E+10	1	-1E+10	1	-1E+10	1	-1E+10	1	-1E+10	1
4902663	40	C	09/02/2024	06:11	-127.331	47.905	0	1235.40	0	2.9440	0	34.4610	0	27.468	0	1221.417	0	14.2	4	4.4	4	-1E+10	1	-1E+10	1	-1E+10	1	-1E+10	1	-1E+10	1	-1E+10	1
4902663	40	C	09/02/2024	06:11	-127.331	47.905	0	1245.70	0	2.9200	0	34.4650	0	27.473	0	1231.570	0	14.6	4	4.5	4	-1E+10	1	-1E+10	1	-1E+10	1	-1E+10	1	-1E+10	1	-1E+10	1
4902663	40	C	09/02/2024	06:11	-127.331	47.905	0	1255.70	0	2.9020	0	34.4660	0	27.476	0	1241.427	0	14.8	4	4.6	4	-1E+10	1	-1E+10	1	-1E+10	1	-1E+10	1	-1E+10	1	-1E+10	1
4902663	40	C	09/02/2024	06:11	-127.331	47.905	0	1265.60	0	2.8880	0	34.4680	0	27.478	0	1251.185	0	15.1	4	4.6	4	-1E+10	1	-1E+10	1	-1E+10	1	-1E+10	1	-1E+10	1	-1E+10	1
4902663	40	C	09/02/2024	06:11	-127.331	47.905	0	1275.70	0	2.8700	0	34.4700	0	27.482	0	1261.140	0	15.3	4	4.7	4	-1E+10	1	-1E+10	1	-1E+10	1	-1E+10	1	-1E+10	1	-1E+10	1
4902663	40	C	09/02/2024	06:11	-127.331	47.905	0	1285.60	0	2.8520	0	34.4720	0	27.485	0	1270.897	0	15.7	4	4.8	4	-1E+10	1	-1E+10	1	-1E+10	1	-1E+10	1	-1E+10	1	-1E+10	1
4902663	40	C	09/02/2024	06:11	-127.331	47.905	0	1295.60	0	2.8340	0	34.4730	0	27.487	0	1280.752	0	16.0	4	4.9	4	-1E+10	1	-1E+10	1	-1E+10	1	-1E+10	1	-1E+10	1	-1E+10	1
4902663	40	C	09/02/2024	06:11	-127.331	47.905	0	1305.70	0	2.8160	0	34.4750	0	27.491	0	1290.705	0	16.4	4	5.0	4	-1E+10	1	-1E+10	1	-1E+10	1	-1E+10	1	-1E+10	1	-1E+10	1
4902663	40	C	09/02/2024	06:11	-127.331	47.905	0	1315.50	0	2.7960	0	34.4780	0	27.495	0	1300.363	0	16.9	4	5.2	4	-1E+10	1	-1E+10	1	-1E+10	1	-1E+10	1	-1E+10	1	-1E+10	1
4902663	40	C	09/02/2024	06:11	-127.331	47.905	0	1325.00	0	2.7830	0	34.4820	0	27.499	0	1309.724	0	17.5	4	5.4	4	-1E+10	1	-1E+10	1	-1E+10	1	-1E+10	1	-1E+10	1	-1E+10	1
4902663	40	C	09/02/2024	06:11	-127.331	47.905	0	1335.00	0	2.7760	0	34.4860	0	27.503	0	1319.577	0	18.2	4	5.6	4	-1E+10	1	-1E+10	1	-1E+10	1	-1E+10	1	-1E+10	1	-1E+10	1
4902663	40	C	09/02/2024	06:11	-127.331	47.905	0	1345.10	0	2.7530	0	34.4900	0	27.508	0	1329.529	0	18.6	4	5.7	4	-1E+10	1	-1E+10	1	-1E+10	1	-1E+10	1	-1E+10	1	-1E+10	1
4902663	40	C	09/02/2024	06:11	-127.331	47.905	0	1355.20	0	2.7390	0	34.4910	0	27.510	0	1339.480	0	19.0	4	5.8	4	-1E+10	1	-1E+10	1	-1E+10	1	-1E+10	1	-1E+10	1	-1E+10	1
4902663	40	C	09/02/2024	06:11	-127.331	47.905	0	1365.30	0	2.7130	0	34.4930	0	27.514	0	1349.430	0	19.5	4	6.0	4	-1E+10	1	-1E+10	1	-1E+10	1	-1E+10	1	-1E+10	1	-1E+10	1
4902663	40	C	09/02/2024	06:11	-127.331	47.905	0	1375.40	0	2.6910	0	34.4950	0	27.518	0	1359.380	0	19.9	4	6.1	4	-1E+10	1	-1E+10	1	-1E+10	1	-1E+10	1	-1E+10	1	-1E+10	1
4902663	40	C	09/02/2024	06:11	-127.331	47.905	0	1385.40	0	2.6640	0	34.4970	0	27.522	0	1369.231	0	20.4	4	6.3	4	-1E+10	1	-1E+10	1	-1E+10	1	-1E+10	1	-1E+10	1	-1E+10	1
4902663	40	C	09/02/2024	06:11	-127.331	47.905	0	1395.50	0	2.6470	0	34.4990	0	27.525	0	1379.181	0	21.0	4	6.4	4	-1E+10	1	-1E+10	1	-1E+10	1	-1E+10	1	-1E+10	1	-1E+10	1
4902663	40	C	09/02/2024	06:11	-127.331	47.905	0	1405.30	0	2.6340	0	34.5020	0	27.528	0	1388.834	0	21.8	4	6.7	4	-1E+10	1	-1E+10	1	-1E+10	1	-1E+10	1	-1E+10	1	-1E+10	1
4902663	40	C	09/02/2024	06:11	-127.331	47.905	0	1415.10	0	2.6250	0	34.5060	0	27.533	0	1398.486	0	22.5	4	6.9	4	-1E+10	1	-1E+10	1	-1E+10	1	-1E+10	1	-1E+10	1	-1E+10	1
4902663	40	C	09/02/2024	06:11	-127.331	47.905	0	1425.60	0	2.6000	0	34.5080	0	27.536	0	1408.828	0	22.9	4	7.0	4	-1E+10	1	-1E+10	1	-1E+10	1	-1E+10	1	-1E+10	1	-1E+10	1
4902663	40	C	09/02/2024	06:11	-127.331	47.905	0	1435.40	0	2.5770	0	34.5090	0	27.539	0	1418.480	0	23.5	4	7.2	4	-1E+10	1	-1E+10	1	-1E+10	1	-1E+10	1	-1E+10	1	-1E+10	1
4902663	40	C	09/02/2024	06:11	-127.331	47.905	0	1445.50	0	2.5550	0	34.5120	0	27.543	0	1428.427	0	24.0	4	7.3	4	-1E+10	1	-1E+10	1	-1E+10	1	-1E+10	1	-1E+10	1	-1E+10	1
4902663	40	C	09/02/2024	06:11	-127.331	47.905	0	1455.70	0	2.5330	0	34.5130	0	27.546	0	1438.471	0	24.3	4	7.4	4	-1E+10	1	-1E+10	1	-1E+10	1	-1E+10	1	-1E+10	1	-1E+10	1
4902663	40	C	09/02/2024	06:11	-127.331	47.905	0	1465.40	0	2.5040	0	34.5130	0	27.549	0	1448.023	0	24.8	4	7.6	4	-1E+10	1	-1E+10	1	-1E+10	1	-1E+10	1	-1E+10	1	-1E+10	1
4902663	40	C	09/02/2024	06:11	-127.331	47.905	0	1475.20	0	2.4870	0	34.5150	0	27.552	0	1457.673	0	25.3	4	7.7	4	-1E+10	1	-1E+10	1	-1E+10	1	-1E+10	1	-1E+10	1	-1E+10	1
4902663	40	C	09/02/2024	06:11	-127.331	47.905	0	1485.20	0	2.4680	0	34.5170	0	27.555	0	1467.520	0	26.0	4	7.9	4	-1E+10	1	-1E+10	1	-1E+10	1	-1E+10	1	-1E+10	1	-1E+10	1
4902663	40	C	09/02/2024	06:11	-127.331	47.905	0	1495.10	0	2.4610	0	34.5200	0	27.558	0	1477.267	0	26.6	4	8.1	4	-1E+10	1	-1E+10	1	-1E+10	1	-1E+10	1	-1E+10	1	-1E+10	1
4902663	40	C	09/02/2024	06:11	-127.331	47.905	0	1504.90	0	2.4410	0	34.5210	0	27.560	0	1486.916	0	26.9	4	8.2	4	-1E+10	1	-1E+10	1	-1E+10	1	-1E+10	1	-1E+10	1	-1E+10	1
4902663	40	C	09/02/2024	06:11	-127.331	47.905	0	1515.00	0	2.4300	0	34.5220	0	27.562	0	1496.860	0	27.6	4	8.4	4	-1E+10	1	-1E+10	1	-1E+10	1	-1E+10	1	-1E+10	1	-1E+10	1
4902663	40	C	09/02/2024	06:11	-127.331	47.905	0	1525.30	0	2.4220	0	34.5250	0	27.565	0	1507.000	0	28.6	4	8.7	4	-1E+10	1	-1E+10	1	-1E+10	1	-1E+10	1	-1E+10	1	-1E+10	1
4902663	40	C	09/02/2024	06:11	-127.331	47.905	0	1535.00	0	2.4270	0	34.5300	0	27.569	0	1516.549	0	29.3	4	8.9	4	-1E+10	1	-1E+10	1	-1E+10	1	-1E+10	1	-1E+10	1	-1E+10	1
4902663	40	C	09/02/2024	06:11	-127.331	47.905	0	1545.10	0	2.4190	0	34.5310	0	27.571	0	1526.491	0	29.6	4	9.0	4	-1E+10	1	-1E+10	1	-1E+10	1	-1E+10	1	-1E+10	1	-1E+10	1
4902663	40	C	09/02/2024	06:11	-127.331	47.905	0	1555.20	0	2.4050	0	34.5320	0	27.573	0	1536.432	0	30.2	4	9.2	4	-1E+10	1	-1E+10	1	-1E+10	1	-1E+10	1	-1E+10	1	-1E+10	1
4902663	40	C	09/02/2024	06:11	-127.331	47.905	0	1565.10	0	2.4000	0	34.5340	0	27.575	0	1546.177	0	30.8	4	9.4	4	-1E+10	1	-1E+10	1	-1E+10	1	-1E+10	1	-1E+10	1	-1E+10	1
4902663	40	C	09/02/2024	06:11	-127.331	47.905	0	1575.10	0	2.3920	0	34.5360	0	27.577	0	1556.019	0	31.5	4	9.6	4	-1E+10	1	-1E+10	1	-1E+10	1	-1E+10	1	-1E+10	1	-1E+10	1
4902663	40	C	09/02/2024	06:11	-127.331	47.905	0	1585.40	0	2.3820	0	34.5380	0	27.579	0	1566.156	0	32.1	4	9.8	4	-1E+10	1	-1E+10	1	-1E+10	1	-1E+10	1	-1E+10	1	-1E+10	1
4902663	40	C	09/02/2024	06:11	-127.331	47.905	0	1595.70	0	2.3650	0	34.5390	0	27.582	0	1576.293	0	32.4	4	9.9	4	-1E+10	1	-1E+10	1	-1E+10	1	-1E+10	1	-1E+10	1	-1E+10	1
4902663	40	C	09/02/2024	06:11	-127.331	47.905	0	1605.60	0	2.3420	0	34.5400	0	27.584	0	1586.035	0	33.0	4	10.0	4	-1E+10	1	-1E+10	1	-1E+10	1	-1E+10	1	-1E+10	1	-1E+10	1
4902663	40	C	09/02/2024	06:11	-127.331	47.905	0	1615.50	0	2.3420	0	34.5430	0	27.587	0	1595.778	0	33.6	4	10.2	4	-1E+10	1	-1E+10	1	-1E+10	1	-1E+10	1	-1E+10	1	-1E+10	1
4902663	40	C	09/02/2024	06:11	-127.331	47.905	0	1625.40	0	2.3310	0	34.5440	0	27.589	0	1605.519	0	34.2	4	10.4	4	-1E+10	1	-1E+10	1	-1E+10	1	-1E+10	1	-1E+10	1	-1E+10	1
4902663	40	C	09/02/2024	06:11	-127.331	47.905	0	1635.40	0	2.3040	0	34.5460	0	27.592	0	1615.359	0	34.9	4	10.6	4	-1E+10	1	-1E+10	1	-1E+10	1	-1E+10	1	-1E+10	1	-1E+10	1
4902663	40	C	09/02/2024	06:11	-127.331	47.905	0	1645.30	0	2.2850	0	34.5470	0	27.595	0	1625.100	0	35.4	4	10.7	4	-1E+10	1	-1E+10	1	-1E+10	1	-1E+10	1	-1E+10	1	-1E+10	1
4902663	40	C	09/02/2024	06:11	-127.331	47.905	0	1655.20	0	2.2790	0	34.5490	0	27.597	0	1634.840	0	36.3	4	11.0	4	-1E+10	1	-1E+10	1	-1E+10	1	-1E+10	1	-1E+10	1	-1E+10	1
4902663	40	C	09/02/2024	06:11	-127.331	47.905	0	1665.60	0	2.2830	0	34.5520	0	27.599	0	1645.071	0	37.0	4	11.2	4	-1E+10	1	-1E+10	1	-1E+10	1	-1E+10	1	-1E+10	1	-1E+10	1
4902663	40	C	09/02/2024	06:11	-127.331	47.905	0	1675.50	0	2.2710	0	34.5530	0	27.601	0	1654.811	0	37.5	4	11.4	4	-1E+10	1	-1E+10	1	-1E+10	1	-1E+10	1	-1E+10	1	-1E+10	1
4902663	40	C	09/02/2024	06:11	-127.331	47.905	0	1685.40	0	2.2570	0	34.5550	0	27.604	0	1664.550	0	37.9	4	11.5	4	-1E+10	1	-1E+10	1	-1E+10	1	-1E+10	1	-1E+10	1	-1E+10	1
4902663	40	C	09/02/2024	06:11	-127.331	47.905	0	1695.30	0	2.2350	0	34.5560	0	27.606	0	1674.288	0	38.1	4	11.6	4	-1E+10	1	-1E+10	1	-1E+10	1	-1E+10	1	-1E+10	1	-1E+10	1
4902663	40	C	09/02/2024	06:11	-127.331	47.905	0	1705.20	0	2.2180	0	34.5560	0	27.608	0	1684.026	0	38.3	4	11.6	4	-1E+10	1	-1E+10	1	-1E+10	1	-1E+10	1	-1E+10	1	-1E+10	1
4902663	40	C	09/02/2024	06:11	-127.331	47.905	0	1715.50	0	2.2070	0	34.5570	0	27.610	0	1694.157	0	38.9	4	11.8	4	-1E+10	1	-1E+10	1	-1E+10	1	-1E+10	1	-1E+10	1	-1E+10	1
4902663	40	C	09/02/2024	06:11	-127.331	47.905	0	1725.30	0	2.1960	0	34.5580	0	27.611	0	1703.796	0	39.8	4	12.1	4	-1E+10	1	-1E+10	1	-1E+10	1	-1E+10	1	-1E+10	1	-1E+10	1
4902663	40	C	09/02/2024	06:11	-127.331	47.905	0	1735.20	0	2.1990	0	34.5620	0	27.614	0	1713.533	0	40.8	4	12.4	4	-1E+10	1	-1E+10	1	-1E+10	1	-1E+10	1	-1E+10	1	-1E+10	1
4902663	40	C	09/02/2024	06:11	-127.331	47.905	0	1745.60	0	2.1930	0	34.5640	0	27.616	0	1723.761	0	41.5	4	12.6	4	-1E+10	1	-1E+10	1	-1E+10	1	-1E+10	1	-1E+10	1	-1E+10	1
4902663	40	C	09/02/2024	06:11	-127.331	47.905	0	1755.60	0	2.1840	0	34.5650	0	27.618	0	1733.595	0	41.5	4	12.6	4	-1E+10	1	-1E+10	1	-1E+10	1	-1E+10	1	-1E+10	1	-1E+10	1
4902663	40	C	09/02/2024	06:11	-127.331	47.905	0	1765.60	0	2.1690	0	34.5640	0	27.618	0	1743.428	0	41.8	4	12.7	4	-1E+10	1	-1E+10	1	-1E+10	1	-1E+10	1	-1E+10	1	-1E+10	1
4902663	40	C	09/02/2024	06:11	-127.331	47.905	0	1775.60	0	2.1560	0	34.5670	0	27.622	0	1753.261	0	42.4	4	12.8	4	-1E+10	1	-1E+10	1	-1E+10	1	-1E+10	1	-1E+10	1	-1E+10	1
4902663	40	C	09/02/2024	06:11	-127.331	47.905	0	1785.60	0	2.1450	0	34.5680	0	27.624	0	1763.094	0	42.7	4	12.9	4	-1E+10	1	-1E+10	1	-1E+10	1	-1E+10	1	-1E+10	1	-1E+10	1
4902663	40	C	09/02/2024	06:11	-127.331	47.905	0	1795.60	0	2.1280	0	34.5680	0	27.625	0	1772.926	0	43.0	4	13.0	4	-1E+10	1	-1E+10	1	-1E+10	1	-1E+10	1	-1E+10	1	-1E+10	1
4902663	40	C	09/02/2024	06:11	-127.331	47.905	0	1805.50	0	2.0950	0	34.5680	0	27.628	0	1782.660	0	43.6	4	13.2	4	-1E+10	1	-1E+10	1	-1E+10	1	-1E+10	1	-1E+10	1	-1E+10	1
4902663	40	C	09/02/2024	06:11	-127.331	47.905	0	1815.50	0	2.0840	0	34.5700	0	27.630	0	1792.491	0	44.2	4	13.4	4	-1E+10	1	-1E+10	1	-1E+10	1	-1E+10	1	-1E+10	1	-1E+10	1
4902663	40	C	09/02/2024	06:11	-127.331	47.905	0	1825.50	0	2.0750	0	34.5710	0	27.632	0	1802.322	0	44.7	4	13.5	4	-1E+10	1	-1E+10	1	-1E+10	1	-1E+10	1	-1E+10	1	-1E+10	1
4902663	40	C	09/02/2024	06:11	-127.331	47.905	0	1835.70	0	2.0650	0	34.5720	0	27.633	0	1812.349	0	45.3	4	13.7	4	-1E+10	1	-1E+10	1	-1E+10	1	-1E+10	1	-1E+10	1	-1E+10	1
4902663	40	C	09/02/2024	06:11	-127.331	47.905	0	1845.50	0	2.0560	0	34.5740	0	27.636	0	1821.982	0	45.9	4	13.9	4	-1E+10	1	-1E+10	1	-1E+10	1	-1E+10	1	-1E+10	1	-1E+10	1
4902663	40	C	09/02/2024	06:11	-127.331	47.905	0	1855.40	0	2.0490	0	34.5750	0	27.637	0	1831.714	0	46.5	4	14.0	4	-1E+10	1	-1E+10	1	-1E+10	1	-1E+10	1	-1E+10	1	-1E+10	1
4902663	40	C	09/02/2024	06:11	-127.331	47.905	0	1865.40	0	2.0380	0	34.5770	0	27.640	0	1841.543	0	47.2	4	14.2	4	-1E+10	1	-1E+10	1	-1E+10	1	-1E+10	1	-1E+10	1	-1E+10	1
4902663	40	C	09/02/2024	06:11	-127.331	47.905	0	1875.40	0	2.0280	0	34.5780	0	27.641	0	1851.371	0	47.9	4	14.5	4	-1E+10	1	-1E+10	1	-1E+10	1	-1E+10	1	-1E+10	1	-1E+10	1
4902663	40	C	09/02/2024	06:11	-127.331	47.905	0	1885.50	0	2.0150	0	34.5800	0	27.644	0	1861.298	0	48.6	4	14.7	4	-1E+10	1	-1E+10	1	-1E+10	1	-1E+10	1	-1E+10	1	-1E+10	1
4902663	40	C	09/02/2024	06:11	-127.331	47.905	0	1895.50	0	2.0100	0	34.5820	0	27.646	0	1871.125	0	49.1	4	14.8	4	-1E+10	1	-1E+10	1	-1E+10	1	-1E+10	1	-1E+10	1	-1E+10	1
4902663	40	C	09/02/2024	06:11	-127.331	47.905	0	1905.70	0	2.0020	0	34.5830	0	27.648	0	1881.149	0	49.7	4	15.0	4	-1E+10	1	-1E+10	1	-1E+10	1	-1E+10	1	-1E+10	1	-1E+10	1
4902663	40	C	09/02/2024	06:11	-127.331	47.905	0	1915.90	0	1.9940	0	34.5850	0	27.650	0	1891.173	0	50.4	4	15.2	4	-1E+10	1	-1E+10	1	-1E+10	1	-1E+10	1	-1E+10	1	-1E+10	1
4902663	40	C	09/02/2024	06:11	-127.331	47.905	0	1925.50	0	1.9860	0	34.5860	0	27.651	0	1900.606	0	51.0	4	15.4	4	-1E+10	1	-1E+10	1	-1E+10	1	-1E+10	1	-1E+10	1	-1E+10	1
4902663	40	C	09/02/2024	06:11	-127.331	47.905	0	1935.30	0	1.9760	0	34.5880	0	27.654	0	1910.235	0	51.7	4	15.6	4	-1E+10	1	-1E+10	1	-1E+10	1	-1E+10	1	-1E+10	1	-1E+10	1
4902663	40	C	09/02/2024	06:11	-127.331	47.905	0	1945.10	0	1.9630	0	34.5890	0	27.656	0	1919.864	0	52.3	4	15.8	4	-1E+10	1	-1E+10	1	-1E+10	1	-1E+10	1	-1E+10	1	-1E+10	1
4902663	40	C	09/02/2024	06:11	-127.331	47.905	0	1955.10	0	1.9550	0	34.5910	0	27.658	0	1929.689	0	53.0	4	16.0	4	-1E+10	1	-1E+10	1	-1E+10	1	-1E+10	1	-1E+10	1	-1E+10	1
4902663	40	C	09/02/2024	06:11	-127.331	47.905	0	1965.10	0	1.9460	0	34.5930	0	27.660	0	1939.514	0	53.6	4	16.2	4	-1E+10	1	-1E+10	1	-1E+10	1	-1E+10	1	-1E+10	1	-1E+10	1
4902663	40	C	09/02/2024	06:11	-127.331	47.905	0	1975.30	0	1.9390	0	34.5940	0	27.662	0	1949.534	0	54.1	4	16.3	4	-1E+10	1	-1E+10	1	-1E+10	1	-1E+10	1	-1E+10	1	-1E+10	1
4902663	40	C	09/02/2024	06:11	-127.331	47.905	0	1985.60	0	1.9300	0	34.5950	0	27.663	0	1959.652	0	54.6	4	16.4	4	-1E+10	1	-1E+10	1	-1E+10	1	-1E+10	1	-1E+10	1	-1E+10	1
4902663	40	C	09/02/2024	06:11	-127.331	47.905	0	1995.90	0	1.9240	0	34.5970	0	27.665	0	1969.770	0	54.9	4	16.5	4	-1E+10	1	-1E+10	1	-1E+10	1	-1E+10	1	-1E+10	1	-1E+10	1
4902663	40	C	09/02/2024	06:11	-127.331	47.905	0	2002.60	0	1.9180	0	34.5980	0	27.667	0	1976.351	0	54.6	4	16.4	4	-1E+10	1	-1E+10	1	-1E+10	1	-1E+10	1	-1E+10	1	-1E+10	1
4902663	40	C	09/02/2024	06:11	-127.331	47.905	0																										
4902663	41	C	09/12/2024	01:17	-127.640	47.857	0	0.10	0	16.1040	0	32.0230	0	23.436	0	0.099	0	244.9	4	98.9	4	-1E+10	1	-1E+10	1	-1E+10	1	-1E+10	1	-1E+10	1	-1E+10	1
4902663	41	C	09/12/2024	01:17	-127.640	47.857	0	0.20	0	16.1000	0	32.0210	0	23.436	0	0.198	0	244.9	4	98.9	4	-1E+10	1	-1E+10	1	-1E+10	1	-1E+10	1	-1E+10	1	-1E+10	1
4902663	41	C	09/12/2024	01:17	-127.640	47.857	0	0.30	0	16.1180	0	32.0070	0	23.421	0	0.297	0	239.2	4	96.6	4	-1E+10	1	-1E+10	1	-1E+10	1	-1E+10	1	-1E+10	1	-1E+10	1
4902663	41	C	09/12/2024	01:17	-127.640	47.857	0	1.10	0	16.1190	0	32.0000	0	23.415	0	1.091	0	239.1	4	96.6	4	-1E+10	1	-1E+10	1	-1E+10	1	-1E+10	1	-1E+10	1	-1E+10	1
4902663	41	C	09/12/2024	01:17	-127.640	47.857	0	1.90	0	16.1170	0	32.0050	0	23.420	0	1.884	0	239.1	4	96.6	4	-1E+10	1	-1E+10	1	-1E+10	1	-1E+10	1	-1E+10	1	-1E+10	1
4902663	41	C	09/12/2024	01:17	-127.640	47.857	0	3.10	0	16.1200	0	32.0490	0	23.453	0	3.074	0	238.9	4	96.6	4	-1E+10	1	-1E+10	1	-1E+10	1	-1E+10	1	-1E+10	1	-1E+10	1
4902663	41	C	09/12/2024	01:17	-127.640	47.857	0	4.10	0	16.1200	0	32.0490	0	23.453	0	4.066	0	238.8	4	96.5	4	-1E+10	1	-1E+10	1	-1E+10	1	-1E+10	1	-1E+10	1	-1E+10	1
4902663	41	C	09/12/2024	01:17	-127.640	47.857	0	4.90	0	16.1190	0	32.0510	0	23.455	0	4.859	0	238.8	4	96.5	4	-1E+10	1	-1E+10	1	-1E+10	1	-1E+10	1	-1E+10	1	-1E+10	1
4902663	41	C	09/12/2024	01:17	-127.640	47.857	0	5.90	0	16.1190	0	32.0510	0	23.455	0	5.850	0	238.7	4	96.5	4	-1E+10	1	-1E+10	1	-1E+10	1	-1E+10	1	-1E+10	1	-1E+10	1
4902663	41	C	09/12/2024	01:17	-127.640	47.857	0	7.00	0	16.1190	0	32.0510	0	23.455	0	6.941	0	238.7	4	96.5	4	-1E+10	1	-1E+10	1	-1E+10	1	-1E+10	1	-1E+10	1	-1E+10	1
4902663	41	C	09/12/2024	01:17	-127.640	47.857	0	7.70	0	16.1190	0	32.0510	0	23.455	0	7.635	0	238.7	4	96.5	4	-1E+10	1	-1E+10	1	-1E+10	1	-1E+10	1	-1E+10	1	-1E+10	1
4902663	41	C	09/12/2024	01:17	-127.640	47.857	0	8.80	0	16.1190	0	32.0510	0	23.455	0	8.726	0	238.7	4	96.5	4	-1E+10	1	-1E+10	1	-1E+10	1	-1E+10	1	-1E+10	1	-1E+10	1
4902663	41	C	09/12/2024	01:17	-127.640	47.857	0	10.10	0	16.1200	0	32.0510	0	23.455	0	10.015	0	238.6	4	96.4	4	-1E+10	1	-1E+10	1	-1E+10	1	-1E+10	1	-1E+10	1	-1E+10	1
4902663	41	C	09/12/2024	01:17	-127.640	47.857	0	10.90	0	16.1200	0	32.0510	0	23.455	0	10.808	0	238.6	4	96.4	4	-1E+10	1	-1E+10	1	-1E+10	1	-1E+10	1	-1E+10	1	-1E+10	1
4902663	41	C	09/12/2024	01:17	-127.640	47.857	0	11.70	0	16.1200	0	32.0510	0	23.455	0	11.602	0	238.5	4	96.4	4	-1E+10	1	-1E+10	1	-1E+10	1	-1E+10	1	-1E+10	1	-1E+10	1
4902663	41	C	09/12/2024	01:17	-127.640	47.857	0	12.90	0	16.1200	0	32.0510	0	23.455	0	12.792	0	238.6	4	96.4	4	-1E+10	1	-1E+10	1	-1E+10	1	-1E+10	1	-1E+10	1	-1E+10	1
4902663	41	C	09/12/2024	01:17	-127.640	47.857	0	13.90	0	16.1200	0	32.0520	0	23.456	0	13.783	0	238.6	4	96.4	4	-1E+10	1	-1E+10	1	-1E+10	1	-1E+10	1	-1E+10	1	-1E+10	1
4902663	41	C	09/12/2024	01:17	-127.640	47.857	0	14.90	0	16.1200	0	32.0510	0	23.455	0	14.775	0	238.7	4	96.5	4	-1E+10	1	-1E+10	1	-1E+10	1	-1E+10	1	-1E+10	1	-1E+10	1
4902663	41	C	09/12/2024	01:17	-127.640	47.857	0	16.00	0	16.1210	0	32.0510	0	23.455	0	15.865	0	238.7	4	96.5	4	-1E+10	1	-1E+10	1	-1E+10	1	-1E+10	1	-1E+10	1	-1E+10	1
4902663	41	C	09/12/2024	01:17	-127.640	47.857	0	16.70	0	16.1220	0	32.0510	0	23.455	0	16.559	0	238.7	4	96.5	4	-1E+10	1	-1E+10	1	-1E+10	1	-1E+10	1	-1E+10	1	-1E+10	1
4902663	41	C	09/12/2024	01:17	-127.640	47.857	0	17.90	0	16.1200	0	32.0500	0	23.454	0	17.749	0	238.8	4	96.5	4	-1E+10	1	-1E+10	1	-1E+10	1	-1E+10	1	-1E+10	1	-1E+10	1
4902663	41	C	09/12/2024	01:17	-127.640	47.857	0	19.30	0	16.1200	0	32.0520	0	23.456	0	19.137	0	239.0	4	96.6	4	-1E+10	1	-1E+10	1	-1E+10	1	-1E+10	1	-1E+10	1	-1E+10	1
4902663	41	C	09/12/2024	01:17	-127.640	47.857	0	20.20	0	16.1200	0	32.0500	0	23.454	0	20.030	0	239.1	4	96.6	4	-1E+10	1	-1E+10	1	-1E+10	1	-1E+10	1	-1E+10	1	-1E+10	1
4902663	41	C	09/12/2024	01:17	-127.640	47.857	0	21.10	0	16.1190	0	32.0500	0	23.455	0	20.922	0	239.3	4	96.7	4	-1E+10	1	-1E+10	1	-1E+10	1	-1E+10	1	-1E+10	1	-1E+10	1
4902663	41	C	09/12/2024	01:17	-127.640	47.857	0	22.00	0	16.1190	0	32.0500	0	23.455	0	21.815	0	239.5	4	96.8	4	-1E+10	1	-1E+10	1	-1E+10	1	-1E+10	1	-1E+10	1	-1E+10	1
4902663	41	C	09/12/2024	01:17	-127.640	47.857	0	22.80	0	16.1210	0	32.0490	0	23.453	0	22.608	0	239.8	4	96.9	4	-1E+10	1	-1E+10	1	-1E+10	1	-1E+10	1	-1E+10	1	-1E+10	1
4902663	41	C	09/12/2024	01:17	-127.640	47.857	0	24.00	0	16.1170	0	32.0460	0	23.452	0	23.798	0	240.5	4	97.2	4	-1E+10	1	-1E+10	1	-1E+10	1	-1E+10	1	-1E+10	1	-1E+10	1
4902663	41	C	09/12/2024	01:17	-127.640	47.857	0	25.30	0	16.1090	0	32.0500	0	23.457	0	25.086	0	241.3	4	97.5	4	-1E+10	1	-1E+10	1	-1E+10	1	-1E+10	1	-1E+10	1	-1E+10	1
4902663	41	C	09/12/2024	01:17	-127.640	47.857	0	26.20	0	16.1080	0	32.0460	0	23.454	0	25.979	0	242.1	4	97.8	4	-1E+10	1	-1E+10	1	-1E+10	1	-1E+10	1	-1E+10	1	-1E+10	1
4902663	41	C	09/12/2024	01:17	-127.640	47.857	0	27.00	0	16.1120	0	32.0430	0	23.451	0	26.772	0	243.0	4	98.2	4	-1E+10	1	-1E+10	1	-1E+10	1	-1E+10	1	-1E+10	1	-1E+10	1
4902663	41	C	09/12/2024	01:17	-127.640	47.857	0	27.80	0	16.1110	0	32.0370	0	23.447	0	27.565	0	244.2	4	98.7	4	-1E+10	1	-1E+10	1	-1E+10	1	-1E+10	1	-1E+10	1	-1E+10	1
4902663	41	C	09/12/2024	01:17	-127.640	47.857	0	28.70	0	15.9780	0	32.0260	0	23.468	0	28.458	0	246.4	4	99.3	4	-1E+10	1	-1E+10	1	-1E+10	1	-1E+10	1	-1E+10	1	-1E+10	1
4902663	41	C	09/12/2024	01:17	-127.640	47.857	0	29.90	0	15.5450	0	32.0450	0	23.578	0	29.647	0	248.5	4	99.3	4	-1E+10	1	-1E+10	1	-1E+10	1	-1E+10	1	-1E+10	1	-1E+10	1
4902663	41	C	09/12/2024	01:17	-127.640	47.857	0	31.20	0	15.1810	0	32.0640	0	23.672	0	30.936	0	250.8	4	99.6	4	-1E+10	1	-1E+10	1	-1E+10	1	-1E+10	1	-1E+10	1	-1E+10	1
4902663	41	C	09/12/2024	01:17	-127.640	47.857	0	32.10	0	14.6400	0	32.0840	0	23.803	0	31.829	0	251.9	4	98.9	4	-1E+10	1	-1E+10	1	-1E+10	1	-1E+10	1	-1E+10	1	-1E+10	1
4902663	41	C	09/12/2024	01:17	-127.640	47.857	0	33.00	0	14.5110	0	32.0950	0	23.839	0	32.721	0	252.2	4	98.8	4	-1E+10	1	-1E+10	1	-1E+10	1	-1E+10	1	-1E+10	1	-1E+10	1
4902663	41	C	09/12/2024	01:17	-127.640	47.857	0	33.90	0	14.3570	0	32.0790	0	23.859	0	33.613	0	253.4	4	98.9	4	-1E+10	1	-1E+10	1	-1E+10	1	-1E+10	1	-1E+10	1	-1E+10	1
4902663	41	C	09/12/2024	01:17	-127.640	47.857	0	34.80	0	14.2670	0	32.0900	0	23.886	0	34.506	0	254.2	4	99.1	4	-1E+10	1	-1E+10	1	-1E+10	1	-1E+10	1	-1E+10	1	-1E+10	1
4902663	41	C	09/12/2024	01:17	-127.640	47.857	0	35.70	0	14.0990	0	32.1140	0	23.939	0	35.398	0	255.3	4	99.2	4	-1E+10	1	-1E+10	1	-1E+10	1	-1E+10	1	-1E+10	1	-1E+10	1
4902663	41	C	09/12/2024	01:17	-127.640	47.857	0	36.50	0	13.9870	0	32.1050	0	23.955	0	36.191	0	256.5	4	99.4	4	-1E+10	1	-1E+10	1	-1E+10	1	-1E+10	1	-1E+10	1	-1E+10	1
4902663	41	C	09/12/2024	01:17	-127.640	47.857	0	37.80	0	13.5760	0	32.1360	0	24.063	0	37.480	0	258.2	4	99.3	4	-1E+10	1	-1E+10	1	-1E+10	1	-1E+10	1	-1E+10	1	-1E+10	1
4902663	41	C	09/12/2024	01:17	-127.640	47.857	0	38.90	0	13.5310	0	32.1390	0	24.074	0	38.570	0	258.8	4	99.4	4	-1E+10	1	-1E+10	1	-1E+10	1	-1E+10	1	-1E+10	1	-1E+10	1
4902663	41	C	09/12/2024	01:17	-127.640	47.857	0	39.90	0	13.4950	0	32.1360	0	24.079	0	39.562	0	259.5	4	99.6	4	-1E+10	1	-1E+10	1	-1E+10	1	-1E+10	1	-1E+10	1	-1E+10	1
4902663	41	C	09/12/2024	01:17	-127.640	47.857	0	40.90	0	13.4850	0	32.1310	0	24.077	0	40.553	0	260.4	4	100.0	4	-1E+10	1	-1E+10	1	-1E+10	1	-1E+10	1	-1E+10	1	-1E+10	1
4902663	41	C	09/12/2024	01:17	-127.640	47.857	0	41.90	0	13.3390	0	32.1400	0	24.113	0	41.545	0	261.7	4	100.2	4	-1E+10	1	-1E+10	1	-1E+10	1	-1E+10	1	-1E+10	1	-1E+10	1
4902663	41	C	09/12/2024	01:17	-127.640	47.857	0	43.00	0	13.2000	0	32.1420	0	24.142	0	42.635	0	263.1	4	100.4	4	-1E+10	1	-1E+10	1	-1E+10	1	-1E+10	1	-1E+10	1	-1E+10	1
4902663	41	C	09/12/2024	01:17	-127.640	47.857	0	43.80	0	12.9410	0	32.1950	0	24.234	0	43.428	0	263.9	4	100.2	4	-1E+10	1	-1E+10	1	-1E+10	1	-1E+10	1	-1E+10	1	-1E+10	1
4902663	41	C	09/12/2024	01:17	-127.640	47.857	0	44.70	0	12.6600	0	32.2040	0	24.295	0	44.321	0	263.9	4	99.6	4	-1E+10	1	-1E+10	1	-1E+10	1	-1E+10	1	-1E+10	1	-1E+10	1
4902663	41	C	09/12/2024	01:17	-127.640	47.857	0	45.50	0	12.0590	0	32.1900	0	24.398	0	45.114	0	263.6	4	98.3	4	-1E+10	1	-1E+10	1	-1E+10	1	-1E+10	1	-1E+10	1	-1E+10	1
4902663	41	C	09/12/2024	01:17	-127.640	47.857	0	46.90	0	11.6840	0	32.1830	0	24.462	0	46.502	0	259.8	4	96.1	4	-1E+10	1	-1E+10	1	-1E+10	1	-1E+10	1	-1E+10	1	-1E+10	1
4902663	41	C	09/12/2024	01:17	-127.640	47.857	0	48.40	0	11.5390	0	32.1910	0	24.494	0	47.989	0	255.2	4	94.1	4	-1E+10	1	-1E+10	1	-1E+10	1	-1E+10	1	-1E+10	1	-1E+10	1
4902663	41	C	09/12/2024	01:17	-127.640	47.857	0	49.40	0	11.0530	0	32.2210	0	24.604	0	48.980	0	253.8	4	92.7	4	-1E+10	1	-1E+10	1	-1E+10	1	-1E+10	1	-1E+10	1	-1E+10	1
4902663	41	C	09/12/2024	01:17	-127.640	47.857	0	50.40	0	10.8110	0	32.2180	0	24.644	0	49.972	0	252.0	4	91.5	4	-1E+10	1	-1E+10	1	-1E+10	1	-1E+10	1	-1E+10	1	-1E+10	1
4902663	41	C	09/12/2024	01:17	-127.640	47.857	0	51.40	0	10.5730	0	32.2410	0	24.703	0	50.963	0	250.4	4	90.5	4	-1E+10	1	-1E+10	1	-1E+10	1	-1E+10	1	-1E+10	1	-1E+10	1
4902663	41	C	09/12/2024	01:17	-127.640	47.857	0	52.50	0	10.5020	0	32.2330	0	24.709	0	52.054	0	248.5	4	89.7	4	-1E+10	1	-1E+10	1	-1E+10	1	-1E+10	1	-1E+10	1	-1E+10	1
4902663	41	C	09/12/2024	01:17	-127.640	47.857	0	53.60	0	10.3260	0	32.2660	0	24.765	0	53.144	0	247.1	4	88.8	4	-1E+10	1	-1E+10	1	-1E+10	1	-1E+10	1	-1E+10	1	-1E+10	1
4902663	41	C	09/12/2024	01:17	-127.640	47.857	0	54.70	0	10.2290	0	32.2520	0	24.770	0	54.235	0	246.5	4	88.5	4	-1E+10	1	-1E+10	1	-1E+10	1	-1E+10	1	-1E+10	1	-1E+10	1
4902663	41	C	09/12/2024	01:17	-127.640	47.857	0	55.70	0	10.2030	0	32.2530	0	24.775	0	55.226	0	245.7	4	88.1	4	-1E+10	1	-1E+10	1	-1E+10	1	-1E+10	1	-1E+10	1	-1E+10	1
4902663	41	C	09/12/2024	01:17	-127.640	47.857	0	56.70	0	10.1360	0	32.2540	0	24.787	0	56.217	0	244.9	4	87.7	4	-1E+10	1	-1E+10	1	-1E+10	1	-1E+10	1	-1E+10	1	-1E+10	1
4902663	41	C	09/12/2024	01:17	-127.640	47.857	0	57.60	0	10.0320	0	32.2610	0	24.810	0	57.109	0	243.9	4	87.2	4	-1E+10	1	-1E+10	1	-1E+10	1	-1E+10	1	-1E+10	1	-1E+10	1
4902663	41	C	09/12/2024	01:17	-127.640	47.857	0	58.70	0	9.8970	0	32.2800	0	24.847	0	58.200	0	243.2	4	86.7	4	-1E+10	1	-1E+10	1	-1E+10	1	-1E+10	1	-1E+10	1	-1E+10	1
4902663	41	C	09/12/2024	01:17	-127.640	47.857	0	59.80	0	9.7390	0	32.2940	0	24.884	0	59.290	0	242.2	4	86.0	4	-1E+10	1	-1E+10	1	-1E+10	1	-1E+10	1	-1E+10	1	-1E+10	1
4902663	41	C	09/12/2024	01:17	-127.640	47.857	0	61.00	0	9.6230	0	32.3060	0	24.912	0	60.480	0	241.1	4	85.4	4	-1E+10	1	-1E+10	1	-1E+10	1	-1E+10	1	-1E+10	1	-1E+10	1
4902663	41	C	09/12/2024	01:17	-127.640	47.857	0	61.80	0	9.5720	0	32.3140	0	24.927	0	61.273	0	240.3	4	85.0	4	-1E+10	1	-1E+10	1	-1E+10	1	-1E+10	1	-1E+10	1	-1E+10	1
4902663	41	C	09/12/2024	01:17	-127.640	47.857	0	62.80	0	9.5030	0	32.3170	0	24.940	0	62.264	0	239.0	4	84.5	4	-1E+10	1	-1E+10	1	-1E+10	1	-1E+10	1	-1E+10	1	-1E+10	1
4902663	41	C	09/12/2024	01:17	-127.640	47.857	0	64.00	0	9.3740	0	32.3310	0	24.971	0	63.454	0	237.3	4	83.6	4	-1E+10	1	-1E+10	1	-1E+10	1	-1E+10	1	-1E+10	1	-1E+10	1
4902663	41	C	09/12/2024	01:17	-127.640	47.857	0	65.00	0	9.2720	0	32.3350	0	24.991	0	64.445	0	235.0	4	82.6	4	-1E+10	1	-1E+10	1	-1E+10	1	-1E+10	1	-1E+10	1	-1E+10	1
4902663	41	C	09/12/2024	01:17	-127.640	47.857	0	66.10	0	9.2170	0	32.3340	0	24.999	0	65.536	0	232.8	4	81.8	4	-1E+10	1	-1E+10	1	-1E+10	1	-1E+10	1	-1E+10	1	-1E+10	1
4902663	41	C	09/12/2024	01:17	-127.640	47.857	0	66.80	0	9.2060	0	32.3340	0	25.000	0	66.230	0	231.3	4	81.2	4	-1E+10	1	-1E+10	1	-1E+10	1	-1E+10	1	-1E+10	1	-1E+10	1
4902663	41	C	09/12/2024	01:17	-127.640	47.857	0	67.90	0	9.0740	0	32.3630	0	25.044	0	67.320	0	229.6	4	80.4	4	-1E+10	1	-1E+10	1	-1E+10	1	-1E+10	1	-1E+10	1	-1E+10	1
4902663	41	C	09/12/2024	01:17	-127.640	47.857	0	69.10	0	8.9260	0	32.4090	0	25.103	0	68.510	0	227.8	4	79.5	4	-1E+10	1	-1E+10	1	-1E+10	1	-1E+10	1	-1E+10	1	-1E+10	1
4902663	41	C	09/12/2024	01:17	-127.640	47.857	0	69.90	0	8.8250	0	32.4260	0	25.131	0	69.303	0	226.9	4	79.0	4	-1E+10	1	-1E+10	1	-1E+10	1	-1E+10	1	-1E+10	1	-1E+10	1
4902663	41	C	09/12/2024	01:17	-127.640	47.857	0	70.80	0	8.7830	0	32.4360	0	25.146	0	70.195	0	225.9	4	78.6	4	-1E+10	1	-1E+10	1	-1E+10	1	-1E+10	1	-1E+10	1	-1E+10	1
4902663	41	C	09/12/2024	01:17	-127.640	47.857	0	71.70	0	8.7010	0	32.4660	0	25.182	0	71.087	0	224.8	4	78.1	4	-1E+10	1	-1E+10	1	-1E+10	1	-1E+10	1	-1E+10	1	-1E+10	1
4902663	41	C	09/12/2024	01:17	-127.640	47.857	0	72.60	0	8.6940	0	32.4640	0	25.181	0	71.979	0	223.6	4	77.7	4	-1E+10	1	-1E+10	1	-1E+10	1	-1E+10	1	-1E+10	1	-1E+10	1
4902663	41	C	09/12/2024	01:17	-127.640	47.857	0	73.90	0	8.6410	0	32.4780	0	25.200	0	73.268	0	221.8	4	77.0	4	-1E+10	1	-1E+10	1	-1E+10	1	-1E+10	1	-1E+10	1	-1E+10	1
4902663	41	C	09/12/2024	01:17	-127.640	47.857	0	75.30	0	8.6110	0	32.4860	0	25.211	0	74.655	0	220.0	4	76.3	4	-1E+10	1	-1E+10	1	-1E+10	1	-1E+10	1	-1E+10	1	-1E+10	1
4902663	41	C	09/12/2024	01:17	-127.640	47.857	0	76.20	0	8.6090	0	32.4890	0	25.214	0	75.548	0	218.4	4	75.8	4	-1E+10	1	-1E+10	1	-1E+10	1	-1E+10	1	-1E+10	1	-1E+10	1
4902663	41	C	09/12/2024	01:17	-127.640	47.857	0	77.10	0	8.5950	0	32.5010	0	25.225	0	76.440	0	216.7	4	75.1	4	-1E+10	1	-1E+10	1	-1E+10	1	-1E+10	1	-1E+10	1	-1E+10	1
4902663	41	C	09/12/2024	01:17	-127.640	47.857	0	78.00	0	8.5170	0	32.5140	0	25.247	0	77.332	0	214.9	4	74.4	4	-1E+10	1	-1E+10	1	-1E+10	1	-1E+10	1	-1E+10	1	-1E+10	1
4902663	41	C	09/12/2024	01:17	-127.640	47.857	0	78.90	0	8.4870	0	32.5210	0	25.257	0	78.224	0	213.4	4	73.9	4	-1E+10	1	-1E+10	1	-1E+10	1	-1E+10	1	-1E+10	1	-1E+10	1
4902663	41	C	09/12/2024	01:17	-127.640	47.857	0	79.80	0	8.4670	0	32.5300	0	25.267	0	79.116	0	211.5	4	73.2	4	-1E+10	1	-1E+10	1	-1E+10	1	-1E+10	1	-1E+10	1	-1E+10	1
4902663	41	C	09/12/2024	01:17	-127.640	47.857	0	80.80	0	8.4350	0	32.5390	0	25.279	0	80.107	0	209.3	4	72.4	4	-1E+10	1	-1E+10	1	-1E+10	1	-1E+10	1	-1E+10	1	-1E+10	1
4902663	41	C	09/12/2024	01:17	-127.640	47.857	0	81.70	0	8.3940	0	32.5410	0	25.287	0	80.999	0	206.6	4	71.3	4	-1E+10	1	-1E+10	1	-1E+10	1	-1E+10	1	-1E+10	1	-1E+10	1
4902663	41	C	09/12/2024	01:17	-127.640	47.857	0	82.70	0	8.2200	0	32.5490	0	25.319	0	81.991	0	203.8	4	70.1	4	-1E+10	1	-1E+10	1	-1E+10	1	-1E+10	1	-1E+10	1	-1E+10	1
4902663	41	C	09/12/2024	01:17	-127.640	47.857	0	83.60	0	8.2140	0	32.5890	0	25.351	0	82.883	0	200.9	4	69.1	4	-1E+10	1	-1E+10	1	-1E+10	1	-1E+10	1	-1E+10	1	-1E+10	1
4902663	41	C	09/12/2024	01:17	-127.640	47.857	0	84.50	0	8.2770	0	32.6360	0	25.379	0	83.775	0	203.1	4	70.0	4	-1E+10	1	-1E+10	1	-1E+10	1	-1E+10	1	-1E+10	1	-1E+10	1
4902663	41	C	09/12/2024	01:17	-127.640	47.857	0	85.90	0	8.1910	0	32.7030	0	25.444	0	85.163	0	200.2	4	68.9	4	-1E+10	1	-1E+10	1	-1E+10	1	-1E+10	1	-1E+10	1	-1E+10	1
4902663	41	C	09/12/2024	01:17	-127.640	47.857	0	87.40	0	8.1880	0	32.7220	0	25.459	0	86.649	0	197.4	4	68.0	4	-1E+10	1	-1E+10	1	-1E+10	1	-1E+10	1	-1E+10	1	-1E+10	1
4902663	41	C	09/12/2024	01:17	-127.640	47.857	0	88.30	0	8.2020	0	32.7590	0	25.486	0	87.541	0	195.6	4	67.4	4	-1E+10	1	-1E+10	1	-1E+10	1	-1E+10	1	-1E+10	1	-1E+10	1
4902663	41	C	09/12/2024	01:17	-127.640	47.857	0	89.40	0	8.1420	0	32.7690	0	25.503	0	88.632	0	193.5	4	66.6	4	-1E+10	1	-1E+10	1	-1E+10	1	-1E+10	1	-1E+10	1	-1E+10	1
4902663	41	C	09/12/2024	01:17	-127.640	47.857	0	90.10	0	8.1120	0	32.7950	0	25.528	0	89.326	0	191.4	4	65.8	4	-1E+10	1	-1E+10	1	-1E+10	1	-1E+10	1	-1E+10	1	-1E+10	1
4902663	41	C	09/12/2024	01:17	-127.640	47.857	0	90.80	0	8.1540	0	32.8290	0	25.548	0	90.019	0	189.8	4	65.3	4	-1E+10	1	-1E+10	1	-1E+10	1	-1E+10	1	-1E+10	1	-1E+10	1
4902663	41	C	09/12/2024	01:17	-127.640	47.857	0	91.90	0	8.2380	0	32.8600	0	25.560	0	91.110	0	187.9	4	64.8	4	-1E+10	1	-1E+10	1	-1E+10	1	-1E+10	1	-1E+10	1	-1E+10	1
4902663	41	C	09/12/2024	01:17	-127.640	47.857	0	93.00	0	8.2850	0	32.8850	0	25.573	0	92.200	0	187.0	4	64.6	4	-1E+10	1	-1E+10	1	-1E+10	1	-1E+10	1	-1E+10	1	-1E+10	1
4902663	41	C	09/12/2024	01:17	-127.640	47.857	0	93.80	0	8.2800	0	32.8860	0	25.574	0	92.993	0	186.7	4	64.5	4	-1E+10	1	-1E+10	1	-1E+10	1	-1E+10	1	-1E+10	1	-1E+10	1
4902663	41	C	09/12/2024	01:17	-127.640	47.857	0	94.90	0	8.2380	0	32.8850	0	25.580	0	94.083	0	185.9	4	64.2	4	-1E+10	1	-1E+10	1	-1E+10	1	-1E+10	1	-1E+10	1	-1E+10	1
4902663	41	C	09/12/2024	01:17	-127.640	47.857	0	96.00	0	8.2020	0	32.8980	0	25.595	0	95.174	0	184.9	4	63.8	4	-1E+10	1	-1E+10	1	-1E+10	1	-1E+10	1	-1E+10	1	-1E+10	1
4902663	41	C	09/12/2024	01:17	-127.640	47.857	0	96.80	0	8.0860	0	32.9160	0	25.627	0	95.966	0	183.8	4	63.2	4	-1E+10	1	-1E+10	1	-1E+10	1	-1E+10	1	-1E+10	1	-1E+10	1
4902663	41	C	09/12/2024	01:17	-127.640	47.857	0	98.00	0	7.9240	0	32.9760	0	25.697	0	97.156	0	182.5	4	62.6	4	-1E+10	1	-1E+10	1	-1E+10	1	-1E+10	1	-1E+10	1	-1E+10	1
4902663	41	C	09/12/2024	01:17	-127.640	47.857	0	99.30	0	7.7700	0	33.0000	0	25.738	0	98.444	0	180.3	4	61.6	4	-1E+10	1	-1E+10	1	-1E+10	1	-1E+10	1	-1E+10	1	-1E+10	1
4902663	41	C	09/12/2024	01:17	-127.640	47.857	0	100.10	0	7.7510	0	33.0140	0	25.752	0	99.237	0	178.8	4	61.1	4	-1E+10	1	-1E+10	1	-1E+10	1	-1E+10	1	-1E+10	1	-1E+10	1
4902663	41	C	09/12/2024	01:17	-127.640	47.857	0	101.00	0	7.7430	0	33.0380	0	25.772	0	100.129	0	177.5	4	60.6	4	-1E+10	1	-1E+10	1	-1E+10	1	-1E+10	1	-1E+10	1	-1E+10	1
4902663	41	C	09/12/2024	01:17	-127.640	47.857	0	101.90	0	7.7230	0	33.0530	0	25.787	0	101.021	0	176.0	4	60.1	4	-1E+10	1	-1E+10	1	-1E+10	1	-1E+10	1	-1E+10	1	-1E+10	1
4902663	41	C	09/12/2024	01:17	-127.640	47.857	0	102.70	0	7.6970	0	33.0630	0	25.798	0	101.814	0	174.3	4	59.5	4	-1E+10	1	-1E+10	1	-1E+10	1	-1E+10	1	-1E+10	1	-1E+10	1
4902663	41	C	09/12/2024	01:17	-127.640	47.857	0	103.60	0	7.6580	0	33.0790	0	25.816	0	102.706	0	172.8	4	58.9	4	-1E+10	1	-1E+10	1	-1E+10	1	-1E+10	1	-1E+10	1	-1E+10	1
4902663	41	C	09/12/2024	01:17	-127.640	47.857	0	104.90	0	7.5930	0	33.1280	0	25.864	0	103.995	0	170.4	4	58.1	4	-1E+10	1	-1E+10	1	-1E+10	1	-1E+10	1	-1E+10	1	-1E+10	1
4902663	41	C	09/12/2024	01:17	-127.640	47.857	0	106.40	0	7.5510	0	33.1650	0	25.899	0	105.481	0	168.5	4	57.4	4	-1E+10	1	-1E+10	1	-1E+10	1	-1E+10	1	-1E+10	1	-1E+10	1
4902663	41	C	09/12/2024	01:17	-127.640	47.857	0	107.30	0	7.5340	0	33.1820	0	25.915	0	106.373	0	167.2	4	56.9	4	-1E+10	1	-1E+10	1	-1E+10	1	-1E+10	1	-1E+10	1	-1E+10	1
4902663	41	C	09/12/2024	01:17	-127.640	47.857	0	108.30	0	7.5120	0	33.2070	0	25.938	0	107.364	0	165.5	4	56.3	4	-1E+10	1	-1E+10	1	-1E+10	1	-1E+10	1	-1E+10	1	-1E+10	1
4902663	41	C	09/12/2024	01:17	-127.640	47.857	0	109.20	0	7.4900	0	33.2440	0	25.970	0	108.256	0	164.0	4	55.8	4	-1E+10	1	-1E+10	1	-1E+10	1	-1E+10	1	-1E+10	1	-1E+10	1
4902663	41	C	09/12/2024	01:17	-127.640	47.857	0	110.20	0	7.4670	0	33.2830	0	26.004	0	109.248	0	162.8	4	55.4	4	-1E+10	1	-1E+10	1	-1E+10	1	-1E+10	1	-1E+10	1	-1E+10	1
4902663	41	C	09/12/2024	01:17	-127.640	47.857	0	111.20	0	7.4590	0	33.2930	0	26.013	0	110.239	0	161.6	4	55.0	4	-1E+10	1	-1E+10	1	-1E+10	1	-1E+10	1	-1E+10	1	-1E+10	1
4902663	41	C	09/12/2024	01:17	-127.640	47.857	0	112.10	0	7.4490	0	33.3050	0	26.023	0	111.131	0	160.3	4	54.5	4	-1E+10	1	-1E+10	1	-1E+10	1	-1E+10	1	-1E+10	1	-1E+10	1
4902663	41	C	09/12/2024	01:17	-127.640	47.857	0	113.10	0	7.4510	0	33.3150	0	26.031	0	112.122	0	158.9	4	54.0	4	-1E+10	1	-1E+10	1	-1E+10	1	-1E+10	1	-1E+10	1	-1E+10	1
4902663	41	C	09/12/2024	01:17	-127.640	47.857	0	114.10	0	7.4570	0	33.3250	0	26.038	0	113.113	0	157.3	4	53.5	4	-1E+10	1	-1E+10	1	-1E+10	1	-1E+10	1	-1E+10	1	-1E+10	1
4902663	41	C	09/12/2024	01:17	-127.640	47.857	0	115.10	0	7.4770	0	33.3530	0	26.057	0	114.104	0	155.6	4	52.9	4	-1E+10	1	-1E+10	1	-1E+10	1	-1E+10	1	-1E+10	1	-1E+10	1
4902663	41	C	09/12/2024	01:17	-127.640	47.857	0	116.10	0	7.4860	0	33.3840	0	26.080	0	115.095	0	154.0	4	52.4	4	-1E+10	1	-1E+10	1	-1E+10	1	-1E+10	1	-1E+10	1	-1E+10	1
4902663	41	C	09/12/2024	01:17	-127.640	47.857	0	117.10	0	7.4930	0	33.3900	0	26.084	0	116.086	0	152.5	4	51.9	4	-1E+10	1	-1E+10	1	-1E+10	1	-1E+10	1	-1E+10	1	-1E+10	1
4902663	41	C	09/12/2024	01:17	-127.640	47.857	0	118.10	0	7.4840	0	33.4070	0	26.099	0	117.077	0	151.1	4	51.5	4	-1E+10	1	-1E+10	1	-1E+10	1	-1E+10	1	-1E+10	1	-1E+10	1
4902663	41	C	09/12/2024	01:17	-127.640	47.857	0	119.10	0	7.4760	0	33.4300	0	26.118	0	118.068	0	150.0	4	51.1	4	-1E+10	1	-1E+10	1	-1E+10	1	-1E+10	1	-1E+10	1	-1E+10	1
4902663	41	C	09/12/2024	01:17	-127.640	47.857	0	120.00	0	7.4770	0	33.4360	0	26.123	0	118.960	0	148.7	4	50.6	4	-1E+10	1	-1E+10	1	-1E+10	1	-1E+10	1	-1E+10	1	-1E+10	1
4902663	41	C	09/12/2024	01:17	-127.640	47.857	0	121.10	0	7.4630	0	33.4560	0	26.140	0	120.050	0	147.2	4	50.1	4	-1E+10	1	-1E+10	1	-1E+10	1	-1E+10	1	-1E+10	1	-1E+10	1
4902663	41	C	09/12/2024	01:17	-127.640	47.857	0	121.80	0	7.4520	0	33.4680	0	26.151	0	120.744	0	146.2	4	49.8	4	-1E+10	1	-1E+10	1	-1E+10	1	-1E+10	1	-1E+10	1	-1E+10	1
4902663	41	C	09/12/2024	01:17	-127.640	47.857	0	122.90	0	7.4700	0	33.4820	0	26.160	0	121.834	0	144.5	4	49.2	4	-1E+10	1	-1E+10	1	-1E+10	1	-1E+10	1	-1E+10	1	-1E+10	1
4902663	41	C	09/12/2024	01:17	-127.640	47.857	0	124.00	0	7.4790	0	33.4880	0	26.163	0	122.924	0	142.6	4	48.6	4	-1E+10	1	-1E+10	1	-1E+10	1	-1E+10	1	-1E+10	1	-1E+10	1
4902663	41	C	09/12/2024	01:17	-127.640	47.857	0	124.80	0	7.4950	0	33.4980	0	26.169	0	123.717	0	141.1	4	48.1	4	-1E+10	1	-1E+10	1	-1E+10	1	-1E+10	1	-1E+10	1	-1E+10	1
4902663	41	C	09/12/2024	01:17	-127.640	47.857	0	125.90	0	7.5600	0	33.5210	0	26.178	0	124.807	0	139.3	4	47.5	4	-1E+10	1	-1E+10	1	-1E+10	1	-1E+10	1	-1E+10	1	-1E+10	1
4902663	41	C	09/12/2024	01:17	-127.640	47.857	0	127.10	0	7.6000	0	33.5360	0	26.184	0	125.996	0	137.5	4	47.0	4	-1E+10	1	-1E+10	1	-1E+10	1	-1E+10	1	-1E+10	1	-1E+10	1
4902663	41	C	09/12/2024	01:17	-127.640	47.857	0	127.90	0	7.5920	0	33.5370	0	26.186	0	126.789	0	136.2	4	46.5	4	-1E+10	1	-1E+10	1	-1E+10	1	-1E+10	1	-1E+10	1	-1E+10	1
4902663	41	C	09/12/2024	01:17	-127.640	47.857	0	129.00	0	7.5810	0	33.5440	0	26.193	0	127.879	0	133.9	4	45.7	4	-1E+10	1	-1E+10	1	-1E+10	1	-1E+10	1	-1E+10	1	-1E+10	1
4902663	41	C	09/12/2024	01:17	-127.640	47.857	0	130.20	0	7.6310	0	33.5670	0	26.204	0	129.068	0	131.8	4	45.1	4	-1E+10	1	-1E+10	1	-1E+10	1	-1E+10	1	-1E+10	1	-1E+10	1
4902663	41	C	09/12/2024	01:17	-127.640	47.857	0	131.00	0	7.6720	0	33.5790	0	26.208	0	129.861	0	130.5	4	44.7	4	-1E+10	1	-1E+10	1	-1E+10	1	-1E+10	1	-1E+10	1	-1E+10	1
4902663	41	C	09/12/2024	01:17	-127.640	47.857	0	131.70	0	7.7590	0	33.6020	0	26.213	0	130.555	0	129.5	4	44.4	4	-1E+10	1	-1E+10	1	-1E+10	1	-1E+10	1	-1E+10	1	-1E+10	1
4902663	41	C	09/12/2024	01:17	-127.640	47.857	0	132.90	0	7.8010	0	33.6250	0	26.225	0	131.744	0	128.5	4	44.2	4	-1E+10	1	-1E+10	1	-1E+10	1	-1E+10	1	-1E+10	1	-1E+10	1
4902663	41	C	09/12/2024	01:17	-127.640	47.857	0	134.10	0	7.7880	0	33.6460	0	26.244	0	132.933	0	127.8	4	43.9	4	-1E+10	1	-1E+10	1	-1E+10	1	-1E+10	1	-1E+10	1	-1E+10	1
4902663	41	C	09/12/2024	01:17	-127.640	47.857	0	134.90	0	7.7820	0	33.6510	0	26.248	0	133.726	0	127.3	4	43.7	4	-1E+10	1	-1E+10	1	-1E+10	1	-1E+10	1	-1E+10	1	-1E+10	1
4902663	41	C	09/12/2024	01:17	-127.640	47.857	0	135.70	0	7.7730	0	33.6540	0	26.252	0	134.519	0	126.7	4	43.5	4	-1E+10	1	-1E+10	1	-1E+10	1	-1E+10	1	-1E+10	1	-1E+10	1
4902663	41	C	09/12/2024	01:17	-127.640	47.857	0	136.90	0	7.7680	0	33.6560	0	26.254	0	135.708	0	125.7	4	43.2	4	-1E+10	1	-1E+10	1	-1E+10	1	-1E+10	1	-1E+10	1	-1E+10	1
4902663	41	C	09/12/2024	01:17	-127.640	47.857	0	138.10	0	7.7530	0	33.6760	0	26.272	0	136.897	0	124.7	4	42.8	4	-1E+10	1	-1E+10	1	-1E+10	1	-1E+10	1	-1E+10	1	-1E+10	1
4902663	41	C	09/12/2024	01:17	-127.640	47.857	0	138.90	0	7.7530	0	33.6880	0	26.282	0	137.690	0	124.2	4	42.6	4	-1E+10	1	-1E+10	1	-1E+10	1	-1E+10	1	-1E+10	1	-1E+10	1
4902663	41	C	09/12/2024	01:17	-127.640	47.857	0	139.70	0	7.7580	0	33.6940	0	26.286	0	138.483	0	123.9	4	42.6	4	-1E+10	1	-1E+10	1	-1E+10	1	-1E+10	1	-1E+10	1	-1E+10	1
4902663	41	C	09/12/2024	01:17	-127.640	47.857	0	140.90	0	7.7570	0	33.7000	0	26.291	0	139.672	0	123.6	4	42.4	4	-1E+10	1	-1E+10	1	-1E+10	1	-1E+10	1	-1E+10	1	-1E+10	1
4902663	41	C	09/12/2024	01:17	-127.640	47.857	0	142.20	0	7.7540	0	33.7030	0	26.293	0	140.960	0	123.3	4	42.3	4	-1E+10	1	-1E+10	1	-1E+10	1	-1E+10	1	-1E+10	1	-1E+10	1
4902663	41	C	09/12/2024	01:17	-127.640	47.857	0	143.00	0	7.7480	0	33.7050	0	26.296	0	141.753	0	123.0	4	42.2	4	-1E+10	1	-1E+10	1	-1E+10	1	-1E+10	1	-1E+10	1	-1E+10	1
4902663	41	C	09/12/2024	01:17	-127.640	47.857	0	143.80	0	7.7200	0	33.7130	0	26.306	0	142.546	0	122.9	4	42.2	4	-1E+10	1	-1E+10	1	-1E+10	1	-1E+10	1	-1E+10	1	-1E+10	1
4902663	41	C	09/12/2024	01:17	-127.640	47.857	0	144.90	0	7.6960	0	33.7260	0	26.320	0	143.636	0	122.8	4	42.1	4	-1E+10	1	-1E+10	1	-1E+10	1	-1E+10	1	-1E+10	1	-1E+10	1
4902663	41	C	09/12/2024	01:17	-127.640	47.857	0	146.10	0	7.6710	0	33.7310	0	26.327	0	144.825	0	122.8	4	42.1	4	-1E+10	1	-1E+10	1	-1E+10	1	-1E+10	1	-1E+10	1	-1E+10	1
4902663	41	C	09/12/2024	01:17	-127.640	47.857	0	146.90	0	7.6560	0	33.7320	0	26.330	0	145.617	0	122.7	4	42.1	4	-1E+10	1	-1E+10	1	-1E+10	1	-1E+10	1	-1E+10	1	-1E+10	1
4902663	41	C	09/12/2024	01:17	-127.640	47.857	0	147.70	0	7.5990	0	33.7390	0	26.344	0	146.410	0	122.5	4	41.9	4	-1E+10	1	-1E+10	1	-1E+10	1	-1E+10	1	-1E+10	1	-1E+10	1
4902663	41	C	09/12/2024	01:17	-127.640	47.857	0	148.70	0	7.5570	0	33.7370	0	26.348	0	147.401	0	122.2	4	41.8	4	-1E+10	1	-1E+10	1	-1E+10	1	-1E+10	1	-1E+10	1	-1E+10	1
4902663	41	C	09/12/2024	01:17	-127.640	47.857	0	150.00	0	7.5430	0	33.7440	0	26.356	0	148.689	0	121.3	4	41.4	4	-1E+10	1	-1E+10	1	-1E+10	1	-1E+10	1	-1E+10	1	-1E+10	1
4902663	41	C	09/12/2024	01:17	-127.640	47.857	0	151.30	0	7.5540	0	33.7580	0	26.365	0	149.977	0	120.3	4	41.1	4	-1E+10	1	-1E+10	1	-1E+10	1	-1E+10	1	-1E+10	1	-1E+10	1
4902663	41	C	09/12/2024	01:17	-127.640	47.857	0	152.10	0	7.5410	0	33.7670	0	26.374	0	150.770	0	119.7	4	40.9	4	-1E+10	1	-1E+10	1	-1E+10	1	-1E+10	1	-1E+10	1	-1E+10	1
4902663	41	C	09/12/2024	01:17	-127.640	47.857	0	152.90	0	7.5280	0	33.7820	0	26.388	0	151.563	0	119.1	4	40.7	4	-1E+10	1	-1E+10	1	-1E+10	1	-1E+10	1	-1E+10	1	-1E+10	1
4902663	41	C	09/12/2024	01:17	-127.640	47.857	0	153.80	0	7.5190	0	33.7900	0	26.396	0	152.455	0	118.6	4	40.5	4	-1E+10	1	-1E+10	1	-1E+10	1	-1E+10	1	-1E+10	1	-1E+10	1
4902663	41	C	09/12/2024	01:17	-127.640	47.857	0	155.00	0	7.5070	0	33.7990	0	26.404	0	153.644	0	118.0	4	40.3	4	-1E+10	1	-1E+10	1	-1E+10	1	-1E+10	1	-1E+10	1	-1E+10	1
4902663	41	C	09/12/2024	01:17	-127.640	47.857	0	156.20	0	7.4940	0	33.8080	0	26.413	0	154.833	0	117.5	4	40.1	4	-1E+10	1	-1E+10	1	-1E+10	1	-1E+10	1	-1E+10	1	-1E+10	1
4902663	41	C	09/12/2024	01:17	-127.640	47.857	0	157.10	0	7.4690	0	33.8120	0	26.420	0	155.724	0	117.2	4	40.0	4	-1E+10	1	-1E+10	1	-1E+10	1	-1E+10	1	-1E+10	1	-1E+10	1
4902663	41	C	09/12/2024	01:17	-127.640	47.857	0	157.90	0	7.4470	0	33.8120	0	26.423	0	156.517	0	116.9	4	39.9	4	-1E+10	1	-1E+10	1	-1E+10	1	-1E+10	1	-1E+10	1	-1E+10	1
4902663	41	C	09/12/2024	01:17	-127.640	47.857	0	158.80	0	7.4400	0	33.8110	0	26.423	0	157.409	0	116.5	4	39.7	4	-1E+10	1	-1E+10	1	-1E+10	1	-1E+10	1	-1E+10	1	-1E+10	1
4902663	41	C	09/12/2024	01:17	-127.640	47.857	0	159.60	0	7.4270	0	33.8170	0	26.430	0	158.202	0	116.2	4	39.6	4	-1E+10	1	-1E+10	1	-1E+10	1	-1E+10	1	-1E+10	1	-1E+10	1
4902663	41	C	09/12/2024	01:17	-127.640	47.857	0	160.90	0	7.4230	0	33.8280	0	26.439	0	159.490	0	115.8	4	39.5	4	-1E+10	1	-1E+10	1	-1E+10	1	-1E+10	1	-1E+10	1	-1E+10	1
4902663	41	C	09/12/2024	01:17	-127.640	47.857	0	162.20	0	7.4250	0	33.8330	0	26.443	0	160.778	0	115.6	4	39.4	4	-1E+10	1	-1E+10	1	-1E+10	1	-1E+10	1	-1E+10	1	-1E+10	1
4902663	41	C	09/12/2024	01:17	-127.640	47.857	0	163.10	0	7.4160	0	33.8370	0	26.447	0	161.670	0	115.4	4	39.4	4	-1E+10	1	-1E+10	1	-1E+10	1	-1E+10	1	-1E+10	1	-1E+10	1
4902663	41	C	09/12/2024	01:17	-127.640	47.857	0	163.90	0	7.4060	0	33.8370	0	26.449	0	162.462	0	115.2	4	39.3	4	-1E+10	1	-1E+10	1	-1E+10	1	-1E+10	1	-1E+10	1	-1E+10	1
4902663	41	C	09/12/2024	01:17	-127.640	47.857	0	164.80	0	7.4010	0	33.8380	0	26.450	0	163.354	0	115.0	4	39.2	4	-1E+10	1	-1E+10	1	-1E+10	1	-1E+10	1	-1E+10	1	-1E+10	1
4902663	41	C	09/12/2024	01:17	-127.640	47.857	0	165.70	0	7.3870	0	33.8400	0	26.454	0	164.246	0	114.8	4	39.1	4	-1E+10	1	-1E+10	1	-1E+10	1	-1E+10	1	-1E+10	1	-1E+10	1
4902663	41	C	09/12/2024	01:17	-127.640	47.857	0	167.00	0	7.3550	0	33.8430	0	26.461	0	165.534	0	114.7	4	39.1	4	-1E+10	1	-1E+10	1	-1E+10	1	-1E+10	1	-1E+10	1	-1E+10	1
4902663	41	C	09/12/2024	01:17	-127.640	47.857	0	168.30	0	7.3380	0	33.8500	0	26.469	0	166.822	0	114.6	4	39.0	4	-1E+10	1	-1E+10	1	-1E+10	1	-1E+10	1	-1E+10	1	-1E+10	1
4902663	41	C	09/12/2024	01:17	-127.640	47.857	0	169.20	0	7.3020	0	33.8540	0	26.477	0	167.714	0	114.5	4	39.0	4	-1E+10	1	-1E+10	1	-1E+10	1	-1E+10	1	-1E+10	1	-1E+10	1
4902663	41	C	09/12/2024	01:17	-127.640	47.857	0	170.10	0	7.2830	0	33.8480	0	26.475	0	168.605	0	114.4	4	38.9	4	-1E+10	1	-1E+10	1	-1E+10	1	-1E+10	1	-1E+10	1	-1E+10	1
4902663	41	C	09/12/2024	01:17	-127.640	47.857	0	171.00	0	7.2690	0	33.8480	0	26.477	0	169.497	0	114.2	4	38.8	4	-1E+10	1	-1E+10	1	-1E+10	1	-1E+10	1	-1E+10	1	-1E+10	1
4902663	41	C	09/12/2024	01:17	-127.640	47.857	0	171.80	0	7.2450	0	33.8510	0	26.482	0	170.290	0	114.1	4	38.8	4	-1E+10	1	-1E+10	1	-1E+10	1	-1E+10	1	-1E+10	1	-1E+10	1
4902663	41	C	09/12/2024	01:17	-127.640	47.857	0	172.70	0	7.2170	0	33.8560	0	26.490	0	171.181	0	113.9	4	38.7	4	-1E+10	1	-1E+10	1	-1E+10	1	-1E+10	1	-1E+10	1	-1E+10	1
4902663	41	C	09/12/2024	01:17	-127.640	47.857	0	173.60	0	7.1950	0	33.8560	0	26.493	0	172.073	0	113.8	4	38.6	4	-1E+10	1	-1E+10	1	-1E+10	1	-1E+10	1	-1E+10	1	-1E+10	1
4902663	41	C	09/12/2024	01:17	-127.640	47.857	0	174.90	0	7.1770	0	33.8550	0	26.495	0	173.361	0	113.6	4	38.5	4	-1E+10	1	-1E+10	1	-1E+10	1	-1E+10	1	-1E+10	1	-1E+10	1
4902663	41	C	09/12/2024	01:17	-127.640	47.857	0	176.30	0	7.1530	0	33.8610	0	26.503	0	174.748	0	113.4	4	38.4	4	-1E+10	1	-1E+10	1	-1E+10	1	-1E+10	1	-1E+10	1	-1E+10	1
4902663	41	C	09/12/2024	01:17	-127.640	47.857	0	177.20	0	7.1410	0	33.8600	0	26.504	0	175.640	0	113.2	4	38.4	4	-1E+10	1	-1E+10	1	-1E+10	1	-1E+10	1	-1E+10	1	-1E+10	1
4902663	41	C	09/12/2024	01:17	-127.640	47.857	0	178.10	0	7.1290	0	33.8600	0	26.506	0	176.532	0	113.0	4	38.3	4	-1E+10	1	-1E+10	1	-1E+10	1	-1E+10	1	-1E+10	1	-1E+10	1
4902663	41	C	09/12/2024	01:17	-127.640	47.857	0	179.00	0	7.1210	0	33.8600	0	26.507	0	177.423	0	112.8	4	38.2	4	-1E+10	1	-1E+10	1	-1E+10	1	-1E+10	1	-1E+10	1	-1E+10	1
4902663	41	C	09/12/2024	01:17	-127.640	47.857	0	179.90	0	7.1140	0	33.8610	0	26.508	0	178.315	0	112.7	4	38.2	4	-1E+10	1	-1E+10	1	-1E+10	1	-1E+10	1	-1E+10	1	-1E+10	1
4902663	41	C	09/12/2024	01:17	-127.640	47.857	0	180.80	0	7.1010	0	33.8620	0	26.511	0	179.207	0	112.5	4	38.1	4	-1E+10	1	-1E+10	1	-1E+10	1	-1E+10	1	-1E+10	1	-1E+10	1
4902663	41	C	09/12/2024	01:17	-127.640	47.857	0	181.70	0	7.0950	0	33.8630	0	26.513	0	180.098	0	112.3	4	38.0	4	-1E+10	1	-1E+10	1	-1E+10	1	-1E+10	1	-1E+10	1	-1E+10	1
4902663	41	C	09/12/2024	01:17	-127.640	47.857	0	182.60	0	7.0800	0	33.8630	0	26.515	0	180.990	0	112.1	4	38.0	4	-1E+10	1	-1E+10	1	-1E+10	1	-1E+10	1	-1E+10	1	-1E+10	1
4902663	41	C	09/12/2024	01:17	-127.640	47.857	0	183.50	0	7.0750	0	33.8630	0	26.515	0	181.882	0	111.8	4	37.9	4	-1E+10	1	-1E+10	1	-1E+10	1	-1E+10	1	-1E+10	1	-1E+10	1
4902663	41	C	09/12/2024	01:17	-127.640	47.857	0	184.90	0	7.0660	0	33.8640	0	26.517	0	183.269	0	111.6	4	37.8	4	-1E+10	1	-1E+10	1	-1E+10	1	-1E+10	1	-1E+10	1	-1E+10	1
4902663	41	C	09/12/2024	01:17	-127.640	47.857	0	186.30	0	7.0100	0	33.8680	0	26.528	0	184.656	0	111.3	4	37.6	4	-1E+10	1	-1E+10	1	-1E+10	1	-1E+10	1	-1E+10	1	-1E+10	1
4902663	41	C	09/12/2024	01:17	-127.640	47.857	0	187.20	0	6.9910	0	33.8690	0	26.532	0	185.547	0	111.2	4	37.6	4	-1E+10	1	-1E+10	1	-1E+10	1	-1E+10	1	-1E+10	1	-1E+10	1
4902663	41	C	09/12/2024	01:17	-127.640	47.857	0	188.10	0	6.9810	0	33.8690	0	26.533	0	186.439	0	110.9	4	37.5	4	-1E+10	1	-1E+10	1	-1E+10	1	-1E+10	1	-1E+10	1	-1E+10	1
4902663	41	C	09/12/2024	01:17	-127.640	47.857	0	189.10	0	6.9750	0	33.8690	0	26.534	0	187.430	0	110.7	4	37.4	4	-1E+10	1	-1E+10	1	-1E+10	1	-1E+10	1	-1E+10	1	-1E+10	1
4902663	41	C	09/12/2024	01:17	-127.640	47.857	0	190.00	0	6.9720	0	33.8700	0	26.535	0	188.321	0	110.5	4	37.3	4	-1E+10	1	-1E+10	1	-1E+10	1	-1E+10	1	-1E+10	1	-1E+10	1
4902663	41	C	09/12/2024	01:17	-127.640	47.857	0	190.90	0	6.9680	0	33.8700	0	26.536	0	189.213	0	110.2	4	37.2	4	-1E+10	1	-1E+10	1	-1E+10	1	-1E+10	1	-1E+10	1	-1E+10	1
4902663	41	C	09/12/2024	01:17	-127.640	47.857	0	191.80	0	6.9650	0	33.8700	0	26.536	0	190.105	0	109.9	4	37.1	4	-1E+10	1	-1E+10	1	-1E+10	1	-1E+10	1	-1E+10	1	-1E+10	1
4902663	41	C	09/12/2024	01:17	-127.640	47.857	0	192.70	0	6.9630	0	33.8700	0	26.536	0	190.996	0	109.6	4	37.0	4	-1E+10	1	-1E+10	1	-1E+10	1	-1E+10	1	-1E+10	1	-1E+10	1
4902663	41	C	09/12/2024	01:17	-127.640	47.857	0	193.60	0	6.9570	0	33.8700	0	26.537	0	191.888	0	109.2	4	36.9	4	-1E+10	1	-1E+10	1	-1E+10	1	-1E+10	1	-1E+10	1	-1E+10	1
4902663	41	C	09/12/2024	01:17	-127.640	47.857	0	194.50	0	6.9440	0	33.8710	0	26.540	0	192.780	0	108.8	4	36.7	4	-1E+10	1	-1E+10	1	-1E+10	1	-1E+10	1	-1E+10	1	-1E+10	1
4902663	41	C	09/12/2024	01:17	-127.640	47.857	0	195.90	0	6.9280	0	33.8720	0	26.543	0	194.167	0	108.1	4	36.5	4	-1E+10	1	-1E+10	1	-1E+10	1	-1E+10	1	-1E+10	1	-1E+10	1
4902663	41	C	09/12/2024	01:17	-127.640	47.857	0	197.30	0	6.9020	0	33.8730	0	26.547	0	195.553	0	107.3	4	36.2	4	-1E+10	1	-1E+10	1	-1E+10	1	-1E+10	1	-1E+10	1	-1E+10	1
4902663	41	C	09/12/2024	01:17	-127.640	47.857	0	198.20	0	6.9030	0	33.8750	0	26.548	0	196.445	0	106.8	4	36.0	4	-1E+10	1	-1E+10	1	-1E+10	1	-1E+10	1	-1E+10	1	-1E+10	1
4902663	41	C	09/12/2024	01:17	-127.640	47.857	0	199.10	0	6.9050	0	33.8780	0	26.551	0	197.337	0	106.5	4	35.9	4	-1E+10	1	-1E+10	1	-1E+10	1	-1E+10	1	-1E+10	1	-1E+10	1
4902663	41	C	09/12/2024	01:17	-127.640	47.857	0	200.00	0	6.8870	0	33.8810	0	26.555	0	198.228	0	106.3	4	35.8	4	-1E+10	1	-1E+10	1	-1E+10	1	-1E+10	1	-1E+10	1	-1E+10	1
4902663	41	C	09/12/2024	01:17	-127.640	47.857	0	201.00	0	6.8840	0	33.8810	0	26.556	0	199.219	0	106.2	4	35.8	4	-1E+10	1	-1E+10	1	-1E+10	1	-1E+10	1	-1E+10	1	-1E+10	1
4902663	41	C	09/12/2024	01:17	-127.640	47.857	0	201.90	0	6.8650	0	33.8790	0	26.557	0	200.111	0	105.9	4	35.7	4	-1E+10	1	-1E+10	1	-1E+10	1	-1E+10	1	-1E+10	1	-1E+10	1
4902663	41	C	09/12/2024	01:17	-127.640	47.857	0	202.90	0	6.8610	0	33.8810	0	26.559	0	201.101	0	105.6	4	35.6	4	-1E+10	1	-1E+10	1	-1E+10	1	-1E+10	1	-1E+10	1	-1E+10	1
4902663	41	C	09/12/2024	01:17	-127.640	47.857	0	204.00	0	6.8550	0	33.8840	0	26.562	0	202.191	0	105.5	4	35.6	4	-1E+10	1	-1E+10	1	-1E+10	1	-1E+10	1	-1E+10	1	-1E+10	1
4902663	41	C	09/12/2024	01:17	-127.640	47.857	0	204.90	0	6.8510	0	33.8820	0	26.561	0	203.082	0	105.4	4	35.5	4	-1E+10	1	-1E+10	1	-1E+10	1	-1E+10	1	-1E+10	1	-1E+10	1
4902663	41	C	09/12/2024	01:17	-127.640	47.857	0	205.90	0	6.8460	0	33.8830	0	26.563	0	204.073	0	105.1	4	35.4	4	-1E+10	1	-1E+10	1	-1E+10	1	-1E+10	1	-1E+10	1	-1E+10	1
4902663	41	C	09/12/2024	01:17	-127.640	47.857	0	206.80	0	6.8350	0	33.8830	0	26.564	0	204.965	0	104.8	4	35.3	4	-1E+10	1	-1E+10	1	-1E+10	1	-1E+10	1	-1E+10	1	-1E+10	1
4902663	41	C	09/12/2024	01:17	-127.640	47.857	0	207.80	0	6.8300	0	33.8850	0	26.566	0	205.955	0	104.6	4	35.2	4	-1E+10	1	-1E+10	1	-1E+10	1	-1E+10	1	-1E+10	1	-1E+10	1
4902663	41	C	09/12/2024	01:17	-127.640	47.857	0	208.80	0	6.8270	0	33.8860	0	26.567	0	206.946	0	104.4	4	35.1	4	-1E+10	1	-1E+10	1	-1E+10	1	-1E+10	1	-1E+10	1	-1E+10	1
4902663	41	C	09/12/2024	01:17	-127.640	47.857	0	209.80	0	6.8160	0	33.8870	0	26.570	0	207.937	0	104.2	4	35.1	4	-1E+10	1	-1E+10	1	-1E+10	1	-1E+10	1	-1E+10	1	-1E+10	1
4902663	41	C	09/12/2024	01:17	-127.640	47.857	0	210.80	0	6.8060	0	33.8880	0	26.572	0	208.927	0	104.0	4	35.0	4	-1E+10	1	-1E+10	1	-1E+10	1	-1E+10	1	-1E+10	1	-1E+10	1
4902663	41	C	09/12/2024	01:17	-127.640	47.857	0	211.80	0	6.8030	0	33.8870	0	26.572	0	209.918	0	103.7	4	34.9	4	-1E+10	1	-1E+10	1	-1E+10	1	-1E+10	1	-1E+10	1	-1E+10	1
4902663	41	C	09/12/2024	01:17	-127.640	47.857	0	212.70	0	6.7860	0	33.8870	0	26.574	0	210.809	0	103.4	4	34.8	4	-1E+10	1	-1E+10	1	-1E+10	1	-1E+10	1	-1E+10	1	-1E+10	1
4902663	41	C	09/12/2024	01:17	-127.640	47.857	0	213.80	0	6.7820	0	33.8870	0	26.574	0	211.899	0	103.2	4	34.7	4	-1E+10	1	-1E+10	1	-1E+10	1	-1E+10	1	-1E+10	1	-1E+10	1
4902663	41	C	09/12/2024	01:17	-127.640	47.857	0	214.80	0	6.7800	0	33.8870	0	26.575	0	212.890	0	102.9	4	34.6	4	-1E+10	1	-1E+10	1	-1E+10	1	-1E+10	1	-1E+10	1	-1E+10	1
4902663	41	C	09/12/2024	01:17	-127.640	47.857	0	215.80	0	6.7760	0	33.8880	0	26.576	0	213.880	0	102.5	4	34.5	4	-1E+10	1	-1E+10	1	-1E+10	1	-1E+10	1	-1E+10	1	-1E+10	1
4902663	41	C	09/12/2024	01:17	-127.640	47.857	0	216.80	0	6.7680	0	33.8890	0	26.578	0	214.871	0	102.2	4	34.4	4	-1E+10	1	-1E+10	1	-1E+10	1	-1E+10	1	-1E+10	1	-1E+10	1
4902663	41	C	09/12/2024	01:17	-127.640	47.857	0	217.70	0	6.7720	0	33.8890	0	26.577	0	215.762	0	101.8	4	34.2	4	-1E+10	1	-1E+10	1	-1E+10	1	-1E+10	1	-1E+10	1	-1E+10	1
4902663	41	C	09/12/2024	01:17	-127.640	47.857	0	218.90	0	6.7740	0	33.8910	0	26.579	0	216.951	0	101.5	4	34.1	4	-1E+10	1	-1E+10	1	-1E+10	1	-1E+10	1	-1E+10	1	-1E+10	1
4902663	41	C	09/12/2024	01:17	-127.640	47.857	0	219.90	0	6.7720	0	33.8930	0	26.581	0	217.942	0	101.2	4	34.0	4	-1E+10	1	-1E+10	1	-1E+10	1	-1E+10	1	-1E+10	1	-1E+10	1
4902663	41	C	09/12/2024	01:17	-127.640	47.857	0	220.90	0	6.7720	0	33.8930	0	26.581	0	218.932	0	100.9	4	33.9	4	-1E+10	1	-1E+10	1	-1E+10	1	-1E+10	1	-1E+10	1	-1E+10	1
4902663	41	C	09/12/2024	01:17	-127.640	47.857	0	221.90	0	6.7780	0	33.8940	0	26.581	0	219.923	0	100.7	4	33.9	4	-1E+10	1	-1E+10	1	-1E+10	1	-1E+10	1	-1E+10	1	-1E+10	1
4902663	41	C	09/12/2024	01:17	-127.640	47.857	0	222.90	0	6.7840	0	33.8950	0	26.581	0	220.913	0	100.5	4	33.8	4	-1E+10	1	-1E+10	1	-1E+10	1	-1E+10	1	-1E+10	1	-1E+10	1
4902663	41	C	09/12/2024	01:17	-127.640	47.857	0	223.80	0	6.7430	0	33.8960	0	26.587	0	221.805	0	100.3	4	33.7	4	-1E+10	1	-1E+10	1	-1E+10	1	-1E+10	1	-1E+10	1	-1E+10	1
4902663	41	C	09/12/2024	01:17	-127.640	47.857	0	224.90	0	6.7180	0	33.8940	0	26.589	0	222.894	0	100.0	4	33.6	4	-1E+10	1	-1E+10	1	-1E+10	1	-1E+10	1	-1E+10	1	-1E+10	1
4902663	41	C	09/12/2024	01:17	-127.640	47.857	0	225.90	0	6.7140	0	33.8930	0	26.588	0	223.885	0	99.7	4	33.5	4	-1E+10	1	-1E+10	1	-1E+10	1	-1E+10	1	-1E+10	1	-1E+10	1
4902663	41	C	09/12/2024	01:17	-127.640	47.857	0	226.90	0	6.7060	0	33.8950	0	26.591	0	224.875	0	99.4	4	33.4	4	-1E+10	1	-1E+10	1	-1E+10	1	-1E+10	1	-1E+10	1	-1E+10	1
4902663	41	C	09/12/2024	01:17	-127.640	47.857	0	227.90	0	6.7020	0	33.8940	0	26.591	0	225.866	0	99.1	4	33.3	4	-1E+10	1	-1E+10	1	-1E+10	1	-1E+10	1	-1E+10	1	-1E+10	1
4902663	41	C	09/12/2024	01:17	-127.640	47.857	0	228.90	0	6.6950	0	33.8960	0	26.593	0	226.856	0	98.8	4	33.2	4	-1E+10	1	-1E+10	1	-1E+10	1	-1E+10	1	-1E+10	1	-1E+10	1
4902663	41	C	09/12/2024	01:17	-127.640	47.857	0	229.90	0	6.6820	0	33.8970	0	26.596	0	227.847	0	98.5	4	33.1	4	-1E+10	1	-1E+10	1	-1E+10	1	-1E+10	1	-1E+10	1	-1E+10	1
4902663	41	C	09/12/2024	01:17	-127.640	47.857	0	230.90	0	6.6770	0	33.8970	0	26.596	0	228.837	0	98.2	4	32.9	4	-1E+10	1	-1E+10	1	-1E+10	1	-1E+10	1	-1E+10	1	-1E+10	1
4902663	41	C	09/12/2024	01:17	-127.640	47.857	0	231.90	0	6.6750	0	33.8970	0	26.597	0	229.828	0	97.8	4	32.8	4	-1E+10	1	-1E+10	1	-1E+10	1	-1E+10	1	-1E+10	1	-1E+10	1
4902663	41	C	09/12/2024	01:17	-127.640	47.857	0	232.90	0	6.6630	0	33.8980	0	26.599	0	230.818	0	97.3	4	32.7	4	-1E+10	1	-1E+10	1	-1E+10	1	-1E+10	1	-1E+10	1	-1E+10	1
4902663	41	C	09/12/2024	01:17	-127.640	47.857	0	233.90	0	6.6620	0	33.8990	0	26.600	0	231.809	0	97.0	4	32.5	4	-1E+10	1	-1E+10	1	-1E+10	1	-1E+10	1	-1E+10	1	-1E+10	1
4902663	41	C	09/12/2024	01:17	-127.640	47.857	0	234.90	0	6.6540	0	33.8990	0	26.601	0	232.799	0	96.6	4	32.4	4	-1E+10	1	-1E+10	1	-1E+10	1	-1E+10	1	-1E+10	1	-1E+10	1
4902663	41	C	09/12/2024	01:17	-127.640	47.857	0	235.90	0	6.6430	0	33.9020	0	26.605	0	233.790	0	96.2	4	32.3	4	-1E+10	1	-1E+10	1	-1E+10	1	-1E+10	1	-1E+10	1	-1E+10	1
4902663	41	C	09/12/2024	01:17	-127.640	47.857	0	237.10	0	6.6310	0	33.9030	0	26.607	0	234.979	0	95.9	4	32.2	4	-1E+10	1	-1E+10	1	-1E+10	1	-1E+10	1	-1E+10	1	-1E+10	1
4902663	41	C	09/12/2024	01:17	-127.640	47.857	0	238.10	0	6.6190	0	33.9020	0	26.608	0	235.969	0	95.5	4	32.0	4	-1E+10	1	-1E+10	1	-1E+10	1	-1E+10	1	-1E+10	1	-1E+10	1
4902663	41	C	09/12/2024	01:17	-127.640	47.857	0	239.10	0	6.6120	0	33.9020	0	26.609	0	236.960	0	95.1	4	31.9	4	-1E+10	1	-1E+10	1	-1E+10	1	-1E+10	1	-1E+10	1	-1E+10	1
4902663	41	C	09/12/2024	01:17	-127.640	47.857	0	240.10	0	6.6060	0	33.9020	0	26.610	0	237.950	0	94.7	4	31.7	4	-1E+10	1	-1E+10	1	-1E+10	1	-1E+10	1	-1E+10	1	-1E+10	1
4902663	41	C	09/12/2024	01:17	-127.640	47.857	0	241.10	0	6.5850	0	33.9030	0	26.613	0	238.940	0	94.2	4	31.5	4	-1E+10	1	-1E+10	1	-1E+10	1	-1E+10	1	-1E+10	1	-1E+10	1
4902663	41	C	09/12/2024	01:17	-127.640	47.857	0	242.10	0	6.5770	0	33.9070	0	26.618	0	239.931	0	93.7	4	31.4	4	-1E+10	1	-1E+10	1	-1E+10	1	-1E+10	1	-1E+10	1	-1E+10	1
4902663	41	C	09/12/2024	01:17	-127.640	47.857	0	243.00	0	6.5640	0	33.9060	0	26.619	0	240.822	0	93.3	4	31.2	4	-1E+10	1	-1E+10	1	-1E+10	1	-1E+10	1	-1E+10	1	-1E+10	1
4902663	41	C	09/12/2024	01:17	-127.640	47.857	0	244.00	0	6.5550	0	33.9050	0	26.619	0	241.813	0	92.8	4	31.0	4	-1E+10	1	-1E+10	1	-1E+10	1	-1E+10	1	-1E+10	1	-1E+10	1
4902663	41	C	09/12/2024	01:17	-127.640	47.857	0	244.90	0	6.5490	0	33.9050	0	26.620	0	242.704	0	92.2	4	30.8	4	-1E+10	1	-1E+10	1	-1E+10	1	-1E+10	1	-1E+10	1	-1E+10	1
4902663	41	C	09/12/2024	01:17	-127.640	47.857	0	245.90	0	6.5400	0	33.9070	0	26.623	0	243.695	0	91.5	4	30.6	4	-1E+10	1	-1E+10	1	-1E+10	1	-1E+10	1	-1E+10	1	-1E+10	1
4902663	41	C	09/12/2024	01:17	-127.640	47.857	0	246.90	0	6.5330	0	33.9070	0	26.624	0	244.685	0	90.9	4	30.4	4	-1E+10	1	-1E+10	1	-1E+10	1	-1E+10	1	-1E+10	1	-1E+10	1
4902663	41	C	09/12/2024	01:17	-127.640	47.857	0	247.80	0	6.5350	0	33.9120	0	26.627	0	245.576	0	90.4	4	30.2	4	-1E+10	1	-1E+10	1	-1E+10	1	-1E+10	1	-1E+10	1	-1E+10	1
4902663	41	C	09/12/2024	01:17	-127.640	47.857	0	248.80	0	6.5300	0	33.9110	0	26.627	0	246.567	0	89.9	4	30.1	4	-1E+10	1	-1E+10	1	-1E+10	1	-1E+10	1	-1E+10	1	-1E+10	1
4902663	41	C	09/12/2024	01:17	-127.640	47.857	0	249.80	0	6.5240	0	33.9110	0	26.628	0	247.557	0	89.3	4	29.9	4	-1E+10	1	-1E+10	1	-1E+10	1	-1E+10	1	-1E+10	1	-1E+10	1
4902663	41	C	09/12/2024	01:17	-127.640	47.857	0	250.70	0	6.5130	0	33.9130	0	26.631	0	248.449	0	88.7	4	29.7	4	-1E+10	1	-1E+10	1	-1E+10	1	-1E+10	1	-1E+10	1	-1E+10	1
4902663	41	C	09/12/2024	01:17	-127.640	47.857	0	251.60	0	6.5000	0	33.9130	0	26.633	0	249.340	0	88.1	4	29.4	4	-1E+10	1	-1E+10	1	-1E+10	1	-1E+10	1	-1E+10	1	-1E+10	1
4902663	41	C	09/12/2024	01:17	-127.640	47.857	0	252.60	0	6.4890	0	33.9130	0	26.634	0	250.331	0	87.3	4	29.2	4	-1E+10	1	-1E+10	1	-1E+10	1	-1E+10	1	-1E+10	1	-1E+10	1
4902663	41	C	09/12/2024	01:17	-127.640	47.857	0	253.90	0	6.4970	0	33.9170	0	26.636	0	251.618	0	86.8	4	29.0	4	-1E+10	1	-1E+10	1	-1E+10	1	-1E+10	1	-1E+10	1	-1E+10	1
4902663	41	C	09/12/2024	01:17	-127.640	47.857	0	255.30	0	6.4940	0	33.9170	0	26.637	0	253.005	0	86.4	4	28.9	4	-1E+10	1	-1E+10	1	-1E+10	1	-1E+10	1	-1E+10	1	-1E+10	1
4902663	41	C	09/12/2024	01:17	-127.640	47.857	0	256.30	0	6.4860	0	33.9180	0	26.638	0	253.995	0	86.2	4	28.8	4	-1E+10	1	-1E+10	1	-1E+10	1	-1E+10	1	-1E+10	1	-1E+10	1
4902663	41	C	09/12/2024	01:17	-127.640	47.857	0	257.20	0	6.4840	0	33.9180	0	26.639	0	254.886	0	86.0	4	28.7	4	-1E+10	1	-1E+10	1	-1E+10	1	-1E+10	1	-1E+10	1	-1E+10	1
4902663	41	C	09/12/2024	01:17	-127.640	47.857	0	258.10	0	6.4790	0	33.9190	0	26.640	0	255.778	0	85.5	4	28.6	4	-1E+10	1	-1E+10	1	-1E+10	1	-1E+10	1	-1E+10	1	-1E+10	1
4902663	41	C	09/12/2024	01:17	-127.640	47.857	0	259.00	0	6.4660	0	33.9170	0	26.640	0	256.669	0	85.0	4	28.4	4	-1E+10	1	-1E+10	1	-1E+10	1	-1E+10	1	-1E+10	1	-1E+10	1
4902663	41	C	09/12/2024	01:17	-127.640	47.857	0	259.90	0	6.4410	0	33.9190	0	26.645	0	257.560	0	84.5	4	28.2	4	-1E+10	1	-1E+10	1	-1E+10	1	-1E+10	1	-1E+10	1	-1E+10	1
4902663	41	C	09/12/2024	01:17	-127.640	47.857	0	260.70	0	6.4310	0	33.9200	0	26.647	0	258.353	0	83.7	4	27.9	4	-1E+10	1	-1E+10	1	-1E+10	1	-1E+10	1	-1E+10	1	-1E+10	1
4902663	41	C	09/12/2024	01:17	-127.640	47.857	0	261.60	0	6.4180	0	33.9210	0	26.650	0	259.244	0	83.0	4	27.7	4	-1E+10	1	-1E+10	1	-1E+10	1	-1E+10	1	-1E+10	1	-1E+10	1
4902663	41	C	09/12/2024	01:17	-127.640	47.857	0	262.90	0	6.4120	0	33.9230	0	26.652	0	260.531	0	82.0	4	27.4	4	-1E+10	1	-1E+10	1	-1E+10	1	-1E+10	1	-1E+10	1	-1E+10	1
4902663	41	C	09/12/2024	01:17	-127.640	47.857	0	264.30	0	6.4100	0	33.9250	0	26.654	0	261.918	0	81.3	4	27.1	4	-1E+10	1	-1E+10	1	-1E+10	1	-1E+10	1	-1E+10	1	-1E+10	1
4902663	41	C	09/12/2024	01:17	-127.640	47.857	0	265.10	0	6.3940	0	33.9280	0	26.658	0	262.710	0	80.9	4	27.0	4	-1E+10	1	-1E+10	1	-1E+10	1	-1E+10	1	-1E+10	1	-1E+10	1
4902663	41	C	09/12/2024	01:17	-127.640	47.857	0	266.00	0	6.3820	0	33.9310	0	26.662	0	263.602	0	80.6	4	26.9	4	-1E+10	1	-1E+10	1	-1E+10	1	-1E+10	1	-1E+10	1	-1E+10	1
4902663	41	C	09/12/2024	01:17	-127.640	47.857	0	266.80	0	6.3590	0	33.9300	0	26.665	0	264.394	0	80.4	4	26.8	4	-1E+10	1	-1E+10	1	-1E+10	1	-1E+10	1	-1E+10	1	-1E+10	1
4902663	41	C	09/12/2024	01:17	-127.640	47.857	0	267.70	0	6.3490	0	33.9310	0	26.667	0	265.285	0	80.1	4	26.7	4	-1E+10	1	-1E+10	1	-1E+10	1	-1E+10	1	-1E+10	1	-1E+10	1
4902663	41	C	09/12/2024	01:17	-127.640	47.857	0	268.60	0	6.3410	0	33.9300	0	26.667	0	266.176	0	79.8	4	26.6	4	-1E+10	1	-1E+10	1	-1E+10	1	-1E+10	1	-1E+10	1	-1E+10	1
4902663	41	C	09/12/2024	01:17	-127.640	47.857	0	269.90	0	6.3210	0	33.9300	0	26.669	0	267.464	0	79.2	4	26.4	4	-1E+10	1	-1E+10	1	-1E+10	1	-1E+10	1	-1E+10	1	-1E+10	1
4902663	41	C	09/12/2024	01:17	-127.640	47.857	0	271.20	0	6.2920	0	33.9310	0	26.674	0	268.751	0	78.7	4	26.2	4	-1E+10	1	-1E+10	1	-1E+10	1	-1E+10	1	-1E+10	1	-1E+10	1
4902663	41	C	09/12/2024	01:17	-127.640	47.857	0	272.10	0	6.2820	0	33.9330	0	26.677	0	269.643	0	78.4	4	26.1	4	-1E+10	1	-1E+10	1	-1E+10	1	-1E+10	1	-1E+10	1	-1E+10	1
4902663	41	C	09/12/2024	01:17	-127.640	47.857	0	273.00	0	6.2750	0	33.9340	0	26.679	0	270.534	0	78.1	4	26.0	4	-1E+10	1	-1E+10	1	-1E+10	1	-1E+10	1	-1E+10	1	-1E+10	1
4902663	41	C	09/12/2024	01:17	-127.640	47.857	0	273.90	0	6.2710	0	33.9340	0	26.679	0	271.425	0	77.9	4	25.9	4	-1E+10	1	-1E+10	1	-1E+10	1	-1E+10	1	-1E+10	1	-1E+10	1
4902663	41	C	09/12/2024	01:17	-127.640	47.857	0	274.80	0	6.2710	0	33.9340	0	26.679	0	272.316	0	77.6	4	25.8	4	-1E+10	1	-1E+10	1	-1E+10	1	-1E+10	1	-1E+10	1	-1E+10	1
4902663	41	C	09/12/2024	01:17	-127.640	47.857	0	275.70	0	6.2650	0	33.9340	0	26.680	0	273.208	0	77.3	4	25.7	4	-1E+10	1	-1E+10	1	-1E+10	1	-1E+10	1	-1E+10	1	-1E+10	1
4902663	41	C	09/12/2024	01:17	-127.640	47.857	0	276.70	0	6.2570	0	33.9350	0	26.682	0	274.198	0	77.0	4	25.6	4	-1E+10	1	-1E+10	1	-1E+10	1	-1E+10	1	-1E+10	1	-1E+10	1
4902663	41	C	09/12/2024	01:17	-127.640	47.857	0	277.60	0	6.2450	0	33.9360	0	26.684	0	275.089	0	76.6	4	25.5	4	-1E+10	1	-1E+10	1	-1E+10	1	-1E+10	1	-1E+10	1	-1E+10	1
4902663	41	C	09/12/2024	01:17	-127.640	47.857	0	278.60	0	6.2360	0	33.9360	0	26.685	0	276.080	0	76.3	4	25.3	4	-1E+10	1	-1E+10	1	-1E+10	1	-1E+10	1	-1E+10	1	-1E+10	1
4902663	41	C	09/12/2024	01:17	-127.640	47.857	0	279.60	0	6.2280	0	33.9380	0	26.688	0	277.070	0	75.9	4	25.2	4	-1E+10	1	-1E+10	1	-1E+10	1	-1E+10	1	-1E+10	1	-1E+10	1
4902663	41	C	09/12/2024	01:17	-127.640	47.857	0	280.90	0	6.2160	0	33.9390	0	26.690	0	278.357	0	75.4	4	25.0	4	-1E+10	1	-1E+10	1	-1E+10	1	-1E+10	1	-1E+10	1	-1E+10	1
4902663	41	C	09/12/2024	01:17	-127.640	47.857	0	282.40	0	6.2120	0	33.9400	0	26.691	0	279.843	0	74.9	4	24.9	4	-1E+10	1	-1E+10	1	-1E+10	1	-1E+10	1	-1E+10	1	-1E+10	1
4902663	41	C	09/12/2024	01:17	-127.640	47.857	0	283.40	0	6.2100	0	33.9400	0	26.692	0	280.833	0	74.5	4	24.8	4	-1E+10	1	-1E+10	1	-1E+10	1	-1E+10	1	-1E+10	1	-1E+10	1
4902663	41	C	09/12/2024	01:17	-127.640	47.857	0	284.30	0	6.2090	0	33.9400	0	26.692	0	281.724	0	74.1	4	24.6	4	-1E+10	1	-1E+10	1	-1E+10	1	-1E+10	1	-1E+10	1	-1E+10	1
4902663	41	C	09/12/2024	01:17	-127.640	47.857	0	285.30	0	6.2060	0	33.9410	0	26.693	0	282.714	0	73.6	4	24.5	4	-1E+10	1	-1E+10	1	-1E+10	1	-1E+10	1	-1E+10	1	-1E+10	1
4902663	41	C	09/12/2024	01:17	-127.640	47.857	0	286.30	0	6.1960	0	33.9430	0	26.696	0	283.705	0	73.2	4	24.3	4	-1E+10	1	-1E+10	1	-1E+10	1	-1E+10	1	-1E+10	1	-1E+10	1
4902663	41	C	09/12/2024	01:17	-127.640	47.857	0	287.20	0	6.1910	0	33.9440	0	26.697	0	284.596	0	72.7	4	24.1	4	-1E+10	1	-1E+10	1	-1E+10	1	-1E+10	1	-1E+10	1	-1E+10	1
4902663	41	C	09/12/2024	01:17	-127.640	47.857	0	288.20	0	6.1810	0	33.9460	0	26.700	0	285.586	0	72.3	4	24.0	4	-1E+10	1	-1E+10	1	-1E+10	1	-1E+10	1	-1E+10	1	-1E+10	1
4902663	41	C	09/12/2024	01:17	-127.640	47.857	0	289.20	0	6.1610	0	33.9480	0	26.704	0	286.576	0	71.9	4	23.9	4	-1E+10	1	-1E+10	1	-1E+10	1	-1E+10	1	-1E+10	1	-1E+10	1
4902663	41	C	09/12/2024	01:17	-127.640	47.857	0	290.20	0	6.1620	0	33.9490	0	26.705	0	287.567	0	71.7	4	23.8	4	-1E+10	1	-1E+10	1	-1E+10	1	-1E+10	1	-1E+10	1	-1E+10	1
4902663	41	C	09/12/2024	01:17	-127.640	47.857	0	291.20	0	6.1610	0	33.9500	0	26.706	0	288.557	0	71.4	4	23.7	4	-1E+10	1	-1E+10	1	-1E+10	1	-1E+10	1	-1E+10	1	-1E+10	1
4902663	41	C	09/12/2024	01:17	-127.640	47.857	0	292.30	0	6.1560	0	33.9500	0	26.707	0	289.646	0	71.1	4	23.6	4	-1E+10	1	-1E+10	1	-1E+10	1	-1E+10	1	-1E+10	1	-1E+10	1
4902663	41	C	09/12/2024	01:17	-127.640	47.857	0	293.20	0	6.1480	0	33.9510	0	26.708	0	290.537	0	70.8	4	23.5	4	-1E+10	1	-1E+10	1	-1E+10	1	-1E+10	1	-1E+10	1	-1E+10	1
4902663	41	C	09/12/2024	01:17	-127.640	47.857	0	294.10	0	6.1430	0	33.9500	0	26.708	0	291.428	0	70.5	4	23.4	4	-1E+10	1	-1E+10	1	-1E+10	1	-1E+10	1	-1E+10	1	-1E+10	1
4902663	41	C	09/12/2024	01:17	-127.640	47.857	0	295.20	0	6.1280	0	33.9520	0	26.712	0	292.518	0	70.2	4	23.3	4	-1E+10	1	-1E+10	1	-1E+10	1	-1E+10	1	-1E+10	1	-1E+10	1
4902663	41	C	09/12/2024	01:17	-127.640	47.857	0	295.90	0	6.1240	0	33.9520	0	26.712	0	293.211	0	70.0	4	23.2	4	-1E+10	1	-1E+10	1	-1E+10	1	-1E+10	1	-1E+10	1	-1E+10	1
4902663	41	C	09/12/2024	01:17	-127.640	47.857	0	297.00	0	6.1180	0	33.9530	0	26.714	0	294.300	0	69.5	4	23.0	4	-1E+10	1	-1E+10	1	-1E+10	1	-1E+10	1	-1E+10	1	-1E+10	1
4902663	41	C	09/12/2024	01:17	-127.640	47.857	0	298.10	0	6.1110	0	33.9540	0	26.716	0	295.389	0	69.1	4	22.9	4	-1E+10	1	-1E+10	1	-1E+10	1	-1E+10	1	-1E+10	1	-1E+10	1
4902663	41	C	09/12/2024	01:17	-127.640	47.857	0	298.90	0	6.1060	0	33.9560	0	26.718	0	296.181	0	68.8	4	22.8	4	-1E+10	1	-1E+10	1	-1E+10	1	-1E+10	1	-1E+10	1	-1E+10	1
4902663	41	C	09/12/2024	01:17	-127.640	47.857	0	300.00	0	6.0940	0	33.9550	0	26.718	0	297.271	0	68.4	4	22.6	4	-1E+10	1	-1E+10	1	-1E+10	1	-1E+10	1	-1E+10	1	-1E+10	1
4902663	41	C	09/12/2024	01:17	-127.640	47.857	0	301.20	0	6.0820	0	33.9570	0	26.722	0	298.459	0	67.9	4	22.5	4	-1E+10	1	-1E+10	1	-1E+10	1	-1E+10	1	-1E+10	1	-1E+10	1
4902663	41	C	09/12/2024	01:17	-127.640	47.857	0	302.00	0	6.0800	0	33.9570	0	26.722	0	299.251	0	67.6	4	22.4	4	-1E+10	1	-1E+10	1	-1E+10	1	-1E+10	1	-1E+10	1	-1E+10	1
4902663	41	C	09/12/2024	01:17	-127.640	47.857	0	302.80	0	6.0790	0	33.9570	0	26.722	0	300.043	0	67.3	4	22.3	4	-1E+10	1	-1E+10	1	-1E+10	1	-1E+10	1	-1E+10	1	-1E+10	1
4902663	41	C	09/12/2024	01:17	-127.640	47.857	0	304.00	0	6.0640	0	33.9600	0	26.726	0	301.231	0	66.8	4	22.1	4	-1E+10	1	-1E+10	1	-1E+10	1	-1E+10	1	-1E+10	1	-1E+10	1
4902663	41	C	09/12/2024	01:17	-127.640	47.857	0	305.20	0	6.0540	0	33.9610	0	26.728	0	302.420	0	66.3	4	22.0	4	-1E+10	1	-1E+10	1	-1E+10	1	-1E+10	1	-1E+10	1	-1E+10	1
4902663	41	C	09/12/2024	01:17	-127.640	47.857	0	306.00	0	6.0480	0	33.9620	0	26.730	0	303.212	0	66.0	4	21.8	4	-1E+10	1	-1E+10	1	-1E+10	1	-1E+10	1	-1E+10	1	-1E+10	1
4902663	41	C	09/12/2024	01:17	-127.640	47.857	0	306.80	0	6.0350	0	33.9620	0	26.731	0	304.004	0	65.6	4	21.7	4	-1E+10	1	-1E+10	1	-1E+10	1	-1E+10	1	-1E+10	1	-1E+10	1
4902663	41	C	09/12/2024	01:17	-127.640	47.857	0	307.60	0	6.0320	0	33.9630	0	26.733	0	304.796	0	65.3	4	21.6	4	-1E+10	1	-1E+10	1	-1E+10	1	-1E+10	1	-1E+10	1	-1E+10	1
4902663	41	C	09/12/2024	01:17	-127.640	47.857	0	308.90	0	6.0200	0	33.9650	0	26.736	0	306.083	0	64.9	4	21.5	4	-1E+10	1	-1E+10	1	-1E+10	1	-1E+10	1	-1E+10	1	-1E+10	1
4902663	41	C	09/12/2024	01:17	-127.640	47.857	0	310.10	0	6.0220	0	33.9670	0	26.737	0	307.271	0	64.6	4	21.3	4	-1E+10	1	-1E+10	1	-1E+10	1	-1E+10	1	-1E+10	1	-1E+10	1
4902663	41	C	09/12/2024	01:17	-127.640	47.857	0	311.00	0	6.0220	0	33.9660	0	26.736	0	308.162	0	64.3	4	21.3	4	-1E+10	1	-1E+10	1	-1E+10	1	-1E+10	1	-1E+10	1	-1E+10	1
4902663	41	C	09/12/2024	01:17	-127.640	47.857	0	311.80	0	6.0220	0	33.9670	0	26.737	0	308.954	0	64.1	4	21.2	4	-1E+10	1	-1E+10	1	-1E+10	1	-1E+10	1	-1E+10	1	-1E+10	1
4902663	41	C	09/12/2024	01:17	-127.640	47.857	0	312.60	0	6.0210	0	33.9670	0	26.737	0	309.747	0	63.8	4	21.1	4	-1E+10	1	-1E+10	1	-1E+10	1	-1E+10	1	-1E+10	1	-1E+10	1
4902663	41	C	09/12/2024	01:17	-127.640	47.857	0	313.90	0	6.0190	0	33.9660	0	26.737	0	311.034	0	63.3	4	20.9	4	-1E+10	1	-1E+10	1	-1E+10	1	-1E+10	1	-1E+10	1	-1E+10	1
4902663	41	C	09/12/2024	01:17	-127.640	47.857	0	315.20	0	6.0130	0	33.9690	0	26.740	0	312.321	0	62.9	4	20.8	4	-1E+10	1	-1E+10	1	-1E+10	1	-1E+10	1	-1E+10	1	-1E+10	1
4902663	41	C	09/12/2024	01:17	-127.640	47.857	0	316.10	0	6.0050	0	33.9710	0	26.742	0	313.212	0	62.8	4	20.8	4	-1E+10	1	-1E+10	1	-1E+10	1	-1E+10	1	-1E+10	1	-1E+10	1
4902663	41	C	09/12/2024	01:17	-127.640	47.857	0	316.90	0	5.9980	0	33.9710	0	26.743	0	314.004	0	62.6	4	20.7	4	-1E+10	1	-1E+10	1	-1E+10	1	-1E+10	1	-1E+10	1	-1E+10	1
4902663	41	C	09/12/2024	01:17	-127.640	47.857	0	317.80	0	5.9850	0	33.9740	0	26.747	0	314.895	0	62.5	4	20.6	4	-1E+10	1	-1E+10	1	-1E+10	1	-1E+10	1	-1E+10	1	-1E+10	1
4902663	41	C	09/12/2024	01:17	-127.640	47.857	0	318.60	0	5.9830	0	33.9710	0	26.745	0	315.687	0	62.3	4	20.6	4	-1E+10	1	-1E+10	1	-1E+10	1	-1E+10	1	-1E+10	1	-1E+10	1
4902663	41	C	09/12/2024	01:17	-127.640	47.857	0	319.90	0	5.9790	0	33.9710	0	26.746	0	316.974	0	62.0	4	20.5	4	-1E+10	1	-1E+10	1	-1E+10	1	-1E+10	1	-1E+10	1	-1E+10	1
4902663	41	C	09/12/2024	01:17	-127.640	47.857	0	321.30	0	5.9630	0	33.9710	0	26.748	0	318.360	0	61.7	4	20.4	4	-1E+10	1	-1E+10	1	-1E+10	1	-1E+10	1	-1E+10	1	-1E+10	1
4902663	41	C	09/12/2024	01:17	-127.640	47.857	0	322.10	0	5.9550	0	33.9710	0	26.749	0	319.153	0	61.5	4	20.3	4	-1E+10	1	-1E+10	1	-1E+10	1	-1E+10	1	-1E+10	1	-1E+10	1
4902663	41	C	09/12/2024	01:17	-127.640	47.857	0	323.00	0	5.9360	0	33.9740	0	26.754	0	320.044	0	61.3	4	20.2	4	-1E+10	1	-1E+10	1	-1E+10	1	-1E+10	1	-1E+10	1	-1E+10	1
4902663	41	C	09/12/2024	01:17	-127.640	47.857	0	323.90	0	5.9350	0	33.9660	0	26.747	0	320.935	0	61.1	4	20.2	4	-1E+10	1	-1E+10	1	-1E+10	1	-1E+10	1	-1E+10	1	-1E+10	1
4902663	41	C	09/12/2024	01:17	-127.640	47.857	0	324.70	0	5.9120	0	33.9670	0	26.751	0	321.727	0	61.1	4	20.2	4	-1E+10	1	-1E+10	1	-1E+10	1	-1E+10	1	-1E+10	1	-1E+10	1
4902663	41	C	09/12/2024	01:17	-127.640	47.857	0	325.60	0	5.9110	0	33.9670	0	26.751	0	322.618	0	61.0	4	20.1	4	-1E+10	1	-1E+10	1	-1E+10	1	-1E+10	1	-1E+10	1	-1E+10	1
4902663	41	C	09/12/2024	01:17	-127.640	47.857	0	326.90	0	5.9030	0	33.9680	0	26.753	0	323.905	0	60.6	4	20.0	4	-1E+10	1	-1E+10	1	-1E+10	1	-1E+10	1	-1E+10	1	-1E+10	1
4902663	41	C	09/12/2024	01:17	-127.640	47.857	0	328.30	0	5.8920	0	33.9680	0	26.754	0	325.291	0	60.2	4	19.9	4	-1E+10	1	-1E+10	1	-1E+10	1	-1E+10	1	-1E+10	1	-1E+10	1
4902663	41	C	09/12/2024	01:17	-127.640	47.857	0	329.20	0	5.8850	0	33.9690	0	26.756	0	326.182	0	60.0	4	19.8	4	-1E+10	1	-1E+10	1	-1E+10	1	-1E+10	1	-1E+10	1	-1E+10	1
4902663	41	C	09/12/2024	01:17	-127.640	47.857	0	330.10	0	5.8760	0	33.9680	0	26.756	0	327.073	0	59.9	4	19.7	4	-1E+10	1	-1E+10	1	-1E+10	1	-1E+10	1	-1E+10	1	-1E+10	1
4902663	41	C	09/12/2024	01:17	-127.640	47.857	0	331.00	0	5.8750	0	33.9680	0	26.756	0	327.964	0	59.7	4	19.7	4	-1E+10	1	-1E+10	1	-1E+10	1	-1E+10	1	-1E+10	1	-1E+10	1
4902663	41	C	09/12/2024	01:17	-127.640	47.857	0	331.90	0	5.8700	0	33.9690	0	26.758	0	328.855	0	59.5	4	19.6	4	-1E+10	1	-1E+10	1	-1E+10	1	-1E+10	1	-1E+10	1	-1E+10	1
4902663	41	C	09/12/2024	01:17	-127.640	47.857	0	332.80	0	5.8610	0	33.9700	0	26.760	0	329.746	0	59.4	4	19.6	4	-1E+10	1	-1E+10	1	-1E+10	1	-1E+10	1	-1E+10	1	-1E+10	1
4902663	41	C	09/12/2024	01:17	-127.640	47.857	0	333.70	0	5.8580	0	33.9700	0	26.760	0	330.637	0	59.2	4	19.5	4	-1E+10	1	-1E+10	1	-1E+10	1	-1E+10	1	-1E+10	1	-1E+10	1
4902663	41	C	09/12/2024	01:17	-127.640	47.857	0	335.00	0	5.8570	0	33.9700	0	26.760	0	331.924	0	58.9	4	19.4	4	-1E+10	1	-1E+10	1	-1E+10	1	-1E+10	1	-1E+10	1	-1E+10	1
4902663	41	C	09/12/2024	01:17	-127.640	47.857	0	336.30	0	5.8480	0	33.9720	0	26.763	0	333.211	0	58.6	4	19.3	4	-1E+10	1	-1E+10	1	-1E+10	1	-1E+10	1	-1E+10	1	-1E+10	1
4902663	41	C	09/12/2024	01:17	-127.640	47.857	0	337.20	0	5.8350	0	33.9750	0	26.767	0	334.102	0	58.4	4	19.2	4	-1E+10	1	-1E+10	1	-1E+10	1	-1E+10	1	-1E+10	1	-1E+10	1
4902663	41	C	09/12/2024	01:17	-127.640	47.857	0	338.10	0	5.8290	0	33.9760	0	26.768	0	334.993	0	58.3	4	19.2	4	-1E+10	1	-1E+10	1	-1E+10	1	-1E+10	1	-1E+10	1	-1E+10	1
4902663	41	C	09/12/2024	01:17	-127.640	47.857	0	339.00	0	5.8280	0	33.9790	0	26.771	0	335.884	0	58.3	4	19.2	4	-1E+10	1	-1E+10	1	-1E+10	1	-1E+10	1	-1E+10	1	-1E+10	1
4902663	41	C	09/12/2024	01:17	-127.640	47.857	0	339.90	0	5.8260	0	33.9790	0	26.771	0	336.775	0	58.2	4	19.2	4	-1E+10	1	-1E+10	1	-1E+10	1	-1E+10	1	-1E+10	1	-1E+10	1
4902663	41	C	09/12/2024	01:17	-127.640	47.857	0	340.80	0	5.8180	0	33.9800	0	26.773	0	337.666	0	58.3	4	19.2	4	-1E+10	1	-1E+10	1	-1E+10	1	-1E+10	1	-1E+10	1	-1E+10	1
4902663	41	C	09/12/2024	01:17	-127.640	47.857	0	341.70	0	5.8170	0	33.9800	0	26.773	0	338.557	0	58.4	4	19.2	4	-1E+10	1	-1E+10	1	-1E+10	1	-1E+10	1	-1E+10	1	-1E+10	1
4902663	41	C	09/12/2024	01:17	-127.640	47.857	0	342.90	0	5.7880	0	33.9790	0	26.776	0	339.745	0	58.3	4	19.2	4	-1E+10	1	-1E+10	1	-1E+10	1	-1E+10	1	-1E+10	1	-1E+10	1
4902663	41	C	09/12/2024	01:17	-127.640	47.857	0	344.30	0	5.7710	0	33.9790	0	26.778	0	341.131	0	58.0	4	19.1	4	-1E+10	1	-1E+10	1	-1E+10	1	-1E+10	1	-1E+10	1	-1E+10	1
4902663	41	C	09/12/2024	01:17	-127.640	47.857	0	345.20	0	5.7710	0	33.9780	0	26.777	0	342.022	0	57.6	4	19.0	4	-1E+10	1	-1E+10	1	-1E+10	1	-1E+10	1	-1E+10	1	-1E+10	1
4902663	41	C	09/12/2024	01:17	-127.640	47.857	0	346.00	0	5.7690	0	33.9780	0	26.778	0	342.814	0	57.3	4	18.8	4	-1E+10	1	-1E+10	1	-1E+10	1	-1E+10	1	-1E+10	1	-1E+10	1
4902663	41	C	09/12/2024	01:17	-127.640	47.857	0	346.90	0	5.7480	0	33.9820	0	26.783	0	343.705	0	56.9	4	18.7	4	-1E+10	1	-1E+10	1	-1E+10	1	-1E+10	1	-1E+10	1	-1E+10	1
4902663	41	C	09/12/2024	01:17	-127.640	47.857	0	347.80	0	5.7350	0	33.9800	0	26.783	0	344.596	0	56.6	4	18.6	4	-1E+10	1	-1E+10	1	-1E+10	1	-1E+10	1	-1E+10	1	-1E+10	1
4902663	41	C	09/12/2024	01:17	-127.640	47.857	0	348.70	0	5.7340	0	33.9800	0	26.783	0	345.487	0	56.2	4	18.5	4	-1E+10	1	-1E+10	1	-1E+10	1	-1E+10	1	-1E+10	1	-1E+10	1
4902663	41	C	09/12/2024	01:17	-127.640	47.857	0	349.60	0	5.7070	0	33.9840	0	26.790	0	346.378	0	55.9	4	18.4	4	-1E+10	1	-1E+10	1	-1E+10	1	-1E+10	1	-1E+10	1	-1E+10	1
4902663	41	C	09/12/2024	01:17	-127.640	47.857	0	352.70	0	5.6870	0	33.9860	0	26.794	0	349.447	0	55.0	4	18.1	4	-1E+10	1	-1E+10	1	-1E+10	1	-1E+10	1	-1E+10	1	-1E+10	1
4902663	41	C	09/12/2024	01:17	-127.640	47.857	0	358.10	0	5.6530	0	33.9920	0	26.803	0	354.792	0	53.6	4	17.6	4	-1E+10	1	-1E+10	1	-1E+10	1	-1E+10	1	-1E+10	1	-1E+10	1
4902663	41	C	09/12/2024	01:17	-127.640	47.857	0	363.10	0	5.6200	0	33.9940	0	26.808	0	359.742	0	52.3	4	17.1	4	-1E+10	1	-1E+10	1	-1E+10	1	-1E+10	1	-1E+10	1	-1E+10	1
4902663	41	C	09/12/2024	01:17	-127.640	47.857	0	368.00	0	5.5870	0	33.9980	0	26.816	0	364.592	0	50.9	4	16.7	4	-1E+10	1	-1E+10	1	-1E+10	1	-1E+10	1	-1E+10	1	-1E+10	1
4902663	41	C	09/12/2024	01:17	-127.640	47.857	0	372.90	0	5.5390	0	34.0030	0	26.825	0	369.442	0	49.4	4	16.2	4	-1E+10	1	-1E+10	1	-1E+10	1	-1E+10	1	-1E+10	1	-1E+10	1
4902663	41	C	09/12/2024	01:17	-127.640	47.857	0	377.90	0	5.5120	0	34.0070	0	26.832	0	374.392	0	47.9	4	15.6	4	-1E+10	1	-1E+10	1	-1E+10	1	-1E+10	1	-1E+10	1	-1E+10	1
4902663	41	C	09/12/2024	01:17	-127.640	47.857	0	382.90	0	5.4760	0	34.0120	0	26.840	0	379.341	0	46.6	4	15.2	4	-1E+10	1	-1E+10	1	-1E+10	1	-1E+10	1	-1E+10	1	-1E+10	1
4902663	41	C	09/12/2024	01:17	-127.640	47.857	0	388.00	0	5.4500	0	34.0160	0	26.846	0	384.388	0	45.3	4	14.8	4	-1E+10	1	-1E+10	1	-1E+10	1	-1E+10	1	-1E+10	1	-1E+10	1
4902663	41	C	09/12/2024	01:17	-127.640	47.857	0	393.10	0	5.4250	0	34.0210	0	26.853	0	389.436	0	44.3	4	14.5	4	-1E+10	1	-1E+10	1	-1E+10	1	-1E+10	1	-1E+10	1	-1E+10	1
4902663	41	C	09/12/2024	01:17	-127.640	47.857	0	397.80	0	5.3970	0	34.0240	0	26.859	0	394.088	0	43.6	4	14.2	4	-1E+10	1	-1E+10	1	-1E+10	1	-1E+10	1	-1E+10	1	-1E+10	1
4902663	41	C	09/12/2024	01:17	-127.640	47.857	0	402.90	0	5.3670	0	34.0270	0	26.865	0	399.135	0	42.9	4	14.0	4	-1E+10	1	-1E+10	1	-1E+10	1	-1E+10	1	-1E+10	1	-1E+10	1
4902663	41	C	09/12/2024	01:17	-127.640	47.857	0	408.10	0	5.3220	0	34.0270	0	26.870	0	404.282	0	42.3	4	13.8	4	-1E+10	1	-1E+10	1	-1E+10	1	-1E+10	1	-1E+10	1	-1E+10	1
4902663	41	C	09/12/2024	01:17	-127.640	47.857	0	412.80	0	5.2770	0	34.0290	0	26.877	0	408.933	0	41.4	4	13.5	4	-1E+10	1	-1E+10	1	-1E+10	1	-1E+10	1	-1E+10	1	-1E+10	1
4902663	41	C	09/12/2024	01:17	-127.640	47.857	0	418.00	0	5.2570	0	34.0330	0	26.883	0	414.079	0	40.4	4	13.1	4	-1E+10	1	-1E+10	1	-1E+10	1	-1E+10	1	-1E+10	1	-1E+10	1
4902663	41	C	09/12/2024	01:17	-127.640	47.857	0	423.20	0	5.2460	0	34.0360	0	26.887	0	419.225	0	39.5	4	12.8	4	-1E+10	1	-1E+10	1	-1E+10	1	-1E+10	1	-1E+10	1	-1E+10	1
4902663	41	C	09/12/2024	01:17	-127.640	47.857	0	428.00	0	5.2220	0	34.0400	0	26.893	0	423.975	0	38.3	4	12.5	4	-1E+10	1	-1E+10	1	-1E+10	1	-1E+10	1	-1E+10	1	-1E+10	1
4902663	41	C	09/12/2024	01:17	-127.640	47.857	0	432.70	0	5.1990	0	34.0450	0	26.899	0	428.626	0	37.2	4	12.1	4	-1E+10	1	-1E+10	1	-1E+10	1	-1E+10	1	-1E+10	1	-1E+10	1
4902663	41	C	09/12/2024	01:17	-127.640	47.857	0	437.90	0	5.1840	0	34.0520	0	26.907	0	433.772	0	36.1	4	11.7	4	-1E+10	1	-1E+10	1	-1E+10	1	-1E+10	1	-1E+10	1	-1E+10	1
4902663	41	C	09/12/2024	01:17	-127.640	47.857	0	443.00	0	5.1450	0	34.0530	0	26.912	0	438.818	0	35.4	4	11.5	4	-1E+10	1	-1E+10	1	-1E+10	1	-1E+10	1	-1E+10	1	-1E+10	1
4902663	41	C	09/12/2024	01:17	-127.640	47.857	0	447.70	0	5.0660	0	34.0510	0	26.919	0	443.469	0	34.4	4	11.1	4	-1E+10	1	-1E+10	1	-1E+10	1	-1E+10	1	-1E+10	1	-1E+10	1
4902663	41	C	09/12/2024	01:17	-127.640	47.857	0	452.80	0	5.0530	0	34.0580	0	26.927	0	448.515	0	33.0	4	10.7	4	-1E+10	1	-1E+10	1	-1E+10	1	-1E+10	1	-1E+10	1	-1E+10	1
4902663	41	C	09/12/2024	01:17	-127.640	47.857	0	457.80	0	5.0620	0	34.0670	0	26.933	0	453.462	0	31.8	4	10.3	4	-1E+10	1	-1E+10	1	-1E+10	1	-1E+10	1	-1E+10	1	-1E+10	1
4902663	41	C	09/12/2024	01:17	-127.640	47.857	0	462.70	0	5.0530	0	34.0710	0	26.937	0	458.311	0	31.0	4	10.0	4	-1E+10	1	-1E+10	1	-1E+10	1	-1E+10	1	-1E+10	1	-1E+10	1
4902663	41	C	09/12/2024	01:17	-127.640	47.857	0	468.00	0	5.0490	0	34.0770	0	26.942	0	463.554	0	29.9	4	9.7	4	-1E+10	1	-1E+10	1	-1E+10	1	-1E+10	1	-1E+10	1	-1E+10	1
4902663	41	C	09/12/2024	01:17	-127.640	47.857	0	473.00	0	5.0330	0	34.0820	0	26.948	0	468.501	0	29.0	4	9.4	4	-1E+10	1	-1E+10	1	-1E+10	1	-1E+10	1	-1E+10	1	-1E+10	1
4902663	41	C	09/12/2024	01:17	-127.640	47.857	0	477.90	0	5.0040	0	34.0850	0	26.954	0	473.349	0	27.9	4	9.0	4	-1E+10	1	-1E+10	1	-1E+10	1	-1E+10	1	-1E+10	1	-1E+10	1
4902663	41	C	09/12/2024	01:17	-127.640	47.857	0	482.80	0	5.0060	0	34.0930	0	26.960	0	478.197	0	26.6	4	8.6	4	-1E+10	1	-1E+10	1	-1E+10	1	-1E+10	1	-1E+10	1	-1E+10	1
4902663	41	C	09/12/2024	01:17	-127.640	47.857	0	487.60	0	5.0210	0	34.1040	0	26.967	0	482.945	0	25.5	4	8.2	4	-1E+10	1	-1E+10	1	-1E+10	1	-1E+10	1	-1E+10	1	-1E+10	1
4902663	41	C	09/12/2024	01:17	-127.640	47.857	0	492.90	0	5.0000	0	34.1070	0	26.972	0	488.189	0	25.3	4	8.2	4	-1E+10	1	-1E+10	1	-1E+10	1	-1E+10	1	-1E+10	1	-1E+10	1
4902663	41	C	09/12/2024	01:17	-127.640	47.857	0	497.90	0	4.8990	0	34.1010	0	26.979	0	493.135	0	24.9	4	8.0	4	-1E+10	1	-1E+10	1	-1E+10	1	-1E+10	1	-1E+10	1	-1E+10	1
4902663	41	C	09/12/2024	01:17	-127.640	47.857	0	502.90	0	4.8520	0	34.1030	0	26.985	0	498.081	0	24.1	4	7.7	4	-1E+10	1	-1E+10	1	-1E+10	1	-1E+10	1	-1E+10	1	-1E+10	1
4902663	41	C	09/12/2024	01:17	-127.640	47.857	0	507.90	0	4.8170	0	34.1070	0	26.993	0	503.027	0	23.4	4	7.5	4	-1E+10	1	-1E+10	1	-1E+10	1	-1E+10	1	-1E+10	1	-1E+10	1
4902663	41	C	09/12/2024	01:17	-127.640	47.857	0	512.60	0	4.7830	0	34.1100	0	26.999	0	507.676	0	22.9	4	7.4	4	-1E+10	1	-1E+10	1	-1E+10	1	-1E+10	1	-1E+10	1	-1E+10	1
4902663	41	C	09/12/2024	01:17	-127.640	47.857	0	517.80	0	4.7490	0	34.1120	0	27.004	0	512.820	0	22.3	4	7.2	4	-1E+10	1	-1E+10	1	-1E+10	1	-1E+10	1	-1E+10	1	-1E+10	1
4902663	41	C	09/12/2024	01:17	-127.640	47.857	0	523.10	0	4.7290	0	34.1170	0	27.010	0	518.062	0	21.3	4	6.9	4	-1E+10	1	-1E+10	1	-1E+10	1	-1E+10	1	-1E+10	1	-1E+10	1
4902663	41	C	09/12/2024	01:17	-127.640	47.857	0	527.90	0	4.7280	0	34.1220	0	27.015	0	522.810	0	20.7	4	6.6	4	-1E+10	1	-1E+10	1	-1E+10	1	-1E+10	1	-1E+10	1	-1E+10	1
4902663	41	C	09/12/2024	01:17	-127.640	47.857	0	532.90	0	4.7240	0	34.1270	0	27.019	0	527.756	0	20.0	4	6.4	4	-1E+10	1	-1E+10	1	-1E+10	1	-1E+10	1	-1E+10	1	-1E+10	1
4902663	41	C	09/12/2024	01:17	-127.640	47.857	0	537.90	0	4.7180	0	34.1310	0	27.023	0	532.701	0	19.4	4	6.2	4	-1E+10	1	-1E+10	1	-1E+10	1	-1E+10	1	-1E+10	1	-1E+10	1
4902663	41	C	09/12/2024	01:17	-127.640	47.857	0	543.10	0	4.6890	0	34.1350	0	27.029	0	537.844	0	18.7	4	6.0	4	-1E+10	1	-1E+10	1	-1E+10	1	-1E+10	1	-1E+10	1	-1E+10	1
4902663	41	C	09/12/2024	01:17	-127.640	47.857	0	548.30	0	4.6830	0	34.1390	0	27.033	0	542.987	0	18.2	4	5.8	4	-1E+10	1	-1E+10	1	-1E+10	1	-1E+10	1	-1E+10	1	-1E+10	1
4902663	41	C	09/12/2024	01:17	-127.640	47.857	0	552.90	0	4.6640	0	34.1420	0	27.038	0	547.536	0	17.7	4	5.7	4	-1E+10	1	-1E+10	1	-1E+10	1	-1E+10	1	-1E+10	1	-1E+10	1
4902663	41	C	09/12/2024	01:17	-127.640	47.857	0	558.00	0	4.6510	0	34.1460	0	27.042	0	552.580	0	17.4	4	5.6	4	-1E+10	1	-1E+10	1	-1E+10	1	-1E+10	1	-1E+10	1	-1E+10	1
4902663	41	C	09/12/2024	01:17	-127.640	47.857	0	563.10	0	4.6240	0	34.1480	0	27.047	0	557.624	0	17.1	4	5.5	4	-1E+10	1	-1E+10	1	-1E+10	1	-1E+10	1	-1E+10	1	-1E+10	1
4902663	41	C	09/12/2024	01:17	-127.640	47.857	0	568.00	0	4.6150	0	34.1500	0	27.049	0	562.469	0	16.7	4	5.4	4	-1E+10	1	-1E+10	1	-1E+10	1	-1E+10	1	-1E+10	1	-1E+10	1
4902663	41	C	09/12/2024	01:17	-127.640	47.857	0	573.00	0	4.5960	0	34.1520	0	27.053	0	567.414	0	16.4	4	5.2	4	-1E+10	1	-1E+10	1	-1E+10	1	-1E+10	1	-1E+10	1	-1E+10	1
4902663	41	C	09/12/2024	01:17	-127.640	47.857	0	578.20	0	4.5850	0	34.1550	0	27.057	0	572.556	0	15.7	4	5.0	4	-1E+10	1	-1E+10	1	-1E+10	1	-1E+10	1	-1E+10	1	-1E+10	1
4902663	41	C	09/12/2024	01:17	-127.640	47.857	0	583.00	0	4.5820	0	34.1620	0	27.063	0	577.302	0	15.1	4	4.8	4	-1E+10	1	-1E+10	1	-1E+10	1	-1E+10	1	-1E+10	1	-1E+10	1
4902663	41	C	09/12/2024	01:17	-127.640	47.857	0	588.00	0	4.5610	0	34.1660	0	27.068	0	582.247	0	14.7	4	4.7	4	-1E+10	1	-1E+10	1	-1E+10	1	-1E+10	1	-1E+10	1	-1E+10	1
4902663	41	C	09/12/2024	01:17	-127.640	47.857	0	593.10	0	4.5430	0	34.1690	0	27.073	0	587.289	0	14.4	4	4.6	4	-1E+10	1	-1E+10	1	-1E+10	1	-1E+10	1	-1E+10	1	-1E+10	1
4902663	41	C	09/12/2024	01:17	-127.640	47.857	0	597.80	0	4.5320	0	34.1730	0	27.077	0	591.937	0	14.0	4	4.5	4	-1E+10	1	-1E+10	1	-1E+10	1	-1E+10	1	-1E+10	1	-1E+10	1
4902663	41	C	09/12/2024	01:17	-127.640	47.857	0	602.60	0	4.5190	0	34.1750	0	27.080	0	596.683	0	13.6	4	4.3	4	-1E+10	1	-1E+10	1	-1E+10	1	-1E+10	1	-1E+10	1	-1E+10	1
4902663	41	C	09/12/2024	01:17	-127.640	47.857	0	607.90	0	4.5120	0	34.1800	0	27.085	0	601.923	0	13.1	4	4.2	4	-1E+10	1	-1E+10	1	-1E+10	1	-1E+10	1	-1E+10	1	-1E+10	1
4902663	41	C	09/12/2024	01:17	-127.640	47.857	0	613.20	0	4.5110	0	34.1850	0	27.089	0	607.163	0	12.8	4	4.1	4	-1E+10	1	-1E+10	1	-1E+10	1	-1E+10	1	-1E+10	1	-1E+10	1
4902663	41	C	09/12/2024	01:17	-127.640	47.857	0	618.20	0	4.5060	0	34.1890	0	27.093	0	612.107	0	12.5	4	4.0	4	-1E+10	1	-1E+10	1	-1E+10	1	-1E+10	1	-1E+10	1	-1E+10	1
4902663	41	C	09/12/2024	01:17	-127.640	47.857	0	623.10	0	4.5000	0	34.1910	0	27.095	0	616.951	0	12.1	4	3.9	4	-1E+10	1	-1E+10	1	-1E+10	1	-1E+10	1	-1E+10	1	-1E+10	1
4902663	41	C	09/12/2024	01:17	-127.640	47.857	0	628.10	0	4.4890	0	34.1970	0	27.101	0	621.894	0	11.7	4	3.7	4	-1E+10	1	-1E+10	1	-1E+10	1	-1E+10	1	-1E+10	1	-1E+10	1
4902663	41	C	09/12/2024	01:17	-127.640	47.857	0	633.30	0	4.4800	0	34.2030	0	27.107	0	627.035	0	11.3	4	3.6	4	-1E+10	1	-1E+10	1	-1E+10	1	-1E+10	1	-1E+10	1	-1E+10	1
4902663	41	C	09/12/2024	01:17	-127.640	47.857	0	637.90	0	4.4750	0	34.2080	0	27.111	0	631.583	0	11.1	4	3.5	4	-1E+10	1	-1E+10	1	-1E+10	1	-1E+10	1	-1E+10	1	-1E+10	1
4902663	41	C	09/12/2024	01:17	-127.640	47.857	0	642.60	0	4.4690	0	34.2120	0	27.115	0	636.229	0	10.9	4	3.5	4	-1E+10	1	-1E+10	1	-1E+10	1	-1E+10	1	-1E+10	1	-1E+10	1
4902663	41	C	09/12/2024	01:17	-127.640	47.857	0	647.90	0	4.4560	0	34.2140	0	27.118	0	641.468	0	10.7	4	3.4	4	-1E+10	1	-1E+10	1	-1E+10	1	-1E+10	1	-1E+10	1	-1E+10	1
4902663	41	C	09/12/2024	01:17	-127.640	47.857	0	653.20	0	4.4390	0	34.2150	0	27.121	0	646.707	0	10.5	4	3.3	4	-1E+10	1	-1E+10	1	-1E+10	1	-1E+10	1	-1E+10	1	-1E+10	1
4902663	41	C	09/12/2024	01:17	-127.640	47.857	0	657.80	0	4.4270	0	34.2200	0	27.126	0	651.254	0	10.3	4	3.3	4	-1E+10	1	-1E+10	1	-1E+10	1	-1E+10	1	-1E+10	1	-1E+10	1
4902663	41	C	09/12/2024	01:17	-127.640	47.857	0	662.50	0	4.4200	0	34.2220	0	27.129	0	655.900	0	10.2	4	3.2	4	-1E+10	1	-1E+10	1	-1E+10	1	-1E+10	1	-1E+10	1	-1E+10	1
4902663	41	C	09/12/2024	01:17	-127.640	47.857	0	667.70	0	4.3770	0	34.2210	0	27.132	0	661.040	0	10.0	4	3.2	4	-1E+10	1	-1E+10	1	-1E+10	1	-1E+10	1	-1E+10	1	-1E+10	1
4902663	41	C	09/12/2024	01:17	-127.640	47.857	0	672.90	0	4.3480	0	34.2230	0	27.137	0	666.180	0	9.8	4	3.1	4	-1E+10	1	-1E+10	1	-1E+10	1	-1E+10	1	-1E+10	1	-1E+10	1
4902663	41	C	09/12/2024	01:17	-127.640	47.857	0	678.10	0	4.3280	0	34.2260	0	27.142	0	671.320	0	9.6	4	3.1	4	-1E+10	1	-1E+10	1	-1E+10	1	-1E+10	1	-1E+10	1	-1E+10	1
4902663	41	C	09/12/2024	01:17	-127.640	47.857	0	682.80	0	4.3170	0	34.2300	0	27.146	0	675.965	0	9.4	4	3.0	4	-1E+10	1	-1E+10	1	-1E+10	1	-1E+10	1	-1E+10	1	-1E+10	1
4902663	41	C	09/12/2024	01:17	-127.640	47.857	0	687.50	0	4.3070	0	34.2330	0	27.149	0	680.610	0	9.3	4	3.0	4	-1E+10	1	-1E+10	1	-1E+10	1	-1E+10	1	-1E+10	1	-1E+10	1
4902663	41	C	09/12/2024	01:17	-127.640	47.857	0	692.60	0	4.3010	0	34.2350	0	27.152	0	685.651	0	9.2	4	2.9	4	-1E+10	1	-1E+10	1	-1E+10	1	-1E+10	1	-1E+10	1	-1E+10	1
4902663	41	C	09/12/2024	01:17	-127.640	47.857	0	697.60	0	4.2920	0	34.2390	0	27.156	0	690.592	0	9.0	4	2.9	4	-1E+10	1	-1E+10	1	-1E+10	1	-1E+10	1	-1E+10	1	-1E+10	1
4902663	41	C	09/12/2024	01:17	-127.640	47.857	0	702.50	0	4.2760	0	34.2400	0	27.158	0	695.435	0	9.0	4	2.8	4	-1E+10	1	-1E+10	1	-1E+10	1	-1E+10	1	-1E+10	1	-1E+10	1
4902663	41	C	09/12/2024	01:17	-127.640	47.857	0	707.50	0	4.2670	0	34.2410	0	27.160	0	700.376	0	8.9	4	2.8	4	-1E+10	1	-1E+10	1	-1E+10	1	-1E+10	1	-1E+10	1	-1E+10	1
4902663	41	C	09/12/2024	01:17	-127.640	47.857	0	712.90	0	4.2530	0	34.2440	0	27.164	0	705.713	0	8.7	4	2.8	4	-1E+10	1	-1E+10	1	-1E+10	1	-1E+10	1	-1E+10	1	-1E+10	1
4902663	41	C	09/12/2024	01:17	-127.640	47.857	0	718.30	0	4.2330	0	34.2480	0	27.169	0	711.049	0	8.5	4	2.7	4	-1E+10	1	-1E+10	1	-1E+10	1	-1E+10	1	-1E+10	1	-1E+10	1
4902663	41	C	09/12/2024	01:17	-127.640	47.857	0	723.20	0	4.2220	0	34.2510	0	27.173	0	715.891	0	8.4	4	2.7	4	-1E+10	1	-1E+10	1	-1E+10	1	-1E+10	1	-1E+10	1	-1E+10	1
4902663	41	C	09/12/2024	01:17	-127.640	47.857	0	728.10	0	4.2010	0	34.2550	0	27.178	0	720.733	0	8.3	4	2.6	4	-1E+10	1	-1E+10	1	-1E+10	1	-1E+10	1	-1E+10	1	-1E+10	1
4902663	41	C	09/12/2024	01:17	-127.640	47.857	0	732.90	0	4.1910	0	34.2580	0	27.182	0	725.477	0	8.1	4	2.6	4	-1E+10	1	-1E+10	1	-1E+10	1	-1E+10	1	-1E+10	1	-1E+10	1
4902663	41	C	09/12/2024	01:17	-127.640	47.857	0	737.70	0	4.1790	0	34.2620	0	27.186	0	730.220	0	8.1	4	2.6	4	-1E+10	1	-1E+10	1	-1E+10	1	-1E+10	1	-1E+10	1	-1E+10	1
4902663	41	C	09/12/2024	01:17	-127.640	47.857	0	743.00	0	4.1610	0	34.2640	0	27.190	0	735.456	0	8.0	4	2.5	4	-1E+10	1	-1E+10	1	-1E+10	1	-1E+10	1	-1E+10	1	-1E+10	1
4902663	41	C	09/12/2024	01:17	-127.640	47.857	0	748.30	0	4.1370	0	34.2670	0	27.195	0	740.693	0	7.9	4	2.5	4	-1E+10	1	-1E+10	1	-1E+10	1	-1E+10	1	-1E+10	1	-1E+10	1
4902663	41	C	09/12/2024	01:17	-127.640	47.857	0	753.20	0	4.1350	0	34.2670	0	27.195	0	745.535	0	7.8	4	2.5	4	-1E+10	1	-1E+10	1	-1E+10	1	-1E+10	1	-1E+10	1	-1E+10	1
4902663	41	C	09/12/2024	01:17	-127.640	47.857	0	757.90	0	4.1220	0	34.2700	0	27.199	0	750.178	0	7.7	4	2.4	4	-1E+10	1	-1E+10	1	-1E+10	1	-1E+10	1	-1E+10	1	-1E+10	1
4902663	41	C	09/12/2024	01:17	-127.640	47.857	0	763.00	0	4.1030	0	34.2730	0	27.203	0	755.217	0	7.6	4	2.4	4	-1E+10	1	-1E+10	1	-1E+10	1	-1E+10	1	-1E+10	1	-1E+10	1
4902663	41	C	09/12/2024	01:17	-127.640	47.857	0	768.10	0	4.0910	0	34.2760	0	27.207	0	760.256	0	7.6	4	2.4	4	-1E+10	1	-1E+10	1	-1E+10	1	-1E+10	1	-1E+10	1	-1E+10	1
4902663	41	C	09/12/2024	01:17	-127.640	47.857	0	772.60	0	4.0710	0	34.2780	0	27.210	0	764.702	0	7.5	4	2.4	4	-1E+10	1	-1E+10	1	-1E+10	1	-1E+10	1	-1E+10	1	-1E+10	1
4902663	41	C	09/12/2024	01:17	-127.640	47.857	0	777.80	0	4.0490	0	34.2820	0	27.216	0	769.839	0	7.4	4	2.3	4	-1E+10	1	-1E+10	1	-1E+10	1	-1E+10	1	-1E+10	1	-1E+10	1
4902663	41	C	09/12/2024	01:17	-127.640	47.857	0	783.10	0	4.0380	0	34.2860	0	27.220	0	775.075	0	7.3	4	2.3	4	-1E+10	1	-1E+10	1	-1E+10	1	-1E+10	1	-1E+10	1	-1E+10	1
4902663	41	C	09/12/2024	01:17	-127.640	47.857	0	788.00	0	4.0280	0	34.2890	0	27.224	0	779.916	0	7.3	4	2.3	4	-1E+10	1	-1E+10	1	-1E+10	1	-1E+10	1	-1E+10	1	-1E+10	1
4902663	41	C	09/12/2024	01:17	-127.640	47.857	0	793.00	0	4.0030	0	34.2910	0	27.228	0	784.855	0	7.3	4	2.3	4	-1E+10	1	-1E+10	1	-1E+10	1	-1E+10	1	-1E+10	1	-1E+10	1
4902663	41	C	09/12/2024	01:17	-127.640	47.857	0	798.00	0	3.9940	0	34.2930	0	27.230	0	789.794	0	7.2	4	2.3	4	-1E+10	1	-1E+10	1	-1E+10	1	-1E+10	1	-1E+10	1	-1E+10	1
4902663	41	C	09/12/2024	01:17	-127.640	47.857	0	803.10	0	3.9740	0	34.2950	0	27.234	0	794.832	0	7.2	4	2.3	4	-1E+10	1	-1E+10	1	-1E+10	1	-1E+10	1	-1E+10	1	-1E+10	1
4902663	41	C	09/12/2024	01:17	-127.640	47.857	0	808.20	0	3.9620	0	34.2970	0	27.237	0	799.870	0	7.2	4	2.3	4	-1E+10	1	-1E+10	1	-1E+10	1	-1E+10	1	-1E+10	1	-1E+10	1
4902663	41	C	09/12/2024	01:17	-127.640	47.857	0	813.20	0	3.9510	0	34.2990	0	27.240	0	804.808	0	7.1	4	2.3	4	-1E+10	1	-1E+10	1	-1E+10	1	-1E+10	1	-1E+10	1	-1E+10	1
4902663	41	C	09/12/2024	01:17	-127.640	47.857	0	818.30	0	3.9440	0	34.3020	0	27.243	0	809.846	0	7.1	4	2.2	4	-1E+10	1	-1E+10	1	-1E+10	1	-1E+10	1	-1E+10	1	-1E+10	1
4902663	41	C	09/12/2024	01:17	-127.640	47.857	0	823.30	0	3.9360	0	34.3040	0	27.245	0	814.785	0	7.0	4	2.2	4	-1E+10	1	-1E+10	1	-1E+10	1	-1E+10	1	-1E+10	1	-1E+10	1
4902663	41	C	09/12/2024	01:17	-127.640	47.857	0	828.40	0	3.9280	0	34.3060	0	27.248	0	819.822	0	7.0	4	2.2	4	-1E+10	1	-1E+10	1	-1E+10	1	-1E+10	1	-1E+10	1	-1E+10	1
4902663	41	C	09/12/2024	01:17	-127.640	47.857	0	833.00	0	3.9150	0	34.3090	0	27.251	0	824.365	0	7.0	4	2.2	4	-1E+10	1	-1E+10	1	-1E+10	1	-1E+10	1	-1E+10	1	-1E+10	1
4902663	41	C	09/12/2024	01:17	-127.640	47.857	0	838.00	0	3.9020	0	34.3110	0	27.254	0	829.303	0	6.9	4	2.2	4	-1E+10	1	-1E+10	1	-1E+10	1	-1E+10	1	-1E+10	1	-1E+10	1
4902663	41	C	09/12/2024	01:17	-127.640	47.857	0	843.10	0	3.8890	0	34.3140	0	27.258	0	834.340	0	6.9	4	2.2	4	-1E+10	1	-1E+10	1	-1E+10	1	-1E+10	1	-1E+10	1	-1E+10	1
4902663	41	C	09/12/2024	01:17	-127.640	47.857	0	847.90	0	3.8680	0	34.3160	0	27.262	0	839.081	0	6.9	4	2.2	4	-1E+10	1	-1E+10	1	-1E+10	1	-1E+10	1	-1E+10	1	-1E+10	1
4902663	41	C	09/12/2024	01:17	-127.640	47.857	0	853.00	0	3.8580	0	34.3180	0	27.265	0	844.117	0	6.9	4	2.2	4	-1E+10	1	-1E+10	1	-1E+10	1	-1E+10	1	-1E+10	1	-1E+10	1
4902663	41	C	09/12/2024	01:17	-127.640	47.857	0	858.20	0	3.8500	0	34.3220	0	27.269	0	849.253	0	6.9	4	2.2	4	-1E+10	1	-1E+10	1	-1E+10	1	-1E+10	1	-1E+10	1	-1E+10	1
4902663	41	C	09/12/2024	01:17	-127.640	47.857	0	863.10	0	3.8420	0	34.3260	0	27.273	0	854.092	0	6.9	4	2.2	4	-1E+10	1	-1E+10	1	-1E+10	1	-1E+10	1	-1E+10	1	-1E+10	1
4902663	41	C	09/12/2024	01:17	-127.640	47.857	0	868.00	0	3.8190	0	34.3280	0	27.277	0	858.930	0	6.9	4	2.2	4	-1E+10	1	-1E+10	1	-1E+10	1	-1E+10	1	-1E+10	1	-1E+10	1
4902663	41	C	09/12/2024	01:17	-127.640	47.857	0	873.00	0	3.8060	0	34.3280	0	27.278	0	863.868	0	6.9	4	2.2	4	-1E+10	1	-1E+10	1	-1E+10	1	-1E+10	1	-1E+10	1	-1E+10	1
4902663	41	C	09/12/2024	01:17	-127.640	47.857	0	878.00	0	3.7870	0	34.3320	0	27.283	0	868.805	0	6.9	4	2.2	4	-1E+10	1	-1E+10	1	-1E+10	1	-1E+10	1	-1E+10	1	-1E+10	1
4902663	41	C	09/12/2024	01:17	-127.640	47.857	0	883.00	0	3.7760	0	34.3340	0	27.286	0	873.742	0	6.9	4	2.2	4	-1E+10	1	-1E+10	1	-1E+10	1	-1E+10	1	-1E+10	1	-1E+10	1
4902663	41	C	09/12/2024	01:17	-127.640	47.857	0	888.10	0	3.7670	0	34.3350	0	27.287	0	878.778	0	6.9	4	2.2	4	-1E+10	1	-1E+10	1	-1E+10	1	-1E+10	1	-1E+10	1	-1E+10	1
4902663	41	C	09/12/2024	01:17	-127.640	47.857	0	893.20	0	3.7620	0	34.3360	0	27.289	0	883.814	0	6.9	4	2.2	4	-1E+10	1	-1E+10	1	-1E+10	1	-1E+10	1	-1E+10	1	-1E+10	1
4902663	41	C	09/12/2024	01:17	-127.640	47.857	0	897.90	0	3.7600	0	34.3380	0	27.291	0	888.455	0	6.9	4	2.2	4	-1E+10	1	-1E+10	1	-1E+10	1	-1E+10	1	-1E+10	1	-1E+10	1
4902663	41	C	09/12/2024	01:17	-127.640	47.857	0	902.60	0	3.7480	0	34.3400	0	27.293	0	893.095	0	6.9	4	2.2	4	-1E+10	1	-1E+10	1	-1E+10	1	-1E+10	1	-1E+10	1	-1E+10	1
4902663	41	C	09/12/2024	01:17	-127.640	47.857	0	907.80	0	3.7400	0	34.3430	0	27.297	0	898.229	0	6.9	4	2.2	4	-1E+10	1	-1E+10	1	-1E+10	1	-1E+10	1	-1E+10	1	-1E+10	1
4902663	41	C	09/12/2024	01:17	-127.640	47.857	0	913.00	0	3.7360	0	34.3450	0	27.299	0	903.363	0	6.9	4	2.2	4	-1E+10	1	-1E+10	1	-1E+10	1	-1E+10	1	-1E+10	1	-1E+10	1
4902663	41	C	09/12/2024	01:17	-127.640	47.857	0	917.80	0	3.7320	0	34.3480	0	27.301	0	908.102	0	7.0	4	2.2	4	-1E+10	1	-1E+10	1	-1E+10	1	-1E+10	1	-1E+10	1	-1E+10	1
4902663	41	C	09/12/2024	01:17	-127.640	47.857	0	922.70	0	3.7190	0	34.3520	0	27.306	0	912.940	0	7.0	4	2.2	4	-1E+10	1	-1E+10	1	-1E+10	1	-1E+10	1	-1E+10	1	-1E+10	1
4902663	41	C	09/12/2024	01:17	-127.640	47.857	0	928.00	0	3.7050	0	34.3540	0	27.309	0	918.172	0	7.0	4	2.2	4	-1E+10	1	-1E+10	1	-1E+10	1	-1E+10	1	-1E+10	1	-1E+10	1
4902663	41	C	09/12/2024	01:17	-127.640	47.857	0	932.90	0	3.6910	0	34.3550	0	27.311	0	923.009	0	7.1	4	2.2	4	-1E+10	1	-1E+10	1	-1E+10	1	-1E+10	1	-1E+10	1	-1E+10	1
4902663	41	C	09/12/2024	01:17	-127.640	47.857	0	937.90	0	3.6800	0	34.3570	0	27.314	0	927.945	0	7.1	4	2.2	4	-1E+10	1	-1E+10	1	-1E+10	1	-1E+10	1	-1E+10	1	-1E+10	1
4902663	41	C	09/12/2024	01:17	-127.640	47.857	0	942.90	0	3.6670	0	34.3590	0	27.317	0	932.881	0	7.2	4	2.3	4	-1E+10	1	-1E+10	1	-1E+10	1	-1E+10	1	-1E+10	1	-1E+10	1
4902663	41	C	09/12/2024	01:17	-127.640	47.857	0	948.00	0	3.6520	0	34.3620	0	27.321	0	937.915	0	7.3	4	2.3	4	-1E+10	1	-1E+10	1	-1E+10	1	-1E+10	1	-1E+10	1	-1E+10	1
4902663	41	C	09/12/2024	01:17	-127.640	47.857	0	953.10	0	3.6460	0	34.3650	0	27.324	0	942.950	0	7.3	4	2.3	4	-1E+10	1	-1E+10	1	-1E+10	1	-1E+10	1	-1E+10	1	-1E+10	1
4902663	41	C	09/12/2024	01:17	-127.640	47.857	0	958.10	0	3.6350	0	34.3660	0	27.326	0	947.885	0	7.4	4	2.3	4	-1E+10	1	-1E+10	1	-1E+10	1	-1E+10	1	-1E+10	1	-1E+10	1
4902663	41	C	09/12/2024	01:17	-127.640	47.857	0	963.10	0	3.6110	0	34.3680	0	27.330	0	952.820	0	7.4	4	2.3	4	-1E+10	1	-1E+10	1	-1E+10	1	-1E+10	1	-1E+10	1	-1E+10	1
4902663	41	C	09/12/2024	01:17	-127.640	47.857	0	967.70	0	3.5940	0	34.3700	0	27.333	0	957.361	0	7.4	4	2.3	4	-1E+10	1	-1E+10	1	-1E+10	1	-1E+10	1	-1E+10	1	-1E+10	1
4902663	41	C	09/12/2024	01:17	-127.640	47.857	0	972.90	0	3.5830	0	34.3710	0	27.335	0	962.493	0	7.5	4	2.3	4	-1E+10	1	-1E+10	1	-1E+10	1	-1E+10	1	-1E+10	1	-1E+10	1
4902663	41	C	09/12/2024	01:17	-127.640	47.857	0	978.20	0	3.5860	0	34.3740	0	27.337	0	967.724	0	7.6	4	2.4	4	-1E+10	1	-1E+10	1	-1E+10	1	-1E+10	1	-1E+10	1	-1E+10	1
4902663	41	C	09/12/2024	01:17	-127.640	47.857	0	983.00	0	3.5870	0	34.3780	0	27.340	0	972.462	0	7.6	4	2.4	4	-1E+10	1	-1E+10	1	-1E+10	1	-1E+10	1	-1E+10	1	-1E+10	1
4902663	41	C	09/12/2024	01:17	-127.640	47.857	0	987.90	0	3.5620	0	34.3770	0	27.342	0	977.298	0	7.7	4	2.4	4	-1E+10	1	-1E+10	1	-1E+10	1	-1E+10	1	-1E+10	1	-1E+10	1
4902663	41	C	09/12/2024	01:17	-127.640	47.857	0	992.70	0	3.5460	0	34.3780	0	27.344	0	982.035	0	7.8	4	2.4	4	-1E+10	1	-1E+10	1	-1E+10	1	-1E+10	1	-1E+10	1	-1E+10	1
4902663	41	C	09/12/2024	01:17	-127.640	47.857	0	997.70	0	3.5350	0	34.3820	0	27.348	0	986.970	0	7.8	4	2.5	4	-1E+10	1	-1E+10	1	-1E+10	1	-1E+10	1	-1E+10	1	-1E+10	1
4902663	41	C	09/12/2024	01:17	-127.640	47.857	0	1005.00	0	3.5190	0	34.3850	0	27.352	0	994.174	0	8.0	4	2.5	4	-1E+10	1	-1E+10	1	-1E+10	1	-1E+10	1	-1E+10	1	-1E+10	1
4902663	41	C	09/12/2024	01:17	-127.640	47.857	0	1015.00	0	3.5140	0	34.3910	0	27.358	0	1004.042	0	8.2	4	2.6	4	-1E+10	1	-1E+10	1	-1E+10	1	-1E+10	1	-1E+10	1	-1E+10	1
4902663	41	C	09/12/2024	01:17	-127.640	47.857	0	1025.40	0	3.4940	0	34.3950	0	27.363	0	1014.305	0	8.4	4	2.6	4	-1E+10	1	-1E+10	1	-1E+10	1	-1E+10	1	-1E+10	1	-1E+10	1
4902663	41	C	09/12/2024	01:17	-127.640	47.857	0	1035.40	0	3.4790	0	34.3990	0	27.368	0	1024.172	0	8.5	4	2.7	4	-1E+10	1	-1E+10	1	-1E+10	1	-1E+10	1	-1E+10	1	-1E+10	1
4902663	41	C	09/12/2024	01:17	-127.640	47.857	0	1045.10	0	3.4600	0	34.4030	0	27.373	0	1033.743	0	8.7	4	2.7	4	-1E+10	1	-1E+10	1	-1E+10	1	-1E+10	1	-1E+10	1	-1E+10	1
4902663	41	C	09/12/2024	01:17	-127.640	47.857	0	1055.40	0	3.4440	0	34.4050	0	27.376	0	1043.905	0	8.9	4	2.8	4	-1E+10	1	-1E+10	1	-1E+10	1	-1E+10	1	-1E+10	1	-1E+10	1
4902663	41	C	09/12/2024	01:17	-127.640	47.857	0	1065.20	0	3.4270	0	34.4100	0	27.381	0	1053.574	0	9.1	4	2.8	4	-1E+10	1	-1E+10	1	-1E+10	1	-1E+10	1	-1E+10	1	-1E+10	1
4902663	41	C	09/12/2024	01:17	-127.640	47.857	0	1075.20	0	3.4080	0	34.4130	0	27.386	0	1063.440	0	9.3	4	2.9	4	-1E+10	1	-1E+10	1	-1E+10	1	-1E+10	1	-1E+10	1	-1E+10	1
4902663	41	C	09/12/2024	01:17	-127.640	47.857	0	1085.60	0	3.3880	0	34.4160	0	27.390	0	1073.699	0	9.5	4	3.0	4	-1E+10	1	-1E+10	1	-1E+10	1	-1E+10	1	-1E+10	1	-1E+10	1
4902663	41	C	09/12/2024	01:17	-127.640	47.857	0	1095.60	0	3.3670	0	34.4190	0	27.395	0	1083.564	0	9.8	4	3.0	4	-1E+10	1	-1E+10	1	-1E+10	1	-1E+10	1	-1E+10	1	-1E+10	1
4902663	41	C	09/12/2024	01:17	-127.640	47.857	0	1105.70	0	3.3390	0	34.4230	0	27.400	0	1093.527	0	10.1	4	3.1	4	-1E+10	1	-1E+10	1	-1E+10	1	-1E+10	1	-1E+10	1	-1E+10	1
4902663	41	C	09/12/2024	01:17	-127.640	47.857	0	1115.30	0	3.3140	0	34.4260	0	27.405	0	1102.996	0	10.3	4	3.2	4	-1E+10	1	-1E+10	1	-1E+10	1	-1E+10	1	-1E+10	1	-1E+10	1
4902663	41	C	09/12/2024	01:17	-127.640	47.857	0	1125.20	0	3.2810	0	34.4300	0	27.412	0	1112.760	0	10.6	4	3.3	4	-1E+10	1	-1E+10	1	-1E+10	1	-1E+10	1	-1E+10	1	-1E+10	1
4902663	41	C	09/12/2024	01:17	-127.640	47.857	0	1135.10	0	3.2580	0	34.4330	0	27.416	0	1122.524	0	10.9	4	3.4	4	-1E+10	1	-1E+10	1	-1E+10	1	-1E+10	1	-1E+10	1	-1E+10	1
4902663	41	C	09/12/2024	01:17	-127.640	47.857	0	1145.40	0	3.2340	0	34.4370	0	27.422	0	1132.683	0	11.2	4	3.5	4	-1E+10	1	-1E+10	1	-1E+10	1	-1E+10	1	-1E+10	1	-1E+10	1
4902663	41	C	09/12/2024	01:17	-127.640	47.857	0	1155.70	0	3.2110	0	34.4390	0	27.425	0	1142.840	0	11.4	4	3.5	4	-1E+10	1	-1E+10	1	-1E+10	1	-1E+10	1	-1E+10	1	-1E+10	1
4902663	41	C	09/12/2024	01:17	-127.640	47.857	0	1165.50	0	3.1900	0	34.4410	0	27.429	0	1152.504	0	11.6	4	3.6	4	-1E+10	1	-1E+10	1	-1E+10	1	-1E+10	1	-1E+10	1	-1E+10	1
4902663	41	C	09/12/2024	01:17	-127.640	47.857	0	1175.50	0	3.1720	0	34.4440	0	27.433	0	1162.365	0	11.8	4	3.7	4	-1E+10	1	-1E+10	1	-1E+10	1	-1E+10	1	-1E+10	1	-1E+10	1
4902663	41	C	09/12/2024	01:17	-127.640	47.857	0	1185.30	0	3.1460	0	34.4460	0	27.437	0	1172.028	0	12.0	4	3.7	4	-1E+10	1	-1E+10	1	-1E+10	1	-1E+10	1	-1E+10	1	-1E+10	1
4902663	41	C	09/12/2024	01:17	-127.640	47.857	0	1195.30	0	3.1190	0	34.4470	0	27.440	0	1181.888	0	12.2	4	3.8	4	-1E+10	1	-1E+10	1	-1E+10	1	-1E+10	1	-1E+10	1	-1E+10	1
4902663	41	C	09/12/2024	01:17	-127.640	47.857	0	1205.20	0	3.0940	0	34.4490	0	27.444	0	1191.649	0	12.4	4	3.9	4	-1E+10	1	-1E+10	1	-1E+10	1	-1E+10	1	-1E+10	1	-1E+10	1
4902663	41	C	09/12/2024	01:17	-127.640	47.857	0	1215.30	0	3.0700	0	34.4510	0	27.448	0	1201.607	0	12.7	4	3.9	4	-1E+10	1	-1E+10	1	-1E+10	1	-1E+10	1	-1E+10	1	-1E+10	1
4902663	41	C	09/12/2024	01:17	-127.640	47.857	0	1225.30	0	3.0320	0	34.4530	0	27.453	0	1211.465	0	12.9	4	4.0	4	-1E+10	1	-1E+10	1	-1E+10	1	-1E+10	1	-1E+10	1	-1E+10	1
4902663	41	C	09/12/2024	01:17	-127.640	47.857	0	1235.00	0	3.0070	0	34.4540	0	27.456	0	1221.028	0	13.1	4	4.0	4	-1E+10	1	-1E+10	1	-1E+10	1	-1E+10	1	-1E+10	1	-1E+10	1
4902663	41	C	09/12/2024	01:17	-127.640	47.857	0	1245.00	0	2.9820	0	34.4550	0	27.460	0	1230.885	0	13.4	4	4.1	4	-1E+10	1	-1E+10	1	-1E+10	1	-1E+10	1	-1E+10	1	-1E+10	1
4902663	41	C	09/12/2024	01:17	-127.640	47.857	0	1255.20	0	2.9610	0	34.4580	0	27.464	0	1240.939	0	13.8	4	4.2	4	-1E+10	1	-1E+10	1	-1E+10	1	-1E+10	1	-1E+10	1	-1E+10	1
4902663	41	C	09/12/2024	01:17	-127.640	47.857	0	1265.20	0	2.9440	0	34.4610	0	27.468	0	1250.796	0	14.2	4	4.4	4	-1E+10	1	-1E+10	1	-1E+10	1	-1E+10	1	-1E+10	1	-1E+10	1
4902663	41	C	09/12/2024	01:17	-127.640	47.857	0	1275.40	0	2.9180	0	34.4640	0	27.473	0	1260.850	0	14.5	4	4.5	4	-1E+10	1	-1E+10	1	-1E+10	1	-1E+10	1	-1E+10	1	-1E+10	1
4902663	41	C	09/12/2024	01:17	-127.640	47.857	0	1285.80	0	2.8930	0	34.4660	0	27.477	0	1271.100	0	14.8	4	4.6	4	-1E+10	1	-1E+10	1	-1E+10	1	-1E+10	1	-1E+10	1	-1E+10	1
4902663	41	C	09/12/2024	01:17	-127.640	47.857	0	1295.80	0	2.8750	0	34.4690	0	27.481	0	1280.955	0	15.2	4	4.7	4	-1E+10	1	-1E+10	1	-1E+10	1	-1E+10	1	-1E+10	1	-1E+10	1
4902663	41	C	09/12/2024	01:17	-127.640	47.857	0	1305.50	0	2.8660	0	34.4710	0	27.483	0	1290.514	0	15.7	4	4.8	4	-1E+10	1	-1E+10	1	-1E+10	1	-1E+10	1	-1E+10	1	-1E+10	1
4902663	41	C	09/12/2024	01:17	-127.640	47.857	0	1315.30	0	2.8550	0	34.4760	0	27.488	0	1300.171	0	16.4	4	5.0	4	-1E+10	1	-1E+10	1	-1E+10	1	-1E+10	1	-1E+10	1	-1E+10	1
4902663	41	C	09/12/2024	01:17	-127.640	47.857	0	1325.20	0	2.8430	0	34.4800	0	27.492	0	1309.927	0	17.1	4	5.3	4	-1E+10	1	-1E+10	1	-1E+10	1	-1E+10	1	-1E+10	1	-1E+10	1
4902663	41	C	09/12/2024	01:17	-127.640	47.857	0	1335.30	0	2.8440	0	34.4850	0	27.496	0	1319.879	0	17.7	4	5.4	4	-1E+10	1	-1E+10	1	-1E+10	1	-1E+10	1	-1E+10	1	-1E+10	1
4902663	41	C	09/12/2024	01:17	-127.640	47.857	0	1345.40	0	2.8250	0	34.4880	0	27.500	0	1329.830	0	18.1	4	5.6	4	-1E+10	1	-1E+10	1	-1E+10	1	-1E+10	1	-1E+10	1	-1E+10	1
4902663	41	C	09/12/2024	01:17	-127.640	47.857	0	1355.60	0	2.8060	0	34.4890	0	27.503	0	1339.880	0	18.6	4	5.7	4	-1E+10	1	-1E+10	1	-1E+10	1	-1E+10	1	-1E+10	1	-1E+10	1
4902663	41	C	09/12/2024	01:17	-127.640	47.857	0	1365.50	0	2.7860	0	34.4920	0	27.507	0	1349.633	0	19.1	4	5.9	4	-1E+10	1	-1E+10	1	-1E+10	1	-1E+10	1	-1E+10	1	-1E+10	1
4902663	41	C	09/12/2024	01:17	-127.640	47.857	0	1375.60	0	2.7600	0	34.4940	0	27.511	0	1359.583	0	19.5	4	6.0	4	-1E+10	1	-1E+10	1	-1E+10	1	-1E+10	1	-1E+10	1	-1E+10	1
4902663	41	C	09/12/2024	01:17	-127.640	47.857	0	1385.60	0	2.7380	0	34.4950	0	27.514	0	1369.434	0	19.7	4	6.0	4	-1E+10	1	-1E+10	1	-1E+10	1	-1E+10	1	-1E+10	1	-1E+10	1
4902663	41	C	09/12/2024	01:17	-127.640	47.857	0	1395.50	0	2.7160	0	34.4960	0	27.517	0	1379.187	0	19.9	4	6.1	4	-1E+10	1	-1E+10	1	-1E+10	1	-1E+10	1	-1E+10	1	-1E+10	1
4902663	41	C	09/12/2024	01:17	-127.640	47.857	0	1405.30	0	2.6780	0	34.4960	0	27.520	0	1388.840	0	20.1	4	6.2	4	-1E+10	1	-1E+10	1	-1E+10	1	-1E+10	1	-1E+10	1	-1E+10	1
4902663	41	C	09/12/2024	01:17	-127.640	47.857	0	1415.20	0	2.6690	0	34.4980	0	27.522	0	1398.591	0	20.7	4	6.3	4	-1E+10	1	-1E+10	1	-1E+10	1	-1E+10	1	-1E+10	1	-1E+10	1
4902663	41	C	09/12/2024	01:17	-127.640	47.857	0	1425.10	0	2.6540	0	34.5000	0	27.525	0	1408.342	0	21.1	4	6.4	4	-1E+10	1	-1E+10	1	-1E+10	1	-1E+10	1	-1E+10	1	-1E+10	1
4902663	41	C	09/12/2024	01:17	-127.640	47.857	0	1435.40	0	2.6280	0	34.5020	0	27.529	0	1418.486	0	21.4	4	6.6	4	-1E+10	1	-1E+10	1	-1E+10	1	-1E+10	1	-1E+10	1	-1E+10	1
4902663	41	C	09/12/2024	01:17	-127.640	47.857	0	1445.40	0	2.6110	0	34.5040	0	27.532	0	1428.334	0	22.0	4	6.7	4	-1E+10	1	-1E+10	1	-1E+10	1	-1E+10	1	-1E+10	1	-1E+10	1
4902663	41	C	09/12/2024	01:17	-127.640	47.857	0	1455.50	0	2.6000	0	34.5060	0	27.535	0	1438.281	0	22.5	4	6.9	4	-1E+10	1	-1E+10	1	-1E+10	1	-1E+10	1	-1E+10	1	-1E+10	1
4902663	41	C	09/12/2024	01:17	-127.640	47.857	0	1465.70	0	2.5850	0	34.5090	0	27.539	0	1448.325	0	23.0	4	7.0	4	-1E+10	1	-1E+10	1	-1E+10	1	-1E+10	1	-1E+10	1	-1E+10	1
4902663	41	C	09/12/2024	01:17	-127.640	47.857	0	1475.60	0	2.5720	0	34.5100	0	27.541	0	1458.074	0	23.4	4	7.1	4	-1E+10	1	-1E+10	1	-1E+10	1	-1E+10	1	-1E+10	1	-1E+10	1
4902663	41	C	09/12/2024	01:17	-127.640	47.857	0	1485.50	0	2.5530	0	34.5110	0	27.543	0	1467.822	0	23.9	4	7.3	4	-1E+10	1	-1E+10	1	-1E+10	1	-1E+10	1	-1E+10	1	-1E+10	1
4902663	41	C	09/12/2024	01:17	-127.640	47.857	0	1495.60	0	2.5320	0	34.5130	0	27.546	0	1477.766	0	24.4	4	7.5	4	-1E+10	1	-1E+10	1	-1E+10	1	-1E+10	1	-1E+10	1	-1E+10	1
4902663	41	C	09/12/2024	01:17	-127.640	47.857	0	1505.70	0	2.5210	0	34.5150	0	27.549	0	1487.710	0	25.3	4	7.7	4	-1E+10	1	-1E+10	1	-1E+10	1	-1E+10	1	-1E+10	1	-1E+10	1
4902663	41	C	09/12/2024	01:17	-127.640	47.857	0	1515.40	0	2.5210	0	34.5190	0	27.552	0	1497.260	0	26.1	4	8.0	4	-1E+10	1	-1E+10	1	-1E+10	1	-1E+10	1	-1E+10	1	-1E+10	1
4902663	41	C	09/12/2024	01:17	-127.640	47.857	0	1525.20	0	2.5120	0	34.5210	0	27.555	0	1506.908	0	26.7	4	8.2	4	-1E+10	1	-1E+10	1	-1E+10	1	-1E+10	1	-1E+10	1	-1E+10	1
4902663	41	C	09/12/2024	01:17	-127.640	47.857	0	1535.40	0	2.4890	0	34.5230	0	27.558	0	1516.949	0	27.2	4	8.3	4	-1E+10	1	-1E+10	1	-1E+10	1	-1E+10	1	-1E+10	1	-1E+10	1
4902663	41	C	09/12/2024	01:17	-127.640	47.857	0	1545.60	0	2.4680	0	34.5240	0	27.561	0	1526.990	0	27.7	4	8.4	4	-1E+10	1	-1E+10	1	-1E+10	1	-1E+10	1	-1E+10	1	-1E+10	1
4902663	41	C	09/12/2024	01:17	-127.640	47.857	0	1555.40	0	2.4430	0	34.5260	0	27.565	0	1536.636	0	28.2	4	8.6	4	-1E+10	1	-1E+10	1	-1E+10	1	-1E+10	1	-1E+10	1	-1E+10	1
4902663	41	C	09/12/2024	01:17	-127.640	47.857	0	1565.10	0	2.4330	0	34.5270	0	27.566	0	1546.184	0	28.7	4	8.7	4	-1E+10	1	-1E+10	1	-1E+10	1	-1E+10	1	-1E+10	1	-1E+10	1
4902663	41	C	09/12/2024	01:17	-127.640	47.857	0	1575.40	0	2.4070	0	34.5290	0	27.570	0	1556.321	0	29.5	4	9.0	4	-1E+10	1	-1E+10	1	-1E+10	1	-1E+10	1	-1E+10	1	-1E+10	1
4902663	41	C	09/12/2024	01:17	-127.640	47.857	0	1585.70	0	2.3870	0	34.5320	0	27.574	0	1566.458	0	30.3	4	9.2	4	-1E+10	1	-1E+10	1	-1E+10	1	-1E+10	1	-1E+10	1	-1E+10	1
4902663	41	C	09/12/2024	01:17	-127.640	47.857	0	1595.50	0	2.3730	0	34.5350	0	27.578	0	1576.103	0	31.3	4	9.5	4	-1E+10	1	-1E+10	1	-1E+10	1	-1E+10	1	-1E+10	1	-1E+10	1
4902663	41	C	09/12/2024	01:17	-127.640	47.857	0	1605.20	0	2.3530	0	34.5370	0	27.581	0	1585.649	0	32.0	4	9.7	4	-1E+10	1	-1E+10	1	-1E+10	1	-1E+10	1	-1E+10	1	-1E+10	1
4902663	41	C	09/12/2024	01:17	-127.640	47.857	0	1615.50	0	2.3320	0	34.5390	0	27.584	0	1595.785	0	32.8	4	10.0	4	-1E+10	1	-1E+10	1	-1E+10	1	-1E+10	1	-1E+10	1	-1E+10	1
4902663	41	C	09/12/2024	01:17	-127.640	47.857	0	1625.30	0	2.3150	0	34.5420	0	27.588	0	1605.428	0	33.6	4	10.2	4	-1E+10	1	-1E+10	1	-1E+10	1	-1E+10	1	-1E+10	1	-1E+10	1
4902663	41	C	09/12/2024	01:17	-127.640	47.857	0	1635.10	0	2.3030	0	34.5440	0	27.591	0	1615.071	0	34.3	4	10.4	4	-1E+10	1	-1E+10	1	-1E+10	1	-1E+10	1	-1E+10	1	-1E+10	1
4902663	41	C	09/12/2024	01:17	-127.640	47.857	0	1645.60	0	2.2860	0	34.5460	0	27.594	0	1625.402	0	35.0	4	10.6	4	-1E+10	1	-1E+10	1	-1E+10	1	-1E+10	1	-1E+10	1	-1E+10	1
4902663	41	C	09/12/2024	01:17	-127.640	47.857	0	1655.60	0	2.2680	0	34.5480	0	27.597	0	1635.240	0	35.6	4	10.8	4	-1E+10	1	-1E+10	1	-1E+10	1	-1E+10	1	-1E+10	1	-1E+10	1
4902663	41	C	09/12/2024	01:17	-127.640	47.857	0	1665.40	0	2.2530	0	34.5490	0	27.599	0	1644.882	0	36.2	4	11.0	4	-1E+10	1	-1E+10	1	-1E+10	1	-1E+10	1	-1E+10	1	-1E+10	1
4902663	41	C	09/12/2024	01:17	-127.640	47.857	0	1675.30	0	2.2330	0	34.5500	0	27.602	0	1654.621	0	36.9	4	11.2	4	-1E+10	1	-1E+10	1	-1E+10	1	-1E+10	1	-1E+10	1	-1E+10	1
4902663	41	C	09/12/2024	01:17	-127.640	47.857	0	1685.60	0	2.2140	0	34.5530	0	27.606	0	1664.754	0	37.7	4	11.4	4	-1E+10	1	-1E+10	1	-1E+10	1	-1E+10	1	-1E+10	1	-1E+10	1
4902663	41	C	09/12/2024	01:17	-127.640	47.857	0	1695.60	0	2.1960	0	34.5540	0	27.608	0	1674.591	0	38.3	4	11.6	4	-1E+10	1	-1E+10	1	-1E+10	1	-1E+10	1	-1E+10	1	-1E+10	1
4902663	41	C	09/12/2024	01:17	-127.640	47.857	0	1705.40	0	2.1920	0	34.5570	0	27.611	0	1684.230	0	39.3	4	11.9	4	-1E+10	1	-1E+10	1	-1E+10	1	-1E+10	1	-1E+10	1	-1E+10	1
4902663	41	C	09/12/2024	01:17	-127.640	47.857	0	1715.20	0	2.1820	0	34.5600	0	27.614	0	1693.870	0	40.1	4	12.1	4	-1E+10	1	-1E+10	1	-1E+10	1	-1E+10	1	-1E+10	1	-1E+10	1
4902663	41	C	09/12/2024	01:17	-127.640	47.857	0	1725.30	0	2.1720	0	34.5620	0	27.616	0	1703.803	0	40.8	4	12.3	4	-1E+10	1	-1E+10	1	-1E+10	1	-1E+10	1	-1E+10	1	-1E+10	1
4902663	41	C	09/12/2024	01:17	-127.640	47.857	0	1735.70	0	2.1570	0	34.5640	0	27.619	0	1714.032	0	41.5	4	12.6	4	-1E+10	1	-1E+10	1	-1E+10	1	-1E+10	1	-1E+10	1	-1E+10	1
4902663	41	C	09/12/2024	01:17	-127.640	47.857	0	1745.70	0	2.1480	0	34.5650	0	27.621	0	1723.866	0	42.0	4	12.7	4	-1E+10	1	-1E+10	1	-1E+10	1	-1E+10	1	-1E+10	1	-1E+10	1
4902663	41	C	09/12/2024	01:17	-127.640	47.857	0	1755.50	0	2.1360	0	34.5670	0	27.623	0	1733.504	0	42.6	4	12.9	4	-1E+10	1	-1E+10	1	-1E+10	1	-1E+10	1	-1E+10	1	-1E+10	1
4902663	41	C	09/12/2024	01:17	-127.640	47.857	0	1765.50	0	2.1270	0	34.5680	0	27.625	0	1743.338	0	43.1	4	13.0	4	-1E+10	1	-1E+10	1	-1E+10	1	-1E+10	1	-1E+10	1	-1E+10	1
4902663	41	C	09/12/2024	01:17	-127.640	47.857	0	1775.70	0	2.1170	0	34.5700	0	27.627	0	1753.367	0	43.7	4	13.2	4	-1E+10	1	-1E+10	1	-1E+10	1	-1E+10	1	-1E+10	1	-1E+10	1
4902663	41	C	09/12/2024	01:17	-127.640	47.857	0	1785.70	0	2.1070	0	34.5710	0	27.629	0	1763.200	0	44.2	4	13.4	4	-1E+10	1	-1E+10	1	-1E+10	1	-1E+10	1	-1E+10	1	-1E+10	1
4902663	41	C	09/12/2024	01:17	-127.640	47.857	0	1795.80	0	2.0950	0	34.5720	0	27.631	0	1773.131	0	44.9	4	13.6	4	-1E+10	1	-1E+10	1	-1E+10	1	-1E+10	1	-1E+10	1	-1E+10	1
4902663	41	C	09/12/2024	01:17	-127.640	47.857	0	1805.40	0	2.0780	0	34.5730	0	27.633	0	1782.569	0	45.5	4	13.7	4	-1E+10	1	-1E+10	1	-1E+10	1	-1E+10	1	-1E+10	1	-1E+10	1
4902663	41	C	09/12/2024	01:17	-127.640	47.857	0	1815.20	0	2.0670	0	34.5750	0	27.636	0	1792.204	0	46.0	4	13.9	4	-1E+10	1	-1E+10	1	-1E+10	1	-1E+10	1	-1E+10	1	-1E+10	1
4902663	41	C	09/12/2024	01:17	-127.640	47.857	0	1825.60	0	2.0550	0	34.5760	0	27.637	0	1802.428	0	46.6	4	14.1	4	-1E+10	1	-1E+10	1	-1E+10	1	-1E+10	1	-1E+10	1	-1E+10	1
4902663	41	C	09/12/2024	01:17	-127.640	47.857	0	1835.70	0	2.0460	0	34.5770	0	27.639	0	1812.357	0	47.0	4	14.2	4	-1E+10	1	-1E+10	1	-1E+10	1	-1E+10	1	-1E+10	1	-1E+10	1
4902663	41	C	09/12/2024	01:17	-127.640	47.857	0	1845.30	0	2.0390	0	34.5780	0	27.640	0	1821.794	0	47.5	4	14.3	4	-1E+10	1	-1E+10	1	-1E+10	1	-1E+10	1	-1E+10	1	-1E+10	1
4902663	41	C	09/12/2024	01:17	-127.640	47.857	0	1855.60	0	2.0300	0	34.5790	0	27.642	0	1831.918	0	47.9	4	14.5	4	-1E+10	1	-1E+10	1	-1E+10	1	-1E+10	1	-1E+10	1	-1E+10	1
4902663	41	C	09/12/2024	01:17	-127.640	47.857	0	1865.70	0	2.0240	0	34.5800	0	27.643	0	1841.846	0	48.4	4	14.6	4	-1E+10	1	-1E+10	1	-1E+10	1	-1E+10	1	-1E+10	1	-1E+10	1
4902663	41	C	09/12/2024	01:17	-127.640	47.857	0	1875.20	0	2.0160	0	34.5820	0	27.645	0	1851.183	0	48.9	4	14.8	4	-1E+10	1	-1E+10	1	-1E+10	1	-1E+10	1	-1E+10	1	-1E+10	1
4902663	41	C	09/12/2024	01:17	-127.640	47.857	0	1885.30	0	2.0070	0	34.5830	0	27.647	0	1861.109	0	49.5	4	14.9	4	-1E+10	1	-1E+10	1	-1E+10	1	-1E+10	1	-1E+10	1	-1E+10	1
4902663	41	C	09/12/2024	01:17	-127.640	47.857	0	1895.30	0	1.9960	0	34.5840	0	27.649	0	1870.937	0	50.0	4	15.1	4	-1E+10	1	-1E+10	1	-1E+10	1	-1E+10	1	-1E+10	1	-1E+10	1
4902663	41	C	09/12/2024	01:17	-127.640	47.857	0	1905.20	0	1.9880	0	34.5850	0	27.650	0	1880.666	0	50.5	4	15.2	4	-1E+10	1	-1E+10	1	-1E+10	1	-1E+10	1	-1E+10	1	-1E+10	1
4902663	41	C	09/12/2024	01:17	-127.640	47.857	0	1915.10	0	1.9790	0	34.5860	0	27.652	0	1890.395	0	51.1	4	15.4	4	-1E+10	1	-1E+10	1	-1E+10	1	-1E+10	1	-1E+10	1	-1E+10	1
4902663	41	C	09/12/2024	01:17	-127.640	47.857	0	1925.20	0	1.9710	0	34.5870	0	27.653	0	1900.319	0	51.5	4	15.5	4	-1E+10	1	-1E+10	1	-1E+10	1	-1E+10	1	-1E+10	1	-1E+10	1
4902663	41	C	09/12/2024	01:17	-127.640	47.857	0	1935.30	0	1.9650	0	34.5880	0	27.655	0	1910.244	0	52.1	4	15.7	4	-1E+10	1	-1E+10	1	-1E+10	1	-1E+10	1	-1E+10	1	-1E+10	1
4902663	41	C	09/12/2024	01:17	-127.640	47.857	0	1945.50	0	1.9540	0	34.5900	0	27.657	0	1920.265	0	52.8	4	15.9	4	-1E+10	1	-1E+10	1	-1E+10	1	-1E+10	1	-1E+10	1	-1E+10	1
4902663	41	C	09/12/2024	01:17	-127.640	47.857	0	1955.70	0	1.9460	0	34.5920	0	27.659	0	1930.287	0	53.4	4	16.1	4	-1E+10	1	-1E+10	1	-1E+10	1	-1E+10	1	-1E+10	1	-1E+10	1
4902663	41	C	09/12/2024	01:17	-127.640	47.857	0	1965.40	0	1.9410	0	34.5930	0	27.661	0	1939.817	0	53.8	4	16.2	4	-1E+10	1	-1E+10	1	-1E+10	1	-1E+10	1	-1E+10	1	-1E+10	1
4902663	41	C	09/12/2024	01:17	-127.640	47.857	0	1975.20	0	1.9350	0	34.5940	0	27.662	0	1949.444	0	54.4	4	16.4	4	-1E+10	1	-1E+10	1	-1E+10	1	-1E+10	1	-1E+10	1	-1E+10	1
4902663	41	C	09/12/2024	01:17	-127.640	47.857	0	1985.20	0	1.9260	0	34.5950	0	27.663	0	1959.268	0	54.9	4	16.5	4	-1E+10	1	-1E+10	1	-1E+10	1	-1E+10	1	-1E+10	1	-1E+10	1
4902663	41	C	09/12/2024	01:17	-127.640	47.857	0	1995.10	0	1.9210	0	34.5960	0	27.665	0	1968.993	0	55.4	4	16.7	4	-1E+10	1	-1E+10	1	-1E+10	1	-1E+10	1	-1E+10	1	-1E+10	1
4902663	41	C	09/12/2024	01:17	-127.640	47.857	0	2005.10	0	1.9140	0	34.5980	0	27.667	0	1978.816	0	55.8	4	16.8	4	-1E+10	1	-1E+10	1	-1E+10	1	-1E+10	1	-1E+10	1	-1E+10	1
4902663	41	C	09/12/2024	01:17	-127.640	47.857	0	2015.20	0	1.9080	0	34.5990	0	27.668	0	1988.736	0	56.4	4	17.0	4	-1E+10	1	-1E+10	1	-1E+10	1	-1E+10	1	-1E+10	1	-1E+10	1
4902663	41	C	09/12/2024	01:17	-127.640	47.857	0	2025.10	0	1.9010	0	34.6000	0	27.670	0	1998.460	0	56.8	4	17.1	4	-1E+10	1	-1E+10	1	-1E+10	1	-1E+10	1	-1E+10	1	-1E+10	1
4902663	41	C	09/12/2024	01:17	-127.640	47.857	0	2035.70	0	1.8960	0	34.6010	0	27.671	0	2008.871	0	57.1	4	17.2	4	-1E+10	1	-1E+10	1	-1E+10	1	-1E+10	1	-1E+10	1	-1E+10	1
4902663	41	C	09/12/2024	01:17	-127.640	47.857	0	2041.80	0	1.8920	0	34.6010	0	27.671	0	2014.861	0	57.0	4	17.1	4	-1E+10	1	-1E+10	1	-1E+10	1	-1E+10	1	-1E+10	1	-1E+10	1
4902663	41	C	09/12/2024	01:17	-127.640	47.857	0																										
4902663	42	C	09/21/2024	20:19	-127.744	47.723	0	0.00	0	15.7500	0	32.0280	0	23.519	0	0.000	0	244.9	4	98.3	4	-1E+10	1	-1E+10	1	-1E+10	1	-1E+10	1	-1E+10	1	-1E+10	1
4902663	42	C	09/21/2024	20:19	-127.744	47.723	0	0.20	0	15.7400	0	32.0269	0	23.521	0	0.198	0	244.9	4	98.2	4	-1E+10	1	-1E+10	1	-1E+10	1	-1E+10	1	-1E+10	1	-1E+10	1
4902663	42	C	09/21/2024	20:19	-127.744	47.723	0	0.90	0	15.7050	0	32.0230	0	23.525	0	0.892	0	244.9	4	98.2	4	-1E+10	1	-1E+10	1	-1E+10	1	-1E+10	1	-1E+10	1	-1E+10	1
4902663	42	C	09/21/2024	20:19	-127.744	47.723	0	2.10	0	15.6250	0	32.0540	0	23.567	0	2.082	0	245.0	4	98.1	4	-1E+10	1	-1E+10	1	-1E+10	1	-1E+10	1	-1E+10	1	-1E+10	1
4902663	42	C	09/21/2024	20:19	-127.744	47.723	0	2.80	0	15.5590	0	32.1040	0	23.620	0	2.777	0	245.1	4	98.0	4	-1E+10	1	-1E+10	1	-1E+10	1	-1E+10	1	-1E+10	1	-1E+10	1
4902663	42	C	09/21/2024	20:19	-127.744	47.723	0	4.00	0	15.5430	0	32.1170	0	23.633	0	3.966	0	245.0	4	98.0	4	-1E+10	1	-1E+10	1	-1E+10	1	-1E+10	1	-1E+10	1	-1E+10	1
4902663	42	C	09/21/2024	20:19	-127.744	47.723	0	5.30	0	15.5360	0	32.1210	0	23.638	0	5.256	0	245.1	4	98.0	4	-1E+10	1	-1E+10	1	-1E+10	1	-1E+10	1	-1E+10	1	-1E+10	1
4902663	42	C	09/21/2024	20:19	-127.744	47.723	0	6.20	0	15.5260	0	32.1220	0	23.641	0	6.148	0	245.1	4	98.0	4	-1E+10	1	-1E+10	1	-1E+10	1	-1E+10	1	-1E+10	1	-1E+10	1
4902663	42	C	09/21/2024	20:19	-127.744	47.723	0	7.10	0	15.5160	0	32.1210	0	23.642	0	7.040	0	245.1	4	97.9	4	-1E+10	1	-1E+10	1	-1E+10	1	-1E+10	1	-1E+10	1	-1E+10	1
4902663	42	C	09/21/2024	20:19	-127.744	47.723	0	8.00	0	15.5100	0	32.1210	0	23.644	0	7.933	0	245.2	4	98.0	4	-1E+10	1	-1E+10	1	-1E+10	1	-1E+10	1	-1E+10	1	-1E+10	1
4902663	42	C	09/21/2024	20:19	-127.744	47.723	0	8.90	0	15.5060	0	32.1210	0	23.645	0	8.825	0	245.3	4	98.0	4	-1E+10	1	-1E+10	1	-1E+10	1	-1E+10	1	-1E+10	1	-1E+10	1
4902663	42	C	09/21/2024	20:19	-127.744	47.723	0	9.80	0	15.4980	0	32.1210	0	23.647	0	9.718	0	245.4	4	98.1	4	-1E+10	1	-1E+10	1	-1E+10	1	-1E+10	1	-1E+10	1	-1E+10	1
4902663	42	C	09/21/2024	20:19	-127.744	47.723	0	10.70	0	15.4860	0	32.1210	0	23.649	0	10.610	0	245.7	4	98.1	4	-1E+10	1	-1E+10	1	-1E+10	1	-1E+10	1	-1E+10	1	-1E+10	1
4902663	42	C	09/21/2024	20:19	-127.744	47.723	0	11.60	0	15.4560	0	32.1210	0	23.656	0	11.503	0	246.1	4	98.2	4	-1E+10	1	-1E+10	1	-1E+10	1	-1E+10	1	-1E+10	1	-1E+10	1
4902663	42	C	09/21/2024	20:19	-127.744	47.723	0	12.60	0	15.4500	0	32.1190	0	23.656	0	12.494	0	246.5	4	98.4	4	-1E+10	1	-1E+10	1	-1E+10	1	-1E+10	1	-1E+10	1	-1E+10	1
4902663	42	C	09/21/2024	20:19	-127.744	47.723	0	13.90	0	15.4440	0	32.1180	0	23.656	0	13.783	0	247.4	4	98.7	4	-1E+10	1	-1E+10	1	-1E+10	1	-1E+10	1	-1E+10	1	-1E+10	1
4902663	42	C	09/21/2024	20:19	-127.744	47.723	0	15.30	0	15.4400	0	32.1170	0	23.656	0	15.171	0	248.6	4	99.2	4	-1E+10	1	-1E+10	1	-1E+10	1	-1E+10	1	-1E+10	1	-1E+10	1
4902663	42	C	09/21/2024	20:19	-127.744	47.723	0	16.30	0	15.4320	0	32.1180	0	23.659	0	16.163	0	249.8	4	99.7	4	-1E+10	1	-1E+10	1	-1E+10	1	-1E+10	1	-1E+10	1	-1E+10	1
4902663	42	C	09/21/2024	20:19	-127.744	47.723	0	17.20	0	15.4240	0	32.1170	0	23.660	0	17.055	0	251.2	4	100.2	4	-1E+10	1	-1E+10	1	-1E+10	1	-1E+10	1	-1E+10	1	-1E+10	1
4902663	42	C	09/21/2024	20:19	-127.744	47.723	0	18.00	0	15.4110	0	32.1160	0	23.662	0	17.849	0	252.9	4	100.9	4	-1E+10	1	-1E+10	1	-1E+10	1	-1E+10	1	-1E+10	1	-1E+10	1
4902663	42	C	09/21/2024	20:19	-127.744	47.723	0	18.90	0	15.3880	0	32.1140	0	23.665	0	18.741	0	255.0	4	101.7	4	-1E+10	1	-1E+10	1	-1E+10	1	-1E+10	1	-1E+10	1	-1E+10	1
4902663	42	C	09/21/2024	20:19	-127.744	47.723	0	19.80	0	15.3850	0	32.1120	0	23.665	0	19.633	0	257.5	4	102.6	4	-1E+10	1	-1E+10	1	-1E+10	1	-1E+10	1	-1E+10	1	-1E+10	1
4902663	42	C	09/21/2024	20:19	-127.744	47.723	0	20.60	0	15.3660	0	32.1080	0	23.666	0	20.427	0	260.7	4	103.9	4	-1E+10	1	-1E+10	1	-1E+10	1	-1E+10	1	-1E+10	1	-1E+10	1
4902663	42	C	09/21/2024	20:19	-127.744	47.723	0	21.90	0	15.2260	0	32.1240	0	23.708	0	21.716	0	265.5	4	105.5	4	-1E+10	1	-1E+10	1	-1E+10	1	-1E+10	1	-1E+10	1	-1E+10	1
4902663	42	C	09/21/2024	20:19	-127.744	47.723	0	23.20	0	14.5180	0	32.1690	0	23.894	0	23.005	0	272.3	4	106.7	4	-1E+10	1	-1E+10	1	-1E+10	1	-1E+10	1	-1E+10	1	-1E+10	1
4902663	42	C	09/21/2024	20:19	-127.744	47.723	0	24.00	0	14.4830	0	32.1680	0	23.901	0	23.798	0	275.0	4	107.7	4	-1E+10	1	-1E+10	1	-1E+10	1	-1E+10	1	-1E+10	1	-1E+10	1
4902663	42	C	09/21/2024	20:19	-127.744	47.723	0	24.80	0	14.1580	0	32.2180	0	24.007	0	24.591	0	277.4	4	108.0	4	-1E+10	1	-1E+10	1	-1E+10	1	-1E+10	1	-1E+10	1	-1E+10	1
4902663	42	C	09/21/2024	20:19	-127.744	47.723	0	25.70	0	13.6550	0	32.2620	0	24.144	0	25.483	0	277.4	4	106.9	4	-1E+10	1	-1E+10	1	-1E+10	1	-1E+10	1	-1E+10	1	-1E+10	1
4902663	42	C	09/21/2024	20:19	-127.744	47.723	0	27.00	0	13.3900	0	32.2610	0	24.196	0	26.772	0	276.0	4	105.8	4	-1E+10	1	-1E+10	1	-1E+10	1	-1E+10	1	-1E+10	1	-1E+10	1
4902663	42	C	09/21/2024	20:19	-127.744	47.723	0	28.10	0	12.8130	0	32.3370	0	24.368	0	27.863	0	274.1	4	103.9	4	-1E+10	1	-1E+10	1	-1E+10	1	-1E+10	1	-1E+10	1	-1E+10	1
4902663	42	C	09/21/2024	20:19	-127.744	47.723	0	28.90	0	12.6140	0	32.2590	0	24.346	0	28.656	0	273.3	4	103.1	4	-1E+10	1	-1E+10	1	-1E+10	1	-1E+10	1	-1E+10	1	-1E+10	1
4902663	42	C	09/21/2024	20:19	-127.744	47.723	0	30.00	0	12.3830	0	32.2490	0	24.383	0	29.747	0	270.9	4	101.7	4	-1E+10	1	-1E+10	1	-1E+10	1	-1E+10	1	-1E+10	1	-1E+10	1
4902663	42	C	09/21/2024	20:19	-127.744	47.723	0	31.20	0	12.3210	0	32.2360	0	24.384	0	30.937	0	268.1	4	100.6	4	-1E+10	1	-1E+10	1	-1E+10	1	-1E+10	1	-1E+10	1	-1E+10	1
4902663	42	C	09/21/2024	20:19	-127.744	47.723	0	31.90	0	12.1250	0	32.2430	0	24.427	0	31.631	0	266.5	4	99.5	4	-1E+10	1	-1E+10	1	-1E+10	1	-1E+10	1	-1E+10	1	-1E+10	1
4902663	42	C	09/21/2024	20:19	-127.744	47.723	0	32.70	0	11.8870	0	32.2180	0	24.451	0	32.424	0	266.0	4	98.8	4	-1E+10	1	-1E+10	1	-1E+10	1	-1E+10	1	-1E+10	1	-1E+10	1
4902663	42	C	09/21/2024	20:19	-127.744	47.723	0	33.90	0	11.6110	0	32.2630	0	24.537	0	33.614	0	264.0	4	97.5	4	-1E+10	1	-1E+10	1	-1E+10	1	-1E+10	1	-1E+10	1	-1E+10	1
4902663	42	C	09/21/2024	20:19	-127.744	47.723	0	35.10	0	11.3940	0	32.2630	0	24.576	0	34.803	0	261.8	4	96.3	4	-1E+10	1	-1E+10	1	-1E+10	1	-1E+10	1	-1E+10	1	-1E+10	1
4902663	42	C	09/21/2024	20:19	-127.744	47.723	0	35.90	0	11.3050	0	32.2470	0	24.580	0	35.597	0	260.1	4	95.5	4	-1E+10	1	-1E+10	1	-1E+10	1	-1E+10	1	-1E+10	1	-1E+10	1
4902663	42	C	09/21/2024	20:19	-127.744	47.723	0	36.70	0	11.1080	0	32.2560	0	24.622	0	36.390	0	258.9	4	94.7	4	-1E+10	1	-1E+10	1	-1E+10	1	-1E+10	1	-1E+10	1	-1E+10	1
4902663	42	C	09/21/2024	20:19	-127.744	47.723	0	38.00	0	10.9920	0	32.2470	0	24.635	0	37.679	0	257.3	4	93.8	4	-1E+10	1	-1E+10	1	-1E+10	1	-1E+10	1	-1E+10	1	-1E+10	1
4902663	42	C	09/21/2024	20:19	-127.744	47.723	0	39.20	0	10.7900	0	32.2730	0	24.691	0	38.868	0	255.7	4	92.9	4	-1E+10	1	-1E+10	1	-1E+10	1	-1E+10	1	-1E+10	1	-1E+10	1
4902663	42	C	09/21/2024	20:19	-127.744	47.723	0	40.10	0	10.6580	0	32.2980	0	24.733	0	39.761	0	254.6	4	92.2	4	-1E+10	1	-1E+10	1	-1E+10	1	-1E+10	1	-1E+10	1	-1E+10	1
4902663	42	C	09/21/2024	20:19	-127.744	47.723	0	41.00	0	10.5950	0	32.2820	0	24.731	0	40.653	0	253.9	4	91.8	4	-1E+10	1	-1E+10	1	-1E+10	1	-1E+10	1	-1E+10	1	-1E+10	1
4902663	42	C	09/21/2024	20:19	-127.744	47.723	0	41.90	0	10.5560	0	32.3010	0	24.753	0	41.545	0	252.3	4	91.2	4	-1E+10	1	-1E+10	1	-1E+10	1	-1E+10	1	-1E+10	1	-1E+10	1
4902663	42	C	09/21/2024	20:19	-127.744	47.723	0	42.80	0	10.4600	0	32.2950	0	24.764	0	42.438	0	251.3	4	90.7	4	-1E+10	1	-1E+10	1	-1E+10	1	-1E+10	1	-1E+10	1	-1E+10	1
4902663	42	C	09/21/2024	20:19	-127.744	47.723	0	43.70	0	10.4140	0	32.2970	0	24.774	0	43.330	0	250.1	4	90.1	4	-1E+10	1	-1E+10	1	-1E+10	1	-1E+10	1	-1E+10	1	-1E+10	1
4902663	42	C	09/21/2024	20:19	-127.744	47.723	0	44.60	0	10.3760	0	32.2980	0	24.781	0	44.222	0	248.6	4	89.5	4	-1E+10	1	-1E+10	1	-1E+10	1	-1E+10	1	-1E+10	1	-1E+10	1
4902663	42	C	09/21/2024	20:19	-127.744	47.723	0	45.50	0	10.2830	0	32.3130	0	24.808	0	45.114	0	246.9	4	88.7	4	-1E+10	1	-1E+10	1	-1E+10	1	-1E+10	1	-1E+10	1	-1E+10	1
4902663	42	C	09/21/2024	20:19	-127.744	47.723	0	46.80	0	10.1530	0	32.3180	0	24.834	0	46.403	0	244.7	4	87.7	4	-1E+10	1	-1E+10	1	-1E+10	1	-1E+10	1	-1E+10	1	-1E+10	1
4902663	42	C	09/21/2024	20:19	-127.744	47.723	0	47.90	0	9.9990	0	32.3360	0	24.874	0	47.494	0	242.6	4	86.7	4	-1E+10	1	-1E+10	1	-1E+10	1	-1E+10	1	-1E+10	1	-1E+10	1
4902663	42	C	09/21/2024	20:19	-127.744	47.723	0	48.70	0	9.8750	0	32.3130	0	24.876	0	48.287	0	241.8	4	86.1	4	-1E+10	1	-1E+10	1	-1E+10	1	-1E+10	1	-1E+10	1	-1E+10	1
4902663	42	C	09/21/2024	20:19	-127.744	47.723	0	49.90	0	9.7700	0	32.3190	0	24.898	0	49.477	0	240.0	4	85.3	4	-1E+10	1	-1E+10	1	-1E+10	1	-1E+10	1	-1E+10	1	-1E+10	1
4902663	42	C	09/21/2024	20:19	-127.744	47.723	0	51.10	0	9.5810	0	32.3230	0	24.932	0	50.666	0	238.6	4	84.5	4	-1E+10	1	-1E+10	1	-1E+10	1	-1E+10	1	-1E+10	1	-1E+10	1
4902663	42	C	09/21/2024	20:19	-127.744	47.723	0	51.90	0	9.5170	0	32.3290	0	24.947	0	51.459	0	237.5	4	84.0	4	-1E+10	1	-1E+10	1	-1E+10	1	-1E+10	1	-1E+10	1	-1E+10	1
4902663	42	C	09/21/2024	20:19	-127.744	47.723	0	52.80	0	9.3710	0	32.3410	0	24.980	0	52.352	0	236.9	4	83.5	4	-1E+10	1	-1E+10	1	-1E+10	1	-1E+10	1	-1E+10	1	-1E+10	1
4902663	42	C	09/21/2024	20:19	-127.744	47.723	0	53.70	0	9.3060	0	32.3280	0	24.980	0	53.244	0	236.4	4	83.2	4	-1E+10	1	-1E+10	1	-1E+10	1	-1E+10	1	-1E+10	1	-1E+10	1
4902663	42	C	09/21/2024	20:19	-127.744	47.723	0	54.60	0	9.2670	0	32.3310	0	24.988	0	54.136	0	235.9	4	82.9	4	-1E+10	1	-1E+10	1	-1E+10	1	-1E+10	1	-1E+10	1	-1E+10	1
4902663	42	C	09/21/2024	20:19	-127.744	47.723	0	55.90	0	9.2120	0	32.3390	0	25.003	0	55.425	0	234.9	4	82.5	4	-1E+10	1	-1E+10	1	-1E+10	1	-1E+10	1	-1E+10	1	-1E+10	1
4902663	42	C	09/21/2024	20:19	-127.744	47.723	0	57.20	0	9.0730	0	32.3650	0	25.045	0	56.714	0	233.9	4	81.9	4	-1E+10	1	-1E+10	1	-1E+10	1	-1E+10	1	-1E+10	1	-1E+10	1
4902663	42	C	09/21/2024	20:19	-127.744	47.723	0	58.10	0	9.0360	0	32.3660	0	25.052	0	57.606	0	233.0	4	81.5	4	-1E+10	1	-1E+10	1	-1E+10	1	-1E+10	1	-1E+10	1	-1E+10	1
4902663	42	C	09/21/2024	20:19	-127.744	47.723	0	59.00	0	9.0060	0	32.3650	0	25.056	0	58.498	0	231.9	4	81.1	4	-1E+10	1	-1E+10	1	-1E+10	1	-1E+10	1	-1E+10	1	-1E+10	1
4902663	42	C	09/21/2024	20:19	-127.744	47.723	0	59.90	0	8.9760	0	32.3640	0	25.060	0	59.390	0	230.9	4	80.7	4	-1E+10	1	-1E+10	1	-1E+10	1	-1E+10	1	-1E+10	1	-1E+10	1
4902663	42	C	09/21/2024	20:19	-127.744	47.723	0	60.90	0	8.9630	0	32.3640	0	25.062	0	60.382	0	229.4	4	80.1	4	-1E+10	1	-1E+10	1	-1E+10	1	-1E+10	1	-1E+10	1	-1E+10	1
4902663	42	C	09/21/2024	20:19	-127.744	47.723	0	61.80	0	8.8660	0	32.3780	0	25.088	0	61.274	0	228.3	4	79.6	4	-1E+10	1	-1E+10	1	-1E+10	1	-1E+10	1	-1E+10	1	-1E+10	1
4902663	42	C	09/21/2024	20:19	-127.744	47.723	0	62.80	0	8.7730	0	32.3840	0	25.106	0	62.265	0	227.4	4	79.1	4	-1E+10	1	-1E+10	1	-1E+10	1	-1E+10	1	-1E+10	1	-1E+10	1
4902663	42	C	09/21/2024	20:19	-127.744	47.723	0	63.70	0	8.7180	0	32.3960	0	25.124	0	63.157	0	226.6	4	78.8	4	-1E+10	1	-1E+10	1	-1E+10	1	-1E+10	1	-1E+10	1	-1E+10	1
4902663	42	C	09/21/2024	20:19	-127.744	47.723	0	64.70	0	8.6690	0	32.4030	0	25.137	0	64.149	0	225.8	4	78.4	4	-1E+10	1	-1E+10	1	-1E+10	1	-1E+10	1	-1E+10	1	-1E+10	1
4902663	42	C	09/21/2024	20:19	-127.744	47.723	0	65.70	0	8.6430	0	32.4100	0	25.147	0	65.140	0	224.9	4	78.0	4	-1E+10	1	-1E+10	1	-1E+10	1	-1E+10	1	-1E+10	1	-1E+10	1
4902663	42	C	09/21/2024	20:19	-127.744	47.723	0	66.60	0	8.6140	0	32.4150	0	25.155	0	66.032	0	223.9	4	77.7	4	-1E+10	1	-1E+10	1	-1E+10	1	-1E+10	1	-1E+10	1	-1E+10	1
4902663	42	C	09/21/2024	20:19	-127.744	47.723	0	67.60	0	8.5360	0	32.4370	0	25.184	0	67.023	0	223.3	4	77.3	4	-1E+10	1	-1E+10	1	-1E+10	1	-1E+10	1	-1E+10	1	-1E+10	1
4902663	42	C	09/21/2024	20:19	-127.744	47.723	0	68.60	0	8.4540	0	32.4540	0	25.209	0	68.015	0	222.6	4	76.9	4	-1E+10	1	-1E+10	1	-1E+10	1	-1E+10	1	-1E+10	1	-1E+10	1
4902663	42	C	09/21/2024	20:19	-127.744	47.723	0	69.50	0	8.4220	0	32.4620	0	25.221	0	68.907	0	221.7	4	76.6	4	-1E+10	1	-1E+10	1	-1E+10	1	-1E+10	1	-1E+10	1	-1E+10	1
4902663	42	C	09/21/2024	20:19	-127.744	47.723	0	70.90	0	8.3530	0	32.4650	0	25.233	0	70.295	0	219.7	4	75.8	4	-1E+10	1	-1E+10	1	-1E+10	1	-1E+10	1	-1E+10	1	-1E+10	1
4902663	42	C	09/21/2024	20:19	-127.744	47.723	0	72.40	0	8.3240	0	32.4770	0	25.247	0	71.782	0	216.8	4	74.7	4	-1E+10	1	-1E+10	1	-1E+10	1	-1E+10	1	-1E+10	1	-1E+10	1
4902663	42	C	09/21/2024	20:19	-127.744	47.723	0	73.30	0	8.3410	0	32.4850	0	25.251	0	72.674	0	214.9	4	74.1	4	-1E+10	1	-1E+10	1	-1E+10	1	-1E+10	1	-1E+10	1	-1E+10	1
4902663	42	C	09/21/2024	20:19	-127.744	47.723	0	74.20	0	8.4330	0	32.5070	0	25.254	0	73.566	0	213.5	4	73.8	4	-1E+10	1	-1E+10	1	-1E+10	1	-1E+10	1	-1E+10	1	-1E+10	1
4902663	42	C	09/21/2024	20:19	-127.744	47.723	0	75.10	0	8.3840	0	32.5160	0	25.269	0	74.458	0	212.6	4	73.4	4	-1E+10	1	-1E+10	1	-1E+10	1	-1E+10	1	-1E+10	1	-1E+10	1
4902663	42	C	09/21/2024	20:19	-127.744	47.723	0	76.00	0	8.2800	0	32.5340	0	25.298	0	75.350	0	211.7	4	72.9	4	-1E+10	1	-1E+10	1	-1E+10	1	-1E+10	1	-1E+10	1	-1E+10	1
4902663	42	C	09/21/2024	20:19	-127.744	47.723	0	76.90	0	8.2370	0	32.5400	0	25.309	0	76.242	0	210.1	4	72.3	4	-1E+10	1	-1E+10	1	-1E+10	1	-1E+10	1	-1E+10	1	-1E+10	1
4902663	42	C	09/21/2024	20:19	-127.744	47.723	0	77.80	0	8.2730	0	32.5620	0	25.321	0	77.135	0	208.8	4	71.9	4	-1E+10	1	-1E+10	1	-1E+10	1	-1E+10	1	-1E+10	1	-1E+10	1
4902663	42	C	09/21/2024	20:19	-127.744	47.723	0	78.70	0	8.2660	0	32.5770	0	25.334	0	78.027	0	207.8	4	71.6	4	-1E+10	1	-1E+10	1	-1E+10	1	-1E+10	1	-1E+10	1	-1E+10	1
4902663	42	C	09/21/2024	20:19	-127.744	47.723	0	79.90	0	8.2410	0	32.5790	0	25.339	0	79.216	0	205.8	4	70.9	4	-1E+10	1	-1E+10	1	-1E+10	1	-1E+10	1	-1E+10	1	-1E+10	1
4902663	42	C	09/21/2024	20:19	-127.744	47.723	0	81.30	0	8.2330	0	32.5940	0	25.352	0	80.604	0	203.5	4	70.0	4	-1E+10	1	-1E+10	1	-1E+10	1	-1E+10	1	-1E+10	1	-1E+10	1
4902663	42	C	09/21/2024	20:19	-127.744	47.723	0	82.20	0	8.1630	0	32.6200	0	25.383	0	81.496	0	201.8	4	69.4	4	-1E+10	1	-1E+10	1	-1E+10	1	-1E+10	1	-1E+10	1	-1E+10	1
4902663	42	C	09/21/2024	20:19	-127.744	47.723	0	83.10	0	8.1310	0	32.6380	0	25.402	0	82.388	0	205.6	4	70.7	4	-1E+10	1	-1E+10	1	-1E+10	1	-1E+10	1	-1E+10	1	-1E+10	1
4902663	42	C	09/21/2024	20:19	-127.744	47.723	0	84.00	0	8.1390	0	32.6700	0	25.426	0	83.280	0	204.6	4	70.3	4	-1E+10	1	-1E+10	1	-1E+10	1	-1E+10	1	-1E+10	1	-1E+10	1
4902663	42	C	09/21/2024	20:19	-127.744	47.723	0	84.90	0	8.1050	0	32.6820	0	25.440	0	84.172	0	203.3	4	69.8	4	-1E+10	1	-1E+10	1	-1E+10	1	-1E+10	1	-1E+10	1	-1E+10	1
4902663	42	C	09/21/2024	20:19	-127.744	47.723	0	85.80	0	8.1160	0	32.6850	0	25.441	0	85.064	0	202.3	4	69.5	4	-1E+10	1	-1E+10	1	-1E+10	1	-1E+10	1	-1E+10	1	-1E+10	1
4902663	42	C	09/21/2024	20:19	-127.744	47.723	0	86.80	0	8.1250	0	32.7240	0	25.470	0	86.056	0	202.1	4	69.5	4	-1E+10	1	-1E+10	1	-1E+10	1	-1E+10	1	-1E+10	1	-1E+10	1
4902663	42	C	09/21/2024	20:19	-127.744	47.723	0	87.70	0	8.1060	0	32.7360	0	25.482	0	86.948	0	202.2	4	69.5	4	-1E+10	1	-1E+10	1	-1E+10	1	-1E+10	1	-1E+10	1	-1E+10	1
4902663	42	C	09/21/2024	20:19	-127.744	47.723	0	88.50	0	8.0900	0	32.7500	0	25.496	0	87.741	0	202.6	4	69.6	4	-1E+10	1	-1E+10	1	-1E+10	1	-1E+10	1	-1E+10	1	-1E+10	1
4902663	42	C	09/21/2024	20:19	-127.744	47.723	0	89.80	0	8.0040	0	32.7690	0	25.523	0	89.029	0	203.8	4	69.9	4	-1E+10	1	-1E+10	1	-1E+10	1	-1E+10	1	-1E+10	1	-1E+10	1
4902663	42	C	09/21/2024	20:19	-127.744	47.723	0	90.80	0	7.8990	0	32.7760	0	25.544	0	90.021	0	203.1	4	69.5	4	-1E+10	1	-1E+10	1	-1E+10	1	-1E+10	1	-1E+10	1	-1E+10	1
4902663	42	C	09/21/2024	20:19	-127.744	47.723	0	91.80	0	7.8690	0	32.7890	0	25.558	0	91.012	0	201.6	4	68.9	4	-1E+10	1	-1E+10	1	-1E+10	1	-1E+10	1	-1E+10	1	-1E+10	1
4902663	42	C	09/21/2024	20:19	-127.744	47.723	0	92.80	0	7.8670	0	32.8130	0	25.577	0	92.003	0	200.0	4	68.4	4	-1E+10	1	-1E+10	1	-1E+10	1	-1E+10	1	-1E+10	1	-1E+10	1
4902663	42	C	09/21/2024	20:19	-127.744	47.723	0	93.90	0	7.8540	0	32.8290	0	25.592	0	93.093	0	198.0	4	67.7	4	-1E+10	1	-1E+10	1	-1E+10	1	-1E+10	1	-1E+10	1	-1E+10	1
4902663	42	C	09/21/2024	20:19	-127.744	47.723	0	95.00	0	7.8230	0	32.8560	0	25.617	0	94.184	0	196.0	4	67.0	4	-1E+10	1	-1E+10	1	-1E+10	1	-1E+10	1	-1E+10	1	-1E+10	1
4902663	42	C	09/21/2024	20:19	-127.744	47.723	0	95.80	0	7.8060	0	32.8780	0	25.637	0	94.976	0	194.7	4	66.5	4	-1E+10	1	-1E+10	1	-1E+10	1	-1E+10	1	-1E+10	1	-1E+10	1
4902663	42	C	09/21/2024	20:19	-127.744	47.723	0	96.90	0	7.7850	0	32.9030	0	25.660	0	96.067	0	192.7	4	65.8	4	-1E+10	1	-1E+10	1	-1E+10	1	-1E+10	1	-1E+10	1	-1E+10	1
4902663	42	C	09/21/2024	20:19	-127.744	47.723	0	98.10	0	7.7770	0	32.9160	0	25.671	0	97.256	0	190.9	4	65.2	4	-1E+10	1	-1E+10	1	-1E+10	1	-1E+10	1	-1E+10	1	-1E+10	1
4902663	42	C	09/21/2024	20:19	-127.744	47.723	0	99.00	0	7.7450	0	32.9620	0	25.712	0	98.148	0	190.1	4	64.9	4	-1E+10	1	-1E+10	1	-1E+10	1	-1E+10	1	-1E+10	1	-1E+10	1
4902663	42	C	09/21/2024	20:19	-127.744	47.723	0	99.90	0	7.7390	0	32.9670	0	25.717	0	99.040	0	189.3	4	64.6	4	-1E+10	1	-1E+10	1	-1E+10	1	-1E+10	1	-1E+10	1	-1E+10	1
4902663	42	C	09/21/2024	20:19	-127.744	47.723	0	100.80	0	7.7380	0	32.9790	0	25.726	0	99.932	0	188.2	4	64.3	4	-1E+10	1	-1E+10	1	-1E+10	1	-1E+10	1	-1E+10	1	-1E+10	1
4902663	42	C	09/21/2024	20:19	-127.744	47.723	0	101.70	0	7.7310	0	32.9920	0	25.738	0	100.824	0	187.0	4	63.9	4	-1E+10	1	-1E+10	1	-1E+10	1	-1E+10	1	-1E+10	1	-1E+10	1
4902663	42	C	09/21/2024	20:19	-127.744	47.723	0	102.60	0	7.7180	0	33.0040	0	25.749	0	101.716	0	185.7	4	63.4	4	-1E+10	1	-1E+10	1	-1E+10	1	-1E+10	1	-1E+10	1	-1E+10	1
4902663	42	C	09/21/2024	20:19	-127.744	47.723	0	103.90	0	7.7020	0	33.0170	0	25.761	0	103.005	0	183.4	4	62.6	4	-1E+10	1	-1E+10	1	-1E+10	1	-1E+10	1	-1E+10	1	-1E+10	1
4902663	42	C	09/21/2024	20:19	-127.744	47.723	0	105.30	0	7.6910	0	33.0270	0	25.771	0	104.392	0	181.0	4	61.7	4	-1E+10	1	-1E+10	1	-1E+10	1	-1E+10	1	-1E+10	1	-1E+10	1
4902663	42	C	09/21/2024	20:19	-127.744	47.723	0	106.20	0	7.6910	0	33.0270	0	25.771	0	105.284	0	179.0	4	61.1	4	-1E+10	1	-1E+10	1	-1E+10	1	-1E+10	1	-1E+10	1	-1E+10	1
4902663	42	C	09/21/2024	20:19	-127.744	47.723	0	107.00	0	7.6840	0	33.0340	0	25.777	0	106.077	0	176.8	4	60.3	4	-1E+10	1	-1E+10	1	-1E+10	1	-1E+10	1	-1E+10	1	-1E+10	1
4902663	42	C	09/21/2024	20:19	-127.744	47.723	0	108.00	0	7.6660	0	33.0500	0	25.792	0	107.068	0	175.0	4	59.7	4	-1E+10	1	-1E+10	1	-1E+10	1	-1E+10	1	-1E+10	1	-1E+10	1
4902663	42	C	09/21/2024	20:19	-127.744	47.723	0	108.90	0	7.6460	0	33.1090	0	25.842	0	107.960	0	173.2	4	59.1	4	-1E+10	1	-1E+10	1	-1E+10	1	-1E+10	1	-1E+10	1	-1E+10	1
4902663	42	C	09/21/2024	20:19	-127.744	47.723	0	109.90	0	7.6400	0	33.1390	0	25.866	0	108.952	0	171.3	4	58.4	4	-1E+10	1	-1E+10	1	-1E+10	1	-1E+10	1	-1E+10	1	-1E+10	1
4902663	42	C	09/21/2024	20:19	-127.744	47.723	0	110.80	0	7.6350	0	33.1580	0	25.882	0	109.844	0	169.5	4	57.8	4	-1E+10	1	-1E+10	1	-1E+10	1	-1E+10	1	-1E+10	1	-1E+10	1
4902663	42	C	09/21/2024	20:19	-127.744	47.723	0	111.80	0	7.6350	0	33.1660	0	25.888	0	110.835	0	167.7	4	57.2	4	-1E+10	1	-1E+10	1	-1E+10	1	-1E+10	1	-1E+10	1	-1E+10	1
4902663	42	C	09/21/2024	20:19	-127.744	47.723	0	112.80	0	7.6380	0	33.1790	0	25.898	0	111.826	0	166.0	4	56.6	4	-1E+10	1	-1E+10	1	-1E+10	1	-1E+10	1	-1E+10	1	-1E+10	1
4902663	42	C	09/21/2024	20:19	-127.744	47.723	0	113.70	0	7.6380	0	33.1890	0	25.906	0	112.718	0	164.3	4	56.0	4	-1E+10	1	-1E+10	1	-1E+10	1	-1E+10	1	-1E+10	1	-1E+10	1
4902663	42	C	09/21/2024	20:19	-127.744	47.723	0	114.70	0	7.6380	0	33.2210	0	25.931	0	113.709	0	162.5	4	55.4	4	-1E+10	1	-1E+10	1	-1E+10	1	-1E+10	1	-1E+10	1	-1E+10	1
4902663	42	C	09/21/2024	20:19	-127.744	47.723	0	115.60	0	7.6270	0	33.2570	0	25.961	0	114.601	0	160.9	4	54.9	4	-1E+10	1	-1E+10	1	-1E+10	1	-1E+10	1	-1E+10	1	-1E+10	1
4902663	42	C	09/21/2024	20:19	-127.744	47.723	0	116.60	0	7.6540	0	33.3010	0	25.991	0	115.592	0	159.5	4	54.5	4	-1E+10	1	-1E+10	1	-1E+10	1	-1E+10	1	-1E+10	1	-1E+10	1
4902663	42	C	09/21/2024	20:19	-127.744	47.723	0	117.60	0	7.6390	0	33.3340	0	26.020	0	116.583	0	158.5	4	54.1	4	-1E+10	1	-1E+10	1	-1E+10	1	-1E+10	1	-1E+10	1	-1E+10	1
4902663	42	C	09/21/2024	20:19	-127.744	47.723	0	118.50	0	7.6500	0	33.3490	0	26.030	0	117.475	0	157.7	4	53.9	4	-1E+10	1	-1E+10	1	-1E+10	1	-1E+10	1	-1E+10	1	-1E+10	1
4902663	42	C	09/21/2024	20:19	-127.744	47.723	0	119.90	0	7.6650	0	33.3510	0	26.029	0	118.862	0	156.4	4	53.4	4	-1E+10	1	-1E+10	1	-1E+10	1	-1E+10	1	-1E+10	1	-1E+10	1
4902663	42	C	09/21/2024	20:19	-127.744	47.723	0	121.30	0	7.6880	0	33.3760	0	26.046	0	120.250	0	155.2	4	53.1	4	-1E+10	1	-1E+10	1	-1E+10	1	-1E+10	1	-1E+10	1	-1E+10	1
4902663	42	C	09/21/2024	20:19	-127.744	47.723	0	122.30	0	7.6260	0	33.3910	0	26.066	0	121.241	0	154.8	4	52.9	4	-1E+10	1	-1E+10	1	-1E+10	1	-1E+10	1	-1E+10	1	-1E+10	1
4902663	42	C	09/21/2024	20:19	-127.744	47.723	0	123.20	0	7.5590	0	33.4090	0	26.090	0	122.133	0	154.4	4	52.7	4	-1E+10	1	-1E+10	1	-1E+10	1	-1E+10	1	-1E+10	1	-1E+10	1
4902663	42	C	09/21/2024	20:19	-127.744	47.723	0	124.10	0	7.5100	0	33.4400	0	26.121	0	123.025	0	153.9	4	52.5	4	-1E+10	1	-1E+10	1	-1E+10	1	-1E+10	1	-1E+10	1	-1E+10	1
4902663	42	C	09/21/2024	20:19	-127.744	47.723	0	125.10	0	7.4830	0	33.4460	0	26.130	0	124.016	0	153.5	4	52.3	4	-1E+10	1	-1E+10	1	-1E+10	1	-1E+10	1	-1E+10	1	-1E+10	1
4902663	42	C	09/21/2024	20:19	-127.744	47.723	0	126.00	0	7.4500	0	33.4490	0	26.137	0	124.908	0	153.1	4	52.1	4	-1E+10	1	-1E+10	1	-1E+10	1	-1E+10	1	-1E+10	1	-1E+10	1
4902663	42	C	09/21/2024	20:19	-127.744	47.723	0	127.00	0	7.3990	0	33.4530	0	26.147	0	125.899	0	152.4	4	51.8	4	-1E+10	1	-1E+10	1	-1E+10	1	-1E+10	1	-1E+10	1	-1E+10	1
4902663	42	C	09/21/2024	20:19	-127.744	47.723	0	127.90	0	7.3940	0	33.4480	0	26.144	0	126.791	0	151.4	4	51.5	4	-1E+10	1	-1E+10	1	-1E+10	1	-1E+10	1	-1E+10	1	-1E+10	1
4902663	42	C	09/21/2024	20:19	-127.744	47.723	0	128.80	0	7.3830	0	33.4570	0	26.153	0	127.683	0	150.2	4	51.1	4	-1E+10	1	-1E+10	1	-1E+10	1	-1E+10	1	-1E+10	1	-1E+10	1
4902663	42	C	09/21/2024	20:19	-127.744	47.723	0	129.70	0	7.3690	0	33.4820	0	26.174	0	128.574	0	149.1	4	50.7	4	-1E+10	1	-1E+10	1	-1E+10	1	-1E+10	1	-1E+10	1	-1E+10	1
4902663	42	C	09/21/2024	20:19	-127.744	47.723	0	130.50	0	7.3560	0	33.5040	0	26.193	0	129.367	0	147.9	4	50.3	4	-1E+10	1	-1E+10	1	-1E+10	1	-1E+10	1	-1E+10	1	-1E+10	1
4902663	42	C	09/21/2024	20:19	-127.744	47.723	0	131.80	0	7.3630	0	33.5260	0	26.210	0	130.656	0	146.3	4	49.7	4	-1E+10	1	-1E+10	1	-1E+10	1	-1E+10	1	-1E+10	1	-1E+10	1
4902663	42	C	09/21/2024	20:19	-127.744	47.723	0	132.80	0	7.3200	0	33.5350	0	26.223	0	131.647	0	144.0	4	48.9	4	-1E+10	1	-1E+10	1	-1E+10	1	-1E+10	1	-1E+10	1	-1E+10	1
4902663	42	C	09/21/2024	20:19	-127.744	47.723	0	133.80	0	7.3340	0	33.5610	0	26.241	0	132.638	0	142.0	4	48.3	4	-1E+10	1	-1E+10	1	-1E+10	1	-1E+10	1	-1E+10	1	-1E+10	1
4902663	42	C	09/21/2024	20:19	-127.744	47.723	0	135.00	0	7.3480	0	33.5930	0	26.264	0	133.827	0	140.2	4	47.7	4	-1E+10	1	-1E+10	1	-1E+10	1	-1E+10	1	-1E+10	1	-1E+10	1
4902663	42	C	09/21/2024	20:19	-127.744	47.723	0	136.00	0	7.3630	0	33.6180	0	26.282	0	134.818	0	138.5	4	47.1	4	-1E+10	1	-1E+10	1	-1E+10	1	-1E+10	1	-1E+10	1	-1E+10	1
4902663	42	C	09/21/2024	20:19	-127.744	47.723	0	137.20	0	7.3730	0	33.6310	0	26.291	0	136.007	0	136.7	4	46.5	4	-1E+10	1	-1E+10	1	-1E+10	1	-1E+10	1	-1E+10	1	-1E+10	1
4902663	42	C	09/21/2024	20:19	-127.744	47.723	0	137.90	0	7.3800	0	33.6350	0	26.293	0	136.701	0	135.5	4	46.1	4	-1E+10	1	-1E+10	1	-1E+10	1	-1E+10	1	-1E+10	1	-1E+10	1
4902663	42	C	09/21/2024	20:19	-127.744	47.723	0	139.00	0	7.4080	0	33.6440	0	26.296	0	137.791	0	133.7	4	45.5	4	-1E+10	1	-1E+10	1	-1E+10	1	-1E+10	1	-1E+10	1	-1E+10	1
4902663	42	C	09/21/2024	20:19	-127.744	47.723	0	140.20	0	7.4660	0	33.6780	0	26.315	0	138.980	0	132.8	4	45.3	4	-1E+10	1	-1E+10	1	-1E+10	1	-1E+10	1	-1E+10	1	-1E+10	1
4902663	42	C	09/21/2024	20:19	-127.744	47.723	0	140.90	0	7.4090	0	33.6930	0	26.335	0	139.674	0	132.5	4	45.1	4	-1E+10	1	-1E+10	1	-1E+10	1	-1E+10	1	-1E+10	1	-1E+10	1
4902663	42	C	09/21/2024	20:19	-127.744	47.723	0	141.70	0	7.4040	0	33.6990	0	26.340	0	140.466	0	132.1	4	45.0	4	-1E+10	1	-1E+10	1	-1E+10	1	-1E+10	1	-1E+10	1	-1E+10	1
4902663	42	C	09/21/2024	20:19	-127.744	47.723	0	142.90	0	7.4010	0	33.7170	0	26.355	0	141.655	0	131.9	4	45.0	4	-1E+10	1	-1E+10	1	-1E+10	1	-1E+10	1	-1E+10	1	-1E+10	1
4902663	42	C	09/21/2024	20:19	-127.744	47.723	0	144.20	0	7.4000	0	33.7230	0	26.360	0	142.944	0	132.3	4	45.1	4	-1E+10	1	-1E+10	1	-1E+10	1	-1E+10	1	-1E+10	1	-1E+10	1
4902663	42	C	09/21/2024	20:19	-127.744	47.723	0	145.00	0	7.3630	0	33.7280	0	26.369	0	143.736	0	132.6	4	45.1	4	-1E+10	1	-1E+10	1	-1E+10	1	-1E+10	1	-1E+10	1	-1E+10	1
4902663	42	C	09/21/2024	20:19	-127.744	47.723	0	145.90	0	7.1090	0	33.7050	0	26.386	0	144.628	0	132.6	4	44.9	4	-1E+10	1	-1E+10	1	-1E+10	1	-1E+10	1	-1E+10	1	-1E+10	1
4902663	42	C	09/21/2024	20:19	-127.744	47.723	0	146.80	0	7.0950	0	33.6940	0	26.379	0	145.520	0	132.1	4	44.7	4	-1E+10	1	-1E+10	1	-1E+10	1	-1E+10	1	-1E+10	1	-1E+10	1
4902663	42	C	09/21/2024	20:19	-127.744	47.723	0	147.70	0	7.1600	0	33.7110	0	26.384	0	146.412	0	131.8	4	44.7	4	-1E+10	1	-1E+10	1	-1E+10	1	-1E+10	1	-1E+10	1	-1E+10	1
4902663	42	C	09/21/2024	20:19	-127.744	47.723	0	148.60	0	7.1350	0	33.7160	0	26.391	0	147.304	0	131.4	4	44.5	4	-1E+10	1	-1E+10	1	-1E+10	1	-1E+10	1	-1E+10	1	-1E+10	1
4902663	42	C	09/21/2024	20:19	-127.744	47.723	0	149.90	0	7.0920	0	33.7040	0	26.387	0	148.592	0	130.5	4	44.1	4	-1E+10	1	-1E+10	1	-1E+10	1	-1E+10	1	-1E+10	1	-1E+10	1
4902663	42	C	09/21/2024	20:19	-127.744	47.723	0	151.30	0	7.1300	0	33.7190	0	26.394	0	149.979	0	129.7	4	43.9	4	-1E+10	1	-1E+10	1	-1E+10	1	-1E+10	1	-1E+10	1	-1E+10	1
4902663	42	C	09/21/2024	20:19	-127.744	47.723	0	152.20	0	7.1970	0	33.7470	0	26.407	0	150.871	0	129.7	4	44.0	4	-1E+10	1	-1E+10	1	-1E+10	1	-1E+10	1	-1E+10	1	-1E+10	1
4902663	42	C	09/21/2024	20:19	-127.744	47.723	0	153.20	0	7.0100	0	33.7520	0	26.436	0	151.862	0	129.5	4	43.7	4	-1E+10	1	-1E+10	1	-1E+10	1	-1E+10	1	-1E+10	1	-1E+10	1
4902663	42	C	09/21/2024	20:19	-127.744	47.723	0	154.20	0	6.9830	0	33.7240	0	26.418	0	152.853	0	129.1	4	43.6	4	-1E+10	1	-1E+10	1	-1E+10	1	-1E+10	1	-1E+10	1	-1E+10	1
4902663	42	C	09/21/2024	20:19	-127.744	47.723	0	155.20	0	6.9900	0	33.7320	0	26.423	0	153.844	0	128.5	4	43.4	4	-1E+10	1	-1E+10	1	-1E+10	1	-1E+10	1	-1E+10	1	-1E+10	1
4902663	42	C	09/21/2024	20:19	-127.744	47.723	0	156.20	0	6.9930	0	33.7330	0	26.424	0	154.835	0	127.9	4	43.2	4	-1E+10	1	-1E+10	1	-1E+10	1	-1E+10	1	-1E+10	1	-1E+10	1
4902663	42	C	09/21/2024	20:19	-127.744	47.723	0	157.20	0	6.9970	0	33.7350	0	26.425	0	155.825	0	127.3	4	43.0	4	-1E+10	1	-1E+10	1	-1E+10	1	-1E+10	1	-1E+10	1	-1E+10	1
4902663	42	C	09/21/2024	20:19	-127.744	47.723	0	158.20	0	7.0000	0	33.7360	0	26.425	0	156.816	0	126.6	4	42.7	4	-1E+10	1	-1E+10	1	-1E+10	1	-1E+10	1	-1E+10	1	-1E+10	1
4902663	42	C	09/21/2024	20:19	-127.744	47.723	0	159.20	0	6.9950	0	33.7400	0	26.429	0	157.807	0	125.8	4	42.5	4	-1E+10	1	-1E+10	1	-1E+10	1	-1E+10	1	-1E+10	1	-1E+10	1
4902663	42	C	09/21/2024	20:19	-127.744	47.723	0	160.20	0	6.9910	0	33.7410	0	26.430	0	158.798	0	124.9	4	42.2	4	-1E+10	1	-1E+10	1	-1E+10	1	-1E+10	1	-1E+10	1	-1E+10	1
4902663	42	C	09/21/2024	20:19	-127.744	47.723	0	161.20	0	6.9880	0	33.7510	0	26.439	0	159.789	0	124.2	4	41.9	4	-1E+10	1	-1E+10	1	-1E+10	1	-1E+10	1	-1E+10	1	-1E+10	1
4902663	42	C	09/21/2024	20:19	-127.744	47.723	0	162.20	0	7.0200	0	33.7670	0	26.447	0	160.780	0	123.5	4	41.7	4	-1E+10	1	-1E+10	1	-1E+10	1	-1E+10	1	-1E+10	1	-1E+10	1
4902663	42	C	09/21/2024	20:19	-127.744	47.723	0	163.10	0	7.0240	0	33.7710	0	26.450	0	161.672	0	122.8	4	41.5	4	-1E+10	1	-1E+10	1	-1E+10	1	-1E+10	1	-1E+10	1	-1E+10	1
4902663	42	C	09/21/2024	20:19	-127.744	47.723	0	164.10	0	7.0360	0	33.7770	0	26.453	0	162.662	0	122.0	4	41.2	4	-1E+10	1	-1E+10	1	-1E+10	1	-1E+10	1	-1E+10	1	-1E+10	1
4902663	42	C	09/21/2024	20:19	-127.744	47.723	0	165.10	0	7.0360	0	33.7740	0	26.450	0	163.653	0	121.1	4	40.9	4	-1E+10	1	-1E+10	1	-1E+10	1	-1E+10	1	-1E+10	1	-1E+10	1
4902663	42	C	09/21/2024	20:19	-127.744	47.723	0	166.10	0	7.0530	0	33.7810	0	26.454	0	164.644	0	120.0	4	40.6	4	-1E+10	1	-1E+10	1	-1E+10	1	-1E+10	1	-1E+10	1	-1E+10	1
4902663	42	C	09/21/2024	20:19	-127.744	47.723	0	167.10	0	7.0680	0	33.7860	0	26.455	0	165.635	0	118.9	4	40.2	4	-1E+10	1	-1E+10	1	-1E+10	1	-1E+10	1	-1E+10	1	-1E+10	1
4902663	42	C	09/21/2024	20:19	-127.744	47.723	0	168.10	0	7.0950	0	33.7810	0	26.448	0	166.626	0	117.8	4	39.9	4	-1E+10	1	-1E+10	1	-1E+10	1	-1E+10	1	-1E+10	1	-1E+10	1
4902663	42	C	09/21/2024	20:19	-127.744	47.723	0	169.10	0	7.1980	0	33.8040	0	26.452	0	167.617	0	117.1	4	39.7	4	-1E+10	1	-1E+10	1	-1E+10	1	-1E+10	1	-1E+10	1	-1E+10	1
4902663	42	C	09/21/2024	20:19	-127.744	47.723	0	170.10	0	7.2500	0	33.8280	0	26.464	0	168.607	0	116.7	4	39.7	4	-1E+10	1	-1E+10	1	-1E+10	1	-1E+10	1	-1E+10	1	-1E+10	1
4902663	42	C	09/21/2024	20:19	-127.744	47.723	0	171.10	0	7.2290	0	33.8310	0	26.469	0	169.598	0	116.5	4	39.6	4	-1E+10	1	-1E+10	1	-1E+10	1	-1E+10	1	-1E+10	1	-1E+10	1
4902663	42	C	09/21/2024	20:19	-127.744	47.723	0	172.10	0	7.2030	0	33.8280	0	26.470	0	170.589	0	116.1	4	39.4	4	-1E+10	1	-1E+10	1	-1E+10	1	-1E+10	1	-1E+10	1	-1E+10	1
4902663	42	C	09/21/2024	20:19	-127.744	47.723	0	173.00	0	7.2060	0	33.8360	0	26.476	0	171.481	0	115.7	4	39.3	4	-1E+10	1	-1E+10	1	-1E+10	1	-1E+10	1	-1E+10	1	-1E+10	1
4902663	42	C	09/21/2024	20:19	-127.744	47.723	0	174.00	0	7.2020	0	33.8360	0	26.477	0	172.472	0	115.5	4	39.2	4	-1E+10	1	-1E+10	1	-1E+10	1	-1E+10	1	-1E+10	1	-1E+10	1
4902663	42	C	09/21/2024	20:19	-127.744	47.723	0	175.00	0	7.2010	0	33.8370	0	26.477	0	173.462	0	115.2	4	39.1	4	-1E+10	1	-1E+10	1	-1E+10	1	-1E+10	1	-1E+10	1	-1E+10	1
4902663	42	C	09/21/2024	20:19	-127.744	47.723	0	175.90	0	7.1960	0	33.8360	0	26.477	0	174.354	0	115.0	4	39.0	4	-1E+10	1	-1E+10	1	-1E+10	1	-1E+10	1	-1E+10	1	-1E+10	1
4902663	42	C	09/21/2024	20:19	-127.744	47.723	0	176.90	0	7.1890	0	33.8390	0	26.481	0	175.345	0	114.8	4	39.0	4	-1E+10	1	-1E+10	1	-1E+10	1	-1E+10	1	-1E+10	1	-1E+10	1
4902663	42	C	09/21/2024	20:19	-127.744	47.723	0	177.80	0	7.1700	0	33.8370	0	26.482	0	176.237	0	114.5	4	38.8	4	-1E+10	1	-1E+10	1	-1E+10	1	-1E+10	1	-1E+10	1	-1E+10	1
4902663	42	C	09/21/2024	20:19	-127.744	47.723	0	178.70	0	7.1440	0	33.8350	0	26.484	0	177.128	0	114.1	4	38.7	4	-1E+10	1	-1E+10	1	-1E+10	1	-1E+10	1	-1E+10	1	-1E+10	1
4902663	42	C	09/21/2024	20:19	-127.744	47.723	0	179.70	0	7.1310	0	33.8370	0	26.487	0	178.119	0	113.5	4	38.5	4	-1E+10	1	-1E+10	1	-1E+10	1	-1E+10	1	-1E+10	1	-1E+10	1
4902663	42	C	09/21/2024	20:19	-127.744	47.723	0	180.60	0	7.1310	0	33.8370	0	26.487	0	179.011	0	112.9	4	38.3	4	-1E+10	1	-1E+10	1	-1E+10	1	-1E+10	1	-1E+10	1	-1E+10	1
4902663	42	C	09/21/2024	20:19	-127.744	47.723	0	181.90	0	7.1280	0	33.8360	0	26.487	0	180.299	0	111.6	4	37.8	4	-1E+10	1	-1E+10	1	-1E+10	1	-1E+10	1	-1E+10	1	-1E+10	1
4902663	42	C	09/21/2024	20:19	-127.744	47.723	0	183.30	0	7.1200	0	33.8380	0	26.490	0	181.686	0	110.1	4	37.3	4	-1E+10	1	-1E+10	1	-1E+10	1	-1E+10	1	-1E+10	1	-1E+10	1
4902663	42	C	09/21/2024	20:19	-127.744	47.723	0	184.20	0	7.0760	0	33.8520	0	26.507	0	182.577	0	109.1	4	36.9	4	-1E+10	1	-1E+10	1	-1E+10	1	-1E+10	1	-1E+10	1	-1E+10	1
4902663	42	C	09/21/2024	20:19	-127.744	47.723	0	185.10	0	7.0050	0	33.8410	0	26.508	0	183.469	0	108.1	4	36.5	4	-1E+10	1	-1E+10	1	-1E+10	1	-1E+10	1	-1E+10	1	-1E+10	1
4902663	42	C	09/21/2024	20:19	-127.744	47.723	0	186.00	0	6.9640	0	33.8370	0	26.510	0	184.361	0	106.6	4	36.0	4	-1E+10	1	-1E+10	1	-1E+10	1	-1E+10	1	-1E+10	1	-1E+10	1
4902663	42	C	09/21/2024	20:19	-127.744	47.723	0	186.90	0	6.9810	0	33.8410	0	26.511	0	185.252	0	105.0	4	35.5	4	-1E+10	1	-1E+10	1	-1E+10	1	-1E+10	1	-1E+10	1	-1E+10	1
4902663	42	C	09/21/2024	20:19	-127.744	47.723	0	187.80	0	7.0320	0	33.8600	0	26.519	0	186.144	0	103.5	4	35.0	4	-1E+10	1	-1E+10	1	-1E+10	1	-1E+10	1	-1E+10	1	-1E+10	1
4902663	42	C	09/21/2024	20:19	-127.744	47.723	0	188.70	0	7.0350	0	33.8590	0	26.518	0	187.036	0	102.1	4	34.5	4	-1E+10	1	-1E+10	1	-1E+10	1	-1E+10	1	-1E+10	1	-1E+10	1
4902663	42	C	09/21/2024	20:19	-127.744	47.723	0	189.90	0	7.0200	0	33.8650	0	26.525	0	188.225	0	99.7	4	33.7	4	-1E+10	1	-1E+10	1	-1E+10	1	-1E+10	1	-1E+10	1	-1E+10	1
4902663	42	C	09/21/2024	20:19	-127.744	47.723	0	191.20	0	7.0020	0	33.8680	0	26.529	0	189.513	0	97.2	4	32.9	4	-1E+10	1	-1E+10	1	-1E+10	1	-1E+10	1	-1E+10	1	-1E+10	1
4902663	42	C	09/21/2024	20:19	-127.744	47.723	0	192.10	0	6.9950	0	33.8710	0	26.533	0	190.404	0	95.5	4	32.3	4	-1E+10	1	-1E+10	1	-1E+10	1	-1E+10	1	-1E+10	1	-1E+10	1
4902663	42	C	09/21/2024	20:19	-127.744	47.723	0	192.90	0	6.9720	0	33.8760	0	26.540	0	191.197	0	93.7	4	31.7	4	-1E+10	1	-1E+10	1	-1E+10	1	-1E+10	1	-1E+10	1	-1E+10	1
4902663	42	C	09/21/2024	20:19	-127.744	47.723	0	193.80	0	6.9560	0	33.8770	0	26.543	0	192.088	0	91.8	4	31.0	4	-1E+10	1	-1E+10	1	-1E+10	1	-1E+10	1	-1E+10	1	-1E+10	1
4902663	42	C	09/21/2024	20:19	-127.744	47.723	0	194.70	0	6.9540	0	33.8830	0	26.548	0	192.980	0	90.2	4	30.5	4	-1E+10	1	-1E+10	1	-1E+10	1	-1E+10	1	-1E+10	1	-1E+10	1
4902663	42	C	09/21/2024	20:19	-127.744	47.723	0	195.90	0	6.9580	0	33.8870	0	26.550	0	194.169	0	88.0	4	29.7	4	-1E+10	1	-1E+10	1	-1E+10	1	-1E+10	1	-1E+10	1	-1E+10	1
4902663	42	C	09/21/2024	20:19	-127.744	47.723	0	197.30	0	6.9610	0	33.8930	0	26.555	0	195.556	0	86.2	4	29.1	4	-1E+10	1	-1E+10	1	-1E+10	1	-1E+10	1	-1E+10	1	-1E+10	1
4902663	42	C	09/21/2024	20:19	-127.744	47.723	0	198.10	0	6.9570	0	33.8960	0	26.558	0	196.348	0	85.4	4	28.8	4	-1E+10	1	-1E+10	1	-1E+10	1	-1E+10	1	-1E+10	1	-1E+10	1
4902663	42	C	09/21/2024	20:19	-127.744	47.723	0	198.90	0	6.9550	0	33.8990	0	26.560	0	197.141	0	84.8	4	28.6	4	-1E+10	1	-1E+10	1	-1E+10	1	-1E+10	1	-1E+10	1	-1E+10	1
4902663	42	C	09/21/2024	20:19	-127.744	47.723	0	199.80	0	6.9500	0	33.9000	0	26.562	0	198.033	0	84.1	4	28.4	4	-1E+10	1	-1E+10	1	-1E+10	1	-1E+10	1	-1E+10	1	-1E+10	1
4902663	42	C	09/21/2024	20:19	-127.744	47.723	0	201.00	0	6.9400	0	33.9020	0	26.565	0	199.221	0	83.2	4	28.1	4	-1E+10	1	-1E+10	1	-1E+10	1	-1E+10	1	-1E+10	1	-1E+10	1
4902663	42	C	09/21/2024	20:19	-127.744	47.723	0	202.30	0	6.9280	0	33.9040	0	26.568	0	200.509	0	82.6	4	27.9	4	-1E+10	1	-1E+10	1	-1E+10	1	-1E+10	1	-1E+10	1	-1E+10	1
4902663	42	C	09/21/2024	20:19	-127.744	47.723	0	203.10	0	6.9180	0	33.9060	0	26.571	0	201.302	0	82.2	4	27.7	4	-1E+10	1	-1E+10	1	-1E+10	1	-1E+10	1	-1E+10	1	-1E+10	1
4902663	42	C	09/21/2024	20:19	-127.744	47.723	0	204.00	0	6.9110	0	33.9070	0	26.573	0	202.193	0	81.9	4	27.6	4	-1E+10	1	-1E+10	1	-1E+10	1	-1E+10	1	-1E+10	1	-1E+10	1
4902663	42	C	09/21/2024	20:19	-127.744	47.723	0	204.80	0	6.9020	0	33.9070	0	26.574	0	202.986	0	81.6	4	27.5	4	-1E+10	1	-1E+10	1	-1E+10	1	-1E+10	1	-1E+10	1	-1E+10	1
4902663	42	C	09/21/2024	20:19	-127.744	47.723	0	205.70	0	6.8920	0	33.9080	0	26.576	0	203.877	0	81.3	4	27.4	4	-1E+10	1	-1E+10	1	-1E+10	1	-1E+10	1	-1E+10	1	-1E+10	1
4902663	42	C	09/21/2024	20:19	-127.744	47.723	0	206.90	0	6.8830	0	33.9090	0	26.578	0	205.066	0	81.0	4	27.3	4	-1E+10	1	-1E+10	1	-1E+10	1	-1E+10	1	-1E+10	1	-1E+10	1
4902663	42	C	09/21/2024	20:19	-127.744	47.723	0	208.30	0	6.8290	0	33.9170	0	26.592	0	206.453	0	80.8	4	27.2	4	-1E+10	1	-1E+10	1	-1E+10	1	-1E+10	1	-1E+10	1	-1E+10	1
4902663	42	C	09/21/2024	20:19	-127.744	47.723	0	209.20	0	6.8410	0	33.9130	0	26.587	0	207.345	0	80.8	4	27.2	4	-1E+10	1	-1E+10	1	-1E+10	1	-1E+10	1	-1E+10	1	-1E+10	1
4902663	42	C	09/21/2024	20:19	-127.744	47.723	0	210.10	0	6.8370	0	33.9120	0	26.587	0	208.236	0	80.9	4	27.2	4	-1E+10	1	-1E+10	1	-1E+10	1	-1E+10	1	-1E+10	1	-1E+10	1
4902663	42	C	09/21/2024	20:19	-127.744	47.723	0	211.00	0	6.8360	0	33.9110	0	26.586	0	209.128	0	80.9	4	27.3	4	-1E+10	1	-1E+10	1	-1E+10	1	-1E+10	1	-1E+10	1	-1E+10	1
4902663	42	C	09/21/2024	20:19	-127.744	47.723	0	211.90	0	6.8340	0	33.9120	0	26.587	0	210.019	0	81.1	4	27.3	4	-1E+10	1	-1E+10	1	-1E+10	1	-1E+10	1	-1E+10	1	-1E+10	1
4902663	42	C	09/21/2024	20:19	-127.744	47.723	0	212.80	0	6.8250	0	33.9110	0	26.588	0	210.911	0	81.2	4	27.4	4	-1E+10	1	-1E+10	1	-1E+10	1	-1E+10	1	-1E+10	1	-1E+10	1
4902663	42	C	09/21/2024	20:19	-127.744	47.723	0	213.70	0	6.8100	0	33.9110	0	26.590	0	211.803	0	81.3	4	27.4	4	-1E+10	1	-1E+10	1	-1E+10	1	-1E+10	1	-1E+10	1	-1E+10	1
4902663	42	C	09/21/2024	20:19	-127.744	47.723	0	214.60	0	6.7970	0	33.9090	0	26.590	0	212.694	0	81.4	4	27.4	4	-1E+10	1	-1E+10	1	-1E+10	1	-1E+10	1	-1E+10	1	-1E+10	1
4902663	42	C	09/21/2024	20:19	-127.744	47.723	0	215.90	0	6.7890	0	33.9100	0	26.592	0	213.982	0	81.5	4	27.4	4	-1E+10	1	-1E+10	1	-1E+10	1	-1E+10	1	-1E+10	1	-1E+10	1
4902663	42	C	09/21/2024	20:19	-127.744	47.723	0	217.40	0	6.7680	0	33.9130	0	26.597	0	215.468	0	82.0	4	27.6	4	-1E+10	1	-1E+10	1	-1E+10	1	-1E+10	1	-1E+10	1	-1E+10	1
4902663	42	C	09/21/2024	20:19	-127.744	47.723	0	218.30	0	6.7600	0	33.9120	0	26.597	0	216.359	0	82.2	4	27.7	4	-1E+10	1	-1E+10	1	-1E+10	1	-1E+10	1	-1E+10	1	-1E+10	1
4902663	42	C	09/21/2024	20:19	-127.744	47.723	0	219.30	0	6.7570	0	33.9120	0	26.597	0	217.350	0	82.5	4	27.7	4	-1E+10	1	-1E+10	1	-1E+10	1	-1E+10	1	-1E+10	1	-1E+10	1
4902663	42	C	09/21/2024	20:19	-127.744	47.723	0	220.20	0	6.7480	0	33.9120	0	26.599	0	218.241	0	82.7	4	27.8	4	-1E+10	1	-1E+10	1	-1E+10	1	-1E+10	1	-1E+10	1	-1E+10	1
4902663	42	C	09/21/2024	20:19	-127.744	47.723	0	221.20	0	6.7500	0	33.9090	0	26.596	0	219.232	0	82.9	4	27.9	4	-1E+10	1	-1E+10	1	-1E+10	1	-1E+10	1	-1E+10	1	-1E+10	1
4902663	42	C	09/21/2024	20:19	-127.744	47.723	0	222.20	0	6.7360	0	33.9120	0	26.600	0	220.223	0	83.1	4	27.9	4	-1E+10	1	-1E+10	1	-1E+10	1	-1E+10	1	-1E+10	1	-1E+10	1
4902663	42	C	09/21/2024	20:19	-127.744	47.723	0	223.10	0	6.7190	0	33.9120	0	26.603	0	221.114	0	83.1	4	27.9	4	-1E+10	1	-1E+10	1	-1E+10	1	-1E+10	1	-1E+10	1	-1E+10	1
4902663	42	C	09/21/2024	20:19	-127.744	47.723	0	224.10	0	6.7130	0	33.9100	0	26.602	0	222.105	0	83.1	4	27.9	4	-1E+10	1	-1E+10	1	-1E+10	1	-1E+10	1	-1E+10	1	-1E+10	1
4902663	42	C	09/21/2024	20:19	-127.744	47.723	0	225.10	0	6.7070	0	33.9110	0	26.603	0	223.095	0	83.1	4	27.9	4	-1E+10	1	-1E+10	1	-1E+10	1	-1E+10	1	-1E+10	1	-1E+10	1
4902663	42	C	09/21/2024	20:19	-127.744	47.723	0	226.10	0	6.6780	0	33.9100	0	26.607	0	224.086	0	83.0	4	27.8	4	-1E+10	1	-1E+10	1	-1E+10	1	-1E+10	1	-1E+10	1	-1E+10	1
4902663	42	C	09/21/2024	20:19	-127.744	47.723	0	227.10	0	6.6620	0	33.9110	0	26.609	0	225.076	0	82.7	4	27.7	4	-1E+10	1	-1E+10	1	-1E+10	1	-1E+10	1	-1E+10	1	-1E+10	1
4902663	42	C	09/21/2024	20:19	-127.744	47.723	0	228.10	0	6.6480	0	33.9120	0	26.612	0	226.067	0	82.4	4	27.6	4	-1E+10	1	-1E+10	1	-1E+10	1	-1E+10	1	-1E+10	1	-1E+10	1
4902663	42	C	09/21/2024	20:19	-127.744	47.723	0	229.10	0	6.6380	0	33.9130	0	26.614	0	227.057	0	82.0	4	27.5	4	-1E+10	1	-1E+10	1	-1E+10	1	-1E+10	1	-1E+10	1	-1E+10	1
4902663	42	C	09/21/2024	20:19	-127.744	47.723	0	230.10	0	6.6200	0	33.9130	0	26.617	0	228.048	0	81.4	4	27.3	4	-1E+10	1	-1E+10	1	-1E+10	1	-1E+10	1	-1E+10	1	-1E+10	1
4902663	42	C	09/21/2024	20:19	-127.744	47.723	0	231.10	0	6.6080	0	33.9160	0	26.621	0	229.038	0	80.8	4	27.1	4	-1E+10	1	-1E+10	1	-1E+10	1	-1E+10	1	-1E+10	1	-1E+10	1
4902663	42	C	09/21/2024	20:19	-127.744	47.723	0	232.20	0	6.5970	0	33.9180	0	26.624	0	230.128	0	80.2	4	26.9	4	-1E+10	1	-1E+10	1	-1E+10	1	-1E+10	1	-1E+10	1	-1E+10	1
4902663	42	C	09/21/2024	20:19	-127.744	47.723	0	233.20	0	6.5750	0	33.9210	0	26.629	0	231.118	0	80.0	4	26.8	4	-1E+10	1	-1E+10	1	-1E+10	1	-1E+10	1	-1E+10	1	-1E+10	1
4902663	42	C	09/21/2024	20:19	-127.744	47.723	0	234.30	0	6.5710	0	33.9200	0	26.629	0	232.208	0	79.5	4	26.6	4	-1E+10	1	-1E+10	1	-1E+10	1	-1E+10	1	-1E+10	1	-1E+10	1
4902663	42	C	09/21/2024	20:19	-127.744	47.723	0	235.40	0	6.5700	0	33.9220	0	26.630	0	233.298	0	79.1	4	26.5	4	-1E+10	1	-1E+10	1	-1E+10	1	-1E+10	1	-1E+10	1	-1E+10	1
4902663	42	C	09/21/2024	20:19	-127.744	47.723	0	236.50	0	6.5690	0	33.9270	0	26.634	0	234.387	0	78.8	4	26.4	4	-1E+10	1	-1E+10	1	-1E+10	1	-1E+10	1	-1E+10	1	-1E+10	1
4902663	42	C	09/21/2024	20:19	-127.744	47.723	0	237.60	0	6.5650	0	33.9280	0	26.636	0	235.477	0	78.7	4	26.4	4	-1E+10	1	-1E+10	1	-1E+10	1	-1E+10	1	-1E+10	1	-1E+10	1
4902663	42	C	09/21/2024	20:19	-127.744	47.723	0	238.60	0	6.5660	0	33.9280	0	26.636	0	236.467	0	78.6	4	26.3	4	-1E+10	1	-1E+10	1	-1E+10	1	-1E+10	1	-1E+10	1	-1E+10	1
4902663	42	C	09/21/2024	20:19	-127.744	47.723	0	239.60	0	6.5530	0	33.9300	0	26.639	0	237.458	0	78.6	4	26.3	4	-1E+10	1	-1E+10	1	-1E+10	1	-1E+10	1	-1E+10	1	-1E+10	1
4902663	42	C	09/21/2024	20:19	-127.744	47.723	0	240.70	0	6.5460	0	33.9300	0	26.640	0	238.547	0	78.8	4	26.4	4	-1E+10	1	-1E+10	1	-1E+10	1	-1E+10	1	-1E+10	1	-1E+10	1
4902663	42	C	09/21/2024	20:19	-127.744	47.723	0	241.90	0	6.5250	0	33.9300	0	26.643	0	239.736	0	78.9	4	26.4	4	-1E+10	1	-1E+10	1	-1E+10	1	-1E+10	1	-1E+10	1	-1E+10	1
4902663	42	C	09/21/2024	20:19	-127.744	47.723	0	243.10	0	6.5070	0	33.9290	0	26.644	0	240.924	0	78.9	4	26.4	4	-1E+10	1	-1E+10	1	-1E+10	1	-1E+10	1	-1E+10	1	-1E+10	1
4902663	42	C	09/21/2024	20:19	-127.744	47.723	0	243.90	0	6.5030	0	33.9290	0	26.645	0	241.717	0	78.9	4	26.4	4	-1E+10	1	-1E+10	1	-1E+10	1	-1E+10	1	-1E+10	1	-1E+10	1
4902663	42	C	09/21/2024	20:19	-127.744	47.723	0	244.70	0	6.5010	0	33.9320	0	26.647	0	242.509	0	79.2	4	26.5	4	-1E+10	1	-1E+10	1	-1E+10	1	-1E+10	1	-1E+10	1	-1E+10	1
4902663	42	C	09/21/2024	20:19	-127.744	47.723	0	245.90	0	6.4860	0	33.9310	0	26.649	0	243.698	0	79.4	4	26.5	4	-1E+10	1	-1E+10	1	-1E+10	1	-1E+10	1	-1E+10	1	-1E+10	1
4902663	42	C	09/21/2024	20:19	-127.744	47.723	0	247.10	0	6.4690	0	33.9310	0	26.651	0	244.886	0	79.4	4	26.5	4	-1E+10	1	-1E+10	1	-1E+10	1	-1E+10	1	-1E+10	1	-1E+10	1
4902663	42	C	09/21/2024	20:19	-127.744	47.723	0	247.90	0	6.4590	0	33.9320	0	26.653	0	245.679	0	79.5	4	26.6	4	-1E+10	1	-1E+10	1	-1E+10	1	-1E+10	1	-1E+10	1	-1E+10	1
4902663	42	C	09/21/2024	20:19	-127.744	47.723	0	248.70	0	6.4430	0	33.9320	0	26.655	0	246.471	0	79.6	4	26.6	4	-1E+10	1	-1E+10	1	-1E+10	1	-1E+10	1	-1E+10	1	-1E+10	1
4902663	42	C	09/21/2024	20:19	-127.744	47.723	0	250.00	0	6.4230	0	33.9310	0	26.657	0	247.758	0	79.6	4	26.6	4	-1E+10	1	-1E+10	1	-1E+10	1	-1E+10	1	-1E+10	1	-1E+10	1
4902663	42	C	09/21/2024	20:19	-127.744	47.723	0	251.20	0	6.4160	0	33.9300	0	26.657	0	248.947	0	79.6	4	26.5	4	-1E+10	1	-1E+10	1	-1E+10	1	-1E+10	1	-1E+10	1	-1E+10	1
4902663	42	C	09/21/2024	20:19	-127.744	47.723	0	252.10	0	6.3950	0	33.9330	0	26.662	0	249.838	0	79.6	4	26.5	4	-1E+10	1	-1E+10	1	-1E+10	1	-1E+10	1	-1E+10	1	-1E+10	1
4902663	42	C	09/21/2024	20:19	-127.744	47.723	0	252.90	0	6.3760	0	33.9310	0	26.663	0	250.631	0	79.5	4	26.5	4	-1E+10	1	-1E+10	1	-1E+10	1	-1E+10	1	-1E+10	1	-1E+10	1
4902663	42	C	09/21/2024	20:19	-127.744	47.723	0	253.70	0	6.3630	0	33.9310	0	26.665	0	251.423	0	79.4	4	26.5	4	-1E+10	1	-1E+10	1	-1E+10	1	-1E+10	1	-1E+10	1	-1E+10	1
4902663	42	C	09/21/2024	20:19	-127.744	47.723	0	254.90	0	6.3540	0	33.9310	0	26.666	0	252.612	0	79.2	4	26.4	4	-1E+10	1	-1E+10	1	-1E+10	1	-1E+10	1	-1E+10	1	-1E+10	1
4902663	42	C	09/21/2024	20:19	-127.744	47.723	0	256.20	0	6.3460	0	33.9300	0	26.666	0	253.899	0	78.9	4	26.3	4	-1E+10	1	-1E+10	1	-1E+10	1	-1E+10	1	-1E+10	1	-1E+10	1
4902663	42	C	09/21/2024	20:19	-127.744	47.723	0	257.00	0	6.3390	0	33.9310	0	26.668	0	254.691	0	78.6	4	26.2	4	-1E+10	1	-1E+10	1	-1E+10	1	-1E+10	1	-1E+10	1	-1E+10	1
4902663	42	C	09/21/2024	20:19	-127.744	47.723	0	257.80	0	6.3320	0	33.9320	0	26.669	0	255.484	0	78.3	4	26.1	4	-1E+10	1	-1E+10	1	-1E+10	1	-1E+10	1	-1E+10	1	-1E+10	1
4902663	42	C	09/21/2024	20:19	-127.744	47.723	0	258.60	0	6.3240	0	33.9300	0	26.669	0	256.276	0	78.0	4	26.0	4	-1E+10	1	-1E+10	1	-1E+10	1	-1E+10	1	-1E+10	1	-1E+10	1
4902663	42	C	09/21/2024	20:19	-127.744	47.723	0	259.90	0	6.3060	0	33.9330	0	26.674	0	257.564	0	77.6	4	25.8	4	-1E+10	1	-1E+10	1	-1E+10	1	-1E+10	1	-1E+10	1	-1E+10	1
4902663	42	C	09/21/2024	20:19	-127.744	47.723	0	261.10	0	6.2940	0	33.9320	0	26.674	0	258.752	0	77.1	4	25.7	4	-1E+10	1	-1E+10	1	-1E+10	1	-1E+10	1	-1E+10	1	-1E+10	1
4902663	42	C	09/21/2024	20:19	-127.744	47.723	0	261.90	0	6.2920	0	33.9330	0	26.675	0	259.544	0	76.7	4	25.5	4	-1E+10	1	-1E+10	1	-1E+10	1	-1E+10	1	-1E+10	1	-1E+10	1
4902663	42	C	09/21/2024	20:19	-127.744	47.723	0	262.70	0	6.2870	0	33.9340	0	26.677	0	260.337	0	76.3	4	25.4	4	-1E+10	1	-1E+10	1	-1E+10	1	-1E+10	1	-1E+10	1	-1E+10	1
4902663	42	C	09/21/2024	20:19	-127.744	47.723	0	264.00	0	6.2860	0	33.9350	0	26.678	0	261.624	0	75.8	4	25.2	4	-1E+10	1	-1E+10	1	-1E+10	1	-1E+10	1	-1E+10	1	-1E+10	1
4902663	42	C	09/21/2024	20:19	-127.744	47.723	0	265.20	0	6.2550	0	33.9380	0	26.684	0	262.813	0	75.3	4	25.0	4	-1E+10	1	-1E+10	1	-1E+10	1	-1E+10	1	-1E+10	1	-1E+10	1
4902663	42	C	09/21/2024	20:19	-127.744	47.723	0	266.10	0	6.2530	0	33.9400	0	26.686	0	263.704	0	75.1	4	25.0	4	-1E+10	1	-1E+10	1	-1E+10	1	-1E+10	1	-1E+10	1	-1E+10	1
4902663	42	C	09/21/2024	20:19	-127.744	47.723	0	266.90	0	6.2530	0	33.9390	0	26.685	0	264.496	0	75.0	4	24.9	4	-1E+10	1	-1E+10	1	-1E+10	1	-1E+10	1	-1E+10	1	-1E+10	1
4902663	42	C	09/21/2024	20:19	-127.744	47.723	0	267.70	0	6.2510	0	33.9390	0	26.686	0	265.288	0	74.8	4	24.9	4	-1E+10	1	-1E+10	1	-1E+10	1	-1E+10	1	-1E+10	1	-1E+10	1
4902663	42	C	09/21/2024	20:19	-127.744	47.723	0	268.90	0	6.2270	0	33.9400	0	26.689	0	266.477	0	74.3	4	24.7	4	-1E+10	1	-1E+10	1	-1E+10	1	-1E+10	1	-1E+10	1	-1E+10	1
4902663	42	C	09/21/2024	20:19	-127.744	47.723	0	270.20	0	6.1940	0	33.9430	0	26.696	0	267.764	0	73.7	4	24.5	4	-1E+10	1	-1E+10	1	-1E+10	1	-1E+10	1	-1E+10	1	-1E+10	1
4902663	42	C	09/21/2024	20:19	-127.744	47.723	0	271.00	0	6.1850	0	33.9430	0	26.697	0	268.557	0	73.4	4	24.4	4	-1E+10	1	-1E+10	1	-1E+10	1	-1E+10	1	-1E+10	1	-1E+10	1
4902663	42	C	09/21/2024	20:19	-127.744	47.723	0	271.90	0	6.1790	0	33.9440	0	26.699	0	269.448	0	73.2	4	24.3	4	-1E+10	1	-1E+10	1	-1E+10	1	-1E+10	1	-1E+10	1	-1E+10	1
4902663	42	C	09/21/2024	20:19	-127.744	47.723	0	272.70	0	6.1990	0	33.9470	0	26.699	0	270.240	0	73.1	4	24.3	4	-1E+10	1	-1E+10	1	-1E+10	1	-1E+10	1	-1E+10	1	-1E+10	1
4902663	42	C	09/21/2024	20:19	-127.744	47.723	0	274.00	0	6.2210	0	33.9520	0	26.700	0	271.528	0	73.5	4	24.4	4	-1E+10	1	-1E+10	1	-1E+10	1	-1E+10	1	-1E+10	1	-1E+10	1
4902663	42	C	09/21/2024	20:19	-127.744	47.723	0	275.20	0	6.2090	0	33.9510	0	26.700	0	272.716	0	74.0	4	24.6	4	-1E+10	1	-1E+10	1	-1E+10	1	-1E+10	1	-1E+10	1	-1E+10	1
4902663	42	C	09/21/2024	20:19	-127.744	47.723	0	276.10	0	6.1970	0	33.9490	0	26.700	0	273.607	0	74.4	4	24.7	4	-1E+10	1	-1E+10	1	-1E+10	1	-1E+10	1	-1E+10	1	-1E+10	1
4902663	42	C	09/21/2024	20:19	-127.744	47.723	0	276.90	0	6.1920	0	33.9450	0	26.698	0	274.399	0	74.7	4	24.8	4	-1E+10	1	-1E+10	1	-1E+10	1	-1E+10	1	-1E+10	1	-1E+10	1
4902663	42	C	09/21/2024	20:19	-127.744	47.723	0	277.80	0	6.0290	0	33.9310	0	26.707	0	275.291	0	74.7	4	24.7	4	-1E+10	1	-1E+10	1	-1E+10	1	-1E+10	1	-1E+10	1	-1E+10	1
4902663	42	C	09/21/2024	20:19	-127.744	47.723	0	278.70	0	6.0320	0	33.9300	0	26.706	0	276.182	0	74.4	4	24.6	4	-1E+10	1	-1E+10	1	-1E+10	1	-1E+10	1	-1E+10	1	-1E+10	1
4902663	42	C	09/21/2024	20:19	-127.744	47.723	0	279.90	0	6.0530	0	33.9320	0	26.705	0	277.370	0	74.1	4	24.5	4	-1E+10	1	-1E+10	1	-1E+10	1	-1E+10	1	-1E+10	1	-1E+10	1
4902663	42	C	09/21/2024	20:19	-127.744	47.723	0	281.20	0	6.0580	0	33.9290	0	26.702	0	278.658	0	73.8	4	24.4	4	-1E+10	1	-1E+10	1	-1E+10	1	-1E+10	1	-1E+10	1	-1E+10	1
4902663	42	C	09/21/2024	20:19	-127.744	47.723	0	282.10	0	6.0670	0	33.9490	0	26.717	0	279.549	0	73.8	4	24.4	4	-1E+10	1	-1E+10	1	-1E+10	1	-1E+10	1	-1E+10	1	-1E+10	1
4902663	42	C	09/21/2024	20:19	-127.744	47.723	0	283.00	0	6.0650	0	33.9390	0	26.709	0	280.440	0	73.9	4	24.5	4	-1E+10	1	-1E+10	1	-1E+10	1	-1E+10	1	-1E+10	1	-1E+10	1
4902663	42	C	09/21/2024	20:19	-127.744	47.723	0	283.90	0	6.0620	0	33.9390	0	26.710	0	281.331	0	74.0	4	24.5	4	-1E+10	1	-1E+10	1	-1E+10	1	-1E+10	1	-1E+10	1	-1E+10	1
4902663	42	C	09/21/2024	20:19	-127.744	47.723	0	284.70	0	6.0490	0	33.9380	0	26.711	0	282.124	0	74.0	4	24.5	4	-1E+10	1	-1E+10	1	-1E+10	1	-1E+10	1	-1E+10	1	-1E+10	1
4902663	42	C	09/21/2024	20:19	-127.744	47.723	0	286.00	0	5.9400	0	33.9300	0	26.718	0	283.411	0	73.5	4	24.3	4	-1E+10	1	-1E+10	1	-1E+10	1	-1E+10	1	-1E+10	1	-1E+10	1
4902663	42	C	09/21/2024	20:19	-127.744	47.723	0	287.30	0	5.8780	0	33.9220	0	26.719	0	284.698	0	72.6	4	23.9	4	-1E+10	1	-1E+10	1	-1E+10	1	-1E+10	1	-1E+10	1	-1E+10	1
4902663	42	C	09/21/2024	20:19	-127.744	47.723	0	288.20	0	5.8910	0	33.9250	0	26.720	0	285.590	0	71.9	4	23.7	4	-1E+10	1	-1E+10	1	-1E+10	1	-1E+10	1	-1E+10	1	-1E+10	1
4902663	42	C	09/21/2024	20:19	-127.744	47.723	0	289.10	0	5.8610	0	33.9240	0	26.723	0	286.481	0	71.3	4	23.5	4	-1E+10	1	-1E+10	1	-1E+10	1	-1E+10	1	-1E+10	1	-1E+10	1
4902663	42	C	09/21/2024	20:19	-127.744	47.723	0	290.00	0	5.9400	0	33.9290	0	26.717	0	287.372	0	70.9	4	23.4	4	-1E+10	1	-1E+10	1	-1E+10	1	-1E+10	1	-1E+10	1	-1E+10	1
4902663	42	C	09/21/2024	20:19	-127.744	47.723	0	290.80	0	5.9530	0	33.9420	0	26.726	0	288.164	0	70.6	4	23.3	4	-1E+10	1	-1E+10	1	-1E+10	1	-1E+10	1	-1E+10	1	-1E+10	1
4902663	42	C	09/21/2024	20:19	-127.744	47.723	0	291.70	0	5.9530	0	33.9440	0	26.727	0	289.055	0	70.3	4	23.2	4	-1E+10	1	-1E+10	1	-1E+10	1	-1E+10	1	-1E+10	1	-1E+10	1
4902663	42	C	09/21/2024	20:19	-127.744	47.723	0	292.60	0	5.9490	0	33.9460	0	26.729	0	289.947	0	70.1	4	23.1	4	-1E+10	1	-1E+10	1	-1E+10	1	-1E+10	1	-1E+10	1	-1E+10	1
4902663	42	C	09/21/2024	20:19	-127.744	47.723	0	293.90	0	6.0060	0	33.9530	0	26.728	0	291.234	0	70.2	4	23.2	4	-1E+10	1	-1E+10	1	-1E+10	1	-1E+10	1	-1E+10	1	-1E+10	1
4902663	42	C	09/21/2024	20:19	-127.744	47.723	0	295.20	0	6.0230	0	33.9540	0	26.727	0	292.521	0	70.6	4	23.3	4	-1E+10	1	-1E+10	1	-1E+10	1	-1E+10	1	-1E+10	1	-1E+10	1
4902663	42	C	09/21/2024	20:19	-127.744	47.723	0	296.10	0	6.0220	0	33.9550	0	26.727	0	293.412	0	71.0	4	23.5	4	-1E+10	1	-1E+10	1	-1E+10	1	-1E+10	1	-1E+10	1	-1E+10	1
4902663	42	C	09/21/2024	20:19	-127.744	47.723	0	297.00	0	6.0200	0	33.9530	0	26.726	0	294.304	0	71.4	4	23.6	4	-1E+10	1	-1E+10	1	-1E+10	1	-1E+10	1	-1E+10	1	-1E+10	1
4902663	42	C	09/21/2024	20:19	-127.744	47.723	0	297.90	0	6.0200	0	33.9530	0	26.726	0	295.195	0	71.9	4	23.8	4	-1E+10	1	-1E+10	1	-1E+10	1	-1E+10	1	-1E+10	1	-1E+10	1
4902663	42	C	09/21/2024	20:19	-127.744	47.723	0	298.70	0	6.0190	0	33.9490	0	26.723	0	295.987	0	72.5	4	24.0	4	-1E+10	1	-1E+10	1	-1E+10	1	-1E+10	1	-1E+10	1	-1E+10	1
4902663	42	C	09/21/2024	20:19	-127.744	47.723	0	299.60	0	5.9980	0	33.9500	0	26.727	0	296.878	0	73.1	4	24.2	4	-1E+10	1	-1E+10	1	-1E+10	1	-1E+10	1	-1E+10	1	-1E+10	1
4902663	42	C	09/21/2024	20:19	-127.744	47.723	0	300.90	0	5.9280	0	33.9400	0	26.727	0	298.165	0	73.9	4	24.4	4	-1E+10	1	-1E+10	1	-1E+10	1	-1E+10	1	-1E+10	1	-1E+10	1
4902663	42	C	09/21/2024	20:19	-127.744	47.723	0	302.20	0	5.6720	0	33.9210	0	26.744	0	299.453	0	74.0	4	24.2	4	-1E+10	1	-1E+10	1	-1E+10	1	-1E+10	1	-1E+10	1	-1E+10	1
4902663	42	C	09/21/2024	20:19	-127.744	47.723	0	303.10	0	5.6410	0	33.9140	0	26.742	0	300.344	0	73.7	4	24.1	4	-1E+10	1	-1E+10	1	-1E+10	1	-1E+10	1	-1E+10	1	-1E+10	1
4902663	42	C	09/21/2024	20:19	-127.744	47.723	0	304.00	0	5.6400	0	33.9140	0	26.742	0	301.235	0	73.3	4	24.0	4	-1E+10	1	-1E+10	1	-1E+10	1	-1E+10	1	-1E+10	1	-1E+10	1
4902663	42	C	09/21/2024	20:19	-127.744	47.723	0	304.80	0	5.6400	0	33.9130	0	26.741	0	302.027	0	72.9	4	23.9	4	-1E+10	1	-1E+10	1	-1E+10	1	-1E+10	1	-1E+10	1	-1E+10	1
4902663	42	C	09/21/2024	20:19	-127.744	47.723	0	305.70	0	5.6360	0	33.9130	0	26.742	0	302.918	0	72.4	4	23.7	4	-1E+10	1	-1E+10	1	-1E+10	1	-1E+10	1	-1E+10	1	-1E+10	1
4902663	42	C	09/21/2024	20:19	-127.744	47.723	0	306.60	0	5.6200	0	33.9140	0	26.745	0	303.809	0	71.7	4	23.5	4	-1E+10	1	-1E+10	1	-1E+10	1	-1E+10	1	-1E+10	1	-1E+10	1
4902663	42	C	09/21/2024	20:19	-127.744	47.723	0	307.90	0	5.6070	0	33.9130	0	26.745	0	305.097	0	70.7	4	23.2	4	-1E+10	1	-1E+10	1	-1E+10	1	-1E+10	1	-1E+10	1	-1E+10	1
4902663	42	C	09/21/2024	20:19	-127.744	47.723	0	309.30	0	5.6060	0	33.9120	0	26.745	0	306.483	0	69.5	4	22.8	4	-1E+10	1	-1E+10	1	-1E+10	1	-1E+10	1	-1E+10	1	-1E+10	1
4902663	42	C	09/21/2024	20:19	-127.744	47.723	0	310.20	0	5.6070	0	33.9180	0	26.749	0	307.374	0	68.6	4	22.5	4	-1E+10	1	-1E+10	1	-1E+10	1	-1E+10	1	-1E+10	1	-1E+10	1
4902663	42	C	09/21/2024	20:19	-127.744	47.723	0	311.00	0	5.6660	0	33.9290	0	26.751	0	308.166	0	67.8	4	22.2	4	-1E+10	1	-1E+10	1	-1E+10	1	-1E+10	1	-1E+10	1	-1E+10	1
4902663	42	C	09/21/2024	20:19	-127.744	47.723	0	311.90	0	5.7410	0	33.9430	0	26.753	0	309.057	0	67.5	4	22.2	4	-1E+10	1	-1E+10	1	-1E+10	1	-1E+10	1	-1E+10	1	-1E+10	1
4902663	42	C	09/21/2024	20:19	-127.744	47.723	0	312.80	0	5.7340	0	33.9430	0	26.754	0	309.948	0	67.3	4	22.1	4	-1E+10	1	-1E+10	1	-1E+10	1	-1E+10	1	-1E+10	1	-1E+10	1
4902663	42	C	09/21/2024	20:19	-127.744	47.723	0	313.70	0	5.7310	0	33.9440	0	26.755	0	310.840	0	67.1	4	22.0	4	-1E+10	1	-1E+10	1	-1E+10	1	-1E+10	1	-1E+10	1	-1E+10	1
4902663	42	C	09/21/2024	20:19	-127.744	47.723	0	314.90	0	5.7420	0	33.9450	0	26.754	0	312.028	0	67.0	4	22.0	4	-1E+10	1	-1E+10	1	-1E+10	1	-1E+10	1	-1E+10	1	-1E+10	1
4902663	42	C	09/21/2024	20:19	-127.744	47.723	0	316.30	0	5.7420	0	33.9510	0	26.759	0	313.414	0	66.9	4	22.0	4	-1E+10	1	-1E+10	1	-1E+10	1	-1E+10	1	-1E+10	1	-1E+10	1
4902663	42	C	09/21/2024	20:19	-127.744	47.723	0	317.20	0	5.7210	0	33.9470	0	26.759	0	314.305	0	66.8	4	21.9	4	-1E+10	1	-1E+10	1	-1E+10	1	-1E+10	1	-1E+10	1	-1E+10	1
4902663	42	C	09/21/2024	20:19	-127.744	47.723	0	318.10	0	5.7170	0	33.9470	0	26.759	0	315.196	0	66.7	4	21.9	4	-1E+10	1	-1E+10	1	-1E+10	1	-1E+10	1	-1E+10	1	-1E+10	1
4902663	42	C	09/21/2024	20:19	-127.744	47.723	0	319.00	0	5.7130	0	33.9470	0	26.760	0	316.087	0	66.6	4	21.9	4	-1E+10	1	-1E+10	1	-1E+10	1	-1E+10	1	-1E+10	1	-1E+10	1
4902663	42	C	09/21/2024	20:19	-127.744	47.723	0	319.90	0	5.7130	0	33.9460	0	26.759	0	316.978	0	66.5	4	21.8	4	-1E+10	1	-1E+10	1	-1E+10	1	-1E+10	1	-1E+10	1	-1E+10	1
4902663	42	C	09/21/2024	20:19	-127.744	47.723	0	320.80	0	5.7160	0	33.9450	0	26.758	0	317.869	0	66.5	4	21.8	4	-1E+10	1	-1E+10	1	-1E+10	1	-1E+10	1	-1E+10	1	-1E+10	1
4902663	42	C	09/21/2024	20:19	-127.744	47.723	0	321.70	0	5.7270	0	33.9500	0	26.760	0	318.760	0	66.5	4	21.8	4	-1E+10	1	-1E+10	1	-1E+10	1	-1E+10	1	-1E+10	1	-1E+10	1
4902663	42	C	09/21/2024	20:19	-127.744	47.723	0	323.00	0	5.7180	0	33.9480	0	26.760	0	320.048	0	66.7	4	21.9	4	-1E+10	1	-1E+10	1	-1E+10	1	-1E+10	1	-1E+10	1	-1E+10	1
4902663	42	C	09/21/2024	20:19	-127.744	47.723	0	324.30	0	5.6790	0	33.9430	0	26.761	0	321.335	0	66.7	4	21.9	4	-1E+10	1	-1E+10	1	-1E+10	1	-1E+10	1	-1E+10	1	-1E+10	1
4902663	42	C	09/21/2024	20:19	-127.744	47.723	0	325.20	0	5.5750	0	33.9310	0	26.764	0	322.226	0	66.4	4	21.7	4	-1E+10	1	-1E+10	1	-1E+10	1	-1E+10	1	-1E+10	1	-1E+10	1
4902663	42	C	09/21/2024	20:19	-127.744	47.723	0	326.10	0	5.5360	0	33.9290	0	26.767	0	323.117	0	66.0	4	21.6	4	-1E+10	1	-1E+10	1	-1E+10	1	-1E+10	1	-1E+10	1	-1E+10	1
4902663	42	C	09/21/2024	20:19	-127.744	47.723	0	327.00	0	5.5500	0	33.9240	0	26.761	0	324.008	0	65.5	4	21.4	4	-1E+10	1	-1E+10	1	-1E+10	1	-1E+10	1	-1E+10	1	-1E+10	1
4902663	42	C	09/21/2024	20:19	-127.744	47.723	0	327.80	0	5.5300	0	33.9350	0	26.772	0	324.800	0	65.3	4	21.3	4	-1E+10	1	-1E+10	1	-1E+10	1	-1E+10	1	-1E+10	1	-1E+10	1
4902663	42	C	09/21/2024	20:19	-127.744	47.723	0	328.70	0	5.5230	0	33.9320	0	26.771	0	325.691	0	65.0	4	21.2	4	-1E+10	1	-1E+10	1	-1E+10	1	-1E+10	1	-1E+10	1	-1E+10	1
4902663	42	C	09/21/2024	20:19	-127.744	47.723	0	329.60	0	5.5180	0	33.9320	0	26.771	0	326.582	0	64.6	4	21.1	4	-1E+10	1	-1E+10	1	-1E+10	1	-1E+10	1	-1E+10	1	-1E+10	1
4902663	42	C	09/21/2024	20:19	-127.744	47.723	0	330.90	0	5.4950	0	33.9320	0	26.774	0	327.869	0	63.9	4	20.9	4	-1E+10	1	-1E+10	1	-1E+10	1	-1E+10	1	-1E+10	1	-1E+10	1
4902663	42	C	09/21/2024	20:19	-127.744	47.723	0	332.30	0	5.4850	0	33.9370	0	26.779	0	329.255	0	63.3	4	20.7	4	-1E+10	1	-1E+10	1	-1E+10	1	-1E+10	1	-1E+10	1	-1E+10	1
4902663	42	C	09/21/2024	20:19	-127.744	47.723	0	333.20	0	5.4830	0	33.9390	0	26.781	0	330.146	0	63.0	4	20.6	4	-1E+10	1	-1E+10	1	-1E+10	1	-1E+10	1	-1E+10	1	-1E+10	1
4902663	42	C	09/21/2024	20:19	-127.744	47.723	0	334.00	0	5.4790	0	33.9390	0	26.782	0	330.938	0	62.7	4	20.5	4	-1E+10	1	-1E+10	1	-1E+10	1	-1E+10	1	-1E+10	1	-1E+10	1
4902663	42	C	09/21/2024	20:19	-127.744	47.723	0	335.00	0	5.4620	0	33.9350	0	26.780	0	331.928	0	62.4	4	20.4	4	-1E+10	1	-1E+10	1	-1E+10	1	-1E+10	1	-1E+10	1	-1E+10	1
4902663	42	C	09/21/2024	20:19	-127.744	47.723	0	335.90	0	5.4260	0	33.9360	0	26.785	0	332.819	0	62.0	4	20.2	4	-1E+10	1	-1E+10	1	-1E+10	1	-1E+10	1	-1E+10	1	-1E+10	1
4902663	42	C	09/21/2024	20:19	-127.744	47.723	0	336.70	0	5.4220	0	33.9360	0	26.786	0	333.611	0	61.5	4	20.0	4	-1E+10	1	-1E+10	1	-1E+10	1	-1E+10	1	-1E+10	1	-1E+10	1
4902663	42	C	09/21/2024	20:19	-127.744	47.723	0	337.70	0	5.4160	0	33.9360	0	26.787	0	334.601	0	61.0	4	19.9	4	-1E+10	1	-1E+10	1	-1E+10	1	-1E+10	1	-1E+10	1	-1E+10	1
4902663	42	C	09/21/2024	20:19	-127.744	47.723	0	338.90	0	5.4300	0	33.9390	0	26.787	0	335.789	0	60.3	4	19.7	4	-1E+10	1	-1E+10	1	-1E+10	1	-1E+10	1	-1E+10	1	-1E+10	1
4902663	42	C	09/21/2024	20:19	-127.744	47.723	0	340.30	0	5.4340	0	33.9450	0	26.792	0	337.175	0	59.6	4	19.4	4	-1E+10	1	-1E+10	1	-1E+10	1	-1E+10	1	-1E+10	1	-1E+10	1
4902663	42	C	09/21/2024	20:19	-127.744	47.723	0	341.20	0	5.4250	0	33.9440	0	26.792	0	338.066	0	59.1	4	19.3	4	-1E+10	1	-1E+10	1	-1E+10	1	-1E+10	1	-1E+10	1	-1E+10	1
4902663	42	C	09/21/2024	20:19	-127.744	47.723	0	342.10	0	5.4260	0	33.9450	0	26.793	0	338.957	0	58.6	4	19.1	4	-1E+10	1	-1E+10	1	-1E+10	1	-1E+10	1	-1E+10	1	-1E+10	1
4902663	42	C	09/21/2024	20:19	-127.744	47.723	0	343.00	0	5.4330	0	33.9450	0	26.792	0	339.848	0	58.1	4	18.9	4	-1E+10	1	-1E+10	1	-1E+10	1	-1E+10	1	-1E+10	1	-1E+10	1
4902663	42	C	09/21/2024	20:19	-127.744	47.723	0	343.90	0	5.4620	0	33.9550	0	26.796	0	340.739	0	57.7	4	18.8	4	-1E+10	1	-1E+10	1	-1E+10	1	-1E+10	1	-1E+10	1	-1E+10	1
4902663	42	C	09/21/2024	20:19	-127.744	47.723	0	344.80	0	5.4610	0	33.9590	0	26.800	0	341.630	0	57.5	4	18.8	4	-1E+10	1	-1E+10	1	-1E+10	1	-1E+10	1	-1E+10	1	-1E+10	1
4902663	42	C	09/21/2024	20:19	-127.744	47.723	0	345.70	0	5.4620	0	33.9600	0	26.800	0	342.521	0	57.4	4	18.7	4	-1E+10	1	-1E+10	1	-1E+10	1	-1E+10	1	-1E+10	1	-1E+10	1
4902663	42	C	09/21/2024	20:19	-127.744	47.723	0	346.50	0	5.4620	0	33.9600	0	26.800	0	343.313	0	57.2	4	18.7	4	-1E+10	1	-1E+10	1	-1E+10	1	-1E+10	1	-1E+10	1	-1E+10	1
4902663	42	C	09/21/2024	20:19	-127.744	47.723	0	347.90	0	5.4530	0	33.9600	0	26.801	0	344.699	0	56.9	4	18.6	4	-1E+10	1	-1E+10	1	-1E+10	1	-1E+10	1	-1E+10	1	-1E+10	1
4902663	42	C	09/21/2024	20:19	-127.744	47.723	0	349.30	0	5.4040	0	33.9620	0	26.809	0	346.085	0	56.6	4	18.4	4	-1E+10	1	-1E+10	1	-1E+10	1	-1E+10	1	-1E+10	1	-1E+10	1
4902663	42	C	09/21/2024	20:19	-127.744	47.723	0	350.20	0	5.3860	0	33.9570	0	26.807	0	346.976	0	56.3	4	18.4	4	-1E+10	1	-1E+10	1	-1E+10	1	-1E+10	1	-1E+10	1	-1E+10	1
4902663	42	C	09/21/2024	20:19	-127.744	47.723	0	352.90	0	5.3680	0	33.9600	0	26.811	0	349.649	0	55.6	4	18.1	4	-1E+10	1	-1E+10	1	-1E+10	1	-1E+10	1	-1E+10	1	-1E+10	1
4902663	42	C	09/21/2024	20:19	-127.744	47.723	0	357.90	0	5.3400	0	33.9620	0	26.816	0	354.599	0	54.1	4	17.6	4	-1E+10	1	-1E+10	1	-1E+10	1	-1E+10	1	-1E+10	1	-1E+10	1
4902663	42	C	09/21/2024	20:19	-127.744	47.723	0	362.90	0	5.3270	0	33.9680	0	26.823	0	359.548	0	51.6	4	16.8	4	-1E+10	1	-1E+10	1	-1E+10	1	-1E+10	1	-1E+10	1	-1E+10	1
4902663	42	C	09/21/2024	20:19	-127.744	47.723	0	367.80	0	5.3880	0	33.9860	0	26.830	0	364.399	0	49.5	4	16.1	4	-1E+10	1	-1E+10	1	-1E+10	1	-1E+10	1	-1E+10	1	-1E+10	1
4902663	42	C	09/21/2024	20:19	-127.744	47.723	0	372.70	0	5.3720	0	33.9930	0	26.837	0	369.249	0	48.4	4	15.8	4	-1E+10	1	-1E+10	1	-1E+10	1	-1E+10	1	-1E+10	1	-1E+10	1
4902663	42	C	09/21/2024	20:19	-127.744	47.723	0	377.70	0	5.3580	0	33.9960	0	26.841	0	374.198	0	47.5	4	15.5	4	-1E+10	1	-1E+10	1	-1E+10	1	-1E+10	1	-1E+10	1	-1E+10	1
4902663	42	C	09/21/2024	20:19	-127.744	47.723	0	383.10	0	5.3330	0	34.0000	0	26.848	0	379.543	0	46.3	4	15.1	4	-1E+10	1	-1E+10	1	-1E+10	1	-1E+10	1	-1E+10	1	-1E+10	1
4902663	42	C	09/21/2024	20:19	-127.744	47.723	0	388.10	0	5.3180	0	34.0070	0	26.855	0	384.492	0	45.5	4	14.8	4	-1E+10	1	-1E+10	1	-1E+10	1	-1E+10	1	-1E+10	1	-1E+10	1
4902663	42	C	09/21/2024	20:19	-127.744	47.723	0	392.90	0	5.2660	0	34.0080	0	26.862	0	389.243	0	44.3	4	14.4	4	-1E+10	1	-1E+10	1	-1E+10	1	-1E+10	1	-1E+10	1	-1E+10	1
4902663	42	C	09/21/2024	20:19	-127.744	47.723	0	397.80	0	5.2850	0	34.0170	0	26.867	0	394.093	0	42.5	4	13.8	4	-1E+10	1	-1E+10	1	-1E+10	1	-1E+10	1	-1E+10	1	-1E+10	1
4902663	42	C	09/21/2024	20:19	-127.744	47.723	0	402.60	0	5.2810	0	34.0250	0	26.874	0	398.843	0	40.8	4	13.3	4	-1E+10	1	-1E+10	1	-1E+10	1	-1E+10	1	-1E+10	1	-1E+10	1
4902663	42	C	09/21/2024	20:19	-127.744	47.723	0	407.70	0	5.2830	0	34.0340	0	26.881	0	403.891	0	38.9	4	12.6	4	-1E+10	1	-1E+10	1	-1E+10	1	-1E+10	1	-1E+10	1	-1E+10	1
4902663	42	C	09/21/2024	20:19	-127.744	47.723	0	413.10	0	5.2740	0	34.0450	0	26.890	0	409.235	0	37.1	4	12.1	4	-1E+10	1	-1E+10	1	-1E+10	1	-1E+10	1	-1E+10	1	-1E+10	1
4902663	42	C	09/21/2024	20:19	-127.744	47.723	0	418.10	0	5.2500	0	34.0530	0	26.900	0	414.183	0	35.8	4	11.6	4	-1E+10	1	-1E+10	1	-1E+10	1	-1E+10	1	-1E+10	1	-1E+10	1
4902663	42	C	09/21/2024	20:19	-127.744	47.723	0	422.70	0	5.2140	0	34.0570	0	26.907	0	418.736	0	35.1	4	11.4	4	-1E+10	1	-1E+10	1	-1E+10	1	-1E+10	1	-1E+10	1	-1E+10	1
4902663	42	C	09/21/2024	20:19	-127.744	47.723	0	427.80	0	5.1860	0	34.0580	0	26.911	0	423.783	0	34.1	4	11.1	4	-1E+10	1	-1E+10	1	-1E+10	1	-1E+10	1	-1E+10	1	-1E+10	1
4902663	42	C	09/21/2024	20:19	-127.744	47.723	0	433.10	0	5.1740	0	34.0640	0	26.917	0	429.027	0	32.8	4	10.6	4	-1E+10	1	-1E+10	1	-1E+10	1	-1E+10	1	-1E+10	1	-1E+10	1
4902663	42	C	09/21/2024	20:19	-127.744	47.723	0	437.80	0	5.1530	0	34.0690	0	26.924	0	433.678	0	31.8	4	10.3	4	-1E+10	1	-1E+10	1	-1E+10	1	-1E+10	1	-1E+10	1	-1E+10	1
4902663	42	C	09/21/2024	20:19	-127.744	47.723	0	442.70	0	5.1340	0	34.0730	0	26.929	0	438.527	0	30.9	4	10.0	4	-1E+10	1	-1E+10	1	-1E+10	1	-1E+10	1	-1E+10	1	-1E+10	1
4902663	42	C	09/21/2024	20:19	-127.744	47.723	0	447.60	0	5.1060	0	34.0770	0	26.936	0	443.375	0	30.2	4	9.8	4	-1E+10	1	-1E+10	1	-1E+10	1	-1E+10	1	-1E+10	1	-1E+10	1
4902663	42	C	09/21/2024	20:19	-127.744	47.723	0	452.60	0	5.0810	0	34.0800	0	26.941	0	448.323	0	29.4	4	9.5	4	-1E+10	1	-1E+10	1	-1E+10	1	-1E+10	1	-1E+10	1	-1E+10	1
4902663	42	C	09/21/2024	20:19	-127.744	47.723	0	457.60	0	5.0570	0	34.0830	0	26.946	0	453.270	0	28.7	4	9.3	4	-1E+10	1	-1E+10	1	-1E+10	1	-1E+10	1	-1E+10	1	-1E+10	1
4902663	42	C	09/21/2024	20:19	-127.744	47.723	0	462.70	0	5.0340	0	34.0850	0	26.950	0	458.316	0	27.9	4	9.0	4	-1E+10	1	-1E+10	1	-1E+10	1	-1E+10	1	-1E+10	1	-1E+10	1
4902663	42	C	09/21/2024	20:19	-127.744	47.723	0	467.80	0	5.0100	0	34.0910	0	26.958	0	463.362	0	27.0	4	8.7	4	-1E+10	1	-1E+10	1	-1E+10	1	-1E+10	1	-1E+10	1	-1E+10	1
4902663	42	C	09/21/2024	20:19	-127.744	47.723	0	472.90	0	4.9940	0	34.0940	0	26.962	0	468.408	0	26.4	4	8.5	4	-1E+10	1	-1E+10	1	-1E+10	1	-1E+10	1	-1E+10	1	-1E+10	1
4902663	42	C	09/21/2024	20:19	-127.744	47.723	0	478.00	0	4.9760	0	34.0970	0	26.966	0	473.454	0	25.7	4	8.3	4	-1E+10	1	-1E+10	1	-1E+10	1	-1E+10	1	-1E+10	1	-1E+10	1
4902663	42	C	09/21/2024	20:19	-127.744	47.723	0	483.10	0	4.9650	0	34.1010	0	26.971	0	478.500	0	25.0	4	8.1	4	-1E+10	1	-1E+10	1	-1E+10	1	-1E+10	1	-1E+10	1	-1E+10	1
4902663	42	C	09/21/2024	20:19	-127.744	47.723	0	488.20	0	4.9520	0	34.1040	0	26.975	0	483.545	0	24.3	4	7.8	4	-1E+10	1	-1E+10	1	-1E+10	1	-1E+10	1	-1E+10	1	-1E+10	1
4902663	42	C	09/21/2024	20:19	-127.744	47.723	0	493.30	0	4.9430	0	34.1080	0	26.979	0	488.590	0	23.5	4	7.6	4	-1E+10	1	-1E+10	1	-1E+10	1	-1E+10	1	-1E+10	1	-1E+10	1
4902663	42	C	09/21/2024	20:19	-127.744	47.723	0	498.40	0	4.9120	0	34.1130	0	26.987	0	493.636	0	22.5	4	7.3	4	-1E+10	1	-1E+10	1	-1E+10	1	-1E+10	1	-1E+10	1	-1E+10	1
4902663	42	C	09/21/2024	20:19	-127.744	47.723	0	503.00	0	4.9050	0	34.1180	0	26.991	0	498.186	0	21.9	4	7.1	4	-1E+10	1	-1E+10	1	-1E+10	1	-1E+10	1	-1E+10	1	-1E+10	1
4902663	42	C	09/21/2024	20:19	-127.744	47.723	0	507.50	0	4.8880	0	34.1210	0	26.996	0	502.638	0	21.3	4	6.9	4	-1E+10	1	-1E+10	1	-1E+10	1	-1E+10	1	-1E+10	1	-1E+10	1
4902663	42	C	09/21/2024	20:19	-127.744	47.723	0	512.60	0	4.8620	0	34.1250	0	27.002	0	507.683	0	20.6	4	6.6	4	-1E+10	1	-1E+10	1	-1E+10	1	-1E+10	1	-1E+10	1	-1E+10	1
4902663	42	C	09/21/2024	20:19	-127.744	47.723	0	517.70	0	4.8470	0	34.1300	0	27.008	0	512.727	0	20.0	4	6.5	4	-1E+10	1	-1E+10	1	-1E+10	1	-1E+10	1	-1E+10	1	-1E+10	1
4902663	42	C	09/21/2024	20:19	-127.744	47.723	0	522.80	0	4.8390	0	34.1330	0	27.011	0	517.772	0	19.5	4	6.3	4	-1E+10	1	-1E+10	1	-1E+10	1	-1E+10	1	-1E+10	1	-1E+10	1
4902663	42	C	09/21/2024	20:19	-127.744	47.723	0	527.80	0	4.8170	0	34.1370	0	27.017	0	522.718	0	19.1	4	6.1	4	-1E+10	1	-1E+10	1	-1E+10	1	-1E+10	1	-1E+10	1	-1E+10	1
4902663	42	C	09/21/2024	20:19	-127.744	47.723	0	532.80	0	4.7870	0	34.1380	0	27.021	0	527.663	0	18.6	4	6.0	4	-1E+10	1	-1E+10	1	-1E+10	1	-1E+10	1	-1E+10	1	-1E+10	1
4902663	42	C	09/21/2024	20:19	-127.744	47.723	0	537.90	0	4.7380	0	34.1410	0	27.029	0	532.707	0	18.0	4	5.8	4	-1E+10	1	-1E+10	1	-1E+10	1	-1E+10	1	-1E+10	1	-1E+10	1
4902663	42	C	09/21/2024	20:19	-127.744	47.723	0	543.10	0	4.7310	0	34.1450	0	27.033	0	537.851	0	17.4	4	5.6	4	-1E+10	1	-1E+10	1	-1E+10	1	-1E+10	1	-1E+10	1	-1E+10	1
4902663	42	C	09/21/2024	20:19	-127.744	47.723	0	548.30	0	4.7080	0	34.1500	0	27.039	0	542.993	0	16.8	4	5.4	4	-1E+10	1	-1E+10	1	-1E+10	1	-1E+10	1	-1E+10	1	-1E+10	1
4902663	42	C	09/21/2024	20:19	-127.744	47.723	0	553.40	0	4.6810	0	34.1540	0	27.045	0	548.037	0	16.5	4	5.3	4	-1E+10	1	-1E+10	1	-1E+10	1	-1E+10	1	-1E+10	1	-1E+10	1
4902663	42	C	09/21/2024	20:19	-127.744	47.723	0	558.10	0	4.6520	0	34.1560	0	27.050	0	552.686	0	16.0	4	5.1	4	-1E+10	1	-1E+10	1	-1E+10	1	-1E+10	1	-1E+10	1	-1E+10	1
4902663	42	C	09/21/2024	20:19	-127.744	47.723	0	562.90	0	4.6210	0	34.1600	0	27.057	0	557.433	0	15.4	4	4.9	4	-1E+10	1	-1E+10	1	-1E+10	1	-1E+10	1	-1E+10	1	-1E+10	1
4902663	42	C	09/21/2024	20:19	-127.744	47.723	0	567.90	0	4.6140	0	34.1650	0	27.061	0	562.377	0	14.8	4	4.8	4	-1E+10	1	-1E+10	1	-1E+10	1	-1E+10	1	-1E+10	1	-1E+10	1
4902663	42	C	09/21/2024	20:19	-127.744	47.723	0	572.90	0	4.5870	0	34.1710	0	27.069	0	567.322	0	14.3	4	4.6	4	-1E+10	1	-1E+10	1	-1E+10	1	-1E+10	1	-1E+10	1	-1E+10	1
4902663	42	C	09/21/2024	20:19	-127.744	47.723	0	578.10	0	4.5540	0	34.1740	0	27.075	0	572.464	0	14.0	4	4.5	4	-1E+10	1	-1E+10	1	-1E+10	1	-1E+10	1	-1E+10	1	-1E+10	1
4902663	42	C	09/21/2024	20:19	-127.744	47.723	0	582.90	0	4.5320	0	34.1760	0	27.079	0	577.211	0	13.7	4	4.4	4	-1E+10	1	-1E+10	1	-1E+10	1	-1E+10	1	-1E+10	1	-1E+10	1
4902663	42	C	09/21/2024	20:19	-127.744	47.723	0	587.70	0	4.5240	0	34.1780	0	27.082	0	581.957	0	13.5	4	4.3	4	-1E+10	1	-1E+10	1	-1E+10	1	-1E+10	1	-1E+10	1	-1E+10	1
4902663	42	C	09/21/2024	20:19	-127.744	47.723	0	592.90	0	4.5160	0	34.1810	0	27.085	0	587.099	0	13.1	4	4.2	4	-1E+10	1	-1E+10	1	-1E+10	1	-1E+10	1	-1E+10	1	-1E+10	1
4902663	42	C	09/21/2024	20:19	-127.744	47.723	0	597.90	0	4.5080	0	34.1860	0	27.090	0	592.043	0	12.8	4	4.1	4	-1E+10	1	-1E+10	1	-1E+10	1	-1E+10	1	-1E+10	1	-1E+10	1
4902663	42	C	09/21/2024	20:19	-127.744	47.723	0	603.00	0	4.4900	0	34.1880	0	27.093	0	597.086	0	12.5	4	4.0	4	-1E+10	1	-1E+10	1	-1E+10	1	-1E+10	1	-1E+10	1	-1E+10	1
4902663	42	C	09/21/2024	20:19	-127.744	47.723	0	608.20	0	4.4690	0	34.1920	0	27.099	0	602.227	0	12.3	4	3.9	4	-1E+10	1	-1E+10	1	-1E+10	1	-1E+10	1	-1E+10	1	-1E+10	1
4902663	42	C	09/21/2024	20:19	-127.744	47.723	0	613.10	0	4.4580	0	34.1940	0	27.102	0	607.072	0	12.1	4	3.9	4	-1E+10	1	-1E+10	1	-1E+10	1	-1E+10	1	-1E+10	1	-1E+10	1
4902663	42	C	09/21/2024	20:19	-127.744	47.723	0	618.00	0	4.4500	0	34.1950	0	27.103	0	611.916	0	11.9	4	3.8	4	-1E+10	1	-1E+10	1	-1E+10	1	-1E+10	1	-1E+10	1	-1E+10	1
4902663	42	C	09/21/2024	20:19	-127.744	47.723	0	622.90	0	4.4390	0	34.1990	0	27.108	0	616.761	0	11.6	4	3.7	4	-1E+10	1	-1E+10	1	-1E+10	1	-1E+10	1	-1E+10	1	-1E+10	1
4902663	42	C	09/21/2024	20:19	-127.744	47.723	0	628.00	0	4.4300	0	34.2010	0	27.110	0	621.803	0	11.4	4	3.6	4	-1E+10	1	-1E+10	1	-1E+10	1	-1E+10	1	-1E+10	1	-1E+10	1
4902663	42	C	09/21/2024	20:19	-127.744	47.723	0	633.10	0	4.4170	0	34.2040	0	27.114	0	626.845	0	11.0	4	3.5	4	-1E+10	1	-1E+10	1	-1E+10	1	-1E+10	1	-1E+10	1	-1E+10	1
4902663	42	C	09/21/2024	20:19	-127.744	47.723	0	638.30	0	4.4130	0	34.2100	0	27.120	0	631.986	0	10.7	4	3.4	4	-1E+10	1	-1E+10	1	-1E+10	1	-1E+10	1	-1E+10	1	-1E+10	1
4902663	42	C	09/21/2024	20:19	-127.744	47.723	0	643.00	0	4.4010	0	34.2140	0	27.124	0	636.632	0	10.5	4	3.3	4	-1E+10	1	-1E+10	1	-1E+10	1	-1E+10	1	-1E+10	1	-1E+10	1
4902663	42	C	09/21/2024	20:19	-127.744	47.723	0	647.70	0	4.3900	0	34.2160	0	27.127	0	641.278	0	10.3	4	3.3	4	-1E+10	1	-1E+10	1	-1E+10	1	-1E+10	1	-1E+10	1	-1E+10	1
4902663	42	C	09/21/2024	20:19	-127.744	47.723	0	653.00	0	4.3690	0	34.2200	0	27.132	0	646.518	0	10.1	4	3.2	4	-1E+10	1	-1E+10	1	-1E+10	1	-1E+10	1	-1E+10	1	-1E+10	1
4902663	42	C	09/21/2024	20:19	-127.744	47.723	0	657.80	0	4.3590	0	34.2220	0	27.135	0	651.262	0	10.0	4	3.2	4	-1E+10	1	-1E+10	1	-1E+10	1	-1E+10	1	-1E+10	1	-1E+10	1
4902663	42	C	09/21/2024	20:19	-127.744	47.723	0	662.60	0	4.3480	0	34.2240	0	27.138	0	656.007	0	9.8	4	3.1	4	-1E+10	1	-1E+10	1	-1E+10	1	-1E+10	1	-1E+10	1	-1E+10	1
4902663	42	C	09/21/2024	20:19	-127.744	47.723	0	667.90	0	4.3340	0	34.2280	0	27.142	0	661.246	0	9.6	4	3.1	4	-1E+10	1	-1E+10	1	-1E+10	1	-1E+10	1	-1E+10	1	-1E+10	1
4902663	42	C	09/21/2024	20:19	-127.744	47.723	0	673.20	0	4.3250	0	34.2300	0	27.145	0	666.485	0	9.5	4	3.0	4	-1E+10	1	-1E+10	1	-1E+10	1	-1E+10	1	-1E+10	1	-1E+10	1
4902663	42	C	09/21/2024	20:19	-127.744	47.723	0	678.00	0	4.3210	0	34.2320	0	27.147	0	671.229	0	9.4	4	3.0	4	-1E+10	1	-1E+10	1	-1E+10	1	-1E+10	1	-1E+10	1	-1E+10	1
4902663	42	C	09/21/2024	20:19	-127.744	47.723	0	682.80	0	4.3150	0	34.2340	0	27.149	0	675.973	0	9.2	4	2.9	4	-1E+10	1	-1E+10	1	-1E+10	1	-1E+10	1	-1E+10	1	-1E+10	1
4902663	42	C	09/21/2024	20:19	-127.744	47.723	0	688.10	0	4.3050	0	34.2390	0	27.154	0	681.212	0	9.0	4	2.9	4	-1E+10	1	-1E+10	1	-1E+10	1	-1E+10	1	-1E+10	1	-1E+10	1
4902663	42	C	09/21/2024	20:19	-127.744	47.723	0	692.90	0	4.3010	0	34.2410	0	27.157	0	685.956	0	8.9	4	2.8	4	-1E+10	1	-1E+10	1	-1E+10	1	-1E+10	1	-1E+10	1	-1E+10	1
4902663	42	C	09/21/2024	20:19	-127.744	47.723	0	697.70	0	4.2910	0	34.2440	0	27.160	0	690.700	0	8.7	4	2.8	4	-1E+10	1	-1E+10	1	-1E+10	1	-1E+10	1	-1E+10	1	-1E+10	1
4902663	42	C	09/21/2024	20:19	-127.744	47.723	0	703.00	0	4.2810	0	34.2460	0	27.163	0	695.938	0	8.6	4	2.7	4	-1E+10	1	-1E+10	1	-1E+10	1	-1E+10	1	-1E+10	1	-1E+10	1
4902663	42	C	09/21/2024	20:19	-127.744	47.723	0	708.20	0	4.2610	0	34.2500	0	27.168	0	701.077	0	8.4	4	2.7	4	-1E+10	1	-1E+10	1	-1E+10	1	-1E+10	1	-1E+10	1	-1E+10	1
4902663	42	C	09/21/2024	20:19	-127.744	47.723	0	713.30	0	4.2450	0	34.2530	0	27.172	0	706.117	0	8.3	4	2.6	4	-1E+10	1	-1E+10	1	-1E+10	1	-1E+10	1	-1E+10	1	-1E+10	1
4902663	42	C	09/21/2024	20:19	-127.744	47.723	0	718.00	0	4.2320	0	34.2580	0	27.177	0	710.762	0	8.1	4	2.6	4	-1E+10	1	-1E+10	1	-1E+10	1	-1E+10	1	-1E+10	1	-1E+10	1
4902663	42	C	09/21/2024	20:19	-127.744	47.723	0	722.60	0	4.2220	0	34.2600	0	27.180	0	715.307	0	8.0	4	2.5	4	-1E+10	1	-1E+10	1	-1E+10	1	-1E+10	1	-1E+10	1	-1E+10	1
4902663	42	C	09/21/2024	20:19	-127.744	47.723	0	727.80	0	4.2040	0	34.2630	0	27.184	0	720.446	0	7.9	4	2.5	4	-1E+10	1	-1E+10	1	-1E+10	1	-1E+10	1	-1E+10	1	-1E+10	1
4902663	42	C	09/21/2024	20:19	-127.744	47.723	0	733.10	0	4.1890	0	34.2660	0	27.188	0	725.683	0	7.7	4	2.5	4	-1E+10	1	-1E+10	1	-1E+10	1	-1E+10	1	-1E+10	1	-1E+10	1
4902663	42	C	09/21/2024	20:19	-127.744	47.723	0	738.20	0	4.1790	0	34.2690	0	27.192	0	730.723	0	7.6	4	2.4	4	-1E+10	1	-1E+10	1	-1E+10	1	-1E+10	1	-1E+10	1	-1E+10	1
4902663	42	C	09/21/2024	20:19	-127.744	47.723	0	743.30	0	4.1620	0	34.2720	0	27.196	0	735.762	0	7.5	4	2.4	4	-1E+10	1	-1E+10	1	-1E+10	1	-1E+10	1	-1E+10	1	-1E+10	1
4902663	42	C	09/21/2024	20:19	-127.744	47.723	0	748.30	0	4.1570	0	34.2760	0	27.200	0	740.702	0	7.4	4	2.3	4	-1E+10	1	-1E+10	1	-1E+10	1	-1E+10	1	-1E+10	1	-1E+10	1
4902663	42	C	09/21/2024	20:19	-127.744	47.723	0	753.30	0	4.1460	0	34.2800	0	27.204	0	745.643	0	7.3	4	2.3	4	-1E+10	1	-1E+10	1	-1E+10	1	-1E+10	1	-1E+10	1	-1E+10	1
4902663	42	C	09/21/2024	20:19	-127.744	47.723	0	758.20	0	4.1240	0	34.2830	0	27.209	0	750.484	0	7.3	4	2.3	4	-1E+10	1	-1E+10	1	-1E+10	1	-1E+10	1	-1E+10	1	-1E+10	1
4902663	42	C	09/21/2024	20:19	-127.744	47.723	0	763.00	0	4.0970	0	34.2840	0	27.213	0	755.227	0	7.3	4	2.3	4	-1E+10	1	-1E+10	1	-1E+10	1	-1E+10	1	-1E+10	1	-1E+10	1
4902663	42	C	09/21/2024	20:19	-127.744	47.723	0	767.90	0	4.0720	0	34.2860	0	27.217	0	760.068	0	7.3	4	2.3	4	-1E+10	1	-1E+10	1	-1E+10	1	-1E+10	1	-1E+10	1	-1E+10	1
4902663	42	C	09/21/2024	20:19	-127.744	47.723	0	772.80	0	4.0520	0	34.2860	0	27.219	0	764.909	0	7.3	4	2.3	4	-1E+10	1	-1E+10	1	-1E+10	1	-1E+10	1	-1E+10	1	-1E+10	1
4902663	42	C	09/21/2024	20:19	-127.744	47.723	0	777.60	0	4.0370	0	34.2880	0	27.222	0	769.651	0	7.2	4	2.3	4	-1E+10	1	-1E+10	1	-1E+10	1	-1E+10	1	-1E+10	1	-1E+10	1
4902663	42	C	09/21/2024	20:19	-127.744	47.723	0	783.00	0	4.0230	0	34.2900	0	27.225	0	774.986	0	7.2	4	2.3	4	-1E+10	1	-1E+10	1	-1E+10	1	-1E+10	1	-1E+10	1	-1E+10	1
4902663	42	C	09/21/2024	20:19	-127.744	47.723	0	788.40	0	4.0170	0	34.2940	0	27.229	0	780.320	0	7.1	4	2.2	4	-1E+10	1	-1E+10	1	-1E+10	1	-1E+10	1	-1E+10	1	-1E+10	1
4902663	42	C	09/21/2024	20:19	-127.744	47.723	0	793.20	0	3.9900	0	34.2960	0	27.233	0	785.062	0	7.0	4	2.2	4	-1E+10	1	-1E+10	1	-1E+10	1	-1E+10	1	-1E+10	1	-1E+10	1
4902663	42	C	09/21/2024	20:19	-127.744	47.723	0	798.10	0	3.9880	0	34.3000	0	27.237	0	789.903	0	6.9	4	2.2	4	-1E+10	1	-1E+10	1	-1E+10	1	-1E+10	1	-1E+10	1	-1E+10	1
4902663	42	C	09/21/2024	20:19	-127.744	47.723	0	803.10	0	3.9760	0	34.3040	0	27.241	0	794.842	0	6.9	4	2.2	4	-1E+10	1	-1E+10	1	-1E+10	1	-1E+10	1	-1E+10	1	-1E+10	1
4902663	42	C	09/21/2024	20:19	-127.744	47.723	0	808.00	0	3.9640	0	34.3060	0	27.244	0	799.682	0	6.9	4	2.2	4	-1E+10	1	-1E+10	1	-1E+10	1	-1E+10	1	-1E+10	1	-1E+10	1
4902663	42	C	09/21/2024	20:19	-127.744	47.723	0	812.70	0	3.9460	0	34.3090	0	27.248	0	804.325	0	6.9	4	2.2	4	-1E+10	1	-1E+10	1	-1E+10	1	-1E+10	1	-1E+10	1	-1E+10	1
4902663	42	C	09/21/2024	20:19	-127.744	47.723	0	817.70	0	3.9270	0	34.3100	0	27.251	0	809.263	0	6.9	4	2.2	4	-1E+10	1	-1E+10	1	-1E+10	1	-1E+10	1	-1E+10	1	-1E+10	1
4902663	42	C	09/21/2024	20:19	-127.744	47.723	0	822.80	0	3.9070	0	34.3110	0	27.254	0	814.301	0	6.9	4	2.2	4	-1E+10	1	-1E+10	1	-1E+10	1	-1E+10	1	-1E+10	1	-1E+10	1
4902663	42	C	09/21/2024	20:19	-127.744	47.723	0	828.00	0	3.8980	0	34.3140	0	27.257	0	819.437	0	6.9	4	2.2	4	-1E+10	1	-1E+10	1	-1E+10	1	-1E+10	1	-1E+10	1	-1E+10	1
4902663	42	C	09/21/2024	20:19	-127.744	47.723	0	833.20	0	3.8860	0	34.3170	0	27.261	0	824.573	0	6.8	4	2.2	4	-1E+10	1	-1E+10	1	-1E+10	1	-1E+10	1	-1E+10	1	-1E+10	1
4902663	42	C	09/21/2024	20:19	-127.744	47.723	0	838.10	0	3.8790	0	34.3190	0	27.263	0	829.412	0	6.8	4	2.2	4	-1E+10	1	-1E+10	1	-1E+10	1	-1E+10	1	-1E+10	1	-1E+10	1
4902663	42	C	09/21/2024	20:19	-127.744	47.723	0	843.10	0	3.8700	0	34.3200	0	27.265	0	834.351	0	6.8	4	2.2	4	-1E+10	1	-1E+10	1	-1E+10	1	-1E+10	1	-1E+10	1	-1E+10	1
4902663	42	C	09/21/2024	20:19	-127.744	47.723	0	848.20	0	3.8530	0	34.3220	0	27.268	0	839.387	0	6.9	4	2.2	4	-1E+10	1	-1E+10	1	-1E+10	1	-1E+10	1	-1E+10	1	-1E+10	1
4902663	42	C	09/21/2024	20:19	-127.744	47.723	0	852.90	0	3.8320	0	34.3250	0	27.273	0	844.029	0	6.9	4	2.2	4	-1E+10	1	-1E+10	1	-1E+10	1	-1E+10	1	-1E+10	1	-1E+10	1
4902663	42	C	09/21/2024	20:19	-127.744	47.723	0	857.60	0	3.8210	0	34.3260	0	27.275	0	848.671	0	6.9	4	2.2	4	-1E+10	1	-1E+10	1	-1E+10	1	-1E+10	1	-1E+10	1	-1E+10	1
4902663	42	C	09/21/2024	20:19	-127.744	47.723	0	862.80	0	3.8090	0	34.3280	0	27.277	0	853.806	0	6.9	4	2.2	4	-1E+10	1	-1E+10	1	-1E+10	1	-1E+10	1	-1E+10	1	-1E+10	1
4902663	42	C	09/21/2024	20:19	-127.744	47.723	0	867.90	0	3.7960	0	34.3320	0	27.282	0	858.842	0	6.8	4	2.2	4	-1E+10	1	-1E+10	1	-1E+10	1	-1E+10	1	-1E+10	1	-1E+10	1
4902663	42	C	09/21/2024	20:19	-127.744	47.723	0	873.10	0	3.7850	0	34.3360	0	27.286	0	863.977	0	6.8	4	2.1	4	-1E+10	1	-1E+10	1	-1E+10	1	-1E+10	1	-1E+10	1	-1E+10	1
4902663	42	C	09/21/2024	20:19	-127.744	47.723	0	877.90	0	3.7770	0	34.3380	0	27.289	0	868.717	0	6.8	4	2.2	4	-1E+10	1	-1E+10	1	-1E+10	1	-1E+10	1	-1E+10	1	-1E+10	1
4902663	42	C	09/21/2024	20:19	-127.744	47.723	0	882.70	0	3.7650	0	34.3410	0	27.292	0	873.457	0	6.8	4	2.2	4	-1E+10	1	-1E+10	1	-1E+10	1	-1E+10	1	-1E+10	1	-1E+10	1
4902663	42	C	09/21/2024	20:19	-127.744	47.723	0	888.00	0	3.7590	0	34.3420	0	27.294	0	878.690	0	6.9	4	2.2	4	-1E+10	1	-1E+10	1	-1E+10	1	-1E+10	1	-1E+10	1	-1E+10	1
4902663	42	C	09/21/2024	20:19	-127.744	47.723	0	892.90	0	3.7480	0	34.3460	0	27.298	0	883.529	0	6.9	4	2.2	4	-1E+10	1	-1E+10	1	-1E+10	1	-1E+10	1	-1E+10	1	-1E+10	1
4902663	42	C	09/21/2024	20:19	-127.744	47.723	0	897.80	0	3.7350	0	34.3480	0	27.301	0	888.367	0	7.0	4	2.2	4	-1E+10	1	-1E+10	1	-1E+10	1	-1E+10	1	-1E+10	1	-1E+10	1
4902663	42	C	09/21/2024	20:19	-127.744	47.723	0	903.20	0	3.7210	0	34.3490	0	27.303	0	893.698	0	7.0	4	2.2	4	-1E+10	1	-1E+10	1	-1E+10	1	-1E+10	1	-1E+10	1	-1E+10	1
4902663	42	C	09/21/2024	20:19	-127.744	47.723	0	908.10	0	3.7090	0	34.3530	0	27.308	0	898.536	0	7.0	4	2.2	4	-1E+10	1	-1E+10	1	-1E+10	1	-1E+10	1	-1E+10	1	-1E+10	1
4902663	42	C	09/21/2024	20:19	-127.744	47.723	0	913.00	0	3.7000	0	34.3540	0	27.309	0	903.374	0	7.0	4	2.2	4	-1E+10	1	-1E+10	1	-1E+10	1	-1E+10	1	-1E+10	1	-1E+10	1
4902663	42	C	09/21/2024	20:19	-127.744	47.723	0	917.90	0	3.6920	0	34.3560	0	27.312	0	908.212	0	7.1	4	2.2	4	-1E+10	1	-1E+10	1	-1E+10	1	-1E+10	1	-1E+10	1	-1E+10	1
4902663	42	C	09/21/2024	20:19	-127.744	47.723	0	922.80	0	3.6940	0	34.3580	0	27.313	0	913.050	0	7.1	4	2.2	4	-1E+10	1	-1E+10	1	-1E+10	1	-1E+10	1	-1E+10	1	-1E+10	1
4902663	42	C	09/21/2024	20:19	-127.744	47.723	0	927.80	0	3.6940	0	34.3630	0	27.317	0	917.986	0	7.2	4	2.3	4	-1E+10	1	-1E+10	1	-1E+10	1	-1E+10	1	-1E+10	1	-1E+10	1
4902663	42	C	09/21/2024	20:19	-127.744	47.723	0	932.60	0	3.6660	0	34.3650	0	27.322	0	922.724	0	7.2	4	2.3	4	-1E+10	1	-1E+10	1	-1E+10	1	-1E+10	1	-1E+10	1	-1E+10	1
4902663	42	C	09/21/2024	20:19	-127.744	47.723	0	937.90	0	3.6380	0	34.3660	0	27.325	0	927.957	0	7.3	4	2.3	4	-1E+10	1	-1E+10	1	-1E+10	1	-1E+10	1	-1E+10	1	-1E+10	1
4902663	42	C	09/21/2024	20:19	-127.744	47.723	0	943.10	0	3.6220	0	34.3670	0	27.328	0	933.090	0	7.4	4	2.3	4	-1E+10	1	-1E+10	1	-1E+10	1	-1E+10	1	-1E+10	1	-1E+10	1
4902663	42	C	09/21/2024	20:19	-127.744	47.723	0	947.90	0	3.6010	0	34.3690	0	27.331	0	937.828	0	7.4	4	2.3	4	-1E+10	1	-1E+10	1	-1E+10	1	-1E+10	1	-1E+10	1	-1E+10	1
4902663	42	C	09/21/2024	20:19	-127.744	47.723	0	952.80	0	3.5850	0	34.3700	0	27.334	0	942.665	0	7.5	4	2.3	4	-1E+10	1	-1E+10	1	-1E+10	1	-1E+10	1	-1E+10	1	-1E+10	1
4902663	42	C	09/21/2024	20:19	-127.744	47.723	0	957.80	0	3.5740	0	34.3710	0	27.335	0	947.601	0	7.5	4	2.4	4	-1E+10	1	-1E+10	1	-1E+10	1	-1E+10	1	-1E+10	1	-1E+10	1
4902663	42	C	09/21/2024	20:19	-127.744	47.723	0	962.70	0	3.5620	0	34.3740	0	27.339	0	952.437	0	7.6	4	2.4	4	-1E+10	1	-1E+10	1	-1E+10	1	-1E+10	1	-1E+10	1	-1E+10	1
4902663	42	C	09/21/2024	20:19	-127.744	47.723	0	967.80	0	3.5610	0	34.3790	0	27.343	0	957.471	0	7.7	4	2.4	4	-1E+10	1	-1E+10	1	-1E+10	1	-1E+10	1	-1E+10	1	-1E+10	1
4902663	42	C	09/21/2024	20:19	-127.744	47.723	0	973.00	0	3.5470	0	34.3810	0	27.346	0	962.604	0	7.8	4	2.4	4	-1E+10	1	-1E+10	1	-1E+10	1	-1E+10	1	-1E+10	1	-1E+10	1
4902663	42	C	09/21/2024	20:19	-127.744	47.723	0	978.30	0	3.5290	0	34.3820	0	27.349	0	967.835	0	7.9	4	2.5	4	-1E+10	1	-1E+10	1	-1E+10	1	-1E+10	1	-1E+10	1	-1E+10	1
4902663	42	C	09/21/2024	20:19	-127.744	47.723	0	983.10	0	3.5200	0	34.3850	0	27.352	0	972.572	0	8.0	4	2.5	4	-1E+10	1	-1E+10	1	-1E+10	1	-1E+10	1	-1E+10	1	-1E+10	1
4902663	42	C	09/21/2024	20:19	-127.744	47.723	0	988.10	0	3.5150	0	34.3880	0	27.355	0	977.507	0	8.1	4	2.5	4	-1E+10	1	-1E+10	1	-1E+10	1	-1E+10	1	-1E+10	1	-1E+10	1
4902663	42	C	09/21/2024	20:19	-127.744	47.723	0	993.10	0	3.5060	0	34.3910	0	27.358	0	982.442	0	8.2	4	2.6	4	-1E+10	1	-1E+10	1	-1E+10	1	-1E+10	1	-1E+10	1	-1E+10	1
4902663	42	C	09/21/2024	20:19	-127.744	47.723	0	998.10	0	3.5000	0	34.3940	0	27.361	0	987.376	0	8.3	4	2.6	4	-1E+10	1	-1E+10	1	-1E+10	1	-1E+10	1	-1E+10	1	-1E+10	1
4902663	42	C	09/21/2024	20:19	-127.744	47.723	0	1005.30	0	3.4900	0	34.3980	0	27.365	0	994.482	0	8.4	4	2.6	4	-1E+10	1	-1E+10	1	-1E+10	1	-1E+10	1	-1E+10	1	-1E+10	1
4902663	42	C	09/21/2024	20:19	-127.744	47.723	0	1015.50	0	3.4700	0	34.4010	0	27.370	0	1004.548	0	8.6	4	2.7	4	-1E+10	1	-1E+10	1	-1E+10	1	-1E+10	1	-1E+10	1	-1E+10	1
4902663	42	C	09/21/2024	20:19	-127.744	47.723	0	1025.70	0	3.4500	0	34.4050	0	27.375	0	1014.613	0	8.8	4	2.7	4	-1E+10	1	-1E+10	1	-1E+10	1	-1E+10	1	-1E+10	1	-1E+10	1
4902663	42	C	09/21/2024	20:19	-127.744	47.723	0	1035.50	0	3.4330	0	34.4080	0	27.379	0	1024.283	0	9.0	4	2.8	4	-1E+10	1	-1E+10	1	-1E+10	1	-1E+10	1	-1E+10	1	-1E+10	1
4902663	42	C	09/21/2024	20:19	-127.744	47.723	0	1045.20	0	3.4040	0	34.4120	0	27.385	0	1033.854	0	9.3	4	2.9	4	-1E+10	1	-1E+10	1	-1E+10	1	-1E+10	1	-1E+10	1	-1E+10	1
4902663	42	C	09/21/2024	20:19	-127.744	47.723	0	1055.20	0	3.3710	0	34.4150	0	27.391	0	1043.721	0	9.5	4	2.9	4	-1E+10	1	-1E+10	1	-1E+10	1	-1E+10	1	-1E+10	1	-1E+10	1
4902663	42	C	09/21/2024	20:19	-127.744	47.723	0	1065.50	0	3.3530	0	34.4180	0	27.395	0	1053.883	0	9.6	4	3.0	4	-1E+10	1	-1E+10	1	-1E+10	1	-1E+10	1	-1E+10	1	-1E+10	1
4902663	42	C	09/21/2024	20:19	-127.744	47.723	0	1075.50	0	3.3420	0	34.4200	0	27.398	0	1063.749	0	9.8	4	3.0	4	-1E+10	1	-1E+10	1	-1E+10	1	-1E+10	1	-1E+10	1	-1E+10	1
4902663	42	C	09/21/2024	20:19	-127.744	47.723	0	1085.40	0	3.3230	0	34.4220	0	27.401	0	1073.515	0	10.0	4	3.1	4	-1E+10	1	-1E+10	1	-1E+10	1	-1E+10	1	-1E+10	1	-1E+10	1
4902663	42	C	09/21/2024	20:19	-127.744	47.723	0	1095.50	0	3.3030	0	34.4260	0	27.406	0	1083.479	0	10.1	4	3.2	4	-1E+10	1	-1E+10	1	-1E+10	1	-1E+10	1	-1E+10	1	-1E+10	1
4902663	42	C	09/21/2024	20:19	-127.744	47.723	0	1105.50	0	3.2910	0	34.4270	0	27.408	0	1093.343	0	10.2	4	3.2	4	-1E+10	1	-1E+10	1	-1E+10	1	-1E+10	1	-1E+10	1	-1E+10	1
4902663	42	C	09/21/2024	20:19	-127.744	47.723	0	1115.70	0	3.2810	0	34.4280	0	27.410	0	1103.404	0	10.4	4	3.2	4	-1E+10	1	-1E+10	1	-1E+10	1	-1E+10	1	-1E+10	1	-1E+10	1
4902663	42	C	09/21/2024	20:19	-127.744	47.723	0	1125.40	0	3.2660	0	34.4300	0	27.413	0	1112.971	0	10.6	4	3.3	4	-1E+10	1	-1E+10	1	-1E+10	1	-1E+10	1	-1E+10	1	-1E+10	1
4902663	42	C	09/21/2024	20:19	-127.744	47.723	0	1135.40	0	3.2520	0	34.4320	0	27.416	0	1122.834	0	10.8	4	3.4	4	-1E+10	1	-1E+10	1	-1E+10	1	-1E+10	1	-1E+10	1	-1E+10	1
4902663	42	C	09/21/2024	20:19	-127.744	47.723	0	1145.50	0	3.2360	0	34.4350	0	27.420	0	1132.795	0	11.0	4	3.4	4	-1E+10	1	-1E+10	1	-1E+10	1	-1E+10	1	-1E+10	1	-1E+10	1
4902663	42	C	09/21/2024	20:19	-127.744	47.723	0	1155.50	0	3.2160	0	34.4380	0	27.424	0	1142.657	0	11.2	4	3.5	4	-1E+10	1	-1E+10	1	-1E+10	1	-1E+10	1	-1E+10	1	-1E+10	1
4902663	42	C	09/21/2024	20:19	-127.744	47.723	0	1165.30	0	3.1820	0	34.4390	0	27.428	0	1152.321	0	11.4	4	3.5	4	-1E+10	1	-1E+10	1	-1E+10	1	-1E+10	1	-1E+10	1	-1E+10	1
4902663	42	C	09/21/2024	20:19	-127.744	47.723	0	1175.30	0	3.1520	0	34.4410	0	27.433	0	1162.182	0	11.6	4	3.6	4	-1E+10	1	-1E+10	1	-1E+10	1	-1E+10	1	-1E+10	1	-1E+10	1
4902663	42	C	09/21/2024	20:19	-127.744	47.723	0	1185.30	0	3.1310	0	34.4430	0	27.436	0	1172.043	0	11.8	4	3.7	4	-1E+10	1	-1E+10	1	-1E+10	1	-1E+10	1	-1E+10	1	-1E+10	1
4902663	42	C	09/21/2024	20:19	-127.744	47.723	0	1195.50	0	3.1050	0	34.4460	0	27.441	0	1182.100	0	12.3	4	3.8	4	-1E+10	1	-1E+10	1	-1E+10	1	-1E+10	1	-1E+10	1	-1E+10	1
4902663	42	C	09/21/2024	20:19	-127.744	47.723	0	1205.60	0	3.0710	0	34.4500	0	27.447	0	1192.058	0	12.5	4	3.9	4	-1E+10	1	-1E+10	1	-1E+10	1	-1E+10	1	-1E+10	1	-1E+10	1
4902663	42	C	09/21/2024	20:19	-127.744	47.723	0	1215.30	0	3.0410	0	34.4510	0	27.451	0	1201.622	0	12.7	4	3.9	4	-1E+10	1	-1E+10	1	-1E+10	1	-1E+10	1	-1E+10	1	-1E+10	1
4902663	42	C	09/21/2024	20:19	-127.744	47.723	0	1225.20	0	3.0110	0	34.4520	0	27.454	0	1211.382	0	12.9	4	4.0	4	-1E+10	1	-1E+10	1	-1E+10	1	-1E+10	1	-1E+10	1	-1E+10	1
4902663	42	C	09/21/2024	20:19	-127.744	47.723	0	1235.20	0	2.9870	0	34.4540	0	27.458	0	1221.240	0	13.1	4	4.0	4	-1E+10	1	-1E+10	1	-1E+10	1	-1E+10	1	-1E+10	1	-1E+10	1
4902663	42	C	09/21/2024	20:19	-127.744	47.723	0	1245.50	0	2.9710	0	34.4570	0	27.462	0	1231.393	0	13.6	4	4.2	4	-1E+10	1	-1E+10	1	-1E+10	1	-1E+10	1	-1E+10	1	-1E+10	1
4902663	42	C	09/21/2024	20:19	-127.744	47.723	0	1255.70	0	2.9710	0	34.4630	0	27.467	0	1241.448	0	14.1	4	4.4	4	-1E+10	1	-1E+10	1	-1E+10	1	-1E+10	1	-1E+10	1	-1E+10	1
4902663	42	C	09/21/2024	20:19	-127.744	47.723	0	1265.50	0	2.9640	0	34.4660	0	27.470	0	1251.107	0	14.5	4	4.5	4	-1E+10	1	-1E+10	1	-1E+10	1	-1E+10	1	-1E+10	1	-1E+10	1
4902663	42	C	09/21/2024	20:19	-127.744	47.723	0	1275.50	0	2.9580	0	34.4700	0	27.474	0	1260.964	0	15.0	4	4.6	4	-1E+10	1	-1E+10	1	-1E+10	1	-1E+10	1	-1E+10	1	-1E+10	1
4902663	42	C	09/21/2024	20:19	-127.744	47.723	0	1285.70	0	2.9390	0	34.4730	0	27.478	0	1271.017	0	15.4	4	4.8	4	-1E+10	1	-1E+10	1	-1E+10	1	-1E+10	1	-1E+10	1	-1E+10	1
4902663	42	C	09/21/2024	20:19	-127.744	47.723	0	1295.80	0	2.9030	0	34.4750	0	27.483	0	1280.971	0	15.8	4	4.9	4	-1E+10	1	-1E+10	1	-1E+10	1	-1E+10	1	-1E+10	1	-1E+10	1
4902663	42	C	09/21/2024	20:19	-127.744	47.723	0	1305.40	0	2.8700	0	34.4750	0	27.486	0	1290.431	0	16.0	4	4.9	4	-1E+10	1	-1E+10	1	-1E+10	1	-1E+10	1	-1E+10	1	-1E+10	1
4902663	42	C	09/21/2024	20:19	-127.744	47.723	0	1315.40	0	2.8480	0	34.4770	0	27.489	0	1300.286	0	16.3	4	5.0	4	-1E+10	1	-1E+10	1	-1E+10	1	-1E+10	1	-1E+10	1	-1E+10	1
4902663	42	C	09/21/2024	20:19	-127.744	47.723	0	1325.40	0	2.8380	0	34.4790	0	27.492	0	1310.140	0	16.7	4	5.1	4	-1E+10	1	-1E+10	1	-1E+10	1	-1E+10	1	-1E+10	1	-1E+10	1
4902663	42	C	09/21/2024	20:19	-127.744	47.723	0	1335.50	0	2.8290	0	34.4810	0	27.494	0	1320.092	0	17.2	4	5.3	4	-1E+10	1	-1E+10	1	-1E+10	1	-1E+10	1	-1E+10	1	-1E+10	1
4902663	42	C	09/21/2024	20:19	-127.744	47.723	0	1345.30	0	2.8300	0	34.4850	0	27.498	0	1329.748	0	17.8	4	5.5	4	-1E+10	1	-1E+10	1	-1E+10	1	-1E+10	1	-1E+10	1	-1E+10	1
4902663	42	C	09/21/2024	20:19	-127.744	47.723	0	1355.50	0	2.8170	0	34.4880	0	27.501	0	1339.798	0	18.3	4	5.6	4	-1E+10	1	-1E+10	1	-1E+10	1	-1E+10	1	-1E+10	1	-1E+10	1
4902663	42	C	09/21/2024	20:19	-127.744	47.723	0	1365.80	0	2.7950	0	34.4900	0	27.505	0	1349.945	0	18.6	4	5.7	4	-1E+10	1	-1E+10	1	-1E+10	1	-1E+10	1	-1E+10	1	-1E+10	1
4902663	42	C	09/21/2024	20:19	-127.744	47.723	0	1375.80	0	2.7710	0	34.4910	0	27.508	0	1359.797	0	19.0	4	5.8	4	-1E+10	1	-1E+10	1	-1E+10	1	-1E+10	1	-1E+10	1	-1E+10	1
4902663	42	C	09/21/2024	20:19	-127.744	47.723	0	1385.40	0	2.7590	0	34.4920	0	27.510	0	1369.254	0	19.5	4	6.0	4	-1E+10	1	-1E+10	1	-1E+10	1	-1E+10	1	-1E+10	1	-1E+10	1
4902663	42	C	09/21/2024	20:19	-127.744	47.723	0	1395.10	0	2.7490	0	34.4950	0	27.513	0	1378.810	0	20.1	4	6.2	4	-1E+10	1	-1E+10	1	-1E+10	1	-1E+10	1	-1E+10	1	-1E+10	1
4902663	42	C	09/21/2024	20:19	-127.744	47.723	0	1405.30	0	2.7350	0	34.4980	0	27.517	0	1388.857	0	20.6	4	6.3	4	-1E+10	1	-1E+10	1	-1E+10	1	-1E+10	1	-1E+10	1	-1E+10	1
4902663	42	C	09/21/2024	20:19	-127.744	47.723	0	1415.60	0	2.7190	0	34.5000	0	27.520	0	1399.002	0	21.1	4	6.5	4	-1E+10	1	-1E+10	1	-1E+10	1	-1E+10	1	-1E+10	1	-1E+10	1
4902663	42	C	09/21/2024	20:19	-127.744	47.723	0	1425.40	0	2.6890	0	34.5020	0	27.524	0	1408.655	0	21.6	4	6.6	4	-1E+10	1	-1E+10	1	-1E+10	1	-1E+10	1	-1E+10	1	-1E+10	1
4902663	42	C	09/21/2024	20:19	-127.744	47.723	0	1435.30	0	2.6680	0	34.5040	0	27.527	0	1418.405	0	22.4	4	6.9	4	-1E+10	1	-1E+10	1	-1E+10	1	-1E+10	1	-1E+10	1	-1E+10	1
4902663	42	C	09/21/2024	20:19	-127.744	47.723	0	1445.20	0	2.6470	0	34.5070	0	27.532	0	1428.155	0	23.0	4	7.0	4	-1E+10	1	-1E+10	1	-1E+10	1	-1E+10	1	-1E+10	1	-1E+10	1
4902663	42	C	09/21/2024	20:19	-127.744	47.723	0	1455.20	0	2.6300	0	34.5090	0	27.535	0	1438.003	0	23.5	4	7.2	4	-1E+10	1	-1E+10	1	-1E+10	1	-1E+10	1	-1E+10	1	-1E+10	1
4902663	42	C	09/21/2024	20:19	-127.744	47.723	0	1465.60	0	2.6120	0	34.5110	0	27.538	0	1448.245	0	24.0	4	7.4	4	-1E+10	1	-1E+10	1	-1E+10	1	-1E+10	1	-1E+10	1	-1E+10	1
4902663	42	C	09/21/2024	20:19	-127.744	47.723	0	1475.60	0	2.5980	0	34.5130	0	27.541	0	1458.092	0	24.6	4	7.5	4	-1E+10	1	-1E+10	1	-1E+10	1	-1E+10	1	-1E+10	1	-1E+10	1
4902663	42	C	09/21/2024	20:19	-127.744	47.723	0	1485.20	0	2.5790	0	34.5150	0	27.544	0	1467.544	0	25.5	4	7.8	4	-1E+10	1	-1E+10	1	-1E+10	1	-1E+10	1	-1E+10	1	-1E+10	1
4902663	42	C	09/21/2024	20:19	-127.744	47.723	0	1495.40	0	2.5710	0	34.5200	0	27.549	0	1477.588	0	26.2	4	8.0	4	-1E+10	1	-1E+10	1	-1E+10	1	-1E+10	1	-1E+10	1	-1E+10	1
4902663	42	C	09/21/2024	20:19	-127.744	47.723	0	1505.50	0	2.5560	0	34.5210	0	27.551	0	1487.532	0	26.6	4	8.1	4	-1E+10	1	-1E+10	1	-1E+10	1	-1E+10	1	-1E+10	1	-1E+10	1
4902663	42	C	09/21/2024	20:19	-127.744	47.723	0	1515.40	0	2.5280	0	34.5220	0	27.554	0	1497.279	0	26.9	4	8.2	4	-1E+10	1	-1E+10	1	-1E+10	1	-1E+10	1	-1E+10	1	-1E+10	1
4902663	42	C	09/21/2024	20:19	-127.744	47.723	0	1525.70	0	2.5040	0	34.5230	0	27.557	0	1507.419	0	27.4	4	8.4	4	-1E+10	1	-1E+10	1	-1E+10	1	-1E+10	1	-1E+10	1	-1E+10	1
4902663	42	C	09/21/2024	20:19	-127.744	47.723	0	1535.50	0	2.4810	0	34.5250	0	27.561	0	1517.066	0	28.0	4	8.5	4	-1E+10	1	-1E+10	1	-1E+10	1	-1E+10	1	-1E+10	1	-1E+10	1
4902663	42	C	09/21/2024	20:19	-127.744	47.723	0	1545.30	0	2.4560	0	34.5260	0	27.563	0	1526.713	0	28.6	4	8.7	4	-1E+10	1	-1E+10	1	-1E+10	1	-1E+10	1	-1E+10	1	-1E+10	1
4902663	42	C	09/21/2024	20:19	-127.744	47.723	0	1555.40	0	2.4360	0	34.5290	0	27.568	0	1536.655	0	29.1	4	8.9	4	-1E+10	1	-1E+10	1	-1E+10	1	-1E+10	1	-1E+10	1	-1E+10	1
4902663	42	C	09/21/2024	20:19	-127.744	47.723	0	1565.50	0	2.4160	0	34.5300	0	27.570	0	1546.596	0	29.7	4	9.1	4	-1E+10	1	-1E+10	1	-1E+10	1	-1E+10	1	-1E+10	1	-1E+10	1
4902663	42	C	09/21/2024	20:19	-127.744	47.723	0	1575.50	0	2.4090	0	34.5320	0	27.572	0	1556.439	0	30.3	4	9.2	4	-1E+10	1	-1E+10	1	-1E+10	1	-1E+10	1	-1E+10	1	-1E+10	1
4902663	42	C	09/21/2024	20:19	-127.744	47.723	0	1585.60	0	2.4020	0	34.5350	0	27.575	0	1566.379	0	30.9	4	9.4	4	-1E+10	1	-1E+10	1	-1E+10	1	-1E+10	1	-1E+10	1	-1E+10	1
4902663	42	C	09/21/2024	20:19	-127.744	47.723	0	1595.60	0	2.3790	0	34.5360	0	27.578	0	1576.221	0	31.2	4	9.5	4	-1E+10	1	-1E+10	1	-1E+10	1	-1E+10	1	-1E+10	1	-1E+10	1
4902663	42	C	09/21/2024	20:19	-127.744	47.723	0	1605.80	0	2.3580	0	34.5360	0	27.580	0	1586.259	0	31.7	4	9.6	4	-1E+10	1	-1E+10	1	-1E+10	1	-1E+10	1	-1E+10	1	-1E+10	1
4902663	42	C	09/21/2024	20:19	-127.744	47.723	0	1615.50	0	2.3300	0	34.5380	0	27.584	0	1595.804	0	32.4	4	9.8	4	-1E+10	1	-1E+10	1	-1E+10	1	-1E+10	1	-1E+10	1	-1E+10	1
4902663	42	C	09/21/2024	20:19	-127.744	47.723	0	1625.30	0	2.3050	0	34.5400	0	27.588	0	1605.448	0	33.2	4	10.1	4	-1E+10	1	-1E+10	1	-1E+10	1	-1E+10	1	-1E+10	1	-1E+10	1
4902663	42	C	09/21/2024	20:19	-127.744	47.723	0	1635.40	0	2.2840	0	34.5420	0	27.591	0	1615.386	0	34.0	4	10.3	4	-1E+10	1	-1E+10	1	-1E+10	1	-1E+10	1	-1E+10	1	-1E+10	1
4902663	42	C	09/21/2024	20:19	-127.744	47.723	0	1645.10	0	2.2680	0	34.5440	0	27.594	0	1624.930	0	34.5	4	10.5	4	-1E+10	1	-1E+10	1	-1E+10	1	-1E+10	1	-1E+10	1	-1E+10	1
4902663	42	C	09/21/2024	20:19	-127.744	47.723	0	1655.20	0	2.2560	0	34.5460	0	27.596	0	1634.867	0	35.1	4	10.7	4	-1E+10	1	-1E+10	1	-1E+10	1	-1E+10	1	-1E+10	1	-1E+10	1
4902663	42	C	09/21/2024	20:19	-127.744	47.723	0	1665.30	0	2.2450	0	34.5470	0	27.598	0	1644.804	0	35.8	4	10.9	4	-1E+10	1	-1E+10	1	-1E+10	1	-1E+10	1	-1E+10	1	-1E+10	1
4902663	42	C	09/21/2024	20:19	-127.744	47.723	0	1675.40	0	2.2310	0	34.5490	0	27.601	0	1654.740	0	36.5	4	11.1	4	-1E+10	1	-1E+10	1	-1E+10	1	-1E+10	1	-1E+10	1	-1E+10	1
4902663	42	C	09/21/2024	20:19	-127.744	47.723	0	1685.30	0	2.2170	0	34.5510	0	27.604	0	1664.479	0	37.2	4	11.3	4	-1E+10	1	-1E+10	1	-1E+10	1	-1E+10	1	-1E+10	1	-1E+10	1
4902663	42	C	09/21/2024	20:19	-127.744	47.723	0	1695.30	0	2.2070	0	34.5530	0	27.606	0	1674.316	0	37.7	4	11.4	4	-1E+10	1	-1E+10	1	-1E+10	1	-1E+10	1	-1E+10	1	-1E+10	1
4902663	42	C	09/21/2024	20:19	-127.744	47.723	0	1705.40	0	2.1970	0	34.5550	0	27.609	0	1684.251	0	38.5	4	11.7	4	-1E+10	1	-1E+10	1	-1E+10	1	-1E+10	1	-1E+10	1	-1E+10	1
4902663	42	C	09/21/2024	20:19	-127.744	47.723	0	1715.50	0	2.1850	0	34.5570	0	27.611	0	1694.185	0	39.3	4	11.9	4	-1E+10	1	-1E+10	1	-1E+10	1	-1E+10	1	-1E+10	1	-1E+10	1
4902663	42	C	09/21/2024	20:19	-127.744	47.723	0	1725.30	0	2.1740	0	34.5590	0	27.614	0	1703.824	0	40.0	4	12.1	4	-1E+10	1	-1E+10	1	-1E+10	1	-1E+10	1	-1E+10	1	-1E+10	1
4902663	42	C	09/21/2024	20:19	-127.744	47.723	0	1735.30	0	2.1670	0	34.5610	0	27.616	0	1713.660	0	40.6	4	12.3	4	-1E+10	1	-1E+10	1	-1E+10	1	-1E+10	1	-1E+10	1	-1E+10	1
4902663	42	C	09/21/2024	20:19	-127.744	47.723	0	1745.50	0	2.1600	0	34.5630	0	27.618	0	1723.691	0	41.2	4	12.5	4	-1E+10	1	-1E+10	1	-1E+10	1	-1E+10	1	-1E+10	1	-1E+10	1
4902663	42	C	09/21/2024	20:19	-127.744	47.723	0	1755.40	0	2.1500	0	34.5650	0	27.621	0	1733.427	0	41.8	4	12.6	4	-1E+10	1	-1E+10	1	-1E+10	1	-1E+10	1	-1E+10	1	-1E+10	1
4902663	42	C	09/21/2024	20:19	-127.744	47.723	0	1765.50	0	2.1390	0	34.5660	0	27.622	0	1743.359	0	42.3	4	12.8	4	-1E+10	1	-1E+10	1	-1E+10	1	-1E+10	1	-1E+10	1	-1E+10	1
4902663	42	C	09/21/2024	20:19	-127.744	47.723	0	1775.60	0	2.1320	0	34.5680	0	27.625	0	1753.291	0	42.7	4	12.9	4	-1E+10	1	-1E+10	1	-1E+10	1	-1E+10	1	-1E+10	1	-1E+10	1
4902663	42	C	09/21/2024	20:19	-127.744	47.723	0	1785.50	0	2.1260	0	34.5680	0	27.625	0	1763.025	0	43.2	4	13.1	4	-1E+10	1	-1E+10	1	-1E+10	1	-1E+10	1	-1E+10	1	-1E+10	1
4902663	42	C	09/21/2024	20:19	-127.744	47.723	0	1795.50	0	2.1190	0	34.5700	0	27.627	0	1772.858	0	43.6	4	13.2	4	-1E+10	1	-1E+10	1	-1E+10	1	-1E+10	1	-1E+10	1	-1E+10	1
4902663	42	C	09/21/2024	20:19	-127.744	47.723	0	1805.30	0	2.1130	0	34.5710	0	27.629	0	1782.493	0	44.1	4	13.3	4	-1E+10	1	-1E+10	1	-1E+10	1	-1E+10	1	-1E+10	1	-1E+10	1
4902663	42	C	09/21/2024	20:19	-127.744	47.723	0	1815.30	0	2.1030	0	34.5720	0	27.630	0	1792.324	0	44.7	4	13.5	4	-1E+10	1	-1E+10	1	-1E+10	1	-1E+10	1	-1E+10	1	-1E+10	1
4902663	42	C	09/21/2024	20:19	-127.744	47.723	0	1825.30	0	2.0880	0	34.5740	0	27.633	0	1802.156	0	45.2	4	13.7	4	-1E+10	1	-1E+10	1	-1E+10	1	-1E+10	1	-1E+10	1	-1E+10	1
4902663	42	C	09/21/2024	20:19	-127.744	47.723	0	1835.30	0	2.0800	0	34.5750	0	27.635	0	1811.986	0	45.7	4	13.8	4	-1E+10	1	-1E+10	1	-1E+10	1	-1E+10	1	-1E+10	1	-1E+10	1
4902663	42	C	09/21/2024	20:19	-127.744	47.723	0	1845.40	0	2.0700	0	34.5760	0	27.636	0	1821.915	0	46.1	4	13.9	4	-1E+10	1	-1E+10	1	-1E+10	1	-1E+10	1	-1E+10	1	-1E+10	1
4902663	42	C	09/21/2024	20:19	-127.744	47.723	0	1855.10	0	2.0620	0	34.5770	0	27.638	0	1831.449	0	46.6	4	14.1	4	-1E+10	1	-1E+10	1	-1E+10	1	-1E+10	1	-1E+10	1	-1E+10	1
4902663	42	C	09/21/2024	20:19	-127.744	47.723	0	1865.00	0	2.0550	0	34.5780	0	27.639	0	1841.180	0	47.2	4	14.2	4	-1E+10	1	-1E+10	1	-1E+10	1	-1E+10	1	-1E+10	1	-1E+10	1
4902663	42	C	09/21/2024	20:19	-127.744	47.723	0	1875.00	0	2.0460	0	34.5800	0	27.642	0	1851.009	0	47.7	4	14.4	4	-1E+10	1	-1E+10	1	-1E+10	1	-1E+10	1	-1E+10	1	-1E+10	1
4902663	42	C	09/21/2024	20:19	-127.744	47.723	0	1885.20	0	2.0390	0	34.5810	0	27.643	0	1861.034	0	48.2	4	14.5	4	-1E+10	1	-1E+10	1	-1E+10	1	-1E+10	1	-1E+10	1	-1E+10	1
4902663	42	C	09/21/2024	20:19	-127.744	47.723	0	1895.20	0	2.0300	0	34.5820	0	27.645	0	1870.862	0	48.7	4	14.7	4	-1E+10	1	-1E+10	1	-1E+10	1	-1E+10	1	-1E+10	1	-1E+10	1
4902663	42	C	09/21/2024	20:19	-127.744	47.723	0	1905.30	0	2.0210	0	34.5830	0	27.646	0	1880.788	0	49.1	4	14.8	4	-1E+10	1	-1E+10	1	-1E+10	1	-1E+10	1	-1E+10	1	-1E+10	1
4902663	42	C	09/21/2024	20:19	-127.744	47.723	0	1915.50	0	2.0100	0	34.5840	0	27.648	0	1890.811	0	49.7	4	15.0	4	-1E+10	1	-1E+10	1	-1E+10	1	-1E+10	1	-1E+10	1	-1E+10	1
4902663	42	C	09/21/2024	20:19	-127.744	47.723	0	1925.30	0	2.0000	0	34.5850	0	27.649	0	1900.441	0	50.1	4	15.1	4	-1E+10	1	-1E+10	1	-1E+10	1	-1E+10	1	-1E+10	1	-1E+10	1
4902663	42	C	09/21/2024	20:19	-127.744	47.723	0	1935.10	0	1.9930	0	34.5860	0	27.651	0	1910.070	0	50.6	4	15.3	4	-1E+10	1	-1E+10	1	-1E+10	1	-1E+10	1	-1E+10	1	-1E+10	1
4902663	42	C	09/21/2024	20:19	-127.744	47.723	0	1945.30	0	1.9820	0	34.5870	0	27.652	0	1920.093	0	51.2	4	15.4	4	-1E+10	1	-1E+10	1	-1E+10	1	-1E+10	1	-1E+10	1	-1E+10	1
4902663	42	C	09/21/2024	20:19	-127.744	47.723	0	1955.60	0	1.9730	0	34.5890	0	27.655	0	1930.212	0	51.8	4	15.6	4	-1E+10	1	-1E+10	1	-1E+10	1	-1E+10	1	-1E+10	1	-1E+10	1
4902663	42	C	09/21/2024	20:19	-127.744	47.723	0	1965.40	0	1.9630	0	34.5900	0	27.656	0	1939.841	0	52.3	4	15.8	4	-1E+10	1	-1E+10	1	-1E+10	1	-1E+10	1	-1E+10	1	-1E+10	1
4902663	42	C	09/21/2024	20:19	-127.744	47.723	0	1975.20	0	1.9570	0	34.5920	0	27.659	0	1949.468	0	52.8	4	15.9	4	-1E+10	1	-1E+10	1	-1E+10	1	-1E+10	1	-1E+10	1	-1E+10	1
4902663	42	C	09/21/2024	20:19	-127.744	47.723	0	1985.70	0	1.9490	0	34.5930	0	27.660	0	1959.783	0	52.9	4	15.9	4	-1E+10	1	-1E+10	1	-1E+10	1	-1E+10	1	-1E+10	1	-1E+10	1
4902663	42	C	09/21/2024	20:19	-127.744	47.723	0	1991.40	0	1.9430	0	34.5940	0	27.661	0	1965.383	0	52.4	4	15.8	4	-1E+10	1	-1E+10	1	-1E+10	1	-1E+10	1	-1E+10	1	-1E+10	1
4902663	42	C	09/21/2024	20:19	-127.744	47.723	0																										
4902663	43	C	10/01/2024	15:17	-127.675	47.526	0	0.10	0	14.5420	8	32.1000	8	23.835	0	0.099	0	244.9	4	96.0	4	-1E+10	1	-1E+10	1	-1E+10	1	-1E+10	1	-1E+10	1	-1E+10	1
4902663	43	C	10/01/2024	15:17	-127.675	47.526	0	0.20	0	14.5420	0	32.1190	0	23.850	0	0.198	0	243.9	4	95.6	4	-1E+10	1	-1E+10	1	-1E+10	1	-1E+10	1	-1E+10	1	-1E+10	1
4902663	43	C	10/01/2024	15:17	-127.675	47.526	0	1.00	0	14.5440	0	32.1140	0	23.846	0	0.992	0	243.7	4	95.5	4	-1E+10	1	-1E+10	1	-1E+10	1	-1E+10	1	-1E+10	1	-1E+10	1
4902663	43	C	10/01/2024	15:17	-127.675	47.526	0	1.90	0	14.5430	0	32.1190	0	23.850	0	1.884	0	243.6	4	95.5	4	-1E+10	1	-1E+10	1	-1E+10	1	-1E+10	1	-1E+10	1	-1E+10	1
4902663	43	C	10/01/2024	15:17	-127.675	47.526	0	3.00	0	14.5420	0	32.1210	0	23.851	0	2.975	0	243.4	4	95.4	4	-1E+10	1	-1E+10	1	-1E+10	1	-1E+10	1	-1E+10	1	-1E+10	1
4902663	43	C	10/01/2024	15:17	-127.675	47.526	0	4.10	0	14.5400	0	32.1230	0	23.853	0	4.066	0	243.3	4	95.4	4	-1E+10	1	-1E+10	1	-1E+10	1	-1E+10	1	-1E+10	1	-1E+10	1
4902663	43	C	10/01/2024	15:17	-127.675	47.526	0	4.90	0	14.5430	0	32.1240	0	23.854	0	4.859	0	243.2	4	95.3	4	-1E+10	1	-1E+10	1	-1E+10	1	-1E+10	1	-1E+10	1	-1E+10	1
4902663	43	C	10/01/2024	15:17	-127.675	47.526	0	5.70	0	14.5510	0	32.1250	0	23.853	0	5.652	0	243.1	4	95.3	4	-1E+10	1	-1E+10	1	-1E+10	1	-1E+10	1	-1E+10	1	-1E+10	1
4902663	43	C	10/01/2024	15:17	-127.675	47.526	0	6.90	0	14.5510	0	32.1250	0	23.853	0	6.842	0	242.9	4	95.2	4	-1E+10	1	-1E+10	1	-1E+10	1	-1E+10	1	-1E+10	1	-1E+10	1
4902663	43	C	10/01/2024	15:17	-127.675	47.526	0	8.30	0	14.5570	0	32.1230	0	23.850	0	8.231	0	242.6	4	95.1	4	-1E+10	1	-1E+10	1	-1E+10	1	-1E+10	1	-1E+10	1	-1E+10	1
4902663	43	C	10/01/2024	15:17	-127.675	47.526	0	9.30	0	14.5570	0	32.1250	0	23.852	0	9.222	0	242.5	4	95.1	4	-1E+10	1	-1E+10	1	-1E+10	1	-1E+10	1	-1E+10	1	-1E+10	1
4902663	43	C	10/01/2024	15:17	-127.675	47.526	0	10.20	0	14.5530	0	32.1250	0	23.852	0	10.115	0	242.3	4	95.0	4	-1E+10	1	-1E+10	1	-1E+10	1	-1E+10	1	-1E+10	1	-1E+10	1
4902663	43	C	10/01/2024	15:17	-127.675	47.526	0	11.10	0	14.5490	0	32.1250	0	23.853	0	11.007	0	242.1	4	94.9	4	-1E+10	1	-1E+10	1	-1E+10	1	-1E+10	1	-1E+10	1	-1E+10	1
4902663	43	C	10/01/2024	15:17	-127.675	47.526	0	12.00	0	14.5480	0	32.1270	0	23.855	0	11.899	0	241.9	4	94.8	4	-1E+10	1	-1E+10	1	-1E+10	1	-1E+10	1	-1E+10	1	-1E+10	1
4902663	43	C	10/01/2024	15:17	-127.675	47.526	0	12.90	0	14.5360	0	32.1260	0	23.857	0	12.792	0	241.5	4	94.7	4	-1E+10	1	-1E+10	1	-1E+10	1	-1E+10	1	-1E+10	1	-1E+10	1
4902663	43	C	10/01/2024	15:17	-127.675	47.526	0	13.80	0	14.5240	0	32.1270	0	23.860	0	13.684	0	241.3	4	94.5	4	-1E+10	1	-1E+10	1	-1E+10	1	-1E+10	1	-1E+10	1	-1E+10	1
4902663	43	C	10/01/2024	15:17	-127.675	47.526	0	14.70	0	14.5080	0	32.1260	0	23.863	0	14.577	0	240.9	4	94.4	4	-1E+10	1	-1E+10	1	-1E+10	1	-1E+10	1	-1E+10	1	-1E+10	1
4902663	43	C	10/01/2024	15:17	-127.675	47.526	0	15.70	0	14.4470	0	32.1340	0	23.882	0	15.568	0	240.5	4	94.1	4	-1E+10	1	-1E+10	1	-1E+10	1	-1E+10	1	-1E+10	1	-1E+10	1
4902663	43	C	10/01/2024	15:17	-127.675	47.526	0	16.60	0	14.3490	0	32.1300	0	23.899	0	16.461	0	240.1	4	93.8	4	-1E+10	1	-1E+10	1	-1E+10	1	-1E+10	1	-1E+10	1	-1E+10	1
4902663	43	C	10/01/2024	15:17	-127.675	47.526	0	17.60	0	14.3410	0	32.1290	0	23.900	0	17.452	0	239.6	4	93.6	4	-1E+10	1	-1E+10	1	-1E+10	1	-1E+10	1	-1E+10	1	-1E+10	1
4902663	43	C	10/01/2024	15:17	-127.675	47.526	0	18.60	0	14.3210	0	32.1290	0	23.904	0	18.444	0	239.4	4	93.5	4	-1E+10	1	-1E+10	1	-1E+10	1	-1E+10	1	-1E+10	1	-1E+10	1
4902663	43	C	10/01/2024	15:17	-127.675	47.526	0	19.60	0	14.3040	0	32.1290	0	23.908	0	19.435	0	239.2	4	93.3	4	-1E+10	1	-1E+10	1	-1E+10	1	-1E+10	1	-1E+10	1	-1E+10	1
4902663	43	C	10/01/2024	15:17	-127.675	47.526	0	20.90	0	14.2450	0	32.1330	0	23.923	0	20.724	0	238.7	4	93.0	4	-1E+10	1	-1E+10	1	-1E+10	1	-1E+10	1	-1E+10	1	-1E+10	1
4902663	43	C	10/01/2024	15:17	-127.675	47.526	0	22.80	0	14.2110	0	32.1310	0	23.929	0	22.608	0	237.5	4	92.5	4	-1E+10	1	-1E+10	1	-1E+10	1	-1E+10	1	-1E+10	1	-1E+10	1
4902663	43	C	10/01/2024	15:17	-127.675	47.526	0	23.80	0	14.2020	0	32.1300	0	23.930	0	23.600	0	236.6	4	92.2	4	-1E+10	1	-1E+10	1	-1E+10	1	-1E+10	1	-1E+10	1	-1E+10	1
4902663	43	C	10/01/2024	15:17	-127.675	47.526	0	24.80	0	14.1630	0	32.1330	0	23.940	0	24.591	0	235.9	4	91.8	4	-1E+10	1	-1E+10	1	-1E+10	1	-1E+10	1	-1E+10	1	-1E+10	1
4902663	43	C	10/01/2024	15:17	-127.675	47.526	0	25.90	0	14.1140	0	32.1300	0	23.948	0	25.682	0	235.2	4	91.4	4	-1E+10	1	-1E+10	1	-1E+10	1	-1E+10	1	-1E+10	1	-1E+10	1
4902663	43	C	10/01/2024	15:17	-127.675	47.526	0	26.90	0	13.9990	0	32.1370	0	23.977	0	26.674	0	234.3	4	90.9	4	-1E+10	1	-1E+10	1	-1E+10	1	-1E+10	1	-1E+10	1	-1E+10	1
4902663	43	C	10/01/2024	15:17	-127.675	47.526	0	28.10	0	13.7000	0	32.1480	0	24.047	0	27.864	0	234.4	4	90.4	4	-1E+10	1	-1E+10	1	-1E+10	1	-1E+10	1	-1E+10	1	-1E+10	1
4902663	43	C	10/01/2024	15:17	-127.675	47.526	0	28.90	0	13.6140	0	32.1560	0	24.070	0	28.657	0	234.1	4	90.1	4	-1E+10	1	-1E+10	1	-1E+10	1	-1E+10	1	-1E+10	1	-1E+10	1
4902663	43	C	10/01/2024	15:17	-127.675	47.526	0	29.70	0	13.5800	0	32.1530	0	24.075	0	29.450	0	233.9	4	89.9	4	-1E+10	1	-1E+10	1	-1E+10	1	-1E+10	1	-1E+10	1	-1E+10	1
4902663	43	C	10/01/2024	15:17	-127.675	47.526	0	30.90	0	13.4340	0	32.1640	0	24.112	0	30.640	0	233.4	4	89.5	4	-1E+10	1	-1E+10	1	-1E+10	1	-1E+10	1	-1E+10	1	-1E+10	1
4902663	43	C	10/01/2024	15:17	-127.675	47.526	0	32.10	0	13.2570	0	32.1730	0	24.155	0	31.830	0	232.9	4	89.0	4	-1E+10	1	-1E+10	1	-1E+10	1	-1E+10	1	-1E+10	1	-1E+10	1
4902663	43	C	10/01/2024	15:17	-127.675	47.526	0	33.00	0	13.1420	0	32.1710	0	24.176	0	32.722	0	232.5	4	88.6	4	-1E+10	1	-1E+10	1	-1E+10	1	-1E+10	1	-1E+10	1	-1E+10	1
4902663	43	C	10/01/2024	15:17	-127.675	47.526	0	33.80	0	12.8590	0	32.1960	0	24.250	0	33.515	0	232.1	4	88.0	4	-1E+10	1	-1E+10	1	-1E+10	1	-1E+10	1	-1E+10	1	-1E+10	1
4902663	43	C	10/01/2024	15:17	-127.675	47.526	0	34.70	0	12.8270	0	32.1800	0	24.244	0	34.407	0	231.6	4	87.7	4	-1E+10	1	-1E+10	1	-1E+10	1	-1E+10	1	-1E+10	1	-1E+10	1
4902663	43	C	10/01/2024	15:17	-127.675	47.526	0	36.00	0	12.7540	0	32.1920	0	24.268	0	35.696	0	230.4	4	87.1	4	-1E+10	1	-1E+10	1	-1E+10	1	-1E+10	1	-1E+10	1	-1E+10	1
4902663	43	C	10/01/2024	15:17	-127.675	47.526	0	37.20	0	12.6590	0	32.1810	0	24.277	0	36.886	0	229.1	4	86.5	4	-1E+10	1	-1E+10	1	-1E+10	1	-1E+10	1	-1E+10	1	-1E+10	1
4902663	43	C	10/01/2024	15:17	-127.675	47.526	0	38.00	0	12.4210	0	32.2120	0	24.347	0	37.679	0	228.5	4	85.9	4	-1E+10	1	-1E+10	1	-1E+10	1	-1E+10	1	-1E+10	1	-1E+10	1
4902663	43	C	10/01/2024	15:17	-127.675	47.526	0	38.80	0	12.1650	0	32.2170	0	24.399	0	38.472	0	228.1	4	85.3	4	-1E+10	1	-1E+10	1	-1E+10	1	-1E+10	1	-1E+10	1	-1E+10	1
4902663	43	C	10/01/2024	15:17	-127.675	47.526	0	39.80	0	11.9590	0	32.2180	0	24.438	0	39.464	0	227.0	4	84.5	4	-1E+10	1	-1E+10	1	-1E+10	1	-1E+10	1	-1E+10	1	-1E+10	1
4902663	43	C	10/01/2024	15:17	-127.675	47.526	0	41.10	0	11.3380	0	32.2510	0	24.577	0	40.753	0	225.8	4	83.0	4	-1E+10	1	-1E+10	1	-1E+10	1	-1E+10	1	-1E+10	1	-1E+10	1
4902663	43	C	10/01/2024	15:17	-127.675	47.526	0	42.10	0	10.6820	0	32.2960	0	24.727	0	41.744	0	225.8	4	81.8	4	-1E+10	1	-1E+10	1	-1E+10	1	-1E+10	1	-1E+10	1	-1E+10	1
4902663	43	C	10/01/2024	15:17	-127.675	47.526	0	43.00	0	10.3830	0	32.3000	0	24.781	0	42.637	0	225.5	4	81.2	4	-1E+10	1	-1E+10	1	-1E+10	1	-1E+10	1	-1E+10	1	-1E+10	1
4902663	43	C	10/01/2024	15:17	-127.675	47.526	0	44.10	0	10.1430	0	32.3080	0	24.828	0	43.727	0	225.3	4	80.7	4	-1E+10	1	-1E+10	1	-1E+10	1	-1E+10	1	-1E+10	1	-1E+10	1
4902663	43	C	10/01/2024	15:17	-127.675	47.526	0	45.10	0	9.7410	0	32.3430	0	24.922	0	44.719	0	225.7	4	80.2	4	-1E+10	1	-1E+10	1	-1E+10	1	-1E+10	1	-1E+10	1	-1E+10	1
4902663	43	C	10/01/2024	15:17	-127.675	47.526	0	45.80	0	9.5690	0	32.3480	0	24.953	0	45.413	0	226.0	4	80.0	4	-1E+10	1	-1E+10	1	-1E+10	1	-1E+10	1	-1E+10	1	-1E+10	1
4902663	43	C	10/01/2024	15:17	-127.675	47.526	0	46.80	0	9.3550	0	32.3740	0	25.008	0	46.404	0	226.7	4	79.9	4	-1E+10	1	-1E+10	1	-1E+10	1	-1E+10	1	-1E+10	1	-1E+10	1
4902663	43	C	10/01/2024	15:17	-127.675	47.526	0	47.90	0	9.2180	0	32.3910	0	25.043	0	47.495	0	227.1	4	79.8	4	-1E+10	1	-1E+10	1	-1E+10	1	-1E+10	1	-1E+10	1	-1E+10	1
4902663	43	C	10/01/2024	15:17	-127.675	47.526	0	48.70	0	9.1920	0	32.4030	0	25.056	0	48.288	0	226.7	4	79.6	4	-1E+10	1	-1E+10	1	-1E+10	1	-1E+10	1	-1E+10	1	-1E+10	1
4902663	43	C	10/01/2024	15:17	-127.675	47.526	0	49.90	0	9.1910	0	32.4040	0	25.057	0	49.477	0	225.5	4	79.2	4	-1E+10	1	-1E+10	1	-1E+10	1	-1E+10	1	-1E+10	1	-1E+10	1
4902663	43	C	10/01/2024	15:17	-127.675	47.526	0	51.20	0	9.1620	0	32.4140	0	25.070	0	50.766	0	224.1	4	78.7	4	-1E+10	1	-1E+10	1	-1E+10	1	-1E+10	1	-1E+10	1	-1E+10	1
4902663	43	C	10/01/2024	15:17	-127.675	47.526	0	52.10	0	9.1050	0	32.4280	0	25.089	0	51.659	0	223.0	4	78.2	4	-1E+10	1	-1E+10	1	-1E+10	1	-1E+10	1	-1E+10	1	-1E+10	1
4902663	43	C	10/01/2024	15:17	-127.675	47.526	0	52.90	0	9.0580	0	32.4350	0	25.102	0	52.452	0	221.5	4	77.6	4	-1E+10	1	-1E+10	1	-1E+10	1	-1E+10	1	-1E+10	1	-1E+10	1
4902663	43	C	10/01/2024	15:17	-127.675	47.526	0	53.80	0	9.0320	0	32.4410	0	25.111	0	53.344	0	220.3	4	77.1	4	-1E+10	1	-1E+10	1	-1E+10	1	-1E+10	1	-1E+10	1	-1E+10	1
4902663	43	C	10/01/2024	15:17	-127.675	47.526	0	54.80	0	8.9750	0	32.4580	0	25.133	0	54.335	0	219.3	4	76.7	4	-1E+10	1	-1E+10	1	-1E+10	1	-1E+10	1	-1E+10	1	-1E+10	1
4902663	43	C	10/01/2024	15:17	-127.675	47.526	0	55.70	0	8.9620	0	32.4600	0	25.137	0	55.228	0	218.2	4	76.3	4	-1E+10	1	-1E+10	1	-1E+10	1	-1E+10	1	-1E+10	1	-1E+10	1
4902663	43	C	10/01/2024	15:17	-127.675	47.526	0	56.60	0	8.9630	0	32.4630	0	25.139	0	56.120	0	217.3	4	75.9	4	-1E+10	1	-1E+10	1	-1E+10	1	-1E+10	1	-1E+10	1	-1E+10	1
4902663	43	C	10/01/2024	15:17	-127.675	47.526	0	57.50	0	8.9440	0	32.4770	0	25.153	0	57.012	0	216.5	4	75.6	4	-1E+10	1	-1E+10	1	-1E+10	1	-1E+10	1	-1E+10	1	-1E+10	1
4902663	43	C	10/01/2024	15:17	-127.675	47.526	0	58.90	0	8.8790	0	32.4940	0	25.176	0	58.400	0	215.8	4	75.3	4	-1E+10	1	-1E+10	1	-1E+10	1	-1E+10	1	-1E+10	1	-1E+10	1
4902663	43	C	10/01/2024	15:17	-127.675	47.526	0	60.40	0	8.8200	0	32.5080	0	25.196	0	59.887	0	215.0	4	74.9	4	-1E+10	1	-1E+10	1	-1E+10	1	-1E+10	1	-1E+10	1	-1E+10	1
4902663	43	C	10/01/2024	15:17	-127.675	47.526	0	61.40	0	8.7330	0	32.5170	0	25.217	0	60.878	0	214.2	4	74.5	4	-1E+10	1	-1E+10	1	-1E+10	1	-1E+10	1	-1E+10	1	-1E+10	1
4902663	43	C	10/01/2024	15:17	-127.675	47.526	0	62.30	0	8.6970	0	32.5340	0	25.235	0	61.771	0	213.1	4	74.1	4	-1E+10	1	-1E+10	1	-1E+10	1	-1E+10	1	-1E+10	1	-1E+10	1
4902663	43	C	10/01/2024	15:17	-127.675	47.526	0	63.30	0	8.6740	0	32.5480	0	25.250	0	62.762	0	212.2	4	73.7	4	-1E+10	1	-1E+10	1	-1E+10	1	-1E+10	1	-1E+10	1	-1E+10	1
4902663	43	C	10/01/2024	15:17	-127.675	47.526	0	64.30	0	8.6120	0	32.5760	0	25.281	0	63.753	0	211.2	4	73.3	4	-1E+10	1	-1E+10	1	-1E+10	1	-1E+10	1	-1E+10	1	-1E+10	1
4902663	43	C	10/01/2024	15:17	-127.675	47.526	0	65.30	0	8.6050	0	32.5790	0	25.285	0	64.745	0	209.6	4	72.8	4	-1E+10	1	-1E+10	1	-1E+10	1	-1E+10	1	-1E+10	1	-1E+10	1
4902663	43	C	10/01/2024	15:17	-127.675	47.526	0	66.20	0	8.5850	0	32.5910	0	25.297	0	65.637	0	207.9	4	72.1	4	-1E+10	1	-1E+10	1	-1E+10	1	-1E+10	1	-1E+10	1	-1E+10	1
4902663	43	C	10/01/2024	15:17	-127.675	47.526	0	67.20	0	8.5800	0	32.5930	0	25.299	0	66.628	0	206.0	4	71.5	4	-1E+10	1	-1E+10	1	-1E+10	1	-1E+10	1	-1E+10	1	-1E+10	1
4902663	43	C	10/01/2024	15:17	-127.675	47.526	0	68.20	0	8.5690	0	32.5980	0	25.305	0	67.619	0	203.6	4	70.6	4	-1E+10	1	-1E+10	1	-1E+10	1	-1E+10	1	-1E+10	1	-1E+10	1
4902663	43	C	10/01/2024	15:17	-127.675	47.526	0	69.30	0	8.4990	0	32.6460	0	25.353	0	68.710	0	201.6	4	69.8	4	-1E+10	1	-1E+10	1	-1E+10	1	-1E+10	1	-1E+10	1	-1E+10	1
4902663	43	C	10/01/2024	15:17	-127.675	47.526	0	70.30	0	8.4340	0	32.6820	0	25.391	0	69.701	0	200.1	4	69.3	4	-1E+10	1	-1E+10	1	-1E+10	1	-1E+10	1	-1E+10	1	-1E+10	1
4902663	43	C	10/01/2024	15:17	-127.675	47.526	0	71.30	0	8.4140	0	32.6930	0	25.403	0	70.693	0	199.1	4	68.9	4	-1E+10	1	-1E+10	1	-1E+10	1	-1E+10	1	-1E+10	1	-1E+10	1
4902663	43	C	10/01/2024	15:17	-127.675	47.526	0	72.30	0	8.4080	0	32.6960	0	25.406	0	71.684	0	197.7	4	68.4	4	-1E+10	1	-1E+10	1	-1E+10	1	-1E+10	1	-1E+10	1	-1E+10	1
4902663	43	C	10/01/2024	15:17	-127.675	47.526	0	73.30	0	8.3970	0	32.7070	0	25.416	0	72.675	0	195.9	4	67.8	4	-1E+10	1	-1E+10	1	-1E+10	1	-1E+10	1	-1E+10	1	-1E+10	1
4902663	43	C	10/01/2024	15:17	-127.675	47.526	0	74.40	0	8.3730	0	32.7300	0	25.438	0	73.766	0	194.4	4	67.2	4	-1E+10	1	-1E+10	1	-1E+10	1	-1E+10	1	-1E+10	1	-1E+10	1
4902663	43	C	10/01/2024	15:17	-127.675	47.526	0	75.40	0	8.3720	0	32.7410	0	25.447	0	74.757	0	192.7	4	66.6	4	-1E+10	1	-1E+10	1	-1E+10	1	-1E+10	1	-1E+10	1	-1E+10	1
4902663	43	C	10/01/2024	15:17	-127.675	47.526	0	76.40	0	8.3560	0	32.7510	0	25.457	0	75.748	0	191.2	4	66.1	4	-1E+10	1	-1E+10	1	-1E+10	1	-1E+10	1	-1E+10	1	-1E+10	1
4902663	43	C	10/01/2024	15:17	-127.675	47.526	0	77.40	0	8.3340	0	32.7640	0	25.470	0	76.739	0	189.7	4	65.5	4	-1E+10	1	-1E+10	1	-1E+10	1	-1E+10	1	-1E+10	1	-1E+10	1
4902663	43	C	10/01/2024	15:17	-127.675	47.526	0	78.40	0	8.3360	0	32.7690	0	25.474	0	77.731	0	188.0	4	65.0	4	-1E+10	1	-1E+10	1	-1E+10	1	-1E+10	1	-1E+10	1	-1E+10	1
4902663	43	C	10/01/2024	15:17	-127.675	47.526	0	79.30	0	8.3150	0	32.7890	0	25.493	0	78.623	0	186.5	4	64.4	4	-1E+10	1	-1E+10	1	-1E+10	1	-1E+10	1	-1E+10	1	-1E+10	1
4902663	43	C	10/01/2024	15:17	-127.675	47.526	0	80.20	0	8.2960	0	32.8090	0	25.511	0	79.515	0	184.8	4	63.8	4	-1E+10	1	-1E+10	1	-1E+10	1	-1E+10	1	-1E+10	1	-1E+10	1
4902663	43	C	10/01/2024	15:17	-127.675	47.526	0	81.10	0	8.2880	0	32.8140	0	25.517	0	80.407	0	182.3	4	62.9	4	-1E+10	1	-1E+10	1	-1E+10	1	-1E+10	1	-1E+10	1	-1E+10	1
4902663	43	C	10/01/2024	15:17	-127.675	47.526	0	82.00	0	8.2390	0	32.8610	0	25.561	0	81.299	0	178.8	4	61.7	4	-1E+10	1	-1E+10	1	-1E+10	1	-1E+10	1	-1E+10	1	-1E+10	1
4902663	43	C	10/01/2024	15:17	-127.675	47.526	0	83.10	0	8.1770	0	32.9260	0	25.621	0	82.390	0	179.9	4	62.0	4	-1E+10	1	-1E+10	1	-1E+10	1	-1E+10	1	-1E+10	1	-1E+10	1
4902663	43	C	10/01/2024	15:17	-127.675	47.526	0	83.80	0	8.1650	0	32.9410	0	25.634	0	83.084	0	177.5	4	61.2	4	-1E+10	1	-1E+10	1	-1E+10	1	-1E+10	1	-1E+10	1	-1E+10	1
4902663	43	C	10/01/2024	15:17	-127.675	47.526	0	84.80	0	8.1220	0	32.9990	0	25.686	0	84.075	0	174.2	4	60.0	4	-1E+10	1	-1E+10	1	-1E+10	1	-1E+10	1	-1E+10	1	-1E+10	1
4902663	43	C	10/01/2024	15:17	-127.675	47.526	0	85.90	0	8.0950	0	33.0420	0	25.724	0	85.165	0	171.0	4	58.9	4	-1E+10	1	-1E+10	1	-1E+10	1	-1E+10	1	-1E+10	1	-1E+10	1
4902663	43	C	10/01/2024	15:17	-127.675	47.526	0	87.00	0	8.0720	0	33.0950	0	25.769	0	86.256	0	168.5	4	58.0	4	-1E+10	1	-1E+10	1	-1E+10	1	-1E+10	1	-1E+10	1	-1E+10	1
4902663	43	C	10/01/2024	15:17	-127.675	47.526	0	88.20	0	8.0600	0	33.1180	0	25.789	0	87.445	0	166.4	4	57.3	4	-1E+10	1	-1E+10	1	-1E+10	1	-1E+10	1	-1E+10	1	-1E+10	1
4902663	43	C	10/01/2024	15:17	-127.675	47.526	0	89.00	0	8.0520	0	33.1320	0	25.801	0	88.238	0	164.8	4	56.7	4	-1E+10	1	-1E+10	1	-1E+10	1	-1E+10	1	-1E+10	1	-1E+10	1
4902663	43	C	10/01/2024	15:17	-127.675	47.526	0	89.80	0	8.0440	0	33.1490	0	25.815	0	89.031	0	163.2	4	56.2	4	-1E+10	1	-1E+10	1	-1E+10	1	-1E+10	1	-1E+10	1	-1E+10	1
4902663	43	C	10/01/2024	15:17	-127.675	47.526	0	90.60	0	8.0390	0	33.1610	0	25.826	0	89.824	0	161.7	4	55.6	4	-1E+10	1	-1E+10	1	-1E+10	1	-1E+10	1	-1E+10	1	-1E+10	1
4902663	43	C	10/01/2024	15:17	-127.675	47.526	0	91.90	0	8.0350	0	33.1820	0	25.843	0	91.112	0	159.7	4	55.0	4	-1E+10	1	-1E+10	1	-1E+10	1	-1E+10	1	-1E+10	1	-1E+10	1
4902663	43	C	10/01/2024	15:17	-127.675	47.526	0	93.10	0	8.0350	0	33.1890	0	25.848	0	92.302	0	157.7	4	54.3	4	-1E+10	1	-1E+10	1	-1E+10	1	-1E+10	1	-1E+10	1	-1E+10	1
4902663	43	C	10/01/2024	15:17	-127.675	47.526	0	93.90	0	8.0210	0	33.2130	0	25.869	0	93.095	0	156.1	4	53.7	4	-1E+10	1	-1E+10	1	-1E+10	1	-1E+10	1	-1E+10	1	-1E+10	1
4902663	43	C	10/01/2024	15:17	-127.675	47.526	0	94.70	0	7.9870	0	33.2620	0	25.913	0	93.888	0	154.7	4	53.2	4	-1E+10	1	-1E+10	1	-1E+10	1	-1E+10	1	-1E+10	1	-1E+10	1
4902663	43	C	10/01/2024	15:17	-127.675	47.526	0	95.90	0	7.9760	0	33.3010	0	25.945	0	95.077	0	153.4	4	52.8	4	-1E+10	1	-1E+10	1	-1E+10	1	-1E+10	1	-1E+10	1	-1E+10	1
4902663	43	C	10/01/2024	15:17	-127.675	47.526	0	97.20	0	7.9740	0	33.3110	0	25.953	0	96.366	0	151.7	4	52.2	4	-1E+10	1	-1E+10	1	-1E+10	1	-1E+10	1	-1E+10	1	-1E+10	1
4902663	43	C	10/01/2024	15:17	-127.675	47.526	0	98.00	0	7.9730	0	33.3140	0	25.955	0	97.159	0	150.2	4	51.7	4	-1E+10	1	-1E+10	1	-1E+10	1	-1E+10	1	-1E+10	1	-1E+10	1
4902663	43	C	10/01/2024	15:17	-127.675	47.526	0	98.90	0	7.9700	0	33.3180	0	25.959	0	98.051	0	148.5	4	51.1	4	-1E+10	1	-1E+10	1	-1E+10	1	-1E+10	1	-1E+10	1	-1E+10	1
4902663	43	C	10/01/2024	15:17	-127.675	47.526	0	99.70	0	7.9650	0	33.3350	0	25.973	0	98.844	0	146.6	4	50.4	4	-1E+10	1	-1E+10	1	-1E+10	1	-1E+10	1	-1E+10	1	-1E+10	1
4902663	43	C	10/01/2024	15:17	-127.675	47.526	0	100.60	0	7.9020	0	33.3940	0	26.029	0	99.736	0	144.8	4	49.8	4	-1E+10	1	-1E+10	1	-1E+10	1	-1E+10	1	-1E+10	1	-1E+10	1
4902663	43	C	10/01/2024	15:17	-127.675	47.526	0	101.90	0	7.9270	0	33.4220	0	26.047	0	101.024	0	142.3	4	48.9	4	-1E+10	1	-1E+10	1	-1E+10	1	-1E+10	1	-1E+10	1	-1E+10	1
4902663	43	C	10/01/2024	15:17	-127.675	47.526	0	103.30	0	7.9160	0	33.4500	0	26.071	0	102.412	0	140.3	4	48.3	4	-1E+10	1	-1E+10	1	-1E+10	1	-1E+10	1	-1E+10	1	-1E+10	1
4902663	43	C	10/01/2024	15:17	-127.675	47.526	0	104.20	0	7.8960	0	33.4620	0	26.083	0	103.304	0	139.1	4	47.8	4	-1E+10	1	-1E+10	1	-1E+10	1	-1E+10	1	-1E+10	1	-1E+10	1
4902663	43	C	10/01/2024	15:17	-127.675	47.526	0	105.10	0	7.8840	0	33.4980	0	26.113	0	104.196	0	137.7	4	47.3	4	-1E+10	1	-1E+10	1	-1E+10	1	-1E+10	1	-1E+10	1	-1E+10	1
4902663	43	C	10/01/2024	15:17	-127.675	47.526	0	106.10	0	7.8660	0	33.5210	0	26.134	0	105.187	0	136.2	4	46.8	4	-1E+10	1	-1E+10	1	-1E+10	1	-1E+10	1	-1E+10	1	-1E+10	1
4902663	43	C	10/01/2024	15:17	-127.675	47.526	0	107.00	0	7.8480	0	33.5340	0	26.147	0	106.079	0	135.0	4	46.4	4	-1E+10	1	-1E+10	1	-1E+10	1	-1E+10	1	-1E+10	1	-1E+10	1
4902663	43	C	10/01/2024	15:17	-127.675	47.526	0	108.00	0	7.8280	0	33.5530	0	26.164	0	107.070	0	133.8	4	46.0	4	-1E+10	1	-1E+10	1	-1E+10	1	-1E+10	1	-1E+10	1	-1E+10	1
4902663	43	C	10/01/2024	15:17	-127.675	47.526	0	109.00	0	7.8220	0	33.5610	0	26.172	0	108.061	0	132.9	4	45.7	4	-1E+10	1	-1E+10	1	-1E+10	1	-1E+10	1	-1E+10	1	-1E+10	1
4902663	43	C	10/01/2024	15:17	-127.675	47.526	0	109.90	0	7.7890	0	33.5720	0	26.185	0	108.954	0	132.1	4	45.3	4	-1E+10	1	-1E+10	1	-1E+10	1	-1E+10	1	-1E+10	1	-1E+10	1
4902663	43	C	10/01/2024	15:17	-127.675	47.526	0	110.90	0	7.7930	0	33.6000	0	26.206	0	109.945	0	131.4	4	45.1	4	-1E+10	1	-1E+10	1	-1E+10	1	-1E+10	1	-1E+10	1	-1E+10	1
4902663	43	C	10/01/2024	15:17	-127.675	47.526	0	111.90	0	7.8050	0	33.6200	0	26.220	0	110.936	0	131.0	4	45.0	4	-1E+10	1	-1E+10	1	-1E+10	1	-1E+10	1	-1E+10	1	-1E+10	1
4902663	43	C	10/01/2024	15:17	-127.675	47.526	0	112.90	0	7.7960	0	33.6320	0	26.231	0	111.927	0	130.4	4	44.8	4	-1E+10	1	-1E+10	1	-1E+10	1	-1E+10	1	-1E+10	1	-1E+10	1
4902663	43	C	10/01/2024	15:17	-127.675	47.526	0	114.00	0	7.7950	0	33.6400	0	26.238	0	113.017	0	129.8	4	44.6	4	-1E+10	1	-1E+10	1	-1E+10	1	-1E+10	1	-1E+10	1	-1E+10	1
4902663	43	C	10/01/2024	15:17	-127.675	47.526	0	115.00	0	7.7950	0	33.6440	0	26.241	0	114.008	0	129.3	4	44.4	4	-1E+10	1	-1E+10	1	-1E+10	1	-1E+10	1	-1E+10	1	-1E+10	1
4902663	43	C	10/01/2024	15:17	-127.675	47.526	0	116.00	0	7.7950	0	33.6450	0	26.242	0	114.999	0	128.6	4	44.2	4	-1E+10	1	-1E+10	1	-1E+10	1	-1E+10	1	-1E+10	1	-1E+10	1
4902663	43	C	10/01/2024	15:17	-127.675	47.526	0	117.00	0	7.7910	0	33.6550	0	26.250	0	115.990	0	127.9	4	43.9	4	-1E+10	1	-1E+10	1	-1E+10	1	-1E+10	1	-1E+10	1	-1E+10	1
4902663	43	C	10/01/2024	15:17	-127.675	47.526	0	118.00	0	7.7830	0	33.6760	0	26.268	0	116.981	0	127.4	4	43.8	4	-1E+10	1	-1E+10	1	-1E+10	1	-1E+10	1	-1E+10	1	-1E+10	1
4902663	43	C	10/01/2024	15:17	-127.675	47.526	0	119.00	0	7.7750	0	33.6870	0	26.277	0	117.973	0	126.9	4	43.6	4	-1E+10	1	-1E+10	1	-1E+10	1	-1E+10	1	-1E+10	1	-1E+10	1
4902663	43	C	10/01/2024	15:17	-127.675	47.526	0	119.90	0	7.7710	0	33.6960	0	26.285	0	118.864	0	126.5	4	43.5	4	-1E+10	1	-1E+10	1	-1E+10	1	-1E+10	1	-1E+10	1	-1E+10	1
4902663	43	C	10/01/2024	15:17	-127.675	47.526	0	120.90	0	7.7690	0	33.6990	0	26.288	0	119.856	0	126.1	4	43.3	4	-1E+10	1	-1E+10	1	-1E+10	1	-1E+10	1	-1E+10	1	-1E+10	1
4902663	43	C	10/01/2024	15:17	-127.675	47.526	0	121.80	0	7.7480	0	33.7120	0	26.301	0	120.748	0	125.6	4	43.1	4	-1E+10	1	-1E+10	1	-1E+10	1	-1E+10	1	-1E+10	1	-1E+10	1
4902663	43	C	10/01/2024	15:17	-127.675	47.526	0	122.90	0	7.7280	0	33.7170	0	26.308	0	121.838	0	125.0	4	42.9	4	-1E+10	1	-1E+10	1	-1E+10	1	-1E+10	1	-1E+10	1	-1E+10	1
4902663	43	C	10/01/2024	15:17	-127.675	47.526	0	124.00	0	7.6960	0	33.7280	0	26.321	0	122.928	0	124.1	4	42.6	4	-1E+10	1	-1E+10	1	-1E+10	1	-1E+10	1	-1E+10	1	-1E+10	1
4902663	43	C	10/01/2024	15:17	-127.675	47.526	0	125.10	0	7.6500	0	33.7460	0	26.342	0	124.018	0	123.2	4	42.2	4	-1E+10	1	-1E+10	1	-1E+10	1	-1E+10	1	-1E+10	1	-1E+10	1
4902663	43	C	10/01/2024	15:17	-127.675	47.526	0	125.90	0	7.6330	0	33.7570	0	26.353	0	124.811	0	122.8	4	42.1	4	-1E+10	1	-1E+10	1	-1E+10	1	-1E+10	1	-1E+10	1	-1E+10	1
4902663	43	C	10/01/2024	15:17	-127.675	47.526	0	127.00	0	7.6250	0	33.7620	0	26.358	0	125.901	0	122.3	4	41.9	4	-1E+10	1	-1E+10	1	-1E+10	1	-1E+10	1	-1E+10	1	-1E+10	1
4902663	43	C	10/01/2024	15:17	-127.675	47.526	0	128.20	0	7.6200	0	33.7660	0	26.362	0	127.090	0	121.7	4	41.7	4	-1E+10	1	-1E+10	1	-1E+10	1	-1E+10	1	-1E+10	1	-1E+10	1
4902663	43	C	10/01/2024	15:17	-127.675	47.526	0	128.90	0	7.6020	0	33.7740	0	26.371	0	127.784	0	121.4	4	41.6	4	-1E+10	1	-1E+10	1	-1E+10	1	-1E+10	1	-1E+10	1	-1E+10	1
4902663	43	C	10/01/2024	15:17	-127.675	47.526	0	129.70	0	7.5920	0	33.7780	0	26.375	0	128.577	0	121.0	4	41.4	4	-1E+10	1	-1E+10	1	-1E+10	1	-1E+10	1	-1E+10	1	-1E+10	1
4902663	43	C	10/01/2024	15:17	-127.675	47.526	0	130.90	0	7.5750	0	33.7850	0	26.383	0	129.766	0	120.6	4	41.3	4	-1E+10	1	-1E+10	1	-1E+10	1	-1E+10	1	-1E+10	1	-1E+10	1
4902663	43	C	10/01/2024	15:17	-127.675	47.526	0	132.10	0	7.5710	0	33.7890	0	26.387	0	130.955	0	120.3	4	41.2	4	-1E+10	1	-1E+10	1	-1E+10	1	-1E+10	1	-1E+10	1	-1E+10	1
4902663	43	C	10/01/2024	15:17	-127.675	47.526	0	132.90	0	7.5660	0	33.7910	0	26.389	0	131.748	0	120.1	4	41.1	4	-1E+10	1	-1E+10	1	-1E+10	1	-1E+10	1	-1E+10	1	-1E+10	1
4902663	43	C	10/01/2024	15:17	-127.675	47.526	0	133.70	0	7.5610	0	33.7930	0	26.392	0	132.541	0	120.0	4	41.1	4	-1E+10	1	-1E+10	1	-1E+10	1	-1E+10	1	-1E+10	1	-1E+10	1
4902663	43	C	10/01/2024	15:17	-127.675	47.526	0	134.90	0	7.5550	0	33.7970	0	26.396	0	133.730	0	120.0	4	41.0	4	-1E+10	1	-1E+10	1	-1E+10	1	-1E+10	1	-1E+10	1	-1E+10	1
4902663	43	C	10/01/2024	15:17	-127.675	47.526	0	136.20	0	7.5460	0	33.8030	0	26.402	0	135.018	0	120.1	4	41.1	4	-1E+10	1	-1E+10	1	-1E+10	1	-1E+10	1	-1E+10	1	-1E+10	1
4902663	43	C	10/01/2024	15:17	-127.675	47.526	0	137.10	0	7.5430	0	33.8040	0	26.403	0	135.910	0	120.3	4	41.2	4	-1E+10	1	-1E+10	1	-1E+10	1	-1E+10	1	-1E+10	1	-1E+10	1
4902663	43	C	10/01/2024	15:17	-127.675	47.526	0	138.00	0	7.5420	0	33.8040	0	26.403	0	136.802	0	120.5	4	41.2	4	-1E+10	1	-1E+10	1	-1E+10	1	-1E+10	1	-1E+10	1	-1E+10	1
4902663	43	C	10/01/2024	15:17	-127.675	47.526	0	138.80	0	7.5410	0	33.8040	0	26.403	0	137.595	0	120.8	4	41.3	4	-1E+10	1	-1E+10	1	-1E+10	1	-1E+10	1	-1E+10	1	-1E+10	1
4902663	43	C	10/01/2024	15:17	-127.675	47.526	0	139.70	0	7.5390	0	33.8040	0	26.404	0	138.487	0	121.1	4	41.4	4	-1E+10	1	-1E+10	1	-1E+10	1	-1E+10	1	-1E+10	1	-1E+10	1
4902663	43	C	10/01/2024	15:17	-127.675	47.526	0	140.90	0	7.5190	0	33.8050	0	26.407	0	139.676	0	121.7	4	41.6	4	-1E+10	1	-1E+10	1	-1E+10	1	-1E+10	1	-1E+10	1	-1E+10	1
4902663	43	C	10/01/2024	15:17	-127.675	47.526	0	142.20	0	7.4740	0	33.8110	0	26.418	0	140.964	0	122.3	4	41.8	4	-1E+10	1	-1E+10	1	-1E+10	1	-1E+10	1	-1E+10	1	-1E+10	1
4902663	43	C	10/01/2024	15:17	-127.675	47.526	0	143.10	0	7.4400	0	33.8120	0	26.424	0	141.856	0	122.7	4	41.9	4	-1E+10	1	-1E+10	1	-1E+10	1	-1E+10	1	-1E+10	1	-1E+10	1
4902663	43	C	10/01/2024	15:17	-127.675	47.526	0	144.00	0	7.4250	0	33.8140	0	26.428	0	142.748	0	123.2	4	42.0	4	-1E+10	1	-1E+10	1	-1E+10	1	-1E+10	1	-1E+10	1	-1E+10	1
4902663	43	C	10/01/2024	15:17	-127.675	47.526	0	144.90	0	7.4130	0	33.8130	0	26.429	0	143.640	0	123.6	4	42.2	4	-1E+10	1	-1E+10	1	-1E+10	1	-1E+10	1	-1E+10	1	-1E+10	1
4902663	43	C	10/01/2024	15:17	-127.675	47.526	0	145.80	0	7.4030	0	33.8140	0	26.431	0	144.532	0	124.1	4	42.3	4	-1E+10	1	-1E+10	1	-1E+10	1	-1E+10	1	-1E+10	1	-1E+10	1
4902663	43	C	10/01/2024	15:17	-127.675	47.526	0	146.70	0	7.3870	0	33.8130	0	26.432	0	145.424	0	124.5	4	42.4	4	-1E+10	1	-1E+10	1	-1E+10	1	-1E+10	1	-1E+10	1	-1E+10	1
4902663	43	C	10/01/2024	15:17	-127.675	47.526	0	148.00	0	7.3670	0	33.8130	0	26.435	0	146.712	0	125.0	4	42.6	4	-1E+10	1	-1E+10	1	-1E+10	1	-1E+10	1	-1E+10	1	-1E+10	1
4902663	43	C	10/01/2024	15:17	-127.675	47.526	0	149.40	0	7.3310	0	33.8070	0	26.435	0	148.099	0	125.1	4	42.6	4	-1E+10	1	-1E+10	1	-1E+10	1	-1E+10	1	-1E+10	1	-1E+10	1
4902663	43	C	10/01/2024	15:17	-127.675	47.526	0	150.30	0	7.3060	0	33.8080	0	26.440	0	148.991	0	124.9	4	42.5	4	-1E+10	1	-1E+10	1	-1E+10	1	-1E+10	1	-1E+10	1	-1E+10	1
4902663	43	C	10/01/2024	15:17	-127.675	47.526	0	151.20	0	7.3030	0	33.8080	0	26.440	0	149.883	0	124.6	4	42.4	4	-1E+10	1	-1E+10	1	-1E+10	1	-1E+10	1	-1E+10	1	-1E+10	1
4902663	43	C	10/01/2024	15:17	-127.675	47.526	0	152.10	0	7.2890	0	33.8090	0	26.443	0	150.775	0	124.3	4	42.3	4	-1E+10	1	-1E+10	1	-1E+10	1	-1E+10	1	-1E+10	1	-1E+10	1
4902663	43	C	10/01/2024	15:17	-127.675	47.526	0	153.00	0	7.2620	0	33.8090	0	26.447	0	151.666	0	123.8	4	42.1	4	-1E+10	1	-1E+10	1	-1E+10	1	-1E+10	1	-1E+10	1	-1E+10	1
4902663	43	C	10/01/2024	15:17	-127.675	47.526	0	153.90	0	7.2240	0	33.8140	0	26.456	0	152.558	0	123.3	4	41.9	4	-1E+10	1	-1E+10	1	-1E+10	1	-1E+10	1	-1E+10	1	-1E+10	1
4902663	43	C	10/01/2024	15:17	-127.675	47.526	0	154.80	0	7.1940	0	33.8090	0	26.456	0	153.450	0	122.7	4	41.6	4	-1E+10	1	-1E+10	1	-1E+10	1	-1E+10	1	-1E+10	1	-1E+10	1
4902663	43	C	10/01/2024	15:17	-127.675	47.526	0	155.70	0	7.1910	0	33.8110	0	26.458	0	154.342	0	122.0	4	41.4	4	-1E+10	1	-1E+10	1	-1E+10	1	-1E+10	1	-1E+10	1	-1E+10	1
4902663	43	C	10/01/2024	15:17	-127.675	47.526	0	156.60	0	7.1620	0	33.8280	0	26.476	0	155.234	0	121.3	4	41.1	4	-1E+10	1	-1E+10	1	-1E+10	1	-1E+10	1	-1E+10	1	-1E+10	1
4902663	43	C	10/01/2024	15:17	-127.675	47.526	0	157.90	0	7.1390	0	33.8220	0	26.474	0	156.522	0	120.2	4	40.7	4	-1E+10	1	-1E+10	1	-1E+10	1	-1E+10	1	-1E+10	1	-1E+10	1
4902663	43	C	10/01/2024	15:17	-127.675	47.526	0	159.30	0	7.1430	0	33.8280	0	26.478	0	157.909	0	119.2	4	40.4	4	-1E+10	1	-1E+10	1	-1E+10	1	-1E+10	1	-1E+10	1	-1E+10	1
4902663	43	C	10/01/2024	15:17	-127.675	47.526	0	160.20	0	7.1510	0	33.8310	0	26.479	0	158.801	0	118.6	4	40.2	4	-1E+10	1	-1E+10	1	-1E+10	1	-1E+10	1	-1E+10	1	-1E+10	1
4902663	43	C	10/01/2024	15:17	-127.675	47.526	0	161.10	0	7.1590	0	33.8330	0	26.480	0	159.693	0	118.2	4	40.1	4	-1E+10	1	-1E+10	1	-1E+10	1	-1E+10	1	-1E+10	1	-1E+10	1
4902663	43	C	10/01/2024	15:17	-127.675	47.526	0	162.10	0	7.1600	0	33.8340	0	26.481	0	160.684	0	117.6	4	39.9	4	-1E+10	1	-1E+10	1	-1E+10	1	-1E+10	1	-1E+10	1	-1E+10	1
4902663	43	C	10/01/2024	15:17	-127.675	47.526	0	163.00	0	7.1600	0	33.8410	0	26.486	0	161.575	0	117.3	4	39.8	4	-1E+10	1	-1E+10	1	-1E+10	1	-1E+10	1	-1E+10	1	-1E+10	1
4902663	43	C	10/01/2024	15:17	-127.675	47.526	0	163.90	0	7.1480	0	33.8400	0	26.487	0	162.467	0	117.0	4	39.7	4	-1E+10	1	-1E+10	1	-1E+10	1	-1E+10	1	-1E+10	1	-1E+10	1
4902663	43	C	10/01/2024	15:17	-127.675	47.526	0	164.80	0	7.1600	0	33.8460	0	26.490	0	163.359	0	116.9	4	39.7	4	-1E+10	1	-1E+10	1	-1E+10	1	-1E+10	1	-1E+10	1	-1E+10	1
4902663	43	C	10/01/2024	15:17	-127.675	47.526	0	165.70	0	7.1570	0	33.8460	0	26.490	0	164.251	0	117.0	4	39.7	4	-1E+10	1	-1E+10	1	-1E+10	1	-1E+10	1	-1E+10	1	-1E+10	1
4902663	43	C	10/01/2024	15:17	-127.675	47.526	0	166.70	0	7.1570	0	33.8460	0	26.491	0	165.242	0	117.1	4	39.7	4	-1E+10	1	-1E+10	1	-1E+10	1	-1E+10	1	-1E+10	1	-1E+10	1
4902663	43	C	10/01/2024	15:17	-127.675	47.526	0	167.60	0	7.1460	0	33.8480	0	26.494	0	166.133	0	117.2	4	39.7	4	-1E+10	1	-1E+10	1	-1E+10	1	-1E+10	1	-1E+10	1	-1E+10	1
4902663	43	C	10/01/2024	15:17	-127.675	47.526	0	168.50	0	7.1100	0	33.8490	0	26.499	0	167.025	0	117.3	4	39.7	4	-1E+10	1	-1E+10	1	-1E+10	1	-1E+10	1	-1E+10	1	-1E+10	1
4902663	43	C	10/01/2024	15:17	-127.675	47.526	0	169.90	0	7.0940	0	33.8490	0	26.502	0	168.412	0	117.6	4	39.8	4	-1E+10	1	-1E+10	1	-1E+10	1	-1E+10	1	-1E+10	1	-1E+10	1
4902663	43	C	10/01/2024	15:17	-127.675	47.526	0	171.30	0	7.0400	0	33.8500	0	26.510	0	169.799	0	118.0	4	39.9	4	-1E+10	1	-1E+10	1	-1E+10	1	-1E+10	1	-1E+10	1	-1E+10	1
4902663	43	C	10/01/2024	15:17	-127.675	47.526	0	172.30	0	7.0270	0	33.8490	0	26.511	0	170.790	0	118.1	4	39.9	4	-1E+10	1	-1E+10	1	-1E+10	1	-1E+10	1	-1E+10	1	-1E+10	1
4902663	43	C	10/01/2024	15:17	-127.675	47.526	0	173.20	0	7.0300	0	33.8500	0	26.511	0	171.682	0	118.3	4	40.0	4	-1E+10	1	-1E+10	1	-1E+10	1	-1E+10	1	-1E+10	1	-1E+10	1
4902663	43	C	10/01/2024	15:17	-127.675	47.526	0	174.20	0	7.0240	0	33.8530	0	26.514	0	172.673	0	118.6	4	40.1	4	-1E+10	1	-1E+10	1	-1E+10	1	-1E+10	1	-1E+10	1	-1E+10	1
4902663	43	C	10/01/2024	15:17	-127.675	47.526	0	175.10	0	7.0140	0	33.8510	0	26.514	0	173.565	0	119.0	4	40.2	4	-1E+10	1	-1E+10	1	-1E+10	1	-1E+10	1	-1E+10	1	-1E+10	1
4902663	43	C	10/01/2024	15:17	-127.675	47.526	0	176.10	0	6.9690	0	33.8520	0	26.521	0	174.555	0	119.3	4	40.3	4	-1E+10	1	-1E+10	1	-1E+10	1	-1E+10	1	-1E+10	1	-1E+10	1
4902663	43	C	10/01/2024	15:17	-127.675	47.526	0	177.00	0	6.9790	0	33.8470	0	26.516	0	175.447	0	119.5	4	40.4	4	-1E+10	1	-1E+10	1	-1E+10	1	-1E+10	1	-1E+10	1	-1E+10	1
4902663	43	C	10/01/2024	15:17	-127.675	47.526	0	177.90	0	6.9670	0	33.8510	0	26.521	0	176.339	0	119.9	4	40.5	4	-1E+10	1	-1E+10	1	-1E+10	1	-1E+10	1	-1E+10	1	-1E+10	1
4902663	43	C	10/01/2024	15:17	-127.675	47.526	0	178.90	0	6.9340	0	33.8480	0	26.523	0	177.330	0	120.3	4	40.6	4	-1E+10	1	-1E+10	1	-1E+10	1	-1E+10	1	-1E+10	1	-1E+10	1
4902663	43	C	10/01/2024	15:17	-127.675	47.526	0	179.80	0	6.9320	0	33.8500	0	26.525	0	178.221	0	120.7	4	40.7	4	-1E+10	1	-1E+10	1	-1E+10	1	-1E+10	1	-1E+10	1	-1E+10	1
4902663	43	C	10/01/2024	15:17	-127.675	47.526	0	180.70	0	6.9030	0	33.8460	0	26.525	0	179.113	0	121.2	4	40.9	4	-1E+10	1	-1E+10	1	-1E+10	1	-1E+10	1	-1E+10	1	-1E+10	1
4902663	43	C	10/01/2024	15:17	-127.675	47.526	0	181.70	0	6.8660	0	33.8470	0	26.531	0	180.104	0	121.6	4	40.9	4	-1E+10	1	-1E+10	1	-1E+10	1	-1E+10	1	-1E+10	1	-1E+10	1
4902663	43	C	10/01/2024	15:17	-127.675	47.526	0	182.60	0	6.8290	0	33.8460	0	26.535	0	180.996	0	121.8	4	41.0	4	-1E+10	1	-1E+10	1	-1E+10	1	-1E+10	1	-1E+10	1	-1E+10	1
4902663	43	C	10/01/2024	15:17	-127.675	47.526	0	183.60	0	6.7650	0	33.8350	0	26.535	0	181.986	0	121.7	4	40.9	4	-1E+10	1	-1E+10	1	-1E+10	1	-1E+10	1	-1E+10	1	-1E+10	1
4902663	43	C	10/01/2024	15:17	-127.675	47.526	0	184.90	0	6.7100	0	33.8320	0	26.540	0	183.274	0	120.8	4	40.6	4	-1E+10	1	-1E+10	1	-1E+10	1	-1E+10	1	-1E+10	1	-1E+10	1
4902663	43	C	10/01/2024	15:17	-127.675	47.526	0	186.40	0	6.7040	0	33.8330	0	26.542	0	184.760	0	119.7	4	40.2	4	-1E+10	1	-1E+10	1	-1E+10	1	-1E+10	1	-1E+10	1	-1E+10	1
4902663	43	C	10/01/2024	15:17	-127.675	47.526	0	187.30	0	6.6950	0	33.8400	0	26.549	0	185.652	0	118.9	4	39.9	4	-1E+10	1	-1E+10	1	-1E+10	1	-1E+10	1	-1E+10	1	-1E+10	1
4902663	43	C	10/01/2024	15:17	-127.675	47.526	0	188.30	0	6.6880	0	33.8370	0	26.547	0	186.643	0	118.1	4	39.6	4	-1E+10	1	-1E+10	1	-1E+10	1	-1E+10	1	-1E+10	1	-1E+10	1
4902663	43	C	10/01/2024	15:17	-127.675	47.526	0	189.20	0	6.6940	0	33.8390	0	26.548	0	187.535	0	117.3	4	39.3	4	-1E+10	1	-1E+10	1	-1E+10	1	-1E+10	1	-1E+10	1	-1E+10	1
4902663	43	C	10/01/2024	15:17	-127.675	47.526	0	190.20	0	6.7010	0	33.8410	0	26.549	0	188.525	0	116.5	4	39.1	4	-1E+10	1	-1E+10	1	-1E+10	1	-1E+10	1	-1E+10	1	-1E+10	1
4902663	43	C	10/01/2024	15:17	-127.675	47.526	0	191.10	0	6.6930	0	33.8450	0	26.553	0	189.417	0	115.8	4	38.9	4	-1E+10	1	-1E+10	1	-1E+10	1	-1E+10	1	-1E+10	1	-1E+10	1
4902663	43	C	10/01/2024	15:17	-127.675	47.526	0	192.10	0	6.6660	0	33.8440	0	26.556	0	190.408	0	115.0	4	38.5	4	-1E+10	1	-1E+10	1	-1E+10	1	-1E+10	1	-1E+10	1	-1E+10	1
4902663	43	C	10/01/2024	15:17	-127.675	47.526	0	193.10	0	6.6730	0	33.8480	0	26.558	0	191.398	0	114.1	4	38.3	4	-1E+10	1	-1E+10	1	-1E+10	1	-1E+10	1	-1E+10	1	-1E+10	1
4902663	43	C	10/01/2024	15:17	-127.675	47.526	0	194.00	0	6.6760	0	33.8500	0	26.559	0	192.290	0	113.4	4	38.0	4	-1E+10	1	-1E+10	1	-1E+10	1	-1E+10	1	-1E+10	1	-1E+10	1
4902663	43	C	10/01/2024	15:17	-127.675	47.526	0	195.00	0	6.6520	0	33.8510	0	26.563	0	193.281	0	112.7	4	37.8	4	-1E+10	1	-1E+10	1	-1E+10	1	-1E+10	1	-1E+10	1	-1E+10	1
4902663	43	C	10/01/2024	15:17	-127.675	47.526	0	195.90	0	6.6500	0	33.8510	0	26.563	0	194.172	0	111.9	4	37.5	4	-1E+10	1	-1E+10	1	-1E+10	1	-1E+10	1	-1E+10	1	-1E+10	1
4902663	43	C	10/01/2024	15:17	-127.675	47.526	0	196.90	0	6.6440	0	33.8520	0	26.565	0	195.163	0	110.8	4	37.2	4	-1E+10	1	-1E+10	1	-1E+10	1	-1E+10	1	-1E+10	1	-1E+10	1
4902663	43	C	10/01/2024	15:17	-127.675	47.526	0	197.90	0	6.6450	0	33.8520	0	26.565	0	196.154	0	109.7	4	36.8	4	-1E+10	1	-1E+10	1	-1E+10	1	-1E+10	1	-1E+10	1	-1E+10	1
4902663	43	C	10/01/2024	15:17	-127.675	47.526	0	198.90	0	6.6590	0	33.8570	0	26.567	0	197.145	0	108.6	4	36.4	4	-1E+10	1	-1E+10	1	-1E+10	1	-1E+10	1	-1E+10	1	-1E+10	1
4902663	43	C	10/01/2024	15:17	-127.675	47.526	0	200.00	0	6.6460	0	33.8590	0	26.570	0	198.234	0	107.4	4	36.0	4	-1E+10	1	-1E+10	1	-1E+10	1	-1E+10	1	-1E+10	1	-1E+10	1
4902663	43	C	10/01/2024	15:17	-127.675	47.526	0	201.00	0	6.6260	0	33.8540	0	26.569	0	199.225	0	105.9	4	35.5	4	-1E+10	1	-1E+10	1	-1E+10	1	-1E+10	1	-1E+10	1	-1E+10	1
4902663	43	C	10/01/2024	15:17	-127.675	47.526	0	202.00	0	6.6280	0	33.8550	0	26.569	0	200.216	0	103.9	4	34.8	4	-1E+10	1	-1E+10	1	-1E+10	1	-1E+10	1	-1E+10	1	-1E+10	1
4902663	43	C	10/01/2024	15:17	-127.675	47.526	0	203.00	0	6.6880	0	33.8630	0	26.568	0	201.206	0	102.2	4	34.3	4	-1E+10	1	-1E+10	1	-1E+10	1	-1E+10	1	-1E+10	1	-1E+10	1
4902663	43	C	10/01/2024	15:17	-127.675	47.526	0	204.00	0	6.7010	0	33.8740	0	26.575	0	202.197	0	100.8	4	33.8	4	-1E+10	1	-1E+10	1	-1E+10	1	-1E+10	1	-1E+10	1	-1E+10	1
4902663	43	C	10/01/2024	15:17	-127.675	47.526	0	205.10	0	6.6880	0	33.8730	0	26.576	0	203.287	0	99.3	4	33.3	4	-1E+10	1	-1E+10	1	-1E+10	1	-1E+10	1	-1E+10	1	-1E+10	1
4902663	43	C	10/01/2024	15:17	-127.675	47.526	0	206.10	0	6.7320	0	33.8870	0	26.581	0	204.277	0	98.3	4	33.0	4	-1E+10	1	-1E+10	1	-1E+10	1	-1E+10	1	-1E+10	1	-1E+10	1
4902663	43	C	10/01/2024	15:17	-127.675	47.526	0	207.10	0	6.7310	0	33.8860	0	26.580	0	205.268	0	97.5	4	32.7	4	-1E+10	1	-1E+10	1	-1E+10	1	-1E+10	1	-1E+10	1	-1E+10	1
4902663	43	C	10/01/2024	15:17	-127.675	47.526	0	208.20	0	6.7410	0	33.8910	0	26.583	0	206.358	0	96.7	4	32.5	4	-1E+10	1	-1E+10	1	-1E+10	1	-1E+10	1	-1E+10	1	-1E+10	1
4902663	43	C	10/01/2024	15:17	-127.675	47.526	0	209.20	0	6.7400	0	33.8910	0	26.583	0	207.348	0	95.9	4	32.2	4	-1E+10	1	-1E+10	1	-1E+10	1	-1E+10	1	-1E+10	1	-1E+10	1
4902663	43	C	10/01/2024	15:17	-127.675	47.526	0	210.30	0	6.7390	0	33.8930	0	26.585	0	208.438	0	95.0	4	31.9	4	-1E+10	1	-1E+10	1	-1E+10	1	-1E+10	1	-1E+10	1	-1E+10	1
4902663	43	C	10/01/2024	15:17	-127.675	47.526	0	211.40	0	6.7560	0	33.9010	0	26.589	0	209.528	0	94.6	4	31.8	4	-1E+10	1	-1E+10	1	-1E+10	1	-1E+10	1	-1E+10	1	-1E+10	1
4902663	43	C	10/01/2024	15:17	-127.675	47.526	0	212.40	0	6.7500	0	33.9010	0	26.590	0	210.519	0	94.2	4	31.7	4	-1E+10	1	-1E+10	1	-1E+10	1	-1E+10	1	-1E+10	1	-1E+10	1
4902663	43	C	10/01/2024	15:17	-127.675	47.526	0	213.50	0	6.7290	0	33.9010	0	26.592	0	211.608	0	93.7	4	31.5	4	-1E+10	1	-1E+10	1	-1E+10	1	-1E+10	1	-1E+10	1	-1E+10	1
4902663	43	C	10/01/2024	15:17	-127.675	47.526	0	214.60	0	6.7240	0	33.9040	0	26.596	0	212.698	0	93.3	4	31.3	4	-1E+10	1	-1E+10	1	-1E+10	1	-1E+10	1	-1E+10	1	-1E+10	1
4902663	43	C	10/01/2024	15:17	-127.675	47.526	0	215.60	0	6.7190	0	33.9030	0	26.595	0	213.689	0	92.9	4	31.2	4	-1E+10	1	-1E+10	1	-1E+10	1	-1E+10	1	-1E+10	1	-1E+10	1
4902663	43	C	10/01/2024	15:17	-127.675	47.526	0	216.70	0	6.7120	0	33.9040	0	26.597	0	214.778	0	92.5	4	31.1	4	-1E+10	1	-1E+10	1	-1E+10	1	-1E+10	1	-1E+10	1	-1E+10	1
4902663	43	C	10/01/2024	15:17	-127.675	47.526	0	217.80	0	6.7040	0	33.9050	0	26.599	0	215.868	0	92.1	4	30.9	4	-1E+10	1	-1E+10	1	-1E+10	1	-1E+10	1	-1E+10	1	-1E+10	1
4902663	43	C	10/01/2024	15:17	-127.675	47.526	0	218.90	0	6.7020	0	33.9050	0	26.599	0	216.958	0	91.6	4	30.8	4	-1E+10	1	-1E+10	1	-1E+10	1	-1E+10	1	-1E+10	1	-1E+10	1
4902663	43	C	10/01/2024	15:17	-127.675	47.526	0	219.90	0	6.6980	0	33.9060	0	26.601	0	217.948	0	91.1	4	30.6	4	-1E+10	1	-1E+10	1	-1E+10	1	-1E+10	1	-1E+10	1	-1E+10	1
4902663	43	C	10/01/2024	15:17	-127.675	47.526	0	221.00	0	6.6890	0	33.9070	0	26.603	0	219.038	0	90.6	4	30.4	4	-1E+10	1	-1E+10	1	-1E+10	1	-1E+10	1	-1E+10	1	-1E+10	1
4902663	43	C	10/01/2024	15:17	-127.675	47.526	0	222.10	0	6.6730	0	33.9080	0	26.606	0	220.127	0	90.0	4	30.2	4	-1E+10	1	-1E+10	1	-1E+10	1	-1E+10	1	-1E+10	1	-1E+10	1
4902663	43	C	10/01/2024	15:17	-127.675	47.526	0	223.10	0	6.6570	8	33.9070	8	26.607	0	221.118	0	89.4	4	30.0	4	-1E+10	1	-1E+10	1	-1E+10	1	-1E+10	1	-1E+10	1	-1E+10	1
4902663	43	C	10/01/2024	15:17	-127.675	47.526	0	224.20	0	6.6550	8	33.7590	8	26.490	0	222.208	0	89.0	4	29.8	4	-1E+10	1	-1E+10	1	-1E+10	1	-1E+10	1	-1E+10	1	-1E+10	1
4902663	43	C	10/01/2024	15:17	-127.675	47.526	0	225.20	0	6.6490	0	33.8990	0	26.602	0	223.198	0	88.6	4	29.7	4	-1E+10	1	-1E+10	1	-1E+10	1	-1E+10	1	-1E+10	1	-1E+10	1
4902663	43	C	10/01/2024	15:17	-127.675	47.526	0	226.30	0	6.6490	0	33.9070	0	26.608	0	224.288	0	88.2	4	29.6	4	-1E+10	1	-1E+10	1	-1E+10	1	-1E+10	1	-1E+10	1	-1E+10	1
4902663	43	C	10/01/2024	15:17	-127.675	47.526	0	227.30	0	6.6410	0	33.9140	0	26.615	0	225.278	0	87.8	4	29.4	4	-1E+10	1	-1E+10	1	-1E+10	1	-1E+10	1	-1E+10	1	-1E+10	1
4902663	43	C	10/01/2024	15:17	-127.675	47.526	0	228.40	0	6.6320	0	33.9140	0	26.616	0	226.368	0	87.3	4	29.3	4	-1E+10	1	-1E+10	1	-1E+10	1	-1E+10	1	-1E+10	1	-1E+10	1
4902663	43	C	10/01/2024	15:17	-127.675	47.526	0	229.40	0	6.6180	0	33.9160	0	26.619	0	227.359	0	86.7	4	29.1	4	-1E+10	1	-1E+10	1	-1E+10	1	-1E+10	1	-1E+10	1	-1E+10	1
4902663	43	C	10/01/2024	15:17	-127.675	47.526	0	230.50	0	6.6030	0	33.9180	0	26.623	0	228.448	0	86.3	4	28.9	4	-1E+10	1	-1E+10	1	-1E+10	1	-1E+10	1	-1E+10	1	-1E+10	1
4902663	43	C	10/01/2024	15:17	-127.675	47.526	0	231.50	0	6.5960	0	33.9190	0	26.625	0	229.439	0	85.8	4	28.8	4	-1E+10	1	-1E+10	1	-1E+10	1	-1E+10	1	-1E+10	1	-1E+10	1
4902663	43	C	10/01/2024	15:17	-127.675	47.526	0	232.60	0	6.5940	0	33.9190	0	26.625	0	230.528	0	85.4	4	28.6	4	-1E+10	1	-1E+10	1	-1E+10	1	-1E+10	1	-1E+10	1	-1E+10	1
4902663	43	C	10/01/2024	15:17	-127.675	47.526	0	233.60	0	6.5930	0	33.9200	0	26.626	0	231.519	0	84.8	4	28.4	4	-1E+10	1	-1E+10	1	-1E+10	1	-1E+10	1	-1E+10	1	-1E+10	1
4902663	43	C	10/01/2024	15:17	-127.675	47.526	0	234.70	0	6.5880	0	33.9210	0	26.627	0	232.608	0	84.2	4	28.2	4	-1E+10	1	-1E+10	1	-1E+10	1	-1E+10	1	-1E+10	1	-1E+10	1
4902663	43	C	10/01/2024	15:17	-127.675	47.526	0	235.70	0	6.5760	0	33.9230	0	26.630	0	233.599	0	83.7	4	28.0	4	-1E+10	1	-1E+10	1	-1E+10	1	-1E+10	1	-1E+10	1	-1E+10	1
4902663	43	C	10/01/2024	15:17	-127.675	47.526	0	236.80	0	6.5400	0	33.9240	0	26.636	0	234.689	0	83.0	4	27.8	4	-1E+10	1	-1E+10	1	-1E+10	1	-1E+10	1	-1E+10	1	-1E+10	1
4902663	43	C	10/01/2024	15:17	-127.675	47.526	0	237.80	0	6.5150	0	33.9250	0	26.640	0	235.679	0	82.4	4	27.6	4	-1E+10	1	-1E+10	1	-1E+10	1	-1E+10	1	-1E+10	1	-1E+10	1
4902663	43	C	10/01/2024	15:17	-127.675	47.526	0	238.90	0	6.4920	0	33.9250	0	26.643	0	236.769	0	81.9	4	27.4	4	-1E+10	1	-1E+10	1	-1E+10	1	-1E+10	1	-1E+10	1	-1E+10	1
4902663	43	C	10/01/2024	15:17	-127.675	47.526	0	239.90	0	6.4800	0	33.9270	0	26.646	0	237.759	0	81.4	4	27.2	4	-1E+10	1	-1E+10	1	-1E+10	1	-1E+10	1	-1E+10	1	-1E+10	1
4902663	43	C	10/01/2024	15:17	-127.675	47.526	0	241.00	0	6.4700	0	33.9290	0	26.649	0	238.849	0	80.9	4	27.0	4	-1E+10	1	-1E+10	1	-1E+10	1	-1E+10	1	-1E+10	1	-1E+10	1
4902663	43	C	10/01/2024	15:17	-127.675	47.526	0	242.00	0	6.4580	0	33.9310	0	26.652	0	239.839	0	80.7	4	27.0	4	-1E+10	1	-1E+10	1	-1E+10	1	-1E+10	1	-1E+10	1	-1E+10	1
4902663	43	C	10/01/2024	15:17	-127.675	47.526	0	243.10	0	6.4500	0	33.9320	0	26.654	0	240.929	0	80.5	4	26.9	4	-1E+10	1	-1E+10	1	-1E+10	1	-1E+10	1	-1E+10	1	-1E+10	1
4902663	43	C	10/01/2024	15:17	-127.675	47.526	0	244.10	0	6.4420	0	33.9320	0	26.655	0	241.919	0	80.4	4	26.9	4	-1E+10	1	-1E+10	1	-1E+10	1	-1E+10	1	-1E+10	1	-1E+10	1
4902663	43	C	10/01/2024	15:17	-127.675	47.526	0	245.20	0	6.4460	0	33.9340	0	26.656	0	243.009	0	80.4	4	26.9	4	-1E+10	1	-1E+10	1	-1E+10	1	-1E+10	1	-1E+10	1	-1E+10	1
4902663	43	C	10/01/2024	15:17	-127.675	47.526	0	246.30	0	6.4360	0	33.9330	0	26.657	0	244.098	0	80.5	4	26.9	4	-1E+10	1	-1E+10	1	-1E+10	1	-1E+10	1	-1E+10	1	-1E+10	1
4902663	43	C	10/01/2024	15:17	-127.675	47.526	0	247.30	0	6.4250	0	33.9340	0	26.659	0	245.089	0	80.5	4	26.9	4	-1E+10	1	-1E+10	1	-1E+10	1	-1E+10	1	-1E+10	1	-1E+10	1
4902663	43	C	10/01/2024	15:17	-127.675	47.526	0	248.40	0	6.4050	0	33.9300	0	26.658	0	246.178	0	80.4	4	26.8	4	-1E+10	1	-1E+10	1	-1E+10	1	-1E+10	1	-1E+10	1	-1E+10	1
4902663	43	C	10/01/2024	15:17	-127.675	47.526	0	249.40	0	6.4030	0	33.9330	0	26.661	0	247.169	0	80.3	4	26.8	4	-1E+10	1	-1E+10	1	-1E+10	1	-1E+10	1	-1E+10	1	-1E+10	1
4902663	43	C	10/01/2024	15:17	-127.675	47.526	0	250.50	0	6.3870	0	33.9340	0	26.664	0	248.258	0	80.3	4	26.8	4	-1E+10	1	-1E+10	1	-1E+10	1	-1E+10	1	-1E+10	1	-1E+10	1
4902663	43	C	10/01/2024	15:17	-127.675	47.526	0	251.60	0	6.3910	0	33.9320	0	26.662	0	249.348	0	80.2	4	26.7	4	-1E+10	1	-1E+10	1	-1E+10	1	-1E+10	1	-1E+10	1	-1E+10	1
4902663	43	C	10/01/2024	15:17	-127.675	47.526	0	252.70	0	6.3610	0	33.9340	0	26.667	0	250.437	0	80.2	4	26.7	4	-1E+10	1	-1E+10	1	-1E+10	1	-1E+10	1	-1E+10	1	-1E+10	1
4902663	43	C	10/01/2024	15:17	-127.675	47.526	0	253.80	0	6.3510	0	33.9360	0	26.670	0	251.527	0	80.2	4	26.7	4	-1E+10	1	-1E+10	1	-1E+10	1	-1E+10	1	-1E+10	1	-1E+10	1
4902663	43	C	10/01/2024	15:17	-127.675	47.526	0	254.80	0	6.3150	0	33.9340	0	26.673	0	252.517	0	80.1	4	26.7	4	-1E+10	1	-1E+10	1	-1E+10	1	-1E+10	1	-1E+10	1	-1E+10	1
4902663	43	C	10/01/2024	15:17	-127.675	47.526	0	255.90	0	6.2950	0	33.9320	0	26.674	0	253.607	0	79.9	4	26.6	4	-1E+10	1	-1E+10	1	-1E+10	1	-1E+10	1	-1E+10	1	-1E+10	1
4902663	43	C	10/01/2024	15:17	-127.675	47.526	0	257.00	0	6.2870	0	33.9320	0	26.675	0	254.696	0	79.6	4	26.5	4	-1E+10	1	-1E+10	1	-1E+10	1	-1E+10	1	-1E+10	1	-1E+10	1
4902663	43	C	10/01/2024	15:17	-127.675	47.526	0	258.10	0	6.2810	0	33.9310	0	26.675	0	255.785	0	79.3	4	26.4	4	-1E+10	1	-1E+10	1	-1E+10	1	-1E+10	1	-1E+10	1	-1E+10	1
4902663	43	C	10/01/2024	15:17	-127.675	47.526	0	259.20	0	6.2780	0	33.9310	0	26.676	0	256.875	0	78.9	4	26.2	4	-1E+10	1	-1E+10	1	-1E+10	1	-1E+10	1	-1E+10	1	-1E+10	1
4902663	43	C	10/01/2024	15:17	-127.675	47.526	0	260.20	0	6.2790	0	33.9320	0	26.676	0	257.865	0	78.5	4	26.1	4	-1E+10	1	-1E+10	1	-1E+10	1	-1E+10	1	-1E+10	1	-1E+10	1
4902663	43	C	10/01/2024	15:17	-127.675	47.526	0	261.30	0	6.2800	0	33.9330	0	26.677	0	258.955	0	78.0	4	26.0	4	-1E+10	1	-1E+10	1	-1E+10	1	-1E+10	1	-1E+10	1	-1E+10	1
4902663	43	C	10/01/2024	15:17	-127.675	47.526	0	262.30	0	6.2800	0	33.9340	0	26.678	0	259.945	0	77.6	4	25.8	4	-1E+10	1	-1E+10	1	-1E+10	1	-1E+10	1	-1E+10	1	-1E+10	1
4902663	43	C	10/01/2024	15:17	-127.675	47.526	0	263.40	0	6.2780	0	33.9350	0	26.679	0	261.035	0	77.1	4	25.6	4	-1E+10	1	-1E+10	1	-1E+10	1	-1E+10	1	-1E+10	1	-1E+10	1
4902663	43	C	10/01/2024	15:17	-127.675	47.526	0	264.40	0	6.2850	0	33.9370	0	26.680	0	262.025	0	76.7	4	25.5	4	-1E+10	1	-1E+10	1	-1E+10	1	-1E+10	1	-1E+10	1	-1E+10	1
4902663	43	C	10/01/2024	15:17	-127.675	47.526	0	265.50	0	6.2790	0	33.9370	0	26.680	0	263.114	0	76.2	4	25.3	4	-1E+10	1	-1E+10	1	-1E+10	1	-1E+10	1	-1E+10	1	-1E+10	1
4902663	43	C	10/01/2024	15:17	-127.675	47.526	0	266.50	0	6.2680	0	33.9390	0	26.683	0	264.105	0	75.7	4	25.2	4	-1E+10	1	-1E+10	1	-1E+10	1	-1E+10	1	-1E+10	1	-1E+10	1
4902663	43	C	10/01/2024	15:17	-127.675	47.526	0	267.60	0	6.2900	0	33.9430	0	26.684	0	265.194	0	75.2	4	25.0	4	-1E+10	1	-1E+10	1	-1E+10	1	-1E+10	1	-1E+10	1	-1E+10	1
4902663	43	C	10/01/2024	15:17	-127.675	47.526	0	268.60	0	6.2620	0	33.9480	0	26.691	0	266.185	0	74.9	4	24.9	4	-1E+10	1	-1E+10	1	-1E+10	1	-1E+10	1	-1E+10	1	-1E+10	1
4902663	43	C	10/01/2024	15:17	-127.675	47.526	0	269.70	0	6.2310	0	33.9430	0	26.691	0	267.274	0	74.6	4	24.8	4	-1E+10	1	-1E+10	1	-1E+10	1	-1E+10	1	-1E+10	1	-1E+10	1
4902663	43	C	10/01/2024	15:17	-127.675	47.526	0	270.80	0	6.2300	0	33.9410	0	26.690	0	268.363	0	74.1	4	24.6	4	-1E+10	1	-1E+10	1	-1E+10	1	-1E+10	1	-1E+10	1	-1E+10	1
4902663	43	C	10/01/2024	15:17	-127.675	47.526	0	271.80	0	6.2230	0	33.9430	0	26.692	0	269.354	0	73.6	4	24.4	4	-1E+10	1	-1E+10	1	-1E+10	1	-1E+10	1	-1E+10	1	-1E+10	1
4902663	43	C	10/01/2024	15:17	-127.675	47.526	0	272.90	0	6.2130	0	33.9420	0	26.693	0	270.443	0	73.0	4	24.3	4	-1E+10	1	-1E+10	1	-1E+10	1	-1E+10	1	-1E+10	1	-1E+10	1
4902663	43	C	10/01/2024	15:17	-127.675	47.526	0	273.90	0	6.1920	0	33.9440	0	26.697	0	271.433	0	72.6	4	24.1	4	-1E+10	1	-1E+10	1	-1E+10	1	-1E+10	1	-1E+10	1	-1E+10	1
4902663	43	C	10/01/2024	15:17	-127.675	47.526	0	275.00	0	6.1810	0	33.9450	0	26.699	0	272.523	0	72.4	4	24.0	4	-1E+10	1	-1E+10	1	-1E+10	1	-1E+10	1	-1E+10	1	-1E+10	1
4902663	43	C	10/01/2024	15:17	-127.675	47.526	0	276.10	0	6.1730	0	33.9450	0	26.700	0	273.612	0	72.2	4	24.0	4	-1E+10	1	-1E+10	1	-1E+10	1	-1E+10	1	-1E+10	1	-1E+10	1
4902663	43	C	10/01/2024	15:17	-127.675	47.526	0	277.10	0	6.1590	0	33.9460	0	26.703	0	274.602	0	72.0	4	23.9	4	-1E+10	1	-1E+10	1	-1E+10	1	-1E+10	1	-1E+10	1	-1E+10	1
4902663	43	C	10/01/2024	15:17	-127.675	47.526	0	278.20	0	6.1470	0	33.9480	0	26.706	0	275.692	0	71.9	4	23.9	4	-1E+10	1	-1E+10	1	-1E+10	1	-1E+10	1	-1E+10	1	-1E+10	1
4902663	43	C	10/01/2024	15:17	-127.675	47.526	0	279.30	0	6.1400	0	33.9510	0	26.709	0	276.781	0	71.8	4	23.8	4	-1E+10	1	-1E+10	1	-1E+10	1	-1E+10	1	-1E+10	1	-1E+10	1
4902663	43	C	10/01/2024	15:17	-127.675	47.526	0	280.40	0	6.1410	0	33.9510	0	26.709	0	277.871	0	71.6	4	23.8	4	-1E+10	1	-1E+10	1	-1E+10	1	-1E+10	1	-1E+10	1	-1E+10	1
4902663	43	C	10/01/2024	15:17	-127.675	47.526	0	281.40	0	6.1070	0	33.9490	0	26.712	0	278.861	0	71.5	4	23.7	4	-1E+10	1	-1E+10	1	-1E+10	1	-1E+10	1	-1E+10	1	-1E+10	1
4902663	43	C	10/01/2024	15:17	-127.675	47.526	0	282.50	0	6.0850	0	33.9480	0	26.714	0	279.950	0	71.1	4	23.5	4	-1E+10	1	-1E+10	1	-1E+10	1	-1E+10	1	-1E+10	1	-1E+10	1
4902663	43	C	10/01/2024	15:17	-127.675	47.526	0	283.60	0	6.0810	0	33.9490	0	26.715	0	281.039	0	70.6	4	23.4	4	-1E+10	1	-1E+10	1	-1E+10	1	-1E+10	1	-1E+10	1	-1E+10	1
4902663	43	C	10/01/2024	15:17	-127.675	47.526	0	284.70	0	6.0760	0	33.9490	0	26.716	0	282.129	0	70.2	4	23.2	4	-1E+10	1	-1E+10	1	-1E+10	1	-1E+10	1	-1E+10	1	-1E+10	1
4902663	43	C	10/01/2024	15:17	-127.675	47.526	0	285.90	0	6.0750	0	33.9500	0	26.717	0	283.317	0	69.8	4	23.1	4	-1E+10	1	-1E+10	1	-1E+10	1	-1E+10	1	-1E+10	1	-1E+10	1
4902663	43	C	10/01/2024	15:17	-127.675	47.526	0	287.00	0	6.0790	0	33.9510	0	26.717	0	284.406	0	69.3	4	22.9	4	-1E+10	1	-1E+10	1	-1E+10	1	-1E+10	1	-1E+10	1	-1E+10	1
4902663	43	C	10/01/2024	15:17	-127.675	47.526	0	288.10	0	6.0860	0	33.9530	0	26.718	0	285.496	0	68.7	4	22.8	4	-1E+10	1	-1E+10	1	-1E+10	1	-1E+10	1	-1E+10	1	-1E+10	1
4902663	43	C	10/01/2024	15:17	-127.675	47.526	0	289.10	0	6.1070	0	33.9570	0	26.718	0	286.486	0	68.3	4	22.6	4	-1E+10	1	-1E+10	1	-1E+10	1	-1E+10	1	-1E+10	1	-1E+10	1
4902663	43	C	10/01/2024	15:17	-127.675	47.526	0	290.20	0	6.1060	0	33.9610	0	26.722	0	287.575	0	67.8	4	22.5	4	-1E+10	1	-1E+10	1	-1E+10	1	-1E+10	1	-1E+10	1	-1E+10	1
4902663	43	C	10/01/2024	15:17	-127.675	47.526	0	291.30	0	6.0820	0	33.9630	0	26.726	0	288.665	0	67.4	4	22.3	4	-1E+10	1	-1E+10	1	-1E+10	1	-1E+10	1	-1E+10	1	-1E+10	1
4902663	43	C	10/01/2024	15:17	-127.675	47.526	0	292.40	0	6.0570	0	33.9600	0	26.727	0	289.754	0	67.1	4	22.2	4	-1E+10	1	-1E+10	1	-1E+10	1	-1E+10	1	-1E+10	1	-1E+10	1
4902663	43	C	10/01/2024	15:17	-127.675	47.526	0	293.50	0	6.0600	0	33.9620	0	26.728	0	290.843	0	66.8	4	22.1	4	-1E+10	1	-1E+10	1	-1E+10	1	-1E+10	1	-1E+10	1	-1E+10	1
4902663	43	C	10/01/2024	15:17	-127.675	47.526	0	294.60	0	6.0600	0	33.9610	0	26.727	0	291.932	0	66.5	4	22.0	4	-1E+10	1	-1E+10	1	-1E+10	1	-1E+10	1	-1E+10	1	-1E+10	1
4902663	43	C	10/01/2024	15:17	-127.675	47.526	0	295.80	0	6.0380	0	33.9620	0	26.731	0	293.121	0	66.1	4	21.9	4	-1E+10	1	-1E+10	1	-1E+10	1	-1E+10	1	-1E+10	1	-1E+10	1
4902663	43	C	10/01/2024	15:17	-127.675	47.526	0	296.90	0	6.0250	0	33.9600	0	26.731	0	294.210	0	65.8	4	21.8	4	-1E+10	1	-1E+10	1	-1E+10	1	-1E+10	1	-1E+10	1	-1E+10	1
4902663	43	C	10/01/2024	15:17	-127.675	47.526	0	298.00	0	6.0170	0	33.9670	0	26.738	0	295.299	0	65.5	4	21.7	4	-1E+10	1	-1E+10	1	-1E+10	1	-1E+10	1	-1E+10	1	-1E+10	1
4902663	43	C	10/01/2024	15:17	-127.675	47.526	0	299.10	0	5.9950	0	33.9620	0	26.736	0	296.388	0	65.3	4	21.6	4	-1E+10	1	-1E+10	1	-1E+10	1	-1E+10	1	-1E+10	1	-1E+10	1
4902663	43	C	10/01/2024	15:17	-127.675	47.526	0	300.20	0	5.9830	0	33.9610	0	26.737	0	297.478	0	64.9	4	21.5	4	-1E+10	1	-1E+10	1	-1E+10	1	-1E+10	1	-1E+10	1	-1E+10	1
4902663	43	C	10/01/2024	15:17	-127.675	47.526	0	301.30	0	5.9810	0	33.9640	0	26.740	0	298.567	0	64.6	4	21.4	4	-1E+10	1	-1E+10	1	-1E+10	1	-1E+10	1	-1E+10	1	-1E+10	1
4902663	43	C	10/01/2024	15:17	-127.675	47.526	0	302.30	0	5.9770	0	33.9630	0	26.739	0	299.557	0	64.4	4	21.3	4	-1E+10	1	-1E+10	1	-1E+10	1	-1E+10	1	-1E+10	1	-1E+10	1
4902663	43	C	10/01/2024	15:17	-127.675	47.526	0	303.40	0	5.9740	0	33.9640	0	26.741	0	300.646	0	64.1	4	21.2	4	-1E+10	1	-1E+10	1	-1E+10	1	-1E+10	1	-1E+10	1	-1E+10	1
4902663	43	C	10/01/2024	15:17	-127.675	47.526	0	304.50	0	5.9690	0	33.9640	0	26.741	0	301.736	0	63.8	4	21.1	4	-1E+10	1	-1E+10	1	-1E+10	1	-1E+10	1	-1E+10	1	-1E+10	1
4902663	43	C	10/01/2024	15:17	-127.675	47.526	0	305.60	0	5.9650	0	33.9640	0	26.742	0	302.825	0	63.4	4	20.9	4	-1E+10	1	-1E+10	1	-1E+10	1	-1E+10	1	-1E+10	1	-1E+10	1
4902663	43	C	10/01/2024	15:17	-127.675	47.526	0	306.70	0	5.9570	0	33.9640	0	26.743	0	303.914	0	63.0	4	20.8	4	-1E+10	1	-1E+10	1	-1E+10	1	-1E+10	1	-1E+10	1	-1E+10	1
4902663	43	C	10/01/2024	15:17	-127.675	47.526	0	307.80	0	5.9570	0	33.9660	0	26.744	0	305.003	0	62.7	4	20.7	4	-1E+10	1	-1E+10	1	-1E+10	1	-1E+10	1	-1E+10	1	-1E+10	1
4902663	43	C	10/01/2024	15:17	-127.675	47.526	0	308.90	0	5.9510	0	33.9670	0	26.746	0	306.092	0	62.4	4	20.6	4	-1E+10	1	-1E+10	1	-1E+10	1	-1E+10	1	-1E+10	1	-1E+10	1
4902663	43	C	10/01/2024	15:17	-127.675	47.526	0	310.00	0	5.9420	0	33.9670	0	26.747	0	307.182	0	62.0	4	20.5	4	-1E+10	1	-1E+10	1	-1E+10	1	-1E+10	1	-1E+10	1	-1E+10	1
4902663	43	C	10/01/2024	15:17	-127.675	47.526	0	311.00	0	5.9250	0	33.9690	0	26.751	0	308.172	0	61.6	4	20.3	4	-1E+10	1	-1E+10	1	-1E+10	1	-1E+10	1	-1E+10	1	-1E+10	1
4902663	43	C	10/01/2024	15:17	-127.675	47.526	0	312.10	0	5.9530	0	33.9750	0	26.752	0	309.261	0	61.2	4	20.2	4	-1E+10	1	-1E+10	1	-1E+10	1	-1E+10	1	-1E+10	1	-1E+10	1
4902663	43	C	10/01/2024	15:17	-127.675	47.526	0	313.20	0	5.9630	0	33.9790	0	26.754	0	310.350	0	60.9	4	20.1	4	-1E+10	1	-1E+10	1	-1E+10	1	-1E+10	1	-1E+10	1	-1E+10	1
4902663	43	C	10/01/2024	15:17	-127.675	47.526	0	314.30	0	5.9620	0	33.9780	0	26.753	0	311.439	0	60.5	4	20.0	4	-1E+10	1	-1E+10	1	-1E+10	1	-1E+10	1	-1E+10	1	-1E+10	1
4902663	43	C	10/01/2024	15:17	-127.675	47.526	0	315.30	0	5.9430	0	33.9800	0	26.757	0	312.429	0	60.3	4	19.9	4	-1E+10	1	-1E+10	1	-1E+10	1	-1E+10	1	-1E+10	1	-1E+10	1
4902663	43	C	10/01/2024	15:17	-127.675	47.526	0	316.40	0	5.9380	0	33.9800	0	26.758	0	313.519	0	60.0	4	19.8	4	-1E+10	1	-1E+10	1	-1E+10	1	-1E+10	1	-1E+10	1	-1E+10	1
4902663	43	C	10/01/2024	15:17	-127.675	47.526	0	317.40	0	5.9330	0	33.9820	0	26.760	0	314.509	0	59.7	4	19.7	4	-1E+10	1	-1E+10	1	-1E+10	1	-1E+10	1	-1E+10	1	-1E+10	1
4902663	43	C	10/01/2024	15:17	-127.675	47.526	0	318.40	0	5.9290	0	33.9820	0	26.761	0	315.499	0	59.5	4	19.6	4	-1E+10	1	-1E+10	1	-1E+10	1	-1E+10	1	-1E+10	1	-1E+10	1
4902663	43	C	10/01/2024	15:17	-127.675	47.526	0	319.50	0	5.9130	0	33.9850	0	26.765	0	316.588	0	59.2	4	19.5	4	-1E+10	1	-1E+10	1	-1E+10	1	-1E+10	1	-1E+10	1	-1E+10	1
4902663	43	C	10/01/2024	15:17	-127.675	47.526	0	320.60	0	5.9100	0	33.9840	0	26.765	0	317.677	0	59.0	4	19.5	4	-1E+10	1	-1E+10	1	-1E+10	1	-1E+10	1	-1E+10	1	-1E+10	1
4902663	43	C	10/01/2024	15:17	-127.675	47.526	0	321.60	0	5.9060	0	33.9850	0	26.766	0	318.667	0	58.8	4	19.4	4	-1E+10	1	-1E+10	1	-1E+10	1	-1E+10	1	-1E+10	1	-1E+10	1
4902663	43	C	10/01/2024	15:17	-127.675	47.526	0	322.70	0	5.8990	0	33.9860	0	26.768	0	319.756	0	58.6	4	19.3	4	-1E+10	1	-1E+10	1	-1E+10	1	-1E+10	1	-1E+10	1	-1E+10	1
4902663	43	C	10/01/2024	15:17	-127.675	47.526	0	323.70	0	5.8980	0	33.9870	0	26.769	0	320.746	0	58.4	4	19.3	4	-1E+10	1	-1E+10	1	-1E+10	1	-1E+10	1	-1E+10	1	-1E+10	1
4902663	43	C	10/01/2024	15:17	-127.675	47.526	0	324.80	0	5.8940	0	33.9880	0	26.770	0	321.835	0	58.3	4	19.2	4	-1E+10	1	-1E+10	1	-1E+10	1	-1E+10	1	-1E+10	1	-1E+10	1
4902663	43	C	10/01/2024	15:17	-127.675	47.526	0	325.80	0	5.8900	0	33.9870	0	26.770	0	322.826	0	58.1	4	19.2	4	-1E+10	1	-1E+10	1	-1E+10	1	-1E+10	1	-1E+10	1	-1E+10	1
4902663	43	C	10/01/2024	15:17	-127.675	47.526	0	326.90	0	5.8880	0	33.9870	0	26.770	0	323.915	0	57.9	4	19.1	4	-1E+10	1	-1E+10	1	-1E+10	1	-1E+10	1	-1E+10	1	-1E+10	1
4902663	43	C	10/01/2024	15:17	-127.675	47.526	0	327.90	0	5.8860	0	33.9880	0	26.771	0	324.905	0	57.7	4	19.0	4	-1E+10	1	-1E+10	1	-1E+10	1	-1E+10	1	-1E+10	1	-1E+10	1
4902663	43	C	10/01/2024	15:17	-127.675	47.526	0	329.00	0	5.8690	0	33.9910	0	26.775	0	325.994	0	57.6	4	19.0	4	-1E+10	1	-1E+10	1	-1E+10	1	-1E+10	1	-1E+10	1	-1E+10	1
4902663	43	C	10/01/2024	15:17	-127.675	47.526	0	330.00	0	5.8550	0	33.9890	0	26.775	0	326.984	0	57.5	4	19.0	4	-1E+10	1	-1E+10	1	-1E+10	1	-1E+10	1	-1E+10	1	-1E+10	1
4902663	43	C	10/01/2024	15:17	-127.675	47.526	0	331.10	0	5.8400	0	33.9880	0	26.777	0	328.073	0	57.5	4	18.9	4	-1E+10	1	-1E+10	1	-1E+10	1	-1E+10	1	-1E+10	1	-1E+10	1
4902663	43	C	10/01/2024	15:17	-127.675	47.526	0	332.10	0	5.8250	0	33.9910	0	26.781	0	329.063	0	57.4	4	18.9	4	-1E+10	1	-1E+10	1	-1E+10	1	-1E+10	1	-1E+10	1	-1E+10	1
4902663	43	C	10/01/2024	15:17	-127.675	47.526	0	333.10	0	5.7900	0	33.9840	0	26.780	0	330.053	0	57.3	4	18.8	4	-1E+10	1	-1E+10	1	-1E+10	1	-1E+10	1	-1E+10	1	-1E+10	1
4902663	43	C	10/01/2024	15:17	-127.675	47.526	0	334.20	0	5.7430	0	33.9820	0	26.784	0	331.142	0	56.9	4	18.7	4	-1E+10	1	-1E+10	1	-1E+10	1	-1E+10	1	-1E+10	1	-1E+10	1
4902663	43	C	10/01/2024	15:17	-127.675	47.526	0	335.20	0	5.7510	0	33.9840	0	26.784	0	332.132	0	56.5	4	18.6	4	-1E+10	1	-1E+10	1	-1E+10	1	-1E+10	1	-1E+10	1	-1E+10	1
4902663	43	C	10/01/2024	15:17	-127.675	47.526	0	336.20	0	5.7510	0	33.9840	0	26.784	0	333.122	0	56.2	4	18.5	4	-1E+10	1	-1E+10	1	-1E+10	1	-1E+10	1	-1E+10	1	-1E+10	1
4902663	43	C	10/01/2024	15:17	-127.675	47.526	0	337.20	0	5.7440	0	33.9840	0	26.785	0	334.112	0	55.8	4	18.3	4	-1E+10	1	-1E+10	1	-1E+10	1	-1E+10	1	-1E+10	1	-1E+10	1
4902663	43	C	10/01/2024	15:17	-127.675	47.526	0	338.30	0	5.7210	0	33.9840	0	26.788	0	335.201	0	55.3	4	18.2	4	-1E+10	1	-1E+10	1	-1E+10	1	-1E+10	1	-1E+10	1	-1E+10	1
4902663	43	C	10/01/2024	15:17	-127.675	47.526	0	339.30	0	5.7110	0	33.9840	0	26.789	0	336.191	0	54.9	4	18.0	4	-1E+10	1	-1E+10	1	-1E+10	1	-1E+10	1	-1E+10	1	-1E+10	1
4902663	43	C	10/01/2024	15:17	-127.675	47.526	0	340.30	0	5.7130	0	33.9860	0	26.791	0	337.181	0	54.4	4	17.9	4	-1E+10	1	-1E+10	1	-1E+10	1	-1E+10	1	-1E+10	1	-1E+10	1
4902663	43	C	10/01/2024	15:17	-127.675	47.526	0	341.40	0	5.7190	0	33.9880	0	26.791	0	338.270	0	53.8	4	17.7	4	-1E+10	1	-1E+10	1	-1E+10	1	-1E+10	1	-1E+10	1	-1E+10	1
4902663	43	C	10/01/2024	15:17	-127.675	47.526	0	342.40	0	5.7270	0	33.9900	0	26.792	0	339.260	0	53.3	4	17.5	4	-1E+10	1	-1E+10	1	-1E+10	1	-1E+10	1	-1E+10	1	-1E+10	1
4902663	43	C	10/01/2024	15:17	-127.675	47.526	0	343.40	0	5.7320	0	33.9920	0	26.793	0	340.250	0	52.8	4	17.4	4	-1E+10	1	-1E+10	1	-1E+10	1	-1E+10	1	-1E+10	1	-1E+10	1
4902663	43	C	10/01/2024	15:17	-127.675	47.526	0	344.40	0	5.7500	0	33.9990	0	26.796	0	341.240	0	52.5	4	17.2	4	-1E+10	1	-1E+10	1	-1E+10	1	-1E+10	1	-1E+10	1	-1E+10	1
4902663	43	C	10/01/2024	15:17	-127.675	47.526	0	345.40	0	5.7390	0	33.9990	0	26.798	0	342.230	0	52.2	4	17.2	4	-1E+10	1	-1E+10	1	-1E+10	1	-1E+10	1	-1E+10	1	-1E+10	1
4902663	43	C	10/01/2024	15:17	-127.675	47.526	0	346.40	0	5.7420	0	33.9970	0	26.796	0	343.220	0	52.0	4	17.1	4	-1E+10	1	-1E+10	1	-1E+10	1	-1E+10	1	-1E+10	1	-1E+10	1
4902663	43	C	10/01/2024	15:17	-127.675	47.526	0	347.40	0	5.7380	0	34.0010	0	26.800	0	344.210	0	51.7	4	17.0	4	-1E+10	1	-1E+10	1	-1E+10	1	-1E+10	1	-1E+10	1	-1E+10	1
4902663	43	C	10/01/2024	15:17	-127.675	47.526	0	348.40	0	5.7180	0	34.0010	0	26.802	0	345.200	0	51.4	4	16.9	4	-1E+10	1	-1E+10	1	-1E+10	1	-1E+10	1	-1E+10	1	-1E+10	1
4902663	43	C	10/01/2024	15:17	-127.675	47.526	0	349.40	0	5.7080	0	34.0010	0	26.803	0	346.190	0	51.2	4	16.8	4	-1E+10	1	-1E+10	1	-1E+10	1	-1E+10	1	-1E+10	1	-1E+10	1
4902663	43	C	10/01/2024	15:17	-127.675	47.526	0	352.50	0	5.6890	0	34.0040	0	26.808	0	349.259	0	50.5	4	16.6	4	-1E+10	1	-1E+10	1	-1E+10	1	-1E+10	1	-1E+10	1	-1E+10	1
4902663	43	C	10/01/2024	15:17	-127.675	47.526	0	357.60	0	5.6400	0	34.0050	0	26.815	0	354.308	0	49.7	4	16.3	4	-1E+10	1	-1E+10	1	-1E+10	1	-1E+10	1	-1E+10	1	-1E+10	1
4902663	43	C	10/01/2024	15:17	-127.675	47.526	0	362.90	0	5.6130	0	34.0090	0	26.821	0	359.555	0	48.6	4	15.9	4	-1E+10	1	-1E+10	1	-1E+10	1	-1E+10	1	-1E+10	1	-1E+10	1
4902663	43	C	10/01/2024	15:17	-127.675	47.526	0	367.70	0	5.5880	0	34.0120	0	26.827	0	364.306	0	47.3	4	15.5	4	-1E+10	1	-1E+10	1	-1E+10	1	-1E+10	1	-1E+10	1	-1E+10	1
4902663	43	C	10/01/2024	15:17	-127.675	47.526	0	372.80	0	5.5300	0	34.0160	0	26.837	0	369.355	0	45.9	4	15.0	4	-1E+10	1	-1E+10	1	-1E+10	1	-1E+10	1	-1E+10	1	-1E+10	1
4902663	43	C	10/01/2024	15:17	-127.675	47.526	0	378.10	0	5.5050	0	34.0220	0	26.845	0	374.601	0	44.0	4	14.4	4	-1E+10	1	-1E+10	1	-1E+10	1	-1E+10	1	-1E+10	1	-1E+10	1
4902663	43	C	10/01/2024	15:17	-127.675	47.526	0	383.00	0	5.4810	0	34.0290	0	26.853	0	379.451	0	43.0	4	14.1	4	-1E+10	1	-1E+10	1	-1E+10	1	-1E+10	1	-1E+10	1	-1E+10	1
4902663	43	C	10/01/2024	15:17	-127.675	47.526	0	388.10	0	5.4540	0	34.0290	0	26.856	0	384.499	0	42.1	4	13.8	4	-1E+10	1	-1E+10	1	-1E+10	1	-1E+10	1	-1E+10	1	-1E+10	1
4902663	43	C	10/01/2024	15:17	-127.675	47.526	0	392.90	0	5.4250	0	34.0340	0	26.864	0	389.250	0	41.3	4	13.5	4	-1E+10	1	-1E+10	1	-1E+10	1	-1E+10	1	-1E+10	1	-1E+10	1
4902663	43	C	10/01/2024	15:17	-127.675	47.526	0	397.70	0	5.4010	0	34.0370	0	26.869	0	394.001	0	40.6	4	13.2	4	-1E+10	1	-1E+10	1	-1E+10	1	-1E+10	1	-1E+10	1	-1E+10	1
4902663	43	C	10/01/2024	15:17	-127.675	47.526	0	403.10	0	5.3600	0	34.0390	0	26.875	0	399.345	0	39.8	4	13.0	4	-1E+10	1	-1E+10	1	-1E+10	1	-1E+10	1	-1E+10	1	-1E+10	1
4902663	43	C	10/01/2024	15:17	-127.675	47.526	0	408.10	0	5.3040	0	34.0400	0	26.883	0	404.294	0	39.0	4	12.7	4	-1E+10	1	-1E+10	1	-1E+10	1	-1E+10	1	-1E+10	1	-1E+10	1
4902663	43	C	10/01/2024	15:17	-127.675	47.526	0	412.70	0	5.2840	0	34.0460	0	26.890	0	408.847	0	38.3	4	12.4	4	-1E+10	1	-1E+10	1	-1E+10	1	-1E+10	1	-1E+10	1	-1E+10	1
4902663	43	C	10/01/2024	15:17	-127.675	47.526	0	417.90	0	5.2480	0	34.0450	0	26.893	0	413.993	0	37.5	4	12.2	4	-1E+10	1	-1E+10	1	-1E+10	1	-1E+10	1	-1E+10	1	-1E+10	1
4902663	43	C	10/01/2024	15:17	-127.675	47.526	0	423.30	0	5.2390	0	34.0490	0	26.898	0	419.337	0	36.2	4	11.8	4	-1E+10	1	-1E+10	1	-1E+10	1	-1E+10	1	-1E+10	1	-1E+10	1
4902663	43	C	10/01/2024	15:17	-127.675	47.526	0	428.20	0	5.2210	0	34.0560	0	26.905	0	424.186	0	35.1	4	11.4	4	-1E+10	1	-1E+10	1	-1E+10	1	-1E+10	1	-1E+10	1	-1E+10	1
4902663	43	C	10/01/2024	15:17	-127.675	47.526	0	433.10	0	5.2100	0	34.0600	0	26.910	0	429.035	0	34.3	4	11.1	4	-1E+10	1	-1E+10	1	-1E+10	1	-1E+10	1	-1E+10	1	-1E+10	1
4902663	43	C	10/01/2024	15:17	-127.675	47.526	0	438.10	0	5.1950	0	34.0630	0	26.914	0	433.983	0	33.5	4	10.9	4	-1E+10	1	-1E+10	1	-1E+10	1	-1E+10	1	-1E+10	1	-1E+10	1
4902663	43	C	10/01/2024	15:17	-127.675	47.526	0	443.20	0	5.1570	0	34.0670	0	26.922	0	439.030	0	33.0	4	10.7	4	-1E+10	1	-1E+10	1	-1E+10	1	-1E+10	1	-1E+10	1	-1E+10	1
4902663	43	C	10/01/2024	15:17	-127.675	47.526	0	447.90	0	5.1220	0	34.0660	0	26.925	0	443.680	0	32.5	4	10.5	4	-1E+10	1	-1E+10	1	-1E+10	1	-1E+10	1	-1E+10	1	-1E+10	1
4902663	43	C	10/01/2024	15:17	-127.675	47.526	0	452.50	0	5.0950	0	34.0670	0	26.929	0	448.232	0	31.6	4	10.2	4	-1E+10	1	-1E+10	1	-1E+10	1	-1E+10	1	-1E+10	1	-1E+10	1
4902663	43	C	10/01/2024	15:17	-127.675	47.526	0	457.70	0	5.0680	0	34.0710	0	26.935	0	453.377	0	30.4	4	9.8	4	-1E+10	1	-1E+10	1	-1E+10	1	-1E+10	1	-1E+10	1	-1E+10	1
4902663	43	C	10/01/2024	15:17	-127.675	47.526	0	462.90	0	5.0500	0	34.0780	0	26.943	0	458.522	0	29.3	4	9.5	4	-1E+10	1	-1E+10	1	-1E+10	1	-1E+10	1	-1E+10	1	-1E+10	1
4902663	43	C	10/01/2024	15:17	-127.675	47.526	0	468.00	0	5.0310	0	34.0820	0	26.948	0	463.569	0	28.5	4	9.2	4	-1E+10	1	-1E+10	1	-1E+10	1	-1E+10	1	-1E+10	1	-1E+10	1
4902663	43	C	10/01/2024	15:17	-127.675	47.526	0	472.80	0	4.9960	0	34.0860	0	26.955	0	468.318	0	27.9	4	9.0	4	-1E+10	1	-1E+10	1	-1E+10	1	-1E+10	1	-1E+10	1	-1E+10	1
4902663	43	C	10/01/2024	15:17	-127.675	47.526	0	477.50	0	4.9840	0	34.0890	0	26.959	0	472.968	0	27.4	4	8.8	4	-1E+10	1	-1E+10	1	-1E+10	1	-1E+10	1	-1E+10	1	-1E+10	1
4902663	43	C	10/01/2024	15:17	-127.675	47.526	0	482.80	0	4.9370	0	34.0900	0	26.965	0	478.211	0	26.8	4	8.7	4	-1E+10	1	-1E+10	1	-1E+10	1	-1E+10	1	-1E+10	1	-1E+10	1
4902663	43	C	10/01/2024	15:17	-127.675	47.526	0	488.10	0	4.9200	0	34.0920	0	26.969	0	483.455	0	26.0	4	8.4	4	-1E+10	1	-1E+10	1	-1E+10	1	-1E+10	1	-1E+10	1	-1E+10	1
4902663	43	C	10/01/2024	15:17	-127.675	47.526	0	492.90	0	4.8970	0	34.0950	0	26.974	0	488.203	0	25.3	4	8.2	4	-1E+10	1	-1E+10	1	-1E+10	1	-1E+10	1	-1E+10	1	-1E+10	1
4902663	43	C	10/01/2024	15:17	-127.675	47.526	0	497.60	0	4.8850	0	34.0990	0	26.979	0	492.853	0	24.4	4	7.9	4	-1E+10	1	-1E+10	1	-1E+10	1	-1E+10	1	-1E+10	1	-1E+10	1
4902663	43	C	10/01/2024	15:17	-127.675	47.526	0	502.70	0	4.8670	0	34.1040	0	26.985	0	497.898	0	23.4	4	7.5	4	-1E+10	1	-1E+10	1	-1E+10	1	-1E+10	1	-1E+10	1	-1E+10	1
4902663	43	C	10/01/2024	15:17	-127.675	47.526	0	507.80	0	4.8420	0	34.1120	0	26.994	0	502.943	0	22.6	4	7.3	4	-1E+10	1	-1E+10	1	-1E+10	1	-1E+10	1	-1E+10	1	-1E+10	1
4902663	43	C	10/01/2024	15:17	-127.675	47.526	0	513.00	0	4.8270	0	34.1150	0	26.998	0	508.087	0	22.1	4	7.1	4	-1E+10	1	-1E+10	1	-1E+10	1	-1E+10	1	-1E+10	1	-1E+10	1
4902663	43	C	10/01/2024	15:17	-127.675	47.526	0	518.10	0	4.7980	0	34.1160	0	27.002	0	513.132	0	21.4	4	6.9	4	-1E+10	1	-1E+10	1	-1E+10	1	-1E+10	1	-1E+10	1	-1E+10	1
4902663	43	C	10/01/2024	15:17	-127.675	47.526	0	523.10	0	4.7970	0	34.1200	0	27.005	0	518.078	0	20.5	4	6.6	4	-1E+10	1	-1E+10	1	-1E+10	1	-1E+10	1	-1E+10	1	-1E+10	1
4902663	43	C	10/01/2024	15:17	-127.675	47.526	0	528.30	0	4.7650	0	34.1270	0	27.014	0	523.222	0	19.8	4	6.4	4	-1E+10	1	-1E+10	1	-1E+10	1	-1E+10	1	-1E+10	1	-1E+10	1
4902663	43	C	10/01/2024	15:17	-127.675	47.526	0	532.90	0	4.7490	0	34.1320	0	27.020	0	527.772	0	19.2	4	6.2	4	-1E+10	1	-1E+10	1	-1E+10	1	-1E+10	1	-1E+10	1	-1E+10	1
4902663	43	C	10/01/2024	15:17	-127.675	47.526	0	537.50	0	4.7420	0	34.1350	0	27.023	0	532.321	0	18.6	4	6.0	4	-1E+10	1	-1E+10	1	-1E+10	1	-1E+10	1	-1E+10	1	-1E+10	1
4902663	43	C	10/01/2024	15:17	-127.675	47.526	0	542.70	0	4.7280	0	34.1400	0	27.029	0	537.465	0	18.0	4	5.8	4	-1E+10	1	-1E+10	1	-1E+10	1	-1E+10	1	-1E+10	1	-1E+10	1
4902663	43	C	10/01/2024	15:17	-127.675	47.526	0	547.70	0	4.7230	0	34.1460	0	27.034	0	542.410	0	17.4	4	5.6	4	-1E+10	1	-1E+10	1	-1E+10	1	-1E+10	1	-1E+10	1	-1E+10	1
4902663	43	C	10/01/2024	15:17	-127.675	47.526	0	552.80	0	4.7020	0	34.1500	0	27.040	0	547.454	0	16.8	4	5.4	4	-1E+10	1	-1E+10	1	-1E+10	1	-1E+10	1	-1E+10	1	-1E+10	1
4902663	43	C	10/01/2024	15:17	-127.675	47.526	0	557.90	0	4.6850	0	34.1560	0	27.046	0	552.498	0	16.4	4	5.2	4	-1E+10	1	-1E+10	1	-1E+10	1	-1E+10	1	-1E+10	1	-1E+10	1
4902663	43	C	10/01/2024	15:17	-127.675	47.526	0	562.90	0	4.6540	0	34.1580	0	27.052	0	557.443	0	15.9	4	5.1	4	-1E+10	1	-1E+10	1	-1E+10	1	-1E+10	1	-1E+10	1	-1E+10	1
4902663	43	C	10/01/2024	15:17	-127.675	47.526	0	567.80	0	4.6410	0	34.1620	0	27.056	0	562.289	0	15.6	4	5.0	4	-1E+10	1	-1E+10	1	-1E+10	1	-1E+10	1	-1E+10	1	-1E+10	1
4902663	43	C	10/01/2024	15:17	-127.675	47.526	0	572.90	0	4.6060	0	34.1630	0	27.061	0	567.332	0	15.3	4	4.9	4	-1E+10	1	-1E+10	1	-1E+10	1	-1E+10	1	-1E+10	1	-1E+10	1
4902663	43	C	10/01/2024	15:17	-127.675	47.526	0	577.70	0	4.5990	0	34.1640	0	27.062	0	572.079	0	14.9	4	4.8	4	-1E+10	1	-1E+10	1	-1E+10	1	-1E+10	1	-1E+10	1	-1E+10	1
4902663	43	C	10/01/2024	15:17	-127.675	47.526	0	582.90	0	4.5910	0	34.1690	0	27.067	0	577.221	0	14.4	4	4.6	4	-1E+10	1	-1E+10	1	-1E+10	1	-1E+10	1	-1E+10	1	-1E+10	1
4902663	43	C	10/01/2024	15:17	-127.675	47.526	0	588.20	0	4.5730	0	34.1740	0	27.073	0	582.462	0	14.0	4	4.5	4	-1E+10	1	-1E+10	1	-1E+10	1	-1E+10	1	-1E+10	1	-1E+10	1
4902663	43	C	10/01/2024	15:17	-127.675	47.526	0	593.20	0	4.5550	0	34.1780	0	27.078	0	587.406	0	13.6	4	4.4	4	-1E+10	1	-1E+10	1	-1E+10	1	-1E+10	1	-1E+10	1	-1E+10	1
4902663	43	C	10/01/2024	15:17	-127.675	47.526	0	598.20	0	4.5390	0	34.1810	0	27.083	0	592.350	0	13.3	4	4.2	4	-1E+10	1	-1E+10	1	-1E+10	1	-1E+10	1	-1E+10	1	-1E+10	1
4902663	43	C	10/01/2024	15:17	-127.675	47.526	0	602.90	0	4.5290	0	34.1840	0	27.086	0	596.998	0	12.9	4	4.1	4	-1E+10	1	-1E+10	1	-1E+10	1	-1E+10	1	-1E+10	1	-1E+10	1
4902663	43	C	10/01/2024	15:17	-127.675	47.526	0	607.60	0	4.5330	0	34.1890	0	27.090	0	601.645	0	12.5	4	4.0	4	-1E+10	1	-1E+10	1	-1E+10	1	-1E+10	1	-1E+10	1	-1E+10	1
4902663	43	C	10/01/2024	15:17	-127.675	47.526	0	612.70	0	4.5190	0	34.1940	0	27.095	0	606.687	0	12.2	4	3.9	4	-1E+10	1	-1E+10	1	-1E+10	1	-1E+10	1	-1E+10	1	-1E+10	1
4902663	43	C	10/01/2024	15:17	-127.675	47.526	0	617.90	0	4.4990	0	34.1960	0	27.099	0	611.829	0	12.0	4	3.8	4	-1E+10	1	-1E+10	1	-1E+10	1	-1E+10	1	-1E+10	1	-1E+10	1
4902663	43	C	10/01/2024	15:17	-127.675	47.526	0	623.10	0	4.4900	0	34.1990	0	27.102	0	616.970	0	11.8	4	3.8	4	-1E+10	1	-1E+10	1	-1E+10	1	-1E+10	1	-1E+10	1	-1E+10	1
4902663	43	C	10/01/2024	15:17	-127.675	47.526	0	627.80	0	4.4800	0	34.2030	0	27.107	0	621.617	0	11.5	4	3.7	4	-1E+10	1	-1E+10	1	-1E+10	1	-1E+10	1	-1E+10	1	-1E+10	1
4902663	43	C	10/01/2024	15:17	-127.675	47.526	0	632.60	0	4.4710	0	34.2050	0	27.109	0	626.362	0	11.2	4	3.6	4	-1E+10	1	-1E+10	1	-1E+10	1	-1E+10	1	-1E+10	1	-1E+10	1
4902663	43	C	10/01/2024	15:17	-127.675	47.526	0	638.00	0	4.4560	0	34.2100	0	27.115	0	631.701	0	10.9	4	3.5	4	-1E+10	1	-1E+10	1	-1E+10	1	-1E+10	1	-1E+10	1	-1E+10	1
4902663	43	C	10/01/2024	15:17	-127.675	47.526	0	642.90	0	4.4300	0	34.2120	0	27.119	0	636.545	0	10.6	4	3.4	4	-1E+10	1	-1E+10	1	-1E+10	1	-1E+10	1	-1E+10	1	-1E+10	1
4902663	43	C	10/01/2024	15:17	-127.675	47.526	0	647.70	0	4.4310	0	34.2170	0	27.123	0	641.290	0	10.3	4	3.3	4	-1E+10	1	-1E+10	1	-1E+10	1	-1E+10	1	-1E+10	1	-1E+10	1
4902663	43	C	10/01/2024	15:17	-127.675	47.526	0	653.00	0	4.4220	0	34.2220	0	27.128	0	646.529	0	10.2	4	3.2	4	-1E+10	1	-1E+10	1	-1E+10	1	-1E+10	1	-1E+10	1	-1E+10	1
4902663	43	C	10/01/2024	15:17	-127.675	47.526	0	658.00	0	4.4020	0	34.2230	0	27.131	0	651.472	0	10.0	4	3.2	4	-1E+10	1	-1E+10	1	-1E+10	1	-1E+10	1	-1E+10	1	-1E+10	1
4902663	43	C	10/01/2024	15:17	-127.675	47.526	0	662.90	0	4.3980	0	34.2260	0	27.134	0	656.316	0	9.8	4	3.1	4	-1E+10	1	-1E+10	1	-1E+10	1	-1E+10	1	-1E+10	1	-1E+10	1
4902663	43	C	10/01/2024	15:17	-127.675	47.526	0	667.80	0	4.3920	0	34.2310	0	27.139	0	661.159	0	9.6	4	3.1	4	-1E+10	1	-1E+10	1	-1E+10	1	-1E+10	1	-1E+10	1	-1E+10	1
4902663	43	C	10/01/2024	15:17	-127.675	47.526	0	672.60	0	4.3810	0	34.2340	0	27.142	0	665.904	0	9.4	4	3.0	4	-1E+10	1	-1E+10	1	-1E+10	1	-1E+10	1	-1E+10	1	-1E+10	1
4902663	43	C	10/01/2024	15:17	-127.675	47.526	0	678.00	0	4.3660	0	34.2380	0	27.147	0	671.241	0	9.1	4	2.9	4	-1E+10	1	-1E+10	1	-1E+10	1	-1E+10	1	-1E+10	1	-1E+10	1
4902663	43	C	10/01/2024	15:17	-127.675	47.526	0	682.90	0	4.3320	0	34.2420	0	27.154	0	676.085	0	8.9	4	2.8	4	-1E+10	1	-1E+10	1	-1E+10	1	-1E+10	1	-1E+10	1	-1E+10	1
4902663	43	C	10/01/2024	15:17	-127.675	47.526	0	687.80	0	4.3170	0	34.2440	0	27.157	0	680.928	0	8.7	4	2.8	4	-1E+10	1	-1E+10	1	-1E+10	1	-1E+10	1	-1E+10	1	-1E+10	1
4902663	43	C	10/01/2024	15:17	-127.675	47.526	0	692.80	0	4.2970	0	34.2480	0	27.162	0	685.869	0	8.6	4	2.7	4	-1E+10	1	-1E+10	1	-1E+10	1	-1E+10	1	-1E+10	1	-1E+10	1
4902663	43	C	10/01/2024	15:17	-127.675	47.526	0	697.80	0	4.2830	0	34.2520	0	27.167	0	690.811	0	8.4	4	2.7	4	-1E+10	1	-1E+10	1	-1E+10	1	-1E+10	1	-1E+10	1	-1E+10	1
4902663	43	C	10/01/2024	15:17	-127.675	47.526	0	702.80	0	4.2650	0	34.2570	0	27.173	0	695.753	0	8.2	4	2.6	4	-1E+10	1	-1E+10	1	-1E+10	1	-1E+10	1	-1E+10	1	-1E+10	1
4902663	43	C	10/01/2024	15:17	-127.675	47.526	0	707.90	0	4.2570	0	34.2600	0	27.176	0	700.793	0	8.1	4	2.6	4	-1E+10	1	-1E+10	1	-1E+10	1	-1E+10	1	-1E+10	1	-1E+10	1
4902663	43	C	10/01/2024	15:17	-127.675	47.526	0	713.00	0	4.2460	0	34.2620	0	27.179	0	705.833	0	8.0	4	2.5	4	-1E+10	1	-1E+10	1	-1E+10	1	-1E+10	1	-1E+10	1	-1E+10	1
4902663	43	C	10/01/2024	15:17	-127.675	47.526	0	717.70	0	4.2290	0	34.2650	0	27.183	0	710.478	0	7.9	4	2.5	4	-1E+10	1	-1E+10	1	-1E+10	1	-1E+10	1	-1E+10	1	-1E+10	1
4902663	43	C	10/01/2024	15:17	-127.675	47.526	0	722.50	0	4.2220	0	34.2680	0	27.187	0	715.221	0	7.8	4	2.5	4	-1E+10	1	-1E+10	1	-1E+10	1	-1E+10	1	-1E+10	1	-1E+10	1
4902663	43	C	10/01/2024	15:17	-127.675	47.526	0	727.80	0	4.2100	0	34.2710	0	27.190	0	720.459	0	7.7	4	2.4	4	-1E+10	1	-1E+10	1	-1E+10	1	-1E+10	1	-1E+10	1	-1E+10	1
4902663	43	C	10/01/2024	15:17	-127.675	47.526	0	733.20	0	4.1990	0	34.2730	0	27.193	0	725.795	0	7.6	4	2.4	4	-1E+10	1	-1E+10	1	-1E+10	1	-1E+10	1	-1E+10	1	-1E+10	1
4902663	43	C	10/01/2024	15:17	-127.675	47.526	0	738.20	0	4.1890	0	34.2780	0	27.198	0	730.736	0	7.5	4	2.4	4	-1E+10	1	-1E+10	1	-1E+10	1	-1E+10	1	-1E+10	1	-1E+10	1
4902663	43	C	10/01/2024	15:17	-127.675	47.526	0	743.20	0	4.1810	0	34.2820	0	27.202	0	735.676	0	7.4	4	2.3	4	-1E+10	1	-1E+10	1	-1E+10	1	-1E+10	1	-1E+10	1	-1E+10	1
4902663	43	C	10/01/2024	15:17	-127.675	47.526	0	747.90	0	4.1650	0	34.2840	0	27.205	0	740.321	0	7.3	4	2.3	4	-1E+10	1	-1E+10	1	-1E+10	1	-1E+10	1	-1E+10	1	-1E+10	1
4902663	43	C	10/01/2024	15:17	-127.675	47.526	0	752.60	0	4.1310	0	34.2860	0	27.211	0	744.964	0	7.3	4	2.3	4	-1E+10	1	-1E+10	1	-1E+10	1	-1E+10	1	-1E+10	1	-1E+10	1
4902663	43	C	10/01/2024	15:17	-127.675	47.526	0	757.80	0	4.1100	0	34.2890	0	27.215	0	750.102	0	7.2	4	2.3	4	-1E+10	1	-1E+10	1	-1E+10	1	-1E+10	1	-1E+10	1	-1E+10	1
4902663	43	C	10/01/2024	15:17	-127.675	47.526	0	763.20	0	4.1000	0	34.2900	0	27.217	0	755.438	0	7.2	4	2.3	4	-1E+10	1	-1E+10	1	-1E+10	1	-1E+10	1	-1E+10	1	-1E+10	1
4902663	43	C	10/01/2024	15:17	-127.675	47.526	0	768.10	0	4.0900	0	34.2940	0	27.221	0	760.279	0	7.1	4	2.3	4	-1E+10	1	-1E+10	1	-1E+10	1	-1E+10	1	-1E+10	1	-1E+10	1
4902663	43	C	10/01/2024	15:17	-127.675	47.526	0	772.80	0	4.0830	0	34.2940	0	27.222	0	764.923	0	7.1	4	2.3	4	-1E+10	1	-1E+10	1	-1E+10	1	-1E+10	1	-1E+10	1	-1E+10	1
4902663	43	C	10/01/2024	15:17	-127.675	47.526	0	778.10	0	4.0580	0	34.2930	0	27.224	0	770.159	0	7.1	4	2.3	4	-1E+10	1	-1E+10	1	-1E+10	1	-1E+10	1	-1E+10	1	-1E+10	1
4902663	43	C	10/01/2024	15:17	-127.675	47.526	0	782.90	0	4.0360	0	34.2930	0	27.226	0	774.901	0	7.1	4	2.3	4	-1E+10	1	-1E+10	1	-1E+10	1	-1E+10	1	-1E+10	1	-1E+10	1
4902663	43	C	10/01/2024	15:17	-127.675	47.526	0	787.60	0	4.0230	0	34.2960	0	27.230	0	779.544	0	7.1	4	2.3	4	-1E+10	1	-1E+10	1	-1E+10	1	-1E+10	1	-1E+10	1	-1E+10	1
4902663	43	C	10/01/2024	15:17	-127.675	47.526	0	792.70	0	3.9940	0	34.2970	0	27.234	0	784.582	0	7.1	4	2.2	4	-1E+10	1	-1E+10	1	-1E+10	1	-1E+10	1	-1E+10	1	-1E+10	1
4902663	43	C	10/01/2024	15:17	-127.675	47.526	0	797.90	0	3.9760	0	34.2980	0	27.236	0	789.719	0	7.1	4	2.2	4	-1E+10	1	-1E+10	1	-1E+10	1	-1E+10	1	-1E+10	1	-1E+10	1
4902663	43	C	10/01/2024	15:17	-127.675	47.526	0	803.10	0	3.9630	0	34.3010	0	27.240	0	794.856	0	7.0	4	2.2	4	-1E+10	1	-1E+10	1	-1E+10	1	-1E+10	1	-1E+10	1	-1E+10	1
4902663	43	C	10/01/2024	15:17	-127.675	47.526	0	808.00	0	3.9530	0	34.3040	0	27.243	0	799.696	0	7.0	4	2.2	4	-1E+10	1	-1E+10	1	-1E+10	1	-1E+10	1	-1E+10	1	-1E+10	1
4902663	43	C	10/01/2024	15:17	-127.675	47.526	0	812.90	0	3.9420	0	34.3050	0	27.245	0	804.537	0	6.9	4	2.2	4	-1E+10	1	-1E+10	1	-1E+10	1	-1E+10	1	-1E+10	1	-1E+10	1
4902663	43	C	10/01/2024	15:17	-127.675	47.526	0	817.80	0	3.9340	0	34.3080	0	27.249	0	809.377	0	6.9	4	2.2	4	-1E+10	1	-1E+10	1	-1E+10	1	-1E+10	1	-1E+10	1	-1E+10	1
4902663	43	C	10/01/2024	15:17	-127.675	47.526	0	822.60	0	3.9280	0	34.3100	0	27.251	0	814.118	0	6.8	4	2.2	4	-1E+10	1	-1E+10	1	-1E+10	1	-1E+10	1	-1E+10	1	-1E+10	1
4902663	43	C	10/01/2024	15:17	-127.675	47.526	0	827.90	0	3.9090	0	34.3140	0	27.256	0	819.353	0	6.8	4	2.2	4	-1E+10	1	-1E+10	1	-1E+10	1	-1E+10	1	-1E+10	1	-1E+10	1
4902663	43	C	10/01/2024	15:17	-127.675	47.526	0	833.30	0	3.8880	0	34.3180	0	27.261	0	824.686	0	6.8	4	2.1	4	-1E+10	1	-1E+10	1	-1E+10	1	-1E+10	1	-1E+10	1	-1E+10	1
4902663	43	C	10/01/2024	15:17	-127.675	47.526	0	837.90	0	3.8750	0	34.3200	0	27.264	0	829.230	0	6.8	4	2.1	4	-1E+10	1	-1E+10	1	-1E+10	1	-1E+10	1	-1E+10	1	-1E+10	1
4902663	43	C	10/01/2024	15:17	-127.675	47.526	0	842.60	0	3.8630	0	34.3230	0	27.268	0	833.872	0	6.8	4	2.1	4	-1E+10	1	-1E+10	1	-1E+10	1	-1E+10	1	-1E+10	1	-1E+10	1
4902663	43	C	10/01/2024	15:17	-127.675	47.526	0	847.60	0	3.8480	0	34.3250	0	27.271	0	838.810	0	6.8	4	2.1	4	-1E+10	1	-1E+10	1	-1E+10	1	-1E+10	1	-1E+10	1	-1E+10	1
4902663	43	C	10/01/2024	15:17	-127.675	47.526	0	852.80	0	3.8410	0	34.3280	0	27.274	0	843.946	0	6.8	4	2.1	4	-1E+10	1	-1E+10	1	-1E+10	1	-1E+10	1	-1E+10	1	-1E+10	1
4902663	43	C	10/01/2024	15:17	-127.675	47.526	0	857.70	0	3.8300	0	34.3300	0	27.277	0	848.785	0	6.8	4	2.1	4	-1E+10	1	-1E+10	1	-1E+10	1	-1E+10	1	-1E+10	1	-1E+10	1
4902663	43	C	10/01/2024	15:17	-127.675	47.526	0	862.80	0	3.8190	0	34.3350	0	27.282	0	853.821	0	6.8	4	2.1	4	-1E+10	1	-1E+10	1	-1E+10	1	-1E+10	1	-1E+10	1	-1E+10	1
4902663	43	C	10/01/2024	15:17	-127.675	47.526	0	867.80	0	3.8170	0	34.3380	0	27.285	0	858.759	0	6.8	4	2.1	4	-1E+10	1	-1E+10	1	-1E+10	1	-1E+10	1	-1E+10	1	-1E+10	1
4902663	43	C	10/01/2024	15:17	-127.675	47.526	0	873.00	0	3.8210	0	34.3420	0	27.288	0	863.894	0	6.8	4	2.1	4	-1E+10	1	-1E+10	1	-1E+10	1	-1E+10	1	-1E+10	1	-1E+10	1
4902663	43	C	10/01/2024	15:17	-127.675	47.526	0	878.20	0	3.8080	0	34.3440	0	27.290	0	869.029	0	6.8	4	2.1	4	-1E+10	1	-1E+10	1	-1E+10	1	-1E+10	1	-1E+10	1	-1E+10	1
4902663	43	C	10/01/2024	15:17	-127.675	47.526	0	883.30	0	3.7920	0	34.3460	0	27.294	0	874.065	0	6.8	4	2.1	4	-1E+10	1	-1E+10	1	-1E+10	1	-1E+10	1	-1E+10	1	-1E+10	1
4902663	43	C	10/01/2024	15:17	-127.675	47.526	0	888.00	0	3.7750	0	34.3480	0	27.297	0	878.706	0	6.9	4	2.2	4	-1E+10	1	-1E+10	1	-1E+10	1	-1E+10	1	-1E+10	1	-1E+10	1
4902663	43	C	10/01/2024	15:17	-127.675	47.526	0	892.80	0	3.7520	0	34.3490	0	27.300	0	883.446	0	6.9	4	2.2	4	-1E+10	1	-1E+10	1	-1E+10	1	-1E+10	1	-1E+10	1	-1E+10	1
4902663	43	C	10/01/2024	15:17	-127.675	47.526	0	898.00	0	3.7460	0	34.3520	0	27.303	0	888.580	0	6.9	4	2.2	4	-1E+10	1	-1E+10	1	-1E+10	1	-1E+10	1	-1E+10	1	-1E+10	1
4902663	43	C	10/01/2024	15:17	-127.675	47.526	0	903.10	0	3.7430	0	34.3560	0	27.307	0	893.616	0	7.0	4	2.2	4	-1E+10	1	-1E+10	1	-1E+10	1	-1E+10	1	-1E+10	1	-1E+10	1
4902663	43	C	10/01/2024	15:17	-127.675	47.526	0	907.90	0	3.7400	0	34.3600	0	27.310	0	898.355	0	7.0	4	2.2	4	-1E+10	1	-1E+10	1	-1E+10	1	-1E+10	1	-1E+10	1	-1E+10	1
4902663	43	C	10/01/2024	15:17	-127.675	47.526	0	912.70	0	3.7350	0	34.3600	0	27.311	0	903.094	0	7.0	4	2.2	4	-1E+10	1	-1E+10	1	-1E+10	1	-1E+10	1	-1E+10	1	-1E+10	1
4902663	43	C	10/01/2024	15:17	-127.675	47.526	0	918.00	0	3.7150	0	34.3610	0	27.313	0	908.327	0	7.1	4	2.2	4	-1E+10	1	-1E+10	1	-1E+10	1	-1E+10	1	-1E+10	1	-1E+10	1
4902663	43	C	10/01/2024	15:17	-127.675	47.526	0	922.80	0	3.6900	0	34.3630	0	27.318	0	913.066	0	7.2	4	2.2	4	-1E+10	1	-1E+10	1	-1E+10	1	-1E+10	1	-1E+10	1	-1E+10	1
4902663	43	C	10/01/2024	15:17	-127.675	47.526	0	927.70	0	3.6830	0	34.3670	0	27.321	0	917.904	0	7.2	4	2.3	4	-1E+10	1	-1E+10	1	-1E+10	1	-1E+10	1	-1E+10	1	-1E+10	1
4902663	43	C	10/01/2024	15:17	-127.675	47.526	0	932.70	0	3.6710	0	34.3700	0	27.325	0	922.840	0	7.3	4	2.3	4	-1E+10	1	-1E+10	1	-1E+10	1	-1E+10	1	-1E+10	1	-1E+10	1
4902663	43	C	10/01/2024	15:17	-127.675	47.526	0	937.80	0	3.6640	0	34.3710	0	27.327	0	927.875	0	7.4	4	2.3	4	-1E+10	1	-1E+10	1	-1E+10	1	-1E+10	1	-1E+10	1	-1E+10	1
4902663	43	C	10/01/2024	15:17	-127.675	47.526	0	943.00	0	3.6340	0	34.3720	0	27.330	0	933.008	0	7.4	4	2.3	4	-1E+10	1	-1E+10	1	-1E+10	1	-1E+10	1	-1E+10	1	-1E+10	1
4902663	43	C	10/01/2024	15:17	-127.675	47.526	0	947.70	0	3.6060	0	34.3710	0	27.332	0	937.648	0	7.5	4	2.3	4	-1E+10	1	-1E+10	1	-1E+10	1	-1E+10	1	-1E+10	1	-1E+10	1
4902663	43	C	10/01/2024	15:17	-127.675	47.526	0	953.00	0	3.6110	0	34.3750	0	27.335	0	942.880	0	7.6	4	2.4	4	-1E+10	1	-1E+10	1	-1E+10	1	-1E+10	1	-1E+10	1	-1E+10	1
4902663	43	C	10/01/2024	15:17	-127.675	47.526	0	958.30	0	3.6040	0	34.3810	0	27.341	0	948.111	0	7.7	4	2.4	4	-1E+10	1	-1E+10	1	-1E+10	1	-1E+10	1	-1E+10	1	-1E+10	1
4902663	43	C	10/01/2024	15:17	-127.675	47.526	0	963.40	0	3.5890	0	34.3830	0	27.344	0	953.145	0	7.7	4	2.4	4	-1E+10	1	-1E+10	1	-1E+10	1	-1E+10	1	-1E+10	1	-1E+10	1
4902663	43	C	10/01/2024	15:17	-127.675	47.526	0	968.40	0	3.5800	0	34.3840	0	27.345	0	958.081	0	7.8	4	2.4	4	-1E+10	1	-1E+10	1	-1E+10	1	-1E+10	1	-1E+10	1	-1E+10	1
4902663	43	C	10/01/2024	15:17	-127.675	47.526	0	973.00	0	3.5500	0	34.3840	0	27.348	0	962.621	0	7.8	4	2.5	4	-1E+10	1	-1E+10	1	-1E+10	1	-1E+10	1	-1E+10	1	-1E+10	1
4902663	43	C	10/01/2024	15:17	-127.675	47.526	0	978.00	0	3.5380	0	34.3840	0	27.349	0	967.556	0	7.9	4	2.5	4	-1E+10	1	-1E+10	1	-1E+10	1	-1E+10	1	-1E+10	1	-1E+10	1
4902663	43	C	10/01/2024	15:17	-127.675	47.526	0	983.00	0	3.5240	0	34.3860	0	27.352	0	972.491	0	8.0	4	2.5	4	-1E+10	1	-1E+10	1	-1E+10	1	-1E+10	1	-1E+10	1	-1E+10	1
4902663	43	C	10/01/2024	15:17	-127.675	47.526	0	987.80	0	3.5210	0	34.3880	0	27.354	0	977.229	0	8.1	4	2.5	4	-1E+10	1	-1E+10	1	-1E+10	1	-1E+10	1	-1E+10	1	-1E+10	1
4902663	43	C	10/01/2024	15:17	-127.675	47.526	0	992.60	0	3.5170	0	34.3910	0	27.357	0	981.966	0	8.1	4	2.5	4	-1E+10	1	-1E+10	1	-1E+10	1	-1E+10	1	-1E+10	1	-1E+10	1
4902663	43	C	10/01/2024	15:17	-127.675	47.526	0	997.90	0	3.5080	0	34.3930	0	27.360	0	987.197	0	8.2	4	2.6	4	-1E+10	1	-1E+10	1	-1E+10	1	-1E+10	1	-1E+10	1	-1E+10	1
4902663	43	C	10/01/2024	15:17	-127.675	47.526	0	1005.30	0	3.4920	0	34.3970	0	27.364	0	994.500	0	8.4	4	2.6	4	-1E+10	1	-1E+10	1	-1E+10	1	-1E+10	1	-1E+10	1	-1E+10	1
4902663	43	C	10/01/2024	15:17	-127.675	47.526	0	1015.10	0	3.4720	0	34.4010	0	27.370	0	1004.171	0	8.6	4	2.7	4	-1E+10	1	-1E+10	1	-1E+10	1	-1E+10	1	-1E+10	1	-1E+10	1
4902663	43	C	10/01/2024	15:17	-127.675	47.526	0	1025.30	0	3.4490	0	34.4050	0	27.375	0	1014.237	0	8.8	4	2.7	4	-1E+10	1	-1E+10	1	-1E+10	1	-1E+10	1	-1E+10	1	-1E+10	1
4902663	43	C	10/01/2024	15:17	-127.675	47.526	0	1035.50	0	3.4260	0	34.4090	0	27.381	0	1024.302	0	9.0	4	2.8	4	-1E+10	1	-1E+10	1	-1E+10	1	-1E+10	1	-1E+10	1	-1E+10	1
4902663	43	C	10/01/2024	15:17	-127.675	47.526	0	1045.30	0	3.4070	0	34.4120	0	27.385	0	1033.972	0	9.2	4	2.9	4	-1E+10	1	-1E+10	1	-1E+10	1	-1E+10	1	-1E+10	1	-1E+10	1
4902663	43	C	10/01/2024	15:17	-127.675	47.526	0	1055.10	0	3.3920	0	34.4150	0	27.389	0	1043.641	0	9.4	4	2.9	4	-1E+10	1	-1E+10	1	-1E+10	1	-1E+10	1	-1E+10	1	-1E+10	1
4902663	43	C	10/01/2024	15:17	-127.675	47.526	0	1065.50	0	3.3700	0	34.4180	0	27.393	0	1053.902	0	9.6	4	3.0	4	-1E+10	1	-1E+10	1	-1E+10	1	-1E+10	1	-1E+10	1	-1E+10	1
4902663	43	C	10/01/2024	15:17	-127.675	47.526	0	1075.30	0	3.3380	0	34.4200	0	27.398	0	1063.571	0	9.8	4	3.0	4	-1E+10	1	-1E+10	1	-1E+10	1	-1E+10	1	-1E+10	1	-1E+10	1
4902663	43	C	10/01/2024	15:17	-127.675	47.526	0	1085.20	0	3.3210	0	34.4230	0	27.402	0	1073.337	0	10.0	4	3.1	4	-1E+10	1	-1E+10	1	-1E+10	1	-1E+10	1	-1E+10	1	-1E+10	1
4902663	43	C	10/01/2024	15:17	-127.675	47.526	0	1095.60	0	3.2950	0	34.4260	0	27.407	0	1083.597	0	10.2	4	3.2	4	-1E+10	1	-1E+10	1	-1E+10	1	-1E+10	1	-1E+10	1	-1E+10	1
4902663	43	C	10/01/2024	15:17	-127.675	47.526	0	1105.50	0	3.2770	0	34.4290	0	27.411	0	1093.363	0	10.4	4	3.2	4	-1E+10	1	-1E+10	1	-1E+10	1	-1E+10	1	-1E+10	1	-1E+10	1
4902663	43	C	10/01/2024	15:17	-127.675	47.526	0	1115.50	0	3.2630	0	34.4320	0	27.415	0	1103.226	0	10.7	4	3.3	4	-1E+10	1	-1E+10	1	-1E+10	1	-1E+10	1	-1E+10	1	-1E+10	1
4902663	43	C	10/01/2024	15:17	-127.675	47.526	0	1125.60	0	3.2240	0	34.4330	0	27.419	0	1113.189	0	10.9	4	3.4	4	-1E+10	1	-1E+10	1	-1E+10	1	-1E+10	1	-1E+10	1	-1E+10	1
4902663	43	C	10/01/2024	15:17	-127.675	47.526	0	1135.40	0	3.2060	0	34.4370	0	27.424	0	1122.854	0	11.2	4	3.5	4	-1E+10	1	-1E+10	1	-1E+10	1	-1E+10	1	-1E+10	1	-1E+10	1
4902663	43	C	10/01/2024	15:17	-127.675	47.526	0	1145.10	0	3.1790	0	34.4390	0	27.428	0	1132.421	0	11.4	4	3.5	4	-1E+10	1	-1E+10	1	-1E+10	1	-1E+10	1	-1E+10	1	-1E+10	1
4902663	43	C	10/01/2024	15:17	-127.675	47.526	0	1155.40	0	3.1560	0	34.4420	0	27.433	0	1142.579	0	11.6	4	3.6	4	-1E+10	1	-1E+10	1	-1E+10	1	-1E+10	1	-1E+10	1	-1E+10	1
4902663	43	C	10/01/2024	15:17	-127.675	47.526	0	1165.90	0	3.1320	0	34.4440	0	27.437	0	1152.934	0	11.8	4	3.7	4	-1E+10	1	-1E+10	1	-1E+10	1	-1E+10	1	-1E+10	1	-1E+10	1
4902663	43	C	10/01/2024	15:17	-127.675	47.526	0	1175.80	0	3.1030	0	34.4450	0	27.440	0	1162.696	0	12.0	4	3.7	4	-1E+10	1	-1E+10	1	-1E+10	1	-1E+10	1	-1E+10	1	-1E+10	1
4902663	43	C	10/01/2024	15:17	-127.675	47.526	0	1185.40	0	3.0810	0	34.4470	0	27.444	0	1172.163	0	12.3	4	3.8	4	-1E+10	1	-1E+10	1	-1E+10	1	-1E+10	1	-1E+10	1	-1E+10	1
4902663	43	C	10/01/2024	15:17	-127.675	47.526	0	1195.00	0	3.0480	0	34.4490	0	27.449	0	1181.628	0	12.5	4	3.9	4	-1E+10	1	-1E+10	1	-1E+10	1	-1E+10	1	-1E+10	1	-1E+10	1
4902663	43	C	10/01/2024	15:17	-127.675	47.526	0	1205.20	0	3.0280	0	34.4520	0	27.453	0	1191.685	0	12.8	4	4.0	4	-1E+10	1	-1E+10	1	-1E+10	1	-1E+10	1	-1E+10	1	-1E+10	1
4902663	43	C	10/01/2024	15:17	-127.675	47.526	0	1215.20	0	3.0190	0	34.4560	0	27.457	0	1201.545	0	13.3	4	4.1	4	-1E+10	1	-1E+10	1	-1E+10	1	-1E+10	1	-1E+10	1	-1E+10	1
4902663	43	C	10/01/2024	15:17	-127.675	47.526	0	1225.30	0	3.0130	0	34.4600	0	27.461	0	1211.502	0	13.7	4	4.2	4	-1E+10	1	-1E+10	1	-1E+10	1	-1E+10	1	-1E+10	1	-1E+10	1
4902663	43	C	10/01/2024	15:17	-127.675	47.526	0	1235.40	0	2.9940	0	34.4630	0	27.465	0	1221.459	0	14.2	4	4.4	4	-1E+10	1	-1E+10	1	-1E+10	1	-1E+10	1	-1E+10	1	-1E+10	1
4902663	43	C	10/01/2024	15:17	-127.675	47.526	0	1245.30	0	2.9750	0	34.4670	0	27.470	0	1231.218	0	14.6	4	4.5	4	-1E+10	1	-1E+10	1	-1E+10	1	-1E+10	1	-1E+10	1	-1E+10	1
4902663	43	C	10/01/2024	15:17	-127.675	47.526	0	1255.20	0	2.9600	0	34.4700	0	27.474	0	1240.977	0	15.0	4	4.6	4	-1E+10	1	-1E+10	1	-1E+10	1	-1E+10	1	-1E+10	1	-1E+10	1
4902663	43	C	10/01/2024	15:17	-127.675	47.526	0	1265.20	0	2.9430	0	34.4720	0	27.477	0	1250.834	0	15.4	4	4.7	4	-1E+10	1	-1E+10	1	-1E+10	1	-1E+10	1	-1E+10	1	-1E+10	1
4902663	43	C	10/01/2024	15:17	-127.675	47.526	0	1275.20	0	2.9260	0	34.4750	0	27.481	0	1260.691	0	15.9	4	4.9	4	-1E+10	1	-1E+10	1	-1E+10	1	-1E+10	1	-1E+10	1	-1E+10	1
4902663	43	C	10/01/2024	15:17	-127.675	47.526	0	1285.40	0	2.9000	0	34.4790	0	27.486	0	1270.744	0	16.5	4	5.1	4	-1E+10	1	-1E+10	1	-1E+10	1	-1E+10	1	-1E+10	1	-1E+10	1
4902663	43	C	10/01/2024	15:17	-127.675	47.526	0	1295.60	0	2.8780	0	34.4820	0	27.491	0	1280.797	0	16.9	4	5.2	4	-1E+10	1	-1E+10	1	-1E+10	1	-1E+10	1	-1E+10	1	-1E+10	1
4902663	43	C	10/01/2024	15:17	-127.675	47.526	0	1305.40	0	2.8610	0	34.4830	0	27.493	0	1290.455	0	17.3	4	5.3	4	-1E+10	1	-1E+10	1	-1E+10	1	-1E+10	1	-1E+10	1	-1E+10	1
4902663	43	C	10/01/2024	15:17	-127.675	47.526	0	1315.40	0	2.8420	0	34.4850	0	27.496	0	1300.309	0	17.7	4	5.4	4	-1E+10	1	-1E+10	1	-1E+10	1	-1E+10	1	-1E+10	1	-1E+10	1
4902663	43	C	10/01/2024	15:17	-127.675	47.526	0	1325.40	0	2.8200	0	34.4880	0	27.501	0	1310.164	0	18.1	4	5.6	4	-1E+10	1	-1E+10	1	-1E+10	1	-1E+10	1	-1E+10	1	-1E+10	1
4902663	43	C	10/01/2024	15:17	-127.675	47.526	0	1335.50	0	2.8040	0	34.4890	0	27.503	0	1320.116	0	18.5	4	5.7	4	-1E+10	1	-1E+10	1	-1E+10	1	-1E+10	1	-1E+10	1	-1E+10	1
4902663	43	C	10/01/2024	15:17	-127.675	47.526	0	1345.60	0	2.7860	0	34.4920	0	27.507	0	1330.068	0	19.0	4	5.8	4	-1E+10	1	-1E+10	1	-1E+10	1	-1E+10	1	-1E+10	1	-1E+10	1
4902663	43	C	10/01/2024	15:17	-127.675	47.526	0	1355.10	0	2.7710	0	34.4940	0	27.510	0	1339.428	0	19.3	4	5.9	4	-1E+10	1	-1E+10	1	-1E+10	1	-1E+10	1	-1E+10	1	-1E+10	1
4902663	43	C	10/01/2024	15:17	-127.675	47.526	0	1365.30	0	2.7600	0	34.4950	0	27.512	0	1349.477	0	19.6	4	6.0	4	-1E+10	1	-1E+10	1	-1E+10	1	-1E+10	1	-1E+10	1	-1E+10	1
4902663	43	C	10/01/2024	15:17	-127.675	47.526	0	1375.60	0	2.7440	0	34.4970	0	27.515	0	1359.625	0	20.1	4	6.2	4	-1E+10	1	-1E+10	1	-1E+10	1	-1E+10	1	-1E+10	1	-1E+10	1
4902663	43	C	10/01/2024	15:17	-127.675	47.526	0	1385.60	0	2.7250	0	34.4990	0	27.518	0	1369.476	0	20.5	4	6.3	4	-1E+10	1	-1E+10	1	-1E+10	1	-1E+10	1	-1E+10	1	-1E+10	1
4902663	43	C	10/01/2024	15:17	-127.675	47.526	0	1395.50	0	2.7080	0	34.5010	0	27.521	0	1379.228	0	21.0	4	6.4	4	-1E+10	1	-1E+10	1	-1E+10	1	-1E+10	1	-1E+10	1	-1E+10	1
4902663	43	C	10/01/2024	15:17	-127.675	47.526	0	1405.60	0	2.6830	0	34.5030	0	27.525	0	1389.177	0	21.6	4	6.6	4	-1E+10	1	-1E+10	1	-1E+10	1	-1E+10	1	-1E+10	1	-1E+10	1
4902663	43	C	10/01/2024	15:17	-127.675	47.526	0	1415.50	0	2.6590	0	34.5050	0	27.529	0	1398.929	0	22.2	4	6.8	4	-1E+10	1	-1E+10	1	-1E+10	1	-1E+10	1	-1E+10	1	-1E+10	1
4902663	43	C	10/01/2024	15:17	-127.675	47.526	0	1425.50	0	2.6430	0	34.5080	0	27.533	0	1408.779	0	22.8	4	7.0	4	-1E+10	1	-1E+10	1	-1E+10	1	-1E+10	1	-1E+10	1	-1E+10	1
4902663	43	C	10/01/2024	15:17	-127.675	47.526	0	1435.70	0	2.6330	0	34.5100	0	27.535	0	1418.825	0	23.2	4	7.1	4	-1E+10	1	-1E+10	1	-1E+10	1	-1E+10	1	-1E+10	1	-1E+10	1
4902663	43	C	10/01/2024	15:17	-127.675	47.526	0	1445.40	0	2.6240	0	34.5110	0	27.537	0	1428.378	0	23.7	4	7.3	4	-1E+10	1	-1E+10	1	-1E+10	1	-1E+10	1	-1E+10	1	-1E+10	1
4902663	43	C	10/01/2024	15:17	-127.675	47.526	0	1455.10	0	2.6080	0	34.5130	0	27.540	0	1437.931	0	24.3	4	7.4	4	-1E+10	1	-1E+10	1	-1E+10	1	-1E+10	1	-1E+10	1	-1E+10	1
4902663	43	C	10/01/2024	15:17	-127.675	47.526	0	1465.10	0	2.5910	0	34.5160	0	27.544	0	1447.778	0	24.9	4	7.6	4	-1E+10	1	-1E+10	1	-1E+10	1	-1E+10	1	-1E+10	1	-1E+10	1
4902663	43	C	10/01/2024	15:17	-127.675	47.526	0	1475.30	0	2.5730	0	34.5170	0	27.546	0	1457.823	0	25.6	4	7.8	4	-1E+10	1	-1E+10	1	-1E+10	1	-1E+10	1	-1E+10	1	-1E+10	1
4902663	43	C	10/01/2024	15:17	-127.675	47.526	0	1485.40	0	2.5490	0	34.5200	0	27.551	0	1467.768	0	26.2	4	8.0	4	-1E+10	1	-1E+10	1	-1E+10	1	-1E+10	1	-1E+10	1	-1E+10	1
4902663	43	C	10/01/2024	15:17	-127.675	47.526	0	1495.20	0	2.5370	0	34.5220	0	27.553	0	1477.417	0	26.6	4	8.1	4	-1E+10	1	-1E+10	1	-1E+10	1	-1E+10	1	-1E+10	1	-1E+10	1
4902663	43	C	10/01/2024	15:17	-127.675	47.526	0	1505.00	0	2.5160	0	34.5230	0	27.556	0	1487.066	0	27.0	4	8.2	4	-1E+10	1	-1E+10	1	-1E+10	1	-1E+10	1	-1E+10	1	-1E+10	1
4902663	43	C	10/01/2024	15:17	-127.675	47.526	0	1515.00	0	2.4880	0	34.5240	0	27.559	0	1496.912	0	27.5	4	8.4	4	-1E+10	1	-1E+10	1	-1E+10	1	-1E+10	1	-1E+10	1	-1E+10	1
4902663	43	C	10/01/2024	15:17	-127.675	47.526	0	1525.00	0	2.4710	0	34.5260	0	27.562	0	1506.757	0	27.9	4	8.5	4	-1E+10	1	-1E+10	1	-1E+10	1	-1E+10	1	-1E+10	1	-1E+10	1
4902663	43	C	10/01/2024	15:17	-127.675	47.526	0	1535.20	0	2.4590	0	34.5270	0	27.564	0	1516.798	0	28.4	4	8.7	4	-1E+10	1	-1E+10	1	-1E+10	1	-1E+10	1	-1E+10	1	-1E+10	1
4902663	43	C	10/01/2024	15:17	-127.675	47.526	0	1545.20	0	2.4420	0	34.5290	0	27.567	0	1526.642	0	28.9	4	8.8	4	-1E+10	1	-1E+10	1	-1E+10	1	-1E+10	1	-1E+10	1	-1E+10	1
4902663	43	C	10/01/2024	15:17	-127.675	47.526	0	1555.20	0	2.4290	0	34.5300	0	27.569	0	1536.486	0	29.3	4	8.9	4	-1E+10	1	-1E+10	1	-1E+10	1	-1E+10	1	-1E+10	1	-1E+10	1
4902663	43	C	10/01/2024	15:17	-127.675	47.526	0	1565.20	0	2.4010	0	34.5310	0	27.572	0	1546.329	0	29.9	4	9.1	4	-1E+10	1	-1E+10	1	-1E+10	1	-1E+10	1	-1E+10	1	-1E+10	1
4902663	43	C	10/01/2024	15:17	-127.675	47.526	0	1575.30	0	2.3970	0	34.5350	0	27.576	0	1556.270	0	30.9	4	9.4	4	-1E+10	1	-1E+10	1	-1E+10	1	-1E+10	1	-1E+10	1	-1E+10	1
4902663	43	C	10/01/2024	15:17	-127.675	47.526	0	1585.50	0	2.3740	0	34.5370	0	27.579	0	1566.309	0	31.1	4	9.5	4	-1E+10	1	-1E+10	1	-1E+10	1	-1E+10	1	-1E+10	1	-1E+10	1
4902663	43	C	10/01/2024	15:17	-127.675	47.526	0	1595.30	0	2.3370	0	34.5340	0	27.580	0	1575.954	0	31.1	4	9.4	4	-1E+10	1	-1E+10	1	-1E+10	1	-1E+10	1	-1E+10	1	-1E+10	1
4902663	43	C	10/01/2024	15:17	-127.675	47.526	0	1605.20	0	2.3160	0	34.5350	0	27.582	0	1585.697	0	31.7	4	9.6	4	-1E+10	1	-1E+10	1	-1E+10	1	-1E+10	1	-1E+10	1	-1E+10	1
4902663	43	C	10/01/2024	15:17	-127.675	47.526	0	1615.10	0	2.3030	0	34.5370	0	27.585	0	1595.439	0	32.2	4	9.8	4	-1E+10	1	-1E+10	1	-1E+10	1	-1E+10	1	-1E+10	1	-1E+10	1
4902663	43	C	10/01/2024	15:17	-127.675	47.526	0	1625.00	0	2.2850	0	34.5380	0	27.588	0	1605.181	0	32.9	4	10.0	4	-1E+10	1	-1E+10	1	-1E+10	1	-1E+10	1	-1E+10	1	-1E+10	1
4902663	43	C	10/01/2024	15:17	-127.675	47.526	0	1635.00	0	2.2720	0	34.5400	0	27.590	0	1615.021	0	33.6	4	10.2	4	-1E+10	1	-1E+10	1	-1E+10	1	-1E+10	1	-1E+10	1	-1E+10	1
4902663	43	C	10/01/2024	15:17	-127.675	47.526	0	1645.20	0	2.2600	0	34.5430	0	27.594	0	1625.058	0	34.4	4	10.4	4	-1E+10	1	-1E+10	1	-1E+10	1	-1E+10	1	-1E+10	1	-1E+10	1
4902663	43	C	10/01/2024	15:17	-127.675	47.526	0	1655.00	0	2.2460	0	34.5450	0	27.596	0	1634.700	0	35.1	4	10.6	4	-1E+10	1	-1E+10	1	-1E+10	1	-1E+10	1	-1E+10	1	-1E+10	1
4902663	43	C	10/01/2024	15:17	-127.675	47.526	0	1665.00	0	2.2340	0	34.5470	0	27.599	0	1644.538	0	35.9	4	10.9	4	-1E+10	1	-1E+10	1	-1E+10	1	-1E+10	1	-1E+10	1	-1E+10	1
4902663	43	C	10/01/2024	15:17	-127.675	47.526	0	1675.40	0	2.2170	0	34.5500	0	27.603	0	1654.770	0	36.8	4	11.2	4	-1E+10	1	-1E+10	1	-1E+10	1	-1E+10	1	-1E+10	1	-1E+10	1
4902663	43	C	10/01/2024	15:17	-127.675	47.526	0	1685.50	0	2.2030	0	34.5520	0	27.606	0	1664.706	0	37.5	4	11.4	4	-1E+10	1	-1E+10	1	-1E+10	1	-1E+10	1	-1E+10	1	-1E+10	1
4902663	43	C	10/01/2024	15:17	-127.675	47.526	0	1695.50	0	2.1930	0	34.5540	0	27.608	0	1674.543	0	38.0	4	11.5	4	-1E+10	1	-1E+10	1	-1E+10	1	-1E+10	1	-1E+10	1	-1E+10	1
4902663	43	C	10/01/2024	15:17	-127.675	47.526	0	1705.70	0	2.1840	0	34.5550	0	27.610	0	1684.577	0	38.6	4	11.7	4	-1E+10	1	-1E+10	1	-1E+10	1	-1E+10	1	-1E+10	1	-1E+10	1
4902663	43	C	10/01/2024	15:17	-127.675	47.526	0	1715.60	0	2.1740	0	34.5560	0	27.611	0	1694.314	0	39.1	4	11.8	4	-1E+10	1	-1E+10	1	-1E+10	1	-1E+10	1	-1E+10	1	-1E+10	1
4902663	43	C	10/01/2024	15:17	-127.675	47.526	0	1725.40	0	2.1650	0	34.5580	0	27.614	0	1703.954	0	39.6	4	12.0	4	-1E+10	1	-1E+10	1	-1E+10	1	-1E+10	1	-1E+10	1	-1E+10	1
4902663	43	C	10/01/2024	15:17	-127.675	47.526	0	1735.20	0	2.1580	0	34.5590	0	27.615	0	1713.592	0	40.0	4	12.1	4	-1E+10	1	-1E+10	1	-1E+10	1	-1E+10	1	-1E+10	1	-1E+10	1
4902663	43	C	10/01/2024	15:17	-127.675	47.526	0	1745.10	0	2.1480	0	34.5600	0	27.617	0	1723.329	0	40.7	4	12.3	4	-1E+10	1	-1E+10	1	-1E+10	1	-1E+10	1	-1E+10	1	-1E+10	1
4902663	43	C	10/01/2024	15:17	-127.675	47.526	0	1755.20	0	2.1320	0	34.5620	0	27.620	0	1733.261	0	41.2	4	12.5	4	-1E+10	1	-1E+10	1	-1E+10	1	-1E+10	1	-1E+10	1	-1E+10	1
4902663	43	C	10/01/2024	15:17	-127.675	47.526	0	1765.40	0	2.1210	0	34.5630	0	27.621	0	1743.292	0	41.5	4	12.6	4	-1E+10	1	-1E+10	1	-1E+10	1	-1E+10	1	-1E+10	1	-1E+10	1
4902663	43	C	10/01/2024	15:17	-127.675	47.526	0	1775.70	0	2.1140	0	34.5640	0	27.623	0	1753.421	0	41.9	4	12.7	4	-1E+10	1	-1E+10	1	-1E+10	1	-1E+10	1	-1E+10	1	-1E+10	1
4902663	43	C	10/01/2024	15:17	-127.675	47.526	0	1785.50	0	2.1090	0	34.5650	0	27.624	0	1763.057	0	42.2	4	12.8	4	-1E+10	1	-1E+10	1	-1E+10	1	-1E+10	1	-1E+10	1	-1E+10	1
4902663	43	C	10/01/2024	15:17	-127.675	47.526	0	1795.40	0	2.1030	0	34.5660	0	27.625	0	1772.791	0	42.7	4	12.9	4	-1E+10	1	-1E+10	1	-1E+10	1	-1E+10	1	-1E+10	1	-1E+10	1
4902663	43	C	10/01/2024	15:17	-127.675	47.526	0	1805.40	0	2.0980	0	34.5670	0	27.627	0	1782.623	0	43.2	4	13.0	4	-1E+10	1	-1E+10	1	-1E+10	1	-1E+10	1	-1E+10	1	-1E+10	1
4902663	43	C	10/01/2024	15:17	-127.675	47.526	0	1815.60	0	2.0870	0	34.5680	0	27.628	0	1792.652	0	43.8	4	13.2	4	-1E+10	1	-1E+10	1	-1E+10	1	-1E+10	1	-1E+10	1	-1E+10	1
4902663	43	C	10/01/2024	15:17	-127.675	47.526	0	1825.70	0	2.0760	0	34.5700	0	27.631	0	1802.581	0	44.5	4	13.4	4	-1E+10	1	-1E+10	1	-1E+10	1	-1E+10	1	-1E+10	1	-1E+10	1
4902663	43	C	10/01/2024	15:17	-127.675	47.526	0	1835.30	0	2.0670	0	34.5710	0	27.632	0	1812.019	0	45.0	4	13.6	4	-1E+10	1	-1E+10	1	-1E+10	1	-1E+10	1	-1E+10	1	-1E+10	1
4902663	43	C	10/01/2024	15:17	-127.675	47.526	0	1845.40	0	2.0590	0	34.5720	0	27.634	0	1821.947	0	45.6	4	13.8	4	-1E+10	1	-1E+10	1	-1E+10	1	-1E+10	1	-1E+10	1	-1E+10	1
4902663	43	C	10/01/2024	15:17	-127.675	47.526	0	1855.40	0	2.0480	0	34.5740	0	27.636	0	1831.777	0	46.2	4	13.9	4	-1E+10	1	-1E+10	1	-1E+10	1	-1E+10	1	-1E+10	1	-1E+10	1
4902663	43	C	10/01/2024	15:17	-127.675	47.526	0	1865.10	0	2.0390	0	34.5760	0	27.639	0	1841.312	0	46.7	4	14.1	4	-1E+10	1	-1E+10	1	-1E+10	1	-1E+10	1	-1E+10	1	-1E+10	1
4902663	43	C	10/01/2024	15:17	-127.675	47.526	0	1875.30	0	2.0310	0	34.5770	0	27.640	0	1851.337	0	47.3	4	14.3	4	-1E+10	1	-1E+10	1	-1E+10	1	-1E+10	1	-1E+10	1	-1E+10	1
4902663	43	C	10/01/2024	15:17	-127.675	47.526	0	1885.50	0	2.0210	0	34.5780	0	27.642	0	1861.362	0	48.0	4	14.5	4	-1E+10	1	-1E+10	1	-1E+10	1	-1E+10	1	-1E+10	1	-1E+10	1
4902663	43	C	10/01/2024	15:17	-127.675	47.526	0	1895.60	0	2.0100	0	34.5800	0	27.644	0	1871.289	0	48.8	4	14.7	4	-1E+10	1	-1E+10	1	-1E+10	1	-1E+10	1	-1E+10	1	-1E+10	1
4902663	43	C	10/01/2024	15:17	-127.675	47.526	0	1905.70	0	2.0000	0	34.5820	0	27.647	0	1881.215	0	49.4	4	14.9	4	-1E+10	1	-1E+10	1	-1E+10	1	-1E+10	1	-1E+10	1	-1E+10	1
4902663	43	C	10/01/2024	15:17	-127.675	47.526	0	1915.60	0	1.9930	0	34.5830	0	27.648	0	1890.943	0	50.0	4	15.1	4	-1E+10	1	-1E+10	1	-1E+10	1	-1E+10	1	-1E+10	1	-1E+10	1
4902663	43	C	10/01/2024	15:17	-127.675	47.526	0	1925.10	0	1.9830	0	34.5850	0	27.651	0	1900.279	0	50.6	4	15.3	4	-1E+10	1	-1E+10	1	-1E+10	1	-1E+10	1	-1E+10	1	-1E+10	1
4902663	43	C	10/01/2024	15:17	-127.675	47.526	0	1935.20	0	1.9760	0	34.5860	0	27.652	0	1910.203	0	51.2	4	15.4	4	-1E+10	1	-1E+10	1	-1E+10	1	-1E+10	1	-1E+10	1	-1E+10	1
4902663	43	C	10/01/2024	15:17	-127.675	47.526	0	1945.20	0	1.9680	0	34.5880	0	27.654	0	1920.029	0	51.7	4	15.6	4	-1E+10	1	-1E+10	1	-1E+10	1	-1E+10	1	-1E+10	1	-1E+10	1
4902663	43	C	10/01/2024	15:17	-127.675	47.526	0	1955.40	0	1.9610	0	34.5890	0	27.656	0	1930.051	0	52.3	4	15.8	4	-1E+10	1	-1E+10	1	-1E+10	1	-1E+10	1	-1E+10	1	-1E+10	1
4902663	43	C	10/01/2024	15:17	-127.675	47.526	0	1965.60	0	1.9530	0	34.5900	0	27.657	0	1940.072	0	53.0	4	15.9	4	-1E+10	1	-1E+10	1	-1E+10	1	-1E+10	1	-1E+10	1	-1E+10	1
4902663	43	C	10/01/2024	15:17	-127.675	47.526	0	1975.50	0	1.9450	0	34.5920	0	27.660	0	1949.798	0	53.6	4	16.1	4	-1E+10	1	-1E+10	1	-1E+10	1	-1E+10	1	-1E+10	1	-1E+10	1
4902663	43	C	10/01/2024	15:17	-127.675	47.526	0	1985.10	0	1.9360	0	34.5930	0	27.661	0	1959.229	0	54.3	4	16.3	4	-1E+10	1	-1E+10	1	-1E+10	1	-1E+10	1	-1E+10	1	-1E+10	1
4902663	43	C	10/01/2024	15:17	-127.675	47.526	0	1995.40	0	1.9280	0	34.5940	0	27.663	0	1969.348	0	54.7	4	16.5	4	-1E+10	1	-1E+10	1	-1E+10	1	-1E+10	1	-1E+10	1	-1E+10	1
4902663	43	C	10/01/2024	15:17	-127.675	47.526	0	2005.80	0	1.9220	0	34.5960	0	27.665	0	1979.564	0	54.9	4	16.5	4	-1E+10	1	-1E+10	1	-1E+10	1	-1E+10	1	-1E+10	1	-1E+10	1
4902663	43	C	10/01/2024	15:17	-127.675	47.526	0	2012.70	0	1.9170	0	34.5970	0	27.666	0	1986.341	0	54.5	4	16.4	4	-1E+10	1	-1E+10	1	-1E+10	1	-1E+10	1	-1E+10	1	-1E+10	1
4902663	43	C	10/01/2024	15:17	-127.675	47.526	0																										
